<?xml version="1.0" encoding="UTF-8" standalone="no" ?>
<gpx xmlns="http://www.topografix.com/GPX/1/1" xmlns:xsi="http://www.w3.org/2001/XMLSchema-instance" xsi:schemaLocation="http://www.topografix.com/GPX/1/1 http://www.topografix.com/GPX/1/1/gpx.xsd" version="1.1" creator="VisuGPX - https://www.visugpx.com">
  <metadata>
    <name>Locuon -Mellionnec</name>
  </metadata>
  <trk>
    <name><![CDATA[Tracé 20241120-082234]]></name>
    <extensions>
      <line xmlns="http://www.topografix.com/GPX/gpx_style/0/2">
        <color>0000FF</color>
        <width>4</width>
      </line>
    </extensions>
    <trkseg>
      <trkpt lat="48.15048" lon="-3.30309">
        <ele>259.7</ele>
        <time>2024-11-20T07:22:34Z</time>
      </trkpt>
      <trkpt lat="48.15048" lon="-3.30309">
        <ele>259.7</ele>
        <time>2024-11-20T07:22:35Z</time>
      </trkpt>
      <trkpt lat="48.15048" lon="-3.30309">
        <ele>259.7</ele>
        <time>2024-11-20T07:22:36Z</time>
      </trkpt>
      <trkpt lat="48.15048" lon="-3.30309">
        <ele>259.7</ele>
        <time>2024-11-20T07:22:37Z</time>
      </trkpt>
      <trkpt lat="48.15048" lon="-3.30309">
        <ele>259.7</ele>
        <time>2024-11-20T07:22:38Z</time>
      </trkpt>
      <trkpt lat="48.15048" lon="-3.30309">
        <ele>259.7</ele>
        <time>2024-11-20T07:22:39Z</time>
      </trkpt>
      <trkpt lat="48.15048" lon="-3.30309">
        <ele>259.7</ele>
        <time>2024-11-20T07:22:40Z</time>
      </trkpt>
      <trkpt lat="48.15048" lon="-3.30309">
        <ele>259.7</ele>
        <time>2024-11-20T07:22:41Z</time>
      </trkpt>
      <trkpt lat="48.15048" lon="-3.30309">
        <ele>259.7</ele>
        <time>2024-11-20T07:22:42Z</time>
      </trkpt>
      <trkpt lat="48.15048" lon="-3.30309">
        <ele>259.7</ele>
        <time>2024-11-20T07:22:43Z</time>
      </trkpt>
      <trkpt lat="48.15048" lon="-3.30309">
        <ele>259.7</ele>
        <time>2024-11-20T07:22:44Z</time>
      </trkpt>
      <trkpt lat="48.15048" lon="-3.30309">
        <ele>259.7</ele>
        <time>2024-11-20T07:22:45Z</time>
      </trkpt>
      <trkpt lat="48.15048" lon="-3.30309">
        <ele>259.7</ele>
        <time>2024-11-20T07:22:46Z</time>
      </trkpt>
      <trkpt lat="48.15047" lon="-3.30309">
        <ele>259.7</ele>
        <time>2024-11-20T07:22:47Z</time>
      </trkpt>
      <trkpt lat="48.15047" lon="-3.30309">
        <ele>259.8</ele>
        <time>2024-11-20T07:22:48Z</time>
      </trkpt>
      <trkpt lat="48.15047" lon="-3.30309">
        <ele>259.8</ele>
        <time>2024-11-20T07:22:49Z</time>
      </trkpt>
      <trkpt lat="48.15047" lon="-3.3031">
        <ele>259.8</ele>
        <time>2024-11-20T07:22:50Z</time>
      </trkpt>
      <trkpt lat="48.15047" lon="-3.30309">
        <ele>259.8</ele>
        <time>2024-11-20T07:22:51Z</time>
      </trkpt>
      <trkpt lat="48.15047" lon="-3.30309">
        <ele>259.8</ele>
        <time>2024-11-20T07:22:52Z</time>
      </trkpt>
      <trkpt lat="48.15047" lon="-3.30309">
        <ele>259.8</ele>
        <time>2024-11-20T07:22:53Z</time>
      </trkpt>
      <trkpt lat="48.15047" lon="-3.30309">
        <ele>259.8</ele>
        <time>2024-11-20T07:22:54Z</time>
      </trkpt>
      <trkpt lat="48.15047" lon="-3.30309">
        <ele>259.8</ele>
        <time>2024-11-20T07:22:55Z</time>
      </trkpt>
      <trkpt lat="48.15047" lon="-3.30309">
        <ele>259.8</ele>
        <time>2024-11-20T07:22:56Z</time>
      </trkpt>
      <trkpt lat="48.15047" lon="-3.30309">
        <ele>259.8</ele>
        <time>2024-11-20T07:22:57Z</time>
      </trkpt>
      <trkpt lat="48.15047" lon="-3.30309">
        <ele>259.8</ele>
        <time>2024-11-20T07:22:58Z</time>
      </trkpt>
      <trkpt lat="48.15047" lon="-3.30309">
        <ele>259.7</ele>
        <time>2024-11-20T07:22:59Z</time>
      </trkpt>
      <trkpt lat="48.15047" lon="-3.30309">
        <ele>259.8</ele>
        <time>2024-11-20T07:23:00Z</time>
      </trkpt>
      <trkpt lat="48.15047" lon="-3.30309">
        <ele>259.8</ele>
        <time>2024-11-20T07:23:01Z</time>
      </trkpt>
      <trkpt lat="48.15047" lon="-3.30309">
        <ele>259.8</ele>
        <time>2024-11-20T07:23:02Z</time>
      </trkpt>
      <trkpt lat="48.15047" lon="-3.30309">
        <ele>259.8</ele>
        <time>2024-11-20T07:23:03Z</time>
      </trkpt>
      <trkpt lat="48.15047" lon="-3.30309">
        <ele>259.8</ele>
        <time>2024-11-20T07:23:04Z</time>
      </trkpt>
      <trkpt lat="48.15047" lon="-3.30309">
        <ele>259.8</ele>
        <time>2024-11-20T07:23:05Z</time>
      </trkpt>
      <trkpt lat="48.15047" lon="-3.30309">
        <ele>259.8</ele>
        <time>2024-11-20T07:23:06Z</time>
      </trkpt>
      <trkpt lat="48.15047" lon="-3.30309">
        <ele>259.8</ele>
        <time>2024-11-20T07:23:07Z</time>
      </trkpt>
      <trkpt lat="48.15047" lon="-3.30309">
        <ele>259.8</ele>
        <time>2024-11-20T07:23:08Z</time>
      </trkpt>
      <trkpt lat="48.15047" lon="-3.30309">
        <ele>259.8</ele>
        <time>2024-11-20T07:23:09Z</time>
      </trkpt>
      <trkpt lat="48.15047" lon="-3.30309">
        <ele>259.8</ele>
        <time>2024-11-20T07:23:10Z</time>
      </trkpt>
      <trkpt lat="48.15047" lon="-3.30309">
        <ele>259.8</ele>
        <time>2024-11-20T07:23:11Z</time>
      </trkpt>
      <trkpt lat="48.15047" lon="-3.30309">
        <ele>259.8</ele>
        <time>2024-11-20T07:23:12Z</time>
      </trkpt>
      <trkpt lat="48.15047" lon="-3.30309">
        <ele>259.8</ele>
        <time>2024-11-20T07:23:13Z</time>
      </trkpt>
      <trkpt lat="48.15047" lon="-3.30309">
        <ele>259.8</ele>
        <time>2024-11-20T07:23:14Z</time>
      </trkpt>
      <trkpt lat="48.15047" lon="-3.30309">
        <ele>259.8</ele>
        <time>2024-11-20T07:23:15Z</time>
      </trkpt>
      <trkpt lat="48.15047" lon="-3.30309">
        <ele>259.8</ele>
        <time>2024-11-20T07:23:16Z</time>
      </trkpt>
      <trkpt lat="48.15047" lon="-3.30309">
        <ele>259.8</ele>
        <time>2024-11-20T07:23:17Z</time>
      </trkpt>
      <trkpt lat="48.15047" lon="-3.30309">
        <ele>259.8</ele>
        <time>2024-11-20T07:23:18Z</time>
      </trkpt>
      <trkpt lat="48.15047" lon="-3.30309">
        <ele>259.8</ele>
        <time>2024-11-20T07:23:19Z</time>
      </trkpt>
      <trkpt lat="48.15047" lon="-3.30309">
        <ele>259.8</ele>
        <time>2024-11-20T07:23:20Z</time>
      </trkpt>
      <trkpt lat="48.15047" lon="-3.30309">
        <ele>259.8</ele>
        <time>2024-11-20T07:23:21Z</time>
      </trkpt>
      <trkpt lat="48.15047" lon="-3.30309">
        <ele>259.8</ele>
        <time>2024-11-20T07:23:22Z</time>
      </trkpt>
      <trkpt lat="48.15047" lon="-3.30309">
        <ele>259.8</ele>
        <time>2024-11-20T07:23:23Z</time>
      </trkpt>
      <trkpt lat="48.15047" lon="-3.30309">
        <ele>259.8</ele>
        <time>2024-11-20T07:23:24Z</time>
      </trkpt>
      <trkpt lat="48.15047" lon="-3.30309">
        <ele>259.8</ele>
        <time>2024-11-20T07:23:25Z</time>
      </trkpt>
      <trkpt lat="48.15047" lon="-3.30309">
        <ele>259.8</ele>
        <time>2024-11-20T07:23:26Z</time>
      </trkpt>
      <trkpt lat="48.15047" lon="-3.30309">
        <ele>259.8</ele>
        <time>2024-11-20T07:23:27Z</time>
      </trkpt>
      <trkpt lat="48.15047" lon="-3.30309">
        <ele>259.8</ele>
        <time>2024-11-20T07:23:28Z</time>
      </trkpt>
      <trkpt lat="48.15047" lon="-3.30309">
        <ele>259.8</ele>
        <time>2024-11-20T07:23:29Z</time>
      </trkpt>
      <trkpt lat="48.15047" lon="-3.30309">
        <ele>259.8</ele>
        <time>2024-11-20T07:23:30Z</time>
      </trkpt>
      <trkpt lat="48.15047" lon="-3.30309">
        <ele>259.8</ele>
        <time>2024-11-20T07:23:31Z</time>
      </trkpt>
      <trkpt lat="48.15047" lon="-3.30309">
        <ele>259.8</ele>
        <time>2024-11-20T07:23:32Z</time>
      </trkpt>
      <trkpt lat="48.15047" lon="-3.30309">
        <ele>259.8</ele>
        <time>2024-11-20T07:23:33Z</time>
      </trkpt>
      <trkpt lat="48.15047" lon="-3.30309">
        <ele>259.8</ele>
        <time>2024-11-20T07:23:34Z</time>
      </trkpt>
      <trkpt lat="48.15047" lon="-3.30309">
        <ele>259.8</ele>
        <time>2024-11-20T07:23:35Z</time>
      </trkpt>
      <trkpt lat="48.15047" lon="-3.30309">
        <ele>259.8</ele>
        <time>2024-11-20T07:23:36Z</time>
      </trkpt>
      <trkpt lat="48.15047" lon="-3.30309">
        <ele>259.8</ele>
        <time>2024-11-20T07:23:37Z</time>
      </trkpt>
      <trkpt lat="48.15047" lon="-3.30309">
        <ele>259.8</ele>
        <time>2024-11-20T07:23:38Z</time>
      </trkpt>
      <trkpt lat="48.15047" lon="-3.30309">
        <ele>259.8</ele>
        <time>2024-11-20T07:23:39Z</time>
      </trkpt>
      <trkpt lat="48.15047" lon="-3.30309">
        <ele>259.8</ele>
        <time>2024-11-20T07:23:40Z</time>
      </trkpt>
      <trkpt lat="48.15047" lon="-3.30309">
        <ele>259.8</ele>
        <time>2024-11-20T07:23:41Z</time>
      </trkpt>
      <trkpt lat="48.15047" lon="-3.30309">
        <ele>259.8</ele>
        <time>2024-11-20T07:23:42Z</time>
      </trkpt>
      <trkpt lat="48.15047" lon="-3.30309">
        <ele>259.8</ele>
        <time>2024-11-20T07:23:43Z</time>
      </trkpt>
      <trkpt lat="48.15047" lon="-3.30309">
        <ele>259.8</ele>
        <time>2024-11-20T07:23:44Z</time>
      </trkpt>
      <trkpt lat="48.15047" lon="-3.30309">
        <ele>259.8</ele>
        <time>2024-11-20T07:23:45Z</time>
      </trkpt>
      <trkpt lat="48.15047" lon="-3.30309">
        <ele>259.8</ele>
        <time>2024-11-20T07:23:46Z</time>
      </trkpt>
      <trkpt lat="48.15047" lon="-3.30309">
        <ele>259.8</ele>
        <time>2024-11-20T07:23:47Z</time>
      </trkpt>
      <trkpt lat="48.15047" lon="-3.30309">
        <ele>259.8</ele>
        <time>2024-11-20T07:23:48Z</time>
      </trkpt>
      <trkpt lat="48.15047" lon="-3.30309">
        <ele>259.8</ele>
        <time>2024-11-20T07:23:49Z</time>
      </trkpt>
      <trkpt lat="48.15046" lon="-3.30309">
        <ele>259.8</ele>
        <time>2024-11-20T07:23:50Z</time>
      </trkpt>
      <trkpt lat="48.15046" lon="-3.30309">
        <ele>259.9</ele>
        <time>2024-11-20T07:23:51Z</time>
      </trkpt>
      <trkpt lat="48.15046" lon="-3.3031">
        <ele>259.9</ele>
        <time>2024-11-20T07:23:52Z</time>
      </trkpt>
      <trkpt lat="48.15046" lon="-3.30311">
        <ele>259.9</ele>
        <time>2024-11-20T07:23:53Z</time>
      </trkpt>
      <trkpt lat="48.15045" lon="-3.30312">
        <ele>260</ele>
        <time>2024-11-20T07:23:54Z</time>
      </trkpt>
      <trkpt lat="48.15044" lon="-3.30312">
        <ele>260.1</ele>
        <time>2024-11-20T07:23:55Z</time>
      </trkpt>
      <trkpt lat="48.15043" lon="-3.30314">
        <ele>260.2</ele>
        <time>2024-11-20T07:23:56Z</time>
      </trkpt>
      <trkpt lat="48.15043" lon="-3.30314">
        <ele>260.2</ele>
        <time>2024-11-20T07:23:57Z</time>
      </trkpt>
      <trkpt lat="48.15042" lon="-3.30316">
        <ele>260.3</ele>
        <time>2024-11-20T07:23:58Z</time>
      </trkpt>
      <trkpt lat="48.15041" lon="-3.30317">
        <ele>260.4</ele>
        <time>2024-11-20T07:23:59Z</time>
      </trkpt>
      <trkpt lat="48.15041" lon="-3.30318">
        <ele>260.5</ele>
        <time>2024-11-20T07:24:00Z</time>
      </trkpt>
      <trkpt lat="48.1504" lon="-3.30319">
        <ele>260.6</ele>
        <time>2024-11-20T07:24:01Z</time>
      </trkpt>
      <trkpt lat="48.1504" lon="-3.30319">
        <ele>260.6</ele>
        <time>2024-11-20T07:24:02Z</time>
      </trkpt>
      <trkpt lat="48.1504" lon="-3.3032">
        <ele>260.7</ele>
        <time>2024-11-20T07:24:03Z</time>
      </trkpt>
      <trkpt lat="48.15039" lon="-3.30321">
        <ele>260.8</ele>
        <time>2024-11-20T07:24:04Z</time>
      </trkpt>
      <trkpt lat="48.15038" lon="-3.30322">
        <ele>260.9</ele>
        <time>2024-11-20T07:24:05Z</time>
      </trkpt>
      <trkpt lat="48.15038" lon="-3.30323">
        <ele>260.9</ele>
        <time>2024-11-20T07:24:06Z</time>
      </trkpt>
      <trkpt lat="48.15037" lon="-3.30324">
        <ele>261</ele>
        <time>2024-11-20T07:24:07Z</time>
      </trkpt>
      <trkpt lat="48.15036" lon="-3.30325">
        <ele>261.1</ele>
        <time>2024-11-20T07:24:08Z</time>
      </trkpt>
      <trkpt lat="48.15036" lon="-3.30326">
        <ele>261.2</ele>
        <time>2024-11-20T07:24:09Z</time>
      </trkpt>
      <trkpt lat="48.15035" lon="-3.30327">
        <ele>261.2</ele>
        <time>2024-11-20T07:24:10Z</time>
      </trkpt>
      <trkpt lat="48.15035" lon="-3.30328">
        <ele>261.3</ele>
        <time>2024-11-20T07:24:11Z</time>
      </trkpt>
      <trkpt lat="48.15034" lon="-3.3033">
        <ele>261.4</ele>
        <time>2024-11-20T07:24:12Z</time>
      </trkpt>
      <trkpt lat="48.15034" lon="-3.30331">
        <ele>261.5</ele>
        <time>2024-11-20T07:24:13Z</time>
      </trkpt>
      <trkpt lat="48.15033" lon="-3.30332">
        <ele>261.6</ele>
        <time>2024-11-20T07:24:14Z</time>
      </trkpt>
      <trkpt lat="48.15032" lon="-3.30333">
        <ele>261.7</ele>
        <time>2024-11-20T07:24:15Z</time>
      </trkpt>
      <trkpt lat="48.15032" lon="-3.30334">
        <ele>261.7</ele>
        <time>2024-11-20T07:24:16Z</time>
      </trkpt>
      <trkpt lat="48.15031" lon="-3.30335">
        <ele>261.8</ele>
        <time>2024-11-20T07:24:17Z</time>
      </trkpt>
      <trkpt lat="48.1503" lon="-3.30336">
        <ele>261.9</ele>
        <time>2024-11-20T07:24:18Z</time>
      </trkpt>
      <trkpt lat="48.15029" lon="-3.30336">
        <ele>261.9</ele>
        <time>2024-11-20T07:24:19Z</time>
      </trkpt>
      <trkpt lat="48.15028" lon="-3.30336">
        <ele>262</ele>
        <time>2024-11-20T07:24:20Z</time>
      </trkpt>
      <trkpt lat="48.15027" lon="-3.30336">
        <ele>262</ele>
        <time>2024-11-20T07:24:21Z</time>
      </trkpt>
      <trkpt lat="48.15026" lon="-3.30336">
        <ele>262</ele>
        <time>2024-11-20T07:24:22Z</time>
      </trkpt>
      <trkpt lat="48.15025" lon="-3.30336">
        <ele>262</ele>
        <time>2024-11-20T07:24:23Z</time>
      </trkpt>
      <trkpt lat="48.15024" lon="-3.30336">
        <ele>262</ele>
        <time>2024-11-20T07:24:24Z</time>
      </trkpt>
      <trkpt lat="48.15023" lon="-3.30336">
        <ele>262</ele>
        <time>2024-11-20T07:24:25Z</time>
      </trkpt>
      <trkpt lat="48.15022" lon="-3.30336">
        <ele>262</ele>
        <time>2024-11-20T07:24:26Z</time>
      </trkpt>
      <trkpt lat="48.15021" lon="-3.30335">
        <ele>262</ele>
        <time>2024-11-20T07:24:27Z</time>
      </trkpt>
      <trkpt lat="48.1502" lon="-3.30335">
        <ele>262</ele>
        <time>2024-11-20T07:24:28Z</time>
      </trkpt>
      <trkpt lat="48.15021" lon="-3.30335">
        <ele>262</ele>
        <time>2024-11-20T07:24:29Z</time>
      </trkpt>
      <trkpt lat="48.15021" lon="-3.30334">
        <ele>262</ele>
        <time>2024-11-20T07:24:30Z</time>
      </trkpt>
      <trkpt lat="48.15021" lon="-3.30334">
        <ele>262</ele>
        <time>2024-11-20T07:24:31Z</time>
      </trkpt>
      <trkpt lat="48.15021" lon="-3.30334">
        <ele>262</ele>
        <time>2024-11-20T07:24:32Z</time>
      </trkpt>
      <trkpt lat="48.15021" lon="-3.30334">
        <ele>262</ele>
        <time>2024-11-20T07:24:33Z</time>
      </trkpt>
      <trkpt lat="48.15021" lon="-3.30334">
        <ele>262</ele>
        <time>2024-11-20T07:24:34Z</time>
      </trkpt>
      <trkpt lat="48.15024" lon="-3.30339">
        <ele>262</ele>
        <time>2024-11-20T07:24:38Z</time>
      </trkpt>
      <trkpt lat="48.15024" lon="-3.30341">
        <ele>262</ele>
        <time>2024-11-20T07:24:39Z</time>
      </trkpt>
      <trkpt lat="48.15024" lon="-3.30342">
        <ele>262</ele>
        <time>2024-11-20T07:24:40Z</time>
      </trkpt>
      <trkpt lat="48.15024" lon="-3.30343">
        <ele>262</ele>
        <time>2024-11-20T07:24:41Z</time>
      </trkpt>
      <trkpt lat="48.15024" lon="-3.30344">
        <ele>262</ele>
        <time>2024-11-20T07:24:42Z</time>
      </trkpt>
      <trkpt lat="48.15024" lon="-3.30346">
        <ele>262</ele>
        <time>2024-11-20T07:24:43Z</time>
      </trkpt>
      <trkpt lat="48.15023" lon="-3.30347">
        <ele>262</ele>
        <time>2024-11-20T07:24:44Z</time>
      </trkpt>
      <trkpt lat="48.15023" lon="-3.30349">
        <ele>262</ele>
        <time>2024-11-20T07:24:45Z</time>
      </trkpt>
      <trkpt lat="48.15022" lon="-3.3035">
        <ele>262</ele>
        <time>2024-11-20T07:24:46Z</time>
      </trkpt>
      <trkpt lat="48.15021" lon="-3.30351">
        <ele>262</ele>
        <time>2024-11-20T07:24:47Z</time>
      </trkpt>
      <trkpt lat="48.15021" lon="-3.30352">
        <ele>262</ele>
        <time>2024-11-20T07:24:48Z</time>
      </trkpt>
      <trkpt lat="48.1502" lon="-3.30354">
        <ele>262</ele>
        <time>2024-11-20T07:24:49Z</time>
      </trkpt>
      <trkpt lat="48.1502" lon="-3.30355">
        <ele>262</ele>
        <time>2024-11-20T07:24:50Z</time>
      </trkpt>
      <trkpt lat="48.1502" lon="-3.30357">
        <ele>262</ele>
        <time>2024-11-20T07:24:51Z</time>
      </trkpt>
      <trkpt lat="48.15019" lon="-3.30358">
        <ele>262</ele>
        <time>2024-11-20T07:24:52Z</time>
      </trkpt>
      <trkpt lat="48.15019" lon="-3.30359">
        <ele>262</ele>
        <time>2024-11-20T07:24:53Z</time>
      </trkpt>
      <trkpt lat="48.15018" lon="-3.30361">
        <ele>262</ele>
        <time>2024-11-20T07:24:54Z</time>
      </trkpt>
      <trkpt lat="48.15018" lon="-3.30362">
        <ele>262</ele>
        <time>2024-11-20T07:24:55Z</time>
      </trkpt>
      <trkpt lat="48.15017" lon="-3.30362">
        <ele>262</ele>
        <time>2024-11-20T07:24:56Z</time>
      </trkpt>
      <trkpt lat="48.15017" lon="-3.30362">
        <ele>262</ele>
        <time>2024-11-20T07:24:57Z</time>
      </trkpt>
      <trkpt lat="48.15017" lon="-3.30362">
        <ele>262</ele>
        <time>2024-11-20T07:24:58Z</time>
      </trkpt>
      <trkpt lat="48.15017" lon="-3.30362">
        <ele>262</ele>
        <time>2024-11-20T07:24:59Z</time>
      </trkpt>
      <trkpt lat="48.15017" lon="-3.30362">
        <ele>262</ele>
        <time>2024-11-20T07:25:00Z</time>
      </trkpt>
      <trkpt lat="48.15016" lon="-3.30362">
        <ele>262</ele>
        <time>2024-11-20T07:25:01Z</time>
      </trkpt>
      <trkpt lat="48.15016" lon="-3.30362">
        <ele>262</ele>
        <time>2024-11-20T07:25:02Z</time>
      </trkpt>
      <trkpt lat="48.15016" lon="-3.30362">
        <ele>262</ele>
        <time>2024-11-20T07:25:03Z</time>
      </trkpt>
      <trkpt lat="48.15016" lon="-3.30362">
        <ele>262</ele>
        <time>2024-11-20T07:25:04Z</time>
      </trkpt>
      <trkpt lat="48.15016" lon="-3.30362">
        <ele>262</ele>
        <time>2024-11-20T07:25:05Z</time>
      </trkpt>
      <trkpt lat="48.15014" lon="-3.30362">
        <ele>262</ele>
        <time>2024-11-20T07:25:06Z</time>
      </trkpt>
      <trkpt lat="48.15013" lon="-3.30363">
        <ele>262</ele>
        <time>2024-11-20T07:25:07Z</time>
      </trkpt>
      <trkpt lat="48.15012" lon="-3.30363">
        <ele>262</ele>
        <time>2024-11-20T07:25:08Z</time>
      </trkpt>
      <trkpt lat="48.15011" lon="-3.30364">
        <ele>262</ele>
        <time>2024-11-20T07:25:09Z</time>
      </trkpt>
      <trkpt lat="48.1501" lon="-3.30364">
        <ele>262</ele>
        <time>2024-11-20T07:25:10Z</time>
      </trkpt>
      <trkpt lat="48.15009" lon="-3.30363">
        <ele>262</ele>
        <time>2024-11-20T07:25:11Z</time>
      </trkpt>
      <trkpt lat="48.15008" lon="-3.30363">
        <ele>262</ele>
        <time>2024-11-20T07:25:12Z</time>
      </trkpt>
      <trkpt lat="48.15006" lon="-3.30362">
        <ele>262</ele>
        <time>2024-11-20T07:25:13Z</time>
      </trkpt>
      <trkpt lat="48.15005" lon="-3.30362">
        <ele>262</ele>
        <time>2024-11-20T07:25:14Z</time>
      </trkpt>
      <trkpt lat="48.15005" lon="-3.30361">
        <ele>262</ele>
        <time>2024-11-20T07:25:15Z</time>
      </trkpt>
      <trkpt lat="48.15003" lon="-3.30361">
        <ele>262</ele>
        <time>2024-11-20T07:25:16Z</time>
      </trkpt>
      <trkpt lat="48.15002" lon="-3.3036">
        <ele>262</ele>
        <time>2024-11-20T07:25:17Z</time>
      </trkpt>
      <trkpt lat="48.15001" lon="-3.3036">
        <ele>262</ele>
        <time>2024-11-20T07:25:18Z</time>
      </trkpt>
      <trkpt lat="48.15001" lon="-3.3036">
        <ele>262</ele>
        <time>2024-11-20T07:25:19Z</time>
      </trkpt>
      <trkpt lat="48.15" lon="-3.3036">
        <ele>262</ele>
        <time>2024-11-20T07:25:20Z</time>
      </trkpt>
      <trkpt lat="48.15" lon="-3.3036">
        <ele>262</ele>
        <time>2024-11-20T07:25:21Z</time>
      </trkpt>
      <trkpt lat="48.15" lon="-3.3036">
        <ele>262</ele>
        <time>2024-11-20T07:25:22Z</time>
      </trkpt>
      <trkpt lat="48.15" lon="-3.3036">
        <ele>262</ele>
        <time>2024-11-20T07:25:23Z</time>
      </trkpt>
      <trkpt lat="48.15" lon="-3.3036">
        <ele>262</ele>
        <time>2024-11-20T07:25:24Z</time>
      </trkpt>
      <trkpt lat="48.14999" lon="-3.3036">
        <ele>261.9</ele>
        <time>2024-11-20T07:25:25Z</time>
      </trkpt>
      <trkpt lat="48.14998" lon="-3.30359">
        <ele>261.8</ele>
        <time>2024-11-20T07:25:26Z</time>
      </trkpt>
      <trkpt lat="48.14997" lon="-3.30359">
        <ele>261.7</ele>
        <time>2024-11-20T07:25:27Z</time>
      </trkpt>
      <trkpt lat="48.14995" lon="-3.30359">
        <ele>261.6</ele>
        <time>2024-11-20T07:25:28Z</time>
      </trkpt>
      <trkpt lat="48.14994" lon="-3.30359">
        <ele>261.6</ele>
        <time>2024-11-20T07:25:29Z</time>
      </trkpt>
      <trkpt lat="48.14993" lon="-3.30359">
        <ele>261.5</ele>
        <time>2024-11-20T07:25:30Z</time>
      </trkpt>
      <trkpt lat="48.14992" lon="-3.30359">
        <ele>261.4</ele>
        <time>2024-11-20T07:25:31Z</time>
      </trkpt>
      <trkpt lat="48.14991" lon="-3.30359">
        <ele>261.3</ele>
        <time>2024-11-20T07:25:32Z</time>
      </trkpt>
      <trkpt lat="48.1499" lon="-3.30359">
        <ele>261.2</ele>
        <time>2024-11-20T07:25:33Z</time>
      </trkpt>
      <trkpt lat="48.14988" lon="-3.30359">
        <ele>261.1</ele>
        <time>2024-11-20T07:25:34Z</time>
      </trkpt>
      <trkpt lat="48.14987" lon="-3.30358">
        <ele>261</ele>
        <time>2024-11-20T07:25:35Z</time>
      </trkpt>
      <trkpt lat="48.14986" lon="-3.30358">
        <ele>260.9</ele>
        <time>2024-11-20T07:25:36Z</time>
      </trkpt>
      <trkpt lat="48.14985" lon="-3.30358">
        <ele>260.8</ele>
        <time>2024-11-20T07:25:37Z</time>
      </trkpt>
      <trkpt lat="48.14984" lon="-3.30357">
        <ele>260.7</ele>
        <time>2024-11-20T07:25:38Z</time>
      </trkpt>
      <trkpt lat="48.14983" lon="-3.30357">
        <ele>260.7</ele>
        <time>2024-11-20T07:25:39Z</time>
      </trkpt>
      <trkpt lat="48.14982" lon="-3.30357">
        <ele>260.6</ele>
        <time>2024-11-20T07:25:40Z</time>
      </trkpt>
      <trkpt lat="48.1498" lon="-3.30356">
        <ele>260.5</ele>
        <time>2024-11-20T07:25:41Z</time>
      </trkpt>
      <trkpt lat="48.14979" lon="-3.30356">
        <ele>260.3</ele>
        <time>2024-11-20T07:25:42Z</time>
      </trkpt>
      <trkpt lat="48.14978" lon="-3.30357">
        <ele>260.3</ele>
        <time>2024-11-20T07:25:43Z</time>
      </trkpt>
      <trkpt lat="48.14977" lon="-3.30357">
        <ele>260.2</ele>
        <time>2024-11-20T07:25:44Z</time>
      </trkpt>
      <trkpt lat="48.14976" lon="-3.30358">
        <ele>260.1</ele>
        <time>2024-11-20T07:25:45Z</time>
      </trkpt>
      <trkpt lat="48.14975" lon="-3.30358">
        <ele>260.1</ele>
        <time>2024-11-20T07:25:46Z</time>
      </trkpt>
      <trkpt lat="48.14974" lon="-3.30358">
        <ele>260</ele>
        <time>2024-11-20T07:25:47Z</time>
      </trkpt>
      <trkpt lat="48.14973" lon="-3.30358">
        <ele>259.9</ele>
        <time>2024-11-20T07:25:48Z</time>
      </trkpt>
      <trkpt lat="48.14971" lon="-3.30358">
        <ele>259.9</ele>
        <time>2024-11-20T07:25:49Z</time>
      </trkpt>
      <trkpt lat="48.1497" lon="-3.30358">
        <ele>259.8</ele>
        <time>2024-11-20T07:25:50Z</time>
      </trkpt>
      <trkpt lat="48.14969" lon="-3.30358">
        <ele>259.7</ele>
        <time>2024-11-20T07:25:51Z</time>
      </trkpt>
      <trkpt lat="48.14968" lon="-3.30357">
        <ele>259.7</ele>
        <time>2024-11-20T07:25:52Z</time>
      </trkpt>
      <trkpt lat="48.14966" lon="-3.30357">
        <ele>259.6</ele>
        <time>2024-11-20T07:25:53Z</time>
      </trkpt>
      <trkpt lat="48.14965" lon="-3.30357">
        <ele>259.6</ele>
        <time>2024-11-20T07:25:54Z</time>
      </trkpt>
      <trkpt lat="48.14964" lon="-3.30357">
        <ele>259.6</ele>
        <time>2024-11-20T07:25:55Z</time>
      </trkpt>
      <trkpt lat="48.14963" lon="-3.30357">
        <ele>259.5</ele>
        <time>2024-11-20T07:25:56Z</time>
      </trkpt>
      <trkpt lat="48.14962" lon="-3.30357">
        <ele>259.5</ele>
        <time>2024-11-20T07:25:57Z</time>
      </trkpt>
      <trkpt lat="48.14961" lon="-3.30357">
        <ele>259.4</ele>
        <time>2024-11-20T07:25:58Z</time>
      </trkpt>
      <trkpt lat="48.1496" lon="-3.30357">
        <ele>259.4</ele>
        <time>2024-11-20T07:25:59Z</time>
      </trkpt>
      <trkpt lat="48.14959" lon="-3.30356">
        <ele>259.3</ele>
        <time>2024-11-20T07:26:00Z</time>
      </trkpt>
      <trkpt lat="48.14958" lon="-3.30357">
        <ele>259.3</ele>
        <time>2024-11-20T07:26:01Z</time>
      </trkpt>
      <trkpt lat="48.14956" lon="-3.30357">
        <ele>259.3</ele>
        <time>2024-11-20T07:26:02Z</time>
      </trkpt>
      <trkpt lat="48.14955" lon="-3.30357">
        <ele>259.2</ele>
        <time>2024-11-20T07:26:03Z</time>
      </trkpt>
      <trkpt lat="48.14954" lon="-3.30357">
        <ele>259.2</ele>
        <time>2024-11-20T07:26:04Z</time>
      </trkpt>
      <trkpt lat="48.14953" lon="-3.30357">
        <ele>259.2</ele>
        <time>2024-11-20T07:26:05Z</time>
      </trkpt>
      <trkpt lat="48.14952" lon="-3.30357">
        <ele>259.1</ele>
        <time>2024-11-20T07:26:06Z</time>
      </trkpt>
      <trkpt lat="48.14951" lon="-3.30357">
        <ele>259.1</ele>
        <time>2024-11-20T07:26:07Z</time>
      </trkpt>
      <trkpt lat="48.1495" lon="-3.30357">
        <ele>259.1</ele>
        <time>2024-11-20T07:26:08Z</time>
      </trkpt>
      <trkpt lat="48.14948" lon="-3.30357">
        <ele>259</ele>
        <time>2024-11-20T07:26:09Z</time>
      </trkpt>
      <trkpt lat="48.14947" lon="-3.30357">
        <ele>259</ele>
        <time>2024-11-20T07:26:10Z</time>
      </trkpt>
      <trkpt lat="48.14946" lon="-3.30357">
        <ele>258.9</ele>
        <time>2024-11-20T07:26:11Z</time>
      </trkpt>
      <trkpt lat="48.14944" lon="-3.30357">
        <ele>258.8</ele>
        <time>2024-11-20T07:26:12Z</time>
      </trkpt>
      <trkpt lat="48.14943" lon="-3.30356">
        <ele>258.8</ele>
        <time>2024-11-20T07:26:13Z</time>
      </trkpt>
      <trkpt lat="48.14942" lon="-3.30356">
        <ele>258.7</ele>
        <time>2024-11-20T07:26:14Z</time>
      </trkpt>
      <trkpt lat="48.14941" lon="-3.30356">
        <ele>258.7</ele>
        <time>2024-11-20T07:26:15Z</time>
      </trkpt>
      <trkpt lat="48.1494" lon="-3.30357">
        <ele>258.7</ele>
        <time>2024-11-20T07:26:16Z</time>
      </trkpt>
      <trkpt lat="48.14939" lon="-3.30357">
        <ele>258.7</ele>
        <time>2024-11-20T07:26:17Z</time>
      </trkpt>
      <trkpt lat="48.14938" lon="-3.30357">
        <ele>258.6</ele>
        <time>2024-11-20T07:26:18Z</time>
      </trkpt>
      <trkpt lat="48.14936" lon="-3.30357">
        <ele>258.6</ele>
        <time>2024-11-20T07:26:19Z</time>
      </trkpt>
      <trkpt lat="48.14935" lon="-3.30357">
        <ele>258.6</ele>
        <time>2024-11-20T07:26:20Z</time>
      </trkpt>
      <trkpt lat="48.14934" lon="-3.30357">
        <ele>258.5</ele>
        <time>2024-11-20T07:26:21Z</time>
      </trkpt>
      <trkpt lat="48.14932" lon="-3.30357">
        <ele>258.5</ele>
        <time>2024-11-20T07:26:22Z</time>
      </trkpt>
      <trkpt lat="48.14931" lon="-3.30357">
        <ele>258.4</ele>
        <time>2024-11-20T07:26:23Z</time>
      </trkpt>
      <trkpt lat="48.14929" lon="-3.30357">
        <ele>258.4</ele>
        <time>2024-11-20T07:26:24Z</time>
      </trkpt>
      <trkpt lat="48.14928" lon="-3.30357">
        <ele>258.3</ele>
        <time>2024-11-20T07:26:25Z</time>
      </trkpt>
      <trkpt lat="48.14927" lon="-3.30356">
        <ele>258.3</ele>
        <time>2024-11-20T07:26:26Z</time>
      </trkpt>
      <trkpt lat="48.14926" lon="-3.30356">
        <ele>258.3</ele>
        <time>2024-11-20T07:26:27Z</time>
      </trkpt>
      <trkpt lat="48.14925" lon="-3.30357">
        <ele>258.2</ele>
        <time>2024-11-20T07:26:28Z</time>
      </trkpt>
      <trkpt lat="48.14924" lon="-3.30357">
        <ele>258.2</ele>
        <time>2024-11-20T07:26:29Z</time>
      </trkpt>
      <trkpt lat="48.14923" lon="-3.30358">
        <ele>258.2</ele>
        <time>2024-11-20T07:26:30Z</time>
      </trkpt>
      <trkpt lat="48.14923" lon="-3.30358">
        <ele>258.2</ele>
        <time>2024-11-20T07:26:31Z</time>
      </trkpt>
      <trkpt lat="48.14922" lon="-3.30358">
        <ele>258.2</ele>
        <time>2024-11-20T07:26:32Z</time>
      </trkpt>
      <trkpt lat="48.14921" lon="-3.30359">
        <ele>258.1</ele>
        <time>2024-11-20T07:26:33Z</time>
      </trkpt>
      <trkpt lat="48.1492" lon="-3.30359">
        <ele>258.1</ele>
        <time>2024-11-20T07:26:34Z</time>
      </trkpt>
      <trkpt lat="48.14918" lon="-3.30359">
        <ele>258.1</ele>
        <time>2024-11-20T07:26:35Z</time>
      </trkpt>
      <trkpt lat="48.14917" lon="-3.30359">
        <ele>258</ele>
        <time>2024-11-20T07:26:36Z</time>
      </trkpt>
      <trkpt lat="48.14916" lon="-3.30359">
        <ele>257.9</ele>
        <time>2024-11-20T07:26:37Z</time>
      </trkpt>
      <trkpt lat="48.14915" lon="-3.30359">
        <ele>257.8</ele>
        <time>2024-11-20T07:26:38Z</time>
      </trkpt>
      <trkpt lat="48.14914" lon="-3.30358">
        <ele>257.7</ele>
        <time>2024-11-20T07:26:39Z</time>
      </trkpt>
      <trkpt lat="48.14913" lon="-3.30357">
        <ele>257.6</ele>
        <time>2024-11-20T07:26:40Z</time>
      </trkpt>
      <trkpt lat="48.14912" lon="-3.30356">
        <ele>257.4</ele>
        <time>2024-11-20T07:26:41Z</time>
      </trkpt>
      <trkpt lat="48.14911" lon="-3.30355">
        <ele>257.3</ele>
        <time>2024-11-20T07:26:42Z</time>
      </trkpt>
      <trkpt lat="48.1491" lon="-3.30354">
        <ele>257.2</ele>
        <time>2024-11-20T07:26:43Z</time>
      </trkpt>
      <trkpt lat="48.14909" lon="-3.30353">
        <ele>257.2</ele>
        <time>2024-11-20T07:26:44Z</time>
      </trkpt>
      <trkpt lat="48.14908" lon="-3.30351">
        <ele>257.1</ele>
        <time>2024-11-20T07:26:45Z</time>
      </trkpt>
      <trkpt lat="48.14908" lon="-3.3035">
        <ele>257</ele>
        <time>2024-11-20T07:26:46Z</time>
      </trkpt>
      <trkpt lat="48.14907" lon="-3.30349">
        <ele>257</ele>
        <time>2024-11-20T07:26:47Z</time>
      </trkpt>
      <trkpt lat="48.14907" lon="-3.30348">
        <ele>256.9</ele>
        <time>2024-11-20T07:26:48Z</time>
      </trkpt>
      <trkpt lat="48.14907" lon="-3.30347">
        <ele>256.9</ele>
        <time>2024-11-20T07:26:49Z</time>
      </trkpt>
      <trkpt lat="48.14907" lon="-3.30347">
        <ele>256.9</ele>
        <time>2024-11-20T07:26:50Z</time>
      </trkpt>
      <trkpt lat="48.14906" lon="-3.30346">
        <ele>256.9</ele>
        <time>2024-11-20T07:26:51Z</time>
      </trkpt>
      <trkpt lat="48.14906" lon="-3.30346">
        <ele>256.9</ele>
        <time>2024-11-20T07:26:52Z</time>
      </trkpt>
      <trkpt lat="48.14906" lon="-3.30346">
        <ele>256.9</ele>
        <time>2024-11-20T07:26:53Z</time>
      </trkpt>
      <trkpt lat="48.14906" lon="-3.30346">
        <ele>256.8</ele>
        <time>2024-11-20T07:26:54Z</time>
      </trkpt>
      <trkpt lat="48.14905" lon="-3.30346">
        <ele>256.8</ele>
        <time>2024-11-20T07:26:55Z</time>
      </trkpt>
      <trkpt lat="48.14904" lon="-3.30346">
        <ele>256.6</ele>
        <time>2024-11-20T07:26:56Z</time>
      </trkpt>
      <trkpt lat="48.14903" lon="-3.30346">
        <ele>256.5</ele>
        <time>2024-11-20T07:26:57Z</time>
      </trkpt>
      <trkpt lat="48.14902" lon="-3.30347">
        <ele>256.4</ele>
        <time>2024-11-20T07:26:58Z</time>
      </trkpt>
      <trkpt lat="48.14901" lon="-3.30349">
        <ele>256.3</ele>
        <time>2024-11-20T07:26:59Z</time>
      </trkpt>
      <trkpt lat="48.149" lon="-3.3035">
        <ele>256.2</ele>
        <time>2024-11-20T07:27:00Z</time>
      </trkpt>
      <trkpt lat="48.14899" lon="-3.30352">
        <ele>256.1</ele>
        <time>2024-11-20T07:27:01Z</time>
      </trkpt>
      <trkpt lat="48.14898" lon="-3.30353">
        <ele>256</ele>
        <time>2024-11-20T07:27:02Z</time>
      </trkpt>
      <trkpt lat="48.14897" lon="-3.30354">
        <ele>255.9</ele>
        <time>2024-11-20T07:27:03Z</time>
      </trkpt>
      <trkpt lat="48.14896" lon="-3.30354">
        <ele>255.8</ele>
        <time>2024-11-20T07:27:04Z</time>
      </trkpt>
      <trkpt lat="48.14895" lon="-3.30355">
        <ele>255.7</ele>
        <time>2024-11-20T07:27:05Z</time>
      </trkpt>
      <trkpt lat="48.14894" lon="-3.30355">
        <ele>255.6</ele>
        <time>2024-11-20T07:27:06Z</time>
      </trkpt>
      <trkpt lat="48.14894" lon="-3.30356">
        <ele>255.5</ele>
        <time>2024-11-20T07:27:07Z</time>
      </trkpt>
      <trkpt lat="48.14893" lon="-3.30356">
        <ele>255.5</ele>
        <time>2024-11-20T07:27:08Z</time>
      </trkpt>
      <trkpt lat="48.14893" lon="-3.30356">
        <ele>255.5</ele>
        <time>2024-11-20T07:27:09Z</time>
      </trkpt>
      <trkpt lat="48.14893" lon="-3.30355">
        <ele>255.5</ele>
        <time>2024-11-20T07:27:10Z</time>
      </trkpt>
      <trkpt lat="48.14893" lon="-3.30356">
        <ele>255.4</ele>
        <time>2024-11-20T07:27:11Z</time>
      </trkpt>
      <trkpt lat="48.14891" lon="-3.30356">
        <ele>255.3</ele>
        <time>2024-11-20T07:27:12Z</time>
      </trkpt>
      <trkpt lat="48.1489" lon="-3.30356">
        <ele>255.2</ele>
        <time>2024-11-20T07:27:13Z</time>
      </trkpt>
      <trkpt lat="48.14889" lon="-3.30356">
        <ele>255</ele>
        <time>2024-11-20T07:27:14Z</time>
      </trkpt>
      <trkpt lat="48.14888" lon="-3.30357">
        <ele>255</ele>
        <time>2024-11-20T07:27:15Z</time>
      </trkpt>
      <trkpt lat="48.14887" lon="-3.30358">
        <ele>255</ele>
        <time>2024-11-20T07:27:16Z</time>
      </trkpt>
      <trkpt lat="48.14885" lon="-3.30359">
        <ele>255</ele>
        <time>2024-11-20T07:27:17Z</time>
      </trkpt>
      <trkpt lat="48.14884" lon="-3.3036">
        <ele>255</ele>
        <time>2024-11-20T07:27:18Z</time>
      </trkpt>
      <trkpt lat="48.14883" lon="-3.30361">
        <ele>255</ele>
        <time>2024-11-20T07:27:19Z</time>
      </trkpt>
      <trkpt lat="48.14882" lon="-3.30362">
        <ele>255</ele>
        <time>2024-11-20T07:27:20Z</time>
      </trkpt>
      <trkpt lat="48.1488" lon="-3.30363">
        <ele>255</ele>
        <time>2024-11-20T07:27:21Z</time>
      </trkpt>
      <trkpt lat="48.14879" lon="-3.30364">
        <ele>255</ele>
        <time>2024-11-20T07:27:22Z</time>
      </trkpt>
      <trkpt lat="48.14878" lon="-3.30365">
        <ele>255</ele>
        <time>2024-11-20T07:27:23Z</time>
      </trkpt>
      <trkpt lat="48.14877" lon="-3.30365">
        <ele>255</ele>
        <time>2024-11-20T07:27:24Z</time>
      </trkpt>
      <trkpt lat="48.14876" lon="-3.30366">
        <ele>255</ele>
        <time>2024-11-20T07:27:25Z</time>
      </trkpt>
      <trkpt lat="48.14875" lon="-3.30367">
        <ele>255</ele>
        <time>2024-11-20T07:27:26Z</time>
      </trkpt>
      <trkpt lat="48.14874" lon="-3.30367">
        <ele>255</ele>
        <time>2024-11-20T07:27:27Z</time>
      </trkpt>
      <trkpt lat="48.14873" lon="-3.30368">
        <ele>255</ele>
        <time>2024-11-20T07:27:28Z</time>
      </trkpt>
      <trkpt lat="48.14872" lon="-3.30369">
        <ele>254.9</ele>
        <time>2024-11-20T07:27:29Z</time>
      </trkpt>
      <trkpt lat="48.14871" lon="-3.30369">
        <ele>254.9</ele>
        <time>2024-11-20T07:27:30Z</time>
      </trkpt>
      <trkpt lat="48.14869" lon="-3.3037">
        <ele>254.9</ele>
        <time>2024-11-20T07:27:31Z</time>
      </trkpt>
      <trkpt lat="48.14868" lon="-3.30371">
        <ele>254.8</ele>
        <time>2024-11-20T07:27:32Z</time>
      </trkpt>
      <trkpt lat="48.14867" lon="-3.30372">
        <ele>254.8</ele>
        <time>2024-11-20T07:27:33Z</time>
      </trkpt>
      <trkpt lat="48.14866" lon="-3.30373">
        <ele>254.7</ele>
        <time>2024-11-20T07:27:34Z</time>
      </trkpt>
      <trkpt lat="48.14865" lon="-3.30374">
        <ele>254.7</ele>
        <time>2024-11-20T07:27:35Z</time>
      </trkpt>
      <trkpt lat="48.14864" lon="-3.30374">
        <ele>254.6</ele>
        <time>2024-11-20T07:27:36Z</time>
      </trkpt>
      <trkpt lat="48.14863" lon="-3.30375">
        <ele>254.6</ele>
        <time>2024-11-20T07:27:37Z</time>
      </trkpt>
      <trkpt lat="48.14862" lon="-3.30375">
        <ele>254.5</ele>
        <time>2024-11-20T07:27:38Z</time>
      </trkpt>
      <trkpt lat="48.14862" lon="-3.30375">
        <ele>254.5</ele>
        <time>2024-11-20T07:27:39Z</time>
      </trkpt>
      <trkpt lat="48.14861" lon="-3.30376">
        <ele>254.5</ele>
        <time>2024-11-20T07:27:40Z</time>
      </trkpt>
      <trkpt lat="48.1486" lon="-3.30377">
        <ele>254.4</ele>
        <time>2024-11-20T07:27:41Z</time>
      </trkpt>
      <trkpt lat="48.14859" lon="-3.30378">
        <ele>254.4</ele>
        <time>2024-11-20T07:27:42Z</time>
      </trkpt>
      <trkpt lat="48.14858" lon="-3.30379">
        <ele>254.3</ele>
        <time>2024-11-20T07:27:43Z</time>
      </trkpt>
      <trkpt lat="48.14857" lon="-3.3038">
        <ele>254.3</ele>
        <time>2024-11-20T07:27:44Z</time>
      </trkpt>
      <trkpt lat="48.14856" lon="-3.30381">
        <ele>254.2</ele>
        <time>2024-11-20T07:27:45Z</time>
      </trkpt>
      <trkpt lat="48.14855" lon="-3.30382">
        <ele>254.2</ele>
        <time>2024-11-20T07:27:46Z</time>
      </trkpt>
      <trkpt lat="48.14854" lon="-3.30383">
        <ele>254.2</ele>
        <time>2024-11-20T07:27:47Z</time>
      </trkpt>
      <trkpt lat="48.14853" lon="-3.30384">
        <ele>254.1</ele>
        <time>2024-11-20T07:27:48Z</time>
      </trkpt>
      <trkpt lat="48.14852" lon="-3.30385">
        <ele>254.1</ele>
        <time>2024-11-20T07:27:49Z</time>
      </trkpt>
      <trkpt lat="48.14851" lon="-3.30387">
        <ele>254.1</ele>
        <time>2024-11-20T07:27:50Z</time>
      </trkpt>
      <trkpt lat="48.1485" lon="-3.30387">
        <ele>254</ele>
        <time>2024-11-20T07:27:51Z</time>
      </trkpt>
      <trkpt lat="48.14849" lon="-3.30389">
        <ele>254</ele>
        <time>2024-11-20T07:27:52Z</time>
      </trkpt>
      <trkpt lat="48.14849" lon="-3.3039">
        <ele>254</ele>
        <time>2024-11-20T07:27:53Z</time>
      </trkpt>
      <trkpt lat="48.14847" lon="-3.30391">
        <ele>254</ele>
        <time>2024-11-20T07:27:54Z</time>
      </trkpt>
      <trkpt lat="48.14846" lon="-3.30393">
        <ele>254</ele>
        <time>2024-11-20T07:27:55Z</time>
      </trkpt>
      <trkpt lat="48.14845" lon="-3.30394">
        <ele>254</ele>
        <time>2024-11-20T07:27:56Z</time>
      </trkpt>
      <trkpt lat="48.14844" lon="-3.30394">
        <ele>254</ele>
        <time>2024-11-20T07:27:57Z</time>
      </trkpt>
      <trkpt lat="48.14843" lon="-3.30396">
        <ele>254</ele>
        <time>2024-11-20T07:27:58Z</time>
      </trkpt>
      <trkpt lat="48.14842" lon="-3.30397">
        <ele>254</ele>
        <time>2024-11-20T07:27:59Z</time>
      </trkpt>
      <trkpt lat="48.14841" lon="-3.30398">
        <ele>254</ele>
        <time>2024-11-20T07:28:00Z</time>
      </trkpt>
      <trkpt lat="48.1484" lon="-3.30399">
        <ele>254</ele>
        <time>2024-11-20T07:28:01Z</time>
      </trkpt>
      <trkpt lat="48.14839" lon="-3.304">
        <ele>254</ele>
        <time>2024-11-20T07:28:02Z</time>
      </trkpt>
      <trkpt lat="48.14838" lon="-3.30401">
        <ele>254</ele>
        <time>2024-11-20T07:28:03Z</time>
      </trkpt>
      <trkpt lat="48.14838" lon="-3.30403">
        <ele>254</ele>
        <time>2024-11-20T07:28:04Z</time>
      </trkpt>
      <trkpt lat="48.14837" lon="-3.30404">
        <ele>254</ele>
        <time>2024-11-20T07:28:05Z</time>
      </trkpt>
      <trkpt lat="48.14836" lon="-3.30405">
        <ele>254</ele>
        <time>2024-11-20T07:28:06Z</time>
      </trkpt>
      <trkpt lat="48.14835" lon="-3.30406">
        <ele>254</ele>
        <time>2024-11-20T07:28:07Z</time>
      </trkpt>
      <trkpt lat="48.14834" lon="-3.30408">
        <ele>254</ele>
        <time>2024-11-20T07:28:08Z</time>
      </trkpt>
      <trkpt lat="48.14833" lon="-3.3041">
        <ele>254</ele>
        <time>2024-11-20T07:28:09Z</time>
      </trkpt>
      <trkpt lat="48.14833" lon="-3.30411">
        <ele>254</ele>
        <time>2024-11-20T07:28:10Z</time>
      </trkpt>
      <trkpt lat="48.14832" lon="-3.30413">
        <ele>254</ele>
        <time>2024-11-20T07:28:11Z</time>
      </trkpt>
      <trkpt lat="48.14832" lon="-3.30414">
        <ele>253.9</ele>
        <time>2024-11-20T07:28:12Z</time>
      </trkpt>
      <trkpt lat="48.14831" lon="-3.30416">
        <ele>253.9</ele>
        <time>2024-11-20T07:28:13Z</time>
      </trkpt>
      <trkpt lat="48.1483" lon="-3.30417">
        <ele>253.9</ele>
        <time>2024-11-20T07:28:14Z</time>
      </trkpt>
      <trkpt lat="48.14829" lon="-3.30418">
        <ele>253.7</ele>
        <time>2024-11-20T07:28:15Z</time>
      </trkpt>
      <trkpt lat="48.14828" lon="-3.30419">
        <ele>253.6</ele>
        <time>2024-11-20T07:28:16Z</time>
      </trkpt>
      <trkpt lat="48.14828" lon="-3.30421">
        <ele>253.4</ele>
        <time>2024-11-20T07:28:17Z</time>
      </trkpt>
      <trkpt lat="48.14827" lon="-3.30422">
        <ele>253.3</ele>
        <time>2024-11-20T07:28:18Z</time>
      </trkpt>
      <trkpt lat="48.14826" lon="-3.30423">
        <ele>253.1</ele>
        <time>2024-11-20T07:28:19Z</time>
      </trkpt>
      <trkpt lat="48.14825" lon="-3.30425">
        <ele>253</ele>
        <time>2024-11-20T07:28:20Z</time>
      </trkpt>
      <trkpt lat="48.14824" lon="-3.30425">
        <ele>252.9</ele>
        <time>2024-11-20T07:28:21Z</time>
      </trkpt>
      <trkpt lat="48.14823" lon="-3.30426">
        <ele>252.8</ele>
        <time>2024-11-20T07:28:22Z</time>
      </trkpt>
      <trkpt lat="48.14822" lon="-3.30428">
        <ele>252.7</ele>
        <time>2024-11-20T07:28:23Z</time>
      </trkpt>
      <trkpt lat="48.14821" lon="-3.30428">
        <ele>252.7</ele>
        <time>2024-11-20T07:28:24Z</time>
      </trkpt>
      <trkpt lat="48.1482" lon="-3.30429">
        <ele>252.6</ele>
        <time>2024-11-20T07:28:25Z</time>
      </trkpt>
      <trkpt lat="48.1482" lon="-3.3043">
        <ele>252.6</ele>
        <time>2024-11-20T07:28:26Z</time>
      </trkpt>
      <trkpt lat="48.14819" lon="-3.3043">
        <ele>252.5</ele>
        <time>2024-11-20T07:28:27Z</time>
      </trkpt>
      <trkpt lat="48.14818" lon="-3.30431">
        <ele>252.4</ele>
        <time>2024-11-20T07:28:28Z</time>
      </trkpt>
      <trkpt lat="48.14817" lon="-3.30433">
        <ele>252.3</ele>
        <time>2024-11-20T07:28:29Z</time>
      </trkpt>
      <trkpt lat="48.14815" lon="-3.30435">
        <ele>252.3</ele>
        <time>2024-11-20T07:28:30Z</time>
      </trkpt>
      <trkpt lat="48.14814" lon="-3.30436">
        <ele>252.2</ele>
        <time>2024-11-20T07:28:31Z</time>
      </trkpt>
      <trkpt lat="48.14813" lon="-3.30437">
        <ele>252.1</ele>
        <time>2024-11-20T07:28:32Z</time>
      </trkpt>
      <trkpt lat="48.14811" lon="-3.30439">
        <ele>252.1</ele>
        <time>2024-11-20T07:28:33Z</time>
      </trkpt>
      <trkpt lat="48.1481" lon="-3.3044">
        <ele>252</ele>
        <time>2024-11-20T07:28:34Z</time>
      </trkpt>
      <trkpt lat="48.14809" lon="-3.30442">
        <ele>252</ele>
        <time>2024-11-20T07:28:35Z</time>
      </trkpt>
      <trkpt lat="48.14808" lon="-3.30443">
        <ele>252</ele>
        <time>2024-11-20T07:28:36Z</time>
      </trkpt>
      <trkpt lat="48.14807" lon="-3.30444">
        <ele>252</ele>
        <time>2024-11-20T07:28:37Z</time>
      </trkpt>
      <trkpt lat="48.14806" lon="-3.30445">
        <ele>251.9</ele>
        <time>2024-11-20T07:28:38Z</time>
      </trkpt>
      <trkpt lat="48.14805" lon="-3.30446">
        <ele>251.9</ele>
        <time>2024-11-20T07:28:39Z</time>
      </trkpt>
      <trkpt lat="48.14804" lon="-3.30447">
        <ele>251.8</ele>
        <time>2024-11-20T07:28:40Z</time>
      </trkpt>
      <trkpt lat="48.14803" lon="-3.30449">
        <ele>251.7</ele>
        <time>2024-11-20T07:28:41Z</time>
      </trkpt>
      <trkpt lat="48.14802" lon="-3.3045">
        <ele>251.6</ele>
        <time>2024-11-20T07:28:42Z</time>
      </trkpt>
      <trkpt lat="48.14801" lon="-3.30451">
        <ele>251.5</ele>
        <time>2024-11-20T07:28:43Z</time>
      </trkpt>
      <trkpt lat="48.148" lon="-3.30453">
        <ele>251.5</ele>
        <time>2024-11-20T07:28:44Z</time>
      </trkpt>
      <trkpt lat="48.14799" lon="-3.30454">
        <ele>251.4</ele>
        <time>2024-11-20T07:28:45Z</time>
      </trkpt>
      <trkpt lat="48.14798" lon="-3.30455">
        <ele>251.3</ele>
        <time>2024-11-20T07:28:46Z</time>
      </trkpt>
      <trkpt lat="48.14797" lon="-3.30457">
        <ele>251.2</ele>
        <time>2024-11-20T07:28:47Z</time>
      </trkpt>
      <trkpt lat="48.14796" lon="-3.30458">
        <ele>251.2</ele>
        <time>2024-11-20T07:28:48Z</time>
      </trkpt>
      <trkpt lat="48.14795" lon="-3.3046">
        <ele>251.1</ele>
        <time>2024-11-20T07:28:49Z</time>
      </trkpt>
      <trkpt lat="48.14794" lon="-3.30461">
        <ele>251</ele>
        <time>2024-11-20T07:28:50Z</time>
      </trkpt>
      <trkpt lat="48.14793" lon="-3.30463">
        <ele>251</ele>
        <time>2024-11-20T07:28:51Z</time>
      </trkpt>
      <trkpt lat="48.14792" lon="-3.30465">
        <ele>250.9</ele>
        <time>2024-11-20T07:28:52Z</time>
      </trkpt>
      <trkpt lat="48.14791" lon="-3.30467">
        <ele>250.8</ele>
        <time>2024-11-20T07:28:53Z</time>
      </trkpt>
      <trkpt lat="48.1479" lon="-3.30468">
        <ele>250.8</ele>
        <time>2024-11-20T07:28:54Z</time>
      </trkpt>
      <trkpt lat="48.14789" lon="-3.3047">
        <ele>250.7</ele>
        <time>2024-11-20T07:28:55Z</time>
      </trkpt>
      <trkpt lat="48.14788" lon="-3.30471">
        <ele>250.7</ele>
        <time>2024-11-20T07:28:56Z</time>
      </trkpt>
      <trkpt lat="48.14787" lon="-3.30472">
        <ele>250.7</ele>
        <time>2024-11-20T07:28:57Z</time>
      </trkpt>
      <trkpt lat="48.14786" lon="-3.30473">
        <ele>250.7</ele>
        <time>2024-11-20T07:28:58Z</time>
      </trkpt>
      <trkpt lat="48.14784" lon="-3.30475">
        <ele>250.6</ele>
        <time>2024-11-20T07:28:59Z</time>
      </trkpt>
      <trkpt lat="48.14783" lon="-3.30476">
        <ele>250.6</ele>
        <time>2024-11-20T07:29:00Z</time>
      </trkpt>
      <trkpt lat="48.14782" lon="-3.30476">
        <ele>250.6</ele>
        <time>2024-11-20T07:29:01Z</time>
      </trkpt>
      <trkpt lat="48.14782" lon="-3.30476">
        <ele>250.6</ele>
        <time>2024-11-20T07:29:02Z</time>
      </trkpt>
      <trkpt lat="48.14781" lon="-3.30477">
        <ele>250.6</ele>
        <time>2024-11-20T07:29:03Z</time>
      </trkpt>
      <trkpt lat="48.1478" lon="-3.30478">
        <ele>250.5</ele>
        <time>2024-11-20T07:29:04Z</time>
      </trkpt>
      <trkpt lat="48.14779" lon="-3.30478">
        <ele>250.6</ele>
        <time>2024-11-20T07:29:05Z</time>
      </trkpt>
      <trkpt lat="48.14778" lon="-3.30478">
        <ele>250.6</ele>
        <time>2024-11-20T07:29:06Z</time>
      </trkpt>
      <trkpt lat="48.14778" lon="-3.30478">
        <ele>250.6</ele>
        <time>2024-11-20T07:29:07Z</time>
      </trkpt>
      <trkpt lat="48.14777" lon="-3.30478">
        <ele>250.6</ele>
        <time>2024-11-20T07:29:08Z</time>
      </trkpt>
      <trkpt lat="48.14776" lon="-3.30479">
        <ele>250.5</ele>
        <time>2024-11-20T07:29:09Z</time>
      </trkpt>
      <trkpt lat="48.14775" lon="-3.3048">
        <ele>250.4</ele>
        <time>2024-11-20T07:29:10Z</time>
      </trkpt>
      <trkpt lat="48.14774" lon="-3.3048">
        <ele>250.4</ele>
        <time>2024-11-20T07:29:11Z</time>
      </trkpt>
      <trkpt lat="48.14774" lon="-3.3048">
        <ele>250.4</ele>
        <time>2024-11-20T07:29:12Z</time>
      </trkpt>
      <trkpt lat="48.14773" lon="-3.30481">
        <ele>250.3</ele>
        <time>2024-11-20T07:29:13Z</time>
      </trkpt>
      <trkpt lat="48.14772" lon="-3.30482">
        <ele>250.3</ele>
        <time>2024-11-20T07:29:14Z</time>
      </trkpt>
      <trkpt lat="48.14771" lon="-3.30483">
        <ele>250.2</ele>
        <time>2024-11-20T07:29:15Z</time>
      </trkpt>
      <trkpt lat="48.1477" lon="-3.30484">
        <ele>250.1</ele>
        <time>2024-11-20T07:29:16Z</time>
      </trkpt>
      <trkpt lat="48.14769" lon="-3.30484">
        <ele>250</ele>
        <time>2024-11-20T07:29:17Z</time>
      </trkpt>
      <trkpt lat="48.14768" lon="-3.30485">
        <ele>249.9</ele>
        <time>2024-11-20T07:29:18Z</time>
      </trkpt>
      <trkpt lat="48.14768" lon="-3.30486">
        <ele>249.8</ele>
        <time>2024-11-20T07:29:19Z</time>
      </trkpt>
      <trkpt lat="48.14767" lon="-3.30487">
        <ele>249.7</ele>
        <time>2024-11-20T07:29:20Z</time>
      </trkpt>
      <trkpt lat="48.14765" lon="-3.30489">
        <ele>249.6</ele>
        <time>2024-11-20T07:29:21Z</time>
      </trkpt>
      <trkpt lat="48.14764" lon="-3.3049">
        <ele>249.4</ele>
        <time>2024-11-20T07:29:22Z</time>
      </trkpt>
      <trkpt lat="48.14763" lon="-3.30491">
        <ele>249.3</ele>
        <time>2024-11-20T07:29:23Z</time>
      </trkpt>
      <trkpt lat="48.14762" lon="-3.30492">
        <ele>249.1</ele>
        <time>2024-11-20T07:29:24Z</time>
      </trkpt>
      <trkpt lat="48.14761" lon="-3.30494">
        <ele>249</ele>
        <time>2024-11-20T07:29:25Z</time>
      </trkpt>
      <trkpt lat="48.1476" lon="-3.30495">
        <ele>248.8</ele>
        <time>2024-11-20T07:29:26Z</time>
      </trkpt>
      <trkpt lat="48.14758" lon="-3.30496">
        <ele>248.7</ele>
        <time>2024-11-20T07:29:27Z</time>
      </trkpt>
      <trkpt lat="48.14757" lon="-3.30497">
        <ele>248.6</ele>
        <time>2024-11-20T07:29:28Z</time>
      </trkpt>
      <trkpt lat="48.14756" lon="-3.30497">
        <ele>248.5</ele>
        <time>2024-11-20T07:29:29Z</time>
      </trkpt>
      <trkpt lat="48.14754" lon="-3.30498">
        <ele>248.4</ele>
        <time>2024-11-20T07:29:30Z</time>
      </trkpt>
      <trkpt lat="48.14753" lon="-3.30498">
        <ele>248.3</ele>
        <time>2024-11-20T07:29:31Z</time>
      </trkpt>
      <trkpt lat="48.14752" lon="-3.30499">
        <ele>248.2</ele>
        <time>2024-11-20T07:29:32Z</time>
      </trkpt>
      <trkpt lat="48.14751" lon="-3.30499">
        <ele>248.2</ele>
        <time>2024-11-20T07:29:33Z</time>
      </trkpt>
      <trkpt lat="48.1475" lon="-3.30499">
        <ele>248.1</ele>
        <time>2024-11-20T07:29:34Z</time>
      </trkpt>
      <trkpt lat="48.14749" lon="-3.305">
        <ele>248</ele>
        <time>2024-11-20T07:29:35Z</time>
      </trkpt>
      <trkpt lat="48.14748" lon="-3.30501">
        <ele>247.9</ele>
        <time>2024-11-20T07:29:36Z</time>
      </trkpt>
      <trkpt lat="48.14747" lon="-3.30503">
        <ele>247.9</ele>
        <time>2024-11-20T07:29:37Z</time>
      </trkpt>
      <trkpt lat="48.14746" lon="-3.30504">
        <ele>247.8</ele>
        <time>2024-11-20T07:29:38Z</time>
      </trkpt>
      <trkpt lat="48.14746" lon="-3.30505">
        <ele>247.8</ele>
        <time>2024-11-20T07:29:39Z</time>
      </trkpt>
      <trkpt lat="48.14745" lon="-3.30506">
        <ele>247.8</ele>
        <time>2024-11-20T07:29:40Z</time>
      </trkpt>
      <trkpt lat="48.14744" lon="-3.30506">
        <ele>247.7</ele>
        <time>2024-11-20T07:29:41Z</time>
      </trkpt>
      <trkpt lat="48.14744" lon="-3.30507">
        <ele>247.7</ele>
        <time>2024-11-20T07:29:42Z</time>
      </trkpt>
      <trkpt lat="48.14743" lon="-3.30508">
        <ele>247.6</ele>
        <time>2024-11-20T07:29:43Z</time>
      </trkpt>
      <trkpt lat="48.14742" lon="-3.30509">
        <ele>247.6</ele>
        <time>2024-11-20T07:29:44Z</time>
      </trkpt>
      <trkpt lat="48.14741" lon="-3.30509">
        <ele>247.6</ele>
        <time>2024-11-20T07:29:45Z</time>
      </trkpt>
      <trkpt lat="48.1474" lon="-3.3051">
        <ele>247.5</ele>
        <time>2024-11-20T07:29:46Z</time>
      </trkpt>
      <trkpt lat="48.14738" lon="-3.3051">
        <ele>247.5</ele>
        <time>2024-11-20T07:29:47Z</time>
      </trkpt>
      <trkpt lat="48.14738" lon="-3.3051">
        <ele>247.5</ele>
        <time>2024-11-20T07:29:48Z</time>
      </trkpt>
      <trkpt lat="48.14737" lon="-3.3051">
        <ele>247.4</ele>
        <time>2024-11-20T07:29:49Z</time>
      </trkpt>
      <trkpt lat="48.14736" lon="-3.30511">
        <ele>247.4</ele>
        <time>2024-11-20T07:29:50Z</time>
      </trkpt>
      <trkpt lat="48.14735" lon="-3.30512">
        <ele>247.3</ele>
        <time>2024-11-20T07:29:51Z</time>
      </trkpt>
      <trkpt lat="48.14734" lon="-3.30512">
        <ele>247.3</ele>
        <time>2024-11-20T07:29:52Z</time>
      </trkpt>
      <trkpt lat="48.14732" lon="-3.30513">
        <ele>247.3</ele>
        <time>2024-11-20T07:29:53Z</time>
      </trkpt>
      <trkpt lat="48.14731" lon="-3.30513">
        <ele>247.2</ele>
        <time>2024-11-20T07:29:54Z</time>
      </trkpt>
      <trkpt lat="48.1473" lon="-3.30513">
        <ele>247.2</ele>
        <time>2024-11-20T07:29:55Z</time>
      </trkpt>
      <trkpt lat="48.14728" lon="-3.30514">
        <ele>247.1</ele>
        <time>2024-11-20T07:29:56Z</time>
      </trkpt>
      <trkpt lat="48.14727" lon="-3.30515">
        <ele>247</ele>
        <time>2024-11-20T07:29:57Z</time>
      </trkpt>
      <trkpt lat="48.14726" lon="-3.30515">
        <ele>247</ele>
        <time>2024-11-20T07:29:58Z</time>
      </trkpt>
      <trkpt lat="48.14724" lon="-3.30516">
        <ele>246.9</ele>
        <time>2024-11-20T07:29:59Z</time>
      </trkpt>
      <trkpt lat="48.14723" lon="-3.30516">
        <ele>246.8</ele>
        <time>2024-11-20T07:30:00Z</time>
      </trkpt>
      <trkpt lat="48.14722" lon="-3.30516">
        <ele>246.8</ele>
        <time>2024-11-20T07:30:01Z</time>
      </trkpt>
      <trkpt lat="48.1472" lon="-3.30516">
        <ele>246.7</ele>
        <time>2024-11-20T07:30:02Z</time>
      </trkpt>
      <trkpt lat="48.14718" lon="-3.30517">
        <ele>246.5</ele>
        <time>2024-11-20T07:30:03Z</time>
      </trkpt>
      <trkpt lat="48.14717" lon="-3.30517">
        <ele>246.4</ele>
        <time>2024-11-20T07:30:04Z</time>
      </trkpt>
      <trkpt lat="48.14715" lon="-3.30518">
        <ele>246.2</ele>
        <time>2024-11-20T07:30:05Z</time>
      </trkpt>
      <trkpt lat="48.14714" lon="-3.30519">
        <ele>246.1</ele>
        <time>2024-11-20T07:30:06Z</time>
      </trkpt>
      <trkpt lat="48.14713" lon="-3.30519">
        <ele>245.9</ele>
        <time>2024-11-20T07:30:07Z</time>
      </trkpt>
      <trkpt lat="48.14711" lon="-3.3052">
        <ele>245.8</ele>
        <time>2024-11-20T07:30:08Z</time>
      </trkpt>
      <trkpt lat="48.1471" lon="-3.3052">
        <ele>245.6</ele>
        <time>2024-11-20T07:30:09Z</time>
      </trkpt>
      <trkpt lat="48.14708" lon="-3.30521">
        <ele>245.5</ele>
        <time>2024-11-20T07:30:10Z</time>
      </trkpt>
      <trkpt lat="48.14707" lon="-3.30522">
        <ele>245.3</ele>
        <time>2024-11-20T07:30:11Z</time>
      </trkpt>
      <trkpt lat="48.14705" lon="-3.30524">
        <ele>245.1</ele>
        <time>2024-11-20T07:30:12Z</time>
      </trkpt>
      <trkpt lat="48.14704" lon="-3.30525">
        <ele>244.9</ele>
        <time>2024-11-20T07:30:13Z</time>
      </trkpt>
      <trkpt lat="48.14703" lon="-3.30526">
        <ele>244.7</ele>
        <time>2024-11-20T07:30:14Z</time>
      </trkpt>
      <trkpt lat="48.14702" lon="-3.30527">
        <ele>244.6</ele>
        <time>2024-11-20T07:30:15Z</time>
      </trkpt>
      <trkpt lat="48.147" lon="-3.30529">
        <ele>244.4</ele>
        <time>2024-11-20T07:30:16Z</time>
      </trkpt>
      <trkpt lat="48.14699" lon="-3.3053">
        <ele>244.4</ele>
        <time>2024-11-20T07:30:17Z</time>
      </trkpt>
      <trkpt lat="48.14698" lon="-3.30531">
        <ele>244.4</ele>
        <time>2024-11-20T07:30:18Z</time>
      </trkpt>
      <trkpt lat="48.14697" lon="-3.30532">
        <ele>244.3</ele>
        <time>2024-11-20T07:30:19Z</time>
      </trkpt>
      <trkpt lat="48.14695" lon="-3.30534">
        <ele>244.3</ele>
        <time>2024-11-20T07:30:20Z</time>
      </trkpt>
      <trkpt lat="48.14693" lon="-3.30535">
        <ele>244.2</ele>
        <time>2024-11-20T07:30:21Z</time>
      </trkpt>
      <trkpt lat="48.14692" lon="-3.30537">
        <ele>244.2</ele>
        <time>2024-11-20T07:30:22Z</time>
      </trkpt>
      <trkpt lat="48.1469" lon="-3.30538">
        <ele>244.1</ele>
        <time>2024-11-20T07:30:23Z</time>
      </trkpt>
      <trkpt lat="48.14688" lon="-3.30539">
        <ele>244.1</ele>
        <time>2024-11-20T07:30:24Z</time>
      </trkpt>
      <trkpt lat="48.14687" lon="-3.3054">
        <ele>244</ele>
        <time>2024-11-20T07:30:25Z</time>
      </trkpt>
      <trkpt lat="48.14685" lon="-3.30541">
        <ele>244</ele>
        <time>2024-11-20T07:30:26Z</time>
      </trkpt>
      <trkpt lat="48.14684" lon="-3.30542">
        <ele>243.9</ele>
        <time>2024-11-20T07:30:27Z</time>
      </trkpt>
      <trkpt lat="48.14682" lon="-3.30543">
        <ele>243.9</ele>
        <time>2024-11-20T07:30:28Z</time>
      </trkpt>
      <trkpt lat="48.14681" lon="-3.30544">
        <ele>243.8</ele>
        <time>2024-11-20T07:30:29Z</time>
      </trkpt>
      <trkpt lat="48.1468" lon="-3.30545">
        <ele>243.8</ele>
        <time>2024-11-20T07:30:30Z</time>
      </trkpt>
      <trkpt lat="48.14679" lon="-3.30547">
        <ele>243.7</ele>
        <time>2024-11-20T07:30:31Z</time>
      </trkpt>
      <trkpt lat="48.14678" lon="-3.30548">
        <ele>243.7</ele>
        <time>2024-11-20T07:30:32Z</time>
      </trkpt>
      <trkpt lat="48.14676" lon="-3.30549">
        <ele>243.6</ele>
        <time>2024-11-20T07:30:33Z</time>
      </trkpt>
      <trkpt lat="48.14675" lon="-3.30551">
        <ele>243.6</ele>
        <time>2024-11-20T07:30:34Z</time>
      </trkpt>
      <trkpt lat="48.14674" lon="-3.30552">
        <ele>243.5</ele>
        <time>2024-11-20T07:30:35Z</time>
      </trkpt>
      <trkpt lat="48.14672" lon="-3.30553">
        <ele>243.4</ele>
        <time>2024-11-20T07:30:36Z</time>
      </trkpt>
      <trkpt lat="48.14671" lon="-3.30553">
        <ele>243.3</ele>
        <time>2024-11-20T07:30:37Z</time>
      </trkpt>
      <trkpt lat="48.1467" lon="-3.30554">
        <ele>243.2</ele>
        <time>2024-11-20T07:30:38Z</time>
      </trkpt>
      <trkpt lat="48.14669" lon="-3.30555">
        <ele>243.1</ele>
        <time>2024-11-20T07:30:39Z</time>
      </trkpt>
      <trkpt lat="48.14668" lon="-3.30556">
        <ele>243.1</ele>
        <time>2024-11-20T07:30:40Z</time>
      </trkpt>
      <trkpt lat="48.14667" lon="-3.30557">
        <ele>243.1</ele>
        <time>2024-11-20T07:30:41Z</time>
      </trkpt>
      <trkpt lat="48.14667" lon="-3.30558">
        <ele>243.1</ele>
        <time>2024-11-20T07:30:42Z</time>
      </trkpt>
      <trkpt lat="48.14665" lon="-3.30559">
        <ele>243</ele>
        <time>2024-11-20T07:30:43Z</time>
      </trkpt>
      <trkpt lat="48.14664" lon="-3.30559">
        <ele>242.9</ele>
        <time>2024-11-20T07:30:44Z</time>
      </trkpt>
      <trkpt lat="48.14663" lon="-3.30559">
        <ele>242.9</ele>
        <time>2024-11-20T07:30:45Z</time>
      </trkpt>
      <trkpt lat="48.14662" lon="-3.3056">
        <ele>242.8</ele>
        <time>2024-11-20T07:30:46Z</time>
      </trkpt>
      <trkpt lat="48.14661" lon="-3.30561">
        <ele>242.7</ele>
        <time>2024-11-20T07:30:47Z</time>
      </trkpt>
      <trkpt lat="48.14659" lon="-3.30562">
        <ele>242.7</ele>
        <time>2024-11-20T07:30:48Z</time>
      </trkpt>
      <trkpt lat="48.14659" lon="-3.30563">
        <ele>242.7</ele>
        <time>2024-11-20T07:30:49Z</time>
      </trkpt>
      <trkpt lat="48.14658" lon="-3.30565">
        <ele>242.7</ele>
        <time>2024-11-20T07:30:50Z</time>
      </trkpt>
      <trkpt lat="48.14656" lon="-3.30566">
        <ele>242.6</ele>
        <time>2024-11-20T07:30:51Z</time>
      </trkpt>
      <trkpt lat="48.14655" lon="-3.30567">
        <ele>242.6</ele>
        <time>2024-11-20T07:30:52Z</time>
      </trkpt>
      <trkpt lat="48.14654" lon="-3.30568">
        <ele>242.6</ele>
        <time>2024-11-20T07:30:53Z</time>
      </trkpt>
      <trkpt lat="48.14653" lon="-3.30569">
        <ele>242.5</ele>
        <time>2024-11-20T07:30:54Z</time>
      </trkpt>
      <trkpt lat="48.14652" lon="-3.3057">
        <ele>242.5</ele>
        <time>2024-11-20T07:30:55Z</time>
      </trkpt>
      <trkpt lat="48.14651" lon="-3.3057">
        <ele>242.4</ele>
        <time>2024-11-20T07:30:56Z</time>
      </trkpt>
      <trkpt lat="48.1465" lon="-3.30571">
        <ele>242.4</ele>
        <time>2024-11-20T07:30:57Z</time>
      </trkpt>
      <trkpt lat="48.14649" lon="-3.30572">
        <ele>242.3</ele>
        <time>2024-11-20T07:30:58Z</time>
      </trkpt>
      <trkpt lat="48.14648" lon="-3.30573">
        <ele>242.3</ele>
        <time>2024-11-20T07:30:59Z</time>
      </trkpt>
      <trkpt lat="48.14646" lon="-3.30574">
        <ele>242.2</ele>
        <time>2024-11-20T07:31:00Z</time>
      </trkpt>
      <trkpt lat="48.14646" lon="-3.30574">
        <ele>242.2</ele>
        <time>2024-11-20T07:31:01Z</time>
      </trkpt>
      <trkpt lat="48.14645" lon="-3.30575">
        <ele>242.1</ele>
        <time>2024-11-20T07:31:02Z</time>
      </trkpt>
      <trkpt lat="48.14644" lon="-3.30576">
        <ele>242.1</ele>
        <time>2024-11-20T07:31:03Z</time>
      </trkpt>
      <trkpt lat="48.14642" lon="-3.30577">
        <ele>242</ele>
        <time>2024-11-20T07:31:04Z</time>
      </trkpt>
      <trkpt lat="48.14641" lon="-3.30578">
        <ele>242</ele>
        <time>2024-11-20T07:31:05Z</time>
      </trkpt>
      <trkpt lat="48.1464" lon="-3.30579">
        <ele>241.9</ele>
        <time>2024-11-20T07:31:06Z</time>
      </trkpt>
      <trkpt lat="48.14638" lon="-3.3058">
        <ele>241.8</ele>
        <time>2024-11-20T07:31:07Z</time>
      </trkpt>
      <trkpt lat="48.14637" lon="-3.30581">
        <ele>241.8</ele>
        <time>2024-11-20T07:31:08Z</time>
      </trkpt>
      <trkpt lat="48.14636" lon="-3.30582">
        <ele>241.7</ele>
        <time>2024-11-20T07:31:09Z</time>
      </trkpt>
      <trkpt lat="48.14635" lon="-3.30583">
        <ele>241.7</ele>
        <time>2024-11-20T07:31:10Z</time>
      </trkpt>
      <trkpt lat="48.14633" lon="-3.30584">
        <ele>241.7</ele>
        <time>2024-11-20T07:31:11Z</time>
      </trkpt>
      <trkpt lat="48.14632" lon="-3.30586">
        <ele>241.7</ele>
        <time>2024-11-20T07:31:12Z</time>
      </trkpt>
      <trkpt lat="48.14631" lon="-3.30587">
        <ele>241.7</ele>
        <time>2024-11-20T07:31:13Z</time>
      </trkpt>
      <trkpt lat="48.14629" lon="-3.30588">
        <ele>241.7</ele>
        <time>2024-11-20T07:31:14Z</time>
      </trkpt>
      <trkpt lat="48.14628" lon="-3.3059">
        <ele>241.7</ele>
        <time>2024-11-20T07:31:15Z</time>
      </trkpt>
      <trkpt lat="48.14627" lon="-3.30591">
        <ele>241.7</ele>
        <time>2024-11-20T07:31:16Z</time>
      </trkpt>
      <trkpt lat="48.14625" lon="-3.30593">
        <ele>241.7</ele>
        <time>2024-11-20T07:31:17Z</time>
      </trkpt>
      <trkpt lat="48.14624" lon="-3.30594">
        <ele>241.7</ele>
        <time>2024-11-20T07:31:18Z</time>
      </trkpt>
      <trkpt lat="48.14623" lon="-3.30595">
        <ele>241.7</ele>
        <time>2024-11-20T07:31:19Z</time>
      </trkpt>
      <trkpt lat="48.14622" lon="-3.30597">
        <ele>241.7</ele>
        <time>2024-11-20T07:31:20Z</time>
      </trkpt>
      <trkpt lat="48.14621" lon="-3.30598">
        <ele>241.7</ele>
        <time>2024-11-20T07:31:21Z</time>
      </trkpt>
      <trkpt lat="48.1462" lon="-3.30599">
        <ele>241.8</ele>
        <time>2024-11-20T07:31:22Z</time>
      </trkpt>
      <trkpt lat="48.14619" lon="-3.306">
        <ele>241.7</ele>
        <time>2024-11-20T07:31:23Z</time>
      </trkpt>
      <trkpt lat="48.14617" lon="-3.30601">
        <ele>241.7</ele>
        <time>2024-11-20T07:31:24Z</time>
      </trkpt>
      <trkpt lat="48.14616" lon="-3.30602">
        <ele>241.7</ele>
        <time>2024-11-20T07:31:25Z</time>
      </trkpt>
      <trkpt lat="48.14615" lon="-3.30604">
        <ele>241.7</ele>
        <time>2024-11-20T07:31:26Z</time>
      </trkpt>
      <trkpt lat="48.14614" lon="-3.30605">
        <ele>241.7</ele>
        <time>2024-11-20T07:31:27Z</time>
      </trkpt>
      <trkpt lat="48.14612" lon="-3.30606">
        <ele>241.7</ele>
        <time>2024-11-20T07:31:28Z</time>
      </trkpt>
      <trkpt lat="48.14611" lon="-3.30607">
        <ele>241.7</ele>
        <time>2024-11-20T07:31:29Z</time>
      </trkpt>
      <trkpt lat="48.1461" lon="-3.30608">
        <ele>241.6</ele>
        <time>2024-11-20T07:31:30Z</time>
      </trkpt>
      <trkpt lat="48.14608" lon="-3.30608">
        <ele>241.5</ele>
        <time>2024-11-20T07:31:31Z</time>
      </trkpt>
      <trkpt lat="48.14607" lon="-3.30609">
        <ele>241.5</ele>
        <time>2024-11-20T07:31:32Z</time>
      </trkpt>
      <trkpt lat="48.14606" lon="-3.3061">
        <ele>241.4</ele>
        <time>2024-11-20T07:31:33Z</time>
      </trkpt>
      <trkpt lat="48.14605" lon="-3.30612">
        <ele>241.4</ele>
        <time>2024-11-20T07:31:34Z</time>
      </trkpt>
      <trkpt lat="48.14604" lon="-3.30613">
        <ele>241.3</ele>
        <time>2024-11-20T07:31:35Z</time>
      </trkpt>
      <trkpt lat="48.14603" lon="-3.30615">
        <ele>241.3</ele>
        <time>2024-11-20T07:31:36Z</time>
      </trkpt>
      <trkpt lat="48.14602" lon="-3.30616">
        <ele>241.2</ele>
        <time>2024-11-20T07:31:37Z</time>
      </trkpt>
      <trkpt lat="48.14601" lon="-3.30618">
        <ele>241.2</ele>
        <time>2024-11-20T07:31:38Z</time>
      </trkpt>
      <trkpt lat="48.14601" lon="-3.3062">
        <ele>241.2</ele>
        <time>2024-11-20T07:31:39Z</time>
      </trkpt>
      <trkpt lat="48.146" lon="-3.30621">
        <ele>241.1</ele>
        <time>2024-11-20T07:31:40Z</time>
      </trkpt>
      <trkpt lat="48.14599" lon="-3.30623">
        <ele>241.1</ele>
        <time>2024-11-20T07:31:41Z</time>
      </trkpt>
      <trkpt lat="48.14598" lon="-3.30625">
        <ele>241.1</ele>
        <time>2024-11-20T07:31:42Z</time>
      </trkpt>
      <trkpt lat="48.14598" lon="-3.30626">
        <ele>241.1</ele>
        <time>2024-11-20T07:31:43Z</time>
      </trkpt>
      <trkpt lat="48.14597" lon="-3.30627">
        <ele>241.1</ele>
        <time>2024-11-20T07:31:44Z</time>
      </trkpt>
      <trkpt lat="48.14596" lon="-3.30629">
        <ele>241.1</ele>
        <time>2024-11-20T07:31:45Z</time>
      </trkpt>
      <trkpt lat="48.14596" lon="-3.30631">
        <ele>241</ele>
        <time>2024-11-20T07:31:46Z</time>
      </trkpt>
      <trkpt lat="48.14595" lon="-3.30632">
        <ele>241</ele>
        <time>2024-11-20T07:31:47Z</time>
      </trkpt>
      <trkpt lat="48.14594" lon="-3.30634">
        <ele>240.9</ele>
        <time>2024-11-20T07:31:48Z</time>
      </trkpt>
      <trkpt lat="48.14593" lon="-3.30635">
        <ele>240.9</ele>
        <time>2024-11-20T07:31:49Z</time>
      </trkpt>
      <trkpt lat="48.14592" lon="-3.30637">
        <ele>240.9</ele>
        <time>2024-11-20T07:31:50Z</time>
      </trkpt>
      <trkpt lat="48.14591" lon="-3.30639">
        <ele>240.8</ele>
        <time>2024-11-20T07:31:51Z</time>
      </trkpt>
      <trkpt lat="48.14591" lon="-3.3064">
        <ele>240.8</ele>
        <time>2024-11-20T07:31:52Z</time>
      </trkpt>
      <trkpt lat="48.1459" lon="-3.30641">
        <ele>240.8</ele>
        <time>2024-11-20T07:31:53Z</time>
      </trkpt>
      <trkpt lat="48.14589" lon="-3.30643">
        <ele>240.7</ele>
        <time>2024-11-20T07:31:54Z</time>
      </trkpt>
      <trkpt lat="48.14589" lon="-3.30645">
        <ele>240.6</ele>
        <time>2024-11-20T07:31:55Z</time>
      </trkpt>
      <trkpt lat="48.14588" lon="-3.30646">
        <ele>240.5</ele>
        <time>2024-11-20T07:31:56Z</time>
      </trkpt>
      <trkpt lat="48.14587" lon="-3.30648">
        <ele>240.4</ele>
        <time>2024-11-20T07:31:57Z</time>
      </trkpt>
      <trkpt lat="48.14586" lon="-3.3065">
        <ele>240.3</ele>
        <time>2024-11-20T07:31:58Z</time>
      </trkpt>
      <trkpt lat="48.14585" lon="-3.30652">
        <ele>240.2</ele>
        <time>2024-11-20T07:31:59Z</time>
      </trkpt>
      <trkpt lat="48.14584" lon="-3.30653">
        <ele>240.1</ele>
        <time>2024-11-20T07:32:00Z</time>
      </trkpt>
      <trkpt lat="48.14583" lon="-3.30655">
        <ele>240</ele>
        <time>2024-11-20T07:32:01Z</time>
      </trkpt>
      <trkpt lat="48.14583" lon="-3.30656">
        <ele>240</ele>
        <time>2024-11-20T07:32:02Z</time>
      </trkpt>
      <trkpt lat="48.14583" lon="-3.30657">
        <ele>239.9</ele>
        <time>2024-11-20T07:32:03Z</time>
      </trkpt>
      <trkpt lat="48.14582" lon="-3.30658">
        <ele>239.8</ele>
        <time>2024-11-20T07:32:04Z</time>
      </trkpt>
      <trkpt lat="48.14581" lon="-3.3066">
        <ele>239.6</ele>
        <time>2024-11-20T07:32:05Z</time>
      </trkpt>
      <trkpt lat="48.1458" lon="-3.30661">
        <ele>239.5</ele>
        <time>2024-11-20T07:32:06Z</time>
      </trkpt>
      <trkpt lat="48.14579" lon="-3.30662">
        <ele>239.3</ele>
        <time>2024-11-20T07:32:07Z</time>
      </trkpt>
      <trkpt lat="48.14578" lon="-3.30664">
        <ele>239.3</ele>
        <time>2024-11-20T07:32:08Z</time>
      </trkpt>
      <trkpt lat="48.14578" lon="-3.30664">
        <ele>239.2</ele>
        <time>2024-11-20T07:32:09Z</time>
      </trkpt>
      <trkpt lat="48.14578" lon="-3.30665">
        <ele>239.2</ele>
        <time>2024-11-20T07:32:10Z</time>
      </trkpt>
      <trkpt lat="48.14577" lon="-3.30665">
        <ele>239.1</ele>
        <time>2024-11-20T07:32:11Z</time>
      </trkpt>
      <trkpt lat="48.14576" lon="-3.30667">
        <ele>239</ele>
        <time>2024-11-20T07:32:12Z</time>
      </trkpt>
      <trkpt lat="48.14575" lon="-3.30669">
        <ele>238.9</ele>
        <time>2024-11-20T07:32:13Z</time>
      </trkpt>
      <trkpt lat="48.14574" lon="-3.3067">
        <ele>238.8</ele>
        <time>2024-11-20T07:32:14Z</time>
      </trkpt>
      <trkpt lat="48.14573" lon="-3.30671">
        <ele>238.7</ele>
        <time>2024-11-20T07:32:15Z</time>
      </trkpt>
      <trkpt lat="48.14572" lon="-3.30672">
        <ele>238.7</ele>
        <time>2024-11-20T07:32:16Z</time>
      </trkpt>
      <trkpt lat="48.14571" lon="-3.30672">
        <ele>238.6</ele>
        <time>2024-11-20T07:32:17Z</time>
      </trkpt>
      <trkpt lat="48.14571" lon="-3.30673">
        <ele>238.6</ele>
        <time>2024-11-20T07:32:18Z</time>
      </trkpt>
      <trkpt lat="48.1457" lon="-3.30673">
        <ele>238.5</ele>
        <time>2024-11-20T07:32:19Z</time>
      </trkpt>
      <trkpt lat="48.14569" lon="-3.30673">
        <ele>238.4</ele>
        <time>2024-11-20T07:32:20Z</time>
      </trkpt>
      <trkpt lat="48.14568" lon="-3.30673">
        <ele>238.3</ele>
        <time>2024-11-20T07:32:21Z</time>
      </trkpt>
      <trkpt lat="48.14566" lon="-3.30673">
        <ele>238.1</ele>
        <time>2024-11-20T07:32:22Z</time>
      </trkpt>
      <trkpt lat="48.14565" lon="-3.30674">
        <ele>238.1</ele>
        <time>2024-11-20T07:32:23Z</time>
      </trkpt>
      <trkpt lat="48.14564" lon="-3.30674">
        <ele>238</ele>
        <time>2024-11-20T07:32:24Z</time>
      </trkpt>
      <trkpt lat="48.14564" lon="-3.30675">
        <ele>238</ele>
        <time>2024-11-20T07:32:25Z</time>
      </trkpt>
      <trkpt lat="48.14563" lon="-3.30676">
        <ele>238</ele>
        <time>2024-11-20T07:32:26Z</time>
      </trkpt>
      <trkpt lat="48.14562" lon="-3.30677">
        <ele>238</ele>
        <time>2024-11-20T07:32:27Z</time>
      </trkpt>
      <trkpt lat="48.14561" lon="-3.30678">
        <ele>238</ele>
        <time>2024-11-20T07:32:28Z</time>
      </trkpt>
      <trkpt lat="48.1456" lon="-3.30679">
        <ele>238.1</ele>
        <time>2024-11-20T07:32:29Z</time>
      </trkpt>
      <trkpt lat="48.14559" lon="-3.3068">
        <ele>238.1</ele>
        <time>2024-11-20T07:32:30Z</time>
      </trkpt>
      <trkpt lat="48.14558" lon="-3.3068">
        <ele>238</ele>
        <time>2024-11-20T07:32:31Z</time>
      </trkpt>
      <trkpt lat="48.14557" lon="-3.3068">
        <ele>238</ele>
        <time>2024-11-20T07:32:32Z</time>
      </trkpt>
      <trkpt lat="48.14555" lon="-3.3068">
        <ele>237.9</ele>
        <time>2024-11-20T07:32:33Z</time>
      </trkpt>
      <trkpt lat="48.14554" lon="-3.3068">
        <ele>237.8</ele>
        <time>2024-11-20T07:32:34Z</time>
      </trkpt>
      <trkpt lat="48.14553" lon="-3.3068">
        <ele>237.8</ele>
        <time>2024-11-20T07:32:35Z</time>
      </trkpt>
      <trkpt lat="48.14552" lon="-3.3068">
        <ele>237.8</ele>
        <time>2024-11-20T07:32:36Z</time>
      </trkpt>
      <trkpt lat="48.14551" lon="-3.30681">
        <ele>237.8</ele>
        <time>2024-11-20T07:32:37Z</time>
      </trkpt>
      <trkpt lat="48.14549" lon="-3.30681">
        <ele>237.8</ele>
        <time>2024-11-20T07:32:38Z</time>
      </trkpt>
      <trkpt lat="48.14548" lon="-3.30681">
        <ele>237.8</ele>
        <time>2024-11-20T07:32:39Z</time>
      </trkpt>
      <trkpt lat="48.14546" lon="-3.30681">
        <ele>237.7</ele>
        <time>2024-11-20T07:32:40Z</time>
      </trkpt>
      <trkpt lat="48.14545" lon="-3.30681">
        <ele>237.7</ele>
        <time>2024-11-20T07:32:41Z</time>
      </trkpt>
      <trkpt lat="48.14544" lon="-3.30682">
        <ele>237.8</ele>
        <time>2024-11-20T07:32:42Z</time>
      </trkpt>
      <trkpt lat="48.14543" lon="-3.30682">
        <ele>237.7</ele>
        <time>2024-11-20T07:32:43Z</time>
      </trkpt>
      <trkpt lat="48.14542" lon="-3.30682">
        <ele>237.7</ele>
        <time>2024-11-20T07:32:44Z</time>
      </trkpt>
      <trkpt lat="48.14541" lon="-3.30682">
        <ele>237.6</ele>
        <time>2024-11-20T07:32:45Z</time>
      </trkpt>
      <trkpt lat="48.1454" lon="-3.30681">
        <ele>237.5</ele>
        <time>2024-11-20T07:32:46Z</time>
      </trkpt>
      <trkpt lat="48.14539" lon="-3.30681">
        <ele>237.5</ele>
        <time>2024-11-20T07:32:47Z</time>
      </trkpt>
      <trkpt lat="48.14538" lon="-3.30681">
        <ele>237.5</ele>
        <time>2024-11-20T07:32:48Z</time>
      </trkpt>
      <trkpt lat="48.14537" lon="-3.30681">
        <ele>237.4</ele>
        <time>2024-11-20T07:32:49Z</time>
      </trkpt>
      <trkpt lat="48.14536" lon="-3.30682">
        <ele>237.4</ele>
        <time>2024-11-20T07:32:50Z</time>
      </trkpt>
      <trkpt lat="48.14535" lon="-3.30682">
        <ele>237.4</ele>
        <time>2024-11-20T07:32:51Z</time>
      </trkpt>
      <trkpt lat="48.14534" lon="-3.30682">
        <ele>237.4</ele>
        <time>2024-11-20T07:32:52Z</time>
      </trkpt>
      <trkpt lat="48.14532" lon="-3.30682">
        <ele>237.4</ele>
        <time>2024-11-20T07:32:53Z</time>
      </trkpt>
      <trkpt lat="48.14531" lon="-3.30683">
        <ele>237.4</ele>
        <time>2024-11-20T07:32:54Z</time>
      </trkpt>
      <trkpt lat="48.1453" lon="-3.30683">
        <ele>237.5</ele>
        <time>2024-11-20T07:32:55Z</time>
      </trkpt>
      <trkpt lat="48.14529" lon="-3.30684">
        <ele>237.5</ele>
        <time>2024-11-20T07:32:56Z</time>
      </trkpt>
      <trkpt lat="48.14528" lon="-3.30684">
        <ele>237.5</ele>
        <time>2024-11-20T07:32:57Z</time>
      </trkpt>
      <trkpt lat="48.14527" lon="-3.30684">
        <ele>237.6</ele>
        <time>2024-11-20T07:32:58Z</time>
      </trkpt>
      <trkpt lat="48.14526" lon="-3.30684">
        <ele>237.6</ele>
        <time>2024-11-20T07:32:59Z</time>
      </trkpt>
      <trkpt lat="48.14525" lon="-3.30684">
        <ele>237.6</ele>
        <time>2024-11-20T07:33:00Z</time>
      </trkpt>
      <trkpt lat="48.14524" lon="-3.30684">
        <ele>237.7</ele>
        <time>2024-11-20T07:33:01Z</time>
      </trkpt>
      <trkpt lat="48.14522" lon="-3.30684">
        <ele>237.7</ele>
        <time>2024-11-20T07:33:02Z</time>
      </trkpt>
      <trkpt lat="48.14521" lon="-3.30684">
        <ele>237.8</ele>
        <time>2024-11-20T07:33:03Z</time>
      </trkpt>
      <trkpt lat="48.1452" lon="-3.30684">
        <ele>237.9</ele>
        <time>2024-11-20T07:33:04Z</time>
      </trkpt>
      <trkpt lat="48.14518" lon="-3.30684">
        <ele>238</ele>
        <time>2024-11-20T07:33:05Z</time>
      </trkpt>
      <trkpt lat="48.14516" lon="-3.30685">
        <ele>238.1</ele>
        <time>2024-11-20T07:33:06Z</time>
      </trkpt>
      <trkpt lat="48.14515" lon="-3.30685">
        <ele>238.2</ele>
        <time>2024-11-20T07:33:07Z</time>
      </trkpt>
      <trkpt lat="48.14514" lon="-3.30685">
        <ele>238.3</ele>
        <time>2024-11-20T07:33:08Z</time>
      </trkpt>
      <trkpt lat="48.14513" lon="-3.30685">
        <ele>238.4</ele>
        <time>2024-11-20T07:33:09Z</time>
      </trkpt>
      <trkpt lat="48.14512" lon="-3.30686">
        <ele>238.5</ele>
        <time>2024-11-20T07:33:10Z</time>
      </trkpt>
      <trkpt lat="48.14511" lon="-3.30686">
        <ele>238.6</ele>
        <time>2024-11-20T07:33:11Z</time>
      </trkpt>
      <trkpt lat="48.14509" lon="-3.30687">
        <ele>238.8</ele>
        <time>2024-11-20T07:33:12Z</time>
      </trkpt>
      <trkpt lat="48.14508" lon="-3.30688">
        <ele>239</ele>
        <time>2024-11-20T07:33:13Z</time>
      </trkpt>
      <trkpt lat="48.14507" lon="-3.3069">
        <ele>239.2</ele>
        <time>2024-11-20T07:33:14Z</time>
      </trkpt>
      <trkpt lat="48.14506" lon="-3.30691">
        <ele>239.4</ele>
        <time>2024-11-20T07:33:15Z</time>
      </trkpt>
      <trkpt lat="48.14506" lon="-3.30692">
        <ele>239.5</ele>
        <time>2024-11-20T07:33:16Z</time>
      </trkpt>
      <trkpt lat="48.14505" lon="-3.30692">
        <ele>239.6</ele>
        <time>2024-11-20T07:33:17Z</time>
      </trkpt>
      <trkpt lat="48.14504" lon="-3.30694">
        <ele>239.8</ele>
        <time>2024-11-20T07:33:18Z</time>
      </trkpt>
      <trkpt lat="48.14503" lon="-3.30694">
        <ele>239.9</ele>
        <time>2024-11-20T07:33:19Z</time>
      </trkpt>
      <trkpt lat="48.14502" lon="-3.30695">
        <ele>240</ele>
        <time>2024-11-20T07:33:20Z</time>
      </trkpt>
      <trkpt lat="48.145" lon="-3.30695">
        <ele>240</ele>
        <time>2024-11-20T07:33:21Z</time>
      </trkpt>
      <trkpt lat="48.14499" lon="-3.30695">
        <ele>240.1</ele>
        <time>2024-11-20T07:33:22Z</time>
      </trkpt>
      <trkpt lat="48.14498" lon="-3.30696">
        <ele>240.2</ele>
        <time>2024-11-20T07:33:23Z</time>
      </trkpt>
      <trkpt lat="48.14497" lon="-3.30697">
        <ele>240.3</ele>
        <time>2024-11-20T07:33:24Z</time>
      </trkpt>
      <trkpt lat="48.14495" lon="-3.30698">
        <ele>240.4</ele>
        <time>2024-11-20T07:33:25Z</time>
      </trkpt>
      <trkpt lat="48.14494" lon="-3.30699">
        <ele>240.5</ele>
        <time>2024-11-20T07:33:26Z</time>
      </trkpt>
      <trkpt lat="48.14493" lon="-3.30699">
        <ele>240.6</ele>
        <time>2024-11-20T07:33:27Z</time>
      </trkpt>
      <trkpt lat="48.14491" lon="-3.307">
        <ele>240.7</ele>
        <time>2024-11-20T07:33:28Z</time>
      </trkpt>
      <trkpt lat="48.1449" lon="-3.30701">
        <ele>240.8</ele>
        <time>2024-11-20T07:33:29Z</time>
      </trkpt>
      <trkpt lat="48.14489" lon="-3.30702">
        <ele>240.9</ele>
        <time>2024-11-20T07:33:30Z</time>
      </trkpt>
      <trkpt lat="48.14489" lon="-3.30703">
        <ele>241</ele>
        <time>2024-11-20T07:33:31Z</time>
      </trkpt>
      <trkpt lat="48.14488" lon="-3.30704">
        <ele>241.1</ele>
        <time>2024-11-20T07:33:32Z</time>
      </trkpt>
      <trkpt lat="48.14487" lon="-3.30706">
        <ele>241.3</ele>
        <time>2024-11-20T07:33:33Z</time>
      </trkpt>
      <trkpt lat="48.14486" lon="-3.30707">
        <ele>241.4</ele>
        <time>2024-11-20T07:33:34Z</time>
      </trkpt>
      <trkpt lat="48.14485" lon="-3.30707">
        <ele>241.5</ele>
        <time>2024-11-20T07:33:35Z</time>
      </trkpt>
      <trkpt lat="48.14484" lon="-3.30708">
        <ele>241.6</ele>
        <time>2024-11-20T07:33:36Z</time>
      </trkpt>
      <trkpt lat="48.14482" lon="-3.30709">
        <ele>241.7</ele>
        <time>2024-11-20T07:33:37Z</time>
      </trkpt>
      <trkpt lat="48.14481" lon="-3.30709">
        <ele>241.7</ele>
        <time>2024-11-20T07:33:38Z</time>
      </trkpt>
      <trkpt lat="48.1448" lon="-3.3071">
        <ele>241.8</ele>
        <time>2024-11-20T07:33:39Z</time>
      </trkpt>
      <trkpt lat="48.14479" lon="-3.30711">
        <ele>241.9</ele>
        <time>2024-11-20T07:33:40Z</time>
      </trkpt>
      <trkpt lat="48.14478" lon="-3.30712">
        <ele>242</ele>
        <time>2024-11-20T07:33:41Z</time>
      </trkpt>
      <trkpt lat="48.14476" lon="-3.30712">
        <ele>242.1</ele>
        <time>2024-11-20T07:33:42Z</time>
      </trkpt>
      <trkpt lat="48.14475" lon="-3.30713">
        <ele>242.2</ele>
        <time>2024-11-20T07:33:43Z</time>
      </trkpt>
      <trkpt lat="48.14473" lon="-3.30714">
        <ele>242.3</ele>
        <time>2024-11-20T07:33:44Z</time>
      </trkpt>
      <trkpt lat="48.14472" lon="-3.30714">
        <ele>242.3</ele>
        <time>2024-11-20T07:33:45Z</time>
      </trkpt>
      <trkpt lat="48.1447" lon="-3.30714">
        <ele>242.3</ele>
        <time>2024-11-20T07:33:46Z</time>
      </trkpt>
      <trkpt lat="48.14469" lon="-3.30714">
        <ele>242.2</ele>
        <time>2024-11-20T07:33:47Z</time>
      </trkpt>
      <trkpt lat="48.14468" lon="-3.30715">
        <ele>242.2</ele>
        <time>2024-11-20T07:33:48Z</time>
      </trkpt>
      <trkpt lat="48.14467" lon="-3.30714">
        <ele>242.1</ele>
        <time>2024-11-20T07:33:49Z</time>
      </trkpt>
      <trkpt lat="48.14466" lon="-3.30714">
        <ele>242.1</ele>
        <time>2024-11-20T07:33:50Z</time>
      </trkpt>
      <trkpt lat="48.14465" lon="-3.30715">
        <ele>242</ele>
        <time>2024-11-20T07:33:51Z</time>
      </trkpt>
      <trkpt lat="48.14464" lon="-3.30715">
        <ele>242</ele>
        <time>2024-11-20T07:33:52Z</time>
      </trkpt>
      <trkpt lat="48.14464" lon="-3.30717">
        <ele>242</ele>
        <time>2024-11-20T07:33:53Z</time>
      </trkpt>
      <trkpt lat="48.14463" lon="-3.30718">
        <ele>242.1</ele>
        <time>2024-11-20T07:33:54Z</time>
      </trkpt>
      <trkpt lat="48.14462" lon="-3.30718">
        <ele>242</ele>
        <time>2024-11-20T07:33:55Z</time>
      </trkpt>
      <trkpt lat="48.14461" lon="-3.30719">
        <ele>242</ele>
        <time>2024-11-20T07:33:56Z</time>
      </trkpt>
      <trkpt lat="48.14459" lon="-3.30719">
        <ele>241.9</ele>
        <time>2024-11-20T07:33:57Z</time>
      </trkpt>
      <trkpt lat="48.14458" lon="-3.30719">
        <ele>241.8</ele>
        <time>2024-11-20T07:33:58Z</time>
      </trkpt>
      <trkpt lat="48.14457" lon="-3.3072">
        <ele>241.8</ele>
        <time>2024-11-20T07:33:59Z</time>
      </trkpt>
      <trkpt lat="48.14456" lon="-3.3072">
        <ele>241.7</ele>
        <time>2024-11-20T07:34:00Z</time>
      </trkpt>
      <trkpt lat="48.14455" lon="-3.3072">
        <ele>241.6</ele>
        <time>2024-11-20T07:34:01Z</time>
      </trkpt>
      <trkpt lat="48.14454" lon="-3.30721">
        <ele>241.6</ele>
        <time>2024-11-20T07:34:02Z</time>
      </trkpt>
      <trkpt lat="48.14453" lon="-3.30722">
        <ele>241.6</ele>
        <time>2024-11-20T07:34:03Z</time>
      </trkpt>
      <trkpt lat="48.14452" lon="-3.30723">
        <ele>241.5</ele>
        <time>2024-11-20T07:34:04Z</time>
      </trkpt>
      <trkpt lat="48.1445" lon="-3.30724">
        <ele>241.4</ele>
        <time>2024-11-20T07:34:05Z</time>
      </trkpt>
      <trkpt lat="48.14449" lon="-3.30725">
        <ele>241.3</ele>
        <time>2024-11-20T07:34:06Z</time>
      </trkpt>
      <trkpt lat="48.14447" lon="-3.30726">
        <ele>241.2</ele>
        <time>2024-11-20T07:34:07Z</time>
      </trkpt>
      <trkpt lat="48.14446" lon="-3.30728">
        <ele>241.1</ele>
        <time>2024-11-20T07:34:08Z</time>
      </trkpt>
      <trkpt lat="48.14445" lon="-3.30729">
        <ele>241</ele>
        <time>2024-11-20T07:34:09Z</time>
      </trkpt>
      <trkpt lat="48.14443" lon="-3.3073">
        <ele>240.9</ele>
        <time>2024-11-20T07:34:10Z</time>
      </trkpt>
      <trkpt lat="48.14442" lon="-3.30731">
        <ele>240.8</ele>
        <time>2024-11-20T07:34:11Z</time>
      </trkpt>
      <trkpt lat="48.14442" lon="-3.30731">
        <ele>240.7</ele>
        <time>2024-11-20T07:34:12Z</time>
      </trkpt>
      <trkpt lat="48.14441" lon="-3.30732">
        <ele>240.6</ele>
        <time>2024-11-20T07:34:13Z</time>
      </trkpt>
      <trkpt lat="48.14439" lon="-3.30732">
        <ele>240.4</ele>
        <time>2024-11-20T07:34:14Z</time>
      </trkpt>
      <trkpt lat="48.14438" lon="-3.30733">
        <ele>240.3</ele>
        <time>2024-11-20T07:34:15Z</time>
      </trkpt>
      <trkpt lat="48.14436" lon="-3.30733">
        <ele>240.1</ele>
        <time>2024-11-20T07:34:16Z</time>
      </trkpt>
      <trkpt lat="48.14435" lon="-3.30734">
        <ele>240</ele>
        <time>2024-11-20T07:34:17Z</time>
      </trkpt>
      <trkpt lat="48.14434" lon="-3.30735">
        <ele>239.9</ele>
        <time>2024-11-20T07:34:18Z</time>
      </trkpt>
      <trkpt lat="48.14433" lon="-3.30735">
        <ele>239.8</ele>
        <time>2024-11-20T07:34:19Z</time>
      </trkpt>
      <trkpt lat="48.14432" lon="-3.30736">
        <ele>239.6</ele>
        <time>2024-11-20T07:34:20Z</time>
      </trkpt>
      <trkpt lat="48.1443" lon="-3.30737">
        <ele>239.5</ele>
        <time>2024-11-20T07:34:21Z</time>
      </trkpt>
      <trkpt lat="48.14429" lon="-3.30738">
        <ele>239.3</ele>
        <time>2024-11-20T07:34:22Z</time>
      </trkpt>
      <trkpt lat="48.14428" lon="-3.30739">
        <ele>239.2</ele>
        <time>2024-11-20T07:34:23Z</time>
      </trkpt>
      <trkpt lat="48.14427" lon="-3.30739">
        <ele>239.1</ele>
        <time>2024-11-20T07:34:24Z</time>
      </trkpt>
      <trkpt lat="48.14426" lon="-3.3074">
        <ele>239</ele>
        <time>2024-11-20T07:34:25Z</time>
      </trkpt>
      <trkpt lat="48.14425" lon="-3.3074">
        <ele>238.9</ele>
        <time>2024-11-20T07:34:26Z</time>
      </trkpt>
      <trkpt lat="48.14425" lon="-3.30741">
        <ele>238.8</ele>
        <time>2024-11-20T07:34:27Z</time>
      </trkpt>
      <trkpt lat="48.14424" lon="-3.30742">
        <ele>238.7</ele>
        <time>2024-11-20T07:34:28Z</time>
      </trkpt>
      <trkpt lat="48.14422" lon="-3.30743">
        <ele>238.6</ele>
        <time>2024-11-20T07:34:29Z</time>
      </trkpt>
      <trkpt lat="48.14421" lon="-3.30744">
        <ele>238.5</ele>
        <time>2024-11-20T07:34:30Z</time>
      </trkpt>
      <trkpt lat="48.1442" lon="-3.30745">
        <ele>238.3</ele>
        <time>2024-11-20T07:34:31Z</time>
      </trkpt>
      <trkpt lat="48.14419" lon="-3.30745">
        <ele>238.2</ele>
        <time>2024-11-20T07:34:32Z</time>
      </trkpt>
      <trkpt lat="48.14417" lon="-3.30746">
        <ele>238.1</ele>
        <time>2024-11-20T07:34:33Z</time>
      </trkpt>
      <trkpt lat="48.14416" lon="-3.30747">
        <ele>238</ele>
        <time>2024-11-20T07:34:34Z</time>
      </trkpt>
      <trkpt lat="48.14415" lon="-3.30749">
        <ele>237.9</ele>
        <time>2024-11-20T07:34:35Z</time>
      </trkpt>
      <trkpt lat="48.14413" lon="-3.3075">
        <ele>237.9</ele>
        <time>2024-11-20T07:34:36Z</time>
      </trkpt>
      <trkpt lat="48.14412" lon="-3.3075">
        <ele>237.8</ele>
        <time>2024-11-20T07:34:37Z</time>
      </trkpt>
      <trkpt lat="48.1441" lon="-3.30751">
        <ele>237.8</ele>
        <time>2024-11-20T07:34:38Z</time>
      </trkpt>
      <trkpt lat="48.14408" lon="-3.30752">
        <ele>237.7</ele>
        <time>2024-11-20T07:34:39Z</time>
      </trkpt>
      <trkpt lat="48.14407" lon="-3.30752">
        <ele>237.7</ele>
        <time>2024-11-20T07:34:40Z</time>
      </trkpt>
      <trkpt lat="48.14405" lon="-3.30753">
        <ele>237.6</ele>
        <time>2024-11-20T07:34:41Z</time>
      </trkpt>
      <trkpt lat="48.14403" lon="-3.30754">
        <ele>237.6</ele>
        <time>2024-11-20T07:34:42Z</time>
      </trkpt>
      <trkpt lat="48.14402" lon="-3.30755">
        <ele>237.6</ele>
        <time>2024-11-20T07:34:43Z</time>
      </trkpt>
      <trkpt lat="48.14401" lon="-3.30757">
        <ele>237.5</ele>
        <time>2024-11-20T07:34:44Z</time>
      </trkpt>
      <trkpt lat="48.14399" lon="-3.30758">
        <ele>237.5</ele>
        <time>2024-11-20T07:34:45Z</time>
      </trkpt>
      <trkpt lat="48.14398" lon="-3.30759">
        <ele>237.4</ele>
        <time>2024-11-20T07:34:46Z</time>
      </trkpt>
      <trkpt lat="48.14397" lon="-3.3076">
        <ele>237.4</ele>
        <time>2024-11-20T07:34:47Z</time>
      </trkpt>
      <trkpt lat="48.14396" lon="-3.30761">
        <ele>237.3</ele>
        <time>2024-11-20T07:34:48Z</time>
      </trkpt>
      <trkpt lat="48.14395" lon="-3.30762">
        <ele>237.3</ele>
        <time>2024-11-20T07:34:49Z</time>
      </trkpt>
      <trkpt lat="48.14394" lon="-3.30764">
        <ele>237.3</ele>
        <time>2024-11-20T07:34:50Z</time>
      </trkpt>
      <trkpt lat="48.14392" lon="-3.30765">
        <ele>237.2</ele>
        <time>2024-11-20T07:34:51Z</time>
      </trkpt>
      <trkpt lat="48.14391" lon="-3.30766">
        <ele>237.1</ele>
        <time>2024-11-20T07:34:52Z</time>
      </trkpt>
      <trkpt lat="48.1439" lon="-3.30768">
        <ele>237.1</ele>
        <time>2024-11-20T07:34:53Z</time>
      </trkpt>
      <trkpt lat="48.14389" lon="-3.30769">
        <ele>237</ele>
        <time>2024-11-20T07:34:54Z</time>
      </trkpt>
      <trkpt lat="48.14387" lon="-3.3077">
        <ele>236.9</ele>
        <time>2024-11-20T07:34:55Z</time>
      </trkpt>
      <trkpt lat="48.14386" lon="-3.30771">
        <ele>236.9</ele>
        <time>2024-11-20T07:34:56Z</time>
      </trkpt>
      <trkpt lat="48.14385" lon="-3.30772">
        <ele>236.9</ele>
        <time>2024-11-20T07:34:57Z</time>
      </trkpt>
      <trkpt lat="48.14384" lon="-3.30773">
        <ele>236.8</ele>
        <time>2024-11-20T07:34:58Z</time>
      </trkpt>
      <trkpt lat="48.14382" lon="-3.30774">
        <ele>236.8</ele>
        <time>2024-11-20T07:34:59Z</time>
      </trkpt>
      <trkpt lat="48.1438" lon="-3.30775">
        <ele>236.7</ele>
        <time>2024-11-20T07:35:00Z</time>
      </trkpt>
      <trkpt lat="48.14379" lon="-3.30776">
        <ele>236.6</ele>
        <time>2024-11-20T07:35:01Z</time>
      </trkpt>
      <trkpt lat="48.14378" lon="-3.30777">
        <ele>236.6</ele>
        <time>2024-11-20T07:35:02Z</time>
      </trkpt>
      <trkpt lat="48.14377" lon="-3.30778">
        <ele>236.6</ele>
        <time>2024-11-20T07:35:03Z</time>
      </trkpt>
      <trkpt lat="48.14375" lon="-3.30779">
        <ele>236.6</ele>
        <time>2024-11-20T07:35:04Z</time>
      </trkpt>
      <trkpt lat="48.14374" lon="-3.3078">
        <ele>236.5</ele>
        <time>2024-11-20T07:35:05Z</time>
      </trkpt>
      <trkpt lat="48.14373" lon="-3.30781">
        <ele>236.5</ele>
        <time>2024-11-20T07:35:06Z</time>
      </trkpt>
      <trkpt lat="48.14372" lon="-3.30782">
        <ele>236.5</ele>
        <time>2024-11-20T07:35:07Z</time>
      </trkpt>
      <trkpt lat="48.1437" lon="-3.30783">
        <ele>236.5</ele>
        <time>2024-11-20T07:35:08Z</time>
      </trkpt>
      <trkpt lat="48.14369" lon="-3.30785">
        <ele>236.5</ele>
        <time>2024-11-20T07:35:09Z</time>
      </trkpt>
      <trkpt lat="48.14368" lon="-3.30785">
        <ele>236.5</ele>
        <time>2024-11-20T07:35:10Z</time>
      </trkpt>
      <trkpt lat="48.14366" lon="-3.30786">
        <ele>236.5</ele>
        <time>2024-11-20T07:35:11Z</time>
      </trkpt>
      <trkpt lat="48.14365" lon="-3.30787">
        <ele>236.5</ele>
        <time>2024-11-20T07:35:12Z</time>
      </trkpt>
      <trkpt lat="48.14364" lon="-3.30788">
        <ele>236.5</ele>
        <time>2024-11-20T07:35:13Z</time>
      </trkpt>
      <trkpt lat="48.14363" lon="-3.30788">
        <ele>236.4</ele>
        <time>2024-11-20T07:35:14Z</time>
      </trkpt>
      <trkpt lat="48.14362" lon="-3.30789">
        <ele>236.4</ele>
        <time>2024-11-20T07:35:15Z</time>
      </trkpt>
      <trkpt lat="48.14361" lon="-3.3079">
        <ele>236.4</ele>
        <time>2024-11-20T07:35:16Z</time>
      </trkpt>
      <trkpt lat="48.1436" lon="-3.30791">
        <ele>236.5</ele>
        <time>2024-11-20T07:35:17Z</time>
      </trkpt>
      <trkpt lat="48.14358" lon="-3.30792">
        <ele>236.6</ele>
        <time>2024-11-20T07:35:18Z</time>
      </trkpt>
      <trkpt lat="48.14357" lon="-3.30793">
        <ele>236.6</ele>
        <time>2024-11-20T07:35:19Z</time>
      </trkpt>
      <trkpt lat="48.14356" lon="-3.30795">
        <ele>236.7</ele>
        <time>2024-11-20T07:35:20Z</time>
      </trkpt>
      <trkpt lat="48.14355" lon="-3.30796">
        <ele>236.7</ele>
        <time>2024-11-20T07:35:21Z</time>
      </trkpt>
      <trkpt lat="48.14354" lon="-3.30796">
        <ele>236.8</ele>
        <time>2024-11-20T07:35:22Z</time>
      </trkpt>
      <trkpt lat="48.14353" lon="-3.30797">
        <ele>236.8</ele>
        <time>2024-11-20T07:35:23Z</time>
      </trkpt>
      <trkpt lat="48.14352" lon="-3.30798">
        <ele>236.8</ele>
        <time>2024-11-20T07:35:24Z</time>
      </trkpt>
      <trkpt lat="48.1435" lon="-3.30799">
        <ele>236.8</ele>
        <time>2024-11-20T07:35:25Z</time>
      </trkpt>
      <trkpt lat="48.14349" lon="-3.308">
        <ele>236.9</ele>
        <time>2024-11-20T07:35:26Z</time>
      </trkpt>
      <trkpt lat="48.14348" lon="-3.30801">
        <ele>236.9</ele>
        <time>2024-11-20T07:35:27Z</time>
      </trkpt>
      <trkpt lat="48.14347" lon="-3.30802">
        <ele>236.9</ele>
        <time>2024-11-20T07:35:28Z</time>
      </trkpt>
      <trkpt lat="48.14346" lon="-3.30803">
        <ele>237</ele>
        <time>2024-11-20T07:35:29Z</time>
      </trkpt>
      <trkpt lat="48.14344" lon="-3.30804">
        <ele>237</ele>
        <time>2024-11-20T07:35:30Z</time>
      </trkpt>
      <trkpt lat="48.14343" lon="-3.30805">
        <ele>237</ele>
        <time>2024-11-20T07:35:31Z</time>
      </trkpt>
      <trkpt lat="48.14342" lon="-3.30806">
        <ele>237</ele>
        <time>2024-11-20T07:35:32Z</time>
      </trkpt>
      <trkpt lat="48.14341" lon="-3.30807">
        <ele>237</ele>
        <time>2024-11-20T07:35:33Z</time>
      </trkpt>
      <trkpt lat="48.1434" lon="-3.30808">
        <ele>237.1</ele>
        <time>2024-11-20T07:35:34Z</time>
      </trkpt>
      <trkpt lat="48.14339" lon="-3.30809">
        <ele>237.1</ele>
        <time>2024-11-20T07:35:35Z</time>
      </trkpt>
      <trkpt lat="48.14338" lon="-3.3081">
        <ele>237.2</ele>
        <time>2024-11-20T07:35:36Z</time>
      </trkpt>
      <trkpt lat="48.14337" lon="-3.30811">
        <ele>237.2</ele>
        <time>2024-11-20T07:35:37Z</time>
      </trkpt>
      <trkpt lat="48.14336" lon="-3.30811">
        <ele>237.2</ele>
        <time>2024-11-20T07:35:38Z</time>
      </trkpt>
      <trkpt lat="48.14335" lon="-3.30812">
        <ele>237.2</ele>
        <time>2024-11-20T07:35:39Z</time>
      </trkpt>
      <trkpt lat="48.14334" lon="-3.30813">
        <ele>237.3</ele>
        <time>2024-11-20T07:35:40Z</time>
      </trkpt>
      <trkpt lat="48.14332" lon="-3.30815">
        <ele>237.3</ele>
        <time>2024-11-20T07:35:41Z</time>
      </trkpt>
      <trkpt lat="48.14331" lon="-3.30816">
        <ele>237.4</ele>
        <time>2024-11-20T07:35:42Z</time>
      </trkpt>
      <trkpt lat="48.1433" lon="-3.30817">
        <ele>237.5</ele>
        <time>2024-11-20T07:35:43Z</time>
      </trkpt>
      <trkpt lat="48.14329" lon="-3.30817">
        <ele>237.5</ele>
        <time>2024-11-20T07:35:44Z</time>
      </trkpt>
      <trkpt lat="48.14327" lon="-3.30818">
        <ele>237.6</ele>
        <time>2024-11-20T07:35:45Z</time>
      </trkpt>
      <trkpt lat="48.14326" lon="-3.30819">
        <ele>237.6</ele>
        <time>2024-11-20T07:35:46Z</time>
      </trkpt>
      <trkpt lat="48.14325" lon="-3.3082">
        <ele>237.7</ele>
        <time>2024-11-20T07:35:47Z</time>
      </trkpt>
      <trkpt lat="48.14324" lon="-3.3082">
        <ele>237.7</ele>
        <time>2024-11-20T07:35:48Z</time>
      </trkpt>
      <trkpt lat="48.14322" lon="-3.3082">
        <ele>237.7</ele>
        <time>2024-11-20T07:35:49Z</time>
      </trkpt>
      <trkpt lat="48.14321" lon="-3.3082">
        <ele>237.7</ele>
        <time>2024-11-20T07:35:50Z</time>
      </trkpt>
      <trkpt lat="48.1432" lon="-3.3082">
        <ele>237.8</ele>
        <time>2024-11-20T07:35:51Z</time>
      </trkpt>
      <trkpt lat="48.14318" lon="-3.30821">
        <ele>237.8</ele>
        <time>2024-11-20T07:35:52Z</time>
      </trkpt>
      <trkpt lat="48.14317" lon="-3.30821">
        <ele>237.8</ele>
        <time>2024-11-20T07:35:53Z</time>
      </trkpt>
      <trkpt lat="48.14315" lon="-3.30822">
        <ele>237.9</ele>
        <time>2024-11-20T07:35:54Z</time>
      </trkpt>
      <trkpt lat="48.14314" lon="-3.30823">
        <ele>237.9</ele>
        <time>2024-11-20T07:35:55Z</time>
      </trkpt>
      <trkpt lat="48.14312" lon="-3.30824">
        <ele>237.9</ele>
        <time>2024-11-20T07:35:56Z</time>
      </trkpt>
      <trkpt lat="48.14311" lon="-3.30825">
        <ele>237.9</ele>
        <time>2024-11-20T07:35:57Z</time>
      </trkpt>
      <trkpt lat="48.1431" lon="-3.30826">
        <ele>238</ele>
        <time>2024-11-20T07:35:58Z</time>
      </trkpt>
      <trkpt lat="48.1431" lon="-3.30827">
        <ele>238</ele>
        <time>2024-11-20T07:35:59Z</time>
      </trkpt>
      <trkpt lat="48.14309" lon="-3.30829">
        <ele>238</ele>
        <time>2024-11-20T07:36:00Z</time>
      </trkpt>
      <trkpt lat="48.14308" lon="-3.3083">
        <ele>238</ele>
        <time>2024-11-20T07:36:01Z</time>
      </trkpt>
      <trkpt lat="48.14307" lon="-3.30832">
        <ele>238</ele>
        <time>2024-11-20T07:36:02Z</time>
      </trkpt>
      <trkpt lat="48.14306" lon="-3.30833">
        <ele>238</ele>
        <time>2024-11-20T07:36:03Z</time>
      </trkpt>
      <trkpt lat="48.14305" lon="-3.30833">
        <ele>238</ele>
        <time>2024-11-20T07:36:04Z</time>
      </trkpt>
      <trkpt lat="48.14304" lon="-3.30834">
        <ele>237.9</ele>
        <time>2024-11-20T07:36:05Z</time>
      </trkpt>
      <trkpt lat="48.14302" lon="-3.30834">
        <ele>237.9</ele>
        <time>2024-11-20T07:36:06Z</time>
      </trkpt>
      <trkpt lat="48.14301" lon="-3.30835">
        <ele>237.8</ele>
        <time>2024-11-20T07:36:07Z</time>
      </trkpt>
      <trkpt lat="48.14299" lon="-3.30835">
        <ele>237.8</ele>
        <time>2024-11-20T07:36:08Z</time>
      </trkpt>
      <trkpt lat="48.14298" lon="-3.30836">
        <ele>237.7</ele>
        <time>2024-11-20T07:36:09Z</time>
      </trkpt>
      <trkpt lat="48.14296" lon="-3.30837">
        <ele>237.6</ele>
        <time>2024-11-20T07:36:10Z</time>
      </trkpt>
      <trkpt lat="48.14295" lon="-3.30838">
        <ele>237.5</ele>
        <time>2024-11-20T07:36:11Z</time>
      </trkpt>
      <trkpt lat="48.14293" lon="-3.30839">
        <ele>237.5</ele>
        <time>2024-11-20T07:36:12Z</time>
      </trkpt>
      <trkpt lat="48.14292" lon="-3.30839">
        <ele>237.4</ele>
        <time>2024-11-20T07:36:13Z</time>
      </trkpt>
      <trkpt lat="48.14291" lon="-3.3084">
        <ele>237.3</ele>
        <time>2024-11-20T07:36:14Z</time>
      </trkpt>
      <trkpt lat="48.1429" lon="-3.30841">
        <ele>237.3</ele>
        <time>2024-11-20T07:36:15Z</time>
      </trkpt>
      <trkpt lat="48.14289" lon="-3.30843">
        <ele>237.2</ele>
        <time>2024-11-20T07:36:16Z</time>
      </trkpt>
      <trkpt lat="48.14288" lon="-3.30844">
        <ele>237.1</ele>
        <time>2024-11-20T07:36:17Z</time>
      </trkpt>
      <trkpt lat="48.14288" lon="-3.30845">
        <ele>237.1</ele>
        <time>2024-11-20T07:36:18Z</time>
      </trkpt>
      <trkpt lat="48.14287" lon="-3.30845">
        <ele>237</ele>
        <time>2024-11-20T07:36:19Z</time>
      </trkpt>
      <trkpt lat="48.14286" lon="-3.30846">
        <ele>237</ele>
        <time>2024-11-20T07:36:20Z</time>
      </trkpt>
      <trkpt lat="48.14285" lon="-3.30847">
        <ele>236.9</ele>
        <time>2024-11-20T07:36:21Z</time>
      </trkpt>
      <trkpt lat="48.14284" lon="-3.30848">
        <ele>236.8</ele>
        <time>2024-11-20T07:36:22Z</time>
      </trkpt>
      <trkpt lat="48.14283" lon="-3.30849">
        <ele>236.8</ele>
        <time>2024-11-20T07:36:23Z</time>
      </trkpt>
      <trkpt lat="48.14282" lon="-3.30849">
        <ele>236.7</ele>
        <time>2024-11-20T07:36:24Z</time>
      </trkpt>
      <trkpt lat="48.14281" lon="-3.30849">
        <ele>236.6</ele>
        <time>2024-11-20T07:36:25Z</time>
      </trkpt>
      <trkpt lat="48.1428" lon="-3.30849">
        <ele>236.5</ele>
        <time>2024-11-20T07:36:26Z</time>
      </trkpt>
      <trkpt lat="48.14278" lon="-3.3085">
        <ele>236.4</ele>
        <time>2024-11-20T07:36:27Z</time>
      </trkpt>
      <trkpt lat="48.14277" lon="-3.30851">
        <ele>236.4</ele>
        <time>2024-11-20T07:36:28Z</time>
      </trkpt>
      <trkpt lat="48.14274" lon="-3.30852">
        <ele>236.2</ele>
        <time>2024-11-20T07:36:30Z</time>
      </trkpt>
      <trkpt lat="48.14273" lon="-3.30852">
        <ele>236.1</ele>
        <time>2024-11-20T07:36:31Z</time>
      </trkpt>
      <trkpt lat="48.14272" lon="-3.30852">
        <ele>236.1</ele>
        <time>2024-11-20T07:36:32Z</time>
      </trkpt>
      <trkpt lat="48.1427" lon="-3.30852">
        <ele>236</ele>
        <time>2024-11-20T07:36:33Z</time>
      </trkpt>
      <trkpt lat="48.14269" lon="-3.30853">
        <ele>236</ele>
        <time>2024-11-20T07:36:34Z</time>
      </trkpt>
      <trkpt lat="48.14268" lon="-3.30854">
        <ele>235.9</ele>
        <time>2024-11-20T07:36:35Z</time>
      </trkpt>
      <trkpt lat="48.14267" lon="-3.30855">
        <ele>235.8</ele>
        <time>2024-11-20T07:36:36Z</time>
      </trkpt>
      <trkpt lat="48.14266" lon="-3.30856">
        <ele>235.8</ele>
        <time>2024-11-20T07:36:37Z</time>
      </trkpt>
      <trkpt lat="48.14264" lon="-3.30857">
        <ele>235.7</ele>
        <time>2024-11-20T07:36:38Z</time>
      </trkpt>
      <trkpt lat="48.14263" lon="-3.30857">
        <ele>235.6</ele>
        <time>2024-11-20T07:36:39Z</time>
      </trkpt>
      <trkpt lat="48.14262" lon="-3.30857">
        <ele>235.6</ele>
        <time>2024-11-20T07:36:40Z</time>
      </trkpt>
      <trkpt lat="48.14261" lon="-3.30857">
        <ele>235.5</ele>
        <time>2024-11-20T07:36:41Z</time>
      </trkpt>
      <trkpt lat="48.1426" lon="-3.30857">
        <ele>235.5</ele>
        <time>2024-11-20T07:36:42Z</time>
      </trkpt>
      <trkpt lat="48.14259" lon="-3.30857">
        <ele>235.5</ele>
        <time>2024-11-20T07:36:43Z</time>
      </trkpt>
      <trkpt lat="48.14258" lon="-3.30857">
        <ele>235.4</ele>
        <time>2024-11-20T07:36:44Z</time>
      </trkpt>
      <trkpt lat="48.14257" lon="-3.30856">
        <ele>235.4</ele>
        <time>2024-11-20T07:36:45Z</time>
      </trkpt>
      <trkpt lat="48.14255" lon="-3.30856">
        <ele>235.4</ele>
        <time>2024-11-20T07:36:46Z</time>
      </trkpt>
      <trkpt lat="48.14254" lon="-3.30856">
        <ele>235.3</ele>
        <time>2024-11-20T07:36:47Z</time>
      </trkpt>
      <trkpt lat="48.14253" lon="-3.30856">
        <ele>235.3</ele>
        <time>2024-11-20T07:36:48Z</time>
      </trkpt>
      <trkpt lat="48.14252" lon="-3.30856">
        <ele>235.2</ele>
        <time>2024-11-20T07:36:49Z</time>
      </trkpt>
      <trkpt lat="48.14251" lon="-3.30856">
        <ele>235.2</ele>
        <time>2024-11-20T07:36:50Z</time>
      </trkpt>
      <trkpt lat="48.14249" lon="-3.30854">
        <ele>235.2</ele>
        <time>2024-11-20T07:36:51Z</time>
      </trkpt>
      <trkpt lat="48.14248" lon="-3.30853">
        <ele>235.1</ele>
        <time>2024-11-20T07:36:52Z</time>
      </trkpt>
      <trkpt lat="48.14247" lon="-3.30852">
        <ele>235</ele>
        <time>2024-11-20T07:36:53Z</time>
      </trkpt>
      <trkpt lat="48.14246" lon="-3.30851">
        <ele>235</ele>
        <time>2024-11-20T07:36:54Z</time>
      </trkpt>
      <trkpt lat="48.14244" lon="-3.3085">
        <ele>234.9</ele>
        <time>2024-11-20T07:36:55Z</time>
      </trkpt>
      <trkpt lat="48.14243" lon="-3.30848">
        <ele>234.8</ele>
        <time>2024-11-20T07:36:56Z</time>
      </trkpt>
      <trkpt lat="48.14241" lon="-3.30847">
        <ele>234.8</ele>
        <time>2024-11-20T07:36:57Z</time>
      </trkpt>
      <trkpt lat="48.1424" lon="-3.30845">
        <ele>234.7</ele>
        <time>2024-11-20T07:36:58Z</time>
      </trkpt>
      <trkpt lat="48.14239" lon="-3.30844">
        <ele>234.6</ele>
        <time>2024-11-20T07:36:59Z</time>
      </trkpt>
      <trkpt lat="48.14238" lon="-3.30843">
        <ele>234.6</ele>
        <time>2024-11-20T07:37:00Z</time>
      </trkpt>
      <trkpt lat="48.14237" lon="-3.30842">
        <ele>234.6</ele>
        <time>2024-11-20T07:37:01Z</time>
      </trkpt>
      <trkpt lat="48.14235" lon="-3.30841">
        <ele>234.5</ele>
        <time>2024-11-20T07:37:02Z</time>
      </trkpt>
      <trkpt lat="48.14234" lon="-3.30839">
        <ele>234.5</ele>
        <time>2024-11-20T07:37:03Z</time>
      </trkpt>
      <trkpt lat="48.14233" lon="-3.30838">
        <ele>234.5</ele>
        <time>2024-11-20T07:37:04Z</time>
      </trkpt>
      <trkpt lat="48.14232" lon="-3.30837">
        <ele>234.5</ele>
        <time>2024-11-20T07:37:05Z</time>
      </trkpt>
      <trkpt lat="48.14231" lon="-3.30836">
        <ele>234.5</ele>
        <time>2024-11-20T07:37:06Z</time>
      </trkpt>
      <trkpt lat="48.1423" lon="-3.30834">
        <ele>234.5</ele>
        <time>2024-11-20T07:37:07Z</time>
      </trkpt>
      <trkpt lat="48.14228" lon="-3.30833">
        <ele>234.5</ele>
        <time>2024-11-20T07:37:08Z</time>
      </trkpt>
      <trkpt lat="48.14227" lon="-3.30832">
        <ele>234.5</ele>
        <time>2024-11-20T07:37:09Z</time>
      </trkpt>
      <trkpt lat="48.14226" lon="-3.30831">
        <ele>234.5</ele>
        <time>2024-11-20T07:37:10Z</time>
      </trkpt>
      <trkpt lat="48.14226" lon="-3.3083">
        <ele>234.5</ele>
        <time>2024-11-20T07:37:11Z</time>
      </trkpt>
      <trkpt lat="48.14225" lon="-3.30828">
        <ele>234.5</ele>
        <time>2024-11-20T07:37:12Z</time>
      </trkpt>
      <trkpt lat="48.14224" lon="-3.30826">
        <ele>234.6</ele>
        <time>2024-11-20T07:37:13Z</time>
      </trkpt>
      <trkpt lat="48.14224" lon="-3.30825">
        <ele>234.7</ele>
        <time>2024-11-20T07:37:14Z</time>
      </trkpt>
      <trkpt lat="48.14223" lon="-3.30824">
        <ele>234.7</ele>
        <time>2024-11-20T07:37:15Z</time>
      </trkpt>
      <trkpt lat="48.14223" lon="-3.30823">
        <ele>234.8</ele>
        <time>2024-11-20T07:37:16Z</time>
      </trkpt>
      <trkpt lat="48.14222" lon="-3.30822">
        <ele>234.8</ele>
        <time>2024-11-20T07:37:17Z</time>
      </trkpt>
      <trkpt lat="48.14221" lon="-3.30819">
        <ele>234.9</ele>
        <time>2024-11-20T07:37:18Z</time>
      </trkpt>
      <trkpt lat="48.1422" lon="-3.30817">
        <ele>234.9</ele>
        <time>2024-11-20T07:37:19Z</time>
      </trkpt>
      <trkpt lat="48.14219" lon="-3.30814">
        <ele>235</ele>
        <time>2024-11-20T07:37:20Z</time>
      </trkpt>
      <trkpt lat="48.14218" lon="-3.30813">
        <ele>235.1</ele>
        <time>2024-11-20T07:37:21Z</time>
      </trkpt>
      <trkpt lat="48.14217" lon="-3.30811">
        <ele>235.1</ele>
        <time>2024-11-20T07:37:22Z</time>
      </trkpt>
      <trkpt lat="48.14216" lon="-3.30809">
        <ele>235.1</ele>
        <time>2024-11-20T07:37:23Z</time>
      </trkpt>
      <trkpt lat="48.14215" lon="-3.30808">
        <ele>235.1</ele>
        <time>2024-11-20T07:37:24Z</time>
      </trkpt>
      <trkpt lat="48.14215" lon="-3.30806">
        <ele>235.1</ele>
        <time>2024-11-20T07:37:25Z</time>
      </trkpt>
      <trkpt lat="48.14214" lon="-3.30804">
        <ele>235.1</ele>
        <time>2024-11-20T07:37:26Z</time>
      </trkpt>
      <trkpt lat="48.14213" lon="-3.30802">
        <ele>235.1</ele>
        <time>2024-11-20T07:37:27Z</time>
      </trkpt>
      <trkpt lat="48.14212" lon="-3.308">
        <ele>235.1</ele>
        <time>2024-11-20T07:37:28Z</time>
      </trkpt>
      <trkpt lat="48.14211" lon="-3.30798">
        <ele>235.1</ele>
        <time>2024-11-20T07:37:29Z</time>
      </trkpt>
      <trkpt lat="48.1421" lon="-3.30796">
        <ele>235</ele>
        <time>2024-11-20T07:37:30Z</time>
      </trkpt>
      <trkpt lat="48.14209" lon="-3.30794">
        <ele>235</ele>
        <time>2024-11-20T07:37:31Z</time>
      </trkpt>
      <trkpt lat="48.14208" lon="-3.30793">
        <ele>234.9</ele>
        <time>2024-11-20T07:37:32Z</time>
      </trkpt>
      <trkpt lat="48.14207" lon="-3.30792">
        <ele>234.9</ele>
        <time>2024-11-20T07:37:33Z</time>
      </trkpt>
      <trkpt lat="48.14206" lon="-3.3079">
        <ele>234.8</ele>
        <time>2024-11-20T07:37:34Z</time>
      </trkpt>
      <trkpt lat="48.14206" lon="-3.30788">
        <ele>234.8</ele>
        <time>2024-11-20T07:37:35Z</time>
      </trkpt>
      <trkpt lat="48.14205" lon="-3.30787">
        <ele>234.8</ele>
        <time>2024-11-20T07:37:36Z</time>
      </trkpt>
      <trkpt lat="48.14205" lon="-3.30785">
        <ele>234.9</ele>
        <time>2024-11-20T07:37:37Z</time>
      </trkpt>
      <trkpt lat="48.14204" lon="-3.30783">
        <ele>234.9</ele>
        <time>2024-11-20T07:37:38Z</time>
      </trkpt>
      <trkpt lat="48.14204" lon="-3.30781">
        <ele>234.9</ele>
        <time>2024-11-20T07:37:39Z</time>
      </trkpt>
      <trkpt lat="48.14203" lon="-3.30779">
        <ele>234.9</ele>
        <time>2024-11-20T07:37:40Z</time>
      </trkpt>
      <trkpt lat="48.14202" lon="-3.30777">
        <ele>234.8</ele>
        <time>2024-11-20T07:37:41Z</time>
      </trkpt>
      <trkpt lat="48.14201" lon="-3.30776">
        <ele>234.8</ele>
        <time>2024-11-20T07:37:42Z</time>
      </trkpt>
      <trkpt lat="48.14201" lon="-3.30774">
        <ele>234.8</ele>
        <time>2024-11-20T07:37:43Z</time>
      </trkpt>
      <trkpt lat="48.142" lon="-3.30773">
        <ele>234.8</ele>
        <time>2024-11-20T07:37:44Z</time>
      </trkpt>
      <trkpt lat="48.142" lon="-3.30771">
        <ele>234.8</ele>
        <time>2024-11-20T07:37:45Z</time>
      </trkpt>
      <trkpt lat="48.14199" lon="-3.30769">
        <ele>234.8</ele>
        <time>2024-11-20T07:37:46Z</time>
      </trkpt>
      <trkpt lat="48.14198" lon="-3.30767">
        <ele>234.8</ele>
        <time>2024-11-20T07:37:47Z</time>
      </trkpt>
      <trkpt lat="48.14198" lon="-3.30765">
        <ele>234.8</ele>
        <time>2024-11-20T07:37:48Z</time>
      </trkpt>
      <trkpt lat="48.14197" lon="-3.30763">
        <ele>234.8</ele>
        <time>2024-11-20T07:37:49Z</time>
      </trkpt>
      <trkpt lat="48.14197" lon="-3.30761">
        <ele>234.8</ele>
        <time>2024-11-20T07:37:50Z</time>
      </trkpt>
      <trkpt lat="48.14196" lon="-3.3076">
        <ele>234.8</ele>
        <time>2024-11-20T07:37:51Z</time>
      </trkpt>
      <trkpt lat="48.14196" lon="-3.30759">
        <ele>234.8</ele>
        <time>2024-11-20T07:37:52Z</time>
      </trkpt>
      <trkpt lat="48.14195" lon="-3.30758">
        <ele>234.8</ele>
        <time>2024-11-20T07:37:53Z</time>
      </trkpt>
      <trkpt lat="48.14195" lon="-3.30757">
        <ele>234.8</ele>
        <time>2024-11-20T07:37:54Z</time>
      </trkpt>
      <trkpt lat="48.14194" lon="-3.30755">
        <ele>234.8</ele>
        <time>2024-11-20T07:37:55Z</time>
      </trkpt>
      <trkpt lat="48.14194" lon="-3.30753">
        <ele>234.8</ele>
        <time>2024-11-20T07:37:56Z</time>
      </trkpt>
      <trkpt lat="48.14193" lon="-3.30752">
        <ele>234.8</ele>
        <time>2024-11-20T07:37:57Z</time>
      </trkpt>
      <trkpt lat="48.14193" lon="-3.3075">
        <ele>234.9</ele>
        <time>2024-11-20T07:37:58Z</time>
      </trkpt>
      <trkpt lat="48.14192" lon="-3.30749">
        <ele>234.9</ele>
        <time>2024-11-20T07:37:59Z</time>
      </trkpt>
      <trkpt lat="48.14192" lon="-3.30748">
        <ele>234.9</ele>
        <time>2024-11-20T07:38:00Z</time>
      </trkpt>
      <trkpt lat="48.14191" lon="-3.30747">
        <ele>234.9</ele>
        <time>2024-11-20T07:38:01Z</time>
      </trkpt>
      <trkpt lat="48.1419" lon="-3.30745">
        <ele>234.9</ele>
        <time>2024-11-20T07:38:02Z</time>
      </trkpt>
      <trkpt lat="48.1419" lon="-3.30743">
        <ele>234.9</ele>
        <time>2024-11-20T07:38:03Z</time>
      </trkpt>
      <trkpt lat="48.14189" lon="-3.30742">
        <ele>234.9</ele>
        <time>2024-11-20T07:38:04Z</time>
      </trkpt>
      <trkpt lat="48.14189" lon="-3.30742">
        <ele>234.9</ele>
        <time>2024-11-20T07:38:05Z</time>
      </trkpt>
      <trkpt lat="48.14189" lon="-3.3074">
        <ele>234.9</ele>
        <time>2024-11-20T07:38:06Z</time>
      </trkpt>
      <trkpt lat="48.14188" lon="-3.30738">
        <ele>235</ele>
        <time>2024-11-20T07:38:07Z</time>
      </trkpt>
      <trkpt lat="48.14188" lon="-3.30736">
        <ele>235</ele>
        <time>2024-11-20T07:38:08Z</time>
      </trkpt>
      <trkpt lat="48.14187" lon="-3.30735">
        <ele>235</ele>
        <time>2024-11-20T07:38:09Z</time>
      </trkpt>
      <trkpt lat="48.14187" lon="-3.30734">
        <ele>235</ele>
        <time>2024-11-20T07:38:10Z</time>
      </trkpt>
      <trkpt lat="48.14186" lon="-3.30733">
        <ele>235</ele>
        <time>2024-11-20T07:38:11Z</time>
      </trkpt>
      <trkpt lat="48.14185" lon="-3.30731">
        <ele>235</ele>
        <time>2024-11-20T07:38:12Z</time>
      </trkpt>
      <trkpt lat="48.14184" lon="-3.3073">
        <ele>235</ele>
        <time>2024-11-20T07:38:13Z</time>
      </trkpt>
      <trkpt lat="48.14184" lon="-3.30728">
        <ele>235</ele>
        <time>2024-11-20T07:38:14Z</time>
      </trkpt>
      <trkpt lat="48.14183" lon="-3.30726">
        <ele>235</ele>
        <time>2024-11-20T07:38:15Z</time>
      </trkpt>
      <trkpt lat="48.14182" lon="-3.30725">
        <ele>235</ele>
        <time>2024-11-20T07:38:16Z</time>
      </trkpt>
      <trkpt lat="48.14182" lon="-3.30723">
        <ele>235.1</ele>
        <time>2024-11-20T07:38:17Z</time>
      </trkpt>
      <trkpt lat="48.14181" lon="-3.30722">
        <ele>235</ele>
        <time>2024-11-20T07:38:18Z</time>
      </trkpt>
      <trkpt lat="48.14181" lon="-3.3072">
        <ele>235</ele>
        <time>2024-11-20T07:38:19Z</time>
      </trkpt>
      <trkpt lat="48.1418" lon="-3.30719">
        <ele>235</ele>
        <time>2024-11-20T07:38:20Z</time>
      </trkpt>
      <trkpt lat="48.14179" lon="-3.30718">
        <ele>235</ele>
        <time>2024-11-20T07:38:21Z</time>
      </trkpt>
      <trkpt lat="48.14179" lon="-3.30717">
        <ele>235</ele>
        <time>2024-11-20T07:38:22Z</time>
      </trkpt>
      <trkpt lat="48.14178" lon="-3.30715">
        <ele>235</ele>
        <time>2024-11-20T07:38:23Z</time>
      </trkpt>
      <trkpt lat="48.14177" lon="-3.30713">
        <ele>235</ele>
        <time>2024-11-20T07:38:24Z</time>
      </trkpt>
      <trkpt lat="48.14176" lon="-3.30711">
        <ele>234.9</ele>
        <time>2024-11-20T07:38:25Z</time>
      </trkpt>
      <trkpt lat="48.14175" lon="-3.30709">
        <ele>234.9</ele>
        <time>2024-11-20T07:38:26Z</time>
      </trkpt>
      <trkpt lat="48.14174" lon="-3.30708">
        <ele>234.9</ele>
        <time>2024-11-20T07:38:27Z</time>
      </trkpt>
      <trkpt lat="48.14173" lon="-3.30706">
        <ele>234.9</ele>
        <time>2024-11-20T07:38:28Z</time>
      </trkpt>
      <trkpt lat="48.14173" lon="-3.30705">
        <ele>234.9</ele>
        <time>2024-11-20T07:38:29Z</time>
      </trkpt>
      <trkpt lat="48.14172" lon="-3.30702">
        <ele>235</ele>
        <time>2024-11-20T07:38:30Z</time>
      </trkpt>
      <trkpt lat="48.14171" lon="-3.30701">
        <ele>235</ele>
        <time>2024-11-20T07:38:31Z</time>
      </trkpt>
      <trkpt lat="48.14171" lon="-3.30699">
        <ele>235</ele>
        <time>2024-11-20T07:38:32Z</time>
      </trkpt>
      <trkpt lat="48.1417" lon="-3.30697">
        <ele>235</ele>
        <time>2024-11-20T07:38:33Z</time>
      </trkpt>
      <trkpt lat="48.14169" lon="-3.30695">
        <ele>235.1</ele>
        <time>2024-11-20T07:38:34Z</time>
      </trkpt>
      <trkpt lat="48.14168" lon="-3.30693">
        <ele>235.1</ele>
        <time>2024-11-20T07:38:35Z</time>
      </trkpt>
      <trkpt lat="48.14168" lon="-3.30692">
        <ele>235.1</ele>
        <time>2024-11-20T07:38:36Z</time>
      </trkpt>
      <trkpt lat="48.14167" lon="-3.3069">
        <ele>235.2</ele>
        <time>2024-11-20T07:38:37Z</time>
      </trkpt>
      <trkpt lat="48.14167" lon="-3.30688">
        <ele>235.2</ele>
        <time>2024-11-20T07:38:38Z</time>
      </trkpt>
      <trkpt lat="48.14166" lon="-3.30686">
        <ele>235.2</ele>
        <time>2024-11-20T07:38:39Z</time>
      </trkpt>
      <trkpt lat="48.14166" lon="-3.30684">
        <ele>235.2</ele>
        <time>2024-11-20T07:38:40Z</time>
      </trkpt>
      <trkpt lat="48.14165" lon="-3.30683">
        <ele>235.2</ele>
        <time>2024-11-20T07:38:41Z</time>
      </trkpt>
      <trkpt lat="48.14164" lon="-3.30681">
        <ele>235.3</ele>
        <time>2024-11-20T07:38:42Z</time>
      </trkpt>
      <trkpt lat="48.14164" lon="-3.30679">
        <ele>235.3</ele>
        <time>2024-11-20T07:38:43Z</time>
      </trkpt>
      <trkpt lat="48.14163" lon="-3.30677">
        <ele>235.3</ele>
        <time>2024-11-20T07:38:44Z</time>
      </trkpt>
      <trkpt lat="48.14163" lon="-3.30676">
        <ele>235.2</ele>
        <time>2024-11-20T07:38:45Z</time>
      </trkpt>
      <trkpt lat="48.14162" lon="-3.30675">
        <ele>235.2</ele>
        <time>2024-11-20T07:38:46Z</time>
      </trkpt>
      <trkpt lat="48.14161" lon="-3.30674">
        <ele>235.1</ele>
        <time>2024-11-20T07:38:47Z</time>
      </trkpt>
      <trkpt lat="48.1416" lon="-3.30673">
        <ele>235.1</ele>
        <time>2024-11-20T07:38:48Z</time>
      </trkpt>
      <trkpt lat="48.1416" lon="-3.30672">
        <ele>235.1</ele>
        <time>2024-11-20T07:38:49Z</time>
      </trkpt>
      <trkpt lat="48.14159" lon="-3.3067">
        <ele>235</ele>
        <time>2024-11-20T07:38:50Z</time>
      </trkpt>
      <trkpt lat="48.14158" lon="-3.30668">
        <ele>235</ele>
        <time>2024-11-20T07:38:51Z</time>
      </trkpt>
      <trkpt lat="48.14158" lon="-3.30666">
        <ele>235</ele>
        <time>2024-11-20T07:38:52Z</time>
      </trkpt>
      <trkpt lat="48.14157" lon="-3.30666">
        <ele>235</ele>
        <time>2024-11-20T07:38:53Z</time>
      </trkpt>
      <trkpt lat="48.14157" lon="-3.30664">
        <ele>235</ele>
        <time>2024-11-20T07:38:54Z</time>
      </trkpt>
      <trkpt lat="48.14156" lon="-3.30663">
        <ele>234.9</ele>
        <time>2024-11-20T07:38:55Z</time>
      </trkpt>
      <trkpt lat="48.14156" lon="-3.30661">
        <ele>234.9</ele>
        <time>2024-11-20T07:38:56Z</time>
      </trkpt>
      <trkpt lat="48.14155" lon="-3.3066">
        <ele>234.8</ele>
        <time>2024-11-20T07:38:57Z</time>
      </trkpt>
      <trkpt lat="48.14154" lon="-3.30659">
        <ele>234.8</ele>
        <time>2024-11-20T07:38:58Z</time>
      </trkpt>
      <trkpt lat="48.14153" lon="-3.30658">
        <ele>234.7</ele>
        <time>2024-11-20T07:38:59Z</time>
      </trkpt>
      <trkpt lat="48.14152" lon="-3.30656">
        <ele>234.7</ele>
        <time>2024-11-20T07:39:00Z</time>
      </trkpt>
      <trkpt lat="48.14152" lon="-3.30655">
        <ele>234.6</ele>
        <time>2024-11-20T07:39:01Z</time>
      </trkpt>
      <trkpt lat="48.14151" lon="-3.30654">
        <ele>234.6</ele>
        <time>2024-11-20T07:39:02Z</time>
      </trkpt>
      <trkpt lat="48.14151" lon="-3.30653">
        <ele>234.5</ele>
        <time>2024-11-20T07:39:03Z</time>
      </trkpt>
      <trkpt lat="48.1415" lon="-3.30652">
        <ele>234.5</ele>
        <time>2024-11-20T07:39:04Z</time>
      </trkpt>
      <trkpt lat="48.14149" lon="-3.30651">
        <ele>234.4</ele>
        <time>2024-11-20T07:39:05Z</time>
      </trkpt>
      <trkpt lat="48.14147" lon="-3.30649">
        <ele>234.4</ele>
        <time>2024-11-20T07:39:06Z</time>
      </trkpt>
      <trkpt lat="48.14146" lon="-3.30647">
        <ele>234.3</ele>
        <time>2024-11-20T07:39:07Z</time>
      </trkpt>
      <trkpt lat="48.14146" lon="-3.30646">
        <ele>234.3</ele>
        <time>2024-11-20T07:39:08Z</time>
      </trkpt>
      <trkpt lat="48.14145" lon="-3.30645">
        <ele>234.2</ele>
        <time>2024-11-20T07:39:09Z</time>
      </trkpt>
      <trkpt lat="48.14144" lon="-3.30644">
        <ele>234.2</ele>
        <time>2024-11-20T07:39:10Z</time>
      </trkpt>
      <trkpt lat="48.14143" lon="-3.30643">
        <ele>234.1</ele>
        <time>2024-11-20T07:39:11Z</time>
      </trkpt>
      <trkpt lat="48.14142" lon="-3.30642">
        <ele>234.1</ele>
        <time>2024-11-20T07:39:12Z</time>
      </trkpt>
      <trkpt lat="48.14141" lon="-3.3064">
        <ele>234.1</ele>
        <time>2024-11-20T07:39:13Z</time>
      </trkpt>
      <trkpt lat="48.1414" lon="-3.30639">
        <ele>234.1</ele>
        <time>2024-11-20T07:39:14Z</time>
      </trkpt>
      <trkpt lat="48.1414" lon="-3.30637">
        <ele>234</ele>
        <time>2024-11-20T07:39:15Z</time>
      </trkpt>
      <trkpt lat="48.14139" lon="-3.30635">
        <ele>233.9</ele>
        <time>2024-11-20T07:39:16Z</time>
      </trkpt>
      <trkpt lat="48.14138" lon="-3.30634">
        <ele>233.7</ele>
        <time>2024-11-20T07:39:17Z</time>
      </trkpt>
      <trkpt lat="48.14137" lon="-3.30633">
        <ele>233.6</ele>
        <time>2024-11-20T07:39:18Z</time>
      </trkpt>
      <trkpt lat="48.14137" lon="-3.30631">
        <ele>233.5</ele>
        <time>2024-11-20T07:39:19Z</time>
      </trkpt>
      <trkpt lat="48.14136" lon="-3.3063">
        <ele>233.4</ele>
        <time>2024-11-20T07:39:20Z</time>
      </trkpt>
      <trkpt lat="48.14135" lon="-3.30628">
        <ele>233.3</ele>
        <time>2024-11-20T07:39:21Z</time>
      </trkpt>
      <trkpt lat="48.14134" lon="-3.30627">
        <ele>233.2</ele>
        <time>2024-11-20T07:39:22Z</time>
      </trkpt>
      <trkpt lat="48.14134" lon="-3.30626">
        <ele>233.1</ele>
        <time>2024-11-20T07:39:23Z</time>
      </trkpt>
      <trkpt lat="48.14133" lon="-3.30625">
        <ele>233</ele>
        <time>2024-11-20T07:39:24Z</time>
      </trkpt>
      <trkpt lat="48.14132" lon="-3.30624">
        <ele>233</ele>
        <time>2024-11-20T07:39:25Z</time>
      </trkpt>
      <trkpt lat="48.14131" lon="-3.30623">
        <ele>232.9</ele>
        <time>2024-11-20T07:39:26Z</time>
      </trkpt>
      <trkpt lat="48.1413" lon="-3.30621">
        <ele>232.8</ele>
        <time>2024-11-20T07:39:27Z</time>
      </trkpt>
      <trkpt lat="48.14129" lon="-3.3062">
        <ele>232.7</ele>
        <time>2024-11-20T07:39:28Z</time>
      </trkpt>
      <trkpt lat="48.14128" lon="-3.30619">
        <ele>232.7</ele>
        <time>2024-11-20T07:39:29Z</time>
      </trkpt>
      <trkpt lat="48.14127" lon="-3.30618">
        <ele>232.6</ele>
        <time>2024-11-20T07:39:30Z</time>
      </trkpt>
      <trkpt lat="48.14126" lon="-3.30617">
        <ele>232.5</ele>
        <time>2024-11-20T07:39:31Z</time>
      </trkpt>
      <trkpt lat="48.14125" lon="-3.30615">
        <ele>232.5</ele>
        <time>2024-11-20T07:39:32Z</time>
      </trkpt>
      <trkpt lat="48.14124" lon="-3.30614">
        <ele>232.5</ele>
        <time>2024-11-20T07:39:33Z</time>
      </trkpt>
      <trkpt lat="48.14123" lon="-3.30612">
        <ele>232.4</ele>
        <time>2024-11-20T07:39:34Z</time>
      </trkpt>
      <trkpt lat="48.14122" lon="-3.3061">
        <ele>232.4</ele>
        <time>2024-11-20T07:39:35Z</time>
      </trkpt>
      <trkpt lat="48.14121" lon="-3.30609">
        <ele>232.3</ele>
        <time>2024-11-20T07:39:36Z</time>
      </trkpt>
      <trkpt lat="48.14121" lon="-3.30607">
        <ele>232.3</ele>
        <time>2024-11-20T07:39:37Z</time>
      </trkpt>
      <trkpt lat="48.1412" lon="-3.30606">
        <ele>232.3</ele>
        <time>2024-11-20T07:39:38Z</time>
      </trkpt>
      <trkpt lat="48.14119" lon="-3.30604">
        <ele>232.2</ele>
        <time>2024-11-20T07:39:39Z</time>
      </trkpt>
      <trkpt lat="48.14118" lon="-3.30603">
        <ele>232.2</ele>
        <time>2024-11-20T07:39:40Z</time>
      </trkpt>
      <trkpt lat="48.14117" lon="-3.30602">
        <ele>232.1</ele>
        <time>2024-11-20T07:39:41Z</time>
      </trkpt>
      <trkpt lat="48.14117" lon="-3.306">
        <ele>232.1</ele>
        <time>2024-11-20T07:39:42Z</time>
      </trkpt>
      <trkpt lat="48.14116" lon="-3.30599">
        <ele>232.1</ele>
        <time>2024-11-20T07:39:43Z</time>
      </trkpt>
      <trkpt lat="48.14115" lon="-3.30598">
        <ele>232.1</ele>
        <time>2024-11-20T07:39:44Z</time>
      </trkpt>
      <trkpt lat="48.14114" lon="-3.30597">
        <ele>232</ele>
        <time>2024-11-20T07:39:45Z</time>
      </trkpt>
      <trkpt lat="48.14113" lon="-3.30595">
        <ele>232</ele>
        <time>2024-11-20T07:39:46Z</time>
      </trkpt>
      <trkpt lat="48.14112" lon="-3.30594">
        <ele>232</ele>
        <time>2024-11-20T07:39:47Z</time>
      </trkpt>
      <trkpt lat="48.14111" lon="-3.30593">
        <ele>232</ele>
        <time>2024-11-20T07:39:48Z</time>
      </trkpt>
      <trkpt lat="48.1411" lon="-3.30592">
        <ele>231.9</ele>
        <time>2024-11-20T07:39:49Z</time>
      </trkpt>
      <trkpt lat="48.14109" lon="-3.3059">
        <ele>231.9</ele>
        <time>2024-11-20T07:39:50Z</time>
      </trkpt>
      <trkpt lat="48.14108" lon="-3.30589">
        <ele>231.9</ele>
        <time>2024-11-20T07:39:51Z</time>
      </trkpt>
      <trkpt lat="48.14107" lon="-3.30588">
        <ele>231.9</ele>
        <time>2024-11-20T07:39:52Z</time>
      </trkpt>
      <trkpt lat="48.14106" lon="-3.30586">
        <ele>231.9</ele>
        <time>2024-11-20T07:39:53Z</time>
      </trkpt>
      <trkpt lat="48.14105" lon="-3.30585">
        <ele>232</ele>
        <time>2024-11-20T07:39:54Z</time>
      </trkpt>
      <trkpt lat="48.14104" lon="-3.30584">
        <ele>232</ele>
        <time>2024-11-20T07:39:55Z</time>
      </trkpt>
      <trkpt lat="48.14103" lon="-3.30582">
        <ele>232</ele>
        <time>2024-11-20T07:39:56Z</time>
      </trkpt>
      <trkpt lat="48.14102" lon="-3.30581">
        <ele>232.1</ele>
        <time>2024-11-20T07:39:57Z</time>
      </trkpt>
      <trkpt lat="48.14101" lon="-3.3058">
        <ele>232.1</ele>
        <time>2024-11-20T07:39:58Z</time>
      </trkpt>
      <trkpt lat="48.141" lon="-3.30578">
        <ele>232.1</ele>
        <time>2024-11-20T07:39:59Z</time>
      </trkpt>
      <trkpt lat="48.14099" lon="-3.30577">
        <ele>232.2</ele>
        <time>2024-11-20T07:40:00Z</time>
      </trkpt>
      <trkpt lat="48.14098" lon="-3.30576">
        <ele>232.3</ele>
        <time>2024-11-20T07:40:01Z</time>
      </trkpt>
      <trkpt lat="48.14097" lon="-3.30575">
        <ele>232.3</ele>
        <time>2024-11-20T07:40:02Z</time>
      </trkpt>
      <trkpt lat="48.14096" lon="-3.30573">
        <ele>232.4</ele>
        <time>2024-11-20T07:40:03Z</time>
      </trkpt>
      <trkpt lat="48.14094" lon="-3.30572">
        <ele>232.5</ele>
        <time>2024-11-20T07:40:04Z</time>
      </trkpt>
      <trkpt lat="48.14093" lon="-3.3057">
        <ele>232.6</ele>
        <time>2024-11-20T07:40:05Z</time>
      </trkpt>
      <trkpt lat="48.14092" lon="-3.30569">
        <ele>232.7</ele>
        <time>2024-11-20T07:40:06Z</time>
      </trkpt>
      <trkpt lat="48.14091" lon="-3.30568">
        <ele>232.8</ele>
        <time>2024-11-20T07:40:07Z</time>
      </trkpt>
      <trkpt lat="48.1409" lon="-3.30567">
        <ele>232.9</ele>
        <time>2024-11-20T07:40:08Z</time>
      </trkpt>
      <trkpt lat="48.14089" lon="-3.30567">
        <ele>232.9</ele>
        <time>2024-11-20T07:40:09Z</time>
      </trkpt>
      <trkpt lat="48.14088" lon="-3.30566">
        <ele>233</ele>
        <time>2024-11-20T07:40:10Z</time>
      </trkpt>
      <trkpt lat="48.14087" lon="-3.30566">
        <ele>233.1</ele>
        <time>2024-11-20T07:40:11Z</time>
      </trkpt>
      <trkpt lat="48.14086" lon="-3.30565">
        <ele>233.2</ele>
        <time>2024-11-20T07:40:12Z</time>
      </trkpt>
      <trkpt lat="48.14085" lon="-3.30564">
        <ele>233.3</ele>
        <time>2024-11-20T07:40:13Z</time>
      </trkpt>
      <trkpt lat="48.14084" lon="-3.30564">
        <ele>233.4</ele>
        <time>2024-11-20T07:40:14Z</time>
      </trkpt>
      <trkpt lat="48.14083" lon="-3.30563">
        <ele>233.5</ele>
        <time>2024-11-20T07:40:15Z</time>
      </trkpt>
      <trkpt lat="48.14082" lon="-3.30563">
        <ele>233.5</ele>
        <time>2024-11-20T07:40:16Z</time>
      </trkpt>
      <trkpt lat="48.14081" lon="-3.30563">
        <ele>233.6</ele>
        <time>2024-11-20T07:40:17Z</time>
      </trkpt>
      <trkpt lat="48.14079" lon="-3.30563">
        <ele>233.6</ele>
        <time>2024-11-20T07:40:18Z</time>
      </trkpt>
      <trkpt lat="48.14078" lon="-3.30562">
        <ele>233.7</ele>
        <time>2024-11-20T07:40:19Z</time>
      </trkpt>
      <trkpt lat="48.14076" lon="-3.30562">
        <ele>233.8</ele>
        <time>2024-11-20T07:40:20Z</time>
      </trkpt>
      <trkpt lat="48.14075" lon="-3.30562">
        <ele>233.9</ele>
        <time>2024-11-20T07:40:21Z</time>
      </trkpt>
      <trkpt lat="48.14073" lon="-3.30562">
        <ele>233.9</ele>
        <time>2024-11-20T07:40:22Z</time>
      </trkpt>
      <trkpt lat="48.14072" lon="-3.30562">
        <ele>234</ele>
        <time>2024-11-20T07:40:23Z</time>
      </trkpt>
      <trkpt lat="48.14071" lon="-3.30562">
        <ele>234</ele>
        <time>2024-11-20T07:40:24Z</time>
      </trkpt>
      <trkpt lat="48.1407" lon="-3.30562">
        <ele>234</ele>
        <time>2024-11-20T07:40:25Z</time>
      </trkpt>
      <trkpt lat="48.14069" lon="-3.30562">
        <ele>234</ele>
        <time>2024-11-20T07:40:26Z</time>
      </trkpt>
      <trkpt lat="48.14068" lon="-3.30562">
        <ele>234.1</ele>
        <time>2024-11-20T07:40:27Z</time>
      </trkpt>
      <trkpt lat="48.14067" lon="-3.30562">
        <ele>234.1</ele>
        <time>2024-11-20T07:40:28Z</time>
      </trkpt>
      <trkpt lat="48.14066" lon="-3.30563">
        <ele>234.1</ele>
        <time>2024-11-20T07:40:29Z</time>
      </trkpt>
      <trkpt lat="48.14065" lon="-3.30563">
        <ele>234.1</ele>
        <time>2024-11-20T07:40:30Z</time>
      </trkpt>
      <trkpt lat="48.14064" lon="-3.30563">
        <ele>234.2</ele>
        <time>2024-11-20T07:40:31Z</time>
      </trkpt>
      <trkpt lat="48.14063" lon="-3.30563">
        <ele>234.2</ele>
        <time>2024-11-20T07:40:32Z</time>
      </trkpt>
      <trkpt lat="48.14062" lon="-3.30564">
        <ele>234.2</ele>
        <time>2024-11-20T07:40:33Z</time>
      </trkpt>
      <trkpt lat="48.14062" lon="-3.30565">
        <ele>234.1</ele>
        <time>2024-11-20T07:40:34Z</time>
      </trkpt>
      <trkpt lat="48.14061" lon="-3.30566">
        <ele>234.1</ele>
        <time>2024-11-20T07:40:35Z</time>
      </trkpt>
      <trkpt lat="48.14061" lon="-3.30566">
        <ele>234</ele>
        <time>2024-11-20T07:40:36Z</time>
      </trkpt>
      <trkpt lat="48.1406" lon="-3.30567">
        <ele>234</ele>
        <time>2024-11-20T07:40:37Z</time>
      </trkpt>
      <trkpt lat="48.14059" lon="-3.30568">
        <ele>234</ele>
        <time>2024-11-20T07:40:38Z</time>
      </trkpt>
      <trkpt lat="48.14058" lon="-3.30569">
        <ele>233.9</ele>
        <time>2024-11-20T07:40:39Z</time>
      </trkpt>
      <trkpt lat="48.14057" lon="-3.3057">
        <ele>233.9</ele>
        <time>2024-11-20T07:40:40Z</time>
      </trkpt>
      <trkpt lat="48.14057" lon="-3.3057">
        <ele>233.9</ele>
        <time>2024-11-20T07:40:41Z</time>
      </trkpt>
      <trkpt lat="48.14056" lon="-3.30571">
        <ele>233.9</ele>
        <time>2024-11-20T07:40:42Z</time>
      </trkpt>
      <trkpt lat="48.14055" lon="-3.30572">
        <ele>233.9</ele>
        <time>2024-11-20T07:40:43Z</time>
      </trkpt>
      <trkpt lat="48.14054" lon="-3.30573">
        <ele>233.8</ele>
        <time>2024-11-20T07:40:44Z</time>
      </trkpt>
      <trkpt lat="48.14053" lon="-3.30574">
        <ele>233.7</ele>
        <time>2024-11-20T07:40:45Z</time>
      </trkpt>
      <trkpt lat="48.14051" lon="-3.30576">
        <ele>233.6</ele>
        <time>2024-11-20T07:40:46Z</time>
      </trkpt>
      <trkpt lat="48.1405" lon="-3.30576">
        <ele>233.6</ele>
        <time>2024-11-20T07:40:47Z</time>
      </trkpt>
      <trkpt lat="48.1405" lon="-3.30577">
        <ele>233.5</ele>
        <time>2024-11-20T07:40:48Z</time>
      </trkpt>
      <trkpt lat="48.14049" lon="-3.30578">
        <ele>233.4</ele>
        <time>2024-11-20T07:40:49Z</time>
      </trkpt>
      <trkpt lat="48.14048" lon="-3.30579">
        <ele>233.4</ele>
        <time>2024-11-20T07:40:50Z</time>
      </trkpt>
      <trkpt lat="48.14048" lon="-3.3058">
        <ele>233.3</ele>
        <time>2024-11-20T07:40:51Z</time>
      </trkpt>
      <trkpt lat="48.14047" lon="-3.30581">
        <ele>233.2</ele>
        <time>2024-11-20T07:40:52Z</time>
      </trkpt>
      <trkpt lat="48.14045" lon="-3.30582">
        <ele>233.1</ele>
        <time>2024-11-20T07:40:53Z</time>
      </trkpt>
      <trkpt lat="48.14044" lon="-3.30583">
        <ele>233</ele>
        <time>2024-11-20T07:40:54Z</time>
      </trkpt>
      <trkpt lat="48.14043" lon="-3.30584">
        <ele>232.9</ele>
        <time>2024-11-20T07:40:55Z</time>
      </trkpt>
      <trkpt lat="48.14043" lon="-3.30585">
        <ele>232.8</ele>
        <time>2024-11-20T07:40:56Z</time>
      </trkpt>
      <trkpt lat="48.14042" lon="-3.30585">
        <ele>232.8</ele>
        <time>2024-11-20T07:40:57Z</time>
      </trkpt>
      <trkpt lat="48.14041" lon="-3.30586">
        <ele>232.7</ele>
        <time>2024-11-20T07:40:58Z</time>
      </trkpt>
      <trkpt lat="48.1404" lon="-3.30587">
        <ele>232.6</ele>
        <time>2024-11-20T07:40:59Z</time>
      </trkpt>
      <trkpt lat="48.14038" lon="-3.30588">
        <ele>232.5</ele>
        <time>2024-11-20T07:41:00Z</time>
      </trkpt>
      <trkpt lat="48.14038" lon="-3.30589">
        <ele>232.3</ele>
        <time>2024-11-20T07:41:01Z</time>
      </trkpt>
      <trkpt lat="48.14036" lon="-3.3059">
        <ele>232.2</ele>
        <time>2024-11-20T07:41:02Z</time>
      </trkpt>
      <trkpt lat="48.14035" lon="-3.30591">
        <ele>232.1</ele>
        <time>2024-11-20T07:41:03Z</time>
      </trkpt>
      <trkpt lat="48.14033" lon="-3.30591">
        <ele>232.1</ele>
        <time>2024-11-20T07:41:04Z</time>
      </trkpt>
      <trkpt lat="48.14032" lon="-3.30592">
        <ele>232</ele>
        <time>2024-11-20T07:41:05Z</time>
      </trkpt>
      <trkpt lat="48.14031" lon="-3.30592">
        <ele>232</ele>
        <time>2024-11-20T07:41:06Z</time>
      </trkpt>
      <trkpt lat="48.1403" lon="-3.30592">
        <ele>232</ele>
        <time>2024-11-20T07:41:07Z</time>
      </trkpt>
      <trkpt lat="48.14029" lon="-3.30592">
        <ele>232.1</ele>
        <time>2024-11-20T07:41:08Z</time>
      </trkpt>
      <trkpt lat="48.14028" lon="-3.30592">
        <ele>232.1</ele>
        <time>2024-11-20T07:41:09Z</time>
      </trkpt>
      <trkpt lat="48.14026" lon="-3.30592">
        <ele>232</ele>
        <time>2024-11-20T07:41:10Z</time>
      </trkpt>
      <trkpt lat="48.14024" lon="-3.30592">
        <ele>231.9</ele>
        <time>2024-11-20T07:41:11Z</time>
      </trkpt>
      <trkpt lat="48.14023" lon="-3.30592">
        <ele>231.7</ele>
        <time>2024-11-20T07:41:12Z</time>
      </trkpt>
      <trkpt lat="48.14021" lon="-3.30592">
        <ele>231.6</ele>
        <time>2024-11-20T07:41:13Z</time>
      </trkpt>
      <trkpt lat="48.14019" lon="-3.30592">
        <ele>231.5</ele>
        <time>2024-11-20T07:41:14Z</time>
      </trkpt>
      <trkpt lat="48.14017" lon="-3.30592">
        <ele>231.4</ele>
        <time>2024-11-20T07:41:15Z</time>
      </trkpt>
      <trkpt lat="48.14016" lon="-3.30591">
        <ele>231.4</ele>
        <time>2024-11-20T07:41:16Z</time>
      </trkpt>
      <trkpt lat="48.14015" lon="-3.30591">
        <ele>231.4</ele>
        <time>2024-11-20T07:41:17Z</time>
      </trkpt>
      <trkpt lat="48.14014" lon="-3.30591">
        <ele>231.3</ele>
        <time>2024-11-20T07:41:18Z</time>
      </trkpt>
      <trkpt lat="48.14012" lon="-3.30591">
        <ele>231.2</ele>
        <time>2024-11-20T07:41:19Z</time>
      </trkpt>
      <trkpt lat="48.14011" lon="-3.3059">
        <ele>231.2</ele>
        <time>2024-11-20T07:41:20Z</time>
      </trkpt>
      <trkpt lat="48.1401" lon="-3.3059">
        <ele>231.1</ele>
        <time>2024-11-20T07:41:21Z</time>
      </trkpt>
      <trkpt lat="48.14009" lon="-3.3059">
        <ele>231.1</ele>
        <time>2024-11-20T07:41:22Z</time>
      </trkpt>
      <trkpt lat="48.14008" lon="-3.3059">
        <ele>231.1</ele>
        <time>2024-11-20T07:41:23Z</time>
      </trkpt>
      <trkpt lat="48.14007" lon="-3.30589">
        <ele>231.1</ele>
        <time>2024-11-20T07:41:24Z</time>
      </trkpt>
      <trkpt lat="48.14006" lon="-3.30589">
        <ele>231</ele>
        <time>2024-11-20T07:41:25Z</time>
      </trkpt>
      <trkpt lat="48.14005" lon="-3.30588">
        <ele>231</ele>
        <time>2024-11-20T07:41:26Z</time>
      </trkpt>
      <trkpt lat="48.14004" lon="-3.30587">
        <ele>231</ele>
        <time>2024-11-20T07:41:27Z</time>
      </trkpt>
      <trkpt lat="48.14003" lon="-3.30586">
        <ele>231</ele>
        <time>2024-11-20T07:41:28Z</time>
      </trkpt>
      <trkpt lat="48.14003" lon="-3.30586">
        <ele>231</ele>
        <time>2024-11-20T07:41:29Z</time>
      </trkpt>
      <trkpt lat="48.14002" lon="-3.30585">
        <ele>231</ele>
        <time>2024-11-20T07:41:30Z</time>
      </trkpt>
      <trkpt lat="48.14001" lon="-3.30585">
        <ele>231</ele>
        <time>2024-11-20T07:41:31Z</time>
      </trkpt>
      <trkpt lat="48.14" lon="-3.30584">
        <ele>231</ele>
        <time>2024-11-20T07:41:32Z</time>
      </trkpt>
      <trkpt lat="48.14" lon="-3.30583">
        <ele>231.1</ele>
        <time>2024-11-20T07:41:33Z</time>
      </trkpt>
      <trkpt lat="48.13999" lon="-3.30581">
        <ele>231.2</ele>
        <time>2024-11-20T07:41:34Z</time>
      </trkpt>
      <trkpt lat="48.13998" lon="-3.30581">
        <ele>231.2</ele>
        <time>2024-11-20T07:41:35Z</time>
      </trkpt>
      <trkpt lat="48.13997" lon="-3.3058">
        <ele>231.3</ele>
        <time>2024-11-20T07:41:36Z</time>
      </trkpt>
      <trkpt lat="48.13996" lon="-3.30579">
        <ele>231.3</ele>
        <time>2024-11-20T07:41:37Z</time>
      </trkpt>
      <trkpt lat="48.13995" lon="-3.30578">
        <ele>231.4</ele>
        <time>2024-11-20T07:41:38Z</time>
      </trkpt>
      <trkpt lat="48.13994" lon="-3.30577">
        <ele>231.5</ele>
        <time>2024-11-20T07:41:39Z</time>
      </trkpt>
      <trkpt lat="48.13993" lon="-3.30575">
        <ele>231.6</ele>
        <time>2024-11-20T07:41:40Z</time>
      </trkpt>
      <trkpt lat="48.13992" lon="-3.30574">
        <ele>231.7</ele>
        <time>2024-11-20T07:41:41Z</time>
      </trkpt>
      <trkpt lat="48.13992" lon="-3.30573">
        <ele>231.9</ele>
        <time>2024-11-20T07:41:42Z</time>
      </trkpt>
      <trkpt lat="48.13991" lon="-3.30571">
        <ele>232.1</ele>
        <time>2024-11-20T07:41:43Z</time>
      </trkpt>
      <trkpt lat="48.1399" lon="-3.30569">
        <ele>232.3</ele>
        <time>2024-11-20T07:41:44Z</time>
      </trkpt>
      <trkpt lat="48.13989" lon="-3.30568">
        <ele>232.4</ele>
        <time>2024-11-20T07:41:45Z</time>
      </trkpt>
      <trkpt lat="48.13988" lon="-3.30567">
        <ele>232.5</ele>
        <time>2024-11-20T07:41:46Z</time>
      </trkpt>
      <trkpt lat="48.13987" lon="-3.30566">
        <ele>232.6</ele>
        <time>2024-11-20T07:41:47Z</time>
      </trkpt>
      <trkpt lat="48.13987" lon="-3.30565">
        <ele>232.6</ele>
        <time>2024-11-20T07:41:48Z</time>
      </trkpt>
      <trkpt lat="48.13986" lon="-3.30564">
        <ele>232.7</ele>
        <time>2024-11-20T07:41:49Z</time>
      </trkpt>
      <trkpt lat="48.13985" lon="-3.30563">
        <ele>232.8</ele>
        <time>2024-11-20T07:41:50Z</time>
      </trkpt>
      <trkpt lat="48.13984" lon="-3.30562">
        <ele>232.9</ele>
        <time>2024-11-20T07:41:51Z</time>
      </trkpt>
      <trkpt lat="48.13984" lon="-3.30561">
        <ele>233</ele>
        <time>2024-11-20T07:41:52Z</time>
      </trkpt>
      <trkpt lat="48.13984" lon="-3.3056">
        <ele>233.2</ele>
        <time>2024-11-20T07:41:53Z</time>
      </trkpt>
      <trkpt lat="48.13984" lon="-3.30559">
        <ele>233.3</ele>
        <time>2024-11-20T07:41:54Z</time>
      </trkpt>
      <trkpt lat="48.13983" lon="-3.30558">
        <ele>233.5</ele>
        <time>2024-11-20T07:41:55Z</time>
      </trkpt>
      <trkpt lat="48.13983" lon="-3.30556">
        <ele>233.7</ele>
        <time>2024-11-20T07:41:56Z</time>
      </trkpt>
      <trkpt lat="48.13982" lon="-3.30555">
        <ele>233.8</ele>
        <time>2024-11-20T07:41:57Z</time>
      </trkpt>
      <trkpt lat="48.13981" lon="-3.30554">
        <ele>233.9</ele>
        <time>2024-11-20T07:41:58Z</time>
      </trkpt>
      <trkpt lat="48.13981" lon="-3.30552">
        <ele>234</ele>
        <time>2024-11-20T07:41:59Z</time>
      </trkpt>
      <trkpt lat="48.1398" lon="-3.30551">
        <ele>234.1</ele>
        <time>2024-11-20T07:42:00Z</time>
      </trkpt>
      <trkpt lat="48.13979" lon="-3.30549">
        <ele>234.3</ele>
        <time>2024-11-20T07:42:01Z</time>
      </trkpt>
      <trkpt lat="48.13978" lon="-3.30547">
        <ele>234.4</ele>
        <time>2024-11-20T07:42:02Z</time>
      </trkpt>
      <trkpt lat="48.13978" lon="-3.30546">
        <ele>234.5</ele>
        <time>2024-11-20T07:42:03Z</time>
      </trkpt>
      <trkpt lat="48.13977" lon="-3.30545">
        <ele>234.6</ele>
        <time>2024-11-20T07:42:04Z</time>
      </trkpt>
      <trkpt lat="48.13976" lon="-3.30544">
        <ele>234.6</ele>
        <time>2024-11-20T07:42:05Z</time>
      </trkpt>
      <trkpt lat="48.13975" lon="-3.30543">
        <ele>234.6</ele>
        <time>2024-11-20T07:42:06Z</time>
      </trkpt>
      <trkpt lat="48.13974" lon="-3.30543">
        <ele>234.6</ele>
        <time>2024-11-20T07:42:07Z</time>
      </trkpt>
      <trkpt lat="48.13973" lon="-3.30541">
        <ele>234.6</ele>
        <time>2024-11-20T07:42:08Z</time>
      </trkpt>
      <trkpt lat="48.13973" lon="-3.3054">
        <ele>234.7</ele>
        <time>2024-11-20T07:42:09Z</time>
      </trkpt>
      <trkpt lat="48.13973" lon="-3.30539">
        <ele>234.8</ele>
        <time>2024-11-20T07:42:10Z</time>
      </trkpt>
      <trkpt lat="48.13972" lon="-3.30538">
        <ele>234.9</ele>
        <time>2024-11-20T07:42:11Z</time>
      </trkpt>
      <trkpt lat="48.13972" lon="-3.30537">
        <ele>235</ele>
        <time>2024-11-20T07:42:12Z</time>
      </trkpt>
      <trkpt lat="48.13972" lon="-3.30536">
        <ele>235</ele>
        <time>2024-11-20T07:42:13Z</time>
      </trkpt>
      <trkpt lat="48.13971" lon="-3.30535">
        <ele>235.1</ele>
        <time>2024-11-20T07:42:14Z</time>
      </trkpt>
      <trkpt lat="48.13971" lon="-3.30534">
        <ele>235.2</ele>
        <time>2024-11-20T07:42:15Z</time>
      </trkpt>
      <trkpt lat="48.1397" lon="-3.30531">
        <ele>235.3</ele>
        <time>2024-11-20T07:42:17Z</time>
      </trkpt>
      <trkpt lat="48.13969" lon="-3.3053">
        <ele>235.4</ele>
        <time>2024-11-20T07:42:18Z</time>
      </trkpt>
      <trkpt lat="48.13969" lon="-3.30528">
        <ele>235.5</ele>
        <time>2024-11-20T07:42:19Z</time>
      </trkpt>
      <trkpt lat="48.13968" lon="-3.30527">
        <ele>235.6</ele>
        <time>2024-11-20T07:42:20Z</time>
      </trkpt>
      <trkpt lat="48.13968" lon="-3.30525">
        <ele>235.7</ele>
        <time>2024-11-20T07:42:21Z</time>
      </trkpt>
      <trkpt lat="48.13968" lon="-3.30523">
        <ele>235.8</ele>
        <time>2024-11-20T07:42:22Z</time>
      </trkpt>
      <trkpt lat="48.13967" lon="-3.30523">
        <ele>235.8</ele>
        <time>2024-11-20T07:42:23Z</time>
      </trkpt>
      <trkpt lat="48.13967" lon="-3.30521">
        <ele>235.8</ele>
        <time>2024-11-20T07:42:24Z</time>
      </trkpt>
      <trkpt lat="48.13966" lon="-3.3052">
        <ele>235.9</ele>
        <time>2024-11-20T07:42:25Z</time>
      </trkpt>
      <trkpt lat="48.13965" lon="-3.30519">
        <ele>235.9</ele>
        <time>2024-11-20T07:42:26Z</time>
      </trkpt>
      <trkpt lat="48.13965" lon="-3.30517">
        <ele>236</ele>
        <time>2024-11-20T07:42:27Z</time>
      </trkpt>
      <trkpt lat="48.13964" lon="-3.30516">
        <ele>236</ele>
        <time>2024-11-20T07:42:28Z</time>
      </trkpt>
      <trkpt lat="48.13964" lon="-3.30515">
        <ele>236</ele>
        <time>2024-11-20T07:42:29Z</time>
      </trkpt>
      <trkpt lat="48.13963" lon="-3.30514">
        <ele>235.9</ele>
        <time>2024-11-20T07:42:30Z</time>
      </trkpt>
      <trkpt lat="48.13962" lon="-3.30513">
        <ele>235.8</ele>
        <time>2024-11-20T07:42:31Z</time>
      </trkpt>
      <trkpt lat="48.13961" lon="-3.30512">
        <ele>235.8</ele>
        <time>2024-11-20T07:42:32Z</time>
      </trkpt>
      <trkpt lat="48.1396" lon="-3.30511">
        <ele>235.8</ele>
        <time>2024-11-20T07:42:33Z</time>
      </trkpt>
      <trkpt lat="48.1396" lon="-3.3051">
        <ele>235.8</ele>
        <time>2024-11-20T07:42:34Z</time>
      </trkpt>
      <trkpt lat="48.13959" lon="-3.30509">
        <ele>235.9</ele>
        <time>2024-11-20T07:42:35Z</time>
      </trkpt>
      <trkpt lat="48.13959" lon="-3.30508">
        <ele>235.9</ele>
        <time>2024-11-20T07:42:36Z</time>
      </trkpt>
      <trkpt lat="48.13959" lon="-3.30506">
        <ele>236</ele>
        <time>2024-11-20T07:42:37Z</time>
      </trkpt>
      <trkpt lat="48.13958" lon="-3.30504">
        <ele>236.1</ele>
        <time>2024-11-20T07:42:38Z</time>
      </trkpt>
      <trkpt lat="48.13958" lon="-3.30503">
        <ele>236.2</ele>
        <time>2024-11-20T07:42:39Z</time>
      </trkpt>
      <trkpt lat="48.13958" lon="-3.30501">
        <ele>236.3</ele>
        <time>2024-11-20T07:42:40Z</time>
      </trkpt>
      <trkpt lat="48.13957" lon="-3.30499">
        <ele>236.3</ele>
        <time>2024-11-20T07:42:41Z</time>
      </trkpt>
      <trkpt lat="48.13957" lon="-3.30498">
        <ele>236.3</ele>
        <time>2024-11-20T07:42:42Z</time>
      </trkpt>
      <trkpt lat="48.13956" lon="-3.30496">
        <ele>236.3</ele>
        <time>2024-11-20T07:42:43Z</time>
      </trkpt>
      <trkpt lat="48.13956" lon="-3.30494">
        <ele>236.3</ele>
        <time>2024-11-20T07:42:44Z</time>
      </trkpt>
      <trkpt lat="48.13955" lon="-3.30492">
        <ele>236.2</ele>
        <time>2024-11-20T07:42:45Z</time>
      </trkpt>
      <trkpt lat="48.13955" lon="-3.3049">
        <ele>236.2</ele>
        <time>2024-11-20T07:42:46Z</time>
      </trkpt>
      <trkpt lat="48.13954" lon="-3.30488">
        <ele>236.1</ele>
        <time>2024-11-20T07:42:47Z</time>
      </trkpt>
      <trkpt lat="48.13953" lon="-3.30487">
        <ele>236.1</ele>
        <time>2024-11-20T07:42:48Z</time>
      </trkpt>
      <trkpt lat="48.13953" lon="-3.30486">
        <ele>236</ele>
        <time>2024-11-20T07:42:49Z</time>
      </trkpt>
      <trkpt lat="48.13952" lon="-3.30484">
        <ele>235.9</ele>
        <time>2024-11-20T07:42:50Z</time>
      </trkpt>
      <trkpt lat="48.13952" lon="-3.30483">
        <ele>235.9</ele>
        <time>2024-11-20T07:42:51Z</time>
      </trkpt>
      <trkpt lat="48.13951" lon="-3.30482">
        <ele>235.9</ele>
        <time>2024-11-20T07:42:52Z</time>
      </trkpt>
      <trkpt lat="48.13951" lon="-3.30482">
        <ele>235.8</ele>
        <time>2024-11-20T07:42:53Z</time>
      </trkpt>
      <trkpt lat="48.13951" lon="-3.30483">
        <ele>235.8</ele>
        <time>2024-11-20T07:42:54Z</time>
      </trkpt>
      <trkpt lat="48.13951" lon="-3.30483">
        <ele>235.8</ele>
        <time>2024-11-20T07:42:55Z</time>
      </trkpt>
      <trkpt lat="48.13951" lon="-3.30483">
        <ele>235.7</ele>
        <time>2024-11-20T07:42:56Z</time>
      </trkpt>
      <trkpt lat="48.13951" lon="-3.30483">
        <ele>235.7</ele>
        <time>2024-11-20T07:42:57Z</time>
      </trkpt>
      <trkpt lat="48.13951" lon="-3.30483">
        <ele>235.7</ele>
        <time>2024-11-20T07:42:58Z</time>
      </trkpt>
      <trkpt lat="48.1395" lon="-3.30483">
        <ele>235.7</ele>
        <time>2024-11-20T07:42:59Z</time>
      </trkpt>
      <trkpt lat="48.1395" lon="-3.30483">
        <ele>235.6</ele>
        <time>2024-11-20T07:43:00Z</time>
      </trkpt>
      <trkpt lat="48.1395" lon="-3.30483">
        <ele>235.6</ele>
        <time>2024-11-20T07:43:01Z</time>
      </trkpt>
      <trkpt lat="48.1395" lon="-3.30483">
        <ele>235.6</ele>
        <time>2024-11-20T07:43:02Z</time>
      </trkpt>
      <trkpt lat="48.1395" lon="-3.30483">
        <ele>235.6</ele>
        <time>2024-11-20T07:43:03Z</time>
      </trkpt>
      <trkpt lat="48.1395" lon="-3.30483">
        <ele>235.6</ele>
        <time>2024-11-20T07:43:04Z</time>
      </trkpt>
      <trkpt lat="48.1395" lon="-3.30483">
        <ele>235.6</ele>
        <time>2024-11-20T07:43:05Z</time>
      </trkpt>
      <trkpt lat="48.1395" lon="-3.30483">
        <ele>235.6</ele>
        <time>2024-11-20T07:43:06Z</time>
      </trkpt>
      <trkpt lat="48.1395" lon="-3.30482">
        <ele>235.6</ele>
        <time>2024-11-20T07:43:07Z</time>
      </trkpt>
      <trkpt lat="48.13949" lon="-3.30481">
        <ele>235.6</ele>
        <time>2024-11-20T07:43:08Z</time>
      </trkpt>
      <trkpt lat="48.13949" lon="-3.3048">
        <ele>235.6</ele>
        <time>2024-11-20T07:43:09Z</time>
      </trkpt>
      <trkpt lat="48.1395" lon="-3.3048">
        <ele>235.6</ele>
        <time>2024-11-20T07:43:10Z</time>
      </trkpt>
      <trkpt lat="48.1395" lon="-3.30479">
        <ele>235.7</ele>
        <time>2024-11-20T07:43:11Z</time>
      </trkpt>
      <trkpt lat="48.13949" lon="-3.30476">
        <ele>235.8</ele>
        <time>2024-11-20T07:43:13Z</time>
      </trkpt>
      <trkpt lat="48.13949" lon="-3.30474">
        <ele>235.8</ele>
        <time>2024-11-20T07:43:14Z</time>
      </trkpt>
      <trkpt lat="48.13949" lon="-3.30473">
        <ele>235.8</ele>
        <time>2024-11-20T07:43:15Z</time>
      </trkpt>
      <trkpt lat="48.13949" lon="-3.30471">
        <ele>235.8</ele>
        <time>2024-11-20T07:43:16Z</time>
      </trkpt>
      <trkpt lat="48.13949" lon="-3.30469">
        <ele>235.8</ele>
        <time>2024-11-20T07:43:17Z</time>
      </trkpt>
      <trkpt lat="48.13948" lon="-3.30468">
        <ele>235.8</ele>
        <time>2024-11-20T07:43:18Z</time>
      </trkpt>
      <trkpt lat="48.13948" lon="-3.30466">
        <ele>235.9</ele>
        <time>2024-11-20T07:43:19Z</time>
      </trkpt>
      <trkpt lat="48.13948" lon="-3.30465">
        <ele>235.9</ele>
        <time>2024-11-20T07:43:20Z</time>
      </trkpt>
      <trkpt lat="48.13948" lon="-3.30464">
        <ele>235.9</ele>
        <time>2024-11-20T07:43:21Z</time>
      </trkpt>
      <trkpt lat="48.13948" lon="-3.30462">
        <ele>235.9</ele>
        <time>2024-11-20T07:43:22Z</time>
      </trkpt>
      <trkpt lat="48.13948" lon="-3.3046">
        <ele>236.1</ele>
        <time>2024-11-20T07:43:23Z</time>
      </trkpt>
      <trkpt lat="48.13949" lon="-3.30459">
        <ele>236.2</ele>
        <time>2024-11-20T07:43:24Z</time>
      </trkpt>
      <trkpt lat="48.1395" lon="-3.30458">
        <ele>236.3</ele>
        <time>2024-11-20T07:43:25Z</time>
      </trkpt>
      <trkpt lat="48.1395" lon="-3.30456">
        <ele>236.5</ele>
        <time>2024-11-20T07:43:26Z</time>
      </trkpt>
      <trkpt lat="48.1395" lon="-3.30454">
        <ele>236.5</ele>
        <time>2024-11-20T07:43:27Z</time>
      </trkpt>
      <trkpt lat="48.1395" lon="-3.30452">
        <ele>236.5</ele>
        <time>2024-11-20T07:43:28Z</time>
      </trkpt>
      <trkpt lat="48.13949" lon="-3.30451">
        <ele>236.5</ele>
        <time>2024-11-20T07:43:29Z</time>
      </trkpt>
      <trkpt lat="48.13949" lon="-3.3045">
        <ele>236.5</ele>
        <time>2024-11-20T07:43:30Z</time>
      </trkpt>
      <trkpt lat="48.13949" lon="-3.30448">
        <ele>236.5</ele>
        <time>2024-11-20T07:43:31Z</time>
      </trkpt>
      <trkpt lat="48.13949" lon="-3.30446">
        <ele>236.6</ele>
        <time>2024-11-20T07:43:32Z</time>
      </trkpt>
      <trkpt lat="48.13949" lon="-3.30445">
        <ele>236.6</ele>
        <time>2024-11-20T07:43:33Z</time>
      </trkpt>
      <trkpt lat="48.13949" lon="-3.30443">
        <ele>236.7</ele>
        <time>2024-11-20T07:43:34Z</time>
      </trkpt>
      <trkpt lat="48.13949" lon="-3.30442">
        <ele>236.7</ele>
        <time>2024-11-20T07:43:35Z</time>
      </trkpt>
      <trkpt lat="48.13949" lon="-3.3044">
        <ele>236.7</ele>
        <time>2024-11-20T07:43:36Z</time>
      </trkpt>
      <trkpt lat="48.13949" lon="-3.30439">
        <ele>236.7</ele>
        <time>2024-11-20T07:43:37Z</time>
      </trkpt>
      <trkpt lat="48.13948" lon="-3.30438">
        <ele>236.8</ele>
        <time>2024-11-20T07:43:38Z</time>
      </trkpt>
      <trkpt lat="48.13948" lon="-3.30436">
        <ele>236.8</ele>
        <time>2024-11-20T07:43:39Z</time>
      </trkpt>
      <trkpt lat="48.13948" lon="-3.30434">
        <ele>236.8</ele>
        <time>2024-11-20T07:43:40Z</time>
      </trkpt>
      <trkpt lat="48.13947" lon="-3.30433">
        <ele>236.8</ele>
        <time>2024-11-20T07:43:41Z</time>
      </trkpt>
      <trkpt lat="48.13947" lon="-3.30431">
        <ele>236.9</ele>
        <time>2024-11-20T07:43:42Z</time>
      </trkpt>
      <trkpt lat="48.13947" lon="-3.30428">
        <ele>236.9</ele>
        <time>2024-11-20T07:43:43Z</time>
      </trkpt>
      <trkpt lat="48.13947" lon="-3.30426">
        <ele>237</ele>
        <time>2024-11-20T07:43:44Z</time>
      </trkpt>
      <trkpt lat="48.13947" lon="-3.30424">
        <ele>237</ele>
        <time>2024-11-20T07:43:45Z</time>
      </trkpt>
      <trkpt lat="48.13947" lon="-3.30422">
        <ele>237.1</ele>
        <time>2024-11-20T07:43:46Z</time>
      </trkpt>
      <trkpt lat="48.13947" lon="-3.30419">
        <ele>237.2</ele>
        <time>2024-11-20T07:43:47Z</time>
      </trkpt>
      <trkpt lat="48.13947" lon="-3.30417">
        <ele>237.3</ele>
        <time>2024-11-20T07:43:48Z</time>
      </trkpt>
      <trkpt lat="48.13947" lon="-3.30415">
        <ele>237.3</ele>
        <time>2024-11-20T07:43:49Z</time>
      </trkpt>
      <trkpt lat="48.13948" lon="-3.30413">
        <ele>237.3</ele>
        <time>2024-11-20T07:43:50Z</time>
      </trkpt>
      <trkpt lat="48.13948" lon="-3.30411">
        <ele>237.4</ele>
        <time>2024-11-20T07:43:51Z</time>
      </trkpt>
      <trkpt lat="48.13948" lon="-3.30409">
        <ele>237.4</ele>
        <time>2024-11-20T07:43:52Z</time>
      </trkpt>
      <trkpt lat="48.13948" lon="-3.30407">
        <ele>237.4</ele>
        <time>2024-11-20T07:43:53Z</time>
      </trkpt>
      <trkpt lat="48.13948" lon="-3.30405">
        <ele>237.4</ele>
        <time>2024-11-20T07:43:54Z</time>
      </trkpt>
      <trkpt lat="48.13948" lon="-3.30402">
        <ele>237.4</ele>
        <time>2024-11-20T07:43:55Z</time>
      </trkpt>
      <trkpt lat="48.13948" lon="-3.304">
        <ele>237.4</ele>
        <time>2024-11-20T07:43:56Z</time>
      </trkpt>
      <trkpt lat="48.13948" lon="-3.30399">
        <ele>237.4</ele>
        <time>2024-11-20T07:43:57Z</time>
      </trkpt>
      <trkpt lat="48.13948" lon="-3.30397">
        <ele>237.4</ele>
        <time>2024-11-20T07:43:58Z</time>
      </trkpt>
      <trkpt lat="48.13948" lon="-3.30396">
        <ele>237.5</ele>
        <time>2024-11-20T07:43:59Z</time>
      </trkpt>
      <trkpt lat="48.13948" lon="-3.30394">
        <ele>237.5</ele>
        <time>2024-11-20T07:44:00Z</time>
      </trkpt>
      <trkpt lat="48.13949" lon="-3.30392">
        <ele>237.6</ele>
        <time>2024-11-20T07:44:01Z</time>
      </trkpt>
      <trkpt lat="48.13949" lon="-3.30391">
        <ele>237.6</ele>
        <time>2024-11-20T07:44:02Z</time>
      </trkpt>
      <trkpt lat="48.13949" lon="-3.3039">
        <ele>237.7</ele>
        <time>2024-11-20T07:44:03Z</time>
      </trkpt>
      <trkpt lat="48.1395" lon="-3.30388">
        <ele>237.7</ele>
        <time>2024-11-20T07:44:04Z</time>
      </trkpt>
      <trkpt lat="48.1395" lon="-3.30387">
        <ele>237.8</ele>
        <time>2024-11-20T07:44:05Z</time>
      </trkpt>
      <trkpt lat="48.1395" lon="-3.30385">
        <ele>237.8</ele>
        <time>2024-11-20T07:44:06Z</time>
      </trkpt>
      <trkpt lat="48.13949" lon="-3.30383">
        <ele>237.9</ele>
        <time>2024-11-20T07:44:07Z</time>
      </trkpt>
      <trkpt lat="48.13949" lon="-3.30381">
        <ele>237.9</ele>
        <time>2024-11-20T07:44:08Z</time>
      </trkpt>
      <trkpt lat="48.13949" lon="-3.3038">
        <ele>237.9</ele>
        <time>2024-11-20T07:44:09Z</time>
      </trkpt>
      <trkpt lat="48.13949" lon="-3.30378">
        <ele>238</ele>
        <time>2024-11-20T07:44:10Z</time>
      </trkpt>
      <trkpt lat="48.13949" lon="-3.30377">
        <ele>238</ele>
        <time>2024-11-20T07:44:11Z</time>
      </trkpt>
      <trkpt lat="48.13949" lon="-3.30375">
        <ele>238</ele>
        <time>2024-11-20T07:44:12Z</time>
      </trkpt>
      <trkpt lat="48.13948" lon="-3.30373">
        <ele>238.1</ele>
        <time>2024-11-20T07:44:13Z</time>
      </trkpt>
      <trkpt lat="48.13948" lon="-3.30371">
        <ele>238.1</ele>
        <time>2024-11-20T07:44:14Z</time>
      </trkpt>
      <trkpt lat="48.13948" lon="-3.30369">
        <ele>238.1</ele>
        <time>2024-11-20T07:44:15Z</time>
      </trkpt>
      <trkpt lat="48.13948" lon="-3.30367">
        <ele>238.2</ele>
        <time>2024-11-20T07:44:16Z</time>
      </trkpt>
      <trkpt lat="48.13948" lon="-3.30366">
        <ele>238.2</ele>
        <time>2024-11-20T07:44:17Z</time>
      </trkpt>
      <trkpt lat="48.13948" lon="-3.30364">
        <ele>238.3</ele>
        <time>2024-11-20T07:44:18Z</time>
      </trkpt>
      <trkpt lat="48.13948" lon="-3.30363">
        <ele>238.3</ele>
        <time>2024-11-20T07:44:19Z</time>
      </trkpt>
      <trkpt lat="48.13948" lon="-3.30362">
        <ele>238.4</ele>
        <time>2024-11-20T07:44:20Z</time>
      </trkpt>
      <trkpt lat="48.13949" lon="-3.3036">
        <ele>238.5</ele>
        <time>2024-11-20T07:44:21Z</time>
      </trkpt>
      <trkpt lat="48.13949" lon="-3.30359">
        <ele>238.6</ele>
        <time>2024-11-20T07:44:22Z</time>
      </trkpt>
      <trkpt lat="48.1395" lon="-3.30357">
        <ele>238.7</ele>
        <time>2024-11-20T07:44:23Z</time>
      </trkpt>
      <trkpt lat="48.1395" lon="-3.30355">
        <ele>238.8</ele>
        <time>2024-11-20T07:44:24Z</time>
      </trkpt>
      <trkpt lat="48.1395" lon="-3.30353">
        <ele>238.9</ele>
        <time>2024-11-20T07:44:25Z</time>
      </trkpt>
      <trkpt lat="48.1395" lon="-3.30351">
        <ele>238.9</ele>
        <time>2024-11-20T07:44:26Z</time>
      </trkpt>
      <trkpt lat="48.13949" lon="-3.30349">
        <ele>239</ele>
        <time>2024-11-20T07:44:27Z</time>
      </trkpt>
      <trkpt lat="48.13949" lon="-3.30348">
        <ele>239</ele>
        <time>2024-11-20T07:44:28Z</time>
      </trkpt>
      <trkpt lat="48.13949" lon="-3.30346">
        <ele>239</ele>
        <time>2024-11-20T07:44:29Z</time>
      </trkpt>
      <trkpt lat="48.13948" lon="-3.30344">
        <ele>239</ele>
        <time>2024-11-20T07:44:30Z</time>
      </trkpt>
      <trkpt lat="48.13948" lon="-3.30343">
        <ele>239</ele>
        <time>2024-11-20T07:44:31Z</time>
      </trkpt>
      <trkpt lat="48.13948" lon="-3.30343">
        <ele>239</ele>
        <time>2024-11-20T07:44:32Z</time>
      </trkpt>
      <trkpt lat="48.13948" lon="-3.30342">
        <ele>239.1</ele>
        <time>2024-11-20T07:44:33Z</time>
      </trkpt>
      <trkpt lat="48.13948" lon="-3.30341">
        <ele>239.2</ele>
        <time>2024-11-20T07:44:34Z</time>
      </trkpt>
      <trkpt lat="48.13948" lon="-3.30339">
        <ele>239.2</ele>
        <time>2024-11-20T07:44:35Z</time>
      </trkpt>
      <trkpt lat="48.13948" lon="-3.30337">
        <ele>239.3</ele>
        <time>2024-11-20T07:44:36Z</time>
      </trkpt>
      <trkpt lat="48.13948" lon="-3.30335">
        <ele>239.4</ele>
        <time>2024-11-20T07:44:37Z</time>
      </trkpt>
      <trkpt lat="48.13948" lon="-3.30333">
        <ele>239.4</ele>
        <time>2024-11-20T07:44:38Z</time>
      </trkpt>
      <trkpt lat="48.13948" lon="-3.30331">
        <ele>239.6</ele>
        <time>2024-11-20T07:44:39Z</time>
      </trkpt>
      <trkpt lat="48.13948" lon="-3.30329">
        <ele>239.7</ele>
        <time>2024-11-20T07:44:40Z</time>
      </trkpt>
      <trkpt lat="48.13947" lon="-3.30326">
        <ele>239.8</ele>
        <time>2024-11-20T07:44:41Z</time>
      </trkpt>
      <trkpt lat="48.13947" lon="-3.30324">
        <ele>239.9</ele>
        <time>2024-11-20T07:44:42Z</time>
      </trkpt>
      <trkpt lat="48.13947" lon="-3.30322">
        <ele>240.1</ele>
        <time>2024-11-20T07:44:43Z</time>
      </trkpt>
      <trkpt lat="48.13947" lon="-3.3032">
        <ele>240.2</ele>
        <time>2024-11-20T07:44:44Z</time>
      </trkpt>
      <trkpt lat="48.13946" lon="-3.30318">
        <ele>240.2</ele>
        <time>2024-11-20T07:44:45Z</time>
      </trkpt>
      <trkpt lat="48.13945" lon="-3.30317">
        <ele>240.3</ele>
        <time>2024-11-20T07:44:46Z</time>
      </trkpt>
      <trkpt lat="48.13945" lon="-3.30315">
        <ele>240.3</ele>
        <time>2024-11-20T07:44:47Z</time>
      </trkpt>
      <trkpt lat="48.13944" lon="-3.30313">
        <ele>240.4</ele>
        <time>2024-11-20T07:44:48Z</time>
      </trkpt>
      <trkpt lat="48.13944" lon="-3.30312">
        <ele>240.5</ele>
        <time>2024-11-20T07:44:49Z</time>
      </trkpt>
      <trkpt lat="48.13945" lon="-3.3031">
        <ele>240.7</ele>
        <time>2024-11-20T07:44:50Z</time>
      </trkpt>
      <trkpt lat="48.13945" lon="-3.30309">
        <ele>240.8</ele>
        <time>2024-11-20T07:44:51Z</time>
      </trkpt>
      <trkpt lat="48.13944" lon="-3.30308">
        <ele>240.9</ele>
        <time>2024-11-20T07:44:52Z</time>
      </trkpt>
      <trkpt lat="48.13944" lon="-3.30306">
        <ele>240.9</ele>
        <time>2024-11-20T07:44:53Z</time>
      </trkpt>
      <trkpt lat="48.13944" lon="-3.30304">
        <ele>241</ele>
        <time>2024-11-20T07:44:54Z</time>
      </trkpt>
      <trkpt lat="48.13944" lon="-3.30302">
        <ele>241.1</ele>
        <time>2024-11-20T07:44:55Z</time>
      </trkpt>
      <trkpt lat="48.13944" lon="-3.30301">
        <ele>241.1</ele>
        <time>2024-11-20T07:44:56Z</time>
      </trkpt>
      <trkpt lat="48.13943" lon="-3.30299">
        <ele>241.2</ele>
        <time>2024-11-20T07:44:57Z</time>
      </trkpt>
      <trkpt lat="48.13944" lon="-3.30297">
        <ele>241.3</ele>
        <time>2024-11-20T07:44:58Z</time>
      </trkpt>
      <trkpt lat="48.13944" lon="-3.30294">
        <ele>241.4</ele>
        <time>2024-11-20T07:44:59Z</time>
      </trkpt>
      <trkpt lat="48.13944" lon="-3.30293">
        <ele>241.4</ele>
        <time>2024-11-20T07:45:00Z</time>
      </trkpt>
      <trkpt lat="48.13944" lon="-3.30292">
        <ele>241.4</ele>
        <time>2024-11-20T07:45:01Z</time>
      </trkpt>
      <trkpt lat="48.13944" lon="-3.3029">
        <ele>241.5</ele>
        <time>2024-11-20T07:45:02Z</time>
      </trkpt>
      <trkpt lat="48.13944" lon="-3.30289">
        <ele>241.5</ele>
        <time>2024-11-20T07:45:03Z</time>
      </trkpt>
      <trkpt lat="48.13944" lon="-3.30287">
        <ele>241.6</ele>
        <time>2024-11-20T07:45:04Z</time>
      </trkpt>
      <trkpt lat="48.13944" lon="-3.30285">
        <ele>241.7</ele>
        <time>2024-11-20T07:45:05Z</time>
      </trkpt>
      <trkpt lat="48.13944" lon="-3.30283">
        <ele>241.8</ele>
        <time>2024-11-20T07:45:06Z</time>
      </trkpt>
      <trkpt lat="48.13945" lon="-3.30282">
        <ele>241.9</ele>
        <time>2024-11-20T07:45:07Z</time>
      </trkpt>
      <trkpt lat="48.13945" lon="-3.3028">
        <ele>242</ele>
        <time>2024-11-20T07:45:08Z</time>
      </trkpt>
      <trkpt lat="48.13945" lon="-3.30278">
        <ele>242.1</ele>
        <time>2024-11-20T07:45:09Z</time>
      </trkpt>
      <trkpt lat="48.13945" lon="-3.30276">
        <ele>242.1</ele>
        <time>2024-11-20T07:45:10Z</time>
      </trkpt>
      <trkpt lat="48.13945" lon="-3.30274">
        <ele>242.2</ele>
        <time>2024-11-20T07:45:11Z</time>
      </trkpt>
      <trkpt lat="48.13945" lon="-3.30272">
        <ele>242.3</ele>
        <time>2024-11-20T07:45:12Z</time>
      </trkpt>
      <trkpt lat="48.13946" lon="-3.3027">
        <ele>242.4</ele>
        <time>2024-11-20T07:45:13Z</time>
      </trkpt>
      <trkpt lat="48.13946" lon="-3.30268">
        <ele>242.5</ele>
        <time>2024-11-20T07:45:14Z</time>
      </trkpt>
      <trkpt lat="48.13946" lon="-3.30265">
        <ele>242.6</ele>
        <time>2024-11-20T07:45:15Z</time>
      </trkpt>
      <trkpt lat="48.13947" lon="-3.30263">
        <ele>242.7</ele>
        <time>2024-11-20T07:45:16Z</time>
      </trkpt>
      <trkpt lat="48.13947" lon="-3.30261">
        <ele>242.8</ele>
        <time>2024-11-20T07:45:17Z</time>
      </trkpt>
      <trkpt lat="48.13947" lon="-3.30259">
        <ele>242.9</ele>
        <time>2024-11-20T07:45:18Z</time>
      </trkpt>
      <trkpt lat="48.13947" lon="-3.30258">
        <ele>243</ele>
        <time>2024-11-20T07:45:19Z</time>
      </trkpt>
      <trkpt lat="48.13947" lon="-3.30256">
        <ele>243</ele>
        <time>2024-11-20T07:45:20Z</time>
      </trkpt>
      <trkpt lat="48.13947" lon="-3.30254">
        <ele>243.1</ele>
        <time>2024-11-20T07:45:21Z</time>
      </trkpt>
      <trkpt lat="48.13947" lon="-3.30252">
        <ele>243.2</ele>
        <time>2024-11-20T07:45:22Z</time>
      </trkpt>
      <trkpt lat="48.13947" lon="-3.3025">
        <ele>243.2</ele>
        <time>2024-11-20T07:45:23Z</time>
      </trkpt>
      <trkpt lat="48.13947" lon="-3.30249">
        <ele>243.4</ele>
        <time>2024-11-20T07:45:24Z</time>
      </trkpt>
      <trkpt lat="48.13948" lon="-3.30247">
        <ele>243.4</ele>
        <time>2024-11-20T07:45:25Z</time>
      </trkpt>
      <trkpt lat="48.13948" lon="-3.30245">
        <ele>243.5</ele>
        <time>2024-11-20T07:45:26Z</time>
      </trkpt>
      <trkpt lat="48.13948" lon="-3.30244">
        <ele>243.6</ele>
        <time>2024-11-20T07:45:27Z</time>
      </trkpt>
      <trkpt lat="48.13949" lon="-3.30243">
        <ele>243.7</ele>
        <time>2024-11-20T07:45:28Z</time>
      </trkpt>
      <trkpt lat="48.13949" lon="-3.30241">
        <ele>243.7</ele>
        <time>2024-11-20T07:45:29Z</time>
      </trkpt>
      <trkpt lat="48.13949" lon="-3.30239">
        <ele>243.8</ele>
        <time>2024-11-20T07:45:30Z</time>
      </trkpt>
      <trkpt lat="48.13948" lon="-3.30237">
        <ele>243.8</ele>
        <time>2024-11-20T07:45:31Z</time>
      </trkpt>
      <trkpt lat="48.13948" lon="-3.30235">
        <ele>243.8</ele>
        <time>2024-11-20T07:45:32Z</time>
      </trkpt>
      <trkpt lat="48.13948" lon="-3.30234">
        <ele>243.9</ele>
        <time>2024-11-20T07:45:33Z</time>
      </trkpt>
      <trkpt lat="48.13948" lon="-3.30232">
        <ele>244</ele>
        <time>2024-11-20T07:45:34Z</time>
      </trkpt>
      <trkpt lat="48.13949" lon="-3.30229">
        <ele>244.1</ele>
        <time>2024-11-20T07:45:38Z</time>
      </trkpt>
      <trkpt lat="48.13949" lon="-3.30227">
        <ele>244.2</ele>
        <time>2024-11-20T07:45:39Z</time>
      </trkpt>
      <trkpt lat="48.13949" lon="-3.30225">
        <ele>244.3</ele>
        <time>2024-11-20T07:45:40Z</time>
      </trkpt>
      <trkpt lat="48.13949" lon="-3.30222">
        <ele>244.4</ele>
        <time>2024-11-20T07:45:41Z</time>
      </trkpt>
      <trkpt lat="48.13949" lon="-3.3022">
        <ele>244.3</ele>
        <time>2024-11-20T07:45:42Z</time>
      </trkpt>
      <trkpt lat="48.13949" lon="-3.30218">
        <ele>244.3</ele>
        <time>2024-11-20T07:45:43Z</time>
      </trkpt>
      <trkpt lat="48.13949" lon="-3.30217">
        <ele>244.3</ele>
        <time>2024-11-20T07:45:44Z</time>
      </trkpt>
      <trkpt lat="48.13948" lon="-3.30215">
        <ele>244.3</ele>
        <time>2024-11-20T07:45:45Z</time>
      </trkpt>
      <trkpt lat="48.13948" lon="-3.30213">
        <ele>244.3</ele>
        <time>2024-11-20T07:45:46Z</time>
      </trkpt>
      <trkpt lat="48.13948" lon="-3.30211">
        <ele>244.3</ele>
        <time>2024-11-20T07:45:47Z</time>
      </trkpt>
      <trkpt lat="48.13948" lon="-3.30209">
        <ele>244.3</ele>
        <time>2024-11-20T07:45:48Z</time>
      </trkpt>
      <trkpt lat="48.13949" lon="-3.30207">
        <ele>244.3</ele>
        <time>2024-11-20T07:45:49Z</time>
      </trkpt>
      <trkpt lat="48.13949" lon="-3.30204">
        <ele>244.3</ele>
        <time>2024-11-20T07:45:50Z</time>
      </trkpt>
      <trkpt lat="48.13948" lon="-3.30202">
        <ele>244.3</ele>
        <time>2024-11-20T07:45:51Z</time>
      </trkpt>
      <trkpt lat="48.13948" lon="-3.302">
        <ele>244.3</ele>
        <time>2024-11-20T07:45:52Z</time>
      </trkpt>
      <trkpt lat="48.13948" lon="-3.30198">
        <ele>244.3</ele>
        <time>2024-11-20T07:45:53Z</time>
      </trkpt>
      <trkpt lat="48.13948" lon="-3.30196">
        <ele>244.2</ele>
        <time>2024-11-20T07:45:54Z</time>
      </trkpt>
      <trkpt lat="48.13948" lon="-3.30193">
        <ele>244.2</ele>
        <time>2024-11-20T07:45:55Z</time>
      </trkpt>
      <trkpt lat="48.13948" lon="-3.30191">
        <ele>244.2</ele>
        <time>2024-11-20T07:45:56Z</time>
      </trkpt>
      <trkpt lat="48.13948" lon="-3.30189">
        <ele>244.2</ele>
        <time>2024-11-20T07:45:57Z</time>
      </trkpt>
      <trkpt lat="48.13948" lon="-3.30187">
        <ele>244.2</ele>
        <time>2024-11-20T07:45:58Z</time>
      </trkpt>
      <trkpt lat="48.13948" lon="-3.30185">
        <ele>244.3</ele>
        <time>2024-11-20T07:45:59Z</time>
      </trkpt>
      <trkpt lat="48.13948" lon="-3.30183">
        <ele>244.3</ele>
        <time>2024-11-20T07:46:00Z</time>
      </trkpt>
      <trkpt lat="48.13949" lon="-3.30181">
        <ele>244.3</ele>
        <time>2024-11-20T07:46:01Z</time>
      </trkpt>
      <trkpt lat="48.13949" lon="-3.30179">
        <ele>244.3</ele>
        <time>2024-11-20T07:46:02Z</time>
      </trkpt>
      <trkpt lat="48.13949" lon="-3.30178">
        <ele>244.3</ele>
        <time>2024-11-20T07:46:03Z</time>
      </trkpt>
      <trkpt lat="48.13949" lon="-3.30176">
        <ele>244.3</ele>
        <time>2024-11-20T07:46:04Z</time>
      </trkpt>
      <trkpt lat="48.13949" lon="-3.30174">
        <ele>244.3</ele>
        <time>2024-11-20T07:46:05Z</time>
      </trkpt>
      <trkpt lat="48.13949" lon="-3.30172">
        <ele>244.3</ele>
        <time>2024-11-20T07:46:06Z</time>
      </trkpt>
      <trkpt lat="48.13948" lon="-3.3017">
        <ele>244.3</ele>
        <time>2024-11-20T07:46:07Z</time>
      </trkpt>
      <trkpt lat="48.13948" lon="-3.30169">
        <ele>244.3</ele>
        <time>2024-11-20T07:46:08Z</time>
      </trkpt>
      <trkpt lat="48.13948" lon="-3.30168">
        <ele>244.2</ele>
        <time>2024-11-20T07:46:09Z</time>
      </trkpt>
      <trkpt lat="48.13947" lon="-3.30166">
        <ele>244.2</ele>
        <time>2024-11-20T07:46:10Z</time>
      </trkpt>
      <trkpt lat="48.13947" lon="-3.30164">
        <ele>244.2</ele>
        <time>2024-11-20T07:46:11Z</time>
      </trkpt>
      <trkpt lat="48.13947" lon="-3.30163">
        <ele>244.2</ele>
        <time>2024-11-20T07:46:12Z</time>
      </trkpt>
      <trkpt lat="48.13947" lon="-3.30161">
        <ele>244.2</ele>
        <time>2024-11-20T07:46:13Z</time>
      </trkpt>
      <trkpt lat="48.13947" lon="-3.3016">
        <ele>244.2</ele>
        <time>2024-11-20T07:46:14Z</time>
      </trkpt>
      <trkpt lat="48.13947" lon="-3.30158">
        <ele>244.1</ele>
        <time>2024-11-20T07:46:15Z</time>
      </trkpt>
      <trkpt lat="48.13946" lon="-3.30157">
        <ele>244.1</ele>
        <time>2024-11-20T07:46:16Z</time>
      </trkpt>
      <trkpt lat="48.13947" lon="-3.30155">
        <ele>244.1</ele>
        <time>2024-11-20T07:46:17Z</time>
      </trkpt>
      <trkpt lat="48.13947" lon="-3.30153">
        <ele>244.1</ele>
        <time>2024-11-20T07:46:18Z</time>
      </trkpt>
      <trkpt lat="48.13947" lon="-3.30151">
        <ele>244.1</ele>
        <time>2024-11-20T07:46:19Z</time>
      </trkpt>
      <trkpt lat="48.13947" lon="-3.30149">
        <ele>244.1</ele>
        <time>2024-11-20T07:46:20Z</time>
      </trkpt>
      <trkpt lat="48.13947" lon="-3.30147">
        <ele>244.1</ele>
        <time>2024-11-20T07:46:21Z</time>
      </trkpt>
      <trkpt lat="48.13947" lon="-3.30144">
        <ele>244.1</ele>
        <time>2024-11-20T07:46:22Z</time>
      </trkpt>
      <trkpt lat="48.13947" lon="-3.30143">
        <ele>244.1</ele>
        <time>2024-11-20T07:46:23Z</time>
      </trkpt>
      <trkpt lat="48.13947" lon="-3.30142">
        <ele>244.1</ele>
        <time>2024-11-20T07:46:24Z</time>
      </trkpt>
      <trkpt lat="48.13947" lon="-3.3014">
        <ele>244.1</ele>
        <time>2024-11-20T07:46:25Z</time>
      </trkpt>
      <trkpt lat="48.13947" lon="-3.30138">
        <ele>244</ele>
        <time>2024-11-20T07:46:26Z</time>
      </trkpt>
      <trkpt lat="48.13947" lon="-3.30136">
        <ele>244</ele>
        <time>2024-11-20T07:46:27Z</time>
      </trkpt>
      <trkpt lat="48.13947" lon="-3.30134">
        <ele>243.9</ele>
        <time>2024-11-20T07:46:28Z</time>
      </trkpt>
      <trkpt lat="48.13947" lon="-3.30132">
        <ele>243.9</ele>
        <time>2024-11-20T07:46:29Z</time>
      </trkpt>
      <trkpt lat="48.13947" lon="-3.30131">
        <ele>243.8</ele>
        <time>2024-11-20T07:46:30Z</time>
      </trkpt>
      <trkpt lat="48.13947" lon="-3.30129">
        <ele>243.8</ele>
        <time>2024-11-20T07:46:31Z</time>
      </trkpt>
      <trkpt lat="48.13947" lon="-3.30127">
        <ele>243.7</ele>
        <time>2024-11-20T07:46:32Z</time>
      </trkpt>
      <trkpt lat="48.13947" lon="-3.30126">
        <ele>243.7</ele>
        <time>2024-11-20T07:46:33Z</time>
      </trkpt>
      <trkpt lat="48.13948" lon="-3.30124">
        <ele>243.6</ele>
        <time>2024-11-20T07:46:34Z</time>
      </trkpt>
      <trkpt lat="48.13948" lon="-3.30122">
        <ele>243.6</ele>
        <time>2024-11-20T07:46:35Z</time>
      </trkpt>
      <trkpt lat="48.13948" lon="-3.3012">
        <ele>243.5</ele>
        <time>2024-11-20T07:46:36Z</time>
      </trkpt>
      <trkpt lat="48.13948" lon="-3.30118">
        <ele>243.5</ele>
        <time>2024-11-20T07:46:37Z</time>
      </trkpt>
      <trkpt lat="48.13948" lon="-3.30116">
        <ele>243.4</ele>
        <time>2024-11-20T07:46:38Z</time>
      </trkpt>
      <trkpt lat="48.13948" lon="-3.30114">
        <ele>243.3</ele>
        <time>2024-11-20T07:46:39Z</time>
      </trkpt>
      <trkpt lat="48.13948" lon="-3.30111">
        <ele>243.3</ele>
        <time>2024-11-20T07:46:40Z</time>
      </trkpt>
      <trkpt lat="48.13948" lon="-3.3011">
        <ele>243.2</ele>
        <time>2024-11-20T07:46:41Z</time>
      </trkpt>
      <trkpt lat="48.13948" lon="-3.30108">
        <ele>243.1</ele>
        <time>2024-11-20T07:46:42Z</time>
      </trkpt>
      <trkpt lat="48.13948" lon="-3.30105">
        <ele>243.1</ele>
        <time>2024-11-20T07:46:43Z</time>
      </trkpt>
      <trkpt lat="48.13948" lon="-3.30104">
        <ele>243</ele>
        <time>2024-11-20T07:46:44Z</time>
      </trkpt>
      <trkpt lat="48.13948" lon="-3.30102">
        <ele>242.9</ele>
        <time>2024-11-20T07:46:45Z</time>
      </trkpt>
      <trkpt lat="48.13948" lon="-3.301">
        <ele>242.8</ele>
        <time>2024-11-20T07:46:46Z</time>
      </trkpt>
      <trkpt lat="48.13947" lon="-3.30098">
        <ele>242.7</ele>
        <time>2024-11-20T07:46:47Z</time>
      </trkpt>
      <trkpt lat="48.13947" lon="-3.30097">
        <ele>242.7</ele>
        <time>2024-11-20T07:46:48Z</time>
      </trkpt>
      <trkpt lat="48.13947" lon="-3.30095">
        <ele>242.6</ele>
        <time>2024-11-20T07:46:49Z</time>
      </trkpt>
      <trkpt lat="48.13947" lon="-3.30093">
        <ele>242.5</ele>
        <time>2024-11-20T07:46:50Z</time>
      </trkpt>
      <trkpt lat="48.13947" lon="-3.30091">
        <ele>242.5</ele>
        <time>2024-11-20T07:46:51Z</time>
      </trkpt>
      <trkpt lat="48.13947" lon="-3.30089">
        <ele>242.4</ele>
        <time>2024-11-20T07:46:52Z</time>
      </trkpt>
      <trkpt lat="48.13947" lon="-3.30087">
        <ele>242.4</ele>
        <time>2024-11-20T07:46:53Z</time>
      </trkpt>
      <trkpt lat="48.13947" lon="-3.30086">
        <ele>242.3</ele>
        <time>2024-11-20T07:46:54Z</time>
      </trkpt>
      <trkpt lat="48.13947" lon="-3.30084">
        <ele>242.2</ele>
        <time>2024-11-20T07:46:55Z</time>
      </trkpt>
      <trkpt lat="48.13947" lon="-3.30082">
        <ele>242.2</ele>
        <time>2024-11-20T07:46:56Z</time>
      </trkpt>
      <trkpt lat="48.13947" lon="-3.3008">
        <ele>242.2</ele>
        <time>2024-11-20T07:46:57Z</time>
      </trkpt>
      <trkpt lat="48.13947" lon="-3.30079">
        <ele>242.2</ele>
        <time>2024-11-20T07:46:58Z</time>
      </trkpt>
      <trkpt lat="48.13947" lon="-3.30077">
        <ele>242.2</ele>
        <time>2024-11-20T07:46:59Z</time>
      </trkpt>
      <trkpt lat="48.13948" lon="-3.30074">
        <ele>242.2</ele>
        <time>2024-11-20T07:47:00Z</time>
      </trkpt>
      <trkpt lat="48.13947" lon="-3.30072">
        <ele>242.2</ele>
        <time>2024-11-20T07:47:01Z</time>
      </trkpt>
      <trkpt lat="48.13947" lon="-3.3007">
        <ele>242.2</ele>
        <time>2024-11-20T07:47:02Z</time>
      </trkpt>
      <trkpt lat="48.13947" lon="-3.30068">
        <ele>242.2</ele>
        <time>2024-11-20T07:47:03Z</time>
      </trkpt>
      <trkpt lat="48.13947" lon="-3.30067">
        <ele>242.2</ele>
        <time>2024-11-20T07:47:04Z</time>
      </trkpt>
      <trkpt lat="48.13947" lon="-3.30065">
        <ele>242.2</ele>
        <time>2024-11-20T07:47:05Z</time>
      </trkpt>
      <trkpt lat="48.13948" lon="-3.30063">
        <ele>242.2</ele>
        <time>2024-11-20T07:47:06Z</time>
      </trkpt>
      <trkpt lat="48.13948" lon="-3.30062">
        <ele>242.3</ele>
        <time>2024-11-20T07:47:07Z</time>
      </trkpt>
      <trkpt lat="48.13948" lon="-3.3006">
        <ele>242.3</ele>
        <time>2024-11-20T07:47:08Z</time>
      </trkpt>
      <trkpt lat="48.13949" lon="-3.30058">
        <ele>242.3</ele>
        <time>2024-11-20T07:47:09Z</time>
      </trkpt>
      <trkpt lat="48.13949" lon="-3.30056">
        <ele>242.3</ele>
        <time>2024-11-20T07:47:10Z</time>
      </trkpt>
      <trkpt lat="48.1395" lon="-3.30054">
        <ele>242.4</ele>
        <time>2024-11-20T07:47:11Z</time>
      </trkpt>
      <trkpt lat="48.1395" lon="-3.30052">
        <ele>242.5</ele>
        <time>2024-11-20T07:47:12Z</time>
      </trkpt>
      <trkpt lat="48.1395" lon="-3.30051">
        <ele>242.6</ele>
        <time>2024-11-20T07:47:13Z</time>
      </trkpt>
      <trkpt lat="48.13951" lon="-3.30049">
        <ele>242.6</ele>
        <time>2024-11-20T07:47:14Z</time>
      </trkpt>
      <trkpt lat="48.13951" lon="-3.30048">
        <ele>242.7</ele>
        <time>2024-11-20T07:47:15Z</time>
      </trkpt>
      <trkpt lat="48.13951" lon="-3.30046">
        <ele>242.7</ele>
        <time>2024-11-20T07:47:16Z</time>
      </trkpt>
      <trkpt lat="48.13951" lon="-3.30044">
        <ele>242.8</ele>
        <time>2024-11-20T07:47:17Z</time>
      </trkpt>
      <trkpt lat="48.13951" lon="-3.30042">
        <ele>242.9</ele>
        <time>2024-11-20T07:47:18Z</time>
      </trkpt>
      <trkpt lat="48.13952" lon="-3.30041">
        <ele>242.9</ele>
        <time>2024-11-20T07:47:19Z</time>
      </trkpt>
      <trkpt lat="48.13952" lon="-3.30039">
        <ele>243</ele>
        <time>2024-11-20T07:47:20Z</time>
      </trkpt>
      <trkpt lat="48.13951" lon="-3.30036">
        <ele>243</ele>
        <time>2024-11-20T07:47:21Z</time>
      </trkpt>
      <trkpt lat="48.13951" lon="-3.30034">
        <ele>243.1</ele>
        <time>2024-11-20T07:47:22Z</time>
      </trkpt>
      <trkpt lat="48.13951" lon="-3.30032">
        <ele>243.1</ele>
        <time>2024-11-20T07:47:23Z</time>
      </trkpt>
      <trkpt lat="48.13951" lon="-3.30029">
        <ele>243.2</ele>
        <time>2024-11-20T07:47:24Z</time>
      </trkpt>
      <trkpt lat="48.13951" lon="-3.30027">
        <ele>243.2</ele>
        <time>2024-11-20T07:47:25Z</time>
      </trkpt>
      <trkpt lat="48.1395" lon="-3.30025">
        <ele>243.2</ele>
        <time>2024-11-20T07:47:26Z</time>
      </trkpt>
      <trkpt lat="48.1395" lon="-3.30023">
        <ele>243.2</ele>
        <time>2024-11-20T07:47:27Z</time>
      </trkpt>
      <trkpt lat="48.13949" lon="-3.30021">
        <ele>243.2</ele>
        <time>2024-11-20T07:47:28Z</time>
      </trkpt>
      <trkpt lat="48.13949" lon="-3.30019">
        <ele>243.2</ele>
        <time>2024-11-20T07:47:29Z</time>
      </trkpt>
      <trkpt lat="48.13948" lon="-3.30017">
        <ele>243.1</ele>
        <time>2024-11-20T07:47:30Z</time>
      </trkpt>
      <trkpt lat="48.13948" lon="-3.30015">
        <ele>243.1</ele>
        <time>2024-11-20T07:47:31Z</time>
      </trkpt>
      <trkpt lat="48.13947" lon="-3.30013">
        <ele>243.1</ele>
        <time>2024-11-20T07:47:32Z</time>
      </trkpt>
      <trkpt lat="48.13947" lon="-3.30011">
        <ele>243.1</ele>
        <time>2024-11-20T07:47:33Z</time>
      </trkpt>
      <trkpt lat="48.13947" lon="-3.30009">
        <ele>243.1</ele>
        <time>2024-11-20T07:47:34Z</time>
      </trkpt>
      <trkpt lat="48.13948" lon="-3.30007">
        <ele>243.1</ele>
        <time>2024-11-20T07:47:35Z</time>
      </trkpt>
      <trkpt lat="48.13948" lon="-3.30005">
        <ele>243.1</ele>
        <time>2024-11-20T07:47:36Z</time>
      </trkpt>
      <trkpt lat="48.13948" lon="-3.30003">
        <ele>243.1</ele>
        <time>2024-11-20T07:47:37Z</time>
      </trkpt>
      <trkpt lat="48.13948" lon="-3.30001">
        <ele>243.1</ele>
        <time>2024-11-20T07:47:38Z</time>
      </trkpt>
      <trkpt lat="48.13948" lon="-3.29998">
        <ele>243.1</ele>
        <time>2024-11-20T07:47:39Z</time>
      </trkpt>
      <trkpt lat="48.13948" lon="-3.29997">
        <ele>243.1</ele>
        <time>2024-11-20T07:47:40Z</time>
      </trkpt>
      <trkpt lat="48.13948" lon="-3.29995">
        <ele>243.1</ele>
        <time>2024-11-20T07:47:41Z</time>
      </trkpt>
      <trkpt lat="48.13948" lon="-3.29993">
        <ele>243.1</ele>
        <time>2024-11-20T07:47:42Z</time>
      </trkpt>
      <trkpt lat="48.13948" lon="-3.29992">
        <ele>243.1</ele>
        <time>2024-11-20T07:47:43Z</time>
      </trkpt>
      <trkpt lat="48.13948" lon="-3.29991">
        <ele>243.1</ele>
        <time>2024-11-20T07:47:44Z</time>
      </trkpt>
      <trkpt lat="48.13949" lon="-3.2999">
        <ele>243.1</ele>
        <time>2024-11-20T07:47:45Z</time>
      </trkpt>
      <trkpt lat="48.13949" lon="-3.29989">
        <ele>243.2</ele>
        <time>2024-11-20T07:47:46Z</time>
      </trkpt>
      <trkpt lat="48.13949" lon="-3.29988">
        <ele>243.2</ele>
        <time>2024-11-20T07:47:47Z</time>
      </trkpt>
      <trkpt lat="48.1395" lon="-3.29987">
        <ele>243.2</ele>
        <time>2024-11-20T07:47:48Z</time>
      </trkpt>
      <trkpt lat="48.1395" lon="-3.29986">
        <ele>243.2</ele>
        <time>2024-11-20T07:47:49Z</time>
      </trkpt>
      <trkpt lat="48.1395" lon="-3.29984">
        <ele>243.2</ele>
        <time>2024-11-20T07:47:50Z</time>
      </trkpt>
      <trkpt lat="48.1395" lon="-3.29982">
        <ele>243.2</ele>
        <time>2024-11-20T07:47:51Z</time>
      </trkpt>
      <trkpt lat="48.1395" lon="-3.29981">
        <ele>243.2</ele>
        <time>2024-11-20T07:47:52Z</time>
      </trkpt>
      <trkpt lat="48.13951" lon="-3.29979">
        <ele>243.2</ele>
        <time>2024-11-20T07:47:53Z</time>
      </trkpt>
      <trkpt lat="48.13951" lon="-3.29978">
        <ele>243.2</ele>
        <time>2024-11-20T07:47:54Z</time>
      </trkpt>
      <trkpt lat="48.13951" lon="-3.29976">
        <ele>243.2</ele>
        <time>2024-11-20T07:47:55Z</time>
      </trkpt>
      <trkpt lat="48.13952" lon="-3.29975">
        <ele>243.3</ele>
        <time>2024-11-20T07:47:56Z</time>
      </trkpt>
      <trkpt lat="48.13952" lon="-3.29973">
        <ele>243.3</ele>
        <time>2024-11-20T07:47:57Z</time>
      </trkpt>
      <trkpt lat="48.13952" lon="-3.29971">
        <ele>243.3</ele>
        <time>2024-11-20T07:47:58Z</time>
      </trkpt>
      <trkpt lat="48.13953" lon="-3.29969">
        <ele>243.2</ele>
        <time>2024-11-20T07:47:59Z</time>
      </trkpt>
      <trkpt lat="48.13953" lon="-3.29968">
        <ele>243.2</ele>
        <time>2024-11-20T07:48:00Z</time>
      </trkpt>
      <trkpt lat="48.13953" lon="-3.29966">
        <ele>243.1</ele>
        <time>2024-11-20T07:48:01Z</time>
      </trkpt>
      <trkpt lat="48.13953" lon="-3.29965">
        <ele>243.1</ele>
        <time>2024-11-20T07:48:02Z</time>
      </trkpt>
      <trkpt lat="48.13953" lon="-3.29963">
        <ele>243.1</ele>
        <time>2024-11-20T07:48:03Z</time>
      </trkpt>
      <trkpt lat="48.13953" lon="-3.29962">
        <ele>243</ele>
        <time>2024-11-20T07:48:04Z</time>
      </trkpt>
      <trkpt lat="48.13953" lon="-3.29961">
        <ele>243</ele>
        <time>2024-11-20T07:48:05Z</time>
      </trkpt>
      <trkpt lat="48.13953" lon="-3.29959">
        <ele>243</ele>
        <time>2024-11-20T07:48:06Z</time>
      </trkpt>
      <trkpt lat="48.13953" lon="-3.29959">
        <ele>243</ele>
        <time>2024-11-20T07:48:07Z</time>
      </trkpt>
      <trkpt lat="48.13953" lon="-3.29958">
        <ele>242.9</ele>
        <time>2024-11-20T07:48:08Z</time>
      </trkpt>
      <trkpt lat="48.13953" lon="-3.29958">
        <ele>242.9</ele>
        <time>2024-11-20T07:48:09Z</time>
      </trkpt>
      <trkpt lat="48.13952" lon="-3.29957">
        <ele>242.9</ele>
        <time>2024-11-20T07:48:10Z</time>
      </trkpt>
      <trkpt lat="48.13952" lon="-3.29957">
        <ele>242.9</ele>
        <time>2024-11-20T07:48:11Z</time>
      </trkpt>
      <trkpt lat="48.13952" lon="-3.29956">
        <ele>242.9</ele>
        <time>2024-11-20T07:48:12Z</time>
      </trkpt>
      <trkpt lat="48.13952" lon="-3.29956">
        <ele>242.9</ele>
        <time>2024-11-20T07:48:13Z</time>
      </trkpt>
      <trkpt lat="48.13952" lon="-3.29956">
        <ele>242.9</ele>
        <time>2024-11-20T07:48:14Z</time>
      </trkpt>
      <trkpt lat="48.13953" lon="-3.29955">
        <ele>242.9</ele>
        <time>2024-11-20T07:48:15Z</time>
      </trkpt>
      <trkpt lat="48.13953" lon="-3.29954">
        <ele>242.8</ele>
        <time>2024-11-20T07:48:16Z</time>
      </trkpt>
      <trkpt lat="48.13953" lon="-3.29953">
        <ele>242.8</ele>
        <time>2024-11-20T07:48:17Z</time>
      </trkpt>
      <trkpt lat="48.13953" lon="-3.29952">
        <ele>242.8</ele>
        <time>2024-11-20T07:48:18Z</time>
      </trkpt>
      <trkpt lat="48.13953" lon="-3.29951">
        <ele>242.8</ele>
        <time>2024-11-20T07:48:19Z</time>
      </trkpt>
      <trkpt lat="48.13953" lon="-3.2995">
        <ele>242.7</ele>
        <time>2024-11-20T07:48:20Z</time>
      </trkpt>
      <trkpt lat="48.13953" lon="-3.29949">
        <ele>242.7</ele>
        <time>2024-11-20T07:48:21Z</time>
      </trkpt>
      <trkpt lat="48.13953" lon="-3.29948">
        <ele>242.7</ele>
        <time>2024-11-20T07:48:22Z</time>
      </trkpt>
      <trkpt lat="48.13952" lon="-3.29947">
        <ele>242.6</ele>
        <time>2024-11-20T07:48:23Z</time>
      </trkpt>
      <trkpt lat="48.13952" lon="-3.29945">
        <ele>242.6</ele>
        <time>2024-11-20T07:48:24Z</time>
      </trkpt>
      <trkpt lat="48.13952" lon="-3.29944">
        <ele>242.5</ele>
        <time>2024-11-20T07:48:25Z</time>
      </trkpt>
      <trkpt lat="48.13952" lon="-3.29943">
        <ele>242.6</ele>
        <time>2024-11-20T07:48:26Z</time>
      </trkpt>
      <trkpt lat="48.13952" lon="-3.29942">
        <ele>242.6</ele>
        <time>2024-11-20T07:48:27Z</time>
      </trkpt>
      <trkpt lat="48.13952" lon="-3.29942">
        <ele>242.6</ele>
        <time>2024-11-20T07:48:28Z</time>
      </trkpt>
      <trkpt lat="48.13952" lon="-3.29942">
        <ele>242.6</ele>
        <time>2024-11-20T07:48:29Z</time>
      </trkpt>
      <trkpt lat="48.13952" lon="-3.29942">
        <ele>242.6</ele>
        <time>2024-11-20T07:48:30Z</time>
      </trkpt>
      <trkpt lat="48.13952" lon="-3.29941">
        <ele>242.6</ele>
        <time>2024-11-20T07:48:31Z</time>
      </trkpt>
      <trkpt lat="48.13952" lon="-3.29939">
        <ele>242.7</ele>
        <time>2024-11-20T07:48:32Z</time>
      </trkpt>
      <trkpt lat="48.13952" lon="-3.29938">
        <ele>242.7</ele>
        <time>2024-11-20T07:48:33Z</time>
      </trkpt>
      <trkpt lat="48.13952" lon="-3.29936">
        <ele>242.7</ele>
        <time>2024-11-20T07:48:34Z</time>
      </trkpt>
      <trkpt lat="48.13952" lon="-3.29934">
        <ele>242.8</ele>
        <time>2024-11-20T07:48:36Z</time>
      </trkpt>
      <trkpt lat="48.13952" lon="-3.29932">
        <ele>242.9</ele>
        <time>2024-11-20T07:48:37Z</time>
      </trkpt>
      <trkpt lat="48.13952" lon="-3.2993">
        <ele>242.9</ele>
        <time>2024-11-20T07:48:38Z</time>
      </trkpt>
      <trkpt lat="48.13952" lon="-3.29928">
        <ele>242.9</ele>
        <time>2024-11-20T07:48:39Z</time>
      </trkpt>
      <trkpt lat="48.13952" lon="-3.29926">
        <ele>243</ele>
        <time>2024-11-20T07:48:40Z</time>
      </trkpt>
      <trkpt lat="48.13952" lon="-3.29925">
        <ele>243</ele>
        <time>2024-11-20T07:48:41Z</time>
      </trkpt>
      <trkpt lat="48.13952" lon="-3.29924">
        <ele>243.1</ele>
        <time>2024-11-20T07:48:42Z</time>
      </trkpt>
      <trkpt lat="48.13952" lon="-3.29923">
        <ele>243.1</ele>
        <time>2024-11-20T07:48:43Z</time>
      </trkpt>
      <trkpt lat="48.13953" lon="-3.29922">
        <ele>243.2</ele>
        <time>2024-11-20T07:48:44Z</time>
      </trkpt>
      <trkpt lat="48.13953" lon="-3.29921">
        <ele>243.2</ele>
        <time>2024-11-20T07:48:45Z</time>
      </trkpt>
      <trkpt lat="48.13953" lon="-3.2992">
        <ele>243.2</ele>
        <time>2024-11-20T07:48:46Z</time>
      </trkpt>
      <trkpt lat="48.13953" lon="-3.29919">
        <ele>243.2</ele>
        <time>2024-11-20T07:48:47Z</time>
      </trkpt>
      <trkpt lat="48.13953" lon="-3.29918">
        <ele>243.3</ele>
        <time>2024-11-20T07:48:48Z</time>
      </trkpt>
      <trkpt lat="48.13953" lon="-3.29917">
        <ele>243.3</ele>
        <time>2024-11-20T07:48:49Z</time>
      </trkpt>
      <trkpt lat="48.13953" lon="-3.29915">
        <ele>243.3</ele>
        <time>2024-11-20T07:48:50Z</time>
      </trkpt>
      <trkpt lat="48.13953" lon="-3.29914">
        <ele>243.3</ele>
        <time>2024-11-20T07:48:51Z</time>
      </trkpt>
      <trkpt lat="48.13953" lon="-3.29912">
        <ele>243.3</ele>
        <time>2024-11-20T07:48:52Z</time>
      </trkpt>
      <trkpt lat="48.13953" lon="-3.29911">
        <ele>243.3</ele>
        <time>2024-11-20T07:48:53Z</time>
      </trkpt>
      <trkpt lat="48.13952" lon="-3.2991">
        <ele>243.3</ele>
        <time>2024-11-20T07:48:54Z</time>
      </trkpt>
      <trkpt lat="48.13952" lon="-3.29909">
        <ele>243.3</ele>
        <time>2024-11-20T07:48:55Z</time>
      </trkpt>
      <trkpt lat="48.13952" lon="-3.29908">
        <ele>243.3</ele>
        <time>2024-11-20T07:48:56Z</time>
      </trkpt>
      <trkpt lat="48.13951" lon="-3.29906">
        <ele>243.2</ele>
        <time>2024-11-20T07:48:57Z</time>
      </trkpt>
      <trkpt lat="48.13951" lon="-3.29905">
        <ele>243.2</ele>
        <time>2024-11-20T07:48:58Z</time>
      </trkpt>
      <trkpt lat="48.1395" lon="-3.29903">
        <ele>243.2</ele>
        <time>2024-11-20T07:48:59Z</time>
      </trkpt>
      <trkpt lat="48.1395" lon="-3.29901">
        <ele>243.2</ele>
        <time>2024-11-20T07:49:00Z</time>
      </trkpt>
      <trkpt lat="48.1395" lon="-3.299">
        <ele>243.2</ele>
        <time>2024-11-20T07:49:01Z</time>
      </trkpt>
      <trkpt lat="48.1395" lon="-3.29898">
        <ele>243.2</ele>
        <time>2024-11-20T07:49:02Z</time>
      </trkpt>
      <trkpt lat="48.1395" lon="-3.29896">
        <ele>243.2</ele>
        <time>2024-11-20T07:49:03Z</time>
      </trkpt>
      <trkpt lat="48.1395" lon="-3.29895">
        <ele>243.2</ele>
        <time>2024-11-20T07:49:04Z</time>
      </trkpt>
      <trkpt lat="48.1395" lon="-3.29893">
        <ele>243.2</ele>
        <time>2024-11-20T07:49:05Z</time>
      </trkpt>
      <trkpt lat="48.13951" lon="-3.29892">
        <ele>243.2</ele>
        <time>2024-11-20T07:49:06Z</time>
      </trkpt>
      <trkpt lat="48.13951" lon="-3.2989">
        <ele>243.2</ele>
        <time>2024-11-20T07:49:07Z</time>
      </trkpt>
      <trkpt lat="48.13951" lon="-3.29888">
        <ele>243.3</ele>
        <time>2024-11-20T07:49:08Z</time>
      </trkpt>
      <trkpt lat="48.13951" lon="-3.29887">
        <ele>243.3</ele>
        <time>2024-11-20T07:49:09Z</time>
      </trkpt>
      <trkpt lat="48.13951" lon="-3.29885">
        <ele>243.4</ele>
        <time>2024-11-20T07:49:10Z</time>
      </trkpt>
      <trkpt lat="48.13951" lon="-3.29884">
        <ele>243.4</ele>
        <time>2024-11-20T07:49:11Z</time>
      </trkpt>
      <trkpt lat="48.13951" lon="-3.29882">
        <ele>243.5</ele>
        <time>2024-11-20T07:49:12Z</time>
      </trkpt>
      <trkpt lat="48.13951" lon="-3.29879">
        <ele>243.6</ele>
        <time>2024-11-20T07:49:13Z</time>
      </trkpt>
      <trkpt lat="48.13951" lon="-3.29877">
        <ele>243.7</ele>
        <time>2024-11-20T07:49:14Z</time>
      </trkpt>
      <trkpt lat="48.13951" lon="-3.29875">
        <ele>243.7</ele>
        <time>2024-11-20T07:49:15Z</time>
      </trkpt>
      <trkpt lat="48.13951" lon="-3.29874">
        <ele>243.8</ele>
        <time>2024-11-20T07:49:16Z</time>
      </trkpt>
      <trkpt lat="48.13951" lon="-3.29872">
        <ele>243.8</ele>
        <time>2024-11-20T07:49:17Z</time>
      </trkpt>
      <trkpt lat="48.13951" lon="-3.2987">
        <ele>243.9</ele>
        <time>2024-11-20T07:49:18Z</time>
      </trkpt>
      <trkpt lat="48.13952" lon="-3.29868">
        <ele>244</ele>
        <time>2024-11-20T07:49:19Z</time>
      </trkpt>
      <trkpt lat="48.13952" lon="-3.29866">
        <ele>244.1</ele>
        <time>2024-11-20T07:49:20Z</time>
      </trkpt>
      <trkpt lat="48.13953" lon="-3.29865">
        <ele>244.2</ele>
        <time>2024-11-20T07:49:21Z</time>
      </trkpt>
      <trkpt lat="48.13953" lon="-3.29863">
        <ele>244.2</ele>
        <time>2024-11-20T07:49:22Z</time>
      </trkpt>
      <trkpt lat="48.13953" lon="-3.29861">
        <ele>244.3</ele>
        <time>2024-11-20T07:49:23Z</time>
      </trkpt>
      <trkpt lat="48.13953" lon="-3.2986">
        <ele>244.4</ele>
        <time>2024-11-20T07:49:24Z</time>
      </trkpt>
      <trkpt lat="48.13953" lon="-3.29858">
        <ele>244.5</ele>
        <time>2024-11-20T07:49:25Z</time>
      </trkpt>
      <trkpt lat="48.13953" lon="-3.29856">
        <ele>244.6</ele>
        <time>2024-11-20T07:49:26Z</time>
      </trkpt>
      <trkpt lat="48.13953" lon="-3.29854">
        <ele>244.7</ele>
        <time>2024-11-20T07:49:27Z</time>
      </trkpt>
      <trkpt lat="48.13953" lon="-3.29852">
        <ele>244.8</ele>
        <time>2024-11-20T07:49:28Z</time>
      </trkpt>
      <trkpt lat="48.13953" lon="-3.29851">
        <ele>244.9</ele>
        <time>2024-11-20T07:49:29Z</time>
      </trkpt>
      <trkpt lat="48.13953" lon="-3.29849">
        <ele>245</ele>
        <time>2024-11-20T07:49:30Z</time>
      </trkpt>
      <trkpt lat="48.13952" lon="-3.29847">
        <ele>245.2</ele>
        <time>2024-11-20T07:49:31Z</time>
      </trkpt>
      <trkpt lat="48.13952" lon="-3.29845">
        <ele>245.3</ele>
        <time>2024-11-20T07:49:32Z</time>
      </trkpt>
      <trkpt lat="48.13952" lon="-3.29844">
        <ele>245.4</ele>
        <time>2024-11-20T07:49:33Z</time>
      </trkpt>
      <trkpt lat="48.13952" lon="-3.29842">
        <ele>245.4</ele>
        <time>2024-11-20T07:49:34Z</time>
      </trkpt>
      <trkpt lat="48.13952" lon="-3.29841">
        <ele>245.5</ele>
        <time>2024-11-20T07:49:35Z</time>
      </trkpt>
      <trkpt lat="48.13952" lon="-3.2984">
        <ele>245.6</ele>
        <time>2024-11-20T07:49:36Z</time>
      </trkpt>
      <trkpt lat="48.13952" lon="-3.29839">
        <ele>245.7</ele>
        <time>2024-11-20T07:49:37Z</time>
      </trkpt>
      <trkpt lat="48.13952" lon="-3.29837">
        <ele>245.8</ele>
        <time>2024-11-20T07:49:38Z</time>
      </trkpt>
      <trkpt lat="48.13952" lon="-3.29835">
        <ele>245.9</ele>
        <time>2024-11-20T07:49:39Z</time>
      </trkpt>
      <trkpt lat="48.13952" lon="-3.29833">
        <ele>246</ele>
        <time>2024-11-20T07:49:40Z</time>
      </trkpt>
      <trkpt lat="48.13952" lon="-3.29832">
        <ele>246.1</ele>
        <time>2024-11-20T07:49:41Z</time>
      </trkpt>
      <trkpt lat="48.13952" lon="-3.29831">
        <ele>246.1</ele>
        <time>2024-11-20T07:49:42Z</time>
      </trkpt>
      <trkpt lat="48.13951" lon="-3.2983">
        <ele>246.2</ele>
        <time>2024-11-20T07:49:43Z</time>
      </trkpt>
      <trkpt lat="48.13951" lon="-3.29829">
        <ele>246.2</ele>
        <time>2024-11-20T07:49:44Z</time>
      </trkpt>
      <trkpt lat="48.1395" lon="-3.29827">
        <ele>246.3</ele>
        <time>2024-11-20T07:49:45Z</time>
      </trkpt>
      <trkpt lat="48.1395" lon="-3.29825">
        <ele>246.4</ele>
        <time>2024-11-20T07:49:46Z</time>
      </trkpt>
      <trkpt lat="48.13951" lon="-3.29823">
        <ele>246.4</ele>
        <time>2024-11-20T07:49:47Z</time>
      </trkpt>
      <trkpt lat="48.13951" lon="-3.29822">
        <ele>246.5</ele>
        <time>2024-11-20T07:49:48Z</time>
      </trkpt>
      <trkpt lat="48.13951" lon="-3.2982">
        <ele>246.6</ele>
        <time>2024-11-20T07:49:49Z</time>
      </trkpt>
      <trkpt lat="48.13952" lon="-3.29818">
        <ele>246.7</ele>
        <time>2024-11-20T07:49:50Z</time>
      </trkpt>
      <trkpt lat="48.13952" lon="-3.29816">
        <ele>246.8</ele>
        <time>2024-11-20T07:49:51Z</time>
      </trkpt>
      <trkpt lat="48.13952" lon="-3.29815">
        <ele>246.8</ele>
        <time>2024-11-20T07:49:52Z</time>
      </trkpt>
      <trkpt lat="48.13952" lon="-3.29813">
        <ele>246.9</ele>
        <time>2024-11-20T07:49:53Z</time>
      </trkpt>
      <trkpt lat="48.13951" lon="-3.29811">
        <ele>247</ele>
        <time>2024-11-20T07:49:54Z</time>
      </trkpt>
      <trkpt lat="48.13951" lon="-3.29809">
        <ele>247.1</ele>
        <time>2024-11-20T07:49:55Z</time>
      </trkpt>
      <trkpt lat="48.13951" lon="-3.29808">
        <ele>247.1</ele>
        <time>2024-11-20T07:49:56Z</time>
      </trkpt>
      <trkpt lat="48.1395" lon="-3.29806">
        <ele>247.2</ele>
        <time>2024-11-20T07:49:57Z</time>
      </trkpt>
      <trkpt lat="48.1395" lon="-3.29805">
        <ele>247.3</ele>
        <time>2024-11-20T07:49:58Z</time>
      </trkpt>
      <trkpt lat="48.13951" lon="-3.29803">
        <ele>247.4</ele>
        <time>2024-11-20T07:49:59Z</time>
      </trkpt>
      <trkpt lat="48.13951" lon="-3.29801">
        <ele>247.6</ele>
        <time>2024-11-20T07:50:00Z</time>
      </trkpt>
      <trkpt lat="48.13951" lon="-3.29799">
        <ele>247.7</ele>
        <time>2024-11-20T07:50:01Z</time>
      </trkpt>
      <trkpt lat="48.13951" lon="-3.29797">
        <ele>247.9</ele>
        <time>2024-11-20T07:50:02Z</time>
      </trkpt>
      <trkpt lat="48.13951" lon="-3.29795">
        <ele>248</ele>
        <time>2024-11-20T07:50:03Z</time>
      </trkpt>
      <trkpt lat="48.13951" lon="-3.29794">
        <ele>248.1</ele>
        <time>2024-11-20T07:50:04Z</time>
      </trkpt>
      <trkpt lat="48.1395" lon="-3.29793">
        <ele>248.1</ele>
        <time>2024-11-20T07:50:05Z</time>
      </trkpt>
      <trkpt lat="48.1395" lon="-3.29791">
        <ele>248.3</ele>
        <time>2024-11-20T07:50:06Z</time>
      </trkpt>
      <trkpt lat="48.13951" lon="-3.29789">
        <ele>248.5</ele>
        <time>2024-11-20T07:50:07Z</time>
      </trkpt>
      <trkpt lat="48.13951" lon="-3.29786">
        <ele>248.6</ele>
        <time>2024-11-20T07:50:08Z</time>
      </trkpt>
      <trkpt lat="48.13952" lon="-3.29785">
        <ele>248.7</ele>
        <time>2024-11-20T07:50:09Z</time>
      </trkpt>
      <trkpt lat="48.13952" lon="-3.29784">
        <ele>248.9</ele>
        <time>2024-11-20T07:50:10Z</time>
      </trkpt>
      <trkpt lat="48.13953" lon="-3.29782">
        <ele>249</ele>
        <time>2024-11-20T07:50:11Z</time>
      </trkpt>
      <trkpt lat="48.13953" lon="-3.2978">
        <ele>249.1</ele>
        <time>2024-11-20T07:50:12Z</time>
      </trkpt>
      <trkpt lat="48.13953" lon="-3.29779">
        <ele>249.3</ele>
        <time>2024-11-20T07:50:13Z</time>
      </trkpt>
      <trkpt lat="48.13953" lon="-3.29777">
        <ele>249.3</ele>
        <time>2024-11-20T07:50:14Z</time>
      </trkpt>
      <trkpt lat="48.13953" lon="-3.29774">
        <ele>249.3</ele>
        <time>2024-11-20T07:50:15Z</time>
      </trkpt>
      <trkpt lat="48.13953" lon="-3.29772">
        <ele>249.3</ele>
        <time>2024-11-20T07:50:16Z</time>
      </trkpt>
      <trkpt lat="48.13953" lon="-3.2977">
        <ele>249.3</ele>
        <time>2024-11-20T07:50:17Z</time>
      </trkpt>
      <trkpt lat="48.13953" lon="-3.29768">
        <ele>249.3</ele>
        <time>2024-11-20T07:50:18Z</time>
      </trkpt>
      <trkpt lat="48.13954" lon="-3.29766">
        <ele>249.3</ele>
        <time>2024-11-20T07:50:19Z</time>
      </trkpt>
      <trkpt lat="48.13954" lon="-3.29764">
        <ele>249.3</ele>
        <time>2024-11-20T07:50:20Z</time>
      </trkpt>
      <trkpt lat="48.13954" lon="-3.29762">
        <ele>249.3</ele>
        <time>2024-11-20T07:50:21Z</time>
      </trkpt>
      <trkpt lat="48.13954" lon="-3.29759">
        <ele>249.3</ele>
        <time>2024-11-20T07:50:22Z</time>
      </trkpt>
      <trkpt lat="48.13954" lon="-3.29757">
        <ele>249.3</ele>
        <time>2024-11-20T07:50:23Z</time>
      </trkpt>
      <trkpt lat="48.13954" lon="-3.29754">
        <ele>249.3</ele>
        <time>2024-11-20T07:50:24Z</time>
      </trkpt>
      <trkpt lat="48.13953" lon="-3.29752">
        <ele>249.3</ele>
        <time>2024-11-20T07:50:25Z</time>
      </trkpt>
      <trkpt lat="48.13953" lon="-3.29749">
        <ele>249.3</ele>
        <time>2024-11-20T07:50:26Z</time>
      </trkpt>
      <trkpt lat="48.13953" lon="-3.29747">
        <ele>249.4</ele>
        <time>2024-11-20T07:50:27Z</time>
      </trkpt>
      <trkpt lat="48.13953" lon="-3.29745">
        <ele>249.5</ele>
        <time>2024-11-20T07:50:28Z</time>
      </trkpt>
      <trkpt lat="48.13953" lon="-3.29743">
        <ele>249.6</ele>
        <time>2024-11-20T07:50:29Z</time>
      </trkpt>
      <trkpt lat="48.13953" lon="-3.29741">
        <ele>249.7</ele>
        <time>2024-11-20T07:50:30Z</time>
      </trkpt>
      <trkpt lat="48.13953" lon="-3.29738">
        <ele>249.7</ele>
        <time>2024-11-20T07:50:31Z</time>
      </trkpt>
      <trkpt lat="48.13953" lon="-3.29736">
        <ele>249.8</ele>
        <time>2024-11-20T07:50:32Z</time>
      </trkpt>
      <trkpt lat="48.13953" lon="-3.29735">
        <ele>249.9</ele>
        <time>2024-11-20T07:50:33Z</time>
      </trkpt>
      <trkpt lat="48.13953" lon="-3.29733">
        <ele>249.9</ele>
        <time>2024-11-20T07:50:34Z</time>
      </trkpt>
      <trkpt lat="48.13953" lon="-3.29732">
        <ele>250</ele>
        <time>2024-11-20T07:50:35Z</time>
      </trkpt>
      <trkpt lat="48.13953" lon="-3.2973">
        <ele>250</ele>
        <time>2024-11-20T07:50:36Z</time>
      </trkpt>
      <trkpt lat="48.13953" lon="-3.29728">
        <ele>250.1</ele>
        <time>2024-11-20T07:50:37Z</time>
      </trkpt>
      <trkpt lat="48.13953" lon="-3.29726">
        <ele>250.2</ele>
        <time>2024-11-20T07:50:38Z</time>
      </trkpt>
      <trkpt lat="48.13953" lon="-3.29725">
        <ele>250.2</ele>
        <time>2024-11-20T07:50:39Z</time>
      </trkpt>
      <trkpt lat="48.13952" lon="-3.29723">
        <ele>250.3</ele>
        <time>2024-11-20T07:50:40Z</time>
      </trkpt>
      <trkpt lat="48.13952" lon="-3.29722">
        <ele>250.3</ele>
        <time>2024-11-20T07:50:41Z</time>
      </trkpt>
      <trkpt lat="48.13952" lon="-3.2972">
        <ele>250.3</ele>
        <time>2024-11-20T07:50:42Z</time>
      </trkpt>
      <trkpt lat="48.13953" lon="-3.29718">
        <ele>250.3</ele>
        <time>2024-11-20T07:50:43Z</time>
      </trkpt>
      <trkpt lat="48.13953" lon="-3.29716">
        <ele>250.3</ele>
        <time>2024-11-20T07:50:44Z</time>
      </trkpt>
      <trkpt lat="48.13953" lon="-3.29713">
        <ele>250.3</ele>
        <time>2024-11-20T07:50:45Z</time>
      </trkpt>
      <trkpt lat="48.13953" lon="-3.29711">
        <ele>250.3</ele>
        <time>2024-11-20T07:50:46Z</time>
      </trkpt>
      <trkpt lat="48.13953" lon="-3.2971">
        <ele>250.3</ele>
        <time>2024-11-20T07:50:47Z</time>
      </trkpt>
      <trkpt lat="48.13953" lon="-3.29708">
        <ele>250.3</ele>
        <time>2024-11-20T07:50:48Z</time>
      </trkpt>
      <trkpt lat="48.13953" lon="-3.29706">
        <ele>250.3</ele>
        <time>2024-11-20T07:50:49Z</time>
      </trkpt>
      <trkpt lat="48.13953" lon="-3.29704">
        <ele>250.3</ele>
        <time>2024-11-20T07:50:50Z</time>
      </trkpt>
      <trkpt lat="48.13953" lon="-3.29702">
        <ele>250.3</ele>
        <time>2024-11-20T07:50:51Z</time>
      </trkpt>
      <trkpt lat="48.13953" lon="-3.297">
        <ele>250.3</ele>
        <time>2024-11-20T07:50:52Z</time>
      </trkpt>
      <trkpt lat="48.13953" lon="-3.29698">
        <ele>250.3</ele>
        <time>2024-11-20T07:50:53Z</time>
      </trkpt>
      <trkpt lat="48.13953" lon="-3.29696">
        <ele>250.3</ele>
        <time>2024-11-20T07:50:54Z</time>
      </trkpt>
      <trkpt lat="48.13952" lon="-3.29695">
        <ele>250.3</ele>
        <time>2024-11-20T07:50:55Z</time>
      </trkpt>
      <trkpt lat="48.13952" lon="-3.29693">
        <ele>250.3</ele>
        <time>2024-11-20T07:50:56Z</time>
      </trkpt>
      <trkpt lat="48.13952" lon="-3.29691">
        <ele>250.3</ele>
        <time>2024-11-20T07:50:57Z</time>
      </trkpt>
      <trkpt lat="48.13951" lon="-3.29689">
        <ele>250.2</ele>
        <time>2024-11-20T07:50:58Z</time>
      </trkpt>
      <trkpt lat="48.13951" lon="-3.29688">
        <ele>250.2</ele>
        <time>2024-11-20T07:50:59Z</time>
      </trkpt>
      <trkpt lat="48.13951" lon="-3.29686">
        <ele>250.2</ele>
        <time>2024-11-20T07:51:00Z</time>
      </trkpt>
      <trkpt lat="48.13951" lon="-3.29685">
        <ele>250.2</ele>
        <time>2024-11-20T07:51:01Z</time>
      </trkpt>
      <trkpt lat="48.13951" lon="-3.29683">
        <ele>250.2</ele>
        <time>2024-11-20T07:51:02Z</time>
      </trkpt>
      <trkpt lat="48.13951" lon="-3.29681">
        <ele>250.2</ele>
        <time>2024-11-20T07:51:03Z</time>
      </trkpt>
      <trkpt lat="48.13951" lon="-3.29679">
        <ele>250.2</ele>
        <time>2024-11-20T07:51:04Z</time>
      </trkpt>
      <trkpt lat="48.1395" lon="-3.29677">
        <ele>250.2</ele>
        <time>2024-11-20T07:51:05Z</time>
      </trkpt>
      <trkpt lat="48.1395" lon="-3.29675">
        <ele>250.2</ele>
        <time>2024-11-20T07:51:06Z</time>
      </trkpt>
      <trkpt lat="48.1395" lon="-3.29673">
        <ele>250.2</ele>
        <time>2024-11-20T07:51:07Z</time>
      </trkpt>
      <trkpt lat="48.13951" lon="-3.29672">
        <ele>250.2</ele>
        <time>2024-11-20T07:51:08Z</time>
      </trkpt>
      <trkpt lat="48.13951" lon="-3.2967">
        <ele>250.2</ele>
        <time>2024-11-20T07:51:09Z</time>
      </trkpt>
      <trkpt lat="48.13951" lon="-3.29669">
        <ele>250.2</ele>
        <time>2024-11-20T07:51:10Z</time>
      </trkpt>
      <trkpt lat="48.13951" lon="-3.29667">
        <ele>250.3</ele>
        <time>2024-11-20T07:51:11Z</time>
      </trkpt>
      <trkpt lat="48.13951" lon="-3.29665">
        <ele>250.3</ele>
        <time>2024-11-20T07:51:12Z</time>
      </trkpt>
      <trkpt lat="48.13952" lon="-3.29663">
        <ele>250.3</ele>
        <time>2024-11-20T07:51:13Z</time>
      </trkpt>
      <trkpt lat="48.13952" lon="-3.29661">
        <ele>250.3</ele>
        <time>2024-11-20T07:51:14Z</time>
      </trkpt>
      <trkpt lat="48.13952" lon="-3.29659">
        <ele>250.3</ele>
        <time>2024-11-20T07:51:15Z</time>
      </trkpt>
      <trkpt lat="48.13952" lon="-3.29657">
        <ele>250.3</ele>
        <time>2024-11-20T07:51:16Z</time>
      </trkpt>
      <trkpt lat="48.13953" lon="-3.29656">
        <ele>250.3</ele>
        <time>2024-11-20T07:51:17Z</time>
      </trkpt>
      <trkpt lat="48.13953" lon="-3.29655">
        <ele>250.3</ele>
        <time>2024-11-20T07:51:18Z</time>
      </trkpt>
      <trkpt lat="48.13953" lon="-3.29653">
        <ele>250.3</ele>
        <time>2024-11-20T07:51:19Z</time>
      </trkpt>
      <trkpt lat="48.13953" lon="-3.2965">
        <ele>250.3</ele>
        <time>2024-11-20T07:51:20Z</time>
      </trkpt>
      <trkpt lat="48.13953" lon="-3.29648">
        <ele>250.3</ele>
        <time>2024-11-20T07:51:21Z</time>
      </trkpt>
      <trkpt lat="48.13954" lon="-3.29647">
        <ele>250.3</ele>
        <time>2024-11-20T07:51:22Z</time>
      </trkpt>
      <trkpt lat="48.13954" lon="-3.29645">
        <ele>250.3</ele>
        <time>2024-11-20T07:51:23Z</time>
      </trkpt>
      <trkpt lat="48.13954" lon="-3.29644">
        <ele>250.4</ele>
        <time>2024-11-20T07:51:24Z</time>
      </trkpt>
      <trkpt lat="48.13955" lon="-3.29643">
        <ele>250.4</ele>
        <time>2024-11-20T07:51:25Z</time>
      </trkpt>
      <trkpt lat="48.13955" lon="-3.29641">
        <ele>250.4</ele>
        <time>2024-11-20T07:51:26Z</time>
      </trkpt>
      <trkpt lat="48.13955" lon="-3.2964">
        <ele>250.4</ele>
        <time>2024-11-20T07:51:27Z</time>
      </trkpt>
      <trkpt lat="48.13955" lon="-3.29638">
        <ele>250.4</ele>
        <time>2024-11-20T07:51:28Z</time>
      </trkpt>
      <trkpt lat="48.13955" lon="-3.29636">
        <ele>250.4</ele>
        <time>2024-11-20T07:51:29Z</time>
      </trkpt>
      <trkpt lat="48.13955" lon="-3.29633">
        <ele>250.4</ele>
        <time>2024-11-20T07:51:30Z</time>
      </trkpt>
      <trkpt lat="48.13955" lon="-3.29631">
        <ele>250.4</ele>
        <time>2024-11-20T07:51:31Z</time>
      </trkpt>
      <trkpt lat="48.13955" lon="-3.29629">
        <ele>250.4</ele>
        <time>2024-11-20T07:51:32Z</time>
      </trkpt>
      <trkpt lat="48.13954" lon="-3.29627">
        <ele>250.4</ele>
        <time>2024-11-20T07:51:33Z</time>
      </trkpt>
      <trkpt lat="48.13954" lon="-3.29626">
        <ele>250.4</ele>
        <time>2024-11-20T07:51:34Z</time>
      </trkpt>
      <trkpt lat="48.13954" lon="-3.29624">
        <ele>250.3</ele>
        <time>2024-11-20T07:51:35Z</time>
      </trkpt>
      <trkpt lat="48.13954" lon="-3.29622">
        <ele>250.3</ele>
        <time>2024-11-20T07:51:36Z</time>
      </trkpt>
      <trkpt lat="48.13954" lon="-3.2962">
        <ele>250.3</ele>
        <time>2024-11-20T07:51:37Z</time>
      </trkpt>
      <trkpt lat="48.13954" lon="-3.29618">
        <ele>250.4</ele>
        <time>2024-11-20T07:51:38Z</time>
      </trkpt>
      <trkpt lat="48.13954" lon="-3.29616">
        <ele>250.4</ele>
        <time>2024-11-20T07:51:39Z</time>
      </trkpt>
      <trkpt lat="48.13954" lon="-3.29614">
        <ele>250.4</ele>
        <time>2024-11-20T07:51:40Z</time>
      </trkpt>
      <trkpt lat="48.13954" lon="-3.29612">
        <ele>250.4</ele>
        <time>2024-11-20T07:51:41Z</time>
      </trkpt>
      <trkpt lat="48.13954" lon="-3.29611">
        <ele>250.4</ele>
        <time>2024-11-20T07:51:42Z</time>
      </trkpt>
      <trkpt lat="48.13955" lon="-3.2961">
        <ele>250.3</ele>
        <time>2024-11-20T07:51:43Z</time>
      </trkpt>
      <trkpt lat="48.13955" lon="-3.29609">
        <ele>250.3</ele>
        <time>2024-11-20T07:51:44Z</time>
      </trkpt>
      <trkpt lat="48.13955" lon="-3.29607">
        <ele>250.3</ele>
        <time>2024-11-20T07:51:45Z</time>
      </trkpt>
      <trkpt lat="48.13955" lon="-3.29605">
        <ele>250.3</ele>
        <time>2024-11-20T07:51:46Z</time>
      </trkpt>
      <trkpt lat="48.13955" lon="-3.29603">
        <ele>250.2</ele>
        <time>2024-11-20T07:51:47Z</time>
      </trkpt>
      <trkpt lat="48.13955" lon="-3.29602">
        <ele>250.2</ele>
        <time>2024-11-20T07:51:48Z</time>
      </trkpt>
      <trkpt lat="48.13955" lon="-3.29599">
        <ele>250.1</ele>
        <time>2024-11-20T07:51:49Z</time>
      </trkpt>
      <trkpt lat="48.13955" lon="-3.29597">
        <ele>250</ele>
        <time>2024-11-20T07:51:50Z</time>
      </trkpt>
      <trkpt lat="48.13955" lon="-3.29595">
        <ele>250</ele>
        <time>2024-11-20T07:51:51Z</time>
      </trkpt>
      <trkpt lat="48.13955" lon="-3.29593">
        <ele>249.9</ele>
        <time>2024-11-20T07:51:52Z</time>
      </trkpt>
      <trkpt lat="48.13955" lon="-3.29591">
        <ele>249.9</ele>
        <time>2024-11-20T07:51:53Z</time>
      </trkpt>
      <trkpt lat="48.13955" lon="-3.29589">
        <ele>249.9</ele>
        <time>2024-11-20T07:51:54Z</time>
      </trkpt>
      <trkpt lat="48.13955" lon="-3.29588">
        <ele>249.8</ele>
        <time>2024-11-20T07:51:55Z</time>
      </trkpt>
      <trkpt lat="48.13955" lon="-3.29586">
        <ele>249.8</ele>
        <time>2024-11-20T07:51:56Z</time>
      </trkpt>
      <trkpt lat="48.13955" lon="-3.29584">
        <ele>249.8</ele>
        <time>2024-11-20T07:51:57Z</time>
      </trkpt>
      <trkpt lat="48.13955" lon="-3.29581">
        <ele>249.7</ele>
        <time>2024-11-20T07:51:58Z</time>
      </trkpt>
      <trkpt lat="48.13955" lon="-3.29579">
        <ele>249.6</ele>
        <time>2024-11-20T07:51:59Z</time>
      </trkpt>
      <trkpt lat="48.13955" lon="-3.29577">
        <ele>249.5</ele>
        <time>2024-11-20T07:52:00Z</time>
      </trkpt>
      <trkpt lat="48.13954" lon="-3.29575">
        <ele>249.4</ele>
        <time>2024-11-20T07:52:01Z</time>
      </trkpt>
      <trkpt lat="48.13954" lon="-3.29573">
        <ele>249.4</ele>
        <time>2024-11-20T07:52:02Z</time>
      </trkpt>
      <trkpt lat="48.13954" lon="-3.29571">
        <ele>249.2</ele>
        <time>2024-11-20T07:52:03Z</time>
      </trkpt>
      <trkpt lat="48.13954" lon="-3.29569">
        <ele>249.2</ele>
        <time>2024-11-20T07:52:04Z</time>
      </trkpt>
      <trkpt lat="48.13954" lon="-3.29568">
        <ele>249.1</ele>
        <time>2024-11-20T07:52:05Z</time>
      </trkpt>
      <trkpt lat="48.13954" lon="-3.29566">
        <ele>249.1</ele>
        <time>2024-11-20T07:52:06Z</time>
      </trkpt>
      <trkpt lat="48.13954" lon="-3.29565">
        <ele>249</ele>
        <time>2024-11-20T07:52:07Z</time>
      </trkpt>
      <trkpt lat="48.13954" lon="-3.29563">
        <ele>248.9</ele>
        <time>2024-11-20T07:52:08Z</time>
      </trkpt>
      <trkpt lat="48.13954" lon="-3.2956">
        <ele>248.8</ele>
        <time>2024-11-20T07:52:09Z</time>
      </trkpt>
      <trkpt lat="48.13953" lon="-3.29558">
        <ele>248.7</ele>
        <time>2024-11-20T07:52:10Z</time>
      </trkpt>
      <trkpt lat="48.13953" lon="-3.29556">
        <ele>248.7</ele>
        <time>2024-11-20T07:52:11Z</time>
      </trkpt>
      <trkpt lat="48.13954" lon="-3.29555">
        <ele>248.6</ele>
        <time>2024-11-20T07:52:12Z</time>
      </trkpt>
      <trkpt lat="48.13954" lon="-3.29553">
        <ele>248.6</ele>
        <time>2024-11-20T07:52:13Z</time>
      </trkpt>
      <trkpt lat="48.13954" lon="-3.29551">
        <ele>248.5</ele>
        <time>2024-11-20T07:52:14Z</time>
      </trkpt>
      <trkpt lat="48.13954" lon="-3.29549">
        <ele>248.4</ele>
        <time>2024-11-20T07:52:15Z</time>
      </trkpt>
      <trkpt lat="48.13954" lon="-3.29547">
        <ele>248.3</ele>
        <time>2024-11-20T07:52:16Z</time>
      </trkpt>
      <trkpt lat="48.13954" lon="-3.29546">
        <ele>248.2</ele>
        <time>2024-11-20T07:52:17Z</time>
      </trkpt>
      <trkpt lat="48.13954" lon="-3.29544">
        <ele>248.1</ele>
        <time>2024-11-20T07:52:18Z</time>
      </trkpt>
      <trkpt lat="48.13954" lon="-3.29542">
        <ele>248</ele>
        <time>2024-11-20T07:52:19Z</time>
      </trkpt>
      <trkpt lat="48.13954" lon="-3.29541">
        <ele>248</ele>
        <time>2024-11-20T07:52:20Z</time>
      </trkpt>
      <trkpt lat="48.13954" lon="-3.29539">
        <ele>247.9</ele>
        <time>2024-11-20T07:52:21Z</time>
      </trkpt>
      <trkpt lat="48.13954" lon="-3.29539">
        <ele>247.9</ele>
        <time>2024-11-20T07:52:22Z</time>
      </trkpt>
      <trkpt lat="48.13953" lon="-3.29537">
        <ele>247.8</ele>
        <time>2024-11-20T07:52:23Z</time>
      </trkpt>
      <trkpt lat="48.13953" lon="-3.29535">
        <ele>247.7</ele>
        <time>2024-11-20T07:52:24Z</time>
      </trkpt>
      <trkpt lat="48.13953" lon="-3.29533">
        <ele>247.6</ele>
        <time>2024-11-20T07:52:25Z</time>
      </trkpt>
      <trkpt lat="48.13953" lon="-3.29531">
        <ele>247.5</ele>
        <time>2024-11-20T07:52:26Z</time>
      </trkpt>
      <trkpt lat="48.13953" lon="-3.2953">
        <ele>247.4</ele>
        <time>2024-11-20T07:52:27Z</time>
      </trkpt>
      <trkpt lat="48.13953" lon="-3.29529">
        <ele>247.4</ele>
        <time>2024-11-20T07:52:28Z</time>
      </trkpt>
      <trkpt lat="48.13953" lon="-3.29528">
        <ele>247.3</ele>
        <time>2024-11-20T07:52:29Z</time>
      </trkpt>
      <trkpt lat="48.13953" lon="-3.29526">
        <ele>247.2</ele>
        <time>2024-11-20T07:52:30Z</time>
      </trkpt>
      <trkpt lat="48.13953" lon="-3.29524">
        <ele>247.1</ele>
        <time>2024-11-20T07:52:31Z</time>
      </trkpt>
      <trkpt lat="48.13953" lon="-3.29523">
        <ele>247</ele>
        <time>2024-11-20T07:52:32Z</time>
      </trkpt>
      <trkpt lat="48.13953" lon="-3.29521">
        <ele>246.9</ele>
        <time>2024-11-20T07:52:33Z</time>
      </trkpt>
      <trkpt lat="48.13953" lon="-3.2952">
        <ele>246.8</ele>
        <time>2024-11-20T07:52:34Z</time>
      </trkpt>
      <trkpt lat="48.13953" lon="-3.2952">
        <ele>246.8</ele>
        <time>2024-11-20T07:52:35Z</time>
      </trkpt>
      <trkpt lat="48.13954" lon="-3.29519">
        <ele>246.8</ele>
        <time>2024-11-20T07:52:36Z</time>
      </trkpt>
      <trkpt lat="48.13954" lon="-3.29519">
        <ele>246.8</ele>
        <time>2024-11-20T07:52:37Z</time>
      </trkpt>
      <trkpt lat="48.13954" lon="-3.29518">
        <ele>246.7</ele>
        <time>2024-11-20T07:52:38Z</time>
      </trkpt>
      <trkpt lat="48.13954" lon="-3.29517">
        <ele>246.7</ele>
        <time>2024-11-20T07:52:39Z</time>
      </trkpt>
      <trkpt lat="48.13954" lon="-3.29516">
        <ele>246.6</ele>
        <time>2024-11-20T07:52:40Z</time>
      </trkpt>
      <trkpt lat="48.13954" lon="-3.29515">
        <ele>246.6</ele>
        <time>2024-11-20T07:52:41Z</time>
      </trkpt>
      <trkpt lat="48.13954" lon="-3.29514">
        <ele>246.5</ele>
        <time>2024-11-20T07:52:42Z</time>
      </trkpt>
      <trkpt lat="48.13954" lon="-3.29513">
        <ele>246.4</ele>
        <time>2024-11-20T07:52:43Z</time>
      </trkpt>
      <trkpt lat="48.13954" lon="-3.29511">
        <ele>246.3</ele>
        <time>2024-11-20T07:52:44Z</time>
      </trkpt>
      <trkpt lat="48.13954" lon="-3.2951">
        <ele>246.3</ele>
        <time>2024-11-20T07:52:45Z</time>
      </trkpt>
      <trkpt lat="48.13954" lon="-3.29509">
        <ele>246.2</ele>
        <time>2024-11-20T07:52:46Z</time>
      </trkpt>
      <trkpt lat="48.13954" lon="-3.29507">
        <ele>246.1</ele>
        <time>2024-11-20T07:52:47Z</time>
      </trkpt>
      <trkpt lat="48.13954" lon="-3.29505">
        <ele>246</ele>
        <time>2024-11-20T07:52:48Z</time>
      </trkpt>
      <trkpt lat="48.13954" lon="-3.29503">
        <ele>245.8</ele>
        <time>2024-11-20T07:52:49Z</time>
      </trkpt>
      <trkpt lat="48.13954" lon="-3.29501">
        <ele>245.7</ele>
        <time>2024-11-20T07:52:50Z</time>
      </trkpt>
      <trkpt lat="48.13954" lon="-3.295">
        <ele>245.7</ele>
        <time>2024-11-20T07:52:51Z</time>
      </trkpt>
      <trkpt lat="48.13954" lon="-3.29498">
        <ele>245.6</ele>
        <time>2024-11-20T07:52:52Z</time>
      </trkpt>
      <trkpt lat="48.13954" lon="-3.29497">
        <ele>245.5</ele>
        <time>2024-11-20T07:52:53Z</time>
      </trkpt>
      <trkpt lat="48.13954" lon="-3.29495">
        <ele>245.4</ele>
        <time>2024-11-20T07:52:54Z</time>
      </trkpt>
      <trkpt lat="48.13954" lon="-3.29494">
        <ele>245.3</ele>
        <time>2024-11-20T07:52:55Z</time>
      </trkpt>
      <trkpt lat="48.13953" lon="-3.29492">
        <ele>245.2</ele>
        <time>2024-11-20T07:52:56Z</time>
      </trkpt>
      <trkpt lat="48.13953" lon="-3.29491">
        <ele>245.1</ele>
        <time>2024-11-20T07:52:57Z</time>
      </trkpt>
      <trkpt lat="48.13953" lon="-3.2949">
        <ele>245</ele>
        <time>2024-11-20T07:52:58Z</time>
      </trkpt>
      <trkpt lat="48.13953" lon="-3.29489">
        <ele>244.9</ele>
        <time>2024-11-20T07:52:59Z</time>
      </trkpt>
      <trkpt lat="48.13953" lon="-3.29489">
        <ele>244.9</ele>
        <time>2024-11-20T07:53:00Z</time>
      </trkpt>
      <trkpt lat="48.13953" lon="-3.29488">
        <ele>244.9</ele>
        <time>2024-11-20T07:53:01Z</time>
      </trkpt>
      <trkpt lat="48.13953" lon="-3.29487">
        <ele>244.8</ele>
        <time>2024-11-20T07:53:02Z</time>
      </trkpt>
      <trkpt lat="48.13952" lon="-3.29485">
        <ele>244.6</ele>
        <time>2024-11-20T07:53:03Z</time>
      </trkpt>
      <trkpt lat="48.13952" lon="-3.29482">
        <ele>244.4</ele>
        <time>2024-11-20T07:53:04Z</time>
      </trkpt>
      <trkpt lat="48.13952" lon="-3.29478">
        <ele>244.2</ele>
        <time>2024-11-20T07:53:05Z</time>
      </trkpt>
      <trkpt lat="48.13952" lon="-3.29475">
        <ele>244</ele>
        <time>2024-11-20T07:53:06Z</time>
      </trkpt>
      <trkpt lat="48.13953" lon="-3.29473">
        <ele>243.9</ele>
        <time>2024-11-20T07:53:07Z</time>
      </trkpt>
      <trkpt lat="48.13953" lon="-3.2947">
        <ele>244</ele>
        <time>2024-11-20T07:53:08Z</time>
      </trkpt>
      <trkpt lat="48.13954" lon="-3.29467">
        <ele>244.1</ele>
        <time>2024-11-20T07:53:09Z</time>
      </trkpt>
      <trkpt lat="48.13954" lon="-3.29466">
        <ele>244.1</ele>
        <time>2024-11-20T07:53:10Z</time>
      </trkpt>
      <trkpt lat="48.13954" lon="-3.29464">
        <ele>244.2</ele>
        <time>2024-11-20T07:53:11Z</time>
      </trkpt>
      <trkpt lat="48.13955" lon="-3.29462">
        <ele>244.3</ele>
        <time>2024-11-20T07:53:12Z</time>
      </trkpt>
      <trkpt lat="48.13956" lon="-3.2946">
        <ele>244.4</ele>
        <time>2024-11-20T07:53:13Z</time>
      </trkpt>
      <trkpt lat="48.13957" lon="-3.29459">
        <ele>244.5</ele>
        <time>2024-11-20T07:53:14Z</time>
      </trkpt>
      <trkpt lat="48.13957" lon="-3.29458">
        <ele>244.6</ele>
        <time>2024-11-20T07:53:15Z</time>
      </trkpt>
      <trkpt lat="48.13958" lon="-3.29457">
        <ele>244.7</ele>
        <time>2024-11-20T07:53:16Z</time>
      </trkpt>
      <trkpt lat="48.13959" lon="-3.29456">
        <ele>244.9</ele>
        <time>2024-11-20T07:53:17Z</time>
      </trkpt>
      <trkpt lat="48.1396" lon="-3.29456">
        <ele>245</ele>
        <time>2024-11-20T07:53:18Z</time>
      </trkpt>
      <trkpt lat="48.13961" lon="-3.29456">
        <ele>245.1</ele>
        <time>2024-11-20T07:53:19Z</time>
      </trkpt>
      <trkpt lat="48.13961" lon="-3.29456">
        <ele>245.2</ele>
        <time>2024-11-20T07:53:20Z</time>
      </trkpt>
      <trkpt lat="48.13962" lon="-3.29456">
        <ele>245.3</ele>
        <time>2024-11-20T07:53:21Z</time>
      </trkpt>
      <trkpt lat="48.13963" lon="-3.29457">
        <ele>245.4</ele>
        <time>2024-11-20T07:53:22Z</time>
      </trkpt>
      <trkpt lat="48.13964" lon="-3.29457">
        <ele>245.5</ele>
        <time>2024-11-20T07:53:23Z</time>
      </trkpt>
      <trkpt lat="48.13965" lon="-3.29457">
        <ele>245.6</ele>
        <time>2024-11-20T07:53:24Z</time>
      </trkpt>
      <trkpt lat="48.13966" lon="-3.29457">
        <ele>245.7</ele>
        <time>2024-11-20T07:53:25Z</time>
      </trkpt>
      <trkpt lat="48.13967" lon="-3.29458">
        <ele>245.9</ele>
        <time>2024-11-20T07:53:26Z</time>
      </trkpt>
      <trkpt lat="48.13968" lon="-3.29458">
        <ele>246</ele>
        <time>2024-11-20T07:53:27Z</time>
      </trkpt>
      <trkpt lat="48.13969" lon="-3.29458">
        <ele>246.1</ele>
        <time>2024-11-20T07:53:28Z</time>
      </trkpt>
      <trkpt lat="48.13969" lon="-3.29459">
        <ele>246.1</ele>
        <time>2024-11-20T07:53:29Z</time>
      </trkpt>
      <trkpt lat="48.13971" lon="-3.29459">
        <ele>246.3</ele>
        <time>2024-11-20T07:53:30Z</time>
      </trkpt>
      <trkpt lat="48.13972" lon="-3.29459">
        <ele>246.4</ele>
        <time>2024-11-20T07:53:31Z</time>
      </trkpt>
      <trkpt lat="48.13973" lon="-3.29459">
        <ele>246.5</ele>
        <time>2024-11-20T07:53:32Z</time>
      </trkpt>
      <trkpt lat="48.13974" lon="-3.2946">
        <ele>246.6</ele>
        <time>2024-11-20T07:53:33Z</time>
      </trkpt>
      <trkpt lat="48.13975" lon="-3.2946">
        <ele>246.7</ele>
        <time>2024-11-20T07:53:34Z</time>
      </trkpt>
      <trkpt lat="48.13976" lon="-3.29461">
        <ele>246.7</ele>
        <time>2024-11-20T07:53:35Z</time>
      </trkpt>
      <trkpt lat="48.13977" lon="-3.29461">
        <ele>246.8</ele>
        <time>2024-11-20T07:53:36Z</time>
      </trkpt>
      <trkpt lat="48.13978" lon="-3.29462">
        <ele>246.9</ele>
        <time>2024-11-20T07:53:37Z</time>
      </trkpt>
      <trkpt lat="48.13979" lon="-3.29462">
        <ele>247</ele>
        <time>2024-11-20T07:53:38Z</time>
      </trkpt>
      <trkpt lat="48.1398" lon="-3.29463">
        <ele>247.1</ele>
        <time>2024-11-20T07:53:39Z</time>
      </trkpt>
      <trkpt lat="48.13981" lon="-3.29463">
        <ele>247.1</ele>
        <time>2024-11-20T07:53:40Z</time>
      </trkpt>
      <trkpt lat="48.13981" lon="-3.29463">
        <ele>247.2</ele>
        <time>2024-11-20T07:53:41Z</time>
      </trkpt>
      <trkpt lat="48.13982" lon="-3.29463">
        <ele>247.3</ele>
        <time>2024-11-20T07:53:42Z</time>
      </trkpt>
      <trkpt lat="48.13983" lon="-3.29463">
        <ele>247.4</ele>
        <time>2024-11-20T07:53:43Z</time>
      </trkpt>
      <trkpt lat="48.13984" lon="-3.29463">
        <ele>247.5</ele>
        <time>2024-11-20T07:53:44Z</time>
      </trkpt>
      <trkpt lat="48.13985" lon="-3.29463">
        <ele>247.5</ele>
        <time>2024-11-20T07:53:45Z</time>
      </trkpt>
      <trkpt lat="48.13986" lon="-3.29463">
        <ele>247.6</ele>
        <time>2024-11-20T07:53:46Z</time>
      </trkpt>
      <trkpt lat="48.13986" lon="-3.29463">
        <ele>247.7</ele>
        <time>2024-11-20T07:53:47Z</time>
      </trkpt>
      <trkpt lat="48.13987" lon="-3.29463">
        <ele>247.7</ele>
        <time>2024-11-20T07:53:48Z</time>
      </trkpt>
      <trkpt lat="48.13987" lon="-3.29463">
        <ele>247.8</ele>
        <time>2024-11-20T07:53:49Z</time>
      </trkpt>
      <trkpt lat="48.13988" lon="-3.29463">
        <ele>247.9</ele>
        <time>2024-11-20T07:53:50Z</time>
      </trkpt>
      <trkpt lat="48.13989" lon="-3.29463">
        <ele>247.9</ele>
        <time>2024-11-20T07:53:51Z</time>
      </trkpt>
      <trkpt lat="48.1399" lon="-3.29463">
        <ele>248</ele>
        <time>2024-11-20T07:53:52Z</time>
      </trkpt>
      <trkpt lat="48.13991" lon="-3.29463">
        <ele>248.1</ele>
        <time>2024-11-20T07:53:53Z</time>
      </trkpt>
      <trkpt lat="48.13992" lon="-3.29463">
        <ele>248.2</ele>
        <time>2024-11-20T07:53:54Z</time>
      </trkpt>
      <trkpt lat="48.13993" lon="-3.29464">
        <ele>248.3</ele>
        <time>2024-11-20T07:53:55Z</time>
      </trkpt>
      <trkpt lat="48.13994" lon="-3.29464">
        <ele>248.5</ele>
        <time>2024-11-20T07:53:56Z</time>
      </trkpt>
      <trkpt lat="48.13996" lon="-3.29465">
        <ele>248.6</ele>
        <time>2024-11-20T07:53:57Z</time>
      </trkpt>
      <trkpt lat="48.13997" lon="-3.29465">
        <ele>248.7</ele>
        <time>2024-11-20T07:53:58Z</time>
      </trkpt>
      <trkpt lat="48.13998" lon="-3.29466">
        <ele>248.8</ele>
        <time>2024-11-20T07:53:59Z</time>
      </trkpt>
      <trkpt lat="48.13998" lon="-3.29466">
        <ele>248.8</ele>
        <time>2024-11-20T07:54:00Z</time>
      </trkpt>
      <trkpt lat="48.13999" lon="-3.29467">
        <ele>248.8</ele>
        <time>2024-11-20T07:54:01Z</time>
      </trkpt>
      <trkpt lat="48.14" lon="-3.29467">
        <ele>249</ele>
        <time>2024-11-20T07:54:02Z</time>
      </trkpt>
      <trkpt lat="48.14001" lon="-3.29468">
        <ele>249.1</ele>
        <time>2024-11-20T07:54:03Z</time>
      </trkpt>
      <trkpt lat="48.14002" lon="-3.29468">
        <ele>249.1</ele>
        <time>2024-11-20T07:54:04Z</time>
      </trkpt>
      <trkpt lat="48.14003" lon="-3.29469">
        <ele>249.2</ele>
        <time>2024-11-20T07:54:05Z</time>
      </trkpt>
      <trkpt lat="48.14004" lon="-3.29469">
        <ele>249.3</ele>
        <time>2024-11-20T07:54:06Z</time>
      </trkpt>
      <trkpt lat="48.14006" lon="-3.2947">
        <ele>249.4</ele>
        <time>2024-11-20T07:54:07Z</time>
      </trkpt>
      <trkpt lat="48.14007" lon="-3.2947">
        <ele>249.5</ele>
        <time>2024-11-20T07:54:08Z</time>
      </trkpt>
      <trkpt lat="48.14008" lon="-3.2947">
        <ele>249.6</ele>
        <time>2024-11-20T07:54:09Z</time>
      </trkpt>
      <trkpt lat="48.14009" lon="-3.29471">
        <ele>249.6</ele>
        <time>2024-11-20T07:54:10Z</time>
      </trkpt>
      <trkpt lat="48.1401" lon="-3.29471">
        <ele>249.8</ele>
        <time>2024-11-20T07:54:11Z</time>
      </trkpt>
      <trkpt lat="48.14012" lon="-3.29471">
        <ele>249.9</ele>
        <time>2024-11-20T07:54:12Z</time>
      </trkpt>
      <trkpt lat="48.14013" lon="-3.29471">
        <ele>249.9</ele>
        <time>2024-11-20T07:54:13Z</time>
      </trkpt>
      <trkpt lat="48.14014" lon="-3.29472">
        <ele>250</ele>
        <time>2024-11-20T07:54:14Z</time>
      </trkpt>
      <trkpt lat="48.14015" lon="-3.29472">
        <ele>250.1</ele>
        <time>2024-11-20T07:54:15Z</time>
      </trkpt>
      <trkpt lat="48.14016" lon="-3.29472">
        <ele>250.2</ele>
        <time>2024-11-20T07:54:16Z</time>
      </trkpt>
      <trkpt lat="48.14017" lon="-3.29473">
        <ele>250.2</ele>
        <time>2024-11-20T07:54:17Z</time>
      </trkpt>
      <trkpt lat="48.14018" lon="-3.29474">
        <ele>250.3</ele>
        <time>2024-11-20T07:54:18Z</time>
      </trkpt>
      <trkpt lat="48.14019" lon="-3.29474">
        <ele>250.4</ele>
        <time>2024-11-20T07:54:19Z</time>
      </trkpt>
      <trkpt lat="48.1402" lon="-3.29474">
        <ele>250.4</ele>
        <time>2024-11-20T07:54:20Z</time>
      </trkpt>
      <trkpt lat="48.14021" lon="-3.29474">
        <ele>250.5</ele>
        <time>2024-11-20T07:54:21Z</time>
      </trkpt>
      <trkpt lat="48.14022" lon="-3.29474">
        <ele>250.6</ele>
        <time>2024-11-20T07:54:22Z</time>
      </trkpt>
      <trkpt lat="48.14023" lon="-3.29475">
        <ele>250.7</ele>
        <time>2024-11-20T07:54:23Z</time>
      </trkpt>
      <trkpt lat="48.14024" lon="-3.29475">
        <ele>250.7</ele>
        <time>2024-11-20T07:54:24Z</time>
      </trkpt>
      <trkpt lat="48.14025" lon="-3.29475">
        <ele>250.8</ele>
        <time>2024-11-20T07:54:25Z</time>
      </trkpt>
      <trkpt lat="48.14025" lon="-3.29475">
        <ele>250.8</ele>
        <time>2024-11-20T07:54:26Z</time>
      </trkpt>
      <trkpt lat="48.14025" lon="-3.29475">
        <ele>250.8</ele>
        <time>2024-11-20T07:54:27Z</time>
      </trkpt>
      <trkpt lat="48.14026" lon="-3.29475">
        <ele>250.9</ele>
        <time>2024-11-20T07:54:28Z</time>
      </trkpt>
      <trkpt lat="48.14027" lon="-3.29475">
        <ele>251</ele>
        <time>2024-11-20T07:54:29Z</time>
      </trkpt>
      <trkpt lat="48.14028" lon="-3.29476">
        <ele>251</ele>
        <time>2024-11-20T07:54:30Z</time>
      </trkpt>
      <trkpt lat="48.1403" lon="-3.29476">
        <ele>251.1</ele>
        <time>2024-11-20T07:54:31Z</time>
      </trkpt>
      <trkpt lat="48.1403" lon="-3.29477">
        <ele>251.1</ele>
        <time>2024-11-20T07:54:32Z</time>
      </trkpt>
      <trkpt lat="48.14031" lon="-3.29477">
        <ele>251.1</ele>
        <time>2024-11-20T07:54:33Z</time>
      </trkpt>
      <trkpt lat="48.14033" lon="-3.29478">
        <ele>251.1</ele>
        <time>2024-11-20T07:54:34Z</time>
      </trkpt>
      <trkpt lat="48.14034" lon="-3.29478">
        <ele>251.2</ele>
        <time>2024-11-20T07:54:35Z</time>
      </trkpt>
      <trkpt lat="48.14036" lon="-3.29479">
        <ele>251.2</ele>
        <time>2024-11-20T07:54:36Z</time>
      </trkpt>
      <trkpt lat="48.14038" lon="-3.29479">
        <ele>251.3</ele>
        <time>2024-11-20T07:54:37Z</time>
      </trkpt>
      <trkpt lat="48.14039" lon="-3.2948">
        <ele>251.3</ele>
        <time>2024-11-20T07:54:38Z</time>
      </trkpt>
      <trkpt lat="48.14041" lon="-3.2948">
        <ele>251.3</ele>
        <time>2024-11-20T07:54:39Z</time>
      </trkpt>
      <trkpt lat="48.14042" lon="-3.29481">
        <ele>251.4</ele>
        <time>2024-11-20T07:54:40Z</time>
      </trkpt>
      <trkpt lat="48.14043" lon="-3.29481">
        <ele>251.4</ele>
        <time>2024-11-20T07:54:41Z</time>
      </trkpt>
      <trkpt lat="48.14044" lon="-3.29482">
        <ele>251.4</ele>
        <time>2024-11-20T07:54:42Z</time>
      </trkpt>
      <trkpt lat="48.14045" lon="-3.29483">
        <ele>251.4</ele>
        <time>2024-11-20T07:54:43Z</time>
      </trkpt>
      <trkpt lat="48.14047" lon="-3.29484">
        <ele>251.4</ele>
        <time>2024-11-20T07:54:44Z</time>
      </trkpt>
      <trkpt lat="48.14048" lon="-3.29484">
        <ele>251.4</ele>
        <time>2024-11-20T07:54:45Z</time>
      </trkpt>
      <trkpt lat="48.1405" lon="-3.29485">
        <ele>251.4</ele>
        <time>2024-11-20T07:54:46Z</time>
      </trkpt>
      <trkpt lat="48.14051" lon="-3.29485">
        <ele>251.4</ele>
        <time>2024-11-20T07:54:47Z</time>
      </trkpt>
      <trkpt lat="48.14052" lon="-3.29485">
        <ele>251.5</ele>
        <time>2024-11-20T07:54:48Z</time>
      </trkpt>
      <trkpt lat="48.14053" lon="-3.29486">
        <ele>251.5</ele>
        <time>2024-11-20T07:54:49Z</time>
      </trkpt>
      <trkpt lat="48.14055" lon="-3.29486">
        <ele>251.5</ele>
        <time>2024-11-20T07:54:50Z</time>
      </trkpt>
      <trkpt lat="48.14056" lon="-3.29487">
        <ele>251.5</ele>
        <time>2024-11-20T07:54:51Z</time>
      </trkpt>
      <trkpt lat="48.14057" lon="-3.29488">
        <ele>251.4</ele>
        <time>2024-11-20T07:54:52Z</time>
      </trkpt>
      <trkpt lat="48.14058" lon="-3.29489">
        <ele>251.4</ele>
        <time>2024-11-20T07:54:53Z</time>
      </trkpt>
      <trkpt lat="48.14059" lon="-3.29489">
        <ele>251.4</ele>
        <time>2024-11-20T07:54:54Z</time>
      </trkpt>
      <trkpt lat="48.1406" lon="-3.29489">
        <ele>251.4</ele>
        <time>2024-11-20T07:54:55Z</time>
      </trkpt>
      <trkpt lat="48.14061" lon="-3.2949">
        <ele>251.4</ele>
        <time>2024-11-20T07:54:56Z</time>
      </trkpt>
      <trkpt lat="48.14061" lon="-3.29491">
        <ele>251.3</ele>
        <time>2024-11-20T07:54:57Z</time>
      </trkpt>
      <trkpt lat="48.14062" lon="-3.29491">
        <ele>251.3</ele>
        <time>2024-11-20T07:54:58Z</time>
      </trkpt>
      <trkpt lat="48.14063" lon="-3.29491">
        <ele>251.3</ele>
        <time>2024-11-20T07:54:59Z</time>
      </trkpt>
      <trkpt lat="48.14064" lon="-3.29491">
        <ele>251.3</ele>
        <time>2024-11-20T07:55:00Z</time>
      </trkpt>
      <trkpt lat="48.14066" lon="-3.29492">
        <ele>251.3</ele>
        <time>2024-11-20T07:55:01Z</time>
      </trkpt>
      <trkpt lat="48.14067" lon="-3.29493">
        <ele>251.3</ele>
        <time>2024-11-20T07:55:02Z</time>
      </trkpt>
      <trkpt lat="48.14068" lon="-3.29494">
        <ele>251.2</ele>
        <time>2024-11-20T07:55:03Z</time>
      </trkpt>
      <trkpt lat="48.14069" lon="-3.29495">
        <ele>251.2</ele>
        <time>2024-11-20T07:55:04Z</time>
      </trkpt>
      <trkpt lat="48.14071" lon="-3.29496">
        <ele>251.1</ele>
        <time>2024-11-20T07:55:05Z</time>
      </trkpt>
      <trkpt lat="48.14072" lon="-3.29497">
        <ele>251.1</ele>
        <time>2024-11-20T07:55:06Z</time>
      </trkpt>
      <trkpt lat="48.14073" lon="-3.29498">
        <ele>251.1</ele>
        <time>2024-11-20T07:55:07Z</time>
      </trkpt>
      <trkpt lat="48.14075" lon="-3.29498">
        <ele>251.1</ele>
        <time>2024-11-20T07:55:08Z</time>
      </trkpt>
      <trkpt lat="48.14076" lon="-3.29498">
        <ele>251.1</ele>
        <time>2024-11-20T07:55:09Z</time>
      </trkpt>
      <trkpt lat="48.14077" lon="-3.29498">
        <ele>251.1</ele>
        <time>2024-11-20T07:55:10Z</time>
      </trkpt>
      <trkpt lat="48.14078" lon="-3.29498">
        <ele>251.1</ele>
        <time>2024-11-20T07:55:11Z</time>
      </trkpt>
      <trkpt lat="48.1408" lon="-3.29499">
        <ele>251.1</ele>
        <time>2024-11-20T07:55:12Z</time>
      </trkpt>
      <trkpt lat="48.14082" lon="-3.29499">
        <ele>251</ele>
        <time>2024-11-20T07:55:13Z</time>
      </trkpt>
      <trkpt lat="48.14083" lon="-3.295">
        <ele>251</ele>
        <time>2024-11-20T07:55:14Z</time>
      </trkpt>
      <trkpt lat="48.14084" lon="-3.29501">
        <ele>250.9</ele>
        <time>2024-11-20T07:55:15Z</time>
      </trkpt>
      <trkpt lat="48.14085" lon="-3.29502">
        <ele>250.8</ele>
        <time>2024-11-20T07:55:16Z</time>
      </trkpt>
      <trkpt lat="48.14086" lon="-3.29503">
        <ele>250.7</ele>
        <time>2024-11-20T07:55:17Z</time>
      </trkpt>
      <trkpt lat="48.14088" lon="-3.29504">
        <ele>250.5</ele>
        <time>2024-11-20T07:55:18Z</time>
      </trkpt>
      <trkpt lat="48.14089" lon="-3.29505">
        <ele>250.3</ele>
        <time>2024-11-20T07:55:19Z</time>
      </trkpt>
      <trkpt lat="48.1409" lon="-3.29507">
        <ele>250.2</ele>
        <time>2024-11-20T07:55:20Z</time>
      </trkpt>
      <trkpt lat="48.14091" lon="-3.29509">
        <ele>250.1</ele>
        <time>2024-11-20T07:55:21Z</time>
      </trkpt>
      <trkpt lat="48.14092" lon="-3.2951">
        <ele>250</ele>
        <time>2024-11-20T07:55:22Z</time>
      </trkpt>
      <trkpt lat="48.14092" lon="-3.2951">
        <ele>249.9</ele>
        <time>2024-11-20T07:55:23Z</time>
      </trkpt>
      <trkpt lat="48.14093" lon="-3.29511">
        <ele>249.8</ele>
        <time>2024-11-20T07:55:24Z</time>
      </trkpt>
      <trkpt lat="48.14094" lon="-3.29511">
        <ele>249.7</ele>
        <time>2024-11-20T07:55:25Z</time>
      </trkpt>
      <trkpt lat="48.14095" lon="-3.29511">
        <ele>249.6</ele>
        <time>2024-11-20T07:55:26Z</time>
      </trkpt>
      <trkpt lat="48.14096" lon="-3.29511">
        <ele>249.5</ele>
        <time>2024-11-20T07:55:27Z</time>
      </trkpt>
      <trkpt lat="48.14096" lon="-3.29511">
        <ele>249.4</ele>
        <time>2024-11-20T07:55:28Z</time>
      </trkpt>
      <trkpt lat="48.14097" lon="-3.29511">
        <ele>249.3</ele>
        <time>2024-11-20T07:55:29Z</time>
      </trkpt>
      <trkpt lat="48.14098" lon="-3.2951">
        <ele>249.3</ele>
        <time>2024-11-20T07:55:30Z</time>
      </trkpt>
      <trkpt lat="48.14098" lon="-3.29511">
        <ele>249.2</ele>
        <time>2024-11-20T07:55:31Z</time>
      </trkpt>
      <trkpt lat="48.14099" lon="-3.29513">
        <ele>249</ele>
        <time>2024-11-20T07:55:32Z</time>
      </trkpt>
      <trkpt lat="48.14101" lon="-3.29513">
        <ele>248.8</ele>
        <time>2024-11-20T07:55:33Z</time>
      </trkpt>
      <trkpt lat="48.14102" lon="-3.29513">
        <ele>248.7</ele>
        <time>2024-11-20T07:55:34Z</time>
      </trkpt>
      <trkpt lat="48.14104" lon="-3.29513">
        <ele>248.5</ele>
        <time>2024-11-20T07:55:35Z</time>
      </trkpt>
      <trkpt lat="48.14105" lon="-3.29513">
        <ele>248.3</ele>
        <time>2024-11-20T07:55:36Z</time>
      </trkpt>
      <trkpt lat="48.14107" lon="-3.29513">
        <ele>248.1</ele>
        <time>2024-11-20T07:55:37Z</time>
      </trkpt>
      <trkpt lat="48.14108" lon="-3.29514">
        <ele>248</ele>
        <time>2024-11-20T07:55:38Z</time>
      </trkpt>
      <trkpt lat="48.14108" lon="-3.29514">
        <ele>247.9</ele>
        <time>2024-11-20T07:55:39Z</time>
      </trkpt>
      <trkpt lat="48.14109" lon="-3.29513">
        <ele>247.8</ele>
        <time>2024-11-20T07:55:40Z</time>
      </trkpt>
      <trkpt lat="48.1411" lon="-3.29513">
        <ele>247.7</ele>
        <time>2024-11-20T07:55:41Z</time>
      </trkpt>
      <trkpt lat="48.14111" lon="-3.29513">
        <ele>247.5</ele>
        <time>2024-11-20T07:55:42Z</time>
      </trkpt>
      <trkpt lat="48.14113" lon="-3.29513">
        <ele>247.3</ele>
        <time>2024-11-20T07:55:43Z</time>
      </trkpt>
      <trkpt lat="48.14114" lon="-3.29513">
        <ele>247.2</ele>
        <time>2024-11-20T07:55:44Z</time>
      </trkpt>
      <trkpt lat="48.14115" lon="-3.29512">
        <ele>247</ele>
        <time>2024-11-20T07:55:45Z</time>
      </trkpt>
      <trkpt lat="48.14117" lon="-3.29512">
        <ele>246.9</ele>
        <time>2024-11-20T07:55:46Z</time>
      </trkpt>
      <trkpt lat="48.14118" lon="-3.29511">
        <ele>246.8</ele>
        <time>2024-11-20T07:55:47Z</time>
      </trkpt>
      <trkpt lat="48.14119" lon="-3.29511">
        <ele>246.7</ele>
        <time>2024-11-20T07:55:48Z</time>
      </trkpt>
      <trkpt lat="48.1412" lon="-3.2951">
        <ele>246.6</ele>
        <time>2024-11-20T07:55:49Z</time>
      </trkpt>
      <trkpt lat="48.14121" lon="-3.2951">
        <ele>246.5</ele>
        <time>2024-11-20T07:55:50Z</time>
      </trkpt>
      <trkpt lat="48.14122" lon="-3.29509">
        <ele>246.4</ele>
        <time>2024-11-20T07:55:51Z</time>
      </trkpt>
      <trkpt lat="48.14122" lon="-3.29508">
        <ele>246.4</ele>
        <time>2024-11-20T07:55:52Z</time>
      </trkpt>
      <trkpt lat="48.14124" lon="-3.29507">
        <ele>246.3</ele>
        <time>2024-11-20T07:55:53Z</time>
      </trkpt>
      <trkpt lat="48.14125" lon="-3.29506">
        <ele>246.2</ele>
        <time>2024-11-20T07:55:54Z</time>
      </trkpt>
      <trkpt lat="48.14126" lon="-3.29505">
        <ele>246.1</ele>
        <time>2024-11-20T07:55:55Z</time>
      </trkpt>
      <trkpt lat="48.14127" lon="-3.29504">
        <ele>246.1</ele>
        <time>2024-11-20T07:55:56Z</time>
      </trkpt>
      <trkpt lat="48.14128" lon="-3.29503">
        <ele>246</ele>
        <time>2024-11-20T07:55:57Z</time>
      </trkpt>
      <trkpt lat="48.14129" lon="-3.29502">
        <ele>245.9</ele>
        <time>2024-11-20T07:55:58Z</time>
      </trkpt>
      <trkpt lat="48.1413" lon="-3.29501">
        <ele>245.9</ele>
        <time>2024-11-20T07:55:59Z</time>
      </trkpt>
      <trkpt lat="48.14131" lon="-3.295">
        <ele>245.8</ele>
        <time>2024-11-20T07:56:00Z</time>
      </trkpt>
      <trkpt lat="48.14132" lon="-3.29499">
        <ele>245.8</ele>
        <time>2024-11-20T07:56:01Z</time>
      </trkpt>
      <trkpt lat="48.14133" lon="-3.29498">
        <ele>245.9</ele>
        <time>2024-11-20T07:56:02Z</time>
      </trkpt>
      <trkpt lat="48.14133" lon="-3.29497">
        <ele>245.9</ele>
        <time>2024-11-20T07:56:03Z</time>
      </trkpt>
      <trkpt lat="48.14134" lon="-3.29496">
        <ele>246</ele>
        <time>2024-11-20T07:56:04Z</time>
      </trkpt>
      <trkpt lat="48.14135" lon="-3.29495">
        <ele>246</ele>
        <time>2024-11-20T07:56:05Z</time>
      </trkpt>
      <trkpt lat="48.14135" lon="-3.29495">
        <ele>246</ele>
        <time>2024-11-20T07:56:06Z</time>
      </trkpt>
      <trkpt lat="48.14136" lon="-3.29494">
        <ele>246</ele>
        <time>2024-11-20T07:56:07Z</time>
      </trkpt>
      <trkpt lat="48.14137" lon="-3.29492">
        <ele>246</ele>
        <time>2024-11-20T07:56:08Z</time>
      </trkpt>
      <trkpt lat="48.14138" lon="-3.29491">
        <ele>246.1</ele>
        <time>2024-11-20T07:56:09Z</time>
      </trkpt>
      <trkpt lat="48.14139" lon="-3.29489">
        <ele>246.1</ele>
        <time>2024-11-20T07:56:10Z</time>
      </trkpt>
      <trkpt lat="48.1414" lon="-3.29488">
        <ele>246.2</ele>
        <time>2024-11-20T07:56:11Z</time>
      </trkpt>
      <trkpt lat="48.14141" lon="-3.29487">
        <ele>246.2</ele>
        <time>2024-11-20T07:56:12Z</time>
      </trkpt>
      <trkpt lat="48.14142" lon="-3.29485">
        <ele>246.1</ele>
        <time>2024-11-20T07:56:13Z</time>
      </trkpt>
      <trkpt lat="48.14143" lon="-3.29484">
        <ele>246</ele>
        <time>2024-11-20T07:56:14Z</time>
      </trkpt>
      <trkpt lat="48.14145" lon="-3.29483">
        <ele>245.9</ele>
        <time>2024-11-20T07:56:15Z</time>
      </trkpt>
      <trkpt lat="48.14147" lon="-3.29482">
        <ele>245.7</ele>
        <time>2024-11-20T07:56:16Z</time>
      </trkpt>
      <trkpt lat="48.14148" lon="-3.29481">
        <ele>245.5</ele>
        <time>2024-11-20T07:56:17Z</time>
      </trkpt>
      <trkpt lat="48.14149" lon="-3.2948">
        <ele>245.4</ele>
        <time>2024-11-20T07:56:18Z</time>
      </trkpt>
      <trkpt lat="48.14152" lon="-3.29478">
        <ele>245.1</ele>
        <time>2024-11-20T07:56:19Z</time>
      </trkpt>
      <trkpt lat="48.14153" lon="-3.29477">
        <ele>245</ele>
        <time>2024-11-20T07:56:20Z</time>
      </trkpt>
      <trkpt lat="48.14154" lon="-3.29476">
        <ele>245</ele>
        <time>2024-11-20T07:56:21Z</time>
      </trkpt>
      <trkpt lat="48.14155" lon="-3.29475">
        <ele>244.9</ele>
        <time>2024-11-20T07:56:22Z</time>
      </trkpt>
      <trkpt lat="48.14156" lon="-3.29473">
        <ele>244.8</ele>
        <time>2024-11-20T07:56:23Z</time>
      </trkpt>
      <trkpt lat="48.14157" lon="-3.29472">
        <ele>244.7</ele>
        <time>2024-11-20T07:56:24Z</time>
      </trkpt>
      <trkpt lat="48.14158" lon="-3.29471">
        <ele>244.6</ele>
        <time>2024-11-20T07:56:25Z</time>
      </trkpt>
      <trkpt lat="48.1416" lon="-3.29469">
        <ele>244.4</ele>
        <time>2024-11-20T07:56:26Z</time>
      </trkpt>
      <trkpt lat="48.14161" lon="-3.29468">
        <ele>244.2</ele>
        <time>2024-11-20T07:56:27Z</time>
      </trkpt>
      <trkpt lat="48.14162" lon="-3.29467">
        <ele>244</ele>
        <time>2024-11-20T07:56:28Z</time>
      </trkpt>
      <trkpt lat="48.14163" lon="-3.29466">
        <ele>243.9</ele>
        <time>2024-11-20T07:56:29Z</time>
      </trkpt>
      <trkpt lat="48.14164" lon="-3.29465">
        <ele>243.8</ele>
        <time>2024-11-20T07:56:30Z</time>
      </trkpt>
      <trkpt lat="48.14165" lon="-3.29464">
        <ele>243.6</ele>
        <time>2024-11-20T07:56:31Z</time>
      </trkpt>
      <trkpt lat="48.14166" lon="-3.29462">
        <ele>243.6</ele>
        <time>2024-11-20T07:56:32Z</time>
      </trkpt>
      <trkpt lat="48.14166" lon="-3.29461">
        <ele>243.5</ele>
        <time>2024-11-20T07:56:33Z</time>
      </trkpt>
      <trkpt lat="48.14167" lon="-3.2946">
        <ele>243.4</ele>
        <time>2024-11-20T07:56:34Z</time>
      </trkpt>
      <trkpt lat="48.14168" lon="-3.29458">
        <ele>243.3</ele>
        <time>2024-11-20T07:56:35Z</time>
      </trkpt>
      <trkpt lat="48.14169" lon="-3.29456">
        <ele>243.2</ele>
        <time>2024-11-20T07:56:36Z</time>
      </trkpt>
      <trkpt lat="48.1417" lon="-3.29455">
        <ele>243.2</ele>
        <time>2024-11-20T07:56:37Z</time>
      </trkpt>
      <trkpt lat="48.14171" lon="-3.29453">
        <ele>243.1</ele>
        <time>2024-11-20T07:56:38Z</time>
      </trkpt>
      <trkpt lat="48.14172" lon="-3.29452">
        <ele>242.9</ele>
        <time>2024-11-20T07:56:39Z</time>
      </trkpt>
      <trkpt lat="48.14173" lon="-3.2945">
        <ele>242.8</ele>
        <time>2024-11-20T07:56:40Z</time>
      </trkpt>
      <trkpt lat="48.14174" lon="-3.29449">
        <ele>242.6</ele>
        <time>2024-11-20T07:56:41Z</time>
      </trkpt>
      <trkpt lat="48.14175" lon="-3.29448">
        <ele>242.5</ele>
        <time>2024-11-20T07:56:42Z</time>
      </trkpt>
      <trkpt lat="48.14176" lon="-3.29447">
        <ele>242.4</ele>
        <time>2024-11-20T07:56:43Z</time>
      </trkpt>
      <trkpt lat="48.14176" lon="-3.29445">
        <ele>242.3</ele>
        <time>2024-11-20T07:56:44Z</time>
      </trkpt>
      <trkpt lat="48.14176" lon="-3.29444">
        <ele>242.3</ele>
        <time>2024-11-20T07:56:45Z</time>
      </trkpt>
      <trkpt lat="48.14177" lon="-3.29443">
        <ele>242.2</ele>
        <time>2024-11-20T07:56:46Z</time>
      </trkpt>
      <trkpt lat="48.14178" lon="-3.29442">
        <ele>242.1</ele>
        <time>2024-11-20T07:56:47Z</time>
      </trkpt>
      <trkpt lat="48.14179" lon="-3.29441">
        <ele>241.9</ele>
        <time>2024-11-20T07:56:48Z</time>
      </trkpt>
      <trkpt lat="48.1418" lon="-3.29439">
        <ele>241.8</ele>
        <time>2024-11-20T07:56:49Z</time>
      </trkpt>
      <trkpt lat="48.14181" lon="-3.29437">
        <ele>241.7</ele>
        <time>2024-11-20T07:56:50Z</time>
      </trkpt>
      <trkpt lat="48.14182" lon="-3.29435">
        <ele>241.6</ele>
        <time>2024-11-20T07:56:51Z</time>
      </trkpt>
      <trkpt lat="48.14183" lon="-3.29433">
        <ele>241.5</ele>
        <time>2024-11-20T07:56:52Z</time>
      </trkpt>
      <trkpt lat="48.14183" lon="-3.29431">
        <ele>241.4</ele>
        <time>2024-11-20T07:56:53Z</time>
      </trkpt>
      <trkpt lat="48.14184" lon="-3.29429">
        <ele>241.3</ele>
        <time>2024-11-20T07:56:54Z</time>
      </trkpt>
      <trkpt lat="48.14185" lon="-3.29427">
        <ele>241.2</ele>
        <time>2024-11-20T07:56:55Z</time>
      </trkpt>
      <trkpt lat="48.14185" lon="-3.29425">
        <ele>241.2</ele>
        <time>2024-11-20T07:56:56Z</time>
      </trkpt>
      <trkpt lat="48.14185" lon="-3.29423">
        <ele>241.2</ele>
        <time>2024-11-20T07:56:57Z</time>
      </trkpt>
      <trkpt lat="48.14185" lon="-3.29422">
        <ele>241.2</ele>
        <time>2024-11-20T07:56:58Z</time>
      </trkpt>
      <trkpt lat="48.14186" lon="-3.2942">
        <ele>241.2</ele>
        <time>2024-11-20T07:56:59Z</time>
      </trkpt>
      <trkpt lat="48.14186" lon="-3.29419">
        <ele>241.2</ele>
        <time>2024-11-20T07:57:00Z</time>
      </trkpt>
      <trkpt lat="48.14186" lon="-3.29417">
        <ele>241.2</ele>
        <time>2024-11-20T07:57:01Z</time>
      </trkpt>
      <trkpt lat="48.14186" lon="-3.29416">
        <ele>241.2</ele>
        <time>2024-11-20T07:57:02Z</time>
      </trkpt>
      <trkpt lat="48.14185" lon="-3.29415">
        <ele>241.3</ele>
        <time>2024-11-20T07:57:03Z</time>
      </trkpt>
      <trkpt lat="48.14185" lon="-3.29413">
        <ele>241.3</ele>
        <time>2024-11-20T07:57:04Z</time>
      </trkpt>
      <trkpt lat="48.14185" lon="-3.2941">
        <ele>241.2</ele>
        <time>2024-11-20T07:57:05Z</time>
      </trkpt>
      <trkpt lat="48.14186" lon="-3.29407">
        <ele>240.9</ele>
        <time>2024-11-20T07:57:06Z</time>
      </trkpt>
      <trkpt lat="48.14186" lon="-3.29405">
        <ele>240.7</ele>
        <time>2024-11-20T07:57:07Z</time>
      </trkpt>
      <trkpt lat="48.14187" lon="-3.29403">
        <ele>240.5</ele>
        <time>2024-11-20T07:57:08Z</time>
      </trkpt>
      <trkpt lat="48.14187" lon="-3.29401">
        <ele>240.4</ele>
        <time>2024-11-20T07:57:09Z</time>
      </trkpt>
      <trkpt lat="48.14187" lon="-3.29398">
        <ele>240.4</ele>
        <time>2024-11-20T07:57:10Z</time>
      </trkpt>
      <trkpt lat="48.14186" lon="-3.29396">
        <ele>240.5</ele>
        <time>2024-11-20T07:57:11Z</time>
      </trkpt>
      <trkpt lat="48.14186" lon="-3.29393">
        <ele>240.5</ele>
        <time>2024-11-20T07:57:12Z</time>
      </trkpt>
      <trkpt lat="48.14186" lon="-3.29392">
        <ele>240.5</ele>
        <time>2024-11-20T07:57:13Z</time>
      </trkpt>
      <trkpt lat="48.14186" lon="-3.2939">
        <ele>240.5</ele>
        <time>2024-11-20T07:57:14Z</time>
      </trkpt>
      <trkpt lat="48.14186" lon="-3.2939">
        <ele>240.5</ele>
        <time>2024-11-20T07:57:15Z</time>
      </trkpt>
      <trkpt lat="48.14186" lon="-3.29389">
        <ele>240.5</ele>
        <time>2024-11-20T07:57:16Z</time>
      </trkpt>
      <trkpt lat="48.14186" lon="-3.29388">
        <ele>240.6</ele>
        <time>2024-11-20T07:57:17Z</time>
      </trkpt>
      <trkpt lat="48.14185" lon="-3.29386">
        <ele>240.6</ele>
        <time>2024-11-20T07:57:18Z</time>
      </trkpt>
      <trkpt lat="48.14186" lon="-3.29385">
        <ele>240.6</ele>
        <time>2024-11-20T07:57:19Z</time>
      </trkpt>
      <trkpt lat="48.14186" lon="-3.29384">
        <ele>240.5</ele>
        <time>2024-11-20T07:57:20Z</time>
      </trkpt>
      <trkpt lat="48.14186" lon="-3.29383">
        <ele>240.4</ele>
        <time>2024-11-20T07:57:21Z</time>
      </trkpt>
      <trkpt lat="48.14186" lon="-3.29381">
        <ele>240.4</ele>
        <time>2024-11-20T07:57:22Z</time>
      </trkpt>
      <trkpt lat="48.14186" lon="-3.29379">
        <ele>240.4</ele>
        <time>2024-11-20T07:57:23Z</time>
      </trkpt>
      <trkpt lat="48.14186" lon="-3.29378">
        <ele>240.5</ele>
        <time>2024-11-20T07:57:24Z</time>
      </trkpt>
      <trkpt lat="48.14186" lon="-3.29376">
        <ele>240.4</ele>
        <time>2024-11-20T07:57:25Z</time>
      </trkpt>
      <trkpt lat="48.14186" lon="-3.29374">
        <ele>240.4</ele>
        <time>2024-11-20T07:57:26Z</time>
      </trkpt>
      <trkpt lat="48.14186" lon="-3.29373">
        <ele>240.4</ele>
        <time>2024-11-20T07:57:27Z</time>
      </trkpt>
      <trkpt lat="48.14186" lon="-3.29371">
        <ele>240.3</ele>
        <time>2024-11-20T07:57:28Z</time>
      </trkpt>
      <trkpt lat="48.14187" lon="-3.29369">
        <ele>240.2</ele>
        <time>2024-11-20T07:57:29Z</time>
      </trkpt>
      <trkpt lat="48.14187" lon="-3.29367">
        <ele>240.2</ele>
        <time>2024-11-20T07:57:30Z</time>
      </trkpt>
      <trkpt lat="48.14187" lon="-3.29366">
        <ele>240.2</ele>
        <time>2024-11-20T07:57:31Z</time>
      </trkpt>
      <trkpt lat="48.14187" lon="-3.29364">
        <ele>240.1</ele>
        <time>2024-11-20T07:57:32Z</time>
      </trkpt>
      <trkpt lat="48.14187" lon="-3.29362">
        <ele>240</ele>
        <time>2024-11-20T07:57:33Z</time>
      </trkpt>
      <trkpt lat="48.14188" lon="-3.2936">
        <ele>239.9</ele>
        <time>2024-11-20T07:57:34Z</time>
      </trkpt>
      <trkpt lat="48.14188" lon="-3.29357">
        <ele>239.8</ele>
        <time>2024-11-20T07:57:35Z</time>
      </trkpt>
      <trkpt lat="48.14188" lon="-3.29355">
        <ele>239.7</ele>
        <time>2024-11-20T07:57:36Z</time>
      </trkpt>
      <trkpt lat="48.14188" lon="-3.29353">
        <ele>239.5</ele>
        <time>2024-11-20T07:57:37Z</time>
      </trkpt>
      <trkpt lat="48.14188" lon="-3.29351">
        <ele>239.4</ele>
        <time>2024-11-20T07:57:38Z</time>
      </trkpt>
      <trkpt lat="48.14188" lon="-3.2935">
        <ele>239.5</ele>
        <time>2024-11-20T07:57:39Z</time>
      </trkpt>
      <trkpt lat="48.14187" lon="-3.29348">
        <ele>239.5</ele>
        <time>2024-11-20T07:57:40Z</time>
      </trkpt>
      <trkpt lat="48.14188" lon="-3.29346">
        <ele>239.4</ele>
        <time>2024-11-20T07:57:41Z</time>
      </trkpt>
      <trkpt lat="48.14188" lon="-3.29343">
        <ele>239.3</ele>
        <time>2024-11-20T07:57:42Z</time>
      </trkpt>
      <trkpt lat="48.14188" lon="-3.29341">
        <ele>239.2</ele>
        <time>2024-11-20T07:57:43Z</time>
      </trkpt>
      <trkpt lat="48.14188" lon="-3.29339">
        <ele>239.1</ele>
        <time>2024-11-20T07:57:44Z</time>
      </trkpt>
      <trkpt lat="48.14188" lon="-3.29337">
        <ele>239</ele>
        <time>2024-11-20T07:57:45Z</time>
      </trkpt>
      <trkpt lat="48.14188" lon="-3.29335">
        <ele>239</ele>
        <time>2024-11-20T07:57:46Z</time>
      </trkpt>
      <trkpt lat="48.14188" lon="-3.29334">
        <ele>239</ele>
        <time>2024-11-20T07:57:47Z</time>
      </trkpt>
      <trkpt lat="48.14187" lon="-3.29333">
        <ele>239.1</ele>
        <time>2024-11-20T07:57:48Z</time>
      </trkpt>
      <trkpt lat="48.14187" lon="-3.29331">
        <ele>239</ele>
        <time>2024-11-20T07:57:49Z</time>
      </trkpt>
      <trkpt lat="48.14187" lon="-3.2933">
        <ele>238.9</ele>
        <time>2024-11-20T07:57:50Z</time>
      </trkpt>
      <trkpt lat="48.14188" lon="-3.29329">
        <ele>238.8</ele>
        <time>2024-11-20T07:57:51Z</time>
      </trkpt>
      <trkpt lat="48.14188" lon="-3.29328">
        <ele>238.6</ele>
        <time>2024-11-20T07:57:52Z</time>
      </trkpt>
      <trkpt lat="48.14189" lon="-3.29327">
        <ele>238.4</ele>
        <time>2024-11-20T07:57:53Z</time>
      </trkpt>
      <trkpt lat="48.14188" lon="-3.29326">
        <ele>238.4</ele>
        <time>2024-11-20T07:57:54Z</time>
      </trkpt>
      <trkpt lat="48.14188" lon="-3.29323">
        <ele>238.4</ele>
        <time>2024-11-20T07:57:55Z</time>
      </trkpt>
      <trkpt lat="48.14187" lon="-3.29321">
        <ele>238.6</ele>
        <time>2024-11-20T07:57:56Z</time>
      </trkpt>
      <trkpt lat="48.14186" lon="-3.29319">
        <ele>238.7</ele>
        <time>2024-11-20T07:57:57Z</time>
      </trkpt>
      <trkpt lat="48.14186" lon="-3.29317">
        <ele>238.8</ele>
        <time>2024-11-20T07:57:58Z</time>
      </trkpt>
      <trkpt lat="48.14185" lon="-3.29315">
        <ele>238.8</ele>
        <time>2024-11-20T07:57:59Z</time>
      </trkpt>
      <trkpt lat="48.14185" lon="-3.29313">
        <ele>238.8</ele>
        <time>2024-11-20T07:58:00Z</time>
      </trkpt>
      <trkpt lat="48.14185" lon="-3.29312">
        <ele>238.7</ele>
        <time>2024-11-20T07:58:01Z</time>
      </trkpt>
      <trkpt lat="48.14185" lon="-3.2931">
        <ele>238.5</ele>
        <time>2024-11-20T07:58:02Z</time>
      </trkpt>
      <trkpt lat="48.14186" lon="-3.29308">
        <ele>238.3</ele>
        <time>2024-11-20T07:58:03Z</time>
      </trkpt>
      <trkpt lat="48.14186" lon="-3.29306">
        <ele>238.1</ele>
        <time>2024-11-20T07:58:04Z</time>
      </trkpt>
      <trkpt lat="48.14186" lon="-3.29304">
        <ele>238</ele>
        <time>2024-11-20T07:58:05Z</time>
      </trkpt>
      <trkpt lat="48.14186" lon="-3.29302">
        <ele>238</ele>
        <time>2024-11-20T07:58:06Z</time>
      </trkpt>
      <trkpt lat="48.14186" lon="-3.293">
        <ele>238</ele>
        <time>2024-11-20T07:58:07Z</time>
      </trkpt>
      <trkpt lat="48.14185" lon="-3.29299">
        <ele>238.1</ele>
        <time>2024-11-20T07:58:08Z</time>
      </trkpt>
      <trkpt lat="48.14185" lon="-3.29297">
        <ele>238.1</ele>
        <time>2024-11-20T07:58:09Z</time>
      </trkpt>
      <trkpt lat="48.14185" lon="-3.29295">
        <ele>238.1</ele>
        <time>2024-11-20T07:58:10Z</time>
      </trkpt>
      <trkpt lat="48.14184" lon="-3.29295">
        <ele>238.2</ele>
        <time>2024-11-20T07:58:11Z</time>
      </trkpt>
      <trkpt lat="48.14184" lon="-3.29294">
        <ele>238.2</ele>
        <time>2024-11-20T07:58:12Z</time>
      </trkpt>
      <trkpt lat="48.14184" lon="-3.29292">
        <ele>238.2</ele>
        <time>2024-11-20T07:58:13Z</time>
      </trkpt>
      <trkpt lat="48.14183" lon="-3.2929">
        <ele>238.3</ele>
        <time>2024-11-20T07:58:14Z</time>
      </trkpt>
      <trkpt lat="48.14183" lon="-3.29288">
        <ele>238.4</ele>
        <time>2024-11-20T07:58:15Z</time>
      </trkpt>
      <trkpt lat="48.14182" lon="-3.29287">
        <ele>238.5</ele>
        <time>2024-11-20T07:58:16Z</time>
      </trkpt>
      <trkpt lat="48.14182" lon="-3.29284">
        <ele>238.5</ele>
        <time>2024-11-20T07:58:17Z</time>
      </trkpt>
      <trkpt lat="48.14182" lon="-3.29283">
        <ele>238.3</ele>
        <time>2024-11-20T07:58:18Z</time>
      </trkpt>
      <trkpt lat="48.14182" lon="-3.29281">
        <ele>238.2</ele>
        <time>2024-11-20T07:58:19Z</time>
      </trkpt>
      <trkpt lat="48.14182" lon="-3.29279">
        <ele>238.2</ele>
        <time>2024-11-20T07:58:20Z</time>
      </trkpt>
      <trkpt lat="48.14182" lon="-3.29277">
        <ele>238.2</ele>
        <time>2024-11-20T07:58:21Z</time>
      </trkpt>
      <trkpt lat="48.14181" lon="-3.29275">
        <ele>238.2</ele>
        <time>2024-11-20T07:58:22Z</time>
      </trkpt>
      <trkpt lat="48.14182" lon="-3.29273">
        <ele>238.1</ele>
        <time>2024-11-20T07:58:23Z</time>
      </trkpt>
      <trkpt lat="48.14181" lon="-3.29272">
        <ele>238.1</ele>
        <time>2024-11-20T07:58:24Z</time>
      </trkpt>
      <trkpt lat="48.14181" lon="-3.2927">
        <ele>238</ele>
        <time>2024-11-20T07:58:25Z</time>
      </trkpt>
      <trkpt lat="48.14182" lon="-3.29268">
        <ele>237.9</ele>
        <time>2024-11-20T07:58:26Z</time>
      </trkpt>
      <trkpt lat="48.14182" lon="-3.29266">
        <ele>237.8</ele>
        <time>2024-11-20T07:58:27Z</time>
      </trkpt>
      <trkpt lat="48.14182" lon="-3.29264">
        <ele>237.8</ele>
        <time>2024-11-20T07:58:28Z</time>
      </trkpt>
      <trkpt lat="48.14182" lon="-3.29263">
        <ele>237.7</ele>
        <time>2024-11-20T07:58:29Z</time>
      </trkpt>
      <trkpt lat="48.14182" lon="-3.29261">
        <ele>237.6</ele>
        <time>2024-11-20T07:58:30Z</time>
      </trkpt>
      <trkpt lat="48.14182" lon="-3.29259">
        <ele>237.5</ele>
        <time>2024-11-20T07:58:31Z</time>
      </trkpt>
      <trkpt lat="48.14182" lon="-3.29258">
        <ele>237.4</ele>
        <time>2024-11-20T07:58:32Z</time>
      </trkpt>
      <trkpt lat="48.14182" lon="-3.29256">
        <ele>237.3</ele>
        <time>2024-11-20T07:58:33Z</time>
      </trkpt>
      <trkpt lat="48.14182" lon="-3.29255">
        <ele>237.3</ele>
        <time>2024-11-20T07:58:34Z</time>
      </trkpt>
      <trkpt lat="48.14181" lon="-3.29252">
        <ele>237.4</ele>
        <time>2024-11-20T07:58:36Z</time>
      </trkpt>
      <trkpt lat="48.14181" lon="-3.2925">
        <ele>237.4</ele>
        <time>2024-11-20T07:58:37Z</time>
      </trkpt>
      <trkpt lat="48.14181" lon="-3.29249">
        <ele>237.3</ele>
        <time>2024-11-20T07:58:38Z</time>
      </trkpt>
      <trkpt lat="48.14181" lon="-3.29248">
        <ele>237.3</ele>
        <time>2024-11-20T07:58:39Z</time>
      </trkpt>
      <trkpt lat="48.1418" lon="-3.29246">
        <ele>237.3</ele>
        <time>2024-11-20T07:58:40Z</time>
      </trkpt>
      <trkpt lat="48.1418" lon="-3.29245">
        <ele>237.2</ele>
        <time>2024-11-20T07:58:41Z</time>
      </trkpt>
      <trkpt lat="48.1418" lon="-3.29244">
        <ele>237.1</ele>
        <time>2024-11-20T07:58:42Z</time>
      </trkpt>
      <trkpt lat="48.1418" lon="-3.29242">
        <ele>237.1</ele>
        <time>2024-11-20T07:58:43Z</time>
      </trkpt>
      <trkpt lat="48.14179" lon="-3.29241">
        <ele>237.1</ele>
        <time>2024-11-20T07:58:44Z</time>
      </trkpt>
      <trkpt lat="48.14179" lon="-3.2924">
        <ele>237</ele>
        <time>2024-11-20T07:58:45Z</time>
      </trkpt>
      <trkpt lat="48.1418" lon="-3.29238">
        <ele>236.9</ele>
        <time>2024-11-20T07:58:46Z</time>
      </trkpt>
      <trkpt lat="48.1418" lon="-3.29238">
        <ele>236.8</ele>
        <time>2024-11-20T07:58:47Z</time>
      </trkpt>
      <trkpt lat="48.1418" lon="-3.29237">
        <ele>236.7</ele>
        <time>2024-11-20T07:58:48Z</time>
      </trkpt>
      <trkpt lat="48.14179" lon="-3.29235">
        <ele>236.7</ele>
        <time>2024-11-20T07:58:49Z</time>
      </trkpt>
      <trkpt lat="48.14179" lon="-3.29234">
        <ele>236.8</ele>
        <time>2024-11-20T07:58:50Z</time>
      </trkpt>
      <trkpt lat="48.14178" lon="-3.29234">
        <ele>236.8</ele>
        <time>2024-11-20T07:58:51Z</time>
      </trkpt>
      <trkpt lat="48.14178" lon="-3.29233">
        <ele>236.9</ele>
        <time>2024-11-20T07:58:52Z</time>
      </trkpt>
      <trkpt lat="48.14177" lon="-3.29232">
        <ele>237</ele>
        <time>2024-11-20T07:58:53Z</time>
      </trkpt>
      <trkpt lat="48.14176" lon="-3.29231">
        <ele>237</ele>
        <time>2024-11-20T07:58:54Z</time>
      </trkpt>
      <trkpt lat="48.14176" lon="-3.2923">
        <ele>237.1</ele>
        <time>2024-11-20T07:58:55Z</time>
      </trkpt>
      <trkpt lat="48.14175" lon="-3.29229">
        <ele>237.1</ele>
        <time>2024-11-20T07:58:56Z</time>
      </trkpt>
      <trkpt lat="48.14175" lon="-3.29229">
        <ele>237.1</ele>
        <time>2024-11-20T07:58:57Z</time>
      </trkpt>
      <trkpt lat="48.14175" lon="-3.29229">
        <ele>237.2</ele>
        <time>2024-11-20T07:58:58Z</time>
      </trkpt>
      <trkpt lat="48.14174" lon="-3.29229">
        <ele>237.2</ele>
        <time>2024-11-20T07:58:59Z</time>
      </trkpt>
      <trkpt lat="48.14174" lon="-3.29228">
        <ele>237.2</ele>
        <time>2024-11-20T07:59:00Z</time>
      </trkpt>
      <trkpt lat="48.14174" lon="-3.29228">
        <ele>237.2</ele>
        <time>2024-11-20T07:59:01Z</time>
      </trkpt>
      <trkpt lat="48.14174" lon="-3.29228">
        <ele>237.2</ele>
        <time>2024-11-20T07:59:02Z</time>
      </trkpt>
      <trkpt lat="48.14173" lon="-3.29227">
        <ele>237.3</ele>
        <time>2024-11-20T07:59:03Z</time>
      </trkpt>
      <trkpt lat="48.14172" lon="-3.29226">
        <ele>237.4</ele>
        <time>2024-11-20T07:59:04Z</time>
      </trkpt>
      <trkpt lat="48.14171" lon="-3.29224">
        <ele>237.4</ele>
        <time>2024-11-20T07:59:05Z</time>
      </trkpt>
      <trkpt lat="48.1417" lon="-3.29223">
        <ele>237.5</ele>
        <time>2024-11-20T07:59:06Z</time>
      </trkpt>
      <trkpt lat="48.14169" lon="-3.29221">
        <ele>237.4</ele>
        <time>2024-11-20T07:59:07Z</time>
      </trkpt>
      <trkpt lat="48.14168" lon="-3.2922">
        <ele>237.4</ele>
        <time>2024-11-20T07:59:08Z</time>
      </trkpt>
      <trkpt lat="48.14168" lon="-3.29218">
        <ele>237.3</ele>
        <time>2024-11-20T07:59:09Z</time>
      </trkpt>
      <trkpt lat="48.14167" lon="-3.29217">
        <ele>237.2</ele>
        <time>2024-11-20T07:59:10Z</time>
      </trkpt>
      <trkpt lat="48.14166" lon="-3.29216">
        <ele>237.2</ele>
        <time>2024-11-20T07:59:11Z</time>
      </trkpt>
      <trkpt lat="48.14165" lon="-3.29215">
        <ele>237.1</ele>
        <time>2024-11-20T07:59:12Z</time>
      </trkpt>
      <trkpt lat="48.14165" lon="-3.29214">
        <ele>237.1</ele>
        <time>2024-11-20T07:59:13Z</time>
      </trkpt>
      <trkpt lat="48.14164" lon="-3.29213">
        <ele>237</ele>
        <time>2024-11-20T07:59:14Z</time>
      </trkpt>
      <trkpt lat="48.14163" lon="-3.29211">
        <ele>236.9</ele>
        <time>2024-11-20T07:59:15Z</time>
      </trkpt>
      <trkpt lat="48.14162" lon="-3.2921">
        <ele>236.8</ele>
        <time>2024-11-20T07:59:16Z</time>
      </trkpt>
      <trkpt lat="48.14161" lon="-3.29208">
        <ele>236.6</ele>
        <time>2024-11-20T07:59:17Z</time>
      </trkpt>
      <trkpt lat="48.14161" lon="-3.29207">
        <ele>236.5</ele>
        <time>2024-11-20T07:59:18Z</time>
      </trkpt>
      <trkpt lat="48.1416" lon="-3.29206">
        <ele>236.5</ele>
        <time>2024-11-20T07:59:19Z</time>
      </trkpt>
      <trkpt lat="48.14159" lon="-3.29205">
        <ele>236.5</ele>
        <time>2024-11-20T07:59:20Z</time>
      </trkpt>
      <trkpt lat="48.14158" lon="-3.29205">
        <ele>236.5</ele>
        <time>2024-11-20T07:59:21Z</time>
      </trkpt>
      <trkpt lat="48.14157" lon="-3.29204">
        <ele>236.6</ele>
        <time>2024-11-20T07:59:22Z</time>
      </trkpt>
      <trkpt lat="48.14156" lon="-3.29203">
        <ele>236.6</ele>
        <time>2024-11-20T07:59:23Z</time>
      </trkpt>
      <trkpt lat="48.14154" lon="-3.29201">
        <ele>236.5</ele>
        <time>2024-11-20T07:59:24Z</time>
      </trkpt>
      <trkpt lat="48.14153" lon="-3.292">
        <ele>236.3</ele>
        <time>2024-11-20T07:59:25Z</time>
      </trkpt>
      <trkpt lat="48.14152" lon="-3.29198">
        <ele>236.2</ele>
        <time>2024-11-20T07:59:26Z</time>
      </trkpt>
      <trkpt lat="48.14151" lon="-3.29197">
        <ele>236.1</ele>
        <time>2024-11-20T07:59:27Z</time>
      </trkpt>
      <trkpt lat="48.1415" lon="-3.29196">
        <ele>236</ele>
        <time>2024-11-20T07:59:28Z</time>
      </trkpt>
      <trkpt lat="48.14149" lon="-3.29195">
        <ele>235.9</ele>
        <time>2024-11-20T07:59:29Z</time>
      </trkpt>
      <trkpt lat="48.14148" lon="-3.29194">
        <ele>235.9</ele>
        <time>2024-11-20T07:59:30Z</time>
      </trkpt>
      <trkpt lat="48.14147" lon="-3.29193">
        <ele>236</ele>
        <time>2024-11-20T07:59:31Z</time>
      </trkpt>
      <trkpt lat="48.14147" lon="-3.29193">
        <ele>236</ele>
        <time>2024-11-20T07:59:32Z</time>
      </trkpt>
      <trkpt lat="48.14146" lon="-3.29193">
        <ele>236.1</ele>
        <time>2024-11-20T07:59:33Z</time>
      </trkpt>
      <trkpt lat="48.14145" lon="-3.29193">
        <ele>236.1</ele>
        <time>2024-11-20T07:59:34Z</time>
      </trkpt>
      <trkpt lat="48.14144" lon="-3.29192">
        <ele>236.2</ele>
        <time>2024-11-20T07:59:35Z</time>
      </trkpt>
      <trkpt lat="48.14143" lon="-3.29192">
        <ele>236.2</ele>
        <time>2024-11-20T07:59:36Z</time>
      </trkpt>
      <trkpt lat="48.14141" lon="-3.2919">
        <ele>236.2</ele>
        <time>2024-11-20T07:59:37Z</time>
      </trkpt>
      <trkpt lat="48.1414" lon="-3.29189">
        <ele>236.1</ele>
        <time>2024-11-20T07:59:38Z</time>
      </trkpt>
      <trkpt lat="48.14139" lon="-3.29187">
        <ele>236</ele>
        <time>2024-11-20T07:59:39Z</time>
      </trkpt>
      <trkpt lat="48.14137" lon="-3.29186">
        <ele>236</ele>
        <time>2024-11-20T07:59:40Z</time>
      </trkpt>
      <trkpt lat="48.14135" lon="-3.29184">
        <ele>236</ele>
        <time>2024-11-20T07:59:41Z</time>
      </trkpt>
      <trkpt lat="48.14134" lon="-3.29183">
        <ele>235.9</ele>
        <time>2024-11-20T07:59:42Z</time>
      </trkpt>
      <trkpt lat="48.14133" lon="-3.29182">
        <ele>235.9</ele>
        <time>2024-11-20T07:59:43Z</time>
      </trkpt>
      <trkpt lat="48.14132" lon="-3.29181">
        <ele>235.8</ele>
        <time>2024-11-20T07:59:44Z</time>
      </trkpt>
      <trkpt lat="48.14131" lon="-3.2918">
        <ele>235.8</ele>
        <time>2024-11-20T07:59:45Z</time>
      </trkpt>
      <trkpt lat="48.1413" lon="-3.29179">
        <ele>235.8</ele>
        <time>2024-11-20T07:59:46Z</time>
      </trkpt>
      <trkpt lat="48.14129" lon="-3.29179">
        <ele>235.7</ele>
        <time>2024-11-20T07:59:47Z</time>
      </trkpt>
      <trkpt lat="48.14129" lon="-3.29179">
        <ele>235.9</ele>
        <time>2024-11-20T07:59:48Z</time>
      </trkpt>
      <trkpt lat="48.14128" lon="-3.2918">
        <ele>236.1</ele>
        <time>2024-11-20T07:59:49Z</time>
      </trkpt>
      <trkpt lat="48.14127" lon="-3.2918">
        <ele>236.2</ele>
        <time>2024-11-20T07:59:50Z</time>
      </trkpt>
      <trkpt lat="48.14126" lon="-3.2918">
        <ele>236.4</ele>
        <time>2024-11-20T07:59:51Z</time>
      </trkpt>
      <trkpt lat="48.14124" lon="-3.2918">
        <ele>236.4</ele>
        <time>2024-11-20T07:59:52Z</time>
      </trkpt>
      <trkpt lat="48.14123" lon="-3.29179">
        <ele>236.4</ele>
        <time>2024-11-20T07:59:53Z</time>
      </trkpt>
      <trkpt lat="48.14123" lon="-3.29179">
        <ele>236.4</ele>
        <time>2024-11-20T07:59:54Z</time>
      </trkpt>
      <trkpt lat="48.14121" lon="-3.29178">
        <ele>236.5</ele>
        <time>2024-11-20T07:59:55Z</time>
      </trkpt>
      <trkpt lat="48.1412" lon="-3.29178">
        <ele>236.5</ele>
        <time>2024-11-20T07:59:56Z</time>
      </trkpt>
      <trkpt lat="48.14118" lon="-3.29177">
        <ele>236.5</ele>
        <time>2024-11-20T07:59:57Z</time>
      </trkpt>
      <trkpt lat="48.14116" lon="-3.29176">
        <ele>236.5</ele>
        <time>2024-11-20T07:59:58Z</time>
      </trkpt>
      <trkpt lat="48.14114" lon="-3.29175">
        <ele>236.6</ele>
        <time>2024-11-20T07:59:59Z</time>
      </trkpt>
      <trkpt lat="48.14113" lon="-3.29175">
        <ele>236.6</ele>
        <time>2024-11-20T08:00:00Z</time>
      </trkpt>
      <trkpt lat="48.14112" lon="-3.29175">
        <ele>236.6</ele>
        <time>2024-11-20T08:00:01Z</time>
      </trkpt>
      <trkpt lat="48.14111" lon="-3.29174">
        <ele>236.6</ele>
        <time>2024-11-20T08:00:02Z</time>
      </trkpt>
      <trkpt lat="48.14109" lon="-3.29173">
        <ele>236.6</ele>
        <time>2024-11-20T08:00:03Z</time>
      </trkpt>
      <trkpt lat="48.14108" lon="-3.29173">
        <ele>236.7</ele>
        <time>2024-11-20T08:00:04Z</time>
      </trkpt>
      <trkpt lat="48.14107" lon="-3.29173">
        <ele>236.8</ele>
        <time>2024-11-20T08:00:05Z</time>
      </trkpt>
      <trkpt lat="48.14106" lon="-3.29173">
        <ele>236.8</ele>
        <time>2024-11-20T08:00:06Z</time>
      </trkpt>
      <trkpt lat="48.14105" lon="-3.29172">
        <ele>236.8</ele>
        <time>2024-11-20T08:00:07Z</time>
      </trkpt>
      <trkpt lat="48.14104" lon="-3.29172">
        <ele>236.8</ele>
        <time>2024-11-20T08:00:08Z</time>
      </trkpt>
      <trkpt lat="48.14103" lon="-3.29171">
        <ele>236.8</ele>
        <time>2024-11-20T08:00:09Z</time>
      </trkpt>
      <trkpt lat="48.14102" lon="-3.29171">
        <ele>236.8</ele>
        <time>2024-11-20T08:00:10Z</time>
      </trkpt>
      <trkpt lat="48.14101" lon="-3.2917">
        <ele>236.8</ele>
        <time>2024-11-20T08:00:11Z</time>
      </trkpt>
      <trkpt lat="48.141" lon="-3.29169">
        <ele>236.7</ele>
        <time>2024-11-20T08:00:12Z</time>
      </trkpt>
      <trkpt lat="48.14098" lon="-3.29168">
        <ele>236.6</ele>
        <time>2024-11-20T08:00:13Z</time>
      </trkpt>
      <trkpt lat="48.14096" lon="-3.29166">
        <ele>236.6</ele>
        <time>2024-11-20T08:00:14Z</time>
      </trkpt>
      <trkpt lat="48.14095" lon="-3.29166">
        <ele>236.7</ele>
        <time>2024-11-20T08:00:15Z</time>
      </trkpt>
      <trkpt lat="48.14094" lon="-3.29165">
        <ele>236.8</ele>
        <time>2024-11-20T08:00:16Z</time>
      </trkpt>
      <trkpt lat="48.14093" lon="-3.29164">
        <ele>236.8</ele>
        <time>2024-11-20T08:00:17Z</time>
      </trkpt>
      <trkpt lat="48.14092" lon="-3.29164">
        <ele>236.9</ele>
        <time>2024-11-20T08:00:18Z</time>
      </trkpt>
      <trkpt lat="48.14091" lon="-3.29162">
        <ele>237</ele>
        <time>2024-11-20T08:00:19Z</time>
      </trkpt>
      <trkpt lat="48.1409" lon="-3.29162">
        <ele>237.1</ele>
        <time>2024-11-20T08:00:20Z</time>
      </trkpt>
      <trkpt lat="48.14089" lon="-3.29162">
        <ele>237.2</ele>
        <time>2024-11-20T08:00:21Z</time>
      </trkpt>
      <trkpt lat="48.14088" lon="-3.29161">
        <ele>237.2</ele>
        <time>2024-11-20T08:00:22Z</time>
      </trkpt>
      <trkpt lat="48.14088" lon="-3.29161">
        <ele>237.3</ele>
        <time>2024-11-20T08:00:23Z</time>
      </trkpt>
      <trkpt lat="48.14087" lon="-3.2916">
        <ele>237.3</ele>
        <time>2024-11-20T08:00:24Z</time>
      </trkpt>
      <trkpt lat="48.14087" lon="-3.2916">
        <ele>237.3</ele>
        <time>2024-11-20T08:00:25Z</time>
      </trkpt>
      <trkpt lat="48.14087" lon="-3.29159">
        <ele>237.3</ele>
        <time>2024-11-20T08:00:26Z</time>
      </trkpt>
      <trkpt lat="48.14086" lon="-3.29159">
        <ele>237.4</ele>
        <time>2024-11-20T08:00:27Z</time>
      </trkpt>
      <trkpt lat="48.14085" lon="-3.29158">
        <ele>237.4</ele>
        <time>2024-11-20T08:00:28Z</time>
      </trkpt>
      <trkpt lat="48.14085" lon="-3.29157">
        <ele>237.5</ele>
        <time>2024-11-20T08:00:29Z</time>
      </trkpt>
      <trkpt lat="48.14085" lon="-3.29157">
        <ele>237.5</ele>
        <time>2024-11-20T08:00:30Z</time>
      </trkpt>
      <trkpt lat="48.14085" lon="-3.29157">
        <ele>237.5</ele>
        <time>2024-11-20T08:00:31Z</time>
      </trkpt>
      <trkpt lat="48.14085" lon="-3.29157">
        <ele>237.5</ele>
        <time>2024-11-20T08:00:32Z</time>
      </trkpt>
      <trkpt lat="48.14085" lon="-3.29157">
        <ele>237.5</ele>
        <time>2024-11-20T08:00:33Z</time>
      </trkpt>
      <trkpt lat="48.14085" lon="-3.29156">
        <ele>237.5</ele>
        <time>2024-11-20T08:00:34Z</time>
      </trkpt>
      <trkpt lat="48.14084" lon="-3.29155">
        <ele>237.5</ele>
        <time>2024-11-20T08:00:35Z</time>
      </trkpt>
      <trkpt lat="48.14084" lon="-3.29154">
        <ele>237.5</ele>
        <time>2024-11-20T08:00:36Z</time>
      </trkpt>
      <trkpt lat="48.14083" lon="-3.29153">
        <ele>237.5</ele>
        <time>2024-11-20T08:00:37Z</time>
      </trkpt>
      <trkpt lat="48.14083" lon="-3.29152">
        <ele>237.6</ele>
        <time>2024-11-20T08:00:38Z</time>
      </trkpt>
      <trkpt lat="48.14082" lon="-3.2915">
        <ele>237.6</ele>
        <time>2024-11-20T08:00:39Z</time>
      </trkpt>
      <trkpt lat="48.14082" lon="-3.29149">
        <ele>237.6</ele>
        <time>2024-11-20T08:00:40Z</time>
      </trkpt>
      <trkpt lat="48.14082" lon="-3.29148">
        <ele>237.6</ele>
        <time>2024-11-20T08:00:41Z</time>
      </trkpt>
      <trkpt lat="48.14081" lon="-3.29146">
        <ele>237.7</ele>
        <time>2024-11-20T08:00:42Z</time>
      </trkpt>
      <trkpt lat="48.1408" lon="-3.29145">
        <ele>237.8</ele>
        <time>2024-11-20T08:00:43Z</time>
      </trkpt>
      <trkpt lat="48.1408" lon="-3.29143">
        <ele>237.8</ele>
        <time>2024-11-20T08:00:44Z</time>
      </trkpt>
      <trkpt lat="48.14079" lon="-3.29141">
        <ele>237.8</ele>
        <time>2024-11-20T08:00:45Z</time>
      </trkpt>
      <trkpt lat="48.14078" lon="-3.29139">
        <ele>237.9</ele>
        <time>2024-11-20T08:00:46Z</time>
      </trkpt>
      <trkpt lat="48.14078" lon="-3.29137">
        <ele>238</ele>
        <time>2024-11-20T08:00:47Z</time>
      </trkpt>
      <trkpt lat="48.14077" lon="-3.29136">
        <ele>238</ele>
        <time>2024-11-20T08:00:48Z</time>
      </trkpt>
      <trkpt lat="48.14076" lon="-3.29134">
        <ele>238.1</ele>
        <time>2024-11-20T08:00:49Z</time>
      </trkpt>
      <trkpt lat="48.14076" lon="-3.29132">
        <ele>238.1</ele>
        <time>2024-11-20T08:00:50Z</time>
      </trkpt>
      <trkpt lat="48.14075" lon="-3.2913">
        <ele>238.1</ele>
        <time>2024-11-20T08:00:51Z</time>
      </trkpt>
      <trkpt lat="48.14074" lon="-3.29129">
        <ele>238.2</ele>
        <time>2024-11-20T08:00:52Z</time>
      </trkpt>
      <trkpt lat="48.14074" lon="-3.29128">
        <ele>238.2</ele>
        <time>2024-11-20T08:00:53Z</time>
      </trkpt>
      <trkpt lat="48.14073" lon="-3.29127">
        <ele>238.2</ele>
        <time>2024-11-20T08:00:54Z</time>
      </trkpt>
      <trkpt lat="48.14073" lon="-3.29126">
        <ele>238.2</ele>
        <time>2024-11-20T08:00:55Z</time>
      </trkpt>
      <trkpt lat="48.14073" lon="-3.29125">
        <ele>238.2</ele>
        <time>2024-11-20T08:00:56Z</time>
      </trkpt>
      <trkpt lat="48.14073" lon="-3.29124">
        <ele>238.2</ele>
        <time>2024-11-20T08:00:57Z</time>
      </trkpt>
      <trkpt lat="48.14072" lon="-3.29123">
        <ele>238.2</ele>
        <time>2024-11-20T08:00:58Z</time>
      </trkpt>
      <trkpt lat="48.14072" lon="-3.29123">
        <ele>238.2</ele>
        <time>2024-11-20T08:00:59Z</time>
      </trkpt>
      <trkpt lat="48.14072" lon="-3.29122">
        <ele>238.2</ele>
        <time>2024-11-20T08:01:00Z</time>
      </trkpt>
      <trkpt lat="48.14071" lon="-3.29121">
        <ele>238.3</ele>
        <time>2024-11-20T08:01:01Z</time>
      </trkpt>
      <trkpt lat="48.1407" lon="-3.2912">
        <ele>238.5</ele>
        <time>2024-11-20T08:01:02Z</time>
      </trkpt>
      <trkpt lat="48.14069" lon="-3.29119">
        <ele>238.6</ele>
        <time>2024-11-20T08:01:03Z</time>
      </trkpt>
      <trkpt lat="48.14068" lon="-3.29119">
        <ele>238.6</ele>
        <time>2024-11-20T08:01:04Z</time>
      </trkpt>
      <trkpt lat="48.14067" lon="-3.29117">
        <ele>238.7</ele>
        <time>2024-11-20T08:01:05Z</time>
      </trkpt>
      <trkpt lat="48.14066" lon="-3.29116">
        <ele>238.9</ele>
        <time>2024-11-20T08:01:06Z</time>
      </trkpt>
      <trkpt lat="48.14064" lon="-3.29115">
        <ele>239</ele>
        <time>2024-11-20T08:01:07Z</time>
      </trkpt>
      <trkpt lat="48.14063" lon="-3.29114">
        <ele>239.2</ele>
        <time>2024-11-20T08:01:08Z</time>
      </trkpt>
      <trkpt lat="48.14062" lon="-3.29113">
        <ele>239.3</ele>
        <time>2024-11-20T08:01:09Z</time>
      </trkpt>
      <trkpt lat="48.14061" lon="-3.29112">
        <ele>239.3</ele>
        <time>2024-11-20T08:01:10Z</time>
      </trkpt>
      <trkpt lat="48.1406" lon="-3.2911">
        <ele>239.4</ele>
        <time>2024-11-20T08:01:11Z</time>
      </trkpt>
      <trkpt lat="48.14058" lon="-3.29108">
        <ele>239.5</ele>
        <time>2024-11-20T08:01:12Z</time>
      </trkpt>
      <trkpt lat="48.14057" lon="-3.29105">
        <ele>239.6</ele>
        <time>2024-11-20T08:01:13Z</time>
      </trkpt>
      <trkpt lat="48.14056" lon="-3.29104">
        <ele>239.7</ele>
        <time>2024-11-20T08:01:14Z</time>
      </trkpt>
      <trkpt lat="48.14054" lon="-3.29103">
        <ele>239.8</ele>
        <time>2024-11-20T08:01:15Z</time>
      </trkpt>
      <trkpt lat="48.14053" lon="-3.29102">
        <ele>239.8</ele>
        <time>2024-11-20T08:01:16Z</time>
      </trkpt>
      <trkpt lat="48.14051" lon="-3.29101">
        <ele>239.8</ele>
        <time>2024-11-20T08:01:17Z</time>
      </trkpt>
      <trkpt lat="48.1405" lon="-3.29101">
        <ele>239.9</ele>
        <time>2024-11-20T08:01:18Z</time>
      </trkpt>
      <trkpt lat="48.14049" lon="-3.291">
        <ele>239.9</ele>
        <time>2024-11-20T08:01:19Z</time>
      </trkpt>
      <trkpt lat="48.14048" lon="-3.29099">
        <ele>239.9</ele>
        <time>2024-11-20T08:01:20Z</time>
      </trkpt>
      <trkpt lat="48.14047" lon="-3.29098">
        <ele>239.9</ele>
        <time>2024-11-20T08:01:21Z</time>
      </trkpt>
      <trkpt lat="48.14045" lon="-3.29097">
        <ele>239.9</ele>
        <time>2024-11-20T08:01:22Z</time>
      </trkpt>
      <trkpt lat="48.14044" lon="-3.29097">
        <ele>239.9</ele>
        <time>2024-11-20T08:01:23Z</time>
      </trkpt>
      <trkpt lat="48.14043" lon="-3.29096">
        <ele>239.9</ele>
        <time>2024-11-20T08:01:24Z</time>
      </trkpt>
      <trkpt lat="48.14041" lon="-3.29096">
        <ele>239.9</ele>
        <time>2024-11-20T08:01:25Z</time>
      </trkpt>
      <trkpt lat="48.1404" lon="-3.29096">
        <ele>239.9</ele>
        <time>2024-11-20T08:01:26Z</time>
      </trkpt>
      <trkpt lat="48.14039" lon="-3.29095">
        <ele>240</ele>
        <time>2024-11-20T08:01:27Z</time>
      </trkpt>
      <trkpt lat="48.14038" lon="-3.29095">
        <ele>240</ele>
        <time>2024-11-20T08:01:28Z</time>
      </trkpt>
      <trkpt lat="48.14037" lon="-3.29095">
        <ele>240</ele>
        <time>2024-11-20T08:01:29Z</time>
      </trkpt>
      <trkpt lat="48.14035" lon="-3.29094">
        <ele>240</ele>
        <time>2024-11-20T08:01:30Z</time>
      </trkpt>
      <trkpt lat="48.14034" lon="-3.29093">
        <ele>239.9</ele>
        <time>2024-11-20T08:01:31Z</time>
      </trkpt>
      <trkpt lat="48.14033" lon="-3.29093">
        <ele>239.9</ele>
        <time>2024-11-20T08:01:32Z</time>
      </trkpt>
      <trkpt lat="48.14031" lon="-3.29092">
        <ele>239.9</ele>
        <time>2024-11-20T08:01:33Z</time>
      </trkpt>
      <trkpt lat="48.14031" lon="-3.29093">
        <ele>239.9</ele>
        <time>2024-11-20T08:01:34Z</time>
      </trkpt>
      <trkpt lat="48.1403" lon="-3.29094">
        <ele>240</ele>
        <time>2024-11-20T08:01:35Z</time>
      </trkpt>
      <trkpt lat="48.14029" lon="-3.29094">
        <ele>240.1</ele>
        <time>2024-11-20T08:01:36Z</time>
      </trkpt>
      <trkpt lat="48.14028" lon="-3.29094">
        <ele>240.2</ele>
        <time>2024-11-20T08:01:37Z</time>
      </trkpt>
      <trkpt lat="48.14027" lon="-3.29094">
        <ele>240.1</ele>
        <time>2024-11-20T08:01:38Z</time>
      </trkpt>
      <trkpt lat="48.14026" lon="-3.29094">
        <ele>240.1</ele>
        <time>2024-11-20T08:01:39Z</time>
      </trkpt>
      <trkpt lat="48.14025" lon="-3.29094">
        <ele>240</ele>
        <time>2024-11-20T08:01:40Z</time>
      </trkpt>
      <trkpt lat="48.14024" lon="-3.29094">
        <ele>240</ele>
        <time>2024-11-20T08:01:41Z</time>
      </trkpt>
      <trkpt lat="48.14022" lon="-3.29094">
        <ele>240</ele>
        <time>2024-11-20T08:01:42Z</time>
      </trkpt>
      <trkpt lat="48.14021" lon="-3.29093">
        <ele>239.9</ele>
        <time>2024-11-20T08:01:43Z</time>
      </trkpt>
      <trkpt lat="48.1402" lon="-3.29093">
        <ele>239.8</ele>
        <time>2024-11-20T08:01:44Z</time>
      </trkpt>
      <trkpt lat="48.14018" lon="-3.29093">
        <ele>239.8</ele>
        <time>2024-11-20T08:01:45Z</time>
      </trkpt>
      <trkpt lat="48.14017" lon="-3.29093">
        <ele>239.8</ele>
        <time>2024-11-20T08:01:46Z</time>
      </trkpt>
      <trkpt lat="48.14016" lon="-3.29093">
        <ele>239.8</ele>
        <time>2024-11-20T08:01:47Z</time>
      </trkpt>
      <trkpt lat="48.14016" lon="-3.29094">
        <ele>239.8</ele>
        <time>2024-11-20T08:01:48Z</time>
      </trkpt>
      <trkpt lat="48.14015" lon="-3.29094">
        <ele>239.9</ele>
        <time>2024-11-20T08:01:49Z</time>
      </trkpt>
      <trkpt lat="48.14014" lon="-3.29094">
        <ele>239.9</ele>
        <time>2024-11-20T08:01:50Z</time>
      </trkpt>
      <trkpt lat="48.14012" lon="-3.29094">
        <ele>239.8</ele>
        <time>2024-11-20T08:01:51Z</time>
      </trkpt>
      <trkpt lat="48.14011" lon="-3.29094">
        <ele>239.8</ele>
        <time>2024-11-20T08:01:52Z</time>
      </trkpt>
      <trkpt lat="48.14009" lon="-3.29093">
        <ele>239.7</ele>
        <time>2024-11-20T08:01:53Z</time>
      </trkpt>
      <trkpt lat="48.14008" lon="-3.29093">
        <ele>239.6</ele>
        <time>2024-11-20T08:01:54Z</time>
      </trkpt>
      <trkpt lat="48.14006" lon="-3.29093">
        <ele>239.5</ele>
        <time>2024-11-20T08:01:55Z</time>
      </trkpt>
      <trkpt lat="48.14005" lon="-3.29093">
        <ele>239.5</ele>
        <time>2024-11-20T08:01:56Z</time>
      </trkpt>
      <trkpt lat="48.14003" lon="-3.29093">
        <ele>239.5</ele>
        <time>2024-11-20T08:01:57Z</time>
      </trkpt>
      <trkpt lat="48.14002" lon="-3.29093">
        <ele>239.5</ele>
        <time>2024-11-20T08:01:58Z</time>
      </trkpt>
      <trkpt lat="48.14" lon="-3.29094">
        <ele>239.5</ele>
        <time>2024-11-20T08:01:59Z</time>
      </trkpt>
      <trkpt lat="48.13998" lon="-3.29094">
        <ele>239.5</ele>
        <time>2024-11-20T08:02:00Z</time>
      </trkpt>
      <trkpt lat="48.13997" lon="-3.29094">
        <ele>239.5</ele>
        <time>2024-11-20T08:02:01Z</time>
      </trkpt>
      <trkpt lat="48.13996" lon="-3.29094">
        <ele>239.5</ele>
        <time>2024-11-20T08:02:02Z</time>
      </trkpt>
      <trkpt lat="48.13995" lon="-3.29094">
        <ele>239.4</ele>
        <time>2024-11-20T08:02:03Z</time>
      </trkpt>
      <trkpt lat="48.13994" lon="-3.29094">
        <ele>239.5</ele>
        <time>2024-11-20T08:02:04Z</time>
      </trkpt>
      <trkpt lat="48.13992" lon="-3.29095">
        <ele>239.5</ele>
        <time>2024-11-20T08:02:05Z</time>
      </trkpt>
      <trkpt lat="48.13991" lon="-3.29095">
        <ele>239.5</ele>
        <time>2024-11-20T08:02:06Z</time>
      </trkpt>
      <trkpt lat="48.13989" lon="-3.29095">
        <ele>239.5</ele>
        <time>2024-11-20T08:02:07Z</time>
      </trkpt>
      <trkpt lat="48.13988" lon="-3.29095">
        <ele>239.5</ele>
        <time>2024-11-20T08:02:08Z</time>
      </trkpt>
      <trkpt lat="48.13986" lon="-3.29096">
        <ele>239.5</ele>
        <time>2024-11-20T08:02:09Z</time>
      </trkpt>
      <trkpt lat="48.13985" lon="-3.29096">
        <ele>239.5</ele>
        <time>2024-11-20T08:02:10Z</time>
      </trkpt>
      <trkpt lat="48.13984" lon="-3.29097">
        <ele>239.6</ele>
        <time>2024-11-20T08:02:11Z</time>
      </trkpt>
      <trkpt lat="48.13983" lon="-3.29097">
        <ele>239.7</ele>
        <time>2024-11-20T08:02:12Z</time>
      </trkpt>
      <trkpt lat="48.13982" lon="-3.29099">
        <ele>239.9</ele>
        <time>2024-11-20T08:02:13Z</time>
      </trkpt>
      <trkpt lat="48.13982" lon="-3.291">
        <ele>240.1</ele>
        <time>2024-11-20T08:02:14Z</time>
      </trkpt>
      <trkpt lat="48.13981" lon="-3.29101">
        <ele>240.2</ele>
        <time>2024-11-20T08:02:15Z</time>
      </trkpt>
      <trkpt lat="48.1398" lon="-3.29101">
        <ele>240.3</ele>
        <time>2024-11-20T08:02:16Z</time>
      </trkpt>
      <trkpt lat="48.13979" lon="-3.29102">
        <ele>240.4</ele>
        <time>2024-11-20T08:02:17Z</time>
      </trkpt>
      <trkpt lat="48.13978" lon="-3.29102">
        <ele>240.3</ele>
        <time>2024-11-20T08:02:18Z</time>
      </trkpt>
      <trkpt lat="48.13977" lon="-3.29102">
        <ele>240.4</ele>
        <time>2024-11-20T08:02:19Z</time>
      </trkpt>
      <trkpt lat="48.13975" lon="-3.29102">
        <ele>240.4</ele>
        <time>2024-11-20T08:02:20Z</time>
      </trkpt>
      <trkpt lat="48.13974" lon="-3.29103">
        <ele>240.5</ele>
        <time>2024-11-20T08:02:21Z</time>
      </trkpt>
      <trkpt lat="48.13974" lon="-3.29103">
        <ele>240.5</ele>
        <time>2024-11-20T08:02:22Z</time>
      </trkpt>
      <trkpt lat="48.13973" lon="-3.29103">
        <ele>240.6</ele>
        <time>2024-11-20T08:02:23Z</time>
      </trkpt>
      <trkpt lat="48.13972" lon="-3.29104">
        <ele>240.8</ele>
        <time>2024-11-20T08:02:24Z</time>
      </trkpt>
      <trkpt lat="48.13971" lon="-3.29105">
        <ele>241</ele>
        <time>2024-11-20T08:02:25Z</time>
      </trkpt>
      <trkpt lat="48.1397" lon="-3.29106">
        <ele>241.2</ele>
        <time>2024-11-20T08:02:26Z</time>
      </trkpt>
      <trkpt lat="48.13969" lon="-3.29107">
        <ele>241.3</ele>
        <time>2024-11-20T08:02:27Z</time>
      </trkpt>
      <trkpt lat="48.13968" lon="-3.29107">
        <ele>241.2</ele>
        <time>2024-11-20T08:02:28Z</time>
      </trkpt>
      <trkpt lat="48.13966" lon="-3.29106">
        <ele>241.1</ele>
        <time>2024-11-20T08:02:29Z</time>
      </trkpt>
      <trkpt lat="48.13964" lon="-3.29105">
        <ele>240.9</ele>
        <time>2024-11-20T08:02:30Z</time>
      </trkpt>
      <trkpt lat="48.13963" lon="-3.29105">
        <ele>240.9</ele>
        <time>2024-11-20T08:02:31Z</time>
      </trkpt>
      <trkpt lat="48.13961" lon="-3.29105">
        <ele>240.9</ele>
        <time>2024-11-20T08:02:32Z</time>
      </trkpt>
      <trkpt lat="48.1396" lon="-3.29104">
        <ele>240.9</ele>
        <time>2024-11-20T08:02:33Z</time>
      </trkpt>
      <trkpt lat="48.13958" lon="-3.29104">
        <ele>240.9</ele>
        <time>2024-11-20T08:02:34Z</time>
      </trkpt>
      <trkpt lat="48.13957" lon="-3.29104">
        <ele>240.8</ele>
        <time>2024-11-20T08:02:35Z</time>
      </trkpt>
      <trkpt lat="48.13956" lon="-3.29104">
        <ele>240.8</ele>
        <time>2024-11-20T08:02:36Z</time>
      </trkpt>
      <trkpt lat="48.13955" lon="-3.29104">
        <ele>240.8</ele>
        <time>2024-11-20T08:02:37Z</time>
      </trkpt>
      <trkpt lat="48.13953" lon="-3.29104">
        <ele>240.8</ele>
        <time>2024-11-20T08:02:38Z</time>
      </trkpt>
      <trkpt lat="48.13952" lon="-3.29104">
        <ele>240.9</ele>
        <time>2024-11-20T08:02:39Z</time>
      </trkpt>
      <trkpt lat="48.1395" lon="-3.29104">
        <ele>241</ele>
        <time>2024-11-20T08:02:40Z</time>
      </trkpt>
      <trkpt lat="48.13949" lon="-3.29105">
        <ele>241</ele>
        <time>2024-11-20T08:02:41Z</time>
      </trkpt>
      <trkpt lat="48.13948" lon="-3.29105">
        <ele>241.1</ele>
        <time>2024-11-20T08:02:42Z</time>
      </trkpt>
      <trkpt lat="48.13947" lon="-3.29105">
        <ele>241.1</ele>
        <time>2024-11-20T08:02:43Z</time>
      </trkpt>
      <trkpt lat="48.13946" lon="-3.29106">
        <ele>241.2</ele>
        <time>2024-11-20T08:02:44Z</time>
      </trkpt>
      <trkpt lat="48.13945" lon="-3.29106">
        <ele>241.2</ele>
        <time>2024-11-20T08:02:45Z</time>
      </trkpt>
      <trkpt lat="48.13944" lon="-3.29106">
        <ele>241.3</ele>
        <time>2024-11-20T08:02:46Z</time>
      </trkpt>
      <trkpt lat="48.13943" lon="-3.29106">
        <ele>241.3</ele>
        <time>2024-11-20T08:02:47Z</time>
      </trkpt>
      <trkpt lat="48.13942" lon="-3.29106">
        <ele>241.3</ele>
        <time>2024-11-20T08:02:48Z</time>
      </trkpt>
      <trkpt lat="48.13941" lon="-3.29107">
        <ele>241.4</ele>
        <time>2024-11-20T08:02:49Z</time>
      </trkpt>
      <trkpt lat="48.1394" lon="-3.29107">
        <ele>241.5</ele>
        <time>2024-11-20T08:02:50Z</time>
      </trkpt>
      <trkpt lat="48.13939" lon="-3.29108">
        <ele>241.5</ele>
        <time>2024-11-20T08:02:51Z</time>
      </trkpt>
      <trkpt lat="48.13938" lon="-3.29108">
        <ele>241.6</ele>
        <time>2024-11-20T08:02:52Z</time>
      </trkpt>
      <trkpt lat="48.13937" lon="-3.29109">
        <ele>241.7</ele>
        <time>2024-11-20T08:02:53Z</time>
      </trkpt>
      <trkpt lat="48.13936" lon="-3.29109">
        <ele>241.7</ele>
        <time>2024-11-20T08:02:54Z</time>
      </trkpt>
      <trkpt lat="48.13935" lon="-3.29109">
        <ele>241.7</ele>
        <time>2024-11-20T08:02:55Z</time>
      </trkpt>
      <trkpt lat="48.13934" lon="-3.29109">
        <ele>241.7</ele>
        <time>2024-11-20T08:02:56Z</time>
      </trkpt>
      <trkpt lat="48.13932" lon="-3.29108">
        <ele>241.6</ele>
        <time>2024-11-20T08:02:57Z</time>
      </trkpt>
      <trkpt lat="48.13931" lon="-3.29108">
        <ele>241.6</ele>
        <time>2024-11-20T08:02:58Z</time>
      </trkpt>
      <trkpt lat="48.13931" lon="-3.29108">
        <ele>241.7</ele>
        <time>2024-11-20T08:02:59Z</time>
      </trkpt>
      <trkpt lat="48.1393" lon="-3.29109">
        <ele>241.7</ele>
        <time>2024-11-20T08:03:00Z</time>
      </trkpt>
      <trkpt lat="48.13929" lon="-3.29109">
        <ele>241.8</ele>
        <time>2024-11-20T08:03:01Z</time>
      </trkpt>
      <trkpt lat="48.13927" lon="-3.2911">
        <ele>241.9</ele>
        <time>2024-11-20T08:03:02Z</time>
      </trkpt>
      <trkpt lat="48.13926" lon="-3.2911">
        <ele>241.9</ele>
        <time>2024-11-20T08:03:03Z</time>
      </trkpt>
      <trkpt lat="48.13925" lon="-3.29111">
        <ele>242</ele>
        <time>2024-11-20T08:03:04Z</time>
      </trkpt>
      <trkpt lat="48.13924" lon="-3.29111">
        <ele>242</ele>
        <time>2024-11-20T08:03:05Z</time>
      </trkpt>
      <trkpt lat="48.13923" lon="-3.29111">
        <ele>241.9</ele>
        <time>2024-11-20T08:03:06Z</time>
      </trkpt>
      <trkpt lat="48.13922" lon="-3.2911">
        <ele>241.9</ele>
        <time>2024-11-20T08:03:07Z</time>
      </trkpt>
      <trkpt lat="48.13921" lon="-3.2911">
        <ele>241.8</ele>
        <time>2024-11-20T08:03:08Z</time>
      </trkpt>
      <trkpt lat="48.1392" lon="-3.29109">
        <ele>241.8</ele>
        <time>2024-11-20T08:03:09Z</time>
      </trkpt>
      <trkpt lat="48.13919" lon="-3.29109">
        <ele>241.7</ele>
        <time>2024-11-20T08:03:10Z</time>
      </trkpt>
      <trkpt lat="48.13918" lon="-3.29108">
        <ele>241.6</ele>
        <time>2024-11-20T08:03:11Z</time>
      </trkpt>
      <trkpt lat="48.13917" lon="-3.29107">
        <ele>241.5</ele>
        <time>2024-11-20T08:03:12Z</time>
      </trkpt>
      <trkpt lat="48.13916" lon="-3.29105">
        <ele>241.4</ele>
        <time>2024-11-20T08:03:13Z</time>
      </trkpt>
      <trkpt lat="48.13914" lon="-3.29104">
        <ele>241.3</ele>
        <time>2024-11-20T08:03:14Z</time>
      </trkpt>
      <trkpt lat="48.13913" lon="-3.29103">
        <ele>241.2</ele>
        <time>2024-11-20T08:03:15Z</time>
      </trkpt>
      <trkpt lat="48.13912" lon="-3.29102">
        <ele>241.2</ele>
        <time>2024-11-20T08:03:16Z</time>
      </trkpt>
      <trkpt lat="48.13911" lon="-3.29101">
        <ele>241.1</ele>
        <time>2024-11-20T08:03:17Z</time>
      </trkpt>
      <trkpt lat="48.13909" lon="-3.291">
        <ele>241.1</ele>
        <time>2024-11-20T08:03:18Z</time>
      </trkpt>
      <trkpt lat="48.13908" lon="-3.29099">
        <ele>241</ele>
        <time>2024-11-20T08:03:19Z</time>
      </trkpt>
      <trkpt lat="48.13907" lon="-3.29098">
        <ele>241</ele>
        <time>2024-11-20T08:03:20Z</time>
      </trkpt>
      <trkpt lat="48.13906" lon="-3.29097">
        <ele>240.9</ele>
        <time>2024-11-20T08:03:21Z</time>
      </trkpt>
      <trkpt lat="48.13905" lon="-3.29097">
        <ele>240.9</ele>
        <time>2024-11-20T08:03:22Z</time>
      </trkpt>
      <trkpt lat="48.13904" lon="-3.29096">
        <ele>240.8</ele>
        <time>2024-11-20T08:03:23Z</time>
      </trkpt>
      <trkpt lat="48.13903" lon="-3.29096">
        <ele>240.9</ele>
        <time>2024-11-20T08:03:24Z</time>
      </trkpt>
      <trkpt lat="48.13902" lon="-3.29096">
        <ele>240.9</ele>
        <time>2024-11-20T08:03:25Z</time>
      </trkpt>
      <trkpt lat="48.13901" lon="-3.29095">
        <ele>240.9</ele>
        <time>2024-11-20T08:03:26Z</time>
      </trkpt>
      <trkpt lat="48.139" lon="-3.29095">
        <ele>240.9</ele>
        <time>2024-11-20T08:03:27Z</time>
      </trkpt>
      <trkpt lat="48.13899" lon="-3.29095">
        <ele>240.9</ele>
        <time>2024-11-20T08:03:28Z</time>
      </trkpt>
      <trkpt lat="48.13898" lon="-3.29094">
        <ele>240.8</ele>
        <time>2024-11-20T08:03:29Z</time>
      </trkpt>
      <trkpt lat="48.13897" lon="-3.29093">
        <ele>240.8</ele>
        <time>2024-11-20T08:03:30Z</time>
      </trkpt>
      <trkpt lat="48.13896" lon="-3.29093">
        <ele>240.7</ele>
        <time>2024-11-20T08:03:31Z</time>
      </trkpt>
      <trkpt lat="48.13895" lon="-3.29092">
        <ele>240.7</ele>
        <time>2024-11-20T08:03:32Z</time>
      </trkpt>
      <trkpt lat="48.13893" lon="-3.29091">
        <ele>240.6</ele>
        <time>2024-11-20T08:03:33Z</time>
      </trkpt>
      <trkpt lat="48.13892" lon="-3.29089">
        <ele>240.5</ele>
        <time>2024-11-20T08:03:34Z</time>
      </trkpt>
      <trkpt lat="48.13891" lon="-3.29088">
        <ele>240.4</ele>
        <time>2024-11-20T08:03:35Z</time>
      </trkpt>
      <trkpt lat="48.1389" lon="-3.29087">
        <ele>240.4</ele>
        <time>2024-11-20T08:03:36Z</time>
      </trkpt>
      <trkpt lat="48.1389" lon="-3.29087">
        <ele>240.4</ele>
        <time>2024-11-20T08:03:37Z</time>
      </trkpt>
      <trkpt lat="48.13888" lon="-3.29087">
        <ele>240.4</ele>
        <time>2024-11-20T08:03:38Z</time>
      </trkpt>
      <trkpt lat="48.13888" lon="-3.29087">
        <ele>240.4</ele>
        <time>2024-11-20T08:03:39Z</time>
      </trkpt>
      <trkpt lat="48.13887" lon="-3.29087">
        <ele>240.4</ele>
        <time>2024-11-20T08:03:40Z</time>
      </trkpt>
      <trkpt lat="48.13886" lon="-3.29087">
        <ele>240.4</ele>
        <time>2024-11-20T08:03:41Z</time>
      </trkpt>
      <trkpt lat="48.13885" lon="-3.29087">
        <ele>240.5</ele>
        <time>2024-11-20T08:03:42Z</time>
      </trkpt>
      <trkpt lat="48.13884" lon="-3.29087">
        <ele>240.5</ele>
        <time>2024-11-20T08:03:43Z</time>
      </trkpt>
      <trkpt lat="48.13882" lon="-3.29087">
        <ele>240.5</ele>
        <time>2024-11-20T08:03:44Z</time>
      </trkpt>
      <trkpt lat="48.13881" lon="-3.29086">
        <ele>240.5</ele>
        <time>2024-11-20T08:03:45Z</time>
      </trkpt>
      <trkpt lat="48.1388" lon="-3.29086">
        <ele>240.5</ele>
        <time>2024-11-20T08:03:46Z</time>
      </trkpt>
      <trkpt lat="48.13879" lon="-3.29085">
        <ele>240.5</ele>
        <time>2024-11-20T08:03:47Z</time>
      </trkpt>
      <trkpt lat="48.13878" lon="-3.29084">
        <ele>240.5</ele>
        <time>2024-11-20T08:03:48Z</time>
      </trkpt>
      <trkpt lat="48.13877" lon="-3.29084">
        <ele>240.4</ele>
        <time>2024-11-20T08:03:49Z</time>
      </trkpt>
      <trkpt lat="48.13877" lon="-3.29083">
        <ele>240.4</ele>
        <time>2024-11-20T08:03:50Z</time>
      </trkpt>
      <trkpt lat="48.13876" lon="-3.29082">
        <ele>240.3</ele>
        <time>2024-11-20T08:03:51Z</time>
      </trkpt>
      <trkpt lat="48.13875" lon="-3.29081">
        <ele>240.3</ele>
        <time>2024-11-20T08:03:52Z</time>
      </trkpt>
      <trkpt lat="48.13873" lon="-3.2908">
        <ele>240.2</ele>
        <time>2024-11-20T08:03:53Z</time>
      </trkpt>
      <trkpt lat="48.13872" lon="-3.29079">
        <ele>240.2</ele>
        <time>2024-11-20T08:03:54Z</time>
      </trkpt>
      <trkpt lat="48.13871" lon="-3.29078">
        <ele>240.2</ele>
        <time>2024-11-20T08:03:55Z</time>
      </trkpt>
      <trkpt lat="48.1387" lon="-3.29079">
        <ele>240.2</ele>
        <time>2024-11-20T08:03:56Z</time>
      </trkpt>
      <trkpt lat="48.1387" lon="-3.29079">
        <ele>240.3</ele>
        <time>2024-11-20T08:03:57Z</time>
      </trkpt>
      <trkpt lat="48.13869" lon="-3.2908">
        <ele>240.4</ele>
        <time>2024-11-20T08:03:58Z</time>
      </trkpt>
      <trkpt lat="48.13868" lon="-3.2908">
        <ele>240.4</ele>
        <time>2024-11-20T08:03:59Z</time>
      </trkpt>
      <trkpt lat="48.13867" lon="-3.2908">
        <ele>240.5</ele>
        <time>2024-11-20T08:04:00Z</time>
      </trkpt>
      <trkpt lat="48.13866" lon="-3.2908">
        <ele>240.5</ele>
        <time>2024-11-20T08:04:01Z</time>
      </trkpt>
      <trkpt lat="48.13866" lon="-3.2908">
        <ele>240.5</ele>
        <time>2024-11-20T08:04:02Z</time>
      </trkpt>
      <trkpt lat="48.13864" lon="-3.2908">
        <ele>240.5</ele>
        <time>2024-11-20T08:04:03Z</time>
      </trkpt>
      <trkpt lat="48.13863" lon="-3.29079">
        <ele>240.5</ele>
        <time>2024-11-20T08:04:04Z</time>
      </trkpt>
      <trkpt lat="48.13862" lon="-3.29078">
        <ele>240.4</ele>
        <time>2024-11-20T08:04:05Z</time>
      </trkpt>
      <trkpt lat="48.13861" lon="-3.29076">
        <ele>240.2</ele>
        <time>2024-11-20T08:04:06Z</time>
      </trkpt>
      <trkpt lat="48.13861" lon="-3.29076">
        <ele>240.2</ele>
        <time>2024-11-20T08:04:07Z</time>
      </trkpt>
      <trkpt lat="48.13861" lon="-3.29075">
        <ele>240.1</ele>
        <time>2024-11-20T08:04:08Z</time>
      </trkpt>
      <trkpt lat="48.1386" lon="-3.29074">
        <ele>239.9</ele>
        <time>2024-11-20T08:04:09Z</time>
      </trkpt>
      <trkpt lat="48.13858" lon="-3.29073">
        <ele>239.8</ele>
        <time>2024-11-20T08:04:10Z</time>
      </trkpt>
      <trkpt lat="48.13857" lon="-3.29072">
        <ele>239.7</ele>
        <time>2024-11-20T08:04:11Z</time>
      </trkpt>
      <trkpt lat="48.13856" lon="-3.29072">
        <ele>239.6</ele>
        <time>2024-11-20T08:04:12Z</time>
      </trkpt>
      <trkpt lat="48.13855" lon="-3.29072">
        <ele>239.5</ele>
        <time>2024-11-20T08:04:13Z</time>
      </trkpt>
      <trkpt lat="48.13853" lon="-3.29071">
        <ele>239.4</ele>
        <time>2024-11-20T08:04:14Z</time>
      </trkpt>
      <trkpt lat="48.13852" lon="-3.2907">
        <ele>239.3</ele>
        <time>2024-11-20T08:04:15Z</time>
      </trkpt>
      <trkpt lat="48.13851" lon="-3.29069">
        <ele>239.1</ele>
        <time>2024-11-20T08:04:16Z</time>
      </trkpt>
      <trkpt lat="48.13849" lon="-3.29068">
        <ele>238.9</ele>
        <time>2024-11-20T08:04:17Z</time>
      </trkpt>
      <trkpt lat="48.13848" lon="-3.29067">
        <ele>238.7</ele>
        <time>2024-11-20T08:04:18Z</time>
      </trkpt>
      <trkpt lat="48.13846" lon="-3.29065">
        <ele>238.5</ele>
        <time>2024-11-20T08:04:19Z</time>
      </trkpt>
      <trkpt lat="48.13845" lon="-3.29064">
        <ele>238.4</ele>
        <time>2024-11-20T08:04:20Z</time>
      </trkpt>
      <trkpt lat="48.13843" lon="-3.29063">
        <ele>238.2</ele>
        <time>2024-11-20T08:04:21Z</time>
      </trkpt>
      <trkpt lat="48.13842" lon="-3.29062">
        <ele>238</ele>
        <time>2024-11-20T08:04:22Z</time>
      </trkpt>
      <trkpt lat="48.13841" lon="-3.29062">
        <ele>237.9</ele>
        <time>2024-11-20T08:04:23Z</time>
      </trkpt>
      <trkpt lat="48.1384" lon="-3.29061">
        <ele>237.8</ele>
        <time>2024-11-20T08:04:24Z</time>
      </trkpt>
      <trkpt lat="48.1384" lon="-3.2906">
        <ele>237.8</ele>
        <time>2024-11-20T08:04:25Z</time>
      </trkpt>
      <trkpt lat="48.13839" lon="-3.2906">
        <ele>237.6</ele>
        <time>2024-11-20T08:04:26Z</time>
      </trkpt>
      <trkpt lat="48.13837" lon="-3.29059">
        <ele>237.5</ele>
        <time>2024-11-20T08:04:27Z</time>
      </trkpt>
      <trkpt lat="48.13836" lon="-3.29058">
        <ele>237.4</ele>
        <time>2024-11-20T08:04:28Z</time>
      </trkpt>
      <trkpt lat="48.13835" lon="-3.29058">
        <ele>237.3</ele>
        <time>2024-11-20T08:04:29Z</time>
      </trkpt>
      <trkpt lat="48.13834" lon="-3.29057">
        <ele>237.2</ele>
        <time>2024-11-20T08:04:30Z</time>
      </trkpt>
      <trkpt lat="48.13832" lon="-3.29057">
        <ele>237.1</ele>
        <time>2024-11-20T08:04:31Z</time>
      </trkpt>
      <trkpt lat="48.13831" lon="-3.29056">
        <ele>237.1</ele>
        <time>2024-11-20T08:04:32Z</time>
      </trkpt>
      <trkpt lat="48.13831" lon="-3.29056">
        <ele>237.1</ele>
        <time>2024-11-20T08:04:33Z</time>
      </trkpt>
      <trkpt lat="48.1383" lon="-3.29056">
        <ele>237</ele>
        <time>2024-11-20T08:04:34Z</time>
      </trkpt>
      <trkpt lat="48.13829" lon="-3.29055">
        <ele>237</ele>
        <time>2024-11-20T08:04:35Z</time>
      </trkpt>
      <trkpt lat="48.13827" lon="-3.29054">
        <ele>236.9</ele>
        <time>2024-11-20T08:04:36Z</time>
      </trkpt>
      <trkpt lat="48.13826" lon="-3.29053">
        <ele>236.8</ele>
        <time>2024-11-20T08:04:37Z</time>
      </trkpt>
      <trkpt lat="48.13825" lon="-3.29052">
        <ele>236.7</ele>
        <time>2024-11-20T08:04:38Z</time>
      </trkpt>
      <trkpt lat="48.13824" lon="-3.29052">
        <ele>236.7</ele>
        <time>2024-11-20T08:04:39Z</time>
      </trkpt>
      <trkpt lat="48.13823" lon="-3.29051">
        <ele>236.6</ele>
        <time>2024-11-20T08:04:40Z</time>
      </trkpt>
      <trkpt lat="48.13822" lon="-3.29051">
        <ele>236.6</ele>
        <time>2024-11-20T08:04:41Z</time>
      </trkpt>
      <trkpt lat="48.13821" lon="-3.2905">
        <ele>236.5</ele>
        <time>2024-11-20T08:04:42Z</time>
      </trkpt>
      <trkpt lat="48.1382" lon="-3.29049">
        <ele>236.4</ele>
        <time>2024-11-20T08:04:43Z</time>
      </trkpt>
      <trkpt lat="48.13819" lon="-3.29048">
        <ele>236.4</ele>
        <time>2024-11-20T08:04:44Z</time>
      </trkpt>
      <trkpt lat="48.13818" lon="-3.29048">
        <ele>236.3</ele>
        <time>2024-11-20T08:04:45Z</time>
      </trkpt>
      <trkpt lat="48.13816" lon="-3.29047">
        <ele>236.2</ele>
        <time>2024-11-20T08:04:46Z</time>
      </trkpt>
      <trkpt lat="48.13815" lon="-3.29047">
        <ele>236.1</ele>
        <time>2024-11-20T08:04:47Z</time>
      </trkpt>
      <trkpt lat="48.13814" lon="-3.29046">
        <ele>236.1</ele>
        <time>2024-11-20T08:04:48Z</time>
      </trkpt>
      <trkpt lat="48.13813" lon="-3.29046">
        <ele>236.1</ele>
        <time>2024-11-20T08:04:49Z</time>
      </trkpt>
      <trkpt lat="48.13813" lon="-3.29046">
        <ele>236</ele>
        <time>2024-11-20T08:04:50Z</time>
      </trkpt>
      <trkpt lat="48.13813" lon="-3.29046">
        <ele>236</ele>
        <time>2024-11-20T08:04:51Z</time>
      </trkpt>
      <trkpt lat="48.13812" lon="-3.29046">
        <ele>236</ele>
        <time>2024-11-20T08:04:52Z</time>
      </trkpt>
      <trkpt lat="48.1381" lon="-3.29045">
        <ele>236</ele>
        <time>2024-11-20T08:04:53Z</time>
      </trkpt>
      <trkpt lat="48.13809" lon="-3.29045">
        <ele>235.9</ele>
        <time>2024-11-20T08:04:54Z</time>
      </trkpt>
      <trkpt lat="48.13808" lon="-3.29045">
        <ele>235.9</ele>
        <time>2024-11-20T08:04:55Z</time>
      </trkpt>
      <trkpt lat="48.13807" lon="-3.29045">
        <ele>235.8</ele>
        <time>2024-11-20T08:04:56Z</time>
      </trkpt>
      <trkpt lat="48.13806" lon="-3.29044">
        <ele>235.8</ele>
        <time>2024-11-20T08:04:57Z</time>
      </trkpt>
      <trkpt lat="48.13805" lon="-3.29044">
        <ele>235.7</ele>
        <time>2024-11-20T08:04:58Z</time>
      </trkpt>
      <trkpt lat="48.13803" lon="-3.29044">
        <ele>235.7</ele>
        <time>2024-11-20T08:04:59Z</time>
      </trkpt>
      <trkpt lat="48.13802" lon="-3.29044">
        <ele>235.6</ele>
        <time>2024-11-20T08:05:00Z</time>
      </trkpt>
      <trkpt lat="48.13801" lon="-3.29043">
        <ele>235.5</ele>
        <time>2024-11-20T08:05:01Z</time>
      </trkpt>
      <trkpt lat="48.138" lon="-3.29043">
        <ele>235.4</ele>
        <time>2024-11-20T08:05:02Z</time>
      </trkpt>
      <trkpt lat="48.13798" lon="-3.29043">
        <ele>235.4</ele>
        <time>2024-11-20T08:05:03Z</time>
      </trkpt>
      <trkpt lat="48.13797" lon="-3.29042">
        <ele>235.3</ele>
        <time>2024-11-20T08:05:04Z</time>
      </trkpt>
      <trkpt lat="48.13796" lon="-3.29042">
        <ele>235.2</ele>
        <time>2024-11-20T08:05:05Z</time>
      </trkpt>
      <trkpt lat="48.13796" lon="-3.29042">
        <ele>235.2</ele>
        <time>2024-11-20T08:05:06Z</time>
      </trkpt>
      <trkpt lat="48.13794" lon="-3.29043">
        <ele>235.2</ele>
        <time>2024-11-20T08:05:07Z</time>
      </trkpt>
      <trkpt lat="48.13793" lon="-3.29043">
        <ele>235.2</ele>
        <time>2024-11-20T08:05:08Z</time>
      </trkpt>
      <trkpt lat="48.13792" lon="-3.29043">
        <ele>235.1</ele>
        <time>2024-11-20T08:05:09Z</time>
      </trkpt>
      <trkpt lat="48.13791" lon="-3.29043">
        <ele>235.1</ele>
        <time>2024-11-20T08:05:10Z</time>
      </trkpt>
      <trkpt lat="48.1379" lon="-3.29043">
        <ele>235.1</ele>
        <time>2024-11-20T08:05:11Z</time>
      </trkpt>
      <trkpt lat="48.13789" lon="-3.29042">
        <ele>235</ele>
        <time>2024-11-20T08:05:12Z</time>
      </trkpt>
      <trkpt lat="48.13788" lon="-3.29042">
        <ele>234.9</ele>
        <time>2024-11-20T08:05:13Z</time>
      </trkpt>
      <trkpt lat="48.13786" lon="-3.29042">
        <ele>234.8</ele>
        <time>2024-11-20T08:05:14Z</time>
      </trkpt>
      <trkpt lat="48.13786" lon="-3.29041">
        <ele>234.7</ele>
        <time>2024-11-20T08:05:15Z</time>
      </trkpt>
      <trkpt lat="48.13785" lon="-3.29041">
        <ele>234.7</ele>
        <time>2024-11-20T08:05:16Z</time>
      </trkpt>
      <trkpt lat="48.13783" lon="-3.29041">
        <ele>234.6</ele>
        <time>2024-11-20T08:05:17Z</time>
      </trkpt>
      <trkpt lat="48.13782" lon="-3.29041">
        <ele>234.5</ele>
        <time>2024-11-20T08:05:18Z</time>
      </trkpt>
      <trkpt lat="48.1378" lon="-3.2904">
        <ele>234.5</ele>
        <time>2024-11-20T08:05:19Z</time>
      </trkpt>
      <trkpt lat="48.13779" lon="-3.2904">
        <ele>234.4</ele>
        <time>2024-11-20T08:05:20Z</time>
      </trkpt>
      <trkpt lat="48.13778" lon="-3.2904">
        <ele>234.3</ele>
        <time>2024-11-20T08:05:21Z</time>
      </trkpt>
      <trkpt lat="48.13776" lon="-3.29039">
        <ele>234.2</ele>
        <time>2024-11-20T08:05:22Z</time>
      </trkpt>
      <trkpt lat="48.13775" lon="-3.29039">
        <ele>234.1</ele>
        <time>2024-11-20T08:05:23Z</time>
      </trkpt>
      <trkpt lat="48.13774" lon="-3.29039">
        <ele>234.1</ele>
        <time>2024-11-20T08:05:24Z</time>
      </trkpt>
      <trkpt lat="48.13773" lon="-3.29039">
        <ele>234.1</ele>
        <time>2024-11-20T08:05:25Z</time>
      </trkpt>
      <trkpt lat="48.13772" lon="-3.29039">
        <ele>234.1</ele>
        <time>2024-11-20T08:05:26Z</time>
      </trkpt>
      <trkpt lat="48.13771" lon="-3.29039">
        <ele>234</ele>
        <time>2024-11-20T08:05:27Z</time>
      </trkpt>
      <trkpt lat="48.1377" lon="-3.29039">
        <ele>234</ele>
        <time>2024-11-20T08:05:28Z</time>
      </trkpt>
      <trkpt lat="48.13769" lon="-3.29039">
        <ele>233.9</ele>
        <time>2024-11-20T08:05:29Z</time>
      </trkpt>
      <trkpt lat="48.13769" lon="-3.29039">
        <ele>233.9</ele>
        <time>2024-11-20T08:05:30Z</time>
      </trkpt>
      <trkpt lat="48.13768" lon="-3.29039">
        <ele>233.8</ele>
        <time>2024-11-20T08:05:31Z</time>
      </trkpt>
      <trkpt lat="48.13767" lon="-3.29039">
        <ele>233.8</ele>
        <time>2024-11-20T08:05:32Z</time>
      </trkpt>
      <trkpt lat="48.13766" lon="-3.29039">
        <ele>233.8</ele>
        <time>2024-11-20T08:05:33Z</time>
      </trkpt>
      <trkpt lat="48.13765" lon="-3.29039">
        <ele>233.7</ele>
        <time>2024-11-20T08:05:34Z</time>
      </trkpt>
      <trkpt lat="48.13763" lon="-3.29039">
        <ele>233.7</ele>
        <time>2024-11-20T08:05:35Z</time>
      </trkpt>
      <trkpt lat="48.13762" lon="-3.2904">
        <ele>233.7</ele>
        <time>2024-11-20T08:05:36Z</time>
      </trkpt>
      <trkpt lat="48.13761" lon="-3.2904">
        <ele>233.7</ele>
        <time>2024-11-20T08:05:37Z</time>
      </trkpt>
      <trkpt lat="48.1376" lon="-3.2904">
        <ele>233.7</ele>
        <time>2024-11-20T08:05:38Z</time>
      </trkpt>
      <trkpt lat="48.13759" lon="-3.29041">
        <ele>233.7</ele>
        <time>2024-11-20T08:05:39Z</time>
      </trkpt>
      <trkpt lat="48.13758" lon="-3.29041">
        <ele>233.8</ele>
        <time>2024-11-20T08:05:40Z</time>
      </trkpt>
      <trkpt lat="48.13757" lon="-3.29042">
        <ele>233.8</ele>
        <time>2024-11-20T08:05:41Z</time>
      </trkpt>
      <trkpt lat="48.13757" lon="-3.29044">
        <ele>233.9</ele>
        <time>2024-11-20T08:05:42Z</time>
      </trkpt>
      <trkpt lat="48.13756" lon="-3.29045">
        <ele>234</ele>
        <time>2024-11-20T08:05:43Z</time>
      </trkpt>
      <trkpt lat="48.13755" lon="-3.29046">
        <ele>234.2</ele>
        <time>2024-11-20T08:05:44Z</time>
      </trkpt>
      <trkpt lat="48.13755" lon="-3.29047">
        <ele>234.2</ele>
        <time>2024-11-20T08:05:45Z</time>
      </trkpt>
      <trkpt lat="48.13755" lon="-3.29048">
        <ele>234.3</ele>
        <time>2024-11-20T08:05:46Z</time>
      </trkpt>
      <trkpt lat="48.13754" lon="-3.2905">
        <ele>234.5</ele>
        <time>2024-11-20T08:05:47Z</time>
      </trkpt>
      <trkpt lat="48.13754" lon="-3.29051">
        <ele>234.6</ele>
        <time>2024-11-20T08:05:48Z</time>
      </trkpt>
      <trkpt lat="48.13754" lon="-3.29052">
        <ele>234.8</ele>
        <time>2024-11-20T08:05:49Z</time>
      </trkpt>
      <trkpt lat="48.13753" lon="-3.29053">
        <ele>234.9</ele>
        <time>2024-11-20T08:05:50Z</time>
      </trkpt>
      <trkpt lat="48.13753" lon="-3.29055">
        <ele>235</ele>
        <time>2024-11-20T08:05:51Z</time>
      </trkpt>
      <trkpt lat="48.13752" lon="-3.29056">
        <ele>235.1</ele>
        <time>2024-11-20T08:05:52Z</time>
      </trkpt>
      <trkpt lat="48.13752" lon="-3.29057">
        <ele>235.2</ele>
        <time>2024-11-20T08:05:53Z</time>
      </trkpt>
      <trkpt lat="48.13752" lon="-3.29058">
        <ele>235.2</ele>
        <time>2024-11-20T08:05:54Z</time>
      </trkpt>
      <trkpt lat="48.13751" lon="-3.29059">
        <ele>235.3</ele>
        <time>2024-11-20T08:05:55Z</time>
      </trkpt>
      <trkpt lat="48.13751" lon="-3.2906">
        <ele>235.4</ele>
        <time>2024-11-20T08:05:56Z</time>
      </trkpt>
      <trkpt lat="48.13751" lon="-3.29062">
        <ele>235.5</ele>
        <time>2024-11-20T08:05:57Z</time>
      </trkpt>
      <trkpt lat="48.1375" lon="-3.29064">
        <ele>235.6</ele>
        <time>2024-11-20T08:05:58Z</time>
      </trkpt>
      <trkpt lat="48.1375" lon="-3.29065">
        <ele>235.6</ele>
        <time>2024-11-20T08:05:59Z</time>
      </trkpt>
      <trkpt lat="48.13749" lon="-3.29067">
        <ele>235.8</ele>
        <time>2024-11-20T08:06:00Z</time>
      </trkpt>
      <trkpt lat="48.13749" lon="-3.29068">
        <ele>235.8</ele>
        <time>2024-11-20T08:06:01Z</time>
      </trkpt>
      <trkpt lat="48.13748" lon="-3.2907">
        <ele>236</ele>
        <time>2024-11-20T08:06:02Z</time>
      </trkpt>
      <trkpt lat="48.13748" lon="-3.29071">
        <ele>236</ele>
        <time>2024-11-20T08:06:03Z</time>
      </trkpt>
      <trkpt lat="48.13747" lon="-3.29073">
        <ele>236.2</ele>
        <time>2024-11-20T08:06:04Z</time>
      </trkpt>
      <trkpt lat="48.13747" lon="-3.29076">
        <ele>236.3</ele>
        <time>2024-11-20T08:06:05Z</time>
      </trkpt>
      <trkpt lat="48.13747" lon="-3.29076">
        <ele>236.4</ele>
        <time>2024-11-20T08:06:06Z</time>
      </trkpt>
      <trkpt lat="48.13747" lon="-3.29077">
        <ele>236.4</ele>
        <time>2024-11-20T08:06:07Z</time>
      </trkpt>
      <trkpt lat="48.13746" lon="-3.29078">
        <ele>236.5</ele>
        <time>2024-11-20T08:06:08Z</time>
      </trkpt>
      <trkpt lat="48.13746" lon="-3.2908">
        <ele>236.6</ele>
        <time>2024-11-20T08:06:09Z</time>
      </trkpt>
      <trkpt lat="48.13746" lon="-3.29081">
        <ele>236.7</ele>
        <time>2024-11-20T08:06:10Z</time>
      </trkpt>
      <trkpt lat="48.13745" lon="-3.29082">
        <ele>236.7</ele>
        <time>2024-11-20T08:06:11Z</time>
      </trkpt>
      <trkpt lat="48.13745" lon="-3.29083">
        <ele>236.8</ele>
        <time>2024-11-20T08:06:12Z</time>
      </trkpt>
      <trkpt lat="48.13745" lon="-3.29085">
        <ele>236.9</ele>
        <time>2024-11-20T08:06:13Z</time>
      </trkpt>
      <trkpt lat="48.13744" lon="-3.29087">
        <ele>237.1</ele>
        <time>2024-11-20T08:06:14Z</time>
      </trkpt>
      <trkpt lat="48.13744" lon="-3.2909">
        <ele>237.2</ele>
        <time>2024-11-20T08:06:15Z</time>
      </trkpt>
      <trkpt lat="48.13743" lon="-3.29091">
        <ele>237.3</ele>
        <time>2024-11-20T08:06:16Z</time>
      </trkpt>
      <trkpt lat="48.13743" lon="-3.29092">
        <ele>237.3</ele>
        <time>2024-11-20T08:06:17Z</time>
      </trkpt>
      <trkpt lat="48.13743" lon="-3.29093">
        <ele>237.4</ele>
        <time>2024-11-20T08:06:18Z</time>
      </trkpt>
      <trkpt lat="48.13743" lon="-3.29094">
        <ele>237.5</ele>
        <time>2024-11-20T08:06:19Z</time>
      </trkpt>
      <trkpt lat="48.13742" lon="-3.29096">
        <ele>237.6</ele>
        <time>2024-11-20T08:06:20Z</time>
      </trkpt>
      <trkpt lat="48.13742" lon="-3.29098">
        <ele>237.8</ele>
        <time>2024-11-20T08:06:21Z</time>
      </trkpt>
      <trkpt lat="48.13741" lon="-3.291">
        <ele>237.9</ele>
        <time>2024-11-20T08:06:22Z</time>
      </trkpt>
      <trkpt lat="48.1374" lon="-3.29102">
        <ele>238</ele>
        <time>2024-11-20T08:06:23Z</time>
      </trkpt>
      <trkpt lat="48.1374" lon="-3.29104">
        <ele>238.1</ele>
        <time>2024-11-20T08:06:24Z</time>
      </trkpt>
      <trkpt lat="48.13739" lon="-3.29106">
        <ele>238.2</ele>
        <time>2024-11-20T08:06:25Z</time>
      </trkpt>
      <trkpt lat="48.13738" lon="-3.29107">
        <ele>238.3</ele>
        <time>2024-11-20T08:06:26Z</time>
      </trkpt>
      <trkpt lat="48.13738" lon="-3.29108">
        <ele>238.3</ele>
        <time>2024-11-20T08:06:27Z</time>
      </trkpt>
      <trkpt lat="48.13737" lon="-3.29109">
        <ele>238.4</ele>
        <time>2024-11-20T08:06:28Z</time>
      </trkpt>
      <trkpt lat="48.13737" lon="-3.2911">
        <ele>238.5</ele>
        <time>2024-11-20T08:06:29Z</time>
      </trkpt>
      <trkpt lat="48.13737" lon="-3.29111">
        <ele>238.5</ele>
        <time>2024-11-20T08:06:30Z</time>
      </trkpt>
      <trkpt lat="48.13737" lon="-3.29113">
        <ele>238.6</ele>
        <time>2024-11-20T08:06:31Z</time>
      </trkpt>
      <trkpt lat="48.13737" lon="-3.29114">
        <ele>238.6</ele>
        <time>2024-11-20T08:06:32Z</time>
      </trkpt>
      <trkpt lat="48.13737" lon="-3.29114">
        <ele>238.6</ele>
        <time>2024-11-20T08:06:33Z</time>
      </trkpt>
      <trkpt lat="48.13737" lon="-3.29115">
        <ele>238.7</ele>
        <time>2024-11-20T08:06:34Z</time>
      </trkpt>
      <trkpt lat="48.13737" lon="-3.29115">
        <ele>238.7</ele>
        <time>2024-11-20T08:06:35Z</time>
      </trkpt>
      <trkpt lat="48.13737" lon="-3.29116">
        <ele>238.7</ele>
        <time>2024-11-20T08:06:36Z</time>
      </trkpt>
      <trkpt lat="48.13737" lon="-3.29116">
        <ele>238.7</ele>
        <time>2024-11-20T08:06:37Z</time>
      </trkpt>
      <trkpt lat="48.13737" lon="-3.29116">
        <ele>238.7</ele>
        <time>2024-11-20T08:06:38Z</time>
      </trkpt>
      <trkpt lat="48.13737" lon="-3.29116">
        <ele>238.7</ele>
        <time>2024-11-20T08:06:39Z</time>
      </trkpt>
      <trkpt lat="48.13737" lon="-3.29116">
        <ele>238.7</ele>
        <time>2024-11-20T08:06:40Z</time>
      </trkpt>
      <trkpt lat="48.13737" lon="-3.29116">
        <ele>238.7</ele>
        <time>2024-11-20T08:06:41Z</time>
      </trkpt>
      <trkpt lat="48.13737" lon="-3.29116">
        <ele>238.7</ele>
        <time>2024-11-20T08:06:42Z</time>
      </trkpt>
      <trkpt lat="48.13737" lon="-3.29116">
        <ele>238.7</ele>
        <time>2024-11-20T08:06:43Z</time>
      </trkpt>
      <trkpt lat="48.13737" lon="-3.29116">
        <ele>238.7</ele>
        <time>2024-11-20T08:06:44Z</time>
      </trkpt>
      <trkpt lat="48.13737" lon="-3.29115">
        <ele>238.7</ele>
        <time>2024-11-20T08:06:45Z</time>
      </trkpt>
      <trkpt lat="48.13737" lon="-3.29115">
        <ele>238.7</ele>
        <time>2024-11-20T08:06:46Z</time>
      </trkpt>
      <trkpt lat="48.13737" lon="-3.29115">
        <ele>238.7</ele>
        <time>2024-11-20T08:06:47Z</time>
      </trkpt>
      <trkpt lat="48.13737" lon="-3.29115">
        <ele>238.7</ele>
        <time>2024-11-20T08:06:48Z</time>
      </trkpt>
      <trkpt lat="48.13737" lon="-3.29115">
        <ele>238.7</ele>
        <time>2024-11-20T08:06:49Z</time>
      </trkpt>
      <trkpt lat="48.13737" lon="-3.29116">
        <ele>238.7</ele>
        <time>2024-11-20T08:06:50Z</time>
      </trkpt>
      <trkpt lat="48.13737" lon="-3.29116">
        <ele>238.7</ele>
        <time>2024-11-20T08:06:51Z</time>
      </trkpt>
      <trkpt lat="48.13737" lon="-3.29116">
        <ele>238.7</ele>
        <time>2024-11-20T08:06:52Z</time>
      </trkpt>
      <trkpt lat="48.13737" lon="-3.29116">
        <ele>238.7</ele>
        <time>2024-11-20T08:06:53Z</time>
      </trkpt>
      <trkpt lat="48.13737" lon="-3.29116">
        <ele>238.7</ele>
        <time>2024-11-20T08:06:54Z</time>
      </trkpt>
      <trkpt lat="48.13737" lon="-3.29116">
        <ele>238.7</ele>
        <time>2024-11-20T08:06:55Z</time>
      </trkpt>
      <trkpt lat="48.13737" lon="-3.29116">
        <ele>238.7</ele>
        <time>2024-11-20T08:06:56Z</time>
      </trkpt>
      <trkpt lat="48.13736" lon="-3.29117">
        <ele>238.7</ele>
        <time>2024-11-20T08:06:57Z</time>
      </trkpt>
      <trkpt lat="48.13736" lon="-3.29117">
        <ele>238.7</ele>
        <time>2024-11-20T08:06:58Z</time>
      </trkpt>
      <trkpt lat="48.13736" lon="-3.29118">
        <ele>238.7</ele>
        <time>2024-11-20T08:06:59Z</time>
      </trkpt>
      <trkpt lat="48.13735" lon="-3.29119">
        <ele>238.8</ele>
        <time>2024-11-20T08:07:00Z</time>
      </trkpt>
      <trkpt lat="48.13734" lon="-3.29121">
        <ele>238.8</ele>
        <time>2024-11-20T08:07:01Z</time>
      </trkpt>
      <trkpt lat="48.13734" lon="-3.29122">
        <ele>238.8</ele>
        <time>2024-11-20T08:07:02Z</time>
      </trkpt>
      <trkpt lat="48.13733" lon="-3.29123">
        <ele>238.8</ele>
        <time>2024-11-20T08:07:03Z</time>
      </trkpt>
      <trkpt lat="48.13731" lon="-3.29127">
        <ele>238.9</ele>
        <time>2024-11-20T08:07:05Z</time>
      </trkpt>
      <trkpt lat="48.1373" lon="-3.29129">
        <ele>238.9</ele>
        <time>2024-11-20T08:07:06Z</time>
      </trkpt>
      <trkpt lat="48.13728" lon="-3.2913">
        <ele>238.9</ele>
        <time>2024-11-20T08:07:07Z</time>
      </trkpt>
      <trkpt lat="48.13728" lon="-3.29131">
        <ele>238.9</ele>
        <time>2024-11-20T08:07:08Z</time>
      </trkpt>
      <trkpt lat="48.13727" lon="-3.29132">
        <ele>238.9</ele>
        <time>2024-11-20T08:07:09Z</time>
      </trkpt>
      <trkpt lat="48.13727" lon="-3.29133">
        <ele>238.9</ele>
        <time>2024-11-20T08:07:10Z</time>
      </trkpt>
      <trkpt lat="48.13726" lon="-3.29134">
        <ele>239</ele>
        <time>2024-11-20T08:07:11Z</time>
      </trkpt>
      <trkpt lat="48.13726" lon="-3.29134">
        <ele>239</ele>
        <time>2024-11-20T08:07:12Z</time>
      </trkpt>
      <trkpt lat="48.13726" lon="-3.29135">
        <ele>239</ele>
        <time>2024-11-20T08:07:13Z</time>
      </trkpt>
      <trkpt lat="48.13726" lon="-3.29136">
        <ele>239</ele>
        <time>2024-11-20T08:07:14Z</time>
      </trkpt>
      <trkpt lat="48.13726" lon="-3.29137">
        <ele>239.1</ele>
        <time>2024-11-20T08:07:15Z</time>
      </trkpt>
      <trkpt lat="48.13726" lon="-3.29138">
        <ele>239.1</ele>
        <time>2024-11-20T08:07:16Z</time>
      </trkpt>
      <trkpt lat="48.13726" lon="-3.29139">
        <ele>239.1</ele>
        <time>2024-11-20T08:07:17Z</time>
      </trkpt>
      <trkpt lat="48.13725" lon="-3.29141">
        <ele>239.2</ele>
        <time>2024-11-20T08:07:18Z</time>
      </trkpt>
      <trkpt lat="48.13724" lon="-3.29143">
        <ele>239.2</ele>
        <time>2024-11-20T08:07:19Z</time>
      </trkpt>
      <trkpt lat="48.13723" lon="-3.29145">
        <ele>239.3</ele>
        <time>2024-11-20T08:07:20Z</time>
      </trkpt>
      <trkpt lat="48.13723" lon="-3.29147">
        <ele>239.3</ele>
        <time>2024-11-20T08:07:21Z</time>
      </trkpt>
      <trkpt lat="48.13722" lon="-3.29148">
        <ele>239.3</ele>
        <time>2024-11-20T08:07:22Z</time>
      </trkpt>
      <trkpt lat="48.13722" lon="-3.29149">
        <ele>239.3</ele>
        <time>2024-11-20T08:07:23Z</time>
      </trkpt>
      <trkpt lat="48.13721" lon="-3.2915">
        <ele>239.4</ele>
        <time>2024-11-20T08:07:24Z</time>
      </trkpt>
      <trkpt lat="48.13721" lon="-3.2915">
        <ele>239.4</ele>
        <time>2024-11-20T08:07:25Z</time>
      </trkpt>
      <trkpt lat="48.13721" lon="-3.29151">
        <ele>239.4</ele>
        <time>2024-11-20T08:07:26Z</time>
      </trkpt>
      <trkpt lat="48.1372" lon="-3.29153">
        <ele>239.4</ele>
        <time>2024-11-20T08:07:27Z</time>
      </trkpt>
      <trkpt lat="48.13719" lon="-3.29155">
        <ele>239.5</ele>
        <time>2024-11-20T08:07:28Z</time>
      </trkpt>
      <trkpt lat="48.13719" lon="-3.29157">
        <ele>239.5</ele>
        <time>2024-11-20T08:07:29Z</time>
      </trkpt>
      <trkpt lat="48.13718" lon="-3.29158">
        <ele>239.5</ele>
        <time>2024-11-20T08:07:30Z</time>
      </trkpt>
      <trkpt lat="48.13718" lon="-3.29159">
        <ele>239.6</ele>
        <time>2024-11-20T08:07:31Z</time>
      </trkpt>
      <trkpt lat="48.13717" lon="-3.29161">
        <ele>239.6</ele>
        <time>2024-11-20T08:07:32Z</time>
      </trkpt>
      <trkpt lat="48.13717" lon="-3.29163">
        <ele>239.7</ele>
        <time>2024-11-20T08:07:33Z</time>
      </trkpt>
      <trkpt lat="48.13716" lon="-3.29164">
        <ele>239.7</ele>
        <time>2024-11-20T08:07:34Z</time>
      </trkpt>
      <trkpt lat="48.13715" lon="-3.29166">
        <ele>239.7</ele>
        <time>2024-11-20T08:07:35Z</time>
      </trkpt>
      <trkpt lat="48.13715" lon="-3.29167">
        <ele>239.7</ele>
        <time>2024-11-20T08:07:36Z</time>
      </trkpt>
      <trkpt lat="48.13714" lon="-3.29168">
        <ele>239.8</ele>
        <time>2024-11-20T08:07:37Z</time>
      </trkpt>
      <trkpt lat="48.13714" lon="-3.2917">
        <ele>239.8</ele>
        <time>2024-11-20T08:07:38Z</time>
      </trkpt>
      <trkpt lat="48.13714" lon="-3.2917">
        <ele>239.8</ele>
        <time>2024-11-20T08:07:39Z</time>
      </trkpt>
      <trkpt lat="48.13713" lon="-3.29171">
        <ele>239.9</ele>
        <time>2024-11-20T08:07:40Z</time>
      </trkpt>
      <trkpt lat="48.13713" lon="-3.29172">
        <ele>239.9</ele>
        <time>2024-11-20T08:07:41Z</time>
      </trkpt>
      <trkpt lat="48.13712" lon="-3.29173">
        <ele>240</ele>
        <time>2024-11-20T08:07:42Z</time>
      </trkpt>
      <trkpt lat="48.13712" lon="-3.29175">
        <ele>240.1</ele>
        <time>2024-11-20T08:07:43Z</time>
      </trkpt>
      <trkpt lat="48.13711" lon="-3.29177">
        <ele>240.1</ele>
        <time>2024-11-20T08:07:44Z</time>
      </trkpt>
      <trkpt lat="48.13711" lon="-3.29179">
        <ele>240.2</ele>
        <time>2024-11-20T08:07:45Z</time>
      </trkpt>
      <trkpt lat="48.1371" lon="-3.29181">
        <ele>240.3</ele>
        <time>2024-11-20T08:07:46Z</time>
      </trkpt>
      <trkpt lat="48.1371" lon="-3.29181">
        <ele>240.3</ele>
        <time>2024-11-20T08:07:47Z</time>
      </trkpt>
      <trkpt lat="48.13709" lon="-3.29183">
        <ele>240.4</ele>
        <time>2024-11-20T08:07:48Z</time>
      </trkpt>
      <trkpt lat="48.13709" lon="-3.29184">
        <ele>240.5</ele>
        <time>2024-11-20T08:07:49Z</time>
      </trkpt>
      <trkpt lat="48.13708" lon="-3.29186">
        <ele>240.5</ele>
        <time>2024-11-20T08:07:50Z</time>
      </trkpt>
      <trkpt lat="48.13708" lon="-3.29187">
        <ele>240.6</ele>
        <time>2024-11-20T08:07:51Z</time>
      </trkpt>
      <trkpt lat="48.13707" lon="-3.29189">
        <ele>240.7</ele>
        <time>2024-11-20T08:07:52Z</time>
      </trkpt>
      <trkpt lat="48.13706" lon="-3.29191">
        <ele>240.8</ele>
        <time>2024-11-20T08:07:53Z</time>
      </trkpt>
      <trkpt lat="48.13705" lon="-3.29192">
        <ele>240.9</ele>
        <time>2024-11-20T08:07:54Z</time>
      </trkpt>
      <trkpt lat="48.13705" lon="-3.29194">
        <ele>241</ele>
        <time>2024-11-20T08:07:55Z</time>
      </trkpt>
      <trkpt lat="48.13704" lon="-3.29195">
        <ele>241</ele>
        <time>2024-11-20T08:07:56Z</time>
      </trkpt>
      <trkpt lat="48.13704" lon="-3.29197">
        <ele>241.1</ele>
        <time>2024-11-20T08:07:57Z</time>
      </trkpt>
      <trkpt lat="48.13703" lon="-3.29198">
        <ele>241.1</ele>
        <time>2024-11-20T08:07:58Z</time>
      </trkpt>
      <trkpt lat="48.13703" lon="-3.292">
        <ele>241.2</ele>
        <time>2024-11-20T08:07:59Z</time>
      </trkpt>
      <trkpt lat="48.13702" lon="-3.29201">
        <ele>241.2</ele>
        <time>2024-11-20T08:08:00Z</time>
      </trkpt>
      <trkpt lat="48.13702" lon="-3.29202">
        <ele>241.3</ele>
        <time>2024-11-20T08:08:01Z</time>
      </trkpt>
      <trkpt lat="48.13701" lon="-3.29204">
        <ele>241.3</ele>
        <time>2024-11-20T08:08:02Z</time>
      </trkpt>
      <trkpt lat="48.13701" lon="-3.29205">
        <ele>241.4</ele>
        <time>2024-11-20T08:08:03Z</time>
      </trkpt>
      <trkpt lat="48.137" lon="-3.29206">
        <ele>241.4</ele>
        <time>2024-11-20T08:08:04Z</time>
      </trkpt>
      <trkpt lat="48.137" lon="-3.29207">
        <ele>241.5</ele>
        <time>2024-11-20T08:08:05Z</time>
      </trkpt>
      <trkpt lat="48.13699" lon="-3.29209">
        <ele>241.5</ele>
        <time>2024-11-20T08:08:06Z</time>
      </trkpt>
      <trkpt lat="48.13698" lon="-3.2921">
        <ele>241.6</ele>
        <time>2024-11-20T08:08:07Z</time>
      </trkpt>
      <trkpt lat="48.13698" lon="-3.29212">
        <ele>241.6</ele>
        <time>2024-11-20T08:08:08Z</time>
      </trkpt>
      <trkpt lat="48.13697" lon="-3.29213">
        <ele>241.7</ele>
        <time>2024-11-20T08:08:09Z</time>
      </trkpt>
      <trkpt lat="48.13697" lon="-3.29215">
        <ele>241.7</ele>
        <time>2024-11-20T08:08:10Z</time>
      </trkpt>
      <trkpt lat="48.13696" lon="-3.29216">
        <ele>241.8</ele>
        <time>2024-11-20T08:08:11Z</time>
      </trkpt>
      <trkpt lat="48.13696" lon="-3.29217">
        <ele>241.8</ele>
        <time>2024-11-20T08:08:12Z</time>
      </trkpt>
      <trkpt lat="48.13695" lon="-3.29218">
        <ele>241.9</ele>
        <time>2024-11-20T08:08:13Z</time>
      </trkpt>
      <trkpt lat="48.13695" lon="-3.2922">
        <ele>241.9</ele>
        <time>2024-11-20T08:08:14Z</time>
      </trkpt>
      <trkpt lat="48.13694" lon="-3.29221">
        <ele>242</ele>
        <time>2024-11-20T08:08:15Z</time>
      </trkpt>
      <trkpt lat="48.13694" lon="-3.29223">
        <ele>242</ele>
        <time>2024-11-20T08:08:16Z</time>
      </trkpt>
      <trkpt lat="48.13693" lon="-3.29224">
        <ele>242.1</ele>
        <time>2024-11-20T08:08:17Z</time>
      </trkpt>
      <trkpt lat="48.13693" lon="-3.29225">
        <ele>242.1</ele>
        <time>2024-11-20T08:08:18Z</time>
      </trkpt>
      <trkpt lat="48.13693" lon="-3.29226">
        <ele>242.1</ele>
        <time>2024-11-20T08:08:19Z</time>
      </trkpt>
      <trkpt lat="48.13692" lon="-3.29227">
        <ele>242.2</ele>
        <time>2024-11-20T08:08:20Z</time>
      </trkpt>
      <trkpt lat="48.13692" lon="-3.29229">
        <ele>242.3</ele>
        <time>2024-11-20T08:08:21Z</time>
      </trkpt>
      <trkpt lat="48.13691" lon="-3.2923">
        <ele>242.3</ele>
        <time>2024-11-20T08:08:22Z</time>
      </trkpt>
      <trkpt lat="48.13691" lon="-3.29231">
        <ele>242.4</ele>
        <time>2024-11-20T08:08:23Z</time>
      </trkpt>
      <trkpt lat="48.1369" lon="-3.29233">
        <ele>242.4</ele>
        <time>2024-11-20T08:08:24Z</time>
      </trkpt>
      <trkpt lat="48.1369" lon="-3.29234">
        <ele>242.5</ele>
        <time>2024-11-20T08:08:25Z</time>
      </trkpt>
      <trkpt lat="48.13689" lon="-3.29235">
        <ele>242.5</ele>
        <time>2024-11-20T08:08:26Z</time>
      </trkpt>
      <trkpt lat="48.13689" lon="-3.29236">
        <ele>242.6</ele>
        <time>2024-11-20T08:08:27Z</time>
      </trkpt>
      <trkpt lat="48.13689" lon="-3.29238">
        <ele>242.7</ele>
        <time>2024-11-20T08:08:28Z</time>
      </trkpt>
      <trkpt lat="48.13688" lon="-3.2924">
        <ele>242.8</ele>
        <time>2024-11-20T08:08:29Z</time>
      </trkpt>
      <trkpt lat="48.13687" lon="-3.29241">
        <ele>242.9</ele>
        <time>2024-11-20T08:08:30Z</time>
      </trkpt>
      <trkpt lat="48.13686" lon="-3.29243">
        <ele>243</ele>
        <time>2024-11-20T08:08:31Z</time>
      </trkpt>
      <trkpt lat="48.13686" lon="-3.29244">
        <ele>243</ele>
        <time>2024-11-20T08:08:32Z</time>
      </trkpt>
      <trkpt lat="48.13685" lon="-3.29245">
        <ele>243.1</ele>
        <time>2024-11-20T08:08:33Z</time>
      </trkpt>
      <trkpt lat="48.13685" lon="-3.29246">
        <ele>243.2</ele>
        <time>2024-11-20T08:08:34Z</time>
      </trkpt>
      <trkpt lat="48.13684" lon="-3.29248">
        <ele>243.3</ele>
        <time>2024-11-20T08:08:35Z</time>
      </trkpt>
      <trkpt lat="48.13684" lon="-3.2925">
        <ele>243.4</ele>
        <time>2024-11-20T08:08:36Z</time>
      </trkpt>
      <trkpt lat="48.13683" lon="-3.29251">
        <ele>243.4</ele>
        <time>2024-11-20T08:08:37Z</time>
      </trkpt>
      <trkpt lat="48.13682" lon="-3.29253">
        <ele>243.5</ele>
        <time>2024-11-20T08:08:38Z</time>
      </trkpt>
      <trkpt lat="48.13682" lon="-3.29254">
        <ele>243.5</ele>
        <time>2024-11-20T08:08:39Z</time>
      </trkpt>
      <trkpt lat="48.13682" lon="-3.29255">
        <ele>243.5</ele>
        <time>2024-11-20T08:08:40Z</time>
      </trkpt>
      <trkpt lat="48.13681" lon="-3.29256">
        <ele>243.6</ele>
        <time>2024-11-20T08:08:41Z</time>
      </trkpt>
      <trkpt lat="48.13681" lon="-3.29257">
        <ele>243.6</ele>
        <time>2024-11-20T08:08:42Z</time>
      </trkpt>
      <trkpt lat="48.13681" lon="-3.29259">
        <ele>243.6</ele>
        <time>2024-11-20T08:08:43Z</time>
      </trkpt>
      <trkpt lat="48.13681" lon="-3.2926">
        <ele>243.7</ele>
        <time>2024-11-20T08:08:44Z</time>
      </trkpt>
      <trkpt lat="48.13681" lon="-3.29261">
        <ele>243.7</ele>
        <time>2024-11-20T08:08:45Z</time>
      </trkpt>
      <trkpt lat="48.13682" lon="-3.29262">
        <ele>243.7</ele>
        <time>2024-11-20T08:08:46Z</time>
      </trkpt>
      <trkpt lat="48.13682" lon="-3.29264">
        <ele>243.7</ele>
        <time>2024-11-20T08:08:47Z</time>
      </trkpt>
      <trkpt lat="48.13682" lon="-3.29265">
        <ele>243.7</ele>
        <time>2024-11-20T08:08:48Z</time>
      </trkpt>
      <trkpt lat="48.13683" lon="-3.29267">
        <ele>243.7</ele>
        <time>2024-11-20T08:08:49Z</time>
      </trkpt>
      <trkpt lat="48.13683" lon="-3.29269">
        <ele>243.7</ele>
        <time>2024-11-20T08:08:50Z</time>
      </trkpt>
      <trkpt lat="48.13684" lon="-3.2927">
        <ele>243.7</ele>
        <time>2024-11-20T08:08:51Z</time>
      </trkpt>
      <trkpt lat="48.13684" lon="-3.29272">
        <ele>243.7</ele>
        <time>2024-11-20T08:08:52Z</time>
      </trkpt>
      <trkpt lat="48.13684" lon="-3.29274">
        <ele>243.7</ele>
        <time>2024-11-20T08:08:53Z</time>
      </trkpt>
      <trkpt lat="48.13684" lon="-3.29276">
        <ele>243.7</ele>
        <time>2024-11-20T08:08:54Z</time>
      </trkpt>
      <trkpt lat="48.13685" lon="-3.29277">
        <ele>243.7</ele>
        <time>2024-11-20T08:08:55Z</time>
      </trkpt>
      <trkpt lat="48.13685" lon="-3.29279">
        <ele>243.7</ele>
        <time>2024-11-20T08:08:56Z</time>
      </trkpt>
      <trkpt lat="48.13685" lon="-3.29281">
        <ele>243.6</ele>
        <time>2024-11-20T08:08:57Z</time>
      </trkpt>
      <trkpt lat="48.13684" lon="-3.29283">
        <ele>243.5</ele>
        <time>2024-11-20T08:08:58Z</time>
      </trkpt>
      <trkpt lat="48.13684" lon="-3.29285">
        <ele>243.5</ele>
        <time>2024-11-20T08:08:59Z</time>
      </trkpt>
      <trkpt lat="48.13684" lon="-3.29287">
        <ele>243.4</ele>
        <time>2024-11-20T08:09:00Z</time>
      </trkpt>
      <trkpt lat="48.13684" lon="-3.29289">
        <ele>243.4</ele>
        <time>2024-11-20T08:09:01Z</time>
      </trkpt>
      <trkpt lat="48.13684" lon="-3.29291">
        <ele>243.3</ele>
        <time>2024-11-20T08:09:02Z</time>
      </trkpt>
      <trkpt lat="48.13683" lon="-3.29292">
        <ele>243.3</ele>
        <time>2024-11-20T08:09:03Z</time>
      </trkpt>
      <trkpt lat="48.13683" lon="-3.29294">
        <ele>243.3</ele>
        <time>2024-11-20T08:09:04Z</time>
      </trkpt>
      <trkpt lat="48.13682" lon="-3.29296">
        <ele>243.2</ele>
        <time>2024-11-20T08:09:05Z</time>
      </trkpt>
      <trkpt lat="48.13682" lon="-3.29297">
        <ele>243.2</ele>
        <time>2024-11-20T08:09:06Z</time>
      </trkpt>
      <trkpt lat="48.13682" lon="-3.29298">
        <ele>243.2</ele>
        <time>2024-11-20T08:09:07Z</time>
      </trkpt>
      <trkpt lat="48.13681" lon="-3.293">
        <ele>243.2</ele>
        <time>2024-11-20T08:09:08Z</time>
      </trkpt>
      <trkpt lat="48.13681" lon="-3.29302">
        <ele>243.1</ele>
        <time>2024-11-20T08:09:09Z</time>
      </trkpt>
      <trkpt lat="48.13681" lon="-3.29303">
        <ele>243.1</ele>
        <time>2024-11-20T08:09:10Z</time>
      </trkpt>
      <trkpt lat="48.1368" lon="-3.29305">
        <ele>243.1</ele>
        <time>2024-11-20T08:09:11Z</time>
      </trkpt>
      <trkpt lat="48.1368" lon="-3.29306">
        <ele>243</ele>
        <time>2024-11-20T08:09:12Z</time>
      </trkpt>
      <trkpt lat="48.13679" lon="-3.29309">
        <ele>243</ele>
        <time>2024-11-20T08:09:13Z</time>
      </trkpt>
      <trkpt lat="48.13679" lon="-3.2931">
        <ele>243</ele>
        <time>2024-11-20T08:09:14Z</time>
      </trkpt>
      <trkpt lat="48.13679" lon="-3.29312">
        <ele>243</ele>
        <time>2024-11-20T08:09:15Z</time>
      </trkpt>
      <trkpt lat="48.13678" lon="-3.29314">
        <ele>243.1</ele>
        <time>2024-11-20T08:09:16Z</time>
      </trkpt>
      <trkpt lat="48.13678" lon="-3.29316">
        <ele>243.1</ele>
        <time>2024-11-20T08:09:17Z</time>
      </trkpt>
      <trkpt lat="48.13677" lon="-3.29318">
        <ele>243.1</ele>
        <time>2024-11-20T08:09:18Z</time>
      </trkpt>
      <trkpt lat="48.13677" lon="-3.29319">
        <ele>243.1</ele>
        <time>2024-11-20T08:09:19Z</time>
      </trkpt>
      <trkpt lat="48.13676" lon="-3.29321">
        <ele>243.1</ele>
        <time>2024-11-20T08:09:20Z</time>
      </trkpt>
      <trkpt lat="48.13675" lon="-3.29323">
        <ele>243.2</ele>
        <time>2024-11-20T08:09:21Z</time>
      </trkpt>
      <trkpt lat="48.13675" lon="-3.29325">
        <ele>243.2</ele>
        <time>2024-11-20T08:09:22Z</time>
      </trkpt>
      <trkpt lat="48.13675" lon="-3.29327">
        <ele>243.2</ele>
        <time>2024-11-20T08:09:23Z</time>
      </trkpt>
      <trkpt lat="48.13674" lon="-3.29329">
        <ele>243.2</ele>
        <time>2024-11-20T08:09:24Z</time>
      </trkpt>
      <trkpt lat="48.13674" lon="-3.29331">
        <ele>243.3</ele>
        <time>2024-11-20T08:09:25Z</time>
      </trkpt>
      <trkpt lat="48.13673" lon="-3.29333">
        <ele>243.3</ele>
        <time>2024-11-20T08:09:26Z</time>
      </trkpt>
      <trkpt lat="48.13673" lon="-3.29335">
        <ele>243.3</ele>
        <time>2024-11-20T08:09:27Z</time>
      </trkpt>
      <trkpt lat="48.13673" lon="-3.29337">
        <ele>243.2</ele>
        <time>2024-11-20T08:09:28Z</time>
      </trkpt>
      <trkpt lat="48.13672" lon="-3.29338">
        <ele>243.2</ele>
        <time>2024-11-20T08:09:29Z</time>
      </trkpt>
      <trkpt lat="48.13672" lon="-3.2934">
        <ele>243.2</ele>
        <time>2024-11-20T08:09:30Z</time>
      </trkpt>
      <trkpt lat="48.13671" lon="-3.29341">
        <ele>243.2</ele>
        <time>2024-11-20T08:09:31Z</time>
      </trkpt>
      <trkpt lat="48.13671" lon="-3.29343">
        <ele>243.2</ele>
        <time>2024-11-20T08:09:32Z</time>
      </trkpt>
      <trkpt lat="48.1367" lon="-3.29344">
        <ele>243.2</ele>
        <time>2024-11-20T08:09:33Z</time>
      </trkpt>
      <trkpt lat="48.1367" lon="-3.29345">
        <ele>243.2</ele>
        <time>2024-11-20T08:09:34Z</time>
      </trkpt>
      <trkpt lat="48.13669" lon="-3.29347">
        <ele>243.2</ele>
        <time>2024-11-20T08:09:35Z</time>
      </trkpt>
      <trkpt lat="48.13669" lon="-3.29349">
        <ele>243.2</ele>
        <time>2024-11-20T08:09:36Z</time>
      </trkpt>
      <trkpt lat="48.13668" lon="-3.29351">
        <ele>243.2</ele>
        <time>2024-11-20T08:09:37Z</time>
      </trkpt>
      <trkpt lat="48.13668" lon="-3.29353">
        <ele>243.2</ele>
        <time>2024-11-20T08:09:38Z</time>
      </trkpt>
      <trkpt lat="48.13667" lon="-3.29355">
        <ele>243.2</ele>
        <time>2024-11-20T08:09:39Z</time>
      </trkpt>
      <trkpt lat="48.13667" lon="-3.29357">
        <ele>243.2</ele>
        <time>2024-11-20T08:09:40Z</time>
      </trkpt>
      <trkpt lat="48.13666" lon="-3.29358">
        <ele>243.1</ele>
        <time>2024-11-20T08:09:41Z</time>
      </trkpt>
      <trkpt lat="48.13666" lon="-3.2936">
        <ele>243.1</ele>
        <time>2024-11-20T08:09:42Z</time>
      </trkpt>
      <trkpt lat="48.13665" lon="-3.29361">
        <ele>243.1</ele>
        <time>2024-11-20T08:09:43Z</time>
      </trkpt>
      <trkpt lat="48.13665" lon="-3.29363">
        <ele>243.1</ele>
        <time>2024-11-20T08:09:44Z</time>
      </trkpt>
      <trkpt lat="48.13664" lon="-3.29365">
        <ele>243.1</ele>
        <time>2024-11-20T08:09:45Z</time>
      </trkpt>
      <trkpt lat="48.13664" lon="-3.29366">
        <ele>243.1</ele>
        <time>2024-11-20T08:09:46Z</time>
      </trkpt>
      <trkpt lat="48.13664" lon="-3.29368">
        <ele>243.1</ele>
        <time>2024-11-20T08:09:47Z</time>
      </trkpt>
      <trkpt lat="48.13663" lon="-3.2937">
        <ele>243.1</ele>
        <time>2024-11-20T08:09:48Z</time>
      </trkpt>
      <trkpt lat="48.13663" lon="-3.29371">
        <ele>243.1</ele>
        <time>2024-11-20T08:09:49Z</time>
      </trkpt>
      <trkpt lat="48.13662" lon="-3.29373">
        <ele>243.1</ele>
        <time>2024-11-20T08:09:50Z</time>
      </trkpt>
      <trkpt lat="48.13662" lon="-3.29375">
        <ele>243.1</ele>
        <time>2024-11-20T08:09:51Z</time>
      </trkpt>
      <trkpt lat="48.13661" lon="-3.29377">
        <ele>243.1</ele>
        <time>2024-11-20T08:09:52Z</time>
      </trkpt>
      <trkpt lat="48.13661" lon="-3.29378">
        <ele>243.1</ele>
        <time>2024-11-20T08:09:53Z</time>
      </trkpt>
      <trkpt lat="48.13661" lon="-3.29379">
        <ele>243.1</ele>
        <time>2024-11-20T08:09:54Z</time>
      </trkpt>
      <trkpt lat="48.13661" lon="-3.29381">
        <ele>243.1</ele>
        <time>2024-11-20T08:09:55Z</time>
      </trkpt>
      <trkpt lat="48.1366" lon="-3.29383">
        <ele>243.1</ele>
        <time>2024-11-20T08:09:56Z</time>
      </trkpt>
      <trkpt lat="48.13659" lon="-3.29385">
        <ele>243</ele>
        <time>2024-11-20T08:09:57Z</time>
      </trkpt>
      <trkpt lat="48.13659" lon="-3.29387">
        <ele>243</ele>
        <time>2024-11-20T08:09:58Z</time>
      </trkpt>
      <trkpt lat="48.13659" lon="-3.29388">
        <ele>243</ele>
        <time>2024-11-20T08:09:59Z</time>
      </trkpt>
      <trkpt lat="48.13659" lon="-3.29389">
        <ele>243</ele>
        <time>2024-11-20T08:10:00Z</time>
      </trkpt>
      <trkpt lat="48.13659" lon="-3.29391">
        <ele>242.9</ele>
        <time>2024-11-20T08:10:01Z</time>
      </trkpt>
      <trkpt lat="48.13658" lon="-3.29392">
        <ele>242.8</ele>
        <time>2024-11-20T08:10:02Z</time>
      </trkpt>
      <trkpt lat="48.13658" lon="-3.29394">
        <ele>242.7</ele>
        <time>2024-11-20T08:10:03Z</time>
      </trkpt>
      <trkpt lat="48.13658" lon="-3.29396">
        <ele>242.6</ele>
        <time>2024-11-20T08:10:04Z</time>
      </trkpt>
      <trkpt lat="48.13657" lon="-3.29397">
        <ele>242.5</ele>
        <time>2024-11-20T08:10:05Z</time>
      </trkpt>
      <trkpt lat="48.13657" lon="-3.29399">
        <ele>242.4</ele>
        <time>2024-11-20T08:10:06Z</time>
      </trkpt>
      <trkpt lat="48.13657" lon="-3.29401">
        <ele>242.3</ele>
        <time>2024-11-20T08:10:07Z</time>
      </trkpt>
      <trkpt lat="48.13657" lon="-3.29403">
        <ele>242.2</ele>
        <time>2024-11-20T08:10:08Z</time>
      </trkpt>
      <trkpt lat="48.13657" lon="-3.29404">
        <ele>242.1</ele>
        <time>2024-11-20T08:10:09Z</time>
      </trkpt>
      <trkpt lat="48.13656" lon="-3.29406">
        <ele>242</ele>
        <time>2024-11-20T08:10:10Z</time>
      </trkpt>
      <trkpt lat="48.13656" lon="-3.29409">
        <ele>241.8</ele>
        <time>2024-11-20T08:10:11Z</time>
      </trkpt>
      <trkpt lat="48.13657" lon="-3.29411">
        <ele>241.7</ele>
        <time>2024-11-20T08:10:12Z</time>
      </trkpt>
      <trkpt lat="48.13657" lon="-3.29412">
        <ele>241.6</ele>
        <time>2024-11-20T08:10:13Z</time>
      </trkpt>
      <trkpt lat="48.13657" lon="-3.29414">
        <ele>241.5</ele>
        <time>2024-11-20T08:10:14Z</time>
      </trkpt>
      <trkpt lat="48.13658" lon="-3.29415">
        <ele>241.4</ele>
        <time>2024-11-20T08:10:15Z</time>
      </trkpt>
      <trkpt lat="48.13659" lon="-3.29416">
        <ele>241.3</ele>
        <time>2024-11-20T08:10:16Z</time>
      </trkpt>
      <trkpt lat="48.1366" lon="-3.29416">
        <ele>241.3</ele>
        <time>2024-11-20T08:10:17Z</time>
      </trkpt>
      <trkpt lat="48.13661" lon="-3.29417">
        <ele>241.2</ele>
        <time>2024-11-20T08:10:18Z</time>
      </trkpt>
      <trkpt lat="48.13662" lon="-3.29417">
        <ele>241.1</ele>
        <time>2024-11-20T08:10:19Z</time>
      </trkpt>
      <trkpt lat="48.13664" lon="-3.29417">
        <ele>241.1</ele>
        <time>2024-11-20T08:10:20Z</time>
      </trkpt>
      <trkpt lat="48.13665" lon="-3.29417">
        <ele>241</ele>
        <time>2024-11-20T08:10:21Z</time>
      </trkpt>
      <trkpt lat="48.13666" lon="-3.29418">
        <ele>240.9</ele>
        <time>2024-11-20T08:10:22Z</time>
      </trkpt>
      <trkpt lat="48.13668" lon="-3.29418">
        <ele>240.9</ele>
        <time>2024-11-20T08:10:23Z</time>
      </trkpt>
      <trkpt lat="48.13669" lon="-3.29418">
        <ele>240.8</ele>
        <time>2024-11-20T08:10:24Z</time>
      </trkpt>
      <trkpt lat="48.1367" lon="-3.29418">
        <ele>240.7</ele>
        <time>2024-11-20T08:10:25Z</time>
      </trkpt>
      <trkpt lat="48.13671" lon="-3.29419">
        <ele>240.5</ele>
        <time>2024-11-20T08:10:26Z</time>
      </trkpt>
      <trkpt lat="48.13673" lon="-3.29419">
        <ele>240.4</ele>
        <time>2024-11-20T08:10:27Z</time>
      </trkpt>
      <trkpt lat="48.13674" lon="-3.29419">
        <ele>240.3</ele>
        <time>2024-11-20T08:10:28Z</time>
      </trkpt>
      <trkpt lat="48.13676" lon="-3.29419">
        <ele>240.2</ele>
        <time>2024-11-20T08:10:29Z</time>
      </trkpt>
      <trkpt lat="48.13677" lon="-3.29419">
        <ele>240.1</ele>
        <time>2024-11-20T08:10:30Z</time>
      </trkpt>
      <trkpt lat="48.13678" lon="-3.29419">
        <ele>240.1</ele>
        <time>2024-11-20T08:10:31Z</time>
      </trkpt>
      <trkpt lat="48.13679" lon="-3.29419">
        <ele>240</ele>
        <time>2024-11-20T08:10:32Z</time>
      </trkpt>
      <trkpt lat="48.1368" lon="-3.2942">
        <ele>239.9</ele>
        <time>2024-11-20T08:10:33Z</time>
      </trkpt>
      <trkpt lat="48.13681" lon="-3.2942">
        <ele>239.8</ele>
        <time>2024-11-20T08:10:34Z</time>
      </trkpt>
      <trkpt lat="48.13682" lon="-3.29421">
        <ele>239.7</ele>
        <time>2024-11-20T08:10:35Z</time>
      </trkpt>
      <trkpt lat="48.13683" lon="-3.29421">
        <ele>239.6</ele>
        <time>2024-11-20T08:10:36Z</time>
      </trkpt>
      <trkpt lat="48.13684" lon="-3.29421">
        <ele>239.5</ele>
        <time>2024-11-20T08:10:37Z</time>
      </trkpt>
      <trkpt lat="48.13685" lon="-3.29422">
        <ele>239.4</ele>
        <time>2024-11-20T08:10:38Z</time>
      </trkpt>
      <trkpt lat="48.13686" lon="-3.29422">
        <ele>239.3</ele>
        <time>2024-11-20T08:10:39Z</time>
      </trkpt>
      <trkpt lat="48.13687" lon="-3.29423">
        <ele>239.2</ele>
        <time>2024-11-20T08:10:40Z</time>
      </trkpt>
      <trkpt lat="48.13689" lon="-3.29425">
        <ele>239.1</ele>
        <time>2024-11-20T08:10:41Z</time>
      </trkpt>
      <trkpt lat="48.1369" lon="-3.29426">
        <ele>239</ele>
        <time>2024-11-20T08:10:42Z</time>
      </trkpt>
      <trkpt lat="48.13691" lon="-3.29427">
        <ele>238.9</ele>
        <time>2024-11-20T08:10:43Z</time>
      </trkpt>
      <trkpt lat="48.13692" lon="-3.29427">
        <ele>238.8</ele>
        <time>2024-11-20T08:10:44Z</time>
      </trkpt>
      <trkpt lat="48.13693" lon="-3.29427">
        <ele>238.7</ele>
        <time>2024-11-20T08:10:45Z</time>
      </trkpt>
      <trkpt lat="48.13695" lon="-3.29427">
        <ele>238.6</ele>
        <time>2024-11-20T08:10:46Z</time>
      </trkpt>
      <trkpt lat="48.13696" lon="-3.29427">
        <ele>238.5</ele>
        <time>2024-11-20T08:10:47Z</time>
      </trkpt>
      <trkpt lat="48.13697" lon="-3.29427">
        <ele>238.5</ele>
        <time>2024-11-20T08:10:48Z</time>
      </trkpt>
      <trkpt lat="48.13698" lon="-3.29428">
        <ele>238.3</ele>
        <time>2024-11-20T08:10:49Z</time>
      </trkpt>
      <trkpt lat="48.13699" lon="-3.29428">
        <ele>238.2</ele>
        <time>2024-11-20T08:10:50Z</time>
      </trkpt>
      <trkpt lat="48.137" lon="-3.29429">
        <ele>238.1</ele>
        <time>2024-11-20T08:10:51Z</time>
      </trkpt>
      <trkpt lat="48.13701" lon="-3.29429">
        <ele>238.1</ele>
        <time>2024-11-20T08:10:52Z</time>
      </trkpt>
      <trkpt lat="48.13701" lon="-3.2943">
        <ele>238</ele>
        <time>2024-11-20T08:10:53Z</time>
      </trkpt>
      <trkpt lat="48.13702" lon="-3.2943">
        <ele>238</ele>
        <time>2024-11-20T08:10:54Z</time>
      </trkpt>
      <trkpt lat="48.13703" lon="-3.2943">
        <ele>237.9</ele>
        <time>2024-11-20T08:10:55Z</time>
      </trkpt>
      <trkpt lat="48.13704" lon="-3.2943">
        <ele>237.8</ele>
        <time>2024-11-20T08:10:56Z</time>
      </trkpt>
      <trkpt lat="48.13705" lon="-3.2943">
        <ele>237.7</ele>
        <time>2024-11-20T08:10:57Z</time>
      </trkpt>
      <trkpt lat="48.13707" lon="-3.2943">
        <ele>237.6</ele>
        <time>2024-11-20T08:10:58Z</time>
      </trkpt>
      <trkpt lat="48.13708" lon="-3.29431">
        <ele>237.5</ele>
        <time>2024-11-20T08:10:59Z</time>
      </trkpt>
      <trkpt lat="48.13709" lon="-3.29431">
        <ele>237.4</ele>
        <time>2024-11-20T08:11:00Z</time>
      </trkpt>
      <trkpt lat="48.1371" lon="-3.29431">
        <ele>237.3</ele>
        <time>2024-11-20T08:11:01Z</time>
      </trkpt>
      <trkpt lat="48.13711" lon="-3.29432">
        <ele>237.3</ele>
        <time>2024-11-20T08:11:02Z</time>
      </trkpt>
      <trkpt lat="48.13713" lon="-3.29432">
        <ele>237.2</ele>
        <time>2024-11-20T08:11:03Z</time>
      </trkpt>
      <trkpt lat="48.13714" lon="-3.29432">
        <ele>237</ele>
        <time>2024-11-20T08:11:04Z</time>
      </trkpt>
      <trkpt lat="48.13715" lon="-3.29432">
        <ele>236.9</ele>
        <time>2024-11-20T08:11:05Z</time>
      </trkpt>
      <trkpt lat="48.13716" lon="-3.29433">
        <ele>236.8</ele>
        <time>2024-11-20T08:11:06Z</time>
      </trkpt>
      <trkpt lat="48.13717" lon="-3.29434">
        <ele>236.7</ele>
        <time>2024-11-20T08:11:07Z</time>
      </trkpt>
      <trkpt lat="48.13718" lon="-3.29435">
        <ele>236.6</ele>
        <time>2024-11-20T08:11:08Z</time>
      </trkpt>
      <trkpt lat="48.13719" lon="-3.29436">
        <ele>236.5</ele>
        <time>2024-11-20T08:11:09Z</time>
      </trkpt>
      <trkpt lat="48.1372" lon="-3.29438">
        <ele>236.4</ele>
        <time>2024-11-20T08:11:10Z</time>
      </trkpt>
      <trkpt lat="48.13721" lon="-3.29439">
        <ele>236.2</ele>
        <time>2024-11-20T08:11:11Z</time>
      </trkpt>
      <trkpt lat="48.13722" lon="-3.29441">
        <ele>236.1</ele>
        <time>2024-11-20T08:11:12Z</time>
      </trkpt>
      <trkpt lat="48.13722" lon="-3.29443">
        <ele>236.1</ele>
        <time>2024-11-20T08:11:13Z</time>
      </trkpt>
      <trkpt lat="48.13722" lon="-3.29445">
        <ele>236</ele>
        <time>2024-11-20T08:11:14Z</time>
      </trkpt>
      <trkpt lat="48.13722" lon="-3.29446">
        <ele>235.9</ele>
        <time>2024-11-20T08:11:15Z</time>
      </trkpt>
      <trkpt lat="48.13722" lon="-3.29448">
        <ele>235.9</ele>
        <time>2024-11-20T08:11:16Z</time>
      </trkpt>
      <trkpt lat="48.13721" lon="-3.2945">
        <ele>235.9</ele>
        <time>2024-11-20T08:11:17Z</time>
      </trkpt>
      <trkpt lat="48.13721" lon="-3.29452">
        <ele>235.8</ele>
        <time>2024-11-20T08:11:18Z</time>
      </trkpt>
      <trkpt lat="48.1372" lon="-3.29454">
        <ele>235.8</ele>
        <time>2024-11-20T08:11:19Z</time>
      </trkpt>
      <trkpt lat="48.13719" lon="-3.29455">
        <ele>235.8</ele>
        <time>2024-11-20T08:11:20Z</time>
      </trkpt>
      <trkpt lat="48.13719" lon="-3.29456">
        <ele>235.8</ele>
        <time>2024-11-20T08:11:21Z</time>
      </trkpt>
      <trkpt lat="48.13718" lon="-3.29458">
        <ele>235.8</ele>
        <time>2024-11-20T08:11:22Z</time>
      </trkpt>
      <trkpt lat="48.13718" lon="-3.29459">
        <ele>235.8</ele>
        <time>2024-11-20T08:11:23Z</time>
      </trkpt>
      <trkpt lat="48.13717" lon="-3.29461">
        <ele>235.8</ele>
        <time>2024-11-20T08:11:24Z</time>
      </trkpt>
      <trkpt lat="48.13717" lon="-3.29463">
        <ele>235.7</ele>
        <time>2024-11-20T08:11:25Z</time>
      </trkpt>
      <trkpt lat="48.13716" lon="-3.29465">
        <ele>235.7</ele>
        <time>2024-11-20T08:11:26Z</time>
      </trkpt>
      <trkpt lat="48.13716" lon="-3.29467">
        <ele>235.7</ele>
        <time>2024-11-20T08:11:27Z</time>
      </trkpt>
      <trkpt lat="48.13715" lon="-3.29468">
        <ele>235.7</ele>
        <time>2024-11-20T08:11:28Z</time>
      </trkpt>
      <trkpt lat="48.13715" lon="-3.2947">
        <ele>235.6</ele>
        <time>2024-11-20T08:11:29Z</time>
      </trkpt>
      <trkpt lat="48.13714" lon="-3.29473">
        <ele>235.6</ele>
        <time>2024-11-20T08:11:30Z</time>
      </trkpt>
      <trkpt lat="48.13713" lon="-3.29474">
        <ele>235.6</ele>
        <time>2024-11-20T08:11:31Z</time>
      </trkpt>
      <trkpt lat="48.13713" lon="-3.29476">
        <ele>235.7</ele>
        <time>2024-11-20T08:11:32Z</time>
      </trkpt>
      <trkpt lat="48.13712" lon="-3.29478">
        <ele>235.7</ele>
        <time>2024-11-20T08:11:33Z</time>
      </trkpt>
      <trkpt lat="48.13711" lon="-3.2948">
        <ele>235.7</ele>
        <time>2024-11-20T08:11:34Z</time>
      </trkpt>
      <trkpt lat="48.13711" lon="-3.29481">
        <ele>235.7</ele>
        <time>2024-11-20T08:11:35Z</time>
      </trkpt>
      <trkpt lat="48.1371" lon="-3.29483">
        <ele>235.7</ele>
        <time>2024-11-20T08:11:36Z</time>
      </trkpt>
      <trkpt lat="48.1371" lon="-3.29485">
        <ele>235.7</ele>
        <time>2024-11-20T08:11:37Z</time>
      </trkpt>
      <trkpt lat="48.13709" lon="-3.29486">
        <ele>235.7</ele>
        <time>2024-11-20T08:11:38Z</time>
      </trkpt>
      <trkpt lat="48.13709" lon="-3.29487">
        <ele>235.7</ele>
        <time>2024-11-20T08:11:39Z</time>
      </trkpt>
      <trkpt lat="48.13708" lon="-3.29489">
        <ele>235.7</ele>
        <time>2024-11-20T08:11:40Z</time>
      </trkpt>
      <trkpt lat="48.13708" lon="-3.2949">
        <ele>235.7</ele>
        <time>2024-11-20T08:11:41Z</time>
      </trkpt>
      <trkpt lat="48.13707" lon="-3.29492">
        <ele>235.7</ele>
        <time>2024-11-20T08:11:42Z</time>
      </trkpt>
      <trkpt lat="48.13706" lon="-3.29494">
        <ele>235.7</ele>
        <time>2024-11-20T08:11:43Z</time>
      </trkpt>
      <trkpt lat="48.13706" lon="-3.29495">
        <ele>235.7</ele>
        <time>2024-11-20T08:11:44Z</time>
      </trkpt>
      <trkpt lat="48.13706" lon="-3.29496">
        <ele>235.7</ele>
        <time>2024-11-20T08:11:45Z</time>
      </trkpt>
      <trkpt lat="48.13706" lon="-3.29498">
        <ele>235.6</ele>
        <time>2024-11-20T08:11:46Z</time>
      </trkpt>
      <trkpt lat="48.13706" lon="-3.295">
        <ele>235.6</ele>
        <time>2024-11-20T08:11:47Z</time>
      </trkpt>
      <trkpt lat="48.13705" lon="-3.29501">
        <ele>235.5</ele>
        <time>2024-11-20T08:11:48Z</time>
      </trkpt>
      <trkpt lat="48.13705" lon="-3.29503">
        <ele>235.4</ele>
        <time>2024-11-20T08:11:49Z</time>
      </trkpt>
      <trkpt lat="48.13704" lon="-3.29504">
        <ele>235.3</ele>
        <time>2024-11-20T08:11:50Z</time>
      </trkpt>
      <trkpt lat="48.13704" lon="-3.29505">
        <ele>235.1</ele>
        <time>2024-11-20T08:11:51Z</time>
      </trkpt>
      <trkpt lat="48.13704" lon="-3.29507">
        <ele>235</ele>
        <time>2024-11-20T08:11:52Z</time>
      </trkpt>
      <trkpt lat="48.13703" lon="-3.29508">
        <ele>235</ele>
        <time>2024-11-20T08:11:53Z</time>
      </trkpt>
      <trkpt lat="48.13703" lon="-3.29509">
        <ele>234.9</ele>
        <time>2024-11-20T08:11:54Z</time>
      </trkpt>
      <trkpt lat="48.13703" lon="-3.2951">
        <ele>234.7</ele>
        <time>2024-11-20T08:11:55Z</time>
      </trkpt>
      <trkpt lat="48.13702" lon="-3.29512">
        <ele>234.6</ele>
        <time>2024-11-20T08:11:56Z</time>
      </trkpt>
      <trkpt lat="48.13702" lon="-3.29513">
        <ele>234.5</ele>
        <time>2024-11-20T08:11:57Z</time>
      </trkpt>
      <trkpt lat="48.13701" lon="-3.29515">
        <ele>234.5</ele>
        <time>2024-11-20T08:11:58Z</time>
      </trkpt>
      <trkpt lat="48.13701" lon="-3.29516">
        <ele>234.4</ele>
        <time>2024-11-20T08:11:59Z</time>
      </trkpt>
      <trkpt lat="48.13701" lon="-3.29517">
        <ele>234.3</ele>
        <time>2024-11-20T08:12:00Z</time>
      </trkpt>
      <trkpt lat="48.137" lon="-3.29518">
        <ele>234.2</ele>
        <time>2024-11-20T08:12:01Z</time>
      </trkpt>
      <trkpt lat="48.137" lon="-3.29519">
        <ele>234.2</ele>
        <time>2024-11-20T08:12:02Z</time>
      </trkpt>
      <trkpt lat="48.13699" lon="-3.29521">
        <ele>234.1</ele>
        <time>2024-11-20T08:12:03Z</time>
      </trkpt>
      <trkpt lat="48.13698" lon="-3.29522">
        <ele>234.1</ele>
        <time>2024-11-20T08:12:04Z</time>
      </trkpt>
      <trkpt lat="48.13696" lon="-3.29523">
        <ele>234.2</ele>
        <time>2024-11-20T08:12:05Z</time>
      </trkpt>
      <trkpt lat="48.13695" lon="-3.29524">
        <ele>234.2</ele>
        <time>2024-11-20T08:12:06Z</time>
      </trkpt>
      <trkpt lat="48.13694" lon="-3.29525">
        <ele>234.2</ele>
        <time>2024-11-20T08:12:07Z</time>
      </trkpt>
      <trkpt lat="48.13692" lon="-3.29525">
        <ele>234.2</ele>
        <time>2024-11-20T08:12:08Z</time>
      </trkpt>
      <trkpt lat="48.13691" lon="-3.29525">
        <ele>234.2</ele>
        <time>2024-11-20T08:12:09Z</time>
      </trkpt>
      <trkpt lat="48.1369" lon="-3.29525">
        <ele>234.2</ele>
        <time>2024-11-20T08:12:10Z</time>
      </trkpt>
      <trkpt lat="48.13688" lon="-3.29524">
        <ele>234.3</ele>
        <time>2024-11-20T08:12:11Z</time>
      </trkpt>
      <trkpt lat="48.13687" lon="-3.29523">
        <ele>234.3</ele>
        <time>2024-11-20T08:12:12Z</time>
      </trkpt>
      <trkpt lat="48.13686" lon="-3.29523">
        <ele>234.4</ele>
        <time>2024-11-20T08:12:13Z</time>
      </trkpt>
      <trkpt lat="48.13685" lon="-3.29522">
        <ele>234.4</ele>
        <time>2024-11-20T08:12:14Z</time>
      </trkpt>
      <trkpt lat="48.13684" lon="-3.29522">
        <ele>234.4</ele>
        <time>2024-11-20T08:12:15Z</time>
      </trkpt>
      <trkpt lat="48.13683" lon="-3.29522">
        <ele>234.4</ele>
        <time>2024-11-20T08:12:16Z</time>
      </trkpt>
      <trkpt lat="48.13682" lon="-3.29522">
        <ele>234.5</ele>
        <time>2024-11-20T08:12:17Z</time>
      </trkpt>
      <trkpt lat="48.13681" lon="-3.29521">
        <ele>234.5</ele>
        <time>2024-11-20T08:12:18Z</time>
      </trkpt>
      <trkpt lat="48.1368" lon="-3.2952">
        <ele>234.5</ele>
        <time>2024-11-20T08:12:19Z</time>
      </trkpt>
      <trkpt lat="48.13679" lon="-3.2952">
        <ele>234.6</ele>
        <time>2024-11-20T08:12:20Z</time>
      </trkpt>
      <trkpt lat="48.13678" lon="-3.29519">
        <ele>234.7</ele>
        <time>2024-11-20T08:12:21Z</time>
      </trkpt>
      <trkpt lat="48.13676" lon="-3.29518">
        <ele>234.7</ele>
        <time>2024-11-20T08:12:22Z</time>
      </trkpt>
      <trkpt lat="48.13675" lon="-3.29517">
        <ele>234.8</ele>
        <time>2024-11-20T08:12:23Z</time>
      </trkpt>
      <trkpt lat="48.13674" lon="-3.29516">
        <ele>234.9</ele>
        <time>2024-11-20T08:12:24Z</time>
      </trkpt>
      <trkpt lat="48.13672" lon="-3.29515">
        <ele>234.9</ele>
        <time>2024-11-20T08:12:25Z</time>
      </trkpt>
      <trkpt lat="48.13671" lon="-3.29514">
        <ele>235</ele>
        <time>2024-11-20T08:12:26Z</time>
      </trkpt>
      <trkpt lat="48.1367" lon="-3.29513">
        <ele>235</ele>
        <time>2024-11-20T08:12:27Z</time>
      </trkpt>
      <trkpt lat="48.13669" lon="-3.29513">
        <ele>235.1</ele>
        <time>2024-11-20T08:12:28Z</time>
      </trkpt>
      <trkpt lat="48.13668" lon="-3.29512">
        <ele>235.1</ele>
        <time>2024-11-20T08:12:29Z</time>
      </trkpt>
      <trkpt lat="48.13667" lon="-3.29512">
        <ele>235.1</ele>
        <time>2024-11-20T08:12:30Z</time>
      </trkpt>
      <trkpt lat="48.13666" lon="-3.29512">
        <ele>235.2</ele>
        <time>2024-11-20T08:12:31Z</time>
      </trkpt>
      <trkpt lat="48.13665" lon="-3.29511">
        <ele>235.2</ele>
        <time>2024-11-20T08:12:32Z</time>
      </trkpt>
      <trkpt lat="48.13664" lon="-3.29511">
        <ele>235.3</ele>
        <time>2024-11-20T08:12:33Z</time>
      </trkpt>
      <trkpt lat="48.13663" lon="-3.2951">
        <ele>235.4</ele>
        <time>2024-11-20T08:12:34Z</time>
      </trkpt>
      <trkpt lat="48.13662" lon="-3.29509">
        <ele>235.4</ele>
        <time>2024-11-20T08:12:35Z</time>
      </trkpt>
      <trkpt lat="48.13661" lon="-3.29509">
        <ele>235.5</ele>
        <time>2024-11-20T08:12:36Z</time>
      </trkpt>
      <trkpt lat="48.1366" lon="-3.29508">
        <ele>235.6</ele>
        <time>2024-11-20T08:12:37Z</time>
      </trkpt>
      <trkpt lat="48.13659" lon="-3.29508">
        <ele>235.6</ele>
        <time>2024-11-20T08:12:38Z</time>
      </trkpt>
      <trkpt lat="48.13658" lon="-3.29507">
        <ele>235.7</ele>
        <time>2024-11-20T08:12:39Z</time>
      </trkpt>
      <trkpt lat="48.13657" lon="-3.29506">
        <ele>235.8</ele>
        <time>2024-11-20T08:12:40Z</time>
      </trkpt>
      <trkpt lat="48.13656" lon="-3.29506">
        <ele>235.9</ele>
        <time>2024-11-20T08:12:41Z</time>
      </trkpt>
      <trkpt lat="48.13655" lon="-3.29506">
        <ele>235.9</ele>
        <time>2024-11-20T08:12:42Z</time>
      </trkpt>
      <trkpt lat="48.13654" lon="-3.29506">
        <ele>236</ele>
        <time>2024-11-20T08:12:43Z</time>
      </trkpt>
      <trkpt lat="48.13653" lon="-3.29505">
        <ele>236</ele>
        <time>2024-11-20T08:12:44Z</time>
      </trkpt>
      <trkpt lat="48.13652" lon="-3.29505">
        <ele>236.1</ele>
        <time>2024-11-20T08:12:45Z</time>
      </trkpt>
      <trkpt lat="48.13651" lon="-3.29505">
        <ele>236.1</ele>
        <time>2024-11-20T08:12:46Z</time>
      </trkpt>
      <trkpt lat="48.1365" lon="-3.29504">
        <ele>236.2</ele>
        <time>2024-11-20T08:12:47Z</time>
      </trkpt>
      <trkpt lat="48.13649" lon="-3.29503">
        <ele>236.3</ele>
        <time>2024-11-20T08:12:48Z</time>
      </trkpt>
      <trkpt lat="48.13647" lon="-3.29502">
        <ele>236.5</ele>
        <time>2024-11-20T08:12:49Z</time>
      </trkpt>
      <trkpt lat="48.13646" lon="-3.29502">
        <ele>236.6</ele>
        <time>2024-11-20T08:12:50Z</time>
      </trkpt>
      <trkpt lat="48.13645" lon="-3.29502">
        <ele>236.6</ele>
        <time>2024-11-20T08:12:51Z</time>
      </trkpt>
      <trkpt lat="48.13644" lon="-3.29502">
        <ele>236.7</ele>
        <time>2024-11-20T08:12:52Z</time>
      </trkpt>
      <trkpt lat="48.13643" lon="-3.29502">
        <ele>236.7</ele>
        <time>2024-11-20T08:12:53Z</time>
      </trkpt>
      <trkpt lat="48.13642" lon="-3.29502">
        <ele>236.7</ele>
        <time>2024-11-20T08:12:54Z</time>
      </trkpt>
      <trkpt lat="48.13641" lon="-3.29502">
        <ele>236.8</ele>
        <time>2024-11-20T08:12:55Z</time>
      </trkpt>
      <trkpt lat="48.13639" lon="-3.29502">
        <ele>236.8</ele>
        <time>2024-11-20T08:12:56Z</time>
      </trkpt>
      <trkpt lat="48.13638" lon="-3.29502">
        <ele>236.8</ele>
        <time>2024-11-20T08:12:57Z</time>
      </trkpt>
      <trkpt lat="48.13637" lon="-3.29502">
        <ele>236.7</ele>
        <time>2024-11-20T08:12:58Z</time>
      </trkpt>
      <trkpt lat="48.13636" lon="-3.29502">
        <ele>236.7</ele>
        <time>2024-11-20T08:12:59Z</time>
      </trkpt>
      <trkpt lat="48.13634" lon="-3.29502">
        <ele>236.7</ele>
        <time>2024-11-20T08:13:00Z</time>
      </trkpt>
      <trkpt lat="48.13633" lon="-3.29502">
        <ele>236.6</ele>
        <time>2024-11-20T08:13:01Z</time>
      </trkpt>
      <trkpt lat="48.13632" lon="-3.29502">
        <ele>236.6</ele>
        <time>2024-11-20T08:13:02Z</time>
      </trkpt>
      <trkpt lat="48.13631" lon="-3.29502">
        <ele>236.5</ele>
        <time>2024-11-20T08:13:03Z</time>
      </trkpt>
      <trkpt lat="48.1363" lon="-3.29502">
        <ele>236.5</ele>
        <time>2024-11-20T08:13:04Z</time>
      </trkpt>
      <trkpt lat="48.13629" lon="-3.29502">
        <ele>236.4</ele>
        <time>2024-11-20T08:13:05Z</time>
      </trkpt>
      <trkpt lat="48.13628" lon="-3.29502">
        <ele>236.4</ele>
        <time>2024-11-20T08:13:06Z</time>
      </trkpt>
      <trkpt lat="48.13626" lon="-3.29503">
        <ele>236.3</ele>
        <time>2024-11-20T08:13:07Z</time>
      </trkpt>
      <trkpt lat="48.13625" lon="-3.29504">
        <ele>236.2</ele>
        <time>2024-11-20T08:13:08Z</time>
      </trkpt>
      <trkpt lat="48.13624" lon="-3.29504">
        <ele>236.1</ele>
        <time>2024-11-20T08:13:09Z</time>
      </trkpt>
      <trkpt lat="48.13624" lon="-3.29505">
        <ele>236</ele>
        <time>2024-11-20T08:13:10Z</time>
      </trkpt>
      <trkpt lat="48.13623" lon="-3.29506">
        <ele>235.9</ele>
        <time>2024-11-20T08:13:11Z</time>
      </trkpt>
      <trkpt lat="48.13623" lon="-3.29508">
        <ele>235.8</ele>
        <time>2024-11-20T08:13:12Z</time>
      </trkpt>
      <trkpt lat="48.13622" lon="-3.29509">
        <ele>235.6</ele>
        <time>2024-11-20T08:13:13Z</time>
      </trkpt>
      <trkpt lat="48.13622" lon="-3.2951">
        <ele>235.5</ele>
        <time>2024-11-20T08:13:14Z</time>
      </trkpt>
      <trkpt lat="48.13622" lon="-3.29512">
        <ele>235.4</ele>
        <time>2024-11-20T08:13:15Z</time>
      </trkpt>
      <trkpt lat="48.13622" lon="-3.29513">
        <ele>235.2</ele>
        <time>2024-11-20T08:13:16Z</time>
      </trkpt>
      <trkpt lat="48.13621" lon="-3.29515">
        <ele>235.1</ele>
        <time>2024-11-20T08:13:17Z</time>
      </trkpt>
      <trkpt lat="48.13621" lon="-3.29516">
        <ele>235</ele>
        <time>2024-11-20T08:13:18Z</time>
      </trkpt>
      <trkpt lat="48.13621" lon="-3.29517">
        <ele>234.9</ele>
        <time>2024-11-20T08:13:19Z</time>
      </trkpt>
      <trkpt lat="48.13621" lon="-3.29518">
        <ele>234.8</ele>
        <time>2024-11-20T08:13:20Z</time>
      </trkpt>
      <trkpt lat="48.1362" lon="-3.2952">
        <ele>234.7</ele>
        <time>2024-11-20T08:13:21Z</time>
      </trkpt>
      <trkpt lat="48.1362" lon="-3.29521">
        <ele>234.6</ele>
        <time>2024-11-20T08:13:22Z</time>
      </trkpt>
      <trkpt lat="48.1362" lon="-3.29523">
        <ele>234.4</ele>
        <time>2024-11-20T08:13:23Z</time>
      </trkpt>
      <trkpt lat="48.13619" lon="-3.29525">
        <ele>234.3</ele>
        <time>2024-11-20T08:13:24Z</time>
      </trkpt>
      <trkpt lat="48.13619" lon="-3.29526">
        <ele>234.1</ele>
        <time>2024-11-20T08:13:25Z</time>
      </trkpt>
      <trkpt lat="48.13618" lon="-3.29528">
        <ele>234</ele>
        <time>2024-11-20T08:13:26Z</time>
      </trkpt>
      <trkpt lat="48.13617" lon="-3.29529">
        <ele>233.9</ele>
        <time>2024-11-20T08:13:27Z</time>
      </trkpt>
      <trkpt lat="48.13617" lon="-3.2953">
        <ele>233.8</ele>
        <time>2024-11-20T08:13:28Z</time>
      </trkpt>
      <trkpt lat="48.13616" lon="-3.2953">
        <ele>233.7</ele>
        <time>2024-11-20T08:13:29Z</time>
      </trkpt>
      <trkpt lat="48.13616" lon="-3.29531">
        <ele>233.7</ele>
        <time>2024-11-20T08:13:30Z</time>
      </trkpt>
      <trkpt lat="48.13615" lon="-3.29532">
        <ele>233.6</ele>
        <time>2024-11-20T08:13:31Z</time>
      </trkpt>
      <trkpt lat="48.13614" lon="-3.29532">
        <ele>233.6</ele>
        <time>2024-11-20T08:13:32Z</time>
      </trkpt>
      <trkpt lat="48.13612" lon="-3.29532">
        <ele>233.5</ele>
        <time>2024-11-20T08:13:33Z</time>
      </trkpt>
      <trkpt lat="48.13611" lon="-3.29532">
        <ele>233.6</ele>
        <time>2024-11-20T08:13:34Z</time>
      </trkpt>
      <trkpt lat="48.1361" lon="-3.29532">
        <ele>233.5</ele>
        <time>2024-11-20T08:13:35Z</time>
      </trkpt>
      <trkpt lat="48.13608" lon="-3.29531">
        <ele>233.5</ele>
        <time>2024-11-20T08:13:36Z</time>
      </trkpt>
      <trkpt lat="48.13607" lon="-3.29531">
        <ele>233.5</ele>
        <time>2024-11-20T08:13:37Z</time>
      </trkpt>
      <trkpt lat="48.13605" lon="-3.29531">
        <ele>233.4</ele>
        <time>2024-11-20T08:13:38Z</time>
      </trkpt>
      <trkpt lat="48.13604" lon="-3.29531">
        <ele>233.4</ele>
        <time>2024-11-20T08:13:39Z</time>
      </trkpt>
      <trkpt lat="48.13603" lon="-3.2953">
        <ele>233.4</ele>
        <time>2024-11-20T08:13:40Z</time>
      </trkpt>
      <trkpt lat="48.13601" lon="-3.2953">
        <ele>233.4</ele>
        <time>2024-11-20T08:13:41Z</time>
      </trkpt>
      <trkpt lat="48.13599" lon="-3.29529">
        <ele>233.4</ele>
        <time>2024-11-20T08:13:42Z</time>
      </trkpt>
      <trkpt lat="48.13598" lon="-3.29529">
        <ele>233.4</ele>
        <time>2024-11-20T08:13:43Z</time>
      </trkpt>
      <trkpt lat="48.13596" lon="-3.29529">
        <ele>233.4</ele>
        <time>2024-11-20T08:13:44Z</time>
      </trkpt>
      <trkpt lat="48.13595" lon="-3.29528">
        <ele>233.3</ele>
        <time>2024-11-20T08:13:45Z</time>
      </trkpt>
      <trkpt lat="48.13592" lon="-3.29526">
        <ele>233.4</ele>
        <time>2024-11-20T08:13:48Z</time>
      </trkpt>
      <trkpt lat="48.13591" lon="-3.29526">
        <ele>233.4</ele>
        <time>2024-11-20T08:13:49Z</time>
      </trkpt>
      <trkpt lat="48.13589" lon="-3.29526">
        <ele>233.4</ele>
        <time>2024-11-20T08:13:50Z</time>
      </trkpt>
      <trkpt lat="48.13588" lon="-3.29526">
        <ele>233.3</ele>
        <time>2024-11-20T08:13:51Z</time>
      </trkpt>
      <trkpt lat="48.13587" lon="-3.29526">
        <ele>233.3</ele>
        <time>2024-11-20T08:13:52Z</time>
      </trkpt>
      <trkpt lat="48.13586" lon="-3.29526">
        <ele>233.2</ele>
        <time>2024-11-20T08:13:53Z</time>
      </trkpt>
      <trkpt lat="48.13584" lon="-3.29526">
        <ele>233.2</ele>
        <time>2024-11-20T08:13:54Z</time>
      </trkpt>
      <trkpt lat="48.13583" lon="-3.29526">
        <ele>233.2</ele>
        <time>2024-11-20T08:13:55Z</time>
      </trkpt>
      <trkpt lat="48.13582" lon="-3.29526">
        <ele>233.1</ele>
        <time>2024-11-20T08:13:56Z</time>
      </trkpt>
      <trkpt lat="48.13582" lon="-3.29527">
        <ele>233</ele>
        <time>2024-11-20T08:13:57Z</time>
      </trkpt>
      <trkpt lat="48.13581" lon="-3.29528">
        <ele>232.9</ele>
        <time>2024-11-20T08:13:58Z</time>
      </trkpt>
      <trkpt lat="48.1358" lon="-3.29528">
        <ele>232.9</ele>
        <time>2024-11-20T08:13:59Z</time>
      </trkpt>
      <trkpt lat="48.13579" lon="-3.29527">
        <ele>232.9</ele>
        <time>2024-11-20T08:14:00Z</time>
      </trkpt>
      <trkpt lat="48.13577" lon="-3.29526">
        <ele>232.9</ele>
        <time>2024-11-20T08:14:01Z</time>
      </trkpt>
      <trkpt lat="48.13576" lon="-3.29525">
        <ele>232.9</ele>
        <time>2024-11-20T08:14:02Z</time>
      </trkpt>
      <trkpt lat="48.13575" lon="-3.29525">
        <ele>232.9</ele>
        <time>2024-11-20T08:14:03Z</time>
      </trkpt>
      <trkpt lat="48.13573" lon="-3.29524">
        <ele>232.9</ele>
        <time>2024-11-20T08:14:04Z</time>
      </trkpt>
      <trkpt lat="48.13572" lon="-3.29523">
        <ele>232.9</ele>
        <time>2024-11-20T08:14:05Z</time>
      </trkpt>
      <trkpt lat="48.13571" lon="-3.29522">
        <ele>232.9</ele>
        <time>2024-11-20T08:14:06Z</time>
      </trkpt>
      <trkpt lat="48.13569" lon="-3.29522">
        <ele>232.9</ele>
        <time>2024-11-20T08:14:07Z</time>
      </trkpt>
      <trkpt lat="48.13568" lon="-3.29522">
        <ele>232.9</ele>
        <time>2024-11-20T08:14:08Z</time>
      </trkpt>
      <trkpt lat="48.13567" lon="-3.29521">
        <ele>232.9</ele>
        <time>2024-11-20T08:14:09Z</time>
      </trkpt>
      <trkpt lat="48.13565" lon="-3.29521">
        <ele>232.9</ele>
        <time>2024-11-20T08:14:10Z</time>
      </trkpt>
      <trkpt lat="48.13564" lon="-3.2952">
        <ele>232.9</ele>
        <time>2024-11-20T08:14:11Z</time>
      </trkpt>
      <trkpt lat="48.13563" lon="-3.29519">
        <ele>232.9</ele>
        <time>2024-11-20T08:14:12Z</time>
      </trkpt>
      <trkpt lat="48.13562" lon="-3.29519">
        <ele>232.9</ele>
        <time>2024-11-20T08:14:13Z</time>
      </trkpt>
      <trkpt lat="48.13561" lon="-3.29519">
        <ele>232.8</ele>
        <time>2024-11-20T08:14:14Z</time>
      </trkpt>
      <trkpt lat="48.13559" lon="-3.29519">
        <ele>232.8</ele>
        <time>2024-11-20T08:14:15Z</time>
      </trkpt>
      <trkpt lat="48.13559" lon="-3.29519">
        <ele>232.8</ele>
        <time>2024-11-20T08:14:16Z</time>
      </trkpt>
      <trkpt lat="48.13558" lon="-3.29519">
        <ele>232.7</ele>
        <time>2024-11-20T08:14:17Z</time>
      </trkpt>
      <trkpt lat="48.13557" lon="-3.29519">
        <ele>232.7</ele>
        <time>2024-11-20T08:14:18Z</time>
      </trkpt>
      <trkpt lat="48.13555" lon="-3.29519">
        <ele>232.7</ele>
        <time>2024-11-20T08:14:19Z</time>
      </trkpt>
      <trkpt lat="48.13554" lon="-3.29519">
        <ele>232.7</ele>
        <time>2024-11-20T08:14:20Z</time>
      </trkpt>
      <trkpt lat="48.13553" lon="-3.29519">
        <ele>232.7</ele>
        <time>2024-11-20T08:14:21Z</time>
      </trkpt>
      <trkpt lat="48.13552" lon="-3.2952">
        <ele>232.7</ele>
        <time>2024-11-20T08:14:22Z</time>
      </trkpt>
      <trkpt lat="48.13551" lon="-3.29521">
        <ele>232.6</ele>
        <time>2024-11-20T08:14:23Z</time>
      </trkpt>
      <trkpt lat="48.13551" lon="-3.29523">
        <ele>232.5</ele>
        <time>2024-11-20T08:14:24Z</time>
      </trkpt>
      <trkpt lat="48.1355" lon="-3.29524">
        <ele>232.4</ele>
        <time>2024-11-20T08:14:25Z</time>
      </trkpt>
      <trkpt lat="48.1355" lon="-3.29526">
        <ele>232.3</ele>
        <time>2024-11-20T08:14:26Z</time>
      </trkpt>
      <trkpt lat="48.1355" lon="-3.29528">
        <ele>232.2</ele>
        <time>2024-11-20T08:14:27Z</time>
      </trkpt>
      <trkpt lat="48.1355" lon="-3.2953">
        <ele>232.1</ele>
        <time>2024-11-20T08:14:28Z</time>
      </trkpt>
      <trkpt lat="48.1355" lon="-3.29531">
        <ele>232.1</ele>
        <time>2024-11-20T08:14:29Z</time>
      </trkpt>
      <trkpt lat="48.1355" lon="-3.29533">
        <ele>232</ele>
        <time>2024-11-20T08:14:30Z</time>
      </trkpt>
      <trkpt lat="48.13551" lon="-3.29535">
        <ele>231.9</ele>
        <time>2024-11-20T08:14:31Z</time>
      </trkpt>
      <trkpt lat="48.13551" lon="-3.29537">
        <ele>231.8</ele>
        <time>2024-11-20T08:14:32Z</time>
      </trkpt>
      <trkpt lat="48.13552" lon="-3.29538">
        <ele>231.8</ele>
        <time>2024-11-20T08:14:33Z</time>
      </trkpt>
      <trkpt lat="48.13552" lon="-3.2954">
        <ele>231.7</ele>
        <time>2024-11-20T08:14:34Z</time>
      </trkpt>
      <trkpt lat="48.13552" lon="-3.29542">
        <ele>231.6</ele>
        <time>2024-11-20T08:14:35Z</time>
      </trkpt>
      <trkpt lat="48.13552" lon="-3.29544">
        <ele>231.5</ele>
        <time>2024-11-20T08:14:36Z</time>
      </trkpt>
      <trkpt lat="48.13553" lon="-3.29545">
        <ele>231.5</ele>
        <time>2024-11-20T08:14:37Z</time>
      </trkpt>
      <trkpt lat="48.13553" lon="-3.29547">
        <ele>231.4</ele>
        <time>2024-11-20T08:14:38Z</time>
      </trkpt>
      <trkpt lat="48.13553" lon="-3.29548">
        <ele>231.4</ele>
        <time>2024-11-20T08:14:39Z</time>
      </trkpt>
      <trkpt lat="48.13554" lon="-3.29549">
        <ele>231.3</ele>
        <time>2024-11-20T08:14:40Z</time>
      </trkpt>
      <trkpt lat="48.13555" lon="-3.2955">
        <ele>231.2</ele>
        <time>2024-11-20T08:14:41Z</time>
      </trkpt>
      <trkpt lat="48.13555" lon="-3.29552">
        <ele>231.2</ele>
        <time>2024-11-20T08:14:42Z</time>
      </trkpt>
      <trkpt lat="48.13555" lon="-3.29554">
        <ele>231.1</ele>
        <time>2024-11-20T08:14:43Z</time>
      </trkpt>
      <trkpt lat="48.13556" lon="-3.29555">
        <ele>231</ele>
        <time>2024-11-20T08:14:44Z</time>
      </trkpt>
      <trkpt lat="48.13556" lon="-3.29557">
        <ele>230.9</ele>
        <time>2024-11-20T08:14:45Z</time>
      </trkpt>
      <trkpt lat="48.13557" lon="-3.29558">
        <ele>230.7</ele>
        <time>2024-11-20T08:14:46Z</time>
      </trkpt>
      <trkpt lat="48.13557" lon="-3.2956">
        <ele>230.6</ele>
        <time>2024-11-20T08:14:47Z</time>
      </trkpt>
      <trkpt lat="48.13557" lon="-3.29561">
        <ele>230.4</ele>
        <time>2024-11-20T08:14:48Z</time>
      </trkpt>
      <trkpt lat="48.13558" lon="-3.29563">
        <ele>230.3</ele>
        <time>2024-11-20T08:14:49Z</time>
      </trkpt>
      <trkpt lat="48.13558" lon="-3.29565">
        <ele>230.1</ele>
        <time>2024-11-20T08:14:50Z</time>
      </trkpt>
      <trkpt lat="48.13558" lon="-3.29566">
        <ele>229.9</ele>
        <time>2024-11-20T08:14:51Z</time>
      </trkpt>
      <trkpt lat="48.13559" lon="-3.29568">
        <ele>229.8</ele>
        <time>2024-11-20T08:14:52Z</time>
      </trkpt>
      <trkpt lat="48.13559" lon="-3.2957">
        <ele>229.6</ele>
        <time>2024-11-20T08:14:53Z</time>
      </trkpt>
      <trkpt lat="48.1356" lon="-3.29571">
        <ele>229.4</ele>
        <time>2024-11-20T08:14:54Z</time>
      </trkpt>
      <trkpt lat="48.1356" lon="-3.29573">
        <ele>229.2</ele>
        <time>2024-11-20T08:14:55Z</time>
      </trkpt>
      <trkpt lat="48.13561" lon="-3.29574">
        <ele>229</ele>
        <time>2024-11-20T08:14:56Z</time>
      </trkpt>
      <trkpt lat="48.13561" lon="-3.29576">
        <ele>228.8</ele>
        <time>2024-11-20T08:14:57Z</time>
      </trkpt>
      <trkpt lat="48.13561" lon="-3.29578">
        <ele>228.6</ele>
        <time>2024-11-20T08:14:58Z</time>
      </trkpt>
      <trkpt lat="48.13561" lon="-3.2958">
        <ele>228.4</ele>
        <time>2024-11-20T08:14:59Z</time>
      </trkpt>
      <trkpt lat="48.13562" lon="-3.29582">
        <ele>228.3</ele>
        <time>2024-11-20T08:15:00Z</time>
      </trkpt>
      <trkpt lat="48.13562" lon="-3.29583">
        <ele>228.2</ele>
        <time>2024-11-20T08:15:01Z</time>
      </trkpt>
      <trkpt lat="48.13562" lon="-3.29585">
        <ele>228</ele>
        <time>2024-11-20T08:15:02Z</time>
      </trkpt>
      <trkpt lat="48.13561" lon="-3.29586">
        <ele>227.8</ele>
        <time>2024-11-20T08:15:03Z</time>
      </trkpt>
      <trkpt lat="48.13561" lon="-3.29588">
        <ele>227.6</ele>
        <time>2024-11-20T08:15:04Z</time>
      </trkpt>
      <trkpt lat="48.13561" lon="-3.2959">
        <ele>227.5</ele>
        <time>2024-11-20T08:15:05Z</time>
      </trkpt>
      <trkpt lat="48.1356" lon="-3.29592">
        <ele>227.4</ele>
        <time>2024-11-20T08:15:06Z</time>
      </trkpt>
      <trkpt lat="48.13559" lon="-3.29594">
        <ele>227.3</ele>
        <time>2024-11-20T08:15:07Z</time>
      </trkpt>
      <trkpt lat="48.13558" lon="-3.29596">
        <ele>227.2</ele>
        <time>2024-11-20T08:15:08Z</time>
      </trkpt>
      <trkpt lat="48.13557" lon="-3.29598">
        <ele>227.2</ele>
        <time>2024-11-20T08:15:09Z</time>
      </trkpt>
      <trkpt lat="48.13556" lon="-3.29599">
        <ele>227.2</ele>
        <time>2024-11-20T08:15:10Z</time>
      </trkpt>
      <trkpt lat="48.13555" lon="-3.29601">
        <ele>227.2</ele>
        <time>2024-11-20T08:15:11Z</time>
      </trkpt>
      <trkpt lat="48.13554" lon="-3.29602">
        <ele>227.1</ele>
        <time>2024-11-20T08:15:12Z</time>
      </trkpt>
      <trkpt lat="48.13554" lon="-3.29603">
        <ele>227</ele>
        <time>2024-11-20T08:15:13Z</time>
      </trkpt>
      <trkpt lat="48.13553" lon="-3.29604">
        <ele>226.9</ele>
        <time>2024-11-20T08:15:14Z</time>
      </trkpt>
      <trkpt lat="48.13552" lon="-3.29605">
        <ele>226.9</ele>
        <time>2024-11-20T08:15:15Z</time>
      </trkpt>
      <trkpt lat="48.13551" lon="-3.29606">
        <ele>226.9</ele>
        <time>2024-11-20T08:15:16Z</time>
      </trkpt>
      <trkpt lat="48.13549" lon="-3.29607">
        <ele>226.9</ele>
        <time>2024-11-20T08:15:17Z</time>
      </trkpt>
      <trkpt lat="48.13548" lon="-3.29607">
        <ele>227</ele>
        <time>2024-11-20T08:15:18Z</time>
      </trkpt>
      <trkpt lat="48.13547" lon="-3.29607">
        <ele>227</ele>
        <time>2024-11-20T08:15:19Z</time>
      </trkpt>
      <trkpt lat="48.13545" lon="-3.29608">
        <ele>227.1</ele>
        <time>2024-11-20T08:15:20Z</time>
      </trkpt>
      <trkpt lat="48.13544" lon="-3.29608">
        <ele>227.1</ele>
        <time>2024-11-20T08:15:21Z</time>
      </trkpt>
      <trkpt lat="48.13542" lon="-3.29608">
        <ele>227.2</ele>
        <time>2024-11-20T08:15:22Z</time>
      </trkpt>
      <trkpt lat="48.13541" lon="-3.29608">
        <ele>227.3</ele>
        <time>2024-11-20T08:15:23Z</time>
      </trkpt>
      <trkpt lat="48.13539" lon="-3.29608">
        <ele>227.4</ele>
        <time>2024-11-20T08:15:24Z</time>
      </trkpt>
      <trkpt lat="48.13538" lon="-3.29608">
        <ele>227.5</ele>
        <time>2024-11-20T08:15:25Z</time>
      </trkpt>
      <trkpt lat="48.13537" lon="-3.29608">
        <ele>227.6</ele>
        <time>2024-11-20T08:15:26Z</time>
      </trkpt>
      <trkpt lat="48.13535" lon="-3.29608">
        <ele>227.7</ele>
        <time>2024-11-20T08:15:27Z</time>
      </trkpt>
      <trkpt lat="48.13534" lon="-3.29608">
        <ele>227.8</ele>
        <time>2024-11-20T08:15:28Z</time>
      </trkpt>
      <trkpt lat="48.13533" lon="-3.29608">
        <ele>227.9</ele>
        <time>2024-11-20T08:15:29Z</time>
      </trkpt>
      <trkpt lat="48.13532" lon="-3.29609">
        <ele>227.9</ele>
        <time>2024-11-20T08:15:30Z</time>
      </trkpt>
      <trkpt lat="48.13531" lon="-3.29609">
        <ele>228</ele>
        <time>2024-11-20T08:15:31Z</time>
      </trkpt>
      <trkpt lat="48.13529" lon="-3.29609">
        <ele>228.1</ele>
        <time>2024-11-20T08:15:32Z</time>
      </trkpt>
      <trkpt lat="48.13528" lon="-3.29609">
        <ele>228.2</ele>
        <time>2024-11-20T08:15:33Z</time>
      </trkpt>
      <trkpt lat="48.13526" lon="-3.29609">
        <ele>228.1</ele>
        <time>2024-11-20T08:15:34Z</time>
      </trkpt>
      <trkpt lat="48.13525" lon="-3.29609">
        <ele>228.1</ele>
        <time>2024-11-20T08:15:35Z</time>
      </trkpt>
      <trkpt lat="48.13524" lon="-3.29609">
        <ele>228.1</ele>
        <time>2024-11-20T08:15:36Z</time>
      </trkpt>
      <trkpt lat="48.13523" lon="-3.29608">
        <ele>228</ele>
        <time>2024-11-20T08:15:37Z</time>
      </trkpt>
      <trkpt lat="48.13521" lon="-3.29609">
        <ele>228</ele>
        <time>2024-11-20T08:15:38Z</time>
      </trkpt>
      <trkpt lat="48.1352" lon="-3.29609">
        <ele>227.9</ele>
        <time>2024-11-20T08:15:39Z</time>
      </trkpt>
      <trkpt lat="48.13519" lon="-3.29609">
        <ele>227.9</ele>
        <time>2024-11-20T08:15:40Z</time>
      </trkpt>
      <trkpt lat="48.13518" lon="-3.29608">
        <ele>227.9</ele>
        <time>2024-11-20T08:15:41Z</time>
      </trkpt>
      <trkpt lat="48.13516" lon="-3.29608">
        <ele>227.8</ele>
        <time>2024-11-20T08:15:42Z</time>
      </trkpt>
      <trkpt lat="48.13515" lon="-3.29608">
        <ele>227.8</ele>
        <time>2024-11-20T08:15:43Z</time>
      </trkpt>
      <trkpt lat="48.13514" lon="-3.29608">
        <ele>227.8</ele>
        <time>2024-11-20T08:15:44Z</time>
      </trkpt>
      <trkpt lat="48.13512" lon="-3.29608">
        <ele>227.7</ele>
        <time>2024-11-20T08:15:45Z</time>
      </trkpt>
      <trkpt lat="48.13511" lon="-3.29608">
        <ele>227.7</ele>
        <time>2024-11-20T08:15:46Z</time>
      </trkpt>
      <trkpt lat="48.1351" lon="-3.29608">
        <ele>227.7</ele>
        <time>2024-11-20T08:15:47Z</time>
      </trkpt>
      <trkpt lat="48.13509" lon="-3.29608">
        <ele>227.7</ele>
        <time>2024-11-20T08:15:48Z</time>
      </trkpt>
      <trkpt lat="48.13507" lon="-3.29607">
        <ele>227.6</ele>
        <time>2024-11-20T08:15:49Z</time>
      </trkpt>
      <trkpt lat="48.13506" lon="-3.29607">
        <ele>227.6</ele>
        <time>2024-11-20T08:15:50Z</time>
      </trkpt>
      <trkpt lat="48.13505" lon="-3.29607">
        <ele>227.6</ele>
        <time>2024-11-20T08:15:51Z</time>
      </trkpt>
      <trkpt lat="48.13503" lon="-3.29606">
        <ele>227.6</ele>
        <time>2024-11-20T08:15:52Z</time>
      </trkpt>
      <trkpt lat="48.13502" lon="-3.29606">
        <ele>227.7</ele>
        <time>2024-11-20T08:15:53Z</time>
      </trkpt>
      <trkpt lat="48.13501" lon="-3.29605">
        <ele>227.7</ele>
        <time>2024-11-20T08:15:54Z</time>
      </trkpt>
      <trkpt lat="48.135" lon="-3.29605">
        <ele>227.7</ele>
        <time>2024-11-20T08:15:55Z</time>
      </trkpt>
      <trkpt lat="48.13499" lon="-3.29605">
        <ele>227.5</ele>
        <time>2024-11-20T08:15:56Z</time>
      </trkpt>
      <trkpt lat="48.13498" lon="-3.29604">
        <ele>227.4</ele>
        <time>2024-11-20T08:15:57Z</time>
      </trkpt>
      <trkpt lat="48.13497" lon="-3.29604">
        <ele>227.2</ele>
        <time>2024-11-20T08:15:58Z</time>
      </trkpt>
      <trkpt lat="48.13495" lon="-3.29604">
        <ele>226.9</ele>
        <time>2024-11-20T08:16:00Z</time>
      </trkpt>
      <trkpt lat="48.13493" lon="-3.29603">
        <ele>226.7</ele>
        <time>2024-11-20T08:16:01Z</time>
      </trkpt>
      <trkpt lat="48.13492" lon="-3.29603">
        <ele>226.5</ele>
        <time>2024-11-20T08:16:02Z</time>
      </trkpt>
      <trkpt lat="48.13491" lon="-3.29603">
        <ele>226.4</ele>
        <time>2024-11-20T08:16:03Z</time>
      </trkpt>
      <trkpt lat="48.1349" lon="-3.29603">
        <ele>226.2</ele>
        <time>2024-11-20T08:16:04Z</time>
      </trkpt>
      <trkpt lat="48.13489" lon="-3.29602">
        <ele>226.1</ele>
        <time>2024-11-20T08:16:05Z</time>
      </trkpt>
      <trkpt lat="48.13488" lon="-3.29602">
        <ele>226</ele>
        <time>2024-11-20T08:16:06Z</time>
      </trkpt>
      <trkpt lat="48.13487" lon="-3.29601">
        <ele>225.8</ele>
        <time>2024-11-20T08:16:07Z</time>
      </trkpt>
      <trkpt lat="48.13485" lon="-3.29601">
        <ele>225.7</ele>
        <time>2024-11-20T08:16:08Z</time>
      </trkpt>
      <trkpt lat="48.13484" lon="-3.296">
        <ele>225.5</ele>
        <time>2024-11-20T08:16:09Z</time>
      </trkpt>
      <trkpt lat="48.13483" lon="-3.296">
        <ele>225.4</ele>
        <time>2024-11-20T08:16:10Z</time>
      </trkpt>
      <trkpt lat="48.13481" lon="-3.29599">
        <ele>225.2</ele>
        <time>2024-11-20T08:16:11Z</time>
      </trkpt>
      <trkpt lat="48.1348" lon="-3.29599">
        <ele>225.1</ele>
        <time>2024-11-20T08:16:12Z</time>
      </trkpt>
      <trkpt lat="48.13479" lon="-3.29599">
        <ele>224.9</ele>
        <time>2024-11-20T08:16:13Z</time>
      </trkpt>
      <trkpt lat="48.13478" lon="-3.29598">
        <ele>224.8</ele>
        <time>2024-11-20T08:16:14Z</time>
      </trkpt>
      <trkpt lat="48.13477" lon="-3.29598">
        <ele>224.7</ele>
        <time>2024-11-20T08:16:15Z</time>
      </trkpt>
      <trkpt lat="48.13476" lon="-3.29598">
        <ele>224.5</ele>
        <time>2024-11-20T08:16:16Z</time>
      </trkpt>
      <trkpt lat="48.13475" lon="-3.29598">
        <ele>224.4</ele>
        <time>2024-11-20T08:16:17Z</time>
      </trkpt>
      <trkpt lat="48.13474" lon="-3.29598">
        <ele>224.2</ele>
        <time>2024-11-20T08:16:18Z</time>
      </trkpt>
      <trkpt lat="48.13473" lon="-3.29598">
        <ele>224</ele>
        <time>2024-11-20T08:16:19Z</time>
      </trkpt>
      <trkpt lat="48.13472" lon="-3.29598">
        <ele>223.8</ele>
        <time>2024-11-20T08:16:20Z</time>
      </trkpt>
      <trkpt lat="48.13471" lon="-3.29598">
        <ele>223.7</ele>
        <time>2024-11-20T08:16:21Z</time>
      </trkpt>
      <trkpt lat="48.1347" lon="-3.29598">
        <ele>223.5</ele>
        <time>2024-11-20T08:16:22Z</time>
      </trkpt>
      <trkpt lat="48.13468" lon="-3.29598">
        <ele>223.4</ele>
        <time>2024-11-20T08:16:23Z</time>
      </trkpt>
      <trkpt lat="48.13467" lon="-3.29597">
        <ele>223.3</ele>
        <time>2024-11-20T08:16:24Z</time>
      </trkpt>
      <trkpt lat="48.13466" lon="-3.29597">
        <ele>223.1</ele>
        <time>2024-11-20T08:16:25Z</time>
      </trkpt>
      <trkpt lat="48.13466" lon="-3.29598">
        <ele>223</ele>
        <time>2024-11-20T08:16:26Z</time>
      </trkpt>
      <trkpt lat="48.13465" lon="-3.29598">
        <ele>222.8</ele>
        <time>2024-11-20T08:16:27Z</time>
      </trkpt>
      <trkpt lat="48.13464" lon="-3.29598">
        <ele>222.6</ele>
        <time>2024-11-20T08:16:28Z</time>
      </trkpt>
      <trkpt lat="48.13462" lon="-3.29599">
        <ele>222.4</ele>
        <time>2024-11-20T08:16:29Z</time>
      </trkpt>
      <trkpt lat="48.13462" lon="-3.29599">
        <ele>222.2</ele>
        <time>2024-11-20T08:16:30Z</time>
      </trkpt>
      <trkpt lat="48.13461" lon="-3.29599">
        <ele>222.2</ele>
        <time>2024-11-20T08:16:31Z</time>
      </trkpt>
      <trkpt lat="48.13461" lon="-3.29599">
        <ele>222.1</ele>
        <time>2024-11-20T08:16:32Z</time>
      </trkpt>
      <trkpt lat="48.1346" lon="-3.296">
        <ele>221.9</ele>
        <time>2024-11-20T08:16:33Z</time>
      </trkpt>
      <trkpt lat="48.13459" lon="-3.296">
        <ele>221.7</ele>
        <time>2024-11-20T08:16:34Z</time>
      </trkpt>
      <trkpt lat="48.13458" lon="-3.29601">
        <ele>221.4</ele>
        <time>2024-11-20T08:16:35Z</time>
      </trkpt>
      <trkpt lat="48.13457" lon="-3.29601">
        <ele>221.2</ele>
        <time>2024-11-20T08:16:36Z</time>
      </trkpt>
      <trkpt lat="48.13456" lon="-3.29602">
        <ele>221</ele>
        <time>2024-11-20T08:16:37Z</time>
      </trkpt>
      <trkpt lat="48.13455" lon="-3.29602">
        <ele>220.7</ele>
        <time>2024-11-20T08:16:38Z</time>
      </trkpt>
      <trkpt lat="48.13454" lon="-3.29603">
        <ele>220.5</ele>
        <time>2024-11-20T08:16:39Z</time>
      </trkpt>
      <trkpt lat="48.13453" lon="-3.29604">
        <ele>220.3</ele>
        <time>2024-11-20T08:16:40Z</time>
      </trkpt>
      <trkpt lat="48.13452" lon="-3.29604">
        <ele>220.1</ele>
        <time>2024-11-20T08:16:41Z</time>
      </trkpt>
      <trkpt lat="48.13452" lon="-3.29605">
        <ele>219.9</ele>
        <time>2024-11-20T08:16:42Z</time>
      </trkpt>
      <trkpt lat="48.13451" lon="-3.29607">
        <ele>219.6</ele>
        <time>2024-11-20T08:16:43Z</time>
      </trkpt>
      <trkpt lat="48.13451" lon="-3.29608">
        <ele>219.4</ele>
        <time>2024-11-20T08:16:44Z</time>
      </trkpt>
      <trkpt lat="48.13451" lon="-3.2961">
        <ele>219.1</ele>
        <time>2024-11-20T08:16:45Z</time>
      </trkpt>
      <trkpt lat="48.13451" lon="-3.29612">
        <ele>219</ele>
        <time>2024-11-20T08:16:46Z</time>
      </trkpt>
      <trkpt lat="48.13452" lon="-3.29613">
        <ele>219</ele>
        <time>2024-11-20T08:16:47Z</time>
      </trkpt>
      <trkpt lat="48.13453" lon="-3.29615">
        <ele>219</ele>
        <time>2024-11-20T08:16:48Z</time>
      </trkpt>
      <trkpt lat="48.13454" lon="-3.29616">
        <ele>219.1</ele>
        <time>2024-11-20T08:16:49Z</time>
      </trkpt>
      <trkpt lat="48.13454" lon="-3.29617">
        <ele>219.1</ele>
        <time>2024-11-20T08:16:50Z</time>
      </trkpt>
      <trkpt lat="48.13455" lon="-3.29618">
        <ele>219.2</ele>
        <time>2024-11-20T08:16:51Z</time>
      </trkpt>
      <trkpt lat="48.13456" lon="-3.2962">
        <ele>219.2</ele>
        <time>2024-11-20T08:16:52Z</time>
      </trkpt>
      <trkpt lat="48.13457" lon="-3.29621">
        <ele>219.2</ele>
        <time>2024-11-20T08:16:53Z</time>
      </trkpt>
      <trkpt lat="48.13458" lon="-3.29623">
        <ele>219.1</ele>
        <time>2024-11-20T08:16:54Z</time>
      </trkpt>
      <trkpt lat="48.13458" lon="-3.29624">
        <ele>219.1</ele>
        <time>2024-11-20T08:16:55Z</time>
      </trkpt>
      <trkpt lat="48.13459" lon="-3.29626">
        <ele>219</ele>
        <time>2024-11-20T08:16:56Z</time>
      </trkpt>
      <trkpt lat="48.1346" lon="-3.29627">
        <ele>218.9</ele>
        <time>2024-11-20T08:16:57Z</time>
      </trkpt>
      <trkpt lat="48.1346" lon="-3.29629">
        <ele>218.8</ele>
        <time>2024-11-20T08:16:58Z</time>
      </trkpt>
      <trkpt lat="48.13461" lon="-3.29631">
        <ele>218.7</ele>
        <time>2024-11-20T08:16:59Z</time>
      </trkpt>
      <trkpt lat="48.13462" lon="-3.29633">
        <ele>218.5</ele>
        <time>2024-11-20T08:17:00Z</time>
      </trkpt>
      <trkpt lat="48.13462" lon="-3.29633">
        <ele>218.5</ele>
        <time>2024-11-20T08:17:01Z</time>
      </trkpt>
      <trkpt lat="48.13462" lon="-3.29633">
        <ele>218.5</ele>
        <time>2024-11-20T08:17:02Z</time>
      </trkpt>
      <trkpt lat="48.13462" lon="-3.29632">
        <ele>218.7</ele>
        <time>2024-11-20T08:17:03Z</time>
      </trkpt>
      <trkpt lat="48.13462" lon="-3.29631">
        <ele>218.7</ele>
        <time>2024-11-20T08:17:04Z</time>
      </trkpt>
      <trkpt lat="48.13462" lon="-3.2963">
        <ele>218.8</ele>
        <time>2024-11-20T08:17:05Z</time>
      </trkpt>
      <trkpt lat="48.13462" lon="-3.2963">
        <ele>218.8</ele>
        <time>2024-11-20T08:17:06Z</time>
      </trkpt>
      <trkpt lat="48.13462" lon="-3.29629">
        <ele>218.8</ele>
        <time>2024-11-20T08:17:07Z</time>
      </trkpt>
      <trkpt lat="48.13462" lon="-3.29629">
        <ele>218.8</ele>
        <time>2024-11-20T08:17:08Z</time>
      </trkpt>
      <trkpt lat="48.13462" lon="-3.2963">
        <ele>218.8</ele>
        <time>2024-11-20T08:17:09Z</time>
      </trkpt>
      <trkpt lat="48.13462" lon="-3.2963">
        <ele>218.8</ele>
        <time>2024-11-20T08:17:10Z</time>
      </trkpt>
      <trkpt lat="48.13462" lon="-3.2963">
        <ele>218.8</ele>
        <time>2024-11-20T08:17:11Z</time>
      </trkpt>
      <trkpt lat="48.13462" lon="-3.2963">
        <ele>218.8</ele>
        <time>2024-11-20T08:17:12Z</time>
      </trkpt>
      <trkpt lat="48.13463" lon="-3.2963">
        <ele>218.8</ele>
        <time>2024-11-20T08:17:13Z</time>
      </trkpt>
      <trkpt lat="48.13463" lon="-3.2963">
        <ele>218.8</ele>
        <time>2024-11-20T08:17:14Z</time>
      </trkpt>
      <trkpt lat="48.13463" lon="-3.2963">
        <ele>218.8</ele>
        <time>2024-11-20T08:17:15Z</time>
      </trkpt>
      <trkpt lat="48.13463" lon="-3.2963">
        <ele>218.8</ele>
        <time>2024-11-20T08:17:16Z</time>
      </trkpt>
      <trkpt lat="48.13463" lon="-3.2963">
        <ele>218.8</ele>
        <time>2024-11-20T08:17:17Z</time>
      </trkpt>
      <trkpt lat="48.13463" lon="-3.2963">
        <ele>218.8</ele>
        <time>2024-11-20T08:17:18Z</time>
      </trkpt>
      <trkpt lat="48.13463" lon="-3.2963">
        <ele>218.8</ele>
        <time>2024-11-20T08:17:19Z</time>
      </trkpt>
      <trkpt lat="48.13463" lon="-3.2963">
        <ele>218.8</ele>
        <time>2024-11-20T08:17:20Z</time>
      </trkpt>
      <trkpt lat="48.13463" lon="-3.2963">
        <ele>218.8</ele>
        <time>2024-11-20T08:17:21Z</time>
      </trkpt>
      <trkpt lat="48.13463" lon="-3.2963">
        <ele>218.8</ele>
        <time>2024-11-20T08:17:22Z</time>
      </trkpt>
      <trkpt lat="48.13463" lon="-3.2963">
        <ele>218.8</ele>
        <time>2024-11-20T08:17:23Z</time>
      </trkpt>
      <trkpt lat="48.13463" lon="-3.2963">
        <ele>218.8</ele>
        <time>2024-11-20T08:17:24Z</time>
      </trkpt>
      <trkpt lat="48.13463" lon="-3.2963">
        <ele>218.8</ele>
        <time>2024-11-20T08:17:25Z</time>
      </trkpt>
      <trkpt lat="48.13463" lon="-3.2963">
        <ele>218.8</ele>
        <time>2024-11-20T08:17:26Z</time>
      </trkpt>
      <trkpt lat="48.13463" lon="-3.2963">
        <ele>218.8</ele>
        <time>2024-11-20T08:17:27Z</time>
      </trkpt>
      <trkpt lat="48.13463" lon="-3.2963">
        <ele>218.8</ele>
        <time>2024-11-20T08:17:28Z</time>
      </trkpt>
      <trkpt lat="48.13463" lon="-3.2963">
        <ele>218.8</ele>
        <time>2024-11-20T08:17:29Z</time>
      </trkpt>
      <trkpt lat="48.13463" lon="-3.2963">
        <ele>218.8</ele>
        <time>2024-11-20T08:17:30Z</time>
      </trkpt>
      <trkpt lat="48.13463" lon="-3.2963">
        <ele>218.8</ele>
        <time>2024-11-20T08:17:31Z</time>
      </trkpt>
      <trkpt lat="48.13463" lon="-3.2963">
        <ele>218.8</ele>
        <time>2024-11-20T08:17:32Z</time>
      </trkpt>
      <trkpt lat="48.13463" lon="-3.2963">
        <ele>218.8</ele>
        <time>2024-11-20T08:17:33Z</time>
      </trkpt>
      <trkpt lat="48.13463" lon="-3.2963">
        <ele>218.8</ele>
        <time>2024-11-20T08:17:34Z</time>
      </trkpt>
      <trkpt lat="48.13463" lon="-3.2963">
        <ele>218.8</ele>
        <time>2024-11-20T08:17:35Z</time>
      </trkpt>
      <trkpt lat="48.13463" lon="-3.2963">
        <ele>218.8</ele>
        <time>2024-11-20T08:17:36Z</time>
      </trkpt>
      <trkpt lat="48.13463" lon="-3.2963">
        <ele>218.8</ele>
        <time>2024-11-20T08:17:37Z</time>
      </trkpt>
      <trkpt lat="48.13463" lon="-3.2963">
        <ele>218.8</ele>
        <time>2024-11-20T08:17:38Z</time>
      </trkpt>
      <trkpt lat="48.13463" lon="-3.2963">
        <ele>218.8</ele>
        <time>2024-11-20T08:17:39Z</time>
      </trkpt>
      <trkpt lat="48.13462" lon="-3.2963">
        <ele>218.8</ele>
        <time>2024-11-20T08:17:40Z</time>
      </trkpt>
      <trkpt lat="48.13462" lon="-3.2963">
        <ele>218.8</ele>
        <time>2024-11-20T08:17:41Z</time>
      </trkpt>
      <trkpt lat="48.13462" lon="-3.2963">
        <ele>218.8</ele>
        <time>2024-11-20T08:17:42Z</time>
      </trkpt>
      <trkpt lat="48.13462" lon="-3.29631">
        <ele>218.7</ele>
        <time>2024-11-20T08:17:43Z</time>
      </trkpt>
      <trkpt lat="48.13462" lon="-3.29631">
        <ele>218.7</ele>
        <time>2024-11-20T08:17:44Z</time>
      </trkpt>
      <trkpt lat="48.13462" lon="-3.29631">
        <ele>218.7</ele>
        <time>2024-11-20T08:17:45Z</time>
      </trkpt>
      <trkpt lat="48.13462" lon="-3.29631">
        <ele>218.7</ele>
        <time>2024-11-20T08:17:46Z</time>
      </trkpt>
      <trkpt lat="48.13462" lon="-3.29631">
        <ele>218.7</ele>
        <time>2024-11-20T08:17:47Z</time>
      </trkpt>
      <trkpt lat="48.13462" lon="-3.29631">
        <ele>218.7</ele>
        <time>2024-11-20T08:17:48Z</time>
      </trkpt>
      <trkpt lat="48.13462" lon="-3.29631">
        <ele>218.7</ele>
        <time>2024-11-20T08:17:49Z</time>
      </trkpt>
      <trkpt lat="48.13462" lon="-3.29631">
        <ele>218.7</ele>
        <time>2024-11-20T08:17:50Z</time>
      </trkpt>
      <trkpt lat="48.13462" lon="-3.29632">
        <ele>218.6</ele>
        <time>2024-11-20T08:17:51Z</time>
      </trkpt>
      <trkpt lat="48.13462" lon="-3.29633">
        <ele>218.5</ele>
        <time>2024-11-20T08:17:52Z</time>
      </trkpt>
      <trkpt lat="48.13462" lon="-3.29634">
        <ele>218.4</ele>
        <time>2024-11-20T08:17:53Z</time>
      </trkpt>
      <trkpt lat="48.13462" lon="-3.29635">
        <ele>218.4</ele>
        <time>2024-11-20T08:17:54Z</time>
      </trkpt>
      <trkpt lat="48.13462" lon="-3.29636">
        <ele>218.3</ele>
        <time>2024-11-20T08:17:55Z</time>
      </trkpt>
      <trkpt lat="48.13463" lon="-3.29637">
        <ele>218.1</ele>
        <time>2024-11-20T08:17:56Z</time>
      </trkpt>
      <trkpt lat="48.13463" lon="-3.29639">
        <ele>218</ele>
        <time>2024-11-20T08:17:57Z</time>
      </trkpt>
      <trkpt lat="48.13463" lon="-3.2964">
        <ele>218</ele>
        <time>2024-11-20T08:17:58Z</time>
      </trkpt>
      <trkpt lat="48.13464" lon="-3.29641">
        <ele>218.1</ele>
        <time>2024-11-20T08:17:59Z</time>
      </trkpt>
      <trkpt lat="48.13464" lon="-3.29643">
        <ele>218.1</ele>
        <time>2024-11-20T08:18:00Z</time>
      </trkpt>
      <trkpt lat="48.13464" lon="-3.29644">
        <ele>218.2</ele>
        <time>2024-11-20T08:18:01Z</time>
      </trkpt>
      <trkpt lat="48.13464" lon="-3.29646">
        <ele>218.2</ele>
        <time>2024-11-20T08:18:02Z</time>
      </trkpt>
      <trkpt lat="48.13464" lon="-3.29647">
        <ele>218.3</ele>
        <time>2024-11-20T08:18:03Z</time>
      </trkpt>
      <trkpt lat="48.13464" lon="-3.29648">
        <ele>218.3</ele>
        <time>2024-11-20T08:18:04Z</time>
      </trkpt>
      <trkpt lat="48.13465" lon="-3.29649">
        <ele>218.4</ele>
        <time>2024-11-20T08:18:05Z</time>
      </trkpt>
      <trkpt lat="48.13465" lon="-3.2965">
        <ele>218.4</ele>
        <time>2024-11-20T08:18:06Z</time>
      </trkpt>
      <trkpt lat="48.13465" lon="-3.29652">
        <ele>218.5</ele>
        <time>2024-11-20T08:18:07Z</time>
      </trkpt>
      <trkpt lat="48.13465" lon="-3.29653">
        <ele>218.5</ele>
        <time>2024-11-20T08:18:08Z</time>
      </trkpt>
      <trkpt lat="48.13465" lon="-3.29655">
        <ele>218.6</ele>
        <time>2024-11-20T08:18:09Z</time>
      </trkpt>
      <trkpt lat="48.13465" lon="-3.29656">
        <ele>218.6</ele>
        <time>2024-11-20T08:18:10Z</time>
      </trkpt>
      <trkpt lat="48.13465" lon="-3.29658">
        <ele>218.7</ele>
        <time>2024-11-20T08:18:11Z</time>
      </trkpt>
      <trkpt lat="48.13465" lon="-3.29659">
        <ele>218.7</ele>
        <time>2024-11-20T08:18:12Z</time>
      </trkpt>
      <trkpt lat="48.13465" lon="-3.29661">
        <ele>218.8</ele>
        <time>2024-11-20T08:18:13Z</time>
      </trkpt>
      <trkpt lat="48.13465" lon="-3.29663">
        <ele>218.9</ele>
        <time>2024-11-20T08:18:14Z</time>
      </trkpt>
      <trkpt lat="48.13465" lon="-3.29664">
        <ele>218.9</ele>
        <time>2024-11-20T08:18:15Z</time>
      </trkpt>
      <trkpt lat="48.13465" lon="-3.29666">
        <ele>219</ele>
        <time>2024-11-20T08:18:16Z</time>
      </trkpt>
      <trkpt lat="48.13465" lon="-3.29668">
        <ele>219.1</ele>
        <time>2024-11-20T08:18:17Z</time>
      </trkpt>
      <trkpt lat="48.13466" lon="-3.29669">
        <ele>219.3</ele>
        <time>2024-11-20T08:18:18Z</time>
      </trkpt>
      <trkpt lat="48.13465" lon="-3.29671">
        <ele>219.5</ele>
        <time>2024-11-20T08:18:19Z</time>
      </trkpt>
      <trkpt lat="48.13465" lon="-3.29673">
        <ele>219.7</ele>
        <time>2024-11-20T08:18:20Z</time>
      </trkpt>
      <trkpt lat="48.13465" lon="-3.29674">
        <ele>219.8</ele>
        <time>2024-11-20T08:18:21Z</time>
      </trkpt>
      <trkpt lat="48.13465" lon="-3.29676">
        <ele>220</ele>
        <time>2024-11-20T08:18:22Z</time>
      </trkpt>
      <trkpt lat="48.13465" lon="-3.29677">
        <ele>220.1</ele>
        <time>2024-11-20T08:18:23Z</time>
      </trkpt>
      <trkpt lat="48.13465" lon="-3.29679">
        <ele>220.3</ele>
        <time>2024-11-20T08:18:24Z</time>
      </trkpt>
      <trkpt lat="48.13465" lon="-3.29681">
        <ele>220.5</ele>
        <time>2024-11-20T08:18:25Z</time>
      </trkpt>
      <trkpt lat="48.13465" lon="-3.29682">
        <ele>220.7</ele>
        <time>2024-11-20T08:18:26Z</time>
      </trkpt>
      <trkpt lat="48.13464" lon="-3.29684">
        <ele>220.8</ele>
        <time>2024-11-20T08:18:27Z</time>
      </trkpt>
      <trkpt lat="48.13464" lon="-3.29685">
        <ele>221</ele>
        <time>2024-11-20T08:18:28Z</time>
      </trkpt>
      <trkpt lat="48.13464" lon="-3.29687">
        <ele>221.2</ele>
        <time>2024-11-20T08:18:29Z</time>
      </trkpt>
      <trkpt lat="48.13464" lon="-3.29689">
        <ele>221.4</ele>
        <time>2024-11-20T08:18:30Z</time>
      </trkpt>
      <trkpt lat="48.13464" lon="-3.2969">
        <ele>221.6</ele>
        <time>2024-11-20T08:18:31Z</time>
      </trkpt>
      <trkpt lat="48.13464" lon="-3.29692">
        <ele>221.8</ele>
        <time>2024-11-20T08:18:32Z</time>
      </trkpt>
      <trkpt lat="48.13464" lon="-3.29694">
        <ele>221.9</ele>
        <time>2024-11-20T08:18:33Z</time>
      </trkpt>
      <trkpt lat="48.13464" lon="-3.29695">
        <ele>222.1</ele>
        <time>2024-11-20T08:18:34Z</time>
      </trkpt>
      <trkpt lat="48.13464" lon="-3.29697">
        <ele>222.2</ele>
        <time>2024-11-20T08:18:35Z</time>
      </trkpt>
      <trkpt lat="48.13464" lon="-3.29699">
        <ele>222.3</ele>
        <time>2024-11-20T08:18:36Z</time>
      </trkpt>
      <trkpt lat="48.13463" lon="-3.297">
        <ele>222.4</ele>
        <time>2024-11-20T08:18:37Z</time>
      </trkpt>
      <trkpt lat="48.13463" lon="-3.29702">
        <ele>222.5</ele>
        <time>2024-11-20T08:18:38Z</time>
      </trkpt>
      <trkpt lat="48.13463" lon="-3.29704">
        <ele>222.7</ele>
        <time>2024-11-20T08:18:39Z</time>
      </trkpt>
      <trkpt lat="48.13463" lon="-3.29706">
        <ele>222.8</ele>
        <time>2024-11-20T08:18:40Z</time>
      </trkpt>
      <trkpt lat="48.13463" lon="-3.29707">
        <ele>222.9</ele>
        <time>2024-11-20T08:18:41Z</time>
      </trkpt>
      <trkpt lat="48.13463" lon="-3.29709">
        <ele>223</ele>
        <time>2024-11-20T08:18:42Z</time>
      </trkpt>
      <trkpt lat="48.13463" lon="-3.29711">
        <ele>223.2</ele>
        <time>2024-11-20T08:18:43Z</time>
      </trkpt>
      <trkpt lat="48.13463" lon="-3.29713">
        <ele>223.3</ele>
        <time>2024-11-20T08:18:44Z</time>
      </trkpt>
      <trkpt lat="48.13462" lon="-3.29714">
        <ele>223.4</ele>
        <time>2024-11-20T08:18:45Z</time>
      </trkpt>
      <trkpt lat="48.13462" lon="-3.29716">
        <ele>223.5</ele>
        <time>2024-11-20T08:18:46Z</time>
      </trkpt>
      <trkpt lat="48.13462" lon="-3.29718">
        <ele>223.7</ele>
        <time>2024-11-20T08:18:47Z</time>
      </trkpt>
      <trkpt lat="48.13462" lon="-3.2972">
        <ele>223.8</ele>
        <time>2024-11-20T08:18:48Z</time>
      </trkpt>
      <trkpt lat="48.13462" lon="-3.29721">
        <ele>223.9</ele>
        <time>2024-11-20T08:18:49Z</time>
      </trkpt>
      <trkpt lat="48.13462" lon="-3.29723">
        <ele>224</ele>
        <time>2024-11-20T08:18:50Z</time>
      </trkpt>
      <trkpt lat="48.13462" lon="-3.29725">
        <ele>224.1</ele>
        <time>2024-11-20T08:18:51Z</time>
      </trkpt>
      <trkpt lat="48.13462" lon="-3.29726">
        <ele>224.2</ele>
        <time>2024-11-20T08:18:52Z</time>
      </trkpt>
      <trkpt lat="48.13462" lon="-3.29728">
        <ele>224.3</ele>
        <time>2024-11-20T08:18:53Z</time>
      </trkpt>
      <trkpt lat="48.13462" lon="-3.2973">
        <ele>224.4</ele>
        <time>2024-11-20T08:18:54Z</time>
      </trkpt>
      <trkpt lat="48.13462" lon="-3.29732">
        <ele>224.5</ele>
        <time>2024-11-20T08:18:55Z</time>
      </trkpt>
      <trkpt lat="48.13461" lon="-3.29733">
        <ele>224.5</ele>
        <time>2024-11-20T08:18:56Z</time>
      </trkpt>
      <trkpt lat="48.13461" lon="-3.29735">
        <ele>224.6</ele>
        <time>2024-11-20T08:18:57Z</time>
      </trkpt>
      <trkpt lat="48.13461" lon="-3.29736">
        <ele>224.7</ele>
        <time>2024-11-20T08:18:58Z</time>
      </trkpt>
      <trkpt lat="48.13461" lon="-3.29738">
        <ele>224.8</ele>
        <time>2024-11-20T08:18:59Z</time>
      </trkpt>
      <trkpt lat="48.13461" lon="-3.2974">
        <ele>224.9</ele>
        <time>2024-11-20T08:19:00Z</time>
      </trkpt>
      <trkpt lat="48.13461" lon="-3.29741">
        <ele>225</ele>
        <time>2024-11-20T08:19:01Z</time>
      </trkpt>
      <trkpt lat="48.13461" lon="-3.29743">
        <ele>225</ele>
        <time>2024-11-20T08:19:02Z</time>
      </trkpt>
      <trkpt lat="48.13461" lon="-3.29744">
        <ele>225.1</ele>
        <time>2024-11-20T08:19:03Z</time>
      </trkpt>
      <trkpt lat="48.13462" lon="-3.29746">
        <ele>225.2</ele>
        <time>2024-11-20T08:19:04Z</time>
      </trkpt>
      <trkpt lat="48.13462" lon="-3.29747">
        <ele>225.2</ele>
        <time>2024-11-20T08:19:05Z</time>
      </trkpt>
      <trkpt lat="48.13462" lon="-3.29749">
        <ele>225.3</ele>
        <time>2024-11-20T08:19:06Z</time>
      </trkpt>
      <trkpt lat="48.13462" lon="-3.29751">
        <ele>225.4</ele>
        <time>2024-11-20T08:19:07Z</time>
      </trkpt>
      <trkpt lat="48.13462" lon="-3.29753">
        <ele>225.6</ele>
        <time>2024-11-20T08:19:08Z</time>
      </trkpt>
      <trkpt lat="48.13462" lon="-3.29754">
        <ele>225.7</ele>
        <time>2024-11-20T08:19:09Z</time>
      </trkpt>
      <trkpt lat="48.13462" lon="-3.29755">
        <ele>225.7</ele>
        <time>2024-11-20T08:19:10Z</time>
      </trkpt>
      <trkpt lat="48.13462" lon="-3.29756">
        <ele>225.8</ele>
        <time>2024-11-20T08:19:11Z</time>
      </trkpt>
      <trkpt lat="48.13462" lon="-3.29757">
        <ele>225.9</ele>
        <time>2024-11-20T08:19:12Z</time>
      </trkpt>
      <trkpt lat="48.13462" lon="-3.29759">
        <ele>226</ele>
        <time>2024-11-20T08:19:13Z</time>
      </trkpt>
      <trkpt lat="48.13462" lon="-3.2976">
        <ele>226.1</ele>
        <time>2024-11-20T08:19:14Z</time>
      </trkpt>
      <trkpt lat="48.13462" lon="-3.29762">
        <ele>226.3</ele>
        <time>2024-11-20T08:19:15Z</time>
      </trkpt>
      <trkpt lat="48.13462" lon="-3.29764">
        <ele>226.4</ele>
        <time>2024-11-20T08:19:16Z</time>
      </trkpt>
      <trkpt lat="48.13463" lon="-3.29765">
        <ele>226.4</ele>
        <time>2024-11-20T08:19:17Z</time>
      </trkpt>
      <trkpt lat="48.13463" lon="-3.29766">
        <ele>226.5</ele>
        <time>2024-11-20T08:19:18Z</time>
      </trkpt>
      <trkpt lat="48.13463" lon="-3.29767">
        <ele>226.5</ele>
        <time>2024-11-20T08:19:19Z</time>
      </trkpt>
      <trkpt lat="48.13463" lon="-3.29768">
        <ele>226.6</ele>
        <time>2024-11-20T08:19:20Z</time>
      </trkpt>
      <trkpt lat="48.13463" lon="-3.29769">
        <ele>226.7</ele>
        <time>2024-11-20T08:19:21Z</time>
      </trkpt>
      <trkpt lat="48.13463" lon="-3.29771">
        <ele>226.8</ele>
        <time>2024-11-20T08:19:22Z</time>
      </trkpt>
      <trkpt lat="48.13463" lon="-3.29772">
        <ele>226.9</ele>
        <time>2024-11-20T08:19:23Z</time>
      </trkpt>
      <trkpt lat="48.13463" lon="-3.29774">
        <ele>227</ele>
        <time>2024-11-20T08:19:24Z</time>
      </trkpt>
      <trkpt lat="48.13463" lon="-3.29776">
        <ele>227.2</ele>
        <time>2024-11-20T08:19:25Z</time>
      </trkpt>
      <trkpt lat="48.13463" lon="-3.29777">
        <ele>227.3</ele>
        <time>2024-11-20T08:19:26Z</time>
      </trkpt>
      <trkpt lat="48.13463" lon="-3.29779">
        <ele>227.4</ele>
        <time>2024-11-20T08:19:27Z</time>
      </trkpt>
      <trkpt lat="48.13463" lon="-3.2978">
        <ele>227.5</ele>
        <time>2024-11-20T08:19:28Z</time>
      </trkpt>
      <trkpt lat="48.13462" lon="-3.29782">
        <ele>227.6</ele>
        <time>2024-11-20T08:19:29Z</time>
      </trkpt>
      <trkpt lat="48.13462" lon="-3.29783">
        <ele>227.7</ele>
        <time>2024-11-20T08:19:30Z</time>
      </trkpt>
      <trkpt lat="48.13462" lon="-3.29785">
        <ele>227.8</ele>
        <time>2024-11-20T08:19:31Z</time>
      </trkpt>
      <trkpt lat="48.13462" lon="-3.29787">
        <ele>227.9</ele>
        <time>2024-11-20T08:19:32Z</time>
      </trkpt>
      <trkpt lat="48.13462" lon="-3.29788">
        <ele>228</ele>
        <time>2024-11-20T08:19:33Z</time>
      </trkpt>
      <trkpt lat="48.13462" lon="-3.2979">
        <ele>228.1</ele>
        <time>2024-11-20T08:19:34Z</time>
      </trkpt>
      <trkpt lat="48.13462" lon="-3.29791">
        <ele>228.2</ele>
        <time>2024-11-20T08:19:35Z</time>
      </trkpt>
      <trkpt lat="48.13462" lon="-3.29793">
        <ele>228.3</ele>
        <time>2024-11-20T08:19:36Z</time>
      </trkpt>
      <trkpt lat="48.13462" lon="-3.29795">
        <ele>228.4</ele>
        <time>2024-11-20T08:19:37Z</time>
      </trkpt>
      <trkpt lat="48.13462" lon="-3.29796">
        <ele>228.4</ele>
        <time>2024-11-20T08:19:38Z</time>
      </trkpt>
      <trkpt lat="48.13462" lon="-3.29797">
        <ele>228.5</ele>
        <time>2024-11-20T08:19:39Z</time>
      </trkpt>
      <trkpt lat="48.13462" lon="-3.29799">
        <ele>228.6</ele>
        <time>2024-11-20T08:19:40Z</time>
      </trkpt>
      <trkpt lat="48.13461" lon="-3.29801">
        <ele>228.7</ele>
        <time>2024-11-20T08:19:41Z</time>
      </trkpt>
      <trkpt lat="48.13461" lon="-3.29803">
        <ele>228.8</ele>
        <time>2024-11-20T08:19:42Z</time>
      </trkpt>
      <trkpt lat="48.13461" lon="-3.29804">
        <ele>228.9</ele>
        <time>2024-11-20T08:19:43Z</time>
      </trkpt>
      <trkpt lat="48.13461" lon="-3.29806">
        <ele>229</ele>
        <time>2024-11-20T08:19:44Z</time>
      </trkpt>
      <trkpt lat="48.13461" lon="-3.29808">
        <ele>229.1</ele>
        <time>2024-11-20T08:19:45Z</time>
      </trkpt>
      <trkpt lat="48.13461" lon="-3.29809">
        <ele>229.2</ele>
        <time>2024-11-20T08:19:46Z</time>
      </trkpt>
      <trkpt lat="48.1346" lon="-3.29811">
        <ele>229.3</ele>
        <time>2024-11-20T08:19:47Z</time>
      </trkpt>
      <trkpt lat="48.1346" lon="-3.29813">
        <ele>229.4</ele>
        <time>2024-11-20T08:19:48Z</time>
      </trkpt>
      <trkpt lat="48.1346" lon="-3.29814">
        <ele>229.4</ele>
        <time>2024-11-20T08:19:49Z</time>
      </trkpt>
      <trkpt lat="48.1346" lon="-3.29816">
        <ele>229.5</ele>
        <time>2024-11-20T08:19:50Z</time>
      </trkpt>
      <trkpt lat="48.13461" lon="-3.29818">
        <ele>229.6</ele>
        <time>2024-11-20T08:19:51Z</time>
      </trkpt>
      <trkpt lat="48.13461" lon="-3.29821">
        <ele>229.8</ele>
        <time>2024-11-20T08:19:52Z</time>
      </trkpt>
      <trkpt lat="48.13461" lon="-3.29822">
        <ele>229.9</ele>
        <time>2024-11-20T08:19:53Z</time>
      </trkpt>
      <trkpt lat="48.13461" lon="-3.29824">
        <ele>229.9</ele>
        <time>2024-11-20T08:19:54Z</time>
      </trkpt>
      <trkpt lat="48.1346" lon="-3.29825">
        <ele>230</ele>
        <time>2024-11-20T08:19:55Z</time>
      </trkpt>
      <trkpt lat="48.1346" lon="-3.29827">
        <ele>230.1</ele>
        <time>2024-11-20T08:19:56Z</time>
      </trkpt>
      <trkpt lat="48.1346" lon="-3.2983">
        <ele>230.2</ele>
        <time>2024-11-20T08:19:57Z</time>
      </trkpt>
      <trkpt lat="48.1346" lon="-3.29832">
        <ele>230.4</ele>
        <time>2024-11-20T08:19:58Z</time>
      </trkpt>
      <trkpt lat="48.1346" lon="-3.29833">
        <ele>230.4</ele>
        <time>2024-11-20T08:19:59Z</time>
      </trkpt>
      <trkpt lat="48.1346" lon="-3.29835">
        <ele>230.5</ele>
        <time>2024-11-20T08:20:00Z</time>
      </trkpt>
      <trkpt lat="48.1346" lon="-3.29836">
        <ele>230.6</ele>
        <time>2024-11-20T08:20:01Z</time>
      </trkpt>
      <trkpt lat="48.1346" lon="-3.29838">
        <ele>230.6</ele>
        <time>2024-11-20T08:20:02Z</time>
      </trkpt>
      <trkpt lat="48.13459" lon="-3.2984">
        <ele>230.7</ele>
        <time>2024-11-20T08:20:03Z</time>
      </trkpt>
      <trkpt lat="48.13459" lon="-3.29841">
        <ele>230.8</ele>
        <time>2024-11-20T08:20:04Z</time>
      </trkpt>
      <trkpt lat="48.13459" lon="-3.29843">
        <ele>230.8</ele>
        <time>2024-11-20T08:20:05Z</time>
      </trkpt>
      <trkpt lat="48.13459" lon="-3.29844">
        <ele>230.9</ele>
        <time>2024-11-20T08:20:06Z</time>
      </trkpt>
      <trkpt lat="48.13459" lon="-3.29846">
        <ele>230.9</ele>
        <time>2024-11-20T08:20:07Z</time>
      </trkpt>
      <trkpt lat="48.13459" lon="-3.29848">
        <ele>231</ele>
        <time>2024-11-20T08:20:08Z</time>
      </trkpt>
      <trkpt lat="48.13459" lon="-3.29849">
        <ele>231</ele>
        <time>2024-11-20T08:20:09Z</time>
      </trkpt>
      <trkpt lat="48.13459" lon="-3.29851">
        <ele>231.1</ele>
        <time>2024-11-20T08:20:10Z</time>
      </trkpt>
      <trkpt lat="48.13459" lon="-3.29853">
        <ele>231.2</ele>
        <time>2024-11-20T08:20:11Z</time>
      </trkpt>
      <trkpt lat="48.13459" lon="-3.29855">
        <ele>231.3</ele>
        <time>2024-11-20T08:20:12Z</time>
      </trkpt>
      <trkpt lat="48.13459" lon="-3.29856">
        <ele>231.3</ele>
        <time>2024-11-20T08:20:13Z</time>
      </trkpt>
      <trkpt lat="48.13458" lon="-3.29858">
        <ele>231.4</ele>
        <time>2024-11-20T08:20:14Z</time>
      </trkpt>
      <trkpt lat="48.13458" lon="-3.2986">
        <ele>231.5</ele>
        <time>2024-11-20T08:20:15Z</time>
      </trkpt>
      <trkpt lat="48.13458" lon="-3.29862">
        <ele>231.6</ele>
        <time>2024-11-20T08:20:16Z</time>
      </trkpt>
      <trkpt lat="48.13458" lon="-3.29864">
        <ele>231.7</ele>
        <time>2024-11-20T08:20:17Z</time>
      </trkpt>
      <trkpt lat="48.13458" lon="-3.29866">
        <ele>231.8</ele>
        <time>2024-11-20T08:20:18Z</time>
      </trkpt>
      <trkpt lat="48.13458" lon="-3.29868">
        <ele>231.9</ele>
        <time>2024-11-20T08:20:19Z</time>
      </trkpt>
      <trkpt lat="48.13458" lon="-3.2987">
        <ele>232</ele>
        <time>2024-11-20T08:20:20Z</time>
      </trkpt>
      <trkpt lat="48.13458" lon="-3.29871">
        <ele>232.1</ele>
        <time>2024-11-20T08:20:21Z</time>
      </trkpt>
      <trkpt lat="48.13458" lon="-3.29873">
        <ele>232.1</ele>
        <time>2024-11-20T08:20:22Z</time>
      </trkpt>
      <trkpt lat="48.13458" lon="-3.29875">
        <ele>232.2</ele>
        <time>2024-11-20T08:20:23Z</time>
      </trkpt>
      <trkpt lat="48.13458" lon="-3.29877">
        <ele>232.3</ele>
        <time>2024-11-20T08:20:24Z</time>
      </trkpt>
      <trkpt lat="48.13458" lon="-3.29879">
        <ele>232.4</ele>
        <time>2024-11-20T08:20:25Z</time>
      </trkpt>
      <trkpt lat="48.13459" lon="-3.29881">
        <ele>232.5</ele>
        <time>2024-11-20T08:20:26Z</time>
      </trkpt>
      <trkpt lat="48.13459" lon="-3.29883">
        <ele>232.7</ele>
        <time>2024-11-20T08:20:27Z</time>
      </trkpt>
      <trkpt lat="48.13459" lon="-3.29885">
        <ele>232.8</ele>
        <time>2024-11-20T08:20:28Z</time>
      </trkpt>
      <trkpt lat="48.13459" lon="-3.29887">
        <ele>232.9</ele>
        <time>2024-11-20T08:20:29Z</time>
      </trkpt>
      <trkpt lat="48.13459" lon="-3.29889">
        <ele>233</ele>
        <time>2024-11-20T08:20:30Z</time>
      </trkpt>
      <trkpt lat="48.13459" lon="-3.29892">
        <ele>233.1</ele>
        <time>2024-11-20T08:20:31Z</time>
      </trkpt>
      <trkpt lat="48.13459" lon="-3.29894">
        <ele>233.2</ele>
        <time>2024-11-20T08:20:32Z</time>
      </trkpt>
      <trkpt lat="48.13459" lon="-3.29897">
        <ele>233.3</ele>
        <time>2024-11-20T08:20:33Z</time>
      </trkpt>
      <trkpt lat="48.13458" lon="-3.29899">
        <ele>233.4</ele>
        <time>2024-11-20T08:20:34Z</time>
      </trkpt>
      <trkpt lat="48.13458" lon="-3.29902">
        <ele>233.5</ele>
        <time>2024-11-20T08:20:35Z</time>
      </trkpt>
      <trkpt lat="48.13458" lon="-3.29904">
        <ele>233.5</ele>
        <time>2024-11-20T08:20:36Z</time>
      </trkpt>
      <trkpt lat="48.13459" lon="-3.29906">
        <ele>233.6</ele>
        <time>2024-11-20T08:20:37Z</time>
      </trkpt>
      <trkpt lat="48.13459" lon="-3.29907">
        <ele>233.7</ele>
        <time>2024-11-20T08:20:38Z</time>
      </trkpt>
      <trkpt lat="48.13459" lon="-3.29909">
        <ele>233.7</ele>
        <time>2024-11-20T08:20:39Z</time>
      </trkpt>
      <trkpt lat="48.13459" lon="-3.29911">
        <ele>233.8</ele>
        <time>2024-11-20T08:20:40Z</time>
      </trkpt>
      <trkpt lat="48.13459" lon="-3.29913">
        <ele>233.9</ele>
        <time>2024-11-20T08:20:41Z</time>
      </trkpt>
      <trkpt lat="48.13459" lon="-3.29915">
        <ele>233.9</ele>
        <time>2024-11-20T08:20:42Z</time>
      </trkpt>
      <trkpt lat="48.1346" lon="-3.29916">
        <ele>234</ele>
        <time>2024-11-20T08:20:43Z</time>
      </trkpt>
      <trkpt lat="48.1346" lon="-3.29918">
        <ele>234</ele>
        <time>2024-11-20T08:20:44Z</time>
      </trkpt>
      <trkpt lat="48.1346" lon="-3.2992">
        <ele>234</ele>
        <time>2024-11-20T08:20:45Z</time>
      </trkpt>
      <trkpt lat="48.1346" lon="-3.29922">
        <ele>234</ele>
        <time>2024-11-20T08:20:46Z</time>
      </trkpt>
      <trkpt lat="48.1346" lon="-3.29923">
        <ele>234</ele>
        <time>2024-11-20T08:20:47Z</time>
      </trkpt>
      <trkpt lat="48.13461" lon="-3.29925">
        <ele>234</ele>
        <time>2024-11-20T08:20:48Z</time>
      </trkpt>
      <trkpt lat="48.13461" lon="-3.29927">
        <ele>234</ele>
        <time>2024-11-20T08:20:49Z</time>
      </trkpt>
      <trkpt lat="48.13461" lon="-3.29929">
        <ele>234</ele>
        <time>2024-11-20T08:20:50Z</time>
      </trkpt>
      <trkpt lat="48.13461" lon="-3.29932">
        <ele>234</ele>
        <time>2024-11-20T08:20:51Z</time>
      </trkpt>
      <trkpt lat="48.13461" lon="-3.29934">
        <ele>234</ele>
        <time>2024-11-20T08:20:52Z</time>
      </trkpt>
      <trkpt lat="48.13462" lon="-3.29936">
        <ele>234</ele>
        <time>2024-11-20T08:20:53Z</time>
      </trkpt>
      <trkpt lat="48.13462" lon="-3.29938">
        <ele>234</ele>
        <time>2024-11-20T08:20:54Z</time>
      </trkpt>
      <trkpt lat="48.13463" lon="-3.29939">
        <ele>234</ele>
        <time>2024-11-20T08:20:55Z</time>
      </trkpt>
      <trkpt lat="48.13463" lon="-3.2994">
        <ele>234</ele>
        <time>2024-11-20T08:20:56Z</time>
      </trkpt>
      <trkpt lat="48.13464" lon="-3.29942">
        <ele>234</ele>
        <time>2024-11-20T08:20:57Z</time>
      </trkpt>
      <trkpt lat="48.13464" lon="-3.29943">
        <ele>234</ele>
        <time>2024-11-20T08:20:58Z</time>
      </trkpt>
      <trkpt lat="48.13464" lon="-3.29945">
        <ele>234</ele>
        <time>2024-11-20T08:20:59Z</time>
      </trkpt>
      <trkpt lat="48.13464" lon="-3.29947">
        <ele>234.1</ele>
        <time>2024-11-20T08:21:00Z</time>
      </trkpt>
      <trkpt lat="48.13465" lon="-3.29949">
        <ele>234.2</ele>
        <time>2024-11-20T08:21:01Z</time>
      </trkpt>
      <trkpt lat="48.13465" lon="-3.29951">
        <ele>234.2</ele>
        <time>2024-11-20T08:21:02Z</time>
      </trkpt>
      <trkpt lat="48.13465" lon="-3.29953">
        <ele>234.3</ele>
        <time>2024-11-20T08:21:03Z</time>
      </trkpt>
      <trkpt lat="48.13465" lon="-3.29955">
        <ele>234.4</ele>
        <time>2024-11-20T08:21:04Z</time>
      </trkpt>
      <trkpt lat="48.13466" lon="-3.29957">
        <ele>234.4</ele>
        <time>2024-11-20T08:21:05Z</time>
      </trkpt>
      <trkpt lat="48.13466" lon="-3.29959">
        <ele>234.5</ele>
        <time>2024-11-20T08:21:06Z</time>
      </trkpt>
      <trkpt lat="48.13466" lon="-3.2996">
        <ele>234.6</ele>
        <time>2024-11-20T08:21:07Z</time>
      </trkpt>
      <trkpt lat="48.13466" lon="-3.29962">
        <ele>234.6</ele>
        <time>2024-11-20T08:21:08Z</time>
      </trkpt>
      <trkpt lat="48.13466" lon="-3.29964">
        <ele>234.7</ele>
        <time>2024-11-20T08:21:09Z</time>
      </trkpt>
      <trkpt lat="48.13467" lon="-3.29966">
        <ele>234.8</ele>
        <time>2024-11-20T08:21:10Z</time>
      </trkpt>
      <trkpt lat="48.13467" lon="-3.29967">
        <ele>234.8</ele>
        <time>2024-11-20T08:21:11Z</time>
      </trkpt>
      <trkpt lat="48.13467" lon="-3.29969">
        <ele>234.9</ele>
        <time>2024-11-20T08:21:12Z</time>
      </trkpt>
      <trkpt lat="48.13468" lon="-3.2997">
        <ele>234.9</ele>
        <time>2024-11-20T08:21:13Z</time>
      </trkpt>
      <trkpt lat="48.13468" lon="-3.29971">
        <ele>234.9</ele>
        <time>2024-11-20T08:21:14Z</time>
      </trkpt>
      <trkpt lat="48.13469" lon="-3.29972">
        <ele>235</ele>
        <time>2024-11-20T08:21:15Z</time>
      </trkpt>
      <trkpt lat="48.13469" lon="-3.29974">
        <ele>235</ele>
        <time>2024-11-20T08:21:16Z</time>
      </trkpt>
      <trkpt lat="48.1347" lon="-3.29975">
        <ele>235</ele>
        <time>2024-11-20T08:21:17Z</time>
      </trkpt>
      <trkpt lat="48.1347" lon="-3.29977">
        <ele>235</ele>
        <time>2024-11-20T08:21:18Z</time>
      </trkpt>
      <trkpt lat="48.13471" lon="-3.29979">
        <ele>235</ele>
        <time>2024-11-20T08:21:19Z</time>
      </trkpt>
      <trkpt lat="48.13471" lon="-3.29981">
        <ele>235</ele>
        <time>2024-11-20T08:21:20Z</time>
      </trkpt>
      <trkpt lat="48.13471" lon="-3.29982">
        <ele>235</ele>
        <time>2024-11-20T08:21:21Z</time>
      </trkpt>
      <trkpt lat="48.13471" lon="-3.29983">
        <ele>235</ele>
        <time>2024-11-20T08:21:22Z</time>
      </trkpt>
      <trkpt lat="48.13472" lon="-3.29985">
        <ele>235</ele>
        <time>2024-11-20T08:21:23Z</time>
      </trkpt>
      <trkpt lat="48.13471" lon="-3.29987">
        <ele>235</ele>
        <time>2024-11-20T08:21:24Z</time>
      </trkpt>
      <trkpt lat="48.13471" lon="-3.29989">
        <ele>235</ele>
        <time>2024-11-20T08:21:25Z</time>
      </trkpt>
      <trkpt lat="48.13472" lon="-3.29991">
        <ele>235</ele>
        <time>2024-11-20T08:21:26Z</time>
      </trkpt>
      <trkpt lat="48.13472" lon="-3.29993">
        <ele>235</ele>
        <time>2024-11-20T08:21:27Z</time>
      </trkpt>
      <trkpt lat="48.13472" lon="-3.29995">
        <ele>235</ele>
        <time>2024-11-20T08:21:28Z</time>
      </trkpt>
      <trkpt lat="48.13472" lon="-3.29996">
        <ele>235</ele>
        <time>2024-11-20T08:21:29Z</time>
      </trkpt>
      <trkpt lat="48.13473" lon="-3.29997">
        <ele>235</ele>
        <time>2024-11-20T08:21:30Z</time>
      </trkpt>
      <trkpt lat="48.13473" lon="-3.29999">
        <ele>235</ele>
        <time>2024-11-20T08:21:31Z</time>
      </trkpt>
      <trkpt lat="48.13474" lon="-3.30001">
        <ele>235</ele>
        <time>2024-11-20T08:21:32Z</time>
      </trkpt>
      <trkpt lat="48.13474" lon="-3.30002">
        <ele>235</ele>
        <time>2024-11-20T08:21:33Z</time>
      </trkpt>
      <trkpt lat="48.13474" lon="-3.30004">
        <ele>235</ele>
        <time>2024-11-20T08:21:34Z</time>
      </trkpt>
      <trkpt lat="48.13474" lon="-3.30006">
        <ele>235</ele>
        <time>2024-11-20T08:21:35Z</time>
      </trkpt>
      <trkpt lat="48.13475" lon="-3.30008">
        <ele>235</ele>
        <time>2024-11-20T08:21:36Z</time>
      </trkpt>
      <trkpt lat="48.13475" lon="-3.30009">
        <ele>235</ele>
        <time>2024-11-20T08:21:37Z</time>
      </trkpt>
      <trkpt lat="48.13475" lon="-3.30011">
        <ele>235</ele>
        <time>2024-11-20T08:21:38Z</time>
      </trkpt>
      <trkpt lat="48.13475" lon="-3.30014">
        <ele>235</ele>
        <time>2024-11-20T08:21:39Z</time>
      </trkpt>
      <trkpt lat="48.13475" lon="-3.30017">
        <ele>235.1</ele>
        <time>2024-11-20T08:21:40Z</time>
      </trkpt>
      <trkpt lat="48.13476" lon="-3.30019">
        <ele>235.1</ele>
        <time>2024-11-20T08:21:41Z</time>
      </trkpt>
      <trkpt lat="48.13476" lon="-3.30021">
        <ele>235.1</ele>
        <time>2024-11-20T08:21:42Z</time>
      </trkpt>
      <trkpt lat="48.13477" lon="-3.30022">
        <ele>235.1</ele>
        <time>2024-11-20T08:21:43Z</time>
      </trkpt>
      <trkpt lat="48.13477" lon="-3.30024">
        <ele>235.1</ele>
        <time>2024-11-20T08:21:44Z</time>
      </trkpt>
      <trkpt lat="48.13477" lon="-3.30025">
        <ele>235.1</ele>
        <time>2024-11-20T08:21:45Z</time>
      </trkpt>
      <trkpt lat="48.13477" lon="-3.30027">
        <ele>235.2</ele>
        <time>2024-11-20T08:21:46Z</time>
      </trkpt>
      <trkpt lat="48.13478" lon="-3.3003">
        <ele>235.2</ele>
        <time>2024-11-20T08:21:47Z</time>
      </trkpt>
      <trkpt lat="48.13478" lon="-3.30032">
        <ele>235.2</ele>
        <time>2024-11-20T08:21:48Z</time>
      </trkpt>
      <trkpt lat="48.13479" lon="-3.30032">
        <ele>235.2</ele>
        <time>2024-11-20T08:21:49Z</time>
      </trkpt>
      <trkpt lat="48.1348" lon="-3.30033">
        <ele>235.3</ele>
        <time>2024-11-20T08:21:50Z</time>
      </trkpt>
      <trkpt lat="48.1348" lon="-3.30034">
        <ele>235.3</ele>
        <time>2024-11-20T08:21:51Z</time>
      </trkpt>
      <trkpt lat="48.13481" lon="-3.30035">
        <ele>235.3</ele>
        <time>2024-11-20T08:21:52Z</time>
      </trkpt>
      <trkpt lat="48.13481" lon="-3.30036">
        <ele>235.3</ele>
        <time>2024-11-20T08:21:53Z</time>
      </trkpt>
      <trkpt lat="48.13482" lon="-3.30037">
        <ele>235.3</ele>
        <time>2024-11-20T08:21:54Z</time>
      </trkpt>
      <trkpt lat="48.13482" lon="-3.30038">
        <ele>235.4</ele>
        <time>2024-11-20T08:21:55Z</time>
      </trkpt>
      <trkpt lat="48.13482" lon="-3.3004">
        <ele>235.4</ele>
        <time>2024-11-20T08:21:56Z</time>
      </trkpt>
      <trkpt lat="48.13482" lon="-3.30042">
        <ele>235.4</ele>
        <time>2024-11-20T08:21:57Z</time>
      </trkpt>
      <trkpt lat="48.13483" lon="-3.30043">
        <ele>235.4</ele>
        <time>2024-11-20T08:21:58Z</time>
      </trkpt>
      <trkpt lat="48.13483" lon="-3.30045">
        <ele>235.4</ele>
        <time>2024-11-20T08:21:59Z</time>
      </trkpt>
      <trkpt lat="48.13483" lon="-3.30046">
        <ele>235.4</ele>
        <time>2024-11-20T08:22:00Z</time>
      </trkpt>
      <trkpt lat="48.13484" lon="-3.30047">
        <ele>235.4</ele>
        <time>2024-11-20T08:22:01Z</time>
      </trkpt>
      <trkpt lat="48.13484" lon="-3.30048">
        <ele>235.4</ele>
        <time>2024-11-20T08:22:02Z</time>
      </trkpt>
      <trkpt lat="48.13485" lon="-3.3005">
        <ele>235.4</ele>
        <time>2024-11-20T08:22:03Z</time>
      </trkpt>
      <trkpt lat="48.13485" lon="-3.30051">
        <ele>235.4</ele>
        <time>2024-11-20T08:22:04Z</time>
      </trkpt>
      <trkpt lat="48.13485" lon="-3.30053">
        <ele>235.5</ele>
        <time>2024-11-20T08:22:05Z</time>
      </trkpt>
      <trkpt lat="48.13486" lon="-3.30055">
        <ele>235.5</ele>
        <time>2024-11-20T08:22:06Z</time>
      </trkpt>
      <trkpt lat="48.13486" lon="-3.30057">
        <ele>235.5</ele>
        <time>2024-11-20T08:22:07Z</time>
      </trkpt>
      <trkpt lat="48.13487" lon="-3.30059">
        <ele>235.4</ele>
        <time>2024-11-20T08:22:08Z</time>
      </trkpt>
      <trkpt lat="48.13487" lon="-3.3006">
        <ele>235.4</ele>
        <time>2024-11-20T08:22:09Z</time>
      </trkpt>
      <trkpt lat="48.13487" lon="-3.30062">
        <ele>235.3</ele>
        <time>2024-11-20T08:22:10Z</time>
      </trkpt>
      <trkpt lat="48.13487" lon="-3.30064">
        <ele>235.2</ele>
        <time>2024-11-20T08:22:11Z</time>
      </trkpt>
      <trkpt lat="48.13487" lon="-3.30065">
        <ele>235.2</ele>
        <time>2024-11-20T08:22:12Z</time>
      </trkpt>
      <trkpt lat="48.13487" lon="-3.30067">
        <ele>235.1</ele>
        <time>2024-11-20T08:22:13Z</time>
      </trkpt>
      <trkpt lat="48.13487" lon="-3.3007">
        <ele>235</ele>
        <time>2024-11-20T08:22:14Z</time>
      </trkpt>
      <trkpt lat="48.13488" lon="-3.30072">
        <ele>235</ele>
        <time>2024-11-20T08:22:15Z</time>
      </trkpt>
      <trkpt lat="48.13488" lon="-3.30073">
        <ele>234.9</ele>
        <time>2024-11-20T08:22:16Z</time>
      </trkpt>
      <trkpt lat="48.13489" lon="-3.30075">
        <ele>234.9</ele>
        <time>2024-11-20T08:22:17Z</time>
      </trkpt>
      <trkpt lat="48.13489" lon="-3.30078">
        <ele>234.8</ele>
        <time>2024-11-20T08:22:18Z</time>
      </trkpt>
      <trkpt lat="48.1349" lon="-3.3008">
        <ele>234.8</ele>
        <time>2024-11-20T08:22:19Z</time>
      </trkpt>
      <trkpt lat="48.1349" lon="-3.30081">
        <ele>234.7</ele>
        <time>2024-11-20T08:22:20Z</time>
      </trkpt>
      <trkpt lat="48.13491" lon="-3.30083">
        <ele>234.7</ele>
        <time>2024-11-20T08:22:21Z</time>
      </trkpt>
      <trkpt lat="48.13491" lon="-3.30085">
        <ele>234.7</ele>
        <time>2024-11-20T08:22:22Z</time>
      </trkpt>
      <trkpt lat="48.13492" lon="-3.30086">
        <ele>234.7</ele>
        <time>2024-11-20T08:22:23Z</time>
      </trkpt>
      <trkpt lat="48.13492" lon="-3.30087">
        <ele>234.7</ele>
        <time>2024-11-20T08:22:24Z</time>
      </trkpt>
      <trkpt lat="48.13492" lon="-3.30089">
        <ele>234.6</ele>
        <time>2024-11-20T08:22:25Z</time>
      </trkpt>
      <trkpt lat="48.13491" lon="-3.3009">
        <ele>234.6</ele>
        <time>2024-11-20T08:22:26Z</time>
      </trkpt>
      <trkpt lat="48.1349" lon="-3.30092">
        <ele>234.5</ele>
        <time>2024-11-20T08:22:27Z</time>
      </trkpt>
      <trkpt lat="48.1349" lon="-3.30095">
        <ele>234.5</ele>
        <time>2024-11-20T08:22:28Z</time>
      </trkpt>
      <trkpt lat="48.1349" lon="-3.30098">
        <ele>234.4</ele>
        <time>2024-11-20T08:22:29Z</time>
      </trkpt>
      <trkpt lat="48.1349" lon="-3.301">
        <ele>234.4</ele>
        <time>2024-11-20T08:22:30Z</time>
      </trkpt>
      <trkpt lat="48.1349" lon="-3.30102">
        <ele>234.4</ele>
        <time>2024-11-20T08:22:31Z</time>
      </trkpt>
      <trkpt lat="48.1349" lon="-3.30104">
        <ele>234.4</ele>
        <time>2024-11-20T08:22:32Z</time>
      </trkpt>
      <trkpt lat="48.1349" lon="-3.30106">
        <ele>234.4</ele>
        <time>2024-11-20T08:22:33Z</time>
      </trkpt>
      <trkpt lat="48.13491" lon="-3.30108">
        <ele>234.4</ele>
        <time>2024-11-20T08:22:34Z</time>
      </trkpt>
      <trkpt lat="48.13491" lon="-3.3011">
        <ele>234.4</ele>
        <time>2024-11-20T08:22:35Z</time>
      </trkpt>
      <trkpt lat="48.13491" lon="-3.30112">
        <ele>234.3</ele>
        <time>2024-11-20T08:22:36Z</time>
      </trkpt>
      <trkpt lat="48.13491" lon="-3.30115">
        <ele>234.2</ele>
        <time>2024-11-20T08:22:37Z</time>
      </trkpt>
      <trkpt lat="48.13492" lon="-3.30117">
        <ele>234.2</ele>
        <time>2024-11-20T08:22:38Z</time>
      </trkpt>
      <trkpt lat="48.13493" lon="-3.30118">
        <ele>234.2</ele>
        <time>2024-11-20T08:22:39Z</time>
      </trkpt>
      <trkpt lat="48.13493" lon="-3.30119">
        <ele>234.2</ele>
        <time>2024-11-20T08:22:40Z</time>
      </trkpt>
      <trkpt lat="48.13494" lon="-3.30121">
        <ele>234.1</ele>
        <time>2024-11-20T08:22:41Z</time>
      </trkpt>
      <trkpt lat="48.13495" lon="-3.30122">
        <ele>234.1</ele>
        <time>2024-11-20T08:22:42Z</time>
      </trkpt>
      <trkpt lat="48.13495" lon="-3.30124">
        <ele>234.1</ele>
        <time>2024-11-20T08:22:43Z</time>
      </trkpt>
      <trkpt lat="48.13496" lon="-3.30126">
        <ele>234.1</ele>
        <time>2024-11-20T08:22:44Z</time>
      </trkpt>
      <trkpt lat="48.13496" lon="-3.30127">
        <ele>234.1</ele>
        <time>2024-11-20T08:22:45Z</time>
      </trkpt>
      <trkpt lat="48.13496" lon="-3.30127">
        <ele>234</ele>
        <time>2024-11-20T08:22:46Z</time>
      </trkpt>
      <trkpt lat="48.13496" lon="-3.30128">
        <ele>234</ele>
        <time>2024-11-20T08:22:47Z</time>
      </trkpt>
      <trkpt lat="48.13496" lon="-3.30131">
        <ele>233.9</ele>
        <time>2024-11-20T08:22:48Z</time>
      </trkpt>
      <trkpt lat="48.13497" lon="-3.30133">
        <ele>233.9</ele>
        <time>2024-11-20T08:22:49Z</time>
      </trkpt>
      <trkpt lat="48.13497" lon="-3.30135">
        <ele>233.8</ele>
        <time>2024-11-20T08:22:50Z</time>
      </trkpt>
      <trkpt lat="48.13498" lon="-3.30136">
        <ele>233.8</ele>
        <time>2024-11-20T08:22:51Z</time>
      </trkpt>
      <trkpt lat="48.13498" lon="-3.30137">
        <ele>233.8</ele>
        <time>2024-11-20T08:22:52Z</time>
      </trkpt>
      <trkpt lat="48.13498" lon="-3.30138">
        <ele>233.8</ele>
        <time>2024-11-20T08:22:53Z</time>
      </trkpt>
      <trkpt lat="48.13499" lon="-3.3014">
        <ele>233.8</ele>
        <time>2024-11-20T08:22:54Z</time>
      </trkpt>
      <trkpt lat="48.13499" lon="-3.30141">
        <ele>233.7</ele>
        <time>2024-11-20T08:22:55Z</time>
      </trkpt>
      <trkpt lat="48.13499" lon="-3.30142">
        <ele>233.6</ele>
        <time>2024-11-20T08:22:56Z</time>
      </trkpt>
      <trkpt lat="48.13499" lon="-3.30143">
        <ele>233.5</ele>
        <time>2024-11-20T08:22:57Z</time>
      </trkpt>
      <trkpt lat="48.13499" lon="-3.30145">
        <ele>233.5</ele>
        <time>2024-11-20T08:22:58Z</time>
      </trkpt>
      <trkpt lat="48.135" lon="-3.30147">
        <ele>233.4</ele>
        <time>2024-11-20T08:22:59Z</time>
      </trkpt>
      <trkpt lat="48.135" lon="-3.3015">
        <ele>233.2</ele>
        <time>2024-11-20T08:23:00Z</time>
      </trkpt>
      <trkpt lat="48.135" lon="-3.30152">
        <ele>233.1</ele>
        <time>2024-11-20T08:23:01Z</time>
      </trkpt>
      <trkpt lat="48.135" lon="-3.30154">
        <ele>232.9</ele>
        <time>2024-11-20T08:23:02Z</time>
      </trkpt>
      <trkpt lat="48.135" lon="-3.30156">
        <ele>232.8</ele>
        <time>2024-11-20T08:23:03Z</time>
      </trkpt>
      <trkpt lat="48.135" lon="-3.30157">
        <ele>232.7</ele>
        <time>2024-11-20T08:23:04Z</time>
      </trkpt>
      <trkpt lat="48.135" lon="-3.30158">
        <ele>232.7</ele>
        <time>2024-11-20T08:23:05Z</time>
      </trkpt>
      <trkpt lat="48.135" lon="-3.30159">
        <ele>232.5</ele>
        <time>2024-11-20T08:23:06Z</time>
      </trkpt>
      <trkpt lat="48.135" lon="-3.30162">
        <ele>232.4</ele>
        <time>2024-11-20T08:23:07Z</time>
      </trkpt>
      <trkpt lat="48.13501" lon="-3.30164">
        <ele>232.2</ele>
        <time>2024-11-20T08:23:08Z</time>
      </trkpt>
      <trkpt lat="48.13501" lon="-3.30166">
        <ele>232.1</ele>
        <time>2024-11-20T08:23:09Z</time>
      </trkpt>
      <trkpt lat="48.13501" lon="-3.30167">
        <ele>232</ele>
        <time>2024-11-20T08:23:10Z</time>
      </trkpt>
      <trkpt lat="48.13501" lon="-3.3017">
        <ele>231.9</ele>
        <time>2024-11-20T08:23:11Z</time>
      </trkpt>
      <trkpt lat="48.13501" lon="-3.30172">
        <ele>231.7</ele>
        <time>2024-11-20T08:23:12Z</time>
      </trkpt>
      <trkpt lat="48.13502" lon="-3.30174">
        <ele>231.6</ele>
        <time>2024-11-20T08:23:13Z</time>
      </trkpt>
      <trkpt lat="48.13502" lon="-3.30177">
        <ele>231.5</ele>
        <time>2024-11-20T08:23:14Z</time>
      </trkpt>
      <trkpt lat="48.13503" lon="-3.30178">
        <ele>231.4</ele>
        <time>2024-11-20T08:23:15Z</time>
      </trkpt>
      <trkpt lat="48.13503" lon="-3.3018">
        <ele>231.3</ele>
        <time>2024-11-20T08:23:16Z</time>
      </trkpt>
      <trkpt lat="48.13503" lon="-3.30182">
        <ele>231.2</ele>
        <time>2024-11-20T08:23:17Z</time>
      </trkpt>
      <trkpt lat="48.13503" lon="-3.30183">
        <ele>231.1</ele>
        <time>2024-11-20T08:23:18Z</time>
      </trkpt>
      <trkpt lat="48.13503" lon="-3.30185">
        <ele>231</ele>
        <time>2024-11-20T08:23:19Z</time>
      </trkpt>
      <trkpt lat="48.13503" lon="-3.30187">
        <ele>230.9</ele>
        <time>2024-11-20T08:23:20Z</time>
      </trkpt>
      <trkpt lat="48.13504" lon="-3.30188">
        <ele>230.8</ele>
        <time>2024-11-20T08:23:21Z</time>
      </trkpt>
      <trkpt lat="48.13504" lon="-3.3019">
        <ele>230.7</ele>
        <time>2024-11-20T08:23:22Z</time>
      </trkpt>
      <trkpt lat="48.13505" lon="-3.30192">
        <ele>230.6</ele>
        <time>2024-11-20T08:23:23Z</time>
      </trkpt>
      <trkpt lat="48.13505" lon="-3.30194">
        <ele>230.6</ele>
        <time>2024-11-20T08:23:24Z</time>
      </trkpt>
      <trkpt lat="48.13505" lon="-3.30196">
        <ele>230.5</ele>
        <time>2024-11-20T08:23:25Z</time>
      </trkpt>
      <trkpt lat="48.13506" lon="-3.30198">
        <ele>230.4</ele>
        <time>2024-11-20T08:23:26Z</time>
      </trkpt>
      <trkpt lat="48.13506" lon="-3.30199">
        <ele>230.3</ele>
        <time>2024-11-20T08:23:27Z</time>
      </trkpt>
      <trkpt lat="48.13506" lon="-3.30201">
        <ele>230.2</ele>
        <time>2024-11-20T08:23:28Z</time>
      </trkpt>
      <trkpt lat="48.13506" lon="-3.30203">
        <ele>230</ele>
        <time>2024-11-20T08:23:29Z</time>
      </trkpt>
      <trkpt lat="48.13506" lon="-3.30205">
        <ele>229.9</ele>
        <time>2024-11-20T08:23:30Z</time>
      </trkpt>
      <trkpt lat="48.13506" lon="-3.30207">
        <ele>229.8</ele>
        <time>2024-11-20T08:23:31Z</time>
      </trkpt>
      <trkpt lat="48.13507" lon="-3.30209">
        <ele>229.7</ele>
        <time>2024-11-20T08:23:32Z</time>
      </trkpt>
      <trkpt lat="48.13507" lon="-3.30211">
        <ele>229.5</ele>
        <time>2024-11-20T08:23:33Z</time>
      </trkpt>
      <trkpt lat="48.13507" lon="-3.30213">
        <ele>229.4</ele>
        <time>2024-11-20T08:23:34Z</time>
      </trkpt>
      <trkpt lat="48.13507" lon="-3.30215">
        <ele>229.3</ele>
        <time>2024-11-20T08:23:35Z</time>
      </trkpt>
      <trkpt lat="48.13507" lon="-3.30217">
        <ele>229.1</ele>
        <time>2024-11-20T08:23:36Z</time>
      </trkpt>
      <trkpt lat="48.13507" lon="-3.30219">
        <ele>229</ele>
        <time>2024-11-20T08:23:37Z</time>
      </trkpt>
      <trkpt lat="48.13507" lon="-3.30221">
        <ele>228.8</ele>
        <time>2024-11-20T08:23:38Z</time>
      </trkpt>
      <trkpt lat="48.13508" lon="-3.30223">
        <ele>228.8</ele>
        <time>2024-11-20T08:23:39Z</time>
      </trkpt>
      <trkpt lat="48.13508" lon="-3.30225">
        <ele>228.7</ele>
        <time>2024-11-20T08:23:40Z</time>
      </trkpt>
      <trkpt lat="48.13508" lon="-3.30228">
        <ele>228.6</ele>
        <time>2024-11-20T08:23:41Z</time>
      </trkpt>
      <trkpt lat="48.13508" lon="-3.3023">
        <ele>228.5</ele>
        <time>2024-11-20T08:23:42Z</time>
      </trkpt>
      <trkpt lat="48.13508" lon="-3.30232">
        <ele>228.4</ele>
        <time>2024-11-20T08:23:43Z</time>
      </trkpt>
      <trkpt lat="48.13508" lon="-3.30234">
        <ele>228.3</ele>
        <time>2024-11-20T08:23:44Z</time>
      </trkpt>
      <trkpt lat="48.13508" lon="-3.30236">
        <ele>228.2</ele>
        <time>2024-11-20T08:23:45Z</time>
      </trkpt>
      <trkpt lat="48.13508" lon="-3.30238">
        <ele>228.1</ele>
        <time>2024-11-20T08:23:46Z</time>
      </trkpt>
      <trkpt lat="48.13507" lon="-3.30239">
        <ele>228</ele>
        <time>2024-11-20T08:23:47Z</time>
      </trkpt>
      <trkpt lat="48.13508" lon="-3.3024">
        <ele>228</ele>
        <time>2024-11-20T08:23:48Z</time>
      </trkpt>
      <trkpt lat="48.13508" lon="-3.30242">
        <ele>227.9</ele>
        <time>2024-11-20T08:23:49Z</time>
      </trkpt>
      <trkpt lat="48.13508" lon="-3.30244">
        <ele>227.8</ele>
        <time>2024-11-20T08:23:50Z</time>
      </trkpt>
      <trkpt lat="48.13508" lon="-3.30245">
        <ele>227.8</ele>
        <time>2024-11-20T08:23:51Z</time>
      </trkpt>
      <trkpt lat="48.13508" lon="-3.30247">
        <ele>227.7</ele>
        <time>2024-11-20T08:23:52Z</time>
      </trkpt>
      <trkpt lat="48.13508" lon="-3.30249">
        <ele>227.6</ele>
        <time>2024-11-20T08:23:53Z</time>
      </trkpt>
      <trkpt lat="48.13508" lon="-3.30252">
        <ele>227.5</ele>
        <time>2024-11-20T08:23:54Z</time>
      </trkpt>
      <trkpt lat="48.13509" lon="-3.30254">
        <ele>227.4</ele>
        <time>2024-11-20T08:23:55Z</time>
      </trkpt>
      <trkpt lat="48.13509" lon="-3.30256">
        <ele>227.3</ele>
        <time>2024-11-20T08:23:56Z</time>
      </trkpt>
      <trkpt lat="48.13509" lon="-3.30257">
        <ele>227.2</ele>
        <time>2024-11-20T08:23:57Z</time>
      </trkpt>
      <trkpt lat="48.13509" lon="-3.30259">
        <ele>227.1</ele>
        <time>2024-11-20T08:23:58Z</time>
      </trkpt>
      <trkpt lat="48.13509" lon="-3.30261">
        <ele>227</ele>
        <time>2024-11-20T08:23:59Z</time>
      </trkpt>
      <trkpt lat="48.13509" lon="-3.30263">
        <ele>226.9</ele>
        <time>2024-11-20T08:24:00Z</time>
      </trkpt>
      <trkpt lat="48.13509" lon="-3.30266">
        <ele>226.7</ele>
        <time>2024-11-20T08:24:01Z</time>
      </trkpt>
      <trkpt lat="48.13509" lon="-3.30267">
        <ele>226.6</ele>
        <time>2024-11-20T08:24:02Z</time>
      </trkpt>
      <trkpt lat="48.1351" lon="-3.30269">
        <ele>226.5</ele>
        <time>2024-11-20T08:24:03Z</time>
      </trkpt>
      <trkpt lat="48.1351" lon="-3.30271">
        <ele>226.4</ele>
        <time>2024-11-20T08:24:04Z</time>
      </trkpt>
      <trkpt lat="48.1351" lon="-3.30273">
        <ele>226.3</ele>
        <time>2024-11-20T08:24:05Z</time>
      </trkpt>
      <trkpt lat="48.1351" lon="-3.30275">
        <ele>226.2</ele>
        <time>2024-11-20T08:24:06Z</time>
      </trkpt>
      <trkpt lat="48.1351" lon="-3.30277">
        <ele>226.1</ele>
        <time>2024-11-20T08:24:07Z</time>
      </trkpt>
      <trkpt lat="48.1351" lon="-3.30279">
        <ele>226</ele>
        <time>2024-11-20T08:24:08Z</time>
      </trkpt>
      <trkpt lat="48.1351" lon="-3.30281">
        <ele>225.9</ele>
        <time>2024-11-20T08:24:09Z</time>
      </trkpt>
      <trkpt lat="48.13511" lon="-3.30283">
        <ele>225.8</ele>
        <time>2024-11-20T08:24:10Z</time>
      </trkpt>
      <trkpt lat="48.13511" lon="-3.30284">
        <ele>225.7</ele>
        <time>2024-11-20T08:24:11Z</time>
      </trkpt>
      <trkpt lat="48.13511" lon="-3.30286">
        <ele>225.6</ele>
        <time>2024-11-20T08:24:12Z</time>
      </trkpt>
      <trkpt lat="48.13511" lon="-3.30288">
        <ele>225.5</ele>
        <time>2024-11-20T08:24:13Z</time>
      </trkpt>
      <trkpt lat="48.13511" lon="-3.3029">
        <ele>225.3</ele>
        <time>2024-11-20T08:24:14Z</time>
      </trkpt>
      <trkpt lat="48.13511" lon="-3.30291">
        <ele>225.2</ele>
        <time>2024-11-20T08:24:15Z</time>
      </trkpt>
      <trkpt lat="48.13511" lon="-3.30294">
        <ele>225</ele>
        <time>2024-11-20T08:24:16Z</time>
      </trkpt>
      <trkpt lat="48.1351" lon="-3.30295">
        <ele>224.8</ele>
        <time>2024-11-20T08:24:17Z</time>
      </trkpt>
      <trkpt lat="48.1351" lon="-3.30297">
        <ele>224.7</ele>
        <time>2024-11-20T08:24:18Z</time>
      </trkpt>
      <trkpt lat="48.13509" lon="-3.30298">
        <ele>224.5</ele>
        <time>2024-11-20T08:24:19Z</time>
      </trkpt>
      <trkpt lat="48.13508" lon="-3.303">
        <ele>224.3</ele>
        <time>2024-11-20T08:24:20Z</time>
      </trkpt>
      <trkpt lat="48.13508" lon="-3.30301">
        <ele>224.2</ele>
        <time>2024-11-20T08:24:21Z</time>
      </trkpt>
      <trkpt lat="48.13507" lon="-3.30301">
        <ele>224</ele>
        <time>2024-11-20T08:24:22Z</time>
      </trkpt>
      <trkpt lat="48.13506" lon="-3.30302">
        <ele>223.9</ele>
        <time>2024-11-20T08:24:23Z</time>
      </trkpt>
      <trkpt lat="48.13505" lon="-3.30302">
        <ele>223.8</ele>
        <time>2024-11-20T08:24:24Z</time>
      </trkpt>
      <trkpt lat="48.13505" lon="-3.30302">
        <ele>223.8</ele>
        <time>2024-11-20T08:24:25Z</time>
      </trkpt>
      <trkpt lat="48.13505" lon="-3.30302">
        <ele>223.8</ele>
        <time>2024-11-20T08:24:26Z</time>
      </trkpt>
      <trkpt lat="48.13505" lon="-3.30302">
        <ele>223.8</ele>
        <time>2024-11-20T08:24:27Z</time>
      </trkpt>
      <trkpt lat="48.13505" lon="-3.30302">
        <ele>223.8</ele>
        <time>2024-11-20T08:24:28Z</time>
      </trkpt>
      <trkpt lat="48.13504" lon="-3.30302">
        <ele>223.7</ele>
        <time>2024-11-20T08:24:29Z</time>
      </trkpt>
      <trkpt lat="48.13504" lon="-3.30301">
        <ele>223.7</ele>
        <time>2024-11-20T08:24:30Z</time>
      </trkpt>
      <trkpt lat="48.13503" lon="-3.30301">
        <ele>223.7</ele>
        <time>2024-11-20T08:24:31Z</time>
      </trkpt>
      <trkpt lat="48.13502" lon="-3.303">
        <ele>223.7</ele>
        <time>2024-11-20T08:24:32Z</time>
      </trkpt>
      <trkpt lat="48.13501" lon="-3.30299">
        <ele>223.6</ele>
        <time>2024-11-20T08:24:33Z</time>
      </trkpt>
      <trkpt lat="48.13501" lon="-3.30298">
        <ele>223.6</ele>
        <time>2024-11-20T08:24:34Z</time>
      </trkpt>
      <trkpt lat="48.135" lon="-3.30297">
        <ele>223.6</ele>
        <time>2024-11-20T08:24:35Z</time>
      </trkpt>
      <trkpt lat="48.13499" lon="-3.30295">
        <ele>223.6</ele>
        <time>2024-11-20T08:24:36Z</time>
      </trkpt>
      <trkpt lat="48.13498" lon="-3.30294">
        <ele>223.7</ele>
        <time>2024-11-20T08:24:37Z</time>
      </trkpt>
      <trkpt lat="48.13497" lon="-3.30292">
        <ele>223.7</ele>
        <time>2024-11-20T08:24:38Z</time>
      </trkpt>
      <trkpt lat="48.13497" lon="-3.30291">
        <ele>223.7</ele>
        <time>2024-11-20T08:24:39Z</time>
      </trkpt>
      <trkpt lat="48.13496" lon="-3.3029">
        <ele>223.6</ele>
        <time>2024-11-20T08:24:40Z</time>
      </trkpt>
      <trkpt lat="48.13495" lon="-3.30289">
        <ele>223.6</ele>
        <time>2024-11-20T08:24:41Z</time>
      </trkpt>
      <trkpt lat="48.13494" lon="-3.30288">
        <ele>223.6</ele>
        <time>2024-11-20T08:24:42Z</time>
      </trkpt>
      <trkpt lat="48.13493" lon="-3.30287">
        <ele>223.6</ele>
        <time>2024-11-20T08:24:43Z</time>
      </trkpt>
      <trkpt lat="48.13492" lon="-3.30285">
        <ele>223.6</ele>
        <time>2024-11-20T08:24:44Z</time>
      </trkpt>
      <trkpt lat="48.13492" lon="-3.30285">
        <ele>223.6</ele>
        <time>2024-11-20T08:24:45Z</time>
      </trkpt>
      <trkpt lat="48.13491" lon="-3.30283">
        <ele>223.6</ele>
        <time>2024-11-20T08:24:46Z</time>
      </trkpt>
      <trkpt lat="48.13491" lon="-3.30282">
        <ele>223.7</ele>
        <time>2024-11-20T08:24:47Z</time>
      </trkpt>
      <trkpt lat="48.1349" lon="-3.30281">
        <ele>223.7</ele>
        <time>2024-11-20T08:24:48Z</time>
      </trkpt>
      <trkpt lat="48.13489" lon="-3.3028">
        <ele>223.7</ele>
        <time>2024-11-20T08:24:49Z</time>
      </trkpt>
      <trkpt lat="48.13488" lon="-3.30279">
        <ele>223.6</ele>
        <time>2024-11-20T08:24:50Z</time>
      </trkpt>
      <trkpt lat="48.13487" lon="-3.30278">
        <ele>223.6</ele>
        <time>2024-11-20T08:24:51Z</time>
      </trkpt>
      <trkpt lat="48.13486" lon="-3.30277">
        <ele>223.5</ele>
        <time>2024-11-20T08:24:52Z</time>
      </trkpt>
      <trkpt lat="48.13485" lon="-3.30277">
        <ele>223.5</ele>
        <time>2024-11-20T08:24:53Z</time>
      </trkpt>
      <trkpt lat="48.13484" lon="-3.30276">
        <ele>223.4</ele>
        <time>2024-11-20T08:24:54Z</time>
      </trkpt>
      <trkpt lat="48.13483" lon="-3.30275">
        <ele>223.4</ele>
        <time>2024-11-20T08:24:55Z</time>
      </trkpt>
      <trkpt lat="48.13482" lon="-3.30274">
        <ele>223.4</ele>
        <time>2024-11-20T08:24:56Z</time>
      </trkpt>
      <trkpt lat="48.13481" lon="-3.30273">
        <ele>223.4</ele>
        <time>2024-11-20T08:24:57Z</time>
      </trkpt>
      <trkpt lat="48.13481" lon="-3.30273">
        <ele>223.4</ele>
        <time>2024-11-20T08:24:58Z</time>
      </trkpt>
      <trkpt lat="48.1348" lon="-3.30272">
        <ele>223.4</ele>
        <time>2024-11-20T08:24:59Z</time>
      </trkpt>
      <trkpt lat="48.13479" lon="-3.30271">
        <ele>223.4</ele>
        <time>2024-11-20T08:25:00Z</time>
      </trkpt>
      <trkpt lat="48.13479" lon="-3.3027">
        <ele>223.4</ele>
        <time>2024-11-20T08:25:01Z</time>
      </trkpt>
      <trkpt lat="48.13478" lon="-3.30269">
        <ele>223.5</ele>
        <time>2024-11-20T08:25:02Z</time>
      </trkpt>
      <trkpt lat="48.13478" lon="-3.30269">
        <ele>223.6</ele>
        <time>2024-11-20T08:25:03Z</time>
      </trkpt>
      <trkpt lat="48.13478" lon="-3.30268">
        <ele>223.6</ele>
        <time>2024-11-20T08:25:04Z</time>
      </trkpt>
      <trkpt lat="48.13477" lon="-3.30268">
        <ele>223.6</ele>
        <time>2024-11-20T08:25:05Z</time>
      </trkpt>
      <trkpt lat="48.13476" lon="-3.30267">
        <ele>223.6</ele>
        <time>2024-11-20T08:25:06Z</time>
      </trkpt>
      <trkpt lat="48.13476" lon="-3.30266">
        <ele>223.6</ele>
        <time>2024-11-20T08:25:07Z</time>
      </trkpt>
      <trkpt lat="48.13475" lon="-3.30264">
        <ele>223.7</ele>
        <time>2024-11-20T08:25:08Z</time>
      </trkpt>
      <trkpt lat="48.13474" lon="-3.30263">
        <ele>223.7</ele>
        <time>2024-11-20T08:25:09Z</time>
      </trkpt>
      <trkpt lat="48.13473" lon="-3.30262">
        <ele>223.8</ele>
        <time>2024-11-20T08:25:10Z</time>
      </trkpt>
      <trkpt lat="48.13472" lon="-3.30261">
        <ele>223.8</ele>
        <time>2024-11-20T08:25:11Z</time>
      </trkpt>
      <trkpt lat="48.1347" lon="-3.30259">
        <ele>223.8</ele>
        <time>2024-11-20T08:25:12Z</time>
      </trkpt>
      <trkpt lat="48.13469" lon="-3.30258">
        <ele>223.8</ele>
        <time>2024-11-20T08:25:13Z</time>
      </trkpt>
      <trkpt lat="48.13468" lon="-3.30257">
        <ele>223.8</ele>
        <time>2024-11-20T08:25:14Z</time>
      </trkpt>
      <trkpt lat="48.13467" lon="-3.30256">
        <ele>223.8</ele>
        <time>2024-11-20T08:25:15Z</time>
      </trkpt>
      <trkpt lat="48.13466" lon="-3.30255">
        <ele>223.8</ele>
        <time>2024-11-20T08:25:16Z</time>
      </trkpt>
      <trkpt lat="48.13465" lon="-3.30254">
        <ele>223.8</ele>
        <time>2024-11-20T08:25:17Z</time>
      </trkpt>
      <trkpt lat="48.13463" lon="-3.30253">
        <ele>223.8</ele>
        <time>2024-11-20T08:25:18Z</time>
      </trkpt>
      <trkpt lat="48.13462" lon="-3.30252">
        <ele>223.8</ele>
        <time>2024-11-20T08:25:19Z</time>
      </trkpt>
      <trkpt lat="48.13461" lon="-3.3025">
        <ele>223.7</ele>
        <time>2024-11-20T08:25:20Z</time>
      </trkpt>
      <trkpt lat="48.1346" lon="-3.30249">
        <ele>223.7</ele>
        <time>2024-11-20T08:25:21Z</time>
      </trkpt>
      <trkpt lat="48.13459" lon="-3.30248">
        <ele>223.7</ele>
        <time>2024-11-20T08:25:22Z</time>
      </trkpt>
      <trkpt lat="48.13457" lon="-3.30247">
        <ele>223.7</ele>
        <time>2024-11-20T08:25:23Z</time>
      </trkpt>
      <trkpt lat="48.13456" lon="-3.30245">
        <ele>223.7</ele>
        <time>2024-11-20T08:25:24Z</time>
      </trkpt>
      <trkpt lat="48.13455" lon="-3.30244">
        <ele>223.7</ele>
        <time>2024-11-20T08:25:25Z</time>
      </trkpt>
      <trkpt lat="48.13454" lon="-3.30243">
        <ele>223.7</ele>
        <time>2024-11-20T08:25:26Z</time>
      </trkpt>
      <trkpt lat="48.13452" lon="-3.30242">
        <ele>223.7</ele>
        <time>2024-11-20T08:25:27Z</time>
      </trkpt>
      <trkpt lat="48.13451" lon="-3.30241">
        <ele>223.6</ele>
        <time>2024-11-20T08:25:28Z</time>
      </trkpt>
      <trkpt lat="48.1345" lon="-3.3024">
        <ele>223.6</ele>
        <time>2024-11-20T08:25:29Z</time>
      </trkpt>
      <trkpt lat="48.13449" lon="-3.30239">
        <ele>223.6</ele>
        <time>2024-11-20T08:25:30Z</time>
      </trkpt>
      <trkpt lat="48.13448" lon="-3.30238">
        <ele>223.6</ele>
        <time>2024-11-20T08:25:31Z</time>
      </trkpt>
      <trkpt lat="48.13448" lon="-3.30238">
        <ele>223.6</ele>
        <time>2024-11-20T08:25:32Z</time>
      </trkpt>
      <trkpt lat="48.13447" lon="-3.30237">
        <ele>223.6</ele>
        <time>2024-11-20T08:25:33Z</time>
      </trkpt>
      <trkpt lat="48.13445" lon="-3.30236">
        <ele>223.6</ele>
        <time>2024-11-20T08:25:34Z</time>
      </trkpt>
      <trkpt lat="48.13444" lon="-3.30235">
        <ele>223.6</ele>
        <time>2024-11-20T08:25:35Z</time>
      </trkpt>
      <trkpt lat="48.13443" lon="-3.30235">
        <ele>223.5</ele>
        <time>2024-11-20T08:25:36Z</time>
      </trkpt>
      <trkpt lat="48.13442" lon="-3.30234">
        <ele>223.5</ele>
        <time>2024-11-20T08:25:37Z</time>
      </trkpt>
      <trkpt lat="48.13442" lon="-3.30233">
        <ele>223.5</ele>
        <time>2024-11-20T08:25:38Z</time>
      </trkpt>
      <trkpt lat="48.13441" lon="-3.30232">
        <ele>223.5</ele>
        <time>2024-11-20T08:25:39Z</time>
      </trkpt>
      <trkpt lat="48.1344" lon="-3.30231">
        <ele>223.4</ele>
        <time>2024-11-20T08:25:40Z</time>
      </trkpt>
      <trkpt lat="48.13439" lon="-3.3023">
        <ele>223.4</ele>
        <time>2024-11-20T08:25:41Z</time>
      </trkpt>
      <trkpt lat="48.13439" lon="-3.3023">
        <ele>223.4</ele>
        <time>2024-11-20T08:25:42Z</time>
      </trkpt>
      <trkpt lat="48.13438" lon="-3.30229">
        <ele>223.3</ele>
        <time>2024-11-20T08:25:43Z</time>
      </trkpt>
      <trkpt lat="48.13437" lon="-3.30229">
        <ele>223.3</ele>
        <time>2024-11-20T08:25:44Z</time>
      </trkpt>
      <trkpt lat="48.13437" lon="-3.30228">
        <ele>223.3</ele>
        <time>2024-11-20T08:25:45Z</time>
      </trkpt>
      <trkpt lat="48.13436" lon="-3.30227">
        <ele>223.2</ele>
        <time>2024-11-20T08:25:46Z</time>
      </trkpt>
      <trkpt lat="48.13434" lon="-3.30226">
        <ele>223.1</ele>
        <time>2024-11-20T08:25:47Z</time>
      </trkpt>
      <trkpt lat="48.13433" lon="-3.30225">
        <ele>223.1</ele>
        <time>2024-11-20T08:25:48Z</time>
      </trkpt>
      <trkpt lat="48.13432" lon="-3.30224">
        <ele>223</ele>
        <time>2024-11-20T08:25:49Z</time>
      </trkpt>
      <trkpt lat="48.13431" lon="-3.30223">
        <ele>222.9</ele>
        <time>2024-11-20T08:25:50Z</time>
      </trkpt>
      <trkpt lat="48.13429" lon="-3.30223">
        <ele>222.8</ele>
        <time>2024-11-20T08:25:51Z</time>
      </trkpt>
      <trkpt lat="48.13428" lon="-3.30222">
        <ele>222.6</ele>
        <time>2024-11-20T08:25:52Z</time>
      </trkpt>
      <trkpt lat="48.13427" lon="-3.30221">
        <ele>222.5</ele>
        <time>2024-11-20T08:25:53Z</time>
      </trkpt>
      <trkpt lat="48.13425" lon="-3.3022">
        <ele>222.4</ele>
        <time>2024-11-20T08:25:54Z</time>
      </trkpt>
      <trkpt lat="48.13424" lon="-3.3022">
        <ele>222.3</ele>
        <time>2024-11-20T08:25:55Z</time>
      </trkpt>
      <trkpt lat="48.13423" lon="-3.30219">
        <ele>222.2</ele>
        <time>2024-11-20T08:25:56Z</time>
      </trkpt>
      <trkpt lat="48.13422" lon="-3.30218">
        <ele>222.1</ele>
        <time>2024-11-20T08:25:57Z</time>
      </trkpt>
      <trkpt lat="48.13421" lon="-3.30217">
        <ele>221.9</ele>
        <time>2024-11-20T08:25:58Z</time>
      </trkpt>
      <trkpt lat="48.13419" lon="-3.30216">
        <ele>221.8</ele>
        <time>2024-11-20T08:25:59Z</time>
      </trkpt>
      <trkpt lat="48.13418" lon="-3.30216">
        <ele>221.7</ele>
        <time>2024-11-20T08:26:00Z</time>
      </trkpt>
      <trkpt lat="48.13417" lon="-3.30215">
        <ele>221.5</ele>
        <time>2024-11-20T08:26:01Z</time>
      </trkpt>
      <trkpt lat="48.13415" lon="-3.30214">
        <ele>221.5</ele>
        <time>2024-11-20T08:26:02Z</time>
      </trkpt>
      <trkpt lat="48.13414" lon="-3.30213">
        <ele>221.4</ele>
        <time>2024-11-20T08:26:03Z</time>
      </trkpt>
      <trkpt lat="48.13412" lon="-3.30212">
        <ele>221.4</ele>
        <time>2024-11-20T08:26:04Z</time>
      </trkpt>
      <trkpt lat="48.13411" lon="-3.30211">
        <ele>221.4</ele>
        <time>2024-11-20T08:26:05Z</time>
      </trkpt>
      <trkpt lat="48.1341" lon="-3.3021">
        <ele>221.4</ele>
        <time>2024-11-20T08:26:06Z</time>
      </trkpt>
      <trkpt lat="48.13408" lon="-3.30209">
        <ele>221.3</ele>
        <time>2024-11-20T08:26:07Z</time>
      </trkpt>
      <trkpt lat="48.13407" lon="-3.30208">
        <ele>221.3</ele>
        <time>2024-11-20T08:26:08Z</time>
      </trkpt>
      <trkpt lat="48.13406" lon="-3.30207">
        <ele>221.3</ele>
        <time>2024-11-20T08:26:09Z</time>
      </trkpt>
      <trkpt lat="48.13405" lon="-3.30207">
        <ele>221.3</ele>
        <time>2024-11-20T08:26:10Z</time>
      </trkpt>
      <trkpt lat="48.13403" lon="-3.30206">
        <ele>221.2</ele>
        <time>2024-11-20T08:26:11Z</time>
      </trkpt>
      <trkpt lat="48.13402" lon="-3.30205">
        <ele>221.2</ele>
        <time>2024-11-20T08:26:12Z</time>
      </trkpt>
      <trkpt lat="48.134" lon="-3.30204">
        <ele>221.1</ele>
        <time>2024-11-20T08:26:13Z</time>
      </trkpt>
      <trkpt lat="48.134" lon="-3.30204">
        <ele>221.1</ele>
        <time>2024-11-20T08:26:14Z</time>
      </trkpt>
      <trkpt lat="48.13399" lon="-3.30203">
        <ele>221.1</ele>
        <time>2024-11-20T08:26:15Z</time>
      </trkpt>
      <trkpt lat="48.13397" lon="-3.30203">
        <ele>221</ele>
        <time>2024-11-20T08:26:16Z</time>
      </trkpt>
      <trkpt lat="48.13396" lon="-3.30202">
        <ele>221</ele>
        <time>2024-11-20T08:26:17Z</time>
      </trkpt>
      <trkpt lat="48.13395" lon="-3.30201">
        <ele>220.9</ele>
        <time>2024-11-20T08:26:18Z</time>
      </trkpt>
      <trkpt lat="48.13394" lon="-3.30201">
        <ele>220.9</ele>
        <time>2024-11-20T08:26:19Z</time>
      </trkpt>
      <trkpt lat="48.13393" lon="-3.302">
        <ele>220.9</ele>
        <time>2024-11-20T08:26:20Z</time>
      </trkpt>
      <trkpt lat="48.13392" lon="-3.30199">
        <ele>220.9</ele>
        <time>2024-11-20T08:26:21Z</time>
      </trkpt>
      <trkpt lat="48.13391" lon="-3.30199">
        <ele>220.8</ele>
        <time>2024-11-20T08:26:22Z</time>
      </trkpt>
      <trkpt lat="48.1339" lon="-3.30199">
        <ele>220.8</ele>
        <time>2024-11-20T08:26:23Z</time>
      </trkpt>
      <trkpt lat="48.13389" lon="-3.30198">
        <ele>220.8</ele>
        <time>2024-11-20T08:26:24Z</time>
      </trkpt>
      <trkpt lat="48.13388" lon="-3.30198">
        <ele>220.7</ele>
        <time>2024-11-20T08:26:25Z</time>
      </trkpt>
      <trkpt lat="48.13387" lon="-3.30198">
        <ele>220.6</ele>
        <time>2024-11-20T08:26:26Z</time>
      </trkpt>
      <trkpt lat="48.13385" lon="-3.30197">
        <ele>220.6</ele>
        <time>2024-11-20T08:26:27Z</time>
      </trkpt>
      <trkpt lat="48.13384" lon="-3.30196">
        <ele>220.5</ele>
        <time>2024-11-20T08:26:28Z</time>
      </trkpt>
      <trkpt lat="48.13383" lon="-3.30196">
        <ele>220.5</ele>
        <time>2024-11-20T08:26:29Z</time>
      </trkpt>
      <trkpt lat="48.13382" lon="-3.30195">
        <ele>220.5</ele>
        <time>2024-11-20T08:26:30Z</time>
      </trkpt>
      <trkpt lat="48.13381" lon="-3.30194">
        <ele>220.5</ele>
        <time>2024-11-20T08:26:31Z</time>
      </trkpt>
      <trkpt lat="48.13381" lon="-3.30194">
        <ele>220.5</ele>
        <time>2024-11-20T08:26:32Z</time>
      </trkpt>
      <trkpt lat="48.1338" lon="-3.30192">
        <ele>220.5</ele>
        <time>2024-11-20T08:26:33Z</time>
      </trkpt>
      <trkpt lat="48.13378" lon="-3.30192">
        <ele>220.6</ele>
        <time>2024-11-20T08:26:34Z</time>
      </trkpt>
      <trkpt lat="48.13377" lon="-3.30191">
        <ele>220.6</ele>
        <time>2024-11-20T08:26:35Z</time>
      </trkpt>
      <trkpt lat="48.13376" lon="-3.3019">
        <ele>220.6</ele>
        <time>2024-11-20T08:26:36Z</time>
      </trkpt>
      <trkpt lat="48.13375" lon="-3.30189">
        <ele>220.6</ele>
        <time>2024-11-20T08:26:37Z</time>
      </trkpt>
      <trkpt lat="48.13373" lon="-3.30187">
        <ele>220.6</ele>
        <time>2024-11-20T08:26:38Z</time>
      </trkpt>
      <trkpt lat="48.13372" lon="-3.30186">
        <ele>220.7</ele>
        <time>2024-11-20T08:26:39Z</time>
      </trkpt>
      <trkpt lat="48.13371" lon="-3.30185">
        <ele>220.7</ele>
        <time>2024-11-20T08:26:40Z</time>
      </trkpt>
      <trkpt lat="48.13371" lon="-3.30184">
        <ele>220.8</ele>
        <time>2024-11-20T08:26:41Z</time>
      </trkpt>
      <trkpt lat="48.1337" lon="-3.30183">
        <ele>220.8</ele>
        <time>2024-11-20T08:26:42Z</time>
      </trkpt>
      <trkpt lat="48.13369" lon="-3.30182">
        <ele>220.9</ele>
        <time>2024-11-20T08:26:43Z</time>
      </trkpt>
      <trkpt lat="48.13368" lon="-3.3018">
        <ele>221</ele>
        <time>2024-11-20T08:26:44Z</time>
      </trkpt>
      <trkpt lat="48.13367" lon="-3.30179">
        <ele>221.1</ele>
        <time>2024-11-20T08:26:45Z</time>
      </trkpt>
      <trkpt lat="48.13367" lon="-3.30178">
        <ele>221.1</ele>
        <time>2024-11-20T08:26:46Z</time>
      </trkpt>
      <trkpt lat="48.13366" lon="-3.30177">
        <ele>221.3</ele>
        <time>2024-11-20T08:26:47Z</time>
      </trkpt>
      <trkpt lat="48.13365" lon="-3.30175">
        <ele>221.4</ele>
        <time>2024-11-20T08:26:48Z</time>
      </trkpt>
      <trkpt lat="48.13364" lon="-3.30173">
        <ele>221.5</ele>
        <time>2024-11-20T08:26:49Z</time>
      </trkpt>
      <trkpt lat="48.13364" lon="-3.30172">
        <ele>221.6</ele>
        <time>2024-11-20T08:26:50Z</time>
      </trkpt>
      <trkpt lat="48.13363" lon="-3.30171">
        <ele>221.7</ele>
        <time>2024-11-20T08:26:51Z</time>
      </trkpt>
      <trkpt lat="48.13362" lon="-3.3017">
        <ele>221.8</ele>
        <time>2024-11-20T08:26:52Z</time>
      </trkpt>
      <trkpt lat="48.13362" lon="-3.30168">
        <ele>221.8</ele>
        <time>2024-11-20T08:26:53Z</time>
      </trkpt>
      <trkpt lat="48.13361" lon="-3.30167">
        <ele>221.9</ele>
        <time>2024-11-20T08:26:54Z</time>
      </trkpt>
      <trkpt lat="48.1336" lon="-3.30166">
        <ele>222</ele>
        <time>2024-11-20T08:26:55Z</time>
      </trkpt>
      <trkpt lat="48.1336" lon="-3.30165">
        <ele>222.1</ele>
        <time>2024-11-20T08:26:56Z</time>
      </trkpt>
      <trkpt lat="48.13359" lon="-3.30164">
        <ele>222.1</ele>
        <time>2024-11-20T08:26:57Z</time>
      </trkpt>
      <trkpt lat="48.13359" lon="-3.30162">
        <ele>222.2</ele>
        <time>2024-11-20T08:26:58Z</time>
      </trkpt>
      <trkpt lat="48.13358" lon="-3.3016">
        <ele>222.2</ele>
        <time>2024-11-20T08:26:59Z</time>
      </trkpt>
      <trkpt lat="48.13357" lon="-3.30159">
        <ele>222.3</ele>
        <time>2024-11-20T08:27:00Z</time>
      </trkpt>
      <trkpt lat="48.13356" lon="-3.30157">
        <ele>222.4</ele>
        <time>2024-11-20T08:27:01Z</time>
      </trkpt>
      <trkpt lat="48.13355" lon="-3.30155">
        <ele>222.4</ele>
        <time>2024-11-20T08:27:02Z</time>
      </trkpt>
      <trkpt lat="48.13354" lon="-3.30154">
        <ele>222.5</ele>
        <time>2024-11-20T08:27:03Z</time>
      </trkpt>
      <trkpt lat="48.13354" lon="-3.30153">
        <ele>222.6</ele>
        <time>2024-11-20T08:27:04Z</time>
      </trkpt>
      <trkpt lat="48.13353" lon="-3.30151">
        <ele>222.7</ele>
        <time>2024-11-20T08:27:05Z</time>
      </trkpt>
      <trkpt lat="48.13352" lon="-3.3015">
        <ele>222.8</ele>
        <time>2024-11-20T08:27:06Z</time>
      </trkpt>
      <trkpt lat="48.13352" lon="-3.30148">
        <ele>222.9</ele>
        <time>2024-11-20T08:27:07Z</time>
      </trkpt>
      <trkpt lat="48.13351" lon="-3.30147">
        <ele>222.9</ele>
        <time>2024-11-20T08:27:08Z</time>
      </trkpt>
      <trkpt lat="48.13351" lon="-3.30146">
        <ele>223</ele>
        <time>2024-11-20T08:27:09Z</time>
      </trkpt>
      <trkpt lat="48.1335" lon="-3.30145">
        <ele>223.1</ele>
        <time>2024-11-20T08:27:10Z</time>
      </trkpt>
      <trkpt lat="48.13349" lon="-3.30144">
        <ele>223.2</ele>
        <time>2024-11-20T08:27:11Z</time>
      </trkpt>
      <trkpt lat="48.13349" lon="-3.30142">
        <ele>223.3</ele>
        <time>2024-11-20T08:27:12Z</time>
      </trkpt>
      <trkpt lat="48.13348" lon="-3.30141">
        <ele>223.4</ele>
        <time>2024-11-20T08:27:13Z</time>
      </trkpt>
      <trkpt lat="48.13347" lon="-3.30139">
        <ele>223.4</ele>
        <time>2024-11-20T08:27:14Z</time>
      </trkpt>
      <trkpt lat="48.13346" lon="-3.30138">
        <ele>223.5</ele>
        <time>2024-11-20T08:27:15Z</time>
      </trkpt>
      <trkpt lat="48.13345" lon="-3.30137">
        <ele>223.6</ele>
        <time>2024-11-20T08:27:16Z</time>
      </trkpt>
      <trkpt lat="48.13344" lon="-3.30135">
        <ele>223.7</ele>
        <time>2024-11-20T08:27:17Z</time>
      </trkpt>
      <trkpt lat="48.13343" lon="-3.30133">
        <ele>223.9</ele>
        <time>2024-11-20T08:27:18Z</time>
      </trkpt>
      <trkpt lat="48.13343" lon="-3.30132">
        <ele>224</ele>
        <time>2024-11-20T08:27:19Z</time>
      </trkpt>
      <trkpt lat="48.13341" lon="-3.30129">
        <ele>224.1</ele>
        <time>2024-11-20T08:27:21Z</time>
      </trkpt>
      <trkpt lat="48.13341" lon="-3.30127">
        <ele>224.2</ele>
        <time>2024-11-20T08:27:22Z</time>
      </trkpt>
      <trkpt lat="48.13341" lon="-3.30126">
        <ele>224.3</ele>
        <time>2024-11-20T08:27:23Z</time>
      </trkpt>
      <trkpt lat="48.1334" lon="-3.30125">
        <ele>224.4</ele>
        <time>2024-11-20T08:27:24Z</time>
      </trkpt>
      <trkpt lat="48.1334" lon="-3.30123">
        <ele>224.5</ele>
        <time>2024-11-20T08:27:25Z</time>
      </trkpt>
      <trkpt lat="48.13339" lon="-3.30122">
        <ele>224.6</ele>
        <time>2024-11-20T08:27:26Z</time>
      </trkpt>
      <trkpt lat="48.13338" lon="-3.30121">
        <ele>224.6</ele>
        <time>2024-11-20T08:27:27Z</time>
      </trkpt>
      <trkpt lat="48.13337" lon="-3.30119">
        <ele>224.6</ele>
        <time>2024-11-20T08:27:28Z</time>
      </trkpt>
      <trkpt lat="48.13336" lon="-3.30118">
        <ele>224.7</ele>
        <time>2024-11-20T08:27:29Z</time>
      </trkpt>
      <trkpt lat="48.13335" lon="-3.30116">
        <ele>224.7</ele>
        <time>2024-11-20T08:27:30Z</time>
      </trkpt>
      <trkpt lat="48.13334" lon="-3.30115">
        <ele>224.7</ele>
        <time>2024-11-20T08:27:31Z</time>
      </trkpt>
      <trkpt lat="48.13333" lon="-3.30115">
        <ele>224.7</ele>
        <time>2024-11-20T08:27:32Z</time>
      </trkpt>
      <trkpt lat="48.13332" lon="-3.30114">
        <ele>224.7</ele>
        <time>2024-11-20T08:27:33Z</time>
      </trkpt>
      <trkpt lat="48.13331" lon="-3.30113">
        <ele>224.8</ele>
        <time>2024-11-20T08:27:34Z</time>
      </trkpt>
      <trkpt lat="48.1333" lon="-3.30112">
        <ele>224.8</ele>
        <time>2024-11-20T08:27:35Z</time>
      </trkpt>
      <trkpt lat="48.13329" lon="-3.3011">
        <ele>224.9</ele>
        <time>2024-11-20T08:27:36Z</time>
      </trkpt>
      <trkpt lat="48.13329" lon="-3.30109">
        <ele>225.1</ele>
        <time>2024-11-20T08:27:37Z</time>
      </trkpt>
      <trkpt lat="48.13328" lon="-3.30108">
        <ele>225.1</ele>
        <time>2024-11-20T08:27:38Z</time>
      </trkpt>
      <trkpt lat="48.13327" lon="-3.30107">
        <ele>225.2</ele>
        <time>2024-11-20T08:27:39Z</time>
      </trkpt>
      <trkpt lat="48.13327" lon="-3.30106">
        <ele>225.3</ele>
        <time>2024-11-20T08:27:40Z</time>
      </trkpt>
      <trkpt lat="48.13326" lon="-3.30105">
        <ele>225.4</ele>
        <time>2024-11-20T08:27:41Z</time>
      </trkpt>
      <trkpt lat="48.13325" lon="-3.30105">
        <ele>225.4</ele>
        <time>2024-11-20T08:27:42Z</time>
      </trkpt>
      <trkpt lat="48.13324" lon="-3.30104">
        <ele>225.4</ele>
        <time>2024-11-20T08:27:43Z</time>
      </trkpt>
      <trkpt lat="48.13323" lon="-3.30102">
        <ele>225.6</ele>
        <time>2024-11-20T08:27:44Z</time>
      </trkpt>
      <trkpt lat="48.13322" lon="-3.30101">
        <ele>225.7</ele>
        <time>2024-11-20T08:27:45Z</time>
      </trkpt>
      <trkpt lat="48.13321" lon="-3.30099">
        <ele>225.9</ele>
        <time>2024-11-20T08:27:46Z</time>
      </trkpt>
      <trkpt lat="48.1332" lon="-3.30096">
        <ele>226.1</ele>
        <time>2024-11-20T08:27:47Z</time>
      </trkpt>
      <trkpt lat="48.13319" lon="-3.30095">
        <ele>226.3</ele>
        <time>2024-11-20T08:27:48Z</time>
      </trkpt>
      <trkpt lat="48.13318" lon="-3.30094">
        <ele>226.3</ele>
        <time>2024-11-20T08:27:49Z</time>
      </trkpt>
      <trkpt lat="48.13317" lon="-3.30093">
        <ele>226.3</ele>
        <time>2024-11-20T08:27:50Z</time>
      </trkpt>
      <trkpt lat="48.13316" lon="-3.30093">
        <ele>226.3</ele>
        <time>2024-11-20T08:27:51Z</time>
      </trkpt>
      <trkpt lat="48.13315" lon="-3.30093">
        <ele>226.3</ele>
        <time>2024-11-20T08:27:52Z</time>
      </trkpt>
      <trkpt lat="48.13314" lon="-3.30092">
        <ele>226.4</ele>
        <time>2024-11-20T08:27:53Z</time>
      </trkpt>
      <trkpt lat="48.13313" lon="-3.30092">
        <ele>226.4</ele>
        <time>2024-11-20T08:27:54Z</time>
      </trkpt>
      <trkpt lat="48.13312" lon="-3.30091">
        <ele>226.4</ele>
        <time>2024-11-20T08:27:55Z</time>
      </trkpt>
      <trkpt lat="48.13311" lon="-3.30091">
        <ele>226.4</ele>
        <time>2024-11-20T08:27:56Z</time>
      </trkpt>
      <trkpt lat="48.1331" lon="-3.30091">
        <ele>226.4</ele>
        <time>2024-11-20T08:27:57Z</time>
      </trkpt>
      <trkpt lat="48.13309" lon="-3.3009">
        <ele>226.4</ele>
        <time>2024-11-20T08:27:58Z</time>
      </trkpt>
      <trkpt lat="48.13308" lon="-3.3009">
        <ele>226.4</ele>
        <time>2024-11-20T08:27:59Z</time>
      </trkpt>
      <trkpt lat="48.13307" lon="-3.30089">
        <ele>226.4</ele>
        <time>2024-11-20T08:28:00Z</time>
      </trkpt>
      <trkpt lat="48.13306" lon="-3.30089">
        <ele>226.4</ele>
        <time>2024-11-20T08:28:01Z</time>
      </trkpt>
      <trkpt lat="48.13305" lon="-3.30089">
        <ele>226.4</ele>
        <time>2024-11-20T08:28:02Z</time>
      </trkpt>
      <trkpt lat="48.13304" lon="-3.30089">
        <ele>226.3</ele>
        <time>2024-11-20T08:28:03Z</time>
      </trkpt>
      <trkpt lat="48.13302" lon="-3.30088">
        <ele>226.3</ele>
        <time>2024-11-20T08:28:04Z</time>
      </trkpt>
      <trkpt lat="48.13301" lon="-3.30088">
        <ele>226.2</ele>
        <time>2024-11-20T08:28:05Z</time>
      </trkpt>
      <trkpt lat="48.133" lon="-3.30087">
        <ele>226.2</ele>
        <time>2024-11-20T08:28:06Z</time>
      </trkpt>
      <trkpt lat="48.13298" lon="-3.30087">
        <ele>226.1</ele>
        <time>2024-11-20T08:28:07Z</time>
      </trkpt>
      <trkpt lat="48.13297" lon="-3.30086">
        <ele>226.1</ele>
        <time>2024-11-20T08:28:08Z</time>
      </trkpt>
      <trkpt lat="48.13296" lon="-3.30086">
        <ele>226</ele>
        <time>2024-11-20T08:28:09Z</time>
      </trkpt>
      <trkpt lat="48.13294" lon="-3.30085">
        <ele>226</ele>
        <time>2024-11-20T08:28:10Z</time>
      </trkpt>
      <trkpt lat="48.13293" lon="-3.30084">
        <ele>226</ele>
        <time>2024-11-20T08:28:11Z</time>
      </trkpt>
      <trkpt lat="48.13291" lon="-3.30083">
        <ele>226</ele>
        <time>2024-11-20T08:28:12Z</time>
      </trkpt>
      <trkpt lat="48.1329" lon="-3.30083">
        <ele>225.9</ele>
        <time>2024-11-20T08:28:13Z</time>
      </trkpt>
      <trkpt lat="48.13289" lon="-3.30082">
        <ele>225.9</ele>
        <time>2024-11-20T08:28:14Z</time>
      </trkpt>
      <trkpt lat="48.13288" lon="-3.30081">
        <ele>225.8</ele>
        <time>2024-11-20T08:28:15Z</time>
      </trkpt>
      <trkpt lat="48.13287" lon="-3.30081">
        <ele>225.8</ele>
        <time>2024-11-20T08:28:16Z</time>
      </trkpt>
      <trkpt lat="48.13286" lon="-3.3008">
        <ele>225.8</ele>
        <time>2024-11-20T08:28:17Z</time>
      </trkpt>
      <trkpt lat="48.13285" lon="-3.3008">
        <ele>225.7</ele>
        <time>2024-11-20T08:28:18Z</time>
      </trkpt>
      <trkpt lat="48.13284" lon="-3.30079">
        <ele>225.7</ele>
        <time>2024-11-20T08:28:19Z</time>
      </trkpt>
      <trkpt lat="48.13282" lon="-3.30079">
        <ele>225.6</ele>
        <time>2024-11-20T08:28:20Z</time>
      </trkpt>
      <trkpt lat="48.13281" lon="-3.30078">
        <ele>225.6</ele>
        <time>2024-11-20T08:28:21Z</time>
      </trkpt>
      <trkpt lat="48.1328" lon="-3.30078">
        <ele>225.5</ele>
        <time>2024-11-20T08:28:22Z</time>
      </trkpt>
      <trkpt lat="48.13279" lon="-3.30078">
        <ele>225.5</ele>
        <time>2024-11-20T08:28:23Z</time>
      </trkpt>
      <trkpt lat="48.13278" lon="-3.30077">
        <ele>225.4</ele>
        <time>2024-11-20T08:28:24Z</time>
      </trkpt>
      <trkpt lat="48.13277" lon="-3.30077">
        <ele>225.4</ele>
        <time>2024-11-20T08:28:25Z</time>
      </trkpt>
      <trkpt lat="48.13276" lon="-3.30077">
        <ele>225.3</ele>
        <time>2024-11-20T08:28:26Z</time>
      </trkpt>
      <trkpt lat="48.13275" lon="-3.30077">
        <ele>225.3</ele>
        <time>2024-11-20T08:28:27Z</time>
      </trkpt>
      <trkpt lat="48.13274" lon="-3.30077">
        <ele>225.2</ele>
        <time>2024-11-20T08:28:28Z</time>
      </trkpt>
      <trkpt lat="48.13273" lon="-3.30077">
        <ele>225.2</ele>
        <time>2024-11-20T08:28:29Z</time>
      </trkpt>
      <trkpt lat="48.13272" lon="-3.30076">
        <ele>225.2</ele>
        <time>2024-11-20T08:28:30Z</time>
      </trkpt>
      <trkpt lat="48.13272" lon="-3.30076">
        <ele>225.2</ele>
        <time>2024-11-20T08:28:31Z</time>
      </trkpt>
      <trkpt lat="48.13271" lon="-3.30075">
        <ele>225.2</ele>
        <time>2024-11-20T08:28:32Z</time>
      </trkpt>
      <trkpt lat="48.13271" lon="-3.30074">
        <ele>225.2</ele>
        <time>2024-11-20T08:28:33Z</time>
      </trkpt>
      <trkpt lat="48.1327" lon="-3.30074">
        <ele>225.2</ele>
        <time>2024-11-20T08:28:34Z</time>
      </trkpt>
      <trkpt lat="48.13268" lon="-3.30073">
        <ele>225.2</ele>
        <time>2024-11-20T08:28:35Z</time>
      </trkpt>
      <trkpt lat="48.13266" lon="-3.30072">
        <ele>225.1</ele>
        <time>2024-11-20T08:28:36Z</time>
      </trkpt>
      <trkpt lat="48.13265" lon="-3.30072">
        <ele>225.1</ele>
        <time>2024-11-20T08:28:37Z</time>
      </trkpt>
      <trkpt lat="48.13263" lon="-3.30071">
        <ele>225.1</ele>
        <time>2024-11-20T08:28:38Z</time>
      </trkpt>
      <trkpt lat="48.13262" lon="-3.30071">
        <ele>225</ele>
        <time>2024-11-20T08:28:39Z</time>
      </trkpt>
      <trkpt lat="48.13261" lon="-3.3007">
        <ele>225</ele>
        <time>2024-11-20T08:28:40Z</time>
      </trkpt>
      <trkpt lat="48.13259" lon="-3.30069">
        <ele>225.1</ele>
        <time>2024-11-20T08:28:41Z</time>
      </trkpt>
      <trkpt lat="48.13258" lon="-3.30068">
        <ele>225.1</ele>
        <time>2024-11-20T08:28:42Z</time>
      </trkpt>
      <trkpt lat="48.13257" lon="-3.30068">
        <ele>225</ele>
        <time>2024-11-20T08:28:43Z</time>
      </trkpt>
      <trkpt lat="48.13255" lon="-3.30067">
        <ele>225</ele>
        <time>2024-11-20T08:28:44Z</time>
      </trkpt>
      <trkpt lat="48.13254" lon="-3.30067">
        <ele>225</ele>
        <time>2024-11-20T08:28:45Z</time>
      </trkpt>
      <trkpt lat="48.13253" lon="-3.30066">
        <ele>225</ele>
        <time>2024-11-20T08:28:46Z</time>
      </trkpt>
      <trkpt lat="48.13252" lon="-3.30065">
        <ele>225</ele>
        <time>2024-11-20T08:28:47Z</time>
      </trkpt>
      <trkpt lat="48.13251" lon="-3.30064">
        <ele>225.1</ele>
        <time>2024-11-20T08:28:48Z</time>
      </trkpt>
      <trkpt lat="48.1325" lon="-3.30064">
        <ele>225.1</ele>
        <time>2024-11-20T08:28:49Z</time>
      </trkpt>
      <trkpt lat="48.13249" lon="-3.30063">
        <ele>225.1</ele>
        <time>2024-11-20T08:28:50Z</time>
      </trkpt>
      <trkpt lat="48.13247" lon="-3.30062">
        <ele>225</ele>
        <time>2024-11-20T08:28:51Z</time>
      </trkpt>
      <trkpt lat="48.13246" lon="-3.30061">
        <ele>225</ele>
        <time>2024-11-20T08:28:52Z</time>
      </trkpt>
      <trkpt lat="48.13245" lon="-3.30061">
        <ele>224.9</ele>
        <time>2024-11-20T08:28:53Z</time>
      </trkpt>
      <trkpt lat="48.13244" lon="-3.3006">
        <ele>224.9</ele>
        <time>2024-11-20T08:28:54Z</time>
      </trkpt>
      <trkpt lat="48.13243" lon="-3.30059">
        <ele>224.9</ele>
        <time>2024-11-20T08:28:55Z</time>
      </trkpt>
      <trkpt lat="48.13243" lon="-3.30058">
        <ele>224.9</ele>
        <time>2024-11-20T08:28:56Z</time>
      </trkpt>
      <trkpt lat="48.13241" lon="-3.30057">
        <ele>224.9</ele>
        <time>2024-11-20T08:28:57Z</time>
      </trkpt>
      <trkpt lat="48.1324" lon="-3.30057">
        <ele>224.9</ele>
        <time>2024-11-20T08:28:58Z</time>
      </trkpt>
      <trkpt lat="48.13239" lon="-3.30056">
        <ele>224.8</ele>
        <time>2024-11-20T08:28:59Z</time>
      </trkpt>
      <trkpt lat="48.13238" lon="-3.30055">
        <ele>224.8</ele>
        <time>2024-11-20T08:29:00Z</time>
      </trkpt>
      <trkpt lat="48.13237" lon="-3.30054">
        <ele>224.7</ele>
        <time>2024-11-20T08:29:01Z</time>
      </trkpt>
      <trkpt lat="48.13235" lon="-3.30052">
        <ele>224.7</ele>
        <time>2024-11-20T08:29:02Z</time>
      </trkpt>
      <trkpt lat="48.13234" lon="-3.30051">
        <ele>224.7</ele>
        <time>2024-11-20T08:29:03Z</time>
      </trkpt>
      <trkpt lat="48.13233" lon="-3.3005">
        <ele>224.7</ele>
        <time>2024-11-20T08:29:04Z</time>
      </trkpt>
      <trkpt lat="48.13232" lon="-3.30049">
        <ele>224.7</ele>
        <time>2024-11-20T08:29:05Z</time>
      </trkpt>
      <trkpt lat="48.13231" lon="-3.30048">
        <ele>224.7</ele>
        <time>2024-11-20T08:29:06Z</time>
      </trkpt>
      <trkpt lat="48.1323" lon="-3.30047">
        <ele>224.7</ele>
        <time>2024-11-20T08:29:07Z</time>
      </trkpt>
      <trkpt lat="48.13229" lon="-3.30046">
        <ele>224.6</ele>
        <time>2024-11-20T08:29:08Z</time>
      </trkpt>
      <trkpt lat="48.13228" lon="-3.30046">
        <ele>224.6</ele>
        <time>2024-11-20T08:29:09Z</time>
      </trkpt>
      <trkpt lat="48.13227" lon="-3.30045">
        <ele>224.5</ele>
        <time>2024-11-20T08:29:10Z</time>
      </trkpt>
      <trkpt lat="48.13226" lon="-3.30045">
        <ele>224.5</ele>
        <time>2024-11-20T08:29:11Z</time>
      </trkpt>
      <trkpt lat="48.13225" lon="-3.30044">
        <ele>224.5</ele>
        <time>2024-11-20T08:29:12Z</time>
      </trkpt>
      <trkpt lat="48.13224" lon="-3.30044">
        <ele>224.5</ele>
        <time>2024-11-20T08:29:13Z</time>
      </trkpt>
      <trkpt lat="48.13223" lon="-3.30043">
        <ele>224.5</ele>
        <time>2024-11-20T08:29:14Z</time>
      </trkpt>
      <trkpt lat="48.13222" lon="-3.30041">
        <ele>224.5</ele>
        <time>2024-11-20T08:29:15Z</time>
      </trkpt>
      <trkpt lat="48.13222" lon="-3.30041">
        <ele>224.5</ele>
        <time>2024-11-20T08:29:16Z</time>
      </trkpt>
      <trkpt lat="48.13221" lon="-3.3004">
        <ele>224.5</ele>
        <time>2024-11-20T08:29:17Z</time>
      </trkpt>
      <trkpt lat="48.1322" lon="-3.30039">
        <ele>224.5</ele>
        <time>2024-11-20T08:29:18Z</time>
      </trkpt>
      <trkpt lat="48.13219" lon="-3.30038">
        <ele>224.4</ele>
        <time>2024-11-20T08:29:19Z</time>
      </trkpt>
      <trkpt lat="48.13218" lon="-3.30037">
        <ele>224.4</ele>
        <time>2024-11-20T08:29:20Z</time>
      </trkpt>
      <trkpt lat="48.13217" lon="-3.30035">
        <ele>224.4</ele>
        <time>2024-11-20T08:29:21Z</time>
      </trkpt>
      <trkpt lat="48.13216" lon="-3.30034">
        <ele>224.3</ele>
        <time>2024-11-20T08:29:22Z</time>
      </trkpt>
      <trkpt lat="48.13215" lon="-3.30033">
        <ele>224.2</ele>
        <time>2024-11-20T08:29:23Z</time>
      </trkpt>
      <trkpt lat="48.13215" lon="-3.30032">
        <ele>224.2</ele>
        <time>2024-11-20T08:29:24Z</time>
      </trkpt>
      <trkpt lat="48.13214" lon="-3.30032">
        <ele>224.2</ele>
        <time>2024-11-20T08:29:25Z</time>
      </trkpt>
      <trkpt lat="48.13214" lon="-3.30031">
        <ele>224.2</ele>
        <time>2024-11-20T08:29:26Z</time>
      </trkpt>
      <trkpt lat="48.13212" lon="-3.30029">
        <ele>224.1</ele>
        <time>2024-11-20T08:29:27Z</time>
      </trkpt>
      <trkpt lat="48.13212" lon="-3.30028">
        <ele>224</ele>
        <time>2024-11-20T08:29:28Z</time>
      </trkpt>
      <trkpt lat="48.13211" lon="-3.30027">
        <ele>224</ele>
        <time>2024-11-20T08:29:29Z</time>
      </trkpt>
      <trkpt lat="48.1321" lon="-3.30026">
        <ele>224</ele>
        <time>2024-11-20T08:29:30Z</time>
      </trkpt>
      <trkpt lat="48.1321" lon="-3.30025">
        <ele>223.9</ele>
        <time>2024-11-20T08:29:31Z</time>
      </trkpt>
      <trkpt lat="48.13209" lon="-3.30024">
        <ele>223.9</ele>
        <time>2024-11-20T08:29:32Z</time>
      </trkpt>
      <trkpt lat="48.13208" lon="-3.30023">
        <ele>223.8</ele>
        <time>2024-11-20T08:29:33Z</time>
      </trkpt>
      <trkpt lat="48.13207" lon="-3.30022">
        <ele>223.7</ele>
        <time>2024-11-20T08:29:34Z</time>
      </trkpt>
      <trkpt lat="48.13207" lon="-3.30022">
        <ele>223.7</ele>
        <time>2024-11-20T08:29:35Z</time>
      </trkpt>
      <trkpt lat="48.13206" lon="-3.30021">
        <ele>223.6</ele>
        <time>2024-11-20T08:29:36Z</time>
      </trkpt>
      <trkpt lat="48.13205" lon="-3.30019">
        <ele>223.6</ele>
        <time>2024-11-20T08:29:37Z</time>
      </trkpt>
      <trkpt lat="48.13204" lon="-3.30017">
        <ele>223.5</ele>
        <time>2024-11-20T08:29:38Z</time>
      </trkpt>
      <trkpt lat="48.13203" lon="-3.30016">
        <ele>223.5</ele>
        <time>2024-11-20T08:29:39Z</time>
      </trkpt>
      <trkpt lat="48.13202" lon="-3.30015">
        <ele>223.5</ele>
        <time>2024-11-20T08:29:40Z</time>
      </trkpt>
      <trkpt lat="48.13202" lon="-3.30014">
        <ele>223.5</ele>
        <time>2024-11-20T08:29:41Z</time>
      </trkpt>
      <trkpt lat="48.13201" lon="-3.30014">
        <ele>223.5</ele>
        <time>2024-11-20T08:29:42Z</time>
      </trkpt>
      <trkpt lat="48.13201" lon="-3.30013">
        <ele>223.5</ele>
        <time>2024-11-20T08:29:43Z</time>
      </trkpt>
      <trkpt lat="48.132" lon="-3.30013">
        <ele>223.4</ele>
        <time>2024-11-20T08:29:44Z</time>
      </trkpt>
      <trkpt lat="48.132" lon="-3.30013">
        <ele>223.4</ele>
        <time>2024-11-20T08:29:45Z</time>
      </trkpt>
      <trkpt lat="48.132" lon="-3.30013">
        <ele>223.4</ele>
        <time>2024-11-20T08:29:46Z</time>
      </trkpt>
      <trkpt lat="48.132" lon="-3.30013">
        <ele>223.4</ele>
        <time>2024-11-20T08:29:47Z</time>
      </trkpt>
      <trkpt lat="48.132" lon="-3.30014">
        <ele>223.4</ele>
        <time>2024-11-20T08:29:48Z</time>
      </trkpt>
      <trkpt lat="48.132" lon="-3.30014">
        <ele>223.3</ele>
        <time>2024-11-20T08:29:49Z</time>
      </trkpt>
      <trkpt lat="48.132" lon="-3.30014">
        <ele>223.3</ele>
        <time>2024-11-20T08:29:50Z</time>
      </trkpt>
      <trkpt lat="48.132" lon="-3.30014">
        <ele>223.3</ele>
        <time>2024-11-20T08:29:51Z</time>
      </trkpt>
      <trkpt lat="48.132" lon="-3.30014">
        <ele>223.3</ele>
        <time>2024-11-20T08:29:52Z</time>
      </trkpt>
      <trkpt lat="48.132" lon="-3.30014">
        <ele>223.3</ele>
        <time>2024-11-20T08:29:53Z</time>
      </trkpt>
      <trkpt lat="48.132" lon="-3.30014">
        <ele>223.3</ele>
        <time>2024-11-20T08:29:54Z</time>
      </trkpt>
      <trkpt lat="48.132" lon="-3.30014">
        <ele>223.3</ele>
        <time>2024-11-20T08:29:55Z</time>
      </trkpt>
      <trkpt lat="48.132" lon="-3.30014">
        <ele>223.3</ele>
        <time>2024-11-20T08:29:56Z</time>
      </trkpt>
      <trkpt lat="48.132" lon="-3.30014">
        <ele>223.3</ele>
        <time>2024-11-20T08:29:57Z</time>
      </trkpt>
      <trkpt lat="48.132" lon="-3.30014">
        <ele>223.3</ele>
        <time>2024-11-20T08:29:58Z</time>
      </trkpt>
      <trkpt lat="48.132" lon="-3.30014">
        <ele>223.3</ele>
        <time>2024-11-20T08:29:59Z</time>
      </trkpt>
      <trkpt lat="48.132" lon="-3.30013">
        <ele>223.3</ele>
        <time>2024-11-20T08:30:00Z</time>
      </trkpt>
      <trkpt lat="48.13199" lon="-3.30012">
        <ele>223.3</ele>
        <time>2024-11-20T08:30:01Z</time>
      </trkpt>
      <trkpt lat="48.13199" lon="-3.30011">
        <ele>223.4</ele>
        <time>2024-11-20T08:30:02Z</time>
      </trkpt>
      <trkpt lat="48.13198" lon="-3.30011">
        <ele>223.4</ele>
        <time>2024-11-20T08:30:03Z</time>
      </trkpt>
      <trkpt lat="48.13198" lon="-3.3001">
        <ele>223.4</ele>
        <time>2024-11-20T08:30:04Z</time>
      </trkpt>
      <trkpt lat="48.13198" lon="-3.3001">
        <ele>223.4</ele>
        <time>2024-11-20T08:30:05Z</time>
      </trkpt>
      <trkpt lat="48.13198" lon="-3.30009">
        <ele>223.4</ele>
        <time>2024-11-20T08:30:06Z</time>
      </trkpt>
      <trkpt lat="48.13197" lon="-3.30009">
        <ele>223.4</ele>
        <time>2024-11-20T08:30:07Z</time>
      </trkpt>
      <trkpt lat="48.13197" lon="-3.30009">
        <ele>223.4</ele>
        <time>2024-11-20T08:30:08Z</time>
      </trkpt>
      <trkpt lat="48.13197" lon="-3.30009">
        <ele>223.4</ele>
        <time>2024-11-20T08:30:09Z</time>
      </trkpt>
      <trkpt lat="48.13197" lon="-3.30008">
        <ele>223.4</ele>
        <time>2024-11-20T08:30:10Z</time>
      </trkpt>
      <trkpt lat="48.13197" lon="-3.30008">
        <ele>223.4</ele>
        <time>2024-11-20T08:30:11Z</time>
      </trkpt>
      <trkpt lat="48.13197" lon="-3.30008">
        <ele>223.4</ele>
        <time>2024-11-20T08:30:12Z</time>
      </trkpt>
      <trkpt lat="48.13197" lon="-3.30008">
        <ele>223.4</ele>
        <time>2024-11-20T08:30:13Z</time>
      </trkpt>
      <trkpt lat="48.13197" lon="-3.30008">
        <ele>223.4</ele>
        <time>2024-11-20T08:30:14Z</time>
      </trkpt>
      <trkpt lat="48.13197" lon="-3.30008">
        <ele>223.5</ele>
        <time>2024-11-20T08:30:15Z</time>
      </trkpt>
      <trkpt lat="48.13197" lon="-3.30008">
        <ele>223.5</ele>
        <time>2024-11-20T08:30:16Z</time>
      </trkpt>
      <trkpt lat="48.13197" lon="-3.30008">
        <ele>223.5</ele>
        <time>2024-11-20T08:30:17Z</time>
      </trkpt>
      <trkpt lat="48.13197" lon="-3.30008">
        <ele>223.5</ele>
        <time>2024-11-20T08:30:18Z</time>
      </trkpt>
      <trkpt lat="48.13197" lon="-3.30008">
        <ele>223.5</ele>
        <time>2024-11-20T08:30:19Z</time>
      </trkpt>
      <trkpt lat="48.13197" lon="-3.30008">
        <ele>223.5</ele>
        <time>2024-11-20T08:30:20Z</time>
      </trkpt>
      <trkpt lat="48.13197" lon="-3.30008">
        <ele>223.4</ele>
        <time>2024-11-20T08:30:21Z</time>
      </trkpt>
      <trkpt lat="48.13197" lon="-3.30008">
        <ele>223.4</ele>
        <time>2024-11-20T08:30:22Z</time>
      </trkpt>
      <trkpt lat="48.13197" lon="-3.30008">
        <ele>223.4</ele>
        <time>2024-11-20T08:30:23Z</time>
      </trkpt>
      <trkpt lat="48.13197" lon="-3.30008">
        <ele>223.4</ele>
        <time>2024-11-20T08:30:24Z</time>
      </trkpt>
      <trkpt lat="48.13197" lon="-3.30008">
        <ele>223.4</ele>
        <time>2024-11-20T08:30:25Z</time>
      </trkpt>
      <trkpt lat="48.13197" lon="-3.30008">
        <ele>223.4</ele>
        <time>2024-11-20T08:30:26Z</time>
      </trkpt>
      <trkpt lat="48.13196" lon="-3.30008">
        <ele>223.4</ele>
        <time>2024-11-20T08:30:27Z</time>
      </trkpt>
      <trkpt lat="48.13196" lon="-3.30008">
        <ele>223.4</ele>
        <time>2024-11-20T08:30:28Z</time>
      </trkpt>
      <trkpt lat="48.13196" lon="-3.30007">
        <ele>223.4</ele>
        <time>2024-11-20T08:30:29Z</time>
      </trkpt>
      <trkpt lat="48.13196" lon="-3.30007">
        <ele>223.5</ele>
        <time>2024-11-20T08:30:30Z</time>
      </trkpt>
      <trkpt lat="48.13195" lon="-3.30006">
        <ele>223.5</ele>
        <time>2024-11-20T08:30:31Z</time>
      </trkpt>
      <trkpt lat="48.13195" lon="-3.30005">
        <ele>223.6</ele>
        <time>2024-11-20T08:30:32Z</time>
      </trkpt>
      <trkpt lat="48.13194" lon="-3.30004">
        <ele>223.6</ele>
        <time>2024-11-20T08:30:33Z</time>
      </trkpt>
      <trkpt lat="48.13193" lon="-3.30003">
        <ele>223.6</ele>
        <time>2024-11-20T08:30:34Z</time>
      </trkpt>
      <trkpt lat="48.13193" lon="-3.30001">
        <ele>223.6</ele>
        <time>2024-11-20T08:30:35Z</time>
      </trkpt>
      <trkpt lat="48.13192" lon="-3.3">
        <ele>223.6</ele>
        <time>2024-11-20T08:30:36Z</time>
      </trkpt>
      <trkpt lat="48.13191" lon="-3.29999">
        <ele>223.6</ele>
        <time>2024-11-20T08:30:37Z</time>
      </trkpt>
      <trkpt lat="48.1319" lon="-3.29997">
        <ele>223.5</ele>
        <time>2024-11-20T08:30:38Z</time>
      </trkpt>
      <trkpt lat="48.13189" lon="-3.29996">
        <ele>223.5</ele>
        <time>2024-11-20T08:30:39Z</time>
      </trkpt>
      <trkpt lat="48.13188" lon="-3.29995">
        <ele>223.5</ele>
        <time>2024-11-20T08:30:40Z</time>
      </trkpt>
      <trkpt lat="48.13187" lon="-3.29993">
        <ele>223.4</ele>
        <time>2024-11-20T08:30:41Z</time>
      </trkpt>
      <trkpt lat="48.13186" lon="-3.29992">
        <ele>223.4</ele>
        <time>2024-11-20T08:30:42Z</time>
      </trkpt>
      <trkpt lat="48.13185" lon="-3.2999">
        <ele>223.3</ele>
        <time>2024-11-20T08:30:43Z</time>
      </trkpt>
      <trkpt lat="48.13184" lon="-3.29989">
        <ele>223.3</ele>
        <time>2024-11-20T08:30:44Z</time>
      </trkpt>
      <trkpt lat="48.13183" lon="-3.29988">
        <ele>223.2</ele>
        <time>2024-11-20T08:30:45Z</time>
      </trkpt>
      <trkpt lat="48.13182" lon="-3.29987">
        <ele>223.2</ele>
        <time>2024-11-20T08:30:46Z</time>
      </trkpt>
      <trkpt lat="48.13181" lon="-3.29986">
        <ele>223.1</ele>
        <time>2024-11-20T08:30:47Z</time>
      </trkpt>
      <trkpt lat="48.1318" lon="-3.29985">
        <ele>223.1</ele>
        <time>2024-11-20T08:30:48Z</time>
      </trkpt>
      <trkpt lat="48.1318" lon="-3.29983">
        <ele>223.1</ele>
        <time>2024-11-20T08:30:49Z</time>
      </trkpt>
      <trkpt lat="48.13179" lon="-3.29982">
        <ele>223.1</ele>
        <time>2024-11-20T08:30:50Z</time>
      </trkpt>
      <trkpt lat="48.13178" lon="-3.29981">
        <ele>223.1</ele>
        <time>2024-11-20T08:30:51Z</time>
      </trkpt>
      <trkpt lat="48.13177" lon="-3.29979">
        <ele>223.1</ele>
        <time>2024-11-20T08:30:52Z</time>
      </trkpt>
      <trkpt lat="48.13176" lon="-3.29978">
        <ele>223</ele>
        <time>2024-11-20T08:30:53Z</time>
      </trkpt>
      <trkpt lat="48.13176" lon="-3.29977">
        <ele>223</ele>
        <time>2024-11-20T08:30:54Z</time>
      </trkpt>
      <trkpt lat="48.13175" lon="-3.29975">
        <ele>222.9</ele>
        <time>2024-11-20T08:30:55Z</time>
      </trkpt>
      <trkpt lat="48.13174" lon="-3.29974">
        <ele>222.9</ele>
        <time>2024-11-20T08:30:56Z</time>
      </trkpt>
      <trkpt lat="48.13172" lon="-3.29972">
        <ele>222.8</ele>
        <time>2024-11-20T08:30:57Z</time>
      </trkpt>
      <trkpt lat="48.13171" lon="-3.29971">
        <ele>222.8</ele>
        <time>2024-11-20T08:30:58Z</time>
      </trkpt>
      <trkpt lat="48.1317" lon="-3.2997">
        <ele>222.8</ele>
        <time>2024-11-20T08:30:59Z</time>
      </trkpt>
      <trkpt lat="48.1317" lon="-3.29969">
        <ele>222.8</ele>
        <time>2024-11-20T08:31:00Z</time>
      </trkpt>
      <trkpt lat="48.13169" lon="-3.29968">
        <ele>222.8</ele>
        <time>2024-11-20T08:31:01Z</time>
      </trkpt>
      <trkpt lat="48.13169" lon="-3.29967">
        <ele>222.9</ele>
        <time>2024-11-20T08:31:02Z</time>
      </trkpt>
      <trkpt lat="48.13168" lon="-3.29966">
        <ele>222.9</ele>
        <time>2024-11-20T08:31:03Z</time>
      </trkpt>
      <trkpt lat="48.13168" lon="-3.29965">
        <ele>222.9</ele>
        <time>2024-11-20T08:31:04Z</time>
      </trkpt>
      <trkpt lat="48.13167" lon="-3.29964">
        <ele>222.9</ele>
        <time>2024-11-20T08:31:05Z</time>
      </trkpt>
      <trkpt lat="48.13166" lon="-3.29963">
        <ele>223</ele>
        <time>2024-11-20T08:31:06Z</time>
      </trkpt>
      <trkpt lat="48.13165" lon="-3.29962">
        <ele>223.1</ele>
        <time>2024-11-20T08:31:07Z</time>
      </trkpt>
      <trkpt lat="48.13164" lon="-3.29961">
        <ele>223.2</ele>
        <time>2024-11-20T08:31:08Z</time>
      </trkpt>
      <trkpt lat="48.13163" lon="-3.29959">
        <ele>223.3</ele>
        <time>2024-11-20T08:31:09Z</time>
      </trkpt>
      <trkpt lat="48.13162" lon="-3.29958">
        <ele>223.4</ele>
        <time>2024-11-20T08:31:10Z</time>
      </trkpt>
      <trkpt lat="48.13161" lon="-3.29957">
        <ele>223.4</ele>
        <time>2024-11-20T08:31:11Z</time>
      </trkpt>
      <trkpt lat="48.1316" lon="-3.29956">
        <ele>223.5</ele>
        <time>2024-11-20T08:31:12Z</time>
      </trkpt>
      <trkpt lat="48.13159" lon="-3.29955">
        <ele>223.6</ele>
        <time>2024-11-20T08:31:13Z</time>
      </trkpt>
      <trkpt lat="48.13159" lon="-3.29954">
        <ele>223.6</ele>
        <time>2024-11-20T08:31:14Z</time>
      </trkpt>
      <trkpt lat="48.13158" lon="-3.29953">
        <ele>223.6</ele>
        <time>2024-11-20T08:31:15Z</time>
      </trkpt>
      <trkpt lat="48.13157" lon="-3.29952">
        <ele>223.7</ele>
        <time>2024-11-20T08:31:16Z</time>
      </trkpt>
      <trkpt lat="48.13156" lon="-3.2995">
        <ele>223.7</ele>
        <time>2024-11-20T08:31:17Z</time>
      </trkpt>
      <trkpt lat="48.13155" lon="-3.29949">
        <ele>223.8</ele>
        <time>2024-11-20T08:31:18Z</time>
      </trkpt>
      <trkpt lat="48.13154" lon="-3.29948">
        <ele>223.8</ele>
        <time>2024-11-20T08:31:19Z</time>
      </trkpt>
      <trkpt lat="48.13153" lon="-3.29947">
        <ele>223.8</ele>
        <time>2024-11-20T08:31:20Z</time>
      </trkpt>
      <trkpt lat="48.13152" lon="-3.29946">
        <ele>223.8</ele>
        <time>2024-11-20T08:31:21Z</time>
      </trkpt>
      <trkpt lat="48.13151" lon="-3.29945">
        <ele>223.8</ele>
        <time>2024-11-20T08:31:22Z</time>
      </trkpt>
      <trkpt lat="48.1315" lon="-3.29945">
        <ele>223.8</ele>
        <time>2024-11-20T08:31:23Z</time>
      </trkpt>
      <trkpt lat="48.1315" lon="-3.29944">
        <ele>223.8</ele>
        <time>2024-11-20T08:31:24Z</time>
      </trkpt>
      <trkpt lat="48.1315" lon="-3.29943">
        <ele>223.8</ele>
        <time>2024-11-20T08:31:25Z</time>
      </trkpt>
      <trkpt lat="48.13149" lon="-3.29942">
        <ele>223.8</ele>
        <time>2024-11-20T08:31:26Z</time>
      </trkpt>
      <trkpt lat="48.13148" lon="-3.29941">
        <ele>223.7</ele>
        <time>2024-11-20T08:31:27Z</time>
      </trkpt>
      <trkpt lat="48.13147" lon="-3.2994">
        <ele>223.7</ele>
        <time>2024-11-20T08:31:28Z</time>
      </trkpt>
      <trkpt lat="48.13146" lon="-3.29939">
        <ele>223.7</ele>
        <time>2024-11-20T08:31:29Z</time>
      </trkpt>
      <trkpt lat="48.13145" lon="-3.29938">
        <ele>223.7</ele>
        <time>2024-11-20T08:31:30Z</time>
      </trkpt>
      <trkpt lat="48.13144" lon="-3.29937">
        <ele>223.6</ele>
        <time>2024-11-20T08:31:31Z</time>
      </trkpt>
      <trkpt lat="48.13143" lon="-3.29936">
        <ele>223.6</ele>
        <time>2024-11-20T08:31:32Z</time>
      </trkpt>
      <trkpt lat="48.13142" lon="-3.29935">
        <ele>223.6</ele>
        <time>2024-11-20T08:31:33Z</time>
      </trkpt>
      <trkpt lat="48.13141" lon="-3.29934">
        <ele>223.6</ele>
        <time>2024-11-20T08:31:34Z</time>
      </trkpt>
      <trkpt lat="48.1314" lon="-3.29933">
        <ele>223.5</ele>
        <time>2024-11-20T08:31:35Z</time>
      </trkpt>
      <trkpt lat="48.13139" lon="-3.29932">
        <ele>223.5</ele>
        <time>2024-11-20T08:31:36Z</time>
      </trkpt>
      <trkpt lat="48.13138" lon="-3.29931">
        <ele>223.5</ele>
        <time>2024-11-20T08:31:37Z</time>
      </trkpt>
      <trkpt lat="48.13138" lon="-3.2993">
        <ele>223.5</ele>
        <time>2024-11-20T08:31:38Z</time>
      </trkpt>
      <trkpt lat="48.13137" lon="-3.29929">
        <ele>223.5</ele>
        <time>2024-11-20T08:31:39Z</time>
      </trkpt>
      <trkpt lat="48.13136" lon="-3.29928">
        <ele>223.4</ele>
        <time>2024-11-20T08:31:40Z</time>
      </trkpt>
      <trkpt lat="48.13135" lon="-3.29927">
        <ele>223.4</ele>
        <time>2024-11-20T08:31:41Z</time>
      </trkpt>
      <trkpt lat="48.13134" lon="-3.29926">
        <ele>223.4</ele>
        <time>2024-11-20T08:31:42Z</time>
      </trkpt>
      <trkpt lat="48.13133" lon="-3.29925">
        <ele>223.3</ele>
        <time>2024-11-20T08:31:43Z</time>
      </trkpt>
      <trkpt lat="48.13132" lon="-3.29924">
        <ele>223.3</ele>
        <time>2024-11-20T08:31:44Z</time>
      </trkpt>
      <trkpt lat="48.13131" lon="-3.29924">
        <ele>223.3</ele>
        <time>2024-11-20T08:31:45Z</time>
      </trkpt>
      <trkpt lat="48.1313" lon="-3.29923">
        <ele>223.2</ele>
        <time>2024-11-20T08:31:46Z</time>
      </trkpt>
      <trkpt lat="48.13129" lon="-3.29922">
        <ele>223.2</ele>
        <time>2024-11-20T08:31:47Z</time>
      </trkpt>
      <trkpt lat="48.13129" lon="-3.29921">
        <ele>223.2</ele>
        <time>2024-11-20T08:31:48Z</time>
      </trkpt>
      <trkpt lat="48.13128" lon="-3.2992">
        <ele>223.1</ele>
        <time>2024-11-20T08:31:49Z</time>
      </trkpt>
      <trkpt lat="48.13127" lon="-3.29919">
        <ele>223.1</ele>
        <time>2024-11-20T08:31:50Z</time>
      </trkpt>
      <trkpt lat="48.13126" lon="-3.29918">
        <ele>223</ele>
        <time>2024-11-20T08:31:51Z</time>
      </trkpt>
      <trkpt lat="48.13125" lon="-3.29918">
        <ele>223</ele>
        <time>2024-11-20T08:31:52Z</time>
      </trkpt>
      <trkpt lat="48.13124" lon="-3.29918">
        <ele>222.9</ele>
        <time>2024-11-20T08:31:53Z</time>
      </trkpt>
      <trkpt lat="48.13123" lon="-3.29917">
        <ele>222.9</ele>
        <time>2024-11-20T08:31:54Z</time>
      </trkpt>
      <trkpt lat="48.13122" lon="-3.29916">
        <ele>222.8</ele>
        <time>2024-11-20T08:31:55Z</time>
      </trkpt>
      <trkpt lat="48.13121" lon="-3.29915">
        <ele>222.8</ele>
        <time>2024-11-20T08:31:56Z</time>
      </trkpt>
      <trkpt lat="48.1312" lon="-3.29915">
        <ele>222.8</ele>
        <time>2024-11-20T08:31:57Z</time>
      </trkpt>
      <trkpt lat="48.13119" lon="-3.29914">
        <ele>222.7</ele>
        <time>2024-11-20T08:31:58Z</time>
      </trkpt>
      <trkpt lat="48.13117" lon="-3.29913">
        <ele>222.7</ele>
        <time>2024-11-20T08:31:59Z</time>
      </trkpt>
      <trkpt lat="48.13116" lon="-3.29912">
        <ele>222.7</ele>
        <time>2024-11-20T08:32:00Z</time>
      </trkpt>
      <trkpt lat="48.13115" lon="-3.29911">
        <ele>222.6</ele>
        <time>2024-11-20T08:32:01Z</time>
      </trkpt>
      <trkpt lat="48.13114" lon="-3.29911">
        <ele>222.6</ele>
        <time>2024-11-20T08:32:02Z</time>
      </trkpt>
      <trkpt lat="48.13113" lon="-3.29911">
        <ele>222.6</ele>
        <time>2024-11-20T08:32:03Z</time>
      </trkpt>
      <trkpt lat="48.13112" lon="-3.2991">
        <ele>222.5</ele>
        <time>2024-11-20T08:32:04Z</time>
      </trkpt>
      <trkpt lat="48.13111" lon="-3.2991">
        <ele>222.4</ele>
        <time>2024-11-20T08:32:05Z</time>
      </trkpt>
      <trkpt lat="48.1311" lon="-3.2991">
        <ele>222.4</ele>
        <time>2024-11-20T08:32:06Z</time>
      </trkpt>
      <trkpt lat="48.13109" lon="-3.2991">
        <ele>222.3</ele>
        <time>2024-11-20T08:32:07Z</time>
      </trkpt>
      <trkpt lat="48.13108" lon="-3.2991">
        <ele>222.3</ele>
        <time>2024-11-20T08:32:08Z</time>
      </trkpt>
      <trkpt lat="48.13107" lon="-3.2991">
        <ele>222.3</ele>
        <time>2024-11-20T08:32:09Z</time>
      </trkpt>
      <trkpt lat="48.13106" lon="-3.29909">
        <ele>222.3</ele>
        <time>2024-11-20T08:32:10Z</time>
      </trkpt>
      <trkpt lat="48.13104" lon="-3.29909">
        <ele>222.3</ele>
        <time>2024-11-20T08:32:11Z</time>
      </trkpt>
      <trkpt lat="48.13104" lon="-3.29908">
        <ele>222.3</ele>
        <time>2024-11-20T08:32:12Z</time>
      </trkpt>
      <trkpt lat="48.13103" lon="-3.29908">
        <ele>222.3</ele>
        <time>2024-11-20T08:32:13Z</time>
      </trkpt>
      <trkpt lat="48.13102" lon="-3.29907">
        <ele>222.3</ele>
        <time>2024-11-20T08:32:14Z</time>
      </trkpt>
      <trkpt lat="48.13101" lon="-3.29907">
        <ele>222.2</ele>
        <time>2024-11-20T08:32:15Z</time>
      </trkpt>
      <trkpt lat="48.131" lon="-3.29906">
        <ele>222.2</ele>
        <time>2024-11-20T08:32:16Z</time>
      </trkpt>
      <trkpt lat="48.13099" lon="-3.29906">
        <ele>222.2</ele>
        <time>2024-11-20T08:32:17Z</time>
      </trkpt>
      <trkpt lat="48.13098" lon="-3.29905">
        <ele>222.1</ele>
        <time>2024-11-20T08:32:18Z</time>
      </trkpt>
      <trkpt lat="48.13097" lon="-3.29905">
        <ele>222.1</ele>
        <time>2024-11-20T08:32:19Z</time>
      </trkpt>
      <trkpt lat="48.13096" lon="-3.29905">
        <ele>222.1</ele>
        <time>2024-11-20T08:32:20Z</time>
      </trkpt>
      <trkpt lat="48.13095" lon="-3.29904">
        <ele>222.1</ele>
        <time>2024-11-20T08:32:21Z</time>
      </trkpt>
      <trkpt lat="48.13095" lon="-3.29904">
        <ele>222.1</ele>
        <time>2024-11-20T08:32:22Z</time>
      </trkpt>
      <trkpt lat="48.13094" lon="-3.29903">
        <ele>222</ele>
        <time>2024-11-20T08:32:23Z</time>
      </trkpt>
      <trkpt lat="48.13093" lon="-3.29903">
        <ele>222</ele>
        <time>2024-11-20T08:32:24Z</time>
      </trkpt>
      <trkpt lat="48.13092" lon="-3.29902">
        <ele>222</ele>
        <time>2024-11-20T08:32:25Z</time>
      </trkpt>
      <trkpt lat="48.1309" lon="-3.29902">
        <ele>221.9</ele>
        <time>2024-11-20T08:32:26Z</time>
      </trkpt>
      <trkpt lat="48.13089" lon="-3.29901">
        <ele>221.9</ele>
        <time>2024-11-20T08:32:27Z</time>
      </trkpt>
      <trkpt lat="48.13088" lon="-3.29901">
        <ele>221.8</ele>
        <time>2024-11-20T08:32:28Z</time>
      </trkpt>
      <trkpt lat="48.13086" lon="-3.299">
        <ele>221.8</ele>
        <time>2024-11-20T08:32:29Z</time>
      </trkpt>
      <trkpt lat="48.13085" lon="-3.299">
        <ele>221.7</ele>
        <time>2024-11-20T08:32:30Z</time>
      </trkpt>
      <trkpt lat="48.13084" lon="-3.29899">
        <ele>221.7</ele>
        <time>2024-11-20T08:32:31Z</time>
      </trkpt>
      <trkpt lat="48.13082" lon="-3.29899">
        <ele>221.6</ele>
        <time>2024-11-20T08:32:32Z</time>
      </trkpt>
      <trkpt lat="48.13081" lon="-3.29899">
        <ele>221.6</ele>
        <time>2024-11-20T08:32:33Z</time>
      </trkpt>
      <trkpt lat="48.1308" lon="-3.29899">
        <ele>221.5</ele>
        <time>2024-11-20T08:32:34Z</time>
      </trkpt>
      <trkpt lat="48.13079" lon="-3.29899">
        <ele>221.5</ele>
        <time>2024-11-20T08:32:35Z</time>
      </trkpt>
      <trkpt lat="48.13077" lon="-3.29899">
        <ele>221.4</ele>
        <time>2024-11-20T08:32:36Z</time>
      </trkpt>
      <trkpt lat="48.13076" lon="-3.29898">
        <ele>221.4</ele>
        <time>2024-11-20T08:32:37Z</time>
      </trkpt>
      <trkpt lat="48.13075" lon="-3.29898">
        <ele>221.4</ele>
        <time>2024-11-20T08:32:38Z</time>
      </trkpt>
      <trkpt lat="48.13073" lon="-3.29897">
        <ele>221.3</ele>
        <time>2024-11-20T08:32:39Z</time>
      </trkpt>
      <trkpt lat="48.13072" lon="-3.29896">
        <ele>221.3</ele>
        <time>2024-11-20T08:32:40Z</time>
      </trkpt>
      <trkpt lat="48.13071" lon="-3.29896">
        <ele>221.3</ele>
        <time>2024-11-20T08:32:41Z</time>
      </trkpt>
      <trkpt lat="48.13069" lon="-3.29895">
        <ele>221.3</ele>
        <time>2024-11-20T08:32:42Z</time>
      </trkpt>
      <trkpt lat="48.13068" lon="-3.29895">
        <ele>221.2</ele>
        <time>2024-11-20T08:32:43Z</time>
      </trkpt>
      <trkpt lat="48.13067" lon="-3.29894">
        <ele>221.2</ele>
        <time>2024-11-20T08:32:44Z</time>
      </trkpt>
      <trkpt lat="48.13066" lon="-3.29893">
        <ele>221.2</ele>
        <time>2024-11-20T08:32:45Z</time>
      </trkpt>
      <trkpt lat="48.13064" lon="-3.29893">
        <ele>221.2</ele>
        <time>2024-11-20T08:32:46Z</time>
      </trkpt>
      <trkpt lat="48.13063" lon="-3.29893">
        <ele>221.1</ele>
        <time>2024-11-20T08:32:47Z</time>
      </trkpt>
      <trkpt lat="48.13062" lon="-3.29893">
        <ele>221.1</ele>
        <time>2024-11-20T08:32:48Z</time>
      </trkpt>
      <trkpt lat="48.1306" lon="-3.29893">
        <ele>221</ele>
        <time>2024-11-20T08:32:49Z</time>
      </trkpt>
      <trkpt lat="48.13059" lon="-3.29893">
        <ele>221</ele>
        <time>2024-11-20T08:32:50Z</time>
      </trkpt>
      <trkpt lat="48.13058" lon="-3.29892">
        <ele>221</ele>
        <time>2024-11-20T08:32:51Z</time>
      </trkpt>
      <trkpt lat="48.13057" lon="-3.29892">
        <ele>220.9</ele>
        <time>2024-11-20T08:32:52Z</time>
      </trkpt>
      <trkpt lat="48.13056" lon="-3.29891">
        <ele>220.9</ele>
        <time>2024-11-20T08:32:53Z</time>
      </trkpt>
      <trkpt lat="48.13054" lon="-3.2989">
        <ele>221</ele>
        <time>2024-11-20T08:32:55Z</time>
      </trkpt>
      <trkpt lat="48.13053" lon="-3.2989">
        <ele>221</ele>
        <time>2024-11-20T08:32:56Z</time>
      </trkpt>
      <trkpt lat="48.13052" lon="-3.29889">
        <ele>221</ele>
        <time>2024-11-20T08:32:57Z</time>
      </trkpt>
      <trkpt lat="48.13051" lon="-3.29889">
        <ele>221</ele>
        <time>2024-11-20T08:32:58Z</time>
      </trkpt>
      <trkpt lat="48.1305" lon="-3.29889">
        <ele>221</ele>
        <time>2024-11-20T08:32:59Z</time>
      </trkpt>
      <trkpt lat="48.13049" lon="-3.29888">
        <ele>221</ele>
        <time>2024-11-20T08:33:00Z</time>
      </trkpt>
      <trkpt lat="48.13048" lon="-3.29888">
        <ele>220.9</ele>
        <time>2024-11-20T08:33:01Z</time>
      </trkpt>
      <trkpt lat="48.13047" lon="-3.29887">
        <ele>220.9</ele>
        <time>2024-11-20T08:33:02Z</time>
      </trkpt>
      <trkpt lat="48.13045" lon="-3.29887">
        <ele>220.9</ele>
        <time>2024-11-20T08:33:03Z</time>
      </trkpt>
      <trkpt lat="48.13044" lon="-3.29886">
        <ele>220.9</ele>
        <time>2024-11-20T08:33:04Z</time>
      </trkpt>
      <trkpt lat="48.13043" lon="-3.29885">
        <ele>220.9</ele>
        <time>2024-11-20T08:33:05Z</time>
      </trkpt>
      <trkpt lat="48.13042" lon="-3.29884">
        <ele>220.8</ele>
        <time>2024-11-20T08:33:06Z</time>
      </trkpt>
      <trkpt lat="48.13041" lon="-3.29884">
        <ele>220.8</ele>
        <time>2024-11-20T08:33:07Z</time>
      </trkpt>
      <trkpt lat="48.1304" lon="-3.29883">
        <ele>220.8</ele>
        <time>2024-11-20T08:33:08Z</time>
      </trkpt>
      <trkpt lat="48.13039" lon="-3.29883">
        <ele>220.8</ele>
        <time>2024-11-20T08:33:09Z</time>
      </trkpt>
      <trkpt lat="48.13038" lon="-3.29882">
        <ele>220.8</ele>
        <time>2024-11-20T08:33:10Z</time>
      </trkpt>
      <trkpt lat="48.13037" lon="-3.29882">
        <ele>220.7</ele>
        <time>2024-11-20T08:33:11Z</time>
      </trkpt>
      <trkpt lat="48.13036" lon="-3.29881">
        <ele>220.7</ele>
        <time>2024-11-20T08:33:12Z</time>
      </trkpt>
      <trkpt lat="48.13035" lon="-3.2988">
        <ele>220.7</ele>
        <time>2024-11-20T08:33:13Z</time>
      </trkpt>
      <trkpt lat="48.13034" lon="-3.29879">
        <ele>220.7</ele>
        <time>2024-11-20T08:33:14Z</time>
      </trkpt>
      <trkpt lat="48.13033" lon="-3.29879">
        <ele>220.6</ele>
        <time>2024-11-20T08:33:15Z</time>
      </trkpt>
      <trkpt lat="48.13033" lon="-3.29879">
        <ele>220.6</ele>
        <time>2024-11-20T08:33:16Z</time>
      </trkpt>
      <trkpt lat="48.13032" lon="-3.29878">
        <ele>220.6</ele>
        <time>2024-11-20T08:33:17Z</time>
      </trkpt>
      <trkpt lat="48.13031" lon="-3.29877">
        <ele>220.6</ele>
        <time>2024-11-20T08:33:18Z</time>
      </trkpt>
      <trkpt lat="48.1303" lon="-3.29877">
        <ele>220.6</ele>
        <time>2024-11-20T08:33:19Z</time>
      </trkpt>
      <trkpt lat="48.13029" lon="-3.29876">
        <ele>220.5</ele>
        <time>2024-11-20T08:33:20Z</time>
      </trkpt>
      <trkpt lat="48.13027" lon="-3.29874">
        <ele>220.5</ele>
        <time>2024-11-20T08:33:21Z</time>
      </trkpt>
      <trkpt lat="48.13026" lon="-3.29873">
        <ele>220.5</ele>
        <time>2024-11-20T08:33:22Z</time>
      </trkpt>
      <trkpt lat="48.13025" lon="-3.29872">
        <ele>220.5</ele>
        <time>2024-11-20T08:33:23Z</time>
      </trkpt>
      <trkpt lat="48.13024" lon="-3.29872">
        <ele>220.5</ele>
        <time>2024-11-20T08:33:24Z</time>
      </trkpt>
      <trkpt lat="48.13022" lon="-3.29872">
        <ele>220.5</ele>
        <time>2024-11-20T08:33:25Z</time>
      </trkpt>
      <trkpt lat="48.1302" lon="-3.29872">
        <ele>220.5</ele>
        <time>2024-11-20T08:33:26Z</time>
      </trkpt>
      <trkpt lat="48.13019" lon="-3.29871">
        <ele>220.6</ele>
        <time>2024-11-20T08:33:27Z</time>
      </trkpt>
      <trkpt lat="48.13017" lon="-3.2987">
        <ele>220.6</ele>
        <time>2024-11-20T08:33:28Z</time>
      </trkpt>
      <trkpt lat="48.13016" lon="-3.2987">
        <ele>220.6</ele>
        <time>2024-11-20T08:33:29Z</time>
      </trkpt>
      <trkpt lat="48.13014" lon="-3.29869">
        <ele>220.6</ele>
        <time>2024-11-20T08:33:30Z</time>
      </trkpt>
      <trkpt lat="48.13013" lon="-3.29868">
        <ele>220.6</ele>
        <time>2024-11-20T08:33:31Z</time>
      </trkpt>
      <trkpt lat="48.13012" lon="-3.29867">
        <ele>220.7</ele>
        <time>2024-11-20T08:33:32Z</time>
      </trkpt>
      <trkpt lat="48.13011" lon="-3.29866">
        <ele>220.7</ele>
        <time>2024-11-20T08:33:33Z</time>
      </trkpt>
      <trkpt lat="48.1301" lon="-3.29866">
        <ele>220.7</ele>
        <time>2024-11-20T08:33:34Z</time>
      </trkpt>
      <trkpt lat="48.1301" lon="-3.29866">
        <ele>220.7</ele>
        <time>2024-11-20T08:33:35Z</time>
      </trkpt>
      <trkpt lat="48.13009" lon="-3.29866">
        <ele>220.7</ele>
        <time>2024-11-20T08:33:36Z</time>
      </trkpt>
      <trkpt lat="48.13009" lon="-3.29866">
        <ele>220.8</ele>
        <time>2024-11-20T08:33:37Z</time>
      </trkpt>
      <trkpt lat="48.13008" lon="-3.29867">
        <ele>220.8</ele>
        <time>2024-11-20T08:33:38Z</time>
      </trkpt>
      <trkpt lat="48.13008" lon="-3.29867">
        <ele>220.8</ele>
        <time>2024-11-20T08:33:39Z</time>
      </trkpt>
      <trkpt lat="48.13008" lon="-3.29867">
        <ele>220.8</ele>
        <time>2024-11-20T08:33:40Z</time>
      </trkpt>
      <trkpt lat="48.13007" lon="-3.29866">
        <ele>220.8</ele>
        <time>2024-11-20T08:33:41Z</time>
      </trkpt>
      <trkpt lat="48.13007" lon="-3.29865">
        <ele>220.8</ele>
        <time>2024-11-20T08:33:42Z</time>
      </trkpt>
      <trkpt lat="48.13006" lon="-3.29865">
        <ele>220.8</ele>
        <time>2024-11-20T08:33:43Z</time>
      </trkpt>
      <trkpt lat="48.13005" lon="-3.29865">
        <ele>220.8</ele>
        <time>2024-11-20T08:33:44Z</time>
      </trkpt>
      <trkpt lat="48.13004" lon="-3.29865">
        <ele>220.9</ele>
        <time>2024-11-20T08:33:45Z</time>
      </trkpt>
      <trkpt lat="48.13003" lon="-3.29865">
        <ele>220.9</ele>
        <time>2024-11-20T08:33:46Z</time>
      </trkpt>
      <trkpt lat="48.13002" lon="-3.29865">
        <ele>220.9</ele>
        <time>2024-11-20T08:33:47Z</time>
      </trkpt>
      <trkpt lat="48.13001" lon="-3.29865">
        <ele>221</ele>
        <time>2024-11-20T08:33:48Z</time>
      </trkpt>
      <trkpt lat="48.12999" lon="-3.29866">
        <ele>221</ele>
        <time>2024-11-20T08:33:49Z</time>
      </trkpt>
      <trkpt lat="48.12998" lon="-3.29866">
        <ele>221.1</ele>
        <time>2024-11-20T08:33:50Z</time>
      </trkpt>
      <trkpt lat="48.12997" lon="-3.29866">
        <ele>221.1</ele>
        <time>2024-11-20T08:33:51Z</time>
      </trkpt>
      <trkpt lat="48.12997" lon="-3.29866">
        <ele>221.1</ele>
        <time>2024-11-20T08:33:52Z</time>
      </trkpt>
      <trkpt lat="48.12996" lon="-3.29866">
        <ele>221.1</ele>
        <time>2024-11-20T08:33:53Z</time>
      </trkpt>
      <trkpt lat="48.12994" lon="-3.29867">
        <ele>221.2</ele>
        <time>2024-11-20T08:33:54Z</time>
      </trkpt>
      <trkpt lat="48.12993" lon="-3.29868">
        <ele>221.2</ele>
        <time>2024-11-20T08:33:55Z</time>
      </trkpt>
      <trkpt lat="48.12991" lon="-3.29868">
        <ele>221.2</ele>
        <time>2024-11-20T08:33:56Z</time>
      </trkpt>
      <trkpt lat="48.1299" lon="-3.29868">
        <ele>221.3</ele>
        <time>2024-11-20T08:33:57Z</time>
      </trkpt>
      <trkpt lat="48.12989" lon="-3.29869">
        <ele>221.3</ele>
        <time>2024-11-20T08:33:58Z</time>
      </trkpt>
      <trkpt lat="48.12988" lon="-3.29869">
        <ele>221.3</ele>
        <time>2024-11-20T08:33:59Z</time>
      </trkpt>
      <trkpt lat="48.12987" lon="-3.2987">
        <ele>221.3</ele>
        <time>2024-11-20T08:34:00Z</time>
      </trkpt>
      <trkpt lat="48.12986" lon="-3.2987">
        <ele>221.3</ele>
        <time>2024-11-20T08:34:01Z</time>
      </trkpt>
      <trkpt lat="48.12985" lon="-3.29871">
        <ele>221.4</ele>
        <time>2024-11-20T08:34:02Z</time>
      </trkpt>
      <trkpt lat="48.12984" lon="-3.29871">
        <ele>221.4</ele>
        <time>2024-11-20T08:34:03Z</time>
      </trkpt>
      <trkpt lat="48.12982" lon="-3.29872">
        <ele>221.4</ele>
        <time>2024-11-20T08:34:04Z</time>
      </trkpt>
      <trkpt lat="48.12981" lon="-3.29872">
        <ele>221.4</ele>
        <time>2024-11-20T08:34:05Z</time>
      </trkpt>
      <trkpt lat="48.1298" lon="-3.29873">
        <ele>221.4</ele>
        <time>2024-11-20T08:34:06Z</time>
      </trkpt>
      <trkpt lat="48.12978" lon="-3.29874">
        <ele>221.4</ele>
        <time>2024-11-20T08:34:07Z</time>
      </trkpt>
      <trkpt lat="48.12977" lon="-3.29875">
        <ele>221.4</ele>
        <time>2024-11-20T08:34:08Z</time>
      </trkpt>
      <trkpt lat="48.12976" lon="-3.29876">
        <ele>221.4</ele>
        <time>2024-11-20T08:34:09Z</time>
      </trkpt>
      <trkpt lat="48.12975" lon="-3.29877">
        <ele>221.4</ele>
        <time>2024-11-20T08:34:10Z</time>
      </trkpt>
      <trkpt lat="48.12974" lon="-3.29878">
        <ele>221.4</ele>
        <time>2024-11-20T08:34:11Z</time>
      </trkpt>
      <trkpt lat="48.12972" lon="-3.29879">
        <ele>221.3</ele>
        <time>2024-11-20T08:34:12Z</time>
      </trkpt>
      <trkpt lat="48.12971" lon="-3.2988">
        <ele>221.3</ele>
        <time>2024-11-20T08:34:13Z</time>
      </trkpt>
      <trkpt lat="48.12969" lon="-3.29881">
        <ele>221.2</ele>
        <time>2024-11-20T08:34:14Z</time>
      </trkpt>
      <trkpt lat="48.12968" lon="-3.29881">
        <ele>221.1</ele>
        <time>2024-11-20T08:34:15Z</time>
      </trkpt>
      <trkpt lat="48.12966" lon="-3.29882">
        <ele>221</ele>
        <time>2024-11-20T08:34:16Z</time>
      </trkpt>
      <trkpt lat="48.12965" lon="-3.29883">
        <ele>221</ele>
        <time>2024-11-20T08:34:17Z</time>
      </trkpt>
      <trkpt lat="48.12964" lon="-3.29883">
        <ele>220.9</ele>
        <time>2024-11-20T08:34:18Z</time>
      </trkpt>
      <trkpt lat="48.12963" lon="-3.29884">
        <ele>220.8</ele>
        <time>2024-11-20T08:34:19Z</time>
      </trkpt>
      <trkpt lat="48.12962" lon="-3.29885">
        <ele>220.8</ele>
        <time>2024-11-20T08:34:20Z</time>
      </trkpt>
      <trkpt lat="48.1296" lon="-3.29885">
        <ele>220.7</ele>
        <time>2024-11-20T08:34:21Z</time>
      </trkpt>
      <trkpt lat="48.12959" lon="-3.29885">
        <ele>220.7</ele>
        <time>2024-11-20T08:34:22Z</time>
      </trkpt>
      <trkpt lat="48.12958" lon="-3.29885">
        <ele>220.6</ele>
        <time>2024-11-20T08:34:23Z</time>
      </trkpt>
      <trkpt lat="48.12957" lon="-3.29886">
        <ele>220.6</ele>
        <time>2024-11-20T08:34:24Z</time>
      </trkpt>
      <trkpt lat="48.12956" lon="-3.29886">
        <ele>220.5</ele>
        <time>2024-11-20T08:34:25Z</time>
      </trkpt>
      <trkpt lat="48.12955" lon="-3.29886">
        <ele>220.5</ele>
        <time>2024-11-20T08:34:26Z</time>
      </trkpt>
      <trkpt lat="48.12954" lon="-3.29886">
        <ele>220.4</ele>
        <time>2024-11-20T08:34:27Z</time>
      </trkpt>
      <trkpt lat="48.12952" lon="-3.29887">
        <ele>220.4</ele>
        <time>2024-11-20T08:34:28Z</time>
      </trkpt>
      <trkpt lat="48.12951" lon="-3.29887">
        <ele>220.3</ele>
        <time>2024-11-20T08:34:29Z</time>
      </trkpt>
      <trkpt lat="48.1295" lon="-3.29887">
        <ele>220.3</ele>
        <time>2024-11-20T08:34:30Z</time>
      </trkpt>
      <trkpt lat="48.12949" lon="-3.29887">
        <ele>220.2</ele>
        <time>2024-11-20T08:34:31Z</time>
      </trkpt>
      <trkpt lat="48.12948" lon="-3.29887">
        <ele>220.2</ele>
        <time>2024-11-20T08:34:32Z</time>
      </trkpt>
      <trkpt lat="48.12948" lon="-3.29887">
        <ele>220.2</ele>
        <time>2024-11-20T08:34:33Z</time>
      </trkpt>
      <trkpt lat="48.12947" lon="-3.29887">
        <ele>220.2</ele>
        <time>2024-11-20T08:34:34Z</time>
      </trkpt>
      <trkpt lat="48.12946" lon="-3.29887">
        <ele>220.1</ele>
        <time>2024-11-20T08:34:35Z</time>
      </trkpt>
      <trkpt lat="48.12945" lon="-3.29887">
        <ele>220.1</ele>
        <time>2024-11-20T08:34:36Z</time>
      </trkpt>
      <trkpt lat="48.12944" lon="-3.29887">
        <ele>220</ele>
        <time>2024-11-20T08:34:37Z</time>
      </trkpt>
      <trkpt lat="48.12943" lon="-3.29887">
        <ele>219.8</ele>
        <time>2024-11-20T08:34:38Z</time>
      </trkpt>
      <trkpt lat="48.12942" lon="-3.29886">
        <ele>219.7</ele>
        <time>2024-11-20T08:34:39Z</time>
      </trkpt>
      <trkpt lat="48.12941" lon="-3.29887">
        <ele>219.5</ele>
        <time>2024-11-20T08:34:40Z</time>
      </trkpt>
      <trkpt lat="48.12939" lon="-3.29887">
        <ele>219.4</ele>
        <time>2024-11-20T08:34:41Z</time>
      </trkpt>
      <trkpt lat="48.12938" lon="-3.29887">
        <ele>219.2</ele>
        <time>2024-11-20T08:34:42Z</time>
      </trkpt>
      <trkpt lat="48.12937" lon="-3.29886">
        <ele>219</ele>
        <time>2024-11-20T08:34:43Z</time>
      </trkpt>
      <trkpt lat="48.12936" lon="-3.29886">
        <ele>218.9</ele>
        <time>2024-11-20T08:34:44Z</time>
      </trkpt>
      <trkpt lat="48.12935" lon="-3.29886">
        <ele>218.8</ele>
        <time>2024-11-20T08:34:45Z</time>
      </trkpt>
      <trkpt lat="48.12935" lon="-3.29886">
        <ele>218.7</ele>
        <time>2024-11-20T08:34:46Z</time>
      </trkpt>
      <trkpt lat="48.12934" lon="-3.29886">
        <ele>218.6</ele>
        <time>2024-11-20T08:34:47Z</time>
      </trkpt>
      <trkpt lat="48.12933" lon="-3.29885">
        <ele>218.5</ele>
        <time>2024-11-20T08:34:48Z</time>
      </trkpt>
      <trkpt lat="48.12932" lon="-3.29885">
        <ele>218.3</ele>
        <time>2024-11-20T08:34:49Z</time>
      </trkpt>
      <trkpt lat="48.1293" lon="-3.29885">
        <ele>218.1</ele>
        <time>2024-11-20T08:34:50Z</time>
      </trkpt>
      <trkpt lat="48.12929" lon="-3.29884">
        <ele>217.9</ele>
        <time>2024-11-20T08:34:51Z</time>
      </trkpt>
      <trkpt lat="48.12927" lon="-3.29884">
        <ele>217.7</ele>
        <time>2024-11-20T08:34:52Z</time>
      </trkpt>
      <trkpt lat="48.12926" lon="-3.29883">
        <ele>217.5</ele>
        <time>2024-11-20T08:34:53Z</time>
      </trkpt>
      <trkpt lat="48.12925" lon="-3.29883">
        <ele>217.3</ele>
        <time>2024-11-20T08:34:54Z</time>
      </trkpt>
      <trkpt lat="48.12924" lon="-3.29883">
        <ele>217.2</ele>
        <time>2024-11-20T08:34:55Z</time>
      </trkpt>
      <trkpt lat="48.12922" lon="-3.29883">
        <ele>217.1</ele>
        <time>2024-11-20T08:34:56Z</time>
      </trkpt>
      <trkpt lat="48.12921" lon="-3.29883">
        <ele>216.9</ele>
        <time>2024-11-20T08:34:57Z</time>
      </trkpt>
      <trkpt lat="48.1292" lon="-3.29883">
        <ele>216.7</ele>
        <time>2024-11-20T08:34:58Z</time>
      </trkpt>
      <trkpt lat="48.12919" lon="-3.29883">
        <ele>216.5</ele>
        <time>2024-11-20T08:34:59Z</time>
      </trkpt>
      <trkpt lat="48.12917" lon="-3.29884">
        <ele>216.3</ele>
        <time>2024-11-20T08:35:00Z</time>
      </trkpt>
      <trkpt lat="48.12916" lon="-3.29884">
        <ele>216.1</ele>
        <time>2024-11-20T08:35:01Z</time>
      </trkpt>
      <trkpt lat="48.12915" lon="-3.29885">
        <ele>215.8</ele>
        <time>2024-11-20T08:35:02Z</time>
      </trkpt>
      <trkpt lat="48.12913" lon="-3.29885">
        <ele>215.6</ele>
        <time>2024-11-20T08:35:03Z</time>
      </trkpt>
      <trkpt lat="48.12912" lon="-3.29885">
        <ele>215.4</ele>
        <time>2024-11-20T08:35:04Z</time>
      </trkpt>
      <trkpt lat="48.1291" lon="-3.29885">
        <ele>215.2</ele>
        <time>2024-11-20T08:35:05Z</time>
      </trkpt>
      <trkpt lat="48.12909" lon="-3.29886">
        <ele>215</ele>
        <time>2024-11-20T08:35:06Z</time>
      </trkpt>
      <trkpt lat="48.12908" lon="-3.29886">
        <ele>214.8</ele>
        <time>2024-11-20T08:35:07Z</time>
      </trkpt>
      <trkpt lat="48.12906" lon="-3.29887">
        <ele>214.6</ele>
        <time>2024-11-20T08:35:08Z</time>
      </trkpt>
      <trkpt lat="48.12905" lon="-3.29888">
        <ele>214.4</ele>
        <time>2024-11-20T08:35:09Z</time>
      </trkpt>
      <trkpt lat="48.12904" lon="-3.29888">
        <ele>214.2</ele>
        <time>2024-11-20T08:35:10Z</time>
      </trkpt>
      <trkpt lat="48.12903" lon="-3.29889">
        <ele>214</ele>
        <time>2024-11-20T08:35:11Z</time>
      </trkpt>
      <trkpt lat="48.12902" lon="-3.2989">
        <ele>213.8</ele>
        <time>2024-11-20T08:35:12Z</time>
      </trkpt>
      <trkpt lat="48.12901" lon="-3.29892">
        <ele>213.7</ele>
        <time>2024-11-20T08:35:13Z</time>
      </trkpt>
      <trkpt lat="48.12899" lon="-3.29893">
        <ele>213.4</ele>
        <time>2024-11-20T08:35:14Z</time>
      </trkpt>
      <trkpt lat="48.12898" lon="-3.29893">
        <ele>213.2</ele>
        <time>2024-11-20T08:35:15Z</time>
      </trkpt>
      <trkpt lat="48.12897" lon="-3.29894">
        <ele>213.1</ele>
        <time>2024-11-20T08:35:16Z</time>
      </trkpt>
      <trkpt lat="48.12896" lon="-3.29894">
        <ele>213</ele>
        <time>2024-11-20T08:35:17Z</time>
      </trkpt>
      <trkpt lat="48.12895" lon="-3.29895">
        <ele>212.9</ele>
        <time>2024-11-20T08:35:18Z</time>
      </trkpt>
      <trkpt lat="48.12894" lon="-3.29895">
        <ele>212.7</ele>
        <time>2024-11-20T08:35:19Z</time>
      </trkpt>
      <trkpt lat="48.12892" lon="-3.29896">
        <ele>212.4</ele>
        <time>2024-11-20T08:35:20Z</time>
      </trkpt>
      <trkpt lat="48.1289" lon="-3.29897">
        <ele>212.2</ele>
        <time>2024-11-20T08:35:21Z</time>
      </trkpt>
      <trkpt lat="48.12889" lon="-3.29897">
        <ele>212</ele>
        <time>2024-11-20T08:35:22Z</time>
      </trkpt>
      <trkpt lat="48.12888" lon="-3.29898">
        <ele>211.9</ele>
        <time>2024-11-20T08:35:23Z</time>
      </trkpt>
      <trkpt lat="48.12887" lon="-3.29898">
        <ele>211.8</ele>
        <time>2024-11-20T08:35:24Z</time>
      </trkpt>
      <trkpt lat="48.12886" lon="-3.29898">
        <ele>211.6</ele>
        <time>2024-11-20T08:35:25Z</time>
      </trkpt>
      <trkpt lat="48.12885" lon="-3.29897">
        <ele>211.5</ele>
        <time>2024-11-20T08:35:26Z</time>
      </trkpt>
      <trkpt lat="48.12883" lon="-3.29897">
        <ele>211.3</ele>
        <time>2024-11-20T08:35:27Z</time>
      </trkpt>
      <trkpt lat="48.12882" lon="-3.29898">
        <ele>211.2</ele>
        <time>2024-11-20T08:35:28Z</time>
      </trkpt>
      <trkpt lat="48.12881" lon="-3.29899">
        <ele>211.1</ele>
        <time>2024-11-20T08:35:29Z</time>
      </trkpt>
      <trkpt lat="48.1288" lon="-3.29899">
        <ele>211</ele>
        <time>2024-11-20T08:35:30Z</time>
      </trkpt>
      <trkpt lat="48.1288" lon="-3.299">
        <ele>210.9</ele>
        <time>2024-11-20T08:35:31Z</time>
      </trkpt>
      <trkpt lat="48.1288" lon="-3.299">
        <ele>210.9</ele>
        <time>2024-11-20T08:35:32Z</time>
      </trkpt>
      <trkpt lat="48.12879" lon="-3.299">
        <ele>210.8</ele>
        <time>2024-11-20T08:35:33Z</time>
      </trkpt>
      <trkpt lat="48.12879" lon="-3.29901">
        <ele>210.7</ele>
        <time>2024-11-20T08:35:34Z</time>
      </trkpt>
      <trkpt lat="48.12878" lon="-3.29901">
        <ele>210.6</ele>
        <time>2024-11-20T08:35:35Z</time>
      </trkpt>
      <trkpt lat="48.12877" lon="-3.29901">
        <ele>210.6</ele>
        <time>2024-11-20T08:35:36Z</time>
      </trkpt>
      <trkpt lat="48.12877" lon="-3.29902">
        <ele>210.5</ele>
        <time>2024-11-20T08:35:37Z</time>
      </trkpt>
      <trkpt lat="48.12876" lon="-3.29904">
        <ele>210.3</ele>
        <time>2024-11-20T08:35:38Z</time>
      </trkpt>
      <trkpt lat="48.12875" lon="-3.29905">
        <ele>210.2</ele>
        <time>2024-11-20T08:35:39Z</time>
      </trkpt>
      <trkpt lat="48.12874" lon="-3.29906">
        <ele>210.1</ele>
        <time>2024-11-20T08:35:40Z</time>
      </trkpt>
      <trkpt lat="48.12874" lon="-3.29907">
        <ele>210</ele>
        <time>2024-11-20T08:35:41Z</time>
      </trkpt>
      <trkpt lat="48.12874" lon="-3.29909">
        <ele>210</ele>
        <time>2024-11-20T08:35:42Z</time>
      </trkpt>
      <trkpt lat="48.12874" lon="-3.29911">
        <ele>210</ele>
        <time>2024-11-20T08:35:43Z</time>
      </trkpt>
      <trkpt lat="48.12874" lon="-3.29913">
        <ele>209.9</ele>
        <time>2024-11-20T08:35:44Z</time>
      </trkpt>
      <trkpt lat="48.12874" lon="-3.29915">
        <ele>209.8</ele>
        <time>2024-11-20T08:35:45Z</time>
      </trkpt>
      <trkpt lat="48.12873" lon="-3.29917">
        <ele>209.7</ele>
        <time>2024-11-20T08:35:46Z</time>
      </trkpt>
      <trkpt lat="48.12872" lon="-3.29918">
        <ele>209.6</ele>
        <time>2024-11-20T08:35:47Z</time>
      </trkpt>
      <trkpt lat="48.12871" lon="-3.2992">
        <ele>209.4</ele>
        <time>2024-11-20T08:35:48Z</time>
      </trkpt>
      <trkpt lat="48.1287" lon="-3.29921">
        <ele>209.1</ele>
        <time>2024-11-20T08:35:49Z</time>
      </trkpt>
      <trkpt lat="48.12869" lon="-3.29923">
        <ele>208.9</ele>
        <time>2024-11-20T08:35:50Z</time>
      </trkpt>
      <trkpt lat="48.12867" lon="-3.29924">
        <ele>208.6</ele>
        <time>2024-11-20T08:35:51Z</time>
      </trkpt>
      <trkpt lat="48.12866" lon="-3.29925">
        <ele>208.4</ele>
        <time>2024-11-20T08:35:52Z</time>
      </trkpt>
      <trkpt lat="48.12865" lon="-3.29926">
        <ele>208.2</ele>
        <time>2024-11-20T08:35:53Z</time>
      </trkpt>
      <trkpt lat="48.12864" lon="-3.29928">
        <ele>208</ele>
        <time>2024-11-20T08:35:54Z</time>
      </trkpt>
      <trkpt lat="48.12862" lon="-3.29929">
        <ele>207.7</ele>
        <time>2024-11-20T08:35:55Z</time>
      </trkpt>
      <trkpt lat="48.12861" lon="-3.29929">
        <ele>207.6</ele>
        <time>2024-11-20T08:35:56Z</time>
      </trkpt>
      <trkpt lat="48.1286" lon="-3.29929">
        <ele>207.5</ele>
        <time>2024-11-20T08:35:57Z</time>
      </trkpt>
      <trkpt lat="48.1286" lon="-3.29929">
        <ele>207.4</ele>
        <time>2024-11-20T08:35:58Z</time>
      </trkpt>
      <trkpt lat="48.12859" lon="-3.29929">
        <ele>207.3</ele>
        <time>2024-11-20T08:35:59Z</time>
      </trkpt>
      <trkpt lat="48.12858" lon="-3.2993">
        <ele>207.1</ele>
        <time>2024-11-20T08:36:00Z</time>
      </trkpt>
      <trkpt lat="48.12857" lon="-3.29931">
        <ele>207</ele>
        <time>2024-11-20T08:36:01Z</time>
      </trkpt>
      <trkpt lat="48.12856" lon="-3.29931">
        <ele>206.9</ele>
        <time>2024-11-20T08:36:02Z</time>
      </trkpt>
      <trkpt lat="48.12854" lon="-3.29932">
        <ele>206.7</ele>
        <time>2024-11-20T08:36:03Z</time>
      </trkpt>
      <trkpt lat="48.12853" lon="-3.29932">
        <ele>206.6</ele>
        <time>2024-11-20T08:36:04Z</time>
      </trkpt>
      <trkpt lat="48.12852" lon="-3.29932">
        <ele>206.5</ele>
        <time>2024-11-20T08:36:05Z</time>
      </trkpt>
      <trkpt lat="48.12851" lon="-3.29932">
        <ele>206.4</ele>
        <time>2024-11-20T08:36:06Z</time>
      </trkpt>
      <trkpt lat="48.1285" lon="-3.29932">
        <ele>206.2</ele>
        <time>2024-11-20T08:36:07Z</time>
      </trkpt>
      <trkpt lat="48.12848" lon="-3.29932">
        <ele>206.1</ele>
        <time>2024-11-20T08:36:08Z</time>
      </trkpt>
      <trkpt lat="48.12847" lon="-3.29931">
        <ele>206</ele>
        <time>2024-11-20T08:36:09Z</time>
      </trkpt>
      <trkpt lat="48.12846" lon="-3.2993">
        <ele>205.9</ele>
        <time>2024-11-20T08:36:10Z</time>
      </trkpt>
      <trkpt lat="48.12844" lon="-3.2993">
        <ele>205.7</ele>
        <time>2024-11-20T08:36:11Z</time>
      </trkpt>
      <trkpt lat="48.12843" lon="-3.29931">
        <ele>205.5</ele>
        <time>2024-11-20T08:36:12Z</time>
      </trkpt>
      <trkpt lat="48.12842" lon="-3.29931">
        <ele>205.4</ele>
        <time>2024-11-20T08:36:13Z</time>
      </trkpt>
      <trkpt lat="48.12841" lon="-3.29931">
        <ele>205.3</ele>
        <time>2024-11-20T08:36:14Z</time>
      </trkpt>
      <trkpt lat="48.1284" lon="-3.29931">
        <ele>205.2</ele>
        <time>2024-11-20T08:36:15Z</time>
      </trkpt>
      <trkpt lat="48.12839" lon="-3.29931">
        <ele>205</ele>
        <time>2024-11-20T08:36:16Z</time>
      </trkpt>
      <trkpt lat="48.12837" lon="-3.29932">
        <ele>204.9</ele>
        <time>2024-11-20T08:36:17Z</time>
      </trkpt>
      <trkpt lat="48.12836" lon="-3.29932">
        <ele>204.7</ele>
        <time>2024-11-20T08:36:18Z</time>
      </trkpt>
      <trkpt lat="48.12835" lon="-3.29932">
        <ele>204.6</ele>
        <time>2024-11-20T08:36:19Z</time>
      </trkpt>
      <trkpt lat="48.12833" lon="-3.29932">
        <ele>204.4</ele>
        <time>2024-11-20T08:36:20Z</time>
      </trkpt>
      <trkpt lat="48.12832" lon="-3.29933">
        <ele>204.4</ele>
        <time>2024-11-20T08:36:21Z</time>
      </trkpt>
      <trkpt lat="48.12832" lon="-3.29933">
        <ele>204.3</ele>
        <time>2024-11-20T08:36:22Z</time>
      </trkpt>
      <trkpt lat="48.12832" lon="-3.29934">
        <ele>204.2</ele>
        <time>2024-11-20T08:36:23Z</time>
      </trkpt>
      <trkpt lat="48.12831" lon="-3.29936">
        <ele>204.1</ele>
        <time>2024-11-20T08:36:24Z</time>
      </trkpt>
      <trkpt lat="48.1283" lon="-3.29936">
        <ele>204</ele>
        <time>2024-11-20T08:36:25Z</time>
      </trkpt>
      <trkpt lat="48.12829" lon="-3.29937">
        <ele>204</ele>
        <time>2024-11-20T08:36:26Z</time>
      </trkpt>
      <trkpt lat="48.12829" lon="-3.29938">
        <ele>203.9</ele>
        <time>2024-11-20T08:36:27Z</time>
      </trkpt>
      <trkpt lat="48.12828" lon="-3.29938">
        <ele>203.8</ele>
        <time>2024-11-20T08:36:28Z</time>
      </trkpt>
      <trkpt lat="48.12827" lon="-3.29939">
        <ele>203.7</ele>
        <time>2024-11-20T08:36:29Z</time>
      </trkpt>
      <trkpt lat="48.12826" lon="-3.2994">
        <ele>203.6</ele>
        <time>2024-11-20T08:36:30Z</time>
      </trkpt>
      <trkpt lat="48.12824" lon="-3.2994">
        <ele>203.5</ele>
        <time>2024-11-20T08:36:31Z</time>
      </trkpt>
      <trkpt lat="48.12823" lon="-3.2994">
        <ele>203.4</ele>
        <time>2024-11-20T08:36:32Z</time>
      </trkpt>
      <trkpt lat="48.12822" lon="-3.2994">
        <ele>203.3</ele>
        <time>2024-11-20T08:36:33Z</time>
      </trkpt>
      <trkpt lat="48.12821" lon="-3.2994">
        <ele>203.2</ele>
        <time>2024-11-20T08:36:34Z</time>
      </trkpt>
      <trkpt lat="48.12819" lon="-3.29941">
        <ele>203.1</ele>
        <time>2024-11-20T08:36:35Z</time>
      </trkpt>
      <trkpt lat="48.12818" lon="-3.29941">
        <ele>203</ele>
        <time>2024-11-20T08:36:36Z</time>
      </trkpt>
      <trkpt lat="48.12817" lon="-3.29941">
        <ele>202.9</ele>
        <time>2024-11-20T08:36:37Z</time>
      </trkpt>
      <trkpt lat="48.12815" lon="-3.29941">
        <ele>202.8</ele>
        <time>2024-11-20T08:36:38Z</time>
      </trkpt>
      <trkpt lat="48.12814" lon="-3.29942">
        <ele>202.7</ele>
        <time>2024-11-20T08:36:39Z</time>
      </trkpt>
      <trkpt lat="48.12812" lon="-3.29942">
        <ele>202.6</ele>
        <time>2024-11-20T08:36:40Z</time>
      </trkpt>
      <trkpt lat="48.12811" lon="-3.29942">
        <ele>202.5</ele>
        <time>2024-11-20T08:36:41Z</time>
      </trkpt>
      <trkpt lat="48.1281" lon="-3.29942">
        <ele>202.4</ele>
        <time>2024-11-20T08:36:42Z</time>
      </trkpt>
      <trkpt lat="48.12809" lon="-3.29942">
        <ele>202.3</ele>
        <time>2024-11-20T08:36:43Z</time>
      </trkpt>
      <trkpt lat="48.12808" lon="-3.29943">
        <ele>202.2</ele>
        <time>2024-11-20T08:36:44Z</time>
      </trkpt>
      <trkpt lat="48.12807" lon="-3.29943">
        <ele>202.1</ele>
        <time>2024-11-20T08:36:45Z</time>
      </trkpt>
      <trkpt lat="48.12806" lon="-3.29944">
        <ele>202.1</ele>
        <time>2024-11-20T08:36:46Z</time>
      </trkpt>
      <trkpt lat="48.12805" lon="-3.29944">
        <ele>202</ele>
        <time>2024-11-20T08:36:47Z</time>
      </trkpt>
      <trkpt lat="48.12804" lon="-3.29944">
        <ele>201.9</ele>
        <time>2024-11-20T08:36:48Z</time>
      </trkpt>
      <trkpt lat="48.12802" lon="-3.29944">
        <ele>201.8</ele>
        <time>2024-11-20T08:36:49Z</time>
      </trkpt>
      <trkpt lat="48.128" lon="-3.29944">
        <ele>201.6</ele>
        <time>2024-11-20T08:36:50Z</time>
      </trkpt>
      <trkpt lat="48.12799" lon="-3.29944">
        <ele>201.5</ele>
        <time>2024-11-20T08:36:51Z</time>
      </trkpt>
      <trkpt lat="48.12798" lon="-3.29945">
        <ele>201.4</ele>
        <time>2024-11-20T08:36:52Z</time>
      </trkpt>
      <trkpt lat="48.12797" lon="-3.29946">
        <ele>201.3</ele>
        <time>2024-11-20T08:36:53Z</time>
      </trkpt>
      <trkpt lat="48.12796" lon="-3.29947">
        <ele>201.3</ele>
        <time>2024-11-20T08:36:54Z</time>
      </trkpt>
      <trkpt lat="48.12796" lon="-3.29948">
        <ele>201.2</ele>
        <time>2024-11-20T08:36:55Z</time>
      </trkpt>
      <trkpt lat="48.12795" lon="-3.29949">
        <ele>201.1</ele>
        <time>2024-11-20T08:36:56Z</time>
      </trkpt>
      <trkpt lat="48.12794" lon="-3.2995">
        <ele>201</ele>
        <time>2024-11-20T08:36:57Z</time>
      </trkpt>
      <trkpt lat="48.12793" lon="-3.29951">
        <ele>200.9</ele>
        <time>2024-11-20T08:36:58Z</time>
      </trkpt>
      <trkpt lat="48.12791" lon="-3.29952">
        <ele>200.8</ele>
        <time>2024-11-20T08:36:59Z</time>
      </trkpt>
      <trkpt lat="48.1279" lon="-3.29954">
        <ele>200.7</ele>
        <time>2024-11-20T08:37:00Z</time>
      </trkpt>
      <trkpt lat="48.12789" lon="-3.29955">
        <ele>200.6</ele>
        <time>2024-11-20T08:37:01Z</time>
      </trkpt>
      <trkpt lat="48.12788" lon="-3.29955">
        <ele>200.6</ele>
        <time>2024-11-20T08:37:02Z</time>
      </trkpt>
      <trkpt lat="48.12787" lon="-3.29956">
        <ele>200.5</ele>
        <time>2024-11-20T08:37:03Z</time>
      </trkpt>
      <trkpt lat="48.12786" lon="-3.29958">
        <ele>200.5</ele>
        <time>2024-11-20T08:37:04Z</time>
      </trkpt>
      <trkpt lat="48.12785" lon="-3.29959">
        <ele>200.4</ele>
        <time>2024-11-20T08:37:05Z</time>
      </trkpt>
      <trkpt lat="48.12784" lon="-3.2996">
        <ele>200.3</ele>
        <time>2024-11-20T08:37:06Z</time>
      </trkpt>
      <trkpt lat="48.12784" lon="-3.29961">
        <ele>200.3</ele>
        <time>2024-11-20T08:37:07Z</time>
      </trkpt>
      <trkpt lat="48.12783" lon="-3.29962">
        <ele>200.2</ele>
        <time>2024-11-20T08:37:08Z</time>
      </trkpt>
      <trkpt lat="48.12782" lon="-3.29963">
        <ele>200.2</ele>
        <time>2024-11-20T08:37:09Z</time>
      </trkpt>
      <trkpt lat="48.1278" lon="-3.29964">
        <ele>200.1</ele>
        <time>2024-11-20T08:37:10Z</time>
      </trkpt>
      <trkpt lat="48.12779" lon="-3.29965">
        <ele>200.1</ele>
        <time>2024-11-20T08:37:11Z</time>
      </trkpt>
      <trkpt lat="48.12778" lon="-3.29966">
        <ele>200</ele>
        <time>2024-11-20T08:37:12Z</time>
      </trkpt>
      <trkpt lat="48.12777" lon="-3.29967">
        <ele>200</ele>
        <time>2024-11-20T08:37:13Z</time>
      </trkpt>
      <trkpt lat="48.12777" lon="-3.29968">
        <ele>200</ele>
        <time>2024-11-20T08:37:14Z</time>
      </trkpt>
      <trkpt lat="48.12776" lon="-3.29969">
        <ele>199.9</ele>
        <time>2024-11-20T08:37:15Z</time>
      </trkpt>
      <trkpt lat="48.12775" lon="-3.2997">
        <ele>199.9</ele>
        <time>2024-11-20T08:37:16Z</time>
      </trkpt>
      <trkpt lat="48.12775" lon="-3.29971">
        <ele>199.9</ele>
        <time>2024-11-20T08:37:17Z</time>
      </trkpt>
      <trkpt lat="48.12774" lon="-3.29971">
        <ele>199.9</ele>
        <time>2024-11-20T08:37:18Z</time>
      </trkpt>
      <trkpt lat="48.12773" lon="-3.29971">
        <ele>199.8</ele>
        <time>2024-11-20T08:37:19Z</time>
      </trkpt>
      <trkpt lat="48.12772" lon="-3.2997">
        <ele>199.8</ele>
        <time>2024-11-20T08:37:20Z</time>
      </trkpt>
      <trkpt lat="48.12771" lon="-3.29969">
        <ele>199.8</ele>
        <time>2024-11-20T08:37:21Z</time>
      </trkpt>
      <trkpt lat="48.1277" lon="-3.29969">
        <ele>199.7</ele>
        <time>2024-11-20T08:37:22Z</time>
      </trkpt>
      <trkpt lat="48.12769" lon="-3.29968">
        <ele>199.7</ele>
        <time>2024-11-20T08:37:23Z</time>
      </trkpt>
      <trkpt lat="48.12768" lon="-3.29967">
        <ele>199.7</ele>
        <time>2024-11-20T08:37:24Z</time>
      </trkpt>
      <trkpt lat="48.12767" lon="-3.29966">
        <ele>199.6</ele>
        <time>2024-11-20T08:37:25Z</time>
      </trkpt>
      <trkpt lat="48.12766" lon="-3.29964">
        <ele>199.6</ele>
        <time>2024-11-20T08:37:26Z</time>
      </trkpt>
      <trkpt lat="48.12766" lon="-3.29963">
        <ele>199.6</ele>
        <time>2024-11-20T08:37:27Z</time>
      </trkpt>
      <trkpt lat="48.12765" lon="-3.29962">
        <ele>199.5</ele>
        <time>2024-11-20T08:37:28Z</time>
      </trkpt>
      <trkpt lat="48.12764" lon="-3.2996">
        <ele>199.5</ele>
        <time>2024-11-20T08:37:29Z</time>
      </trkpt>
      <trkpt lat="48.12763" lon="-3.29959">
        <ele>199.5</ele>
        <time>2024-11-20T08:37:30Z</time>
      </trkpt>
      <trkpt lat="48.12762" lon="-3.29958">
        <ele>199.4</ele>
        <time>2024-11-20T08:37:31Z</time>
      </trkpt>
      <trkpt lat="48.12761" lon="-3.29957">
        <ele>199.4</ele>
        <time>2024-11-20T08:37:32Z</time>
      </trkpt>
      <trkpt lat="48.1276" lon="-3.29956">
        <ele>199.3</ele>
        <time>2024-11-20T08:37:33Z</time>
      </trkpt>
      <trkpt lat="48.12758" lon="-3.29955">
        <ele>199.3</ele>
        <time>2024-11-20T08:37:34Z</time>
      </trkpt>
      <trkpt lat="48.12757" lon="-3.29954">
        <ele>199.3</ele>
        <time>2024-11-20T08:37:35Z</time>
      </trkpt>
      <trkpt lat="48.12756" lon="-3.29953">
        <ele>199.2</ele>
        <time>2024-11-20T08:37:36Z</time>
      </trkpt>
      <trkpt lat="48.12754" lon="-3.29952">
        <ele>199.2</ele>
        <time>2024-11-20T08:37:37Z</time>
      </trkpt>
      <trkpt lat="48.12753" lon="-3.29951">
        <ele>199.1</ele>
        <time>2024-11-20T08:37:38Z</time>
      </trkpt>
      <trkpt lat="48.12752" lon="-3.2995">
        <ele>199.1</ele>
        <time>2024-11-20T08:37:39Z</time>
      </trkpt>
      <trkpt lat="48.12751" lon="-3.2995">
        <ele>199</ele>
        <time>2024-11-20T08:37:40Z</time>
      </trkpt>
      <trkpt lat="48.12751" lon="-3.2995">
        <ele>199</ele>
        <time>2024-11-20T08:37:41Z</time>
      </trkpt>
      <trkpt lat="48.1275" lon="-3.29949">
        <ele>199</ele>
        <time>2024-11-20T08:37:42Z</time>
      </trkpt>
      <trkpt lat="48.12749" lon="-3.29949">
        <ele>198.9</ele>
        <time>2024-11-20T08:37:43Z</time>
      </trkpt>
      <trkpt lat="48.12747" lon="-3.29949">
        <ele>198.8</ele>
        <time>2024-11-20T08:37:44Z</time>
      </trkpt>
      <trkpt lat="48.12746" lon="-3.29948">
        <ele>198.7</ele>
        <time>2024-11-20T08:37:45Z</time>
      </trkpt>
      <trkpt lat="48.12745" lon="-3.29948">
        <ele>198.6</ele>
        <time>2024-11-20T08:37:46Z</time>
      </trkpt>
      <trkpt lat="48.12744" lon="-3.29948">
        <ele>198.6</ele>
        <time>2024-11-20T08:37:47Z</time>
      </trkpt>
      <trkpt lat="48.12743" lon="-3.29948">
        <ele>198.5</ele>
        <time>2024-11-20T08:37:48Z</time>
      </trkpt>
      <trkpt lat="48.12741" lon="-3.29948">
        <ele>198.4</ele>
        <time>2024-11-20T08:37:49Z</time>
      </trkpt>
      <trkpt lat="48.1274" lon="-3.29948">
        <ele>198.3</ele>
        <time>2024-11-20T08:37:50Z</time>
      </trkpt>
      <trkpt lat="48.12738" lon="-3.29948">
        <ele>198.2</ele>
        <time>2024-11-20T08:37:51Z</time>
      </trkpt>
      <trkpt lat="48.12737" lon="-3.29948">
        <ele>198.1</ele>
        <time>2024-11-20T08:37:52Z</time>
      </trkpt>
      <trkpt lat="48.12736" lon="-3.29947">
        <ele>198</ele>
        <time>2024-11-20T08:37:53Z</time>
      </trkpt>
      <trkpt lat="48.12735" lon="-3.29947">
        <ele>197.9</ele>
        <time>2024-11-20T08:37:54Z</time>
      </trkpt>
      <trkpt lat="48.12733" lon="-3.29947">
        <ele>197.8</ele>
        <time>2024-11-20T08:37:55Z</time>
      </trkpt>
      <trkpt lat="48.12732" lon="-3.29947">
        <ele>197.7</ele>
        <time>2024-11-20T08:37:56Z</time>
      </trkpt>
      <trkpt lat="48.1273" lon="-3.29947">
        <ele>197.6</ele>
        <time>2024-11-20T08:37:57Z</time>
      </trkpt>
      <trkpt lat="48.12729" lon="-3.29946">
        <ele>197.5</ele>
        <time>2024-11-20T08:37:58Z</time>
      </trkpt>
      <trkpt lat="48.12727" lon="-3.29946">
        <ele>197.4</ele>
        <time>2024-11-20T08:37:59Z</time>
      </trkpt>
      <trkpt lat="48.12726" lon="-3.29945">
        <ele>197.3</ele>
        <time>2024-11-20T08:38:00Z</time>
      </trkpt>
      <trkpt lat="48.12725" lon="-3.29946">
        <ele>197.2</ele>
        <time>2024-11-20T08:38:01Z</time>
      </trkpt>
      <trkpt lat="48.12724" lon="-3.29946">
        <ele>197.1</ele>
        <time>2024-11-20T08:38:02Z</time>
      </trkpt>
      <trkpt lat="48.12723" lon="-3.29946">
        <ele>197</ele>
        <time>2024-11-20T08:38:03Z</time>
      </trkpt>
      <trkpt lat="48.12721" lon="-3.29946">
        <ele>196.9</ele>
        <time>2024-11-20T08:38:04Z</time>
      </trkpt>
      <trkpt lat="48.12719" lon="-3.29946">
        <ele>196.9</ele>
        <time>2024-11-20T08:38:05Z</time>
      </trkpt>
      <trkpt lat="48.12717" lon="-3.29945">
        <ele>196.8</ele>
        <time>2024-11-20T08:38:06Z</time>
      </trkpt>
      <trkpt lat="48.12716" lon="-3.29945">
        <ele>196.8</ele>
        <time>2024-11-20T08:38:07Z</time>
      </trkpt>
      <trkpt lat="48.12715" lon="-3.29945">
        <ele>196.7</ele>
        <time>2024-11-20T08:38:08Z</time>
      </trkpt>
      <trkpt lat="48.12715" lon="-3.29944">
        <ele>196.7</ele>
        <time>2024-11-20T08:38:09Z</time>
      </trkpt>
      <trkpt lat="48.12714" lon="-3.29944">
        <ele>196.7</ele>
        <time>2024-11-20T08:38:10Z</time>
      </trkpt>
      <trkpt lat="48.12713" lon="-3.29944">
        <ele>196.7</ele>
        <time>2024-11-20T08:38:11Z</time>
      </trkpt>
      <trkpt lat="48.12712" lon="-3.29943">
        <ele>196.6</ele>
        <time>2024-11-20T08:38:12Z</time>
      </trkpt>
      <trkpt lat="48.12711" lon="-3.29941">
        <ele>196.6</ele>
        <time>2024-11-20T08:38:13Z</time>
      </trkpt>
      <trkpt lat="48.12709" lon="-3.29939">
        <ele>196.6</ele>
        <time>2024-11-20T08:38:14Z</time>
      </trkpt>
      <trkpt lat="48.12709" lon="-3.29937">
        <ele>196.6</ele>
        <time>2024-11-20T08:38:15Z</time>
      </trkpt>
      <trkpt lat="48.12708" lon="-3.29936">
        <ele>196.7</ele>
        <time>2024-11-20T08:38:16Z</time>
      </trkpt>
      <trkpt lat="48.12708" lon="-3.29935">
        <ele>196.7</ele>
        <time>2024-11-20T08:38:17Z</time>
      </trkpt>
      <trkpt lat="48.12707" lon="-3.29934">
        <ele>196.7</ele>
        <time>2024-11-20T08:38:18Z</time>
      </trkpt>
      <trkpt lat="48.12706" lon="-3.29933">
        <ele>196.7</ele>
        <time>2024-11-20T08:38:19Z</time>
      </trkpt>
      <trkpt lat="48.12706" lon="-3.29932">
        <ele>196.8</ele>
        <time>2024-11-20T08:38:20Z</time>
      </trkpt>
      <trkpt lat="48.12706" lon="-3.29931">
        <ele>196.8</ele>
        <time>2024-11-20T08:38:21Z</time>
      </trkpt>
      <trkpt lat="48.12706" lon="-3.29929">
        <ele>196.8</ele>
        <time>2024-11-20T08:38:22Z</time>
      </trkpt>
      <trkpt lat="48.12707" lon="-3.29928">
        <ele>196.8</ele>
        <time>2024-11-20T08:38:23Z</time>
      </trkpt>
      <trkpt lat="48.12708" lon="-3.29927">
        <ele>196.8</ele>
        <time>2024-11-20T08:38:24Z</time>
      </trkpt>
      <trkpt lat="48.12709" lon="-3.29927">
        <ele>196.8</ele>
        <time>2024-11-20T08:38:25Z</time>
      </trkpt>
      <trkpt lat="48.1271" lon="-3.29927">
        <ele>196.8</ele>
        <time>2024-11-20T08:38:26Z</time>
      </trkpt>
      <trkpt lat="48.1271" lon="-3.29927">
        <ele>196.8</ele>
        <time>2024-11-20T08:38:27Z</time>
      </trkpt>
      <trkpt lat="48.12711" lon="-3.29925">
        <ele>196.8</ele>
        <time>2024-11-20T08:38:28Z</time>
      </trkpt>
      <trkpt lat="48.12711" lon="-3.29924">
        <ele>196.7</ele>
        <time>2024-11-20T08:38:29Z</time>
      </trkpt>
      <trkpt lat="48.12712" lon="-3.29922">
        <ele>196.7</ele>
        <time>2024-11-20T08:38:30Z</time>
      </trkpt>
      <trkpt lat="48.12712" lon="-3.29921">
        <ele>196.7</ele>
        <time>2024-11-20T08:38:31Z</time>
      </trkpt>
      <trkpt lat="48.12712" lon="-3.29919">
        <ele>196.7</ele>
        <time>2024-11-20T08:38:32Z</time>
      </trkpt>
      <trkpt lat="48.12712" lon="-3.29917">
        <ele>196.7</ele>
        <time>2024-11-20T08:38:33Z</time>
      </trkpt>
      <trkpt lat="48.12712" lon="-3.29915">
        <ele>196.9</ele>
        <time>2024-11-20T08:38:34Z</time>
      </trkpt>
      <trkpt lat="48.12711" lon="-3.29914">
        <ele>197.1</ele>
        <time>2024-11-20T08:38:35Z</time>
      </trkpt>
      <trkpt lat="48.12711" lon="-3.29913">
        <ele>197.2</ele>
        <time>2024-11-20T08:38:36Z</time>
      </trkpt>
      <trkpt lat="48.12711" lon="-3.29912">
        <ele>197.3</ele>
        <time>2024-11-20T08:38:37Z</time>
      </trkpt>
      <trkpt lat="48.12712" lon="-3.2991">
        <ele>197.4</ele>
        <time>2024-11-20T08:38:38Z</time>
      </trkpt>
      <trkpt lat="48.12712" lon="-3.29908">
        <ele>197.6</ele>
        <time>2024-11-20T08:38:39Z</time>
      </trkpt>
      <trkpt lat="48.12712" lon="-3.29907">
        <ele>197.7</ele>
        <time>2024-11-20T08:38:40Z</time>
      </trkpt>
      <trkpt lat="48.12712" lon="-3.29906">
        <ele>197.7</ele>
        <time>2024-11-20T08:38:41Z</time>
      </trkpt>
      <trkpt lat="48.12713" lon="-3.29905">
        <ele>197.8</ele>
        <time>2024-11-20T08:38:42Z</time>
      </trkpt>
      <trkpt lat="48.12713" lon="-3.29904">
        <ele>197.8</ele>
        <time>2024-11-20T08:38:43Z</time>
      </trkpt>
      <trkpt lat="48.12714" lon="-3.29903">
        <ele>197.9</ele>
        <time>2024-11-20T08:38:44Z</time>
      </trkpt>
      <trkpt lat="48.12715" lon="-3.29902">
        <ele>197.9</ele>
        <time>2024-11-20T08:38:45Z</time>
      </trkpt>
      <trkpt lat="48.12715" lon="-3.299">
        <ele>198.1</ele>
        <time>2024-11-20T08:38:46Z</time>
      </trkpt>
      <trkpt lat="48.12715" lon="-3.29898">
        <ele>198.2</ele>
        <time>2024-11-20T08:38:47Z</time>
      </trkpt>
      <trkpt lat="48.12715" lon="-3.29896">
        <ele>198.4</ele>
        <time>2024-11-20T08:38:48Z</time>
      </trkpt>
      <trkpt lat="48.12716" lon="-3.29894">
        <ele>198.5</ele>
        <time>2024-11-20T08:38:49Z</time>
      </trkpt>
      <trkpt lat="48.12716" lon="-3.29892">
        <ele>198.5</ele>
        <time>2024-11-20T08:38:50Z</time>
      </trkpt>
      <trkpt lat="48.12717" lon="-3.29891">
        <ele>198.6</ele>
        <time>2024-11-20T08:38:51Z</time>
      </trkpt>
      <trkpt lat="48.12717" lon="-3.29889">
        <ele>198.7</ele>
        <time>2024-11-20T08:38:52Z</time>
      </trkpt>
      <trkpt lat="48.12718" lon="-3.29887">
        <ele>198.8</ele>
        <time>2024-11-20T08:38:53Z</time>
      </trkpt>
      <trkpt lat="48.12719" lon="-3.29885">
        <ele>198.9</ele>
        <time>2024-11-20T08:38:54Z</time>
      </trkpt>
      <trkpt lat="48.1272" lon="-3.29883">
        <ele>199</ele>
        <time>2024-11-20T08:38:55Z</time>
      </trkpt>
      <trkpt lat="48.12721" lon="-3.29882">
        <ele>199</ele>
        <time>2024-11-20T08:38:56Z</time>
      </trkpt>
      <trkpt lat="48.12722" lon="-3.2988">
        <ele>199</ele>
        <time>2024-11-20T08:38:57Z</time>
      </trkpt>
      <trkpt lat="48.12722" lon="-3.29878">
        <ele>199.2</ele>
        <time>2024-11-20T08:38:58Z</time>
      </trkpt>
      <trkpt lat="48.12722" lon="-3.29877">
        <ele>199.3</ele>
        <time>2024-11-20T08:38:59Z</time>
      </trkpt>
      <trkpt lat="48.12723" lon="-3.29876">
        <ele>199.4</ele>
        <time>2024-11-20T08:39:00Z</time>
      </trkpt>
      <trkpt lat="48.12723" lon="-3.29874">
        <ele>199.5</ele>
        <time>2024-11-20T08:39:01Z</time>
      </trkpt>
      <trkpt lat="48.12724" lon="-3.29873">
        <ele>199.6</ele>
        <time>2024-11-20T08:39:02Z</time>
      </trkpt>
      <trkpt lat="48.12724" lon="-3.29872">
        <ele>199.7</ele>
        <time>2024-11-20T08:39:03Z</time>
      </trkpt>
      <trkpt lat="48.12725" lon="-3.29871">
        <ele>199.8</ele>
        <time>2024-11-20T08:39:04Z</time>
      </trkpt>
      <trkpt lat="48.12726" lon="-3.2987">
        <ele>199.8</ele>
        <time>2024-11-20T08:39:05Z</time>
      </trkpt>
      <trkpt lat="48.12727" lon="-3.2987">
        <ele>199.8</ele>
        <time>2024-11-20T08:39:06Z</time>
      </trkpt>
      <trkpt lat="48.12728" lon="-3.29868">
        <ele>199.9</ele>
        <time>2024-11-20T08:39:07Z</time>
      </trkpt>
      <trkpt lat="48.12729" lon="-3.29867">
        <ele>200</ele>
        <time>2024-11-20T08:39:08Z</time>
      </trkpt>
      <trkpt lat="48.1273" lon="-3.29867">
        <ele>200</ele>
        <time>2024-11-20T08:39:09Z</time>
      </trkpt>
      <trkpt lat="48.1273" lon="-3.29866">
        <ele>200</ele>
        <time>2024-11-20T08:39:10Z</time>
      </trkpt>
      <trkpt lat="48.12731" lon="-3.29864">
        <ele>200.1</ele>
        <time>2024-11-20T08:39:11Z</time>
      </trkpt>
      <trkpt lat="48.12731" lon="-3.29863">
        <ele>200.2</ele>
        <time>2024-11-20T08:39:12Z</time>
      </trkpt>
      <trkpt lat="48.12732" lon="-3.29862">
        <ele>200.2</ele>
        <time>2024-11-20T08:39:13Z</time>
      </trkpt>
      <trkpt lat="48.12733" lon="-3.29861">
        <ele>200.2</ele>
        <time>2024-11-20T08:39:14Z</time>
      </trkpt>
      <trkpt lat="48.12733" lon="-3.2986">
        <ele>200.3</ele>
        <time>2024-11-20T08:39:15Z</time>
      </trkpt>
      <trkpt lat="48.12734" lon="-3.29858">
        <ele>200.4</ele>
        <time>2024-11-20T08:39:16Z</time>
      </trkpt>
      <trkpt lat="48.12734" lon="-3.29857">
        <ele>200.5</ele>
        <time>2024-11-20T08:39:17Z</time>
      </trkpt>
      <trkpt lat="48.12735" lon="-3.29856">
        <ele>200.5</ele>
        <time>2024-11-20T08:39:18Z</time>
      </trkpt>
      <trkpt lat="48.12735" lon="-3.29855">
        <ele>200.5</ele>
        <time>2024-11-20T08:39:19Z</time>
      </trkpt>
      <trkpt lat="48.12736" lon="-3.29854">
        <ele>200.5</ele>
        <time>2024-11-20T08:39:20Z</time>
      </trkpt>
      <trkpt lat="48.12737" lon="-3.29852">
        <ele>200.6</ele>
        <time>2024-11-20T08:39:21Z</time>
      </trkpt>
      <trkpt lat="48.12737" lon="-3.29851">
        <ele>200.6</ele>
        <time>2024-11-20T08:39:22Z</time>
      </trkpt>
      <trkpt lat="48.12738" lon="-3.29849">
        <ele>200.7</ele>
        <time>2024-11-20T08:39:23Z</time>
      </trkpt>
      <trkpt lat="48.12739" lon="-3.29848">
        <ele>200.7</ele>
        <time>2024-11-20T08:39:24Z</time>
      </trkpt>
      <trkpt lat="48.1274" lon="-3.29847">
        <ele>200.7</ele>
        <time>2024-11-20T08:39:25Z</time>
      </trkpt>
      <trkpt lat="48.12741" lon="-3.29846">
        <ele>200.6</ele>
        <time>2024-11-20T08:39:26Z</time>
      </trkpt>
      <trkpt lat="48.12742" lon="-3.29844">
        <ele>200.5</ele>
        <time>2024-11-20T08:39:27Z</time>
      </trkpt>
      <trkpt lat="48.12743" lon="-3.29843">
        <ele>200.5</ele>
        <time>2024-11-20T08:39:28Z</time>
      </trkpt>
      <trkpt lat="48.12743" lon="-3.29841">
        <ele>200.5</ele>
        <time>2024-11-20T08:39:29Z</time>
      </trkpt>
      <trkpt lat="48.12744" lon="-3.2984">
        <ele>200.6</ele>
        <time>2024-11-20T08:39:30Z</time>
      </trkpt>
      <trkpt lat="48.12744" lon="-3.29839">
        <ele>200.5</ele>
        <time>2024-11-20T08:39:31Z</time>
      </trkpt>
      <trkpt lat="48.12745" lon="-3.29838">
        <ele>200.5</ele>
        <time>2024-11-20T08:39:32Z</time>
      </trkpt>
      <trkpt lat="48.12746" lon="-3.29838">
        <ele>200.4</ele>
        <time>2024-11-20T08:39:33Z</time>
      </trkpt>
      <trkpt lat="48.12746" lon="-3.29837">
        <ele>200.4</ele>
        <time>2024-11-20T08:39:34Z</time>
      </trkpt>
      <trkpt lat="48.12747" lon="-3.29836">
        <ele>200.3</ele>
        <time>2024-11-20T08:39:35Z</time>
      </trkpt>
      <trkpt lat="48.12748" lon="-3.29834">
        <ele>200.3</ele>
        <time>2024-11-20T08:39:36Z</time>
      </trkpt>
      <trkpt lat="48.12748" lon="-3.29833">
        <ele>200.3</ele>
        <time>2024-11-20T08:39:37Z</time>
      </trkpt>
      <trkpt lat="48.1275" lon="-3.29831">
        <ele>200.3</ele>
        <time>2024-11-20T08:39:38Z</time>
      </trkpt>
      <trkpt lat="48.12751" lon="-3.29831">
        <ele>200.3</ele>
        <time>2024-11-20T08:39:39Z</time>
      </trkpt>
      <trkpt lat="48.12752" lon="-3.2983">
        <ele>200.3</ele>
        <time>2024-11-20T08:39:40Z</time>
      </trkpt>
      <trkpt lat="48.12752" lon="-3.29829">
        <ele>200.5</ele>
        <time>2024-11-20T08:39:41Z</time>
      </trkpt>
      <trkpt lat="48.12753" lon="-3.29827">
        <ele>200.6</ele>
        <time>2024-11-20T08:39:42Z</time>
      </trkpt>
      <trkpt lat="48.12753" lon="-3.29826">
        <ele>200.7</ele>
        <time>2024-11-20T08:39:43Z</time>
      </trkpt>
      <trkpt lat="48.12754" lon="-3.29825">
        <ele>200.8</ele>
        <time>2024-11-20T08:39:44Z</time>
      </trkpt>
      <trkpt lat="48.12755" lon="-3.29825">
        <ele>200.8</ele>
        <time>2024-11-20T08:39:45Z</time>
      </trkpt>
      <trkpt lat="48.12756" lon="-3.29825">
        <ele>200.8</ele>
        <time>2024-11-20T08:39:46Z</time>
      </trkpt>
      <trkpt lat="48.12757" lon="-3.29823">
        <ele>200.9</ele>
        <time>2024-11-20T08:39:47Z</time>
      </trkpt>
      <trkpt lat="48.12757" lon="-3.29821">
        <ele>201.1</ele>
        <time>2024-11-20T08:39:48Z</time>
      </trkpt>
      <trkpt lat="48.12758" lon="-3.2982">
        <ele>201.2</ele>
        <time>2024-11-20T08:39:49Z</time>
      </trkpt>
      <trkpt lat="48.12758" lon="-3.29818">
        <ele>201.3</ele>
        <time>2024-11-20T08:39:50Z</time>
      </trkpt>
      <trkpt lat="48.12758" lon="-3.29817">
        <ele>201.5</ele>
        <time>2024-11-20T08:39:51Z</time>
      </trkpt>
      <trkpt lat="48.12758" lon="-3.29816">
        <ele>201.5</ele>
        <time>2024-11-20T08:39:52Z</time>
      </trkpt>
      <trkpt lat="48.12758" lon="-3.29816">
        <ele>201.6</ele>
        <time>2024-11-20T08:39:53Z</time>
      </trkpt>
      <trkpt lat="48.12758" lon="-3.29815">
        <ele>201.6</ele>
        <time>2024-11-20T08:39:54Z</time>
      </trkpt>
      <trkpt lat="48.12758" lon="-3.29814">
        <ele>201.7</ele>
        <time>2024-11-20T08:39:55Z</time>
      </trkpt>
      <trkpt lat="48.12757" lon="-3.29813">
        <ele>201.8</ele>
        <time>2024-11-20T08:39:56Z</time>
      </trkpt>
      <trkpt lat="48.12757" lon="-3.29812">
        <ele>201.9</ele>
        <time>2024-11-20T08:39:57Z</time>
      </trkpt>
      <trkpt lat="48.12757" lon="-3.29811">
        <ele>202.1</ele>
        <time>2024-11-20T08:39:58Z</time>
      </trkpt>
      <trkpt lat="48.12756" lon="-3.2981">
        <ele>202.2</ele>
        <time>2024-11-20T08:39:59Z</time>
      </trkpt>
      <trkpt lat="48.12756" lon="-3.29809">
        <ele>202.2</ele>
        <time>2024-11-20T08:40:00Z</time>
      </trkpt>
      <trkpt lat="48.12756" lon="-3.29808">
        <ele>202.3</ele>
        <time>2024-11-20T08:40:01Z</time>
      </trkpt>
      <trkpt lat="48.12756" lon="-3.29808">
        <ele>202.4</ele>
        <time>2024-11-20T08:40:02Z</time>
      </trkpt>
      <trkpt lat="48.12756" lon="-3.29807">
        <ele>202.5</ele>
        <time>2024-11-20T08:40:03Z</time>
      </trkpt>
      <trkpt lat="48.12756" lon="-3.29807">
        <ele>202.5</ele>
        <time>2024-11-20T08:40:04Z</time>
      </trkpt>
      <trkpt lat="48.12756" lon="-3.29806">
        <ele>202.5</ele>
        <time>2024-11-20T08:40:05Z</time>
      </trkpt>
      <trkpt lat="48.12756" lon="-3.29806">
        <ele>202.6</ele>
        <time>2024-11-20T08:40:06Z</time>
      </trkpt>
      <trkpt lat="48.12755" lon="-3.29805">
        <ele>202.7</ele>
        <time>2024-11-20T08:40:07Z</time>
      </trkpt>
      <trkpt lat="48.12755" lon="-3.29804">
        <ele>202.8</ele>
        <time>2024-11-20T08:40:08Z</time>
      </trkpt>
      <trkpt lat="48.12755" lon="-3.29804">
        <ele>202.8</ele>
        <time>2024-11-20T08:40:09Z</time>
      </trkpt>
      <trkpt lat="48.12755" lon="-3.29803">
        <ele>202.9</ele>
        <time>2024-11-20T08:40:10Z</time>
      </trkpt>
      <trkpt lat="48.12755" lon="-3.29803">
        <ele>202.9</ele>
        <time>2024-11-20T08:40:11Z</time>
      </trkpt>
      <trkpt lat="48.12755" lon="-3.29803">
        <ele>203</ele>
        <time>2024-11-20T08:40:12Z</time>
      </trkpt>
      <trkpt lat="48.12755" lon="-3.29802">
        <ele>203</ele>
        <time>2024-11-20T08:40:13Z</time>
      </trkpt>
      <trkpt lat="48.12755" lon="-3.29802">
        <ele>203.1</ele>
        <time>2024-11-20T08:40:14Z</time>
      </trkpt>
      <trkpt lat="48.12755" lon="-3.29801">
        <ele>203.1</ele>
        <time>2024-11-20T08:40:15Z</time>
      </trkpt>
      <trkpt lat="48.12755" lon="-3.29801">
        <ele>203.2</ele>
        <time>2024-11-20T08:40:16Z</time>
      </trkpt>
      <trkpt lat="48.12755" lon="-3.29801">
        <ele>203.2</ele>
        <time>2024-11-20T08:40:17Z</time>
      </trkpt>
      <trkpt lat="48.12755" lon="-3.29801">
        <ele>203.2</ele>
        <time>2024-11-20T08:40:18Z</time>
      </trkpt>
      <trkpt lat="48.12755" lon="-3.29801">
        <ele>203.1</ele>
        <time>2024-11-20T08:40:19Z</time>
      </trkpt>
      <trkpt lat="48.12755" lon="-3.29801">
        <ele>203.1</ele>
        <time>2024-11-20T08:40:20Z</time>
      </trkpt>
      <trkpt lat="48.12755" lon="-3.29802">
        <ele>203.1</ele>
        <time>2024-11-20T08:40:21Z</time>
      </trkpt>
      <trkpt lat="48.12755" lon="-3.29803">
        <ele>203</ele>
        <time>2024-11-20T08:40:22Z</time>
      </trkpt>
      <trkpt lat="48.12755" lon="-3.29803">
        <ele>202.9</ele>
        <time>2024-11-20T08:40:23Z</time>
      </trkpt>
      <trkpt lat="48.12756" lon="-3.29804">
        <ele>202.7</ele>
        <time>2024-11-20T08:40:24Z</time>
      </trkpt>
      <trkpt lat="48.12757" lon="-3.29805">
        <ele>202.6</ele>
        <time>2024-11-20T08:40:25Z</time>
      </trkpt>
      <trkpt lat="48.12757" lon="-3.29806">
        <ele>202.5</ele>
        <time>2024-11-20T08:40:26Z</time>
      </trkpt>
      <trkpt lat="48.12758" lon="-3.29807">
        <ele>202.4</ele>
        <time>2024-11-20T08:40:27Z</time>
      </trkpt>
      <trkpt lat="48.12758" lon="-3.29807">
        <ele>202.3</ele>
        <time>2024-11-20T08:40:28Z</time>
      </trkpt>
      <trkpt lat="48.12758" lon="-3.29808">
        <ele>202.2</ele>
        <time>2024-11-20T08:40:29Z</time>
      </trkpt>
      <trkpt lat="48.12759" lon="-3.29809">
        <ele>202.1</ele>
        <time>2024-11-20T08:40:30Z</time>
      </trkpt>
      <trkpt lat="48.12759" lon="-3.29809">
        <ele>202</ele>
        <time>2024-11-20T08:40:31Z</time>
      </trkpt>
      <trkpt lat="48.1276" lon="-3.2981">
        <ele>201.9</ele>
        <time>2024-11-20T08:40:32Z</time>
      </trkpt>
      <trkpt lat="48.1276" lon="-3.29811">
        <ele>201.9</ele>
        <time>2024-11-20T08:40:33Z</time>
      </trkpt>
      <trkpt lat="48.12761" lon="-3.29811">
        <ele>201.8</ele>
        <time>2024-11-20T08:40:34Z</time>
      </trkpt>
      <trkpt lat="48.12761" lon="-3.29812">
        <ele>201.7</ele>
        <time>2024-11-20T08:40:35Z</time>
      </trkpt>
      <trkpt lat="48.12762" lon="-3.29813">
        <ele>201.6</ele>
        <time>2024-11-20T08:40:36Z</time>
      </trkpt>
      <trkpt lat="48.12762" lon="-3.29813">
        <ele>201.6</ele>
        <time>2024-11-20T08:40:37Z</time>
      </trkpt>
      <trkpt lat="48.12762" lon="-3.29814">
        <ele>201.5</ele>
        <time>2024-11-20T08:40:38Z</time>
      </trkpt>
      <trkpt lat="48.12762" lon="-3.29815">
        <ele>201.4</ele>
        <time>2024-11-20T08:40:39Z</time>
      </trkpt>
      <trkpt lat="48.12762" lon="-3.29816">
        <ele>201.3</ele>
        <time>2024-11-20T08:40:40Z</time>
      </trkpt>
      <trkpt lat="48.12761" lon="-3.29818">
        <ele>201.2</ele>
        <time>2024-11-20T08:40:41Z</time>
      </trkpt>
      <trkpt lat="48.12761" lon="-3.29818">
        <ele>201.2</ele>
        <time>2024-11-20T08:40:42Z</time>
      </trkpt>
      <trkpt lat="48.12762" lon="-3.29819">
        <ele>201.1</ele>
        <time>2024-11-20T08:40:43Z</time>
      </trkpt>
      <trkpt lat="48.12762" lon="-3.2982">
        <ele>201</ele>
        <time>2024-11-20T08:40:44Z</time>
      </trkpt>
      <trkpt lat="48.12763" lon="-3.29821">
        <ele>200.9</ele>
        <time>2024-11-20T08:40:45Z</time>
      </trkpt>
      <trkpt lat="48.12763" lon="-3.29822">
        <ele>200.9</ele>
        <time>2024-11-20T08:40:46Z</time>
      </trkpt>
      <trkpt lat="48.12763" lon="-3.29822">
        <ele>200.8</ele>
        <time>2024-11-20T08:40:47Z</time>
      </trkpt>
      <trkpt lat="48.12762" lon="-3.29822">
        <ele>200.8</ele>
        <time>2024-11-20T08:40:48Z</time>
      </trkpt>
      <trkpt lat="48.12764" lon="-3.29824">
        <ele>200.7</ele>
        <time>2024-11-20T08:40:49Z</time>
      </trkpt>
      <trkpt lat="48.12764" lon="-3.29825">
        <ele>200.6</ele>
        <time>2024-11-20T08:40:50Z</time>
      </trkpt>
      <trkpt lat="48.12764" lon="-3.29825">
        <ele>200.6</ele>
        <time>2024-11-20T08:40:51Z</time>
      </trkpt>
      <trkpt lat="48.12764" lon="-3.29826">
        <ele>200.5</ele>
        <time>2024-11-20T08:40:52Z</time>
      </trkpt>
      <trkpt lat="48.12763" lon="-3.29827">
        <ele>200.5</ele>
        <time>2024-11-20T08:40:53Z</time>
      </trkpt>
      <trkpt lat="48.12762" lon="-3.29827">
        <ele>200.5</ele>
        <time>2024-11-20T08:40:54Z</time>
      </trkpt>
      <trkpt lat="48.12761" lon="-3.29828">
        <ele>200.4</ele>
        <time>2024-11-20T08:40:55Z</time>
      </trkpt>
      <trkpt lat="48.1276" lon="-3.29829">
        <ele>200.4</ele>
        <time>2024-11-20T08:40:56Z</time>
      </trkpt>
      <trkpt lat="48.12759" lon="-3.2983">
        <ele>200.3</ele>
        <time>2024-11-20T08:40:57Z</time>
      </trkpt>
      <trkpt lat="48.12759" lon="-3.2983">
        <ele>200.3</ele>
        <time>2024-11-20T08:40:58Z</time>
      </trkpt>
      <trkpt lat="48.12758" lon="-3.2983">
        <ele>200.3</ele>
        <time>2024-11-20T08:40:59Z</time>
      </trkpt>
      <trkpt lat="48.12758" lon="-3.29831">
        <ele>200.2</ele>
        <time>2024-11-20T08:41:00Z</time>
      </trkpt>
      <trkpt lat="48.12756" lon="-3.29833">
        <ele>200</ele>
        <time>2024-11-20T08:41:03Z</time>
      </trkpt>
      <trkpt lat="48.12755" lon="-3.29834">
        <ele>200</ele>
        <time>2024-11-20T08:41:04Z</time>
      </trkpt>
      <trkpt lat="48.12755" lon="-3.29835">
        <ele>200</ele>
        <time>2024-11-20T08:41:05Z</time>
      </trkpt>
      <trkpt lat="48.12754" lon="-3.29836">
        <ele>199.9</ele>
        <time>2024-11-20T08:41:06Z</time>
      </trkpt>
      <trkpt lat="48.12754" lon="-3.29836">
        <ele>199.9</ele>
        <time>2024-11-20T08:41:07Z</time>
      </trkpt>
      <trkpt lat="48.12754" lon="-3.29837">
        <ele>199.9</ele>
        <time>2024-11-20T08:41:08Z</time>
      </trkpt>
      <trkpt lat="48.12753" lon="-3.29838">
        <ele>199.9</ele>
        <time>2024-11-20T08:41:09Z</time>
      </trkpt>
      <trkpt lat="48.12753" lon="-3.29839">
        <ele>199.8</ele>
        <time>2024-11-20T08:41:10Z</time>
      </trkpt>
      <trkpt lat="48.12752" lon="-3.2984">
        <ele>199.8</ele>
        <time>2024-11-20T08:41:11Z</time>
      </trkpt>
      <trkpt lat="48.12751" lon="-3.29841">
        <ele>199.8</ele>
        <time>2024-11-20T08:41:12Z</time>
      </trkpt>
      <trkpt lat="48.1275" lon="-3.29842">
        <ele>199.7</ele>
        <time>2024-11-20T08:41:13Z</time>
      </trkpt>
      <trkpt lat="48.1275" lon="-3.29843">
        <ele>199.7</ele>
        <time>2024-11-20T08:41:14Z</time>
      </trkpt>
      <trkpt lat="48.12749" lon="-3.29844">
        <ele>199.7</ele>
        <time>2024-11-20T08:41:15Z</time>
      </trkpt>
      <trkpt lat="48.12749" lon="-3.29845">
        <ele>199.7</ele>
        <time>2024-11-20T08:41:16Z</time>
      </trkpt>
      <trkpt lat="48.12748" lon="-3.29846">
        <ele>199.8</ele>
        <time>2024-11-20T08:41:17Z</time>
      </trkpt>
      <trkpt lat="48.12747" lon="-3.29847">
        <ele>199.9</ele>
        <time>2024-11-20T08:41:18Z</time>
      </trkpt>
      <trkpt lat="48.12746" lon="-3.29847">
        <ele>200</ele>
        <time>2024-11-20T08:41:19Z</time>
      </trkpt>
      <trkpt lat="48.12744" lon="-3.29848">
        <ele>200.1</ele>
        <time>2024-11-20T08:41:20Z</time>
      </trkpt>
      <trkpt lat="48.12744" lon="-3.29848">
        <ele>200.1</ele>
        <time>2024-11-20T08:41:21Z</time>
      </trkpt>
      <trkpt lat="48.12744" lon="-3.29849">
        <ele>200.1</ele>
        <time>2024-11-20T08:41:22Z</time>
      </trkpt>
      <trkpt lat="48.12743" lon="-3.2985">
        <ele>200.1</ele>
        <time>2024-11-20T08:41:23Z</time>
      </trkpt>
      <trkpt lat="48.12742" lon="-3.29851">
        <ele>200.2</ele>
        <time>2024-11-20T08:41:24Z</time>
      </trkpt>
      <trkpt lat="48.12742" lon="-3.29851">
        <ele>200.1</ele>
        <time>2024-11-20T08:41:25Z</time>
      </trkpt>
      <trkpt lat="48.12742" lon="-3.29852">
        <ele>200.1</ele>
        <time>2024-11-20T08:41:26Z</time>
      </trkpt>
      <trkpt lat="48.12741" lon="-3.29853">
        <ele>200.1</ele>
        <time>2024-11-20T08:41:27Z</time>
      </trkpt>
      <trkpt lat="48.12741" lon="-3.29854">
        <ele>200.1</ele>
        <time>2024-11-20T08:41:28Z</time>
      </trkpt>
      <trkpt lat="48.12741" lon="-3.29856">
        <ele>200</ele>
        <time>2024-11-20T08:41:29Z</time>
      </trkpt>
      <trkpt lat="48.1274" lon="-3.29857">
        <ele>200</ele>
        <time>2024-11-20T08:41:30Z</time>
      </trkpt>
      <trkpt lat="48.1274" lon="-3.29858">
        <ele>199.9</ele>
        <time>2024-11-20T08:41:31Z</time>
      </trkpt>
      <trkpt lat="48.12739" lon="-3.2986">
        <ele>199.8</ele>
        <time>2024-11-20T08:41:32Z</time>
      </trkpt>
      <trkpt lat="48.12739" lon="-3.29861">
        <ele>199.8</ele>
        <time>2024-11-20T08:41:33Z</time>
      </trkpt>
      <trkpt lat="48.12738" lon="-3.29863">
        <ele>199.7</ele>
        <time>2024-11-20T08:41:34Z</time>
      </trkpt>
      <trkpt lat="48.12738" lon="-3.29865">
        <ele>199.6</ele>
        <time>2024-11-20T08:41:35Z</time>
      </trkpt>
      <trkpt lat="48.12737" lon="-3.29866">
        <ele>199.6</ele>
        <time>2024-11-20T08:41:36Z</time>
      </trkpt>
      <trkpt lat="48.12737" lon="-3.29867">
        <ele>199.5</ele>
        <time>2024-11-20T08:41:37Z</time>
      </trkpt>
      <trkpt lat="48.12736" lon="-3.29868">
        <ele>199.5</ele>
        <time>2024-11-20T08:41:38Z</time>
      </trkpt>
      <trkpt lat="48.12736" lon="-3.2987">
        <ele>199.4</ele>
        <time>2024-11-20T08:41:39Z</time>
      </trkpt>
      <trkpt lat="48.12736" lon="-3.29871">
        <ele>199.3</ele>
        <time>2024-11-20T08:41:40Z</time>
      </trkpt>
      <trkpt lat="48.12735" lon="-3.29872">
        <ele>199.2</ele>
        <time>2024-11-20T08:41:41Z</time>
      </trkpt>
      <trkpt lat="48.12735" lon="-3.29873">
        <ele>199.2</ele>
        <time>2024-11-20T08:41:42Z</time>
      </trkpt>
      <trkpt lat="48.12735" lon="-3.29874">
        <ele>199.1</ele>
        <time>2024-11-20T08:41:43Z</time>
      </trkpt>
      <trkpt lat="48.12734" lon="-3.29876">
        <ele>199</ele>
        <time>2024-11-20T08:41:44Z</time>
      </trkpt>
      <trkpt lat="48.12733" lon="-3.29877">
        <ele>199</ele>
        <time>2024-11-20T08:41:45Z</time>
      </trkpt>
      <trkpt lat="48.12733" lon="-3.29878">
        <ele>198.9</ele>
        <time>2024-11-20T08:41:46Z</time>
      </trkpt>
      <trkpt lat="48.12733" lon="-3.29879">
        <ele>198.8</ele>
        <time>2024-11-20T08:41:47Z</time>
      </trkpt>
      <trkpt lat="48.12732" lon="-3.2988">
        <ele>198.7</ele>
        <time>2024-11-20T08:41:48Z</time>
      </trkpt>
      <trkpt lat="48.12731" lon="-3.29882">
        <ele>198.6</ele>
        <time>2024-11-20T08:41:49Z</time>
      </trkpt>
      <trkpt lat="48.12731" lon="-3.29883">
        <ele>198.5</ele>
        <time>2024-11-20T08:41:50Z</time>
      </trkpt>
      <trkpt lat="48.1273" lon="-3.29884">
        <ele>198.5</ele>
        <time>2024-11-20T08:41:51Z</time>
      </trkpt>
      <trkpt lat="48.12729" lon="-3.29885">
        <ele>198.4</ele>
        <time>2024-11-20T08:41:52Z</time>
      </trkpt>
      <trkpt lat="48.12729" lon="-3.29886">
        <ele>198.3</ele>
        <time>2024-11-20T08:41:53Z</time>
      </trkpt>
      <trkpt lat="48.12728" lon="-3.29887">
        <ele>198.2</ele>
        <time>2024-11-20T08:41:54Z</time>
      </trkpt>
      <trkpt lat="48.12727" lon="-3.29888">
        <ele>198.1</ele>
        <time>2024-11-20T08:41:55Z</time>
      </trkpt>
      <trkpt lat="48.12726" lon="-3.2989">
        <ele>197.9</ele>
        <time>2024-11-20T08:41:57Z</time>
      </trkpt>
      <trkpt lat="48.12725" lon="-3.29891">
        <ele>197.8</ele>
        <time>2024-11-20T08:41:58Z</time>
      </trkpt>
      <trkpt lat="48.12724" lon="-3.29893">
        <ele>197.8</ele>
        <time>2024-11-20T08:41:59Z</time>
      </trkpt>
      <trkpt lat="48.12724" lon="-3.29893">
        <ele>197.7</ele>
        <time>2024-11-20T08:42:00Z</time>
      </trkpt>
      <trkpt lat="48.12723" lon="-3.29894">
        <ele>197.6</ele>
        <time>2024-11-20T08:42:01Z</time>
      </trkpt>
      <trkpt lat="48.12723" lon="-3.29895">
        <ele>197.6</ele>
        <time>2024-11-20T08:42:02Z</time>
      </trkpt>
      <trkpt lat="48.12723" lon="-3.29896">
        <ele>197.5</ele>
        <time>2024-11-20T08:42:03Z</time>
      </trkpt>
      <trkpt lat="48.12723" lon="-3.29897">
        <ele>197.4</ele>
        <time>2024-11-20T08:42:04Z</time>
      </trkpt>
      <trkpt lat="48.12722" lon="-3.29898">
        <ele>197.3</ele>
        <time>2024-11-20T08:42:05Z</time>
      </trkpt>
      <trkpt lat="48.12722" lon="-3.29899">
        <ele>197.3</ele>
        <time>2024-11-20T08:42:06Z</time>
      </trkpt>
      <trkpt lat="48.12722" lon="-3.299">
        <ele>197.3</ele>
        <time>2024-11-20T08:42:07Z</time>
      </trkpt>
      <trkpt lat="48.12721" lon="-3.29902">
        <ele>197.3</ele>
        <time>2024-11-20T08:42:08Z</time>
      </trkpt>
      <trkpt lat="48.1272" lon="-3.29903">
        <ele>197.3</ele>
        <time>2024-11-20T08:42:09Z</time>
      </trkpt>
      <trkpt lat="48.12719" lon="-3.29904">
        <ele>197.3</ele>
        <time>2024-11-20T08:42:10Z</time>
      </trkpt>
      <trkpt lat="48.12718" lon="-3.29906">
        <ele>197.2</ele>
        <time>2024-11-20T08:42:11Z</time>
      </trkpt>
      <trkpt lat="48.12717" lon="-3.29906">
        <ele>197.2</ele>
        <time>2024-11-20T08:42:12Z</time>
      </trkpt>
      <trkpt lat="48.12717" lon="-3.29907">
        <ele>197.2</ele>
        <time>2024-11-20T08:42:13Z</time>
      </trkpt>
      <trkpt lat="48.12717" lon="-3.29908">
        <ele>197.2</ele>
        <time>2024-11-20T08:42:14Z</time>
      </trkpt>
      <trkpt lat="48.12716" lon="-3.2991">
        <ele>197</ele>
        <time>2024-11-20T08:42:15Z</time>
      </trkpt>
      <trkpt lat="48.12716" lon="-3.29912">
        <ele>196.9</ele>
        <time>2024-11-20T08:42:16Z</time>
      </trkpt>
      <trkpt lat="48.12715" lon="-3.29914">
        <ele>196.8</ele>
        <time>2024-11-20T08:42:17Z</time>
      </trkpt>
      <trkpt lat="48.12715" lon="-3.29915">
        <ele>196.7</ele>
        <time>2024-11-20T08:42:18Z</time>
      </trkpt>
      <trkpt lat="48.12714" lon="-3.29917">
        <ele>196.6</ele>
        <time>2024-11-20T08:42:19Z</time>
      </trkpt>
      <trkpt lat="48.12714" lon="-3.29918">
        <ele>196.6</ele>
        <time>2024-11-20T08:42:20Z</time>
      </trkpt>
      <trkpt lat="48.12714" lon="-3.2992">
        <ele>196.6</ele>
        <time>2024-11-20T08:42:21Z</time>
      </trkpt>
      <trkpt lat="48.12714" lon="-3.29921">
        <ele>196.6</ele>
        <time>2024-11-20T08:42:22Z</time>
      </trkpt>
      <trkpt lat="48.12713" lon="-3.29922">
        <ele>196.7</ele>
        <time>2024-11-20T08:42:23Z</time>
      </trkpt>
      <trkpt lat="48.12713" lon="-3.29924">
        <ele>196.7</ele>
        <time>2024-11-20T08:42:24Z</time>
      </trkpt>
      <trkpt lat="48.12712" lon="-3.29925">
        <ele>196.7</ele>
        <time>2024-11-20T08:42:25Z</time>
      </trkpt>
      <trkpt lat="48.12712" lon="-3.29926">
        <ele>196.7</ele>
        <time>2024-11-20T08:42:26Z</time>
      </trkpt>
      <trkpt lat="48.12711" lon="-3.29926">
        <ele>196.7</ele>
        <time>2024-11-20T08:42:27Z</time>
      </trkpt>
      <trkpt lat="48.12711" lon="-3.29926">
        <ele>196.7</ele>
        <time>2024-11-20T08:42:28Z</time>
      </trkpt>
      <trkpt lat="48.1271" lon="-3.29926">
        <ele>196.8</ele>
        <time>2024-11-20T08:42:29Z</time>
      </trkpt>
      <trkpt lat="48.1271" lon="-3.29926">
        <ele>196.8</ele>
        <time>2024-11-20T08:42:30Z</time>
      </trkpt>
      <trkpt lat="48.1271" lon="-3.29926">
        <ele>196.8</ele>
        <time>2024-11-20T08:42:31Z</time>
      </trkpt>
      <trkpt lat="48.1271" lon="-3.29926">
        <ele>196.8</ele>
        <time>2024-11-20T08:42:32Z</time>
      </trkpt>
      <trkpt lat="48.12709" lon="-3.29927">
        <ele>196.8</ele>
        <time>2024-11-20T08:42:33Z</time>
      </trkpt>
      <trkpt lat="48.12709" lon="-3.29928">
        <ele>196.8</ele>
        <time>2024-11-20T08:42:34Z</time>
      </trkpt>
      <trkpt lat="48.12709" lon="-3.29929">
        <ele>196.8</ele>
        <time>2024-11-20T08:42:35Z</time>
      </trkpt>
      <trkpt lat="48.12708" lon="-3.2993">
        <ele>196.8</ele>
        <time>2024-11-20T08:42:36Z</time>
      </trkpt>
      <trkpt lat="48.12708" lon="-3.2993">
        <ele>196.8</ele>
        <time>2024-11-20T08:42:37Z</time>
      </trkpt>
      <trkpt lat="48.12707" lon="-3.29931">
        <ele>196.8</ele>
        <time>2024-11-20T08:42:38Z</time>
      </trkpt>
      <trkpt lat="48.12707" lon="-3.29931">
        <ele>196.8</ele>
        <time>2024-11-20T08:42:39Z</time>
      </trkpt>
      <trkpt lat="48.12707" lon="-3.29931">
        <ele>196.8</ele>
        <time>2024-11-20T08:42:40Z</time>
      </trkpt>
      <trkpt lat="48.12707" lon="-3.29932">
        <ele>196.8</ele>
        <time>2024-11-20T08:42:41Z</time>
      </trkpt>
      <trkpt lat="48.12708" lon="-3.29932">
        <ele>196.7</ele>
        <time>2024-11-20T08:42:42Z</time>
      </trkpt>
      <trkpt lat="48.12708" lon="-3.29933">
        <ele>196.7</ele>
        <time>2024-11-20T08:42:43Z</time>
      </trkpt>
      <trkpt lat="48.12709" lon="-3.29934">
        <ele>196.7</ele>
        <time>2024-11-20T08:42:44Z</time>
      </trkpt>
      <trkpt lat="48.1271" lon="-3.29934">
        <ele>196.7</ele>
        <time>2024-11-20T08:42:45Z</time>
      </trkpt>
      <trkpt lat="48.1271" lon="-3.29935">
        <ele>196.7</ele>
        <time>2024-11-20T08:42:46Z</time>
      </trkpt>
      <trkpt lat="48.1271" lon="-3.29936">
        <ele>196.7</ele>
        <time>2024-11-20T08:42:47Z</time>
      </trkpt>
      <trkpt lat="48.1271" lon="-3.29938">
        <ele>196.6</ele>
        <time>2024-11-20T08:42:48Z</time>
      </trkpt>
      <trkpt lat="48.1271" lon="-3.2994">
        <ele>196.6</ele>
        <time>2024-11-20T08:42:49Z</time>
      </trkpt>
      <trkpt lat="48.12711" lon="-3.29941">
        <ele>196.6</ele>
        <time>2024-11-20T08:42:50Z</time>
      </trkpt>
      <trkpt lat="48.12711" lon="-3.29943">
        <ele>196.6</ele>
        <time>2024-11-20T08:42:51Z</time>
      </trkpt>
      <trkpt lat="48.1271" lon="-3.29943">
        <ele>196.6</ele>
        <time>2024-11-20T08:42:52Z</time>
      </trkpt>
      <trkpt lat="48.1271" lon="-3.29943">
        <ele>196.6</ele>
        <time>2024-11-20T08:42:53Z</time>
      </trkpt>
      <trkpt lat="48.12709" lon="-3.29943">
        <ele>196.6</ele>
        <time>2024-11-20T08:42:54Z</time>
      </trkpt>
      <trkpt lat="48.12709" lon="-3.29942">
        <ele>196.6</ele>
        <time>2024-11-20T08:42:55Z</time>
      </trkpt>
      <trkpt lat="48.12708" lon="-3.29942">
        <ele>196.5</ele>
        <time>2024-11-20T08:42:56Z</time>
      </trkpt>
      <trkpt lat="48.12708" lon="-3.29942">
        <ele>196.5</ele>
        <time>2024-11-20T08:42:57Z</time>
      </trkpt>
      <trkpt lat="48.12708" lon="-3.29942">
        <ele>196.5</ele>
        <time>2024-11-20T08:42:58Z</time>
      </trkpt>
      <trkpt lat="48.12707" lon="-3.29941">
        <ele>196.5</ele>
        <time>2024-11-20T08:42:59Z</time>
      </trkpt>
      <trkpt lat="48.12707" lon="-3.2994">
        <ele>196.6</ele>
        <time>2024-11-20T08:43:00Z</time>
      </trkpt>
      <trkpt lat="48.12706" lon="-3.29939">
        <ele>196.6</ele>
        <time>2024-11-20T08:43:01Z</time>
      </trkpt>
      <trkpt lat="48.12705" lon="-3.29937">
        <ele>196.6</ele>
        <time>2024-11-20T08:43:02Z</time>
      </trkpt>
      <trkpt lat="48.12705" lon="-3.29936">
        <ele>196.6</ele>
        <time>2024-11-20T08:43:03Z</time>
      </trkpt>
      <trkpt lat="48.12705" lon="-3.29935">
        <ele>196.7</ele>
        <time>2024-11-20T08:43:04Z</time>
      </trkpt>
      <trkpt lat="48.12705" lon="-3.29934">
        <ele>196.7</ele>
        <time>2024-11-20T08:43:05Z</time>
      </trkpt>
      <trkpt lat="48.12705" lon="-3.29933">
        <ele>196.7</ele>
        <time>2024-11-20T08:43:06Z</time>
      </trkpt>
      <trkpt lat="48.12705" lon="-3.29932">
        <ele>196.8</ele>
        <time>2024-11-20T08:43:07Z</time>
      </trkpt>
      <trkpt lat="48.12705" lon="-3.29931">
        <ele>196.8</ele>
        <time>2024-11-20T08:43:08Z</time>
      </trkpt>
      <trkpt lat="48.12706" lon="-3.2993">
        <ele>196.8</ele>
        <time>2024-11-20T08:43:09Z</time>
      </trkpt>
      <trkpt lat="48.12707" lon="-3.29929">
        <ele>196.8</ele>
        <time>2024-11-20T08:43:10Z</time>
      </trkpt>
      <trkpt lat="48.12708" lon="-3.29928">
        <ele>196.8</ele>
        <time>2024-11-20T08:43:11Z</time>
      </trkpt>
      <trkpt lat="48.12709" lon="-3.29928">
        <ele>196.8</ele>
        <time>2024-11-20T08:43:12Z</time>
      </trkpt>
      <trkpt lat="48.1271" lon="-3.29927">
        <ele>196.8</ele>
        <time>2024-11-20T08:43:13Z</time>
      </trkpt>
      <trkpt lat="48.1271" lon="-3.29927">
        <ele>196.8</ele>
        <time>2024-11-20T08:43:14Z</time>
      </trkpt>
      <trkpt lat="48.12711" lon="-3.29926">
        <ele>196.7</ele>
        <time>2024-11-20T08:43:15Z</time>
      </trkpt>
      <trkpt lat="48.12711" lon="-3.29925">
        <ele>196.7</ele>
        <time>2024-11-20T08:43:16Z</time>
      </trkpt>
      <trkpt lat="48.12712" lon="-3.29925">
        <ele>196.7</ele>
        <time>2024-11-20T08:43:17Z</time>
      </trkpt>
      <trkpt lat="48.12712" lon="-3.29924">
        <ele>196.7</ele>
        <time>2024-11-20T08:43:18Z</time>
      </trkpt>
      <trkpt lat="48.12712" lon="-3.29924">
        <ele>196.7</ele>
        <time>2024-11-20T08:43:19Z</time>
      </trkpt>
      <trkpt lat="48.12712" lon="-3.29924">
        <ele>196.7</ele>
        <time>2024-11-20T08:43:20Z</time>
      </trkpt>
      <trkpt lat="48.12712" lon="-3.29924">
        <ele>196.7</ele>
        <time>2024-11-20T08:43:21Z</time>
      </trkpt>
      <trkpt lat="48.12712" lon="-3.29924">
        <ele>196.7</ele>
        <time>2024-11-20T08:43:22Z</time>
      </trkpt>
      <trkpt lat="48.12712" lon="-3.29925">
        <ele>196.7</ele>
        <time>2024-11-20T08:43:23Z</time>
      </trkpt>
      <trkpt lat="48.12713" lon="-3.29925">
        <ele>196.7</ele>
        <time>2024-11-20T08:43:24Z</time>
      </trkpt>
      <trkpt lat="48.12713" lon="-3.29925">
        <ele>196.7</ele>
        <time>2024-11-20T08:43:25Z</time>
      </trkpt>
      <trkpt lat="48.12713" lon="-3.29925">
        <ele>196.7</ele>
        <time>2024-11-20T08:43:26Z</time>
      </trkpt>
      <trkpt lat="48.12713" lon="-3.29925">
        <ele>196.7</ele>
        <time>2024-11-20T08:43:27Z</time>
      </trkpt>
      <trkpt lat="48.12713" lon="-3.29925">
        <ele>196.7</ele>
        <time>2024-11-20T08:43:28Z</time>
      </trkpt>
      <trkpt lat="48.12713" lon="-3.29926">
        <ele>196.7</ele>
        <time>2024-11-20T08:43:29Z</time>
      </trkpt>
      <trkpt lat="48.12713" lon="-3.29926">
        <ele>196.7</ele>
        <time>2024-11-20T08:43:30Z</time>
      </trkpt>
      <trkpt lat="48.12713" lon="-3.29926">
        <ele>196.7</ele>
        <time>2024-11-20T08:43:31Z</time>
      </trkpt>
      <trkpt lat="48.12713" lon="-3.29926">
        <ele>196.7</ele>
        <time>2024-11-20T08:43:32Z</time>
      </trkpt>
      <trkpt lat="48.12713" lon="-3.29926">
        <ele>196.7</ele>
        <time>2024-11-20T08:43:33Z</time>
      </trkpt>
      <trkpt lat="48.12713" lon="-3.29926">
        <ele>196.7</ele>
        <time>2024-11-20T08:43:34Z</time>
      </trkpt>
      <trkpt lat="48.12713" lon="-3.29925">
        <ele>196.7</ele>
        <time>2024-11-20T08:43:35Z</time>
      </trkpt>
      <trkpt lat="48.12713" lon="-3.29925">
        <ele>196.7</ele>
        <time>2024-11-20T08:43:36Z</time>
      </trkpt>
      <trkpt lat="48.12713" lon="-3.29925">
        <ele>196.7</ele>
        <time>2024-11-20T08:43:37Z</time>
      </trkpt>
      <trkpt lat="48.12713" lon="-3.29925">
        <ele>196.7</ele>
        <time>2024-11-20T08:43:38Z</time>
      </trkpt>
      <trkpt lat="48.12713" lon="-3.29925">
        <ele>196.7</ele>
        <time>2024-11-20T08:43:39Z</time>
      </trkpt>
      <trkpt lat="48.12713" lon="-3.29925">
        <ele>196.7</ele>
        <time>2024-11-20T08:43:40Z</time>
      </trkpt>
      <trkpt lat="48.12713" lon="-3.29925">
        <ele>196.7</ele>
        <time>2024-11-20T08:43:41Z</time>
      </trkpt>
      <trkpt lat="48.12713" lon="-3.29925">
        <ele>196.7</ele>
        <time>2024-11-20T08:43:42Z</time>
      </trkpt>
      <trkpt lat="48.12713" lon="-3.29925">
        <ele>196.7</ele>
        <time>2024-11-20T08:43:43Z</time>
      </trkpt>
      <trkpt lat="48.12713" lon="-3.29925">
        <ele>196.7</ele>
        <time>2024-11-20T08:43:44Z</time>
      </trkpt>
      <trkpt lat="48.12713" lon="-3.29925">
        <ele>196.7</ele>
        <time>2024-11-20T08:43:45Z</time>
      </trkpt>
      <trkpt lat="48.12713" lon="-3.29925">
        <ele>196.7</ele>
        <time>2024-11-20T08:43:46Z</time>
      </trkpt>
      <trkpt lat="48.12713" lon="-3.29925">
        <ele>196.7</ele>
        <time>2024-11-20T08:43:47Z</time>
      </trkpt>
      <trkpt lat="48.12713" lon="-3.29925">
        <ele>196.7</ele>
        <time>2024-11-20T08:43:48Z</time>
      </trkpt>
      <trkpt lat="48.12713" lon="-3.29925">
        <ele>196.7</ele>
        <time>2024-11-20T08:43:49Z</time>
      </trkpt>
      <trkpt lat="48.12713" lon="-3.29925">
        <ele>196.7</ele>
        <time>2024-11-20T08:43:50Z</time>
      </trkpt>
      <trkpt lat="48.12713" lon="-3.29925">
        <ele>196.7</ele>
        <time>2024-11-20T08:43:51Z</time>
      </trkpt>
      <trkpt lat="48.12713" lon="-3.29925">
        <ele>196.7</ele>
        <time>2024-11-20T08:43:52Z</time>
      </trkpt>
      <trkpt lat="48.12713" lon="-3.29925">
        <ele>196.7</ele>
        <time>2024-11-20T08:43:53Z</time>
      </trkpt>
      <trkpt lat="48.12713" lon="-3.29925">
        <ele>196.7</ele>
        <time>2024-11-20T08:43:54Z</time>
      </trkpt>
      <trkpt lat="48.12713" lon="-3.29925">
        <ele>196.7</ele>
        <time>2024-11-20T08:43:55Z</time>
      </trkpt>
      <trkpt lat="48.12713" lon="-3.29925">
        <ele>196.7</ele>
        <time>2024-11-20T08:43:56Z</time>
      </trkpt>
      <trkpt lat="48.12713" lon="-3.29925">
        <ele>196.7</ele>
        <time>2024-11-20T08:43:57Z</time>
      </trkpt>
      <trkpt lat="48.12713" lon="-3.29925">
        <ele>196.7</ele>
        <time>2024-11-20T08:43:58Z</time>
      </trkpt>
      <trkpt lat="48.12713" lon="-3.29925">
        <ele>196.7</ele>
        <time>2024-11-20T08:43:59Z</time>
      </trkpt>
      <trkpt lat="48.12713" lon="-3.29925">
        <ele>196.7</ele>
        <time>2024-11-20T08:44:00Z</time>
      </trkpt>
      <trkpt lat="48.12713" lon="-3.29925">
        <ele>196.7</ele>
        <time>2024-11-20T08:44:01Z</time>
      </trkpt>
      <trkpt lat="48.12713" lon="-3.29925">
        <ele>196.7</ele>
        <time>2024-11-20T08:44:02Z</time>
      </trkpt>
      <trkpt lat="48.12713" lon="-3.29925">
        <ele>196.7</ele>
        <time>2024-11-20T08:44:03Z</time>
      </trkpt>
      <trkpt lat="48.12713" lon="-3.29925">
        <ele>196.7</ele>
        <time>2024-11-20T08:44:04Z</time>
      </trkpt>
      <trkpt lat="48.12713" lon="-3.29925">
        <ele>196.7</ele>
        <time>2024-11-20T08:44:05Z</time>
      </trkpt>
      <trkpt lat="48.12713" lon="-3.29925">
        <ele>196.7</ele>
        <time>2024-11-20T08:44:06Z</time>
      </trkpt>
      <trkpt lat="48.12713" lon="-3.29925">
        <ele>196.7</ele>
        <time>2024-11-20T08:44:07Z</time>
      </trkpt>
      <trkpt lat="48.12713" lon="-3.29925">
        <ele>196.7</ele>
        <time>2024-11-20T08:44:08Z</time>
      </trkpt>
      <trkpt lat="48.12713" lon="-3.29925">
        <ele>196.7</ele>
        <time>2024-11-20T08:44:09Z</time>
      </trkpt>
      <trkpt lat="48.12713" lon="-3.29925">
        <ele>196.7</ele>
        <time>2024-11-20T08:44:10Z</time>
      </trkpt>
      <trkpt lat="48.12713" lon="-3.29925">
        <ele>196.7</ele>
        <time>2024-11-20T08:44:11Z</time>
      </trkpt>
      <trkpt lat="48.12713" lon="-3.29925">
        <ele>196.7</ele>
        <time>2024-11-20T08:44:12Z</time>
      </trkpt>
      <trkpt lat="48.12713" lon="-3.29925">
        <ele>196.7</ele>
        <time>2024-11-20T08:44:13Z</time>
      </trkpt>
      <trkpt lat="48.12713" lon="-3.29925">
        <ele>196.7</ele>
        <time>2024-11-20T08:44:14Z</time>
      </trkpt>
      <trkpt lat="48.12713" lon="-3.29925">
        <ele>196.7</ele>
        <time>2024-11-20T08:44:15Z</time>
      </trkpt>
      <trkpt lat="48.12713" lon="-3.29925">
        <ele>196.7</ele>
        <time>2024-11-20T08:44:16Z</time>
      </trkpt>
      <trkpt lat="48.12713" lon="-3.29925">
        <ele>196.7</ele>
        <time>2024-11-20T08:44:17Z</time>
      </trkpt>
      <trkpt lat="48.12713" lon="-3.29925">
        <ele>196.7</ele>
        <time>2024-11-20T08:44:18Z</time>
      </trkpt>
      <trkpt lat="48.12713" lon="-3.29925">
        <ele>196.7</ele>
        <time>2024-11-20T08:44:19Z</time>
      </trkpt>
      <trkpt lat="48.12713" lon="-3.29925">
        <ele>196.7</ele>
        <time>2024-11-20T08:44:20Z</time>
      </trkpt>
      <trkpt lat="48.12713" lon="-3.29925">
        <ele>196.7</ele>
        <time>2024-11-20T08:44:21Z</time>
      </trkpt>
      <trkpt lat="48.12713" lon="-3.29925">
        <ele>196.7</ele>
        <time>2024-11-20T08:44:22Z</time>
      </trkpt>
      <trkpt lat="48.12713" lon="-3.29925">
        <ele>196.7</ele>
        <time>2024-11-20T08:44:23Z</time>
      </trkpt>
      <trkpt lat="48.12713" lon="-3.29925">
        <ele>196.7</ele>
        <time>2024-11-20T08:44:24Z</time>
      </trkpt>
      <trkpt lat="48.12713" lon="-3.29925">
        <ele>196.7</ele>
        <time>2024-11-20T08:44:25Z</time>
      </trkpt>
      <trkpt lat="48.12713" lon="-3.29925">
        <ele>196.7</ele>
        <time>2024-11-20T08:44:26Z</time>
      </trkpt>
      <trkpt lat="48.12713" lon="-3.29925">
        <ele>196.7</ele>
        <time>2024-11-20T08:44:27Z</time>
      </trkpt>
      <trkpt lat="48.12713" lon="-3.29925">
        <ele>196.7</ele>
        <time>2024-11-20T08:44:28Z</time>
      </trkpt>
      <trkpt lat="48.12713" lon="-3.29925">
        <ele>196.7</ele>
        <time>2024-11-20T08:44:29Z</time>
      </trkpt>
      <trkpt lat="48.12713" lon="-3.29925">
        <ele>196.7</ele>
        <time>2024-11-20T08:44:30Z</time>
      </trkpt>
      <trkpt lat="48.12713" lon="-3.29925">
        <ele>196.7</ele>
        <time>2024-11-20T08:44:31Z</time>
      </trkpt>
      <trkpt lat="48.12713" lon="-3.29925">
        <ele>196.7</ele>
        <time>2024-11-20T08:44:32Z</time>
      </trkpt>
      <trkpt lat="48.12713" lon="-3.29925">
        <ele>196.7</ele>
        <time>2024-11-20T08:44:33Z</time>
      </trkpt>
      <trkpt lat="48.12713" lon="-3.29925">
        <ele>196.7</ele>
        <time>2024-11-20T08:44:34Z</time>
      </trkpt>
      <trkpt lat="48.12713" lon="-3.29925">
        <ele>196.7</ele>
        <time>2024-11-20T08:44:35Z</time>
      </trkpt>
      <trkpt lat="48.12713" lon="-3.29925">
        <ele>196.7</ele>
        <time>2024-11-20T08:44:36Z</time>
      </trkpt>
      <trkpt lat="48.12713" lon="-3.29925">
        <ele>196.7</ele>
        <time>2024-11-20T08:44:37Z</time>
      </trkpt>
      <trkpt lat="48.12713" lon="-3.29925">
        <ele>196.7</ele>
        <time>2024-11-20T08:44:38Z</time>
      </trkpt>
      <trkpt lat="48.12713" lon="-3.29925">
        <ele>196.7</ele>
        <time>2024-11-20T08:44:39Z</time>
      </trkpt>
      <trkpt lat="48.12713" lon="-3.29925">
        <ele>196.7</ele>
        <time>2024-11-20T08:44:40Z</time>
      </trkpt>
      <trkpt lat="48.12713" lon="-3.29925">
        <ele>196.7</ele>
        <time>2024-11-20T08:44:41Z</time>
      </trkpt>
      <trkpt lat="48.12713" lon="-3.29925">
        <ele>196.7</ele>
        <time>2024-11-20T08:44:42Z</time>
      </trkpt>
      <trkpt lat="48.12713" lon="-3.29925">
        <ele>196.7</ele>
        <time>2024-11-20T08:44:43Z</time>
      </trkpt>
      <trkpt lat="48.12713" lon="-3.29925">
        <ele>196.7</ele>
        <time>2024-11-20T08:44:44Z</time>
      </trkpt>
      <trkpt lat="48.12713" lon="-3.29925">
        <ele>196.7</ele>
        <time>2024-11-20T08:44:45Z</time>
      </trkpt>
      <trkpt lat="48.12713" lon="-3.29925">
        <ele>196.7</ele>
        <time>2024-11-20T08:44:46Z</time>
      </trkpt>
      <trkpt lat="48.12713" lon="-3.29925">
        <ele>196.7</ele>
        <time>2024-11-20T08:44:47Z</time>
      </trkpt>
      <trkpt lat="48.12713" lon="-3.29925">
        <ele>196.7</ele>
        <time>2024-11-20T08:44:48Z</time>
      </trkpt>
      <trkpt lat="48.12712" lon="-3.29925">
        <ele>196.7</ele>
        <time>2024-11-20T08:44:49Z</time>
      </trkpt>
      <trkpt lat="48.12712" lon="-3.29925">
        <ele>196.7</ele>
        <time>2024-11-20T08:44:50Z</time>
      </trkpt>
      <trkpt lat="48.12711" lon="-3.29926">
        <ele>196.7</ele>
        <time>2024-11-20T08:44:51Z</time>
      </trkpt>
      <trkpt lat="48.12711" lon="-3.29927">
        <ele>196.7</ele>
        <time>2024-11-20T08:44:52Z</time>
      </trkpt>
      <trkpt lat="48.1271" lon="-3.29928">
        <ele>196.8</ele>
        <time>2024-11-20T08:44:53Z</time>
      </trkpt>
      <trkpt lat="48.12709" lon="-3.29928">
        <ele>196.8</ele>
        <time>2024-11-20T08:44:54Z</time>
      </trkpt>
      <trkpt lat="48.12709" lon="-3.29929">
        <ele>196.8</ele>
        <time>2024-11-20T08:44:55Z</time>
      </trkpt>
      <trkpt lat="48.12708" lon="-3.2993">
        <ele>196.8</ele>
        <time>2024-11-20T08:44:56Z</time>
      </trkpt>
      <trkpt lat="48.12708" lon="-3.2993">
        <ele>196.8</ele>
        <time>2024-11-20T08:44:57Z</time>
      </trkpt>
      <trkpt lat="48.12707" lon="-3.29931">
        <ele>196.8</ele>
        <time>2024-11-20T08:44:58Z</time>
      </trkpt>
      <trkpt lat="48.12708" lon="-3.29932">
        <ele>196.7</ele>
        <time>2024-11-20T08:44:59Z</time>
      </trkpt>
      <trkpt lat="48.12708" lon="-3.29933">
        <ele>196.7</ele>
        <time>2024-11-20T08:45:00Z</time>
      </trkpt>
      <trkpt lat="48.12709" lon="-3.29935">
        <ele>196.7</ele>
        <time>2024-11-20T08:45:01Z</time>
      </trkpt>
      <trkpt lat="48.12709" lon="-3.29936">
        <ele>196.7</ele>
        <time>2024-11-20T08:45:02Z</time>
      </trkpt>
      <trkpt lat="48.1271" lon="-3.29938">
        <ele>196.6</ele>
        <time>2024-11-20T08:45:03Z</time>
      </trkpt>
      <trkpt lat="48.1271" lon="-3.29939">
        <ele>196.6</ele>
        <time>2024-11-20T08:45:04Z</time>
      </trkpt>
      <trkpt lat="48.1271" lon="-3.29941">
        <ele>196.6</ele>
        <time>2024-11-20T08:45:05Z</time>
      </trkpt>
      <trkpt lat="48.12711" lon="-3.29942">
        <ele>196.6</ele>
        <time>2024-11-20T08:45:06Z</time>
      </trkpt>
      <trkpt lat="48.12711" lon="-3.29943">
        <ele>196.6</ele>
        <time>2024-11-20T08:45:07Z</time>
      </trkpt>
      <trkpt lat="48.12711" lon="-3.29944">
        <ele>196.6</ele>
        <time>2024-11-20T08:45:08Z</time>
      </trkpt>
      <trkpt lat="48.12711" lon="-3.29945">
        <ele>196.6</ele>
        <time>2024-11-20T08:45:09Z</time>
      </trkpt>
      <trkpt lat="48.12711" lon="-3.29947">
        <ele>196.6</ele>
        <time>2024-11-20T08:45:10Z</time>
      </trkpt>
      <trkpt lat="48.12711" lon="-3.29949">
        <ele>196.6</ele>
        <time>2024-11-20T08:45:11Z</time>
      </trkpt>
      <trkpt lat="48.12711" lon="-3.2995">
        <ele>196.6</ele>
        <time>2024-11-20T08:45:12Z</time>
      </trkpt>
      <trkpt lat="48.12711" lon="-3.29951">
        <ele>196.6</ele>
        <time>2024-11-20T08:45:13Z</time>
      </trkpt>
      <trkpt lat="48.1271" lon="-3.29952">
        <ele>196.6</ele>
        <time>2024-11-20T08:45:14Z</time>
      </trkpt>
      <trkpt lat="48.1271" lon="-3.29953">
        <ele>196.5</ele>
        <time>2024-11-20T08:45:15Z</time>
      </trkpt>
      <trkpt lat="48.12709" lon="-3.29953">
        <ele>196.5</ele>
        <time>2024-11-20T08:45:16Z</time>
      </trkpt>
      <trkpt lat="48.12709" lon="-3.29953">
        <ele>196.5</ele>
        <time>2024-11-20T08:45:17Z</time>
      </trkpt>
      <trkpt lat="48.12709" lon="-3.29952">
        <ele>196.5</ele>
        <time>2024-11-20T08:45:18Z</time>
      </trkpt>
      <trkpt lat="48.12709" lon="-3.29952">
        <ele>196.5</ele>
        <time>2024-11-20T08:45:19Z</time>
      </trkpt>
      <trkpt lat="48.12709" lon="-3.29952">
        <ele>196.5</ele>
        <time>2024-11-20T08:45:20Z</time>
      </trkpt>
      <trkpt lat="48.12709" lon="-3.29952">
        <ele>196.5</ele>
        <time>2024-11-20T08:45:21Z</time>
      </trkpt>
      <trkpt lat="48.12709" lon="-3.29952">
        <ele>196.5</ele>
        <time>2024-11-20T08:45:22Z</time>
      </trkpt>
      <trkpt lat="48.12709" lon="-3.29953">
        <ele>196.5</ele>
        <time>2024-11-20T08:45:23Z</time>
      </trkpt>
      <trkpt lat="48.12709" lon="-3.29953">
        <ele>196.5</ele>
        <time>2024-11-20T08:45:24Z</time>
      </trkpt>
      <trkpt lat="48.12708" lon="-3.29953">
        <ele>196.5</ele>
        <time>2024-11-20T08:45:25Z</time>
      </trkpt>
      <trkpt lat="48.12708" lon="-3.29953">
        <ele>196.5</ele>
        <time>2024-11-20T08:45:26Z</time>
      </trkpt>
      <trkpt lat="48.12708" lon="-3.29952">
        <ele>196.5</ele>
        <time>2024-11-20T08:45:27Z</time>
      </trkpt>
      <trkpt lat="48.12708" lon="-3.2995">
        <ele>196.5</ele>
        <time>2024-11-20T08:45:28Z</time>
      </trkpt>
      <trkpt lat="48.12708" lon="-3.29948">
        <ele>196.5</ele>
        <time>2024-11-20T08:45:29Z</time>
      </trkpt>
      <trkpt lat="48.12708" lon="-3.29947">
        <ele>196.5</ele>
        <time>2024-11-20T08:45:30Z</time>
      </trkpt>
      <trkpt lat="48.12708" lon="-3.29947">
        <ele>196.5</ele>
        <time>2024-11-20T08:45:31Z</time>
      </trkpt>
      <trkpt lat="48.12708" lon="-3.29947">
        <ele>196.5</ele>
        <time>2024-11-20T08:45:32Z</time>
      </trkpt>
      <trkpt lat="48.12708" lon="-3.29948">
        <ele>196.5</ele>
        <time>2024-11-20T08:45:33Z</time>
      </trkpt>
      <trkpt lat="48.12708" lon="-3.29948">
        <ele>196.5</ele>
        <time>2024-11-20T08:45:34Z</time>
      </trkpt>
      <trkpt lat="48.12709" lon="-3.29948">
        <ele>196.5</ele>
        <time>2024-11-20T08:45:35Z</time>
      </trkpt>
      <trkpt lat="48.12709" lon="-3.29948">
        <ele>196.5</ele>
        <time>2024-11-20T08:45:36Z</time>
      </trkpt>
      <trkpt lat="48.12709" lon="-3.29948">
        <ele>196.5</ele>
        <time>2024-11-20T08:45:37Z</time>
      </trkpt>
      <trkpt lat="48.12709" lon="-3.29948">
        <ele>196.5</ele>
        <time>2024-11-20T08:45:38Z</time>
      </trkpt>
      <trkpt lat="48.12709" lon="-3.29948">
        <ele>196.5</ele>
        <time>2024-11-20T08:45:39Z</time>
      </trkpt>
      <trkpt lat="48.12709" lon="-3.29948">
        <ele>196.5</ele>
        <time>2024-11-20T08:45:40Z</time>
      </trkpt>
      <trkpt lat="48.12709" lon="-3.29948">
        <ele>196.5</ele>
        <time>2024-11-20T08:45:41Z</time>
      </trkpt>
      <trkpt lat="48.12709" lon="-3.29948">
        <ele>196.5</ele>
        <time>2024-11-20T08:45:42Z</time>
      </trkpt>
      <trkpt lat="48.12709" lon="-3.29948">
        <ele>196.5</ele>
        <time>2024-11-20T08:45:43Z</time>
      </trkpt>
      <trkpt lat="48.12709" lon="-3.29948">
        <ele>196.5</ele>
        <time>2024-11-20T08:45:44Z</time>
      </trkpt>
      <trkpt lat="48.12709" lon="-3.29948">
        <ele>196.5</ele>
        <time>2024-11-20T08:45:45Z</time>
      </trkpt>
      <trkpt lat="48.12709" lon="-3.29948">
        <ele>196.5</ele>
        <time>2024-11-20T08:45:46Z</time>
      </trkpt>
      <trkpt lat="48.12709" lon="-3.29948">
        <ele>196.5</ele>
        <time>2024-11-20T08:45:47Z</time>
      </trkpt>
      <trkpt lat="48.12709" lon="-3.29948">
        <ele>196.5</ele>
        <time>2024-11-20T08:45:48Z</time>
      </trkpt>
      <trkpt lat="48.12709" lon="-3.29948">
        <ele>196.5</ele>
        <time>2024-11-20T08:45:49Z</time>
      </trkpt>
      <trkpt lat="48.12709" lon="-3.29948">
        <ele>196.5</ele>
        <time>2024-11-20T08:45:50Z</time>
      </trkpt>
      <trkpt lat="48.12709" lon="-3.29948">
        <ele>196.5</ele>
        <time>2024-11-20T08:45:51Z</time>
      </trkpt>
      <trkpt lat="48.12709" lon="-3.29948">
        <ele>196.5</ele>
        <time>2024-11-20T08:45:52Z</time>
      </trkpt>
      <trkpt lat="48.12709" lon="-3.29948">
        <ele>196.5</ele>
        <time>2024-11-20T08:45:53Z</time>
      </trkpt>
      <trkpt lat="48.12709" lon="-3.29948">
        <ele>196.5</ele>
        <time>2024-11-20T08:45:54Z</time>
      </trkpt>
      <trkpt lat="48.12709" lon="-3.29948">
        <ele>196.5</ele>
        <time>2024-11-20T08:45:55Z</time>
      </trkpt>
      <trkpt lat="48.12709" lon="-3.29948">
        <ele>196.5</ele>
        <time>2024-11-20T08:45:56Z</time>
      </trkpt>
      <trkpt lat="48.12709" lon="-3.29948">
        <ele>196.5</ele>
        <time>2024-11-20T08:45:57Z</time>
      </trkpt>
      <trkpt lat="48.12709" lon="-3.29948">
        <ele>196.5</ele>
        <time>2024-11-20T08:45:58Z</time>
      </trkpt>
      <trkpt lat="48.12709" lon="-3.29948">
        <ele>196.5</ele>
        <time>2024-11-20T08:45:59Z</time>
      </trkpt>
      <trkpt lat="48.12709" lon="-3.29948">
        <ele>196.5</ele>
        <time>2024-11-20T08:46:00Z</time>
      </trkpt>
      <trkpt lat="48.12709" lon="-3.29948">
        <ele>196.5</ele>
        <time>2024-11-20T08:46:01Z</time>
      </trkpt>
      <trkpt lat="48.12709" lon="-3.29948">
        <ele>196.5</ele>
        <time>2024-11-20T08:46:02Z</time>
      </trkpt>
      <trkpt lat="48.12709" lon="-3.29948">
        <ele>196.5</ele>
        <time>2024-11-20T08:46:03Z</time>
      </trkpt>
      <trkpt lat="48.12709" lon="-3.29948">
        <ele>196.5</ele>
        <time>2024-11-20T08:46:04Z</time>
      </trkpt>
      <trkpt lat="48.12709" lon="-3.29948">
        <ele>196.5</ele>
        <time>2024-11-20T08:46:05Z</time>
      </trkpt>
      <trkpt lat="48.12709" lon="-3.29948">
        <ele>196.5</ele>
        <time>2024-11-20T08:46:06Z</time>
      </trkpt>
      <trkpt lat="48.12709" lon="-3.29948">
        <ele>196.5</ele>
        <time>2024-11-20T08:46:07Z</time>
      </trkpt>
      <trkpt lat="48.12709" lon="-3.29948">
        <ele>196.5</ele>
        <time>2024-11-20T08:46:08Z</time>
      </trkpt>
      <trkpt lat="48.12709" lon="-3.29948">
        <ele>196.5</ele>
        <time>2024-11-20T08:46:09Z</time>
      </trkpt>
      <trkpt lat="48.12709" lon="-3.29948">
        <ele>196.5</ele>
        <time>2024-11-20T08:46:10Z</time>
      </trkpt>
      <trkpt lat="48.12709" lon="-3.29948">
        <ele>196.5</ele>
        <time>2024-11-20T08:46:11Z</time>
      </trkpt>
      <trkpt lat="48.12709" lon="-3.29948">
        <ele>196.5</ele>
        <time>2024-11-20T08:46:12Z</time>
      </trkpt>
      <trkpt lat="48.12709" lon="-3.29948">
        <ele>196.5</ele>
        <time>2024-11-20T08:46:13Z</time>
      </trkpt>
      <trkpt lat="48.12709" lon="-3.29948">
        <ele>196.5</ele>
        <time>2024-11-20T08:46:14Z</time>
      </trkpt>
      <trkpt lat="48.12709" lon="-3.29948">
        <ele>196.5</ele>
        <time>2024-11-20T08:46:15Z</time>
      </trkpt>
      <trkpt lat="48.12709" lon="-3.29947">
        <ele>196.5</ele>
        <time>2024-11-20T08:46:16Z</time>
      </trkpt>
      <trkpt lat="48.12709" lon="-3.29947">
        <ele>196.5</ele>
        <time>2024-11-20T08:46:17Z</time>
      </trkpt>
      <trkpt lat="48.12709" lon="-3.29947">
        <ele>196.5</ele>
        <time>2024-11-20T08:46:18Z</time>
      </trkpt>
      <trkpt lat="48.12709" lon="-3.29947">
        <ele>196.5</ele>
        <time>2024-11-20T08:46:19Z</time>
      </trkpt>
      <trkpt lat="48.12709" lon="-3.29947">
        <ele>196.5</ele>
        <time>2024-11-20T08:46:20Z</time>
      </trkpt>
      <trkpt lat="48.12709" lon="-3.29947">
        <ele>196.5</ele>
        <time>2024-11-20T08:46:21Z</time>
      </trkpt>
      <trkpt lat="48.12709" lon="-3.29947">
        <ele>196.5</ele>
        <time>2024-11-20T08:46:22Z</time>
      </trkpt>
      <trkpt lat="48.12709" lon="-3.29947">
        <ele>196.5</ele>
        <time>2024-11-20T08:46:23Z</time>
      </trkpt>
      <trkpt lat="48.12709" lon="-3.29947">
        <ele>196.5</ele>
        <time>2024-11-20T08:46:24Z</time>
      </trkpt>
      <trkpt lat="48.12709" lon="-3.29947">
        <ele>196.5</ele>
        <time>2024-11-20T08:46:25Z</time>
      </trkpt>
      <trkpt lat="48.12709" lon="-3.29947">
        <ele>196.5</ele>
        <time>2024-11-20T08:46:26Z</time>
      </trkpt>
      <trkpt lat="48.1271" lon="-3.29948">
        <ele>196.5</ele>
        <time>2024-11-20T08:46:27Z</time>
      </trkpt>
      <trkpt lat="48.1271" lon="-3.29949">
        <ele>196.6</ele>
        <time>2024-11-20T08:46:28Z</time>
      </trkpt>
      <trkpt lat="48.1271" lon="-3.2995">
        <ele>196.6</ele>
        <time>2024-11-20T08:46:29Z</time>
      </trkpt>
      <trkpt lat="48.1271" lon="-3.29951">
        <ele>196.6</ele>
        <time>2024-11-20T08:46:30Z</time>
      </trkpt>
      <trkpt lat="48.1271" lon="-3.29951">
        <ele>196.6</ele>
        <time>2024-11-20T08:46:31Z</time>
      </trkpt>
      <trkpt lat="48.1271" lon="-3.29951">
        <ele>196.6</ele>
        <time>2024-11-20T08:46:32Z</time>
      </trkpt>
      <trkpt lat="48.1271" lon="-3.29951">
        <ele>196.6</ele>
        <time>2024-11-20T08:46:33Z</time>
      </trkpt>
      <trkpt lat="48.12711" lon="-3.29952">
        <ele>196.6</ele>
        <time>2024-11-20T08:46:34Z</time>
      </trkpt>
      <trkpt lat="48.12711" lon="-3.29951">
        <ele>196.6</ele>
        <time>2024-11-20T08:46:35Z</time>
      </trkpt>
      <trkpt lat="48.12711" lon="-3.29951">
        <ele>196.6</ele>
        <time>2024-11-20T08:46:36Z</time>
      </trkpt>
      <trkpt lat="48.12711" lon="-3.29951">
        <ele>196.6</ele>
        <time>2024-11-20T08:46:37Z</time>
      </trkpt>
      <trkpt lat="48.1271" lon="-3.29951">
        <ele>196.6</ele>
        <time>2024-11-20T08:46:38Z</time>
      </trkpt>
      <trkpt lat="48.1271" lon="-3.29951">
        <ele>196.6</ele>
        <time>2024-11-20T08:46:39Z</time>
      </trkpt>
      <trkpt lat="48.1271" lon="-3.2995">
        <ele>196.6</ele>
        <time>2024-11-20T08:46:40Z</time>
      </trkpt>
      <trkpt lat="48.1271" lon="-3.2995">
        <ele>196.6</ele>
        <time>2024-11-20T08:46:41Z</time>
      </trkpt>
      <trkpt lat="48.1271" lon="-3.2995">
        <ele>196.6</ele>
        <time>2024-11-20T08:46:42Z</time>
      </trkpt>
      <trkpt lat="48.1271" lon="-3.2995">
        <ele>196.6</ele>
        <time>2024-11-20T08:46:43Z</time>
      </trkpt>
      <trkpt lat="48.1271" lon="-3.29949">
        <ele>196.6</ele>
        <time>2024-11-20T08:46:44Z</time>
      </trkpt>
      <trkpt lat="48.1271" lon="-3.29949">
        <ele>196.6</ele>
        <time>2024-11-20T08:46:45Z</time>
      </trkpt>
      <trkpt lat="48.1271" lon="-3.29949">
        <ele>196.6</ele>
        <time>2024-11-20T08:46:46Z</time>
      </trkpt>
      <trkpt lat="48.1271" lon="-3.29949">
        <ele>196.6</ele>
        <time>2024-11-20T08:46:47Z</time>
      </trkpt>
      <trkpt lat="48.1271" lon="-3.29949">
        <ele>196.6</ele>
        <time>2024-11-20T08:46:48Z</time>
      </trkpt>
      <trkpt lat="48.1271" lon="-3.29948">
        <ele>196.6</ele>
        <time>2024-11-20T08:46:49Z</time>
      </trkpt>
      <trkpt lat="48.1271" lon="-3.29948">
        <ele>196.6</ele>
        <time>2024-11-20T08:46:50Z</time>
      </trkpt>
      <trkpt lat="48.1271" lon="-3.29948">
        <ele>196.6</ele>
        <time>2024-11-20T08:46:51Z</time>
      </trkpt>
      <trkpt lat="48.1271" lon="-3.29948">
        <ele>196.5</ele>
        <time>2024-11-20T08:46:52Z</time>
      </trkpt>
      <trkpt lat="48.1271" lon="-3.29948">
        <ele>196.5</ele>
        <time>2024-11-20T08:46:53Z</time>
      </trkpt>
      <trkpt lat="48.1271" lon="-3.29948">
        <ele>196.5</ele>
        <time>2024-11-20T08:46:54Z</time>
      </trkpt>
      <trkpt lat="48.1271" lon="-3.29948">
        <ele>196.5</ele>
        <time>2024-11-20T08:46:55Z</time>
      </trkpt>
      <trkpt lat="48.1271" lon="-3.29948">
        <ele>196.5</ele>
        <time>2024-11-20T08:46:56Z</time>
      </trkpt>
      <trkpt lat="48.1271" lon="-3.29948">
        <ele>196.6</ele>
        <time>2024-11-20T08:46:57Z</time>
      </trkpt>
      <trkpt lat="48.1271" lon="-3.29947">
        <ele>196.5</ele>
        <time>2024-11-20T08:46:58Z</time>
      </trkpt>
      <trkpt lat="48.12709" lon="-3.29947">
        <ele>196.5</ele>
        <time>2024-11-20T08:46:59Z</time>
      </trkpt>
      <trkpt lat="48.12709" lon="-3.29947">
        <ele>196.5</ele>
        <time>2024-11-20T08:47:00Z</time>
      </trkpt>
      <trkpt lat="48.12709" lon="-3.29946">
        <ele>196.5</ele>
        <time>2024-11-20T08:47:01Z</time>
      </trkpt>
      <trkpt lat="48.12709" lon="-3.29945">
        <ele>196.5</ele>
        <time>2024-11-20T08:47:02Z</time>
      </trkpt>
      <trkpt lat="48.12708" lon="-3.29944">
        <ele>196.5</ele>
        <time>2024-11-20T08:47:03Z</time>
      </trkpt>
      <trkpt lat="48.12708" lon="-3.29942">
        <ele>196.5</ele>
        <time>2024-11-20T08:47:04Z</time>
      </trkpt>
      <trkpt lat="48.12707" lon="-3.2994">
        <ele>196.5</ele>
        <time>2024-11-20T08:47:05Z</time>
      </trkpt>
      <trkpt lat="48.12707" lon="-3.29939">
        <ele>196.6</ele>
        <time>2024-11-20T08:47:06Z</time>
      </trkpt>
      <trkpt lat="48.12707" lon="-3.29937">
        <ele>196.6</ele>
        <time>2024-11-20T08:47:07Z</time>
      </trkpt>
      <trkpt lat="48.12707" lon="-3.29936">
        <ele>196.7</ele>
        <time>2024-11-20T08:47:08Z</time>
      </trkpt>
      <trkpt lat="48.12706" lon="-3.29934">
        <ele>196.7</ele>
        <time>2024-11-20T08:47:09Z</time>
      </trkpt>
      <trkpt lat="48.12706" lon="-3.29933">
        <ele>196.7</ele>
        <time>2024-11-20T08:47:10Z</time>
      </trkpt>
      <trkpt lat="48.12706" lon="-3.29932">
        <ele>196.8</ele>
        <time>2024-11-20T08:47:11Z</time>
      </trkpt>
      <trkpt lat="48.12707" lon="-3.2993">
        <ele>196.8</ele>
        <time>2024-11-20T08:47:12Z</time>
      </trkpt>
      <trkpt lat="48.12706" lon="-3.29928">
        <ele>196.9</ele>
        <time>2024-11-20T08:47:13Z</time>
      </trkpt>
      <trkpt lat="48.12706" lon="-3.29926">
        <ele>196.9</ele>
        <time>2024-11-20T08:47:14Z</time>
      </trkpt>
      <trkpt lat="48.12706" lon="-3.29925">
        <ele>196.9</ele>
        <time>2024-11-20T08:47:15Z</time>
      </trkpt>
      <trkpt lat="48.12706" lon="-3.29923">
        <ele>197</ele>
        <time>2024-11-20T08:47:16Z</time>
      </trkpt>
      <trkpt lat="48.12707" lon="-3.29922">
        <ele>197</ele>
        <time>2024-11-20T08:47:17Z</time>
      </trkpt>
      <trkpt lat="48.12707" lon="-3.29921">
        <ele>197</ele>
        <time>2024-11-20T08:47:18Z</time>
      </trkpt>
      <trkpt lat="48.12708" lon="-3.29919">
        <ele>197</ele>
        <time>2024-11-20T08:47:19Z</time>
      </trkpt>
      <trkpt lat="48.12708" lon="-3.29917">
        <ele>197</ele>
        <time>2024-11-20T08:47:20Z</time>
      </trkpt>
      <trkpt lat="48.12709" lon="-3.29916">
        <ele>197.1</ele>
        <time>2024-11-20T08:47:21Z</time>
      </trkpt>
      <trkpt lat="48.1271" lon="-3.29914">
        <ele>197.2</ele>
        <time>2024-11-20T08:47:22Z</time>
      </trkpt>
      <trkpt lat="48.1271" lon="-3.29912">
        <ele>197.3</ele>
        <time>2024-11-20T08:47:23Z</time>
      </trkpt>
      <trkpt lat="48.12711" lon="-3.29911">
        <ele>197.4</ele>
        <time>2024-11-20T08:47:24Z</time>
      </trkpt>
      <trkpt lat="48.12712" lon="-3.29909">
        <ele>197.5</ele>
        <time>2024-11-20T08:47:25Z</time>
      </trkpt>
      <trkpt lat="48.12712" lon="-3.29908">
        <ele>197.6</ele>
        <time>2024-11-20T08:47:26Z</time>
      </trkpt>
      <trkpt lat="48.12713" lon="-3.29907">
        <ele>197.7</ele>
        <time>2024-11-20T08:47:27Z</time>
      </trkpt>
      <trkpt lat="48.12713" lon="-3.29906">
        <ele>197.7</ele>
        <time>2024-11-20T08:47:28Z</time>
      </trkpt>
      <trkpt lat="48.12712" lon="-3.29906">
        <ele>197.8</ele>
        <time>2024-11-20T08:47:29Z</time>
      </trkpt>
      <trkpt lat="48.12711" lon="-3.29906">
        <ele>197.9</ele>
        <time>2024-11-20T08:47:30Z</time>
      </trkpt>
      <trkpt lat="48.12711" lon="-3.29905">
        <ele>198</ele>
        <time>2024-11-20T08:47:31Z</time>
      </trkpt>
      <trkpt lat="48.12711" lon="-3.29905">
        <ele>198.1</ele>
        <time>2024-11-20T08:47:32Z</time>
      </trkpt>
      <trkpt lat="48.1271" lon="-3.29905">
        <ele>198.1</ele>
        <time>2024-11-20T08:47:33Z</time>
      </trkpt>
      <trkpt lat="48.1271" lon="-3.29905">
        <ele>198.1</ele>
        <time>2024-11-20T08:47:34Z</time>
      </trkpt>
      <trkpt lat="48.1271" lon="-3.29905">
        <ele>198.1</ele>
        <time>2024-11-20T08:47:35Z</time>
      </trkpt>
      <trkpt lat="48.1271" lon="-3.29904">
        <ele>198.2</ele>
        <time>2024-11-20T08:47:36Z</time>
      </trkpt>
      <trkpt lat="48.1271" lon="-3.29904">
        <ele>198.2</ele>
        <time>2024-11-20T08:47:37Z</time>
      </trkpt>
      <trkpt lat="48.12709" lon="-3.29904">
        <ele>198.3</ele>
        <time>2024-11-20T08:47:38Z</time>
      </trkpt>
      <trkpt lat="48.12709" lon="-3.29903">
        <ele>198.4</ele>
        <time>2024-11-20T08:47:39Z</time>
      </trkpt>
      <trkpt lat="48.12708" lon="-3.29903">
        <ele>198.5</ele>
        <time>2024-11-20T08:47:40Z</time>
      </trkpt>
      <trkpt lat="48.12707" lon="-3.29902">
        <ele>198.7</ele>
        <time>2024-11-20T08:47:41Z</time>
      </trkpt>
      <trkpt lat="48.12707" lon="-3.29902">
        <ele>198.8</ele>
        <time>2024-11-20T08:47:42Z</time>
      </trkpt>
      <trkpt lat="48.12706" lon="-3.29901">
        <ele>198.9</ele>
        <time>2024-11-20T08:47:43Z</time>
      </trkpt>
      <trkpt lat="48.12705" lon="-3.29901">
        <ele>199.1</ele>
        <time>2024-11-20T08:47:44Z</time>
      </trkpt>
      <trkpt lat="48.12705" lon="-3.29901">
        <ele>199.1</ele>
        <time>2024-11-20T08:47:45Z</time>
      </trkpt>
      <trkpt lat="48.12705" lon="-3.29901">
        <ele>199.2</ele>
        <time>2024-11-20T08:47:46Z</time>
      </trkpt>
      <trkpt lat="48.12705" lon="-3.29901">
        <ele>199.2</ele>
        <time>2024-11-20T08:47:47Z</time>
      </trkpt>
      <trkpt lat="48.12705" lon="-3.29901">
        <ele>199.2</ele>
        <time>2024-11-20T08:47:48Z</time>
      </trkpt>
      <trkpt lat="48.12704" lon="-3.29901">
        <ele>199.2</ele>
        <time>2024-11-20T08:47:49Z</time>
      </trkpt>
      <trkpt lat="48.12704" lon="-3.299">
        <ele>199.3</ele>
        <time>2024-11-20T08:47:50Z</time>
      </trkpt>
      <trkpt lat="48.12703" lon="-3.299">
        <ele>199.4</ele>
        <time>2024-11-20T08:47:51Z</time>
      </trkpt>
      <trkpt lat="48.12703" lon="-3.299">
        <ele>199.5</ele>
        <time>2024-11-20T08:47:52Z</time>
      </trkpt>
      <trkpt lat="48.12703" lon="-3.299">
        <ele>199.5</ele>
        <time>2024-11-20T08:47:53Z</time>
      </trkpt>
      <trkpt lat="48.12703" lon="-3.299">
        <ele>199.5</ele>
        <time>2024-11-20T08:47:54Z</time>
      </trkpt>
      <trkpt lat="48.12702" lon="-3.29899">
        <ele>199.6</ele>
        <time>2024-11-20T08:47:55Z</time>
      </trkpt>
      <trkpt lat="48.12702" lon="-3.29899">
        <ele>199.6</ele>
        <time>2024-11-20T08:47:56Z</time>
      </trkpt>
      <trkpt lat="48.12702" lon="-3.29899">
        <ele>199.6</ele>
        <time>2024-11-20T08:47:57Z</time>
      </trkpt>
      <trkpt lat="48.12702" lon="-3.29899">
        <ele>199.6</ele>
        <time>2024-11-20T08:47:58Z</time>
      </trkpt>
      <trkpt lat="48.12702" lon="-3.29899">
        <ele>199.6</ele>
        <time>2024-11-20T08:47:59Z</time>
      </trkpt>
      <trkpt lat="48.12702" lon="-3.29899">
        <ele>199.6</ele>
        <time>2024-11-20T08:48:00Z</time>
      </trkpt>
      <trkpt lat="48.12703" lon="-3.29899">
        <ele>199.5</ele>
        <time>2024-11-20T08:48:01Z</time>
      </trkpt>
      <trkpt lat="48.12703" lon="-3.29899">
        <ele>199.5</ele>
        <time>2024-11-20T08:48:02Z</time>
      </trkpt>
      <trkpt lat="48.12703" lon="-3.29899">
        <ele>199.5</ele>
        <time>2024-11-20T08:48:03Z</time>
      </trkpt>
      <trkpt lat="48.12703" lon="-3.299">
        <ele>199.4</ele>
        <time>2024-11-20T08:48:04Z</time>
      </trkpt>
      <trkpt lat="48.12703" lon="-3.299">
        <ele>199.4</ele>
        <time>2024-11-20T08:48:05Z</time>
      </trkpt>
      <trkpt lat="48.12703" lon="-3.299">
        <ele>199.4</ele>
        <time>2024-11-20T08:48:06Z</time>
      </trkpt>
      <trkpt lat="48.12703" lon="-3.299">
        <ele>199.4</ele>
        <time>2024-11-20T08:48:07Z</time>
      </trkpt>
      <trkpt lat="48.12703" lon="-3.299">
        <ele>199.4</ele>
        <time>2024-11-20T08:48:08Z</time>
      </trkpt>
      <trkpt lat="48.12703" lon="-3.299">
        <ele>199.4</ele>
        <time>2024-11-20T08:48:09Z</time>
      </trkpt>
      <trkpt lat="48.12703" lon="-3.299">
        <ele>199.5</ele>
        <time>2024-11-20T08:48:10Z</time>
      </trkpt>
      <trkpt lat="48.12703" lon="-3.29899">
        <ele>199.6</ele>
        <time>2024-11-20T08:48:11Z</time>
      </trkpt>
      <trkpt lat="48.12702" lon="-3.29898">
        <ele>199.7</ele>
        <time>2024-11-20T08:48:12Z</time>
      </trkpt>
      <trkpt lat="48.12702" lon="-3.29898">
        <ele>199.8</ele>
        <time>2024-11-20T08:48:13Z</time>
      </trkpt>
      <trkpt lat="48.12702" lon="-3.29898">
        <ele>199.8</ele>
        <time>2024-11-20T08:48:14Z</time>
      </trkpt>
      <trkpt lat="48.12702" lon="-3.29898">
        <ele>199.8</ele>
        <time>2024-11-20T08:48:15Z</time>
      </trkpt>
      <trkpt lat="48.12702" lon="-3.29898">
        <ele>199.8</ele>
        <time>2024-11-20T08:48:16Z</time>
      </trkpt>
      <trkpt lat="48.12702" lon="-3.29898">
        <ele>199.8</ele>
        <time>2024-11-20T08:48:17Z</time>
      </trkpt>
      <trkpt lat="48.12702" lon="-3.29898">
        <ele>199.8</ele>
        <time>2024-11-20T08:48:18Z</time>
      </trkpt>
      <trkpt lat="48.12702" lon="-3.29898">
        <ele>199.8</ele>
        <time>2024-11-20T08:48:19Z</time>
      </trkpt>
      <trkpt lat="48.12702" lon="-3.29898">
        <ele>199.8</ele>
        <time>2024-11-20T08:48:20Z</time>
      </trkpt>
      <trkpt lat="48.12702" lon="-3.29898">
        <ele>199.8</ele>
        <time>2024-11-20T08:48:21Z</time>
      </trkpt>
      <trkpt lat="48.12702" lon="-3.29898">
        <ele>199.8</ele>
        <time>2024-11-20T08:48:22Z</time>
      </trkpt>
      <trkpt lat="48.12702" lon="-3.29898">
        <ele>199.8</ele>
        <time>2024-11-20T08:48:23Z</time>
      </trkpt>
      <trkpt lat="48.12702" lon="-3.29898">
        <ele>199.8</ele>
        <time>2024-11-20T08:48:24Z</time>
      </trkpt>
      <trkpt lat="48.12701" lon="-3.29898">
        <ele>199.8</ele>
        <time>2024-11-20T08:48:25Z</time>
      </trkpt>
      <trkpt lat="48.12701" lon="-3.29899">
        <ele>199.8</ele>
        <time>2024-11-20T08:48:26Z</time>
      </trkpt>
      <trkpt lat="48.12701" lon="-3.29899">
        <ele>199.8</ele>
        <time>2024-11-20T08:48:27Z</time>
      </trkpt>
      <trkpt lat="48.12701" lon="-3.29899">
        <ele>199.8</ele>
        <time>2024-11-20T08:48:28Z</time>
      </trkpt>
      <trkpt lat="48.12701" lon="-3.29899">
        <ele>199.8</ele>
        <time>2024-11-20T08:48:29Z</time>
      </trkpt>
      <trkpt lat="48.12701" lon="-3.299">
        <ele>199.7</ele>
        <time>2024-11-20T08:48:30Z</time>
      </trkpt>
      <trkpt lat="48.127" lon="-3.299">
        <ele>199.7</ele>
        <time>2024-11-20T08:48:31Z</time>
      </trkpt>
      <trkpt lat="48.127" lon="-3.299">
        <ele>199.8</ele>
        <time>2024-11-20T08:48:32Z</time>
      </trkpt>
      <trkpt lat="48.127" lon="-3.299">
        <ele>199.8</ele>
        <time>2024-11-20T08:48:33Z</time>
      </trkpt>
      <trkpt lat="48.12699" lon="-3.299">
        <ele>199.9</ele>
        <time>2024-11-20T08:48:34Z</time>
      </trkpt>
      <trkpt lat="48.12699" lon="-3.299">
        <ele>199.9</ele>
        <time>2024-11-20T08:48:35Z</time>
      </trkpt>
      <trkpt lat="48.12699" lon="-3.29899">
        <ele>199.9</ele>
        <time>2024-11-20T08:48:36Z</time>
      </trkpt>
      <trkpt lat="48.12699" lon="-3.29899">
        <ele>200</ele>
        <time>2024-11-20T08:48:37Z</time>
      </trkpt>
      <trkpt lat="48.12699" lon="-3.29899">
        <ele>200</ele>
        <time>2024-11-20T08:48:38Z</time>
      </trkpt>
      <trkpt lat="48.127" lon="-3.29899">
        <ele>199.9</ele>
        <time>2024-11-20T08:48:39Z</time>
      </trkpt>
      <trkpt lat="48.127" lon="-3.29899">
        <ele>199.9</ele>
        <time>2024-11-20T08:48:40Z</time>
      </trkpt>
      <trkpt lat="48.127" lon="-3.29899">
        <ele>199.9</ele>
        <time>2024-11-20T08:48:41Z</time>
      </trkpt>
      <trkpt lat="48.127" lon="-3.29899">
        <ele>199.9</ele>
        <time>2024-11-20T08:48:42Z</time>
      </trkpt>
      <trkpt lat="48.127" lon="-3.29899">
        <ele>199.9</ele>
        <time>2024-11-20T08:48:43Z</time>
      </trkpt>
      <trkpt lat="48.127" lon="-3.29899">
        <ele>199.9</ele>
        <time>2024-11-20T08:48:44Z</time>
      </trkpt>
      <trkpt lat="48.127" lon="-3.29899">
        <ele>199.9</ele>
        <time>2024-11-20T08:48:45Z</time>
      </trkpt>
      <trkpt lat="48.127" lon="-3.29899">
        <ele>199.9</ele>
        <time>2024-11-20T08:48:46Z</time>
      </trkpt>
      <trkpt lat="48.127" lon="-3.29899">
        <ele>199.9</ele>
        <time>2024-11-20T08:48:47Z</time>
      </trkpt>
      <trkpt lat="48.127" lon="-3.29899">
        <ele>199.9</ele>
        <time>2024-11-20T08:48:48Z</time>
      </trkpt>
      <trkpt lat="48.12699" lon="-3.29899">
        <ele>200</ele>
        <time>2024-11-20T08:48:49Z</time>
      </trkpt>
      <trkpt lat="48.12699" lon="-3.29898">
        <ele>200.1</ele>
        <time>2024-11-20T08:48:50Z</time>
      </trkpt>
      <trkpt lat="48.12699" lon="-3.29898">
        <ele>200.2</ele>
        <time>2024-11-20T08:48:51Z</time>
      </trkpt>
      <trkpt lat="48.12699" lon="-3.29897">
        <ele>200.3</ele>
        <time>2024-11-20T08:48:52Z</time>
      </trkpt>
      <trkpt lat="48.12699" lon="-3.29897">
        <ele>200.3</ele>
        <time>2024-11-20T08:48:53Z</time>
      </trkpt>
      <trkpt lat="48.12699" lon="-3.29897">
        <ele>200.4</ele>
        <time>2024-11-20T08:48:54Z</time>
      </trkpt>
      <trkpt lat="48.12699" lon="-3.29896">
        <ele>200.4</ele>
        <time>2024-11-20T08:48:55Z</time>
      </trkpt>
      <trkpt lat="48.12699" lon="-3.29896">
        <ele>200.4</ele>
        <time>2024-11-20T08:48:56Z</time>
      </trkpt>
      <trkpt lat="48.127" lon="-3.29895">
        <ele>200.4</ele>
        <time>2024-11-20T08:48:57Z</time>
      </trkpt>
      <trkpt lat="48.127" lon="-3.29895">
        <ele>200.4</ele>
        <time>2024-11-20T08:48:58Z</time>
      </trkpt>
      <trkpt lat="48.127" lon="-3.29895">
        <ele>200.5</ele>
        <time>2024-11-20T08:48:59Z</time>
      </trkpt>
      <trkpt lat="48.127" lon="-3.29894">
        <ele>200.6</ele>
        <time>2024-11-20T08:49:00Z</time>
      </trkpt>
      <trkpt lat="48.127" lon="-3.29893">
        <ele>200.7</ele>
        <time>2024-11-20T08:49:01Z</time>
      </trkpt>
      <trkpt lat="48.127" lon="-3.29893">
        <ele>200.7</ele>
        <time>2024-11-20T08:49:02Z</time>
      </trkpt>
      <trkpt lat="48.127" lon="-3.29892">
        <ele>200.7</ele>
        <time>2024-11-20T08:49:03Z</time>
      </trkpt>
      <trkpt lat="48.12701" lon="-3.29892">
        <ele>200.7</ele>
        <time>2024-11-20T08:49:04Z</time>
      </trkpt>
      <trkpt lat="48.12701" lon="-3.29892">
        <ele>200.8</ele>
        <time>2024-11-20T08:49:05Z</time>
      </trkpt>
      <trkpt lat="48.12701" lon="-3.29891">
        <ele>200.8</ele>
        <time>2024-11-20T08:49:06Z</time>
      </trkpt>
      <trkpt lat="48.12701" lon="-3.29891">
        <ele>200.9</ele>
        <time>2024-11-20T08:49:07Z</time>
      </trkpt>
      <trkpt lat="48.12701" lon="-3.29891">
        <ele>200.9</ele>
        <time>2024-11-20T08:49:08Z</time>
      </trkpt>
      <trkpt lat="48.12701" lon="-3.2989">
        <ele>200.9</ele>
        <time>2024-11-20T08:49:09Z</time>
      </trkpt>
      <trkpt lat="48.12701" lon="-3.2989">
        <ele>200.9</ele>
        <time>2024-11-20T08:49:10Z</time>
      </trkpt>
      <trkpt lat="48.12701" lon="-3.29889">
        <ele>201</ele>
        <time>2024-11-20T08:49:11Z</time>
      </trkpt>
      <trkpt lat="48.12701" lon="-3.29888">
        <ele>201.1</ele>
        <time>2024-11-20T08:49:12Z</time>
      </trkpt>
      <trkpt lat="48.12701" lon="-3.29888">
        <ele>201.2</ele>
        <time>2024-11-20T08:49:13Z</time>
      </trkpt>
      <trkpt lat="48.127" lon="-3.29887">
        <ele>201.3</ele>
        <time>2024-11-20T08:49:14Z</time>
      </trkpt>
      <trkpt lat="48.127" lon="-3.29887">
        <ele>201.4</ele>
        <time>2024-11-20T08:49:15Z</time>
      </trkpt>
      <trkpt lat="48.127" lon="-3.29887">
        <ele>201.5</ele>
        <time>2024-11-20T08:49:16Z</time>
      </trkpt>
      <trkpt lat="48.12699" lon="-3.29886">
        <ele>201.6</ele>
        <time>2024-11-20T08:49:17Z</time>
      </trkpt>
      <trkpt lat="48.12699" lon="-3.29885">
        <ele>201.7</ele>
        <time>2024-11-20T08:49:18Z</time>
      </trkpt>
      <trkpt lat="48.12699" lon="-3.29885">
        <ele>201.8</ele>
        <time>2024-11-20T08:49:19Z</time>
      </trkpt>
      <trkpt lat="48.12699" lon="-3.29884">
        <ele>201.9</ele>
        <time>2024-11-20T08:49:20Z</time>
      </trkpt>
      <trkpt lat="48.12698" lon="-3.29884">
        <ele>201.9</ele>
        <time>2024-11-20T08:49:21Z</time>
      </trkpt>
      <trkpt lat="48.12699" lon="-3.29884">
        <ele>202</ele>
        <time>2024-11-20T08:49:22Z</time>
      </trkpt>
      <trkpt lat="48.12698" lon="-3.29884">
        <ele>202</ele>
        <time>2024-11-20T08:49:23Z</time>
      </trkpt>
      <trkpt lat="48.12698" lon="-3.29883">
        <ele>202.1</ele>
        <time>2024-11-20T08:49:24Z</time>
      </trkpt>
      <trkpt lat="48.12698" lon="-3.29883">
        <ele>202.1</ele>
        <time>2024-11-20T08:49:25Z</time>
      </trkpt>
      <trkpt lat="48.12698" lon="-3.29883">
        <ele>202.1</ele>
        <time>2024-11-20T08:49:26Z</time>
      </trkpt>
      <trkpt lat="48.12698" lon="-3.29883">
        <ele>202.2</ele>
        <time>2024-11-20T08:49:27Z</time>
      </trkpt>
      <trkpt lat="48.12698" lon="-3.29883">
        <ele>202.2</ele>
        <time>2024-11-20T08:49:28Z</time>
      </trkpt>
      <trkpt lat="48.12698" lon="-3.29883">
        <ele>202.2</ele>
        <time>2024-11-20T08:49:29Z</time>
      </trkpt>
      <trkpt lat="48.12697" lon="-3.29883">
        <ele>202.3</ele>
        <time>2024-11-20T08:49:30Z</time>
      </trkpt>
      <trkpt lat="48.12696" lon="-3.29883">
        <ele>202.4</ele>
        <time>2024-11-20T08:49:31Z</time>
      </trkpt>
      <trkpt lat="48.12696" lon="-3.29882">
        <ele>202.5</ele>
        <time>2024-11-20T08:49:32Z</time>
      </trkpt>
      <trkpt lat="48.12695" lon="-3.29881">
        <ele>202.8</ele>
        <time>2024-11-20T08:49:33Z</time>
      </trkpt>
      <trkpt lat="48.12694" lon="-3.29879">
        <ele>203.2</ele>
        <time>2024-11-20T08:49:34Z</time>
      </trkpt>
      <trkpt lat="48.12693" lon="-3.29877">
        <ele>203.5</ele>
        <time>2024-11-20T08:49:35Z</time>
      </trkpt>
      <trkpt lat="48.12692" lon="-3.29876">
        <ele>203.7</ele>
        <time>2024-11-20T08:49:36Z</time>
      </trkpt>
      <trkpt lat="48.12691" lon="-3.29875">
        <ele>204</ele>
        <time>2024-11-20T08:49:37Z</time>
      </trkpt>
      <trkpt lat="48.12691" lon="-3.29872">
        <ele>204.5</ele>
        <time>2024-11-20T08:49:38Z</time>
      </trkpt>
      <trkpt lat="48.1269" lon="-3.29869">
        <ele>204.9</ele>
        <time>2024-11-20T08:49:39Z</time>
      </trkpt>
      <trkpt lat="48.1269" lon="-3.29868">
        <ele>205.1</ele>
        <time>2024-11-20T08:49:40Z</time>
      </trkpt>
      <trkpt lat="48.1269" lon="-3.29867">
        <ele>205.2</ele>
        <time>2024-11-20T08:49:41Z</time>
      </trkpt>
      <trkpt lat="48.1269" lon="-3.29867">
        <ele>205.3</ele>
        <time>2024-11-20T08:49:42Z</time>
      </trkpt>
      <trkpt lat="48.12689" lon="-3.29866">
        <ele>205.5</ele>
        <time>2024-11-20T08:49:43Z</time>
      </trkpt>
      <trkpt lat="48.12689" lon="-3.29865">
        <ele>205.5</ele>
        <time>2024-11-20T08:49:44Z</time>
      </trkpt>
      <trkpt lat="48.12689" lon="-3.29865">
        <ele>205.7</ele>
        <time>2024-11-20T08:49:45Z</time>
      </trkpt>
      <trkpt lat="48.12688" lon="-3.29864">
        <ele>205.8</ele>
        <time>2024-11-20T08:49:46Z</time>
      </trkpt>
      <trkpt lat="48.12687" lon="-3.29864">
        <ele>206.2</ele>
        <time>2024-11-20T08:49:47Z</time>
      </trkpt>
      <trkpt lat="48.12686" lon="-3.29863">
        <ele>206.5</ele>
        <time>2024-11-20T08:49:48Z</time>
      </trkpt>
      <trkpt lat="48.12686" lon="-3.29863">
        <ele>206.7</ele>
        <time>2024-11-20T08:49:49Z</time>
      </trkpt>
      <trkpt lat="48.12685" lon="-3.29862">
        <ele>207</ele>
        <time>2024-11-20T08:49:50Z</time>
      </trkpt>
      <trkpt lat="48.12684" lon="-3.29862">
        <ele>207.3</ele>
        <time>2024-11-20T08:49:51Z</time>
      </trkpt>
      <trkpt lat="48.12683" lon="-3.29861">
        <ele>207.4</ele>
        <time>2024-11-20T08:49:52Z</time>
      </trkpt>
      <trkpt lat="48.12683" lon="-3.29861">
        <ele>207.5</ele>
        <time>2024-11-20T08:49:53Z</time>
      </trkpt>
      <trkpt lat="48.12683" lon="-3.29861">
        <ele>207.6</ele>
        <time>2024-11-20T08:49:54Z</time>
      </trkpt>
      <trkpt lat="48.12682" lon="-3.29861">
        <ele>207.6</ele>
        <time>2024-11-20T08:49:55Z</time>
      </trkpt>
      <trkpt lat="48.12682" lon="-3.29861">
        <ele>207.7</ele>
        <time>2024-11-20T08:49:56Z</time>
      </trkpt>
      <trkpt lat="48.12682" lon="-3.29861">
        <ele>207.8</ele>
        <time>2024-11-20T08:49:57Z</time>
      </trkpt>
      <trkpt lat="48.12682" lon="-3.29861">
        <ele>207.9</ele>
        <time>2024-11-20T08:49:58Z</time>
      </trkpt>
      <trkpt lat="48.12681" lon="-3.29861">
        <ele>207.9</ele>
        <time>2024-11-20T08:49:59Z</time>
      </trkpt>
      <trkpt lat="48.12681" lon="-3.29861">
        <ele>208</ele>
        <time>2024-11-20T08:50:00Z</time>
      </trkpt>
      <trkpt lat="48.12681" lon="-3.29861">
        <ele>208</ele>
        <time>2024-11-20T08:50:01Z</time>
      </trkpt>
      <trkpt lat="48.12681" lon="-3.29861">
        <ele>208.1</ele>
        <time>2024-11-20T08:50:02Z</time>
      </trkpt>
      <trkpt lat="48.1268" lon="-3.29861">
        <ele>208.2</ele>
        <time>2024-11-20T08:50:03Z</time>
      </trkpt>
      <trkpt lat="48.1268" lon="-3.29861">
        <ele>208.2</ele>
        <time>2024-11-20T08:50:04Z</time>
      </trkpt>
      <trkpt lat="48.1268" lon="-3.29861">
        <ele>208.2</ele>
        <time>2024-11-20T08:50:05Z</time>
      </trkpt>
      <trkpt lat="48.1268" lon="-3.29862">
        <ele>208.1</ele>
        <time>2024-11-20T08:50:06Z</time>
      </trkpt>
      <trkpt lat="48.12679" lon="-3.29862">
        <ele>208.2</ele>
        <time>2024-11-20T08:50:07Z</time>
      </trkpt>
      <trkpt lat="48.12679" lon="-3.29862">
        <ele>208.4</ele>
        <time>2024-11-20T08:50:08Z</time>
      </trkpt>
      <trkpt lat="48.12678" lon="-3.29862">
        <ele>208.4</ele>
        <time>2024-11-20T08:50:09Z</time>
      </trkpt>
      <trkpt lat="48.12677" lon="-3.29862">
        <ele>208.6</ele>
        <time>2024-11-20T08:50:10Z</time>
      </trkpt>
      <trkpt lat="48.12676" lon="-3.29862">
        <ele>208.9</ele>
        <time>2024-11-20T08:50:11Z</time>
      </trkpt>
      <trkpt lat="48.12675" lon="-3.29861">
        <ele>209.3</ele>
        <time>2024-11-20T08:50:12Z</time>
      </trkpt>
      <trkpt lat="48.12674" lon="-3.2986">
        <ele>209.6</ele>
        <time>2024-11-20T08:50:13Z</time>
      </trkpt>
      <trkpt lat="48.12673" lon="-3.2986">
        <ele>209.8</ele>
        <time>2024-11-20T08:50:14Z</time>
      </trkpt>
      <trkpt lat="48.12673" lon="-3.29859">
        <ele>210</ele>
        <time>2024-11-20T08:50:15Z</time>
      </trkpt>
      <trkpt lat="48.12672" lon="-3.29859">
        <ele>210.2</ele>
        <time>2024-11-20T08:50:16Z</time>
      </trkpt>
      <trkpt lat="48.12671" lon="-3.29859">
        <ele>210.3</ele>
        <time>2024-11-20T08:50:17Z</time>
      </trkpt>
      <trkpt lat="48.1267" lon="-3.29859">
        <ele>210.5</ele>
        <time>2024-11-20T08:50:18Z</time>
      </trkpt>
      <trkpt lat="48.1267" lon="-3.29859">
        <ele>210.7</ele>
        <time>2024-11-20T08:50:19Z</time>
      </trkpt>
      <trkpt lat="48.12669" lon="-3.29859">
        <ele>210.9</ele>
        <time>2024-11-20T08:50:20Z</time>
      </trkpt>
      <trkpt lat="48.12669" lon="-3.29859">
        <ele>210.9</ele>
        <time>2024-11-20T08:50:21Z</time>
      </trkpt>
      <trkpt lat="48.12668" lon="-3.2986">
        <ele>211</ele>
        <time>2024-11-20T08:50:22Z</time>
      </trkpt>
      <trkpt lat="48.12668" lon="-3.2986">
        <ele>211</ele>
        <time>2024-11-20T08:50:23Z</time>
      </trkpt>
      <trkpt lat="48.12667" lon="-3.2986">
        <ele>211</ele>
        <time>2024-11-20T08:50:24Z</time>
      </trkpt>
      <trkpt lat="48.12667" lon="-3.29861">
        <ele>211</ele>
        <time>2024-11-20T08:50:25Z</time>
      </trkpt>
      <trkpt lat="48.12666" lon="-3.29861">
        <ele>211</ele>
        <time>2024-11-20T08:50:26Z</time>
      </trkpt>
      <trkpt lat="48.12666" lon="-3.29862">
        <ele>210.8</ele>
        <time>2024-11-20T08:50:27Z</time>
      </trkpt>
      <trkpt lat="48.12666" lon="-3.29863">
        <ele>210.5</ele>
        <time>2024-11-20T08:50:28Z</time>
      </trkpt>
      <trkpt lat="48.12665" lon="-3.29864">
        <ele>210.3</ele>
        <time>2024-11-20T08:50:29Z</time>
      </trkpt>
      <trkpt lat="48.12665" lon="-3.29865">
        <ele>210.1</ele>
        <time>2024-11-20T08:50:30Z</time>
      </trkpt>
      <trkpt lat="48.12665" lon="-3.29865">
        <ele>210</ele>
        <time>2024-11-20T08:50:31Z</time>
      </trkpt>
      <trkpt lat="48.12665" lon="-3.29866">
        <ele>209.9</ele>
        <time>2024-11-20T08:50:32Z</time>
      </trkpt>
      <trkpt lat="48.12665" lon="-3.29866">
        <ele>209.8</ele>
        <time>2024-11-20T08:50:33Z</time>
      </trkpt>
      <trkpt lat="48.12664" lon="-3.29866">
        <ele>209.9</ele>
        <time>2024-11-20T08:50:34Z</time>
      </trkpt>
      <trkpt lat="48.12665" lon="-3.29866">
        <ele>209.9</ele>
        <time>2024-11-20T08:50:35Z</time>
      </trkpt>
      <trkpt lat="48.12665" lon="-3.29866">
        <ele>209.8</ele>
        <time>2024-11-20T08:50:36Z</time>
      </trkpt>
      <trkpt lat="48.12665" lon="-3.29866">
        <ele>209.8</ele>
        <time>2024-11-20T08:50:37Z</time>
      </trkpt>
      <trkpt lat="48.12665" lon="-3.29867">
        <ele>209.7</ele>
        <time>2024-11-20T08:50:38Z</time>
      </trkpt>
      <trkpt lat="48.12665" lon="-3.29867">
        <ele>209.6</ele>
        <time>2024-11-20T08:50:39Z</time>
      </trkpt>
      <trkpt lat="48.12665" lon="-3.29867">
        <ele>209.6</ele>
        <time>2024-11-20T08:50:40Z</time>
      </trkpt>
      <trkpt lat="48.12665" lon="-3.29867">
        <ele>209.5</ele>
        <time>2024-11-20T08:50:41Z</time>
      </trkpt>
      <trkpt lat="48.12665" lon="-3.29867">
        <ele>209.5</ele>
        <time>2024-11-20T08:50:42Z</time>
      </trkpt>
      <trkpt lat="48.12665" lon="-3.29867">
        <ele>209.5</ele>
        <time>2024-11-20T08:50:43Z</time>
      </trkpt>
      <trkpt lat="48.12665" lon="-3.29867">
        <ele>209.5</ele>
        <time>2024-11-20T08:50:44Z</time>
      </trkpt>
      <trkpt lat="48.12665" lon="-3.29867">
        <ele>209.6</ele>
        <time>2024-11-20T08:50:45Z</time>
      </trkpt>
      <trkpt lat="48.12665" lon="-3.29867">
        <ele>209.6</ele>
        <time>2024-11-20T08:50:46Z</time>
      </trkpt>
      <trkpt lat="48.12665" lon="-3.29867">
        <ele>209.6</ele>
        <time>2024-11-20T08:50:47Z</time>
      </trkpt>
      <trkpt lat="48.12665" lon="-3.29867">
        <ele>209.6</ele>
        <time>2024-11-20T08:50:48Z</time>
      </trkpt>
      <trkpt lat="48.12665" lon="-3.29867">
        <ele>209.6</ele>
        <time>2024-11-20T08:50:49Z</time>
      </trkpt>
      <trkpt lat="48.12665" lon="-3.29867">
        <ele>209.5</ele>
        <time>2024-11-20T08:50:50Z</time>
      </trkpt>
      <trkpt lat="48.12665" lon="-3.29867">
        <ele>209.5</ele>
        <time>2024-11-20T08:50:51Z</time>
      </trkpt>
      <trkpt lat="48.12665" lon="-3.29867">
        <ele>209.5</ele>
        <time>2024-11-20T08:50:52Z</time>
      </trkpt>
      <trkpt lat="48.12665" lon="-3.29867">
        <ele>209.5</ele>
        <time>2024-11-20T08:50:53Z</time>
      </trkpt>
      <trkpt lat="48.12665" lon="-3.29867">
        <ele>209.5</ele>
        <time>2024-11-20T08:50:54Z</time>
      </trkpt>
      <trkpt lat="48.12665" lon="-3.29867">
        <ele>209.5</ele>
        <time>2024-11-20T08:50:55Z</time>
      </trkpt>
      <trkpt lat="48.12665" lon="-3.29867">
        <ele>209.6</ele>
        <time>2024-11-20T08:50:56Z</time>
      </trkpt>
      <trkpt lat="48.12665" lon="-3.29867">
        <ele>209.7</ele>
        <time>2024-11-20T08:50:57Z</time>
      </trkpt>
      <trkpt lat="48.12665" lon="-3.29866">
        <ele>209.7</ele>
        <time>2024-11-20T08:50:58Z</time>
      </trkpt>
      <trkpt lat="48.12665" lon="-3.29866">
        <ele>209.8</ele>
        <time>2024-11-20T08:50:59Z</time>
      </trkpt>
      <trkpt lat="48.12665" lon="-3.29866">
        <ele>209.8</ele>
        <time>2024-11-20T08:51:00Z</time>
      </trkpt>
      <trkpt lat="48.12665" lon="-3.29866">
        <ele>209.9</ele>
        <time>2024-11-20T08:51:01Z</time>
      </trkpt>
      <trkpt lat="48.12664" lon="-3.29866">
        <ele>209.9</ele>
        <time>2024-11-20T08:51:02Z</time>
      </trkpt>
      <trkpt lat="48.12664" lon="-3.29866">
        <ele>209.9</ele>
        <time>2024-11-20T08:51:03Z</time>
      </trkpt>
      <trkpt lat="48.12664" lon="-3.29866">
        <ele>209.9</ele>
        <time>2024-11-20T08:51:04Z</time>
      </trkpt>
      <trkpt lat="48.12664" lon="-3.29866">
        <ele>209.9</ele>
        <time>2024-11-20T08:51:05Z</time>
      </trkpt>
      <trkpt lat="48.12664" lon="-3.29866">
        <ele>209.9</ele>
        <time>2024-11-20T08:51:06Z</time>
      </trkpt>
      <trkpt lat="48.12664" lon="-3.29866">
        <ele>209.9</ele>
        <time>2024-11-20T08:51:07Z</time>
      </trkpt>
      <trkpt lat="48.12664" lon="-3.29866">
        <ele>209.9</ele>
        <time>2024-11-20T08:51:08Z</time>
      </trkpt>
      <trkpt lat="48.12664" lon="-3.29866">
        <ele>209.9</ele>
        <time>2024-11-20T08:51:09Z</time>
      </trkpt>
      <trkpt lat="48.12664" lon="-3.29866">
        <ele>209.9</ele>
        <time>2024-11-20T08:51:10Z</time>
      </trkpt>
      <trkpt lat="48.12664" lon="-3.29866">
        <ele>209.9</ele>
        <time>2024-11-20T08:51:11Z</time>
      </trkpt>
      <trkpt lat="48.12664" lon="-3.29866">
        <ele>209.9</ele>
        <time>2024-11-20T08:51:12Z</time>
      </trkpt>
      <trkpt lat="48.12664" lon="-3.29866">
        <ele>209.9</ele>
        <time>2024-11-20T08:51:13Z</time>
      </trkpt>
      <trkpt lat="48.12664" lon="-3.29866">
        <ele>209.9</ele>
        <time>2024-11-20T08:51:14Z</time>
      </trkpt>
      <trkpt lat="48.12664" lon="-3.29866">
        <ele>209.9</ele>
        <time>2024-11-20T08:51:15Z</time>
      </trkpt>
      <trkpt lat="48.12664" lon="-3.29866">
        <ele>209.9</ele>
        <time>2024-11-20T08:51:16Z</time>
      </trkpt>
      <trkpt lat="48.12664" lon="-3.29866">
        <ele>209.9</ele>
        <time>2024-11-20T08:51:17Z</time>
      </trkpt>
      <trkpt lat="48.12664" lon="-3.29866">
        <ele>209.9</ele>
        <time>2024-11-20T08:51:18Z</time>
      </trkpt>
      <trkpt lat="48.12664" lon="-3.29866">
        <ele>209.9</ele>
        <time>2024-11-20T08:51:19Z</time>
      </trkpt>
      <trkpt lat="48.12664" lon="-3.29866">
        <ele>209.9</ele>
        <time>2024-11-20T08:51:20Z</time>
      </trkpt>
      <trkpt lat="48.12664" lon="-3.29866">
        <ele>209.9</ele>
        <time>2024-11-20T08:51:21Z</time>
      </trkpt>
      <trkpt lat="48.12664" lon="-3.29866">
        <ele>209.9</ele>
        <time>2024-11-20T08:51:22Z</time>
      </trkpt>
      <trkpt lat="48.12664" lon="-3.29866">
        <ele>209.9</ele>
        <time>2024-11-20T08:51:23Z</time>
      </trkpt>
      <trkpt lat="48.12664" lon="-3.29866">
        <ele>209.9</ele>
        <time>2024-11-20T08:51:24Z</time>
      </trkpt>
      <trkpt lat="48.12664" lon="-3.29866">
        <ele>209.9</ele>
        <time>2024-11-20T08:51:25Z</time>
      </trkpt>
      <trkpt lat="48.12663" lon="-3.29866">
        <ele>210</ele>
        <time>2024-11-20T08:51:26Z</time>
      </trkpt>
      <trkpt lat="48.12663" lon="-3.29866">
        <ele>210</ele>
        <time>2024-11-20T08:51:27Z</time>
      </trkpt>
      <trkpt lat="48.12663" lon="-3.29866">
        <ele>209.9</ele>
        <time>2024-11-20T08:51:28Z</time>
      </trkpt>
      <trkpt lat="48.12663" lon="-3.29866">
        <ele>209.8</ele>
        <time>2024-11-20T08:51:29Z</time>
      </trkpt>
      <trkpt lat="48.12663" lon="-3.29867">
        <ele>209.8</ele>
        <time>2024-11-20T08:51:30Z</time>
      </trkpt>
      <trkpt lat="48.12662" lon="-3.29867">
        <ele>209.7</ele>
        <time>2024-11-20T08:51:31Z</time>
      </trkpt>
      <trkpt lat="48.12662" lon="-3.29867">
        <ele>209.6</ele>
        <time>2024-11-20T08:51:32Z</time>
      </trkpt>
      <trkpt lat="48.12662" lon="-3.29868">
        <ele>209.5</ele>
        <time>2024-11-20T08:51:33Z</time>
      </trkpt>
      <trkpt lat="48.12661" lon="-3.29868">
        <ele>209.4</ele>
        <time>2024-11-20T08:51:34Z</time>
      </trkpt>
      <trkpt lat="48.12661" lon="-3.29869">
        <ele>209.2</ele>
        <time>2024-11-20T08:51:35Z</time>
      </trkpt>
      <trkpt lat="48.12661" lon="-3.2987">
        <ele>209.1</ele>
        <time>2024-11-20T08:51:36Z</time>
      </trkpt>
      <trkpt lat="48.12661" lon="-3.2987">
        <ele>209</ele>
        <time>2024-11-20T08:51:37Z</time>
      </trkpt>
      <trkpt lat="48.12661" lon="-3.2987">
        <ele>208.9</ele>
        <time>2024-11-20T08:51:38Z</time>
      </trkpt>
      <trkpt lat="48.12661" lon="-3.29871">
        <ele>208.7</ele>
        <time>2024-11-20T08:51:39Z</time>
      </trkpt>
      <trkpt lat="48.12661" lon="-3.29872">
        <ele>208.5</ele>
        <time>2024-11-20T08:51:40Z</time>
      </trkpt>
      <trkpt lat="48.12661" lon="-3.29872">
        <ele>208.4</ele>
        <time>2024-11-20T08:51:41Z</time>
      </trkpt>
      <trkpt lat="48.12661" lon="-3.29873">
        <ele>208.3</ele>
        <time>2024-11-20T08:51:42Z</time>
      </trkpt>
      <trkpt lat="48.12661" lon="-3.29873">
        <ele>208.3</ele>
        <time>2024-11-20T08:51:43Z</time>
      </trkpt>
      <trkpt lat="48.12661" lon="-3.29873">
        <ele>208.2</ele>
        <time>2024-11-20T08:51:44Z</time>
      </trkpt>
      <trkpt lat="48.12661" lon="-3.29873">
        <ele>208.2</ele>
        <time>2024-11-20T08:51:45Z</time>
      </trkpt>
      <trkpt lat="48.12661" lon="-3.29873">
        <ele>208.2</ele>
        <time>2024-11-20T08:51:46Z</time>
      </trkpt>
      <trkpt lat="48.12661" lon="-3.29873">
        <ele>208.2</ele>
        <time>2024-11-20T08:51:47Z</time>
      </trkpt>
      <trkpt lat="48.12661" lon="-3.29873">
        <ele>208.2</ele>
        <time>2024-11-20T08:51:48Z</time>
      </trkpt>
      <trkpt lat="48.12661" lon="-3.29873">
        <ele>208.2</ele>
        <time>2024-11-20T08:51:49Z</time>
      </trkpt>
      <trkpt lat="48.12661" lon="-3.29873">
        <ele>208.2</ele>
        <time>2024-11-20T08:51:50Z</time>
      </trkpt>
      <trkpt lat="48.12661" lon="-3.29873">
        <ele>208.2</ele>
        <time>2024-11-20T08:51:51Z</time>
      </trkpt>
      <trkpt lat="48.12661" lon="-3.29873">
        <ele>208.2</ele>
        <time>2024-11-20T08:51:52Z</time>
      </trkpt>
      <trkpt lat="48.12661" lon="-3.29873">
        <ele>208.2</ele>
        <time>2024-11-20T08:51:53Z</time>
      </trkpt>
      <trkpt lat="48.12661" lon="-3.29873">
        <ele>208.2</ele>
        <time>2024-11-20T08:51:54Z</time>
      </trkpt>
      <trkpt lat="48.12661" lon="-3.29873">
        <ele>208.2</ele>
        <time>2024-11-20T08:51:55Z</time>
      </trkpt>
      <trkpt lat="48.12661" lon="-3.29873">
        <ele>208.2</ele>
        <time>2024-11-20T08:51:56Z</time>
      </trkpt>
      <trkpt lat="48.12661" lon="-3.29873">
        <ele>208.2</ele>
        <time>2024-11-20T08:51:57Z</time>
      </trkpt>
      <trkpt lat="48.12661" lon="-3.29873">
        <ele>208.2</ele>
        <time>2024-11-20T08:51:58Z</time>
      </trkpt>
      <trkpt lat="48.12661" lon="-3.29873">
        <ele>208.2</ele>
        <time>2024-11-20T08:51:59Z</time>
      </trkpt>
      <trkpt lat="48.12661" lon="-3.29873">
        <ele>208.2</ele>
        <time>2024-11-20T08:52:00Z</time>
      </trkpt>
      <trkpt lat="48.12661" lon="-3.29873">
        <ele>208.2</ele>
        <time>2024-11-20T08:52:01Z</time>
      </trkpt>
      <trkpt lat="48.12661" lon="-3.29873">
        <ele>208.2</ele>
        <time>2024-11-20T08:52:02Z</time>
      </trkpt>
      <trkpt lat="48.12661" lon="-3.29873">
        <ele>208.2</ele>
        <time>2024-11-20T08:52:03Z</time>
      </trkpt>
      <trkpt lat="48.12661" lon="-3.29873">
        <ele>208.2</ele>
        <time>2024-11-20T08:52:04Z</time>
      </trkpt>
      <trkpt lat="48.12661" lon="-3.29873">
        <ele>208.2</ele>
        <time>2024-11-20T08:52:05Z</time>
      </trkpt>
      <trkpt lat="48.12661" lon="-3.29873">
        <ele>208.2</ele>
        <time>2024-11-20T08:52:06Z</time>
      </trkpt>
      <trkpt lat="48.12661" lon="-3.29873">
        <ele>208.2</ele>
        <time>2024-11-20T08:52:07Z</time>
      </trkpt>
      <trkpt lat="48.12661" lon="-3.29874">
        <ele>208.1</ele>
        <time>2024-11-20T08:52:08Z</time>
      </trkpt>
      <trkpt lat="48.12662" lon="-3.29874">
        <ele>208</ele>
        <time>2024-11-20T08:52:09Z</time>
      </trkpt>
      <trkpt lat="48.12662" lon="-3.29873">
        <ele>208.1</ele>
        <time>2024-11-20T08:52:10Z</time>
      </trkpt>
      <trkpt lat="48.12663" lon="-3.29873">
        <ele>208.1</ele>
        <time>2024-11-20T08:52:11Z</time>
      </trkpt>
      <trkpt lat="48.12663" lon="-3.29872">
        <ele>208.3</ele>
        <time>2024-11-20T08:52:12Z</time>
      </trkpt>
      <trkpt lat="48.12663" lon="-3.29872">
        <ele>208.5</ele>
        <time>2024-11-20T08:52:13Z</time>
      </trkpt>
      <trkpt lat="48.12664" lon="-3.29871">
        <ele>208.7</ele>
        <time>2024-11-20T08:52:14Z</time>
      </trkpt>
      <trkpt lat="48.12664" lon="-3.29869">
        <ele>209</ele>
        <time>2024-11-20T08:52:15Z</time>
      </trkpt>
      <trkpt lat="48.12664" lon="-3.29869">
        <ele>209.1</ele>
        <time>2024-11-20T08:52:16Z</time>
      </trkpt>
      <trkpt lat="48.12665" lon="-3.29869">
        <ele>209.1</ele>
        <time>2024-11-20T08:52:17Z</time>
      </trkpt>
      <trkpt lat="48.12665" lon="-3.29869">
        <ele>209</ele>
        <time>2024-11-20T08:52:18Z</time>
      </trkpt>
      <trkpt lat="48.12665" lon="-3.29869">
        <ele>209</ele>
        <time>2024-11-20T08:52:19Z</time>
      </trkpt>
      <trkpt lat="48.12665" lon="-3.2987">
        <ele>208.9</ele>
        <time>2024-11-20T08:52:20Z</time>
      </trkpt>
      <trkpt lat="48.12665" lon="-3.2987">
        <ele>208.9</ele>
        <time>2024-11-20T08:52:21Z</time>
      </trkpt>
      <trkpt lat="48.12665" lon="-3.2987">
        <ele>208.8</ele>
        <time>2024-11-20T08:52:22Z</time>
      </trkpt>
      <trkpt lat="48.12665" lon="-3.2987">
        <ele>208.8</ele>
        <time>2024-11-20T08:52:23Z</time>
      </trkpt>
      <trkpt lat="48.12665" lon="-3.2987">
        <ele>208.7</ele>
        <time>2024-11-20T08:52:24Z</time>
      </trkpt>
      <trkpt lat="48.12665" lon="-3.29871">
        <ele>208.7</ele>
        <time>2024-11-20T08:52:25Z</time>
      </trkpt>
      <trkpt lat="48.12665" lon="-3.29871">
        <ele>208.7</ele>
        <time>2024-11-20T08:52:26Z</time>
      </trkpt>
      <trkpt lat="48.12665" lon="-3.29871">
        <ele>208.7</ele>
        <time>2024-11-20T08:52:27Z</time>
      </trkpt>
      <trkpt lat="48.12665" lon="-3.29871">
        <ele>208.6</ele>
        <time>2024-11-20T08:52:28Z</time>
      </trkpt>
      <trkpt lat="48.12665" lon="-3.29871">
        <ele>208.6</ele>
        <time>2024-11-20T08:52:29Z</time>
      </trkpt>
      <trkpt lat="48.12665" lon="-3.29871">
        <ele>208.6</ele>
        <time>2024-11-20T08:52:30Z</time>
      </trkpt>
      <trkpt lat="48.12665" lon="-3.29871">
        <ele>208.6</ele>
        <time>2024-11-20T08:52:31Z</time>
      </trkpt>
      <trkpt lat="48.12665" lon="-3.29871">
        <ele>208.6</ele>
        <time>2024-11-20T08:52:32Z</time>
      </trkpt>
      <trkpt lat="48.12665" lon="-3.29871">
        <ele>208.6</ele>
        <time>2024-11-20T08:52:33Z</time>
      </trkpt>
      <trkpt lat="48.12665" lon="-3.29871">
        <ele>208.6</ele>
        <time>2024-11-20T08:52:34Z</time>
      </trkpt>
      <trkpt lat="48.12665" lon="-3.29871">
        <ele>208.6</ele>
        <time>2024-11-20T08:52:35Z</time>
      </trkpt>
      <trkpt lat="48.12665" lon="-3.29871">
        <ele>208.6</ele>
        <time>2024-11-20T08:52:36Z</time>
      </trkpt>
      <trkpt lat="48.12665" lon="-3.29871">
        <ele>208.6</ele>
        <time>2024-11-20T08:52:37Z</time>
      </trkpt>
      <trkpt lat="48.12665" lon="-3.29871">
        <ele>208.6</ele>
        <time>2024-11-20T08:52:38Z</time>
      </trkpt>
      <trkpt lat="48.12665" lon="-3.29871">
        <ele>208.6</ele>
        <time>2024-11-20T08:52:39Z</time>
      </trkpt>
      <trkpt lat="48.12665" lon="-3.29871">
        <ele>208.6</ele>
        <time>2024-11-20T08:52:40Z</time>
      </trkpt>
      <trkpt lat="48.12665" lon="-3.29871">
        <ele>208.7</ele>
        <time>2024-11-20T08:52:41Z</time>
      </trkpt>
      <trkpt lat="48.12665" lon="-3.2987">
        <ele>208.8</ele>
        <time>2024-11-20T08:52:42Z</time>
      </trkpt>
      <trkpt lat="48.12666" lon="-3.2987">
        <ele>208.9</ele>
        <time>2024-11-20T08:52:43Z</time>
      </trkpt>
      <trkpt lat="48.12666" lon="-3.2987">
        <ele>208.9</ele>
        <time>2024-11-20T08:52:44Z</time>
      </trkpt>
      <trkpt lat="48.12666" lon="-3.2987">
        <ele>208.9</ele>
        <time>2024-11-20T08:52:45Z</time>
      </trkpt>
      <trkpt lat="48.12666" lon="-3.2987">
        <ele>208.9</ele>
        <time>2024-11-20T08:52:46Z</time>
      </trkpt>
      <trkpt lat="48.12666" lon="-3.2987">
        <ele>208.9</ele>
        <time>2024-11-20T08:52:47Z</time>
      </trkpt>
      <trkpt lat="48.12666" lon="-3.2987">
        <ele>208.9</ele>
        <time>2024-11-20T08:52:48Z</time>
      </trkpt>
      <trkpt lat="48.12666" lon="-3.2987">
        <ele>208.8</ele>
        <time>2024-11-20T08:52:49Z</time>
      </trkpt>
      <trkpt lat="48.12666" lon="-3.2987">
        <ele>208.7</ele>
        <time>2024-11-20T08:52:50Z</time>
      </trkpt>
      <trkpt lat="48.12666" lon="-3.2987">
        <ele>208.7</ele>
        <time>2024-11-20T08:52:51Z</time>
      </trkpt>
      <trkpt lat="48.12666" lon="-3.2987">
        <ele>208.7</ele>
        <time>2024-11-20T08:52:52Z</time>
      </trkpt>
      <trkpt lat="48.12666" lon="-3.2987">
        <ele>208.8</ele>
        <time>2024-11-20T08:52:53Z</time>
      </trkpt>
      <trkpt lat="48.12666" lon="-3.2987">
        <ele>208.8</ele>
        <time>2024-11-20T08:52:54Z</time>
      </trkpt>
      <trkpt lat="48.12666" lon="-3.2987">
        <ele>208.9</ele>
        <time>2024-11-20T08:52:55Z</time>
      </trkpt>
      <trkpt lat="48.12666" lon="-3.2987">
        <ele>208.9</ele>
        <time>2024-11-20T08:52:56Z</time>
      </trkpt>
      <trkpt lat="48.12666" lon="-3.29869">
        <ele>209</ele>
        <time>2024-11-20T08:52:58Z</time>
      </trkpt>
      <trkpt lat="48.12666" lon="-3.29869">
        <ele>209</ele>
        <time>2024-11-20T08:52:59Z</time>
      </trkpt>
      <trkpt lat="48.12666" lon="-3.29869">
        <ele>208.9</ele>
        <time>2024-11-20T08:53:00Z</time>
      </trkpt>
      <trkpt lat="48.12666" lon="-3.29869">
        <ele>209</ele>
        <time>2024-11-20T08:53:01Z</time>
      </trkpt>
      <trkpt lat="48.12666" lon="-3.29869">
        <ele>209.1</ele>
        <time>2024-11-20T08:53:02Z</time>
      </trkpt>
      <trkpt lat="48.12666" lon="-3.29868">
        <ele>209.2</ele>
        <time>2024-11-20T08:53:03Z</time>
      </trkpt>
      <trkpt lat="48.12666" lon="-3.29868">
        <ele>209.4</ele>
        <time>2024-11-20T08:53:05Z</time>
      </trkpt>
      <trkpt lat="48.12666" lon="-3.29868">
        <ele>209.4</ele>
        <time>2024-11-20T08:53:06Z</time>
      </trkpt>
      <trkpt lat="48.12665" lon="-3.29868">
        <ele>209.4</ele>
        <time>2024-11-20T08:53:07Z</time>
      </trkpt>
      <trkpt lat="48.12665" lon="-3.29868">
        <ele>209.4</ele>
        <time>2024-11-20T08:53:08Z</time>
      </trkpt>
      <trkpt lat="48.12665" lon="-3.29868">
        <ele>209.4</ele>
        <time>2024-11-20T08:53:09Z</time>
      </trkpt>
      <trkpt lat="48.12665" lon="-3.29868">
        <ele>209.4</ele>
        <time>2024-11-20T08:53:10Z</time>
      </trkpt>
      <trkpt lat="48.12665" lon="-3.29868">
        <ele>209.4</ele>
        <time>2024-11-20T08:53:11Z</time>
      </trkpt>
      <trkpt lat="48.12665" lon="-3.29868">
        <ele>209.4</ele>
        <time>2024-11-20T08:53:12Z</time>
      </trkpt>
      <trkpt lat="48.12665" lon="-3.29868">
        <ele>209.3</ele>
        <time>2024-11-20T08:53:13Z</time>
      </trkpt>
      <trkpt lat="48.12665" lon="-3.29868">
        <ele>209.3</ele>
        <time>2024-11-20T08:53:14Z</time>
      </trkpt>
      <trkpt lat="48.12665" lon="-3.29868">
        <ele>209.3</ele>
        <time>2024-11-20T08:53:15Z</time>
      </trkpt>
      <trkpt lat="48.12665" lon="-3.29868">
        <ele>209.3</ele>
        <time>2024-11-20T08:53:16Z</time>
      </trkpt>
      <trkpt lat="48.12665" lon="-3.29868">
        <ele>209.3</ele>
        <time>2024-11-20T08:53:17Z</time>
      </trkpt>
      <trkpt lat="48.12665" lon="-3.29868">
        <ele>209.3</ele>
        <time>2024-11-20T08:53:18Z</time>
      </trkpt>
      <trkpt lat="48.12665" lon="-3.29868">
        <ele>209.3</ele>
        <time>2024-11-20T08:53:19Z</time>
      </trkpt>
      <trkpt lat="48.12665" lon="-3.29868">
        <ele>209.3</ele>
        <time>2024-11-20T08:53:20Z</time>
      </trkpt>
      <trkpt lat="48.12665" lon="-3.29868">
        <ele>209.3</ele>
        <time>2024-11-20T08:53:21Z</time>
      </trkpt>
      <trkpt lat="48.12665" lon="-3.29868">
        <ele>209.3</ele>
        <time>2024-11-20T08:53:22Z</time>
      </trkpt>
      <trkpt lat="48.12665" lon="-3.29868">
        <ele>209.3</ele>
        <time>2024-11-20T08:53:23Z</time>
      </trkpt>
      <trkpt lat="48.12665" lon="-3.29868">
        <ele>209.3</ele>
        <time>2024-11-20T08:53:24Z</time>
      </trkpt>
      <trkpt lat="48.12665" lon="-3.29868">
        <ele>209.3</ele>
        <time>2024-11-20T08:53:25Z</time>
      </trkpt>
      <trkpt lat="48.12665" lon="-3.29868">
        <ele>209.3</ele>
        <time>2024-11-20T08:53:26Z</time>
      </trkpt>
      <trkpt lat="48.12665" lon="-3.29868">
        <ele>209.3</ele>
        <time>2024-11-20T08:53:27Z</time>
      </trkpt>
      <trkpt lat="48.12665" lon="-3.29868">
        <ele>209.3</ele>
        <time>2024-11-20T08:53:28Z</time>
      </trkpt>
      <trkpt lat="48.12665" lon="-3.29868">
        <ele>209.3</ele>
        <time>2024-11-20T08:53:29Z</time>
      </trkpt>
      <trkpt lat="48.12665" lon="-3.29868">
        <ele>209.3</ele>
        <time>2024-11-20T08:53:30Z</time>
      </trkpt>
      <trkpt lat="48.12665" lon="-3.29868">
        <ele>209.3</ele>
        <time>2024-11-20T08:53:31Z</time>
      </trkpt>
      <trkpt lat="48.12665" lon="-3.29868">
        <ele>209.3</ele>
        <time>2024-11-20T08:53:32Z</time>
      </trkpt>
      <trkpt lat="48.12665" lon="-3.29868">
        <ele>209.3</ele>
        <time>2024-11-20T08:53:33Z</time>
      </trkpt>
      <trkpt lat="48.12665" lon="-3.29868">
        <ele>209.3</ele>
        <time>2024-11-20T08:53:34Z</time>
      </trkpt>
      <trkpt lat="48.12665" lon="-3.29868">
        <ele>209.3</ele>
        <time>2024-11-20T08:53:35Z</time>
      </trkpt>
      <trkpt lat="48.12665" lon="-3.29868">
        <ele>209.3</ele>
        <time>2024-11-20T08:53:36Z</time>
      </trkpt>
      <trkpt lat="48.12665" lon="-3.29868">
        <ele>209.3</ele>
        <time>2024-11-20T08:53:37Z</time>
      </trkpt>
      <trkpt lat="48.12665" lon="-3.29868">
        <ele>209.3</ele>
        <time>2024-11-20T08:53:38Z</time>
      </trkpt>
      <trkpt lat="48.12665" lon="-3.29868">
        <ele>209.3</ele>
        <time>2024-11-20T08:53:39Z</time>
      </trkpt>
      <trkpt lat="48.12665" lon="-3.29868">
        <ele>209.3</ele>
        <time>2024-11-20T08:53:40Z</time>
      </trkpt>
      <trkpt lat="48.12665" lon="-3.29868">
        <ele>209.3</ele>
        <time>2024-11-20T08:53:41Z</time>
      </trkpt>
      <trkpt lat="48.12665" lon="-3.29868">
        <ele>209.3</ele>
        <time>2024-11-20T08:53:42Z</time>
      </trkpt>
      <trkpt lat="48.12665" lon="-3.29868">
        <ele>209.3</ele>
        <time>2024-11-20T08:53:43Z</time>
      </trkpt>
      <trkpt lat="48.12665" lon="-3.29868">
        <ele>209.3</ele>
        <time>2024-11-20T08:53:44Z</time>
      </trkpt>
      <trkpt lat="48.12665" lon="-3.29868">
        <ele>209.3</ele>
        <time>2024-11-20T08:53:45Z</time>
      </trkpt>
      <trkpt lat="48.12665" lon="-3.29868">
        <ele>209.3</ele>
        <time>2024-11-20T08:53:46Z</time>
      </trkpt>
      <trkpt lat="48.12665" lon="-3.29868">
        <ele>209.3</ele>
        <time>2024-11-20T08:53:47Z</time>
      </trkpt>
      <trkpt lat="48.12665" lon="-3.29868">
        <ele>209.3</ele>
        <time>2024-11-20T08:53:48Z</time>
      </trkpt>
      <trkpt lat="48.12665" lon="-3.29868">
        <ele>209.3</ele>
        <time>2024-11-20T08:53:49Z</time>
      </trkpt>
      <trkpt lat="48.12665" lon="-3.29868">
        <ele>209.3</ele>
        <time>2024-11-20T08:53:50Z</time>
      </trkpt>
      <trkpt lat="48.12665" lon="-3.29868">
        <ele>209.3</ele>
        <time>2024-11-20T08:53:51Z</time>
      </trkpt>
      <trkpt lat="48.12665" lon="-3.29868">
        <ele>209.3</ele>
        <time>2024-11-20T08:53:52Z</time>
      </trkpt>
      <trkpt lat="48.12665" lon="-3.29868">
        <ele>209.3</ele>
        <time>2024-11-20T08:53:53Z</time>
      </trkpt>
      <trkpt lat="48.12665" lon="-3.29868">
        <ele>209.3</ele>
        <time>2024-11-20T08:53:54Z</time>
      </trkpt>
      <trkpt lat="48.12665" lon="-3.29868">
        <ele>209.3</ele>
        <time>2024-11-20T08:53:55Z</time>
      </trkpt>
      <trkpt lat="48.12665" lon="-3.29868">
        <ele>209.3</ele>
        <time>2024-11-20T08:53:56Z</time>
      </trkpt>
      <trkpt lat="48.12665" lon="-3.29868">
        <ele>209.3</ele>
        <time>2024-11-20T08:53:57Z</time>
      </trkpt>
      <trkpt lat="48.12665" lon="-3.29868">
        <ele>209.3</ele>
        <time>2024-11-20T08:53:58Z</time>
      </trkpt>
      <trkpt lat="48.12665" lon="-3.29868">
        <ele>209.3</ele>
        <time>2024-11-20T08:53:59Z</time>
      </trkpt>
      <trkpt lat="48.12665" lon="-3.29868">
        <ele>209.3</ele>
        <time>2024-11-20T08:54:00Z</time>
      </trkpt>
      <trkpt lat="48.12665" lon="-3.29868">
        <ele>209.3</ele>
        <time>2024-11-20T08:54:01Z</time>
      </trkpt>
      <trkpt lat="48.12665" lon="-3.29868">
        <ele>209.3</ele>
        <time>2024-11-20T08:54:02Z</time>
      </trkpt>
      <trkpt lat="48.12665" lon="-3.29868">
        <ele>209.3</ele>
        <time>2024-11-20T08:54:03Z</time>
      </trkpt>
      <trkpt lat="48.12665" lon="-3.29868">
        <ele>209.3</ele>
        <time>2024-11-20T08:54:04Z</time>
      </trkpt>
      <trkpt lat="48.12665" lon="-3.29868">
        <ele>209.3</ele>
        <time>2024-11-20T08:54:05Z</time>
      </trkpt>
      <trkpt lat="48.12665" lon="-3.29868">
        <ele>209.3</ele>
        <time>2024-11-20T08:54:06Z</time>
      </trkpt>
      <trkpt lat="48.12665" lon="-3.29868">
        <ele>209.3</ele>
        <time>2024-11-20T08:54:07Z</time>
      </trkpt>
      <trkpt lat="48.12665" lon="-3.29868">
        <ele>209.3</ele>
        <time>2024-11-20T08:54:08Z</time>
      </trkpt>
      <trkpt lat="48.12665" lon="-3.29868">
        <ele>209.3</ele>
        <time>2024-11-20T08:54:09Z</time>
      </trkpt>
      <trkpt lat="48.12664" lon="-3.29868">
        <ele>209.4</ele>
        <time>2024-11-20T08:54:10Z</time>
      </trkpt>
      <trkpt lat="48.12664" lon="-3.29867">
        <ele>209.5</ele>
        <time>2024-11-20T08:54:11Z</time>
      </trkpt>
      <trkpt lat="48.12664" lon="-3.29867">
        <ele>209.6</ele>
        <time>2024-11-20T08:54:12Z</time>
      </trkpt>
      <trkpt lat="48.12664" lon="-3.29867">
        <ele>209.6</ele>
        <time>2024-11-20T08:54:13Z</time>
      </trkpt>
      <trkpt lat="48.12664" lon="-3.29867">
        <ele>209.6</ele>
        <time>2024-11-20T08:54:14Z</time>
      </trkpt>
      <trkpt lat="48.12664" lon="-3.29867">
        <ele>209.6</ele>
        <time>2024-11-20T08:54:15Z</time>
      </trkpt>
      <trkpt lat="48.12664" lon="-3.29867">
        <ele>209.6</ele>
        <time>2024-11-20T08:54:16Z</time>
      </trkpt>
      <trkpt lat="48.12664" lon="-3.29867">
        <ele>209.6</ele>
        <time>2024-11-20T08:54:17Z</time>
      </trkpt>
      <trkpt lat="48.12664" lon="-3.29867">
        <ele>209.5</ele>
        <time>2024-11-20T08:54:18Z</time>
      </trkpt>
      <trkpt lat="48.12664" lon="-3.29867">
        <ele>209.5</ele>
        <time>2024-11-20T08:54:19Z</time>
      </trkpt>
      <trkpt lat="48.12664" lon="-3.29867">
        <ele>209.5</ele>
        <time>2024-11-20T08:54:20Z</time>
      </trkpt>
      <trkpt lat="48.12664" lon="-3.29867">
        <ele>209.5</ele>
        <time>2024-11-20T08:54:21Z</time>
      </trkpt>
      <trkpt lat="48.12664" lon="-3.29868">
        <ele>209.5</ele>
        <time>2024-11-20T08:54:22Z</time>
      </trkpt>
      <trkpt lat="48.12664" lon="-3.29868">
        <ele>209.3</ele>
        <time>2024-11-20T08:54:23Z</time>
      </trkpt>
      <trkpt lat="48.12664" lon="-3.29869">
        <ele>209.3</ele>
        <time>2024-11-20T08:54:24Z</time>
      </trkpt>
      <trkpt lat="48.12663" lon="-3.29869">
        <ele>209.1</ele>
        <time>2024-11-20T08:54:25Z</time>
      </trkpt>
      <trkpt lat="48.12663" lon="-3.29869">
        <ele>209</ele>
        <time>2024-11-20T08:54:26Z</time>
      </trkpt>
      <trkpt lat="48.12663" lon="-3.2987">
        <ele>208.9</ele>
        <time>2024-11-20T08:54:27Z</time>
      </trkpt>
      <trkpt lat="48.12663" lon="-3.29871">
        <ele>208.8</ele>
        <time>2024-11-20T08:54:28Z</time>
      </trkpt>
      <trkpt lat="48.12663" lon="-3.29871">
        <ele>208.7</ele>
        <time>2024-11-20T08:54:29Z</time>
      </trkpt>
      <trkpt lat="48.12663" lon="-3.29871">
        <ele>208.8</ele>
        <time>2024-11-20T08:54:30Z</time>
      </trkpt>
      <trkpt lat="48.12663" lon="-3.29871">
        <ele>208.8</ele>
        <time>2024-11-20T08:54:31Z</time>
      </trkpt>
      <trkpt lat="48.12663" lon="-3.2987">
        <ele>208.8</ele>
        <time>2024-11-20T08:54:32Z</time>
      </trkpt>
      <trkpt lat="48.12663" lon="-3.2987">
        <ele>208.8</ele>
        <time>2024-11-20T08:54:33Z</time>
      </trkpt>
      <trkpt lat="48.12663" lon="-3.2987">
        <ele>208.8</ele>
        <time>2024-11-20T08:54:34Z</time>
      </trkpt>
      <trkpt lat="48.12662" lon="-3.2987">
        <ele>208.9</ele>
        <time>2024-11-20T08:54:35Z</time>
      </trkpt>
      <trkpt lat="48.12663" lon="-3.2987">
        <ele>208.9</ele>
        <time>2024-11-20T08:54:36Z</time>
      </trkpt>
      <trkpt lat="48.12662" lon="-3.2987">
        <ele>208.9</ele>
        <time>2024-11-20T08:54:37Z</time>
      </trkpt>
      <trkpt lat="48.12662" lon="-3.2987">
        <ele>208.9</ele>
        <time>2024-11-20T08:54:38Z</time>
      </trkpt>
      <trkpt lat="48.12662" lon="-3.2987">
        <ele>208.9</ele>
        <time>2024-11-20T08:54:39Z</time>
      </trkpt>
      <trkpt lat="48.12662" lon="-3.2987">
        <ele>208.9</ele>
        <time>2024-11-20T08:54:40Z</time>
      </trkpt>
      <trkpt lat="48.12662" lon="-3.2987">
        <ele>208.9</ele>
        <time>2024-11-20T08:54:41Z</time>
      </trkpt>
      <trkpt lat="48.12662" lon="-3.2987">
        <ele>208.9</ele>
        <time>2024-11-20T08:54:42Z</time>
      </trkpt>
      <trkpt lat="48.12661" lon="-3.2987">
        <ele>208.9</ele>
        <time>2024-11-20T08:54:43Z</time>
      </trkpt>
      <trkpt lat="48.12661" lon="-3.2987">
        <ele>208.9</ele>
        <time>2024-11-20T08:54:44Z</time>
      </trkpt>
      <trkpt lat="48.12661" lon="-3.2987">
        <ele>208.9</ele>
        <time>2024-11-20T08:54:45Z</time>
      </trkpt>
      <trkpt lat="48.12661" lon="-3.2987">
        <ele>208.9</ele>
        <time>2024-11-20T08:54:46Z</time>
      </trkpt>
      <trkpt lat="48.12662" lon="-3.29871">
        <ele>208.8</ele>
        <time>2024-11-20T08:54:47Z</time>
      </trkpt>
      <trkpt lat="48.12662" lon="-3.29871">
        <ele>208.7</ele>
        <time>2024-11-20T08:54:48Z</time>
      </trkpt>
      <trkpt lat="48.12662" lon="-3.29871">
        <ele>208.7</ele>
        <time>2024-11-20T08:54:49Z</time>
      </trkpt>
      <trkpt lat="48.12662" lon="-3.29871">
        <ele>208.7</ele>
        <time>2024-11-20T08:54:50Z</time>
      </trkpt>
      <trkpt lat="48.12662" lon="-3.29871">
        <ele>208.7</ele>
        <time>2024-11-20T08:54:51Z</time>
      </trkpt>
      <trkpt lat="48.12662" lon="-3.29871">
        <ele>208.7</ele>
        <time>2024-11-20T08:54:52Z</time>
      </trkpt>
      <trkpt lat="48.12662" lon="-3.29871">
        <ele>208.6</ele>
        <time>2024-11-20T08:54:53Z</time>
      </trkpt>
      <trkpt lat="48.12662" lon="-3.29872">
        <ele>208.4</ele>
        <time>2024-11-20T08:54:54Z</time>
      </trkpt>
      <trkpt lat="48.12662" lon="-3.29873">
        <ele>208.3</ele>
        <time>2024-11-20T08:54:55Z</time>
      </trkpt>
      <trkpt lat="48.12662" lon="-3.29873">
        <ele>208.3</ele>
        <time>2024-11-20T08:54:56Z</time>
      </trkpt>
      <trkpt lat="48.12661" lon="-3.29873">
        <ele>208.2</ele>
        <time>2024-11-20T08:54:57Z</time>
      </trkpt>
      <trkpt lat="48.12661" lon="-3.29873">
        <ele>208.3</ele>
        <time>2024-11-20T08:54:58Z</time>
      </trkpt>
      <trkpt lat="48.12661" lon="-3.29872">
        <ele>208.4</ele>
        <time>2024-11-20T08:54:59Z</time>
      </trkpt>
      <trkpt lat="48.12661" lon="-3.29872">
        <ele>208.4</ele>
        <time>2024-11-20T08:55:00Z</time>
      </trkpt>
      <trkpt lat="48.12661" lon="-3.29872">
        <ele>208.4</ele>
        <time>2024-11-20T08:55:01Z</time>
      </trkpt>
      <trkpt lat="48.12661" lon="-3.29872">
        <ele>208.4</ele>
        <time>2024-11-20T08:55:02Z</time>
      </trkpt>
      <trkpt lat="48.12661" lon="-3.29872">
        <ele>208.4</ele>
        <time>2024-11-20T08:55:03Z</time>
      </trkpt>
      <trkpt lat="48.12661" lon="-3.29872">
        <ele>208.5</ele>
        <time>2024-11-20T08:55:04Z</time>
      </trkpt>
      <trkpt lat="48.1266" lon="-3.29872">
        <ele>208.4</ele>
        <time>2024-11-20T08:55:05Z</time>
      </trkpt>
      <trkpt lat="48.12661" lon="-3.29872">
        <ele>208.4</ele>
        <time>2024-11-20T08:55:06Z</time>
      </trkpt>
      <trkpt lat="48.12661" lon="-3.29872">
        <ele>208.4</ele>
        <time>2024-11-20T08:55:07Z</time>
      </trkpt>
      <trkpt lat="48.12661" lon="-3.29872">
        <ele>208.4</ele>
        <time>2024-11-20T08:55:08Z</time>
      </trkpt>
      <trkpt lat="48.12661" lon="-3.29873">
        <ele>208.3</ele>
        <time>2024-11-20T08:55:09Z</time>
      </trkpt>
      <trkpt lat="48.12661" lon="-3.29873">
        <ele>208.3</ele>
        <time>2024-11-20T08:55:10Z</time>
      </trkpt>
      <trkpt lat="48.12661" lon="-3.29872">
        <ele>208.4</ele>
        <time>2024-11-20T08:55:11Z</time>
      </trkpt>
      <trkpt lat="48.12661" lon="-3.29873">
        <ele>208.3</ele>
        <time>2024-11-20T08:55:12Z</time>
      </trkpt>
      <trkpt lat="48.12661" lon="-3.29873">
        <ele>208.3</ele>
        <time>2024-11-20T08:55:13Z</time>
      </trkpt>
      <trkpt lat="48.12661" lon="-3.29872">
        <ele>208.4</ele>
        <time>2024-11-20T08:55:14Z</time>
      </trkpt>
      <trkpt lat="48.12661" lon="-3.29872">
        <ele>208.5</ele>
        <time>2024-11-20T08:55:15Z</time>
      </trkpt>
      <trkpt lat="48.12661" lon="-3.29872">
        <ele>208.5</ele>
        <time>2024-11-20T08:55:16Z</time>
      </trkpt>
      <trkpt lat="48.12661" lon="-3.29872">
        <ele>208.5</ele>
        <time>2024-11-20T08:55:17Z</time>
      </trkpt>
      <trkpt lat="48.12661" lon="-3.29872">
        <ele>208.5</ele>
        <time>2024-11-20T08:55:18Z</time>
      </trkpt>
      <trkpt lat="48.12662" lon="-3.29872">
        <ele>208.5</ele>
        <time>2024-11-20T08:55:19Z</time>
      </trkpt>
      <trkpt lat="48.12662" lon="-3.29872">
        <ele>208.4</ele>
        <time>2024-11-20T08:55:20Z</time>
      </trkpt>
      <trkpt lat="48.12662" lon="-3.29872">
        <ele>208.4</ele>
        <time>2024-11-20T08:55:21Z</time>
      </trkpt>
      <trkpt lat="48.12662" lon="-3.29873">
        <ele>208.3</ele>
        <time>2024-11-20T08:55:22Z</time>
      </trkpt>
      <trkpt lat="48.12662" lon="-3.29873">
        <ele>208.2</ele>
        <time>2024-11-20T08:55:23Z</time>
      </trkpt>
      <trkpt lat="48.12662" lon="-3.29873">
        <ele>208.1</ele>
        <time>2024-11-20T08:55:24Z</time>
      </trkpt>
      <trkpt lat="48.12662" lon="-3.29874">
        <ele>208</ele>
        <time>2024-11-20T08:55:25Z</time>
      </trkpt>
      <trkpt lat="48.12662" lon="-3.29874">
        <ele>208</ele>
        <time>2024-11-20T08:55:26Z</time>
      </trkpt>
      <trkpt lat="48.12662" lon="-3.29874">
        <ele>207.9</ele>
        <time>2024-11-20T08:55:27Z</time>
      </trkpt>
      <trkpt lat="48.12662" lon="-3.29875">
        <ele>207.8</ele>
        <time>2024-11-20T08:55:28Z</time>
      </trkpt>
      <trkpt lat="48.12662" lon="-3.29875">
        <ele>207.8</ele>
        <time>2024-11-20T08:55:29Z</time>
      </trkpt>
      <trkpt lat="48.12662" lon="-3.29875">
        <ele>207.8</ele>
        <time>2024-11-20T08:55:30Z</time>
      </trkpt>
      <trkpt lat="48.12662" lon="-3.29874">
        <ele>207.8</ele>
        <time>2024-11-20T08:55:31Z</time>
      </trkpt>
      <trkpt lat="48.12662" lon="-3.29874">
        <ele>207.9</ele>
        <time>2024-11-20T08:55:32Z</time>
      </trkpt>
      <trkpt lat="48.12662" lon="-3.29874">
        <ele>207.9</ele>
        <time>2024-11-20T08:55:33Z</time>
      </trkpt>
      <trkpt lat="48.12662" lon="-3.29874">
        <ele>207.8</ele>
        <time>2024-11-20T08:55:34Z</time>
      </trkpt>
      <trkpt lat="48.12662" lon="-3.29875">
        <ele>207.8</ele>
        <time>2024-11-20T08:55:35Z</time>
      </trkpt>
      <trkpt lat="48.12662" lon="-3.29875">
        <ele>207.8</ele>
        <time>2024-11-20T08:55:36Z</time>
      </trkpt>
      <trkpt lat="48.12662" lon="-3.29875">
        <ele>207.8</ele>
        <time>2024-11-20T08:55:37Z</time>
      </trkpt>
      <trkpt lat="48.12662" lon="-3.29875">
        <ele>207.8</ele>
        <time>2024-11-20T08:55:38Z</time>
      </trkpt>
      <trkpt lat="48.12662" lon="-3.29875">
        <ele>207.7</ele>
        <time>2024-11-20T08:55:39Z</time>
      </trkpt>
      <trkpt lat="48.12662" lon="-3.29875">
        <ele>207.7</ele>
        <time>2024-11-20T08:55:40Z</time>
      </trkpt>
      <trkpt lat="48.12663" lon="-3.29875">
        <ele>207.7</ele>
        <time>2024-11-20T08:55:41Z</time>
      </trkpt>
      <trkpt lat="48.12663" lon="-3.29874">
        <ele>207.8</ele>
        <time>2024-11-20T08:55:42Z</time>
      </trkpt>
      <trkpt lat="48.12663" lon="-3.29874">
        <ele>207.8</ele>
        <time>2024-11-20T08:55:43Z</time>
      </trkpt>
      <trkpt lat="48.12663" lon="-3.29874">
        <ele>207.8</ele>
        <time>2024-11-20T08:55:44Z</time>
      </trkpt>
      <trkpt lat="48.12663" lon="-3.29874">
        <ele>207.8</ele>
        <time>2024-11-20T08:55:45Z</time>
      </trkpt>
      <trkpt lat="48.12663" lon="-3.29874">
        <ele>207.8</ele>
        <time>2024-11-20T08:55:46Z</time>
      </trkpt>
      <trkpt lat="48.12663" lon="-3.29874">
        <ele>207.8</ele>
        <time>2024-11-20T08:55:47Z</time>
      </trkpt>
      <trkpt lat="48.12664" lon="-3.29874">
        <ele>207.8</ele>
        <time>2024-11-20T08:55:48Z</time>
      </trkpt>
      <trkpt lat="48.12664" lon="-3.29874">
        <ele>207.8</ele>
        <time>2024-11-20T08:55:49Z</time>
      </trkpt>
      <trkpt lat="48.12664" lon="-3.29874">
        <ele>207.8</ele>
        <time>2024-11-20T08:55:50Z</time>
      </trkpt>
      <trkpt lat="48.12664" lon="-3.29874">
        <ele>207.8</ele>
        <time>2024-11-20T08:55:51Z</time>
      </trkpt>
      <trkpt lat="48.12663" lon="-3.29875">
        <ele>207.6</ele>
        <time>2024-11-20T08:55:52Z</time>
      </trkpt>
      <trkpt lat="48.12663" lon="-3.29873">
        <ele>208.1</ele>
        <time>2024-11-20T08:55:53Z</time>
      </trkpt>
      <trkpt lat="48.12663" lon="-3.29872">
        <ele>208.4</ele>
        <time>2024-11-20T08:55:54Z</time>
      </trkpt>
      <trkpt lat="48.12663" lon="-3.29872">
        <ele>208.5</ele>
        <time>2024-11-20T08:55:55Z</time>
      </trkpt>
      <trkpt lat="48.12663" lon="-3.29871">
        <ele>208.6</ele>
        <time>2024-11-20T08:55:56Z</time>
      </trkpt>
      <trkpt lat="48.12663" lon="-3.29871">
        <ele>208.6</ele>
        <time>2024-11-20T08:55:57Z</time>
      </trkpt>
      <trkpt lat="48.12663" lon="-3.29871">
        <ele>208.6</ele>
        <time>2024-11-20T08:55:58Z</time>
      </trkpt>
      <trkpt lat="48.12663" lon="-3.29871">
        <ele>208.7</ele>
        <time>2024-11-20T08:55:59Z</time>
      </trkpt>
      <trkpt lat="48.12663" lon="-3.29871">
        <ele>208.7</ele>
        <time>2024-11-20T08:56:00Z</time>
      </trkpt>
      <trkpt lat="48.12663" lon="-3.2987">
        <ele>208.9</ele>
        <time>2024-11-20T08:56:01Z</time>
      </trkpt>
      <trkpt lat="48.12662" lon="-3.29869">
        <ele>209.2</ele>
        <time>2024-11-20T08:56:02Z</time>
      </trkpt>
      <trkpt lat="48.12662" lon="-3.29868">
        <ele>209.3</ele>
        <time>2024-11-20T08:56:03Z</time>
      </trkpt>
      <trkpt lat="48.12662" lon="-3.29868">
        <ele>209.4</ele>
        <time>2024-11-20T08:56:04Z</time>
      </trkpt>
      <trkpt lat="48.12662" lon="-3.29868">
        <ele>209.5</ele>
        <time>2024-11-20T08:56:05Z</time>
      </trkpt>
      <trkpt lat="48.12662" lon="-3.29868">
        <ele>209.5</ele>
        <time>2024-11-20T08:56:06Z</time>
      </trkpt>
      <trkpt lat="48.12662" lon="-3.29868">
        <ele>209.5</ele>
        <time>2024-11-20T08:56:07Z</time>
      </trkpt>
      <trkpt lat="48.12662" lon="-3.29868">
        <ele>209.5</ele>
        <time>2024-11-20T08:56:08Z</time>
      </trkpt>
      <trkpt lat="48.12662" lon="-3.29868">
        <ele>209.5</ele>
        <time>2024-11-20T08:56:09Z</time>
      </trkpt>
      <trkpt lat="48.12662" lon="-3.29868">
        <ele>209.5</ele>
        <time>2024-11-20T08:56:10Z</time>
      </trkpt>
      <trkpt lat="48.12662" lon="-3.29868">
        <ele>209.5</ele>
        <time>2024-11-20T08:56:11Z</time>
      </trkpt>
      <trkpt lat="48.12662" lon="-3.29868">
        <ele>209.5</ele>
        <time>2024-11-20T08:56:12Z</time>
      </trkpt>
      <trkpt lat="48.12662" lon="-3.29868">
        <ele>209.5</ele>
        <time>2024-11-20T08:56:13Z</time>
      </trkpt>
      <trkpt lat="48.12662" lon="-3.29868">
        <ele>209.5</ele>
        <time>2024-11-20T08:56:14Z</time>
      </trkpt>
      <trkpt lat="48.12662" lon="-3.29868">
        <ele>209.5</ele>
        <time>2024-11-20T08:56:15Z</time>
      </trkpt>
      <trkpt lat="48.12662" lon="-3.29868">
        <ele>209.5</ele>
        <time>2024-11-20T08:56:16Z</time>
      </trkpt>
      <trkpt lat="48.12662" lon="-3.29868">
        <ele>209.5</ele>
        <time>2024-11-20T08:56:17Z</time>
      </trkpt>
      <trkpt lat="48.12662" lon="-3.29868">
        <ele>209.5</ele>
        <time>2024-11-20T08:56:18Z</time>
      </trkpt>
      <trkpt lat="48.12662" lon="-3.29868">
        <ele>209.5</ele>
        <time>2024-11-20T08:56:19Z</time>
      </trkpt>
      <trkpt lat="48.12662" lon="-3.29868">
        <ele>209.5</ele>
        <time>2024-11-20T08:56:20Z</time>
      </trkpt>
      <trkpt lat="48.12662" lon="-3.29868">
        <ele>209.5</ele>
        <time>2024-11-20T08:56:21Z</time>
      </trkpt>
      <trkpt lat="48.12662" lon="-3.29868">
        <ele>209.5</ele>
        <time>2024-11-20T08:56:22Z</time>
      </trkpt>
      <trkpt lat="48.12662" lon="-3.29868">
        <ele>209.5</ele>
        <time>2024-11-20T08:56:23Z</time>
      </trkpt>
      <trkpt lat="48.12662" lon="-3.29868">
        <ele>209.5</ele>
        <time>2024-11-20T08:56:24Z</time>
      </trkpt>
      <trkpt lat="48.12662" lon="-3.29868">
        <ele>209.5</ele>
        <time>2024-11-20T08:56:25Z</time>
      </trkpt>
      <trkpt lat="48.12662" lon="-3.29868">
        <ele>209.5</ele>
        <time>2024-11-20T08:56:26Z</time>
      </trkpt>
      <trkpt lat="48.12662" lon="-3.29868">
        <ele>209.5</ele>
        <time>2024-11-20T08:56:27Z</time>
      </trkpt>
      <trkpt lat="48.12662" lon="-3.29868">
        <ele>209.5</ele>
        <time>2024-11-20T08:56:28Z</time>
      </trkpt>
      <trkpt lat="48.12662" lon="-3.29868">
        <ele>209.5</ele>
        <time>2024-11-20T08:56:29Z</time>
      </trkpt>
      <trkpt lat="48.12662" lon="-3.29868">
        <ele>209.5</ele>
        <time>2024-11-20T08:56:30Z</time>
      </trkpt>
      <trkpt lat="48.12662" lon="-3.29868">
        <ele>209.4</ele>
        <time>2024-11-20T08:56:31Z</time>
      </trkpt>
      <trkpt lat="48.12663" lon="-3.29869">
        <ele>209.2</ele>
        <time>2024-11-20T08:56:32Z</time>
      </trkpt>
      <trkpt lat="48.12663" lon="-3.29869">
        <ele>209.1</ele>
        <time>2024-11-20T08:56:33Z</time>
      </trkpt>
      <trkpt lat="48.12663" lon="-3.29869">
        <ele>209.1</ele>
        <time>2024-11-20T08:56:34Z</time>
      </trkpt>
      <trkpt lat="48.12663" lon="-3.29869">
        <ele>209.1</ele>
        <time>2024-11-20T08:56:35Z</time>
      </trkpt>
      <trkpt lat="48.12663" lon="-3.29869">
        <ele>209.1</ele>
        <time>2024-11-20T08:56:36Z</time>
      </trkpt>
      <trkpt lat="48.12663" lon="-3.29869">
        <ele>209.1</ele>
        <time>2024-11-20T08:56:37Z</time>
      </trkpt>
      <trkpt lat="48.12663" lon="-3.29868">
        <ele>209.5</ele>
        <time>2024-11-20T08:56:38Z</time>
      </trkpt>
      <trkpt lat="48.12663" lon="-3.29867">
        <ele>209.6</ele>
        <time>2024-11-20T08:56:39Z</time>
      </trkpt>
      <trkpt lat="48.12664" lon="-3.29867">
        <ele>209.7</ele>
        <time>2024-11-20T08:56:40Z</time>
      </trkpt>
      <trkpt lat="48.12664" lon="-3.29867">
        <ele>209.6</ele>
        <time>2024-11-20T08:56:41Z</time>
      </trkpt>
      <trkpt lat="48.12664" lon="-3.29867">
        <ele>209.6</ele>
        <time>2024-11-20T08:56:42Z</time>
      </trkpt>
      <trkpt lat="48.12664" lon="-3.29867">
        <ele>209.7</ele>
        <time>2024-11-20T08:56:43Z</time>
      </trkpt>
      <trkpt lat="48.12663" lon="-3.29866">
        <ele>210</ele>
        <time>2024-11-20T08:56:44Z</time>
      </trkpt>
      <trkpt lat="48.12663" lon="-3.29865">
        <ele>210.2</ele>
        <time>2024-11-20T08:56:45Z</time>
      </trkpt>
      <trkpt lat="48.12663" lon="-3.29864">
        <ele>210.3</ele>
        <time>2024-11-20T08:56:46Z</time>
      </trkpt>
      <trkpt lat="48.12663" lon="-3.29864">
        <ele>210.3</ele>
        <time>2024-11-20T08:56:47Z</time>
      </trkpt>
      <trkpt lat="48.12663" lon="-3.29864">
        <ele>210.3</ele>
        <time>2024-11-20T08:56:48Z</time>
      </trkpt>
      <trkpt lat="48.12663" lon="-3.29865">
        <ele>210.3</ele>
        <time>2024-11-20T08:56:49Z</time>
      </trkpt>
      <trkpt lat="48.12663" lon="-3.29865">
        <ele>210.3</ele>
        <time>2024-11-20T08:56:50Z</time>
      </trkpt>
      <trkpt lat="48.12663" lon="-3.29865">
        <ele>210.2</ele>
        <time>2024-11-20T08:56:51Z</time>
      </trkpt>
      <trkpt lat="48.12663" lon="-3.29865">
        <ele>210.2</ele>
        <time>2024-11-20T08:56:52Z</time>
      </trkpt>
      <trkpt lat="48.12663" lon="-3.29865">
        <ele>210.2</ele>
        <time>2024-11-20T08:56:53Z</time>
      </trkpt>
      <trkpt lat="48.12663" lon="-3.29865">
        <ele>210.2</ele>
        <time>2024-11-20T08:56:54Z</time>
      </trkpt>
      <trkpt lat="48.12663" lon="-3.29865">
        <ele>210.2</ele>
        <time>2024-11-20T08:56:55Z</time>
      </trkpt>
      <trkpt lat="48.12663" lon="-3.29865">
        <ele>210.2</ele>
        <time>2024-11-20T08:56:56Z</time>
      </trkpt>
      <trkpt lat="48.12663" lon="-3.29865">
        <ele>210.2</ele>
        <time>2024-11-20T08:56:57Z</time>
      </trkpt>
      <trkpt lat="48.12663" lon="-3.29865">
        <ele>210.2</ele>
        <time>2024-11-20T08:56:58Z</time>
      </trkpt>
      <trkpt lat="48.12663" lon="-3.29865">
        <ele>210.2</ele>
        <time>2024-11-20T08:56:59Z</time>
      </trkpt>
      <trkpt lat="48.12663" lon="-3.29865">
        <ele>210.2</ele>
        <time>2024-11-20T08:57:00Z</time>
      </trkpt>
      <trkpt lat="48.12663" lon="-3.29865">
        <ele>210.2</ele>
        <time>2024-11-20T08:57:01Z</time>
      </trkpt>
      <trkpt lat="48.12662" lon="-3.29865">
        <ele>210.2</ele>
        <time>2024-11-20T08:57:02Z</time>
      </trkpt>
      <trkpt lat="48.12662" lon="-3.29865">
        <ele>210.2</ele>
        <time>2024-11-20T08:57:03Z</time>
      </trkpt>
      <trkpt lat="48.12662" lon="-3.29865">
        <ele>210.2</ele>
        <time>2024-11-20T08:57:04Z</time>
      </trkpt>
      <trkpt lat="48.12662" lon="-3.29865">
        <ele>210.1</ele>
        <time>2024-11-20T08:57:05Z</time>
      </trkpt>
      <trkpt lat="48.12662" lon="-3.29865">
        <ele>210.2</ele>
        <time>2024-11-20T08:57:06Z</time>
      </trkpt>
      <trkpt lat="48.12662" lon="-3.29865">
        <ele>210.1</ele>
        <time>2024-11-20T08:57:07Z</time>
      </trkpt>
      <trkpt lat="48.12662" lon="-3.29865">
        <ele>210.1</ele>
        <time>2024-11-20T08:57:08Z</time>
      </trkpt>
      <trkpt lat="48.12662" lon="-3.29865">
        <ele>210.1</ele>
        <time>2024-11-20T08:57:09Z</time>
      </trkpt>
      <trkpt lat="48.12663" lon="-3.29865">
        <ele>210.2</ele>
        <time>2024-11-20T08:57:10Z</time>
      </trkpt>
      <trkpt lat="48.12663" lon="-3.29865">
        <ele>210.2</ele>
        <time>2024-11-20T08:57:11Z</time>
      </trkpt>
      <trkpt lat="48.12663" lon="-3.29865">
        <ele>210.2</ele>
        <time>2024-11-20T08:57:12Z</time>
      </trkpt>
      <trkpt lat="48.12663" lon="-3.29865">
        <ele>210.2</ele>
        <time>2024-11-20T08:57:13Z</time>
      </trkpt>
      <trkpt lat="48.12663" lon="-3.29865">
        <ele>210.2</ele>
        <time>2024-11-20T08:57:14Z</time>
      </trkpt>
      <trkpt lat="48.12663" lon="-3.29865">
        <ele>210.1</ele>
        <time>2024-11-20T08:57:15Z</time>
      </trkpt>
      <trkpt lat="48.12663" lon="-3.29865">
        <ele>210.1</ele>
        <time>2024-11-20T08:57:16Z</time>
      </trkpt>
      <trkpt lat="48.12664" lon="-3.29865">
        <ele>210.1</ele>
        <time>2024-11-20T08:57:17Z</time>
      </trkpt>
      <trkpt lat="48.12664" lon="-3.29865">
        <ele>210.1</ele>
        <time>2024-11-20T08:57:18Z</time>
      </trkpt>
      <trkpt lat="48.12664" lon="-3.29865">
        <ele>210.1</ele>
        <time>2024-11-20T08:57:19Z</time>
      </trkpt>
      <trkpt lat="48.12664" lon="-3.29865">
        <ele>210</ele>
        <time>2024-11-20T08:57:20Z</time>
      </trkpt>
      <trkpt lat="48.12664" lon="-3.29865">
        <ele>210.1</ele>
        <time>2024-11-20T08:57:24Z</time>
      </trkpt>
      <trkpt lat="48.12664" lon="-3.29865">
        <ele>210.1</ele>
        <time>2024-11-20T08:57:25Z</time>
      </trkpt>
      <trkpt lat="48.12664" lon="-3.29865">
        <ele>210.1</ele>
        <time>2024-11-20T08:57:26Z</time>
      </trkpt>
      <trkpt lat="48.12664" lon="-3.29865">
        <ele>210.1</ele>
        <time>2024-11-20T08:57:27Z</time>
      </trkpt>
      <trkpt lat="48.12664" lon="-3.29865">
        <ele>210.1</ele>
        <time>2024-11-20T08:57:28Z</time>
      </trkpt>
      <trkpt lat="48.12664" lon="-3.29865">
        <ele>210.1</ele>
        <time>2024-11-20T08:57:29Z</time>
      </trkpt>
      <trkpt lat="48.12664" lon="-3.29865">
        <ele>210.1</ele>
        <time>2024-11-20T08:57:30Z</time>
      </trkpt>
      <trkpt lat="48.12664" lon="-3.29865">
        <ele>210.1</ele>
        <time>2024-11-20T08:57:31Z</time>
      </trkpt>
      <trkpt lat="48.12664" lon="-3.29865">
        <ele>210.1</ele>
        <time>2024-11-20T08:57:32Z</time>
      </trkpt>
      <trkpt lat="48.12664" lon="-3.29865">
        <ele>210.1</ele>
        <time>2024-11-20T08:57:33Z</time>
      </trkpt>
      <trkpt lat="48.12664" lon="-3.29865">
        <ele>210.1</ele>
        <time>2024-11-20T08:57:34Z</time>
      </trkpt>
      <trkpt lat="48.12664" lon="-3.29865">
        <ele>210.1</ele>
        <time>2024-11-20T08:57:35Z</time>
      </trkpt>
      <trkpt lat="48.12664" lon="-3.29865">
        <ele>210</ele>
        <time>2024-11-20T08:57:36Z</time>
      </trkpt>
      <trkpt lat="48.12664" lon="-3.29865">
        <ele>210</ele>
        <time>2024-11-20T08:57:37Z</time>
      </trkpt>
      <trkpt lat="48.12664" lon="-3.29865">
        <ele>210</ele>
        <time>2024-11-20T08:57:38Z</time>
      </trkpt>
      <trkpt lat="48.12664" lon="-3.29865">
        <ele>210</ele>
        <time>2024-11-20T08:57:39Z</time>
      </trkpt>
      <trkpt lat="48.12664" lon="-3.29865">
        <ele>210.1</ele>
        <time>2024-11-20T08:57:40Z</time>
      </trkpt>
      <trkpt lat="48.12664" lon="-3.29865">
        <ele>210.1</ele>
        <time>2024-11-20T08:57:41Z</time>
      </trkpt>
      <trkpt lat="48.12664" lon="-3.29865">
        <ele>210.1</ele>
        <time>2024-11-20T08:57:42Z</time>
      </trkpt>
      <trkpt lat="48.12664" lon="-3.29865">
        <ele>210.1</ele>
        <time>2024-11-20T08:57:43Z</time>
      </trkpt>
      <trkpt lat="48.12664" lon="-3.29865">
        <ele>210.1</ele>
        <time>2024-11-20T08:57:44Z</time>
      </trkpt>
      <trkpt lat="48.12664" lon="-3.29865">
        <ele>210.1</ele>
        <time>2024-11-20T08:57:45Z</time>
      </trkpt>
      <trkpt lat="48.12664" lon="-3.29865">
        <ele>210.1</ele>
        <time>2024-11-20T08:57:46Z</time>
      </trkpt>
      <trkpt lat="48.12664" lon="-3.29865">
        <ele>210.1</ele>
        <time>2024-11-20T08:57:47Z</time>
      </trkpt>
      <trkpt lat="48.12664" lon="-3.29865">
        <ele>210.1</ele>
        <time>2024-11-20T08:57:48Z</time>
      </trkpt>
      <trkpt lat="48.12664" lon="-3.29865">
        <ele>210</ele>
        <time>2024-11-20T08:57:49Z</time>
      </trkpt>
      <trkpt lat="48.12664" lon="-3.29865">
        <ele>210</ele>
        <time>2024-11-20T08:57:50Z</time>
      </trkpt>
      <trkpt lat="48.12664" lon="-3.29865">
        <ele>210</ele>
        <time>2024-11-20T08:57:51Z</time>
      </trkpt>
      <trkpt lat="48.12664" lon="-3.29865">
        <ele>210</ele>
        <time>2024-11-20T08:57:52Z</time>
      </trkpt>
      <trkpt lat="48.12664" lon="-3.29865">
        <ele>210</ele>
        <time>2024-11-20T08:57:53Z</time>
      </trkpt>
      <trkpt lat="48.12664" lon="-3.29865">
        <ele>210.1</ele>
        <time>2024-11-20T08:57:54Z</time>
      </trkpt>
      <trkpt lat="48.12664" lon="-3.29865">
        <ele>210.1</ele>
        <time>2024-11-20T08:57:55Z</time>
      </trkpt>
      <trkpt lat="48.12664" lon="-3.29865">
        <ele>210.1</ele>
        <time>2024-11-20T08:57:56Z</time>
      </trkpt>
      <trkpt lat="48.12664" lon="-3.29865">
        <ele>210.1</ele>
        <time>2024-11-20T08:57:57Z</time>
      </trkpt>
      <trkpt lat="48.12664" lon="-3.29865">
        <ele>210.1</ele>
        <time>2024-11-20T08:57:58Z</time>
      </trkpt>
      <trkpt lat="48.12664" lon="-3.29865">
        <ele>210.1</ele>
        <time>2024-11-20T08:57:59Z</time>
      </trkpt>
      <trkpt lat="48.12664" lon="-3.29865">
        <ele>210.1</ele>
        <time>2024-11-20T08:58:00Z</time>
      </trkpt>
      <trkpt lat="48.12664" lon="-3.29865">
        <ele>210.1</ele>
        <time>2024-11-20T08:58:01Z</time>
      </trkpt>
      <trkpt lat="48.12664" lon="-3.29865">
        <ele>210</ele>
        <time>2024-11-20T08:58:02Z</time>
      </trkpt>
      <trkpt lat="48.12664" lon="-3.29865">
        <ele>210</ele>
        <time>2024-11-20T08:58:03Z</time>
      </trkpt>
      <trkpt lat="48.12664" lon="-3.29865">
        <ele>210</ele>
        <time>2024-11-20T08:58:04Z</time>
      </trkpt>
      <trkpt lat="48.12664" lon="-3.29865">
        <ele>210</ele>
        <time>2024-11-20T08:58:05Z</time>
      </trkpt>
      <trkpt lat="48.12664" lon="-3.29865">
        <ele>210</ele>
        <time>2024-11-20T08:58:06Z</time>
      </trkpt>
      <trkpt lat="48.12664" lon="-3.29865">
        <ele>210</ele>
        <time>2024-11-20T08:58:07Z</time>
      </trkpt>
      <trkpt lat="48.12664" lon="-3.29865">
        <ele>210</ele>
        <time>2024-11-20T08:58:08Z</time>
      </trkpt>
      <trkpt lat="48.12664" lon="-3.29865">
        <ele>210</ele>
        <time>2024-11-20T08:58:09Z</time>
      </trkpt>
      <trkpt lat="48.12664" lon="-3.29865">
        <ele>210</ele>
        <time>2024-11-20T08:58:10Z</time>
      </trkpt>
      <trkpt lat="48.12664" lon="-3.29865">
        <ele>210</ele>
        <time>2024-11-20T08:58:11Z</time>
      </trkpt>
      <trkpt lat="48.12664" lon="-3.29865">
        <ele>210</ele>
        <time>2024-11-20T08:58:12Z</time>
      </trkpt>
      <trkpt lat="48.12664" lon="-3.29865">
        <ele>210</ele>
        <time>2024-11-20T08:58:13Z</time>
      </trkpt>
      <trkpt lat="48.12664" lon="-3.29865">
        <ele>210</ele>
        <time>2024-11-20T08:58:14Z</time>
      </trkpt>
      <trkpt lat="48.12664" lon="-3.29865">
        <ele>210</ele>
        <time>2024-11-20T08:58:15Z</time>
      </trkpt>
      <trkpt lat="48.12664" lon="-3.29865">
        <ele>210</ele>
        <time>2024-11-20T08:58:16Z</time>
      </trkpt>
      <trkpt lat="48.12664" lon="-3.29865">
        <ele>210</ele>
        <time>2024-11-20T08:58:17Z</time>
      </trkpt>
      <trkpt lat="48.12664" lon="-3.29865">
        <ele>210</ele>
        <time>2024-11-20T08:58:18Z</time>
      </trkpt>
      <trkpt lat="48.12664" lon="-3.29866">
        <ele>210</ele>
        <time>2024-11-20T08:58:19Z</time>
      </trkpt>
      <trkpt lat="48.12664" lon="-3.29866">
        <ele>209.9</ele>
        <time>2024-11-20T08:58:20Z</time>
      </trkpt>
      <trkpt lat="48.12664" lon="-3.29866">
        <ele>209.9</ele>
        <time>2024-11-20T08:58:21Z</time>
      </trkpt>
      <trkpt lat="48.12664" lon="-3.29866">
        <ele>209.9</ele>
        <time>2024-11-20T08:58:22Z</time>
      </trkpt>
      <trkpt lat="48.12664" lon="-3.29866">
        <ele>209.9</ele>
        <time>2024-11-20T08:58:23Z</time>
      </trkpt>
      <trkpt lat="48.12664" lon="-3.29866">
        <ele>209.8</ele>
        <time>2024-11-20T08:58:24Z</time>
      </trkpt>
      <trkpt lat="48.12665" lon="-3.29866">
        <ele>209.7</ele>
        <time>2024-11-20T08:58:25Z</time>
      </trkpt>
      <trkpt lat="48.12665" lon="-3.29867">
        <ele>209.6</ele>
        <time>2024-11-20T08:58:26Z</time>
      </trkpt>
      <trkpt lat="48.12665" lon="-3.29867">
        <ele>209.5</ele>
        <time>2024-11-20T08:58:27Z</time>
      </trkpt>
      <trkpt lat="48.12665" lon="-3.29868">
        <ele>209.4</ele>
        <time>2024-11-20T08:58:28Z</time>
      </trkpt>
      <trkpt lat="48.12665" lon="-3.29868">
        <ele>209.4</ele>
        <time>2024-11-20T08:58:29Z</time>
      </trkpt>
      <trkpt lat="48.12665" lon="-3.29868">
        <ele>209.4</ele>
        <time>2024-11-20T08:58:30Z</time>
      </trkpt>
      <trkpt lat="48.12665" lon="-3.29868">
        <ele>209.4</ele>
        <time>2024-11-20T08:58:31Z</time>
      </trkpt>
      <trkpt lat="48.12665" lon="-3.29868">
        <ele>209.4</ele>
        <time>2024-11-20T08:58:32Z</time>
      </trkpt>
      <trkpt lat="48.12665" lon="-3.29868">
        <ele>209.4</ele>
        <time>2024-11-20T08:58:33Z</time>
      </trkpt>
      <trkpt lat="48.12665" lon="-3.29867">
        <ele>209.5</ele>
        <time>2024-11-20T08:58:34Z</time>
      </trkpt>
      <trkpt lat="48.12665" lon="-3.29867">
        <ele>209.5</ele>
        <time>2024-11-20T08:58:35Z</time>
      </trkpt>
      <trkpt lat="48.12665" lon="-3.29867">
        <ele>209.6</ele>
        <time>2024-11-20T08:58:36Z</time>
      </trkpt>
      <trkpt lat="48.12665" lon="-3.29867">
        <ele>209.6</ele>
        <time>2024-11-20T08:58:37Z</time>
      </trkpt>
      <trkpt lat="48.12665" lon="-3.29867">
        <ele>209.7</ele>
        <time>2024-11-20T08:58:38Z</time>
      </trkpt>
      <trkpt lat="48.12665" lon="-3.29867">
        <ele>209.7</ele>
        <time>2024-11-20T08:58:39Z</time>
      </trkpt>
      <trkpt lat="48.12665" lon="-3.29867">
        <ele>209.7</ele>
        <time>2024-11-20T08:58:40Z</time>
      </trkpt>
      <trkpt lat="48.12665" lon="-3.29867">
        <ele>209.7</ele>
        <time>2024-11-20T08:58:41Z</time>
      </trkpt>
      <trkpt lat="48.12665" lon="-3.29867">
        <ele>209.7</ele>
        <time>2024-11-20T08:58:42Z</time>
      </trkpt>
      <trkpt lat="48.12665" lon="-3.29867">
        <ele>209.7</ele>
        <time>2024-11-20T08:58:43Z</time>
      </trkpt>
      <trkpt lat="48.12665" lon="-3.29867">
        <ele>209.7</ele>
        <time>2024-11-20T08:58:44Z</time>
      </trkpt>
      <trkpt lat="48.12665" lon="-3.29867">
        <ele>209.7</ele>
        <time>2024-11-20T08:58:45Z</time>
      </trkpt>
      <trkpt lat="48.12665" lon="-3.29867">
        <ele>209.7</ele>
        <time>2024-11-20T08:58:46Z</time>
      </trkpt>
      <trkpt lat="48.12665" lon="-3.29867">
        <ele>209.7</ele>
        <time>2024-11-20T08:58:47Z</time>
      </trkpt>
      <trkpt lat="48.12665" lon="-3.29867">
        <ele>209.7</ele>
        <time>2024-11-20T08:58:48Z</time>
      </trkpt>
      <trkpt lat="48.12665" lon="-3.29867">
        <ele>209.7</ele>
        <time>2024-11-20T08:58:49Z</time>
      </trkpt>
      <trkpt lat="48.12665" lon="-3.29867">
        <ele>209.7</ele>
        <time>2024-11-20T08:58:50Z</time>
      </trkpt>
      <trkpt lat="48.12665" lon="-3.29867">
        <ele>209.7</ele>
        <time>2024-11-20T08:58:51Z</time>
      </trkpt>
      <trkpt lat="48.12665" lon="-3.29867">
        <ele>209.7</ele>
        <time>2024-11-20T08:58:52Z</time>
      </trkpt>
      <trkpt lat="48.12665" lon="-3.29867">
        <ele>209.7</ele>
        <time>2024-11-20T08:58:53Z</time>
      </trkpt>
      <trkpt lat="48.12665" lon="-3.29867">
        <ele>209.7</ele>
        <time>2024-11-20T08:58:54Z</time>
      </trkpt>
      <trkpt lat="48.12665" lon="-3.29867">
        <ele>209.7</ele>
        <time>2024-11-20T08:58:55Z</time>
      </trkpt>
      <trkpt lat="48.12665" lon="-3.29867">
        <ele>209.7</ele>
        <time>2024-11-20T08:58:56Z</time>
      </trkpt>
      <trkpt lat="48.12665" lon="-3.29867">
        <ele>209.7</ele>
        <time>2024-11-20T08:58:57Z</time>
      </trkpt>
      <trkpt lat="48.12665" lon="-3.29867">
        <ele>209.7</ele>
        <time>2024-11-20T08:58:58Z</time>
      </trkpt>
      <trkpt lat="48.12665" lon="-3.29867">
        <ele>209.7</ele>
        <time>2024-11-20T08:58:59Z</time>
      </trkpt>
      <trkpt lat="48.12665" lon="-3.29867">
        <ele>209.7</ele>
        <time>2024-11-20T08:59:00Z</time>
      </trkpt>
      <trkpt lat="48.12665" lon="-3.29867">
        <ele>209.7</ele>
        <time>2024-11-20T08:59:01Z</time>
      </trkpt>
      <trkpt lat="48.12665" lon="-3.29867">
        <ele>209.7</ele>
        <time>2024-11-20T08:59:02Z</time>
      </trkpt>
      <trkpt lat="48.12665" lon="-3.29867">
        <ele>209.7</ele>
        <time>2024-11-20T08:59:03Z</time>
      </trkpt>
      <trkpt lat="48.12665" lon="-3.29867">
        <ele>209.7</ele>
        <time>2024-11-20T08:59:04Z</time>
      </trkpt>
      <trkpt lat="48.12665" lon="-3.29867">
        <ele>209.7</ele>
        <time>2024-11-20T08:59:05Z</time>
      </trkpt>
      <trkpt lat="48.12665" lon="-3.29867">
        <ele>209.6</ele>
        <time>2024-11-20T08:59:06Z</time>
      </trkpt>
      <trkpt lat="48.12666" lon="-3.29867">
        <ele>209.6</ele>
        <time>2024-11-20T08:59:07Z</time>
      </trkpt>
      <trkpt lat="48.12666" lon="-3.29866">
        <ele>209.7</ele>
        <time>2024-11-20T08:59:08Z</time>
      </trkpt>
      <trkpt lat="48.12667" lon="-3.29866">
        <ele>209.7</ele>
        <time>2024-11-20T08:59:09Z</time>
      </trkpt>
      <trkpt lat="48.12666" lon="-3.29866">
        <ele>209.9</ele>
        <time>2024-11-20T08:59:10Z</time>
      </trkpt>
      <trkpt lat="48.12666" lon="-3.29865">
        <ele>210</ele>
        <time>2024-11-20T08:59:11Z</time>
      </trkpt>
      <trkpt lat="48.12666" lon="-3.29865">
        <ele>210</ele>
        <time>2024-11-20T08:59:12Z</time>
      </trkpt>
      <trkpt lat="48.12666" lon="-3.29865">
        <ele>210</ele>
        <time>2024-11-20T08:59:13Z</time>
      </trkpt>
      <trkpt lat="48.12666" lon="-3.29865">
        <ele>210</ele>
        <time>2024-11-20T08:59:14Z</time>
      </trkpt>
      <trkpt lat="48.12666" lon="-3.29865">
        <ele>210</ele>
        <time>2024-11-20T08:59:15Z</time>
      </trkpt>
      <trkpt lat="48.12667" lon="-3.29866">
        <ele>209.9</ele>
        <time>2024-11-20T08:59:16Z</time>
      </trkpt>
      <trkpt lat="48.12667" lon="-3.29866">
        <ele>209.8</ele>
        <time>2024-11-20T08:59:17Z</time>
      </trkpt>
      <trkpt lat="48.12667" lon="-3.29866">
        <ele>209.7</ele>
        <time>2024-11-20T08:59:18Z</time>
      </trkpt>
      <trkpt lat="48.12667" lon="-3.29866">
        <ele>209.7</ele>
        <time>2024-11-20T08:59:19Z</time>
      </trkpt>
      <trkpt lat="48.12667" lon="-3.29866">
        <ele>209.7</ele>
        <time>2024-11-20T08:59:20Z</time>
      </trkpt>
      <trkpt lat="48.12667" lon="-3.29867">
        <ele>209.6</ele>
        <time>2024-11-20T08:59:21Z</time>
      </trkpt>
      <trkpt lat="48.12667" lon="-3.29867">
        <ele>209.6</ele>
        <time>2024-11-20T08:59:22Z</time>
      </trkpt>
      <trkpt lat="48.12667" lon="-3.29867">
        <ele>209.6</ele>
        <time>2024-11-20T08:59:23Z</time>
      </trkpt>
      <trkpt lat="48.12667" lon="-3.29867">
        <ele>209.6</ele>
        <time>2024-11-20T08:59:24Z</time>
      </trkpt>
      <trkpt lat="48.12667" lon="-3.29867">
        <ele>209.6</ele>
        <time>2024-11-20T08:59:25Z</time>
      </trkpt>
      <trkpt lat="48.12667" lon="-3.29867">
        <ele>209.6</ele>
        <time>2024-11-20T08:59:26Z</time>
      </trkpt>
      <trkpt lat="48.12667" lon="-3.29867">
        <ele>209.6</ele>
        <time>2024-11-20T08:59:27Z</time>
      </trkpt>
      <trkpt lat="48.12667" lon="-3.29867">
        <ele>209.6</ele>
        <time>2024-11-20T08:59:28Z</time>
      </trkpt>
      <trkpt lat="48.12667" lon="-3.29867">
        <ele>209.6</ele>
        <time>2024-11-20T08:59:29Z</time>
      </trkpt>
      <trkpt lat="48.12667" lon="-3.29867">
        <ele>209.6</ele>
        <time>2024-11-20T08:59:30Z</time>
      </trkpt>
      <trkpt lat="48.12667" lon="-3.29867">
        <ele>209.6</ele>
        <time>2024-11-20T08:59:31Z</time>
      </trkpt>
      <trkpt lat="48.12667" lon="-3.29867">
        <ele>209.6</ele>
        <time>2024-11-20T08:59:32Z</time>
      </trkpt>
      <trkpt lat="48.12667" lon="-3.29867">
        <ele>209.6</ele>
        <time>2024-11-20T08:59:33Z</time>
      </trkpt>
      <trkpt lat="48.12667" lon="-3.29867">
        <ele>209.6</ele>
        <time>2024-11-20T08:59:34Z</time>
      </trkpt>
      <trkpt lat="48.12667" lon="-3.29867">
        <ele>209.6</ele>
        <time>2024-11-20T08:59:35Z</time>
      </trkpt>
      <trkpt lat="48.12667" lon="-3.29867">
        <ele>209.6</ele>
        <time>2024-11-20T08:59:36Z</time>
      </trkpt>
      <trkpt lat="48.12667" lon="-3.29867">
        <ele>209.6</ele>
        <time>2024-11-20T08:59:37Z</time>
      </trkpt>
      <trkpt lat="48.12667" lon="-3.29867">
        <ele>209.6</ele>
        <time>2024-11-20T08:59:38Z</time>
      </trkpt>
      <trkpt lat="48.12667" lon="-3.29867">
        <ele>209.6</ele>
        <time>2024-11-20T08:59:39Z</time>
      </trkpt>
      <trkpt lat="48.12667" lon="-3.29867">
        <ele>209.6</ele>
        <time>2024-11-20T08:59:40Z</time>
      </trkpt>
      <trkpt lat="48.12667" lon="-3.29867">
        <ele>209.6</ele>
        <time>2024-11-20T08:59:41Z</time>
      </trkpt>
      <trkpt lat="48.12667" lon="-3.29867">
        <ele>209.6</ele>
        <time>2024-11-20T08:59:42Z</time>
      </trkpt>
      <trkpt lat="48.12667" lon="-3.29867">
        <ele>209.6</ele>
        <time>2024-11-20T08:59:43Z</time>
      </trkpt>
      <trkpt lat="48.12667" lon="-3.29867">
        <ele>209.6</ele>
        <time>2024-11-20T08:59:44Z</time>
      </trkpt>
      <trkpt lat="48.12667" lon="-3.29867">
        <ele>209.6</ele>
        <time>2024-11-20T08:59:45Z</time>
      </trkpt>
      <trkpt lat="48.12667" lon="-3.29867">
        <ele>209.6</ele>
        <time>2024-11-20T08:59:46Z</time>
      </trkpt>
      <trkpt lat="48.12667" lon="-3.29867">
        <ele>209.6</ele>
        <time>2024-11-20T08:59:47Z</time>
      </trkpt>
      <trkpt lat="48.12667" lon="-3.29867">
        <ele>209.6</ele>
        <time>2024-11-20T08:59:48Z</time>
      </trkpt>
      <trkpt lat="48.12667" lon="-3.29867">
        <ele>209.6</ele>
        <time>2024-11-20T08:59:49Z</time>
      </trkpt>
      <trkpt lat="48.12667" lon="-3.29867">
        <ele>209.6</ele>
        <time>2024-11-20T08:59:50Z</time>
      </trkpt>
      <trkpt lat="48.12667" lon="-3.29867">
        <ele>209.5</ele>
        <time>2024-11-20T08:59:51Z</time>
      </trkpt>
      <trkpt lat="48.12667" lon="-3.29867">
        <ele>209.4</ele>
        <time>2024-11-20T08:59:52Z</time>
      </trkpt>
      <trkpt lat="48.12667" lon="-3.29867">
        <ele>209.4</ele>
        <time>2024-11-20T08:59:53Z</time>
      </trkpt>
      <trkpt lat="48.12667" lon="-3.29867">
        <ele>209.4</ele>
        <time>2024-11-20T08:59:54Z</time>
      </trkpt>
      <trkpt lat="48.12667" lon="-3.29867">
        <ele>209.3</ele>
        <time>2024-11-20T08:59:55Z</time>
      </trkpt>
      <trkpt lat="48.12668" lon="-3.29867">
        <ele>209.3</ele>
        <time>2024-11-20T08:59:56Z</time>
      </trkpt>
      <trkpt lat="48.12668" lon="-3.29867">
        <ele>209.3</ele>
        <time>2024-11-20T08:59:57Z</time>
      </trkpt>
      <trkpt lat="48.12668" lon="-3.29867">
        <ele>209.3</ele>
        <time>2024-11-20T08:59:58Z</time>
      </trkpt>
      <trkpt lat="48.12668" lon="-3.29867">
        <ele>209.2</ele>
        <time>2024-11-20T08:59:59Z</time>
      </trkpt>
      <trkpt lat="48.12668" lon="-3.29868">
        <ele>209.2</ele>
        <time>2024-11-20T09:00:00Z</time>
      </trkpt>
      <trkpt lat="48.12668" lon="-3.29868">
        <ele>209.2</ele>
        <time>2024-11-20T09:00:01Z</time>
      </trkpt>
      <trkpt lat="48.12668" lon="-3.29868">
        <ele>209.2</ele>
        <time>2024-11-20T09:00:02Z</time>
      </trkpt>
      <trkpt lat="48.12668" lon="-3.29868">
        <ele>209.2</ele>
        <time>2024-11-20T09:00:03Z</time>
      </trkpt>
      <trkpt lat="48.12668" lon="-3.29868">
        <ele>209.2</ele>
        <time>2024-11-20T09:00:04Z</time>
      </trkpt>
      <trkpt lat="48.12668" lon="-3.29868">
        <ele>209.2</ele>
        <time>2024-11-20T09:00:05Z</time>
      </trkpt>
      <trkpt lat="48.12668" lon="-3.29868">
        <ele>209.1</ele>
        <time>2024-11-20T09:00:06Z</time>
      </trkpt>
      <trkpt lat="48.12668" lon="-3.29868">
        <ele>209.1</ele>
        <time>2024-11-20T09:00:07Z</time>
      </trkpt>
      <trkpt lat="48.12668" lon="-3.29868">
        <ele>209.1</ele>
        <time>2024-11-20T09:00:08Z</time>
      </trkpt>
      <trkpt lat="48.12668" lon="-3.29868">
        <ele>209.1</ele>
        <time>2024-11-20T09:00:09Z</time>
      </trkpt>
      <trkpt lat="48.12668" lon="-3.29868">
        <ele>209.1</ele>
        <time>2024-11-20T09:00:10Z</time>
      </trkpt>
      <trkpt lat="48.12668" lon="-3.29868">
        <ele>209.1</ele>
        <time>2024-11-20T09:00:11Z</time>
      </trkpt>
      <trkpt lat="48.12668" lon="-3.29868">
        <ele>209.1</ele>
        <time>2024-11-20T09:00:12Z</time>
      </trkpt>
      <trkpt lat="48.12668" lon="-3.29868">
        <ele>209.1</ele>
        <time>2024-11-20T09:00:13Z</time>
      </trkpt>
      <trkpt lat="48.12668" lon="-3.29868">
        <ele>209.1</ele>
        <time>2024-11-20T09:00:14Z</time>
      </trkpt>
      <trkpt lat="48.12668" lon="-3.29868">
        <ele>209.1</ele>
        <time>2024-11-20T09:00:15Z</time>
      </trkpt>
      <trkpt lat="48.12668" lon="-3.29868">
        <ele>209.1</ele>
        <time>2024-11-20T09:00:16Z</time>
      </trkpt>
      <trkpt lat="48.12668" lon="-3.29868">
        <ele>209.1</ele>
        <time>2024-11-20T09:00:17Z</time>
      </trkpt>
      <trkpt lat="48.12668" lon="-3.29868">
        <ele>209.1</ele>
        <time>2024-11-20T09:00:18Z</time>
      </trkpt>
      <trkpt lat="48.12668" lon="-3.29868">
        <ele>209.1</ele>
        <time>2024-11-20T09:00:19Z</time>
      </trkpt>
      <trkpt lat="48.12668" lon="-3.29868">
        <ele>209.1</ele>
        <time>2024-11-20T09:00:20Z</time>
      </trkpt>
      <trkpt lat="48.12668" lon="-3.29868">
        <ele>209.1</ele>
        <time>2024-11-20T09:00:21Z</time>
      </trkpt>
      <trkpt lat="48.12668" lon="-3.29868">
        <ele>209.1</ele>
        <time>2024-11-20T09:00:22Z</time>
      </trkpt>
      <trkpt lat="48.12668" lon="-3.29868">
        <ele>209.1</ele>
        <time>2024-11-20T09:00:23Z</time>
      </trkpt>
      <trkpt lat="48.12668" lon="-3.29868">
        <ele>209.1</ele>
        <time>2024-11-20T09:00:24Z</time>
      </trkpt>
      <trkpt lat="48.12668" lon="-3.29868">
        <ele>209.1</ele>
        <time>2024-11-20T09:00:25Z</time>
      </trkpt>
      <trkpt lat="48.12668" lon="-3.29868">
        <ele>209.1</ele>
        <time>2024-11-20T09:00:26Z</time>
      </trkpt>
      <trkpt lat="48.12668" lon="-3.29868">
        <ele>209.1</ele>
        <time>2024-11-20T09:00:27Z</time>
      </trkpt>
      <trkpt lat="48.12668" lon="-3.29868">
        <ele>209.1</ele>
        <time>2024-11-20T09:00:28Z</time>
      </trkpt>
      <trkpt lat="48.12668" lon="-3.29868">
        <ele>209.1</ele>
        <time>2024-11-20T09:00:29Z</time>
      </trkpt>
      <trkpt lat="48.12668" lon="-3.29868">
        <ele>209.1</ele>
        <time>2024-11-20T09:00:30Z</time>
      </trkpt>
      <trkpt lat="48.12668" lon="-3.29868">
        <ele>209.1</ele>
        <time>2024-11-20T09:00:31Z</time>
      </trkpt>
      <trkpt lat="48.12668" lon="-3.29868">
        <ele>209.1</ele>
        <time>2024-11-20T09:00:32Z</time>
      </trkpt>
      <trkpt lat="48.12668" lon="-3.29868">
        <ele>209.1</ele>
        <time>2024-11-20T09:00:33Z</time>
      </trkpt>
      <trkpt lat="48.12668" lon="-3.29868">
        <ele>209.1</ele>
        <time>2024-11-20T09:00:34Z</time>
      </trkpt>
      <trkpt lat="48.12668" lon="-3.29868">
        <ele>209.1</ele>
        <time>2024-11-20T09:00:35Z</time>
      </trkpt>
      <trkpt lat="48.12668" lon="-3.29868">
        <ele>209.1</ele>
        <time>2024-11-20T09:00:36Z</time>
      </trkpt>
      <trkpt lat="48.12668" lon="-3.29868">
        <ele>209.1</ele>
        <time>2024-11-20T09:00:37Z</time>
      </trkpt>
      <trkpt lat="48.12668" lon="-3.29868">
        <ele>209.1</ele>
        <time>2024-11-20T09:00:38Z</time>
      </trkpt>
      <trkpt lat="48.12668" lon="-3.29868">
        <ele>209.1</ele>
        <time>2024-11-20T09:00:39Z</time>
      </trkpt>
      <trkpt lat="48.12668" lon="-3.29868">
        <ele>209.1</ele>
        <time>2024-11-20T09:00:40Z</time>
      </trkpt>
      <trkpt lat="48.12668" lon="-3.29868">
        <ele>209.1</ele>
        <time>2024-11-20T09:00:41Z</time>
      </trkpt>
      <trkpt lat="48.12668" lon="-3.29868">
        <ele>209.1</ele>
        <time>2024-11-20T09:00:42Z</time>
      </trkpt>
      <trkpt lat="48.12668" lon="-3.29868">
        <ele>209.1</ele>
        <time>2024-11-20T09:00:43Z</time>
      </trkpt>
      <trkpt lat="48.12668" lon="-3.29868">
        <ele>209.1</ele>
        <time>2024-11-20T09:00:44Z</time>
      </trkpt>
      <trkpt lat="48.12668" lon="-3.29868">
        <ele>209.1</ele>
        <time>2024-11-20T09:00:45Z</time>
      </trkpt>
      <trkpt lat="48.12668" lon="-3.29868">
        <ele>209.1</ele>
        <time>2024-11-20T09:00:46Z</time>
      </trkpt>
      <trkpt lat="48.12668" lon="-3.29868">
        <ele>209.1</ele>
        <time>2024-11-20T09:00:47Z</time>
      </trkpt>
      <trkpt lat="48.12668" lon="-3.29868">
        <ele>209.1</ele>
        <time>2024-11-20T09:00:48Z</time>
      </trkpt>
      <trkpt lat="48.12667" lon="-3.29866">
        <ele>209.6</ele>
        <time>2024-11-20T09:00:49Z</time>
      </trkpt>
      <trkpt lat="48.12667" lon="-3.29865">
        <ele>209.9</ele>
        <time>2024-11-20T09:00:50Z</time>
      </trkpt>
      <trkpt lat="48.12667" lon="-3.29865">
        <ele>210.1</ele>
        <time>2024-11-20T09:00:51Z</time>
      </trkpt>
      <trkpt lat="48.12667" lon="-3.29865">
        <ele>210.1</ele>
        <time>2024-11-20T09:00:52Z</time>
      </trkpt>
      <trkpt lat="48.12667" lon="-3.29865">
        <ele>210.1</ele>
        <time>2024-11-20T09:00:53Z</time>
      </trkpt>
      <trkpt lat="48.12667" lon="-3.29866">
        <ele>209.9</ele>
        <time>2024-11-20T09:00:54Z</time>
      </trkpt>
      <trkpt lat="48.12667" lon="-3.29867">
        <ele>209.6</ele>
        <time>2024-11-20T09:00:55Z</time>
      </trkpt>
      <trkpt lat="48.12667" lon="-3.29868">
        <ele>209.3</ele>
        <time>2024-11-20T09:00:56Z</time>
      </trkpt>
      <trkpt lat="48.12668" lon="-3.29868">
        <ele>209</ele>
        <time>2024-11-20T09:00:57Z</time>
      </trkpt>
      <trkpt lat="48.12668" lon="-3.29869">
        <ele>208.9</ele>
        <time>2024-11-20T09:00:58Z</time>
      </trkpt>
      <trkpt lat="48.12668" lon="-3.29869">
        <ele>208.9</ele>
        <time>2024-11-20T09:00:59Z</time>
      </trkpt>
      <trkpt lat="48.12668" lon="-3.29868">
        <ele>208.9</ele>
        <time>2024-11-20T09:01:00Z</time>
      </trkpt>
      <trkpt lat="48.12668" lon="-3.29868">
        <ele>208.9</ele>
        <time>2024-11-20T09:01:01Z</time>
      </trkpt>
      <trkpt lat="48.12668" lon="-3.29868">
        <ele>209</ele>
        <time>2024-11-20T09:01:02Z</time>
      </trkpt>
      <trkpt lat="48.12669" lon="-3.29868">
        <ele>209</ele>
        <time>2024-11-20T09:01:03Z</time>
      </trkpt>
      <trkpt lat="48.12669" lon="-3.29868">
        <ele>209</ele>
        <time>2024-11-20T09:01:04Z</time>
      </trkpt>
      <trkpt lat="48.12669" lon="-3.29868">
        <ele>209</ele>
        <time>2024-11-20T09:01:05Z</time>
      </trkpt>
      <trkpt lat="48.12669" lon="-3.29867">
        <ele>209.1</ele>
        <time>2024-11-20T09:01:06Z</time>
      </trkpt>
      <trkpt lat="48.12669" lon="-3.29867">
        <ele>209.1</ele>
        <time>2024-11-20T09:01:07Z</time>
      </trkpt>
      <trkpt lat="48.12669" lon="-3.29867">
        <ele>209.1</ele>
        <time>2024-11-20T09:01:08Z</time>
      </trkpt>
      <trkpt lat="48.12669" lon="-3.29867">
        <ele>209.1</ele>
        <time>2024-11-20T09:01:09Z</time>
      </trkpt>
      <trkpt lat="48.12669" lon="-3.29867">
        <ele>209.2</ele>
        <time>2024-11-20T09:01:10Z</time>
      </trkpt>
      <trkpt lat="48.12669" lon="-3.29867">
        <ele>209.2</ele>
        <time>2024-11-20T09:01:11Z</time>
      </trkpt>
      <trkpt lat="48.12669" lon="-3.29867">
        <ele>209.2</ele>
        <time>2024-11-20T09:01:12Z</time>
      </trkpt>
      <trkpt lat="48.12669" lon="-3.29867">
        <ele>209.2</ele>
        <time>2024-11-20T09:01:13Z</time>
      </trkpt>
      <trkpt lat="48.12669" lon="-3.29867">
        <ele>209.2</ele>
        <time>2024-11-20T09:01:14Z</time>
      </trkpt>
      <trkpt lat="48.12669" lon="-3.29867">
        <ele>209.2</ele>
        <time>2024-11-20T09:01:15Z</time>
      </trkpt>
      <trkpt lat="48.12669" lon="-3.29867">
        <ele>209.2</ele>
        <time>2024-11-20T09:01:16Z</time>
      </trkpt>
      <trkpt lat="48.12669" lon="-3.29867">
        <ele>209.2</ele>
        <time>2024-11-20T09:01:17Z</time>
      </trkpt>
      <trkpt lat="48.12669" lon="-3.29867">
        <ele>209.2</ele>
        <time>2024-11-20T09:01:18Z</time>
      </trkpt>
      <trkpt lat="48.12669" lon="-3.29867">
        <ele>209.2</ele>
        <time>2024-11-20T09:01:19Z</time>
      </trkpt>
      <trkpt lat="48.12669" lon="-3.29867">
        <ele>209.2</ele>
        <time>2024-11-20T09:01:20Z</time>
      </trkpt>
      <trkpt lat="48.12669" lon="-3.29867">
        <ele>209.2</ele>
        <time>2024-11-20T09:01:21Z</time>
      </trkpt>
      <trkpt lat="48.12669" lon="-3.29867">
        <ele>209.2</ele>
        <time>2024-11-20T09:01:22Z</time>
      </trkpt>
      <trkpt lat="48.12669" lon="-3.29867">
        <ele>209.2</ele>
        <time>2024-11-20T09:01:23Z</time>
      </trkpt>
      <trkpt lat="48.12669" lon="-3.29867">
        <ele>209.1</ele>
        <time>2024-11-20T09:01:24Z</time>
      </trkpt>
      <trkpt lat="48.12669" lon="-3.29867">
        <ele>209.1</ele>
        <time>2024-11-20T09:01:25Z</time>
      </trkpt>
      <trkpt lat="48.12669" lon="-3.29867">
        <ele>209.1</ele>
        <time>2024-11-20T09:01:26Z</time>
      </trkpt>
      <trkpt lat="48.12669" lon="-3.29867">
        <ele>209.1</ele>
        <time>2024-11-20T09:01:27Z</time>
      </trkpt>
      <trkpt lat="48.12669" lon="-3.29867">
        <ele>209.1</ele>
        <time>2024-11-20T09:01:28Z</time>
      </trkpt>
      <trkpt lat="48.12669" lon="-3.29867">
        <ele>209.1</ele>
        <time>2024-11-20T09:01:29Z</time>
      </trkpt>
      <trkpt lat="48.12669" lon="-3.29867">
        <ele>209.1</ele>
        <time>2024-11-20T09:01:30Z</time>
      </trkpt>
      <trkpt lat="48.12669" lon="-3.29867">
        <ele>209.1</ele>
        <time>2024-11-20T09:01:31Z</time>
      </trkpt>
      <trkpt lat="48.12669" lon="-3.29867">
        <ele>209.1</ele>
        <time>2024-11-20T09:01:32Z</time>
      </trkpt>
      <trkpt lat="48.12669" lon="-3.29867">
        <ele>209.1</ele>
        <time>2024-11-20T09:01:33Z</time>
      </trkpt>
      <trkpt lat="48.12669" lon="-3.29867">
        <ele>209.1</ele>
        <time>2024-11-20T09:01:34Z</time>
      </trkpt>
      <trkpt lat="48.12669" lon="-3.29867">
        <ele>209.1</ele>
        <time>2024-11-20T09:01:35Z</time>
      </trkpt>
      <trkpt lat="48.12669" lon="-3.29867">
        <ele>209.1</ele>
        <time>2024-11-20T09:01:36Z</time>
      </trkpt>
      <trkpt lat="48.12669" lon="-3.29867">
        <ele>209.1</ele>
        <time>2024-11-20T09:01:37Z</time>
      </trkpt>
      <trkpt lat="48.12669" lon="-3.29867">
        <ele>209.1</ele>
        <time>2024-11-20T09:01:38Z</time>
      </trkpt>
      <trkpt lat="48.12669" lon="-3.29867">
        <ele>209.1</ele>
        <time>2024-11-20T09:01:39Z</time>
      </trkpt>
      <trkpt lat="48.12669" lon="-3.29867">
        <ele>209.1</ele>
        <time>2024-11-20T09:01:40Z</time>
      </trkpt>
      <trkpt lat="48.12669" lon="-3.29867">
        <ele>209.1</ele>
        <time>2024-11-20T09:01:41Z</time>
      </trkpt>
      <trkpt lat="48.12669" lon="-3.29867">
        <ele>209.1</ele>
        <time>2024-11-20T09:01:42Z</time>
      </trkpt>
      <trkpt lat="48.12669" lon="-3.29867">
        <ele>209.1</ele>
        <time>2024-11-20T09:01:43Z</time>
      </trkpt>
      <trkpt lat="48.12669" lon="-3.29867">
        <ele>209.1</ele>
        <time>2024-11-20T09:01:44Z</time>
      </trkpt>
      <trkpt lat="48.12669" lon="-3.29867">
        <ele>209.1</ele>
        <time>2024-11-20T09:01:45Z</time>
      </trkpt>
      <trkpt lat="48.12669" lon="-3.29867">
        <ele>209.1</ele>
        <time>2024-11-20T09:01:46Z</time>
      </trkpt>
      <trkpt lat="48.12669" lon="-3.29867">
        <ele>209.1</ele>
        <time>2024-11-20T09:01:47Z</time>
      </trkpt>
      <trkpt lat="48.12669" lon="-3.29867">
        <ele>209.1</ele>
        <time>2024-11-20T09:01:48Z</time>
      </trkpt>
      <trkpt lat="48.12669" lon="-3.29867">
        <ele>209.1</ele>
        <time>2024-11-20T09:01:49Z</time>
      </trkpt>
      <trkpt lat="48.12669" lon="-3.29867">
        <ele>209.1</ele>
        <time>2024-11-20T09:01:50Z</time>
      </trkpt>
      <trkpt lat="48.12669" lon="-3.29867">
        <ele>209.1</ele>
        <time>2024-11-20T09:01:51Z</time>
      </trkpt>
      <trkpt lat="48.12669" lon="-3.29867">
        <ele>209.1</ele>
        <time>2024-11-20T09:01:52Z</time>
      </trkpt>
      <trkpt lat="48.12669" lon="-3.29867">
        <ele>209.1</ele>
        <time>2024-11-20T09:01:53Z</time>
      </trkpt>
      <trkpt lat="48.12669" lon="-3.29867">
        <ele>209.1</ele>
        <time>2024-11-20T09:01:54Z</time>
      </trkpt>
      <trkpt lat="48.12669" lon="-3.29867">
        <ele>209.1</ele>
        <time>2024-11-20T09:01:55Z</time>
      </trkpt>
      <trkpt lat="48.12669" lon="-3.29867">
        <ele>209.1</ele>
        <time>2024-11-20T09:01:56Z</time>
      </trkpt>
      <trkpt lat="48.12669" lon="-3.29867">
        <ele>209.1</ele>
        <time>2024-11-20T09:01:57Z</time>
      </trkpt>
      <trkpt lat="48.12669" lon="-3.29867">
        <ele>209.1</ele>
        <time>2024-11-20T09:01:58Z</time>
      </trkpt>
      <trkpt lat="48.12669" lon="-3.29867">
        <ele>209.1</ele>
        <time>2024-11-20T09:01:59Z</time>
      </trkpt>
      <trkpt lat="48.12669" lon="-3.29867">
        <ele>209.1</ele>
        <time>2024-11-20T09:02:00Z</time>
      </trkpt>
      <trkpt lat="48.12669" lon="-3.29867">
        <ele>209.1</ele>
        <time>2024-11-20T09:02:01Z</time>
      </trkpt>
      <trkpt lat="48.12669" lon="-3.29867">
        <ele>209.1</ele>
        <time>2024-11-20T09:02:02Z</time>
      </trkpt>
      <trkpt lat="48.12669" lon="-3.29867">
        <ele>209.1</ele>
        <time>2024-11-20T09:02:03Z</time>
      </trkpt>
      <trkpt lat="48.12669" lon="-3.29867">
        <ele>209.1</ele>
        <time>2024-11-20T09:02:04Z</time>
      </trkpt>
      <trkpt lat="48.12669" lon="-3.29867">
        <ele>209.1</ele>
        <time>2024-11-20T09:02:05Z</time>
      </trkpt>
      <trkpt lat="48.12669" lon="-3.29867">
        <ele>209</ele>
        <time>2024-11-20T09:02:06Z</time>
      </trkpt>
      <trkpt lat="48.12669" lon="-3.29867">
        <ele>209</ele>
        <time>2024-11-20T09:02:07Z</time>
      </trkpt>
      <trkpt lat="48.12669" lon="-3.29867">
        <ele>209</ele>
        <time>2024-11-20T09:02:08Z</time>
      </trkpt>
      <trkpt lat="48.12669" lon="-3.29867">
        <ele>209</ele>
        <time>2024-11-20T09:02:09Z</time>
      </trkpt>
      <trkpt lat="48.12669" lon="-3.29867">
        <ele>209</ele>
        <time>2024-11-20T09:02:10Z</time>
      </trkpt>
      <trkpt lat="48.12669" lon="-3.29867">
        <ele>209</ele>
        <time>2024-11-20T09:02:11Z</time>
      </trkpt>
      <trkpt lat="48.12669" lon="-3.29867">
        <ele>209</ele>
        <time>2024-11-20T09:02:12Z</time>
      </trkpt>
      <trkpt lat="48.12669" lon="-3.29867">
        <ele>209</ele>
        <time>2024-11-20T09:02:13Z</time>
      </trkpt>
      <trkpt lat="48.12669" lon="-3.29867">
        <ele>209</ele>
        <time>2024-11-20T09:02:14Z</time>
      </trkpt>
      <trkpt lat="48.12669" lon="-3.29867">
        <ele>209</ele>
        <time>2024-11-20T09:02:15Z</time>
      </trkpt>
      <trkpt lat="48.12669" lon="-3.29867">
        <ele>209</ele>
        <time>2024-11-20T09:02:16Z</time>
      </trkpt>
      <trkpt lat="48.12669" lon="-3.29867">
        <ele>209</ele>
        <time>2024-11-20T09:02:17Z</time>
      </trkpt>
      <trkpt lat="48.12669" lon="-3.29867">
        <ele>209</ele>
        <time>2024-11-20T09:02:18Z</time>
      </trkpt>
      <trkpt lat="48.12669" lon="-3.29867">
        <ele>209</ele>
        <time>2024-11-20T09:02:19Z</time>
      </trkpt>
      <trkpt lat="48.12669" lon="-3.29867">
        <ele>209</ele>
        <time>2024-11-20T09:02:20Z</time>
      </trkpt>
      <trkpt lat="48.12669" lon="-3.29867">
        <ele>209</ele>
        <time>2024-11-20T09:02:21Z</time>
      </trkpt>
      <trkpt lat="48.12669" lon="-3.29867">
        <ele>209</ele>
        <time>2024-11-20T09:02:22Z</time>
      </trkpt>
      <trkpt lat="48.12669" lon="-3.29867">
        <ele>209</ele>
        <time>2024-11-20T09:02:23Z</time>
      </trkpt>
      <trkpt lat="48.12669" lon="-3.29867">
        <ele>209</ele>
        <time>2024-11-20T09:02:24Z</time>
      </trkpt>
      <trkpt lat="48.12669" lon="-3.29867">
        <ele>209.1</ele>
        <time>2024-11-20T09:02:25Z</time>
      </trkpt>
      <trkpt lat="48.12669" lon="-3.29867">
        <ele>209.1</ele>
        <time>2024-11-20T09:02:26Z</time>
      </trkpt>
      <trkpt lat="48.12669" lon="-3.29867">
        <ele>209.1</ele>
        <time>2024-11-20T09:02:27Z</time>
      </trkpt>
      <trkpt lat="48.12669" lon="-3.29867">
        <ele>209.1</ele>
        <time>2024-11-20T09:02:28Z</time>
      </trkpt>
      <trkpt lat="48.12669" lon="-3.29867">
        <ele>209.1</ele>
        <time>2024-11-20T09:02:29Z</time>
      </trkpt>
      <trkpt lat="48.12669" lon="-3.29868">
        <ele>209</ele>
        <time>2024-11-20T09:02:30Z</time>
      </trkpt>
      <trkpt lat="48.12669" lon="-3.29868">
        <ele>209</ele>
        <time>2024-11-20T09:02:31Z</time>
      </trkpt>
      <trkpt lat="48.12669" lon="-3.29868">
        <ele>209</ele>
        <time>2024-11-20T09:02:32Z</time>
      </trkpt>
      <trkpt lat="48.12669" lon="-3.29868">
        <ele>209</ele>
        <time>2024-11-20T09:02:33Z</time>
      </trkpt>
      <trkpt lat="48.12669" lon="-3.29868">
        <ele>209</ele>
        <time>2024-11-20T09:02:34Z</time>
      </trkpt>
      <trkpt lat="48.12669" lon="-3.29868">
        <ele>209</ele>
        <time>2024-11-20T09:02:35Z</time>
      </trkpt>
      <trkpt lat="48.12669" lon="-3.29868">
        <ele>209</ele>
        <time>2024-11-20T09:02:36Z</time>
      </trkpt>
      <trkpt lat="48.12669" lon="-3.29868">
        <ele>209</ele>
        <time>2024-11-20T09:02:37Z</time>
      </trkpt>
      <trkpt lat="48.12669" lon="-3.29868">
        <ele>209</ele>
        <time>2024-11-20T09:02:38Z</time>
      </trkpt>
      <trkpt lat="48.12668" lon="-3.29868">
        <ele>209</ele>
        <time>2024-11-20T09:02:39Z</time>
      </trkpt>
      <trkpt lat="48.12668" lon="-3.29869">
        <ele>208.8</ele>
        <time>2024-11-20T09:02:40Z</time>
      </trkpt>
      <trkpt lat="48.12668" lon="-3.29869">
        <ele>208.8</ele>
        <time>2024-11-20T09:02:41Z</time>
      </trkpt>
      <trkpt lat="48.12668" lon="-3.29869">
        <ele>208.7</ele>
        <time>2024-11-20T09:02:42Z</time>
      </trkpt>
      <trkpt lat="48.12667" lon="-3.29869">
        <ele>208.8</ele>
        <time>2024-11-20T09:02:43Z</time>
      </trkpt>
      <trkpt lat="48.12667" lon="-3.29869">
        <ele>208.9</ele>
        <time>2024-11-20T09:02:44Z</time>
      </trkpt>
      <trkpt lat="48.12667" lon="-3.29869">
        <ele>208.9</ele>
        <time>2024-11-20T09:02:45Z</time>
      </trkpt>
      <trkpt lat="48.12667" lon="-3.29869">
        <ele>209</ele>
        <time>2024-11-20T09:02:46Z</time>
      </trkpt>
      <trkpt lat="48.12667" lon="-3.29869">
        <ele>208.9</ele>
        <time>2024-11-20T09:02:47Z</time>
      </trkpt>
      <trkpt lat="48.12667" lon="-3.29869">
        <ele>209</ele>
        <time>2024-11-20T09:02:48Z</time>
      </trkpt>
      <trkpt lat="48.12667" lon="-3.29869">
        <ele>209</ele>
        <time>2024-11-20T09:02:49Z</time>
      </trkpt>
      <trkpt lat="48.12667" lon="-3.29869">
        <ele>209</ele>
        <time>2024-11-20T09:02:50Z</time>
      </trkpt>
      <trkpt lat="48.12667" lon="-3.29869">
        <ele>209</ele>
        <time>2024-11-20T09:02:51Z</time>
      </trkpt>
      <trkpt lat="48.12667" lon="-3.29869">
        <ele>209</ele>
        <time>2024-11-20T09:02:52Z</time>
      </trkpt>
      <trkpt lat="48.12667" lon="-3.29869">
        <ele>208.9</ele>
        <time>2024-11-20T09:02:53Z</time>
      </trkpt>
      <trkpt lat="48.12667" lon="-3.29869">
        <ele>208.9</ele>
        <time>2024-11-20T09:02:54Z</time>
      </trkpt>
      <trkpt lat="48.12667" lon="-3.29869">
        <ele>208.9</ele>
        <time>2024-11-20T09:02:55Z</time>
      </trkpt>
      <trkpt lat="48.12667" lon="-3.29869">
        <ele>208.9</ele>
        <time>2024-11-20T09:02:56Z</time>
      </trkpt>
      <trkpt lat="48.12667" lon="-3.29869">
        <ele>208.9</ele>
        <time>2024-11-20T09:02:57Z</time>
      </trkpt>
      <trkpt lat="48.12667" lon="-3.29869">
        <ele>208.9</ele>
        <time>2024-11-20T09:02:58Z</time>
      </trkpt>
      <trkpt lat="48.12667" lon="-3.29869">
        <ele>208.9</ele>
        <time>2024-11-20T09:02:59Z</time>
      </trkpt>
      <trkpt lat="48.12667" lon="-3.2987">
        <ele>208.9</ele>
        <time>2024-11-20T09:03:00Z</time>
      </trkpt>
      <trkpt lat="48.12667" lon="-3.2987">
        <ele>208.9</ele>
        <time>2024-11-20T09:03:01Z</time>
      </trkpt>
      <trkpt lat="48.12667" lon="-3.2987">
        <ele>208.9</ele>
        <time>2024-11-20T09:03:02Z</time>
      </trkpt>
      <trkpt lat="48.12667" lon="-3.2987">
        <ele>208.9</ele>
        <time>2024-11-20T09:03:03Z</time>
      </trkpt>
      <trkpt lat="48.12667" lon="-3.2987">
        <ele>208.9</ele>
        <time>2024-11-20T09:03:04Z</time>
      </trkpt>
      <trkpt lat="48.12667" lon="-3.29869">
        <ele>209</ele>
        <time>2024-11-20T09:03:06Z</time>
      </trkpt>
      <trkpt lat="48.12667" lon="-3.29869">
        <ele>209.1</ele>
        <time>2024-11-20T09:03:07Z</time>
      </trkpt>
      <trkpt lat="48.12667" lon="-3.29869">
        <ele>209.1</ele>
        <time>2024-11-20T09:03:08Z</time>
      </trkpt>
      <trkpt lat="48.12667" lon="-3.29868">
        <ele>209.2</ele>
        <time>2024-11-20T09:03:09Z</time>
      </trkpt>
      <trkpt lat="48.12667" lon="-3.29868">
        <ele>209.2</ele>
        <time>2024-11-20T09:03:10Z</time>
      </trkpt>
      <trkpt lat="48.12667" lon="-3.29868">
        <ele>209.1</ele>
        <time>2024-11-20T09:03:11Z</time>
      </trkpt>
      <trkpt lat="48.12667" lon="-3.29868">
        <ele>209.1</ele>
        <time>2024-11-20T09:03:12Z</time>
      </trkpt>
      <trkpt lat="48.12667" lon="-3.29869">
        <ele>209</ele>
        <time>2024-11-20T09:03:13Z</time>
      </trkpt>
      <trkpt lat="48.12667" lon="-3.29869">
        <ele>209</ele>
        <time>2024-11-20T09:03:14Z</time>
      </trkpt>
      <trkpt lat="48.12667" lon="-3.29869">
        <ele>208.9</ele>
        <time>2024-11-20T09:03:15Z</time>
      </trkpt>
      <trkpt lat="48.12667" lon="-3.29869">
        <ele>209</ele>
        <time>2024-11-20T09:03:16Z</time>
      </trkpt>
      <trkpt lat="48.12667" lon="-3.29868">
        <ele>209</ele>
        <time>2024-11-20T09:03:17Z</time>
      </trkpt>
      <trkpt lat="48.12668" lon="-3.29868">
        <ele>209</ele>
        <time>2024-11-20T09:03:18Z</time>
      </trkpt>
      <trkpt lat="48.12668" lon="-3.29869">
        <ele>208.9</ele>
        <time>2024-11-20T09:03:19Z</time>
      </trkpt>
      <trkpt lat="48.12668" lon="-3.29869">
        <ele>209</ele>
        <time>2024-11-20T09:03:20Z</time>
      </trkpt>
      <trkpt lat="48.12668" lon="-3.29869">
        <ele>209</ele>
        <time>2024-11-20T09:03:21Z</time>
      </trkpt>
      <trkpt lat="48.12667" lon="-3.29868">
        <ele>209.1</ele>
        <time>2024-11-20T09:03:22Z</time>
      </trkpt>
      <trkpt lat="48.12667" lon="-3.29868">
        <ele>209.1</ele>
        <time>2024-11-20T09:03:23Z</time>
      </trkpt>
      <trkpt lat="48.12667" lon="-3.29868">
        <ele>209.2</ele>
        <time>2024-11-20T09:03:24Z</time>
      </trkpt>
      <trkpt lat="48.12667" lon="-3.29868">
        <ele>209.2</ele>
        <time>2024-11-20T09:03:25Z</time>
      </trkpt>
      <trkpt lat="48.12666" lon="-3.29868">
        <ele>209.2</ele>
        <time>2024-11-20T09:03:26Z</time>
      </trkpt>
      <trkpt lat="48.12666" lon="-3.29868">
        <ele>209.2</ele>
        <time>2024-11-20T09:03:27Z</time>
      </trkpt>
      <trkpt lat="48.12666" lon="-3.29868">
        <ele>209.3</ele>
        <time>2024-11-20T09:03:28Z</time>
      </trkpt>
      <trkpt lat="48.12666" lon="-3.29868">
        <ele>209.3</ele>
        <time>2024-11-20T09:03:29Z</time>
      </trkpt>
      <trkpt lat="48.12666" lon="-3.29868">
        <ele>209.3</ele>
        <time>2024-11-20T09:03:30Z</time>
      </trkpt>
      <trkpt lat="48.12666" lon="-3.29868">
        <ele>209.2</ele>
        <time>2024-11-20T09:03:31Z</time>
      </trkpt>
      <trkpt lat="48.12666" lon="-3.29869">
        <ele>209.1</ele>
        <time>2024-11-20T09:03:32Z</time>
      </trkpt>
      <trkpt lat="48.12666" lon="-3.29869">
        <ele>209.1</ele>
        <time>2024-11-20T09:03:33Z</time>
      </trkpt>
      <trkpt lat="48.12667" lon="-3.29869">
        <ele>209.1</ele>
        <time>2024-11-20T09:03:34Z</time>
      </trkpt>
      <trkpt lat="48.12667" lon="-3.29868">
        <ele>209.2</ele>
        <time>2024-11-20T09:03:35Z</time>
      </trkpt>
      <trkpt lat="48.12667" lon="-3.29867">
        <ele>209.3</ele>
        <time>2024-11-20T09:03:36Z</time>
      </trkpt>
      <trkpt lat="48.12668" lon="-3.29867">
        <ele>209.3</ele>
        <time>2024-11-20T09:03:37Z</time>
      </trkpt>
      <trkpt lat="48.12668" lon="-3.29867">
        <ele>209.3</ele>
        <time>2024-11-20T09:03:38Z</time>
      </trkpt>
      <trkpt lat="48.12668" lon="-3.29867">
        <ele>209.3</ele>
        <time>2024-11-20T09:03:39Z</time>
      </trkpt>
      <trkpt lat="48.12668" lon="-3.29867">
        <ele>209.3</ele>
        <time>2024-11-20T09:03:40Z</time>
      </trkpt>
      <trkpt lat="48.12668" lon="-3.29867">
        <ele>209.2</ele>
        <time>2024-11-20T09:03:41Z</time>
      </trkpt>
      <trkpt lat="48.12668" lon="-3.29867">
        <ele>209.2</ele>
        <time>2024-11-20T09:03:42Z</time>
      </trkpt>
      <trkpt lat="48.12668" lon="-3.29867">
        <ele>209.2</ele>
        <time>2024-11-20T09:03:43Z</time>
      </trkpt>
      <trkpt lat="48.12668" lon="-3.29868">
        <ele>209.2</ele>
        <time>2024-11-20T09:03:44Z</time>
      </trkpt>
      <trkpt lat="48.12668" lon="-3.29868">
        <ele>209.2</ele>
        <time>2024-11-20T09:03:45Z</time>
      </trkpt>
      <trkpt lat="48.12668" lon="-3.29868">
        <ele>209.2</ele>
        <time>2024-11-20T09:03:46Z</time>
      </trkpt>
      <trkpt lat="48.12668" lon="-3.29868">
        <ele>209.2</ele>
        <time>2024-11-20T09:03:47Z</time>
      </trkpt>
      <trkpt lat="48.12668" lon="-3.29868">
        <ele>209.2</ele>
        <time>2024-11-20T09:03:48Z</time>
      </trkpt>
      <trkpt lat="48.12668" lon="-3.29868">
        <ele>209.2</ele>
        <time>2024-11-20T09:03:49Z</time>
      </trkpt>
      <trkpt lat="48.12668" lon="-3.29868">
        <ele>209.2</ele>
        <time>2024-11-20T09:03:50Z</time>
      </trkpt>
      <trkpt lat="48.12668" lon="-3.29868">
        <ele>209.2</ele>
        <time>2024-11-20T09:03:51Z</time>
      </trkpt>
      <trkpt lat="48.12668" lon="-3.29868">
        <ele>209.2</ele>
        <time>2024-11-20T09:03:52Z</time>
      </trkpt>
      <trkpt lat="48.12668" lon="-3.29868">
        <ele>209.2</ele>
        <time>2024-11-20T09:03:53Z</time>
      </trkpt>
      <trkpt lat="48.12668" lon="-3.29868">
        <ele>209.1</ele>
        <time>2024-11-20T09:03:54Z</time>
      </trkpt>
      <trkpt lat="48.12668" lon="-3.29868">
        <ele>209</ele>
        <time>2024-11-20T09:03:55Z</time>
      </trkpt>
      <trkpt lat="48.12668" lon="-3.29869">
        <ele>208.9</ele>
        <time>2024-11-20T09:03:56Z</time>
      </trkpt>
      <trkpt lat="48.12667" lon="-3.29869">
        <ele>209</ele>
        <time>2024-11-20T09:03:57Z</time>
      </trkpt>
      <trkpt lat="48.12667" lon="-3.29869">
        <ele>209</ele>
        <time>2024-11-20T09:03:58Z</time>
      </trkpt>
      <trkpt lat="48.12667" lon="-3.29869">
        <ele>209</ele>
        <time>2024-11-20T09:03:59Z</time>
      </trkpt>
      <trkpt lat="48.12667" lon="-3.29869">
        <ele>208.9</ele>
        <time>2024-11-20T09:04:00Z</time>
      </trkpt>
      <trkpt lat="48.12667" lon="-3.2987">
        <ele>208.8</ele>
        <time>2024-11-20T09:04:01Z</time>
      </trkpt>
      <trkpt lat="48.12667" lon="-3.2987">
        <ele>208.9</ele>
        <time>2024-11-20T09:04:02Z</time>
      </trkpt>
      <trkpt lat="48.12666" lon="-3.2987">
        <ele>208.9</ele>
        <time>2024-11-20T09:04:03Z</time>
      </trkpt>
      <trkpt lat="48.12666" lon="-3.29869">
        <ele>208.9</ele>
        <time>2024-11-20T09:04:04Z</time>
      </trkpt>
      <trkpt lat="48.12666" lon="-3.29869">
        <ele>209</ele>
        <time>2024-11-20T09:04:05Z</time>
      </trkpt>
      <trkpt lat="48.12665" lon="-3.2987">
        <ele>208.9</ele>
        <time>2024-11-20T09:04:06Z</time>
      </trkpt>
      <trkpt lat="48.12665" lon="-3.2987">
        <ele>208.9</ele>
        <time>2024-11-20T09:04:07Z</time>
      </trkpt>
      <trkpt lat="48.12665" lon="-3.2987">
        <ele>209</ele>
        <time>2024-11-20T09:04:08Z</time>
      </trkpt>
      <trkpt lat="48.12664" lon="-3.29869">
        <ele>209.1</ele>
        <time>2024-11-20T09:04:09Z</time>
      </trkpt>
      <trkpt lat="48.12664" lon="-3.29869">
        <ele>209.1</ele>
        <time>2024-11-20T09:04:10Z</time>
      </trkpt>
      <trkpt lat="48.12664" lon="-3.29869">
        <ele>209.2</ele>
        <time>2024-11-20T09:04:11Z</time>
      </trkpt>
      <trkpt lat="48.12664" lon="-3.29868">
        <ele>209.3</ele>
        <time>2024-11-20T09:04:12Z</time>
      </trkpt>
      <trkpt lat="48.12663" lon="-3.29868">
        <ele>209.3</ele>
        <time>2024-11-20T09:04:13Z</time>
      </trkpt>
      <trkpt lat="48.12663" lon="-3.29868">
        <ele>209.4</ele>
        <time>2024-11-20T09:04:14Z</time>
      </trkpt>
      <trkpt lat="48.12663" lon="-3.29868">
        <ele>209.4</ele>
        <time>2024-11-20T09:04:15Z</time>
      </trkpt>
      <trkpt lat="48.12663" lon="-3.29868">
        <ele>209.4</ele>
        <time>2024-11-20T09:04:16Z</time>
      </trkpt>
      <trkpt lat="48.12663" lon="-3.29868">
        <ele>209.4</ele>
        <time>2024-11-20T09:04:17Z</time>
      </trkpt>
      <trkpt lat="48.12663" lon="-3.29868">
        <ele>209.5</ele>
        <time>2024-11-20T09:04:18Z</time>
      </trkpt>
      <trkpt lat="48.12662" lon="-3.29867">
        <ele>209.6</ele>
        <time>2024-11-20T09:04:19Z</time>
      </trkpt>
      <trkpt lat="48.12662" lon="-3.29867">
        <ele>209.7</ele>
        <time>2024-11-20T09:04:20Z</time>
      </trkpt>
      <trkpt lat="48.12662" lon="-3.29867">
        <ele>209.7</ele>
        <time>2024-11-20T09:04:21Z</time>
      </trkpt>
      <trkpt lat="48.12661" lon="-3.29867">
        <ele>209.8</ele>
        <time>2024-11-20T09:04:22Z</time>
      </trkpt>
      <trkpt lat="48.12661" lon="-3.29866">
        <ele>209.9</ele>
        <time>2024-11-20T09:04:23Z</time>
      </trkpt>
      <trkpt lat="48.12661" lon="-3.29866">
        <ele>209.9</ele>
        <time>2024-11-20T09:04:24Z</time>
      </trkpt>
      <trkpt lat="48.12661" lon="-3.29866">
        <ele>209.9</ele>
        <time>2024-11-20T09:04:25Z</time>
      </trkpt>
      <trkpt lat="48.12661" lon="-3.29866">
        <ele>209.9</ele>
        <time>2024-11-20T09:04:26Z</time>
      </trkpt>
      <trkpt lat="48.12661" lon="-3.29867">
        <ele>209.8</ele>
        <time>2024-11-20T09:04:27Z</time>
      </trkpt>
      <trkpt lat="48.12661" lon="-3.29866">
        <ele>209.9</ele>
        <time>2024-11-20T09:04:28Z</time>
      </trkpt>
      <trkpt lat="48.12661" lon="-3.29866">
        <ele>209.9</ele>
        <time>2024-11-20T09:04:29Z</time>
      </trkpt>
      <trkpt lat="48.12661" lon="-3.29866">
        <ele>210</ele>
        <time>2024-11-20T09:04:30Z</time>
      </trkpt>
      <trkpt lat="48.12661" lon="-3.29866">
        <ele>210</ele>
        <time>2024-11-20T09:04:31Z</time>
      </trkpt>
      <trkpt lat="48.12661" lon="-3.29866">
        <ele>210</ele>
        <time>2024-11-20T09:04:32Z</time>
      </trkpt>
      <trkpt lat="48.12661" lon="-3.29866">
        <ele>210</ele>
        <time>2024-11-20T09:04:33Z</time>
      </trkpt>
      <trkpt lat="48.12661" lon="-3.29866">
        <ele>210</ele>
        <time>2024-11-20T09:04:34Z</time>
      </trkpt>
      <trkpt lat="48.12661" lon="-3.29866">
        <ele>210</ele>
        <time>2024-11-20T09:04:35Z</time>
      </trkpt>
      <trkpt lat="48.12661" lon="-3.29866">
        <ele>210</ele>
        <time>2024-11-20T09:04:36Z</time>
      </trkpt>
      <trkpt lat="48.12661" lon="-3.29866">
        <ele>210</ele>
        <time>2024-11-20T09:04:37Z</time>
      </trkpt>
      <trkpt lat="48.12661" lon="-3.29866">
        <ele>210</ele>
        <time>2024-11-20T09:04:38Z</time>
      </trkpt>
      <trkpt lat="48.12661" lon="-3.29866">
        <ele>210</ele>
        <time>2024-11-20T09:04:39Z</time>
      </trkpt>
      <trkpt lat="48.12662" lon="-3.29866">
        <ele>210</ele>
        <time>2024-11-20T09:04:40Z</time>
      </trkpt>
      <trkpt lat="48.12662" lon="-3.29866">
        <ele>210</ele>
        <time>2024-11-20T09:04:41Z</time>
      </trkpt>
      <trkpt lat="48.12663" lon="-3.29866">
        <ele>210</ele>
        <time>2024-11-20T09:04:42Z</time>
      </trkpt>
      <trkpt lat="48.12663" lon="-3.29866">
        <ele>209.8</ele>
        <time>2024-11-20T09:04:43Z</time>
      </trkpt>
      <trkpt lat="48.12663" lon="-3.29867">
        <ele>209.7</ele>
        <time>2024-11-20T09:04:44Z</time>
      </trkpt>
      <trkpt lat="48.12663" lon="-3.29867">
        <ele>209.8</ele>
        <time>2024-11-20T09:04:45Z</time>
      </trkpt>
      <trkpt lat="48.12663" lon="-3.29866">
        <ele>210</ele>
        <time>2024-11-20T09:04:46Z</time>
      </trkpt>
      <trkpt lat="48.12664" lon="-3.29865">
        <ele>210.2</ele>
        <time>2024-11-20T09:04:47Z</time>
      </trkpt>
      <trkpt lat="48.12664" lon="-3.29864">
        <ele>210.4</ele>
        <time>2024-11-20T09:04:48Z</time>
      </trkpt>
      <trkpt lat="48.12665" lon="-3.29864">
        <ele>210.4</ele>
        <time>2024-11-20T09:04:49Z</time>
      </trkpt>
      <trkpt lat="48.12665" lon="-3.29864">
        <ele>210.4</ele>
        <time>2024-11-20T09:04:50Z</time>
      </trkpt>
      <trkpt lat="48.12666" lon="-3.29863">
        <ele>210.5</ele>
        <time>2024-11-20T09:04:51Z</time>
      </trkpt>
      <trkpt lat="48.12666" lon="-3.29863">
        <ele>210.6</ele>
        <time>2024-11-20T09:04:52Z</time>
      </trkpt>
      <trkpt lat="48.12666" lon="-3.29863">
        <ele>210.7</ele>
        <time>2024-11-20T09:04:53Z</time>
      </trkpt>
      <trkpt lat="48.12667" lon="-3.29862">
        <ele>210.7</ele>
        <time>2024-11-20T09:04:54Z</time>
      </trkpt>
      <trkpt lat="48.12667" lon="-3.29862">
        <ele>210.7</ele>
        <time>2024-11-20T09:04:55Z</time>
      </trkpt>
      <trkpt lat="48.12667" lon="-3.29862">
        <ele>210.7</ele>
        <time>2024-11-20T09:04:56Z</time>
      </trkpt>
      <trkpt lat="48.12667" lon="-3.29862">
        <ele>210.7</ele>
        <time>2024-11-20T09:04:57Z</time>
      </trkpt>
      <trkpt lat="48.12667" lon="-3.29862">
        <ele>210.7</ele>
        <time>2024-11-20T09:04:58Z</time>
      </trkpt>
      <trkpt lat="48.12667" lon="-3.29862">
        <ele>210.7</ele>
        <time>2024-11-20T09:04:59Z</time>
      </trkpt>
      <trkpt lat="48.12667" lon="-3.29862">
        <ele>210.8</ele>
        <time>2024-11-20T09:05:00Z</time>
      </trkpt>
      <trkpt lat="48.12667" lon="-3.29862">
        <ele>210.8</ele>
        <time>2024-11-20T09:05:01Z</time>
      </trkpt>
      <trkpt lat="48.12667" lon="-3.29862">
        <ele>210.8</ele>
        <time>2024-11-20T09:05:02Z</time>
      </trkpt>
      <trkpt lat="48.12667" lon="-3.29862">
        <ele>210.7</ele>
        <time>2024-11-20T09:05:03Z</time>
      </trkpt>
      <trkpt lat="48.12667" lon="-3.29862">
        <ele>210.7</ele>
        <time>2024-11-20T09:05:04Z</time>
      </trkpt>
      <trkpt lat="48.12667" lon="-3.29862">
        <ele>210.7</ele>
        <time>2024-11-20T09:05:05Z</time>
      </trkpt>
      <trkpt lat="48.12667" lon="-3.29862">
        <ele>210.7</ele>
        <time>2024-11-20T09:05:06Z</time>
      </trkpt>
      <trkpt lat="48.12667" lon="-3.29862">
        <ele>210.7</ele>
        <time>2024-11-20T09:05:07Z</time>
      </trkpt>
      <trkpt lat="48.12667" lon="-3.29862">
        <ele>210.7</ele>
        <time>2024-11-20T09:05:08Z</time>
      </trkpt>
      <trkpt lat="48.12666" lon="-3.29863">
        <ele>210.6</ele>
        <time>2024-11-20T09:05:09Z</time>
      </trkpt>
      <trkpt lat="48.12666" lon="-3.29863">
        <ele>210.6</ele>
        <time>2024-11-20T09:05:10Z</time>
      </trkpt>
      <trkpt lat="48.12665" lon="-3.29863">
        <ele>210.6</ele>
        <time>2024-11-20T09:05:11Z</time>
      </trkpt>
      <trkpt lat="48.12664" lon="-3.29863">
        <ele>210.6</ele>
        <time>2024-11-20T09:05:12Z</time>
      </trkpt>
      <trkpt lat="48.12664" lon="-3.29863">
        <ele>210.6</ele>
        <time>2024-11-20T09:05:13Z</time>
      </trkpt>
      <trkpt lat="48.12664" lon="-3.29863">
        <ele>210.6</ele>
        <time>2024-11-20T09:05:14Z</time>
      </trkpt>
      <trkpt lat="48.12663" lon="-3.29863">
        <ele>210.7</ele>
        <time>2024-11-20T09:05:15Z</time>
      </trkpt>
      <trkpt lat="48.12662" lon="-3.29863">
        <ele>210.8</ele>
        <time>2024-11-20T09:05:16Z</time>
      </trkpt>
      <trkpt lat="48.12662" lon="-3.29862">
        <ele>210.9</ele>
        <time>2024-11-20T09:05:17Z</time>
      </trkpt>
      <trkpt lat="48.12661" lon="-3.29863">
        <ele>210.8</ele>
        <time>2024-11-20T09:05:18Z</time>
      </trkpt>
      <trkpt lat="48.12661" lon="-3.29862">
        <ele>210.9</ele>
        <time>2024-11-20T09:05:19Z</time>
      </trkpt>
      <trkpt lat="48.1266" lon="-3.29862">
        <ele>211</ele>
        <time>2024-11-20T09:05:20Z</time>
      </trkpt>
      <trkpt lat="48.1266" lon="-3.29862">
        <ele>211</ele>
        <time>2024-11-20T09:05:21Z</time>
      </trkpt>
      <trkpt lat="48.12659" lon="-3.29863">
        <ele>210.9</ele>
        <time>2024-11-20T09:05:22Z</time>
      </trkpt>
      <trkpt lat="48.12658" lon="-3.29863">
        <ele>210.9</ele>
        <time>2024-11-20T09:05:23Z</time>
      </trkpt>
      <trkpt lat="48.12658" lon="-3.29863">
        <ele>210.8</ele>
        <time>2024-11-20T09:05:24Z</time>
      </trkpt>
      <trkpt lat="48.12657" lon="-3.29864">
        <ele>210.7</ele>
        <time>2024-11-20T09:05:25Z</time>
      </trkpt>
      <trkpt lat="48.12656" lon="-3.29864">
        <ele>210.6</ele>
        <time>2024-11-20T09:05:26Z</time>
      </trkpt>
      <trkpt lat="48.12655" lon="-3.29865">
        <ele>210.6</ele>
        <time>2024-11-20T09:05:27Z</time>
      </trkpt>
      <trkpt lat="48.12655" lon="-3.29866">
        <ele>210.3</ele>
        <time>2024-11-20T09:05:28Z</time>
      </trkpt>
      <trkpt lat="48.12654" lon="-3.29867">
        <ele>210</ele>
        <time>2024-11-20T09:05:29Z</time>
      </trkpt>
      <trkpt lat="48.12653" lon="-3.29868">
        <ele>209.8</ele>
        <time>2024-11-20T09:05:30Z</time>
      </trkpt>
      <trkpt lat="48.12652" lon="-3.29869">
        <ele>209.5</ele>
        <time>2024-11-20T09:05:31Z</time>
      </trkpt>
      <trkpt lat="48.12651" lon="-3.2987">
        <ele>209.4</ele>
        <time>2024-11-20T09:05:32Z</time>
      </trkpt>
      <trkpt lat="48.12651" lon="-3.2987">
        <ele>209.3</ele>
        <time>2024-11-20T09:05:33Z</time>
      </trkpt>
      <trkpt lat="48.1265" lon="-3.29871">
        <ele>209.2</ele>
        <time>2024-11-20T09:05:34Z</time>
      </trkpt>
      <trkpt lat="48.1265" lon="-3.29871">
        <ele>209.1</ele>
        <time>2024-11-20T09:05:35Z</time>
      </trkpt>
      <trkpt lat="48.12649" lon="-3.29872">
        <ele>209</ele>
        <time>2024-11-20T09:05:36Z</time>
      </trkpt>
      <trkpt lat="48.12649" lon="-3.29872">
        <ele>208.9</ele>
        <time>2024-11-20T09:05:37Z</time>
      </trkpt>
      <trkpt lat="48.12649" lon="-3.29872">
        <ele>208.9</ele>
        <time>2024-11-20T09:05:38Z</time>
      </trkpt>
      <trkpt lat="48.12648" lon="-3.29872">
        <ele>208.8</ele>
        <time>2024-11-20T09:05:39Z</time>
      </trkpt>
      <trkpt lat="48.12648" lon="-3.29873">
        <ele>208.8</ele>
        <time>2024-11-20T09:05:40Z</time>
      </trkpt>
      <trkpt lat="48.12647" lon="-3.29873">
        <ele>208.8</ele>
        <time>2024-11-20T09:05:41Z</time>
      </trkpt>
      <trkpt lat="48.12646" lon="-3.29873">
        <ele>208.8</ele>
        <time>2024-11-20T09:05:42Z</time>
      </trkpt>
      <trkpt lat="48.12645" lon="-3.29873">
        <ele>208.9</ele>
        <time>2024-11-20T09:05:43Z</time>
      </trkpt>
      <trkpt lat="48.12644" lon="-3.29872">
        <ele>209</ele>
        <time>2024-11-20T09:05:44Z</time>
      </trkpt>
      <trkpt lat="48.12644" lon="-3.29873">
        <ele>208.9</ele>
        <time>2024-11-20T09:05:45Z</time>
      </trkpt>
      <trkpt lat="48.12643" lon="-3.29873">
        <ele>208.8</ele>
        <time>2024-11-20T09:05:46Z</time>
      </trkpt>
      <trkpt lat="48.12641" lon="-3.29874">
        <ele>208.7</ele>
        <time>2024-11-20T09:05:47Z</time>
      </trkpt>
      <trkpt lat="48.1264" lon="-3.29874">
        <ele>208.7</ele>
        <time>2024-11-20T09:05:48Z</time>
      </trkpt>
      <trkpt lat="48.12639" lon="-3.29874">
        <ele>208.7</ele>
        <time>2024-11-20T09:05:49Z</time>
      </trkpt>
      <trkpt lat="48.12639" lon="-3.29875">
        <ele>208.6</ele>
        <time>2024-11-20T09:05:50Z</time>
      </trkpt>
      <trkpt lat="48.12638" lon="-3.29875">
        <ele>208.5</ele>
        <time>2024-11-20T09:05:51Z</time>
      </trkpt>
      <trkpt lat="48.12637" lon="-3.29875">
        <ele>208.4</ele>
        <time>2024-11-20T09:05:52Z</time>
      </trkpt>
      <trkpt lat="48.12636" lon="-3.29876">
        <ele>208.3</ele>
        <time>2024-11-20T09:05:53Z</time>
      </trkpt>
      <trkpt lat="48.12635" lon="-3.29876">
        <ele>208.2</ele>
        <time>2024-11-20T09:05:54Z</time>
      </trkpt>
      <trkpt lat="48.12634" lon="-3.29876">
        <ele>208.1</ele>
        <time>2024-11-20T09:05:55Z</time>
      </trkpt>
      <trkpt lat="48.12633" lon="-3.29876">
        <ele>208.1</ele>
        <time>2024-11-20T09:05:56Z</time>
      </trkpt>
      <trkpt lat="48.12632" lon="-3.29877">
        <ele>207.9</ele>
        <time>2024-11-20T09:05:57Z</time>
      </trkpt>
      <trkpt lat="48.12632" lon="-3.29878">
        <ele>207.6</ele>
        <time>2024-11-20T09:05:58Z</time>
      </trkpt>
      <trkpt lat="48.1263" lon="-3.29879">
        <ele>207.3</ele>
        <time>2024-11-20T09:05:59Z</time>
      </trkpt>
      <trkpt lat="48.12629" lon="-3.29879">
        <ele>207.2</ele>
        <time>2024-11-20T09:06:00Z</time>
      </trkpt>
      <trkpt lat="48.12628" lon="-3.29879">
        <ele>207.2</ele>
        <time>2024-11-20T09:06:01Z</time>
      </trkpt>
      <trkpt lat="48.12628" lon="-3.29879">
        <ele>207.2</ele>
        <time>2024-11-20T09:06:02Z</time>
      </trkpt>
      <trkpt lat="48.12627" lon="-3.29879">
        <ele>207.2</ele>
        <time>2024-11-20T09:06:03Z</time>
      </trkpt>
      <trkpt lat="48.12627" lon="-3.29879">
        <ele>207.1</ele>
        <time>2024-11-20T09:06:04Z</time>
      </trkpt>
      <trkpt lat="48.12626" lon="-3.29879">
        <ele>207.1</ele>
        <time>2024-11-20T09:06:05Z</time>
      </trkpt>
      <trkpt lat="48.12626" lon="-3.2988">
        <ele>207</ele>
        <time>2024-11-20T09:06:06Z</time>
      </trkpt>
      <trkpt lat="48.12625" lon="-3.2988">
        <ele>207</ele>
        <time>2024-11-20T09:06:07Z</time>
      </trkpt>
      <trkpt lat="48.12624" lon="-3.29879">
        <ele>207.1</ele>
        <time>2024-11-20T09:06:08Z</time>
      </trkpt>
      <trkpt lat="48.12623" lon="-3.29879">
        <ele>207.1</ele>
        <time>2024-11-20T09:06:09Z</time>
      </trkpt>
      <trkpt lat="48.12622" lon="-3.29879">
        <ele>207.1</ele>
        <time>2024-11-20T09:06:10Z</time>
      </trkpt>
      <trkpt lat="48.12621" lon="-3.29879">
        <ele>207.1</ele>
        <time>2024-11-20T09:06:11Z</time>
      </trkpt>
      <trkpt lat="48.1262" lon="-3.29879">
        <ele>207.1</ele>
        <time>2024-11-20T09:06:12Z</time>
      </trkpt>
      <trkpt lat="48.12619" lon="-3.29879">
        <ele>207.1</ele>
        <time>2024-11-20T09:06:13Z</time>
      </trkpt>
      <trkpt lat="48.12618" lon="-3.29879">
        <ele>207.1</ele>
        <time>2024-11-20T09:06:14Z</time>
      </trkpt>
      <trkpt lat="48.12617" lon="-3.29879">
        <ele>207</ele>
        <time>2024-11-20T09:06:15Z</time>
      </trkpt>
      <trkpt lat="48.12617" lon="-3.2988">
        <ele>206.7</ele>
        <time>2024-11-20T09:06:16Z</time>
      </trkpt>
      <trkpt lat="48.12616" lon="-3.29881">
        <ele>206.6</ele>
        <time>2024-11-20T09:06:17Z</time>
      </trkpt>
      <trkpt lat="48.12615" lon="-3.29881">
        <ele>206.5</ele>
        <time>2024-11-20T09:06:18Z</time>
      </trkpt>
      <trkpt lat="48.12615" lon="-3.29882">
        <ele>206.4</ele>
        <time>2024-11-20T09:06:19Z</time>
      </trkpt>
      <trkpt lat="48.12614" lon="-3.29882">
        <ele>206.3</ele>
        <time>2024-11-20T09:06:20Z</time>
      </trkpt>
      <trkpt lat="48.12613" lon="-3.29882">
        <ele>206.3</ele>
        <time>2024-11-20T09:06:21Z</time>
      </trkpt>
      <trkpt lat="48.12613" lon="-3.29882">
        <ele>206.3</ele>
        <time>2024-11-20T09:06:22Z</time>
      </trkpt>
      <trkpt lat="48.12612" lon="-3.29882">
        <ele>206.3</ele>
        <time>2024-11-20T09:06:23Z</time>
      </trkpt>
      <trkpt lat="48.1261" lon="-3.29881">
        <ele>206.4</ele>
        <time>2024-11-20T09:06:24Z</time>
      </trkpt>
      <trkpt lat="48.12609" lon="-3.29881">
        <ele>206.4</ele>
        <time>2024-11-20T09:06:25Z</time>
      </trkpt>
      <trkpt lat="48.12609" lon="-3.2988">
        <ele>206.5</ele>
        <time>2024-11-20T09:06:26Z</time>
      </trkpt>
      <trkpt lat="48.12608" lon="-3.2988">
        <ele>206.5</ele>
        <time>2024-11-20T09:06:27Z</time>
      </trkpt>
      <trkpt lat="48.12607" lon="-3.2988">
        <ele>206.6</ele>
        <time>2024-11-20T09:06:28Z</time>
      </trkpt>
      <trkpt lat="48.12606" lon="-3.29879">
        <ele>206.8</ele>
        <time>2024-11-20T09:06:29Z</time>
      </trkpt>
      <trkpt lat="48.12605" lon="-3.29878">
        <ele>206.9</ele>
        <time>2024-11-20T09:06:30Z</time>
      </trkpt>
      <trkpt lat="48.12604" lon="-3.29878">
        <ele>206.9</ele>
        <time>2024-11-20T09:06:31Z</time>
      </trkpt>
      <trkpt lat="48.12602" lon="-3.29877">
        <ele>207</ele>
        <time>2024-11-20T09:06:32Z</time>
      </trkpt>
      <trkpt lat="48.126" lon="-3.29878">
        <ele>206.9</ele>
        <time>2024-11-20T09:06:33Z</time>
      </trkpt>
      <trkpt lat="48.12599" lon="-3.29878">
        <ele>206.8</ele>
        <time>2024-11-20T09:06:34Z</time>
      </trkpt>
      <trkpt lat="48.12596" lon="-3.29878">
        <ele>206.7</ele>
        <time>2024-11-20T09:06:35Z</time>
      </trkpt>
      <trkpt lat="48.12594" lon="-3.29878">
        <ele>206.7</ele>
        <time>2024-11-20T09:06:36Z</time>
      </trkpt>
      <trkpt lat="48.12593" lon="-3.29879">
        <ele>206.6</ele>
        <time>2024-11-20T09:06:37Z</time>
      </trkpt>
      <trkpt lat="48.12592" lon="-3.29879">
        <ele>206.5</ele>
        <time>2024-11-20T09:06:38Z</time>
      </trkpt>
      <trkpt lat="48.12591" lon="-3.29879">
        <ele>206.5</ele>
        <time>2024-11-20T09:06:39Z</time>
      </trkpt>
      <trkpt lat="48.12589" lon="-3.29879">
        <ele>206.5</ele>
        <time>2024-11-20T09:06:40Z</time>
      </trkpt>
      <trkpt lat="48.12587" lon="-3.29878">
        <ele>206.6</ele>
        <time>2024-11-20T09:06:41Z</time>
      </trkpt>
      <trkpt lat="48.12586" lon="-3.29878">
        <ele>206.7</ele>
        <time>2024-11-20T09:06:42Z</time>
      </trkpt>
      <trkpt lat="48.12586" lon="-3.29877">
        <ele>206.7</ele>
        <time>2024-11-20T09:06:43Z</time>
      </trkpt>
      <trkpt lat="48.12585" lon="-3.29877">
        <ele>206.8</ele>
        <time>2024-11-20T09:06:44Z</time>
      </trkpt>
      <trkpt lat="48.12585" lon="-3.29877">
        <ele>206.8</ele>
        <time>2024-11-20T09:06:45Z</time>
      </trkpt>
      <trkpt lat="48.12585" lon="-3.29876">
        <ele>206.8</ele>
        <time>2024-11-20T09:06:46Z</time>
      </trkpt>
      <trkpt lat="48.12585" lon="-3.29876">
        <ele>206.9</ele>
        <time>2024-11-20T09:06:47Z</time>
      </trkpt>
      <trkpt lat="48.12585" lon="-3.29876">
        <ele>206.9</ele>
        <time>2024-11-20T09:06:48Z</time>
      </trkpt>
      <trkpt lat="48.12584" lon="-3.29875">
        <ele>207</ele>
        <time>2024-11-20T09:06:49Z</time>
      </trkpt>
      <trkpt lat="48.12583" lon="-3.29873">
        <ele>207.3</ele>
        <time>2024-11-20T09:06:50Z</time>
      </trkpt>
      <trkpt lat="48.12582" lon="-3.29872">
        <ele>207.5</ele>
        <time>2024-11-20T09:06:51Z</time>
      </trkpt>
      <trkpt lat="48.12582" lon="-3.29871">
        <ele>207.6</ele>
        <time>2024-11-20T09:06:52Z</time>
      </trkpt>
      <trkpt lat="48.12581" lon="-3.2987">
        <ele>207.7</ele>
        <time>2024-11-20T09:06:53Z</time>
      </trkpt>
      <trkpt lat="48.1258" lon="-3.29869">
        <ele>207.9</ele>
        <time>2024-11-20T09:06:54Z</time>
      </trkpt>
      <trkpt lat="48.12579" lon="-3.29868">
        <ele>208</ele>
        <time>2024-11-20T09:06:55Z</time>
      </trkpt>
      <trkpt lat="48.12578" lon="-3.29867">
        <ele>208.1</ele>
        <time>2024-11-20T09:06:56Z</time>
      </trkpt>
      <trkpt lat="48.12576" lon="-3.29866">
        <ele>208.3</ele>
        <time>2024-11-20T09:06:57Z</time>
      </trkpt>
      <trkpt lat="48.12575" lon="-3.29865">
        <ele>208.5</ele>
        <time>2024-11-20T09:06:58Z</time>
      </trkpt>
      <trkpt lat="48.12574" lon="-3.29864">
        <ele>208.6</ele>
        <time>2024-11-20T09:06:59Z</time>
      </trkpt>
      <trkpt lat="48.12573" lon="-3.29864">
        <ele>208.7</ele>
        <time>2024-11-20T09:07:00Z</time>
      </trkpt>
      <trkpt lat="48.12572" lon="-3.29863">
        <ele>208.8</ele>
        <time>2024-11-20T09:07:01Z</time>
      </trkpt>
      <trkpt lat="48.1257" lon="-3.29862">
        <ele>208.9</ele>
        <time>2024-11-20T09:07:02Z</time>
      </trkpt>
      <trkpt lat="48.12569" lon="-3.29862">
        <ele>208.9</ele>
        <time>2024-11-20T09:07:03Z</time>
      </trkpt>
      <trkpt lat="48.12568" lon="-3.29861">
        <ele>209</ele>
        <time>2024-11-20T09:07:04Z</time>
      </trkpt>
      <trkpt lat="48.12567" lon="-3.29861">
        <ele>209</ele>
        <time>2024-11-20T09:07:05Z</time>
      </trkpt>
      <trkpt lat="48.12565" lon="-3.2986">
        <ele>209.1</ele>
        <time>2024-11-20T09:07:06Z</time>
      </trkpt>
      <trkpt lat="48.12564" lon="-3.2986">
        <ele>209.2</ele>
        <time>2024-11-20T09:07:07Z</time>
      </trkpt>
      <trkpt lat="48.12563" lon="-3.2986">
        <ele>209.2</ele>
        <time>2024-11-20T09:07:08Z</time>
      </trkpt>
      <trkpt lat="48.12562" lon="-3.2986">
        <ele>209.3</ele>
        <time>2024-11-20T09:07:09Z</time>
      </trkpt>
      <trkpt lat="48.1256" lon="-3.29859">
        <ele>209.4</ele>
        <time>2024-11-20T09:07:10Z</time>
      </trkpt>
      <trkpt lat="48.12559" lon="-3.29858">
        <ele>209.6</ele>
        <time>2024-11-20T09:07:11Z</time>
      </trkpt>
      <trkpt lat="48.12558" lon="-3.29855">
        <ele>209.9</ele>
        <time>2024-11-20T09:07:12Z</time>
      </trkpt>
      <trkpt lat="48.12557" lon="-3.29853">
        <ele>210.3</ele>
        <time>2024-11-20T09:07:13Z</time>
      </trkpt>
      <trkpt lat="48.12556" lon="-3.29851">
        <ele>210.5</ele>
        <time>2024-11-20T09:07:14Z</time>
      </trkpt>
      <trkpt lat="48.12555" lon="-3.2985">
        <ele>210.6</ele>
        <time>2024-11-20T09:07:15Z</time>
      </trkpt>
      <trkpt lat="48.12554" lon="-3.29849">
        <ele>210.6</ele>
        <time>2024-11-20T09:07:16Z</time>
      </trkpt>
      <trkpt lat="48.12554" lon="-3.29849">
        <ele>210.6</ele>
        <time>2024-11-20T09:07:17Z</time>
      </trkpt>
      <trkpt lat="48.12553" lon="-3.29848">
        <ele>210.7</ele>
        <time>2024-11-20T09:07:18Z</time>
      </trkpt>
      <trkpt lat="48.12553" lon="-3.29847">
        <ele>210.8</ele>
        <time>2024-11-20T09:07:19Z</time>
      </trkpt>
      <trkpt lat="48.12552" lon="-3.29846">
        <ele>210.8</ele>
        <time>2024-11-20T09:07:20Z</time>
      </trkpt>
      <trkpt lat="48.12552" lon="-3.29845">
        <ele>210.9</ele>
        <time>2024-11-20T09:07:21Z</time>
      </trkpt>
      <trkpt lat="48.12549" lon="-3.29843">
        <ele>211.1</ele>
        <time>2024-11-20T09:07:22Z</time>
      </trkpt>
      <trkpt lat="48.12549" lon="-3.29842">
        <ele>211.1</ele>
        <time>2024-11-20T09:07:23Z</time>
      </trkpt>
      <trkpt lat="48.12548" lon="-3.29841">
        <ele>211.2</ele>
        <time>2024-11-20T09:07:24Z</time>
      </trkpt>
      <trkpt lat="48.12547" lon="-3.2984">
        <ele>211.2</ele>
        <time>2024-11-20T09:07:25Z</time>
      </trkpt>
      <trkpt lat="48.12547" lon="-3.2984">
        <ele>211.2</ele>
        <time>2024-11-20T09:07:26Z</time>
      </trkpt>
      <trkpt lat="48.12546" lon="-3.29839">
        <ele>211.3</ele>
        <time>2024-11-20T09:07:27Z</time>
      </trkpt>
      <trkpt lat="48.12545" lon="-3.29838">
        <ele>211.2</ele>
        <time>2024-11-20T09:07:28Z</time>
      </trkpt>
      <trkpt lat="48.12544" lon="-3.29838">
        <ele>211.2</ele>
        <time>2024-11-20T09:07:29Z</time>
      </trkpt>
      <trkpt lat="48.12543" lon="-3.29837">
        <ele>211.2</ele>
        <time>2024-11-20T09:07:30Z</time>
      </trkpt>
      <trkpt lat="48.12542" lon="-3.29836">
        <ele>211.2</ele>
        <time>2024-11-20T09:07:31Z</time>
      </trkpt>
      <trkpt lat="48.12541" lon="-3.29835">
        <ele>211.3</ele>
        <time>2024-11-20T09:07:32Z</time>
      </trkpt>
      <trkpt lat="48.12541" lon="-3.29834">
        <ele>211.3</ele>
        <time>2024-11-20T09:07:33Z</time>
      </trkpt>
      <trkpt lat="48.12539" lon="-3.29832">
        <ele>211.4</ele>
        <time>2024-11-20T09:07:34Z</time>
      </trkpt>
      <trkpt lat="48.12538" lon="-3.29831">
        <ele>211.5</ele>
        <time>2024-11-20T09:07:35Z</time>
      </trkpt>
      <trkpt lat="48.12537" lon="-3.2983">
        <ele>211.5</ele>
        <time>2024-11-20T09:07:36Z</time>
      </trkpt>
      <trkpt lat="48.12536" lon="-3.2983">
        <ele>211.4</ele>
        <time>2024-11-20T09:07:37Z</time>
      </trkpt>
      <trkpt lat="48.12535" lon="-3.29829">
        <ele>211.4</ele>
        <time>2024-11-20T09:07:38Z</time>
      </trkpt>
      <trkpt lat="48.12534" lon="-3.29829">
        <ele>211.3</ele>
        <time>2024-11-20T09:07:39Z</time>
      </trkpt>
      <trkpt lat="48.12533" lon="-3.29828">
        <ele>211.3</ele>
        <time>2024-11-20T09:07:40Z</time>
      </trkpt>
      <trkpt lat="48.12533" lon="-3.29827">
        <ele>211.4</ele>
        <time>2024-11-20T09:07:41Z</time>
      </trkpt>
      <trkpt lat="48.12531" lon="-3.29825">
        <ele>211.5</ele>
        <time>2024-11-20T09:07:42Z</time>
      </trkpt>
      <trkpt lat="48.1253" lon="-3.29824">
        <ele>211.7</ele>
        <time>2024-11-20T09:07:43Z</time>
      </trkpt>
      <trkpt lat="48.12529" lon="-3.29822">
        <ele>211.9</ele>
        <time>2024-11-20T09:07:44Z</time>
      </trkpt>
      <trkpt lat="48.12528" lon="-3.2982">
        <ele>212</ele>
        <time>2024-11-20T09:07:45Z</time>
      </trkpt>
      <trkpt lat="48.12528" lon="-3.29819">
        <ele>212.1</ele>
        <time>2024-11-20T09:07:46Z</time>
      </trkpt>
      <trkpt lat="48.12526" lon="-3.29817">
        <ele>212.3</ele>
        <time>2024-11-20T09:07:47Z</time>
      </trkpt>
      <trkpt lat="48.12525" lon="-3.29815">
        <ele>212.3</ele>
        <time>2024-11-20T09:07:48Z</time>
      </trkpt>
      <trkpt lat="48.12524" lon="-3.29814">
        <ele>212.4</ele>
        <time>2024-11-20T09:07:49Z</time>
      </trkpt>
      <trkpt lat="48.12523" lon="-3.29813">
        <ele>212.5</ele>
        <time>2024-11-20T09:07:50Z</time>
      </trkpt>
      <trkpt lat="48.12522" lon="-3.29812">
        <ele>212.5</ele>
        <time>2024-11-20T09:07:51Z</time>
      </trkpt>
      <trkpt lat="48.12521" lon="-3.29812">
        <ele>212.5</ele>
        <time>2024-11-20T09:07:52Z</time>
      </trkpt>
      <trkpt lat="48.1252" lon="-3.29811">
        <ele>212.5</ele>
        <time>2024-11-20T09:07:53Z</time>
      </trkpt>
      <trkpt lat="48.12519" lon="-3.29811">
        <ele>212.4</ele>
        <time>2024-11-20T09:07:54Z</time>
      </trkpt>
      <trkpt lat="48.12519" lon="-3.29811">
        <ele>212.4</ele>
        <time>2024-11-20T09:07:55Z</time>
      </trkpt>
      <trkpt lat="48.12518" lon="-3.29809">
        <ele>212.5</ele>
        <time>2024-11-20T09:07:56Z</time>
      </trkpt>
      <trkpt lat="48.12517" lon="-3.29809">
        <ele>212.5</ele>
        <time>2024-11-20T09:07:57Z</time>
      </trkpt>
      <trkpt lat="48.12517" lon="-3.29808">
        <ele>212.5</ele>
        <time>2024-11-20T09:07:58Z</time>
      </trkpt>
      <trkpt lat="48.12516" lon="-3.29808">
        <ele>212.5</ele>
        <time>2024-11-20T09:07:59Z</time>
      </trkpt>
      <trkpt lat="48.12516" lon="-3.29807">
        <ele>212.6</ele>
        <time>2024-11-20T09:08:00Z</time>
      </trkpt>
      <trkpt lat="48.12516" lon="-3.29806">
        <ele>212.7</ele>
        <time>2024-11-20T09:08:01Z</time>
      </trkpt>
      <trkpt lat="48.12516" lon="-3.29805">
        <ele>212.8</ele>
        <time>2024-11-20T09:08:02Z</time>
      </trkpt>
      <trkpt lat="48.12516" lon="-3.29805">
        <ele>212.8</ele>
        <time>2024-11-20T09:08:03Z</time>
      </trkpt>
      <trkpt lat="48.12515" lon="-3.29804">
        <ele>212.8</ele>
        <time>2024-11-20T09:08:04Z</time>
      </trkpt>
      <trkpt lat="48.12515" lon="-3.29803">
        <ele>212.9</ele>
        <time>2024-11-20T09:08:05Z</time>
      </trkpt>
      <trkpt lat="48.12515" lon="-3.29803">
        <ele>212.9</ele>
        <time>2024-11-20T09:08:06Z</time>
      </trkpt>
      <trkpt lat="48.12515" lon="-3.29802">
        <ele>212.9</ele>
        <time>2024-11-20T09:08:07Z</time>
      </trkpt>
      <trkpt lat="48.12514" lon="-3.29802">
        <ele>213</ele>
        <time>2024-11-20T09:08:08Z</time>
      </trkpt>
      <trkpt lat="48.12514" lon="-3.29801">
        <ele>213</ele>
        <time>2024-11-20T09:08:09Z</time>
      </trkpt>
      <trkpt lat="48.12514" lon="-3.29801">
        <ele>213</ele>
        <time>2024-11-20T09:08:10Z</time>
      </trkpt>
      <trkpt lat="48.12514" lon="-3.298">
        <ele>213</ele>
        <time>2024-11-20T09:08:11Z</time>
      </trkpt>
      <trkpt lat="48.12513" lon="-3.298">
        <ele>213</ele>
        <time>2024-11-20T09:08:12Z</time>
      </trkpt>
      <trkpt lat="48.12513" lon="-3.298">
        <ele>213</ele>
        <time>2024-11-20T09:08:13Z</time>
      </trkpt>
      <trkpt lat="48.12513" lon="-3.298">
        <ele>213</ele>
        <time>2024-11-20T09:08:14Z</time>
      </trkpt>
      <trkpt lat="48.12513" lon="-3.298">
        <ele>213</ele>
        <time>2024-11-20T09:08:15Z</time>
      </trkpt>
      <trkpt lat="48.12513" lon="-3.298">
        <ele>213</ele>
        <time>2024-11-20T09:08:16Z</time>
      </trkpt>
      <trkpt lat="48.12513" lon="-3.298">
        <ele>213</ele>
        <time>2024-11-20T09:08:17Z</time>
      </trkpt>
      <trkpt lat="48.12513" lon="-3.298">
        <ele>213</ele>
        <time>2024-11-20T09:08:18Z</time>
      </trkpt>
      <trkpt lat="48.12513" lon="-3.298">
        <ele>213</ele>
        <time>2024-11-20T09:08:19Z</time>
      </trkpt>
      <trkpt lat="48.12513" lon="-3.298">
        <ele>213</ele>
        <time>2024-11-20T09:08:20Z</time>
      </trkpt>
      <trkpt lat="48.12513" lon="-3.298">
        <ele>213</ele>
        <time>2024-11-20T09:08:21Z</time>
      </trkpt>
      <trkpt lat="48.12513" lon="-3.298">
        <ele>213</ele>
        <time>2024-11-20T09:08:22Z</time>
      </trkpt>
      <trkpt lat="48.12513" lon="-3.298">
        <ele>213</ele>
        <time>2024-11-20T09:08:23Z</time>
      </trkpt>
      <trkpt lat="48.12513" lon="-3.298">
        <ele>213</ele>
        <time>2024-11-20T09:08:24Z</time>
      </trkpt>
      <trkpt lat="48.12513" lon="-3.298">
        <ele>213</ele>
        <time>2024-11-20T09:08:25Z</time>
      </trkpt>
      <trkpt lat="48.12513" lon="-3.298">
        <ele>213</ele>
        <time>2024-11-20T09:08:26Z</time>
      </trkpt>
      <trkpt lat="48.12513" lon="-3.298">
        <ele>213</ele>
        <time>2024-11-20T09:08:27Z</time>
      </trkpt>
      <trkpt lat="48.12513" lon="-3.298">
        <ele>213</ele>
        <time>2024-11-20T09:08:28Z</time>
      </trkpt>
      <trkpt lat="48.12513" lon="-3.298">
        <ele>213</ele>
        <time>2024-11-20T09:08:29Z</time>
      </trkpt>
      <trkpt lat="48.12513" lon="-3.298">
        <ele>213</ele>
        <time>2024-11-20T09:08:30Z</time>
      </trkpt>
      <trkpt lat="48.12513" lon="-3.298">
        <ele>213</ele>
        <time>2024-11-20T09:08:31Z</time>
      </trkpt>
      <trkpt lat="48.12513" lon="-3.298">
        <ele>213</ele>
        <time>2024-11-20T09:08:32Z</time>
      </trkpt>
      <trkpt lat="48.12513" lon="-3.298">
        <ele>213</ele>
        <time>2024-11-20T09:08:33Z</time>
      </trkpt>
      <trkpt lat="48.12513" lon="-3.298">
        <ele>213</ele>
        <time>2024-11-20T09:08:34Z</time>
      </trkpt>
      <trkpt lat="48.12513" lon="-3.298">
        <ele>213</ele>
        <time>2024-11-20T09:08:35Z</time>
      </trkpt>
      <trkpt lat="48.12513" lon="-3.298">
        <ele>213</ele>
        <time>2024-11-20T09:08:36Z</time>
      </trkpt>
      <trkpt lat="48.12513" lon="-3.298">
        <ele>213</ele>
        <time>2024-11-20T09:08:37Z</time>
      </trkpt>
      <trkpt lat="48.12513" lon="-3.298">
        <ele>213</ele>
        <time>2024-11-20T09:08:38Z</time>
      </trkpt>
      <trkpt lat="48.12513" lon="-3.298">
        <ele>213</ele>
        <time>2024-11-20T09:08:39Z</time>
      </trkpt>
      <trkpt lat="48.12513" lon="-3.298">
        <ele>213</ele>
        <time>2024-11-20T09:08:40Z</time>
      </trkpt>
      <trkpt lat="48.12513" lon="-3.298">
        <ele>213</ele>
        <time>2024-11-20T09:08:41Z</time>
      </trkpt>
      <trkpt lat="48.12513" lon="-3.298">
        <ele>213</ele>
        <time>2024-11-20T09:08:42Z</time>
      </trkpt>
      <trkpt lat="48.12513" lon="-3.298">
        <ele>213</ele>
        <time>2024-11-20T09:08:43Z</time>
      </trkpt>
      <trkpt lat="48.12513" lon="-3.298">
        <ele>213</ele>
        <time>2024-11-20T09:08:44Z</time>
      </trkpt>
      <trkpt lat="48.12513" lon="-3.298">
        <ele>213</ele>
        <time>2024-11-20T09:08:45Z</time>
      </trkpt>
      <trkpt lat="48.12513" lon="-3.298">
        <ele>213</ele>
        <time>2024-11-20T09:08:46Z</time>
      </trkpt>
      <trkpt lat="48.12513" lon="-3.298">
        <ele>213</ele>
        <time>2024-11-20T09:08:47Z</time>
      </trkpt>
      <trkpt lat="48.12513" lon="-3.298">
        <ele>213</ele>
        <time>2024-11-20T09:08:48Z</time>
      </trkpt>
      <trkpt lat="48.12513" lon="-3.298">
        <ele>213</ele>
        <time>2024-11-20T09:08:49Z</time>
      </trkpt>
      <trkpt lat="48.12514" lon="-3.298">
        <ele>213.1</ele>
        <time>2024-11-20T09:08:50Z</time>
      </trkpt>
      <trkpt lat="48.12514" lon="-3.29799">
        <ele>213.3</ele>
        <time>2024-11-20T09:08:51Z</time>
      </trkpt>
      <trkpt lat="48.12516" lon="-3.29797">
        <ele>213.6</ele>
        <time>2024-11-20T09:08:52Z</time>
      </trkpt>
      <trkpt lat="48.12517" lon="-3.29797">
        <ele>213.8</ele>
        <time>2024-11-20T09:08:53Z</time>
      </trkpt>
      <trkpt lat="48.12518" lon="-3.29795">
        <ele>214</ele>
        <time>2024-11-20T09:08:54Z</time>
      </trkpt>
      <trkpt lat="48.12518" lon="-3.29794">
        <ele>214.2</ele>
        <time>2024-11-20T09:08:55Z</time>
      </trkpt>
      <trkpt lat="48.12519" lon="-3.29793">
        <ele>214.4</ele>
        <time>2024-11-20T09:08:56Z</time>
      </trkpt>
      <trkpt lat="48.1252" lon="-3.29793">
        <ele>214.6</ele>
        <time>2024-11-20T09:08:57Z</time>
      </trkpt>
      <trkpt lat="48.12521" lon="-3.29792">
        <ele>214.8</ele>
        <time>2024-11-20T09:08:58Z</time>
      </trkpt>
      <trkpt lat="48.12522" lon="-3.29791">
        <ele>214.9</ele>
        <time>2024-11-20T09:08:59Z</time>
      </trkpt>
      <trkpt lat="48.12523" lon="-3.29791">
        <ele>215.1</ele>
        <time>2024-11-20T09:09:00Z</time>
      </trkpt>
      <trkpt lat="48.12523" lon="-3.2979">
        <ele>215.2</ele>
        <time>2024-11-20T09:09:01Z</time>
      </trkpt>
      <trkpt lat="48.12524" lon="-3.29789">
        <ele>215.4</ele>
        <time>2024-11-20T09:09:02Z</time>
      </trkpt>
      <trkpt lat="48.12524" lon="-3.29789">
        <ele>215.5</ele>
        <time>2024-11-20T09:09:03Z</time>
      </trkpt>
      <trkpt lat="48.12525" lon="-3.29788">
        <ele>215.6</ele>
        <time>2024-11-20T09:09:04Z</time>
      </trkpt>
      <trkpt lat="48.12526" lon="-3.29787">
        <ele>215.8</ele>
        <time>2024-11-20T09:09:05Z</time>
      </trkpt>
      <trkpt lat="48.12527" lon="-3.29786">
        <ele>216</ele>
        <time>2024-11-20T09:09:06Z</time>
      </trkpt>
      <trkpt lat="48.12528" lon="-3.29786">
        <ele>216.1</ele>
        <time>2024-11-20T09:09:07Z</time>
      </trkpt>
      <trkpt lat="48.12529" lon="-3.29785">
        <ele>216.4</ele>
        <time>2024-11-20T09:09:08Z</time>
      </trkpt>
      <trkpt lat="48.1253" lon="-3.29785">
        <ele>216.5</ele>
        <time>2024-11-20T09:09:09Z</time>
      </trkpt>
      <trkpt lat="48.12531" lon="-3.29785">
        <ele>216.6</ele>
        <time>2024-11-20T09:09:10Z</time>
      </trkpt>
      <trkpt lat="48.12532" lon="-3.29785">
        <ele>216.7</ele>
        <time>2024-11-20T09:09:11Z</time>
      </trkpt>
      <trkpt lat="48.12532" lon="-3.29784">
        <ele>216.8</ele>
        <time>2024-11-20T09:09:12Z</time>
      </trkpt>
      <trkpt lat="48.12533" lon="-3.29784">
        <ele>216.8</ele>
        <time>2024-11-20T09:09:13Z</time>
      </trkpt>
      <trkpt lat="48.12533" lon="-3.29784">
        <ele>216.9</ele>
        <time>2024-11-20T09:09:14Z</time>
      </trkpt>
      <trkpt lat="48.12534" lon="-3.29784">
        <ele>216.9</ele>
        <time>2024-11-20T09:09:15Z</time>
      </trkpt>
      <trkpt lat="48.12534" lon="-3.29784">
        <ele>217</ele>
        <time>2024-11-20T09:09:16Z</time>
      </trkpt>
      <trkpt lat="48.12534" lon="-3.29784">
        <ele>217.1</ele>
        <time>2024-11-20T09:09:17Z</time>
      </trkpt>
      <trkpt lat="48.12535" lon="-3.29783">
        <ele>217.2</ele>
        <time>2024-11-20T09:09:18Z</time>
      </trkpt>
      <trkpt lat="48.12536" lon="-3.29783">
        <ele>217.3</ele>
        <time>2024-11-20T09:09:19Z</time>
      </trkpt>
      <trkpt lat="48.12538" lon="-3.29783">
        <ele>217.5</ele>
        <time>2024-11-20T09:09:20Z</time>
      </trkpt>
      <trkpt lat="48.12539" lon="-3.29783">
        <ele>217.6</ele>
        <time>2024-11-20T09:09:21Z</time>
      </trkpt>
      <trkpt lat="48.1254" lon="-3.29782">
        <ele>217.8</ele>
        <time>2024-11-20T09:09:22Z</time>
      </trkpt>
      <trkpt lat="48.12542" lon="-3.29782">
        <ele>218</ele>
        <time>2024-11-20T09:09:23Z</time>
      </trkpt>
      <trkpt lat="48.12543" lon="-3.29782">
        <ele>218.2</ele>
        <time>2024-11-20T09:09:24Z</time>
      </trkpt>
      <trkpt lat="48.12544" lon="-3.29782">
        <ele>218.3</ele>
        <time>2024-11-20T09:09:25Z</time>
      </trkpt>
      <trkpt lat="48.12546" lon="-3.29782">
        <ele>218.5</ele>
        <time>2024-11-20T09:09:26Z</time>
      </trkpt>
      <trkpt lat="48.12547" lon="-3.29782">
        <ele>218.7</ele>
        <time>2024-11-20T09:09:27Z</time>
      </trkpt>
      <trkpt lat="48.12549" lon="-3.29782">
        <ele>218.8</ele>
        <time>2024-11-20T09:09:28Z</time>
      </trkpt>
      <trkpt lat="48.1255" lon="-3.29782">
        <ele>219</ele>
        <time>2024-11-20T09:09:29Z</time>
      </trkpt>
      <trkpt lat="48.12551" lon="-3.29782">
        <ele>219</ele>
        <time>2024-11-20T09:09:30Z</time>
      </trkpt>
      <trkpt lat="48.12551" lon="-3.29782">
        <ele>219.1</ele>
        <time>2024-11-20T09:09:31Z</time>
      </trkpt>
      <trkpt lat="48.12551" lon="-3.29782">
        <ele>219.1</ele>
        <time>2024-11-20T09:09:32Z</time>
      </trkpt>
      <trkpt lat="48.12552" lon="-3.29782">
        <ele>219.1</ele>
        <time>2024-11-20T09:09:33Z</time>
      </trkpt>
      <trkpt lat="48.12552" lon="-3.29782">
        <ele>219.2</ele>
        <time>2024-11-20T09:09:34Z</time>
      </trkpt>
      <trkpt lat="48.12553" lon="-3.29782">
        <ele>219.3</ele>
        <time>2024-11-20T09:09:35Z</time>
      </trkpt>
      <trkpt lat="48.12554" lon="-3.29781">
        <ele>219.4</ele>
        <time>2024-11-20T09:09:36Z</time>
      </trkpt>
      <trkpt lat="48.12555" lon="-3.29781">
        <ele>219.5</ele>
        <time>2024-11-20T09:09:37Z</time>
      </trkpt>
      <trkpt lat="48.12555" lon="-3.29781">
        <ele>219.6</ele>
        <time>2024-11-20T09:09:38Z</time>
      </trkpt>
      <trkpt lat="48.12556" lon="-3.2978">
        <ele>219.7</ele>
        <time>2024-11-20T09:09:39Z</time>
      </trkpt>
      <trkpt lat="48.12557" lon="-3.2978">
        <ele>219.8</ele>
        <time>2024-11-20T09:09:40Z</time>
      </trkpt>
      <trkpt lat="48.12558" lon="-3.2978">
        <ele>220</ele>
        <time>2024-11-20T09:09:41Z</time>
      </trkpt>
      <trkpt lat="48.12559" lon="-3.29779">
        <ele>220.1</ele>
        <time>2024-11-20T09:09:42Z</time>
      </trkpt>
      <trkpt lat="48.1256" lon="-3.29779">
        <ele>220.2</ele>
        <time>2024-11-20T09:09:43Z</time>
      </trkpt>
      <trkpt lat="48.12561" lon="-3.29778">
        <ele>220.3</ele>
        <time>2024-11-20T09:09:44Z</time>
      </trkpt>
      <trkpt lat="48.12562" lon="-3.29778">
        <ele>220.4</ele>
        <time>2024-11-20T09:09:45Z</time>
      </trkpt>
      <trkpt lat="48.12563" lon="-3.29777">
        <ele>220.6</ele>
        <time>2024-11-20T09:09:46Z</time>
      </trkpt>
      <trkpt lat="48.12564" lon="-3.29776">
        <ele>220.7</ele>
        <time>2024-11-20T09:09:47Z</time>
      </trkpt>
      <trkpt lat="48.12565" lon="-3.29775">
        <ele>220.9</ele>
        <time>2024-11-20T09:09:48Z</time>
      </trkpt>
      <trkpt lat="48.12566" lon="-3.29774">
        <ele>221</ele>
        <time>2024-11-20T09:09:49Z</time>
      </trkpt>
      <trkpt lat="48.12567" lon="-3.29774">
        <ele>221.1</ele>
        <time>2024-11-20T09:09:50Z</time>
      </trkpt>
      <trkpt lat="48.12568" lon="-3.29773">
        <ele>221.2</ele>
        <time>2024-11-20T09:09:51Z</time>
      </trkpt>
      <trkpt lat="48.12568" lon="-3.29773">
        <ele>221.3</ele>
        <time>2024-11-20T09:09:52Z</time>
      </trkpt>
      <trkpt lat="48.12569" lon="-3.29773">
        <ele>221.3</ele>
        <time>2024-11-20T09:09:53Z</time>
      </trkpt>
      <trkpt lat="48.12569" lon="-3.29773">
        <ele>221.3</ele>
        <time>2024-11-20T09:09:54Z</time>
      </trkpt>
      <trkpt lat="48.12569" lon="-3.29773">
        <ele>221.3</ele>
        <time>2024-11-20T09:09:55Z</time>
      </trkpt>
      <trkpt lat="48.1257" lon="-3.29772">
        <ele>221.4</ele>
        <time>2024-11-20T09:09:56Z</time>
      </trkpt>
      <trkpt lat="48.1257" lon="-3.29772">
        <ele>221.5</ele>
        <time>2024-11-20T09:09:57Z</time>
      </trkpt>
      <trkpt lat="48.12571" lon="-3.29772">
        <ele>221.6</ele>
        <time>2024-11-20T09:09:58Z</time>
      </trkpt>
      <trkpt lat="48.12573" lon="-3.29771">
        <ele>221.7</ele>
        <time>2024-11-20T09:09:59Z</time>
      </trkpt>
      <trkpt lat="48.12574" lon="-3.29771">
        <ele>221.8</ele>
        <time>2024-11-20T09:10:00Z</time>
      </trkpt>
      <trkpt lat="48.12575" lon="-3.2977">
        <ele>221.9</ele>
        <time>2024-11-20T09:10:01Z</time>
      </trkpt>
      <trkpt lat="48.12576" lon="-3.29769">
        <ele>222.1</ele>
        <time>2024-11-20T09:10:02Z</time>
      </trkpt>
      <trkpt lat="48.12577" lon="-3.29769">
        <ele>222.2</ele>
        <time>2024-11-20T09:10:03Z</time>
      </trkpt>
      <trkpt lat="48.12578" lon="-3.29768">
        <ele>222.3</ele>
        <time>2024-11-20T09:10:04Z</time>
      </trkpt>
      <trkpt lat="48.1258" lon="-3.29768">
        <ele>222.4</ele>
        <time>2024-11-20T09:10:05Z</time>
      </trkpt>
      <trkpt lat="48.12582" lon="-3.29769">
        <ele>222.5</ele>
        <time>2024-11-20T09:10:06Z</time>
      </trkpt>
      <trkpt lat="48.12583" lon="-3.29769">
        <ele>222.6</ele>
        <time>2024-11-20T09:10:07Z</time>
      </trkpt>
      <trkpt lat="48.12584" lon="-3.29769">
        <ele>222.6</ele>
        <time>2024-11-20T09:10:08Z</time>
      </trkpt>
      <trkpt lat="48.12585" lon="-3.29769">
        <ele>222.7</ele>
        <time>2024-11-20T09:10:09Z</time>
      </trkpt>
      <trkpt lat="48.12586" lon="-3.2977">
        <ele>222.7</ele>
        <time>2024-11-20T09:10:10Z</time>
      </trkpt>
      <trkpt lat="48.12587" lon="-3.2977">
        <ele>222.7</ele>
        <time>2024-11-20T09:10:11Z</time>
      </trkpt>
      <trkpt lat="48.12588" lon="-3.2977">
        <ele>222.7</ele>
        <time>2024-11-20T09:10:12Z</time>
      </trkpt>
      <trkpt lat="48.12589" lon="-3.2977">
        <ele>222.7</ele>
        <time>2024-11-20T09:10:13Z</time>
      </trkpt>
      <trkpt lat="48.12591" lon="-3.29771">
        <ele>222.8</ele>
        <time>2024-11-20T09:10:14Z</time>
      </trkpt>
      <trkpt lat="48.12592" lon="-3.29771">
        <ele>222.8</ele>
        <time>2024-11-20T09:10:15Z</time>
      </trkpt>
      <trkpt lat="48.12593" lon="-3.29772">
        <ele>222.8</ele>
        <time>2024-11-20T09:10:16Z</time>
      </trkpt>
      <trkpt lat="48.12595" lon="-3.29773">
        <ele>222.8</ele>
        <time>2024-11-20T09:10:17Z</time>
      </trkpt>
      <trkpt lat="48.12597" lon="-3.29773">
        <ele>222.8</ele>
        <time>2024-11-20T09:10:18Z</time>
      </trkpt>
      <trkpt lat="48.12599" lon="-3.29773">
        <ele>222.9</ele>
        <time>2024-11-20T09:10:19Z</time>
      </trkpt>
      <trkpt lat="48.126" lon="-3.29773">
        <ele>222.9</ele>
        <time>2024-11-20T09:10:20Z</time>
      </trkpt>
      <trkpt lat="48.12601" lon="-3.29773">
        <ele>223</ele>
        <time>2024-11-20T09:10:21Z</time>
      </trkpt>
      <trkpt lat="48.12602" lon="-3.29772">
        <ele>223.1</ele>
        <time>2024-11-20T09:10:22Z</time>
      </trkpt>
      <trkpt lat="48.12603" lon="-3.29772">
        <ele>223.1</ele>
        <time>2024-11-20T09:10:23Z</time>
      </trkpt>
      <trkpt lat="48.12604" lon="-3.29772">
        <ele>223.2</ele>
        <time>2024-11-20T09:10:24Z</time>
      </trkpt>
      <trkpt lat="48.12606" lon="-3.29771">
        <ele>223.3</ele>
        <time>2024-11-20T09:10:25Z</time>
      </trkpt>
      <trkpt lat="48.12607" lon="-3.29771">
        <ele>223.3</ele>
        <time>2024-11-20T09:10:26Z</time>
      </trkpt>
      <trkpt lat="48.12607" lon="-3.29772">
        <ele>223.3</ele>
        <time>2024-11-20T09:10:27Z</time>
      </trkpt>
      <trkpt lat="48.12608" lon="-3.29772">
        <ele>223.3</ele>
        <time>2024-11-20T09:10:28Z</time>
      </trkpt>
      <trkpt lat="48.12609" lon="-3.29772">
        <ele>223.3</ele>
        <time>2024-11-20T09:10:29Z</time>
      </trkpt>
      <trkpt lat="48.12611" lon="-3.29773">
        <ele>223.3</ele>
        <time>2024-11-20T09:10:30Z</time>
      </trkpt>
      <trkpt lat="48.12613" lon="-3.29774">
        <ele>223.4</ele>
        <time>2024-11-20T09:10:31Z</time>
      </trkpt>
      <trkpt lat="48.12614" lon="-3.29774">
        <ele>223.4</ele>
        <time>2024-11-20T09:10:32Z</time>
      </trkpt>
      <trkpt lat="48.12615" lon="-3.29774">
        <ele>223.4</ele>
        <time>2024-11-20T09:10:33Z</time>
      </trkpt>
      <trkpt lat="48.12616" lon="-3.29774">
        <ele>223.5</ele>
        <time>2024-11-20T09:10:34Z</time>
      </trkpt>
      <trkpt lat="48.12617" lon="-3.29775">
        <ele>223.4</ele>
        <time>2024-11-20T09:10:35Z</time>
      </trkpt>
      <trkpt lat="48.12619" lon="-3.29776">
        <ele>223.4</ele>
        <time>2024-11-20T09:10:36Z</time>
      </trkpt>
      <trkpt lat="48.1262" lon="-3.29777">
        <ele>223.4</ele>
        <time>2024-11-20T09:10:37Z</time>
      </trkpt>
      <trkpt lat="48.1262" lon="-3.29777">
        <ele>223.4</ele>
        <time>2024-11-20T09:10:38Z</time>
      </trkpt>
      <trkpt lat="48.12621" lon="-3.29777">
        <ele>223.4</ele>
        <time>2024-11-20T09:10:39Z</time>
      </trkpt>
      <trkpt lat="48.12622" lon="-3.29777">
        <ele>223.4</ele>
        <time>2024-11-20T09:10:40Z</time>
      </trkpt>
      <trkpt lat="48.12623" lon="-3.29778">
        <ele>223.4</ele>
        <time>2024-11-20T09:10:41Z</time>
      </trkpt>
      <trkpt lat="48.12624" lon="-3.29778">
        <ele>223.4</ele>
        <time>2024-11-20T09:10:42Z</time>
      </trkpt>
      <trkpt lat="48.12624" lon="-3.29778">
        <ele>223.4</ele>
        <time>2024-11-20T09:10:43Z</time>
      </trkpt>
      <trkpt lat="48.12624" lon="-3.29778">
        <ele>223.4</ele>
        <time>2024-11-20T09:10:44Z</time>
      </trkpt>
      <trkpt lat="48.12625" lon="-3.29779">
        <ele>223.4</ele>
        <time>2024-11-20T09:10:45Z</time>
      </trkpt>
      <trkpt lat="48.12627" lon="-3.2978">
        <ele>223.4</ele>
        <time>2024-11-20T09:10:46Z</time>
      </trkpt>
      <trkpt lat="48.12629" lon="-3.2978">
        <ele>223.4</ele>
        <time>2024-11-20T09:10:47Z</time>
      </trkpt>
      <trkpt lat="48.1263" lon="-3.29781">
        <ele>223.3</ele>
        <time>2024-11-20T09:10:48Z</time>
      </trkpt>
      <trkpt lat="48.12632" lon="-3.29782">
        <ele>223.3</ele>
        <time>2024-11-20T09:10:49Z</time>
      </trkpt>
      <trkpt lat="48.12632" lon="-3.29783">
        <ele>223.2</ele>
        <time>2024-11-20T09:10:50Z</time>
      </trkpt>
      <trkpt lat="48.12633" lon="-3.29783">
        <ele>223.2</ele>
        <time>2024-11-20T09:10:51Z</time>
      </trkpt>
      <trkpt lat="48.12634" lon="-3.29784">
        <ele>223.2</ele>
        <time>2024-11-20T09:10:52Z</time>
      </trkpt>
      <trkpt lat="48.12636" lon="-3.29784">
        <ele>223.2</ele>
        <time>2024-11-20T09:10:53Z</time>
      </trkpt>
      <trkpt lat="48.12637" lon="-3.29785">
        <ele>223.2</ele>
        <time>2024-11-20T09:10:54Z</time>
      </trkpt>
      <trkpt lat="48.12638" lon="-3.29785">
        <ele>223.2</ele>
        <time>2024-11-20T09:10:55Z</time>
      </trkpt>
      <trkpt lat="48.12639" lon="-3.29785">
        <ele>223.2</ele>
        <time>2024-11-20T09:10:56Z</time>
      </trkpt>
      <trkpt lat="48.1264" lon="-3.29785">
        <ele>223.2</ele>
        <time>2024-11-20T09:10:57Z</time>
      </trkpt>
      <trkpt lat="48.12641" lon="-3.29786">
        <ele>223.1</ele>
        <time>2024-11-20T09:10:58Z</time>
      </trkpt>
      <trkpt lat="48.12643" lon="-3.29786">
        <ele>223</ele>
        <time>2024-11-20T09:10:59Z</time>
      </trkpt>
      <trkpt lat="48.12644" lon="-3.29786">
        <ele>223</ele>
        <time>2024-11-20T09:11:00Z</time>
      </trkpt>
      <trkpt lat="48.12646" lon="-3.29787">
        <ele>222.9</ele>
        <time>2024-11-20T09:11:01Z</time>
      </trkpt>
      <trkpt lat="48.12646" lon="-3.29787">
        <ele>222.9</ele>
        <time>2024-11-20T09:11:02Z</time>
      </trkpt>
      <trkpt lat="48.12648" lon="-3.29787">
        <ele>222.9</ele>
        <time>2024-11-20T09:11:03Z</time>
      </trkpt>
      <trkpt lat="48.1265" lon="-3.29788">
        <ele>222.8</ele>
        <time>2024-11-20T09:11:04Z</time>
      </trkpt>
      <trkpt lat="48.12651" lon="-3.29789">
        <ele>222.7</ele>
        <time>2024-11-20T09:11:05Z</time>
      </trkpt>
      <trkpt lat="48.12652" lon="-3.2979">
        <ele>222.5</ele>
        <time>2024-11-20T09:11:06Z</time>
      </trkpt>
      <trkpt lat="48.12653" lon="-3.2979">
        <ele>222.4</ele>
        <time>2024-11-20T09:11:07Z</time>
      </trkpt>
      <trkpt lat="48.12654" lon="-3.29791">
        <ele>222.3</ele>
        <time>2024-11-20T09:11:08Z</time>
      </trkpt>
      <trkpt lat="48.12655" lon="-3.29792">
        <ele>222.1</ele>
        <time>2024-11-20T09:11:09Z</time>
      </trkpt>
      <trkpt lat="48.12657" lon="-3.29793">
        <ele>222</ele>
        <time>2024-11-20T09:11:10Z</time>
      </trkpt>
      <trkpt lat="48.12658" lon="-3.29794">
        <ele>221.9</ele>
        <time>2024-11-20T09:11:11Z</time>
      </trkpt>
      <trkpt lat="48.1266" lon="-3.29794">
        <ele>221.8</ele>
        <time>2024-11-20T09:11:12Z</time>
      </trkpt>
      <trkpt lat="48.12661" lon="-3.29794">
        <ele>221.7</ele>
        <time>2024-11-20T09:11:13Z</time>
      </trkpt>
      <trkpt lat="48.12662" lon="-3.29794">
        <ele>221.7</ele>
        <time>2024-11-20T09:11:14Z</time>
      </trkpt>
      <trkpt lat="48.12663" lon="-3.29794">
        <ele>221.8</ele>
        <time>2024-11-20T09:11:15Z</time>
      </trkpt>
      <trkpt lat="48.12664" lon="-3.29793">
        <ele>221.9</ele>
        <time>2024-11-20T09:11:16Z</time>
      </trkpt>
      <trkpt lat="48.12664" lon="-3.29792">
        <ele>222</ele>
        <time>2024-11-20T09:11:17Z</time>
      </trkpt>
      <trkpt lat="48.12665" lon="-3.29792">
        <ele>222</ele>
        <time>2024-11-20T09:11:18Z</time>
      </trkpt>
      <trkpt lat="48.12667" lon="-3.29792">
        <ele>222</ele>
        <time>2024-11-20T09:11:19Z</time>
      </trkpt>
      <trkpt lat="48.12667" lon="-3.29792">
        <ele>221.8</ele>
        <time>2024-11-20T09:11:20Z</time>
      </trkpt>
      <trkpt lat="48.12668" lon="-3.29792">
        <ele>221.6</ele>
        <time>2024-11-20T09:11:21Z</time>
      </trkpt>
      <trkpt lat="48.1267" lon="-3.29792">
        <ele>221.5</ele>
        <time>2024-11-20T09:11:22Z</time>
      </trkpt>
      <trkpt lat="48.1267" lon="-3.29792">
        <ele>221.4</ele>
        <time>2024-11-20T09:11:23Z</time>
      </trkpt>
      <trkpt lat="48.12671" lon="-3.29792">
        <ele>221.3</ele>
        <time>2024-11-20T09:11:24Z</time>
      </trkpt>
      <trkpt lat="48.12672" lon="-3.29792">
        <ele>221.2</ele>
        <time>2024-11-20T09:11:25Z</time>
      </trkpt>
      <trkpt lat="48.12673" lon="-3.29791">
        <ele>221.1</ele>
        <time>2024-11-20T09:11:26Z</time>
      </trkpt>
      <trkpt lat="48.12674" lon="-3.29791">
        <ele>220.9</ele>
        <time>2024-11-20T09:11:27Z</time>
      </trkpt>
      <trkpt lat="48.12677" lon="-3.29792">
        <ele>220.4</ele>
        <time>2024-11-20T09:11:28Z</time>
      </trkpt>
      <trkpt lat="48.12678" lon="-3.29792">
        <ele>220.1</ele>
        <time>2024-11-20T09:11:29Z</time>
      </trkpt>
      <trkpt lat="48.1268" lon="-3.29791">
        <ele>220</ele>
        <time>2024-11-20T09:11:31Z</time>
      </trkpt>
      <trkpt lat="48.1268" lon="-3.2979">
        <ele>220</ele>
        <time>2024-11-20T09:11:32Z</time>
      </trkpt>
      <trkpt lat="48.1268" lon="-3.2979">
        <ele>220.1</ele>
        <time>2024-11-20T09:11:33Z</time>
      </trkpt>
      <trkpt lat="48.12681" lon="-3.29789">
        <ele>220.1</ele>
        <time>2024-11-20T09:11:34Z</time>
      </trkpt>
      <trkpt lat="48.12681" lon="-3.29789">
        <ele>220.1</ele>
        <time>2024-11-20T09:11:35Z</time>
      </trkpt>
      <trkpt lat="48.12682" lon="-3.29788">
        <ele>220.1</ele>
        <time>2024-11-20T09:11:36Z</time>
      </trkpt>
      <trkpt lat="48.12683" lon="-3.29787">
        <ele>220.1</ele>
        <time>2024-11-20T09:11:37Z</time>
      </trkpt>
      <trkpt lat="48.12684" lon="-3.29786">
        <ele>220.1</ele>
        <time>2024-11-20T09:11:38Z</time>
      </trkpt>
      <trkpt lat="48.12685" lon="-3.29785">
        <ele>220.1</ele>
        <time>2024-11-20T09:11:39Z</time>
      </trkpt>
      <trkpt lat="48.12686" lon="-3.29784">
        <ele>220.3</ele>
        <time>2024-11-20T09:11:40Z</time>
      </trkpt>
      <trkpt lat="48.12686" lon="-3.29783">
        <ele>220.4</ele>
        <time>2024-11-20T09:11:41Z</time>
      </trkpt>
      <trkpt lat="48.12687" lon="-3.29782">
        <ele>220.4</ele>
        <time>2024-11-20T09:11:42Z</time>
      </trkpt>
      <trkpt lat="48.12688" lon="-3.29781">
        <ele>220.4</ele>
        <time>2024-11-20T09:11:43Z</time>
      </trkpt>
      <trkpt lat="48.12689" lon="-3.29781">
        <ele>220.3</ele>
        <time>2024-11-20T09:11:44Z</time>
      </trkpt>
      <trkpt lat="48.1269" lon="-3.2978">
        <ele>220.3</ele>
        <time>2024-11-20T09:11:45Z</time>
      </trkpt>
      <trkpt lat="48.12691" lon="-3.29779">
        <ele>220.2</ele>
        <time>2024-11-20T09:11:46Z</time>
      </trkpt>
      <trkpt lat="48.12693" lon="-3.29778">
        <ele>220.3</ele>
        <time>2024-11-20T09:11:47Z</time>
      </trkpt>
      <trkpt lat="48.12694" lon="-3.29777">
        <ele>220.4</ele>
        <time>2024-11-20T09:11:48Z</time>
      </trkpt>
      <trkpt lat="48.12694" lon="-3.29776">
        <ele>220.4</ele>
        <time>2024-11-20T09:11:49Z</time>
      </trkpt>
      <trkpt lat="48.12695" lon="-3.29774">
        <ele>220.6</ele>
        <time>2024-11-20T09:11:50Z</time>
      </trkpt>
      <trkpt lat="48.12695" lon="-3.29773">
        <ele>220.7</ele>
        <time>2024-11-20T09:11:51Z</time>
      </trkpt>
      <trkpt lat="48.12696" lon="-3.29772">
        <ele>220.6</ele>
        <time>2024-11-20T09:11:52Z</time>
      </trkpt>
      <trkpt lat="48.12696" lon="-3.2977">
        <ele>220.8</ele>
        <time>2024-11-20T09:11:53Z</time>
      </trkpt>
      <trkpt lat="48.12696" lon="-3.29769">
        <ele>221</ele>
        <time>2024-11-20T09:11:54Z</time>
      </trkpt>
      <trkpt lat="48.12696" lon="-3.29768">
        <ele>221.2</ele>
        <time>2024-11-20T09:11:55Z</time>
      </trkpt>
      <trkpt lat="48.12696" lon="-3.29767">
        <ele>221.4</ele>
        <time>2024-11-20T09:11:56Z</time>
      </trkpt>
      <trkpt lat="48.12697" lon="-3.29767">
        <ele>221.4</ele>
        <time>2024-11-20T09:11:57Z</time>
      </trkpt>
      <trkpt lat="48.12697" lon="-3.29766">
        <ele>221.5</ele>
        <time>2024-11-20T09:11:58Z</time>
      </trkpt>
      <trkpt lat="48.12697" lon="-3.29765">
        <ele>221.6</ele>
        <time>2024-11-20T09:11:59Z</time>
      </trkpt>
      <trkpt lat="48.12698" lon="-3.29764">
        <ele>221.6</ele>
        <time>2024-11-20T09:12:00Z</time>
      </trkpt>
      <trkpt lat="48.12699" lon="-3.29763">
        <ele>221.5</ele>
        <time>2024-11-20T09:12:01Z</time>
      </trkpt>
      <trkpt lat="48.127" lon="-3.29762">
        <ele>221.4</ele>
        <time>2024-11-20T09:12:02Z</time>
      </trkpt>
      <trkpt lat="48.12701" lon="-3.29761">
        <ele>221.3</ele>
        <time>2024-11-20T09:12:03Z</time>
      </trkpt>
      <trkpt lat="48.12702" lon="-3.29759">
        <ele>221.3</ele>
        <time>2024-11-20T09:12:04Z</time>
      </trkpt>
      <trkpt lat="48.12703" lon="-3.29759">
        <ele>221.2</ele>
        <time>2024-11-20T09:12:05Z</time>
      </trkpt>
      <trkpt lat="48.12704" lon="-3.29758">
        <ele>221.1</ele>
        <time>2024-11-20T09:12:06Z</time>
      </trkpt>
      <trkpt lat="48.12705" lon="-3.29757">
        <ele>220.9</ele>
        <time>2024-11-20T09:12:07Z</time>
      </trkpt>
      <trkpt lat="48.12706" lon="-3.29757">
        <ele>220.7</ele>
        <time>2024-11-20T09:12:08Z</time>
      </trkpt>
      <trkpt lat="48.12707" lon="-3.29756">
        <ele>220.6</ele>
        <time>2024-11-20T09:12:09Z</time>
      </trkpt>
      <trkpt lat="48.12708" lon="-3.29755">
        <ele>220.5</ele>
        <time>2024-11-20T09:12:10Z</time>
      </trkpt>
      <trkpt lat="48.12709" lon="-3.29754">
        <ele>220.6</ele>
        <time>2024-11-20T09:12:11Z</time>
      </trkpt>
      <trkpt lat="48.12709" lon="-3.29753">
        <ele>220.8</ele>
        <time>2024-11-20T09:12:12Z</time>
      </trkpt>
      <trkpt lat="48.1271" lon="-3.29752">
        <ele>220.8</ele>
        <time>2024-11-20T09:12:13Z</time>
      </trkpt>
      <trkpt lat="48.12711" lon="-3.2975">
        <ele>220.7</ele>
        <time>2024-11-20T09:12:14Z</time>
      </trkpt>
      <trkpt lat="48.12713" lon="-3.29749">
        <ele>220.7</ele>
        <time>2024-11-20T09:12:15Z</time>
      </trkpt>
      <trkpt lat="48.12713" lon="-3.29747">
        <ele>220.8</ele>
        <time>2024-11-20T09:12:16Z</time>
      </trkpt>
      <trkpt lat="48.12714" lon="-3.29747">
        <ele>220.8</ele>
        <time>2024-11-20T09:12:17Z</time>
      </trkpt>
      <trkpt lat="48.12715" lon="-3.29745">
        <ele>220.9</ele>
        <time>2024-11-20T09:12:18Z</time>
      </trkpt>
      <trkpt lat="48.12715" lon="-3.29744">
        <ele>221.1</ele>
        <time>2024-11-20T09:12:19Z</time>
      </trkpt>
      <trkpt lat="48.12716" lon="-3.29743">
        <ele>221.2</ele>
        <time>2024-11-20T09:12:20Z</time>
      </trkpt>
      <trkpt lat="48.12717" lon="-3.29741">
        <ele>221.4</ele>
        <time>2024-11-20T09:12:21Z</time>
      </trkpt>
      <trkpt lat="48.12718" lon="-3.2974">
        <ele>221.4</ele>
        <time>2024-11-20T09:12:22Z</time>
      </trkpt>
      <trkpt lat="48.1272" lon="-3.29739">
        <ele>221.3</ele>
        <time>2024-11-20T09:12:23Z</time>
      </trkpt>
      <trkpt lat="48.12721" lon="-3.29738">
        <ele>221.2</ele>
        <time>2024-11-20T09:12:24Z</time>
      </trkpt>
      <trkpt lat="48.12723" lon="-3.29737">
        <ele>221.2</ele>
        <time>2024-11-20T09:12:25Z</time>
      </trkpt>
      <trkpt lat="48.12724" lon="-3.29736">
        <ele>221.1</ele>
        <time>2024-11-20T09:12:26Z</time>
      </trkpt>
      <trkpt lat="48.12725" lon="-3.29734">
        <ele>221.3</ele>
        <time>2024-11-20T09:12:27Z</time>
      </trkpt>
      <trkpt lat="48.12725" lon="-3.29733">
        <ele>221.6</ele>
        <time>2024-11-20T09:12:28Z</time>
      </trkpt>
      <trkpt lat="48.12726" lon="-3.29731">
        <ele>221.8</ele>
        <time>2024-11-20T09:12:29Z</time>
      </trkpt>
      <trkpt lat="48.12726" lon="-3.2973">
        <ele>222.1</ele>
        <time>2024-11-20T09:12:30Z</time>
      </trkpt>
      <trkpt lat="48.12727" lon="-3.29729">
        <ele>222.3</ele>
        <time>2024-11-20T09:12:31Z</time>
      </trkpt>
      <trkpt lat="48.12728" lon="-3.29727">
        <ele>222.4</ele>
        <time>2024-11-20T09:12:32Z</time>
      </trkpt>
      <trkpt lat="48.12729" lon="-3.29726">
        <ele>222.5</ele>
        <time>2024-11-20T09:12:33Z</time>
      </trkpt>
      <trkpt lat="48.1273" lon="-3.29725">
        <ele>222.5</ele>
        <time>2024-11-20T09:12:34Z</time>
      </trkpt>
      <trkpt lat="48.12731" lon="-3.29724">
        <ele>222.4</ele>
        <time>2024-11-20T09:12:35Z</time>
      </trkpt>
      <trkpt lat="48.12733" lon="-3.29723">
        <ele>222.2</ele>
        <time>2024-11-20T09:12:36Z</time>
      </trkpt>
      <trkpt lat="48.12734" lon="-3.29722">
        <ele>222.1</ele>
        <time>2024-11-20T09:12:37Z</time>
      </trkpt>
      <trkpt lat="48.12735" lon="-3.29722">
        <ele>221.9</ele>
        <time>2024-11-20T09:12:38Z</time>
      </trkpt>
      <trkpt lat="48.12737" lon="-3.29721">
        <ele>221.7</ele>
        <time>2024-11-20T09:12:39Z</time>
      </trkpt>
      <trkpt lat="48.12738" lon="-3.2972">
        <ele>221.6</ele>
        <time>2024-11-20T09:12:40Z</time>
      </trkpt>
      <trkpt lat="48.12738" lon="-3.29719">
        <ele>221.6</ele>
        <time>2024-11-20T09:12:41Z</time>
      </trkpt>
      <trkpt lat="48.12739" lon="-3.29717">
        <ele>221.9</ele>
        <time>2024-11-20T09:12:42Z</time>
      </trkpt>
      <trkpt lat="48.12739" lon="-3.29717">
        <ele>221.9</ele>
        <time>2024-11-20T09:12:43Z</time>
      </trkpt>
      <trkpt lat="48.1274" lon="-3.29716">
        <ele>221.9</ele>
        <time>2024-11-20T09:12:44Z</time>
      </trkpt>
      <trkpt lat="48.1274" lon="-3.29715">
        <ele>222</ele>
        <time>2024-11-20T09:12:45Z</time>
      </trkpt>
      <trkpt lat="48.12741" lon="-3.29714">
        <ele>221.9</ele>
        <time>2024-11-20T09:12:46Z</time>
      </trkpt>
      <trkpt lat="48.12742" lon="-3.29713">
        <ele>221.9</ele>
        <time>2024-11-20T09:12:47Z</time>
      </trkpt>
      <trkpt lat="48.12743" lon="-3.29713">
        <ele>221.8</ele>
        <time>2024-11-20T09:12:48Z</time>
      </trkpt>
      <trkpt lat="48.12744" lon="-3.29712">
        <ele>221.7</ele>
        <time>2024-11-20T09:12:49Z</time>
      </trkpt>
      <trkpt lat="48.12745" lon="-3.29711">
        <ele>221.7</ele>
        <time>2024-11-20T09:12:50Z</time>
      </trkpt>
      <trkpt lat="48.12746" lon="-3.29711">
        <ele>221.5</ele>
        <time>2024-11-20T09:12:51Z</time>
      </trkpt>
      <trkpt lat="48.12746" lon="-3.29711">
        <ele>221.3</ele>
        <time>2024-11-20T09:12:52Z</time>
      </trkpt>
      <trkpt lat="48.12748" lon="-3.2971">
        <ele>221.1</ele>
        <time>2024-11-20T09:12:53Z</time>
      </trkpt>
      <trkpt lat="48.12748" lon="-3.2971">
        <ele>221.1</ele>
        <time>2024-11-20T09:12:54Z</time>
      </trkpt>
      <trkpt lat="48.12749" lon="-3.29708">
        <ele>221.2</ele>
        <time>2024-11-20T09:12:55Z</time>
      </trkpt>
      <trkpt lat="48.1275" lon="-3.29708">
        <ele>221.2</ele>
        <time>2024-11-20T09:12:56Z</time>
      </trkpt>
      <trkpt lat="48.12751" lon="-3.29707">
        <ele>221.1</ele>
        <time>2024-11-20T09:12:57Z</time>
      </trkpt>
      <trkpt lat="48.12752" lon="-3.29706">
        <ele>220.9</ele>
        <time>2024-11-20T09:12:58Z</time>
      </trkpt>
      <trkpt lat="48.12753" lon="-3.29705">
        <ele>220.9</ele>
        <time>2024-11-20T09:12:59Z</time>
      </trkpt>
      <trkpt lat="48.12754" lon="-3.29705">
        <ele>220.7</ele>
        <time>2024-11-20T09:13:00Z</time>
      </trkpt>
      <trkpt lat="48.12756" lon="-3.29704">
        <ele>220.6</ele>
        <time>2024-11-20T09:13:01Z</time>
      </trkpt>
      <trkpt lat="48.12757" lon="-3.29703">
        <ele>220.5</ele>
        <time>2024-11-20T09:13:02Z</time>
      </trkpt>
      <trkpt lat="48.12757" lon="-3.29702">
        <ele>220.6</ele>
        <time>2024-11-20T09:13:03Z</time>
      </trkpt>
      <trkpt lat="48.12758" lon="-3.29701">
        <ele>220.6</ele>
        <time>2024-11-20T09:13:04Z</time>
      </trkpt>
      <trkpt lat="48.12759" lon="-3.297">
        <ele>220.6</ele>
        <time>2024-11-20T09:13:05Z</time>
      </trkpt>
      <trkpt lat="48.1276" lon="-3.29698">
        <ele>220.7</ele>
        <time>2024-11-20T09:13:06Z</time>
      </trkpt>
      <trkpt lat="48.12761" lon="-3.29697">
        <ele>220.6</ele>
        <time>2024-11-20T09:13:07Z</time>
      </trkpt>
      <trkpt lat="48.12762" lon="-3.29696">
        <ele>220.6</ele>
        <time>2024-11-20T09:13:08Z</time>
      </trkpt>
      <trkpt lat="48.12763" lon="-3.29695">
        <ele>220.6</ele>
        <time>2024-11-20T09:13:09Z</time>
      </trkpt>
      <trkpt lat="48.12764" lon="-3.29694">
        <ele>220.6</ele>
        <time>2024-11-20T09:13:10Z</time>
      </trkpt>
      <trkpt lat="48.12765" lon="-3.29693">
        <ele>220.6</ele>
        <time>2024-11-20T09:13:11Z</time>
      </trkpt>
      <trkpt lat="48.12766" lon="-3.29692">
        <ele>220.5</ele>
        <time>2024-11-20T09:13:12Z</time>
      </trkpt>
      <trkpt lat="48.12766" lon="-3.29691">
        <ele>220.6</ele>
        <time>2024-11-20T09:13:13Z</time>
      </trkpt>
      <trkpt lat="48.12767" lon="-3.2969">
        <ele>220.8</ele>
        <time>2024-11-20T09:13:14Z</time>
      </trkpt>
      <trkpt lat="48.12767" lon="-3.29689">
        <ele>220.9</ele>
        <time>2024-11-20T09:13:15Z</time>
      </trkpt>
      <trkpt lat="48.12767" lon="-3.29688">
        <ele>221.1</ele>
        <time>2024-11-20T09:13:16Z</time>
      </trkpt>
      <trkpt lat="48.12767" lon="-3.29687">
        <ele>221.3</ele>
        <time>2024-11-20T09:13:17Z</time>
      </trkpt>
      <trkpt lat="48.12768" lon="-3.29686">
        <ele>221.5</ele>
        <time>2024-11-20T09:13:18Z</time>
      </trkpt>
      <trkpt lat="48.12768" lon="-3.29685">
        <ele>221.5</ele>
        <time>2024-11-20T09:13:19Z</time>
      </trkpt>
      <trkpt lat="48.12769" lon="-3.29683">
        <ele>221.6</ele>
        <time>2024-11-20T09:13:20Z</time>
      </trkpt>
      <trkpt lat="48.1277" lon="-3.29682">
        <ele>221.7</ele>
        <time>2024-11-20T09:13:21Z</time>
      </trkpt>
      <trkpt lat="48.12771" lon="-3.29681">
        <ele>221.7</ele>
        <time>2024-11-20T09:13:22Z</time>
      </trkpt>
      <trkpt lat="48.12772" lon="-3.29679">
        <ele>221.7</ele>
        <time>2024-11-20T09:13:23Z</time>
      </trkpt>
      <trkpt lat="48.12774" lon="-3.29678">
        <ele>221.6</ele>
        <time>2024-11-20T09:13:24Z</time>
      </trkpt>
      <trkpt lat="48.12775" lon="-3.29677">
        <ele>221.6</ele>
        <time>2024-11-20T09:13:25Z</time>
      </trkpt>
      <trkpt lat="48.12776" lon="-3.29675">
        <ele>221.6</ele>
        <time>2024-11-20T09:13:26Z</time>
      </trkpt>
      <trkpt lat="48.12777" lon="-3.29674">
        <ele>221.6</ele>
        <time>2024-11-20T09:13:27Z</time>
      </trkpt>
      <trkpt lat="48.12779" lon="-3.29673">
        <ele>221.5</ele>
        <time>2024-11-20T09:13:28Z</time>
      </trkpt>
      <trkpt lat="48.12781" lon="-3.29672">
        <ele>221.3</ele>
        <time>2024-11-20T09:13:29Z</time>
      </trkpt>
      <trkpt lat="48.12782" lon="-3.29671">
        <ele>221.2</ele>
        <time>2024-11-20T09:13:30Z</time>
      </trkpt>
      <trkpt lat="48.12784" lon="-3.29669">
        <ele>221.1</ele>
        <time>2024-11-20T09:13:31Z</time>
      </trkpt>
      <trkpt lat="48.12785" lon="-3.29668">
        <ele>221.1</ele>
        <time>2024-11-20T09:13:32Z</time>
      </trkpt>
      <trkpt lat="48.12786" lon="-3.29667">
        <ele>221.2</ele>
        <time>2024-11-20T09:13:33Z</time>
      </trkpt>
      <trkpt lat="48.12786" lon="-3.29666">
        <ele>221.4</ele>
        <time>2024-11-20T09:13:34Z</time>
      </trkpt>
      <trkpt lat="48.12787" lon="-3.29665">
        <ele>221.5</ele>
        <time>2024-11-20T09:13:35Z</time>
      </trkpt>
      <trkpt lat="48.12788" lon="-3.29664">
        <ele>221.6</ele>
        <time>2024-11-20T09:13:36Z</time>
      </trkpt>
      <trkpt lat="48.12788" lon="-3.29663">
        <ele>221.6</ele>
        <time>2024-11-20T09:13:37Z</time>
      </trkpt>
      <trkpt lat="48.1279" lon="-3.29662">
        <ele>221.5</ele>
        <time>2024-11-20T09:13:38Z</time>
      </trkpt>
      <trkpt lat="48.12791" lon="-3.29662">
        <ele>221.4</ele>
        <time>2024-11-20T09:13:39Z</time>
      </trkpt>
      <trkpt lat="48.12792" lon="-3.29661">
        <ele>221.2</ele>
        <time>2024-11-20T09:13:40Z</time>
      </trkpt>
      <trkpt lat="48.12794" lon="-3.2966">
        <ele>221.1</ele>
        <time>2024-11-20T09:13:41Z</time>
      </trkpt>
      <trkpt lat="48.12795" lon="-3.29659">
        <ele>221.1</ele>
        <time>2024-11-20T09:13:42Z</time>
      </trkpt>
      <trkpt lat="48.12795" lon="-3.29658">
        <ele>221.4</ele>
        <time>2024-11-20T09:13:43Z</time>
      </trkpt>
      <trkpt lat="48.12795" lon="-3.29656">
        <ele>221.7</ele>
        <time>2024-11-20T09:13:44Z</time>
      </trkpt>
      <trkpt lat="48.12795" lon="-3.29656">
        <ele>221.8</ele>
        <time>2024-11-20T09:13:45Z</time>
      </trkpt>
      <trkpt lat="48.12796" lon="-3.29655">
        <ele>221.8</ele>
        <time>2024-11-20T09:13:46Z</time>
      </trkpt>
      <trkpt lat="48.12797" lon="-3.29654">
        <ele>221.8</ele>
        <time>2024-11-20T09:13:47Z</time>
      </trkpt>
      <trkpt lat="48.12798" lon="-3.29653">
        <ele>221.8</ele>
        <time>2024-11-20T09:13:48Z</time>
      </trkpt>
      <trkpt lat="48.12799" lon="-3.29652">
        <ele>221.7</ele>
        <time>2024-11-20T09:13:49Z</time>
      </trkpt>
      <trkpt lat="48.128" lon="-3.29651">
        <ele>221.6</ele>
        <time>2024-11-20T09:13:50Z</time>
      </trkpt>
      <trkpt lat="48.12801" lon="-3.2965">
        <ele>221.6</ele>
        <time>2024-11-20T09:13:51Z</time>
      </trkpt>
      <trkpt lat="48.12802" lon="-3.29649">
        <ele>221.6</ele>
        <time>2024-11-20T09:13:52Z</time>
      </trkpt>
      <trkpt lat="48.12802" lon="-3.29647">
        <ele>221.9</ele>
        <time>2024-11-20T09:13:53Z</time>
      </trkpt>
      <trkpt lat="48.12803" lon="-3.29646">
        <ele>222.1</ele>
        <time>2024-11-20T09:13:54Z</time>
      </trkpt>
      <trkpt lat="48.12803" lon="-3.29645">
        <ele>222.2</ele>
        <time>2024-11-20T09:13:55Z</time>
      </trkpt>
      <trkpt lat="48.12804" lon="-3.29644">
        <ele>222.4</ele>
        <time>2024-11-20T09:13:56Z</time>
      </trkpt>
      <trkpt lat="48.12804" lon="-3.29643">
        <ele>222.4</ele>
        <time>2024-11-20T09:13:57Z</time>
      </trkpt>
      <trkpt lat="48.12805" lon="-3.29642">
        <ele>222.4</ele>
        <time>2024-11-20T09:13:58Z</time>
      </trkpt>
      <trkpt lat="48.12806" lon="-3.29641">
        <ele>222.5</ele>
        <time>2024-11-20T09:13:59Z</time>
      </trkpt>
      <trkpt lat="48.12806" lon="-3.2964">
        <ele>222.7</ele>
        <time>2024-11-20T09:14:00Z</time>
      </trkpt>
      <trkpt lat="48.12806" lon="-3.29639">
        <ele>222.9</ele>
        <time>2024-11-20T09:14:01Z</time>
      </trkpt>
      <trkpt lat="48.12806" lon="-3.29637">
        <ele>223.2</ele>
        <time>2024-11-20T09:14:02Z</time>
      </trkpt>
      <trkpt lat="48.12806" lon="-3.29636">
        <ele>223.4</ele>
        <time>2024-11-20T09:14:03Z</time>
      </trkpt>
      <trkpt lat="48.12806" lon="-3.29635">
        <ele>223.5</ele>
        <time>2024-11-20T09:14:04Z</time>
      </trkpt>
      <trkpt lat="48.12807" lon="-3.29634">
        <ele>223.6</ele>
        <time>2024-11-20T09:14:05Z</time>
      </trkpt>
      <trkpt lat="48.12807" lon="-3.29632">
        <ele>223.8</ele>
        <time>2024-11-20T09:14:06Z</time>
      </trkpt>
      <trkpt lat="48.12808" lon="-3.29631">
        <ele>223.9</ele>
        <time>2024-11-20T09:14:07Z</time>
      </trkpt>
      <trkpt lat="48.12809" lon="-3.29629">
        <ele>223.9</ele>
        <time>2024-11-20T09:14:08Z</time>
      </trkpt>
      <trkpt lat="48.1281" lon="-3.29628">
        <ele>224</ele>
        <time>2024-11-20T09:14:09Z</time>
      </trkpt>
      <trkpt lat="48.12811" lon="-3.29626">
        <ele>224</ele>
        <time>2024-11-20T09:14:10Z</time>
      </trkpt>
      <trkpt lat="48.12812" lon="-3.29625">
        <ele>224.1</ele>
        <time>2024-11-20T09:14:11Z</time>
      </trkpt>
      <trkpt lat="48.12812" lon="-3.29624">
        <ele>224.1</ele>
        <time>2024-11-20T09:14:12Z</time>
      </trkpt>
      <trkpt lat="48.12813" lon="-3.29623">
        <ele>224.1</ele>
        <time>2024-11-20T09:14:13Z</time>
      </trkpt>
      <trkpt lat="48.12814" lon="-3.29622">
        <ele>224</ele>
        <time>2024-11-20T09:14:14Z</time>
      </trkpt>
      <trkpt lat="48.12814" lon="-3.29621">
        <ele>224.1</ele>
        <time>2024-11-20T09:14:15Z</time>
      </trkpt>
      <trkpt lat="48.12815" lon="-3.2962">
        <ele>224.1</ele>
        <time>2024-11-20T09:14:16Z</time>
      </trkpt>
      <trkpt lat="48.12815" lon="-3.29619">
        <ele>224.2</ele>
        <time>2024-11-20T09:14:17Z</time>
      </trkpt>
      <trkpt lat="48.12816" lon="-3.29618">
        <ele>224.3</ele>
        <time>2024-11-20T09:14:18Z</time>
      </trkpt>
      <trkpt lat="48.12817" lon="-3.29617">
        <ele>224.3</ele>
        <time>2024-11-20T09:14:19Z</time>
      </trkpt>
      <trkpt lat="48.12818" lon="-3.29616">
        <ele>224.1</ele>
        <time>2024-11-20T09:14:20Z</time>
      </trkpt>
      <trkpt lat="48.12819" lon="-3.29615">
        <ele>223.9</ele>
        <time>2024-11-20T09:14:21Z</time>
      </trkpt>
      <trkpt lat="48.1282" lon="-3.29615">
        <ele>223.8</ele>
        <time>2024-11-20T09:14:22Z</time>
      </trkpt>
      <trkpt lat="48.12821" lon="-3.29614">
        <ele>223.7</ele>
        <time>2024-11-20T09:14:23Z</time>
      </trkpt>
      <trkpt lat="48.12822" lon="-3.29613">
        <ele>223.6</ele>
        <time>2024-11-20T09:14:24Z</time>
      </trkpt>
      <trkpt lat="48.12823" lon="-3.29612">
        <ele>223.5</ele>
        <time>2024-11-20T09:14:25Z</time>
      </trkpt>
      <trkpt lat="48.12824" lon="-3.29611">
        <ele>223.5</ele>
        <time>2024-11-20T09:14:26Z</time>
      </trkpt>
      <trkpt lat="48.12824" lon="-3.2961">
        <ele>223.5</ele>
        <time>2024-11-20T09:14:27Z</time>
      </trkpt>
      <trkpt lat="48.12825" lon="-3.29609">
        <ele>223.5</ele>
        <time>2024-11-20T09:14:28Z</time>
      </trkpt>
      <trkpt lat="48.12825" lon="-3.29608">
        <ele>223.4</ele>
        <time>2024-11-20T09:14:29Z</time>
      </trkpt>
      <trkpt lat="48.12825" lon="-3.29607">
        <ele>223.5</ele>
        <time>2024-11-20T09:14:30Z</time>
      </trkpt>
      <trkpt lat="48.12826" lon="-3.29607">
        <ele>223.3</ele>
        <time>2024-11-20T09:14:31Z</time>
      </trkpt>
      <trkpt lat="48.12827" lon="-3.29606">
        <ele>223.2</ele>
        <time>2024-11-20T09:14:32Z</time>
      </trkpt>
      <trkpt lat="48.12827" lon="-3.29605">
        <ele>223.2</ele>
        <time>2024-11-20T09:14:33Z</time>
      </trkpt>
      <trkpt lat="48.12828" lon="-3.29604">
        <ele>223.2</ele>
        <time>2024-11-20T09:14:34Z</time>
      </trkpt>
      <trkpt lat="48.12828" lon="-3.29604">
        <ele>223.1</ele>
        <time>2024-11-20T09:14:35Z</time>
      </trkpt>
      <trkpt lat="48.12829" lon="-3.29603">
        <ele>223</ele>
        <time>2024-11-20T09:14:36Z</time>
      </trkpt>
      <trkpt lat="48.1283" lon="-3.29601">
        <ele>222.9</ele>
        <time>2024-11-20T09:14:37Z</time>
      </trkpt>
      <trkpt lat="48.12831" lon="-3.296">
        <ele>222.8</ele>
        <time>2024-11-20T09:14:38Z</time>
      </trkpt>
      <trkpt lat="48.12832" lon="-3.29598">
        <ele>222.7</ele>
        <time>2024-11-20T09:14:39Z</time>
      </trkpt>
      <trkpt lat="48.12834" lon="-3.29596">
        <ele>222.6</ele>
        <time>2024-11-20T09:14:40Z</time>
      </trkpt>
      <trkpt lat="48.12835" lon="-3.29594">
        <ele>222.5</ele>
        <time>2024-11-20T09:14:41Z</time>
      </trkpt>
      <trkpt lat="48.12837" lon="-3.29591">
        <ele>222.4</ele>
        <time>2024-11-20T09:14:42Z</time>
      </trkpt>
      <trkpt lat="48.12838" lon="-3.29589">
        <ele>222.3</ele>
        <time>2024-11-20T09:14:43Z</time>
      </trkpt>
      <trkpt lat="48.12839" lon="-3.29587">
        <ele>222.2</ele>
        <time>2024-11-20T09:14:44Z</time>
      </trkpt>
      <trkpt lat="48.1284" lon="-3.29584">
        <ele>222.3</ele>
        <time>2024-11-20T09:14:45Z</time>
      </trkpt>
      <trkpt lat="48.1284" lon="-3.29582">
        <ele>222.4</ele>
        <time>2024-11-20T09:14:46Z</time>
      </trkpt>
      <trkpt lat="48.1284" lon="-3.2958">
        <ele>222.4</ele>
        <time>2024-11-20T09:14:47Z</time>
      </trkpt>
      <trkpt lat="48.12842" lon="-3.29576">
        <ele>222.1</ele>
        <time>2024-11-20T09:14:48Z</time>
      </trkpt>
      <trkpt lat="48.12842" lon="-3.29574">
        <ele>222</ele>
        <time>2024-11-20T09:14:49Z</time>
      </trkpt>
      <trkpt lat="48.12842" lon="-3.29573">
        <ele>222</ele>
        <time>2024-11-20T09:14:50Z</time>
      </trkpt>
      <trkpt lat="48.12843" lon="-3.29571">
        <ele>221.9</ele>
        <time>2024-11-20T09:14:51Z</time>
      </trkpt>
      <trkpt lat="48.12843" lon="-3.29569">
        <ele>221.8</ele>
        <time>2024-11-20T09:14:52Z</time>
      </trkpt>
      <trkpt lat="48.12844" lon="-3.29567">
        <ele>221.7</ele>
        <time>2024-11-20T09:14:53Z</time>
      </trkpt>
      <trkpt lat="48.12845" lon="-3.29566">
        <ele>221.6</ele>
        <time>2024-11-20T09:14:54Z</time>
      </trkpt>
      <trkpt lat="48.12845" lon="-3.29565">
        <ele>221.4</ele>
        <time>2024-11-20T09:14:55Z</time>
      </trkpt>
      <trkpt lat="48.12846" lon="-3.29564">
        <ele>221.3</ele>
        <time>2024-11-20T09:14:56Z</time>
      </trkpt>
      <trkpt lat="48.12847" lon="-3.29562">
        <ele>221</ele>
        <time>2024-11-20T09:14:57Z</time>
      </trkpt>
      <trkpt lat="48.12847" lon="-3.29561">
        <ele>221</ele>
        <time>2024-11-20T09:14:58Z</time>
      </trkpt>
      <trkpt lat="48.12847" lon="-3.29559">
        <ele>221</ele>
        <time>2024-11-20T09:14:59Z</time>
      </trkpt>
      <trkpt lat="48.12847" lon="-3.29557">
        <ele>221</ele>
        <time>2024-11-20T09:15:00Z</time>
      </trkpt>
      <trkpt lat="48.12848" lon="-3.29556">
        <ele>220.9</ele>
        <time>2024-11-20T09:15:01Z</time>
      </trkpt>
      <trkpt lat="48.12848" lon="-3.29555">
        <ele>220.7</ele>
        <time>2024-11-20T09:15:02Z</time>
      </trkpt>
      <trkpt lat="48.12849" lon="-3.29554">
        <ele>220.5</ele>
        <time>2024-11-20T09:15:03Z</time>
      </trkpt>
      <trkpt lat="48.12849" lon="-3.29553">
        <ele>220.3</ele>
        <time>2024-11-20T09:15:04Z</time>
      </trkpt>
      <trkpt lat="48.12849" lon="-3.29551">
        <ele>220.2</ele>
        <time>2024-11-20T09:15:05Z</time>
      </trkpt>
      <trkpt lat="48.12849" lon="-3.29549">
        <ele>220.1</ele>
        <time>2024-11-20T09:15:06Z</time>
      </trkpt>
      <trkpt lat="48.12849" lon="-3.29548">
        <ele>220</ele>
        <time>2024-11-20T09:15:07Z</time>
      </trkpt>
      <trkpt lat="48.1285" lon="-3.29546">
        <ele>219.9</ele>
        <time>2024-11-20T09:15:08Z</time>
      </trkpt>
      <trkpt lat="48.1285" lon="-3.29544">
        <ele>219.6</ele>
        <time>2024-11-20T09:15:09Z</time>
      </trkpt>
      <trkpt lat="48.12851" lon="-3.29543">
        <ele>219.5</ele>
        <time>2024-11-20T09:15:10Z</time>
      </trkpt>
      <trkpt lat="48.12851" lon="-3.29542">
        <ele>219.4</ele>
        <time>2024-11-20T09:15:11Z</time>
      </trkpt>
      <trkpt lat="48.12851" lon="-3.2954">
        <ele>219.2</ele>
        <time>2024-11-20T09:15:12Z</time>
      </trkpt>
      <trkpt lat="48.12851" lon="-3.29538">
        <ele>219.1</ele>
        <time>2024-11-20T09:15:13Z</time>
      </trkpt>
      <trkpt lat="48.12851" lon="-3.29537">
        <ele>219</ele>
        <time>2024-11-20T09:15:14Z</time>
      </trkpt>
      <trkpt lat="48.12851" lon="-3.29537">
        <ele>218.9</ele>
        <time>2024-11-20T09:15:15Z</time>
      </trkpt>
      <trkpt lat="48.12851" lon="-3.29536">
        <ele>218.9</ele>
        <time>2024-11-20T09:15:16Z</time>
      </trkpt>
      <trkpt lat="48.12851" lon="-3.29535">
        <ele>218.9</ele>
        <time>2024-11-20T09:15:17Z</time>
      </trkpt>
      <trkpt lat="48.12851" lon="-3.29535">
        <ele>218.8</ele>
        <time>2024-11-20T09:15:18Z</time>
      </trkpt>
      <trkpt lat="48.12852" lon="-3.29534">
        <ele>218.7</ele>
        <time>2024-11-20T09:15:19Z</time>
      </trkpt>
      <trkpt lat="48.12852" lon="-3.29532">
        <ele>218.7</ele>
        <time>2024-11-20T09:15:20Z</time>
      </trkpt>
      <trkpt lat="48.12852" lon="-3.29532">
        <ele>218.4</ele>
        <time>2024-11-20T09:15:21Z</time>
      </trkpt>
      <trkpt lat="48.12853" lon="-3.29532">
        <ele>218.3</ele>
        <time>2024-11-20T09:15:22Z</time>
      </trkpt>
      <trkpt lat="48.12853" lon="-3.2953">
        <ele>218.2</ele>
        <time>2024-11-20T09:15:23Z</time>
      </trkpt>
      <trkpt lat="48.12853" lon="-3.29528">
        <ele>218</ele>
        <time>2024-11-20T09:15:24Z</time>
      </trkpt>
      <trkpt lat="48.12853" lon="-3.29527">
        <ele>217.8</ele>
        <time>2024-11-20T09:15:25Z</time>
      </trkpt>
      <trkpt lat="48.12854" lon="-3.29526">
        <ele>217.5</ele>
        <time>2024-11-20T09:15:26Z</time>
      </trkpt>
      <trkpt lat="48.12854" lon="-3.29522">
        <ele>217.2</ele>
        <time>2024-11-20T09:15:27Z</time>
      </trkpt>
      <trkpt lat="48.12854" lon="-3.29519">
        <ele>217.1</ele>
        <time>2024-11-20T09:15:28Z</time>
      </trkpt>
      <trkpt lat="48.12854" lon="-3.29517">
        <ele>217</ele>
        <time>2024-11-20T09:15:29Z</time>
      </trkpt>
      <trkpt lat="48.12854" lon="-3.29515">
        <ele>216.8</ele>
        <time>2024-11-20T09:15:30Z</time>
      </trkpt>
      <trkpt lat="48.12854" lon="-3.29514">
        <ele>216.7</ele>
        <time>2024-11-20T09:15:31Z</time>
      </trkpt>
      <trkpt lat="48.12854" lon="-3.29512">
        <ele>216.6</ele>
        <time>2024-11-20T09:15:32Z</time>
      </trkpt>
      <trkpt lat="48.12855" lon="-3.29508">
        <ele>216.3</ele>
        <time>2024-11-20T09:15:33Z</time>
      </trkpt>
      <trkpt lat="48.12855" lon="-3.29506">
        <ele>216.2</ele>
        <time>2024-11-20T09:15:34Z</time>
      </trkpt>
      <trkpt lat="48.12855" lon="-3.29505">
        <ele>216.1</ele>
        <time>2024-11-20T09:15:35Z</time>
      </trkpt>
      <trkpt lat="48.12855" lon="-3.29503">
        <ele>216</ele>
        <time>2024-11-20T09:15:36Z</time>
      </trkpt>
      <trkpt lat="48.12855" lon="-3.29503">
        <ele>215.9</ele>
        <time>2024-11-20T09:15:37Z</time>
      </trkpt>
      <trkpt lat="48.12856" lon="-3.29502">
        <ele>215.7</ele>
        <time>2024-11-20T09:15:38Z</time>
      </trkpt>
      <trkpt lat="48.12856" lon="-3.29501">
        <ele>215.6</ele>
        <time>2024-11-20T09:15:39Z</time>
      </trkpt>
      <trkpt lat="48.12856" lon="-3.29499">
        <ele>215.4</ele>
        <time>2024-11-20T09:15:40Z</time>
      </trkpt>
      <trkpt lat="48.12856" lon="-3.29498">
        <ele>215.3</ele>
        <time>2024-11-20T09:15:41Z</time>
      </trkpt>
      <trkpt lat="48.12856" lon="-3.29497">
        <ele>215.4</ele>
        <time>2024-11-20T09:15:42Z</time>
      </trkpt>
      <trkpt lat="48.12856" lon="-3.29496">
        <ele>215.4</ele>
        <time>2024-11-20T09:15:43Z</time>
      </trkpt>
      <trkpt lat="48.12856" lon="-3.29496">
        <ele>215.3</ele>
        <time>2024-11-20T09:15:44Z</time>
      </trkpt>
      <trkpt lat="48.12857" lon="-3.29495">
        <ele>215.2</ele>
        <time>2024-11-20T09:15:45Z</time>
      </trkpt>
      <trkpt lat="48.12857" lon="-3.29495">
        <ele>215.2</ele>
        <time>2024-11-20T09:15:46Z</time>
      </trkpt>
      <trkpt lat="48.12857" lon="-3.29493">
        <ele>215.1</ele>
        <time>2024-11-20T09:15:47Z</time>
      </trkpt>
      <trkpt lat="48.12856" lon="-3.29492">
        <ele>215.3</ele>
        <time>2024-11-20T09:15:48Z</time>
      </trkpt>
      <trkpt lat="48.12855" lon="-3.2949">
        <ele>215.5</ele>
        <time>2024-11-20T09:15:49Z</time>
      </trkpt>
      <trkpt lat="48.12855" lon="-3.29489">
        <ele>215.7</ele>
        <time>2024-11-20T09:15:50Z</time>
      </trkpt>
      <trkpt lat="48.12854" lon="-3.29488">
        <ele>215.8</ele>
        <time>2024-11-20T09:15:51Z</time>
      </trkpt>
      <trkpt lat="48.12854" lon="-3.29486">
        <ele>215.8</ele>
        <time>2024-11-20T09:15:52Z</time>
      </trkpt>
      <trkpt lat="48.12853" lon="-3.2948">
        <ele>216</ele>
        <time>2024-11-20T09:15:55Z</time>
      </trkpt>
      <trkpt lat="48.12852" lon="-3.29477">
        <ele>216.1</ele>
        <time>2024-11-20T09:15:56Z</time>
      </trkpt>
      <trkpt lat="48.12851" lon="-3.29474">
        <ele>216.2</ele>
        <time>2024-11-20T09:15:57Z</time>
      </trkpt>
      <trkpt lat="48.12851" lon="-3.29472">
        <ele>216.3</ele>
        <time>2024-11-20T09:15:58Z</time>
      </trkpt>
      <trkpt lat="48.1285" lon="-3.2947">
        <ele>216.2</ele>
        <time>2024-11-20T09:15:59Z</time>
      </trkpt>
      <trkpt lat="48.1285" lon="-3.29469">
        <ele>216.1</ele>
        <time>2024-11-20T09:16:00Z</time>
      </trkpt>
      <trkpt lat="48.1285" lon="-3.29468">
        <ele>216.2</ele>
        <time>2024-11-20T09:16:01Z</time>
      </trkpt>
      <trkpt lat="48.1285" lon="-3.29468">
        <ele>216.2</ele>
        <time>2024-11-20T09:16:02Z</time>
      </trkpt>
      <trkpt lat="48.1285" lon="-3.29467">
        <ele>216.2</ele>
        <time>2024-11-20T09:16:03Z</time>
      </trkpt>
      <trkpt lat="48.12849" lon="-3.29467">
        <ele>216.2</ele>
        <time>2024-11-20T09:16:04Z</time>
      </trkpt>
      <trkpt lat="48.12849" lon="-3.29466">
        <ele>216.2</ele>
        <time>2024-11-20T09:16:05Z</time>
      </trkpt>
      <trkpt lat="48.12849" lon="-3.29465">
        <ele>216.2</ele>
        <time>2024-11-20T09:16:06Z</time>
      </trkpt>
      <trkpt lat="48.12849" lon="-3.29464">
        <ele>216.3</ele>
        <time>2024-11-20T09:16:07Z</time>
      </trkpt>
      <trkpt lat="48.12848" lon="-3.29462">
        <ele>216.3</ele>
        <time>2024-11-20T09:16:08Z</time>
      </trkpt>
      <trkpt lat="48.12848" lon="-3.29461">
        <ele>216.3</ele>
        <time>2024-11-20T09:16:09Z</time>
      </trkpt>
      <trkpt lat="48.12847" lon="-3.29459">
        <ele>216.3</ele>
        <time>2024-11-20T09:16:10Z</time>
      </trkpt>
      <trkpt lat="48.12847" lon="-3.29458">
        <ele>216.2</ele>
        <time>2024-11-20T09:16:11Z</time>
      </trkpt>
      <trkpt lat="48.12848" lon="-3.29457">
        <ele>216.1</ele>
        <time>2024-11-20T09:16:12Z</time>
      </trkpt>
      <trkpt lat="48.12848" lon="-3.29456">
        <ele>216</ele>
        <time>2024-11-20T09:16:13Z</time>
      </trkpt>
      <trkpt lat="48.12848" lon="-3.29454">
        <ele>215.8</ele>
        <time>2024-11-20T09:16:14Z</time>
      </trkpt>
      <trkpt lat="48.12848" lon="-3.29452">
        <ele>215.7</ele>
        <time>2024-11-20T09:16:15Z</time>
      </trkpt>
      <trkpt lat="48.12849" lon="-3.2945">
        <ele>215.5</ele>
        <time>2024-11-20T09:16:16Z</time>
      </trkpt>
      <trkpt lat="48.12849" lon="-3.29448">
        <ele>215.3</ele>
        <time>2024-11-20T09:16:17Z</time>
      </trkpt>
      <trkpt lat="48.1285" lon="-3.29445">
        <ele>215</ele>
        <time>2024-11-20T09:16:18Z</time>
      </trkpt>
      <trkpt lat="48.12851" lon="-3.29443">
        <ele>214.8</ele>
        <time>2024-11-20T09:16:19Z</time>
      </trkpt>
      <trkpt lat="48.12852" lon="-3.29442">
        <ele>214.7</ele>
        <time>2024-11-20T09:16:20Z</time>
      </trkpt>
      <trkpt lat="48.12852" lon="-3.2944">
        <ele>214.5</ele>
        <time>2024-11-20T09:16:21Z</time>
      </trkpt>
      <trkpt lat="48.12853" lon="-3.29439">
        <ele>214.4</ele>
        <time>2024-11-20T09:16:22Z</time>
      </trkpt>
      <trkpt lat="48.12853" lon="-3.29438">
        <ele>214.3</ele>
        <time>2024-11-20T09:16:23Z</time>
      </trkpt>
      <trkpt lat="48.12854" lon="-3.29436">
        <ele>214.1</ele>
        <time>2024-11-20T09:16:24Z</time>
      </trkpt>
      <trkpt lat="48.12855" lon="-3.29435">
        <ele>214</ele>
        <time>2024-11-20T09:16:25Z</time>
      </trkpt>
      <trkpt lat="48.12855" lon="-3.29434">
        <ele>213.9</ele>
        <time>2024-11-20T09:16:26Z</time>
      </trkpt>
      <trkpt lat="48.12856" lon="-3.29433">
        <ele>213.7</ele>
        <time>2024-11-20T09:16:27Z</time>
      </trkpt>
      <trkpt lat="48.12858" lon="-3.29432">
        <ele>213.5</ele>
        <time>2024-11-20T09:16:28Z</time>
      </trkpt>
      <trkpt lat="48.12859" lon="-3.29432">
        <ele>213.4</ele>
        <time>2024-11-20T09:16:29Z</time>
      </trkpt>
      <trkpt lat="48.12859" lon="-3.29431">
        <ele>213.3</ele>
        <time>2024-11-20T09:16:30Z</time>
      </trkpt>
      <trkpt lat="48.1286" lon="-3.2943">
        <ele>213.2</ele>
        <time>2024-11-20T09:16:31Z</time>
      </trkpt>
      <trkpt lat="48.12861" lon="-3.29429">
        <ele>213</ele>
        <time>2024-11-20T09:16:32Z</time>
      </trkpt>
      <trkpt lat="48.12862" lon="-3.29428">
        <ele>212.9</ele>
        <time>2024-11-20T09:16:33Z</time>
      </trkpt>
      <trkpt lat="48.12863" lon="-3.29427">
        <ele>212.8</ele>
        <time>2024-11-20T09:16:34Z</time>
      </trkpt>
      <trkpt lat="48.12865" lon="-3.29426">
        <ele>212.7</ele>
        <time>2024-11-20T09:16:35Z</time>
      </trkpt>
      <trkpt lat="48.12866" lon="-3.29425">
        <ele>212.6</ele>
        <time>2024-11-20T09:16:36Z</time>
      </trkpt>
      <trkpt lat="48.12867" lon="-3.29425">
        <ele>212.6</ele>
        <time>2024-11-20T09:16:37Z</time>
      </trkpt>
      <trkpt lat="48.12869" lon="-3.29424">
        <ele>212.5</ele>
        <time>2024-11-20T09:16:38Z</time>
      </trkpt>
      <trkpt lat="48.1287" lon="-3.29423">
        <ele>212.3</ele>
        <time>2024-11-20T09:16:39Z</time>
      </trkpt>
      <trkpt lat="48.12872" lon="-3.29422">
        <ele>212.2</ele>
        <time>2024-11-20T09:16:40Z</time>
      </trkpt>
      <trkpt lat="48.12872" lon="-3.29421">
        <ele>212.2</ele>
        <time>2024-11-20T09:16:41Z</time>
      </trkpt>
      <trkpt lat="48.12873" lon="-3.2942">
        <ele>212.2</ele>
        <time>2024-11-20T09:16:42Z</time>
      </trkpt>
      <trkpt lat="48.12873" lon="-3.29419">
        <ele>212.1</ele>
        <time>2024-11-20T09:16:43Z</time>
      </trkpt>
      <trkpt lat="48.12874" lon="-3.29418">
        <ele>212.1</ele>
        <time>2024-11-20T09:16:44Z</time>
      </trkpt>
      <trkpt lat="48.12875" lon="-3.29418">
        <ele>212</ele>
        <time>2024-11-20T09:16:45Z</time>
      </trkpt>
      <trkpt lat="48.12876" lon="-3.29417">
        <ele>211.9</ele>
        <time>2024-11-20T09:16:46Z</time>
      </trkpt>
      <trkpt lat="48.12877" lon="-3.29417">
        <ele>211.9</ele>
        <time>2024-11-20T09:16:47Z</time>
      </trkpt>
      <trkpt lat="48.12878" lon="-3.29416">
        <ele>211.8</ele>
        <time>2024-11-20T09:16:48Z</time>
      </trkpt>
      <trkpt lat="48.12878" lon="-3.29415">
        <ele>211.7</ele>
        <time>2024-11-20T09:16:49Z</time>
      </trkpt>
      <trkpt lat="48.12879" lon="-3.29414">
        <ele>211.7</ele>
        <time>2024-11-20T09:16:50Z</time>
      </trkpt>
      <trkpt lat="48.1288" lon="-3.29413">
        <ele>211.6</ele>
        <time>2024-11-20T09:16:51Z</time>
      </trkpt>
      <trkpt lat="48.12881" lon="-3.29412">
        <ele>211.5</ele>
        <time>2024-11-20T09:16:52Z</time>
      </trkpt>
      <trkpt lat="48.12882" lon="-3.29411">
        <ele>211.4</ele>
        <time>2024-11-20T09:16:53Z</time>
      </trkpt>
      <trkpt lat="48.12882" lon="-3.29411">
        <ele>211.3</ele>
        <time>2024-11-20T09:16:54Z</time>
      </trkpt>
      <trkpt lat="48.12883" lon="-3.29411">
        <ele>211.3</ele>
        <time>2024-11-20T09:16:55Z</time>
      </trkpt>
      <trkpt lat="48.12883" lon="-3.29411">
        <ele>211.3</ele>
        <time>2024-11-20T09:16:56Z</time>
      </trkpt>
      <trkpt lat="48.12883" lon="-3.2941">
        <ele>211.2</ele>
        <time>2024-11-20T09:16:57Z</time>
      </trkpt>
      <trkpt lat="48.12884" lon="-3.29409">
        <ele>211.1</ele>
        <time>2024-11-20T09:16:58Z</time>
      </trkpt>
      <trkpt lat="48.12884" lon="-3.29408">
        <ele>211.1</ele>
        <time>2024-11-20T09:16:59Z</time>
      </trkpt>
      <trkpt lat="48.12884" lon="-3.29407">
        <ele>211</ele>
        <time>2024-11-20T09:17:00Z</time>
      </trkpt>
      <trkpt lat="48.12885" lon="-3.29406">
        <ele>211</ele>
        <time>2024-11-20T09:17:01Z</time>
      </trkpt>
      <trkpt lat="48.12886" lon="-3.29405">
        <ele>210.9</ele>
        <time>2024-11-20T09:17:02Z</time>
      </trkpt>
      <trkpt lat="48.12887" lon="-3.29404">
        <ele>210.8</ele>
        <time>2024-11-20T09:17:03Z</time>
      </trkpt>
      <trkpt lat="48.12888" lon="-3.29403">
        <ele>210.6</ele>
        <time>2024-11-20T09:17:04Z</time>
      </trkpt>
      <trkpt lat="48.12889" lon="-3.29402">
        <ele>210.5</ele>
        <time>2024-11-20T09:17:05Z</time>
      </trkpt>
      <trkpt lat="48.1289" lon="-3.294">
        <ele>210.3</ele>
        <time>2024-11-20T09:17:06Z</time>
      </trkpt>
      <trkpt lat="48.12892" lon="-3.29399">
        <ele>210.2</ele>
        <time>2024-11-20T09:17:07Z</time>
      </trkpt>
      <trkpt lat="48.12893" lon="-3.29398">
        <ele>210.1</ele>
        <time>2024-11-20T09:17:08Z</time>
      </trkpt>
      <trkpt lat="48.12894" lon="-3.29397">
        <ele>210.1</ele>
        <time>2024-11-20T09:17:09Z</time>
      </trkpt>
      <trkpt lat="48.12894" lon="-3.29397">
        <ele>210</ele>
        <time>2024-11-20T09:17:10Z</time>
      </trkpt>
      <trkpt lat="48.12895" lon="-3.29397">
        <ele>210</ele>
        <time>2024-11-20T09:17:11Z</time>
      </trkpt>
      <trkpt lat="48.12896" lon="-3.29396">
        <ele>210</ele>
        <time>2024-11-20T09:17:12Z</time>
      </trkpt>
      <trkpt lat="48.12896" lon="-3.29396">
        <ele>209.9</ele>
        <time>2024-11-20T09:17:13Z</time>
      </trkpt>
      <trkpt lat="48.12896" lon="-3.29396">
        <ele>209.9</ele>
        <time>2024-11-20T09:17:14Z</time>
      </trkpt>
      <trkpt lat="48.12896" lon="-3.29395">
        <ele>209.9</ele>
        <time>2024-11-20T09:17:15Z</time>
      </trkpt>
      <trkpt lat="48.12897" lon="-3.29394">
        <ele>209.9</ele>
        <time>2024-11-20T09:17:16Z</time>
      </trkpt>
      <trkpt lat="48.12897" lon="-3.29393">
        <ele>209.8</ele>
        <time>2024-11-20T09:17:17Z</time>
      </trkpt>
      <trkpt lat="48.12897" lon="-3.29393">
        <ele>209.8</ele>
        <time>2024-11-20T09:17:18Z</time>
      </trkpt>
      <trkpt lat="48.12897" lon="-3.29391">
        <ele>209.8</ele>
        <time>2024-11-20T09:17:19Z</time>
      </trkpt>
      <trkpt lat="48.12897" lon="-3.2939">
        <ele>209.7</ele>
        <time>2024-11-20T09:17:20Z</time>
      </trkpt>
      <trkpt lat="48.12897" lon="-3.29389">
        <ele>209.7</ele>
        <time>2024-11-20T09:17:21Z</time>
      </trkpt>
      <trkpt lat="48.12897" lon="-3.29389">
        <ele>209.7</ele>
        <time>2024-11-20T09:17:22Z</time>
      </trkpt>
      <trkpt lat="48.12897" lon="-3.29388">
        <ele>209.7</ele>
        <time>2024-11-20T09:17:23Z</time>
      </trkpt>
      <trkpt lat="48.12897" lon="-3.29387">
        <ele>209.7</ele>
        <time>2024-11-20T09:17:24Z</time>
      </trkpt>
      <trkpt lat="48.12897" lon="-3.29386">
        <ele>209.7</ele>
        <time>2024-11-20T09:17:25Z</time>
      </trkpt>
      <trkpt lat="48.12898" lon="-3.29384">
        <ele>209.7</ele>
        <time>2024-11-20T09:17:26Z</time>
      </trkpt>
      <trkpt lat="48.12898" lon="-3.29382">
        <ele>209.7</ele>
        <time>2024-11-20T09:17:27Z</time>
      </trkpt>
      <trkpt lat="48.12899" lon="-3.29382">
        <ele>209.7</ele>
        <time>2024-11-20T09:17:28Z</time>
      </trkpt>
      <trkpt lat="48.12899" lon="-3.29381">
        <ele>209.7</ele>
        <time>2024-11-20T09:17:29Z</time>
      </trkpt>
      <trkpt lat="48.129" lon="-3.2938">
        <ele>209.7</ele>
        <time>2024-11-20T09:17:30Z</time>
      </trkpt>
      <trkpt lat="48.12901" lon="-3.29378">
        <ele>209.7</ele>
        <time>2024-11-20T09:17:31Z</time>
      </trkpt>
      <trkpt lat="48.12901" lon="-3.29377">
        <ele>209.8</ele>
        <time>2024-11-20T09:17:32Z</time>
      </trkpt>
      <trkpt lat="48.12901" lon="-3.29376">
        <ele>209.8</ele>
        <time>2024-11-20T09:17:33Z</time>
      </trkpt>
      <trkpt lat="48.12902" lon="-3.29374">
        <ele>209.8</ele>
        <time>2024-11-20T09:17:34Z</time>
      </trkpt>
      <trkpt lat="48.12902" lon="-3.29372">
        <ele>209.8</ele>
        <time>2024-11-20T09:17:35Z</time>
      </trkpt>
      <trkpt lat="48.12903" lon="-3.29371">
        <ele>209.8</ele>
        <time>2024-11-20T09:17:36Z</time>
      </trkpt>
      <trkpt lat="48.12904" lon="-3.29369">
        <ele>209.9</ele>
        <time>2024-11-20T09:17:37Z</time>
      </trkpt>
      <trkpt lat="48.12905" lon="-3.29367">
        <ele>209.9</ele>
        <time>2024-11-20T09:17:38Z</time>
      </trkpt>
      <trkpt lat="48.12905" lon="-3.29365">
        <ele>209.9</ele>
        <time>2024-11-20T09:17:39Z</time>
      </trkpt>
      <trkpt lat="48.12906" lon="-3.29364">
        <ele>209.9</ele>
        <time>2024-11-20T09:17:40Z</time>
      </trkpt>
      <trkpt lat="48.12906" lon="-3.29364">
        <ele>209.9</ele>
        <time>2024-11-20T09:17:41Z</time>
      </trkpt>
      <trkpt lat="48.12907" lon="-3.29363">
        <ele>210</ele>
        <time>2024-11-20T09:17:42Z</time>
      </trkpt>
      <trkpt lat="48.12908" lon="-3.29362">
        <ele>210</ele>
        <time>2024-11-20T09:17:43Z</time>
      </trkpt>
      <trkpt lat="48.12909" lon="-3.29361">
        <ele>210</ele>
        <time>2024-11-20T09:17:44Z</time>
      </trkpt>
      <trkpt lat="48.1291" lon="-3.2936">
        <ele>210</ele>
        <time>2024-11-20T09:17:45Z</time>
      </trkpt>
      <trkpt lat="48.12912" lon="-3.29359">
        <ele>210</ele>
        <time>2024-11-20T09:17:46Z</time>
      </trkpt>
      <trkpt lat="48.12912" lon="-3.29359">
        <ele>210</ele>
        <time>2024-11-20T09:17:47Z</time>
      </trkpt>
      <trkpt lat="48.12913" lon="-3.29358">
        <ele>210</ele>
        <time>2024-11-20T09:17:48Z</time>
      </trkpt>
      <trkpt lat="48.12913" lon="-3.29357">
        <ele>210</ele>
        <time>2024-11-20T09:17:49Z</time>
      </trkpt>
      <trkpt lat="48.12914" lon="-3.29354">
        <ele>210</ele>
        <time>2024-11-20T09:17:50Z</time>
      </trkpt>
      <trkpt lat="48.12915" lon="-3.29353">
        <ele>210</ele>
        <time>2024-11-20T09:17:51Z</time>
      </trkpt>
      <trkpt lat="48.12915" lon="-3.29352">
        <ele>210</ele>
        <time>2024-11-20T09:17:52Z</time>
      </trkpt>
      <trkpt lat="48.12915" lon="-3.29351">
        <ele>210</ele>
        <time>2024-11-20T09:17:53Z</time>
      </trkpt>
      <trkpt lat="48.12915" lon="-3.2935">
        <ele>210</ele>
        <time>2024-11-20T09:17:54Z</time>
      </trkpt>
      <trkpt lat="48.12915" lon="-3.29349">
        <ele>210</ele>
        <time>2024-11-20T09:17:55Z</time>
      </trkpt>
      <trkpt lat="48.12915" lon="-3.29348">
        <ele>210</ele>
        <time>2024-11-20T09:17:56Z</time>
      </trkpt>
      <trkpt lat="48.12915" lon="-3.29346">
        <ele>210</ele>
        <time>2024-11-20T09:17:57Z</time>
      </trkpt>
      <trkpt lat="48.12915" lon="-3.29346">
        <ele>210</ele>
        <time>2024-11-20T09:17:58Z</time>
      </trkpt>
      <trkpt lat="48.12915" lon="-3.29345">
        <ele>210</ele>
        <time>2024-11-20T09:17:59Z</time>
      </trkpt>
      <trkpt lat="48.12914" lon="-3.29344">
        <ele>210</ele>
        <time>2024-11-20T09:18:00Z</time>
      </trkpt>
      <trkpt lat="48.12914" lon="-3.29343">
        <ele>210</ele>
        <time>2024-11-20T09:18:01Z</time>
      </trkpt>
      <trkpt lat="48.12913" lon="-3.29343">
        <ele>210</ele>
        <time>2024-11-20T09:18:02Z</time>
      </trkpt>
      <trkpt lat="48.12912" lon="-3.29342">
        <ele>210</ele>
        <time>2024-11-20T09:18:03Z</time>
      </trkpt>
      <trkpt lat="48.12911" lon="-3.2934">
        <ele>210</ele>
        <time>2024-11-20T09:18:04Z</time>
      </trkpt>
      <trkpt lat="48.1291" lon="-3.29339">
        <ele>210</ele>
        <time>2024-11-20T09:18:05Z</time>
      </trkpt>
      <trkpt lat="48.1291" lon="-3.29338">
        <ele>210</ele>
        <time>2024-11-20T09:18:06Z</time>
      </trkpt>
      <trkpt lat="48.1291" lon="-3.29337">
        <ele>210</ele>
        <time>2024-11-20T09:18:07Z</time>
      </trkpt>
      <trkpt lat="48.12909" lon="-3.29335">
        <ele>210</ele>
        <time>2024-11-20T09:18:08Z</time>
      </trkpt>
      <trkpt lat="48.12908" lon="-3.29333">
        <ele>210</ele>
        <time>2024-11-20T09:18:09Z</time>
      </trkpt>
      <trkpt lat="48.12908" lon="-3.29332">
        <ele>210.1</ele>
        <time>2024-11-20T09:18:10Z</time>
      </trkpt>
      <trkpt lat="48.12907" lon="-3.29331">
        <ele>210.1</ele>
        <time>2024-11-20T09:18:11Z</time>
      </trkpt>
      <trkpt lat="48.12906" lon="-3.2933">
        <ele>210.1</ele>
        <time>2024-11-20T09:18:12Z</time>
      </trkpt>
      <trkpt lat="48.12906" lon="-3.2933">
        <ele>210.2</ele>
        <time>2024-11-20T09:18:13Z</time>
      </trkpt>
      <trkpt lat="48.12906" lon="-3.29328">
        <ele>210.2</ele>
        <time>2024-11-20T09:18:14Z</time>
      </trkpt>
      <trkpt lat="48.12905" lon="-3.29326">
        <ele>210.3</ele>
        <time>2024-11-20T09:18:15Z</time>
      </trkpt>
      <trkpt lat="48.12905" lon="-3.29325">
        <ele>210.3</ele>
        <time>2024-11-20T09:18:16Z</time>
      </trkpt>
      <trkpt lat="48.12904" lon="-3.29324">
        <ele>210.4</ele>
        <time>2024-11-20T09:18:17Z</time>
      </trkpt>
      <trkpt lat="48.12903" lon="-3.29323">
        <ele>210.4</ele>
        <time>2024-11-20T09:18:18Z</time>
      </trkpt>
      <trkpt lat="48.12902" lon="-3.29322">
        <ele>210.4</ele>
        <time>2024-11-20T09:18:19Z</time>
      </trkpt>
      <trkpt lat="48.12902" lon="-3.29321">
        <ele>210.4</ele>
        <time>2024-11-20T09:18:20Z</time>
      </trkpt>
      <trkpt lat="48.12901" lon="-3.2932">
        <ele>210.4</ele>
        <time>2024-11-20T09:18:21Z</time>
      </trkpt>
      <trkpt lat="48.129" lon="-3.29319">
        <ele>210.4</ele>
        <time>2024-11-20T09:18:22Z</time>
      </trkpt>
      <trkpt lat="48.129" lon="-3.29319">
        <ele>210.4</ele>
        <time>2024-11-20T09:18:23Z</time>
      </trkpt>
      <trkpt lat="48.12899" lon="-3.29318">
        <ele>210.4</ele>
        <time>2024-11-20T09:18:24Z</time>
      </trkpt>
      <trkpt lat="48.12899" lon="-3.29318">
        <ele>210.4</ele>
        <time>2024-11-20T09:18:25Z</time>
      </trkpt>
      <trkpt lat="48.12898" lon="-3.29318">
        <ele>210.4</ele>
        <time>2024-11-20T09:18:26Z</time>
      </trkpt>
      <trkpt lat="48.12898" lon="-3.29318">
        <ele>210.4</ele>
        <time>2024-11-20T09:18:27Z</time>
      </trkpt>
      <trkpt lat="48.12898" lon="-3.29318">
        <ele>210.4</ele>
        <time>2024-11-20T09:18:28Z</time>
      </trkpt>
      <trkpt lat="48.12898" lon="-3.29317">
        <ele>210.4</ele>
        <time>2024-11-20T09:18:29Z</time>
      </trkpt>
      <trkpt lat="48.12898" lon="-3.29317">
        <ele>210.4</ele>
        <time>2024-11-20T09:18:30Z</time>
      </trkpt>
      <trkpt lat="48.12898" lon="-3.29317">
        <ele>210.4</ele>
        <time>2024-11-20T09:18:31Z</time>
      </trkpt>
      <trkpt lat="48.12898" lon="-3.29316">
        <ele>210.4</ele>
        <time>2024-11-20T09:18:32Z</time>
      </trkpt>
      <trkpt lat="48.12899" lon="-3.29315">
        <ele>210.5</ele>
        <time>2024-11-20T09:18:33Z</time>
      </trkpt>
      <trkpt lat="48.12899" lon="-3.29314">
        <ele>210.5</ele>
        <time>2024-11-20T09:18:34Z</time>
      </trkpt>
      <trkpt lat="48.12898" lon="-3.29313">
        <ele>210.5</ele>
        <time>2024-11-20T09:18:35Z</time>
      </trkpt>
      <trkpt lat="48.12898" lon="-3.29312">
        <ele>210.5</ele>
        <time>2024-11-20T09:18:36Z</time>
      </trkpt>
      <trkpt lat="48.12897" lon="-3.29311">
        <ele>210.5</ele>
        <time>2024-11-20T09:18:37Z</time>
      </trkpt>
      <trkpt lat="48.12897" lon="-3.2931">
        <ele>210.5</ele>
        <time>2024-11-20T09:18:38Z</time>
      </trkpt>
      <trkpt lat="48.12897" lon="-3.2931">
        <ele>210.5</ele>
        <time>2024-11-20T09:18:39Z</time>
      </trkpt>
      <trkpt lat="48.12896" lon="-3.29309">
        <ele>210.5</ele>
        <time>2024-11-20T09:18:40Z</time>
      </trkpt>
      <trkpt lat="48.12896" lon="-3.29309">
        <ele>210.4</ele>
        <time>2024-11-20T09:18:41Z</time>
      </trkpt>
      <trkpt lat="48.12896" lon="-3.29309">
        <ele>210.4</ele>
        <time>2024-11-20T09:18:42Z</time>
      </trkpt>
      <trkpt lat="48.12895" lon="-3.29308">
        <ele>210.4</ele>
        <time>2024-11-20T09:18:43Z</time>
      </trkpt>
      <trkpt lat="48.12895" lon="-3.29308">
        <ele>210.4</ele>
        <time>2024-11-20T09:18:44Z</time>
      </trkpt>
      <trkpt lat="48.12895" lon="-3.29308">
        <ele>210.4</ele>
        <time>2024-11-20T09:18:45Z</time>
      </trkpt>
      <trkpt lat="48.12894" lon="-3.29307">
        <ele>210.4</ele>
        <time>2024-11-20T09:18:46Z</time>
      </trkpt>
      <trkpt lat="48.12894" lon="-3.29306">
        <ele>210.3</ele>
        <time>2024-11-20T09:18:47Z</time>
      </trkpt>
      <trkpt lat="48.12893" lon="-3.29305">
        <ele>210.3</ele>
        <time>2024-11-20T09:18:48Z</time>
      </trkpt>
      <trkpt lat="48.12892" lon="-3.29304">
        <ele>210.3</ele>
        <time>2024-11-20T09:18:49Z</time>
      </trkpt>
      <trkpt lat="48.12892" lon="-3.29303">
        <ele>210.3</ele>
        <time>2024-11-20T09:18:50Z</time>
      </trkpt>
      <trkpt lat="48.12891" lon="-3.29302">
        <ele>210.3</ele>
        <time>2024-11-20T09:18:51Z</time>
      </trkpt>
      <trkpt lat="48.12891" lon="-3.293">
        <ele>210.3</ele>
        <time>2024-11-20T09:18:52Z</time>
      </trkpt>
      <trkpt lat="48.1289" lon="-3.29299">
        <ele>210.3</ele>
        <time>2024-11-20T09:18:53Z</time>
      </trkpt>
      <trkpt lat="48.12889" lon="-3.29297">
        <ele>210.3</ele>
        <time>2024-11-20T09:18:54Z</time>
      </trkpt>
      <trkpt lat="48.12889" lon="-3.29296">
        <ele>210.3</ele>
        <time>2024-11-20T09:18:55Z</time>
      </trkpt>
      <trkpt lat="48.12888" lon="-3.29295">
        <ele>210.4</ele>
        <time>2024-11-20T09:18:56Z</time>
      </trkpt>
      <trkpt lat="48.12888" lon="-3.29294">
        <ele>210.5</ele>
        <time>2024-11-20T09:18:57Z</time>
      </trkpt>
      <trkpt lat="48.12887" lon="-3.29293">
        <ele>210.6</ele>
        <time>2024-11-20T09:18:58Z</time>
      </trkpt>
      <trkpt lat="48.12887" lon="-3.29293">
        <ele>210.6</ele>
        <time>2024-11-20T09:18:59Z</time>
      </trkpt>
      <trkpt lat="48.12887" lon="-3.29292">
        <ele>210.6</ele>
        <time>2024-11-20T09:19:00Z</time>
      </trkpt>
      <trkpt lat="48.12887" lon="-3.29292">
        <ele>210.6</ele>
        <time>2024-11-20T09:19:01Z</time>
      </trkpt>
      <trkpt lat="48.12887" lon="-3.29291">
        <ele>210.7</ele>
        <time>2024-11-20T09:19:02Z</time>
      </trkpt>
      <trkpt lat="48.12887" lon="-3.29291">
        <ele>210.7</ele>
        <time>2024-11-20T09:19:03Z</time>
      </trkpt>
      <trkpt lat="48.12887" lon="-3.2929">
        <ele>210.7</ele>
        <time>2024-11-20T09:19:04Z</time>
      </trkpt>
      <trkpt lat="48.12887" lon="-3.2929">
        <ele>210.7</ele>
        <time>2024-11-20T09:19:05Z</time>
      </trkpt>
      <trkpt lat="48.12886" lon="-3.29289">
        <ele>210.8</ele>
        <time>2024-11-20T09:19:06Z</time>
      </trkpt>
      <trkpt lat="48.12886" lon="-3.29289">
        <ele>210.8</ele>
        <time>2024-11-20T09:19:07Z</time>
      </trkpt>
      <trkpt lat="48.12886" lon="-3.29288">
        <ele>210.9</ele>
        <time>2024-11-20T09:19:08Z</time>
      </trkpt>
      <trkpt lat="48.12886" lon="-3.29288">
        <ele>210.9</ele>
        <time>2024-11-20T09:19:09Z</time>
      </trkpt>
      <trkpt lat="48.12885" lon="-3.29287">
        <ele>210.9</ele>
        <time>2024-11-20T09:19:10Z</time>
      </trkpt>
      <trkpt lat="48.12885" lon="-3.29286">
        <ele>211</ele>
        <time>2024-11-20T09:19:11Z</time>
      </trkpt>
      <trkpt lat="48.12885" lon="-3.29286">
        <ele>211</ele>
        <time>2024-11-20T09:19:12Z</time>
      </trkpt>
      <trkpt lat="48.12885" lon="-3.29286">
        <ele>211</ele>
        <time>2024-11-20T09:19:13Z</time>
      </trkpt>
      <trkpt lat="48.12885" lon="-3.29285">
        <ele>211</ele>
        <time>2024-11-20T09:19:14Z</time>
      </trkpt>
      <trkpt lat="48.12884" lon="-3.29285">
        <ele>211.1</ele>
        <time>2024-11-20T09:19:15Z</time>
      </trkpt>
      <trkpt lat="48.12883" lon="-3.29284">
        <ele>211.2</ele>
        <time>2024-11-20T09:19:16Z</time>
      </trkpt>
      <trkpt lat="48.12881" lon="-3.29283">
        <ele>211.4</ele>
        <time>2024-11-20T09:19:17Z</time>
      </trkpt>
      <trkpt lat="48.12879" lon="-3.29282">
        <ele>211.5</ele>
        <time>2024-11-20T09:19:18Z</time>
      </trkpt>
      <trkpt lat="48.12878" lon="-3.29281">
        <ele>211.6</ele>
        <time>2024-11-20T09:19:19Z</time>
      </trkpt>
      <trkpt lat="48.12877" lon="-3.2928">
        <ele>211.8</ele>
        <time>2024-11-20T09:19:20Z</time>
      </trkpt>
      <trkpt lat="48.12876" lon="-3.29278">
        <ele>211.9</ele>
        <time>2024-11-20T09:19:21Z</time>
      </trkpt>
      <trkpt lat="48.12875" lon="-3.29277">
        <ele>212</ele>
        <time>2024-11-20T09:19:22Z</time>
      </trkpt>
      <trkpt lat="48.12875" lon="-3.29276">
        <ele>212.1</ele>
        <time>2024-11-20T09:19:23Z</time>
      </trkpt>
      <trkpt lat="48.12874" lon="-3.29276">
        <ele>212.1</ele>
        <time>2024-11-20T09:19:24Z</time>
      </trkpt>
      <trkpt lat="48.12874" lon="-3.29276">
        <ele>212.2</ele>
        <time>2024-11-20T09:19:25Z</time>
      </trkpt>
      <trkpt lat="48.12873" lon="-3.29275">
        <ele>212.3</ele>
        <time>2024-11-20T09:19:26Z</time>
      </trkpt>
      <trkpt lat="48.12872" lon="-3.29274">
        <ele>212.4</ele>
        <time>2024-11-20T09:19:27Z</time>
      </trkpt>
      <trkpt lat="48.1287" lon="-3.29274">
        <ele>212.5</ele>
        <time>2024-11-20T09:19:28Z</time>
      </trkpt>
      <trkpt lat="48.12869" lon="-3.29274">
        <ele>212.5</ele>
        <time>2024-11-20T09:19:29Z</time>
      </trkpt>
      <trkpt lat="48.12868" lon="-3.29274">
        <ele>212.7</ele>
        <time>2024-11-20T09:19:30Z</time>
      </trkpt>
      <trkpt lat="48.12867" lon="-3.29274">
        <ele>212.7</ele>
        <time>2024-11-20T09:19:31Z</time>
      </trkpt>
      <trkpt lat="48.12866" lon="-3.29273">
        <ele>212.8</ele>
        <time>2024-11-20T09:19:32Z</time>
      </trkpt>
      <trkpt lat="48.12865" lon="-3.29272">
        <ele>213</ele>
        <time>2024-11-20T09:19:33Z</time>
      </trkpt>
      <trkpt lat="48.12864" lon="-3.29271">
        <ele>213.1</ele>
        <time>2024-11-20T09:19:34Z</time>
      </trkpt>
      <trkpt lat="48.12862" lon="-3.2927">
        <ele>213.2</ele>
        <time>2024-11-20T09:19:35Z</time>
      </trkpt>
      <trkpt lat="48.12861" lon="-3.29269">
        <ele>213.4</ele>
        <time>2024-11-20T09:19:36Z</time>
      </trkpt>
      <trkpt lat="48.12859" lon="-3.29268">
        <ele>213.5</ele>
        <time>2024-11-20T09:19:37Z</time>
      </trkpt>
      <trkpt lat="48.12858" lon="-3.29266">
        <ele>213.6</ele>
        <time>2024-11-20T09:19:38Z</time>
      </trkpt>
      <trkpt lat="48.12857" lon="-3.29266">
        <ele>213.7</ele>
        <time>2024-11-20T09:19:39Z</time>
      </trkpt>
      <trkpt lat="48.12856" lon="-3.29265">
        <ele>213.8</ele>
        <time>2024-11-20T09:19:40Z</time>
      </trkpt>
      <trkpt lat="48.12855" lon="-3.29264">
        <ele>213.9</ele>
        <time>2024-11-20T09:19:41Z</time>
      </trkpt>
      <trkpt lat="48.12854" lon="-3.29264">
        <ele>214</ele>
        <time>2024-11-20T09:19:42Z</time>
      </trkpt>
      <trkpt lat="48.12853" lon="-3.29263">
        <ele>214.1</ele>
        <time>2024-11-20T09:19:43Z</time>
      </trkpt>
      <trkpt lat="48.12851" lon="-3.29261">
        <ele>214.3</ele>
        <time>2024-11-20T09:19:44Z</time>
      </trkpt>
      <trkpt lat="48.1285" lon="-3.2926">
        <ele>214.4</ele>
        <time>2024-11-20T09:19:45Z</time>
      </trkpt>
      <trkpt lat="48.12849" lon="-3.29259">
        <ele>214.5</ele>
        <time>2024-11-20T09:19:46Z</time>
      </trkpt>
      <trkpt lat="48.12848" lon="-3.29259">
        <ele>214.6</ele>
        <time>2024-11-20T09:19:47Z</time>
      </trkpt>
      <trkpt lat="48.12847" lon="-3.29258">
        <ele>214.7</ele>
        <time>2024-11-20T09:19:48Z</time>
      </trkpt>
      <trkpt lat="48.12846" lon="-3.29258">
        <ele>214.8</ele>
        <time>2024-11-20T09:19:49Z</time>
      </trkpt>
      <trkpt lat="48.12845" lon="-3.29257">
        <ele>214.9</ele>
        <time>2024-11-20T09:19:50Z</time>
      </trkpt>
      <trkpt lat="48.12844" lon="-3.29257">
        <ele>215</ele>
        <time>2024-11-20T09:19:51Z</time>
      </trkpt>
      <trkpt lat="48.12843" lon="-3.29256">
        <ele>215.1</ele>
        <time>2024-11-20T09:19:52Z</time>
      </trkpt>
      <trkpt lat="48.12842" lon="-3.29256">
        <ele>215.2</ele>
        <time>2024-11-20T09:19:53Z</time>
      </trkpt>
      <trkpt lat="48.1284" lon="-3.29256">
        <ele>215.3</ele>
        <time>2024-11-20T09:19:54Z</time>
      </trkpt>
      <trkpt lat="48.12838" lon="-3.29255">
        <ele>215.5</ele>
        <time>2024-11-20T09:19:55Z</time>
      </trkpt>
      <trkpt lat="48.12837" lon="-3.29254">
        <ele>215.6</ele>
        <time>2024-11-20T09:19:56Z</time>
      </trkpt>
      <trkpt lat="48.12836" lon="-3.29252">
        <ele>215.7</ele>
        <time>2024-11-20T09:19:57Z</time>
      </trkpt>
      <trkpt lat="48.12835" lon="-3.29251">
        <ele>215.9</ele>
        <time>2024-11-20T09:19:58Z</time>
      </trkpt>
      <trkpt lat="48.12834" lon="-3.2925">
        <ele>216</ele>
        <time>2024-11-20T09:19:59Z</time>
      </trkpt>
      <trkpt lat="48.12833" lon="-3.29249">
        <ele>216</ele>
        <time>2024-11-20T09:20:00Z</time>
      </trkpt>
      <trkpt lat="48.12833" lon="-3.29248">
        <ele>216.1</ele>
        <time>2024-11-20T09:20:01Z</time>
      </trkpt>
      <trkpt lat="48.12832" lon="-3.29248">
        <ele>216.2</ele>
        <time>2024-11-20T09:20:02Z</time>
      </trkpt>
      <trkpt lat="48.1283" lon="-3.29247">
        <ele>216.3</ele>
        <time>2024-11-20T09:20:03Z</time>
      </trkpt>
      <trkpt lat="48.12829" lon="-3.29247">
        <ele>216.4</ele>
        <time>2024-11-20T09:20:04Z</time>
      </trkpt>
      <trkpt lat="48.12828" lon="-3.29247">
        <ele>216.5</ele>
        <time>2024-11-20T09:20:05Z</time>
      </trkpt>
      <trkpt lat="48.12827" lon="-3.29247">
        <ele>216.6</ele>
        <time>2024-11-20T09:20:06Z</time>
      </trkpt>
      <trkpt lat="48.12826" lon="-3.29246">
        <ele>216.7</ele>
        <time>2024-11-20T09:20:07Z</time>
      </trkpt>
      <trkpt lat="48.12825" lon="-3.29246">
        <ele>216.8</ele>
        <time>2024-11-20T09:20:08Z</time>
      </trkpt>
      <trkpt lat="48.12824" lon="-3.29246">
        <ele>216.8</ele>
        <time>2024-11-20T09:20:09Z</time>
      </trkpt>
      <trkpt lat="48.12823" lon="-3.29246">
        <ele>216.9</ele>
        <time>2024-11-20T09:20:10Z</time>
      </trkpt>
      <trkpt lat="48.12823" lon="-3.29246">
        <ele>216.9</ele>
        <time>2024-11-20T09:20:11Z</time>
      </trkpt>
      <trkpt lat="48.12822" lon="-3.29246">
        <ele>217</ele>
        <time>2024-11-20T09:20:12Z</time>
      </trkpt>
      <trkpt lat="48.12821" lon="-3.29246">
        <ele>217</ele>
        <time>2024-11-20T09:20:13Z</time>
      </trkpt>
      <trkpt lat="48.12821" lon="-3.29246">
        <ele>217.1</ele>
        <time>2024-11-20T09:20:14Z</time>
      </trkpt>
      <trkpt lat="48.1282" lon="-3.29246">
        <ele>217.1</ele>
        <time>2024-11-20T09:20:15Z</time>
      </trkpt>
      <trkpt lat="48.1282" lon="-3.29245">
        <ele>217.2</ele>
        <time>2024-11-20T09:20:16Z</time>
      </trkpt>
      <trkpt lat="48.12819" lon="-3.29245">
        <ele>217.2</ele>
        <time>2024-11-20T09:20:17Z</time>
      </trkpt>
      <trkpt lat="48.12818" lon="-3.29245">
        <ele>217.3</ele>
        <time>2024-11-20T09:20:18Z</time>
      </trkpt>
      <trkpt lat="48.12818" lon="-3.29245">
        <ele>217.3</ele>
        <time>2024-11-20T09:20:19Z</time>
      </trkpt>
      <trkpt lat="48.12817" lon="-3.29244">
        <ele>217.4</ele>
        <time>2024-11-20T09:20:20Z</time>
      </trkpt>
      <trkpt lat="48.12816" lon="-3.29244">
        <ele>217.5</ele>
        <time>2024-11-20T09:20:21Z</time>
      </trkpt>
      <trkpt lat="48.12816" lon="-3.29243">
        <ele>217.5</ele>
        <time>2024-11-20T09:20:22Z</time>
      </trkpt>
      <trkpt lat="48.12815" lon="-3.29243">
        <ele>217.6</ele>
        <time>2024-11-20T09:20:23Z</time>
      </trkpt>
      <trkpt lat="48.12814" lon="-3.29242">
        <ele>217.7</ele>
        <time>2024-11-20T09:20:24Z</time>
      </trkpt>
      <trkpt lat="48.12813" lon="-3.29241">
        <ele>217.8</ele>
        <time>2024-11-20T09:20:25Z</time>
      </trkpt>
      <trkpt lat="48.12812" lon="-3.2924">
        <ele>217.9</ele>
        <time>2024-11-20T09:20:26Z</time>
      </trkpt>
      <trkpt lat="48.12812" lon="-3.2924">
        <ele>217.9</ele>
        <time>2024-11-20T09:20:27Z</time>
      </trkpt>
      <trkpt lat="48.12811" lon="-3.2924">
        <ele>218</ele>
        <time>2024-11-20T09:20:28Z</time>
      </trkpt>
      <trkpt lat="48.1281" lon="-3.2924">
        <ele>218</ele>
        <time>2024-11-20T09:20:29Z</time>
      </trkpt>
      <trkpt lat="48.12809" lon="-3.29239">
        <ele>218.1</ele>
        <time>2024-11-20T09:20:30Z</time>
      </trkpt>
      <trkpt lat="48.12808" lon="-3.29239">
        <ele>218.2</ele>
        <time>2024-11-20T09:20:31Z</time>
      </trkpt>
      <trkpt lat="48.12807" lon="-3.29238">
        <ele>218.3</ele>
        <time>2024-11-20T09:20:32Z</time>
      </trkpt>
      <trkpt lat="48.12807" lon="-3.29238">
        <ele>218.3</ele>
        <time>2024-11-20T09:20:33Z</time>
      </trkpt>
      <trkpt lat="48.12807" lon="-3.29238">
        <ele>218.4</ele>
        <time>2024-11-20T09:20:34Z</time>
      </trkpt>
      <trkpt lat="48.12806" lon="-3.29238">
        <ele>218.4</ele>
        <time>2024-11-20T09:20:35Z</time>
      </trkpt>
      <trkpt lat="48.12806" lon="-3.29238">
        <ele>218.4</ele>
        <time>2024-11-20T09:20:36Z</time>
      </trkpt>
      <trkpt lat="48.12805" lon="-3.29238">
        <ele>218.5</ele>
        <time>2024-11-20T09:20:37Z</time>
      </trkpt>
      <trkpt lat="48.12805" lon="-3.29238">
        <ele>218.5</ele>
        <time>2024-11-20T09:20:38Z</time>
      </trkpt>
      <trkpt lat="48.12804" lon="-3.29238">
        <ele>218.6</ele>
        <time>2024-11-20T09:20:39Z</time>
      </trkpt>
      <trkpt lat="48.12803" lon="-3.29238">
        <ele>218.6</ele>
        <time>2024-11-20T09:20:40Z</time>
      </trkpt>
      <trkpt lat="48.12803" lon="-3.29238">
        <ele>218.7</ele>
        <time>2024-11-20T09:20:41Z</time>
      </trkpt>
      <trkpt lat="48.12802" lon="-3.29239">
        <ele>218.7</ele>
        <time>2024-11-20T09:20:42Z</time>
      </trkpt>
      <trkpt lat="48.12801" lon="-3.29239">
        <ele>218.8</ele>
        <time>2024-11-20T09:20:43Z</time>
      </trkpt>
      <trkpt lat="48.128" lon="-3.2924">
        <ele>218.9</ele>
        <time>2024-11-20T09:20:44Z</time>
      </trkpt>
      <trkpt lat="48.12799" lon="-3.29241">
        <ele>219</ele>
        <time>2024-11-20T09:20:45Z</time>
      </trkpt>
      <trkpt lat="48.12798" lon="-3.29242">
        <ele>219.1</ele>
        <time>2024-11-20T09:20:46Z</time>
      </trkpt>
      <trkpt lat="48.12797" lon="-3.29243">
        <ele>219.1</ele>
        <time>2024-11-20T09:20:47Z</time>
      </trkpt>
      <trkpt lat="48.12796" lon="-3.29244">
        <ele>219.2</ele>
        <time>2024-11-20T09:20:48Z</time>
      </trkpt>
      <trkpt lat="48.12796" lon="-3.29244">
        <ele>219.2</ele>
        <time>2024-11-20T09:20:49Z</time>
      </trkpt>
      <trkpt lat="48.12794" lon="-3.29245">
        <ele>219.4</ele>
        <time>2024-11-20T09:20:50Z</time>
      </trkpt>
      <trkpt lat="48.12793" lon="-3.29245">
        <ele>219.5</ele>
        <time>2024-11-20T09:20:51Z</time>
      </trkpt>
      <trkpt lat="48.12793" lon="-3.29245">
        <ele>219.5</ele>
        <time>2024-11-20T09:20:52Z</time>
      </trkpt>
      <trkpt lat="48.12792" lon="-3.29246">
        <ele>219.5</ele>
        <time>2024-11-20T09:20:53Z</time>
      </trkpt>
      <trkpt lat="48.12792" lon="-3.29247">
        <ele>219.5</ele>
        <time>2024-11-20T09:20:54Z</time>
      </trkpt>
      <trkpt lat="48.12792" lon="-3.29249">
        <ele>219.5</ele>
        <time>2024-11-20T09:20:55Z</time>
      </trkpt>
      <trkpt lat="48.12791" lon="-3.2925">
        <ele>219.5</ele>
        <time>2024-11-20T09:20:56Z</time>
      </trkpt>
      <trkpt lat="48.1279" lon="-3.29252">
        <ele>219.6</ele>
        <time>2024-11-20T09:20:57Z</time>
      </trkpt>
      <trkpt lat="48.1279" lon="-3.29253">
        <ele>219.7</ele>
        <time>2024-11-20T09:20:58Z</time>
      </trkpt>
      <trkpt lat="48.12789" lon="-3.29253">
        <ele>219.7</ele>
        <time>2024-11-20T09:20:59Z</time>
      </trkpt>
      <trkpt lat="48.12789" lon="-3.29254">
        <ele>219.7</ele>
        <time>2024-11-20T09:21:00Z</time>
      </trkpt>
      <trkpt lat="48.12788" lon="-3.29256">
        <ele>219.7</ele>
        <time>2024-11-20T09:21:01Z</time>
      </trkpt>
      <trkpt lat="48.12788" lon="-3.29257">
        <ele>219.7</ele>
        <time>2024-11-20T09:21:02Z</time>
      </trkpt>
      <trkpt lat="48.12787" lon="-3.29258">
        <ele>219.8</ele>
        <time>2024-11-20T09:21:03Z</time>
      </trkpt>
      <trkpt lat="48.12786" lon="-3.29259">
        <ele>219.9</ele>
        <time>2024-11-20T09:21:04Z</time>
      </trkpt>
      <trkpt lat="48.12785" lon="-3.29261">
        <ele>219.9</ele>
        <time>2024-11-20T09:21:05Z</time>
      </trkpt>
      <trkpt lat="48.12784" lon="-3.29263">
        <ele>219.9</ele>
        <time>2024-11-20T09:21:06Z</time>
      </trkpt>
      <trkpt lat="48.12784" lon="-3.29264">
        <ele>220</ele>
        <time>2024-11-20T09:21:07Z</time>
      </trkpt>
      <trkpt lat="48.12783" lon="-3.29266">
        <ele>219.9</ele>
        <time>2024-11-20T09:21:08Z</time>
      </trkpt>
      <trkpt lat="48.12783" lon="-3.29267">
        <ele>219.9</ele>
        <time>2024-11-20T09:21:09Z</time>
      </trkpt>
      <trkpt lat="48.12783" lon="-3.29268">
        <ele>219.9</ele>
        <time>2024-11-20T09:21:10Z</time>
      </trkpt>
      <trkpt lat="48.12783" lon="-3.2927">
        <ele>219.9</ele>
        <time>2024-11-20T09:21:11Z</time>
      </trkpt>
      <trkpt lat="48.12782" lon="-3.29271">
        <ele>219.9</ele>
        <time>2024-11-20T09:21:12Z</time>
      </trkpt>
      <trkpt lat="48.12782" lon="-3.29273">
        <ele>219.9</ele>
        <time>2024-11-20T09:21:13Z</time>
      </trkpt>
      <trkpt lat="48.12781" lon="-3.29275">
        <ele>219.9</ele>
        <time>2024-11-20T09:21:14Z</time>
      </trkpt>
      <trkpt lat="48.12781" lon="-3.29276">
        <ele>219.8</ele>
        <time>2024-11-20T09:21:15Z</time>
      </trkpt>
      <trkpt lat="48.1278" lon="-3.29277">
        <ele>219.8</ele>
        <time>2024-11-20T09:21:16Z</time>
      </trkpt>
      <trkpt lat="48.1278" lon="-3.29278">
        <ele>219.8</ele>
        <time>2024-11-20T09:21:17Z</time>
      </trkpt>
      <trkpt lat="48.12779" lon="-3.29279">
        <ele>219.8</ele>
        <time>2024-11-20T09:21:18Z</time>
      </trkpt>
      <trkpt lat="48.12779" lon="-3.2928">
        <ele>219.8</ele>
        <time>2024-11-20T09:21:19Z</time>
      </trkpt>
      <trkpt lat="48.12778" lon="-3.29282">
        <ele>219.9</ele>
        <time>2024-11-20T09:21:20Z</time>
      </trkpt>
      <trkpt lat="48.12777" lon="-3.29284">
        <ele>219.9</ele>
        <time>2024-11-20T09:21:21Z</time>
      </trkpt>
      <trkpt lat="48.12776" lon="-3.29286">
        <ele>219.9</ele>
        <time>2024-11-20T09:21:22Z</time>
      </trkpt>
      <trkpt lat="48.12776" lon="-3.29287">
        <ele>219.9</ele>
        <time>2024-11-20T09:21:23Z</time>
      </trkpt>
      <trkpt lat="48.12775" lon="-3.29289">
        <ele>220</ele>
        <time>2024-11-20T09:21:24Z</time>
      </trkpt>
      <trkpt lat="48.12775" lon="-3.2929">
        <ele>220</ele>
        <time>2024-11-20T09:21:25Z</time>
      </trkpt>
      <trkpt lat="48.12774" lon="-3.29291">
        <ele>219.9</ele>
        <time>2024-11-20T09:21:26Z</time>
      </trkpt>
      <trkpt lat="48.12774" lon="-3.29293">
        <ele>220</ele>
        <time>2024-11-20T09:21:27Z</time>
      </trkpt>
      <trkpt lat="48.12773" lon="-3.29295">
        <ele>220</ele>
        <time>2024-11-20T09:21:28Z</time>
      </trkpt>
      <trkpt lat="48.12773" lon="-3.29296">
        <ele>220</ele>
        <time>2024-11-20T09:21:29Z</time>
      </trkpt>
      <trkpt lat="48.12772" lon="-3.29297">
        <ele>220</ele>
        <time>2024-11-20T09:21:30Z</time>
      </trkpt>
      <trkpt lat="48.12772" lon="-3.29298">
        <ele>220</ele>
        <time>2024-11-20T09:21:31Z</time>
      </trkpt>
      <trkpt lat="48.12772" lon="-3.29299">
        <ele>220</ele>
        <time>2024-11-20T09:21:32Z</time>
      </trkpt>
      <trkpt lat="48.12771" lon="-3.293">
        <ele>220.1</ele>
        <time>2024-11-20T09:21:33Z</time>
      </trkpt>
      <trkpt lat="48.12771" lon="-3.29302">
        <ele>220.1</ele>
        <time>2024-11-20T09:21:34Z</time>
      </trkpt>
      <trkpt lat="48.1277" lon="-3.29302">
        <ele>220.2</ele>
        <time>2024-11-20T09:21:35Z</time>
      </trkpt>
      <trkpt lat="48.1277" lon="-3.29303">
        <ele>220.2</ele>
        <time>2024-11-20T09:21:36Z</time>
      </trkpt>
      <trkpt lat="48.12769" lon="-3.29304">
        <ele>220.3</ele>
        <time>2024-11-20T09:21:37Z</time>
      </trkpt>
      <trkpt lat="48.12769" lon="-3.29305">
        <ele>220.3</ele>
        <time>2024-11-20T09:21:38Z</time>
      </trkpt>
      <trkpt lat="48.12769" lon="-3.29306">
        <ele>220.3</ele>
        <time>2024-11-20T09:21:39Z</time>
      </trkpt>
      <trkpt lat="48.12769" lon="-3.29306">
        <ele>220.3</ele>
        <time>2024-11-20T09:21:40Z</time>
      </trkpt>
      <trkpt lat="48.12769" lon="-3.29307">
        <ele>220.3</ele>
        <time>2024-11-20T09:21:41Z</time>
      </trkpt>
      <trkpt lat="48.12769" lon="-3.29308">
        <ele>220.3</ele>
        <time>2024-11-20T09:21:42Z</time>
      </trkpt>
      <trkpt lat="48.12769" lon="-3.2931">
        <ele>220.3</ele>
        <time>2024-11-20T09:21:43Z</time>
      </trkpt>
      <trkpt lat="48.12768" lon="-3.29311">
        <ele>220.4</ele>
        <time>2024-11-20T09:21:44Z</time>
      </trkpt>
      <trkpt lat="48.12768" lon="-3.29312">
        <ele>220.5</ele>
        <time>2024-11-20T09:21:45Z</time>
      </trkpt>
      <trkpt lat="48.12767" lon="-3.29314">
        <ele>220.5</ele>
        <time>2024-11-20T09:21:46Z</time>
      </trkpt>
      <trkpt lat="48.12767" lon="-3.29315">
        <ele>220.6</ele>
        <time>2024-11-20T09:21:47Z</time>
      </trkpt>
      <trkpt lat="48.12766" lon="-3.29317">
        <ele>220.7</ele>
        <time>2024-11-20T09:21:48Z</time>
      </trkpt>
      <trkpt lat="48.12765" lon="-3.29319">
        <ele>220.8</ele>
        <time>2024-11-20T09:21:49Z</time>
      </trkpt>
      <trkpt lat="48.12764" lon="-3.2932">
        <ele>221</ele>
        <time>2024-11-20T09:21:50Z</time>
      </trkpt>
      <trkpt lat="48.12763" lon="-3.29321">
        <ele>221.1</ele>
        <time>2024-11-20T09:21:51Z</time>
      </trkpt>
      <trkpt lat="48.12762" lon="-3.29323">
        <ele>221.2</ele>
        <time>2024-11-20T09:21:52Z</time>
      </trkpt>
      <trkpt lat="48.12761" lon="-3.29324">
        <ele>221.4</ele>
        <time>2024-11-20T09:21:53Z</time>
      </trkpt>
      <trkpt lat="48.12761" lon="-3.29326">
        <ele>221.5</ele>
        <time>2024-11-20T09:21:54Z</time>
      </trkpt>
      <trkpt lat="48.1276" lon="-3.29327">
        <ele>221.6</ele>
        <time>2024-11-20T09:21:55Z</time>
      </trkpt>
      <trkpt lat="48.12759" lon="-3.29328">
        <ele>221.8</ele>
        <time>2024-11-20T09:21:56Z</time>
      </trkpt>
      <trkpt lat="48.12757" lon="-3.29329">
        <ele>221.9</ele>
        <time>2024-11-20T09:21:57Z</time>
      </trkpt>
      <trkpt lat="48.12756" lon="-3.29331">
        <ele>222.1</ele>
        <time>2024-11-20T09:21:58Z</time>
      </trkpt>
      <trkpt lat="48.12755" lon="-3.29332">
        <ele>222.3</ele>
        <time>2024-11-20T09:21:59Z</time>
      </trkpt>
      <trkpt lat="48.12754" lon="-3.29334">
        <ele>222.4</ele>
        <time>2024-11-20T09:22:00Z</time>
      </trkpt>
      <trkpt lat="48.12753" lon="-3.29334">
        <ele>222.7</ele>
        <time>2024-11-20T09:22:01Z</time>
      </trkpt>
      <trkpt lat="48.12752" lon="-3.29335">
        <ele>222.9</ele>
        <time>2024-11-20T09:22:02Z</time>
      </trkpt>
      <trkpt lat="48.12751" lon="-3.29336">
        <ele>223.1</ele>
        <time>2024-11-20T09:22:03Z</time>
      </trkpt>
      <trkpt lat="48.12751" lon="-3.29336">
        <ele>223.2</ele>
        <time>2024-11-20T09:22:04Z</time>
      </trkpt>
      <trkpt lat="48.1275" lon="-3.29337">
        <ele>223.4</ele>
        <time>2024-11-20T09:22:05Z</time>
      </trkpt>
      <trkpt lat="48.12749" lon="-3.29338">
        <ele>223.5</ele>
        <time>2024-11-20T09:22:06Z</time>
      </trkpt>
      <trkpt lat="48.12749" lon="-3.29339">
        <ele>223.7</ele>
        <time>2024-11-20T09:22:07Z</time>
      </trkpt>
      <trkpt lat="48.12748" lon="-3.29339">
        <ele>223.9</ele>
        <time>2024-11-20T09:22:08Z</time>
      </trkpt>
      <trkpt lat="48.12747" lon="-3.29339">
        <ele>224</ele>
        <time>2024-11-20T09:22:09Z</time>
      </trkpt>
      <trkpt lat="48.12745" lon="-3.29339">
        <ele>224.1</ele>
        <time>2024-11-20T09:22:10Z</time>
      </trkpt>
      <trkpt lat="48.12744" lon="-3.29339">
        <ele>224.2</ele>
        <time>2024-11-20T09:22:11Z</time>
      </trkpt>
      <trkpt lat="48.12743" lon="-3.29338">
        <ele>224.3</ele>
        <time>2024-11-20T09:22:12Z</time>
      </trkpt>
      <trkpt lat="48.12742" lon="-3.29338">
        <ele>224.4</ele>
        <time>2024-11-20T09:22:13Z</time>
      </trkpt>
      <trkpt lat="48.12741" lon="-3.29337">
        <ele>224.4</ele>
        <time>2024-11-20T09:22:14Z</time>
      </trkpt>
      <trkpt lat="48.12741" lon="-3.29337">
        <ele>224.4</ele>
        <time>2024-11-20T09:22:15Z</time>
      </trkpt>
      <trkpt lat="48.1274" lon="-3.29337">
        <ele>224.4</ele>
        <time>2024-11-20T09:22:16Z</time>
      </trkpt>
      <trkpt lat="48.12739" lon="-3.29336">
        <ele>224.5</ele>
        <time>2024-11-20T09:22:17Z</time>
      </trkpt>
      <trkpt lat="48.12739" lon="-3.29335">
        <ele>224.4</ele>
        <time>2024-11-20T09:22:18Z</time>
      </trkpt>
      <trkpt lat="48.12738" lon="-3.29335">
        <ele>224.4</ele>
        <time>2024-11-20T09:22:19Z</time>
      </trkpt>
      <trkpt lat="48.12738" lon="-3.29335">
        <ele>224.4</ele>
        <time>2024-11-20T09:22:20Z</time>
      </trkpt>
      <trkpt lat="48.12738" lon="-3.29334">
        <ele>224.4</ele>
        <time>2024-11-20T09:22:21Z</time>
      </trkpt>
      <trkpt lat="48.12737" lon="-3.29334">
        <ele>224.4</ele>
        <time>2024-11-20T09:22:22Z</time>
      </trkpt>
      <trkpt lat="48.12737" lon="-3.29334">
        <ele>224.5</ele>
        <time>2024-11-20T09:22:23Z</time>
      </trkpt>
      <trkpt lat="48.12736" lon="-3.29333">
        <ele>224.5</ele>
        <time>2024-11-20T09:22:24Z</time>
      </trkpt>
      <trkpt lat="48.12736" lon="-3.29333">
        <ele>224.5</ele>
        <time>2024-11-20T09:22:25Z</time>
      </trkpt>
      <trkpt lat="48.12735" lon="-3.29333">
        <ele>224.5</ele>
        <time>2024-11-20T09:22:26Z</time>
      </trkpt>
      <trkpt lat="48.12734" lon="-3.29332">
        <ele>224.7</ele>
        <time>2024-11-20T09:22:27Z</time>
      </trkpt>
      <trkpt lat="48.12733" lon="-3.29331">
        <ele>224.8</ele>
        <time>2024-11-20T09:22:28Z</time>
      </trkpt>
      <trkpt lat="48.12732" lon="-3.29331">
        <ele>224.8</ele>
        <time>2024-11-20T09:22:29Z</time>
      </trkpt>
      <trkpt lat="48.12731" lon="-3.2933">
        <ele>224.9</ele>
        <time>2024-11-20T09:22:30Z</time>
      </trkpt>
      <trkpt lat="48.1273" lon="-3.2933">
        <ele>225</ele>
        <time>2024-11-20T09:22:31Z</time>
      </trkpt>
      <trkpt lat="48.12728" lon="-3.29329">
        <ele>225.1</ele>
        <time>2024-11-20T09:22:32Z</time>
      </trkpt>
      <trkpt lat="48.12727" lon="-3.29329">
        <ele>225.2</ele>
        <time>2024-11-20T09:22:33Z</time>
      </trkpt>
      <trkpt lat="48.12726" lon="-3.29329">
        <ele>225.3</ele>
        <time>2024-11-20T09:22:34Z</time>
      </trkpt>
      <trkpt lat="48.12726" lon="-3.29329">
        <ele>225.4</ele>
        <time>2024-11-20T09:22:35Z</time>
      </trkpt>
      <trkpt lat="48.12725" lon="-3.29329">
        <ele>225.4</ele>
        <time>2024-11-20T09:22:36Z</time>
      </trkpt>
      <trkpt lat="48.12724" lon="-3.29328">
        <ele>225.5</ele>
        <time>2024-11-20T09:22:37Z</time>
      </trkpt>
      <trkpt lat="48.12722" lon="-3.29327">
        <ele>225.5</ele>
        <time>2024-11-20T09:22:38Z</time>
      </trkpt>
      <trkpt lat="48.12721" lon="-3.29326">
        <ele>225.5</ele>
        <time>2024-11-20T09:22:39Z</time>
      </trkpt>
      <trkpt lat="48.12719" lon="-3.29325">
        <ele>225.4</ele>
        <time>2024-11-20T09:22:40Z</time>
      </trkpt>
      <trkpt lat="48.12718" lon="-3.29324">
        <ele>225.3</ele>
        <time>2024-11-20T09:22:41Z</time>
      </trkpt>
      <trkpt lat="48.12717" lon="-3.29324">
        <ele>225.3</ele>
        <time>2024-11-20T09:22:42Z</time>
      </trkpt>
      <trkpt lat="48.12716" lon="-3.29323">
        <ele>225.3</ele>
        <time>2024-11-20T09:22:43Z</time>
      </trkpt>
      <trkpt lat="48.12715" lon="-3.29323">
        <ele>225.2</ele>
        <time>2024-11-20T09:22:44Z</time>
      </trkpt>
      <trkpt lat="48.12714" lon="-3.29323">
        <ele>225.2</ele>
        <time>2024-11-20T09:22:45Z</time>
      </trkpt>
      <trkpt lat="48.12713" lon="-3.29322">
        <ele>225.2</ele>
        <time>2024-11-20T09:22:46Z</time>
      </trkpt>
      <trkpt lat="48.12712" lon="-3.29322">
        <ele>225.1</ele>
        <time>2024-11-20T09:22:47Z</time>
      </trkpt>
      <trkpt lat="48.1271" lon="-3.29321">
        <ele>225.1</ele>
        <time>2024-11-20T09:22:48Z</time>
      </trkpt>
      <trkpt lat="48.12709" lon="-3.2932">
        <ele>225</ele>
        <time>2024-11-20T09:22:49Z</time>
      </trkpt>
      <trkpt lat="48.12708" lon="-3.29319">
        <ele>225</ele>
        <time>2024-11-20T09:22:50Z</time>
      </trkpt>
      <trkpt lat="48.12707" lon="-3.29318">
        <ele>224.9</ele>
        <time>2024-11-20T09:22:51Z</time>
      </trkpt>
      <trkpt lat="48.12706" lon="-3.29318">
        <ele>224.9</ele>
        <time>2024-11-20T09:22:52Z</time>
      </trkpt>
      <trkpt lat="48.12705" lon="-3.29318">
        <ele>224.9</ele>
        <time>2024-11-20T09:22:53Z</time>
      </trkpt>
      <trkpt lat="48.12704" lon="-3.29317">
        <ele>224.8</ele>
        <time>2024-11-20T09:22:54Z</time>
      </trkpt>
      <trkpt lat="48.12703" lon="-3.29316">
        <ele>224.8</ele>
        <time>2024-11-20T09:22:55Z</time>
      </trkpt>
      <trkpt lat="48.12702" lon="-3.29316">
        <ele>224.7</ele>
        <time>2024-11-20T09:22:56Z</time>
      </trkpt>
      <trkpt lat="48.12701" lon="-3.29315">
        <ele>224.7</ele>
        <time>2024-11-20T09:22:57Z</time>
      </trkpt>
      <trkpt lat="48.12701" lon="-3.29315">
        <ele>224.7</ele>
        <time>2024-11-20T09:22:58Z</time>
      </trkpt>
      <trkpt lat="48.127" lon="-3.29315">
        <ele>224.7</ele>
        <time>2024-11-20T09:22:59Z</time>
      </trkpt>
      <trkpt lat="48.12699" lon="-3.29314">
        <ele>224.6</ele>
        <time>2024-11-20T09:23:00Z</time>
      </trkpt>
      <trkpt lat="48.12698" lon="-3.29314">
        <ele>224.6</ele>
        <time>2024-11-20T09:23:01Z</time>
      </trkpt>
      <trkpt lat="48.12697" lon="-3.29313">
        <ele>224.5</ele>
        <time>2024-11-20T09:23:02Z</time>
      </trkpt>
      <trkpt lat="48.12696" lon="-3.29312">
        <ele>224.5</ele>
        <time>2024-11-20T09:23:03Z</time>
      </trkpt>
      <trkpt lat="48.12694" lon="-3.29311">
        <ele>224.4</ele>
        <time>2024-11-20T09:23:04Z</time>
      </trkpt>
      <trkpt lat="48.12693" lon="-3.2931">
        <ele>224.5</ele>
        <time>2024-11-20T09:23:05Z</time>
      </trkpt>
      <trkpt lat="48.12691" lon="-3.2931">
        <ele>224.5</ele>
        <time>2024-11-20T09:23:06Z</time>
      </trkpt>
      <trkpt lat="48.1269" lon="-3.29309">
        <ele>224.6</ele>
        <time>2024-11-20T09:23:07Z</time>
      </trkpt>
      <trkpt lat="48.12689" lon="-3.29307">
        <ele>224.6</ele>
        <time>2024-11-20T09:23:08Z</time>
      </trkpt>
      <trkpt lat="48.12687" lon="-3.29306">
        <ele>224.6</ele>
        <time>2024-11-20T09:23:09Z</time>
      </trkpt>
      <trkpt lat="48.12686" lon="-3.29304">
        <ele>224.6</ele>
        <time>2024-11-20T09:23:10Z</time>
      </trkpt>
      <trkpt lat="48.12685" lon="-3.29303">
        <ele>224.6</ele>
        <time>2024-11-20T09:23:11Z</time>
      </trkpt>
      <trkpt lat="48.12684" lon="-3.29302">
        <ele>224.6</ele>
        <time>2024-11-20T09:23:12Z</time>
      </trkpt>
      <trkpt lat="48.12684" lon="-3.29302">
        <ele>224.7</ele>
        <time>2024-11-20T09:23:13Z</time>
      </trkpt>
      <trkpt lat="48.12683" lon="-3.29301">
        <ele>224.7</ele>
        <time>2024-11-20T09:23:14Z</time>
      </trkpt>
      <trkpt lat="48.12682" lon="-3.29301">
        <ele>224.8</ele>
        <time>2024-11-20T09:23:15Z</time>
      </trkpt>
      <trkpt lat="48.12681" lon="-3.293">
        <ele>224.8</ele>
        <time>2024-11-20T09:23:16Z</time>
      </trkpt>
      <trkpt lat="48.1268" lon="-3.29299">
        <ele>224.8</ele>
        <time>2024-11-20T09:23:17Z</time>
      </trkpt>
      <trkpt lat="48.12678" lon="-3.29298">
        <ele>224.8</ele>
        <time>2024-11-20T09:23:18Z</time>
      </trkpt>
      <trkpt lat="48.12677" lon="-3.29297">
        <ele>224.9</ele>
        <time>2024-11-20T09:23:19Z</time>
      </trkpt>
      <trkpt lat="48.12676" lon="-3.29296">
        <ele>224.9</ele>
        <time>2024-11-20T09:23:20Z</time>
      </trkpt>
      <trkpt lat="48.12675" lon="-3.29295">
        <ele>224.9</ele>
        <time>2024-11-20T09:23:21Z</time>
      </trkpt>
      <trkpt lat="48.12674" lon="-3.29295">
        <ele>224.9</ele>
        <time>2024-11-20T09:23:22Z</time>
      </trkpt>
      <trkpt lat="48.12672" lon="-3.29295">
        <ele>225</ele>
        <time>2024-11-20T09:23:23Z</time>
      </trkpt>
      <trkpt lat="48.12672" lon="-3.29294">
        <ele>224.9</ele>
        <time>2024-11-20T09:23:24Z</time>
      </trkpt>
      <trkpt lat="48.12671" lon="-3.29293">
        <ele>224.9</ele>
        <time>2024-11-20T09:23:25Z</time>
      </trkpt>
      <trkpt lat="48.12671" lon="-3.29293">
        <ele>224.9</ele>
        <time>2024-11-20T09:23:26Z</time>
      </trkpt>
      <trkpt lat="48.1267" lon="-3.29292">
        <ele>224.9</ele>
        <time>2024-11-20T09:23:27Z</time>
      </trkpt>
      <trkpt lat="48.12669" lon="-3.29293">
        <ele>225</ele>
        <time>2024-11-20T09:23:28Z</time>
      </trkpt>
      <trkpt lat="48.12669" lon="-3.29293">
        <ele>225</ele>
        <time>2024-11-20T09:23:29Z</time>
      </trkpt>
      <trkpt lat="48.12668" lon="-3.29293">
        <ele>225</ele>
        <time>2024-11-20T09:23:30Z</time>
      </trkpt>
      <trkpt lat="48.12666" lon="-3.29292">
        <ele>225.1</ele>
        <time>2024-11-20T09:23:31Z</time>
      </trkpt>
      <trkpt lat="48.12665" lon="-3.29291">
        <ele>225.1</ele>
        <time>2024-11-20T09:23:32Z</time>
      </trkpt>
      <trkpt lat="48.1266" lon="-3.29287">
        <ele>225.3</ele>
        <time>2024-11-20T09:23:36Z</time>
      </trkpt>
      <trkpt lat="48.12659" lon="-3.29286">
        <ele>225.3</ele>
        <time>2024-11-20T09:23:37Z</time>
      </trkpt>
      <trkpt lat="48.12658" lon="-3.29285">
        <ele>225.3</ele>
        <time>2024-11-20T09:23:38Z</time>
      </trkpt>
      <trkpt lat="48.12658" lon="-3.29284">
        <ele>225.3</ele>
        <time>2024-11-20T09:23:39Z</time>
      </trkpt>
      <trkpt lat="48.12657" lon="-3.29284">
        <ele>225.3</ele>
        <time>2024-11-20T09:23:40Z</time>
      </trkpt>
      <trkpt lat="48.12656" lon="-3.29283">
        <ele>225.3</ele>
        <time>2024-11-20T09:23:41Z</time>
      </trkpt>
      <trkpt lat="48.12656" lon="-3.29282">
        <ele>225.2</ele>
        <time>2024-11-20T09:23:42Z</time>
      </trkpt>
      <trkpt lat="48.12655" lon="-3.29282">
        <ele>225.2</ele>
        <time>2024-11-20T09:23:43Z</time>
      </trkpt>
      <trkpt lat="48.12655" lon="-3.29282">
        <ele>225.2</ele>
        <time>2024-11-20T09:23:44Z</time>
      </trkpt>
      <trkpt lat="48.12654" lon="-3.29282">
        <ele>225.3</ele>
        <time>2024-11-20T09:23:45Z</time>
      </trkpt>
      <trkpt lat="48.12654" lon="-3.29282">
        <ele>225.3</ele>
        <time>2024-11-20T09:23:46Z</time>
      </trkpt>
      <trkpt lat="48.12653" lon="-3.29281">
        <ele>225.3</ele>
        <time>2024-11-20T09:23:47Z</time>
      </trkpt>
      <trkpt lat="48.12652" lon="-3.29281">
        <ele>225.4</ele>
        <time>2024-11-20T09:23:48Z</time>
      </trkpt>
      <trkpt lat="48.12652" lon="-3.29281">
        <ele>225.4</ele>
        <time>2024-11-20T09:23:49Z</time>
      </trkpt>
      <trkpt lat="48.12651" lon="-3.2928">
        <ele>225.4</ele>
        <time>2024-11-20T09:23:50Z</time>
      </trkpt>
      <trkpt lat="48.1265" lon="-3.29279">
        <ele>225.4</ele>
        <time>2024-11-20T09:23:51Z</time>
      </trkpt>
      <trkpt lat="48.12649" lon="-3.29279">
        <ele>225.3</ele>
        <time>2024-11-20T09:23:52Z</time>
      </trkpt>
      <trkpt lat="48.12648" lon="-3.29278">
        <ele>225.3</ele>
        <time>2024-11-20T09:23:53Z</time>
      </trkpt>
      <trkpt lat="48.12646" lon="-3.29276">
        <ele>225.3</ele>
        <time>2024-11-20T09:23:54Z</time>
      </trkpt>
      <trkpt lat="48.12645" lon="-3.29275">
        <ele>225.3</ele>
        <time>2024-11-20T09:23:55Z</time>
      </trkpt>
      <trkpt lat="48.12644" lon="-3.29274">
        <ele>225.3</ele>
        <time>2024-11-20T09:23:56Z</time>
      </trkpt>
      <trkpt lat="48.12644" lon="-3.29273">
        <ele>225.2</ele>
        <time>2024-11-20T09:23:57Z</time>
      </trkpt>
      <trkpt lat="48.12644" lon="-3.29273">
        <ele>225.2</ele>
        <time>2024-11-20T09:23:58Z</time>
      </trkpt>
      <trkpt lat="48.12643" lon="-3.29273">
        <ele>225.2</ele>
        <time>2024-11-20T09:23:59Z</time>
      </trkpt>
      <trkpt lat="48.12642" lon="-3.29272">
        <ele>225.3</ele>
        <time>2024-11-20T09:24:00Z</time>
      </trkpt>
      <trkpt lat="48.12641" lon="-3.29272">
        <ele>225.2</ele>
        <time>2024-11-20T09:24:01Z</time>
      </trkpt>
      <trkpt lat="48.1264" lon="-3.29272">
        <ele>225.2</ele>
        <time>2024-11-20T09:24:02Z</time>
      </trkpt>
      <trkpt lat="48.12639" lon="-3.29271">
        <ele>225.2</ele>
        <time>2024-11-20T09:24:03Z</time>
      </trkpt>
      <trkpt lat="48.12638" lon="-3.2927">
        <ele>225.2</ele>
        <time>2024-11-20T09:24:04Z</time>
      </trkpt>
      <trkpt lat="48.12638" lon="-3.29269">
        <ele>225.1</ele>
        <time>2024-11-20T09:24:05Z</time>
      </trkpt>
      <trkpt lat="48.12637" lon="-3.29268">
        <ele>225.1</ele>
        <time>2024-11-20T09:24:06Z</time>
      </trkpt>
      <trkpt lat="48.12636" lon="-3.29267">
        <ele>225</ele>
        <time>2024-11-20T09:24:07Z</time>
      </trkpt>
      <trkpt lat="48.12636" lon="-3.29266">
        <ele>224.9</ele>
        <time>2024-11-20T09:24:08Z</time>
      </trkpt>
      <trkpt lat="48.12635" lon="-3.29265">
        <ele>224.9</ele>
        <time>2024-11-20T09:24:09Z</time>
      </trkpt>
      <trkpt lat="48.12634" lon="-3.29264">
        <ele>224.8</ele>
        <time>2024-11-20T09:24:10Z</time>
      </trkpt>
      <trkpt lat="48.12632" lon="-3.29262">
        <ele>224.8</ele>
        <time>2024-11-20T09:24:11Z</time>
      </trkpt>
      <trkpt lat="48.12631" lon="-3.29261">
        <ele>224.8</ele>
        <time>2024-11-20T09:24:12Z</time>
      </trkpt>
      <trkpt lat="48.12629" lon="-3.29259">
        <ele>224.7</ele>
        <time>2024-11-20T09:24:13Z</time>
      </trkpt>
      <trkpt lat="48.12628" lon="-3.29258">
        <ele>224.6</ele>
        <time>2024-11-20T09:24:14Z</time>
      </trkpt>
      <trkpt lat="48.12627" lon="-3.29257">
        <ele>224.6</ele>
        <time>2024-11-20T09:24:15Z</time>
      </trkpt>
      <trkpt lat="48.12626" lon="-3.29256">
        <ele>224.6</ele>
        <time>2024-11-20T09:24:16Z</time>
      </trkpt>
      <trkpt lat="48.12625" lon="-3.29255">
        <ele>224.6</ele>
        <time>2024-11-20T09:24:17Z</time>
      </trkpt>
      <trkpt lat="48.12623" lon="-3.29254">
        <ele>224.6</ele>
        <time>2024-11-20T09:24:18Z</time>
      </trkpt>
      <trkpt lat="48.12622" lon="-3.29253">
        <ele>224.6</ele>
        <time>2024-11-20T09:24:19Z</time>
      </trkpt>
      <trkpt lat="48.12621" lon="-3.29252">
        <ele>224.6</ele>
        <time>2024-11-20T09:24:20Z</time>
      </trkpt>
      <trkpt lat="48.12619" lon="-3.29252">
        <ele>224.6</ele>
        <time>2024-11-20T09:24:21Z</time>
      </trkpt>
      <trkpt lat="48.12618" lon="-3.29251">
        <ele>224.6</ele>
        <time>2024-11-20T09:24:22Z</time>
      </trkpt>
      <trkpt lat="48.12617" lon="-3.2925">
        <ele>224.6</ele>
        <time>2024-11-20T09:24:23Z</time>
      </trkpt>
      <trkpt lat="48.12615" lon="-3.29249">
        <ele>224.6</ele>
        <time>2024-11-20T09:24:24Z</time>
      </trkpt>
      <trkpt lat="48.12614" lon="-3.29248">
        <ele>224.6</ele>
        <time>2024-11-20T09:24:25Z</time>
      </trkpt>
      <trkpt lat="48.12613" lon="-3.29247">
        <ele>224.6</ele>
        <time>2024-11-20T09:24:26Z</time>
      </trkpt>
      <trkpt lat="48.12613" lon="-3.29247">
        <ele>224.6</ele>
        <time>2024-11-20T09:24:27Z</time>
      </trkpt>
      <trkpt lat="48.12612" lon="-3.29246">
        <ele>224.7</ele>
        <time>2024-11-20T09:24:28Z</time>
      </trkpt>
      <trkpt lat="48.12611" lon="-3.29245">
        <ele>224.7</ele>
        <time>2024-11-20T09:24:29Z</time>
      </trkpt>
      <trkpt lat="48.1261" lon="-3.29245">
        <ele>224.8</ele>
        <time>2024-11-20T09:24:30Z</time>
      </trkpt>
      <trkpt lat="48.12609" lon="-3.29244">
        <ele>224.8</ele>
        <time>2024-11-20T09:24:31Z</time>
      </trkpt>
      <trkpt lat="48.12608" lon="-3.29243">
        <ele>224.8</ele>
        <time>2024-11-20T09:24:32Z</time>
      </trkpt>
      <trkpt lat="48.12607" lon="-3.29243">
        <ele>225</ele>
        <time>2024-11-20T09:24:33Z</time>
      </trkpt>
      <trkpt lat="48.12605" lon="-3.29243">
        <ele>225.1</ele>
        <time>2024-11-20T09:24:34Z</time>
      </trkpt>
      <trkpt lat="48.12604" lon="-3.29244">
        <ele>225.3</ele>
        <time>2024-11-20T09:24:35Z</time>
      </trkpt>
      <trkpt lat="48.12603" lon="-3.29244">
        <ele>225.4</ele>
        <time>2024-11-20T09:24:36Z</time>
      </trkpt>
      <trkpt lat="48.12602" lon="-3.29244">
        <ele>225.5</ele>
        <time>2024-11-20T09:24:37Z</time>
      </trkpt>
      <trkpt lat="48.126" lon="-3.29244">
        <ele>225.7</ele>
        <time>2024-11-20T09:24:38Z</time>
      </trkpt>
      <trkpt lat="48.12599" lon="-3.29244">
        <ele>225.8</ele>
        <time>2024-11-20T09:24:39Z</time>
      </trkpt>
      <trkpt lat="48.12598" lon="-3.29244">
        <ele>225.9</ele>
        <time>2024-11-20T09:24:40Z</time>
      </trkpt>
      <trkpt lat="48.12597" lon="-3.29243">
        <ele>226</ele>
        <time>2024-11-20T09:24:41Z</time>
      </trkpt>
      <trkpt lat="48.12596" lon="-3.29243">
        <ele>226</ele>
        <time>2024-11-20T09:24:42Z</time>
      </trkpt>
      <trkpt lat="48.12595" lon="-3.29243">
        <ele>226.1</ele>
        <time>2024-11-20T09:24:43Z</time>
      </trkpt>
      <trkpt lat="48.12594" lon="-3.29243">
        <ele>226.2</ele>
        <time>2024-11-20T09:24:44Z</time>
      </trkpt>
      <trkpt lat="48.12594" lon="-3.29243">
        <ele>226.2</ele>
        <time>2024-11-20T09:24:45Z</time>
      </trkpt>
      <trkpt lat="48.12594" lon="-3.29243">
        <ele>226.2</ele>
        <time>2024-11-20T09:24:46Z</time>
      </trkpt>
      <trkpt lat="48.12593" lon="-3.29243">
        <ele>226.3</ele>
        <time>2024-11-20T09:24:47Z</time>
      </trkpt>
      <trkpt lat="48.12592" lon="-3.29242">
        <ele>226.3</ele>
        <time>2024-11-20T09:24:48Z</time>
      </trkpt>
      <trkpt lat="48.12591" lon="-3.29242">
        <ele>226.4</ele>
        <time>2024-11-20T09:24:49Z</time>
      </trkpt>
      <trkpt lat="48.12589" lon="-3.29241">
        <ele>226.5</ele>
        <time>2024-11-20T09:24:50Z</time>
      </trkpt>
      <trkpt lat="48.12588" lon="-3.29241">
        <ele>226.6</ele>
        <time>2024-11-20T09:24:51Z</time>
      </trkpt>
      <trkpt lat="48.12586" lon="-3.2924">
        <ele>226.7</ele>
        <time>2024-11-20T09:24:52Z</time>
      </trkpt>
      <trkpt lat="48.12584" lon="-3.29239">
        <ele>226.8</ele>
        <time>2024-11-20T09:24:53Z</time>
      </trkpt>
      <trkpt lat="48.12583" lon="-3.29239">
        <ele>226.8</ele>
        <time>2024-11-20T09:24:54Z</time>
      </trkpt>
      <trkpt lat="48.12582" lon="-3.29238">
        <ele>226.8</ele>
        <time>2024-11-20T09:24:55Z</time>
      </trkpt>
      <trkpt lat="48.1258" lon="-3.29238">
        <ele>226.8</ele>
        <time>2024-11-20T09:24:56Z</time>
      </trkpt>
      <trkpt lat="48.12579" lon="-3.29238">
        <ele>226.8</ele>
        <time>2024-11-20T09:24:57Z</time>
      </trkpt>
      <trkpt lat="48.12577" lon="-3.29238">
        <ele>226.9</ele>
        <time>2024-11-20T09:24:58Z</time>
      </trkpt>
      <trkpt lat="48.12576" lon="-3.29238">
        <ele>226.9</ele>
        <time>2024-11-20T09:24:59Z</time>
      </trkpt>
      <trkpt lat="48.12574" lon="-3.29238">
        <ele>227</ele>
        <time>2024-11-20T09:25:00Z</time>
      </trkpt>
      <trkpt lat="48.12573" lon="-3.29237">
        <ele>227</ele>
        <time>2024-11-20T09:25:01Z</time>
      </trkpt>
      <trkpt lat="48.12572" lon="-3.29237">
        <ele>227</ele>
        <time>2024-11-20T09:25:02Z</time>
      </trkpt>
      <trkpt lat="48.12571" lon="-3.29236">
        <ele>226.9</ele>
        <time>2024-11-20T09:25:03Z</time>
      </trkpt>
      <trkpt lat="48.12569" lon="-3.29235">
        <ele>226.9</ele>
        <time>2024-11-20T09:25:04Z</time>
      </trkpt>
      <trkpt lat="48.12568" lon="-3.29234">
        <ele>226.8</ele>
        <time>2024-11-20T09:25:05Z</time>
      </trkpt>
      <trkpt lat="48.12566" lon="-3.29234">
        <ele>226.8</ele>
        <time>2024-11-20T09:25:06Z</time>
      </trkpt>
      <trkpt lat="48.12565" lon="-3.29233">
        <ele>226.9</ele>
        <time>2024-11-20T09:25:07Z</time>
      </trkpt>
      <trkpt lat="48.12563" lon="-3.29233">
        <ele>226.9</ele>
        <time>2024-11-20T09:25:08Z</time>
      </trkpt>
      <trkpt lat="48.12562" lon="-3.29233">
        <ele>227</ele>
        <time>2024-11-20T09:25:09Z</time>
      </trkpt>
      <trkpt lat="48.12561" lon="-3.29233">
        <ele>227</ele>
        <time>2024-11-20T09:25:10Z</time>
      </trkpt>
      <trkpt lat="48.12559" lon="-3.29232">
        <ele>227</ele>
        <time>2024-11-20T09:25:11Z</time>
      </trkpt>
      <trkpt lat="48.12558" lon="-3.29232">
        <ele>226.9</ele>
        <time>2024-11-20T09:25:12Z</time>
      </trkpt>
      <trkpt lat="48.12557" lon="-3.29231">
        <ele>226.9</ele>
        <time>2024-11-20T09:25:13Z</time>
      </trkpt>
      <trkpt lat="48.12556" lon="-3.29231">
        <ele>226.9</ele>
        <time>2024-11-20T09:25:14Z</time>
      </trkpt>
      <trkpt lat="48.12555" lon="-3.29231">
        <ele>226.9</ele>
        <time>2024-11-20T09:25:15Z</time>
      </trkpt>
      <trkpt lat="48.12554" lon="-3.2923">
        <ele>227</ele>
        <time>2024-11-20T09:25:16Z</time>
      </trkpt>
      <trkpt lat="48.12552" lon="-3.2923">
        <ele>227</ele>
        <time>2024-11-20T09:25:17Z</time>
      </trkpt>
      <trkpt lat="48.12551" lon="-3.2923">
        <ele>226.9</ele>
        <time>2024-11-20T09:25:18Z</time>
      </trkpt>
      <trkpt lat="48.12551" lon="-3.29229">
        <ele>226.9</ele>
        <time>2024-11-20T09:25:19Z</time>
      </trkpt>
      <trkpt lat="48.12549" lon="-3.29229">
        <ele>226.9</ele>
        <time>2024-11-20T09:25:20Z</time>
      </trkpt>
      <trkpt lat="48.12548" lon="-3.29228">
        <ele>226.9</ele>
        <time>2024-11-20T09:25:21Z</time>
      </trkpt>
      <trkpt lat="48.12547" lon="-3.29228">
        <ele>226.9</ele>
        <time>2024-11-20T09:25:22Z</time>
      </trkpt>
      <trkpt lat="48.12546" lon="-3.29228">
        <ele>227</ele>
        <time>2024-11-20T09:25:23Z</time>
      </trkpt>
      <trkpt lat="48.12545" lon="-3.29228">
        <ele>227</ele>
        <time>2024-11-20T09:25:24Z</time>
      </trkpt>
      <trkpt lat="48.12544" lon="-3.29228">
        <ele>227</ele>
        <time>2024-11-20T09:25:25Z</time>
      </trkpt>
      <trkpt lat="48.12543" lon="-3.29228">
        <ele>227</ele>
        <time>2024-11-20T09:25:26Z</time>
      </trkpt>
      <trkpt lat="48.12542" lon="-3.29227">
        <ele>227</ele>
        <time>2024-11-20T09:25:27Z</time>
      </trkpt>
      <trkpt lat="48.12541" lon="-3.29228">
        <ele>227.1</ele>
        <time>2024-11-20T09:25:28Z</time>
      </trkpt>
      <trkpt lat="48.1254" lon="-3.29228">
        <ele>227.1</ele>
        <time>2024-11-20T09:25:29Z</time>
      </trkpt>
      <trkpt lat="48.12539" lon="-3.29227">
        <ele>227.2</ele>
        <time>2024-11-20T09:25:30Z</time>
      </trkpt>
      <trkpt lat="48.12538" lon="-3.29227">
        <ele>227.2</ele>
        <time>2024-11-20T09:25:31Z</time>
      </trkpt>
      <trkpt lat="48.12537" lon="-3.29227">
        <ele>227.2</ele>
        <time>2024-11-20T09:25:32Z</time>
      </trkpt>
      <trkpt lat="48.12536" lon="-3.29227">
        <ele>227.2</ele>
        <time>2024-11-20T09:25:33Z</time>
      </trkpt>
      <trkpt lat="48.12536" lon="-3.29228">
        <ele>227.3</ele>
        <time>2024-11-20T09:25:34Z</time>
      </trkpt>
      <trkpt lat="48.12535" lon="-3.29228">
        <ele>227.3</ele>
        <time>2024-11-20T09:25:35Z</time>
      </trkpt>
      <trkpt lat="48.12534" lon="-3.29228">
        <ele>227.4</ele>
        <time>2024-11-20T09:25:36Z</time>
      </trkpt>
      <trkpt lat="48.12533" lon="-3.29227">
        <ele>227.4</ele>
        <time>2024-11-20T09:25:37Z</time>
      </trkpt>
      <trkpt lat="48.12531" lon="-3.29226">
        <ele>227.3</ele>
        <time>2024-11-20T09:25:38Z</time>
      </trkpt>
      <trkpt lat="48.12529" lon="-3.29224">
        <ele>227.2</ele>
        <time>2024-11-20T09:25:39Z</time>
      </trkpt>
      <trkpt lat="48.12527" lon="-3.29223">
        <ele>227.1</ele>
        <time>2024-11-20T09:25:40Z</time>
      </trkpt>
      <trkpt lat="48.12526" lon="-3.29222">
        <ele>227</ele>
        <time>2024-11-20T09:25:41Z</time>
      </trkpt>
      <trkpt lat="48.12525" lon="-3.29222">
        <ele>227</ele>
        <time>2024-11-20T09:25:42Z</time>
      </trkpt>
      <trkpt lat="48.12525" lon="-3.29221">
        <ele>226.9</ele>
        <time>2024-11-20T09:25:43Z</time>
      </trkpt>
      <trkpt lat="48.12524" lon="-3.29221">
        <ele>226.9</ele>
        <time>2024-11-20T09:25:44Z</time>
      </trkpt>
      <trkpt lat="48.12523" lon="-3.29221">
        <ele>226.9</ele>
        <time>2024-11-20T09:25:45Z</time>
      </trkpt>
      <trkpt lat="48.12522" lon="-3.29221">
        <ele>227</ele>
        <time>2024-11-20T09:25:46Z</time>
      </trkpt>
      <trkpt lat="48.12521" lon="-3.29221">
        <ele>227</ele>
        <time>2024-11-20T09:25:47Z</time>
      </trkpt>
      <trkpt lat="48.1252" lon="-3.29221">
        <ele>227</ele>
        <time>2024-11-20T09:25:48Z</time>
      </trkpt>
      <trkpt lat="48.12519" lon="-3.29221">
        <ele>227.1</ele>
        <time>2024-11-20T09:25:49Z</time>
      </trkpt>
      <trkpt lat="48.12518" lon="-3.29221">
        <ele>227.1</ele>
        <time>2024-11-20T09:25:50Z</time>
      </trkpt>
      <trkpt lat="48.12517" lon="-3.29221">
        <ele>227.1</ele>
        <time>2024-11-20T09:25:51Z</time>
      </trkpt>
      <trkpt lat="48.12516" lon="-3.2922">
        <ele>227.1</ele>
        <time>2024-11-20T09:25:52Z</time>
      </trkpt>
      <trkpt lat="48.12515" lon="-3.2922">
        <ele>227</ele>
        <time>2024-11-20T09:25:53Z</time>
      </trkpt>
      <trkpt lat="48.12514" lon="-3.29219">
        <ele>226.9</ele>
        <time>2024-11-20T09:25:54Z</time>
      </trkpt>
      <trkpt lat="48.12513" lon="-3.29219">
        <ele>226.9</ele>
        <time>2024-11-20T09:25:55Z</time>
      </trkpt>
      <trkpt lat="48.12512" lon="-3.29219">
        <ele>226.8</ele>
        <time>2024-11-20T09:25:56Z</time>
      </trkpt>
      <trkpt lat="48.12511" lon="-3.29218">
        <ele>226.8</ele>
        <time>2024-11-20T09:25:57Z</time>
      </trkpt>
      <trkpt lat="48.1251" lon="-3.29218">
        <ele>226.8</ele>
        <time>2024-11-20T09:25:58Z</time>
      </trkpt>
      <trkpt lat="48.12509" lon="-3.29218">
        <ele>226.8</ele>
        <time>2024-11-20T09:25:59Z</time>
      </trkpt>
      <trkpt lat="48.12508" lon="-3.29218">
        <ele>226.8</ele>
        <time>2024-11-20T09:26:00Z</time>
      </trkpt>
      <trkpt lat="48.12507" lon="-3.29218">
        <ele>226.8</ele>
        <time>2024-11-20T09:26:01Z</time>
      </trkpt>
      <trkpt lat="48.12506" lon="-3.29218">
        <ele>226.9</ele>
        <time>2024-11-20T09:26:02Z</time>
      </trkpt>
      <trkpt lat="48.12505" lon="-3.29218">
        <ele>226.9</ele>
        <time>2024-11-20T09:26:03Z</time>
      </trkpt>
      <trkpt lat="48.12504" lon="-3.29218">
        <ele>226.9</ele>
        <time>2024-11-20T09:26:04Z</time>
      </trkpt>
      <trkpt lat="48.12502" lon="-3.29218">
        <ele>226.9</ele>
        <time>2024-11-20T09:26:05Z</time>
      </trkpt>
      <trkpt lat="48.12501" lon="-3.29217">
        <ele>226.9</ele>
        <time>2024-11-20T09:26:06Z</time>
      </trkpt>
      <trkpt lat="48.12499" lon="-3.29217">
        <ele>226.9</ele>
        <time>2024-11-20T09:26:07Z</time>
      </trkpt>
      <trkpt lat="48.12498" lon="-3.29216">
        <ele>226.8</ele>
        <time>2024-11-20T09:26:08Z</time>
      </trkpt>
      <trkpt lat="48.12497" lon="-3.29216">
        <ele>226.7</ele>
        <time>2024-11-20T09:26:09Z</time>
      </trkpt>
      <trkpt lat="48.12496" lon="-3.29216">
        <ele>226.7</ele>
        <time>2024-11-20T09:26:10Z</time>
      </trkpt>
      <trkpt lat="48.12495" lon="-3.29216">
        <ele>226.8</ele>
        <time>2024-11-20T09:26:11Z</time>
      </trkpt>
      <trkpt lat="48.12494" lon="-3.29216">
        <ele>226.9</ele>
        <time>2024-11-20T09:26:12Z</time>
      </trkpt>
      <trkpt lat="48.12492" lon="-3.29216">
        <ele>226.9</ele>
        <time>2024-11-20T09:26:13Z</time>
      </trkpt>
      <trkpt lat="48.12491" lon="-3.29216">
        <ele>227</ele>
        <time>2024-11-20T09:26:14Z</time>
      </trkpt>
      <trkpt lat="48.1249" lon="-3.29216">
        <ele>227.1</ele>
        <time>2024-11-20T09:26:15Z</time>
      </trkpt>
      <trkpt lat="48.12489" lon="-3.29217">
        <ele>227.2</ele>
        <time>2024-11-20T09:26:16Z</time>
      </trkpt>
      <trkpt lat="48.12488" lon="-3.29217">
        <ele>227.3</ele>
        <time>2024-11-20T09:26:17Z</time>
      </trkpt>
      <trkpt lat="48.12487" lon="-3.29217">
        <ele>227.3</ele>
        <time>2024-11-20T09:26:18Z</time>
      </trkpt>
      <trkpt lat="48.12486" lon="-3.29216">
        <ele>227.2</ele>
        <time>2024-11-20T09:26:19Z</time>
      </trkpt>
      <trkpt lat="48.12484" lon="-3.29216">
        <ele>227.2</ele>
        <time>2024-11-20T09:26:20Z</time>
      </trkpt>
      <trkpt lat="48.12483" lon="-3.29215">
        <ele>227.1</ele>
        <time>2024-11-20T09:26:21Z</time>
      </trkpt>
      <trkpt lat="48.12482" lon="-3.29215">
        <ele>227</ele>
        <time>2024-11-20T09:26:22Z</time>
      </trkpt>
      <trkpt lat="48.12481" lon="-3.29214">
        <ele>227</ele>
        <time>2024-11-20T09:26:23Z</time>
      </trkpt>
      <trkpt lat="48.1248" lon="-3.29214">
        <ele>226.9</ele>
        <time>2024-11-20T09:26:24Z</time>
      </trkpt>
      <trkpt lat="48.12479" lon="-3.29214">
        <ele>226.9</ele>
        <time>2024-11-20T09:26:25Z</time>
      </trkpt>
      <trkpt lat="48.12478" lon="-3.29213">
        <ele>226.9</ele>
        <time>2024-11-20T09:26:26Z</time>
      </trkpt>
      <trkpt lat="48.12477" lon="-3.29213">
        <ele>226.9</ele>
        <time>2024-11-20T09:26:27Z</time>
      </trkpt>
      <trkpt lat="48.12476" lon="-3.29213">
        <ele>226.8</ele>
        <time>2024-11-20T09:26:28Z</time>
      </trkpt>
      <trkpt lat="48.12474" lon="-3.29212">
        <ele>226.7</ele>
        <time>2024-11-20T09:26:29Z</time>
      </trkpt>
      <trkpt lat="48.12473" lon="-3.29212">
        <ele>226.8</ele>
        <time>2024-11-20T09:26:30Z</time>
      </trkpt>
      <trkpt lat="48.12471" lon="-3.29212">
        <ele>226.8</ele>
        <time>2024-11-20T09:26:31Z</time>
      </trkpt>
      <trkpt lat="48.12471" lon="-3.29212">
        <ele>226.8</ele>
        <time>2024-11-20T09:26:32Z</time>
      </trkpt>
      <trkpt lat="48.1247" lon="-3.29212">
        <ele>226.8</ele>
        <time>2024-11-20T09:26:33Z</time>
      </trkpt>
      <trkpt lat="48.12469" lon="-3.29212">
        <ele>226.8</ele>
        <time>2024-11-20T09:26:34Z</time>
      </trkpt>
      <trkpt lat="48.12468" lon="-3.29212">
        <ele>226.8</ele>
        <time>2024-11-20T09:26:35Z</time>
      </trkpt>
      <trkpt lat="48.12467" lon="-3.29212">
        <ele>226.7</ele>
        <time>2024-11-20T09:26:36Z</time>
      </trkpt>
      <trkpt lat="48.12466" lon="-3.29211">
        <ele>226.7</ele>
        <time>2024-11-20T09:26:37Z</time>
      </trkpt>
      <trkpt lat="48.12465" lon="-3.29211">
        <ele>226.6</ele>
        <time>2024-11-20T09:26:38Z</time>
      </trkpt>
      <trkpt lat="48.12464" lon="-3.2921">
        <ele>226.4</ele>
        <time>2024-11-20T09:26:39Z</time>
      </trkpt>
      <trkpt lat="48.12463" lon="-3.2921">
        <ele>226.4</ele>
        <time>2024-11-20T09:26:40Z</time>
      </trkpt>
      <trkpt lat="48.12462" lon="-3.2921">
        <ele>226.5</ele>
        <time>2024-11-20T09:26:41Z</time>
      </trkpt>
      <trkpt lat="48.12462" lon="-3.2921">
        <ele>226.5</ele>
        <time>2024-11-20T09:26:42Z</time>
      </trkpt>
      <trkpt lat="48.12461" lon="-3.2921">
        <ele>226.6</ele>
        <time>2024-11-20T09:26:43Z</time>
      </trkpt>
      <trkpt lat="48.12461" lon="-3.29211">
        <ele>226.6</ele>
        <time>2024-11-20T09:26:44Z</time>
      </trkpt>
      <trkpt lat="48.1246" lon="-3.29211">
        <ele>226.6</ele>
        <time>2024-11-20T09:26:45Z</time>
      </trkpt>
      <trkpt lat="48.12459" lon="-3.2921">
        <ele>226.6</ele>
        <time>2024-11-20T09:26:46Z</time>
      </trkpt>
      <trkpt lat="48.12458" lon="-3.2921">
        <ele>226.6</ele>
        <time>2024-11-20T09:26:47Z</time>
      </trkpt>
      <trkpt lat="48.12456" lon="-3.2921">
        <ele>226.6</ele>
        <time>2024-11-20T09:26:48Z</time>
      </trkpt>
      <trkpt lat="48.12455" lon="-3.2921">
        <ele>226.5</ele>
        <time>2024-11-20T09:26:49Z</time>
      </trkpt>
      <trkpt lat="48.12453" lon="-3.29209">
        <ele>226.5</ele>
        <time>2024-11-20T09:26:50Z</time>
      </trkpt>
      <trkpt lat="48.12452" lon="-3.29209">
        <ele>226.4</ele>
        <time>2024-11-20T09:26:51Z</time>
      </trkpt>
      <trkpt lat="48.12452" lon="-3.29209">
        <ele>226.4</ele>
        <time>2024-11-20T09:26:52Z</time>
      </trkpt>
      <trkpt lat="48.1245" lon="-3.29208">
        <ele>226.4</ele>
        <time>2024-11-20T09:26:53Z</time>
      </trkpt>
      <trkpt lat="48.12449" lon="-3.29208">
        <ele>226.4</ele>
        <time>2024-11-20T09:26:54Z</time>
      </trkpt>
      <trkpt lat="48.12447" lon="-3.29208">
        <ele>226.4</ele>
        <time>2024-11-20T09:26:55Z</time>
      </trkpt>
      <trkpt lat="48.12446" lon="-3.29208">
        <ele>226.4</ele>
        <time>2024-11-20T09:26:56Z</time>
      </trkpt>
      <trkpt lat="48.12445" lon="-3.29207">
        <ele>226.4</ele>
        <time>2024-11-20T09:26:57Z</time>
      </trkpt>
      <trkpt lat="48.12443" lon="-3.29207">
        <ele>226.3</ele>
        <time>2024-11-20T09:26:58Z</time>
      </trkpt>
      <trkpt lat="48.12443" lon="-3.29206">
        <ele>226.2</ele>
        <time>2024-11-20T09:26:59Z</time>
      </trkpt>
      <trkpt lat="48.12442" lon="-3.29206">
        <ele>226.1</ele>
        <time>2024-11-20T09:27:00Z</time>
      </trkpt>
      <trkpt lat="48.1244" lon="-3.29206">
        <ele>226</ele>
        <time>2024-11-20T09:27:01Z</time>
      </trkpt>
      <trkpt lat="48.12439" lon="-3.29205">
        <ele>225.9</ele>
        <time>2024-11-20T09:27:02Z</time>
      </trkpt>
      <trkpt lat="48.12438" lon="-3.29205">
        <ele>225.8</ele>
        <time>2024-11-20T09:27:03Z</time>
      </trkpt>
      <trkpt lat="48.12437" lon="-3.29205">
        <ele>225.7</ele>
        <time>2024-11-20T09:27:04Z</time>
      </trkpt>
      <trkpt lat="48.12436" lon="-3.29204">
        <ele>225.7</ele>
        <time>2024-11-20T09:27:05Z</time>
      </trkpt>
      <trkpt lat="48.12436" lon="-3.29204">
        <ele>225.6</ele>
        <time>2024-11-20T09:27:06Z</time>
      </trkpt>
      <trkpt lat="48.12435" lon="-3.29204">
        <ele>225.5</ele>
        <time>2024-11-20T09:27:07Z</time>
      </trkpt>
      <trkpt lat="48.12434" lon="-3.29203">
        <ele>225.5</ele>
        <time>2024-11-20T09:27:08Z</time>
      </trkpt>
      <trkpt lat="48.12433" lon="-3.29203">
        <ele>225.4</ele>
        <time>2024-11-20T09:27:09Z</time>
      </trkpt>
      <trkpt lat="48.12432" lon="-3.29203">
        <ele>225.3</ele>
        <time>2024-11-20T09:27:10Z</time>
      </trkpt>
      <trkpt lat="48.12431" lon="-3.29203">
        <ele>225.3</ele>
        <time>2024-11-20T09:27:11Z</time>
      </trkpt>
      <trkpt lat="48.1243" lon="-3.29203">
        <ele>225.2</ele>
        <time>2024-11-20T09:27:12Z</time>
      </trkpt>
      <trkpt lat="48.12429" lon="-3.29202">
        <ele>225.1</ele>
        <time>2024-11-20T09:27:13Z</time>
      </trkpt>
      <trkpt lat="48.12428" lon="-3.29202">
        <ele>225</ele>
        <time>2024-11-20T09:27:14Z</time>
      </trkpt>
      <trkpt lat="48.12427" lon="-3.29201">
        <ele>225</ele>
        <time>2024-11-20T09:27:15Z</time>
      </trkpt>
      <trkpt lat="48.12426" lon="-3.29201">
        <ele>224.9</ele>
        <time>2024-11-20T09:27:16Z</time>
      </trkpt>
      <trkpt lat="48.12425" lon="-3.292">
        <ele>224.8</ele>
        <time>2024-11-20T09:27:17Z</time>
      </trkpt>
      <trkpt lat="48.12423" lon="-3.292">
        <ele>224.7</ele>
        <time>2024-11-20T09:27:18Z</time>
      </trkpt>
      <trkpt lat="48.12422" lon="-3.292">
        <ele>224.6</ele>
        <time>2024-11-20T09:27:19Z</time>
      </trkpt>
      <trkpt lat="48.12421" lon="-3.29199">
        <ele>224.5</ele>
        <time>2024-11-20T09:27:20Z</time>
      </trkpt>
      <trkpt lat="48.1242" lon="-3.29199">
        <ele>224.4</ele>
        <time>2024-11-20T09:27:21Z</time>
      </trkpt>
      <trkpt lat="48.12418" lon="-3.29198">
        <ele>224.3</ele>
        <time>2024-11-20T09:27:22Z</time>
      </trkpt>
      <trkpt lat="48.12417" lon="-3.29197">
        <ele>224.2</ele>
        <time>2024-11-20T09:27:23Z</time>
      </trkpt>
      <trkpt lat="48.12415" lon="-3.29197">
        <ele>224.1</ele>
        <time>2024-11-20T09:27:24Z</time>
      </trkpt>
      <trkpt lat="48.12414" lon="-3.29195">
        <ele>223.9</ele>
        <time>2024-11-20T09:27:25Z</time>
      </trkpt>
      <trkpt lat="48.12413" lon="-3.29195">
        <ele>223.8</ele>
        <time>2024-11-20T09:27:26Z</time>
      </trkpt>
      <trkpt lat="48.12412" lon="-3.29194">
        <ele>223.6</ele>
        <time>2024-11-20T09:27:27Z</time>
      </trkpt>
      <trkpt lat="48.12411" lon="-3.29194">
        <ele>223.6</ele>
        <time>2024-11-20T09:27:28Z</time>
      </trkpt>
      <trkpt lat="48.1241" lon="-3.29194">
        <ele>223.5</ele>
        <time>2024-11-20T09:27:29Z</time>
      </trkpt>
      <trkpt lat="48.12409" lon="-3.29194">
        <ele>223.4</ele>
        <time>2024-11-20T09:27:30Z</time>
      </trkpt>
      <trkpt lat="48.12408" lon="-3.29194">
        <ele>223.3</ele>
        <time>2024-11-20T09:27:31Z</time>
      </trkpt>
      <trkpt lat="48.12407" lon="-3.29194">
        <ele>223.3</ele>
        <time>2024-11-20T09:27:32Z</time>
      </trkpt>
      <trkpt lat="48.12407" lon="-3.29195">
        <ele>223.3</ele>
        <time>2024-11-20T09:27:33Z</time>
      </trkpt>
      <trkpt lat="48.12406" lon="-3.29195">
        <ele>223.2</ele>
        <time>2024-11-20T09:27:34Z</time>
      </trkpt>
      <trkpt lat="48.12404" lon="-3.29195">
        <ele>223.1</ele>
        <time>2024-11-20T09:27:35Z</time>
      </trkpt>
      <trkpt lat="48.12403" lon="-3.29195">
        <ele>223</ele>
        <time>2024-11-20T09:27:36Z</time>
      </trkpt>
      <trkpt lat="48.12401" lon="-3.29194">
        <ele>222.9</ele>
        <time>2024-11-20T09:27:37Z</time>
      </trkpt>
      <trkpt lat="48.124" lon="-3.29194">
        <ele>222.7</ele>
        <time>2024-11-20T09:27:38Z</time>
      </trkpt>
      <trkpt lat="48.12399" lon="-3.29194">
        <ele>222.6</ele>
        <time>2024-11-20T09:27:39Z</time>
      </trkpt>
      <trkpt lat="48.12398" lon="-3.29194">
        <ele>222.6</ele>
        <time>2024-11-20T09:27:40Z</time>
      </trkpt>
      <trkpt lat="48.12398" lon="-3.29194">
        <ele>222.5</ele>
        <time>2024-11-20T09:27:41Z</time>
      </trkpt>
      <trkpt lat="48.12397" lon="-3.29194">
        <ele>222.5</ele>
        <time>2024-11-20T09:27:42Z</time>
      </trkpt>
      <trkpt lat="48.12396" lon="-3.29194">
        <ele>222.5</ele>
        <time>2024-11-20T09:27:43Z</time>
      </trkpt>
      <trkpt lat="48.12395" lon="-3.29194">
        <ele>222.4</ele>
        <time>2024-11-20T09:27:44Z</time>
      </trkpt>
      <trkpt lat="48.12393" lon="-3.29194">
        <ele>222.2</ele>
        <time>2024-11-20T09:27:45Z</time>
      </trkpt>
      <trkpt lat="48.12392" lon="-3.29194">
        <ele>222.1</ele>
        <time>2024-11-20T09:27:46Z</time>
      </trkpt>
      <trkpt lat="48.1239" lon="-3.29193">
        <ele>221.9</ele>
        <time>2024-11-20T09:27:47Z</time>
      </trkpt>
      <trkpt lat="48.12388" lon="-3.29192">
        <ele>221.8</ele>
        <time>2024-11-20T09:27:48Z</time>
      </trkpt>
      <trkpt lat="48.12387" lon="-3.29192">
        <ele>221.8</ele>
        <time>2024-11-20T09:27:49Z</time>
      </trkpt>
      <trkpt lat="48.12386" lon="-3.29191">
        <ele>221.8</ele>
        <time>2024-11-20T09:27:50Z</time>
      </trkpt>
      <trkpt lat="48.12386" lon="-3.29191">
        <ele>221.7</ele>
        <time>2024-11-20T09:27:51Z</time>
      </trkpt>
      <trkpt lat="48.12385" lon="-3.2919">
        <ele>221.7</ele>
        <time>2024-11-20T09:27:52Z</time>
      </trkpt>
      <trkpt lat="48.12385" lon="-3.2919">
        <ele>221.7</ele>
        <time>2024-11-20T09:27:53Z</time>
      </trkpt>
      <trkpt lat="48.12383" lon="-3.29189">
        <ele>221.7</ele>
        <time>2024-11-20T09:27:54Z</time>
      </trkpt>
      <trkpt lat="48.12382" lon="-3.29188">
        <ele>221.7</ele>
        <time>2024-11-20T09:27:55Z</time>
      </trkpt>
      <trkpt lat="48.12381" lon="-3.29188">
        <ele>221.7</ele>
        <time>2024-11-20T09:27:56Z</time>
      </trkpt>
      <trkpt lat="48.12379" lon="-3.29188">
        <ele>221.7</ele>
        <time>2024-11-20T09:27:57Z</time>
      </trkpt>
      <trkpt lat="48.12378" lon="-3.29188">
        <ele>221.7</ele>
        <time>2024-11-20T09:27:58Z</time>
      </trkpt>
      <trkpt lat="48.12376" lon="-3.29187">
        <ele>221.7</ele>
        <time>2024-11-20T09:27:59Z</time>
      </trkpt>
      <trkpt lat="48.12374" lon="-3.29186">
        <ele>221.7</ele>
        <time>2024-11-20T09:28:00Z</time>
      </trkpt>
      <trkpt lat="48.12372" lon="-3.29185">
        <ele>221.7</ele>
        <time>2024-11-20T09:28:01Z</time>
      </trkpt>
      <trkpt lat="48.1237" lon="-3.29184">
        <ele>221.7</ele>
        <time>2024-11-20T09:28:02Z</time>
      </trkpt>
      <trkpt lat="48.12368" lon="-3.29183">
        <ele>221.8</ele>
        <time>2024-11-20T09:28:03Z</time>
      </trkpt>
      <trkpt lat="48.12367" lon="-3.29183">
        <ele>221.8</ele>
        <time>2024-11-20T09:28:04Z</time>
      </trkpt>
      <trkpt lat="48.12367" lon="-3.29182">
        <ele>221.8</ele>
        <time>2024-11-20T09:28:05Z</time>
      </trkpt>
      <trkpt lat="48.12366" lon="-3.29182">
        <ele>221.8</ele>
        <time>2024-11-20T09:28:06Z</time>
      </trkpt>
      <trkpt lat="48.12366" lon="-3.29183">
        <ele>221.8</ele>
        <time>2024-11-20T09:28:07Z</time>
      </trkpt>
      <trkpt lat="48.12366" lon="-3.29183">
        <ele>221.9</ele>
        <time>2024-11-20T09:28:08Z</time>
      </trkpt>
      <trkpt lat="48.12365" lon="-3.29184">
        <ele>221.9</ele>
        <time>2024-11-20T09:28:09Z</time>
      </trkpt>
      <trkpt lat="48.12364" lon="-3.29184">
        <ele>221.9</ele>
        <time>2024-11-20T09:28:10Z</time>
      </trkpt>
      <trkpt lat="48.12362" lon="-3.29183">
        <ele>222</ele>
        <time>2024-11-20T09:28:11Z</time>
      </trkpt>
      <trkpt lat="48.1236" lon="-3.29182">
        <ele>221.9</ele>
        <time>2024-11-20T09:28:12Z</time>
      </trkpt>
      <trkpt lat="48.12358" lon="-3.2918">
        <ele>221.8</ele>
        <time>2024-11-20T09:28:13Z</time>
      </trkpt>
      <trkpt lat="48.12356" lon="-3.29178">
        <ele>221.6</ele>
        <time>2024-11-20T09:28:14Z</time>
      </trkpt>
      <trkpt lat="48.12354" lon="-3.29176">
        <ele>221.5</ele>
        <time>2024-11-20T09:28:15Z</time>
      </trkpt>
      <trkpt lat="48.12353" lon="-3.29175">
        <ele>221.4</ele>
        <time>2024-11-20T09:28:16Z</time>
      </trkpt>
      <trkpt lat="48.12352" lon="-3.29175">
        <ele>221.3</ele>
        <time>2024-11-20T09:28:17Z</time>
      </trkpt>
      <trkpt lat="48.12352" lon="-3.29175">
        <ele>221.3</ele>
        <time>2024-11-20T09:28:18Z</time>
      </trkpt>
      <trkpt lat="48.1235" lon="-3.29174">
        <ele>221.1</ele>
        <time>2024-11-20T09:28:19Z</time>
      </trkpt>
      <trkpt lat="48.12349" lon="-3.29174">
        <ele>221</ele>
        <time>2024-11-20T09:28:20Z</time>
      </trkpt>
      <trkpt lat="48.12347" lon="-3.29173">
        <ele>220.9</ele>
        <time>2024-11-20T09:28:21Z</time>
      </trkpt>
      <trkpt lat="48.12346" lon="-3.29172">
        <ele>220.7</ele>
        <time>2024-11-20T09:28:22Z</time>
      </trkpt>
      <trkpt lat="48.12345" lon="-3.29171">
        <ele>220.5</ele>
        <time>2024-11-20T09:28:23Z</time>
      </trkpt>
      <trkpt lat="48.12343" lon="-3.29171">
        <ele>220.3</ele>
        <time>2024-11-20T09:28:24Z</time>
      </trkpt>
      <trkpt lat="48.12342" lon="-3.2917">
        <ele>220.1</ele>
        <time>2024-11-20T09:28:25Z</time>
      </trkpt>
      <trkpt lat="48.1234" lon="-3.2917">
        <ele>220</ele>
        <time>2024-11-20T09:28:26Z</time>
      </trkpt>
      <trkpt lat="48.12339" lon="-3.29169">
        <ele>219.8</ele>
        <time>2024-11-20T09:28:27Z</time>
      </trkpt>
      <trkpt lat="48.12337" lon="-3.29169">
        <ele>219.6</ele>
        <time>2024-11-20T09:28:28Z</time>
      </trkpt>
      <trkpt lat="48.12336" lon="-3.29169">
        <ele>219.5</ele>
        <time>2024-11-20T09:28:29Z</time>
      </trkpt>
      <trkpt lat="48.12335" lon="-3.29168">
        <ele>219.4</ele>
        <time>2024-11-20T09:28:30Z</time>
      </trkpt>
      <trkpt lat="48.12334" lon="-3.29168">
        <ele>219.2</ele>
        <time>2024-11-20T09:28:31Z</time>
      </trkpt>
      <trkpt lat="48.12333" lon="-3.29168">
        <ele>219.1</ele>
        <time>2024-11-20T09:28:32Z</time>
      </trkpt>
      <trkpt lat="48.12332" lon="-3.29168">
        <ele>219.1</ele>
        <time>2024-11-20T09:28:33Z</time>
      </trkpt>
      <trkpt lat="48.12331" lon="-3.29167">
        <ele>219.1</ele>
        <time>2024-11-20T09:28:34Z</time>
      </trkpt>
      <trkpt lat="48.1233" lon="-3.29167">
        <ele>219</ele>
        <time>2024-11-20T09:28:35Z</time>
      </trkpt>
      <trkpt lat="48.12329" lon="-3.29166">
        <ele>219</ele>
        <time>2024-11-20T09:28:36Z</time>
      </trkpt>
      <trkpt lat="48.12328" lon="-3.29166">
        <ele>219</ele>
        <time>2024-11-20T09:28:37Z</time>
      </trkpt>
      <trkpt lat="48.12327" lon="-3.29165">
        <ele>219</ele>
        <time>2024-11-20T09:28:38Z</time>
      </trkpt>
      <trkpt lat="48.12326" lon="-3.29165">
        <ele>219</ele>
        <time>2024-11-20T09:28:39Z</time>
      </trkpt>
      <trkpt lat="48.12325" lon="-3.29164">
        <ele>219</ele>
        <time>2024-11-20T09:28:40Z</time>
      </trkpt>
      <trkpt lat="48.12324" lon="-3.29163">
        <ele>219</ele>
        <time>2024-11-20T09:28:41Z</time>
      </trkpt>
      <trkpt lat="48.12323" lon="-3.29162">
        <ele>219</ele>
        <time>2024-11-20T09:28:42Z</time>
      </trkpt>
      <trkpt lat="48.12322" lon="-3.29162">
        <ele>219</ele>
        <time>2024-11-20T09:28:43Z</time>
      </trkpt>
      <trkpt lat="48.12321" lon="-3.29161">
        <ele>219</ele>
        <time>2024-11-20T09:28:44Z</time>
      </trkpt>
      <trkpt lat="48.12321" lon="-3.29161">
        <ele>219</ele>
        <time>2024-11-20T09:28:45Z</time>
      </trkpt>
      <trkpt lat="48.1232" lon="-3.2916">
        <ele>219</ele>
        <time>2024-11-20T09:28:46Z</time>
      </trkpt>
      <trkpt lat="48.12319" lon="-3.29159">
        <ele>219</ele>
        <time>2024-11-20T09:28:47Z</time>
      </trkpt>
      <trkpt lat="48.12318" lon="-3.29158">
        <ele>219</ele>
        <time>2024-11-20T09:28:48Z</time>
      </trkpt>
      <trkpt lat="48.12317" lon="-3.29157">
        <ele>218.9</ele>
        <time>2024-11-20T09:28:49Z</time>
      </trkpt>
      <trkpt lat="48.12316" lon="-3.29156">
        <ele>218.9</ele>
        <time>2024-11-20T09:28:50Z</time>
      </trkpt>
      <trkpt lat="48.12315" lon="-3.29155">
        <ele>218.9</ele>
        <time>2024-11-20T09:28:51Z</time>
      </trkpt>
      <trkpt lat="48.12314" lon="-3.29154">
        <ele>218.8</ele>
        <time>2024-11-20T09:28:52Z</time>
      </trkpt>
      <trkpt lat="48.12313" lon="-3.29153">
        <ele>218.8</ele>
        <time>2024-11-20T09:28:53Z</time>
      </trkpt>
      <trkpt lat="48.12312" lon="-3.29152">
        <ele>218.7</ele>
        <time>2024-11-20T09:28:54Z</time>
      </trkpt>
      <trkpt lat="48.1231" lon="-3.29152">
        <ele>218.6</ele>
        <time>2024-11-20T09:28:55Z</time>
      </trkpt>
      <trkpt lat="48.12309" lon="-3.29151">
        <ele>218.6</ele>
        <time>2024-11-20T09:28:56Z</time>
      </trkpt>
      <trkpt lat="48.12308" lon="-3.2915">
        <ele>218.5</ele>
        <time>2024-11-20T09:28:57Z</time>
      </trkpt>
      <trkpt lat="48.12307" lon="-3.29149">
        <ele>218.4</ele>
        <time>2024-11-20T09:28:58Z</time>
      </trkpt>
      <trkpt lat="48.12306" lon="-3.29148">
        <ele>218.4</ele>
        <time>2024-11-20T09:28:59Z</time>
      </trkpt>
      <trkpt lat="48.12306" lon="-3.29147">
        <ele>218.3</ele>
        <time>2024-11-20T09:29:00Z</time>
      </trkpt>
      <trkpt lat="48.12305" lon="-3.29147">
        <ele>218.2</ele>
        <time>2024-11-20T09:29:01Z</time>
      </trkpt>
      <trkpt lat="48.12304" lon="-3.29147">
        <ele>218.1</ele>
        <time>2024-11-20T09:29:02Z</time>
      </trkpt>
      <trkpt lat="48.12303" lon="-3.29147">
        <ele>217.9</ele>
        <time>2024-11-20T09:29:03Z</time>
      </trkpt>
      <trkpt lat="48.12302" lon="-3.29147">
        <ele>217.8</ele>
        <time>2024-11-20T09:29:04Z</time>
      </trkpt>
      <trkpt lat="48.12301" lon="-3.29147">
        <ele>217.6</ele>
        <time>2024-11-20T09:29:05Z</time>
      </trkpt>
      <trkpt lat="48.12299" lon="-3.29147">
        <ele>217.5</ele>
        <time>2024-11-20T09:29:06Z</time>
      </trkpt>
      <trkpt lat="48.12298" lon="-3.29147">
        <ele>217.3</ele>
        <time>2024-11-20T09:29:07Z</time>
      </trkpt>
      <trkpt lat="48.12297" lon="-3.29147">
        <ele>217.1</ele>
        <time>2024-11-20T09:29:08Z</time>
      </trkpt>
      <trkpt lat="48.12296" lon="-3.29147">
        <ele>216.9</ele>
        <time>2024-11-20T09:29:09Z</time>
      </trkpt>
      <trkpt lat="48.12295" lon="-3.29147">
        <ele>216.8</ele>
        <time>2024-11-20T09:29:10Z</time>
      </trkpt>
      <trkpt lat="48.12294" lon="-3.29147">
        <ele>216.7</ele>
        <time>2024-11-20T09:29:11Z</time>
      </trkpt>
      <trkpt lat="48.12293" lon="-3.29147">
        <ele>216.5</ele>
        <time>2024-11-20T09:29:12Z</time>
      </trkpt>
      <trkpt lat="48.12292" lon="-3.29147">
        <ele>216.4</ele>
        <time>2024-11-20T09:29:13Z</time>
      </trkpt>
      <trkpt lat="48.12291" lon="-3.29147">
        <ele>216.3</ele>
        <time>2024-11-20T09:29:14Z</time>
      </trkpt>
      <trkpt lat="48.1229" lon="-3.29146">
        <ele>216.1</ele>
        <time>2024-11-20T09:29:15Z</time>
      </trkpt>
      <trkpt lat="48.12289" lon="-3.29146">
        <ele>216</ele>
        <time>2024-11-20T09:29:16Z</time>
      </trkpt>
      <trkpt lat="48.12287" lon="-3.29146">
        <ele>215.8</ele>
        <time>2024-11-20T09:29:17Z</time>
      </trkpt>
      <trkpt lat="48.12286" lon="-3.29146">
        <ele>215.6</ele>
        <time>2024-11-20T09:29:18Z</time>
      </trkpt>
      <trkpt lat="48.12285" lon="-3.29145">
        <ele>215.5</ele>
        <time>2024-11-20T09:29:19Z</time>
      </trkpt>
      <trkpt lat="48.12284" lon="-3.29145">
        <ele>215.3</ele>
        <time>2024-11-20T09:29:20Z</time>
      </trkpt>
      <trkpt lat="48.12283" lon="-3.29145">
        <ele>215.2</ele>
        <time>2024-11-20T09:29:21Z</time>
      </trkpt>
      <trkpt lat="48.12282" lon="-3.29145">
        <ele>215</ele>
        <time>2024-11-20T09:29:22Z</time>
      </trkpt>
      <trkpt lat="48.12282" lon="-3.29145">
        <ele>214.9</ele>
        <time>2024-11-20T09:29:23Z</time>
      </trkpt>
      <trkpt lat="48.12281" lon="-3.29145">
        <ele>214.9</ele>
        <time>2024-11-20T09:29:24Z</time>
      </trkpt>
      <trkpt lat="48.12281" lon="-3.29144">
        <ele>214.8</ele>
        <time>2024-11-20T09:29:25Z</time>
      </trkpt>
      <trkpt lat="48.12281" lon="-3.29144">
        <ele>214.8</ele>
        <time>2024-11-20T09:29:26Z</time>
      </trkpt>
      <trkpt lat="48.1228" lon="-3.29144">
        <ele>214.7</ele>
        <time>2024-11-20T09:29:27Z</time>
      </trkpt>
      <trkpt lat="48.1228" lon="-3.29144">
        <ele>214.7</ele>
        <time>2024-11-20T09:29:28Z</time>
      </trkpt>
      <trkpt lat="48.12279" lon="-3.29145">
        <ele>214.6</ele>
        <time>2024-11-20T09:29:29Z</time>
      </trkpt>
      <trkpt lat="48.12278" lon="-3.29145">
        <ele>214.5</ele>
        <time>2024-11-20T09:29:30Z</time>
      </trkpt>
      <trkpt lat="48.12278" lon="-3.29145">
        <ele>214.4</ele>
        <time>2024-11-20T09:29:31Z</time>
      </trkpt>
      <trkpt lat="48.12277" lon="-3.29145">
        <ele>214.3</ele>
        <time>2024-11-20T09:29:32Z</time>
      </trkpt>
      <trkpt lat="48.12276" lon="-3.29145">
        <ele>214.2</ele>
        <time>2024-11-20T09:29:33Z</time>
      </trkpt>
      <trkpt lat="48.12276" lon="-3.29145">
        <ele>214.1</ele>
        <time>2024-11-20T09:29:34Z</time>
      </trkpt>
      <trkpt lat="48.12275" lon="-3.29145">
        <ele>214</ele>
        <time>2024-11-20T09:29:35Z</time>
      </trkpt>
      <trkpt lat="48.12274" lon="-3.29144">
        <ele>213.9</ele>
        <time>2024-11-20T09:29:36Z</time>
      </trkpt>
      <trkpt lat="48.12273" lon="-3.29144">
        <ele>213.7</ele>
        <time>2024-11-20T09:29:37Z</time>
      </trkpt>
      <trkpt lat="48.12272" lon="-3.29144">
        <ele>213.6</ele>
        <time>2024-11-20T09:29:38Z</time>
      </trkpt>
      <trkpt lat="48.12271" lon="-3.29144">
        <ele>213.5</ele>
        <time>2024-11-20T09:29:39Z</time>
      </trkpt>
      <trkpt lat="48.1227" lon="-3.29145">
        <ele>213.3</ele>
        <time>2024-11-20T09:29:40Z</time>
      </trkpt>
      <trkpt lat="48.12269" lon="-3.29145">
        <ele>213.2</ele>
        <time>2024-11-20T09:29:41Z</time>
      </trkpt>
      <trkpt lat="48.12268" lon="-3.29146">
        <ele>213.1</ele>
        <time>2024-11-20T09:29:42Z</time>
      </trkpt>
      <trkpt lat="48.12267" lon="-3.29146">
        <ele>212.9</ele>
        <time>2024-11-20T09:29:43Z</time>
      </trkpt>
      <trkpt lat="48.12266" lon="-3.29147">
        <ele>212.8</ele>
        <time>2024-11-20T09:29:44Z</time>
      </trkpt>
      <trkpt lat="48.12265" lon="-3.29147">
        <ele>212.7</ele>
        <time>2024-11-20T09:29:45Z</time>
      </trkpt>
      <trkpt lat="48.12264" lon="-3.29148">
        <ele>212.7</ele>
        <time>2024-11-20T09:29:46Z</time>
      </trkpt>
      <trkpt lat="48.12263" lon="-3.29149">
        <ele>212.6</ele>
        <time>2024-11-20T09:29:47Z</time>
      </trkpt>
      <trkpt lat="48.12262" lon="-3.2915">
        <ele>212.6</ele>
        <time>2024-11-20T09:29:48Z</time>
      </trkpt>
      <trkpt lat="48.12262" lon="-3.2915">
        <ele>212.5</ele>
        <time>2024-11-20T09:29:49Z</time>
      </trkpt>
      <trkpt lat="48.12261" lon="-3.29151">
        <ele>212.4</ele>
        <time>2024-11-20T09:29:50Z</time>
      </trkpt>
      <trkpt lat="48.12259" lon="-3.29152">
        <ele>212.3</ele>
        <time>2024-11-20T09:29:51Z</time>
      </trkpt>
      <trkpt lat="48.12259" lon="-3.29153">
        <ele>212.2</ele>
        <time>2024-11-20T09:29:52Z</time>
      </trkpt>
      <trkpt lat="48.12258" lon="-3.29153">
        <ele>212.1</ele>
        <time>2024-11-20T09:29:53Z</time>
      </trkpt>
      <trkpt lat="48.12257" lon="-3.29154">
        <ele>212.1</ele>
        <time>2024-11-20T09:29:54Z</time>
      </trkpt>
      <trkpt lat="48.12256" lon="-3.29155">
        <ele>212.1</ele>
        <time>2024-11-20T09:29:55Z</time>
      </trkpt>
      <trkpt lat="48.12256" lon="-3.29156">
        <ele>212</ele>
        <time>2024-11-20T09:29:56Z</time>
      </trkpt>
      <trkpt lat="48.12255" lon="-3.29157">
        <ele>212</ele>
        <time>2024-11-20T09:29:57Z</time>
      </trkpt>
      <trkpt lat="48.12254" lon="-3.29158">
        <ele>212</ele>
        <time>2024-11-20T09:29:58Z</time>
      </trkpt>
      <trkpt lat="48.12254" lon="-3.2916">
        <ele>212</ele>
        <time>2024-11-20T09:29:59Z</time>
      </trkpt>
      <trkpt lat="48.12253" lon="-3.29161">
        <ele>212</ele>
        <time>2024-11-20T09:30:00Z</time>
      </trkpt>
      <trkpt lat="48.12252" lon="-3.29163">
        <ele>212.1</ele>
        <time>2024-11-20T09:30:01Z</time>
      </trkpt>
      <trkpt lat="48.12252" lon="-3.29164">
        <ele>212.1</ele>
        <time>2024-11-20T09:30:02Z</time>
      </trkpt>
      <trkpt lat="48.12251" lon="-3.29166">
        <ele>212.1</ele>
        <time>2024-11-20T09:30:03Z</time>
      </trkpt>
      <trkpt lat="48.12251" lon="-3.29168">
        <ele>212.2</ele>
        <time>2024-11-20T09:30:04Z</time>
      </trkpt>
      <trkpt lat="48.12251" lon="-3.29169">
        <ele>212.3</ele>
        <time>2024-11-20T09:30:05Z</time>
      </trkpt>
      <trkpt lat="48.12251" lon="-3.29171">
        <ele>212.4</ele>
        <time>2024-11-20T09:30:06Z</time>
      </trkpt>
      <trkpt lat="48.12251" lon="-3.29173">
        <ele>212.6</ele>
        <time>2024-11-20T09:30:07Z</time>
      </trkpt>
      <trkpt lat="48.12252" lon="-3.29174">
        <ele>212.7</ele>
        <time>2024-11-20T09:30:08Z</time>
      </trkpt>
      <trkpt lat="48.12252" lon="-3.29175">
        <ele>212.9</ele>
        <time>2024-11-20T09:30:09Z</time>
      </trkpt>
      <trkpt lat="48.12252" lon="-3.29177">
        <ele>213</ele>
        <time>2024-11-20T09:30:10Z</time>
      </trkpt>
      <trkpt lat="48.12253" lon="-3.29179">
        <ele>213.2</ele>
        <time>2024-11-20T09:30:11Z</time>
      </trkpt>
      <trkpt lat="48.12253" lon="-3.29181">
        <ele>213.4</ele>
        <time>2024-11-20T09:30:12Z</time>
      </trkpt>
      <trkpt lat="48.12253" lon="-3.29182">
        <ele>213.6</ele>
        <time>2024-11-20T09:30:13Z</time>
      </trkpt>
      <trkpt lat="48.12253" lon="-3.29184">
        <ele>213.7</ele>
        <time>2024-11-20T09:30:14Z</time>
      </trkpt>
      <trkpt lat="48.12253" lon="-3.29185">
        <ele>213.8</ele>
        <time>2024-11-20T09:30:15Z</time>
      </trkpt>
      <trkpt lat="48.12254" lon="-3.29186">
        <ele>213.9</ele>
        <time>2024-11-20T09:30:16Z</time>
      </trkpt>
      <trkpt lat="48.12254" lon="-3.29187">
        <ele>214.1</ele>
        <time>2024-11-20T09:30:17Z</time>
      </trkpt>
      <trkpt lat="48.12255" lon="-3.29189">
        <ele>214.2</ele>
        <time>2024-11-20T09:30:18Z</time>
      </trkpt>
      <trkpt lat="48.12255" lon="-3.2919">
        <ele>214.4</ele>
        <time>2024-11-20T09:30:19Z</time>
      </trkpt>
      <trkpt lat="48.12255" lon="-3.29192">
        <ele>214.5</ele>
        <time>2024-11-20T09:30:20Z</time>
      </trkpt>
      <trkpt lat="48.12255" lon="-3.29193">
        <ele>214.6</ele>
        <time>2024-11-20T09:30:21Z</time>
      </trkpt>
      <trkpt lat="48.12255" lon="-3.29195">
        <ele>214.7</ele>
        <time>2024-11-20T09:30:22Z</time>
      </trkpt>
      <trkpt lat="48.12255" lon="-3.29196">
        <ele>214.8</ele>
        <time>2024-11-20T09:30:23Z</time>
      </trkpt>
      <trkpt lat="48.12255" lon="-3.29198">
        <ele>215</ele>
        <time>2024-11-20T09:30:24Z</time>
      </trkpt>
      <trkpt lat="48.12255" lon="-3.29199">
        <ele>215.1</ele>
        <time>2024-11-20T09:30:25Z</time>
      </trkpt>
      <trkpt lat="48.12255" lon="-3.292">
        <ele>215.2</ele>
        <time>2024-11-20T09:30:26Z</time>
      </trkpt>
      <trkpt lat="48.12256" lon="-3.29202">
        <ele>215.3</ele>
        <time>2024-11-20T09:30:27Z</time>
      </trkpt>
      <trkpt lat="48.12256" lon="-3.29203">
        <ele>215.5</ele>
        <time>2024-11-20T09:30:28Z</time>
      </trkpt>
      <trkpt lat="48.12256" lon="-3.29205">
        <ele>215.6</ele>
        <time>2024-11-20T09:30:29Z</time>
      </trkpt>
      <trkpt lat="48.12256" lon="-3.29207">
        <ele>215.7</ele>
        <time>2024-11-20T09:30:30Z</time>
      </trkpt>
      <trkpt lat="48.12256" lon="-3.29208">
        <ele>215.9</ele>
        <time>2024-11-20T09:30:31Z</time>
      </trkpt>
      <trkpt lat="48.12256" lon="-3.2921">
        <ele>216</ele>
        <time>2024-11-20T09:30:32Z</time>
      </trkpt>
      <trkpt lat="48.12256" lon="-3.29212">
        <ele>216.1</ele>
        <time>2024-11-20T09:30:33Z</time>
      </trkpt>
      <trkpt lat="48.12256" lon="-3.29213">
        <ele>216.2</ele>
        <time>2024-11-20T09:30:34Z</time>
      </trkpt>
      <trkpt lat="48.12256" lon="-3.29215">
        <ele>216.3</ele>
        <time>2024-11-20T09:30:35Z</time>
      </trkpt>
      <trkpt lat="48.12256" lon="-3.29217">
        <ele>216.5</ele>
        <time>2024-11-20T09:30:36Z</time>
      </trkpt>
      <trkpt lat="48.12256" lon="-3.29218">
        <ele>216.6</ele>
        <time>2024-11-20T09:30:37Z</time>
      </trkpt>
      <trkpt lat="48.12256" lon="-3.2922">
        <ele>216.7</ele>
        <time>2024-11-20T09:30:38Z</time>
      </trkpt>
      <trkpt lat="48.12257" lon="-3.29221">
        <ele>216.8</ele>
        <time>2024-11-20T09:30:39Z</time>
      </trkpt>
      <trkpt lat="48.12257" lon="-3.29223">
        <ele>217</ele>
        <time>2024-11-20T09:30:40Z</time>
      </trkpt>
      <trkpt lat="48.12257" lon="-3.29225">
        <ele>217</ele>
        <time>2024-11-20T09:30:41Z</time>
      </trkpt>
      <trkpt lat="48.12257" lon="-3.29226">
        <ele>217</ele>
        <time>2024-11-20T09:30:42Z</time>
      </trkpt>
      <trkpt lat="48.12257" lon="-3.29228">
        <ele>217</ele>
        <time>2024-11-20T09:30:43Z</time>
      </trkpt>
      <trkpt lat="48.12257" lon="-3.2923">
        <ele>217</ele>
        <time>2024-11-20T09:30:44Z</time>
      </trkpt>
      <trkpt lat="48.12257" lon="-3.29231">
        <ele>217</ele>
        <time>2024-11-20T09:30:45Z</time>
      </trkpt>
      <trkpt lat="48.12257" lon="-3.29233">
        <ele>217</ele>
        <time>2024-11-20T09:30:46Z</time>
      </trkpt>
      <trkpt lat="48.12257" lon="-3.29233">
        <ele>217</ele>
        <time>2024-11-20T09:30:47Z</time>
      </trkpt>
      <trkpt lat="48.12257" lon="-3.29233">
        <ele>217</ele>
        <time>2024-11-20T09:30:48Z</time>
      </trkpt>
      <trkpt lat="48.12257" lon="-3.29233">
        <ele>217</ele>
        <time>2024-11-20T09:30:49Z</time>
      </trkpt>
      <trkpt lat="48.12257" lon="-3.29234">
        <ele>217</ele>
        <time>2024-11-20T09:30:50Z</time>
      </trkpt>
      <trkpt lat="48.12257" lon="-3.29234">
        <ele>217</ele>
        <time>2024-11-20T09:30:51Z</time>
      </trkpt>
      <trkpt lat="48.12257" lon="-3.29235">
        <ele>217.1</ele>
        <time>2024-11-20T09:30:52Z</time>
      </trkpt>
      <trkpt lat="48.12257" lon="-3.29236">
        <ele>217.1</ele>
        <time>2024-11-20T09:30:53Z</time>
      </trkpt>
      <trkpt lat="48.12258" lon="-3.29238">
        <ele>217.1</ele>
        <time>2024-11-20T09:30:54Z</time>
      </trkpt>
      <trkpt lat="48.12258" lon="-3.29239">
        <ele>217.2</ele>
        <time>2024-11-20T09:30:55Z</time>
      </trkpt>
      <trkpt lat="48.12258" lon="-3.29241">
        <ele>217.2</ele>
        <time>2024-11-20T09:30:56Z</time>
      </trkpt>
      <trkpt lat="48.12258" lon="-3.29242">
        <ele>217.2</ele>
        <time>2024-11-20T09:30:57Z</time>
      </trkpt>
      <trkpt lat="48.12259" lon="-3.29244">
        <ele>217.2</ele>
        <time>2024-11-20T09:30:58Z</time>
      </trkpt>
      <trkpt lat="48.12259" lon="-3.29247">
        <ele>217.2</ele>
        <time>2024-11-20T09:30:59Z</time>
      </trkpt>
      <trkpt lat="48.12258" lon="-3.29248">
        <ele>217.2</ele>
        <time>2024-11-20T09:31:00Z</time>
      </trkpt>
      <trkpt lat="48.12258" lon="-3.2925">
        <ele>217.2</ele>
        <time>2024-11-20T09:31:01Z</time>
      </trkpt>
      <trkpt lat="48.12259" lon="-3.29252">
        <ele>217.3</ele>
        <time>2024-11-20T09:31:02Z</time>
      </trkpt>
      <trkpt lat="48.12259" lon="-3.29253">
        <ele>217.3</ele>
        <time>2024-11-20T09:31:03Z</time>
      </trkpt>
      <trkpt lat="48.12259" lon="-3.29255">
        <ele>217.4</ele>
        <time>2024-11-20T09:31:04Z</time>
      </trkpt>
      <trkpt lat="48.12259" lon="-3.29257">
        <ele>217.5</ele>
        <time>2024-11-20T09:31:05Z</time>
      </trkpt>
      <trkpt lat="48.12259" lon="-3.29259">
        <ele>217.5</ele>
        <time>2024-11-20T09:31:06Z</time>
      </trkpt>
      <trkpt lat="48.12259" lon="-3.29261">
        <ele>217.5</ele>
        <time>2024-11-20T09:31:07Z</time>
      </trkpt>
      <trkpt lat="48.12259" lon="-3.29263">
        <ele>217.6</ele>
        <time>2024-11-20T09:31:08Z</time>
      </trkpt>
      <trkpt lat="48.12259" lon="-3.29265">
        <ele>217.6</ele>
        <time>2024-11-20T09:31:09Z</time>
      </trkpt>
      <trkpt lat="48.12258" lon="-3.29268">
        <ele>217.6</ele>
        <time>2024-11-20T09:31:10Z</time>
      </trkpt>
      <trkpt lat="48.12258" lon="-3.2927">
        <ele>217.7</ele>
        <time>2024-11-20T09:31:11Z</time>
      </trkpt>
      <trkpt lat="48.12258" lon="-3.29272">
        <ele>217.7</ele>
        <time>2024-11-20T09:31:12Z</time>
      </trkpt>
      <trkpt lat="48.12258" lon="-3.29274">
        <ele>217.8</ele>
        <time>2024-11-20T09:31:13Z</time>
      </trkpt>
      <trkpt lat="48.12258" lon="-3.29276">
        <ele>217.8</ele>
        <time>2024-11-20T09:31:14Z</time>
      </trkpt>
      <trkpt lat="48.12258" lon="-3.29279">
        <ele>217.8</ele>
        <time>2024-11-20T09:31:15Z</time>
      </trkpt>
      <trkpt lat="48.12258" lon="-3.29281">
        <ele>217.7</ele>
        <time>2024-11-20T09:31:16Z</time>
      </trkpt>
      <trkpt lat="48.12258" lon="-3.29284">
        <ele>217.7</ele>
        <time>2024-11-20T09:31:17Z</time>
      </trkpt>
      <trkpt lat="48.12257" lon="-3.29286">
        <ele>217.6</ele>
        <time>2024-11-20T09:31:18Z</time>
      </trkpt>
      <trkpt lat="48.12257" lon="-3.29288">
        <ele>217.5</ele>
        <time>2024-11-20T09:31:19Z</time>
      </trkpt>
      <trkpt lat="48.12257" lon="-3.2929">
        <ele>217.4</ele>
        <time>2024-11-20T09:31:20Z</time>
      </trkpt>
      <trkpt lat="48.12257" lon="-3.29292">
        <ele>217.4</ele>
        <time>2024-11-20T09:31:21Z</time>
      </trkpt>
      <trkpt lat="48.12257" lon="-3.29294">
        <ele>217.3</ele>
        <time>2024-11-20T09:31:22Z</time>
      </trkpt>
      <trkpt lat="48.12257" lon="-3.29296">
        <ele>217.3</ele>
        <time>2024-11-20T09:31:23Z</time>
      </trkpt>
      <trkpt lat="48.12257" lon="-3.29297">
        <ele>217.3</ele>
        <time>2024-11-20T09:31:24Z</time>
      </trkpt>
      <trkpt lat="48.12257" lon="-3.29298">
        <ele>217.2</ele>
        <time>2024-11-20T09:31:25Z</time>
      </trkpt>
      <trkpt lat="48.12257" lon="-3.29301">
        <ele>217.2</ele>
        <time>2024-11-20T09:31:26Z</time>
      </trkpt>
      <trkpt lat="48.12257" lon="-3.29303">
        <ele>217.1</ele>
        <time>2024-11-20T09:31:27Z</time>
      </trkpt>
      <trkpt lat="48.12257" lon="-3.29305">
        <ele>217.1</ele>
        <time>2024-11-20T09:31:28Z</time>
      </trkpt>
      <trkpt lat="48.12257" lon="-3.29307">
        <ele>217.1</ele>
        <time>2024-11-20T09:31:29Z</time>
      </trkpt>
      <trkpt lat="48.12257" lon="-3.29309">
        <ele>217.1</ele>
        <time>2024-11-20T09:31:30Z</time>
      </trkpt>
      <trkpt lat="48.12257" lon="-3.29311">
        <ele>217.1</ele>
        <time>2024-11-20T09:31:31Z</time>
      </trkpt>
      <trkpt lat="48.12257" lon="-3.29314">
        <ele>217</ele>
        <time>2024-11-20T09:31:32Z</time>
      </trkpt>
      <trkpt lat="48.12257" lon="-3.29316">
        <ele>217</ele>
        <time>2024-11-20T09:31:33Z</time>
      </trkpt>
      <trkpt lat="48.12257" lon="-3.29318">
        <ele>217</ele>
        <time>2024-11-20T09:31:34Z</time>
      </trkpt>
      <trkpt lat="48.12257" lon="-3.2932">
        <ele>217</ele>
        <time>2024-11-20T09:31:35Z</time>
      </trkpt>
      <trkpt lat="48.12257" lon="-3.29322">
        <ele>217</ele>
        <time>2024-11-20T09:31:36Z</time>
      </trkpt>
      <trkpt lat="48.12257" lon="-3.29323">
        <ele>217</ele>
        <time>2024-11-20T09:31:37Z</time>
      </trkpt>
      <trkpt lat="48.12257" lon="-3.29325">
        <ele>216.9</ele>
        <time>2024-11-20T09:31:38Z</time>
      </trkpt>
      <trkpt lat="48.12257" lon="-3.29327">
        <ele>216.9</ele>
        <time>2024-11-20T09:31:39Z</time>
      </trkpt>
      <trkpt lat="48.12256" lon="-3.29328">
        <ele>216.9</ele>
        <time>2024-11-20T09:31:40Z</time>
      </trkpt>
      <trkpt lat="48.12256" lon="-3.2933">
        <ele>216.9</ele>
        <time>2024-11-20T09:31:41Z</time>
      </trkpt>
      <trkpt lat="48.12256" lon="-3.29331">
        <ele>216.9</ele>
        <time>2024-11-20T09:31:42Z</time>
      </trkpt>
      <trkpt lat="48.12256" lon="-3.29332">
        <ele>216.9</ele>
        <time>2024-11-20T09:31:43Z</time>
      </trkpt>
      <trkpt lat="48.12256" lon="-3.29334">
        <ele>216.9</ele>
        <time>2024-11-20T09:31:44Z</time>
      </trkpt>
      <trkpt lat="48.12256" lon="-3.29336">
        <ele>216.8</ele>
        <time>2024-11-20T09:31:45Z</time>
      </trkpt>
      <trkpt lat="48.12256" lon="-3.29338">
        <ele>216.7</ele>
        <time>2024-11-20T09:31:46Z</time>
      </trkpt>
      <trkpt lat="48.12256" lon="-3.2934">
        <ele>216.7</ele>
        <time>2024-11-20T09:31:47Z</time>
      </trkpt>
      <trkpt lat="48.12256" lon="-3.29342">
        <ele>216.6</ele>
        <time>2024-11-20T09:31:48Z</time>
      </trkpt>
      <trkpt lat="48.12256" lon="-3.29344">
        <ele>216.5</ele>
        <time>2024-11-20T09:31:49Z</time>
      </trkpt>
      <trkpt lat="48.12256" lon="-3.29346">
        <ele>216.4</ele>
        <time>2024-11-20T09:31:50Z</time>
      </trkpt>
      <trkpt lat="48.12256" lon="-3.29348">
        <ele>216.4</ele>
        <time>2024-11-20T09:31:51Z</time>
      </trkpt>
      <trkpt lat="48.12256" lon="-3.29349">
        <ele>216.3</ele>
        <time>2024-11-20T09:31:52Z</time>
      </trkpt>
      <trkpt lat="48.12256" lon="-3.29351">
        <ele>216.2</ele>
        <time>2024-11-20T09:31:53Z</time>
      </trkpt>
      <trkpt lat="48.12256" lon="-3.29353">
        <ele>216.2</ele>
        <time>2024-11-20T09:31:54Z</time>
      </trkpt>
      <trkpt lat="48.12256" lon="-3.29355">
        <ele>216.1</ele>
        <time>2024-11-20T09:31:55Z</time>
      </trkpt>
      <trkpt lat="48.12256" lon="-3.29357">
        <ele>216</ele>
        <time>2024-11-20T09:31:56Z</time>
      </trkpt>
      <trkpt lat="48.12256" lon="-3.29359">
        <ele>215.9</ele>
        <time>2024-11-20T09:31:57Z</time>
      </trkpt>
      <trkpt lat="48.12256" lon="-3.29361">
        <ele>215.9</ele>
        <time>2024-11-20T09:31:58Z</time>
      </trkpt>
      <trkpt lat="48.12256" lon="-3.29362">
        <ele>215.8</ele>
        <time>2024-11-20T09:31:59Z</time>
      </trkpt>
      <trkpt lat="48.12255" lon="-3.29363">
        <ele>215.7</ele>
        <time>2024-11-20T09:32:00Z</time>
      </trkpt>
      <trkpt lat="48.12255" lon="-3.29365">
        <ele>215.6</ele>
        <time>2024-11-20T09:32:01Z</time>
      </trkpt>
      <trkpt lat="48.12255" lon="-3.29367">
        <ele>215.5</ele>
        <time>2024-11-20T09:32:02Z</time>
      </trkpt>
      <trkpt lat="48.12255" lon="-3.29369">
        <ele>215.4</ele>
        <time>2024-11-20T09:32:03Z</time>
      </trkpt>
      <trkpt lat="48.12255" lon="-3.29371">
        <ele>215.3</ele>
        <time>2024-11-20T09:32:04Z</time>
      </trkpt>
      <trkpt lat="48.12255" lon="-3.29373">
        <ele>215.2</ele>
        <time>2024-11-20T09:32:05Z</time>
      </trkpt>
      <trkpt lat="48.12254" lon="-3.29376">
        <ele>215.1</ele>
        <time>2024-11-20T09:32:06Z</time>
      </trkpt>
      <trkpt lat="48.12255" lon="-3.29378">
        <ele>215.1</ele>
        <time>2024-11-20T09:32:07Z</time>
      </trkpt>
      <trkpt lat="48.12255" lon="-3.2938">
        <ele>215</ele>
        <time>2024-11-20T09:32:08Z</time>
      </trkpt>
      <trkpt lat="48.12255" lon="-3.29382">
        <ele>214.9</ele>
        <time>2024-11-20T09:32:09Z</time>
      </trkpt>
      <trkpt lat="48.12255" lon="-3.29384">
        <ele>214.9</ele>
        <time>2024-11-20T09:32:10Z</time>
      </trkpt>
      <trkpt lat="48.12255" lon="-3.29386">
        <ele>214.8</ele>
        <time>2024-11-20T09:32:11Z</time>
      </trkpt>
      <trkpt lat="48.12255" lon="-3.29388">
        <ele>214.8</ele>
        <time>2024-11-20T09:32:12Z</time>
      </trkpt>
      <trkpt lat="48.12255" lon="-3.2939">
        <ele>214.7</ele>
        <time>2024-11-20T09:32:13Z</time>
      </trkpt>
      <trkpt lat="48.12256" lon="-3.29392">
        <ele>214.6</ele>
        <time>2024-11-20T09:32:14Z</time>
      </trkpt>
      <trkpt lat="48.12256" lon="-3.29394">
        <ele>214.5</ele>
        <time>2024-11-20T09:32:15Z</time>
      </trkpt>
      <trkpt lat="48.12256" lon="-3.29396">
        <ele>214.4</ele>
        <time>2024-11-20T09:32:16Z</time>
      </trkpt>
      <trkpt lat="48.12257" lon="-3.29397">
        <ele>214.4</ele>
        <time>2024-11-20T09:32:17Z</time>
      </trkpt>
      <trkpt lat="48.12257" lon="-3.29399">
        <ele>214.3</ele>
        <time>2024-11-20T09:32:18Z</time>
      </trkpt>
      <trkpt lat="48.12258" lon="-3.29401">
        <ele>214.3</ele>
        <time>2024-11-20T09:32:19Z</time>
      </trkpt>
      <trkpt lat="48.12259" lon="-3.29402">
        <ele>214.3</ele>
        <time>2024-11-20T09:32:20Z</time>
      </trkpt>
      <trkpt lat="48.1226" lon="-3.29404">
        <ele>214.4</ele>
        <time>2024-11-20T09:32:21Z</time>
      </trkpt>
      <trkpt lat="48.12261" lon="-3.29405">
        <ele>214.4</ele>
        <time>2024-11-20T09:32:22Z</time>
      </trkpt>
      <trkpt lat="48.12261" lon="-3.29406">
        <ele>214.4</ele>
        <time>2024-11-20T09:32:23Z</time>
      </trkpt>
      <trkpt lat="48.12262" lon="-3.29408">
        <ele>214.3</ele>
        <time>2024-11-20T09:32:24Z</time>
      </trkpt>
      <trkpt lat="48.12262" lon="-3.29409">
        <ele>214.3</ele>
        <time>2024-11-20T09:32:25Z</time>
      </trkpt>
      <trkpt lat="48.12263" lon="-3.2941">
        <ele>214.3</ele>
        <time>2024-11-20T09:32:26Z</time>
      </trkpt>
      <trkpt lat="48.12263" lon="-3.29411">
        <ele>214.3</ele>
        <time>2024-11-20T09:32:27Z</time>
      </trkpt>
      <trkpt lat="48.12263" lon="-3.29413">
        <ele>214.2</ele>
        <time>2024-11-20T09:32:28Z</time>
      </trkpt>
      <trkpt lat="48.12264" lon="-3.29415">
        <ele>214.1</ele>
        <time>2024-11-20T09:32:29Z</time>
      </trkpt>
      <trkpt lat="48.12264" lon="-3.29416">
        <ele>214.1</ele>
        <time>2024-11-20T09:32:30Z</time>
      </trkpt>
      <trkpt lat="48.12265" lon="-3.29418">
        <ele>214</ele>
        <time>2024-11-20T09:32:31Z</time>
      </trkpt>
      <trkpt lat="48.12265" lon="-3.29419">
        <ele>214</ele>
        <time>2024-11-20T09:32:32Z</time>
      </trkpt>
      <trkpt lat="48.12266" lon="-3.2942">
        <ele>214</ele>
        <time>2024-11-20T09:32:33Z</time>
      </trkpt>
      <trkpt lat="48.12267" lon="-3.29421">
        <ele>214.1</ele>
        <time>2024-11-20T09:32:34Z</time>
      </trkpt>
      <trkpt lat="48.12267" lon="-3.29421">
        <ele>214.1</ele>
        <time>2024-11-20T09:32:35Z</time>
      </trkpt>
      <trkpt lat="48.12268" lon="-3.29422">
        <ele>214.1</ele>
        <time>2024-11-20T09:32:36Z</time>
      </trkpt>
      <trkpt lat="48.12268" lon="-3.29423">
        <ele>214.1</ele>
        <time>2024-11-20T09:32:37Z</time>
      </trkpt>
      <trkpt lat="48.12268" lon="-3.29425">
        <ele>214</ele>
        <time>2024-11-20T09:32:38Z</time>
      </trkpt>
      <trkpt lat="48.12268" lon="-3.29426">
        <ele>213.9</ele>
        <time>2024-11-20T09:32:39Z</time>
      </trkpt>
      <trkpt lat="48.12269" lon="-3.29427">
        <ele>213.9</ele>
        <time>2024-11-20T09:32:40Z</time>
      </trkpt>
      <trkpt lat="48.12269" lon="-3.29427">
        <ele>213.9</ele>
        <time>2024-11-20T09:32:41Z</time>
      </trkpt>
      <trkpt lat="48.1227" lon="-3.29428">
        <ele>213.9</ele>
        <time>2024-11-20T09:32:42Z</time>
      </trkpt>
      <trkpt lat="48.1227" lon="-3.2943">
        <ele>213.9</ele>
        <time>2024-11-20T09:32:43Z</time>
      </trkpt>
      <trkpt lat="48.12271" lon="-3.29432">
        <ele>213.8</ele>
        <time>2024-11-20T09:32:44Z</time>
      </trkpt>
      <trkpt lat="48.12272" lon="-3.29434">
        <ele>213.8</ele>
        <time>2024-11-20T09:32:45Z</time>
      </trkpt>
      <trkpt lat="48.12273" lon="-3.29435">
        <ele>213.8</ele>
        <time>2024-11-20T09:32:46Z</time>
      </trkpt>
      <trkpt lat="48.12273" lon="-3.29436">
        <ele>213.8</ele>
        <time>2024-11-20T09:32:47Z</time>
      </trkpt>
      <trkpt lat="48.12274" lon="-3.29437">
        <ele>213.8</ele>
        <time>2024-11-20T09:32:48Z</time>
      </trkpt>
      <trkpt lat="48.12275" lon="-3.29439">
        <ele>213.8</ele>
        <time>2024-11-20T09:32:49Z</time>
      </trkpt>
      <trkpt lat="48.12275" lon="-3.29441">
        <ele>213.8</ele>
        <time>2024-11-20T09:32:50Z</time>
      </trkpt>
      <trkpt lat="48.12276" lon="-3.29442">
        <ele>213.8</ele>
        <time>2024-11-20T09:32:51Z</time>
      </trkpt>
      <trkpt lat="48.12276" lon="-3.29442">
        <ele>213.8</ele>
        <time>2024-11-20T09:32:52Z</time>
      </trkpt>
      <trkpt lat="48.12277" lon="-3.29444">
        <ele>213.9</ele>
        <time>2024-11-20T09:32:53Z</time>
      </trkpt>
      <trkpt lat="48.12277" lon="-3.29445">
        <ele>213.9</ele>
        <time>2024-11-20T09:32:54Z</time>
      </trkpt>
      <trkpt lat="48.12278" lon="-3.29446">
        <ele>213.8</ele>
        <time>2024-11-20T09:32:55Z</time>
      </trkpt>
      <trkpt lat="48.12279" lon="-3.29447">
        <ele>213.8</ele>
        <time>2024-11-20T09:32:56Z</time>
      </trkpt>
      <trkpt lat="48.1228" lon="-3.29449">
        <ele>213.8</ele>
        <time>2024-11-20T09:32:57Z</time>
      </trkpt>
      <trkpt lat="48.12281" lon="-3.2945">
        <ele>213.7</ele>
        <time>2024-11-20T09:32:58Z</time>
      </trkpt>
      <trkpt lat="48.12281" lon="-3.29451">
        <ele>213.6</ele>
        <time>2024-11-20T09:32:59Z</time>
      </trkpt>
      <trkpt lat="48.12281" lon="-3.29452">
        <ele>213.6</ele>
        <time>2024-11-20T09:33:00Z</time>
      </trkpt>
      <trkpt lat="48.12282" lon="-3.29453">
        <ele>213.5</ele>
        <time>2024-11-20T09:33:01Z</time>
      </trkpt>
      <trkpt lat="48.12283" lon="-3.29454">
        <ele>213.5</ele>
        <time>2024-11-20T09:33:02Z</time>
      </trkpt>
      <trkpt lat="48.12283" lon="-3.29455">
        <ele>213.5</ele>
        <time>2024-11-20T09:33:03Z</time>
      </trkpt>
      <trkpt lat="48.12284" lon="-3.29457">
        <ele>213.4</ele>
        <time>2024-11-20T09:33:04Z</time>
      </trkpt>
      <trkpt lat="48.12285" lon="-3.29458">
        <ele>213.3</ele>
        <time>2024-11-20T09:33:05Z</time>
      </trkpt>
      <trkpt lat="48.12286" lon="-3.2946">
        <ele>213.2</ele>
        <time>2024-11-20T09:33:06Z</time>
      </trkpt>
      <trkpt lat="48.12286" lon="-3.29461">
        <ele>213.1</ele>
        <time>2024-11-20T09:33:07Z</time>
      </trkpt>
      <trkpt lat="48.12287" lon="-3.29463">
        <ele>212.9</ele>
        <time>2024-11-20T09:33:08Z</time>
      </trkpt>
      <trkpt lat="48.12287" lon="-3.29464">
        <ele>212.9</ele>
        <time>2024-11-20T09:33:09Z</time>
      </trkpt>
      <trkpt lat="48.12288" lon="-3.29465">
        <ele>212.9</ele>
        <time>2024-11-20T09:33:10Z</time>
      </trkpt>
      <trkpt lat="48.12289" lon="-3.29466">
        <ele>212.9</ele>
        <time>2024-11-20T09:33:11Z</time>
      </trkpt>
      <trkpt lat="48.1229" lon="-3.29467">
        <ele>212.9</ele>
        <time>2024-11-20T09:33:12Z</time>
      </trkpt>
      <trkpt lat="48.1229" lon="-3.29468">
        <ele>212.9</ele>
        <time>2024-11-20T09:33:13Z</time>
      </trkpt>
      <trkpt lat="48.12291" lon="-3.29469">
        <ele>212.8</ele>
        <time>2024-11-20T09:33:14Z</time>
      </trkpt>
      <trkpt lat="48.12292" lon="-3.29471">
        <ele>212.7</ele>
        <time>2024-11-20T09:33:15Z</time>
      </trkpt>
      <trkpt lat="48.12293" lon="-3.29472">
        <ele>212.6</ele>
        <time>2024-11-20T09:33:16Z</time>
      </trkpt>
      <trkpt lat="48.12293" lon="-3.29474">
        <ele>212.6</ele>
        <time>2024-11-20T09:33:17Z</time>
      </trkpt>
      <trkpt lat="48.12294" lon="-3.29475">
        <ele>212.6</ele>
        <time>2024-11-20T09:33:18Z</time>
      </trkpt>
      <trkpt lat="48.12295" lon="-3.29476">
        <ele>212.5</ele>
        <time>2024-11-20T09:33:19Z</time>
      </trkpt>
      <trkpt lat="48.12295" lon="-3.29477">
        <ele>212.5</ele>
        <time>2024-11-20T09:33:20Z</time>
      </trkpt>
      <trkpt lat="48.12295" lon="-3.29478">
        <ele>212.4</ele>
        <time>2024-11-20T09:33:21Z</time>
      </trkpt>
      <trkpt lat="48.12296" lon="-3.2948">
        <ele>212.3</ele>
        <time>2024-11-20T09:33:22Z</time>
      </trkpt>
      <trkpt lat="48.12297" lon="-3.29483">
        <ele>212</ele>
        <time>2024-11-20T09:33:23Z</time>
      </trkpt>
      <trkpt lat="48.12297" lon="-3.29485">
        <ele>211.7</ele>
        <time>2024-11-20T09:33:24Z</time>
      </trkpt>
      <trkpt lat="48.12297" lon="-3.29487">
        <ele>211.5</ele>
        <time>2024-11-20T09:33:25Z</time>
      </trkpt>
      <trkpt lat="48.12298" lon="-3.29489">
        <ele>211.4</ele>
        <time>2024-11-20T09:33:26Z</time>
      </trkpt>
      <trkpt lat="48.12298" lon="-3.29489">
        <ele>211.4</ele>
        <time>2024-11-20T09:33:27Z</time>
      </trkpt>
      <trkpt lat="48.12299" lon="-3.2949">
        <ele>211.4</ele>
        <time>2024-11-20T09:33:28Z</time>
      </trkpt>
      <trkpt lat="48.12299" lon="-3.2949">
        <ele>211.5</ele>
        <time>2024-11-20T09:33:29Z</time>
      </trkpt>
      <trkpt lat="48.123" lon="-3.2949">
        <ele>211.5</ele>
        <time>2024-11-20T09:33:30Z</time>
      </trkpt>
      <trkpt lat="48.12301" lon="-3.29491">
        <ele>211.6</ele>
        <time>2024-11-20T09:33:31Z</time>
      </trkpt>
      <trkpt lat="48.12302" lon="-3.29491">
        <ele>211.7</ele>
        <time>2024-11-20T09:33:32Z</time>
      </trkpt>
      <trkpt lat="48.12302" lon="-3.29492">
        <ele>211.6</ele>
        <time>2024-11-20T09:33:33Z</time>
      </trkpt>
      <trkpt lat="48.12303" lon="-3.29494">
        <ele>211.5</ele>
        <time>2024-11-20T09:33:34Z</time>
      </trkpt>
      <trkpt lat="48.12304" lon="-3.29495">
        <ele>211.4</ele>
        <time>2024-11-20T09:33:35Z</time>
      </trkpt>
      <trkpt lat="48.12304" lon="-3.29497">
        <ele>211.2</ele>
        <time>2024-11-20T09:33:36Z</time>
      </trkpt>
      <trkpt lat="48.12305" lon="-3.29499">
        <ele>211</ele>
        <time>2024-11-20T09:33:37Z</time>
      </trkpt>
      <trkpt lat="48.12305" lon="-3.29501">
        <ele>210.9</ele>
        <time>2024-11-20T09:33:38Z</time>
      </trkpt>
      <trkpt lat="48.12306" lon="-3.29502">
        <ele>210.8</ele>
        <time>2024-11-20T09:33:39Z</time>
      </trkpt>
      <trkpt lat="48.12307" lon="-3.29504">
        <ele>210.8</ele>
        <time>2024-11-20T09:33:40Z</time>
      </trkpt>
      <trkpt lat="48.12307" lon="-3.29505">
        <ele>210.9</ele>
        <time>2024-11-20T09:33:41Z</time>
      </trkpt>
      <trkpt lat="48.12308" lon="-3.29506">
        <ele>210.9</ele>
        <time>2024-11-20T09:33:42Z</time>
      </trkpt>
      <trkpt lat="48.12309" lon="-3.29508">
        <ele>210.9</ele>
        <time>2024-11-20T09:33:43Z</time>
      </trkpt>
      <trkpt lat="48.1231" lon="-3.29509">
        <ele>211</ele>
        <time>2024-11-20T09:33:44Z</time>
      </trkpt>
      <trkpt lat="48.12311" lon="-3.29511">
        <ele>211</ele>
        <time>2024-11-20T09:33:45Z</time>
      </trkpt>
      <trkpt lat="48.12312" lon="-3.29513">
        <ele>211</ele>
        <time>2024-11-20T09:33:46Z</time>
      </trkpt>
      <trkpt lat="48.12313" lon="-3.29515">
        <ele>211.1</ele>
        <time>2024-11-20T09:33:47Z</time>
      </trkpt>
      <trkpt lat="48.12314" lon="-3.29517">
        <ele>211</ele>
        <time>2024-11-20T09:33:48Z</time>
      </trkpt>
      <trkpt lat="48.12315" lon="-3.29519">
        <ele>210.9</ele>
        <time>2024-11-20T09:33:49Z</time>
      </trkpt>
      <trkpt lat="48.12315" lon="-3.29521">
        <ele>210.8</ele>
        <time>2024-11-20T09:33:50Z</time>
      </trkpt>
      <trkpt lat="48.12316" lon="-3.29522">
        <ele>210.8</ele>
        <time>2024-11-20T09:33:51Z</time>
      </trkpt>
      <trkpt lat="48.12317" lon="-3.29524">
        <ele>210.8</ele>
        <time>2024-11-20T09:33:52Z</time>
      </trkpt>
      <trkpt lat="48.12317" lon="-3.29526">
        <ele>210.7</ele>
        <time>2024-11-20T09:33:53Z</time>
      </trkpt>
      <trkpt lat="48.12318" lon="-3.29528">
        <ele>210.6</ele>
        <time>2024-11-20T09:33:54Z</time>
      </trkpt>
      <trkpt lat="48.12318" lon="-3.29529">
        <ele>210.6</ele>
        <time>2024-11-20T09:33:55Z</time>
      </trkpt>
      <trkpt lat="48.12319" lon="-3.29531">
        <ele>210.5</ele>
        <time>2024-11-20T09:33:56Z</time>
      </trkpt>
      <trkpt lat="48.12319" lon="-3.29533">
        <ele>210.4</ele>
        <time>2024-11-20T09:33:57Z</time>
      </trkpt>
      <trkpt lat="48.1232" lon="-3.29535">
        <ele>210.4</ele>
        <time>2024-11-20T09:33:58Z</time>
      </trkpt>
      <trkpt lat="48.12321" lon="-3.29536">
        <ele>210.3</ele>
        <time>2024-11-20T09:33:59Z</time>
      </trkpt>
      <trkpt lat="48.12321" lon="-3.29538">
        <ele>210.3</ele>
        <time>2024-11-20T09:34:00Z</time>
      </trkpt>
      <trkpt lat="48.12322" lon="-3.2954">
        <ele>210.2</ele>
        <time>2024-11-20T09:34:01Z</time>
      </trkpt>
      <trkpt lat="48.12323" lon="-3.29541">
        <ele>210.2</ele>
        <time>2024-11-20T09:34:02Z</time>
      </trkpt>
      <trkpt lat="48.12323" lon="-3.29544">
        <ele>210.1</ele>
        <time>2024-11-20T09:34:03Z</time>
      </trkpt>
      <trkpt lat="48.12323" lon="-3.29546">
        <ele>209.9</ele>
        <time>2024-11-20T09:34:04Z</time>
      </trkpt>
      <trkpt lat="48.12323" lon="-3.29547">
        <ele>209.7</ele>
        <time>2024-11-20T09:34:05Z</time>
      </trkpt>
      <trkpt lat="48.12324" lon="-3.29548">
        <ele>209.7</ele>
        <time>2024-11-20T09:34:06Z</time>
      </trkpt>
      <trkpt lat="48.12325" lon="-3.29549">
        <ele>209.8</ele>
        <time>2024-11-20T09:34:07Z</time>
      </trkpt>
      <trkpt lat="48.12325" lon="-3.29551">
        <ele>209.8</ele>
        <time>2024-11-20T09:34:08Z</time>
      </trkpt>
      <trkpt lat="48.12326" lon="-3.29552">
        <ele>209.8</ele>
        <time>2024-11-20T09:34:09Z</time>
      </trkpt>
      <trkpt lat="48.12327" lon="-3.29554">
        <ele>209.8</ele>
        <time>2024-11-20T09:34:10Z</time>
      </trkpt>
      <trkpt lat="48.12328" lon="-3.29556">
        <ele>209.8</ele>
        <time>2024-11-20T09:34:11Z</time>
      </trkpt>
      <trkpt lat="48.12329" lon="-3.29558">
        <ele>209.8</ele>
        <time>2024-11-20T09:34:12Z</time>
      </trkpt>
      <trkpt lat="48.1233" lon="-3.29559">
        <ele>209.8</ele>
        <time>2024-11-20T09:34:13Z</time>
      </trkpt>
      <trkpt lat="48.1233" lon="-3.29561">
        <ele>209.8</ele>
        <time>2024-11-20T09:34:14Z</time>
      </trkpt>
      <trkpt lat="48.12331" lon="-3.29563">
        <ele>209.7</ele>
        <time>2024-11-20T09:34:15Z</time>
      </trkpt>
      <trkpt lat="48.12332" lon="-3.29565">
        <ele>209.6</ele>
        <time>2024-11-20T09:34:16Z</time>
      </trkpt>
      <trkpt lat="48.12333" lon="-3.29568">
        <ele>209.5</ele>
        <time>2024-11-20T09:34:17Z</time>
      </trkpt>
      <trkpt lat="48.12334" lon="-3.2957">
        <ele>209.5</ele>
        <time>2024-11-20T09:34:18Z</time>
      </trkpt>
      <trkpt lat="48.12334" lon="-3.29572">
        <ele>209.4</ele>
        <time>2024-11-20T09:34:19Z</time>
      </trkpt>
      <trkpt lat="48.12334" lon="-3.29574">
        <ele>209.2</ele>
        <time>2024-11-20T09:34:20Z</time>
      </trkpt>
      <trkpt lat="48.12335" lon="-3.29576">
        <ele>209.1</ele>
        <time>2024-11-20T09:34:21Z</time>
      </trkpt>
      <trkpt lat="48.12336" lon="-3.29578">
        <ele>209</ele>
        <time>2024-11-20T09:34:22Z</time>
      </trkpt>
      <trkpt lat="48.12337" lon="-3.29581">
        <ele>209.1</ele>
        <time>2024-11-20T09:34:23Z</time>
      </trkpt>
      <trkpt lat="48.12338" lon="-3.29582">
        <ele>209.1</ele>
        <time>2024-11-20T09:34:24Z</time>
      </trkpt>
      <trkpt lat="48.12339" lon="-3.29585">
        <ele>209</ele>
        <time>2024-11-20T09:34:25Z</time>
      </trkpt>
      <trkpt lat="48.12339" lon="-3.29587">
        <ele>209</ele>
        <time>2024-11-20T09:34:26Z</time>
      </trkpt>
      <trkpt lat="48.12339" lon="-3.29589">
        <ele>208.9</ele>
        <time>2024-11-20T09:34:27Z</time>
      </trkpt>
      <trkpt lat="48.1234" lon="-3.2959">
        <ele>208.8</ele>
        <time>2024-11-20T09:34:28Z</time>
      </trkpt>
      <trkpt lat="48.1234" lon="-3.29591">
        <ele>208.8</ele>
        <time>2024-11-20T09:34:29Z</time>
      </trkpt>
      <trkpt lat="48.1234" lon="-3.29593">
        <ele>208.8</ele>
        <time>2024-11-20T09:34:30Z</time>
      </trkpt>
      <trkpt lat="48.12341" lon="-3.29594">
        <ele>208.8</ele>
        <time>2024-11-20T09:34:31Z</time>
      </trkpt>
      <trkpt lat="48.12342" lon="-3.29596">
        <ele>208.8</ele>
        <time>2024-11-20T09:34:32Z</time>
      </trkpt>
      <trkpt lat="48.12343" lon="-3.29598">
        <ele>208.8</ele>
        <time>2024-11-20T09:34:33Z</time>
      </trkpt>
      <trkpt lat="48.12344" lon="-3.29599">
        <ele>208.9</ele>
        <time>2024-11-20T09:34:34Z</time>
      </trkpt>
      <trkpt lat="48.12344" lon="-3.29601">
        <ele>208.8</ele>
        <time>2024-11-20T09:34:35Z</time>
      </trkpt>
      <trkpt lat="48.12345" lon="-3.29603">
        <ele>208.8</ele>
        <time>2024-11-20T09:34:36Z</time>
      </trkpt>
      <trkpt lat="48.12345" lon="-3.29604">
        <ele>208.7</ele>
        <time>2024-11-20T09:34:37Z</time>
      </trkpt>
      <trkpt lat="48.12345" lon="-3.29605">
        <ele>208.7</ele>
        <time>2024-11-20T09:34:38Z</time>
      </trkpt>
      <trkpt lat="48.12345" lon="-3.29606">
        <ele>208.6</ele>
        <time>2024-11-20T09:34:39Z</time>
      </trkpt>
      <trkpt lat="48.12345" lon="-3.29606">
        <ele>208.5</ele>
        <time>2024-11-20T09:34:40Z</time>
      </trkpt>
      <trkpt lat="48.12345" lon="-3.29607">
        <ele>208.5</ele>
        <time>2024-11-20T09:34:41Z</time>
      </trkpt>
      <trkpt lat="48.12345" lon="-3.29607">
        <ele>208.4</ele>
        <time>2024-11-20T09:34:42Z</time>
      </trkpt>
      <trkpt lat="48.12344" lon="-3.29607">
        <ele>208.3</ele>
        <time>2024-11-20T09:34:43Z</time>
      </trkpt>
      <trkpt lat="48.12344" lon="-3.29607">
        <ele>208.3</ele>
        <time>2024-11-20T09:34:44Z</time>
      </trkpt>
      <trkpt lat="48.12344" lon="-3.29607">
        <ele>208.3</ele>
        <time>2024-11-20T09:34:45Z</time>
      </trkpt>
      <trkpt lat="48.12344" lon="-3.29606">
        <ele>208.3</ele>
        <time>2024-11-20T09:34:46Z</time>
      </trkpt>
      <trkpt lat="48.12344" lon="-3.29606">
        <ele>208.3</ele>
        <time>2024-11-20T09:34:47Z</time>
      </trkpt>
      <trkpt lat="48.12344" lon="-3.29606">
        <ele>208.3</ele>
        <time>2024-11-20T09:34:48Z</time>
      </trkpt>
      <trkpt lat="48.12344" lon="-3.29606">
        <ele>208.3</ele>
        <time>2024-11-20T09:34:49Z</time>
      </trkpt>
      <trkpt lat="48.12344" lon="-3.29606">
        <ele>208.3</ele>
        <time>2024-11-20T09:34:50Z</time>
      </trkpt>
      <trkpt lat="48.12344" lon="-3.29606">
        <ele>208.3</ele>
        <time>2024-11-20T09:34:51Z</time>
      </trkpt>
      <trkpt lat="48.12344" lon="-3.29606">
        <ele>208.3</ele>
        <time>2024-11-20T09:34:52Z</time>
      </trkpt>
      <trkpt lat="48.12344" lon="-3.29606">
        <ele>208.3</ele>
        <time>2024-11-20T09:34:53Z</time>
      </trkpt>
      <trkpt lat="48.12344" lon="-3.29607">
        <ele>208.3</ele>
        <time>2024-11-20T09:34:54Z</time>
      </trkpt>
      <trkpt lat="48.12345" lon="-3.29607">
        <ele>208.3</ele>
        <time>2024-11-20T09:34:55Z</time>
      </trkpt>
      <trkpt lat="48.12345" lon="-3.29608">
        <ele>208.3</ele>
        <time>2024-11-20T09:34:56Z</time>
      </trkpt>
      <trkpt lat="48.12344" lon="-3.29608">
        <ele>208.3</ele>
        <time>2024-11-20T09:34:57Z</time>
      </trkpt>
      <trkpt lat="48.12344" lon="-3.29608">
        <ele>208.3</ele>
        <time>2024-11-20T09:34:58Z</time>
      </trkpt>
      <trkpt lat="48.12344" lon="-3.29608">
        <ele>208.2</ele>
        <time>2024-11-20T09:34:59Z</time>
      </trkpt>
      <trkpt lat="48.12344" lon="-3.29608">
        <ele>208.2</ele>
        <time>2024-11-20T09:35:00Z</time>
      </trkpt>
      <trkpt lat="48.12344" lon="-3.29608">
        <ele>208.2</ele>
        <time>2024-11-20T09:35:01Z</time>
      </trkpt>
      <trkpt lat="48.12344" lon="-3.29608">
        <ele>208.2</ele>
        <time>2024-11-20T09:35:02Z</time>
      </trkpt>
      <trkpt lat="48.12344" lon="-3.29608">
        <ele>208.3</ele>
        <time>2024-11-20T09:35:03Z</time>
      </trkpt>
      <trkpt lat="48.12344" lon="-3.29608">
        <ele>208.3</ele>
        <time>2024-11-20T09:35:04Z</time>
      </trkpt>
      <trkpt lat="48.12344" lon="-3.29608">
        <ele>208.2</ele>
        <time>2024-11-20T09:35:05Z</time>
      </trkpt>
      <trkpt lat="48.12345" lon="-3.29608">
        <ele>208.2</ele>
        <time>2024-11-20T09:35:06Z</time>
      </trkpt>
      <trkpt lat="48.12345" lon="-3.29609">
        <ele>208.2</ele>
        <time>2024-11-20T09:35:07Z</time>
      </trkpt>
      <trkpt lat="48.12345" lon="-3.29609">
        <ele>208.2</ele>
        <time>2024-11-20T09:35:08Z</time>
      </trkpt>
      <trkpt lat="48.12345" lon="-3.29609">
        <ele>208.2</ele>
        <time>2024-11-20T09:35:09Z</time>
      </trkpt>
      <trkpt lat="48.12345" lon="-3.2961">
        <ele>208.2</ele>
        <time>2024-11-20T09:35:10Z</time>
      </trkpt>
      <trkpt lat="48.12345" lon="-3.2961">
        <ele>208.2</ele>
        <time>2024-11-20T09:35:11Z</time>
      </trkpt>
      <trkpt lat="48.12345" lon="-3.2961">
        <ele>208.2</ele>
        <time>2024-11-20T09:35:12Z</time>
      </trkpt>
      <trkpt lat="48.12345" lon="-3.29611">
        <ele>208.2</ele>
        <time>2024-11-20T09:35:13Z</time>
      </trkpt>
      <trkpt lat="48.12345" lon="-3.29611">
        <ele>208.2</ele>
        <time>2024-11-20T09:35:14Z</time>
      </trkpt>
      <trkpt lat="48.12345" lon="-3.29611">
        <ele>208.2</ele>
        <time>2024-11-20T09:35:15Z</time>
      </trkpt>
      <trkpt lat="48.12345" lon="-3.29611">
        <ele>208.1</ele>
        <time>2024-11-20T09:35:16Z</time>
      </trkpt>
      <trkpt lat="48.12345" lon="-3.29611">
        <ele>208.1</ele>
        <time>2024-11-20T09:35:17Z</time>
      </trkpt>
      <trkpt lat="48.12345" lon="-3.29611">
        <ele>208.1</ele>
        <time>2024-11-20T09:35:18Z</time>
      </trkpt>
      <trkpt lat="48.12345" lon="-3.29611">
        <ele>208.1</ele>
        <time>2024-11-20T09:35:19Z</time>
      </trkpt>
      <trkpt lat="48.12345" lon="-3.29611">
        <ele>208.1</ele>
        <time>2024-11-20T09:35:20Z</time>
      </trkpt>
      <trkpt lat="48.12345" lon="-3.29611">
        <ele>208.1</ele>
        <time>2024-11-20T09:35:21Z</time>
      </trkpt>
      <trkpt lat="48.12345" lon="-3.29611">
        <ele>208.1</ele>
        <time>2024-11-20T09:35:22Z</time>
      </trkpt>
      <trkpt lat="48.12345" lon="-3.29611">
        <ele>208.1</ele>
        <time>2024-11-20T09:35:23Z</time>
      </trkpt>
      <trkpt lat="48.12345" lon="-3.29611">
        <ele>208.1</ele>
        <time>2024-11-20T09:35:24Z</time>
      </trkpt>
      <trkpt lat="48.12345" lon="-3.29611">
        <ele>208.1</ele>
        <time>2024-11-20T09:35:25Z</time>
      </trkpt>
      <trkpt lat="48.12345" lon="-3.29611">
        <ele>208.1</ele>
        <time>2024-11-20T09:35:26Z</time>
      </trkpt>
      <trkpt lat="48.12345" lon="-3.29611">
        <ele>208.1</ele>
        <time>2024-11-20T09:35:27Z</time>
      </trkpt>
      <trkpt lat="48.12345" lon="-3.29611">
        <ele>208.1</ele>
        <time>2024-11-20T09:35:28Z</time>
      </trkpt>
      <trkpt lat="48.12345" lon="-3.29611">
        <ele>208.1</ele>
        <time>2024-11-20T09:35:29Z</time>
      </trkpt>
      <trkpt lat="48.12345" lon="-3.29611">
        <ele>208.1</ele>
        <time>2024-11-20T09:35:30Z</time>
      </trkpt>
      <trkpt lat="48.12345" lon="-3.29611">
        <ele>208.1</ele>
        <time>2024-11-20T09:35:31Z</time>
      </trkpt>
      <trkpt lat="48.12345" lon="-3.29611">
        <ele>208.1</ele>
        <time>2024-11-20T09:35:32Z</time>
      </trkpt>
      <trkpt lat="48.12345" lon="-3.29611">
        <ele>208.1</ele>
        <time>2024-11-20T09:35:33Z</time>
      </trkpt>
      <trkpt lat="48.12345" lon="-3.29611">
        <ele>208.1</ele>
        <time>2024-11-20T09:35:34Z</time>
      </trkpt>
      <trkpt lat="48.12345" lon="-3.29611">
        <ele>208.1</ele>
        <time>2024-11-20T09:35:35Z</time>
      </trkpt>
      <trkpt lat="48.12345" lon="-3.29611">
        <ele>208.1</ele>
        <time>2024-11-20T09:35:36Z</time>
      </trkpt>
      <trkpt lat="48.12345" lon="-3.29611">
        <ele>208.1</ele>
        <time>2024-11-20T09:35:37Z</time>
      </trkpt>
      <trkpt lat="48.12345" lon="-3.29611">
        <ele>208.1</ele>
        <time>2024-11-20T09:35:38Z</time>
      </trkpt>
      <trkpt lat="48.12345" lon="-3.29611">
        <ele>208.1</ele>
        <time>2024-11-20T09:35:39Z</time>
      </trkpt>
      <trkpt lat="48.12345" lon="-3.29611">
        <ele>208.1</ele>
        <time>2024-11-20T09:35:40Z</time>
      </trkpt>
      <trkpt lat="48.12345" lon="-3.29612">
        <ele>208</ele>
        <time>2024-11-20T09:35:41Z</time>
      </trkpt>
      <trkpt lat="48.12345" lon="-3.29612">
        <ele>208</ele>
        <time>2024-11-20T09:35:42Z</time>
      </trkpt>
      <trkpt lat="48.12345" lon="-3.29612">
        <ele>207.9</ele>
        <time>2024-11-20T09:35:43Z</time>
      </trkpt>
      <trkpt lat="48.12345" lon="-3.29612">
        <ele>207.9</ele>
        <time>2024-11-20T09:35:44Z</time>
      </trkpt>
      <trkpt lat="48.12345" lon="-3.29612">
        <ele>207.9</ele>
        <time>2024-11-20T09:35:45Z</time>
      </trkpt>
      <trkpt lat="48.12345" lon="-3.29612">
        <ele>208</ele>
        <time>2024-11-20T09:35:46Z</time>
      </trkpt>
      <trkpt lat="48.12345" lon="-3.29613">
        <ele>207.9</ele>
        <time>2024-11-20T09:35:47Z</time>
      </trkpt>
      <trkpt lat="48.12345" lon="-3.29613">
        <ele>207.9</ele>
        <time>2024-11-20T09:35:48Z</time>
      </trkpt>
      <trkpt lat="48.12345" lon="-3.29613">
        <ele>208</ele>
        <time>2024-11-20T09:35:49Z</time>
      </trkpt>
      <trkpt lat="48.12345" lon="-3.29613">
        <ele>208</ele>
        <time>2024-11-20T09:35:50Z</time>
      </trkpt>
      <trkpt lat="48.12345" lon="-3.29613">
        <ele>208</ele>
        <time>2024-11-20T09:35:51Z</time>
      </trkpt>
      <trkpt lat="48.12345" lon="-3.29613">
        <ele>208</ele>
        <time>2024-11-20T09:35:52Z</time>
      </trkpt>
      <trkpt lat="48.12345" lon="-3.29613">
        <ele>208</ele>
        <time>2024-11-20T09:35:53Z</time>
      </trkpt>
      <trkpt lat="48.12345" lon="-3.29613">
        <ele>208</ele>
        <time>2024-11-20T09:35:54Z</time>
      </trkpt>
      <trkpt lat="48.12345" lon="-3.29613">
        <ele>208</ele>
        <time>2024-11-20T09:35:55Z</time>
      </trkpt>
      <trkpt lat="48.12345" lon="-3.29613">
        <ele>208</ele>
        <time>2024-11-20T09:35:56Z</time>
      </trkpt>
      <trkpt lat="48.12345" lon="-3.29613">
        <ele>208</ele>
        <time>2024-11-20T09:35:57Z</time>
      </trkpt>
      <trkpt lat="48.12345" lon="-3.29613">
        <ele>208</ele>
        <time>2024-11-20T09:35:58Z</time>
      </trkpt>
      <trkpt lat="48.12345" lon="-3.29613">
        <ele>208</ele>
        <time>2024-11-20T09:35:59Z</time>
      </trkpt>
      <trkpt lat="48.12345" lon="-3.29613">
        <ele>208</ele>
        <time>2024-11-20T09:36:00Z</time>
      </trkpt>
      <trkpt lat="48.12345" lon="-3.29613">
        <ele>208</ele>
        <time>2024-11-20T09:36:01Z</time>
      </trkpt>
      <trkpt lat="48.12345" lon="-3.29613">
        <ele>208</ele>
        <time>2024-11-20T09:36:02Z</time>
      </trkpt>
      <trkpt lat="48.12345" lon="-3.29613">
        <ele>208</ele>
        <time>2024-11-20T09:36:03Z</time>
      </trkpt>
      <trkpt lat="48.12345" lon="-3.29613">
        <ele>208</ele>
        <time>2024-11-20T09:36:04Z</time>
      </trkpt>
      <trkpt lat="48.12346" lon="-3.29613">
        <ele>208.1</ele>
        <time>2024-11-20T09:36:05Z</time>
      </trkpt>
      <trkpt lat="48.12347" lon="-3.29615">
        <ele>208.1</ele>
        <time>2024-11-20T09:36:06Z</time>
      </trkpt>
      <trkpt lat="48.12348" lon="-3.29617">
        <ele>208.1</ele>
        <time>2024-11-20T09:36:07Z</time>
      </trkpt>
      <trkpt lat="48.12348" lon="-3.29619">
        <ele>208.1</ele>
        <time>2024-11-20T09:36:08Z</time>
      </trkpt>
      <trkpt lat="48.12349" lon="-3.2962">
        <ele>208.1</ele>
        <time>2024-11-20T09:36:09Z</time>
      </trkpt>
      <trkpt lat="48.12349" lon="-3.29622">
        <ele>208.1</ele>
        <time>2024-11-20T09:36:10Z</time>
      </trkpt>
      <trkpt lat="48.1235" lon="-3.29623">
        <ele>208.1</ele>
        <time>2024-11-20T09:36:11Z</time>
      </trkpt>
      <trkpt lat="48.12351" lon="-3.29625">
        <ele>208.1</ele>
        <time>2024-11-20T09:36:12Z</time>
      </trkpt>
      <trkpt lat="48.12351" lon="-3.29627">
        <ele>208.1</ele>
        <time>2024-11-20T09:36:13Z</time>
      </trkpt>
      <trkpt lat="48.12352" lon="-3.29628">
        <ele>208.2</ele>
        <time>2024-11-20T09:36:14Z</time>
      </trkpt>
      <trkpt lat="48.12353" lon="-3.2963">
        <ele>208.2</ele>
        <time>2024-11-20T09:36:15Z</time>
      </trkpt>
      <trkpt lat="48.12354" lon="-3.29631">
        <ele>208.3</ele>
        <time>2024-11-20T09:36:16Z</time>
      </trkpt>
      <trkpt lat="48.12355" lon="-3.29633">
        <ele>208.3</ele>
        <time>2024-11-20T09:36:17Z</time>
      </trkpt>
      <trkpt lat="48.12356" lon="-3.29634">
        <ele>208.3</ele>
        <time>2024-11-20T09:36:18Z</time>
      </trkpt>
      <trkpt lat="48.12356" lon="-3.29636">
        <ele>208.3</ele>
        <time>2024-11-20T09:36:19Z</time>
      </trkpt>
      <trkpt lat="48.12357" lon="-3.29638">
        <ele>208.4</ele>
        <time>2024-11-20T09:36:20Z</time>
      </trkpt>
      <trkpt lat="48.12358" lon="-3.2964">
        <ele>208.3</ele>
        <time>2024-11-20T09:36:21Z</time>
      </trkpt>
      <trkpt lat="48.12358" lon="-3.29641">
        <ele>208.3</ele>
        <time>2024-11-20T09:36:22Z</time>
      </trkpt>
      <trkpt lat="48.12359" lon="-3.29643">
        <ele>208.3</ele>
        <time>2024-11-20T09:36:23Z</time>
      </trkpt>
      <trkpt lat="48.1236" lon="-3.29644">
        <ele>208.3</ele>
        <time>2024-11-20T09:36:24Z</time>
      </trkpt>
      <trkpt lat="48.1236" lon="-3.29645">
        <ele>208.4</ele>
        <time>2024-11-20T09:36:25Z</time>
      </trkpt>
      <trkpt lat="48.12362" lon="-3.29646">
        <ele>208.5</ele>
        <time>2024-11-20T09:36:26Z</time>
      </trkpt>
      <trkpt lat="48.12362" lon="-3.29648">
        <ele>208.6</ele>
        <time>2024-11-20T09:36:27Z</time>
      </trkpt>
      <trkpt lat="48.12363" lon="-3.29649">
        <ele>208.6</ele>
        <time>2024-11-20T09:36:28Z</time>
      </trkpt>
      <trkpt lat="48.12364" lon="-3.2965">
        <ele>208.6</ele>
        <time>2024-11-20T09:36:29Z</time>
      </trkpt>
      <trkpt lat="48.12364" lon="-3.29652">
        <ele>208.6</ele>
        <time>2024-11-20T09:36:30Z</time>
      </trkpt>
      <trkpt lat="48.12365" lon="-3.29653">
        <ele>208.6</ele>
        <time>2024-11-20T09:36:31Z</time>
      </trkpt>
      <trkpt lat="48.12366" lon="-3.29654">
        <ele>208.6</ele>
        <time>2024-11-20T09:36:32Z</time>
      </trkpt>
      <trkpt lat="48.12367" lon="-3.29655">
        <ele>208.6</ele>
        <time>2024-11-20T09:36:33Z</time>
      </trkpt>
      <trkpt lat="48.12368" lon="-3.29657">
        <ele>208.6</ele>
        <time>2024-11-20T09:36:34Z</time>
      </trkpt>
      <trkpt lat="48.12368" lon="-3.29658">
        <ele>208.7</ele>
        <time>2024-11-20T09:36:35Z</time>
      </trkpt>
      <trkpt lat="48.12369" lon="-3.29659">
        <ele>208.7</ele>
        <time>2024-11-20T09:36:36Z</time>
      </trkpt>
      <trkpt lat="48.1237" lon="-3.29661">
        <ele>208.7</ele>
        <time>2024-11-20T09:36:37Z</time>
      </trkpt>
      <trkpt lat="48.12371" lon="-3.29662">
        <ele>208.7</ele>
        <time>2024-11-20T09:36:38Z</time>
      </trkpt>
      <trkpt lat="48.12372" lon="-3.29663">
        <ele>208.8</ele>
        <time>2024-11-20T09:36:39Z</time>
      </trkpt>
      <trkpt lat="48.12372" lon="-3.29664">
        <ele>208.8</ele>
        <time>2024-11-20T09:36:40Z</time>
      </trkpt>
      <trkpt lat="48.12373" lon="-3.29665">
        <ele>208.8</ele>
        <time>2024-11-20T09:36:41Z</time>
      </trkpt>
      <trkpt lat="48.12374" lon="-3.29666">
        <ele>208.9</ele>
        <time>2024-11-20T09:36:42Z</time>
      </trkpt>
      <trkpt lat="48.12374" lon="-3.29667">
        <ele>208.9</ele>
        <time>2024-11-20T09:36:43Z</time>
      </trkpt>
      <trkpt lat="48.12375" lon="-3.29667">
        <ele>208.9</ele>
        <time>2024-11-20T09:36:44Z</time>
      </trkpt>
      <trkpt lat="48.12376" lon="-3.29668">
        <ele>208.9</ele>
        <time>2024-11-20T09:36:45Z</time>
      </trkpt>
      <trkpt lat="48.12376" lon="-3.29669">
        <ele>208.9</ele>
        <time>2024-11-20T09:36:46Z</time>
      </trkpt>
      <trkpt lat="48.12377" lon="-3.29669">
        <ele>209</ele>
        <time>2024-11-20T09:36:47Z</time>
      </trkpt>
      <trkpt lat="48.12378" lon="-3.2967">
        <ele>209</ele>
        <time>2024-11-20T09:36:48Z</time>
      </trkpt>
      <trkpt lat="48.12379" lon="-3.29672">
        <ele>208.9</ele>
        <time>2024-11-20T09:36:49Z</time>
      </trkpt>
      <trkpt lat="48.12379" lon="-3.29673">
        <ele>208.9</ele>
        <time>2024-11-20T09:36:50Z</time>
      </trkpt>
      <trkpt lat="48.1238" lon="-3.29674">
        <ele>208.8</ele>
        <time>2024-11-20T09:36:51Z</time>
      </trkpt>
      <trkpt lat="48.12381" lon="-3.29675">
        <ele>208.8</ele>
        <time>2024-11-20T09:36:52Z</time>
      </trkpt>
      <trkpt lat="48.12382" lon="-3.29677">
        <ele>208.8</ele>
        <time>2024-11-20T09:36:53Z</time>
      </trkpt>
      <trkpt lat="48.12383" lon="-3.29679">
        <ele>208.7</ele>
        <time>2024-11-20T09:36:54Z</time>
      </trkpt>
      <trkpt lat="48.12384" lon="-3.2968">
        <ele>208.7</ele>
        <time>2024-11-20T09:36:55Z</time>
      </trkpt>
      <trkpt lat="48.12385" lon="-3.29682">
        <ele>208.7</ele>
        <time>2024-11-20T09:36:56Z</time>
      </trkpt>
      <trkpt lat="48.12385" lon="-3.29683">
        <ele>208.6</ele>
        <time>2024-11-20T09:36:57Z</time>
      </trkpt>
      <trkpt lat="48.12386" lon="-3.29684">
        <ele>208.6</ele>
        <time>2024-11-20T09:36:58Z</time>
      </trkpt>
      <trkpt lat="48.12387" lon="-3.29686">
        <ele>208.5</ele>
        <time>2024-11-20T09:36:59Z</time>
      </trkpt>
      <trkpt lat="48.12387" lon="-3.29687">
        <ele>208.4</ele>
        <time>2024-11-20T09:37:00Z</time>
      </trkpt>
      <trkpt lat="48.12387" lon="-3.29688">
        <ele>208.4</ele>
        <time>2024-11-20T09:37:01Z</time>
      </trkpt>
      <trkpt lat="48.12388" lon="-3.2969">
        <ele>208.3</ele>
        <time>2024-11-20T09:37:02Z</time>
      </trkpt>
      <trkpt lat="48.12388" lon="-3.29691">
        <ele>208.2</ele>
        <time>2024-11-20T09:37:03Z</time>
      </trkpt>
      <trkpt lat="48.12388" lon="-3.29692">
        <ele>208.2</ele>
        <time>2024-11-20T09:37:04Z</time>
      </trkpt>
      <trkpt lat="48.12389" lon="-3.29694">
        <ele>208.1</ele>
        <time>2024-11-20T09:37:05Z</time>
      </trkpt>
      <trkpt lat="48.1239" lon="-3.29695">
        <ele>208</ele>
        <time>2024-11-20T09:37:06Z</time>
      </trkpt>
      <trkpt lat="48.1239" lon="-3.29697">
        <ele>208</ele>
        <time>2024-11-20T09:37:07Z</time>
      </trkpt>
      <trkpt lat="48.12391" lon="-3.29698">
        <ele>207.9</ele>
        <time>2024-11-20T09:37:08Z</time>
      </trkpt>
      <trkpt lat="48.12392" lon="-3.29699">
        <ele>207.9</ele>
        <time>2024-11-20T09:37:09Z</time>
      </trkpt>
      <trkpt lat="48.12392" lon="-3.297">
        <ele>207.8</ele>
        <time>2024-11-20T09:37:10Z</time>
      </trkpt>
      <trkpt lat="48.12393" lon="-3.29701">
        <ele>207.8</ele>
        <time>2024-11-20T09:37:11Z</time>
      </trkpt>
      <trkpt lat="48.12394" lon="-3.29703">
        <ele>207.8</ele>
        <time>2024-11-20T09:37:12Z</time>
      </trkpt>
      <trkpt lat="48.12395" lon="-3.29705">
        <ele>207.7</ele>
        <time>2024-11-20T09:37:13Z</time>
      </trkpt>
      <trkpt lat="48.12395" lon="-3.29706">
        <ele>207.7</ele>
        <time>2024-11-20T09:37:14Z</time>
      </trkpt>
      <trkpt lat="48.12396" lon="-3.29707">
        <ele>207.7</ele>
        <time>2024-11-20T09:37:15Z</time>
      </trkpt>
      <trkpt lat="48.12396" lon="-3.29709">
        <ele>207.5</ele>
        <time>2024-11-20T09:37:16Z</time>
      </trkpt>
      <trkpt lat="48.12397" lon="-3.2971">
        <ele>207.4</ele>
        <time>2024-11-20T09:37:17Z</time>
      </trkpt>
      <trkpt lat="48.12397" lon="-3.29711">
        <ele>207.3</ele>
        <time>2024-11-20T09:37:18Z</time>
      </trkpt>
      <trkpt lat="48.12397" lon="-3.29712">
        <ele>207.3</ele>
        <time>2024-11-20T09:37:19Z</time>
      </trkpt>
      <trkpt lat="48.12397" lon="-3.29713">
        <ele>207.2</ele>
        <time>2024-11-20T09:37:20Z</time>
      </trkpt>
      <trkpt lat="48.12398" lon="-3.29713">
        <ele>207.2</ele>
        <time>2024-11-20T09:37:21Z</time>
      </trkpt>
      <trkpt lat="48.12398" lon="-3.29714">
        <ele>207.2</ele>
        <time>2024-11-20T09:37:22Z</time>
      </trkpt>
      <trkpt lat="48.12399" lon="-3.29716">
        <ele>207.2</ele>
        <time>2024-11-20T09:37:23Z</time>
      </trkpt>
      <trkpt lat="48.124" lon="-3.29717">
        <ele>207.1</ele>
        <time>2024-11-20T09:37:24Z</time>
      </trkpt>
      <trkpt lat="48.12401" lon="-3.29718">
        <ele>207.1</ele>
        <time>2024-11-20T09:37:25Z</time>
      </trkpt>
      <trkpt lat="48.12402" lon="-3.2972">
        <ele>207.1</ele>
        <time>2024-11-20T09:37:26Z</time>
      </trkpt>
      <trkpt lat="48.12402" lon="-3.29721">
        <ele>207.1</ele>
        <time>2024-11-20T09:37:27Z</time>
      </trkpt>
      <trkpt lat="48.12403" lon="-3.29722">
        <ele>207</ele>
        <time>2024-11-20T09:37:28Z</time>
      </trkpt>
      <trkpt lat="48.12404" lon="-3.29724">
        <ele>207</ele>
        <time>2024-11-20T09:37:29Z</time>
      </trkpt>
      <trkpt lat="48.12404" lon="-3.29726">
        <ele>206.9</ele>
        <time>2024-11-20T09:37:30Z</time>
      </trkpt>
      <trkpt lat="48.12405" lon="-3.29728">
        <ele>206.8</ele>
        <time>2024-11-20T09:37:31Z</time>
      </trkpt>
      <trkpt lat="48.12406" lon="-3.2973">
        <ele>206.7</ele>
        <time>2024-11-20T09:37:32Z</time>
      </trkpt>
      <trkpt lat="48.12407" lon="-3.29732">
        <ele>206.6</ele>
        <time>2024-11-20T09:37:33Z</time>
      </trkpt>
      <trkpt lat="48.12408" lon="-3.29734">
        <ele>206.6</ele>
        <time>2024-11-20T09:37:34Z</time>
      </trkpt>
      <trkpt lat="48.12408" lon="-3.29735">
        <ele>206.5</ele>
        <time>2024-11-20T09:37:35Z</time>
      </trkpt>
      <trkpt lat="48.12409" lon="-3.29737">
        <ele>206.4</ele>
        <time>2024-11-20T09:37:36Z</time>
      </trkpt>
      <trkpt lat="48.1241" lon="-3.29739">
        <ele>206.4</ele>
        <time>2024-11-20T09:37:37Z</time>
      </trkpt>
      <trkpt lat="48.1241" lon="-3.2974">
        <ele>206.3</ele>
        <time>2024-11-20T09:37:38Z</time>
      </trkpt>
      <trkpt lat="48.12411" lon="-3.29742">
        <ele>206.2</ele>
        <time>2024-11-20T09:37:39Z</time>
      </trkpt>
      <trkpt lat="48.12412" lon="-3.29744">
        <ele>206.1</ele>
        <time>2024-11-20T09:37:40Z</time>
      </trkpt>
      <trkpt lat="48.12413" lon="-3.29746">
        <ele>206</ele>
        <time>2024-11-20T09:37:41Z</time>
      </trkpt>
      <trkpt lat="48.12413" lon="-3.29748">
        <ele>205.8</ele>
        <time>2024-11-20T09:37:42Z</time>
      </trkpt>
      <trkpt lat="48.12414" lon="-3.2975">
        <ele>205.7</ele>
        <time>2024-11-20T09:37:43Z</time>
      </trkpt>
      <trkpt lat="48.12414" lon="-3.29752">
        <ele>205.6</ele>
        <time>2024-11-20T09:37:44Z</time>
      </trkpt>
      <trkpt lat="48.12414" lon="-3.29754">
        <ele>205.5</ele>
        <time>2024-11-20T09:37:45Z</time>
      </trkpt>
      <trkpt lat="48.12415" lon="-3.29755">
        <ele>205.5</ele>
        <time>2024-11-20T09:37:46Z</time>
      </trkpt>
      <trkpt lat="48.12416" lon="-3.29756">
        <ele>205.4</ele>
        <time>2024-11-20T09:37:47Z</time>
      </trkpt>
      <trkpt lat="48.12416" lon="-3.29758">
        <ele>205.4</ele>
        <time>2024-11-20T09:37:48Z</time>
      </trkpt>
      <trkpt lat="48.12417" lon="-3.29759">
        <ele>205.3</ele>
        <time>2024-11-20T09:37:49Z</time>
      </trkpt>
      <trkpt lat="48.12417" lon="-3.29761">
        <ele>205.3</ele>
        <time>2024-11-20T09:37:50Z</time>
      </trkpt>
      <trkpt lat="48.12418" lon="-3.29762">
        <ele>205.3</ele>
        <time>2024-11-20T09:37:51Z</time>
      </trkpt>
      <trkpt lat="48.12418" lon="-3.29763">
        <ele>205.3</ele>
        <time>2024-11-20T09:37:52Z</time>
      </trkpt>
      <trkpt lat="48.12419" lon="-3.29764">
        <ele>205.3</ele>
        <time>2024-11-20T09:37:53Z</time>
      </trkpt>
      <trkpt lat="48.12419" lon="-3.29765">
        <ele>205.2</ele>
        <time>2024-11-20T09:37:54Z</time>
      </trkpt>
      <trkpt lat="48.12419" lon="-3.29767">
        <ele>205.2</ele>
        <time>2024-11-20T09:37:55Z</time>
      </trkpt>
      <trkpt lat="48.12419" lon="-3.29768">
        <ele>205.1</ele>
        <time>2024-11-20T09:37:56Z</time>
      </trkpt>
      <trkpt lat="48.12419" lon="-3.2977">
        <ele>205</ele>
        <time>2024-11-20T09:37:57Z</time>
      </trkpt>
      <trkpt lat="48.12419" lon="-3.29771">
        <ele>204.9</ele>
        <time>2024-11-20T09:37:58Z</time>
      </trkpt>
      <trkpt lat="48.12419" lon="-3.29772">
        <ele>204.8</ele>
        <time>2024-11-20T09:37:59Z</time>
      </trkpt>
      <trkpt lat="48.12419" lon="-3.29774">
        <ele>204.6</ele>
        <time>2024-11-20T09:38:00Z</time>
      </trkpt>
      <trkpt lat="48.12419" lon="-3.29776">
        <ele>204.4</ele>
        <time>2024-11-20T09:38:01Z</time>
      </trkpt>
      <trkpt lat="48.12418" lon="-3.29777">
        <ele>204.3</ele>
        <time>2024-11-20T09:38:02Z</time>
      </trkpt>
      <trkpt lat="48.12418" lon="-3.29779">
        <ele>204.1</ele>
        <time>2024-11-20T09:38:03Z</time>
      </trkpt>
      <trkpt lat="48.12417" lon="-3.29781">
        <ele>203.8</ele>
        <time>2024-11-20T09:38:04Z</time>
      </trkpt>
      <trkpt lat="48.12416" lon="-3.29783">
        <ele>203.6</ele>
        <time>2024-11-20T09:38:05Z</time>
      </trkpt>
      <trkpt lat="48.12415" lon="-3.29784">
        <ele>203.4</ele>
        <time>2024-11-20T09:38:06Z</time>
      </trkpt>
      <trkpt lat="48.12414" lon="-3.29785">
        <ele>203.3</ele>
        <time>2024-11-20T09:38:07Z</time>
      </trkpt>
      <trkpt lat="48.12413" lon="-3.29787">
        <ele>203.1</ele>
        <time>2024-11-20T09:38:08Z</time>
      </trkpt>
      <trkpt lat="48.12412" lon="-3.29788">
        <ele>202.9</ele>
        <time>2024-11-20T09:38:09Z</time>
      </trkpt>
      <trkpt lat="48.12411" lon="-3.2979">
        <ele>202.7</ele>
        <time>2024-11-20T09:38:10Z</time>
      </trkpt>
      <trkpt lat="48.1241" lon="-3.29791">
        <ele>202.6</ele>
        <time>2024-11-20T09:38:11Z</time>
      </trkpt>
      <trkpt lat="48.12409" lon="-3.29792">
        <ele>202.4</ele>
        <time>2024-11-20T09:38:12Z</time>
      </trkpt>
      <trkpt lat="48.12408" lon="-3.29793">
        <ele>202.3</ele>
        <time>2024-11-20T09:38:13Z</time>
      </trkpt>
      <trkpt lat="48.12406" lon="-3.29794">
        <ele>202.1</ele>
        <time>2024-11-20T09:38:14Z</time>
      </trkpt>
      <trkpt lat="48.12405" lon="-3.29795">
        <ele>201.9</ele>
        <time>2024-11-20T09:38:15Z</time>
      </trkpt>
      <trkpt lat="48.12403" lon="-3.29796">
        <ele>201.7</ele>
        <time>2024-11-20T09:38:16Z</time>
      </trkpt>
      <trkpt lat="48.12402" lon="-3.29797">
        <ele>201.6</ele>
        <time>2024-11-20T09:38:17Z</time>
      </trkpt>
      <trkpt lat="48.12401" lon="-3.29798">
        <ele>201.4</ele>
        <time>2024-11-20T09:38:18Z</time>
      </trkpt>
      <trkpt lat="48.124" lon="-3.29798">
        <ele>201.3</ele>
        <time>2024-11-20T09:38:19Z</time>
      </trkpt>
      <trkpt lat="48.12398" lon="-3.29799">
        <ele>201.1</ele>
        <time>2024-11-20T09:38:20Z</time>
      </trkpt>
      <trkpt lat="48.12396" lon="-3.29799">
        <ele>201</ele>
        <time>2024-11-20T09:38:21Z</time>
      </trkpt>
      <trkpt lat="48.12395" lon="-3.29799">
        <ele>200.9</ele>
        <time>2024-11-20T09:38:22Z</time>
      </trkpt>
      <trkpt lat="48.12394" lon="-3.29799">
        <ele>200.8</ele>
        <time>2024-11-20T09:38:23Z</time>
      </trkpt>
      <trkpt lat="48.12392" lon="-3.29799">
        <ele>200.7</ele>
        <time>2024-11-20T09:38:24Z</time>
      </trkpt>
      <trkpt lat="48.12391" lon="-3.298">
        <ele>200.6</ele>
        <time>2024-11-20T09:38:25Z</time>
      </trkpt>
      <trkpt lat="48.1239" lon="-3.298">
        <ele>200.5</ele>
        <time>2024-11-20T09:38:26Z</time>
      </trkpt>
      <trkpt lat="48.12389" lon="-3.29801">
        <ele>200.4</ele>
        <time>2024-11-20T09:38:27Z</time>
      </trkpt>
      <trkpt lat="48.12389" lon="-3.29801">
        <ele>200.3</ele>
        <time>2024-11-20T09:38:28Z</time>
      </trkpt>
      <trkpt lat="48.12388" lon="-3.29802">
        <ele>200.2</ele>
        <time>2024-11-20T09:38:29Z</time>
      </trkpt>
      <trkpt lat="48.12387" lon="-3.29802">
        <ele>200.1</ele>
        <time>2024-11-20T09:38:30Z</time>
      </trkpt>
      <trkpt lat="48.12386" lon="-3.29803">
        <ele>200</ele>
        <time>2024-11-20T09:38:31Z</time>
      </trkpt>
      <trkpt lat="48.12385" lon="-3.29803">
        <ele>199.9</ele>
        <time>2024-11-20T09:38:32Z</time>
      </trkpt>
      <trkpt lat="48.12384" lon="-3.29804">
        <ele>199.8</ele>
        <time>2024-11-20T09:38:33Z</time>
      </trkpt>
      <trkpt lat="48.12383" lon="-3.29804">
        <ele>199.7</ele>
        <time>2024-11-20T09:38:34Z</time>
      </trkpt>
      <trkpt lat="48.12382" lon="-3.29805">
        <ele>199.6</ele>
        <time>2024-11-20T09:38:35Z</time>
      </trkpt>
      <trkpt lat="48.12381" lon="-3.29805">
        <ele>199.5</ele>
        <time>2024-11-20T09:38:36Z</time>
      </trkpt>
      <trkpt lat="48.1238" lon="-3.29806">
        <ele>199.4</ele>
        <time>2024-11-20T09:38:37Z</time>
      </trkpt>
      <trkpt lat="48.12379" lon="-3.29805">
        <ele>199.3</ele>
        <time>2024-11-20T09:38:38Z</time>
      </trkpt>
      <trkpt lat="48.12378" lon="-3.29805">
        <ele>199.2</ele>
        <time>2024-11-20T09:38:39Z</time>
      </trkpt>
      <trkpt lat="48.12377" lon="-3.29805">
        <ele>199.2</ele>
        <time>2024-11-20T09:38:40Z</time>
      </trkpt>
      <trkpt lat="48.12376" lon="-3.29805">
        <ele>199.2</ele>
        <time>2024-11-20T09:38:41Z</time>
      </trkpt>
      <trkpt lat="48.12375" lon="-3.29805">
        <ele>199.1</ele>
        <time>2024-11-20T09:38:42Z</time>
      </trkpt>
      <trkpt lat="48.12374" lon="-3.29805">
        <ele>199</ele>
        <time>2024-11-20T09:38:43Z</time>
      </trkpt>
      <trkpt lat="48.12373" lon="-3.29804">
        <ele>198.9</ele>
        <time>2024-11-20T09:38:44Z</time>
      </trkpt>
      <trkpt lat="48.12372" lon="-3.29805">
        <ele>198.9</ele>
        <time>2024-11-20T09:38:45Z</time>
      </trkpt>
      <trkpt lat="48.12372" lon="-3.29805">
        <ele>198.8</ele>
        <time>2024-11-20T09:38:46Z</time>
      </trkpt>
      <trkpt lat="48.12371" lon="-3.29805">
        <ele>198.7</ele>
        <time>2024-11-20T09:38:47Z</time>
      </trkpt>
      <trkpt lat="48.12369" lon="-3.29805">
        <ele>198.6</ele>
        <time>2024-11-20T09:38:48Z</time>
      </trkpt>
      <trkpt lat="48.12368" lon="-3.29805">
        <ele>198.6</ele>
        <time>2024-11-20T09:38:49Z</time>
      </trkpt>
      <trkpt lat="48.12367" lon="-3.29805">
        <ele>198.5</ele>
        <time>2024-11-20T09:38:50Z</time>
      </trkpt>
      <trkpt lat="48.12366" lon="-3.29805">
        <ele>198.4</ele>
        <time>2024-11-20T09:38:51Z</time>
      </trkpt>
      <trkpt lat="48.12365" lon="-3.29805">
        <ele>198.3</ele>
        <time>2024-11-20T09:38:52Z</time>
      </trkpt>
      <trkpt lat="48.12364" lon="-3.29805">
        <ele>198.2</ele>
        <time>2024-11-20T09:38:53Z</time>
      </trkpt>
      <trkpt lat="48.12362" lon="-3.29805">
        <ele>198.1</ele>
        <time>2024-11-20T09:38:54Z</time>
      </trkpt>
      <trkpt lat="48.12361" lon="-3.29805">
        <ele>198</ele>
        <time>2024-11-20T09:38:55Z</time>
      </trkpt>
      <trkpt lat="48.1236" lon="-3.29805">
        <ele>198</ele>
        <time>2024-11-20T09:38:56Z</time>
      </trkpt>
      <trkpt lat="48.12359" lon="-3.29806">
        <ele>197.9</ele>
        <time>2024-11-20T09:38:57Z</time>
      </trkpt>
      <trkpt lat="48.12357" lon="-3.29806">
        <ele>197.9</ele>
        <time>2024-11-20T09:38:58Z</time>
      </trkpt>
      <trkpt lat="48.12356" lon="-3.29807">
        <ele>197.8</ele>
        <time>2024-11-20T09:38:59Z</time>
      </trkpt>
      <trkpt lat="48.12355" lon="-3.29808">
        <ele>197.8</ele>
        <time>2024-11-20T09:39:00Z</time>
      </trkpt>
      <trkpt lat="48.12354" lon="-3.29808">
        <ele>197.8</ele>
        <time>2024-11-20T09:39:01Z</time>
      </trkpt>
      <trkpt lat="48.12353" lon="-3.29809">
        <ele>197.7</ele>
        <time>2024-11-20T09:39:02Z</time>
      </trkpt>
      <trkpt lat="48.12352" lon="-3.29809">
        <ele>197.7</ele>
        <time>2024-11-20T09:39:03Z</time>
      </trkpt>
      <trkpt lat="48.12351" lon="-3.2981">
        <ele>197.7</ele>
        <time>2024-11-20T09:39:04Z</time>
      </trkpt>
      <trkpt lat="48.1235" lon="-3.29811">
        <ele>197.7</ele>
        <time>2024-11-20T09:39:05Z</time>
      </trkpt>
      <trkpt lat="48.12349" lon="-3.29812">
        <ele>197.6</ele>
        <time>2024-11-20T09:39:06Z</time>
      </trkpt>
      <trkpt lat="48.12347" lon="-3.29812">
        <ele>197.6</ele>
        <time>2024-11-20T09:39:07Z</time>
      </trkpt>
      <trkpt lat="48.12346" lon="-3.29813">
        <ele>197.6</ele>
        <time>2024-11-20T09:39:08Z</time>
      </trkpt>
      <trkpt lat="48.12345" lon="-3.29814">
        <ele>197.6</ele>
        <time>2024-11-20T09:39:09Z</time>
      </trkpt>
      <trkpt lat="48.12344" lon="-3.29814">
        <ele>197.6</ele>
        <time>2024-11-20T09:39:10Z</time>
      </trkpt>
      <trkpt lat="48.12342" lon="-3.29815">
        <ele>197.5</ele>
        <time>2024-11-20T09:39:11Z</time>
      </trkpt>
      <trkpt lat="48.12341" lon="-3.29815">
        <ele>197.5</ele>
        <time>2024-11-20T09:39:12Z</time>
      </trkpt>
      <trkpt lat="48.1234" lon="-3.29815">
        <ele>197.5</ele>
        <time>2024-11-20T09:39:13Z</time>
      </trkpt>
      <trkpt lat="48.12339" lon="-3.29815">
        <ele>197.5</ele>
        <time>2024-11-20T09:39:14Z</time>
      </trkpt>
      <trkpt lat="48.12337" lon="-3.29814">
        <ele>197.4</ele>
        <time>2024-11-20T09:39:15Z</time>
      </trkpt>
      <trkpt lat="48.12336" lon="-3.29815">
        <ele>197.4</ele>
        <time>2024-11-20T09:39:16Z</time>
      </trkpt>
      <trkpt lat="48.12335" lon="-3.29815">
        <ele>197.4</ele>
        <time>2024-11-20T09:39:17Z</time>
      </trkpt>
      <trkpt lat="48.12333" lon="-3.29815">
        <ele>197.3</ele>
        <time>2024-11-20T09:39:18Z</time>
      </trkpt>
      <trkpt lat="48.12332" lon="-3.29815">
        <ele>197.3</ele>
        <time>2024-11-20T09:39:19Z</time>
      </trkpt>
      <trkpt lat="48.12331" lon="-3.29815">
        <ele>197.3</ele>
        <time>2024-11-20T09:39:20Z</time>
      </trkpt>
      <trkpt lat="48.1233" lon="-3.29815">
        <ele>197.3</ele>
        <time>2024-11-20T09:39:21Z</time>
      </trkpt>
      <trkpt lat="48.12329" lon="-3.29814">
        <ele>197.3</ele>
        <time>2024-11-20T09:39:22Z</time>
      </trkpt>
      <trkpt lat="48.12328" lon="-3.29814">
        <ele>197.3</ele>
        <time>2024-11-20T09:39:23Z</time>
      </trkpt>
      <trkpt lat="48.12327" lon="-3.29814">
        <ele>197.3</ele>
        <time>2024-11-20T09:39:24Z</time>
      </trkpt>
      <trkpt lat="48.12326" lon="-3.29813">
        <ele>197.3</ele>
        <time>2024-11-20T09:39:25Z</time>
      </trkpt>
      <trkpt lat="48.12325" lon="-3.29813">
        <ele>197.3</ele>
        <time>2024-11-20T09:39:26Z</time>
      </trkpt>
      <trkpt lat="48.12323" lon="-3.29812">
        <ele>197.2</ele>
        <time>2024-11-20T09:39:27Z</time>
      </trkpt>
      <trkpt lat="48.12322" lon="-3.29812">
        <ele>197.2</ele>
        <time>2024-11-20T09:39:28Z</time>
      </trkpt>
      <trkpt lat="48.12321" lon="-3.29811">
        <ele>197.2</ele>
        <time>2024-11-20T09:39:29Z</time>
      </trkpt>
      <trkpt lat="48.12319" lon="-3.2981">
        <ele>197.2</ele>
        <time>2024-11-20T09:39:30Z</time>
      </trkpt>
      <trkpt lat="48.12317" lon="-3.2981">
        <ele>197.2</ele>
        <time>2024-11-20T09:39:31Z</time>
      </trkpt>
      <trkpt lat="48.12316" lon="-3.2981">
        <ele>197.1</ele>
        <time>2024-11-20T09:39:32Z</time>
      </trkpt>
      <trkpt lat="48.12315" lon="-3.29809">
        <ele>197.1</ele>
        <time>2024-11-20T09:39:33Z</time>
      </trkpt>
      <trkpt lat="48.12314" lon="-3.29808">
        <ele>197.1</ele>
        <time>2024-11-20T09:39:34Z</time>
      </trkpt>
      <trkpt lat="48.12313" lon="-3.29808">
        <ele>197.1</ele>
        <time>2024-11-20T09:39:35Z</time>
      </trkpt>
      <trkpt lat="48.12311" lon="-3.29807">
        <ele>197.1</ele>
        <time>2024-11-20T09:39:36Z</time>
      </trkpt>
      <trkpt lat="48.1231" lon="-3.29806">
        <ele>197</ele>
        <time>2024-11-20T09:39:37Z</time>
      </trkpt>
      <trkpt lat="48.12309" lon="-3.29806">
        <ele>197</ele>
        <time>2024-11-20T09:39:38Z</time>
      </trkpt>
      <trkpt lat="48.12307" lon="-3.29805">
        <ele>197</ele>
        <time>2024-11-20T09:39:39Z</time>
      </trkpt>
      <trkpt lat="48.12306" lon="-3.29804">
        <ele>196.9</ele>
        <time>2024-11-20T09:39:40Z</time>
      </trkpt>
      <trkpt lat="48.12305" lon="-3.29803">
        <ele>196.9</ele>
        <time>2024-11-20T09:39:41Z</time>
      </trkpt>
      <trkpt lat="48.12304" lon="-3.29802">
        <ele>196.8</ele>
        <time>2024-11-20T09:39:42Z</time>
      </trkpt>
      <trkpt lat="48.12303" lon="-3.298">
        <ele>196.7</ele>
        <time>2024-11-20T09:39:43Z</time>
      </trkpt>
      <trkpt lat="48.12302" lon="-3.29799">
        <ele>196.6</ele>
        <time>2024-11-20T09:39:44Z</time>
      </trkpt>
      <trkpt lat="48.12301" lon="-3.29798">
        <ele>196.5</ele>
        <time>2024-11-20T09:39:45Z</time>
      </trkpt>
      <trkpt lat="48.123" lon="-3.29796">
        <ele>196.5</ele>
        <time>2024-11-20T09:39:46Z</time>
      </trkpt>
      <trkpt lat="48.12299" lon="-3.29795">
        <ele>196.4</ele>
        <time>2024-11-20T09:39:47Z</time>
      </trkpt>
      <trkpt lat="48.12298" lon="-3.29793">
        <ele>196.3</ele>
        <time>2024-11-20T09:39:48Z</time>
      </trkpt>
      <trkpt lat="48.12297" lon="-3.29791">
        <ele>196.2</ele>
        <time>2024-11-20T09:39:49Z</time>
      </trkpt>
      <trkpt lat="48.12296" lon="-3.2979">
        <ele>196.1</ele>
        <time>2024-11-20T09:39:50Z</time>
      </trkpt>
      <trkpt lat="48.12295" lon="-3.29788">
        <ele>196</ele>
        <time>2024-11-20T09:39:51Z</time>
      </trkpt>
      <trkpt lat="48.12294" lon="-3.29787">
        <ele>195.9</ele>
        <time>2024-11-20T09:39:52Z</time>
      </trkpt>
      <trkpt lat="48.12293" lon="-3.29785">
        <ele>195.8</ele>
        <time>2024-11-20T09:39:53Z</time>
      </trkpt>
      <trkpt lat="48.12293" lon="-3.29783">
        <ele>195.7</ele>
        <time>2024-11-20T09:39:54Z</time>
      </trkpt>
      <trkpt lat="48.12292" lon="-3.29782">
        <ele>195.6</ele>
        <time>2024-11-20T09:39:55Z</time>
      </trkpt>
      <trkpt lat="48.12291" lon="-3.2978">
        <ele>195.5</ele>
        <time>2024-11-20T09:39:56Z</time>
      </trkpt>
      <trkpt lat="48.1229" lon="-3.29778">
        <ele>195.5</ele>
        <time>2024-11-20T09:39:57Z</time>
      </trkpt>
      <trkpt lat="48.12289" lon="-3.29777">
        <ele>195.4</ele>
        <time>2024-11-20T09:39:58Z</time>
      </trkpt>
      <trkpt lat="48.12288" lon="-3.29775">
        <ele>195.3</ele>
        <time>2024-11-20T09:39:59Z</time>
      </trkpt>
      <trkpt lat="48.12287" lon="-3.29774">
        <ele>195.2</ele>
        <time>2024-11-20T09:40:00Z</time>
      </trkpt>
      <trkpt lat="48.12287" lon="-3.29773">
        <ele>195.2</ele>
        <time>2024-11-20T09:40:01Z</time>
      </trkpt>
      <trkpt lat="48.12286" lon="-3.29772">
        <ele>195.1</ele>
        <time>2024-11-20T09:40:02Z</time>
      </trkpt>
      <trkpt lat="48.12285" lon="-3.29771">
        <ele>195.1</ele>
        <time>2024-11-20T09:40:03Z</time>
      </trkpt>
      <trkpt lat="48.12285" lon="-3.2977">
        <ele>195</ele>
        <time>2024-11-20T09:40:04Z</time>
      </trkpt>
      <trkpt lat="48.12284" lon="-3.29769">
        <ele>195</ele>
        <time>2024-11-20T09:40:05Z</time>
      </trkpt>
      <trkpt lat="48.12283" lon="-3.29767">
        <ele>194.9</ele>
        <time>2024-11-20T09:40:06Z</time>
      </trkpt>
      <trkpt lat="48.12282" lon="-3.29766">
        <ele>194.8</ele>
        <time>2024-11-20T09:40:07Z</time>
      </trkpt>
      <trkpt lat="48.12282" lon="-3.29764">
        <ele>194.7</ele>
        <time>2024-11-20T09:40:08Z</time>
      </trkpt>
      <trkpt lat="48.12282" lon="-3.29763">
        <ele>194.7</ele>
        <time>2024-11-20T09:40:09Z</time>
      </trkpt>
      <trkpt lat="48.12281" lon="-3.29762">
        <ele>194.6</ele>
        <time>2024-11-20T09:40:10Z</time>
      </trkpt>
      <trkpt lat="48.12281" lon="-3.2976">
        <ele>194.5</ele>
        <time>2024-11-20T09:40:11Z</time>
      </trkpt>
      <trkpt lat="48.1228" lon="-3.29759">
        <ele>194.4</ele>
        <time>2024-11-20T09:40:12Z</time>
      </trkpt>
      <trkpt lat="48.12279" lon="-3.29757">
        <ele>194.3</ele>
        <time>2024-11-20T09:40:13Z</time>
      </trkpt>
      <trkpt lat="48.12279" lon="-3.29755">
        <ele>194.2</ele>
        <time>2024-11-20T09:40:14Z</time>
      </trkpt>
      <trkpt lat="48.12278" lon="-3.29754">
        <ele>194.1</ele>
        <time>2024-11-20T09:40:15Z</time>
      </trkpt>
      <trkpt lat="48.12277" lon="-3.29752">
        <ele>194.1</ele>
        <time>2024-11-20T09:40:16Z</time>
      </trkpt>
      <trkpt lat="48.12276" lon="-3.29751">
        <ele>194</ele>
        <time>2024-11-20T09:40:17Z</time>
      </trkpt>
      <trkpt lat="48.12275" lon="-3.29749">
        <ele>193.9</ele>
        <time>2024-11-20T09:40:18Z</time>
      </trkpt>
      <trkpt lat="48.12274" lon="-3.29748">
        <ele>193.9</ele>
        <time>2024-11-20T09:40:19Z</time>
      </trkpt>
      <trkpt lat="48.12273" lon="-3.29747">
        <ele>193.8</ele>
        <time>2024-11-20T09:40:20Z</time>
      </trkpt>
      <trkpt lat="48.12273" lon="-3.29745">
        <ele>193.8</ele>
        <time>2024-11-20T09:40:21Z</time>
      </trkpt>
      <trkpt lat="48.12272" lon="-3.29744">
        <ele>193.8</ele>
        <time>2024-11-20T09:40:22Z</time>
      </trkpt>
      <trkpt lat="48.12272" lon="-3.29742">
        <ele>193.7</ele>
        <time>2024-11-20T09:40:23Z</time>
      </trkpt>
      <trkpt lat="48.12271" lon="-3.29741">
        <ele>193.7</ele>
        <time>2024-11-20T09:40:24Z</time>
      </trkpt>
      <trkpt lat="48.1227" lon="-3.29739">
        <ele>193.6</ele>
        <time>2024-11-20T09:40:25Z</time>
      </trkpt>
      <trkpt lat="48.12269" lon="-3.29738">
        <ele>193.6</ele>
        <time>2024-11-20T09:40:26Z</time>
      </trkpt>
      <trkpt lat="48.12268" lon="-3.29737">
        <ele>193.5</ele>
        <time>2024-11-20T09:40:27Z</time>
      </trkpt>
      <trkpt lat="48.12268" lon="-3.29735">
        <ele>193.4</ele>
        <time>2024-11-20T09:40:28Z</time>
      </trkpt>
      <trkpt lat="48.12267" lon="-3.29734">
        <ele>193.4</ele>
        <time>2024-11-20T09:40:29Z</time>
      </trkpt>
      <trkpt lat="48.12266" lon="-3.29733">
        <ele>193.3</ele>
        <time>2024-11-20T09:40:30Z</time>
      </trkpt>
      <trkpt lat="48.12266" lon="-3.29732">
        <ele>193.3</ele>
        <time>2024-11-20T09:40:31Z</time>
      </trkpt>
      <trkpt lat="48.12266" lon="-3.29731">
        <ele>193.3</ele>
        <time>2024-11-20T09:40:32Z</time>
      </trkpt>
      <trkpt lat="48.12265" lon="-3.2973">
        <ele>193.2</ele>
        <time>2024-11-20T09:40:33Z</time>
      </trkpt>
      <trkpt lat="48.12265" lon="-3.29728">
        <ele>193.2</ele>
        <time>2024-11-20T09:40:34Z</time>
      </trkpt>
      <trkpt lat="48.12264" lon="-3.29727">
        <ele>193.1</ele>
        <time>2024-11-20T09:40:35Z</time>
      </trkpt>
      <trkpt lat="48.12264" lon="-3.29725">
        <ele>193.1</ele>
        <time>2024-11-20T09:40:36Z</time>
      </trkpt>
      <trkpt lat="48.12264" lon="-3.29724">
        <ele>193</ele>
        <time>2024-11-20T09:40:37Z</time>
      </trkpt>
      <trkpt lat="48.12264" lon="-3.29723">
        <ele>193</ele>
        <time>2024-11-20T09:40:38Z</time>
      </trkpt>
      <trkpt lat="48.12263" lon="-3.29721">
        <ele>193</ele>
        <time>2024-11-20T09:40:39Z</time>
      </trkpt>
      <trkpt lat="48.12262" lon="-3.2972">
        <ele>192.9</ele>
        <time>2024-11-20T09:40:40Z</time>
      </trkpt>
      <trkpt lat="48.12261" lon="-3.29719">
        <ele>192.8</ele>
        <time>2024-11-20T09:40:41Z</time>
      </trkpt>
      <trkpt lat="48.1226" lon="-3.29718">
        <ele>192.8</ele>
        <time>2024-11-20T09:40:42Z</time>
      </trkpt>
      <trkpt lat="48.12259" lon="-3.29716">
        <ele>192.7</ele>
        <time>2024-11-20T09:40:43Z</time>
      </trkpt>
      <trkpt lat="48.12257" lon="-3.29715">
        <ele>192.6</ele>
        <time>2024-11-20T09:40:44Z</time>
      </trkpt>
      <trkpt lat="48.12256" lon="-3.29714">
        <ele>192.5</ele>
        <time>2024-11-20T09:40:45Z</time>
      </trkpt>
      <trkpt lat="48.12255" lon="-3.29713">
        <ele>192.4</ele>
        <time>2024-11-20T09:40:46Z</time>
      </trkpt>
      <trkpt lat="48.12254" lon="-3.29711">
        <ele>192.3</ele>
        <time>2024-11-20T09:40:47Z</time>
      </trkpt>
      <trkpt lat="48.12253" lon="-3.29709">
        <ele>192.2</ele>
        <time>2024-11-20T09:40:48Z</time>
      </trkpt>
      <trkpt lat="48.12252" lon="-3.29708">
        <ele>192.2</ele>
        <time>2024-11-20T09:40:49Z</time>
      </trkpt>
      <trkpt lat="48.12251" lon="-3.29707">
        <ele>192.1</ele>
        <time>2024-11-20T09:40:50Z</time>
      </trkpt>
      <trkpt lat="48.1225" lon="-3.29705">
        <ele>192</ele>
        <time>2024-11-20T09:40:51Z</time>
      </trkpt>
      <trkpt lat="48.12249" lon="-3.29704">
        <ele>192</ele>
        <time>2024-11-20T09:40:52Z</time>
      </trkpt>
      <trkpt lat="48.12249" lon="-3.29703">
        <ele>192</ele>
        <time>2024-11-20T09:40:53Z</time>
      </trkpt>
      <trkpt lat="48.12248" lon="-3.29701">
        <ele>191.9</ele>
        <time>2024-11-20T09:40:54Z</time>
      </trkpt>
      <trkpt lat="48.12247" lon="-3.297">
        <ele>191.9</ele>
        <time>2024-11-20T09:40:55Z</time>
      </trkpt>
      <trkpt lat="48.12247" lon="-3.29699">
        <ele>191.9</ele>
        <time>2024-11-20T09:40:56Z</time>
      </trkpt>
      <trkpt lat="48.12246" lon="-3.29698">
        <ele>191.9</ele>
        <time>2024-11-20T09:40:57Z</time>
      </trkpt>
      <trkpt lat="48.12246" lon="-3.29697">
        <ele>191.9</ele>
        <time>2024-11-20T09:40:58Z</time>
      </trkpt>
      <trkpt lat="48.12245" lon="-3.29696">
        <ele>191.8</ele>
        <time>2024-11-20T09:40:59Z</time>
      </trkpt>
      <trkpt lat="48.12244" lon="-3.29695">
        <ele>191.8</ele>
        <time>2024-11-20T09:41:00Z</time>
      </trkpt>
      <trkpt lat="48.12244" lon="-3.29694">
        <ele>191.8</ele>
        <time>2024-11-20T09:41:01Z</time>
      </trkpt>
      <trkpt lat="48.12243" lon="-3.29693">
        <ele>191.8</ele>
        <time>2024-11-20T09:41:02Z</time>
      </trkpt>
      <trkpt lat="48.12242" lon="-3.29691">
        <ele>191.8</ele>
        <time>2024-11-20T09:41:03Z</time>
      </trkpt>
      <trkpt lat="48.12241" lon="-3.29689">
        <ele>191.8</ele>
        <time>2024-11-20T09:41:04Z</time>
      </trkpt>
      <trkpt lat="48.1224" lon="-3.29688">
        <ele>191.8</ele>
        <time>2024-11-20T09:41:05Z</time>
      </trkpt>
      <trkpt lat="48.12239" lon="-3.29686">
        <ele>191.8</ele>
        <time>2024-11-20T09:41:06Z</time>
      </trkpt>
      <trkpt lat="48.12238" lon="-3.29684">
        <ele>191.8</ele>
        <time>2024-11-20T09:41:07Z</time>
      </trkpt>
      <trkpt lat="48.12237" lon="-3.29683">
        <ele>191.8</ele>
        <time>2024-11-20T09:41:08Z</time>
      </trkpt>
      <trkpt lat="48.12236" lon="-3.29681">
        <ele>191.7</ele>
        <time>2024-11-20T09:41:09Z</time>
      </trkpt>
      <trkpt lat="48.12235" lon="-3.29679">
        <ele>191.7</ele>
        <time>2024-11-20T09:41:10Z</time>
      </trkpt>
      <trkpt lat="48.12234" lon="-3.29678">
        <ele>191.7</ele>
        <time>2024-11-20T09:41:11Z</time>
      </trkpt>
      <trkpt lat="48.12234" lon="-3.29677">
        <ele>191.7</ele>
        <time>2024-11-20T09:41:12Z</time>
      </trkpt>
      <trkpt lat="48.12234" lon="-3.29675">
        <ele>191.7</ele>
        <time>2024-11-20T09:41:13Z</time>
      </trkpt>
      <trkpt lat="48.12233" lon="-3.29674">
        <ele>191.7</ele>
        <time>2024-11-20T09:41:14Z</time>
      </trkpt>
      <trkpt lat="48.12232" lon="-3.29672">
        <ele>191.6</ele>
        <time>2024-11-20T09:41:15Z</time>
      </trkpt>
      <trkpt lat="48.12231" lon="-3.2967">
        <ele>191.6</ele>
        <time>2024-11-20T09:41:16Z</time>
      </trkpt>
      <trkpt lat="48.1223" lon="-3.29668">
        <ele>191.6</ele>
        <time>2024-11-20T09:41:17Z</time>
      </trkpt>
      <trkpt lat="48.12229" lon="-3.29667">
        <ele>191.5</ele>
        <time>2024-11-20T09:41:18Z</time>
      </trkpt>
      <trkpt lat="48.12228" lon="-3.29665">
        <ele>191.5</ele>
        <time>2024-11-20T09:41:19Z</time>
      </trkpt>
      <trkpt lat="48.12228" lon="-3.29664">
        <ele>191.5</ele>
        <time>2024-11-20T09:41:20Z</time>
      </trkpt>
      <trkpt lat="48.12227" lon="-3.29663">
        <ele>191.5</ele>
        <time>2024-11-20T09:41:21Z</time>
      </trkpt>
      <trkpt lat="48.12226" lon="-3.29662">
        <ele>191.5</ele>
        <time>2024-11-20T09:41:22Z</time>
      </trkpt>
      <trkpt lat="48.12225" lon="-3.2966">
        <ele>191.4</ele>
        <time>2024-11-20T09:41:23Z</time>
      </trkpt>
      <trkpt lat="48.12224" lon="-3.29659">
        <ele>191.4</ele>
        <time>2024-11-20T09:41:24Z</time>
      </trkpt>
      <trkpt lat="48.12223" lon="-3.29658">
        <ele>191.4</ele>
        <time>2024-11-20T09:41:25Z</time>
      </trkpt>
      <trkpt lat="48.12222" lon="-3.29657">
        <ele>191.4</ele>
        <time>2024-11-20T09:41:26Z</time>
      </trkpt>
      <trkpt lat="48.12221" lon="-3.29655">
        <ele>191.4</ele>
        <time>2024-11-20T09:41:27Z</time>
      </trkpt>
      <trkpt lat="48.12221" lon="-3.29654">
        <ele>191.4</ele>
        <time>2024-11-20T09:41:28Z</time>
      </trkpt>
      <trkpt lat="48.1222" lon="-3.29653">
        <ele>191.5</ele>
        <time>2024-11-20T09:41:29Z</time>
      </trkpt>
      <trkpt lat="48.12219" lon="-3.29652">
        <ele>191.5</ele>
        <time>2024-11-20T09:41:30Z</time>
      </trkpt>
      <trkpt lat="48.12218" lon="-3.2965">
        <ele>191.5</ele>
        <time>2024-11-20T09:41:31Z</time>
      </trkpt>
      <trkpt lat="48.12218" lon="-3.29649">
        <ele>191.5</ele>
        <time>2024-11-20T09:41:32Z</time>
      </trkpt>
      <trkpt lat="48.12217" lon="-3.29648">
        <ele>191.5</ele>
        <time>2024-11-20T09:41:33Z</time>
      </trkpt>
      <trkpt lat="48.12217" lon="-3.29647">
        <ele>191.6</ele>
        <time>2024-11-20T09:41:34Z</time>
      </trkpt>
      <trkpt lat="48.12216" lon="-3.29646">
        <ele>191.6</ele>
        <time>2024-11-20T09:41:35Z</time>
      </trkpt>
      <trkpt lat="48.12215" lon="-3.29644">
        <ele>191.6</ele>
        <time>2024-11-20T09:41:36Z</time>
      </trkpt>
      <trkpt lat="48.12214" lon="-3.29643">
        <ele>191.6</ele>
        <time>2024-11-20T09:41:37Z</time>
      </trkpt>
      <trkpt lat="48.12214" lon="-3.29642">
        <ele>191.6</ele>
        <time>2024-11-20T09:41:38Z</time>
      </trkpt>
      <trkpt lat="48.12213" lon="-3.29641">
        <ele>191.6</ele>
        <time>2024-11-20T09:41:39Z</time>
      </trkpt>
      <trkpt lat="48.12212" lon="-3.2964">
        <ele>191.6</ele>
        <time>2024-11-20T09:41:40Z</time>
      </trkpt>
      <trkpt lat="48.12212" lon="-3.29639">
        <ele>191.6</ele>
        <time>2024-11-20T09:41:41Z</time>
      </trkpt>
      <trkpt lat="48.12211" lon="-3.29638">
        <ele>191.6</ele>
        <time>2024-11-20T09:41:42Z</time>
      </trkpt>
      <trkpt lat="48.1221" lon="-3.29637">
        <ele>191.5</ele>
        <time>2024-11-20T09:41:43Z</time>
      </trkpt>
      <trkpt lat="48.12209" lon="-3.29636">
        <ele>191.5</ele>
        <time>2024-11-20T09:41:44Z</time>
      </trkpt>
      <trkpt lat="48.12208" lon="-3.29635">
        <ele>191.5</ele>
        <time>2024-11-20T09:41:45Z</time>
      </trkpt>
      <trkpt lat="48.12207" lon="-3.29634">
        <ele>191.5</ele>
        <time>2024-11-20T09:41:46Z</time>
      </trkpt>
      <trkpt lat="48.12206" lon="-3.29633">
        <ele>191.4</ele>
        <time>2024-11-20T09:41:47Z</time>
      </trkpt>
      <trkpt lat="48.12205" lon="-3.29631">
        <ele>191.4</ele>
        <time>2024-11-20T09:41:48Z</time>
      </trkpt>
      <trkpt lat="48.12204" lon="-3.29631">
        <ele>191.4</ele>
        <time>2024-11-20T09:41:49Z</time>
      </trkpt>
      <trkpt lat="48.12204" lon="-3.2963">
        <ele>191.3</ele>
        <time>2024-11-20T09:41:50Z</time>
      </trkpt>
      <trkpt lat="48.12202" lon="-3.29629">
        <ele>191.3</ele>
        <time>2024-11-20T09:41:51Z</time>
      </trkpt>
      <trkpt lat="48.12201" lon="-3.29628">
        <ele>191.2</ele>
        <time>2024-11-20T09:41:52Z</time>
      </trkpt>
      <trkpt lat="48.122" lon="-3.29627">
        <ele>191.2</ele>
        <time>2024-11-20T09:41:53Z</time>
      </trkpt>
      <trkpt lat="48.12199" lon="-3.29627">
        <ele>191.2</ele>
        <time>2024-11-20T09:41:54Z</time>
      </trkpt>
      <trkpt lat="48.12198" lon="-3.29626">
        <ele>191.1</ele>
        <time>2024-11-20T09:41:55Z</time>
      </trkpt>
      <trkpt lat="48.12198" lon="-3.29626">
        <ele>191.1</ele>
        <time>2024-11-20T09:41:56Z</time>
      </trkpt>
      <trkpt lat="48.12197" lon="-3.29625">
        <ele>191.1</ele>
        <time>2024-11-20T09:41:57Z</time>
      </trkpt>
      <trkpt lat="48.12196" lon="-3.29625">
        <ele>191.1</ele>
        <time>2024-11-20T09:41:58Z</time>
      </trkpt>
      <trkpt lat="48.12195" lon="-3.29625">
        <ele>191</ele>
        <time>2024-11-20T09:41:59Z</time>
      </trkpt>
      <trkpt lat="48.12194" lon="-3.29625">
        <ele>191</ele>
        <time>2024-11-20T09:42:00Z</time>
      </trkpt>
      <trkpt lat="48.12193" lon="-3.29625">
        <ele>190.9</ele>
        <time>2024-11-20T09:42:01Z</time>
      </trkpt>
      <trkpt lat="48.12192" lon="-3.29625">
        <ele>190.9</ele>
        <time>2024-11-20T09:42:02Z</time>
      </trkpt>
      <trkpt lat="48.12191" lon="-3.29624">
        <ele>190.8</ele>
        <time>2024-11-20T09:42:03Z</time>
      </trkpt>
      <trkpt lat="48.1219" lon="-3.29624">
        <ele>190.8</ele>
        <time>2024-11-20T09:42:04Z</time>
      </trkpt>
      <trkpt lat="48.12189" lon="-3.29623">
        <ele>190.7</ele>
        <time>2024-11-20T09:42:05Z</time>
      </trkpt>
      <trkpt lat="48.12188" lon="-3.29623">
        <ele>190.6</ele>
        <time>2024-11-20T09:42:06Z</time>
      </trkpt>
      <trkpt lat="48.12187" lon="-3.29623">
        <ele>190.6</ele>
        <time>2024-11-20T09:42:07Z</time>
      </trkpt>
      <trkpt lat="48.12186" lon="-3.29622">
        <ele>190.5</ele>
        <time>2024-11-20T09:42:08Z</time>
      </trkpt>
      <trkpt lat="48.12185" lon="-3.29621">
        <ele>190.4</ele>
        <time>2024-11-20T09:42:09Z</time>
      </trkpt>
      <trkpt lat="48.12184" lon="-3.2962">
        <ele>190.4</ele>
        <time>2024-11-20T09:42:10Z</time>
      </trkpt>
      <trkpt lat="48.12184" lon="-3.29619">
        <ele>190.3</ele>
        <time>2024-11-20T09:42:11Z</time>
      </trkpt>
      <trkpt lat="48.12183" lon="-3.29618">
        <ele>190.3</ele>
        <time>2024-11-20T09:42:12Z</time>
      </trkpt>
      <trkpt lat="48.12182" lon="-3.29618">
        <ele>190.2</ele>
        <time>2024-11-20T09:42:13Z</time>
      </trkpt>
      <trkpt lat="48.12181" lon="-3.29617">
        <ele>190.1</ele>
        <time>2024-11-20T09:42:14Z</time>
      </trkpt>
      <trkpt lat="48.12179" lon="-3.29617">
        <ele>190</ele>
        <time>2024-11-20T09:42:15Z</time>
      </trkpt>
      <trkpt lat="48.12178" lon="-3.29617">
        <ele>189.9</ele>
        <time>2024-11-20T09:42:16Z</time>
      </trkpt>
      <trkpt lat="48.12176" lon="-3.29616">
        <ele>189.8</ele>
        <time>2024-11-20T09:42:17Z</time>
      </trkpt>
      <trkpt lat="48.12175" lon="-3.29615">
        <ele>189.7</ele>
        <time>2024-11-20T09:42:18Z</time>
      </trkpt>
      <trkpt lat="48.12173" lon="-3.29614">
        <ele>189.5</ele>
        <time>2024-11-20T09:42:19Z</time>
      </trkpt>
      <trkpt lat="48.12171" lon="-3.29613">
        <ele>189.4</ele>
        <time>2024-11-20T09:42:20Z</time>
      </trkpt>
      <trkpt lat="48.1217" lon="-3.29612">
        <ele>189.2</ele>
        <time>2024-11-20T09:42:21Z</time>
      </trkpt>
      <trkpt lat="48.12169" lon="-3.29611">
        <ele>189.1</ele>
        <time>2024-11-20T09:42:22Z</time>
      </trkpt>
      <trkpt lat="48.12168" lon="-3.2961">
        <ele>189.1</ele>
        <time>2024-11-20T09:42:23Z</time>
      </trkpt>
      <trkpt lat="48.12167" lon="-3.29608">
        <ele>189.1</ele>
        <time>2024-11-20T09:42:24Z</time>
      </trkpt>
      <trkpt lat="48.12166" lon="-3.29607">
        <ele>189.1</ele>
        <time>2024-11-20T09:42:25Z</time>
      </trkpt>
      <trkpt lat="48.12165" lon="-3.29607">
        <ele>189.1</ele>
        <time>2024-11-20T09:42:26Z</time>
      </trkpt>
      <trkpt lat="48.12164" lon="-3.29606">
        <ele>189.1</ele>
        <time>2024-11-20T09:42:27Z</time>
      </trkpt>
      <trkpt lat="48.12163" lon="-3.29606">
        <ele>189</ele>
        <time>2024-11-20T09:42:28Z</time>
      </trkpt>
      <trkpt lat="48.12161" lon="-3.29606">
        <ele>189</ele>
        <time>2024-11-20T09:42:29Z</time>
      </trkpt>
      <trkpt lat="48.1216" lon="-3.29605">
        <ele>189</ele>
        <time>2024-11-20T09:42:30Z</time>
      </trkpt>
      <trkpt lat="48.12159" lon="-3.29604">
        <ele>189</ele>
        <time>2024-11-20T09:42:31Z</time>
      </trkpt>
      <trkpt lat="48.12157" lon="-3.29604">
        <ele>188.9</ele>
        <time>2024-11-20T09:42:32Z</time>
      </trkpt>
      <trkpt lat="48.12156" lon="-3.29603">
        <ele>188.9</ele>
        <time>2024-11-20T09:42:33Z</time>
      </trkpt>
      <trkpt lat="48.12154" lon="-3.29603">
        <ele>188.9</ele>
        <time>2024-11-20T09:42:34Z</time>
      </trkpt>
      <trkpt lat="48.12153" lon="-3.29602">
        <ele>188.8</ele>
        <time>2024-11-20T09:42:35Z</time>
      </trkpt>
      <trkpt lat="48.12152" lon="-3.29601">
        <ele>188.8</ele>
        <time>2024-11-20T09:42:36Z</time>
      </trkpt>
      <trkpt lat="48.1215" lon="-3.29601">
        <ele>188.8</ele>
        <time>2024-11-20T09:42:37Z</time>
      </trkpt>
      <trkpt lat="48.12148" lon="-3.296">
        <ele>188.7</ele>
        <time>2024-11-20T09:42:38Z</time>
      </trkpt>
      <trkpt lat="48.12147" lon="-3.29599">
        <ele>188.7</ele>
        <time>2024-11-20T09:42:39Z</time>
      </trkpt>
      <trkpt lat="48.12146" lon="-3.29599">
        <ele>188.7</ele>
        <time>2024-11-20T09:42:40Z</time>
      </trkpt>
      <trkpt lat="48.12145" lon="-3.29598">
        <ele>188.7</ele>
        <time>2024-11-20T09:42:41Z</time>
      </trkpt>
      <trkpt lat="48.12143" lon="-3.29598">
        <ele>188.6</ele>
        <time>2024-11-20T09:42:42Z</time>
      </trkpt>
      <trkpt lat="48.12142" lon="-3.29597">
        <ele>188.6</ele>
        <time>2024-11-20T09:42:43Z</time>
      </trkpt>
      <trkpt lat="48.12141" lon="-3.29597">
        <ele>188.6</ele>
        <time>2024-11-20T09:42:44Z</time>
      </trkpt>
      <trkpt lat="48.1214" lon="-3.29597">
        <ele>188.5</ele>
        <time>2024-11-20T09:42:45Z</time>
      </trkpt>
      <trkpt lat="48.12138" lon="-3.29596">
        <ele>188.5</ele>
        <time>2024-11-20T09:42:46Z</time>
      </trkpt>
      <trkpt lat="48.12137" lon="-3.29595">
        <ele>188.5</ele>
        <time>2024-11-20T09:42:47Z</time>
      </trkpt>
      <trkpt lat="48.12136" lon="-3.29595">
        <ele>188.4</ele>
        <time>2024-11-20T09:42:48Z</time>
      </trkpt>
      <trkpt lat="48.12135" lon="-3.29594">
        <ele>188.4</ele>
        <time>2024-11-20T09:42:49Z</time>
      </trkpt>
      <trkpt lat="48.12134" lon="-3.29593">
        <ele>188.3</ele>
        <time>2024-11-20T09:42:50Z</time>
      </trkpt>
      <trkpt lat="48.12132" lon="-3.29592">
        <ele>188.2</ele>
        <time>2024-11-20T09:42:51Z</time>
      </trkpt>
      <trkpt lat="48.1213" lon="-3.29592">
        <ele>188.2</ele>
        <time>2024-11-20T09:42:52Z</time>
      </trkpt>
      <trkpt lat="48.12129" lon="-3.29591">
        <ele>188.1</ele>
        <time>2024-11-20T09:42:53Z</time>
      </trkpt>
      <trkpt lat="48.12128" lon="-3.2959">
        <ele>188.1</ele>
        <time>2024-11-20T09:42:54Z</time>
      </trkpt>
      <trkpt lat="48.12127" lon="-3.2959">
        <ele>188</ele>
        <time>2024-11-20T09:42:55Z</time>
      </trkpt>
      <trkpt lat="48.12125" lon="-3.29589">
        <ele>187.9</ele>
        <time>2024-11-20T09:42:56Z</time>
      </trkpt>
      <trkpt lat="48.12124" lon="-3.29589">
        <ele>187.8</ele>
        <time>2024-11-20T09:42:57Z</time>
      </trkpt>
      <trkpt lat="48.12123" lon="-3.29589">
        <ele>187.8</ele>
        <time>2024-11-20T09:42:58Z</time>
      </trkpt>
      <trkpt lat="48.12122" lon="-3.29588">
        <ele>187.7</ele>
        <time>2024-11-20T09:42:59Z</time>
      </trkpt>
      <trkpt lat="48.12121" lon="-3.29588">
        <ele>187.6</ele>
        <time>2024-11-20T09:43:00Z</time>
      </trkpt>
      <trkpt lat="48.1212" lon="-3.29588">
        <ele>187.6</ele>
        <time>2024-11-20T09:43:01Z</time>
      </trkpt>
      <trkpt lat="48.12119" lon="-3.29589">
        <ele>187.5</ele>
        <time>2024-11-20T09:43:02Z</time>
      </trkpt>
      <trkpt lat="48.12118" lon="-3.29589">
        <ele>187.4</ele>
        <time>2024-11-20T09:43:03Z</time>
      </trkpt>
      <trkpt lat="48.12117" lon="-3.29589">
        <ele>187.4</ele>
        <time>2024-11-20T09:43:04Z</time>
      </trkpt>
      <trkpt lat="48.12115" lon="-3.29589">
        <ele>187.3</ele>
        <time>2024-11-20T09:43:05Z</time>
      </trkpt>
      <trkpt lat="48.12114" lon="-3.29589">
        <ele>187.2</ele>
        <time>2024-11-20T09:43:06Z</time>
      </trkpt>
      <trkpt lat="48.12113" lon="-3.2959">
        <ele>187.1</ele>
        <time>2024-11-20T09:43:07Z</time>
      </trkpt>
      <trkpt lat="48.12112" lon="-3.2959">
        <ele>187.1</ele>
        <time>2024-11-20T09:43:08Z</time>
      </trkpt>
      <trkpt lat="48.12112" lon="-3.29591">
        <ele>187</ele>
        <time>2024-11-20T09:43:09Z</time>
      </trkpt>
      <trkpt lat="48.12111" lon="-3.29591">
        <ele>187</ele>
        <time>2024-11-20T09:43:10Z</time>
      </trkpt>
      <trkpt lat="48.12109" lon="-3.29591">
        <ele>186.9</ele>
        <time>2024-11-20T09:43:11Z</time>
      </trkpt>
      <trkpt lat="48.12108" lon="-3.29591">
        <ele>186.9</ele>
        <time>2024-11-20T09:43:12Z</time>
      </trkpt>
      <trkpt lat="48.12108" lon="-3.29592">
        <ele>186.8</ele>
        <time>2024-11-20T09:43:13Z</time>
      </trkpt>
      <trkpt lat="48.12107" lon="-3.29592">
        <ele>186.8</ele>
        <time>2024-11-20T09:43:14Z</time>
      </trkpt>
      <trkpt lat="48.12106" lon="-3.29592">
        <ele>186.7</ele>
        <time>2024-11-20T09:43:15Z</time>
      </trkpt>
      <trkpt lat="48.12105" lon="-3.29592">
        <ele>186.7</ele>
        <time>2024-11-20T09:43:16Z</time>
      </trkpt>
      <trkpt lat="48.12103" lon="-3.29593">
        <ele>186.6</ele>
        <time>2024-11-20T09:43:17Z</time>
      </trkpt>
      <trkpt lat="48.12102" lon="-3.29593">
        <ele>186.6</ele>
        <time>2024-11-20T09:43:18Z</time>
      </trkpt>
      <trkpt lat="48.12102" lon="-3.29593">
        <ele>186.5</ele>
        <time>2024-11-20T09:43:19Z</time>
      </trkpt>
      <trkpt lat="48.12101" lon="-3.29594">
        <ele>186.5</ele>
        <time>2024-11-20T09:43:20Z</time>
      </trkpt>
      <trkpt lat="48.121" lon="-3.29594">
        <ele>186.4</ele>
        <time>2024-11-20T09:43:21Z</time>
      </trkpt>
      <trkpt lat="48.12099" lon="-3.29595">
        <ele>186.4</ele>
        <time>2024-11-20T09:43:22Z</time>
      </trkpt>
      <trkpt lat="48.12097" lon="-3.29596">
        <ele>186.3</ele>
        <time>2024-11-20T09:43:23Z</time>
      </trkpt>
      <trkpt lat="48.12096" lon="-3.29598">
        <ele>186.2</ele>
        <time>2024-11-20T09:43:24Z</time>
      </trkpt>
      <trkpt lat="48.12094" lon="-3.29599">
        <ele>186.1</ele>
        <time>2024-11-20T09:43:25Z</time>
      </trkpt>
      <trkpt lat="48.12093" lon="-3.29601">
        <ele>185.9</ele>
        <time>2024-11-20T09:43:26Z</time>
      </trkpt>
      <trkpt lat="48.12092" lon="-3.29601">
        <ele>185.9</ele>
        <time>2024-11-20T09:43:27Z</time>
      </trkpt>
      <trkpt lat="48.12091" lon="-3.29602">
        <ele>185.8</ele>
        <time>2024-11-20T09:43:28Z</time>
      </trkpt>
      <trkpt lat="48.12089" lon="-3.29603">
        <ele>185.7</ele>
        <time>2024-11-20T09:43:29Z</time>
      </trkpt>
      <trkpt lat="48.12088" lon="-3.29603">
        <ele>185.6</ele>
        <time>2024-11-20T09:43:30Z</time>
      </trkpt>
      <trkpt lat="48.12087" lon="-3.29604">
        <ele>185.5</ele>
        <time>2024-11-20T09:43:31Z</time>
      </trkpt>
      <trkpt lat="48.12086" lon="-3.29604">
        <ele>185.4</ele>
        <time>2024-11-20T09:43:32Z</time>
      </trkpt>
      <trkpt lat="48.12085" lon="-3.29605">
        <ele>185.4</ele>
        <time>2024-11-20T09:43:33Z</time>
      </trkpt>
      <trkpt lat="48.12084" lon="-3.29606">
        <ele>185.2</ele>
        <time>2024-11-20T09:43:34Z</time>
      </trkpt>
      <trkpt lat="48.12083" lon="-3.29607">
        <ele>185.2</ele>
        <time>2024-11-20T09:43:35Z</time>
      </trkpt>
      <trkpt lat="48.12082" lon="-3.29607">
        <ele>185.1</ele>
        <time>2024-11-20T09:43:36Z</time>
      </trkpt>
      <trkpt lat="48.12081" lon="-3.29608">
        <ele>185.1</ele>
        <time>2024-11-20T09:43:37Z</time>
      </trkpt>
      <trkpt lat="48.12079" lon="-3.29608">
        <ele>185.1</ele>
        <time>2024-11-20T09:43:38Z</time>
      </trkpt>
      <trkpt lat="48.12078" lon="-3.29608">
        <ele>185.1</ele>
        <time>2024-11-20T09:43:39Z</time>
      </trkpt>
      <trkpt lat="48.12077" lon="-3.29608">
        <ele>185.1</ele>
        <time>2024-11-20T09:43:40Z</time>
      </trkpt>
      <trkpt lat="48.12076" lon="-3.29608">
        <ele>185.1</ele>
        <time>2024-11-20T09:43:41Z</time>
      </trkpt>
      <trkpt lat="48.12074" lon="-3.29608">
        <ele>185.1</ele>
        <time>2024-11-20T09:43:42Z</time>
      </trkpt>
      <trkpt lat="48.12073" lon="-3.29608">
        <ele>185.1</ele>
        <time>2024-11-20T09:43:43Z</time>
      </trkpt>
      <trkpt lat="48.12071" lon="-3.29608">
        <ele>185.1</ele>
        <time>2024-11-20T09:43:44Z</time>
      </trkpt>
      <trkpt lat="48.12069" lon="-3.29608">
        <ele>185.1</ele>
        <time>2024-11-20T09:43:45Z</time>
      </trkpt>
      <trkpt lat="48.12068" lon="-3.29609">
        <ele>185</ele>
        <time>2024-11-20T09:43:46Z</time>
      </trkpt>
      <trkpt lat="48.12068" lon="-3.29609">
        <ele>185</ele>
        <time>2024-11-20T09:43:47Z</time>
      </trkpt>
      <trkpt lat="48.12068" lon="-3.2961">
        <ele>185</ele>
        <time>2024-11-20T09:43:48Z</time>
      </trkpt>
      <trkpt lat="48.12067" lon="-3.2961">
        <ele>185</ele>
        <time>2024-11-20T09:43:49Z</time>
      </trkpt>
      <trkpt lat="48.12067" lon="-3.2961">
        <ele>185</ele>
        <time>2024-11-20T09:43:50Z</time>
      </trkpt>
      <trkpt lat="48.12066" lon="-3.2961">
        <ele>185</ele>
        <time>2024-11-20T09:43:51Z</time>
      </trkpt>
      <trkpt lat="48.12066" lon="-3.29611">
        <ele>185</ele>
        <time>2024-11-20T09:43:52Z</time>
      </trkpt>
      <trkpt lat="48.12065" lon="-3.2961">
        <ele>185</ele>
        <time>2024-11-20T09:43:53Z</time>
      </trkpt>
      <trkpt lat="48.12063" lon="-3.2961">
        <ele>185</ele>
        <time>2024-11-20T09:43:54Z</time>
      </trkpt>
      <trkpt lat="48.12061" lon="-3.29609">
        <ele>185</ele>
        <time>2024-11-20T09:43:55Z</time>
      </trkpt>
      <trkpt lat="48.1206" lon="-3.29609">
        <ele>185</ele>
        <time>2024-11-20T09:43:56Z</time>
      </trkpt>
      <trkpt lat="48.12059" lon="-3.29609">
        <ele>185</ele>
        <time>2024-11-20T09:43:57Z</time>
      </trkpt>
      <trkpt lat="48.12058" lon="-3.29609">
        <ele>185</ele>
        <time>2024-11-20T09:43:58Z</time>
      </trkpt>
      <trkpt lat="48.12058" lon="-3.29609">
        <ele>185</ele>
        <time>2024-11-20T09:43:59Z</time>
      </trkpt>
      <trkpt lat="48.12057" lon="-3.29609">
        <ele>185</ele>
        <time>2024-11-20T09:44:00Z</time>
      </trkpt>
      <trkpt lat="48.12056" lon="-3.29608">
        <ele>185</ele>
        <time>2024-11-20T09:44:01Z</time>
      </trkpt>
      <trkpt lat="48.12055" lon="-3.29608">
        <ele>185</ele>
        <time>2024-11-20T09:44:02Z</time>
      </trkpt>
      <trkpt lat="48.12054" lon="-3.29607">
        <ele>185.1</ele>
        <time>2024-11-20T09:44:03Z</time>
      </trkpt>
      <trkpt lat="48.12053" lon="-3.29607">
        <ele>185.1</ele>
        <time>2024-11-20T09:44:04Z</time>
      </trkpt>
      <trkpt lat="48.12052" lon="-3.29607">
        <ele>185.1</ele>
        <time>2024-11-20T09:44:05Z</time>
      </trkpt>
      <trkpt lat="48.12051" lon="-3.29606">
        <ele>185.2</ele>
        <time>2024-11-20T09:44:06Z</time>
      </trkpt>
      <trkpt lat="48.12049" lon="-3.29606">
        <ele>185.2</ele>
        <time>2024-11-20T09:44:07Z</time>
      </trkpt>
      <trkpt lat="48.12048" lon="-3.29606">
        <ele>185.3</ele>
        <time>2024-11-20T09:44:08Z</time>
      </trkpt>
      <trkpt lat="48.12047" lon="-3.29605">
        <ele>185.3</ele>
        <time>2024-11-20T09:44:09Z</time>
      </trkpt>
      <trkpt lat="48.12046" lon="-3.29605">
        <ele>185.3</ele>
        <time>2024-11-20T09:44:10Z</time>
      </trkpt>
      <trkpt lat="48.12046" lon="-3.29605">
        <ele>185.4</ele>
        <time>2024-11-20T09:44:11Z</time>
      </trkpt>
      <trkpt lat="48.12045" lon="-3.29604">
        <ele>185.4</ele>
        <time>2024-11-20T09:44:12Z</time>
      </trkpt>
      <trkpt lat="48.12044" lon="-3.29604">
        <ele>185.4</ele>
        <time>2024-11-20T09:44:13Z</time>
      </trkpt>
      <trkpt lat="48.12044" lon="-3.29604">
        <ele>185.4</ele>
        <time>2024-11-20T09:44:14Z</time>
      </trkpt>
      <trkpt lat="48.12043" lon="-3.29604">
        <ele>185.4</ele>
        <time>2024-11-20T09:44:15Z</time>
      </trkpt>
      <trkpt lat="48.12043" lon="-3.29604">
        <ele>185.5</ele>
        <time>2024-11-20T09:44:16Z</time>
      </trkpt>
      <trkpt lat="48.12042" lon="-3.29604">
        <ele>185.5</ele>
        <time>2024-11-20T09:44:17Z</time>
      </trkpt>
      <trkpt lat="48.12041" lon="-3.29605">
        <ele>185.5</ele>
        <time>2024-11-20T09:44:18Z</time>
      </trkpt>
      <trkpt lat="48.12041" lon="-3.29604">
        <ele>185.5</ele>
        <time>2024-11-20T09:44:19Z</time>
      </trkpt>
      <trkpt lat="48.1204" lon="-3.29604">
        <ele>185.6</ele>
        <time>2024-11-20T09:44:20Z</time>
      </trkpt>
      <trkpt lat="48.12039" lon="-3.29604">
        <ele>185.6</ele>
        <time>2024-11-20T09:44:21Z</time>
      </trkpt>
      <trkpt lat="48.12039" lon="-3.29604">
        <ele>185.6</ele>
        <time>2024-11-20T09:44:22Z</time>
      </trkpt>
      <trkpt lat="48.12038" lon="-3.29605">
        <ele>185.6</ele>
        <time>2024-11-20T09:44:23Z</time>
      </trkpt>
      <trkpt lat="48.12037" lon="-3.29605">
        <ele>185.7</ele>
        <time>2024-11-20T09:44:24Z</time>
      </trkpt>
      <trkpt lat="48.12036" lon="-3.29605">
        <ele>185.7</ele>
        <time>2024-11-20T09:44:25Z</time>
      </trkpt>
      <trkpt lat="48.12035" lon="-3.29605">
        <ele>185.7</ele>
        <time>2024-11-20T09:44:26Z</time>
      </trkpt>
      <trkpt lat="48.12035" lon="-3.29605">
        <ele>185.8</ele>
        <time>2024-11-20T09:44:27Z</time>
      </trkpt>
      <trkpt lat="48.12034" lon="-3.29604">
        <ele>185.8</ele>
        <time>2024-11-20T09:44:28Z</time>
      </trkpt>
      <trkpt lat="48.12033" lon="-3.29604">
        <ele>185.8</ele>
        <time>2024-11-20T09:44:29Z</time>
      </trkpt>
      <trkpt lat="48.12032" lon="-3.29604">
        <ele>185.8</ele>
        <time>2024-11-20T09:44:30Z</time>
      </trkpt>
      <trkpt lat="48.12031" lon="-3.29603">
        <ele>185.9</ele>
        <time>2024-11-20T09:44:31Z</time>
      </trkpt>
      <trkpt lat="48.1203" lon="-3.29603">
        <ele>185.9</ele>
        <time>2024-11-20T09:44:32Z</time>
      </trkpt>
      <trkpt lat="48.12029" lon="-3.29602">
        <ele>185.9</ele>
        <time>2024-11-20T09:44:33Z</time>
      </trkpt>
      <trkpt lat="48.12028" lon="-3.29601">
        <ele>186</ele>
        <time>2024-11-20T09:44:34Z</time>
      </trkpt>
      <trkpt lat="48.12027" lon="-3.296">
        <ele>186</ele>
        <time>2024-11-20T09:44:35Z</time>
      </trkpt>
      <trkpt lat="48.12026" lon="-3.29599">
        <ele>186.1</ele>
        <time>2024-11-20T09:44:36Z</time>
      </trkpt>
      <trkpt lat="48.12025" lon="-3.29598">
        <ele>186.2</ele>
        <time>2024-11-20T09:44:37Z</time>
      </trkpt>
      <trkpt lat="48.12024" lon="-3.29597">
        <ele>186.2</ele>
        <time>2024-11-20T09:44:38Z</time>
      </trkpt>
      <trkpt lat="48.12023" lon="-3.29595">
        <ele>186.3</ele>
        <time>2024-11-20T09:44:39Z</time>
      </trkpt>
      <trkpt lat="48.12023" lon="-3.29593">
        <ele>186.3</ele>
        <time>2024-11-20T09:44:40Z</time>
      </trkpt>
      <trkpt lat="48.12022" lon="-3.29591">
        <ele>186.4</ele>
        <time>2024-11-20T09:44:41Z</time>
      </trkpt>
      <trkpt lat="48.12022" lon="-3.29589">
        <ele>186.4</ele>
        <time>2024-11-20T09:44:42Z</time>
      </trkpt>
      <trkpt lat="48.12022" lon="-3.29588">
        <ele>186.4</ele>
        <time>2024-11-20T09:44:43Z</time>
      </trkpt>
      <trkpt lat="48.12021" lon="-3.29587">
        <ele>186.5</ele>
        <time>2024-11-20T09:44:44Z</time>
      </trkpt>
      <trkpt lat="48.12021" lon="-3.29585">
        <ele>186.5</ele>
        <time>2024-11-20T09:44:45Z</time>
      </trkpt>
      <trkpt lat="48.1202" lon="-3.29584">
        <ele>186.6</ele>
        <time>2024-11-20T09:44:46Z</time>
      </trkpt>
      <trkpt lat="48.1202" lon="-3.29583">
        <ele>186.6</ele>
        <time>2024-11-20T09:44:47Z</time>
      </trkpt>
      <trkpt lat="48.1202" lon="-3.29581">
        <ele>186.6</ele>
        <time>2024-11-20T09:44:48Z</time>
      </trkpt>
      <trkpt lat="48.1202" lon="-3.2958">
        <ele>186.6</ele>
        <time>2024-11-20T09:44:49Z</time>
      </trkpt>
      <trkpt lat="48.1202" lon="-3.29578">
        <ele>186.6</ele>
        <time>2024-11-20T09:44:50Z</time>
      </trkpt>
      <trkpt lat="48.1202" lon="-3.29577">
        <ele>186.6</ele>
        <time>2024-11-20T09:44:51Z</time>
      </trkpt>
      <trkpt lat="48.1202" lon="-3.29575">
        <ele>186.6</ele>
        <time>2024-11-20T09:44:52Z</time>
      </trkpt>
      <trkpt lat="48.1202" lon="-3.29574">
        <ele>186.6</ele>
        <time>2024-11-20T09:44:53Z</time>
      </trkpt>
      <trkpt lat="48.1202" lon="-3.29572">
        <ele>186.6</ele>
        <time>2024-11-20T09:44:54Z</time>
      </trkpt>
      <trkpt lat="48.12019" lon="-3.2957">
        <ele>186.6</ele>
        <time>2024-11-20T09:44:55Z</time>
      </trkpt>
      <trkpt lat="48.12019" lon="-3.29569">
        <ele>186.6</ele>
        <time>2024-11-20T09:44:56Z</time>
      </trkpt>
      <trkpt lat="48.12019" lon="-3.29567">
        <ele>186.6</ele>
        <time>2024-11-20T09:44:57Z</time>
      </trkpt>
      <trkpt lat="48.12019" lon="-3.29566">
        <ele>186.7</ele>
        <time>2024-11-20T09:44:58Z</time>
      </trkpt>
      <trkpt lat="48.12018" lon="-3.29564">
        <ele>186.7</ele>
        <time>2024-11-20T09:44:59Z</time>
      </trkpt>
      <trkpt lat="48.12018" lon="-3.29562">
        <ele>186.7</ele>
        <time>2024-11-20T09:45:00Z</time>
      </trkpt>
      <trkpt lat="48.12018" lon="-3.2956">
        <ele>186.7</ele>
        <time>2024-11-20T09:45:01Z</time>
      </trkpt>
      <trkpt lat="48.12018" lon="-3.29559">
        <ele>186.7</ele>
        <time>2024-11-20T09:45:02Z</time>
      </trkpt>
      <trkpt lat="48.12017" lon="-3.29558">
        <ele>186.8</ele>
        <time>2024-11-20T09:45:03Z</time>
      </trkpt>
      <trkpt lat="48.12017" lon="-3.29556">
        <ele>186.8</ele>
        <time>2024-11-20T09:45:04Z</time>
      </trkpt>
      <trkpt lat="48.12016" lon="-3.29555">
        <ele>186.8</ele>
        <time>2024-11-20T09:45:05Z</time>
      </trkpt>
      <trkpt lat="48.12016" lon="-3.29554">
        <ele>186.8</ele>
        <time>2024-11-20T09:45:06Z</time>
      </trkpt>
      <trkpt lat="48.12016" lon="-3.29554">
        <ele>186.8</ele>
        <time>2024-11-20T09:45:07Z</time>
      </trkpt>
      <trkpt lat="48.12016" lon="-3.29553">
        <ele>186.8</ele>
        <time>2024-11-20T09:45:08Z</time>
      </trkpt>
      <trkpt lat="48.12016" lon="-3.29551">
        <ele>186.9</ele>
        <time>2024-11-20T09:45:09Z</time>
      </trkpt>
      <trkpt lat="48.12015" lon="-3.2955">
        <ele>186.9</ele>
        <time>2024-11-20T09:45:10Z</time>
      </trkpt>
      <trkpt lat="48.12014" lon="-3.29549">
        <ele>187</ele>
        <time>2024-11-20T09:45:11Z</time>
      </trkpt>
      <trkpt lat="48.12013" lon="-3.29547">
        <ele>187.1</ele>
        <time>2024-11-20T09:45:12Z</time>
      </trkpt>
      <trkpt lat="48.12013" lon="-3.29546">
        <ele>187.1</ele>
        <time>2024-11-20T09:45:13Z</time>
      </trkpt>
      <trkpt lat="48.12013" lon="-3.29546">
        <ele>187.1</ele>
        <time>2024-11-20T09:45:14Z</time>
      </trkpt>
      <trkpt lat="48.12013" lon="-3.29545">
        <ele>187</ele>
        <time>2024-11-20T09:45:15Z</time>
      </trkpt>
      <trkpt lat="48.12013" lon="-3.29545">
        <ele>187</ele>
        <time>2024-11-20T09:45:16Z</time>
      </trkpt>
      <trkpt lat="48.12013" lon="-3.29544">
        <ele>187</ele>
        <time>2024-11-20T09:45:17Z</time>
      </trkpt>
      <trkpt lat="48.12013" lon="-3.29544">
        <ele>187.1</ele>
        <time>2024-11-20T09:45:18Z</time>
      </trkpt>
      <trkpt lat="48.12013" lon="-3.29544">
        <ele>187.1</ele>
        <time>2024-11-20T09:45:19Z</time>
      </trkpt>
      <trkpt lat="48.12012" lon="-3.29544">
        <ele>187.1</ele>
        <time>2024-11-20T09:45:20Z</time>
      </trkpt>
      <trkpt lat="48.12012" lon="-3.29544">
        <ele>187.1</ele>
        <time>2024-11-20T09:45:21Z</time>
      </trkpt>
      <trkpt lat="48.12012" lon="-3.29544">
        <ele>187.1</ele>
        <time>2024-11-20T09:45:22Z</time>
      </trkpt>
      <trkpt lat="48.12012" lon="-3.29544">
        <ele>187.1</ele>
        <time>2024-11-20T09:45:23Z</time>
      </trkpt>
      <trkpt lat="48.12012" lon="-3.29543">
        <ele>187.1</ele>
        <time>2024-11-20T09:45:24Z</time>
      </trkpt>
      <trkpt lat="48.12012" lon="-3.29542">
        <ele>187.2</ele>
        <time>2024-11-20T09:45:25Z</time>
      </trkpt>
      <trkpt lat="48.12011" lon="-3.2954">
        <ele>187.2</ele>
        <time>2024-11-20T09:45:26Z</time>
      </trkpt>
      <trkpt lat="48.1201" lon="-3.29538">
        <ele>187.3</ele>
        <time>2024-11-20T09:45:27Z</time>
      </trkpt>
      <trkpt lat="48.1201" lon="-3.29537">
        <ele>187.3</ele>
        <time>2024-11-20T09:45:28Z</time>
      </trkpt>
      <trkpt lat="48.12009" lon="-3.29535">
        <ele>187.4</ele>
        <time>2024-11-20T09:45:29Z</time>
      </trkpt>
      <trkpt lat="48.12008" lon="-3.29533">
        <ele>187.4</ele>
        <time>2024-11-20T09:45:30Z</time>
      </trkpt>
      <trkpt lat="48.12008" lon="-3.29531">
        <ele>187.4</ele>
        <time>2024-11-20T09:45:31Z</time>
      </trkpt>
      <trkpt lat="48.12007" lon="-3.29529">
        <ele>187.5</ele>
        <time>2024-11-20T09:45:32Z</time>
      </trkpt>
      <trkpt lat="48.12007" lon="-3.29527">
        <ele>187.5</ele>
        <time>2024-11-20T09:45:33Z</time>
      </trkpt>
      <trkpt lat="48.12006" lon="-3.29526">
        <ele>187.6</ele>
        <time>2024-11-20T09:45:34Z</time>
      </trkpt>
      <trkpt lat="48.12005" lon="-3.29525">
        <ele>187.6</ele>
        <time>2024-11-20T09:45:35Z</time>
      </trkpt>
      <trkpt lat="48.12004" lon="-3.29523">
        <ele>187.7</ele>
        <time>2024-11-20T09:45:36Z</time>
      </trkpt>
      <trkpt lat="48.12004" lon="-3.29521">
        <ele>187.8</ele>
        <time>2024-11-20T09:45:37Z</time>
      </trkpt>
      <trkpt lat="48.12003" lon="-3.29519">
        <ele>187.8</ele>
        <time>2024-11-20T09:45:38Z</time>
      </trkpt>
      <trkpt lat="48.12003" lon="-3.29517">
        <ele>187.9</ele>
        <time>2024-11-20T09:45:39Z</time>
      </trkpt>
      <trkpt lat="48.12002" lon="-3.29515">
        <ele>187.9</ele>
        <time>2024-11-20T09:45:40Z</time>
      </trkpt>
      <trkpt lat="48.12002" lon="-3.29513">
        <ele>187.9</ele>
        <time>2024-11-20T09:45:41Z</time>
      </trkpt>
      <trkpt lat="48.12002" lon="-3.29511">
        <ele>187.9</ele>
        <time>2024-11-20T09:45:42Z</time>
      </trkpt>
      <trkpt lat="48.12001" lon="-3.29508">
        <ele>187.9</ele>
        <time>2024-11-20T09:45:43Z</time>
      </trkpt>
      <trkpt lat="48.12001" lon="-3.29506">
        <ele>188</ele>
        <time>2024-11-20T09:45:44Z</time>
      </trkpt>
      <trkpt lat="48.12" lon="-3.29505">
        <ele>188</ele>
        <time>2024-11-20T09:45:45Z</time>
      </trkpt>
      <trkpt lat="48.12" lon="-3.29503">
        <ele>188</ele>
        <time>2024-11-20T09:45:46Z</time>
      </trkpt>
      <trkpt lat="48.11999" lon="-3.29501">
        <ele>188</ele>
        <time>2024-11-20T09:45:47Z</time>
      </trkpt>
      <trkpt lat="48.11998" lon="-3.295">
        <ele>188.1</ele>
        <time>2024-11-20T09:45:48Z</time>
      </trkpt>
      <trkpt lat="48.11998" lon="-3.29499">
        <ele>188.1</ele>
        <time>2024-11-20T09:45:49Z</time>
      </trkpt>
      <trkpt lat="48.11997" lon="-3.29498">
        <ele>188.1</ele>
        <time>2024-11-20T09:45:50Z</time>
      </trkpt>
      <trkpt lat="48.11996" lon="-3.29496">
        <ele>188.1</ele>
        <time>2024-11-20T09:45:51Z</time>
      </trkpt>
      <trkpt lat="48.11996" lon="-3.29494">
        <ele>188.2</ele>
        <time>2024-11-20T09:45:52Z</time>
      </trkpt>
      <trkpt lat="48.11995" lon="-3.29492">
        <ele>188.2</ele>
        <time>2024-11-20T09:45:53Z</time>
      </trkpt>
      <trkpt lat="48.11995" lon="-3.2949">
        <ele>188.2</ele>
        <time>2024-11-20T09:45:54Z</time>
      </trkpt>
      <trkpt lat="48.11994" lon="-3.29489">
        <ele>188.2</ele>
        <time>2024-11-20T09:45:55Z</time>
      </trkpt>
      <trkpt lat="48.11993" lon="-3.29488">
        <ele>188.2</ele>
        <time>2024-11-20T09:45:56Z</time>
      </trkpt>
      <trkpt lat="48.11993" lon="-3.29486">
        <ele>188.3</ele>
        <time>2024-11-20T09:45:57Z</time>
      </trkpt>
      <trkpt lat="48.11992" lon="-3.29484">
        <ele>188.3</ele>
        <time>2024-11-20T09:45:58Z</time>
      </trkpt>
      <trkpt lat="48.11991" lon="-3.29484">
        <ele>188.3</ele>
        <time>2024-11-20T09:45:59Z</time>
      </trkpt>
      <trkpt lat="48.11991" lon="-3.29483">
        <ele>188.3</ele>
        <time>2024-11-20T09:46:00Z</time>
      </trkpt>
      <trkpt lat="48.1199" lon="-3.29482">
        <ele>188.4</ele>
        <time>2024-11-20T09:46:01Z</time>
      </trkpt>
      <trkpt lat="48.11989" lon="-3.29481">
        <ele>188.4</ele>
        <time>2024-11-20T09:46:02Z</time>
      </trkpt>
      <trkpt lat="48.11989" lon="-3.2948">
        <ele>188.4</ele>
        <time>2024-11-20T09:46:03Z</time>
      </trkpt>
      <trkpt lat="48.11988" lon="-3.29479">
        <ele>188.4</ele>
        <time>2024-11-20T09:46:04Z</time>
      </trkpt>
      <trkpt lat="48.11988" lon="-3.29479">
        <ele>188.4</ele>
        <time>2024-11-20T09:46:05Z</time>
      </trkpt>
      <trkpt lat="48.11988" lon="-3.2948">
        <ele>188.4</ele>
        <time>2024-11-20T09:46:06Z</time>
      </trkpt>
      <trkpt lat="48.11989" lon="-3.29482">
        <ele>188.4</ele>
        <time>2024-11-20T09:46:07Z</time>
      </trkpt>
      <trkpt lat="48.11989" lon="-3.29483">
        <ele>188.4</ele>
        <time>2024-11-20T09:46:08Z</time>
      </trkpt>
      <trkpt lat="48.1199" lon="-3.29484">
        <ele>188.4</ele>
        <time>2024-11-20T09:46:09Z</time>
      </trkpt>
      <trkpt lat="48.1199" lon="-3.29485">
        <ele>188.3</ele>
        <time>2024-11-20T09:46:10Z</time>
      </trkpt>
      <trkpt lat="48.11991" lon="-3.29486">
        <ele>188.3</ele>
        <time>2024-11-20T09:46:11Z</time>
      </trkpt>
      <trkpt lat="48.11992" lon="-3.29488">
        <ele>188.3</ele>
        <time>2024-11-20T09:46:12Z</time>
      </trkpt>
      <trkpt lat="48.11993" lon="-3.29489">
        <ele>188.2</ele>
        <time>2024-11-20T09:46:13Z</time>
      </trkpt>
      <trkpt lat="48.11996" lon="-3.29493">
        <ele>188.1</ele>
        <time>2024-11-20T09:46:17Z</time>
      </trkpt>
      <trkpt lat="48.11996" lon="-3.29493">
        <ele>188.1</ele>
        <time>2024-11-20T09:46:18Z</time>
      </trkpt>
      <trkpt lat="48.11997" lon="-3.29494">
        <ele>188.1</ele>
        <time>2024-11-20T09:46:19Z</time>
      </trkpt>
      <trkpt lat="48.11998" lon="-3.29496">
        <ele>188.1</ele>
        <time>2024-11-20T09:46:20Z</time>
      </trkpt>
      <trkpt lat="48.11999" lon="-3.29497">
        <ele>188.1</ele>
        <time>2024-11-20T09:46:21Z</time>
      </trkpt>
      <trkpt lat="48.11999" lon="-3.29498">
        <ele>188</ele>
        <time>2024-11-20T09:46:22Z</time>
      </trkpt>
      <trkpt lat="48.12" lon="-3.295">
        <ele>188</ele>
        <time>2024-11-20T09:46:23Z</time>
      </trkpt>
      <trkpt lat="48.12001" lon="-3.29501">
        <ele>188</ele>
        <time>2024-11-20T09:46:24Z</time>
      </trkpt>
      <trkpt lat="48.12002" lon="-3.29502">
        <ele>187.9</ele>
        <time>2024-11-20T09:46:25Z</time>
      </trkpt>
      <trkpt lat="48.12002" lon="-3.29503">
        <ele>187.9</ele>
        <time>2024-11-20T09:46:26Z</time>
      </trkpt>
      <trkpt lat="48.12003" lon="-3.29505">
        <ele>187.9</ele>
        <time>2024-11-20T09:46:27Z</time>
      </trkpt>
      <trkpt lat="48.12004" lon="-3.29505">
        <ele>187.8</ele>
        <time>2024-11-20T09:46:28Z</time>
      </trkpt>
      <trkpt lat="48.12005" lon="-3.29507">
        <ele>187.8</ele>
        <time>2024-11-20T09:46:29Z</time>
      </trkpt>
      <trkpt lat="48.12005" lon="-3.29509">
        <ele>187.7</ele>
        <time>2024-11-20T09:46:30Z</time>
      </trkpt>
      <trkpt lat="48.12006" lon="-3.29511">
        <ele>187.7</ele>
        <time>2024-11-20T09:46:31Z</time>
      </trkpt>
      <trkpt lat="48.12007" lon="-3.29512">
        <ele>187.6</ele>
        <time>2024-11-20T09:46:32Z</time>
      </trkpt>
      <trkpt lat="48.12008" lon="-3.29514">
        <ele>187.6</ele>
        <time>2024-11-20T09:46:33Z</time>
      </trkpt>
      <trkpt lat="48.12008" lon="-3.29516">
        <ele>187.5</ele>
        <time>2024-11-20T09:46:34Z</time>
      </trkpt>
      <trkpt lat="48.12009" lon="-3.29517">
        <ele>187.5</ele>
        <time>2024-11-20T09:46:35Z</time>
      </trkpt>
      <trkpt lat="48.1201" lon="-3.29519">
        <ele>187.4</ele>
        <time>2024-11-20T09:46:36Z</time>
      </trkpt>
      <trkpt lat="48.12012" lon="-3.29522">
        <ele>187.2</ele>
        <time>2024-11-20T09:46:38Z</time>
      </trkpt>
      <trkpt lat="48.12012" lon="-3.29523">
        <ele>187.2</ele>
        <time>2024-11-20T09:46:39Z</time>
      </trkpt>
      <trkpt lat="48.12013" lon="-3.29525">
        <ele>187.1</ele>
        <time>2024-11-20T09:46:40Z</time>
      </trkpt>
      <trkpt lat="48.12014" lon="-3.29526">
        <ele>187.1</ele>
        <time>2024-11-20T09:46:41Z</time>
      </trkpt>
      <trkpt lat="48.12014" lon="-3.29528">
        <ele>187</ele>
        <time>2024-11-20T09:46:42Z</time>
      </trkpt>
      <trkpt lat="48.12015" lon="-3.2953">
        <ele>186.9</ele>
        <time>2024-11-20T09:46:43Z</time>
      </trkpt>
      <trkpt lat="48.12015" lon="-3.29532">
        <ele>186.9</ele>
        <time>2024-11-20T09:46:44Z</time>
      </trkpt>
      <trkpt lat="48.12016" lon="-3.29533">
        <ele>186.9</ele>
        <time>2024-11-20T09:46:45Z</time>
      </trkpt>
      <trkpt lat="48.12016" lon="-3.29535">
        <ele>186.8</ele>
        <time>2024-11-20T09:46:46Z</time>
      </trkpt>
      <trkpt lat="48.12017" lon="-3.29537">
        <ele>186.8</ele>
        <time>2024-11-20T09:46:47Z</time>
      </trkpt>
      <trkpt lat="48.12018" lon="-3.29539">
        <ele>186.7</ele>
        <time>2024-11-20T09:46:48Z</time>
      </trkpt>
      <trkpt lat="48.12018" lon="-3.2954">
        <ele>186.7</ele>
        <time>2024-11-20T09:46:49Z</time>
      </trkpt>
      <trkpt lat="48.12019" lon="-3.29541">
        <ele>186.6</ele>
        <time>2024-11-20T09:46:50Z</time>
      </trkpt>
      <trkpt lat="48.1202" lon="-3.29543">
        <ele>186.6</ele>
        <time>2024-11-20T09:46:51Z</time>
      </trkpt>
      <trkpt lat="48.1202" lon="-3.29545">
        <ele>186.6</ele>
        <time>2024-11-20T09:46:52Z</time>
      </trkpt>
      <trkpt lat="48.1202" lon="-3.29546">
        <ele>186.6</ele>
        <time>2024-11-20T09:46:53Z</time>
      </trkpt>
      <trkpt lat="48.1202" lon="-3.29548">
        <ele>186.5</ele>
        <time>2024-11-20T09:46:54Z</time>
      </trkpt>
      <trkpt lat="48.12021" lon="-3.29551">
        <ele>186.5</ele>
        <time>2024-11-20T09:46:55Z</time>
      </trkpt>
      <trkpt lat="48.12021" lon="-3.29553">
        <ele>186.5</ele>
        <time>2024-11-20T09:46:56Z</time>
      </trkpt>
      <trkpt lat="48.12021" lon="-3.29555">
        <ele>186.5</ele>
        <time>2024-11-20T09:46:57Z</time>
      </trkpt>
      <trkpt lat="48.12021" lon="-3.29557">
        <ele>186.5</ele>
        <time>2024-11-20T09:46:58Z</time>
      </trkpt>
      <trkpt lat="48.12021" lon="-3.29559">
        <ele>186.5</ele>
        <time>2024-11-20T09:46:59Z</time>
      </trkpt>
      <trkpt lat="48.12021" lon="-3.2956">
        <ele>186.5</ele>
        <time>2024-11-20T09:47:00Z</time>
      </trkpt>
      <trkpt lat="48.12021" lon="-3.29562">
        <ele>186.5</ele>
        <time>2024-11-20T09:47:01Z</time>
      </trkpt>
      <trkpt lat="48.12021" lon="-3.29564">
        <ele>186.5</ele>
        <time>2024-11-20T09:47:02Z</time>
      </trkpt>
      <trkpt lat="48.12022" lon="-3.29567">
        <ele>186.4</ele>
        <time>2024-11-20T09:47:03Z</time>
      </trkpt>
      <trkpt lat="48.12023" lon="-3.29569">
        <ele>186.3</ele>
        <time>2024-11-20T09:47:04Z</time>
      </trkpt>
      <trkpt lat="48.12024" lon="-3.29571">
        <ele>186.3</ele>
        <time>2024-11-20T09:47:05Z</time>
      </trkpt>
      <trkpt lat="48.12024" lon="-3.29572">
        <ele>186.2</ele>
        <time>2024-11-20T09:47:06Z</time>
      </trkpt>
      <trkpt lat="48.12025" lon="-3.29574">
        <ele>186.2</ele>
        <time>2024-11-20T09:47:07Z</time>
      </trkpt>
      <trkpt lat="48.12025" lon="-3.29576">
        <ele>186.2</ele>
        <time>2024-11-20T09:47:08Z</time>
      </trkpt>
      <trkpt lat="48.12025" lon="-3.29578">
        <ele>186.2</ele>
        <time>2024-11-20T09:47:09Z</time>
      </trkpt>
      <trkpt lat="48.12025" lon="-3.2958">
        <ele>186.2</ele>
        <time>2024-11-20T09:47:10Z</time>
      </trkpt>
      <trkpt lat="48.12025" lon="-3.29582">
        <ele>186.2</ele>
        <time>2024-11-20T09:47:11Z</time>
      </trkpt>
      <trkpt lat="48.12025" lon="-3.29584">
        <ele>186.2</ele>
        <time>2024-11-20T09:47:12Z</time>
      </trkpt>
      <trkpt lat="48.12026" lon="-3.29586">
        <ele>186.2</ele>
        <time>2024-11-20T09:47:13Z</time>
      </trkpt>
      <trkpt lat="48.12026" lon="-3.29588">
        <ele>186.1</ele>
        <time>2024-11-20T09:47:14Z</time>
      </trkpt>
      <trkpt lat="48.12027" lon="-3.2959">
        <ele>186.1</ele>
        <time>2024-11-20T09:47:15Z</time>
      </trkpt>
      <trkpt lat="48.12027" lon="-3.29591">
        <ele>186.1</ele>
        <time>2024-11-20T09:47:16Z</time>
      </trkpt>
      <trkpt lat="48.12027" lon="-3.29593">
        <ele>186.1</ele>
        <time>2024-11-20T09:47:17Z</time>
      </trkpt>
      <trkpt lat="48.12026" lon="-3.29594">
        <ele>186.1</ele>
        <time>2024-11-20T09:47:18Z</time>
      </trkpt>
      <trkpt lat="48.12026" lon="-3.29595">
        <ele>186.1</ele>
        <time>2024-11-20T09:47:19Z</time>
      </trkpt>
      <trkpt lat="48.12026" lon="-3.29597">
        <ele>186.1</ele>
        <time>2024-11-20T09:47:20Z</time>
      </trkpt>
      <trkpt lat="48.12026" lon="-3.29598">
        <ele>186.1</ele>
        <time>2024-11-20T09:47:21Z</time>
      </trkpt>
      <trkpt lat="48.12026" lon="-3.29599">
        <ele>186.1</ele>
        <time>2024-11-20T09:47:22Z</time>
      </trkpt>
      <trkpt lat="48.12025" lon="-3.296">
        <ele>186.1</ele>
        <time>2024-11-20T09:47:23Z</time>
      </trkpt>
      <trkpt lat="48.12025" lon="-3.29601">
        <ele>186.1</ele>
        <time>2024-11-20T09:47:24Z</time>
      </trkpt>
      <trkpt lat="48.12025" lon="-3.29601">
        <ele>186.1</ele>
        <time>2024-11-20T09:47:25Z</time>
      </trkpt>
      <trkpt lat="48.12025" lon="-3.29601">
        <ele>186.1</ele>
        <time>2024-11-20T09:47:26Z</time>
      </trkpt>
      <trkpt lat="48.12025" lon="-3.29602">
        <ele>186.2</ele>
        <time>2024-11-20T09:47:27Z</time>
      </trkpt>
      <trkpt lat="48.12024" lon="-3.29602">
        <ele>186.2</ele>
        <time>2024-11-20T09:47:28Z</time>
      </trkpt>
      <trkpt lat="48.12023" lon="-3.29602">
        <ele>186.2</ele>
        <time>2024-11-20T09:47:29Z</time>
      </trkpt>
      <trkpt lat="48.12022" lon="-3.29602">
        <ele>186.3</ele>
        <time>2024-11-20T09:47:30Z</time>
      </trkpt>
      <trkpt lat="48.12022" lon="-3.29602">
        <ele>186.3</ele>
        <time>2024-11-20T09:47:31Z</time>
      </trkpt>
      <trkpt lat="48.12021" lon="-3.29603">
        <ele>186.3</ele>
        <time>2024-11-20T09:47:32Z</time>
      </trkpt>
      <trkpt lat="48.12021" lon="-3.29603">
        <ele>186.3</ele>
        <time>2024-11-20T09:47:33Z</time>
      </trkpt>
      <trkpt lat="48.1202" lon="-3.29604">
        <ele>186.4</ele>
        <time>2024-11-20T09:47:34Z</time>
      </trkpt>
      <trkpt lat="48.1202" lon="-3.29604">
        <ele>186.4</ele>
        <time>2024-11-20T09:47:35Z</time>
      </trkpt>
      <trkpt lat="48.12019" lon="-3.29604">
        <ele>186.4</ele>
        <time>2024-11-20T09:47:36Z</time>
      </trkpt>
      <trkpt lat="48.12019" lon="-3.29605">
        <ele>186.4</ele>
        <time>2024-11-20T09:47:37Z</time>
      </trkpt>
      <trkpt lat="48.12019" lon="-3.29605">
        <ele>186.4</ele>
        <time>2024-11-20T09:47:38Z</time>
      </trkpt>
      <trkpt lat="48.12019" lon="-3.29605">
        <ele>186.4</ele>
        <time>2024-11-20T09:47:39Z</time>
      </trkpt>
      <trkpt lat="48.12019" lon="-3.29605">
        <ele>186.4</ele>
        <time>2024-11-20T09:47:40Z</time>
      </trkpt>
      <trkpt lat="48.12019" lon="-3.29606">
        <ele>186.4</ele>
        <time>2024-11-20T09:47:41Z</time>
      </trkpt>
      <trkpt lat="48.12019" lon="-3.29607">
        <ele>186.4</ele>
        <time>2024-11-20T09:47:42Z</time>
      </trkpt>
      <trkpt lat="48.12019" lon="-3.29607">
        <ele>186.4</ele>
        <time>2024-11-20T09:47:43Z</time>
      </trkpt>
      <trkpt lat="48.12019" lon="-3.29607">
        <ele>186.4</ele>
        <time>2024-11-20T09:47:44Z</time>
      </trkpt>
      <trkpt lat="48.12019" lon="-3.29607">
        <ele>186.4</ele>
        <time>2024-11-20T09:47:45Z</time>
      </trkpt>
      <trkpt lat="48.12019" lon="-3.29607">
        <ele>186.4</ele>
        <time>2024-11-20T09:47:46Z</time>
      </trkpt>
      <trkpt lat="48.12019" lon="-3.29607">
        <ele>186.4</ele>
        <time>2024-11-20T09:47:47Z</time>
      </trkpt>
      <trkpt lat="48.12019" lon="-3.29608">
        <ele>186.4</ele>
        <time>2024-11-20T09:47:48Z</time>
      </trkpt>
      <trkpt lat="48.12019" lon="-3.29609">
        <ele>186.3</ele>
        <time>2024-11-20T09:47:49Z</time>
      </trkpt>
      <trkpt lat="48.12019" lon="-3.29609">
        <ele>186.3</ele>
        <time>2024-11-20T09:47:50Z</time>
      </trkpt>
      <trkpt lat="48.12019" lon="-3.2961">
        <ele>186.3</ele>
        <time>2024-11-20T09:47:51Z</time>
      </trkpt>
      <trkpt lat="48.12019" lon="-3.29611">
        <ele>186.3</ele>
        <time>2024-11-20T09:47:52Z</time>
      </trkpt>
      <trkpt lat="48.12019" lon="-3.29612">
        <ele>186.3</ele>
        <time>2024-11-20T09:47:53Z</time>
      </trkpt>
      <trkpt lat="48.12019" lon="-3.29612">
        <ele>186.3</ele>
        <time>2024-11-20T09:47:54Z</time>
      </trkpt>
      <trkpt lat="48.12019" lon="-3.29613">
        <ele>186.3</ele>
        <time>2024-11-20T09:47:55Z</time>
      </trkpt>
      <trkpt lat="48.12019" lon="-3.29613">
        <ele>186.3</ele>
        <time>2024-11-20T09:47:56Z</time>
      </trkpt>
      <trkpt lat="48.12019" lon="-3.29614">
        <ele>186.3</ele>
        <time>2024-11-20T09:47:57Z</time>
      </trkpt>
      <trkpt lat="48.12018" lon="-3.29615">
        <ele>186.3</ele>
        <time>2024-11-20T09:47:58Z</time>
      </trkpt>
      <trkpt lat="48.12018" lon="-3.29615">
        <ele>186.4</ele>
        <time>2024-11-20T09:47:59Z</time>
      </trkpt>
      <trkpt lat="48.12018" lon="-3.29616">
        <ele>186.4</ele>
        <time>2024-11-20T09:48:00Z</time>
      </trkpt>
      <trkpt lat="48.12018" lon="-3.29616">
        <ele>186.4</ele>
        <time>2024-11-20T09:48:01Z</time>
      </trkpt>
      <trkpt lat="48.12017" lon="-3.29616">
        <ele>186.4</ele>
        <time>2024-11-20T09:48:02Z</time>
      </trkpt>
      <trkpt lat="48.12017" lon="-3.29617">
        <ele>186.4</ele>
        <time>2024-11-20T09:48:03Z</time>
      </trkpt>
      <trkpt lat="48.12017" lon="-3.29617">
        <ele>186.4</ele>
        <time>2024-11-20T09:48:04Z</time>
      </trkpt>
      <trkpt lat="48.12016" lon="-3.29617">
        <ele>186.4</ele>
        <time>2024-11-20T09:48:05Z</time>
      </trkpt>
      <trkpt lat="48.12016" lon="-3.29618">
        <ele>186.4</ele>
        <time>2024-11-20T09:48:06Z</time>
      </trkpt>
      <trkpt lat="48.12016" lon="-3.29618">
        <ele>186.4</ele>
        <time>2024-11-20T09:48:07Z</time>
      </trkpt>
      <trkpt lat="48.12016" lon="-3.29618">
        <ele>186.4</ele>
        <time>2024-11-20T09:48:08Z</time>
      </trkpt>
      <trkpt lat="48.12016" lon="-3.29618">
        <ele>186.4</ele>
        <time>2024-11-20T09:48:09Z</time>
      </trkpt>
      <trkpt lat="48.12016" lon="-3.29619">
        <ele>186.4</ele>
        <time>2024-11-20T09:48:10Z</time>
      </trkpt>
      <trkpt lat="48.12016" lon="-3.29621">
        <ele>186.4</ele>
        <time>2024-11-20T09:48:11Z</time>
      </trkpt>
      <trkpt lat="48.12017" lon="-3.29623">
        <ele>186.4</ele>
        <time>2024-11-20T09:48:12Z</time>
      </trkpt>
      <trkpt lat="48.12017" lon="-3.29624">
        <ele>186.4</ele>
        <time>2024-11-20T09:48:13Z</time>
      </trkpt>
      <trkpt lat="48.12018" lon="-3.29626">
        <ele>186.4</ele>
        <time>2024-11-20T09:48:14Z</time>
      </trkpt>
      <trkpt lat="48.12018" lon="-3.29627">
        <ele>186.4</ele>
        <time>2024-11-20T09:48:15Z</time>
      </trkpt>
      <trkpt lat="48.12018" lon="-3.29628">
        <ele>186.3</ele>
        <time>2024-11-20T09:48:16Z</time>
      </trkpt>
      <trkpt lat="48.12019" lon="-3.29629">
        <ele>186.3</ele>
        <time>2024-11-20T09:48:17Z</time>
      </trkpt>
      <trkpt lat="48.12019" lon="-3.2963">
        <ele>186.3</ele>
        <time>2024-11-20T09:48:18Z</time>
      </trkpt>
      <trkpt lat="48.12019" lon="-3.29631">
        <ele>186.3</ele>
        <time>2024-11-20T09:48:19Z</time>
      </trkpt>
      <trkpt lat="48.12019" lon="-3.29632">
        <ele>186.3</ele>
        <time>2024-11-20T09:48:20Z</time>
      </trkpt>
      <trkpt lat="48.12019" lon="-3.29633">
        <ele>186.3</ele>
        <time>2024-11-20T09:48:21Z</time>
      </trkpt>
      <trkpt lat="48.12019" lon="-3.29634">
        <ele>186.3</ele>
        <time>2024-11-20T09:48:22Z</time>
      </trkpt>
      <trkpt lat="48.12019" lon="-3.29636">
        <ele>186.3</ele>
        <time>2024-11-20T09:48:23Z</time>
      </trkpt>
      <trkpt lat="48.12019" lon="-3.29637">
        <ele>186.3</ele>
        <time>2024-11-20T09:48:24Z</time>
      </trkpt>
      <trkpt lat="48.12019" lon="-3.29638">
        <ele>186.3</ele>
        <time>2024-11-20T09:48:25Z</time>
      </trkpt>
      <trkpt lat="48.12019" lon="-3.2964">
        <ele>186.3</ele>
        <time>2024-11-20T09:48:26Z</time>
      </trkpt>
      <trkpt lat="48.1202" lon="-3.2964">
        <ele>186.3</ele>
        <time>2024-11-20T09:48:27Z</time>
      </trkpt>
      <trkpt lat="48.1202" lon="-3.2964">
        <ele>186.3</ele>
        <time>2024-11-20T09:48:28Z</time>
      </trkpt>
      <trkpt lat="48.1202" lon="-3.29641">
        <ele>186.2</ele>
        <time>2024-11-20T09:48:29Z</time>
      </trkpt>
      <trkpt lat="48.1202" lon="-3.29642">
        <ele>186.2</ele>
        <time>2024-11-20T09:48:30Z</time>
      </trkpt>
      <trkpt lat="48.12021" lon="-3.29643">
        <ele>186.2</ele>
        <time>2024-11-20T09:48:31Z</time>
      </trkpt>
      <trkpt lat="48.12021" lon="-3.29643">
        <ele>186.1</ele>
        <time>2024-11-20T09:48:32Z</time>
      </trkpt>
      <trkpt lat="48.12021" lon="-3.29644">
        <ele>186.1</ele>
        <time>2024-11-20T09:48:33Z</time>
      </trkpt>
      <trkpt lat="48.12022" lon="-3.29645">
        <ele>186</ele>
        <time>2024-11-20T09:48:34Z</time>
      </trkpt>
      <trkpt lat="48.12022" lon="-3.29646">
        <ele>186</ele>
        <time>2024-11-20T09:48:35Z</time>
      </trkpt>
      <trkpt lat="48.12023" lon="-3.29647">
        <ele>185.9</ele>
        <time>2024-11-20T09:48:36Z</time>
      </trkpt>
      <trkpt lat="48.12023" lon="-3.29648">
        <ele>185.9</ele>
        <time>2024-11-20T09:48:37Z</time>
      </trkpt>
      <trkpt lat="48.12024" lon="-3.29649">
        <ele>185.8</ele>
        <time>2024-11-20T09:48:38Z</time>
      </trkpt>
      <trkpt lat="48.12024" lon="-3.2965">
        <ele>185.8</ele>
        <time>2024-11-20T09:48:39Z</time>
      </trkpt>
      <trkpt lat="48.12024" lon="-3.29652">
        <ele>185.7</ele>
        <time>2024-11-20T09:48:40Z</time>
      </trkpt>
      <trkpt lat="48.12024" lon="-3.29653">
        <ele>185.7</ele>
        <time>2024-11-20T09:48:41Z</time>
      </trkpt>
      <trkpt lat="48.12024" lon="-3.29654">
        <ele>185.7</ele>
        <time>2024-11-20T09:48:42Z</time>
      </trkpt>
      <trkpt lat="48.12024" lon="-3.29655">
        <ele>185.6</ele>
        <time>2024-11-20T09:48:43Z</time>
      </trkpt>
      <trkpt lat="48.12024" lon="-3.29656">
        <ele>185.6</ele>
        <time>2024-11-20T09:48:44Z</time>
      </trkpt>
      <trkpt lat="48.12024" lon="-3.29657">
        <ele>185.5</ele>
        <time>2024-11-20T09:48:45Z</time>
      </trkpt>
      <trkpt lat="48.12024" lon="-3.29659">
        <ele>185.5</ele>
        <time>2024-11-20T09:48:46Z</time>
      </trkpt>
      <trkpt lat="48.12024" lon="-3.2966">
        <ele>185.4</ele>
        <time>2024-11-20T09:48:47Z</time>
      </trkpt>
      <trkpt lat="48.12024" lon="-3.29661">
        <ele>185.4</ele>
        <time>2024-11-20T09:48:48Z</time>
      </trkpt>
      <trkpt lat="48.12024" lon="-3.29663">
        <ele>185.4</ele>
        <time>2024-11-20T09:48:49Z</time>
      </trkpt>
      <trkpt lat="48.12023" lon="-3.29664">
        <ele>185.4</ele>
        <time>2024-11-20T09:48:50Z</time>
      </trkpt>
      <trkpt lat="48.12023" lon="-3.29665">
        <ele>185.4</ele>
        <time>2024-11-20T09:48:51Z</time>
      </trkpt>
      <trkpt lat="48.12023" lon="-3.29665">
        <ele>185.4</ele>
        <time>2024-11-20T09:48:52Z</time>
      </trkpt>
      <trkpt lat="48.12023" lon="-3.29666">
        <ele>185.4</ele>
        <time>2024-11-20T09:48:53Z</time>
      </trkpt>
      <trkpt lat="48.12023" lon="-3.29666">
        <ele>185.4</ele>
        <time>2024-11-20T09:48:54Z</time>
      </trkpt>
      <trkpt lat="48.12022" lon="-3.29667">
        <ele>185.4</ele>
        <time>2024-11-20T09:48:55Z</time>
      </trkpt>
      <trkpt lat="48.12022" lon="-3.29667">
        <ele>185.4</ele>
        <time>2024-11-20T09:48:56Z</time>
      </trkpt>
      <trkpt lat="48.12022" lon="-3.29668">
        <ele>185.4</ele>
        <time>2024-11-20T09:48:57Z</time>
      </trkpt>
      <trkpt lat="48.12023" lon="-3.2967">
        <ele>185.4</ele>
        <time>2024-11-20T09:48:58Z</time>
      </trkpt>
      <trkpt lat="48.12023" lon="-3.29671">
        <ele>185.4</ele>
        <time>2024-11-20T09:48:59Z</time>
      </trkpt>
      <trkpt lat="48.12023" lon="-3.29672">
        <ele>185.4</ele>
        <time>2024-11-20T09:49:00Z</time>
      </trkpt>
      <trkpt lat="48.12022" lon="-3.29673">
        <ele>185.4</ele>
        <time>2024-11-20T09:49:01Z</time>
      </trkpt>
      <trkpt lat="48.12022" lon="-3.29674">
        <ele>185.4</ele>
        <time>2024-11-20T09:49:02Z</time>
      </trkpt>
      <trkpt lat="48.12022" lon="-3.29675">
        <ele>185.4</ele>
        <time>2024-11-20T09:49:03Z</time>
      </trkpt>
      <trkpt lat="48.12022" lon="-3.29677">
        <ele>185.4</ele>
        <time>2024-11-20T09:49:04Z</time>
      </trkpt>
      <trkpt lat="48.12022" lon="-3.29678">
        <ele>185.4</ele>
        <time>2024-11-20T09:49:05Z</time>
      </trkpt>
      <trkpt lat="48.12022" lon="-3.2968">
        <ele>185.4</ele>
        <time>2024-11-20T09:49:06Z</time>
      </trkpt>
      <trkpt lat="48.12022" lon="-3.29681">
        <ele>185.4</ele>
        <time>2024-11-20T09:49:07Z</time>
      </trkpt>
      <trkpt lat="48.12023" lon="-3.29683">
        <ele>185.4</ele>
        <time>2024-11-20T09:49:08Z</time>
      </trkpt>
      <trkpt lat="48.12023" lon="-3.29684">
        <ele>185.3</ele>
        <time>2024-11-20T09:49:09Z</time>
      </trkpt>
      <trkpt lat="48.12024" lon="-3.29686">
        <ele>185.3</ele>
        <time>2024-11-20T09:49:10Z</time>
      </trkpt>
      <trkpt lat="48.12024" lon="-3.29687">
        <ele>185.3</ele>
        <time>2024-11-20T09:49:11Z</time>
      </trkpt>
      <trkpt lat="48.12024" lon="-3.29688">
        <ele>185.3</ele>
        <time>2024-11-20T09:49:12Z</time>
      </trkpt>
      <trkpt lat="48.12025" lon="-3.2969">
        <ele>185.2</ele>
        <time>2024-11-20T09:49:13Z</time>
      </trkpt>
      <trkpt lat="48.12025" lon="-3.29691">
        <ele>185.2</ele>
        <time>2024-11-20T09:49:14Z</time>
      </trkpt>
      <trkpt lat="48.12025" lon="-3.29692">
        <ele>185.2</ele>
        <time>2024-11-20T09:49:15Z</time>
      </trkpt>
      <trkpt lat="48.12025" lon="-3.29694">
        <ele>185.2</ele>
        <time>2024-11-20T09:49:16Z</time>
      </trkpt>
      <trkpt lat="48.12024" lon="-3.29695">
        <ele>185.3</ele>
        <time>2024-11-20T09:49:17Z</time>
      </trkpt>
      <trkpt lat="48.12024" lon="-3.29696">
        <ele>185.3</ele>
        <time>2024-11-20T09:49:18Z</time>
      </trkpt>
      <trkpt lat="48.12023" lon="-3.29698">
        <ele>185.3</ele>
        <time>2024-11-20T09:49:19Z</time>
      </trkpt>
      <trkpt lat="48.12023" lon="-3.29699">
        <ele>185.4</ele>
        <time>2024-11-20T09:49:20Z</time>
      </trkpt>
      <trkpt lat="48.12022" lon="-3.29701">
        <ele>185.4</ele>
        <time>2024-11-20T09:49:21Z</time>
      </trkpt>
      <trkpt lat="48.12021" lon="-3.29702">
        <ele>185.5</ele>
        <time>2024-11-20T09:49:22Z</time>
      </trkpt>
      <trkpt lat="48.12021" lon="-3.29704">
        <ele>185.5</ele>
        <time>2024-11-20T09:49:23Z</time>
      </trkpt>
      <trkpt lat="48.1202" lon="-3.29705">
        <ele>185.5</ele>
        <time>2024-11-20T09:49:24Z</time>
      </trkpt>
      <trkpt lat="48.1202" lon="-3.29707">
        <ele>185.6</ele>
        <time>2024-11-20T09:49:25Z</time>
      </trkpt>
      <trkpt lat="48.1202" lon="-3.29709">
        <ele>185.6</ele>
        <time>2024-11-20T09:49:26Z</time>
      </trkpt>
      <trkpt lat="48.12019" lon="-3.29711">
        <ele>185.6</ele>
        <time>2024-11-20T09:49:27Z</time>
      </trkpt>
      <trkpt lat="48.12019" lon="-3.29713">
        <ele>185.6</ele>
        <time>2024-11-20T09:49:28Z</time>
      </trkpt>
      <trkpt lat="48.12019" lon="-3.29715">
        <ele>185.6</ele>
        <time>2024-11-20T09:49:29Z</time>
      </trkpt>
      <trkpt lat="48.12019" lon="-3.29716">
        <ele>185.6</ele>
        <time>2024-11-20T09:49:30Z</time>
      </trkpt>
      <trkpt lat="48.12019" lon="-3.29718">
        <ele>185.6</ele>
        <time>2024-11-20T09:49:31Z</time>
      </trkpt>
      <trkpt lat="48.12019" lon="-3.2972">
        <ele>185.6</ele>
        <time>2024-11-20T09:49:32Z</time>
      </trkpt>
      <trkpt lat="48.12019" lon="-3.29722">
        <ele>185.6</ele>
        <time>2024-11-20T09:49:33Z</time>
      </trkpt>
      <trkpt lat="48.12019" lon="-3.29724">
        <ele>185.5</ele>
        <time>2024-11-20T09:49:34Z</time>
      </trkpt>
      <trkpt lat="48.12019" lon="-3.29726">
        <ele>185.5</ele>
        <time>2024-11-20T09:49:35Z</time>
      </trkpt>
      <trkpt lat="48.12019" lon="-3.29727">
        <ele>185.4</ele>
        <time>2024-11-20T09:49:36Z</time>
      </trkpt>
      <trkpt lat="48.12019" lon="-3.29729">
        <ele>185.4</ele>
        <time>2024-11-20T09:49:37Z</time>
      </trkpt>
      <trkpt lat="48.12019" lon="-3.2973">
        <ele>185.4</ele>
        <time>2024-11-20T09:49:38Z</time>
      </trkpt>
      <trkpt lat="48.12018" lon="-3.29731">
        <ele>185.4</ele>
        <time>2024-11-20T09:49:39Z</time>
      </trkpt>
      <trkpt lat="48.12018" lon="-3.29733">
        <ele>185.3</ele>
        <time>2024-11-20T09:49:40Z</time>
      </trkpt>
      <trkpt lat="48.12018" lon="-3.29734">
        <ele>185.3</ele>
        <time>2024-11-20T09:49:41Z</time>
      </trkpt>
      <trkpt lat="48.12018" lon="-3.29735">
        <ele>185.2</ele>
        <time>2024-11-20T09:49:42Z</time>
      </trkpt>
      <trkpt lat="48.12018" lon="-3.29736">
        <ele>185.2</ele>
        <time>2024-11-20T09:49:43Z</time>
      </trkpt>
      <trkpt lat="48.12018" lon="-3.29738">
        <ele>185.2</ele>
        <time>2024-11-20T09:49:44Z</time>
      </trkpt>
      <trkpt lat="48.12018" lon="-3.29739">
        <ele>185.1</ele>
        <time>2024-11-20T09:49:45Z</time>
      </trkpt>
      <trkpt lat="48.12018" lon="-3.2974">
        <ele>185.1</ele>
        <time>2024-11-20T09:49:46Z</time>
      </trkpt>
      <trkpt lat="48.12017" lon="-3.29742">
        <ele>185.1</ele>
        <time>2024-11-20T09:49:47Z</time>
      </trkpt>
      <trkpt lat="48.12017" lon="-3.29743">
        <ele>185</ele>
        <time>2024-11-20T09:49:48Z</time>
      </trkpt>
      <trkpt lat="48.12016" lon="-3.29746">
        <ele>185</ele>
        <time>2024-11-20T09:49:49Z</time>
      </trkpt>
      <trkpt lat="48.12016" lon="-3.29747">
        <ele>185</ele>
        <time>2024-11-20T09:49:50Z</time>
      </trkpt>
      <trkpt lat="48.12016" lon="-3.29749">
        <ele>184.9</ele>
        <time>2024-11-20T09:49:51Z</time>
      </trkpt>
      <trkpt lat="48.12015" lon="-3.29751">
        <ele>184.9</ele>
        <time>2024-11-20T09:49:52Z</time>
      </trkpt>
      <trkpt lat="48.12015" lon="-3.29752">
        <ele>184.9</ele>
        <time>2024-11-20T09:49:53Z</time>
      </trkpt>
      <trkpt lat="48.12014" lon="-3.29754">
        <ele>184.9</ele>
        <time>2024-11-20T09:49:54Z</time>
      </trkpt>
      <trkpt lat="48.12013" lon="-3.29755">
        <ele>184.9</ele>
        <time>2024-11-20T09:49:55Z</time>
      </trkpt>
      <trkpt lat="48.12013" lon="-3.29757">
        <ele>184.9</ele>
        <time>2024-11-20T09:49:56Z</time>
      </trkpt>
      <trkpt lat="48.12012" lon="-3.29759">
        <ele>184.9</ele>
        <time>2024-11-20T09:49:57Z</time>
      </trkpt>
      <trkpt lat="48.12012" lon="-3.2976">
        <ele>184.9</ele>
        <time>2024-11-20T09:49:58Z</time>
      </trkpt>
      <trkpt lat="48.12011" lon="-3.29762">
        <ele>184.9</ele>
        <time>2024-11-20T09:49:59Z</time>
      </trkpt>
      <trkpt lat="48.12011" lon="-3.29763">
        <ele>184.9</ele>
        <time>2024-11-20T09:50:00Z</time>
      </trkpt>
      <trkpt lat="48.1201" lon="-3.29764">
        <ele>184.9</ele>
        <time>2024-11-20T09:50:01Z</time>
      </trkpt>
      <trkpt lat="48.1201" lon="-3.29765">
        <ele>185</ele>
        <time>2024-11-20T09:50:02Z</time>
      </trkpt>
      <trkpt lat="48.12009" lon="-3.29766">
        <ele>185</ele>
        <time>2024-11-20T09:50:03Z</time>
      </trkpt>
      <trkpt lat="48.12007" lon="-3.29768">
        <ele>185</ele>
        <time>2024-11-20T09:50:04Z</time>
      </trkpt>
      <trkpt lat="48.12007" lon="-3.29769">
        <ele>185</ele>
        <time>2024-11-20T09:50:05Z</time>
      </trkpt>
      <trkpt lat="48.12006" lon="-3.29769">
        <ele>185</ele>
        <time>2024-11-20T09:50:06Z</time>
      </trkpt>
      <trkpt lat="48.12006" lon="-3.2977">
        <ele>185</ele>
        <time>2024-11-20T09:50:07Z</time>
      </trkpt>
      <trkpt lat="48.12005" lon="-3.29771">
        <ele>185</ele>
        <time>2024-11-20T09:50:08Z</time>
      </trkpt>
      <trkpt lat="48.12004" lon="-3.29772">
        <ele>185</ele>
        <time>2024-11-20T09:50:09Z</time>
      </trkpt>
      <trkpt lat="48.12002" lon="-3.29772">
        <ele>185.1</ele>
        <time>2024-11-20T09:50:10Z</time>
      </trkpt>
      <trkpt lat="48.12002" lon="-3.29772">
        <ele>185.1</ele>
        <time>2024-11-20T09:50:11Z</time>
      </trkpt>
      <trkpt lat="48.12001" lon="-3.29773">
        <ele>185.1</ele>
        <time>2024-11-20T09:50:12Z</time>
      </trkpt>
      <trkpt lat="48.12001" lon="-3.29775">
        <ele>185.1</ele>
        <time>2024-11-20T09:50:13Z</time>
      </trkpt>
      <trkpt lat="48.12" lon="-3.29776">
        <ele>185</ele>
        <time>2024-11-20T09:50:14Z</time>
      </trkpt>
      <trkpt lat="48.12" lon="-3.29778">
        <ele>185</ele>
        <time>2024-11-20T09:50:15Z</time>
      </trkpt>
      <trkpt lat="48.11999" lon="-3.29779">
        <ele>185</ele>
        <time>2024-11-20T09:50:16Z</time>
      </trkpt>
      <trkpt lat="48.11998" lon="-3.29781">
        <ele>185.1</ele>
        <time>2024-11-20T09:50:17Z</time>
      </trkpt>
      <trkpt lat="48.11997" lon="-3.29782">
        <ele>185.1</ele>
        <time>2024-11-20T09:50:18Z</time>
      </trkpt>
      <trkpt lat="48.11996" lon="-3.29783">
        <ele>185.1</ele>
        <time>2024-11-20T09:50:19Z</time>
      </trkpt>
      <trkpt lat="48.11995" lon="-3.29784">
        <ele>185.1</ele>
        <time>2024-11-20T09:50:20Z</time>
      </trkpt>
      <trkpt lat="48.11995" lon="-3.29786">
        <ele>185.1</ele>
        <time>2024-11-20T09:50:21Z</time>
      </trkpt>
      <trkpt lat="48.11994" lon="-3.29787">
        <ele>185.1</ele>
        <time>2024-11-20T09:50:22Z</time>
      </trkpt>
      <trkpt lat="48.11994" lon="-3.29788">
        <ele>185.1</ele>
        <time>2024-11-20T09:50:23Z</time>
      </trkpt>
      <trkpt lat="48.11993" lon="-3.29789">
        <ele>185.1</ele>
        <time>2024-11-20T09:50:24Z</time>
      </trkpt>
      <trkpt lat="48.11993" lon="-3.2979">
        <ele>185.1</ele>
        <time>2024-11-20T09:50:25Z</time>
      </trkpt>
      <trkpt lat="48.11992" lon="-3.2979">
        <ele>185.1</ele>
        <time>2024-11-20T09:50:26Z</time>
      </trkpt>
      <trkpt lat="48.11992" lon="-3.29791">
        <ele>185.1</ele>
        <time>2024-11-20T09:50:27Z</time>
      </trkpt>
      <trkpt lat="48.11991" lon="-3.29793">
        <ele>185.1</ele>
        <time>2024-11-20T09:50:28Z</time>
      </trkpt>
      <trkpt lat="48.11991" lon="-3.29793">
        <ele>185.1</ele>
        <time>2024-11-20T09:50:29Z</time>
      </trkpt>
      <trkpt lat="48.1199" lon="-3.29793">
        <ele>185.1</ele>
        <time>2024-11-20T09:50:30Z</time>
      </trkpt>
      <trkpt lat="48.1199" lon="-3.29793">
        <ele>185.1</ele>
        <time>2024-11-20T09:50:31Z</time>
      </trkpt>
      <trkpt lat="48.1199" lon="-3.29793">
        <ele>185.1</ele>
        <time>2024-11-20T09:50:32Z</time>
      </trkpt>
      <trkpt lat="48.1199" lon="-3.29794">
        <ele>185.1</ele>
        <time>2024-11-20T09:50:33Z</time>
      </trkpt>
      <trkpt lat="48.1199" lon="-3.29794">
        <ele>185.2</ele>
        <time>2024-11-20T09:50:34Z</time>
      </trkpt>
      <trkpt lat="48.11989" lon="-3.29795">
        <ele>185.2</ele>
        <time>2024-11-20T09:50:35Z</time>
      </trkpt>
      <trkpt lat="48.11988" lon="-3.29796">
        <ele>185.2</ele>
        <time>2024-11-20T09:50:36Z</time>
      </trkpt>
      <trkpt lat="48.11987" lon="-3.29797">
        <ele>185.2</ele>
        <time>2024-11-20T09:50:37Z</time>
      </trkpt>
      <trkpt lat="48.11986" lon="-3.29798">
        <ele>185.3</ele>
        <time>2024-11-20T09:50:38Z</time>
      </trkpt>
      <trkpt lat="48.11985" lon="-3.29799">
        <ele>185.3</ele>
        <time>2024-11-20T09:50:39Z</time>
      </trkpt>
      <trkpt lat="48.11983" lon="-3.298">
        <ele>185.4</ele>
        <time>2024-11-20T09:50:40Z</time>
      </trkpt>
      <trkpt lat="48.11982" lon="-3.29801">
        <ele>185.5</ele>
        <time>2024-11-20T09:50:41Z</time>
      </trkpt>
      <trkpt lat="48.11981" lon="-3.29803">
        <ele>185.5</ele>
        <time>2024-11-20T09:50:42Z</time>
      </trkpt>
      <trkpt lat="48.11979" lon="-3.29805">
        <ele>185.5</ele>
        <time>2024-11-20T09:50:43Z</time>
      </trkpt>
      <trkpt lat="48.11978" lon="-3.29806">
        <ele>185.5</ele>
        <time>2024-11-20T09:50:44Z</time>
      </trkpt>
      <trkpt lat="48.11978" lon="-3.29807">
        <ele>185.5</ele>
        <time>2024-11-20T09:50:45Z</time>
      </trkpt>
      <trkpt lat="48.11978" lon="-3.29808">
        <ele>185.5</ele>
        <time>2024-11-20T09:50:46Z</time>
      </trkpt>
      <trkpt lat="48.11977" lon="-3.29809">
        <ele>185.4</ele>
        <time>2024-11-20T09:50:47Z</time>
      </trkpt>
      <trkpt lat="48.11977" lon="-3.29811">
        <ele>185.3</ele>
        <time>2024-11-20T09:50:48Z</time>
      </trkpt>
      <trkpt lat="48.11977" lon="-3.29812">
        <ele>185.2</ele>
        <time>2024-11-20T09:50:49Z</time>
      </trkpt>
      <trkpt lat="48.11977" lon="-3.29814">
        <ele>185.2</ele>
        <time>2024-11-20T09:50:50Z</time>
      </trkpt>
      <trkpt lat="48.11976" lon="-3.29815">
        <ele>185.1</ele>
        <time>2024-11-20T09:50:51Z</time>
      </trkpt>
      <trkpt lat="48.11976" lon="-3.29816">
        <ele>185</ele>
        <time>2024-11-20T09:50:52Z</time>
      </trkpt>
      <trkpt lat="48.11975" lon="-3.29818">
        <ele>185</ele>
        <time>2024-11-20T09:50:53Z</time>
      </trkpt>
      <trkpt lat="48.11974" lon="-3.29819">
        <ele>184.9</ele>
        <time>2024-11-20T09:50:54Z</time>
      </trkpt>
      <trkpt lat="48.11973" lon="-3.2982">
        <ele>184.9</ele>
        <time>2024-11-20T09:50:55Z</time>
      </trkpt>
      <trkpt lat="48.11972" lon="-3.29822">
        <ele>184.8</ele>
        <time>2024-11-20T09:50:56Z</time>
      </trkpt>
      <trkpt lat="48.11972" lon="-3.29823">
        <ele>184.8</ele>
        <time>2024-11-20T09:50:57Z</time>
      </trkpt>
      <trkpt lat="48.11971" lon="-3.29825">
        <ele>184.7</ele>
        <time>2024-11-20T09:50:58Z</time>
      </trkpt>
      <trkpt lat="48.1197" lon="-3.29827">
        <ele>184.6</ele>
        <time>2024-11-20T09:50:59Z</time>
      </trkpt>
      <trkpt lat="48.11969" lon="-3.29829">
        <ele>184.5</ele>
        <time>2024-11-20T09:51:00Z</time>
      </trkpt>
      <trkpt lat="48.11969" lon="-3.29831">
        <ele>184.4</ele>
        <time>2024-11-20T09:51:01Z</time>
      </trkpt>
      <trkpt lat="48.11968" lon="-3.29832">
        <ele>184.4</ele>
        <time>2024-11-20T09:51:02Z</time>
      </trkpt>
      <trkpt lat="48.11968" lon="-3.29833">
        <ele>184.3</ele>
        <time>2024-11-20T09:51:03Z</time>
      </trkpt>
      <trkpt lat="48.11968" lon="-3.29834">
        <ele>184.3</ele>
        <time>2024-11-20T09:51:04Z</time>
      </trkpt>
      <trkpt lat="48.11967" lon="-3.29835">
        <ele>184.2</ele>
        <time>2024-11-20T09:51:05Z</time>
      </trkpt>
      <trkpt lat="48.11967" lon="-3.29836">
        <ele>184.2</ele>
        <time>2024-11-20T09:51:06Z</time>
      </trkpt>
      <trkpt lat="48.11966" lon="-3.29837">
        <ele>184.2</ele>
        <time>2024-11-20T09:51:07Z</time>
      </trkpt>
      <trkpt lat="48.11966" lon="-3.29839">
        <ele>184.1</ele>
        <time>2024-11-20T09:51:08Z</time>
      </trkpt>
      <trkpt lat="48.11965" lon="-3.2984">
        <ele>184</ele>
        <time>2024-11-20T09:51:09Z</time>
      </trkpt>
      <trkpt lat="48.11964" lon="-3.29842">
        <ele>184</ele>
        <time>2024-11-20T09:51:10Z</time>
      </trkpt>
      <trkpt lat="48.11964" lon="-3.29843">
        <ele>183.9</ele>
        <time>2024-11-20T09:51:11Z</time>
      </trkpt>
      <trkpt lat="48.11963" lon="-3.29844">
        <ele>183.9</ele>
        <time>2024-11-20T09:51:12Z</time>
      </trkpt>
      <trkpt lat="48.11962" lon="-3.29846">
        <ele>183.8</ele>
        <time>2024-11-20T09:51:13Z</time>
      </trkpt>
      <trkpt lat="48.11962" lon="-3.29847">
        <ele>183.8</ele>
        <time>2024-11-20T09:51:14Z</time>
      </trkpt>
      <trkpt lat="48.11961" lon="-3.29848">
        <ele>183.8</ele>
        <time>2024-11-20T09:51:15Z</time>
      </trkpt>
      <trkpt lat="48.11961" lon="-3.29849">
        <ele>183.7</ele>
        <time>2024-11-20T09:51:16Z</time>
      </trkpt>
      <trkpt lat="48.1196" lon="-3.2985">
        <ele>183.6</ele>
        <time>2024-11-20T09:51:17Z</time>
      </trkpt>
      <trkpt lat="48.1196" lon="-3.29851">
        <ele>183.6</ele>
        <time>2024-11-20T09:51:18Z</time>
      </trkpt>
      <trkpt lat="48.11959" lon="-3.29853">
        <ele>183.6</ele>
        <time>2024-11-20T09:51:19Z</time>
      </trkpt>
      <trkpt lat="48.11959" lon="-3.29854">
        <ele>183.5</ele>
        <time>2024-11-20T09:51:20Z</time>
      </trkpt>
      <trkpt lat="48.11958" lon="-3.29855">
        <ele>183.5</ele>
        <time>2024-11-20T09:51:21Z</time>
      </trkpt>
      <trkpt lat="48.11957" lon="-3.29857">
        <ele>183.4</ele>
        <time>2024-11-20T09:51:22Z</time>
      </trkpt>
      <trkpt lat="48.11956" lon="-3.29858">
        <ele>183.4</ele>
        <time>2024-11-20T09:51:23Z</time>
      </trkpt>
      <trkpt lat="48.11954" lon="-3.2986">
        <ele>183.4</ele>
        <time>2024-11-20T09:51:24Z</time>
      </trkpt>
      <trkpt lat="48.11953" lon="-3.29862">
        <ele>183.4</ele>
        <time>2024-11-20T09:51:25Z</time>
      </trkpt>
      <trkpt lat="48.11952" lon="-3.29863">
        <ele>183.4</ele>
        <time>2024-11-20T09:51:26Z</time>
      </trkpt>
      <trkpt lat="48.11951" lon="-3.29864">
        <ele>183.4</ele>
        <time>2024-11-20T09:51:27Z</time>
      </trkpt>
      <trkpt lat="48.1195" lon="-3.29864">
        <ele>183.4</ele>
        <time>2024-11-20T09:51:28Z</time>
      </trkpt>
      <trkpt lat="48.11949" lon="-3.29865">
        <ele>183.4</ele>
        <time>2024-11-20T09:51:29Z</time>
      </trkpt>
      <trkpt lat="48.11949" lon="-3.29866">
        <ele>183.4</ele>
        <time>2024-11-20T09:51:30Z</time>
      </trkpt>
      <trkpt lat="48.11949" lon="-3.29867">
        <ele>183.3</ele>
        <time>2024-11-20T09:51:31Z</time>
      </trkpt>
      <trkpt lat="48.11949" lon="-3.29869">
        <ele>183.2</ele>
        <time>2024-11-20T09:51:32Z</time>
      </trkpt>
      <trkpt lat="48.1195" lon="-3.29868">
        <ele>183.2</ele>
        <time>2024-11-20T09:51:33Z</time>
      </trkpt>
      <trkpt lat="48.11949" lon="-3.29867">
        <ele>183.3</ele>
        <time>2024-11-20T09:51:34Z</time>
      </trkpt>
      <trkpt lat="48.11949" lon="-3.29866">
        <ele>183.4</ele>
        <time>2024-11-20T09:51:35Z</time>
      </trkpt>
      <trkpt lat="48.11949" lon="-3.29865">
        <ele>183.4</ele>
        <time>2024-11-20T09:51:36Z</time>
      </trkpt>
      <trkpt lat="48.11949" lon="-3.29865">
        <ele>183.5</ele>
        <time>2024-11-20T09:51:37Z</time>
      </trkpt>
      <trkpt lat="48.11948" lon="-3.29864">
        <ele>183.5</ele>
        <time>2024-11-20T09:51:38Z</time>
      </trkpt>
      <trkpt lat="48.11948" lon="-3.29865">
        <ele>183.6</ele>
        <time>2024-11-20T09:51:39Z</time>
      </trkpt>
      <trkpt lat="48.11947" lon="-3.29864">
        <ele>183.6</ele>
        <time>2024-11-20T09:51:40Z</time>
      </trkpt>
      <trkpt lat="48.11947" lon="-3.29864">
        <ele>183.7</ele>
        <time>2024-11-20T09:51:41Z</time>
      </trkpt>
      <trkpt lat="48.11946" lon="-3.29865">
        <ele>183.7</ele>
        <time>2024-11-20T09:51:42Z</time>
      </trkpt>
      <trkpt lat="48.11946" lon="-3.29866">
        <ele>183.6</ele>
        <time>2024-11-20T09:51:43Z</time>
      </trkpt>
      <trkpt lat="48.11945" lon="-3.29867">
        <ele>183.6</ele>
        <time>2024-11-20T09:51:44Z</time>
      </trkpt>
      <trkpt lat="48.11944" lon="-3.29867">
        <ele>183.6</ele>
        <time>2024-11-20T09:51:45Z</time>
      </trkpt>
      <trkpt lat="48.11943" lon="-3.29868">
        <ele>183.6</ele>
        <time>2024-11-20T09:51:46Z</time>
      </trkpt>
      <trkpt lat="48.11943" lon="-3.29868">
        <ele>183.5</ele>
        <time>2024-11-20T09:51:47Z</time>
      </trkpt>
      <trkpt lat="48.11943" lon="-3.29868">
        <ele>183.5</ele>
        <time>2024-11-20T09:51:48Z</time>
      </trkpt>
      <trkpt lat="48.11942" lon="-3.29869">
        <ele>183.5</ele>
        <time>2024-11-20T09:51:49Z</time>
      </trkpt>
      <trkpt lat="48.11941" lon="-3.2987">
        <ele>183.5</ele>
        <time>2024-11-20T09:51:50Z</time>
      </trkpt>
      <trkpt lat="48.11941" lon="-3.29871">
        <ele>183.5</ele>
        <time>2024-11-20T09:51:51Z</time>
      </trkpt>
      <trkpt lat="48.11941" lon="-3.29871">
        <ele>183.4</ele>
        <time>2024-11-20T09:51:52Z</time>
      </trkpt>
      <trkpt lat="48.11941" lon="-3.29871">
        <ele>183.4</ele>
        <time>2024-11-20T09:51:53Z</time>
      </trkpt>
      <trkpt lat="48.11941" lon="-3.29872">
        <ele>183.4</ele>
        <time>2024-11-20T09:51:54Z</time>
      </trkpt>
      <trkpt lat="48.11941" lon="-3.29873">
        <ele>183.3</ele>
        <time>2024-11-20T09:51:55Z</time>
      </trkpt>
      <trkpt lat="48.11941" lon="-3.29874">
        <ele>183.2</ele>
        <time>2024-11-20T09:51:56Z</time>
      </trkpt>
      <trkpt lat="48.11941" lon="-3.29875">
        <ele>183.1</ele>
        <time>2024-11-20T09:51:57Z</time>
      </trkpt>
      <trkpt lat="48.1194" lon="-3.29876">
        <ele>183.1</ele>
        <time>2024-11-20T09:51:58Z</time>
      </trkpt>
      <trkpt lat="48.1194" lon="-3.29876">
        <ele>183.1</ele>
        <time>2024-11-20T09:51:59Z</time>
      </trkpt>
      <trkpt lat="48.11939" lon="-3.29877">
        <ele>183.1</ele>
        <time>2024-11-20T09:52:00Z</time>
      </trkpt>
      <trkpt lat="48.11939" lon="-3.29878">
        <ele>183</ele>
        <time>2024-11-20T09:52:01Z</time>
      </trkpt>
      <trkpt lat="48.11938" lon="-3.2988">
        <ele>182.9</ele>
        <time>2024-11-20T09:52:02Z</time>
      </trkpt>
      <trkpt lat="48.11937" lon="-3.29881">
        <ele>182.9</ele>
        <time>2024-11-20T09:52:03Z</time>
      </trkpt>
      <trkpt lat="48.11935" lon="-3.29883">
        <ele>182.8</ele>
        <time>2024-11-20T09:52:04Z</time>
      </trkpt>
      <trkpt lat="48.11934" lon="-3.29885">
        <ele>182.7</ele>
        <time>2024-11-20T09:52:05Z</time>
      </trkpt>
      <trkpt lat="48.11933" lon="-3.29886">
        <ele>182.6</ele>
        <time>2024-11-20T09:52:06Z</time>
      </trkpt>
      <trkpt lat="48.11932" lon="-3.29888">
        <ele>182.5</ele>
        <time>2024-11-20T09:52:07Z</time>
      </trkpt>
      <trkpt lat="48.11931" lon="-3.29889">
        <ele>182.5</ele>
        <time>2024-11-20T09:52:08Z</time>
      </trkpt>
      <trkpt lat="48.1193" lon="-3.29891">
        <ele>182.4</ele>
        <time>2024-11-20T09:52:09Z</time>
      </trkpt>
      <trkpt lat="48.11929" lon="-3.29893">
        <ele>182.3</ele>
        <time>2024-11-20T09:52:10Z</time>
      </trkpt>
      <trkpt lat="48.11927" lon="-3.29895">
        <ele>182.3</ele>
        <time>2024-11-20T09:52:11Z</time>
      </trkpt>
      <trkpt lat="48.11926" lon="-3.29897">
        <ele>182.2</ele>
        <time>2024-11-20T09:52:12Z</time>
      </trkpt>
      <trkpt lat="48.11925" lon="-3.29898">
        <ele>182.2</ele>
        <time>2024-11-20T09:52:13Z</time>
      </trkpt>
      <trkpt lat="48.11923" lon="-3.29899">
        <ele>182.1</ele>
        <time>2024-11-20T09:52:14Z</time>
      </trkpt>
      <trkpt lat="48.11922" lon="-3.29901">
        <ele>182</ele>
        <time>2024-11-20T09:52:15Z</time>
      </trkpt>
      <trkpt lat="48.11921" lon="-3.29902">
        <ele>182</ele>
        <time>2024-11-20T09:52:16Z</time>
      </trkpt>
      <trkpt lat="48.1192" lon="-3.29903">
        <ele>181.9</ele>
        <time>2024-11-20T09:52:17Z</time>
      </trkpt>
      <trkpt lat="48.11919" lon="-3.29905">
        <ele>181.8</ele>
        <time>2024-11-20T09:52:18Z</time>
      </trkpt>
      <trkpt lat="48.11918" lon="-3.29907">
        <ele>181.7</ele>
        <time>2024-11-20T09:52:19Z</time>
      </trkpt>
      <trkpt lat="48.11918" lon="-3.29908">
        <ele>181.6</ele>
        <time>2024-11-20T09:52:20Z</time>
      </trkpt>
      <trkpt lat="48.11917" lon="-3.2991">
        <ele>181.5</ele>
        <time>2024-11-20T09:52:21Z</time>
      </trkpt>
      <trkpt lat="48.11917" lon="-3.29911">
        <ele>181.4</ele>
        <time>2024-11-20T09:52:22Z</time>
      </trkpt>
      <trkpt lat="48.11917" lon="-3.29912">
        <ele>181.3</ele>
        <time>2024-11-20T09:52:23Z</time>
      </trkpt>
      <trkpt lat="48.11917" lon="-3.29913">
        <ele>181.3</ele>
        <time>2024-11-20T09:52:24Z</time>
      </trkpt>
      <trkpt lat="48.11917" lon="-3.29914">
        <ele>181.2</ele>
        <time>2024-11-20T09:52:25Z</time>
      </trkpt>
      <trkpt lat="48.11918" lon="-3.29915">
        <ele>181.1</ele>
        <time>2024-11-20T09:52:26Z</time>
      </trkpt>
      <trkpt lat="48.11918" lon="-3.29916">
        <ele>181</ele>
        <time>2024-11-20T09:52:27Z</time>
      </trkpt>
      <trkpt lat="48.11919" lon="-3.29918">
        <ele>181</ele>
        <time>2024-11-20T09:52:28Z</time>
      </trkpt>
      <trkpt lat="48.11919" lon="-3.29918">
        <ele>180.9</ele>
        <time>2024-11-20T09:52:29Z</time>
      </trkpt>
      <trkpt lat="48.11918" lon="-3.29918">
        <ele>180.9</ele>
        <time>2024-11-20T09:52:30Z</time>
      </trkpt>
      <trkpt lat="48.11918" lon="-3.29919">
        <ele>180.9</ele>
        <time>2024-11-20T09:52:31Z</time>
      </trkpt>
      <trkpt lat="48.11919" lon="-3.2992">
        <ele>180.9</ele>
        <time>2024-11-20T09:52:32Z</time>
      </trkpt>
      <trkpt lat="48.11919" lon="-3.2992">
        <ele>180.9</ele>
        <time>2024-11-20T09:52:33Z</time>
      </trkpt>
      <trkpt lat="48.11918" lon="-3.29921">
        <ele>180.8</ele>
        <time>2024-11-20T09:52:34Z</time>
      </trkpt>
      <trkpt lat="48.11919" lon="-3.29921">
        <ele>180.8</ele>
        <time>2024-11-20T09:52:35Z</time>
      </trkpt>
      <trkpt lat="48.11919" lon="-3.29922">
        <ele>180.8</ele>
        <time>2024-11-20T09:52:36Z</time>
      </trkpt>
      <trkpt lat="48.11918" lon="-3.29922">
        <ele>180.8</ele>
        <time>2024-11-20T09:52:37Z</time>
      </trkpt>
      <trkpt lat="48.11918" lon="-3.29923">
        <ele>180.8</ele>
        <time>2024-11-20T09:52:38Z</time>
      </trkpt>
      <trkpt lat="48.11918" lon="-3.29924">
        <ele>180.7</ele>
        <time>2024-11-20T09:52:39Z</time>
      </trkpt>
      <trkpt lat="48.11918" lon="-3.29924">
        <ele>180.7</ele>
        <time>2024-11-20T09:52:40Z</time>
      </trkpt>
      <trkpt lat="48.11918" lon="-3.29925">
        <ele>180.7</ele>
        <time>2024-11-20T09:52:41Z</time>
      </trkpt>
      <trkpt lat="48.11918" lon="-3.29925">
        <ele>180.7</ele>
        <time>2024-11-20T09:52:42Z</time>
      </trkpt>
      <trkpt lat="48.11918" lon="-3.29926">
        <ele>180.7</ele>
        <time>2024-11-20T09:52:43Z</time>
      </trkpt>
      <trkpt lat="48.11918" lon="-3.29927">
        <ele>180.6</ele>
        <time>2024-11-20T09:52:44Z</time>
      </trkpt>
      <trkpt lat="48.11918" lon="-3.29928">
        <ele>180.6</ele>
        <time>2024-11-20T09:52:45Z</time>
      </trkpt>
      <trkpt lat="48.11918" lon="-3.29929">
        <ele>180.6</ele>
        <time>2024-11-20T09:52:46Z</time>
      </trkpt>
      <trkpt lat="48.11917" lon="-3.29929">
        <ele>180.5</ele>
        <time>2024-11-20T09:52:47Z</time>
      </trkpt>
      <trkpt lat="48.11917" lon="-3.2993">
        <ele>180.5</ele>
        <time>2024-11-20T09:52:48Z</time>
      </trkpt>
      <trkpt lat="48.11917" lon="-3.29931">
        <ele>180.5</ele>
        <time>2024-11-20T09:52:49Z</time>
      </trkpt>
      <trkpt lat="48.11917" lon="-3.29933">
        <ele>180.4</ele>
        <time>2024-11-20T09:52:50Z</time>
      </trkpt>
      <trkpt lat="48.11916" lon="-3.29934">
        <ele>180.4</ele>
        <time>2024-11-20T09:52:51Z</time>
      </trkpt>
      <trkpt lat="48.11917" lon="-3.29934">
        <ele>180.4</ele>
        <time>2024-11-20T09:52:52Z</time>
      </trkpt>
      <trkpt lat="48.11917" lon="-3.29935">
        <ele>180.3</ele>
        <time>2024-11-20T09:52:53Z</time>
      </trkpt>
      <trkpt lat="48.11917" lon="-3.29937">
        <ele>180.3</ele>
        <time>2024-11-20T09:52:54Z</time>
      </trkpt>
      <trkpt lat="48.11918" lon="-3.29938">
        <ele>180.2</ele>
        <time>2024-11-20T09:52:55Z</time>
      </trkpt>
      <trkpt lat="48.11918" lon="-3.29939">
        <ele>180.2</ele>
        <time>2024-11-20T09:52:56Z</time>
      </trkpt>
      <trkpt lat="48.11918" lon="-3.2994">
        <ele>180.2</ele>
        <time>2024-11-20T09:52:57Z</time>
      </trkpt>
      <trkpt lat="48.11918" lon="-3.29942">
        <ele>180.1</ele>
        <time>2024-11-20T09:52:58Z</time>
      </trkpt>
      <trkpt lat="48.11919" lon="-3.29943">
        <ele>180</ele>
        <time>2024-11-20T09:52:59Z</time>
      </trkpt>
      <trkpt lat="48.11919" lon="-3.29944">
        <ele>180</ele>
        <time>2024-11-20T09:53:00Z</time>
      </trkpt>
      <trkpt lat="48.11919" lon="-3.29945">
        <ele>180</ele>
        <time>2024-11-20T09:53:01Z</time>
      </trkpt>
      <trkpt lat="48.1192" lon="-3.29946">
        <ele>179.9</ele>
        <time>2024-11-20T09:53:02Z</time>
      </trkpt>
      <trkpt lat="48.1192" lon="-3.29947">
        <ele>179.9</ele>
        <time>2024-11-20T09:53:03Z</time>
      </trkpt>
      <trkpt lat="48.11921" lon="-3.29949">
        <ele>179.9</ele>
        <time>2024-11-20T09:53:04Z</time>
      </trkpt>
      <trkpt lat="48.11922" lon="-3.2995">
        <ele>179.8</ele>
        <time>2024-11-20T09:53:05Z</time>
      </trkpt>
      <trkpt lat="48.11922" lon="-3.29951">
        <ele>179.8</ele>
        <time>2024-11-20T09:53:06Z</time>
      </trkpt>
      <trkpt lat="48.11922" lon="-3.29952">
        <ele>179.8</ele>
        <time>2024-11-20T09:53:07Z</time>
      </trkpt>
      <trkpt lat="48.11922" lon="-3.29953">
        <ele>179.7</ele>
        <time>2024-11-20T09:53:08Z</time>
      </trkpt>
      <trkpt lat="48.11922" lon="-3.29954">
        <ele>179.7</ele>
        <time>2024-11-20T09:53:09Z</time>
      </trkpt>
      <trkpt lat="48.11923" lon="-3.29956">
        <ele>179.7</ele>
        <time>2024-11-20T09:53:10Z</time>
      </trkpt>
      <trkpt lat="48.11923" lon="-3.29957">
        <ele>179.7</ele>
        <time>2024-11-20T09:53:11Z</time>
      </trkpt>
      <trkpt lat="48.11924" lon="-3.29958">
        <ele>179.6</ele>
        <time>2024-11-20T09:53:12Z</time>
      </trkpt>
      <trkpt lat="48.11924" lon="-3.29959">
        <ele>179.6</ele>
        <time>2024-11-20T09:53:13Z</time>
      </trkpt>
      <trkpt lat="48.11925" lon="-3.2996">
        <ele>179.6</ele>
        <time>2024-11-20T09:53:14Z</time>
      </trkpt>
      <trkpt lat="48.11926" lon="-3.29961">
        <ele>179.6</ele>
        <time>2024-11-20T09:53:15Z</time>
      </trkpt>
      <trkpt lat="48.11926" lon="-3.29963">
        <ele>179.6</ele>
        <time>2024-11-20T09:53:16Z</time>
      </trkpt>
      <trkpt lat="48.11927" lon="-3.29964">
        <ele>179.6</ele>
        <time>2024-11-20T09:53:17Z</time>
      </trkpt>
      <trkpt lat="48.11927" lon="-3.29965">
        <ele>179.5</ele>
        <time>2024-11-20T09:53:18Z</time>
      </trkpt>
      <trkpt lat="48.11928" lon="-3.29966">
        <ele>179.5</ele>
        <time>2024-11-20T09:53:19Z</time>
      </trkpt>
      <trkpt lat="48.11928" lon="-3.29968">
        <ele>179.5</ele>
        <time>2024-11-20T09:53:20Z</time>
      </trkpt>
      <trkpt lat="48.11928" lon="-3.29969">
        <ele>179.5</ele>
        <time>2024-11-20T09:53:21Z</time>
      </trkpt>
      <trkpt lat="48.11928" lon="-3.2997">
        <ele>179.5</ele>
        <time>2024-11-20T09:53:22Z</time>
      </trkpt>
      <trkpt lat="48.11928" lon="-3.29972">
        <ele>179.4</ele>
        <time>2024-11-20T09:53:23Z</time>
      </trkpt>
      <trkpt lat="48.11928" lon="-3.29973">
        <ele>179.4</ele>
        <time>2024-11-20T09:53:24Z</time>
      </trkpt>
      <trkpt lat="48.11928" lon="-3.29974">
        <ele>179.4</ele>
        <time>2024-11-20T09:53:25Z</time>
      </trkpt>
      <trkpt lat="48.11928" lon="-3.29976">
        <ele>179.4</ele>
        <time>2024-11-20T09:53:26Z</time>
      </trkpt>
      <trkpt lat="48.11928" lon="-3.29978">
        <ele>179.4</ele>
        <time>2024-11-20T09:53:27Z</time>
      </trkpt>
      <trkpt lat="48.11928" lon="-3.2998">
        <ele>179.4</ele>
        <time>2024-11-20T09:53:28Z</time>
      </trkpt>
      <trkpt lat="48.11929" lon="-3.29982">
        <ele>179.4</ele>
        <time>2024-11-20T09:53:29Z</time>
      </trkpt>
      <trkpt lat="48.11929" lon="-3.29984">
        <ele>179.4</ele>
        <time>2024-11-20T09:53:30Z</time>
      </trkpt>
      <trkpt lat="48.11929" lon="-3.29985">
        <ele>179.4</ele>
        <time>2024-11-20T09:53:31Z</time>
      </trkpt>
      <trkpt lat="48.11929" lon="-3.29987">
        <ele>179.4</ele>
        <time>2024-11-20T09:53:32Z</time>
      </trkpt>
      <trkpt lat="48.11929" lon="-3.29988">
        <ele>179.4</ele>
        <time>2024-11-20T09:53:33Z</time>
      </trkpt>
      <trkpt lat="48.11929" lon="-3.29989">
        <ele>179.4</ele>
        <time>2024-11-20T09:53:34Z</time>
      </trkpt>
      <trkpt lat="48.11929" lon="-3.29991">
        <ele>179.5</ele>
        <time>2024-11-20T09:53:35Z</time>
      </trkpt>
      <trkpt lat="48.11929" lon="-3.29993">
        <ele>179.5</ele>
        <time>2024-11-20T09:53:36Z</time>
      </trkpt>
      <trkpt lat="48.1193" lon="-3.29994">
        <ele>179.5</ele>
        <time>2024-11-20T09:53:37Z</time>
      </trkpt>
      <trkpt lat="48.1193" lon="-3.29996">
        <ele>179.5</ele>
        <time>2024-11-20T09:53:38Z</time>
      </trkpt>
      <trkpt lat="48.1193" lon="-3.29997">
        <ele>179.5</ele>
        <time>2024-11-20T09:53:39Z</time>
      </trkpt>
      <trkpt lat="48.1193" lon="-3.29998">
        <ele>179.5</ele>
        <time>2024-11-20T09:53:40Z</time>
      </trkpt>
      <trkpt lat="48.11931" lon="-3.3">
        <ele>179.5</ele>
        <time>2024-11-20T09:53:41Z</time>
      </trkpt>
      <trkpt lat="48.11931" lon="-3.30002">
        <ele>179.5</ele>
        <time>2024-11-20T09:53:42Z</time>
      </trkpt>
      <trkpt lat="48.11932" lon="-3.30003">
        <ele>179.5</ele>
        <time>2024-11-20T09:53:43Z</time>
      </trkpt>
      <trkpt lat="48.11932" lon="-3.30004">
        <ele>179.6</ele>
        <time>2024-11-20T09:53:44Z</time>
      </trkpt>
      <trkpt lat="48.11932" lon="-3.30006">
        <ele>179.6</ele>
        <time>2024-11-20T09:53:45Z</time>
      </trkpt>
      <trkpt lat="48.11933" lon="-3.30006">
        <ele>179.6</ele>
        <time>2024-11-20T09:53:46Z</time>
      </trkpt>
      <trkpt lat="48.11933" lon="-3.30008">
        <ele>179.6</ele>
        <time>2024-11-20T09:53:47Z</time>
      </trkpt>
      <trkpt lat="48.11934" lon="-3.30009">
        <ele>179.6</ele>
        <time>2024-11-20T09:53:48Z</time>
      </trkpt>
      <trkpt lat="48.11934" lon="-3.30011">
        <ele>179.6</ele>
        <time>2024-11-20T09:53:49Z</time>
      </trkpt>
      <trkpt lat="48.11935" lon="-3.30013">
        <ele>179.6</ele>
        <time>2024-11-20T09:53:50Z</time>
      </trkpt>
      <trkpt lat="48.11935" lon="-3.30014">
        <ele>179.7</ele>
        <time>2024-11-20T09:53:51Z</time>
      </trkpt>
      <trkpt lat="48.11935" lon="-3.30016">
        <ele>179.7</ele>
        <time>2024-11-20T09:53:52Z</time>
      </trkpt>
      <trkpt lat="48.11935" lon="-3.30017">
        <ele>179.7</ele>
        <time>2024-11-20T09:53:53Z</time>
      </trkpt>
      <trkpt lat="48.11935" lon="-3.30018">
        <ele>179.7</ele>
        <time>2024-11-20T09:53:54Z</time>
      </trkpt>
      <trkpt lat="48.11935" lon="-3.30019">
        <ele>179.7</ele>
        <time>2024-11-20T09:53:55Z</time>
      </trkpt>
      <trkpt lat="48.11935" lon="-3.30021">
        <ele>179.6</ele>
        <time>2024-11-20T09:53:56Z</time>
      </trkpt>
      <trkpt lat="48.11935" lon="-3.30022">
        <ele>179.6</ele>
        <time>2024-11-20T09:53:57Z</time>
      </trkpt>
      <trkpt lat="48.11935" lon="-3.30024">
        <ele>179.6</ele>
        <time>2024-11-20T09:53:58Z</time>
      </trkpt>
      <trkpt lat="48.11935" lon="-3.30026">
        <ele>179.6</ele>
        <time>2024-11-20T09:53:59Z</time>
      </trkpt>
      <trkpt lat="48.11934" lon="-3.30027">
        <ele>179.6</ele>
        <time>2024-11-20T09:54:00Z</time>
      </trkpt>
      <trkpt lat="48.11934" lon="-3.30029">
        <ele>179.6</ele>
        <time>2024-11-20T09:54:01Z</time>
      </trkpt>
      <trkpt lat="48.11934" lon="-3.30031">
        <ele>179.6</ele>
        <time>2024-11-20T09:54:02Z</time>
      </trkpt>
      <trkpt lat="48.11933" lon="-3.30032">
        <ele>179.6</ele>
        <time>2024-11-20T09:54:03Z</time>
      </trkpt>
      <trkpt lat="48.11933" lon="-3.30034">
        <ele>179.6</ele>
        <time>2024-11-20T09:54:04Z</time>
      </trkpt>
      <trkpt lat="48.11933" lon="-3.30035">
        <ele>179.6</ele>
        <time>2024-11-20T09:54:05Z</time>
      </trkpt>
      <trkpt lat="48.11933" lon="-3.30035">
        <ele>179.6</ele>
        <time>2024-11-20T09:54:06Z</time>
      </trkpt>
      <trkpt lat="48.11933" lon="-3.30036">
        <ele>179.6</ele>
        <time>2024-11-20T09:54:07Z</time>
      </trkpt>
      <trkpt lat="48.11932" lon="-3.30036">
        <ele>179.6</ele>
        <time>2024-11-20T09:54:08Z</time>
      </trkpt>
      <trkpt lat="48.11932" lon="-3.30037">
        <ele>179.5</ele>
        <time>2024-11-20T09:54:09Z</time>
      </trkpt>
      <trkpt lat="48.11932" lon="-3.30038">
        <ele>179.6</ele>
        <time>2024-11-20T09:54:10Z</time>
      </trkpt>
      <trkpt lat="48.11933" lon="-3.30039">
        <ele>179.6</ele>
        <time>2024-11-20T09:54:11Z</time>
      </trkpt>
      <trkpt lat="48.11932" lon="-3.3004">
        <ele>179.6</ele>
        <time>2024-11-20T09:54:12Z</time>
      </trkpt>
      <trkpt lat="48.11932" lon="-3.30041">
        <ele>179.6</ele>
        <time>2024-11-20T09:54:13Z</time>
      </trkpt>
      <trkpt lat="48.11933" lon="-3.30042">
        <ele>179.6</ele>
        <time>2024-11-20T09:54:14Z</time>
      </trkpt>
      <trkpt lat="48.11933" lon="-3.30044">
        <ele>179.6</ele>
        <time>2024-11-20T09:54:15Z</time>
      </trkpt>
      <trkpt lat="48.11933" lon="-3.30045">
        <ele>179.6</ele>
        <time>2024-11-20T09:54:16Z</time>
      </trkpt>
      <trkpt lat="48.11933" lon="-3.30046">
        <ele>179.6</ele>
        <time>2024-11-20T09:54:17Z</time>
      </trkpt>
      <trkpt lat="48.11932" lon="-3.30047">
        <ele>179.6</ele>
        <time>2024-11-20T09:54:18Z</time>
      </trkpt>
      <trkpt lat="48.11932" lon="-3.30049">
        <ele>179.6</ele>
        <time>2024-11-20T09:54:19Z</time>
      </trkpt>
      <trkpt lat="48.11932" lon="-3.3005">
        <ele>179.6</ele>
        <time>2024-11-20T09:54:20Z</time>
      </trkpt>
      <trkpt lat="48.11932" lon="-3.30052">
        <ele>179.5</ele>
        <time>2024-11-20T09:54:21Z</time>
      </trkpt>
      <trkpt lat="48.11931" lon="-3.30053">
        <ele>179.5</ele>
        <time>2024-11-20T09:54:22Z</time>
      </trkpt>
      <trkpt lat="48.11931" lon="-3.30055">
        <ele>179.5</ele>
        <time>2024-11-20T09:54:23Z</time>
      </trkpt>
      <trkpt lat="48.1193" lon="-3.30056">
        <ele>179.5</ele>
        <time>2024-11-20T09:54:24Z</time>
      </trkpt>
      <trkpt lat="48.1193" lon="-3.30057">
        <ele>179.5</ele>
        <time>2024-11-20T09:54:25Z</time>
      </trkpt>
      <trkpt lat="48.1193" lon="-3.30058">
        <ele>179.5</ele>
        <time>2024-11-20T09:54:26Z</time>
      </trkpt>
      <trkpt lat="48.1193" lon="-3.3006">
        <ele>179.5</ele>
        <time>2024-11-20T09:54:27Z</time>
      </trkpt>
      <trkpt lat="48.1193" lon="-3.30061">
        <ele>179.5</ele>
        <time>2024-11-20T09:54:28Z</time>
      </trkpt>
      <trkpt lat="48.1193" lon="-3.30062">
        <ele>179.5</ele>
        <time>2024-11-20T09:54:29Z</time>
      </trkpt>
      <trkpt lat="48.1193" lon="-3.30064">
        <ele>179.5</ele>
        <time>2024-11-20T09:54:30Z</time>
      </trkpt>
      <trkpt lat="48.1193" lon="-3.30065">
        <ele>179.5</ele>
        <time>2024-11-20T09:54:31Z</time>
      </trkpt>
      <trkpt lat="48.1193" lon="-3.30066">
        <ele>179.5</ele>
        <time>2024-11-20T09:54:32Z</time>
      </trkpt>
      <trkpt lat="48.1193" lon="-3.30067">
        <ele>179.5</ele>
        <time>2024-11-20T09:54:33Z</time>
      </trkpt>
      <trkpt lat="48.11931" lon="-3.30068">
        <ele>179.5</ele>
        <time>2024-11-20T09:54:34Z</time>
      </trkpt>
      <trkpt lat="48.11931" lon="-3.30069">
        <ele>179.5</ele>
        <time>2024-11-20T09:54:35Z</time>
      </trkpt>
      <trkpt lat="48.11931" lon="-3.3007">
        <ele>179.5</ele>
        <time>2024-11-20T09:54:36Z</time>
      </trkpt>
      <trkpt lat="48.11931" lon="-3.30072">
        <ele>179.5</ele>
        <time>2024-11-20T09:54:37Z</time>
      </trkpt>
      <trkpt lat="48.11931" lon="-3.30073">
        <ele>179.5</ele>
        <time>2024-11-20T09:54:38Z</time>
      </trkpt>
      <trkpt lat="48.11931" lon="-3.30074">
        <ele>179.5</ele>
        <time>2024-11-20T09:54:39Z</time>
      </trkpt>
      <trkpt lat="48.11931" lon="-3.30076">
        <ele>179.5</ele>
        <time>2024-11-20T09:54:40Z</time>
      </trkpt>
      <trkpt lat="48.11931" lon="-3.30076">
        <ele>179.5</ele>
        <time>2024-11-20T09:54:41Z</time>
      </trkpt>
      <trkpt lat="48.11931" lon="-3.30076">
        <ele>179.5</ele>
        <time>2024-11-20T09:54:42Z</time>
      </trkpt>
      <trkpt lat="48.11931" lon="-3.30076">
        <ele>179.5</ele>
        <time>2024-11-20T09:54:43Z</time>
      </trkpt>
      <trkpt lat="48.1193" lon="-3.30076">
        <ele>179.5</ele>
        <time>2024-11-20T09:54:44Z</time>
      </trkpt>
      <trkpt lat="48.1193" lon="-3.30076">
        <ele>179.5</ele>
        <time>2024-11-20T09:54:45Z</time>
      </trkpt>
      <trkpt lat="48.1193" lon="-3.30076">
        <ele>179.5</ele>
        <time>2024-11-20T09:54:46Z</time>
      </trkpt>
      <trkpt lat="48.1193" lon="-3.30077">
        <ele>179.5</ele>
        <time>2024-11-20T09:54:47Z</time>
      </trkpt>
      <trkpt lat="48.1193" lon="-3.30078">
        <ele>179.5</ele>
        <time>2024-11-20T09:54:48Z</time>
      </trkpt>
      <trkpt lat="48.1193" lon="-3.30079">
        <ele>179.5</ele>
        <time>2024-11-20T09:54:49Z</time>
      </trkpt>
      <trkpt lat="48.1193" lon="-3.30081">
        <ele>179.5</ele>
        <time>2024-11-20T09:54:50Z</time>
      </trkpt>
      <trkpt lat="48.1193" lon="-3.30082">
        <ele>179.5</ele>
        <time>2024-11-20T09:54:51Z</time>
      </trkpt>
      <trkpt lat="48.11929" lon="-3.30083">
        <ele>179.5</ele>
        <time>2024-11-20T09:54:52Z</time>
      </trkpt>
      <trkpt lat="48.11929" lon="-3.30084">
        <ele>179.5</ele>
        <time>2024-11-20T09:54:53Z</time>
      </trkpt>
      <trkpt lat="48.11929" lon="-3.30085">
        <ele>179.4</ele>
        <time>2024-11-20T09:54:54Z</time>
      </trkpt>
      <trkpt lat="48.11929" lon="-3.30086">
        <ele>179.4</ele>
        <time>2024-11-20T09:54:55Z</time>
      </trkpt>
      <trkpt lat="48.11929" lon="-3.30087">
        <ele>179.4</ele>
        <time>2024-11-20T09:54:56Z</time>
      </trkpt>
      <trkpt lat="48.11929" lon="-3.30088">
        <ele>179.4</ele>
        <time>2024-11-20T09:54:57Z</time>
      </trkpt>
      <trkpt lat="48.11929" lon="-3.30089">
        <ele>179.4</ele>
        <time>2024-11-20T09:54:58Z</time>
      </trkpt>
      <trkpt lat="48.11929" lon="-3.3009">
        <ele>179.4</ele>
        <time>2024-11-20T09:54:59Z</time>
      </trkpt>
      <trkpt lat="48.11929" lon="-3.30091">
        <ele>179.4</ele>
        <time>2024-11-20T09:55:00Z</time>
      </trkpt>
      <trkpt lat="48.11929" lon="-3.30092">
        <ele>179.4</ele>
        <time>2024-11-20T09:55:01Z</time>
      </trkpt>
      <trkpt lat="48.11929" lon="-3.30093">
        <ele>179.4</ele>
        <time>2024-11-20T09:55:02Z</time>
      </trkpt>
      <trkpt lat="48.11929" lon="-3.30094">
        <ele>179.4</ele>
        <time>2024-11-20T09:55:03Z</time>
      </trkpt>
      <trkpt lat="48.11929" lon="-3.30094">
        <ele>179.4</ele>
        <time>2024-11-20T09:55:04Z</time>
      </trkpt>
      <trkpt lat="48.11929" lon="-3.30094">
        <ele>179.4</ele>
        <time>2024-11-20T09:55:05Z</time>
      </trkpt>
      <trkpt lat="48.11929" lon="-3.30095">
        <ele>179.4</ele>
        <time>2024-11-20T09:55:06Z</time>
      </trkpt>
      <trkpt lat="48.11929" lon="-3.30095">
        <ele>179.4</ele>
        <time>2024-11-20T09:55:07Z</time>
      </trkpt>
      <trkpt lat="48.11929" lon="-3.30096">
        <ele>179.5</ele>
        <time>2024-11-20T09:55:08Z</time>
      </trkpt>
      <trkpt lat="48.11929" lon="-3.30097">
        <ele>179.5</ele>
        <time>2024-11-20T09:55:09Z</time>
      </trkpt>
      <trkpt lat="48.11929" lon="-3.30098">
        <ele>179.5</ele>
        <time>2024-11-20T09:55:10Z</time>
      </trkpt>
      <trkpt lat="48.11929" lon="-3.30099">
        <ele>179.4</ele>
        <time>2024-11-20T09:55:11Z</time>
      </trkpt>
      <trkpt lat="48.11929" lon="-3.30099">
        <ele>179.4</ele>
        <time>2024-11-20T09:55:12Z</time>
      </trkpt>
      <trkpt lat="48.11929" lon="-3.30099">
        <ele>179.4</ele>
        <time>2024-11-20T09:55:13Z</time>
      </trkpt>
      <trkpt lat="48.11929" lon="-3.30099">
        <ele>179.4</ele>
        <time>2024-11-20T09:55:14Z</time>
      </trkpt>
      <trkpt lat="48.11929" lon="-3.301">
        <ele>179.4</ele>
        <time>2024-11-20T09:55:15Z</time>
      </trkpt>
      <trkpt lat="48.11929" lon="-3.301">
        <ele>179.4</ele>
        <time>2024-11-20T09:55:16Z</time>
      </trkpt>
      <trkpt lat="48.11929" lon="-3.301">
        <ele>179.4</ele>
        <time>2024-11-20T09:55:17Z</time>
      </trkpt>
      <trkpt lat="48.11929" lon="-3.301">
        <ele>179.4</ele>
        <time>2024-11-20T09:55:18Z</time>
      </trkpt>
      <trkpt lat="48.11929" lon="-3.301">
        <ele>179.4</ele>
        <time>2024-11-20T09:55:19Z</time>
      </trkpt>
      <trkpt lat="48.11928" lon="-3.301">
        <ele>179.4</ele>
        <time>2024-11-20T09:55:20Z</time>
      </trkpt>
      <trkpt lat="48.11928" lon="-3.30099">
        <ele>179.4</ele>
        <time>2024-11-20T09:55:21Z</time>
      </trkpt>
      <trkpt lat="48.11929" lon="-3.301">
        <ele>179.4</ele>
        <time>2024-11-20T09:55:22Z</time>
      </trkpt>
      <trkpt lat="48.11929" lon="-3.301">
        <ele>179.4</ele>
        <time>2024-11-20T09:55:23Z</time>
      </trkpt>
      <trkpt lat="48.11929" lon="-3.301">
        <ele>179.4</ele>
        <time>2024-11-20T09:55:24Z</time>
      </trkpt>
      <trkpt lat="48.11929" lon="-3.30101">
        <ele>179.4</ele>
        <time>2024-11-20T09:55:25Z</time>
      </trkpt>
      <trkpt lat="48.11929" lon="-3.30103">
        <ele>179.4</ele>
        <time>2024-11-20T09:55:26Z</time>
      </trkpt>
      <trkpt lat="48.11929" lon="-3.30104">
        <ele>179.4</ele>
        <time>2024-11-20T09:55:27Z</time>
      </trkpt>
      <trkpt lat="48.11929" lon="-3.30105">
        <ele>179.4</ele>
        <time>2024-11-20T09:55:28Z</time>
      </trkpt>
      <trkpt lat="48.11929" lon="-3.30106">
        <ele>179.4</ele>
        <time>2024-11-20T09:55:29Z</time>
      </trkpt>
      <trkpt lat="48.11929" lon="-3.30108">
        <ele>179.4</ele>
        <time>2024-11-20T09:55:30Z</time>
      </trkpt>
      <trkpt lat="48.11929" lon="-3.3011">
        <ele>179.4</ele>
        <time>2024-11-20T09:55:31Z</time>
      </trkpt>
      <trkpt lat="48.11929" lon="-3.30112">
        <ele>179.5</ele>
        <time>2024-11-20T09:55:32Z</time>
      </trkpt>
      <trkpt lat="48.1193" lon="-3.30114">
        <ele>179.5</ele>
        <time>2024-11-20T09:55:33Z</time>
      </trkpt>
      <trkpt lat="48.1193" lon="-3.30115">
        <ele>179.5</ele>
        <time>2024-11-20T09:55:34Z</time>
      </trkpt>
      <trkpt lat="48.1193" lon="-3.30117">
        <ele>179.5</ele>
        <time>2024-11-20T09:55:35Z</time>
      </trkpt>
      <trkpt lat="48.11931" lon="-3.30118">
        <ele>179.5</ele>
        <time>2024-11-20T09:55:36Z</time>
      </trkpt>
      <trkpt lat="48.11931" lon="-3.3012">
        <ele>179.5</ele>
        <time>2024-11-20T09:55:37Z</time>
      </trkpt>
      <trkpt lat="48.11932" lon="-3.30121">
        <ele>179.5</ele>
        <time>2024-11-20T09:55:38Z</time>
      </trkpt>
      <trkpt lat="48.11932" lon="-3.30123">
        <ele>179.5</ele>
        <time>2024-11-20T09:55:39Z</time>
      </trkpt>
      <trkpt lat="48.11932" lon="-3.30124">
        <ele>179.6</ele>
        <time>2024-11-20T09:55:40Z</time>
      </trkpt>
      <trkpt lat="48.11932" lon="-3.30126">
        <ele>179.6</ele>
        <time>2024-11-20T09:55:41Z</time>
      </trkpt>
      <trkpt lat="48.11932" lon="-3.30129">
        <ele>179.5</ele>
        <time>2024-11-20T09:55:42Z</time>
      </trkpt>
      <trkpt lat="48.11932" lon="-3.3013">
        <ele>179.5</ele>
        <time>2024-11-20T09:55:43Z</time>
      </trkpt>
      <trkpt lat="48.11931" lon="-3.30132">
        <ele>179.5</ele>
        <time>2024-11-20T09:55:44Z</time>
      </trkpt>
      <trkpt lat="48.11931" lon="-3.30133">
        <ele>179.5</ele>
        <time>2024-11-20T09:55:45Z</time>
      </trkpt>
      <trkpt lat="48.11931" lon="-3.30135">
        <ele>179.5</ele>
        <time>2024-11-20T09:55:46Z</time>
      </trkpt>
      <trkpt lat="48.11931" lon="-3.30137">
        <ele>179.5</ele>
        <time>2024-11-20T09:55:47Z</time>
      </trkpt>
      <trkpt lat="48.1193" lon="-3.30139">
        <ele>179.5</ele>
        <time>2024-11-20T09:55:48Z</time>
      </trkpt>
      <trkpt lat="48.1193" lon="-3.30142">
        <ele>179.5</ele>
        <time>2024-11-20T09:55:49Z</time>
      </trkpt>
      <trkpt lat="48.11929" lon="-3.30144">
        <ele>179.5</ele>
        <time>2024-11-20T09:55:50Z</time>
      </trkpt>
      <trkpt lat="48.11929" lon="-3.30146">
        <ele>179.5</ele>
        <time>2024-11-20T09:55:51Z</time>
      </trkpt>
      <trkpt lat="48.11929" lon="-3.30147">
        <ele>179.4</ele>
        <time>2024-11-20T09:55:52Z</time>
      </trkpt>
      <trkpt lat="48.11929" lon="-3.30148">
        <ele>179.4</ele>
        <time>2024-11-20T09:55:53Z</time>
      </trkpt>
      <trkpt lat="48.11929" lon="-3.30149">
        <ele>179.4</ele>
        <time>2024-11-20T09:55:54Z</time>
      </trkpt>
      <trkpt lat="48.11928" lon="-3.3015">
        <ele>179.4</ele>
        <time>2024-11-20T09:55:55Z</time>
      </trkpt>
      <trkpt lat="48.11927" lon="-3.30151">
        <ele>179.4</ele>
        <time>2024-11-20T09:55:56Z</time>
      </trkpt>
      <trkpt lat="48.11927" lon="-3.30151">
        <ele>179.4</ele>
        <time>2024-11-20T09:55:57Z</time>
      </trkpt>
      <trkpt lat="48.11926" lon="-3.30151">
        <ele>179.4</ele>
        <time>2024-11-20T09:55:58Z</time>
      </trkpt>
      <trkpt lat="48.11926" lon="-3.30152">
        <ele>179.3</ele>
        <time>2024-11-20T09:55:59Z</time>
      </trkpt>
      <trkpt lat="48.11925" lon="-3.30154">
        <ele>179.3</ele>
        <time>2024-11-20T09:56:00Z</time>
      </trkpt>
      <trkpt lat="48.11925" lon="-3.30156">
        <ele>179.3</ele>
        <time>2024-11-20T09:56:01Z</time>
      </trkpt>
      <trkpt lat="48.11925" lon="-3.30157">
        <ele>179.3</ele>
        <time>2024-11-20T09:56:02Z</time>
      </trkpt>
      <trkpt lat="48.11925" lon="-3.30159">
        <ele>179.3</ele>
        <time>2024-11-20T09:56:03Z</time>
      </trkpt>
      <trkpt lat="48.11925" lon="-3.3016">
        <ele>179.3</ele>
        <time>2024-11-20T09:56:04Z</time>
      </trkpt>
      <trkpt lat="48.11925" lon="-3.30161">
        <ele>179.3</ele>
        <time>2024-11-20T09:56:05Z</time>
      </trkpt>
      <trkpt lat="48.11925" lon="-3.30162">
        <ele>179.3</ele>
        <time>2024-11-20T09:56:06Z</time>
      </trkpt>
      <trkpt lat="48.11925" lon="-3.30163">
        <ele>179.3</ele>
        <time>2024-11-20T09:56:07Z</time>
      </trkpt>
      <trkpt lat="48.11925" lon="-3.30165">
        <ele>179.3</ele>
        <time>2024-11-20T09:56:08Z</time>
      </trkpt>
      <trkpt lat="48.11925" lon="-3.30166">
        <ele>179.3</ele>
        <time>2024-11-20T09:56:09Z</time>
      </trkpt>
      <trkpt lat="48.11925" lon="-3.30167">
        <ele>179.3</ele>
        <time>2024-11-20T09:56:10Z</time>
      </trkpt>
      <trkpt lat="48.11925" lon="-3.30169">
        <ele>179.3</ele>
        <time>2024-11-20T09:56:11Z</time>
      </trkpt>
      <trkpt lat="48.11924" lon="-3.3017">
        <ele>179.3</ele>
        <time>2024-11-20T09:56:12Z</time>
      </trkpt>
      <trkpt lat="48.11924" lon="-3.30172">
        <ele>179.3</ele>
        <time>2024-11-20T09:56:13Z</time>
      </trkpt>
      <trkpt lat="48.11924" lon="-3.30173">
        <ele>179.3</ele>
        <time>2024-11-20T09:56:14Z</time>
      </trkpt>
      <trkpt lat="48.11925" lon="-3.30175">
        <ele>179.3</ele>
        <time>2024-11-20T09:56:15Z</time>
      </trkpt>
      <trkpt lat="48.11925" lon="-3.30176">
        <ele>179.3</ele>
        <time>2024-11-20T09:56:16Z</time>
      </trkpt>
      <trkpt lat="48.11925" lon="-3.30178">
        <ele>179.3</ele>
        <time>2024-11-20T09:56:17Z</time>
      </trkpt>
      <trkpt lat="48.11925" lon="-3.3018">
        <ele>179.3</ele>
        <time>2024-11-20T09:56:18Z</time>
      </trkpt>
      <trkpt lat="48.11925" lon="-3.30181">
        <ele>179.3</ele>
        <time>2024-11-20T09:56:19Z</time>
      </trkpt>
      <trkpt lat="48.11925" lon="-3.30183">
        <ele>179.3</ele>
        <time>2024-11-20T09:56:20Z</time>
      </trkpt>
      <trkpt lat="48.11924" lon="-3.30184">
        <ele>179.3</ele>
        <time>2024-11-20T09:56:21Z</time>
      </trkpt>
      <trkpt lat="48.11924" lon="-3.30185">
        <ele>179.3</ele>
        <time>2024-11-20T09:56:22Z</time>
      </trkpt>
      <trkpt lat="48.11924" lon="-3.30186">
        <ele>179.3</ele>
        <time>2024-11-20T09:56:23Z</time>
      </trkpt>
      <trkpt lat="48.11924" lon="-3.30188">
        <ele>179.2</ele>
        <time>2024-11-20T09:56:24Z</time>
      </trkpt>
      <trkpt lat="48.11923" lon="-3.30189">
        <ele>179.2</ele>
        <time>2024-11-20T09:56:25Z</time>
      </trkpt>
      <trkpt lat="48.11923" lon="-3.30191">
        <ele>179.2</ele>
        <time>2024-11-20T09:56:26Z</time>
      </trkpt>
      <trkpt lat="48.11922" lon="-3.30194">
        <ele>179.2</ele>
        <time>2024-11-20T09:56:28Z</time>
      </trkpt>
      <trkpt lat="48.11922" lon="-3.30196">
        <ele>179.2</ele>
        <time>2024-11-20T09:56:29Z</time>
      </trkpt>
      <trkpt lat="48.11921" lon="-3.30198">
        <ele>179.2</ele>
        <time>2024-11-20T09:56:30Z</time>
      </trkpt>
      <trkpt lat="48.11921" lon="-3.30199">
        <ele>179.2</ele>
        <time>2024-11-20T09:56:31Z</time>
      </trkpt>
      <trkpt lat="48.11921" lon="-3.302">
        <ele>179.1</ele>
        <time>2024-11-20T09:56:32Z</time>
      </trkpt>
      <trkpt lat="48.11921" lon="-3.30202">
        <ele>179.1</ele>
        <time>2024-11-20T09:56:33Z</time>
      </trkpt>
      <trkpt lat="48.1192" lon="-3.30204">
        <ele>179.1</ele>
        <time>2024-11-20T09:56:34Z</time>
      </trkpt>
      <trkpt lat="48.1192" lon="-3.30206">
        <ele>179.1</ele>
        <time>2024-11-20T09:56:35Z</time>
      </trkpt>
      <trkpt lat="48.1192" lon="-3.30208">
        <ele>179.1</ele>
        <time>2024-11-20T09:56:36Z</time>
      </trkpt>
      <trkpt lat="48.1192" lon="-3.30209">
        <ele>179.1</ele>
        <time>2024-11-20T09:56:37Z</time>
      </trkpt>
      <trkpt lat="48.1192" lon="-3.30211">
        <ele>179.1</ele>
        <time>2024-11-20T09:56:38Z</time>
      </trkpt>
      <trkpt lat="48.11919" lon="-3.30213">
        <ele>179.1</ele>
        <time>2024-11-20T09:56:39Z</time>
      </trkpt>
      <trkpt lat="48.11919" lon="-3.30214">
        <ele>179.1</ele>
        <time>2024-11-20T09:56:40Z</time>
      </trkpt>
      <trkpt lat="48.11919" lon="-3.30215">
        <ele>179.1</ele>
        <time>2024-11-20T09:56:41Z</time>
      </trkpt>
      <trkpt lat="48.11919" lon="-3.30217">
        <ele>179.1</ele>
        <time>2024-11-20T09:56:42Z</time>
      </trkpt>
      <trkpt lat="48.11918" lon="-3.30219">
        <ele>179.1</ele>
        <time>2024-11-20T09:56:43Z</time>
      </trkpt>
      <trkpt lat="48.11918" lon="-3.30221">
        <ele>179.1</ele>
        <time>2024-11-20T09:56:44Z</time>
      </trkpt>
      <trkpt lat="48.11918" lon="-3.30223">
        <ele>179</ele>
        <time>2024-11-20T09:56:45Z</time>
      </trkpt>
      <trkpt lat="48.11917" lon="-3.30225">
        <ele>179</ele>
        <time>2024-11-20T09:56:46Z</time>
      </trkpt>
      <trkpt lat="48.11917" lon="-3.30227">
        <ele>179</ele>
        <time>2024-11-20T09:56:47Z</time>
      </trkpt>
      <trkpt lat="48.11917" lon="-3.30229">
        <ele>179</ele>
        <time>2024-11-20T09:56:48Z</time>
      </trkpt>
      <trkpt lat="48.11917" lon="-3.3023">
        <ele>179</ele>
        <time>2024-11-20T09:56:49Z</time>
      </trkpt>
      <trkpt lat="48.11917" lon="-3.30232">
        <ele>179</ele>
        <time>2024-11-20T09:56:50Z</time>
      </trkpt>
      <trkpt lat="48.11916" lon="-3.30233">
        <ele>179</ele>
        <time>2024-11-20T09:56:51Z</time>
      </trkpt>
      <trkpt lat="48.11916" lon="-3.30234">
        <ele>179</ele>
        <time>2024-11-20T09:56:52Z</time>
      </trkpt>
      <trkpt lat="48.11915" lon="-3.30235">
        <ele>179</ele>
        <time>2024-11-20T09:56:53Z</time>
      </trkpt>
      <trkpt lat="48.11915" lon="-3.30236">
        <ele>179</ele>
        <time>2024-11-20T09:56:54Z</time>
      </trkpt>
      <trkpt lat="48.11915" lon="-3.30237">
        <ele>179</ele>
        <time>2024-11-20T09:56:55Z</time>
      </trkpt>
      <trkpt lat="48.11915" lon="-3.30238">
        <ele>179</ele>
        <time>2024-11-20T09:56:56Z</time>
      </trkpt>
      <trkpt lat="48.11915" lon="-3.3024">
        <ele>179</ele>
        <time>2024-11-20T09:56:57Z</time>
      </trkpt>
      <trkpt lat="48.11915" lon="-3.30242">
        <ele>179</ele>
        <time>2024-11-20T09:56:58Z</time>
      </trkpt>
      <trkpt lat="48.11914" lon="-3.30243">
        <ele>179</ele>
        <time>2024-11-20T09:56:59Z</time>
      </trkpt>
      <trkpt lat="48.11914" lon="-3.30245">
        <ele>179</ele>
        <time>2024-11-20T09:57:00Z</time>
      </trkpt>
      <trkpt lat="48.11914" lon="-3.30247">
        <ele>179</ele>
        <time>2024-11-20T09:57:01Z</time>
      </trkpt>
      <trkpt lat="48.11914" lon="-3.30248">
        <ele>179</ele>
        <time>2024-11-20T09:57:02Z</time>
      </trkpt>
      <trkpt lat="48.11913" lon="-3.30249">
        <ele>179</ele>
        <time>2024-11-20T09:57:03Z</time>
      </trkpt>
      <trkpt lat="48.11914" lon="-3.30249">
        <ele>179</ele>
        <time>2024-11-20T09:57:04Z</time>
      </trkpt>
      <trkpt lat="48.11914" lon="-3.30249">
        <ele>179</ele>
        <time>2024-11-20T09:57:05Z</time>
      </trkpt>
      <trkpt lat="48.11914" lon="-3.30249">
        <ele>179</ele>
        <time>2024-11-20T09:57:06Z</time>
      </trkpt>
      <trkpt lat="48.11914" lon="-3.30249">
        <ele>179</ele>
        <time>2024-11-20T09:57:07Z</time>
      </trkpt>
      <trkpt lat="48.11914" lon="-3.30249">
        <ele>179</ele>
        <time>2024-11-20T09:57:08Z</time>
      </trkpt>
      <trkpt lat="48.11914" lon="-3.30249">
        <ele>179</ele>
        <time>2024-11-20T09:57:09Z</time>
      </trkpt>
      <trkpt lat="48.11913" lon="-3.30249">
        <ele>179</ele>
        <time>2024-11-20T09:57:10Z</time>
      </trkpt>
      <trkpt lat="48.11913" lon="-3.30249">
        <ele>179</ele>
        <time>2024-11-20T09:57:11Z</time>
      </trkpt>
      <trkpt lat="48.11913" lon="-3.30249">
        <ele>179</ele>
        <time>2024-11-20T09:57:12Z</time>
      </trkpt>
      <trkpt lat="48.11913" lon="-3.30249">
        <ele>179</ele>
        <time>2024-11-20T09:57:13Z</time>
      </trkpt>
      <trkpt lat="48.11913" lon="-3.30249">
        <ele>179</ele>
        <time>2024-11-20T09:57:14Z</time>
      </trkpt>
      <trkpt lat="48.11913" lon="-3.3025">
        <ele>179</ele>
        <time>2024-11-20T09:57:15Z</time>
      </trkpt>
      <trkpt lat="48.11913" lon="-3.3025">
        <ele>179</ele>
        <time>2024-11-20T09:57:16Z</time>
      </trkpt>
      <trkpt lat="48.11913" lon="-3.3025">
        <ele>179</ele>
        <time>2024-11-20T09:57:17Z</time>
      </trkpt>
      <trkpt lat="48.11913" lon="-3.3025">
        <ele>179</ele>
        <time>2024-11-20T09:57:18Z</time>
      </trkpt>
      <trkpt lat="48.11913" lon="-3.3025">
        <ele>179</ele>
        <time>2024-11-20T09:57:19Z</time>
      </trkpt>
      <trkpt lat="48.11913" lon="-3.3025">
        <ele>179</ele>
        <time>2024-11-20T09:57:20Z</time>
      </trkpt>
      <trkpt lat="48.11913" lon="-3.3025">
        <ele>179</ele>
        <time>2024-11-20T09:57:21Z</time>
      </trkpt>
      <trkpt lat="48.11913" lon="-3.3025">
        <ele>179</ele>
        <time>2024-11-20T09:57:22Z</time>
      </trkpt>
      <trkpt lat="48.11913" lon="-3.3025">
        <ele>179</ele>
        <time>2024-11-20T09:57:23Z</time>
      </trkpt>
      <trkpt lat="48.11913" lon="-3.3025">
        <ele>179</ele>
        <time>2024-11-20T09:57:24Z</time>
      </trkpt>
      <trkpt lat="48.11913" lon="-3.3025">
        <ele>179</ele>
        <time>2024-11-20T09:57:25Z</time>
      </trkpt>
      <trkpt lat="48.11913" lon="-3.3025">
        <ele>179</ele>
        <time>2024-11-20T09:57:26Z</time>
      </trkpt>
      <trkpt lat="48.11913" lon="-3.30251">
        <ele>179</ele>
        <time>2024-11-20T09:57:27Z</time>
      </trkpt>
      <trkpt lat="48.11913" lon="-3.30252">
        <ele>179</ele>
        <time>2024-11-20T09:57:28Z</time>
      </trkpt>
      <trkpt lat="48.11913" lon="-3.30253">
        <ele>179</ele>
        <time>2024-11-20T09:57:29Z</time>
      </trkpt>
      <trkpt lat="48.11913" lon="-3.30254">
        <ele>179</ele>
        <time>2024-11-20T09:57:30Z</time>
      </trkpt>
      <trkpt lat="48.11913" lon="-3.30255">
        <ele>179</ele>
        <time>2024-11-20T09:57:31Z</time>
      </trkpt>
      <trkpt lat="48.11914" lon="-3.30256">
        <ele>179</ele>
        <time>2024-11-20T09:57:32Z</time>
      </trkpt>
      <trkpt lat="48.11915" lon="-3.30256">
        <ele>179</ele>
        <time>2024-11-20T09:57:33Z</time>
      </trkpt>
      <trkpt lat="48.11915" lon="-3.30257">
        <ele>179</ele>
        <time>2024-11-20T09:57:34Z</time>
      </trkpt>
      <trkpt lat="48.11915" lon="-3.30257">
        <ele>179</ele>
        <time>2024-11-20T09:57:35Z</time>
      </trkpt>
      <trkpt lat="48.11915" lon="-3.30257">
        <ele>179</ele>
        <time>2024-11-20T09:57:36Z</time>
      </trkpt>
      <trkpt lat="48.11916" lon="-3.30257">
        <ele>179</ele>
        <time>2024-11-20T09:57:37Z</time>
      </trkpt>
      <trkpt lat="48.11916" lon="-3.30257">
        <ele>179</ele>
        <time>2024-11-20T09:57:38Z</time>
      </trkpt>
      <trkpt lat="48.11917" lon="-3.30258">
        <ele>179</ele>
        <time>2024-11-20T09:57:39Z</time>
      </trkpt>
      <trkpt lat="48.11917" lon="-3.30258">
        <ele>179</ele>
        <time>2024-11-20T09:57:40Z</time>
      </trkpt>
      <trkpt lat="48.11917" lon="-3.30259">
        <ele>179</ele>
        <time>2024-11-20T09:57:41Z</time>
      </trkpt>
      <trkpt lat="48.11918" lon="-3.30259">
        <ele>179</ele>
        <time>2024-11-20T09:57:42Z</time>
      </trkpt>
      <trkpt lat="48.11919" lon="-3.3026">
        <ele>179.1</ele>
        <time>2024-11-20T09:57:43Z</time>
      </trkpt>
      <trkpt lat="48.1192" lon="-3.30261">
        <ele>179.1</ele>
        <time>2024-11-20T09:57:44Z</time>
      </trkpt>
      <trkpt lat="48.11921" lon="-3.30262">
        <ele>179.2</ele>
        <time>2024-11-20T09:57:45Z</time>
      </trkpt>
      <trkpt lat="48.11922" lon="-3.30263">
        <ele>179.2</ele>
        <time>2024-11-20T09:57:46Z</time>
      </trkpt>
      <trkpt lat="48.11922" lon="-3.30264">
        <ele>179.2</ele>
        <time>2024-11-20T09:57:47Z</time>
      </trkpt>
      <trkpt lat="48.11923" lon="-3.30265">
        <ele>179.2</ele>
        <time>2024-11-20T09:57:48Z</time>
      </trkpt>
      <trkpt lat="48.11924" lon="-3.30265">
        <ele>179.3</ele>
        <time>2024-11-20T09:57:49Z</time>
      </trkpt>
      <trkpt lat="48.11925" lon="-3.30266">
        <ele>179.3</ele>
        <time>2024-11-20T09:57:50Z</time>
      </trkpt>
      <trkpt lat="48.11926" lon="-3.30267">
        <ele>179.3</ele>
        <time>2024-11-20T09:57:51Z</time>
      </trkpt>
      <trkpt lat="48.11927" lon="-3.30268">
        <ele>179.4</ele>
        <time>2024-11-20T09:57:52Z</time>
      </trkpt>
      <trkpt lat="48.11928" lon="-3.30269">
        <ele>179.4</ele>
        <time>2024-11-20T09:57:53Z</time>
      </trkpt>
      <trkpt lat="48.11929" lon="-3.30269">
        <ele>179.5</ele>
        <time>2024-11-20T09:57:54Z</time>
      </trkpt>
      <trkpt lat="48.11931" lon="-3.3027">
        <ele>179.5</ele>
        <time>2024-11-20T09:57:55Z</time>
      </trkpt>
      <trkpt lat="48.11932" lon="-3.3027">
        <ele>179.5</ele>
        <time>2024-11-20T09:57:56Z</time>
      </trkpt>
      <trkpt lat="48.11933" lon="-3.30271">
        <ele>179.6</ele>
        <time>2024-11-20T09:57:57Z</time>
      </trkpt>
      <trkpt lat="48.11934" lon="-3.30271">
        <ele>179.6</ele>
        <time>2024-11-20T09:57:58Z</time>
      </trkpt>
      <trkpt lat="48.11935" lon="-3.30272">
        <ele>179.7</ele>
        <time>2024-11-20T09:57:59Z</time>
      </trkpt>
      <trkpt lat="48.11936" lon="-3.30272">
        <ele>179.7</ele>
        <time>2024-11-20T09:58:00Z</time>
      </trkpt>
      <trkpt lat="48.11937" lon="-3.30273">
        <ele>179.7</ele>
        <time>2024-11-20T09:58:01Z</time>
      </trkpt>
      <trkpt lat="48.11938" lon="-3.30274">
        <ele>179.8</ele>
        <time>2024-11-20T09:58:02Z</time>
      </trkpt>
      <trkpt lat="48.11939" lon="-3.30275">
        <ele>179.8</ele>
        <time>2024-11-20T09:58:03Z</time>
      </trkpt>
      <trkpt lat="48.1194" lon="-3.30276">
        <ele>179.8</ele>
        <time>2024-11-20T09:58:04Z</time>
      </trkpt>
      <trkpt lat="48.11941" lon="-3.30277">
        <ele>179.9</ele>
        <time>2024-11-20T09:58:05Z</time>
      </trkpt>
      <trkpt lat="48.11942" lon="-3.30278">
        <ele>179.9</ele>
        <time>2024-11-20T09:58:06Z</time>
      </trkpt>
      <trkpt lat="48.11943" lon="-3.30279">
        <ele>179.9</ele>
        <time>2024-11-20T09:58:07Z</time>
      </trkpt>
      <trkpt lat="48.11944" lon="-3.30279">
        <ele>179.9</ele>
        <time>2024-11-20T09:58:08Z</time>
      </trkpt>
      <trkpt lat="48.11945" lon="-3.3028">
        <ele>179.9</ele>
        <time>2024-11-20T09:58:09Z</time>
      </trkpt>
      <trkpt lat="48.11946" lon="-3.30281">
        <ele>179.9</ele>
        <time>2024-11-20T09:58:10Z</time>
      </trkpt>
      <trkpt lat="48.11947" lon="-3.30282">
        <ele>179.9</ele>
        <time>2024-11-20T09:58:11Z</time>
      </trkpt>
      <trkpt lat="48.11948" lon="-3.30282">
        <ele>179.9</ele>
        <time>2024-11-20T09:58:12Z</time>
      </trkpt>
      <trkpt lat="48.11949" lon="-3.30283">
        <ele>179.8</ele>
        <time>2024-11-20T09:58:13Z</time>
      </trkpt>
      <trkpt lat="48.1195" lon="-3.30284">
        <ele>179.8</ele>
        <time>2024-11-20T09:58:14Z</time>
      </trkpt>
      <trkpt lat="48.11951" lon="-3.30285">
        <ele>179.8</ele>
        <time>2024-11-20T09:58:15Z</time>
      </trkpt>
      <trkpt lat="48.11952" lon="-3.30285">
        <ele>179.8</ele>
        <time>2024-11-20T09:58:16Z</time>
      </trkpt>
      <trkpt lat="48.11953" lon="-3.30286">
        <ele>179.8</ele>
        <time>2024-11-20T09:58:17Z</time>
      </trkpt>
      <trkpt lat="48.11954" lon="-3.30286">
        <ele>179.8</ele>
        <time>2024-11-20T09:58:18Z</time>
      </trkpt>
      <trkpt lat="48.11955" lon="-3.30287">
        <ele>179.8</ele>
        <time>2024-11-20T09:58:19Z</time>
      </trkpt>
      <trkpt lat="48.11956" lon="-3.30289">
        <ele>179.8</ele>
        <time>2024-11-20T09:58:20Z</time>
      </trkpt>
      <trkpt lat="48.11956" lon="-3.3029">
        <ele>179.7</ele>
        <time>2024-11-20T09:58:21Z</time>
      </trkpt>
      <trkpt lat="48.11957" lon="-3.30292">
        <ele>179.7</ele>
        <time>2024-11-20T09:58:22Z</time>
      </trkpt>
      <trkpt lat="48.11957" lon="-3.30293">
        <ele>179.7</ele>
        <time>2024-11-20T09:58:23Z</time>
      </trkpt>
      <trkpt lat="48.11958" lon="-3.30295">
        <ele>179.7</ele>
        <time>2024-11-20T09:58:24Z</time>
      </trkpt>
      <trkpt lat="48.11958" lon="-3.30296">
        <ele>179.7</ele>
        <time>2024-11-20T09:58:25Z</time>
      </trkpt>
      <trkpt lat="48.11958" lon="-3.30298">
        <ele>179.6</ele>
        <time>2024-11-20T09:58:26Z</time>
      </trkpt>
      <trkpt lat="48.11958" lon="-3.30299">
        <ele>179.6</ele>
        <time>2024-11-20T09:58:27Z</time>
      </trkpt>
      <trkpt lat="48.11958" lon="-3.30301">
        <ele>179.6</ele>
        <time>2024-11-20T09:58:28Z</time>
      </trkpt>
      <trkpt lat="48.11958" lon="-3.30302">
        <ele>179.6</ele>
        <time>2024-11-20T09:58:29Z</time>
      </trkpt>
      <trkpt lat="48.11958" lon="-3.30304">
        <ele>179.5</ele>
        <time>2024-11-20T09:58:30Z</time>
      </trkpt>
      <trkpt lat="48.11957" lon="-3.30306">
        <ele>179.5</ele>
        <time>2024-11-20T09:58:31Z</time>
      </trkpt>
      <trkpt lat="48.11957" lon="-3.30307">
        <ele>179.4</ele>
        <time>2024-11-20T09:58:32Z</time>
      </trkpt>
      <trkpt lat="48.11956" lon="-3.30309">
        <ele>179.4</ele>
        <time>2024-11-20T09:58:33Z</time>
      </trkpt>
      <trkpt lat="48.11956" lon="-3.3031">
        <ele>179.3</ele>
        <time>2024-11-20T09:58:34Z</time>
      </trkpt>
      <trkpt lat="48.11956" lon="-3.30312">
        <ele>179.3</ele>
        <time>2024-11-20T09:58:35Z</time>
      </trkpt>
      <trkpt lat="48.11956" lon="-3.30314">
        <ele>179.3</ele>
        <time>2024-11-20T09:58:36Z</time>
      </trkpt>
      <trkpt lat="48.11955" lon="-3.30316">
        <ele>179.2</ele>
        <time>2024-11-20T09:58:37Z</time>
      </trkpt>
      <trkpt lat="48.11955" lon="-3.30318">
        <ele>179.2</ele>
        <time>2024-11-20T09:58:38Z</time>
      </trkpt>
      <trkpt lat="48.11955" lon="-3.30319">
        <ele>179.2</ele>
        <time>2024-11-20T09:58:39Z</time>
      </trkpt>
      <trkpt lat="48.11955" lon="-3.30321">
        <ele>179.2</ele>
        <time>2024-11-20T09:58:40Z</time>
      </trkpt>
      <trkpt lat="48.11955" lon="-3.30322">
        <ele>179.2</ele>
        <time>2024-11-20T09:58:41Z</time>
      </trkpt>
      <trkpt lat="48.11955" lon="-3.30324">
        <ele>179.1</ele>
        <time>2024-11-20T09:58:42Z</time>
      </trkpt>
      <trkpt lat="48.11954" lon="-3.30327">
        <ele>179.1</ele>
        <time>2024-11-20T09:58:43Z</time>
      </trkpt>
      <trkpt lat="48.11954" lon="-3.30328">
        <ele>179.1</ele>
        <time>2024-11-20T09:58:44Z</time>
      </trkpt>
      <trkpt lat="48.11953" lon="-3.3033">
        <ele>179</ele>
        <time>2024-11-20T09:58:45Z</time>
      </trkpt>
      <trkpt lat="48.11953" lon="-3.30331">
        <ele>179</ele>
        <time>2024-11-20T09:58:46Z</time>
      </trkpt>
      <trkpt lat="48.11953" lon="-3.30333">
        <ele>179</ele>
        <time>2024-11-20T09:58:47Z</time>
      </trkpt>
      <trkpt lat="48.11952" lon="-3.30335">
        <ele>179</ele>
        <time>2024-11-20T09:58:48Z</time>
      </trkpt>
      <trkpt lat="48.11952" lon="-3.30337">
        <ele>179</ele>
        <time>2024-11-20T09:58:49Z</time>
      </trkpt>
      <trkpt lat="48.11951" lon="-3.30338">
        <ele>179</ele>
        <time>2024-11-20T09:58:50Z</time>
      </trkpt>
      <trkpt lat="48.11951" lon="-3.3034">
        <ele>179</ele>
        <time>2024-11-20T09:58:51Z</time>
      </trkpt>
      <trkpt lat="48.1195" lon="-3.30341">
        <ele>179</ele>
        <time>2024-11-20T09:58:52Z</time>
      </trkpt>
      <trkpt lat="48.1195" lon="-3.30343">
        <ele>179</ele>
        <time>2024-11-20T09:58:53Z</time>
      </trkpt>
      <trkpt lat="48.1195" lon="-3.30344">
        <ele>179</ele>
        <time>2024-11-20T09:58:54Z</time>
      </trkpt>
      <trkpt lat="48.1195" lon="-3.30346">
        <ele>179</ele>
        <time>2024-11-20T09:58:55Z</time>
      </trkpt>
      <trkpt lat="48.11949" lon="-3.30348">
        <ele>179</ele>
        <time>2024-11-20T09:58:56Z</time>
      </trkpt>
      <trkpt lat="48.11949" lon="-3.3035">
        <ele>179</ele>
        <time>2024-11-20T09:58:57Z</time>
      </trkpt>
      <trkpt lat="48.11949" lon="-3.30352">
        <ele>179</ele>
        <time>2024-11-20T09:58:58Z</time>
      </trkpt>
      <trkpt lat="48.11948" lon="-3.30353">
        <ele>179</ele>
        <time>2024-11-20T09:58:59Z</time>
      </trkpt>
      <trkpt lat="48.11948" lon="-3.30355">
        <ele>179</ele>
        <time>2024-11-20T09:59:00Z</time>
      </trkpt>
      <trkpt lat="48.11948" lon="-3.30357">
        <ele>179</ele>
        <time>2024-11-20T09:59:01Z</time>
      </trkpt>
      <trkpt lat="48.11948" lon="-3.30358">
        <ele>179</ele>
        <time>2024-11-20T09:59:02Z</time>
      </trkpt>
      <trkpt lat="48.11948" lon="-3.3036">
        <ele>179</ele>
        <time>2024-11-20T09:59:03Z</time>
      </trkpt>
      <trkpt lat="48.11948" lon="-3.30361">
        <ele>179</ele>
        <time>2024-11-20T09:59:04Z</time>
      </trkpt>
      <trkpt lat="48.11949" lon="-3.30362">
        <ele>179</ele>
        <time>2024-11-20T09:59:05Z</time>
      </trkpt>
      <trkpt lat="48.11949" lon="-3.30364">
        <ele>179</ele>
        <time>2024-11-20T09:59:06Z</time>
      </trkpt>
      <trkpt lat="48.11948" lon="-3.30366">
        <ele>179</ele>
        <time>2024-11-20T09:59:07Z</time>
      </trkpt>
      <trkpt lat="48.11948" lon="-3.30368">
        <ele>179</ele>
        <time>2024-11-20T09:59:08Z</time>
      </trkpt>
      <trkpt lat="48.11948" lon="-3.3037">
        <ele>179</ele>
        <time>2024-11-20T09:59:09Z</time>
      </trkpt>
      <trkpt lat="48.11948" lon="-3.30372">
        <ele>179</ele>
        <time>2024-11-20T09:59:10Z</time>
      </trkpt>
      <trkpt lat="48.11948" lon="-3.30374">
        <ele>179</ele>
        <time>2024-11-20T09:59:11Z</time>
      </trkpt>
      <trkpt lat="48.11948" lon="-3.30376">
        <ele>179</ele>
        <time>2024-11-20T09:59:12Z</time>
      </trkpt>
      <trkpt lat="48.11948" lon="-3.30377">
        <ele>179</ele>
        <time>2024-11-20T09:59:13Z</time>
      </trkpt>
      <trkpt lat="48.11947" lon="-3.30379">
        <ele>179</ele>
        <time>2024-11-20T09:59:14Z</time>
      </trkpt>
      <trkpt lat="48.11947" lon="-3.30381">
        <ele>179</ele>
        <time>2024-11-20T09:59:15Z</time>
      </trkpt>
      <trkpt lat="48.11947" lon="-3.30383">
        <ele>179</ele>
        <time>2024-11-20T09:59:16Z</time>
      </trkpt>
      <trkpt lat="48.11947" lon="-3.30385">
        <ele>179</ele>
        <time>2024-11-20T09:59:17Z</time>
      </trkpt>
      <trkpt lat="48.11946" lon="-3.30387">
        <ele>179</ele>
        <time>2024-11-20T09:59:18Z</time>
      </trkpt>
      <trkpt lat="48.11946" lon="-3.30389">
        <ele>179</ele>
        <time>2024-11-20T09:59:19Z</time>
      </trkpt>
      <trkpt lat="48.11946" lon="-3.30391">
        <ele>179</ele>
        <time>2024-11-20T09:59:20Z</time>
      </trkpt>
      <trkpt lat="48.11946" lon="-3.30393">
        <ele>179</ele>
        <time>2024-11-20T09:59:21Z</time>
      </trkpt>
      <trkpt lat="48.11946" lon="-3.30395">
        <ele>179</ele>
        <time>2024-11-20T09:59:22Z</time>
      </trkpt>
      <trkpt lat="48.11946" lon="-3.30397">
        <ele>179</ele>
        <time>2024-11-20T09:59:23Z</time>
      </trkpt>
      <trkpt lat="48.11945" lon="-3.30399">
        <ele>179</ele>
        <time>2024-11-20T09:59:24Z</time>
      </trkpt>
      <trkpt lat="48.11945" lon="-3.304">
        <ele>179</ele>
        <time>2024-11-20T09:59:25Z</time>
      </trkpt>
      <trkpt lat="48.11945" lon="-3.30402">
        <ele>179</ele>
        <time>2024-11-20T09:59:26Z</time>
      </trkpt>
      <trkpt lat="48.11945" lon="-3.30404">
        <ele>179</ele>
        <time>2024-11-20T09:59:27Z</time>
      </trkpt>
      <trkpt lat="48.11944" lon="-3.30406">
        <ele>179</ele>
        <time>2024-11-20T09:59:28Z</time>
      </trkpt>
      <trkpt lat="48.11944" lon="-3.30408">
        <ele>179</ele>
        <time>2024-11-20T09:59:29Z</time>
      </trkpt>
      <trkpt lat="48.11944" lon="-3.3041">
        <ele>179</ele>
        <time>2024-11-20T09:59:30Z</time>
      </trkpt>
      <trkpt lat="48.11944" lon="-3.30412">
        <ele>179</ele>
        <time>2024-11-20T09:59:31Z</time>
      </trkpt>
      <trkpt lat="48.11944" lon="-3.30414">
        <ele>179</ele>
        <time>2024-11-20T09:59:32Z</time>
      </trkpt>
      <trkpt lat="48.11944" lon="-3.30416">
        <ele>179</ele>
        <time>2024-11-20T09:59:33Z</time>
      </trkpt>
      <trkpt lat="48.11944" lon="-3.30417">
        <ele>179</ele>
        <time>2024-11-20T09:59:34Z</time>
      </trkpt>
      <trkpt lat="48.11944" lon="-3.30419">
        <ele>179</ele>
        <time>2024-11-20T09:59:35Z</time>
      </trkpt>
      <trkpt lat="48.11944" lon="-3.30421">
        <ele>179</ele>
        <time>2024-11-20T09:59:36Z</time>
      </trkpt>
      <trkpt lat="48.11944" lon="-3.30423">
        <ele>179</ele>
        <time>2024-11-20T09:59:37Z</time>
      </trkpt>
      <trkpt lat="48.11944" lon="-3.30424">
        <ele>179</ele>
        <time>2024-11-20T09:59:38Z</time>
      </trkpt>
      <trkpt lat="48.11944" lon="-3.30425">
        <ele>179</ele>
        <time>2024-11-20T09:59:39Z</time>
      </trkpt>
      <trkpt lat="48.11943" lon="-3.30427">
        <ele>179</ele>
        <time>2024-11-20T09:59:40Z</time>
      </trkpt>
      <trkpt lat="48.11943" lon="-3.30428">
        <ele>179</ele>
        <time>2024-11-20T09:59:41Z</time>
      </trkpt>
      <trkpt lat="48.11943" lon="-3.3043">
        <ele>179</ele>
        <time>2024-11-20T09:59:42Z</time>
      </trkpt>
      <trkpt lat="48.11943" lon="-3.30432">
        <ele>179</ele>
        <time>2024-11-20T09:59:43Z</time>
      </trkpt>
      <trkpt lat="48.11943" lon="-3.30434">
        <ele>179</ele>
        <time>2024-11-20T09:59:44Z</time>
      </trkpt>
      <trkpt lat="48.11943" lon="-3.30435">
        <ele>179</ele>
        <time>2024-11-20T09:59:45Z</time>
      </trkpt>
      <trkpt lat="48.11943" lon="-3.30437">
        <ele>179</ele>
        <time>2024-11-20T09:59:46Z</time>
      </trkpt>
      <trkpt lat="48.11942" lon="-3.30439">
        <ele>179</ele>
        <time>2024-11-20T09:59:47Z</time>
      </trkpt>
      <trkpt lat="48.11942" lon="-3.3044">
        <ele>179</ele>
        <time>2024-11-20T09:59:48Z</time>
      </trkpt>
      <trkpt lat="48.11942" lon="-3.30442">
        <ele>179</ele>
        <time>2024-11-20T09:59:49Z</time>
      </trkpt>
      <trkpt lat="48.11942" lon="-3.30444">
        <ele>179</ele>
        <time>2024-11-20T09:59:50Z</time>
      </trkpt>
      <trkpt lat="48.11942" lon="-3.30446">
        <ele>179</ele>
        <time>2024-11-20T09:59:51Z</time>
      </trkpt>
      <trkpt lat="48.11942" lon="-3.30447">
        <ele>179.1</ele>
        <time>2024-11-20T09:59:52Z</time>
      </trkpt>
      <trkpt lat="48.11942" lon="-3.30449">
        <ele>179.2</ele>
        <time>2024-11-20T09:59:53Z</time>
      </trkpt>
      <trkpt lat="48.11941" lon="-3.30451">
        <ele>179.2</ele>
        <time>2024-11-20T09:59:54Z</time>
      </trkpt>
      <trkpt lat="48.11941" lon="-3.30452">
        <ele>179.3</ele>
        <time>2024-11-20T09:59:55Z</time>
      </trkpt>
      <trkpt lat="48.11941" lon="-3.30454">
        <ele>179.4</ele>
        <time>2024-11-20T09:59:56Z</time>
      </trkpt>
      <trkpt lat="48.11941" lon="-3.30456">
        <ele>179.4</ele>
        <time>2024-11-20T09:59:57Z</time>
      </trkpt>
      <trkpt lat="48.11941" lon="-3.30458">
        <ele>179.5</ele>
        <time>2024-11-20T09:59:58Z</time>
      </trkpt>
      <trkpt lat="48.11941" lon="-3.30459">
        <ele>179.5</ele>
        <time>2024-11-20T09:59:59Z</time>
      </trkpt>
      <trkpt lat="48.11942" lon="-3.3046">
        <ele>179.6</ele>
        <time>2024-11-20T10:00:00Z</time>
      </trkpt>
      <trkpt lat="48.11942" lon="-3.30462">
        <ele>179.6</ele>
        <time>2024-11-20T10:00:01Z</time>
      </trkpt>
      <trkpt lat="48.11943" lon="-3.30463">
        <ele>179.7</ele>
        <time>2024-11-20T10:00:02Z</time>
      </trkpt>
      <trkpt lat="48.11943" lon="-3.30465">
        <ele>179.7</ele>
        <time>2024-11-20T10:00:03Z</time>
      </trkpt>
      <trkpt lat="48.11944" lon="-3.30467">
        <ele>179.8</ele>
        <time>2024-11-20T10:00:04Z</time>
      </trkpt>
      <trkpt lat="48.11944" lon="-3.30469">
        <ele>179.9</ele>
        <time>2024-11-20T10:00:05Z</time>
      </trkpt>
      <trkpt lat="48.11945" lon="-3.3047">
        <ele>179.9</ele>
        <time>2024-11-20T10:00:06Z</time>
      </trkpt>
      <trkpt lat="48.11945" lon="-3.30472">
        <ele>180</ele>
        <time>2024-11-20T10:00:07Z</time>
      </trkpt>
      <trkpt lat="48.11946" lon="-3.30473">
        <ele>180</ele>
        <time>2024-11-20T10:00:08Z</time>
      </trkpt>
      <trkpt lat="48.11947" lon="-3.30475">
        <ele>180.1</ele>
        <time>2024-11-20T10:00:09Z</time>
      </trkpt>
      <trkpt lat="48.11948" lon="-3.30476">
        <ele>180.1</ele>
        <time>2024-11-20T10:00:10Z</time>
      </trkpt>
      <trkpt lat="48.11948" lon="-3.30477">
        <ele>180.2</ele>
        <time>2024-11-20T10:00:11Z</time>
      </trkpt>
      <trkpt lat="48.11949" lon="-3.30479">
        <ele>180.2</ele>
        <time>2024-11-20T10:00:12Z</time>
      </trkpt>
      <trkpt lat="48.1195" lon="-3.3048">
        <ele>180.3</ele>
        <time>2024-11-20T10:00:13Z</time>
      </trkpt>
      <trkpt lat="48.11951" lon="-3.30482">
        <ele>180.3</ele>
        <time>2024-11-20T10:00:14Z</time>
      </trkpt>
      <trkpt lat="48.11952" lon="-3.30483">
        <ele>180.4</ele>
        <time>2024-11-20T10:00:15Z</time>
      </trkpt>
      <trkpt lat="48.11952" lon="-3.30484">
        <ele>180.4</ele>
        <time>2024-11-20T10:00:16Z</time>
      </trkpt>
      <trkpt lat="48.11953" lon="-3.30485">
        <ele>180.5</ele>
        <time>2024-11-20T10:00:17Z</time>
      </trkpt>
      <trkpt lat="48.11954" lon="-3.30487">
        <ele>180.5</ele>
        <time>2024-11-20T10:00:18Z</time>
      </trkpt>
      <trkpt lat="48.11955" lon="-3.30488">
        <ele>180.6</ele>
        <time>2024-11-20T10:00:19Z</time>
      </trkpt>
      <trkpt lat="48.11956" lon="-3.30488">
        <ele>180.6</ele>
        <time>2024-11-20T10:00:20Z</time>
      </trkpt>
      <trkpt lat="48.11957" lon="-3.30489">
        <ele>180.6</ele>
        <time>2024-11-20T10:00:21Z</time>
      </trkpt>
      <trkpt lat="48.11957" lon="-3.3049">
        <ele>180.6</ele>
        <time>2024-11-20T10:00:22Z</time>
      </trkpt>
      <trkpt lat="48.11958" lon="-3.30491">
        <ele>180.7</ele>
        <time>2024-11-20T10:00:23Z</time>
      </trkpt>
      <trkpt lat="48.11959" lon="-3.30492">
        <ele>180.7</ele>
        <time>2024-11-20T10:00:24Z</time>
      </trkpt>
      <trkpt lat="48.1196" lon="-3.30493">
        <ele>180.8</ele>
        <time>2024-11-20T10:00:25Z</time>
      </trkpt>
      <trkpt lat="48.11961" lon="-3.30494">
        <ele>180.8</ele>
        <time>2024-11-20T10:00:26Z</time>
      </trkpt>
      <trkpt lat="48.11961" lon="-3.30495">
        <ele>180.8</ele>
        <time>2024-11-20T10:00:27Z</time>
      </trkpt>
      <trkpt lat="48.11962" lon="-3.30496">
        <ele>180.8</ele>
        <time>2024-11-20T10:00:28Z</time>
      </trkpt>
      <trkpt lat="48.11963" lon="-3.30497">
        <ele>180.9</ele>
        <time>2024-11-20T10:00:29Z</time>
      </trkpt>
      <trkpt lat="48.11964" lon="-3.30499">
        <ele>180.9</ele>
        <time>2024-11-20T10:00:30Z</time>
      </trkpt>
      <trkpt lat="48.11965" lon="-3.305">
        <ele>181</ele>
        <time>2024-11-20T10:00:31Z</time>
      </trkpt>
      <trkpt lat="48.11966" lon="-3.30501">
        <ele>181</ele>
        <time>2024-11-20T10:00:32Z</time>
      </trkpt>
      <trkpt lat="48.11967" lon="-3.30502">
        <ele>181.1</ele>
        <time>2024-11-20T10:00:33Z</time>
      </trkpt>
      <trkpt lat="48.11967" lon="-3.30504">
        <ele>181.1</ele>
        <time>2024-11-20T10:00:34Z</time>
      </trkpt>
      <trkpt lat="48.11968" lon="-3.30505">
        <ele>181.1</ele>
        <time>2024-11-20T10:00:35Z</time>
      </trkpt>
      <trkpt lat="48.11968" lon="-3.30506">
        <ele>181.2</ele>
        <time>2024-11-20T10:00:36Z</time>
      </trkpt>
      <trkpt lat="48.11969" lon="-3.30507">
        <ele>181.2</ele>
        <time>2024-11-20T10:00:37Z</time>
      </trkpt>
      <trkpt lat="48.1197" lon="-3.30509">
        <ele>181.3</ele>
        <time>2024-11-20T10:00:38Z</time>
      </trkpt>
      <trkpt lat="48.11971" lon="-3.3051">
        <ele>181.3</ele>
        <time>2024-11-20T10:00:39Z</time>
      </trkpt>
      <trkpt lat="48.11971" lon="-3.30511">
        <ele>181.4</ele>
        <time>2024-11-20T10:00:40Z</time>
      </trkpt>
      <trkpt lat="48.11972" lon="-3.30513">
        <ele>181.4</ele>
        <time>2024-11-20T10:00:41Z</time>
      </trkpt>
      <trkpt lat="48.11973" lon="-3.30514">
        <ele>181.5</ele>
        <time>2024-11-20T10:00:42Z</time>
      </trkpt>
      <trkpt lat="48.11974" lon="-3.30515">
        <ele>181.5</ele>
        <time>2024-11-20T10:00:43Z</time>
      </trkpt>
      <trkpt lat="48.11975" lon="-3.30515">
        <ele>181.5</ele>
        <time>2024-11-20T10:00:44Z</time>
      </trkpt>
      <trkpt lat="48.11976" lon="-3.30516">
        <ele>181.5</ele>
        <time>2024-11-20T10:00:45Z</time>
      </trkpt>
      <trkpt lat="48.11977" lon="-3.30517">
        <ele>181.5</ele>
        <time>2024-11-20T10:00:46Z</time>
      </trkpt>
      <trkpt lat="48.11978" lon="-3.30518">
        <ele>181.5</ele>
        <time>2024-11-20T10:00:47Z</time>
      </trkpt>
      <trkpt lat="48.11978" lon="-3.30519">
        <ele>181.5</ele>
        <time>2024-11-20T10:00:48Z</time>
      </trkpt>
      <trkpt lat="48.11979" lon="-3.3052">
        <ele>181.6</ele>
        <time>2024-11-20T10:00:49Z</time>
      </trkpt>
      <trkpt lat="48.1198" lon="-3.30522">
        <ele>181.6</ele>
        <time>2024-11-20T10:00:50Z</time>
      </trkpt>
      <trkpt lat="48.1198" lon="-3.30524">
        <ele>181.6</ele>
        <time>2024-11-20T10:00:51Z</time>
      </trkpt>
      <trkpt lat="48.11981" lon="-3.30525">
        <ele>181.6</ele>
        <time>2024-11-20T10:00:52Z</time>
      </trkpt>
      <trkpt lat="48.11982" lon="-3.30526">
        <ele>181.6</ele>
        <time>2024-11-20T10:00:53Z</time>
      </trkpt>
      <trkpt lat="48.11982" lon="-3.30527">
        <ele>181.6</ele>
        <time>2024-11-20T10:00:54Z</time>
      </trkpt>
      <trkpt lat="48.11984" lon="-3.3053">
        <ele>181.6</ele>
        <time>2024-11-20T10:00:55Z</time>
      </trkpt>
      <trkpt lat="48.11984" lon="-3.30532">
        <ele>181.6</ele>
        <time>2024-11-20T10:00:56Z</time>
      </trkpt>
      <trkpt lat="48.11985" lon="-3.30534">
        <ele>181.6</ele>
        <time>2024-11-20T10:00:57Z</time>
      </trkpt>
      <trkpt lat="48.11986" lon="-3.30535">
        <ele>181.6</ele>
        <time>2024-11-20T10:00:58Z</time>
      </trkpt>
      <trkpt lat="48.11986" lon="-3.30536">
        <ele>181.7</ele>
        <time>2024-11-20T10:00:59Z</time>
      </trkpt>
      <trkpt lat="48.11987" lon="-3.30538">
        <ele>181.7</ele>
        <time>2024-11-20T10:01:00Z</time>
      </trkpt>
      <trkpt lat="48.11988" lon="-3.30539">
        <ele>181.7</ele>
        <time>2024-11-20T10:01:01Z</time>
      </trkpt>
      <trkpt lat="48.1199" lon="-3.3054">
        <ele>181.6</ele>
        <time>2024-11-20T10:01:02Z</time>
      </trkpt>
      <trkpt lat="48.11991" lon="-3.30541">
        <ele>181.7</ele>
        <time>2024-11-20T10:01:03Z</time>
      </trkpt>
      <trkpt lat="48.11992" lon="-3.30542">
        <ele>181.7</ele>
        <time>2024-11-20T10:01:04Z</time>
      </trkpt>
      <trkpt lat="48.11993" lon="-3.30543">
        <ele>181.7</ele>
        <time>2024-11-20T10:01:05Z</time>
      </trkpt>
      <trkpt lat="48.11993" lon="-3.30544">
        <ele>181.7</ele>
        <time>2024-11-20T10:01:06Z</time>
      </trkpt>
      <trkpt lat="48.11994" lon="-3.30545">
        <ele>181.7</ele>
        <time>2024-11-20T10:01:07Z</time>
      </trkpt>
      <trkpt lat="48.11995" lon="-3.30546">
        <ele>181.7</ele>
        <time>2024-11-20T10:01:08Z</time>
      </trkpt>
      <trkpt lat="48.11996" lon="-3.30547">
        <ele>181.8</ele>
        <time>2024-11-20T10:01:09Z</time>
      </trkpt>
      <trkpt lat="48.11996" lon="-3.30549">
        <ele>181.8</ele>
        <time>2024-11-20T10:01:10Z</time>
      </trkpt>
      <trkpt lat="48.11997" lon="-3.3055">
        <ele>181.8</ele>
        <time>2024-11-20T10:01:11Z</time>
      </trkpt>
      <trkpt lat="48.11998" lon="-3.30551">
        <ele>181.8</ele>
        <time>2024-11-20T10:01:12Z</time>
      </trkpt>
      <trkpt lat="48.11999" lon="-3.30552">
        <ele>181.9</ele>
        <time>2024-11-20T10:01:13Z</time>
      </trkpt>
      <trkpt lat="48.12" lon="-3.30554">
        <ele>181.9</ele>
        <time>2024-11-20T10:01:14Z</time>
      </trkpt>
      <trkpt lat="48.12" lon="-3.30555">
        <ele>182</ele>
        <time>2024-11-20T10:01:15Z</time>
      </trkpt>
      <trkpt lat="48.12001" lon="-3.30556">
        <ele>182</ele>
        <time>2024-11-20T10:01:16Z</time>
      </trkpt>
      <trkpt lat="48.12002" lon="-3.30557">
        <ele>182.1</ele>
        <time>2024-11-20T10:01:17Z</time>
      </trkpt>
      <trkpt lat="48.12003" lon="-3.30558">
        <ele>182.1</ele>
        <time>2024-11-20T10:01:18Z</time>
      </trkpt>
      <trkpt lat="48.12004" lon="-3.3056">
        <ele>182.1</ele>
        <time>2024-11-20T10:01:19Z</time>
      </trkpt>
      <trkpt lat="48.12005" lon="-3.3056">
        <ele>182.2</ele>
        <time>2024-11-20T10:01:20Z</time>
      </trkpt>
      <trkpt lat="48.12006" lon="-3.30561">
        <ele>182.2</ele>
        <time>2024-11-20T10:01:21Z</time>
      </trkpt>
      <trkpt lat="48.12007" lon="-3.30562">
        <ele>182.2</ele>
        <time>2024-11-20T10:01:22Z</time>
      </trkpt>
      <trkpt lat="48.12008" lon="-3.30563">
        <ele>182.3</ele>
        <time>2024-11-20T10:01:23Z</time>
      </trkpt>
      <trkpt lat="48.12009" lon="-3.30564">
        <ele>182.3</ele>
        <time>2024-11-20T10:01:24Z</time>
      </trkpt>
      <trkpt lat="48.12009" lon="-3.30566">
        <ele>182.4</ele>
        <time>2024-11-20T10:01:25Z</time>
      </trkpt>
      <trkpt lat="48.12011" lon="-3.30567">
        <ele>182.4</ele>
        <time>2024-11-20T10:01:26Z</time>
      </trkpt>
      <trkpt lat="48.12011" lon="-3.30568">
        <ele>182.4</ele>
        <time>2024-11-20T10:01:27Z</time>
      </trkpt>
      <trkpt lat="48.12012" lon="-3.30569">
        <ele>182.5</ele>
        <time>2024-11-20T10:01:28Z</time>
      </trkpt>
      <trkpt lat="48.12013" lon="-3.3057">
        <ele>182.5</ele>
        <time>2024-11-20T10:01:29Z</time>
      </trkpt>
      <trkpt lat="48.12014" lon="-3.30571">
        <ele>182.5</ele>
        <time>2024-11-20T10:01:30Z</time>
      </trkpt>
      <trkpt lat="48.12015" lon="-3.30572">
        <ele>182.6</ele>
        <time>2024-11-20T10:01:31Z</time>
      </trkpt>
      <trkpt lat="48.12016" lon="-3.30573">
        <ele>182.6</ele>
        <time>2024-11-20T10:01:32Z</time>
      </trkpt>
      <trkpt lat="48.12017" lon="-3.30575">
        <ele>182.7</ele>
        <time>2024-11-20T10:01:33Z</time>
      </trkpt>
      <trkpt lat="48.12017" lon="-3.30576">
        <ele>182.7</ele>
        <time>2024-11-20T10:01:34Z</time>
      </trkpt>
      <trkpt lat="48.12018" lon="-3.30577">
        <ele>182.8</ele>
        <time>2024-11-20T10:01:35Z</time>
      </trkpt>
      <trkpt lat="48.12019" lon="-3.30578">
        <ele>182.8</ele>
        <time>2024-11-20T10:01:36Z</time>
      </trkpt>
      <trkpt lat="48.1202" lon="-3.30579">
        <ele>182.8</ele>
        <time>2024-11-20T10:01:37Z</time>
      </trkpt>
      <trkpt lat="48.12022" lon="-3.3058">
        <ele>182.9</ele>
        <time>2024-11-20T10:01:38Z</time>
      </trkpt>
      <trkpt lat="48.12023" lon="-3.30581">
        <ele>182.9</ele>
        <time>2024-11-20T10:01:39Z</time>
      </trkpt>
      <trkpt lat="48.12024" lon="-3.30581">
        <ele>182.9</ele>
        <time>2024-11-20T10:01:40Z</time>
      </trkpt>
      <trkpt lat="48.12026" lon="-3.30582">
        <ele>183</ele>
        <time>2024-11-20T10:01:41Z</time>
      </trkpt>
      <trkpt lat="48.12026" lon="-3.30583">
        <ele>183</ele>
        <time>2024-11-20T10:01:42Z</time>
      </trkpt>
      <trkpt lat="48.12027" lon="-3.30584">
        <ele>183</ele>
        <time>2024-11-20T10:01:43Z</time>
      </trkpt>
      <trkpt lat="48.12028" lon="-3.30585">
        <ele>183</ele>
        <time>2024-11-20T10:01:44Z</time>
      </trkpt>
      <trkpt lat="48.1203" lon="-3.30586">
        <ele>183.1</ele>
        <time>2024-11-20T10:01:45Z</time>
      </trkpt>
      <trkpt lat="48.12031" lon="-3.30586">
        <ele>183.1</ele>
        <time>2024-11-20T10:01:46Z</time>
      </trkpt>
      <trkpt lat="48.12032" lon="-3.30586">
        <ele>183.1</ele>
        <time>2024-11-20T10:01:47Z</time>
      </trkpt>
      <trkpt lat="48.12033" lon="-3.30587">
        <ele>183.1</ele>
        <time>2024-11-20T10:01:48Z</time>
      </trkpt>
      <trkpt lat="48.12034" lon="-3.30587">
        <ele>183.2</ele>
        <time>2024-11-20T10:01:49Z</time>
      </trkpt>
      <trkpt lat="48.12035" lon="-3.30587">
        <ele>183.2</ele>
        <time>2024-11-20T10:01:50Z</time>
      </trkpt>
      <trkpt lat="48.12036" lon="-3.30588">
        <ele>183.2</ele>
        <time>2024-11-20T10:01:51Z</time>
      </trkpt>
      <trkpt lat="48.12037" lon="-3.30588">
        <ele>183.2</ele>
        <time>2024-11-20T10:01:52Z</time>
      </trkpt>
      <trkpt lat="48.12039" lon="-3.30589">
        <ele>183.3</ele>
        <time>2024-11-20T10:01:53Z</time>
      </trkpt>
      <trkpt lat="48.1204" lon="-3.30589">
        <ele>183.3</ele>
        <time>2024-11-20T10:01:54Z</time>
      </trkpt>
      <trkpt lat="48.12041" lon="-3.3059">
        <ele>183.3</ele>
        <time>2024-11-20T10:01:55Z</time>
      </trkpt>
      <trkpt lat="48.12042" lon="-3.3059">
        <ele>183.3</ele>
        <time>2024-11-20T10:01:56Z</time>
      </trkpt>
      <trkpt lat="48.12043" lon="-3.3059">
        <ele>183.4</ele>
        <time>2024-11-20T10:01:57Z</time>
      </trkpt>
      <trkpt lat="48.12044" lon="-3.3059">
        <ele>183.4</ele>
        <time>2024-11-20T10:01:58Z</time>
      </trkpt>
      <trkpt lat="48.12046" lon="-3.3059">
        <ele>183.4</ele>
        <time>2024-11-20T10:01:59Z</time>
      </trkpt>
      <trkpt lat="48.12047" lon="-3.3059">
        <ele>183.4</ele>
        <time>2024-11-20T10:02:00Z</time>
      </trkpt>
      <trkpt lat="48.12048" lon="-3.30591">
        <ele>183.5</ele>
        <time>2024-11-20T10:02:01Z</time>
      </trkpt>
      <trkpt lat="48.12049" lon="-3.30592">
        <ele>183.5</ele>
        <time>2024-11-20T10:02:02Z</time>
      </trkpt>
      <trkpt lat="48.1205" lon="-3.30592">
        <ele>183.6</ele>
        <time>2024-11-20T10:02:03Z</time>
      </trkpt>
      <trkpt lat="48.12051" lon="-3.30592">
        <ele>183.6</ele>
        <time>2024-11-20T10:02:04Z</time>
      </trkpt>
      <trkpt lat="48.12052" lon="-3.30593">
        <ele>183.6</ele>
        <time>2024-11-20T10:02:05Z</time>
      </trkpt>
      <trkpt lat="48.12053" lon="-3.30593">
        <ele>183.7</ele>
        <time>2024-11-20T10:02:06Z</time>
      </trkpt>
      <trkpt lat="48.12054" lon="-3.30594">
        <ele>183.7</ele>
        <time>2024-11-20T10:02:07Z</time>
      </trkpt>
      <trkpt lat="48.12055" lon="-3.30595">
        <ele>183.8</ele>
        <time>2024-11-20T10:02:08Z</time>
      </trkpt>
      <trkpt lat="48.12056" lon="-3.30595">
        <ele>183.9</ele>
        <time>2024-11-20T10:02:09Z</time>
      </trkpt>
      <trkpt lat="48.12057" lon="-3.30595">
        <ele>183.9</ele>
        <time>2024-11-20T10:02:10Z</time>
      </trkpt>
      <trkpt lat="48.12059" lon="-3.30596">
        <ele>184</ele>
        <time>2024-11-20T10:02:11Z</time>
      </trkpt>
      <trkpt lat="48.1206" lon="-3.30596">
        <ele>184.1</ele>
        <time>2024-11-20T10:02:12Z</time>
      </trkpt>
      <trkpt lat="48.12061" lon="-3.30596">
        <ele>184.2</ele>
        <time>2024-11-20T10:02:13Z</time>
      </trkpt>
      <trkpt lat="48.12063" lon="-3.30597">
        <ele>184.2</ele>
        <time>2024-11-20T10:02:14Z</time>
      </trkpt>
      <trkpt lat="48.12064" lon="-3.30597">
        <ele>184.3</ele>
        <time>2024-11-20T10:02:15Z</time>
      </trkpt>
      <trkpt lat="48.12065" lon="-3.30598">
        <ele>184.4</ele>
        <time>2024-11-20T10:02:16Z</time>
      </trkpt>
      <trkpt lat="48.12066" lon="-3.30598">
        <ele>184.5</ele>
        <time>2024-11-20T10:02:17Z</time>
      </trkpt>
      <trkpt lat="48.12067" lon="-3.30599">
        <ele>184.5</ele>
        <time>2024-11-20T10:02:18Z</time>
      </trkpt>
      <trkpt lat="48.12068" lon="-3.30599">
        <ele>184.6</ele>
        <time>2024-11-20T10:02:19Z</time>
      </trkpt>
      <trkpt lat="48.12069" lon="-3.30599">
        <ele>184.6</ele>
        <time>2024-11-20T10:02:20Z</time>
      </trkpt>
      <trkpt lat="48.12071" lon="-3.306">
        <ele>184.7</ele>
        <time>2024-11-20T10:02:21Z</time>
      </trkpt>
      <trkpt lat="48.12072" lon="-3.30601">
        <ele>184.8</ele>
        <time>2024-11-20T10:02:22Z</time>
      </trkpt>
      <trkpt lat="48.12073" lon="-3.30601">
        <ele>184.9</ele>
        <time>2024-11-20T10:02:23Z</time>
      </trkpt>
      <trkpt lat="48.12075" lon="-3.30601">
        <ele>185</ele>
        <time>2024-11-20T10:02:24Z</time>
      </trkpt>
      <trkpt lat="48.12076" lon="-3.30602">
        <ele>185</ele>
        <time>2024-11-20T10:02:25Z</time>
      </trkpt>
      <trkpt lat="48.12077" lon="-3.30602">
        <ele>185.1</ele>
        <time>2024-11-20T10:02:26Z</time>
      </trkpt>
      <trkpt lat="48.12078" lon="-3.30602">
        <ele>185.1</ele>
        <time>2024-11-20T10:02:27Z</time>
      </trkpt>
      <trkpt lat="48.1208" lon="-3.30602">
        <ele>185.2</ele>
        <time>2024-11-20T10:02:28Z</time>
      </trkpt>
      <trkpt lat="48.12081" lon="-3.30602">
        <ele>185.2</ele>
        <time>2024-11-20T10:02:29Z</time>
      </trkpt>
      <trkpt lat="48.12082" lon="-3.30602">
        <ele>185.3</ele>
        <time>2024-11-20T10:02:30Z</time>
      </trkpt>
      <trkpt lat="48.12083" lon="-3.30602">
        <ele>185.3</ele>
        <time>2024-11-20T10:02:31Z</time>
      </trkpt>
      <trkpt lat="48.12084" lon="-3.30602">
        <ele>185.4</ele>
        <time>2024-11-20T10:02:32Z</time>
      </trkpt>
      <trkpt lat="48.12085" lon="-3.30603">
        <ele>185.5</ele>
        <time>2024-11-20T10:02:33Z</time>
      </trkpt>
      <trkpt lat="48.12087" lon="-3.30603">
        <ele>185.5</ele>
        <time>2024-11-20T10:02:34Z</time>
      </trkpt>
      <trkpt lat="48.12088" lon="-3.30603">
        <ele>185.6</ele>
        <time>2024-11-20T10:02:35Z</time>
      </trkpt>
      <trkpt lat="48.12089" lon="-3.30602">
        <ele>185.6</ele>
        <time>2024-11-20T10:02:36Z</time>
      </trkpt>
      <trkpt lat="48.12091" lon="-3.30602">
        <ele>185.6</ele>
        <time>2024-11-20T10:02:37Z</time>
      </trkpt>
      <trkpt lat="48.12092" lon="-3.30603">
        <ele>185.7</ele>
        <time>2024-11-20T10:02:38Z</time>
      </trkpt>
      <trkpt lat="48.12093" lon="-3.30603">
        <ele>185.8</ele>
        <time>2024-11-20T10:02:39Z</time>
      </trkpt>
      <trkpt lat="48.12094" lon="-3.30603">
        <ele>185.8</ele>
        <time>2024-11-20T10:02:40Z</time>
      </trkpt>
      <trkpt lat="48.12096" lon="-3.30603">
        <ele>185.9</ele>
        <time>2024-11-20T10:02:41Z</time>
      </trkpt>
      <trkpt lat="48.12097" lon="-3.30603">
        <ele>185.9</ele>
        <time>2024-11-20T10:02:42Z</time>
      </trkpt>
      <trkpt lat="48.12098" lon="-3.30604">
        <ele>186</ele>
        <time>2024-11-20T10:02:43Z</time>
      </trkpt>
      <trkpt lat="48.12099" lon="-3.30604">
        <ele>186</ele>
        <time>2024-11-20T10:02:44Z</time>
      </trkpt>
      <trkpt lat="48.12101" lon="-3.30604">
        <ele>186.1</ele>
        <time>2024-11-20T10:02:45Z</time>
      </trkpt>
      <trkpt lat="48.12102" lon="-3.30604">
        <ele>186.1</ele>
        <time>2024-11-20T10:02:46Z</time>
      </trkpt>
      <trkpt lat="48.12103" lon="-3.30604">
        <ele>186.2</ele>
        <time>2024-11-20T10:02:47Z</time>
      </trkpt>
      <trkpt lat="48.12104" lon="-3.30604">
        <ele>186.3</ele>
        <time>2024-11-20T10:02:48Z</time>
      </trkpt>
      <trkpt lat="48.12105" lon="-3.30605">
        <ele>186.3</ele>
        <time>2024-11-20T10:02:49Z</time>
      </trkpt>
      <trkpt lat="48.12107" lon="-3.30605">
        <ele>186.4</ele>
        <time>2024-11-20T10:02:50Z</time>
      </trkpt>
      <trkpt lat="48.12108" lon="-3.30605">
        <ele>186.4</ele>
        <time>2024-11-20T10:02:51Z</time>
      </trkpt>
      <trkpt lat="48.12109" lon="-3.30605">
        <ele>186.5</ele>
        <time>2024-11-20T10:02:52Z</time>
      </trkpt>
      <trkpt lat="48.1211" lon="-3.30605">
        <ele>186.5</ele>
        <time>2024-11-20T10:02:53Z</time>
      </trkpt>
      <trkpt lat="48.12111" lon="-3.30605">
        <ele>186.6</ele>
        <time>2024-11-20T10:02:54Z</time>
      </trkpt>
      <trkpt lat="48.12112" lon="-3.30605">
        <ele>186.6</ele>
        <time>2024-11-20T10:02:55Z</time>
      </trkpt>
      <trkpt lat="48.12113" lon="-3.30606">
        <ele>186.7</ele>
        <time>2024-11-20T10:02:56Z</time>
      </trkpt>
      <trkpt lat="48.12114" lon="-3.30606">
        <ele>186.8</ele>
        <time>2024-11-20T10:02:57Z</time>
      </trkpt>
      <trkpt lat="48.12115" lon="-3.30607">
        <ele>186.9</ele>
        <time>2024-11-20T10:02:58Z</time>
      </trkpt>
      <trkpt lat="48.12116" lon="-3.30607">
        <ele>186.9</ele>
        <time>2024-11-20T10:02:59Z</time>
      </trkpt>
      <trkpt lat="48.12117" lon="-3.30608">
        <ele>187</ele>
        <time>2024-11-20T10:03:00Z</time>
      </trkpt>
      <trkpt lat="48.12118" lon="-3.30608">
        <ele>187.1</ele>
        <time>2024-11-20T10:03:01Z</time>
      </trkpt>
      <trkpt lat="48.12119" lon="-3.30609">
        <ele>187.1</ele>
        <time>2024-11-20T10:03:02Z</time>
      </trkpt>
      <trkpt lat="48.12121" lon="-3.30609">
        <ele>187.2</ele>
        <time>2024-11-20T10:03:03Z</time>
      </trkpt>
      <trkpt lat="48.12122" lon="-3.30609">
        <ele>187.3</ele>
        <time>2024-11-20T10:03:04Z</time>
      </trkpt>
      <trkpt lat="48.12123" lon="-3.3061">
        <ele>187.3</ele>
        <time>2024-11-20T10:03:05Z</time>
      </trkpt>
      <trkpt lat="48.12124" lon="-3.3061">
        <ele>187.4</ele>
        <time>2024-11-20T10:03:06Z</time>
      </trkpt>
      <trkpt lat="48.12125" lon="-3.30611">
        <ele>187.5</ele>
        <time>2024-11-20T10:03:07Z</time>
      </trkpt>
      <trkpt lat="48.12127" lon="-3.30611">
        <ele>187.5</ele>
        <time>2024-11-20T10:03:08Z</time>
      </trkpt>
      <trkpt lat="48.12128" lon="-3.30611">
        <ele>187.6</ele>
        <time>2024-11-20T10:03:09Z</time>
      </trkpt>
      <trkpt lat="48.12129" lon="-3.30611">
        <ele>187.7</ele>
        <time>2024-11-20T10:03:10Z</time>
      </trkpt>
      <trkpt lat="48.1213" lon="-3.30612">
        <ele>187.7</ele>
        <time>2024-11-20T10:03:11Z</time>
      </trkpt>
      <trkpt lat="48.12131" lon="-3.30611">
        <ele>187.7</ele>
        <time>2024-11-20T10:03:12Z</time>
      </trkpt>
      <trkpt lat="48.12132" lon="-3.30611">
        <ele>187.8</ele>
        <time>2024-11-20T10:03:13Z</time>
      </trkpt>
      <trkpt lat="48.12133" lon="-3.30611">
        <ele>187.8</ele>
        <time>2024-11-20T10:03:14Z</time>
      </trkpt>
      <trkpt lat="48.12134" lon="-3.30611">
        <ele>187.8</ele>
        <time>2024-11-20T10:03:15Z</time>
      </trkpt>
      <trkpt lat="48.12135" lon="-3.30611">
        <ele>187.9</ele>
        <time>2024-11-20T10:03:16Z</time>
      </trkpt>
      <trkpt lat="48.12136" lon="-3.30611">
        <ele>187.9</ele>
        <time>2024-11-20T10:03:17Z</time>
      </trkpt>
      <trkpt lat="48.12137" lon="-3.30611">
        <ele>188</ele>
        <time>2024-11-20T10:03:18Z</time>
      </trkpt>
      <trkpt lat="48.12139" lon="-3.30612">
        <ele>188</ele>
        <time>2024-11-20T10:03:19Z</time>
      </trkpt>
      <trkpt lat="48.1214" lon="-3.30612">
        <ele>188.1</ele>
        <time>2024-11-20T10:03:20Z</time>
      </trkpt>
      <trkpt lat="48.12141" lon="-3.30612">
        <ele>188.1</ele>
        <time>2024-11-20T10:03:21Z</time>
      </trkpt>
      <trkpt lat="48.12142" lon="-3.30612">
        <ele>188.1</ele>
        <time>2024-11-20T10:03:22Z</time>
      </trkpt>
      <trkpt lat="48.12144" lon="-3.30613">
        <ele>188.1</ele>
        <time>2024-11-20T10:03:23Z</time>
      </trkpt>
      <trkpt lat="48.12144" lon="-3.30613">
        <ele>188.1</ele>
        <time>2024-11-20T10:03:24Z</time>
      </trkpt>
      <trkpt lat="48.12145" lon="-3.30614">
        <ele>188.2</ele>
        <time>2024-11-20T10:03:25Z</time>
      </trkpt>
      <trkpt lat="48.12146" lon="-3.30614">
        <ele>188.2</ele>
        <time>2024-11-20T10:03:26Z</time>
      </trkpt>
      <trkpt lat="48.12147" lon="-3.30615">
        <ele>188.2</ele>
        <time>2024-11-20T10:03:27Z</time>
      </trkpt>
      <trkpt lat="48.12148" lon="-3.30615">
        <ele>188.2</ele>
        <time>2024-11-20T10:03:28Z</time>
      </trkpt>
      <trkpt lat="48.12149" lon="-3.30615">
        <ele>188.2</ele>
        <time>2024-11-20T10:03:29Z</time>
      </trkpt>
      <trkpt lat="48.1215" lon="-3.30616">
        <ele>188.3</ele>
        <time>2024-11-20T10:03:30Z</time>
      </trkpt>
      <trkpt lat="48.12151" lon="-3.30616">
        <ele>188.3</ele>
        <time>2024-11-20T10:03:31Z</time>
      </trkpt>
      <trkpt lat="48.12152" lon="-3.30616">
        <ele>188.3</ele>
        <time>2024-11-20T10:03:32Z</time>
      </trkpt>
      <trkpt lat="48.12153" lon="-3.30617">
        <ele>188.3</ele>
        <time>2024-11-20T10:03:33Z</time>
      </trkpt>
      <trkpt lat="48.12155" lon="-3.30618">
        <ele>188.3</ele>
        <time>2024-11-20T10:03:34Z</time>
      </trkpt>
      <trkpt lat="48.12156" lon="-3.30619">
        <ele>188.4</ele>
        <time>2024-11-20T10:03:35Z</time>
      </trkpt>
      <trkpt lat="48.12157" lon="-3.3062">
        <ele>188.4</ele>
        <time>2024-11-20T10:03:36Z</time>
      </trkpt>
      <trkpt lat="48.12158" lon="-3.30621">
        <ele>188.5</ele>
        <time>2024-11-20T10:03:37Z</time>
      </trkpt>
      <trkpt lat="48.12159" lon="-3.30622">
        <ele>188.5</ele>
        <time>2024-11-20T10:03:38Z</time>
      </trkpt>
      <trkpt lat="48.1216" lon="-3.30623">
        <ele>188.5</ele>
        <time>2024-11-20T10:03:39Z</time>
      </trkpt>
      <trkpt lat="48.12162" lon="-3.30623">
        <ele>188.5</ele>
        <time>2024-11-20T10:03:40Z</time>
      </trkpt>
      <trkpt lat="48.12163" lon="-3.30624">
        <ele>188.5</ele>
        <time>2024-11-20T10:03:41Z</time>
      </trkpt>
      <trkpt lat="48.12164" lon="-3.30625">
        <ele>188.5</ele>
        <time>2024-11-20T10:03:42Z</time>
      </trkpt>
      <trkpt lat="48.12165" lon="-3.30626">
        <ele>188.6</ele>
        <time>2024-11-20T10:03:43Z</time>
      </trkpt>
      <trkpt lat="48.12166" lon="-3.30627">
        <ele>188.6</ele>
        <time>2024-11-20T10:03:44Z</time>
      </trkpt>
      <trkpt lat="48.12168" lon="-3.30628">
        <ele>188.6</ele>
        <time>2024-11-20T10:03:45Z</time>
      </trkpt>
      <trkpt lat="48.12168" lon="-3.30629">
        <ele>188.6</ele>
        <time>2024-11-20T10:03:46Z</time>
      </trkpt>
      <trkpt lat="48.12169" lon="-3.30629">
        <ele>188.7</ele>
        <time>2024-11-20T10:03:47Z</time>
      </trkpt>
      <trkpt lat="48.1217" lon="-3.3063">
        <ele>188.7</ele>
        <time>2024-11-20T10:03:48Z</time>
      </trkpt>
      <trkpt lat="48.12171" lon="-3.30631">
        <ele>188.7</ele>
        <time>2024-11-20T10:03:49Z</time>
      </trkpt>
      <trkpt lat="48.12172" lon="-3.30632">
        <ele>188.7</ele>
        <time>2024-11-20T10:03:50Z</time>
      </trkpt>
      <trkpt lat="48.12173" lon="-3.30633">
        <ele>188.8</ele>
        <time>2024-11-20T10:03:51Z</time>
      </trkpt>
      <trkpt lat="48.12174" lon="-3.30634">
        <ele>188.8</ele>
        <time>2024-11-20T10:03:52Z</time>
      </trkpt>
      <trkpt lat="48.12175" lon="-3.30635">
        <ele>188.8</ele>
        <time>2024-11-20T10:03:53Z</time>
      </trkpt>
      <trkpt lat="48.12176" lon="-3.30635">
        <ele>188.9</ele>
        <time>2024-11-20T10:03:54Z</time>
      </trkpt>
      <trkpt lat="48.12177" lon="-3.30636">
        <ele>188.9</ele>
        <time>2024-11-20T10:03:55Z</time>
      </trkpt>
      <trkpt lat="48.12178" lon="-3.30637">
        <ele>188.9</ele>
        <time>2024-11-20T10:03:56Z</time>
      </trkpt>
      <trkpt lat="48.12179" lon="-3.30638">
        <ele>189</ele>
        <time>2024-11-20T10:03:57Z</time>
      </trkpt>
      <trkpt lat="48.1218" lon="-3.30639">
        <ele>189</ele>
        <time>2024-11-20T10:03:58Z</time>
      </trkpt>
      <trkpt lat="48.12181" lon="-3.3064">
        <ele>189.1</ele>
        <time>2024-11-20T10:03:59Z</time>
      </trkpt>
      <trkpt lat="48.12182" lon="-3.30641">
        <ele>189.2</ele>
        <time>2024-11-20T10:04:00Z</time>
      </trkpt>
      <trkpt lat="48.12183" lon="-3.30642">
        <ele>189.3</ele>
        <time>2024-11-20T10:04:01Z</time>
      </trkpt>
      <trkpt lat="48.12184" lon="-3.30643">
        <ele>189.4</ele>
        <time>2024-11-20T10:04:02Z</time>
      </trkpt>
      <trkpt lat="48.12185" lon="-3.30644">
        <ele>189.5</ele>
        <time>2024-11-20T10:04:03Z</time>
      </trkpt>
      <trkpt lat="48.12186" lon="-3.30645">
        <ele>189.6</ele>
        <time>2024-11-20T10:04:04Z</time>
      </trkpt>
      <trkpt lat="48.12187" lon="-3.30646">
        <ele>189.6</ele>
        <time>2024-11-20T10:04:05Z</time>
      </trkpt>
      <trkpt lat="48.12188" lon="-3.30647">
        <ele>189.7</ele>
        <time>2024-11-20T10:04:06Z</time>
      </trkpt>
      <trkpt lat="48.12189" lon="-3.30648">
        <ele>189.8</ele>
        <time>2024-11-20T10:04:07Z</time>
      </trkpt>
      <trkpt lat="48.1219" lon="-3.30648">
        <ele>189.8</ele>
        <time>2024-11-20T10:04:08Z</time>
      </trkpt>
      <trkpt lat="48.1219" lon="-3.30649">
        <ele>189.9</ele>
        <time>2024-11-20T10:04:09Z</time>
      </trkpt>
      <trkpt lat="48.12191" lon="-3.30651">
        <ele>189.9</ele>
        <time>2024-11-20T10:04:10Z</time>
      </trkpt>
      <trkpt lat="48.12192" lon="-3.30652">
        <ele>190</ele>
        <time>2024-11-20T10:04:11Z</time>
      </trkpt>
      <trkpt lat="48.12193" lon="-3.30653">
        <ele>190.1</ele>
        <time>2024-11-20T10:04:12Z</time>
      </trkpt>
      <trkpt lat="48.12194" lon="-3.30654">
        <ele>190.1</ele>
        <time>2024-11-20T10:04:13Z</time>
      </trkpt>
      <trkpt lat="48.12195" lon="-3.30655">
        <ele>190.2</ele>
        <time>2024-11-20T10:04:14Z</time>
      </trkpt>
      <trkpt lat="48.12195" lon="-3.30656">
        <ele>190.2</ele>
        <time>2024-11-20T10:04:15Z</time>
      </trkpt>
      <trkpt lat="48.12196" lon="-3.30657">
        <ele>190.3</ele>
        <time>2024-11-20T10:04:16Z</time>
      </trkpt>
      <trkpt lat="48.12197" lon="-3.30658">
        <ele>190.3</ele>
        <time>2024-11-20T10:04:17Z</time>
      </trkpt>
      <trkpt lat="48.12197" lon="-3.30658">
        <ele>190.3</ele>
        <time>2024-11-20T10:04:18Z</time>
      </trkpt>
      <trkpt lat="48.12198" lon="-3.30659">
        <ele>190.4</ele>
        <time>2024-11-20T10:04:19Z</time>
      </trkpt>
      <trkpt lat="48.12199" lon="-3.3066">
        <ele>190.4</ele>
        <time>2024-11-20T10:04:20Z</time>
      </trkpt>
      <trkpt lat="48.12199" lon="-3.30661">
        <ele>190.5</ele>
        <time>2024-11-20T10:04:21Z</time>
      </trkpt>
      <trkpt lat="48.122" lon="-3.30663">
        <ele>190.5</ele>
        <time>2024-11-20T10:04:22Z</time>
      </trkpt>
      <trkpt lat="48.12201" lon="-3.30664">
        <ele>190.6</ele>
        <time>2024-11-20T10:04:23Z</time>
      </trkpt>
      <trkpt lat="48.12202" lon="-3.30664">
        <ele>190.6</ele>
        <time>2024-11-20T10:04:24Z</time>
      </trkpt>
      <trkpt lat="48.12203" lon="-3.30665">
        <ele>190.6</ele>
        <time>2024-11-20T10:04:25Z</time>
      </trkpt>
      <trkpt lat="48.12204" lon="-3.30666">
        <ele>190.6</ele>
        <time>2024-11-20T10:04:26Z</time>
      </trkpt>
      <trkpt lat="48.12204" lon="-3.30668">
        <ele>190.7</ele>
        <time>2024-11-20T10:04:27Z</time>
      </trkpt>
      <trkpt lat="48.12205" lon="-3.30669">
        <ele>190.8</ele>
        <time>2024-11-20T10:04:28Z</time>
      </trkpt>
      <trkpt lat="48.12206" lon="-3.3067">
        <ele>190.9</ele>
        <time>2024-11-20T10:04:29Z</time>
      </trkpt>
      <trkpt lat="48.12207" lon="-3.30672">
        <ele>191</ele>
        <time>2024-11-20T10:04:30Z</time>
      </trkpt>
      <trkpt lat="48.12208" lon="-3.30673">
        <ele>191.1</ele>
        <time>2024-11-20T10:04:31Z</time>
      </trkpt>
      <trkpt lat="48.12209" lon="-3.30674">
        <ele>191.1</ele>
        <time>2024-11-20T10:04:32Z</time>
      </trkpt>
      <trkpt lat="48.1221" lon="-3.30675">
        <ele>191.2</ele>
        <time>2024-11-20T10:04:33Z</time>
      </trkpt>
      <trkpt lat="48.12211" lon="-3.30677">
        <ele>191.3</ele>
        <time>2024-11-20T10:04:34Z</time>
      </trkpt>
      <trkpt lat="48.12212" lon="-3.30678">
        <ele>191.3</ele>
        <time>2024-11-20T10:04:35Z</time>
      </trkpt>
      <trkpt lat="48.12213" lon="-3.30679">
        <ele>191.4</ele>
        <time>2024-11-20T10:04:36Z</time>
      </trkpt>
      <trkpt lat="48.12214" lon="-3.30681">
        <ele>191.4</ele>
        <time>2024-11-20T10:04:37Z</time>
      </trkpt>
      <trkpt lat="48.12215" lon="-3.30682">
        <ele>191.5</ele>
        <time>2024-11-20T10:04:38Z</time>
      </trkpt>
      <trkpt lat="48.12216" lon="-3.30683">
        <ele>191.5</ele>
        <time>2024-11-20T10:04:39Z</time>
      </trkpt>
      <trkpt lat="48.12217" lon="-3.30684">
        <ele>191.6</ele>
        <time>2024-11-20T10:04:40Z</time>
      </trkpt>
      <trkpt lat="48.12218" lon="-3.30686">
        <ele>191.7</ele>
        <time>2024-11-20T10:04:41Z</time>
      </trkpt>
      <trkpt lat="48.12219" lon="-3.30687">
        <ele>191.7</ele>
        <time>2024-11-20T10:04:42Z</time>
      </trkpt>
      <trkpt lat="48.1222" lon="-3.30688">
        <ele>191.7</ele>
        <time>2024-11-20T10:04:43Z</time>
      </trkpt>
      <trkpt lat="48.12221" lon="-3.30689">
        <ele>191.7</ele>
        <time>2024-11-20T10:04:44Z</time>
      </trkpt>
      <trkpt lat="48.12222" lon="-3.3069">
        <ele>191.7</ele>
        <time>2024-11-20T10:04:45Z</time>
      </trkpt>
      <trkpt lat="48.12223" lon="-3.30692">
        <ele>191.8</ele>
        <time>2024-11-20T10:04:46Z</time>
      </trkpt>
      <trkpt lat="48.12223" lon="-3.30693">
        <ele>191.9</ele>
        <time>2024-11-20T10:04:47Z</time>
      </trkpt>
      <trkpt lat="48.12224" lon="-3.30694">
        <ele>191.9</ele>
        <time>2024-11-20T10:04:48Z</time>
      </trkpt>
      <trkpt lat="48.12225" lon="-3.30695">
        <ele>192</ele>
        <time>2024-11-20T10:04:49Z</time>
      </trkpt>
      <trkpt lat="48.12225" lon="-3.30696">
        <ele>192.1</ele>
        <time>2024-11-20T10:04:50Z</time>
      </trkpt>
      <trkpt lat="48.12226" lon="-3.30697">
        <ele>192.2</ele>
        <time>2024-11-20T10:04:51Z</time>
      </trkpt>
      <trkpt lat="48.12227" lon="-3.30698">
        <ele>192.3</ele>
        <time>2024-11-20T10:04:52Z</time>
      </trkpt>
      <trkpt lat="48.12228" lon="-3.30699">
        <ele>192.3</ele>
        <time>2024-11-20T10:04:53Z</time>
      </trkpt>
      <trkpt lat="48.12228" lon="-3.307">
        <ele>192.4</ele>
        <time>2024-11-20T10:04:54Z</time>
      </trkpt>
      <trkpt lat="48.12229" lon="-3.30701">
        <ele>192.4</ele>
        <time>2024-11-20T10:04:55Z</time>
      </trkpt>
      <trkpt lat="48.1223" lon="-3.30702">
        <ele>192.5</ele>
        <time>2024-11-20T10:04:56Z</time>
      </trkpt>
      <trkpt lat="48.12231" lon="-3.30703">
        <ele>192.5</ele>
        <time>2024-11-20T10:04:57Z</time>
      </trkpt>
      <trkpt lat="48.12232" lon="-3.30704">
        <ele>192.6</ele>
        <time>2024-11-20T10:04:58Z</time>
      </trkpt>
      <trkpt lat="48.12233" lon="-3.30705">
        <ele>192.6</ele>
        <time>2024-11-20T10:04:59Z</time>
      </trkpt>
      <trkpt lat="48.12234" lon="-3.30706">
        <ele>192.7</ele>
        <time>2024-11-20T10:05:00Z</time>
      </trkpt>
      <trkpt lat="48.12235" lon="-3.30708">
        <ele>192.7</ele>
        <time>2024-11-20T10:05:01Z</time>
      </trkpt>
      <trkpt lat="48.12236" lon="-3.30709">
        <ele>192.8</ele>
        <time>2024-11-20T10:05:02Z</time>
      </trkpt>
      <trkpt lat="48.12237" lon="-3.30711">
        <ele>192.9</ele>
        <time>2024-11-20T10:05:03Z</time>
      </trkpt>
      <trkpt lat="48.12238" lon="-3.30712">
        <ele>192.9</ele>
        <time>2024-11-20T10:05:04Z</time>
      </trkpt>
      <trkpt lat="48.12238" lon="-3.30713">
        <ele>193</ele>
        <time>2024-11-20T10:05:05Z</time>
      </trkpt>
      <trkpt lat="48.12239" lon="-3.30715">
        <ele>193</ele>
        <time>2024-11-20T10:05:06Z</time>
      </trkpt>
      <trkpt lat="48.1224" lon="-3.30717">
        <ele>193.1</ele>
        <time>2024-11-20T10:05:07Z</time>
      </trkpt>
      <trkpt lat="48.12241" lon="-3.30718">
        <ele>193.1</ele>
        <time>2024-11-20T10:05:08Z</time>
      </trkpt>
      <trkpt lat="48.12242" lon="-3.30719">
        <ele>193.1</ele>
        <time>2024-11-20T10:05:09Z</time>
      </trkpt>
      <trkpt lat="48.12243" lon="-3.3072">
        <ele>193.1</ele>
        <time>2024-11-20T10:05:10Z</time>
      </trkpt>
      <trkpt lat="48.12244" lon="-3.30721">
        <ele>193.1</ele>
        <time>2024-11-20T10:05:11Z</time>
      </trkpt>
      <trkpt lat="48.12244" lon="-3.30721">
        <ele>193.2</ele>
        <time>2024-11-20T10:05:12Z</time>
      </trkpt>
      <trkpt lat="48.12245" lon="-3.30723">
        <ele>193.2</ele>
        <time>2024-11-20T10:05:13Z</time>
      </trkpt>
      <trkpt lat="48.12246" lon="-3.30724">
        <ele>193.3</ele>
        <time>2024-11-20T10:05:14Z</time>
      </trkpt>
      <trkpt lat="48.12247" lon="-3.30725">
        <ele>193.4</ele>
        <time>2024-11-20T10:05:15Z</time>
      </trkpt>
      <trkpt lat="48.12247" lon="-3.30726">
        <ele>193.4</ele>
        <time>2024-11-20T10:05:16Z</time>
      </trkpt>
      <trkpt lat="48.12248" lon="-3.30727">
        <ele>193.4</ele>
        <time>2024-11-20T10:05:17Z</time>
      </trkpt>
      <trkpt lat="48.12249" lon="-3.30728">
        <ele>193.5</ele>
        <time>2024-11-20T10:05:18Z</time>
      </trkpt>
      <trkpt lat="48.12249" lon="-3.30728">
        <ele>193.5</ele>
        <time>2024-11-20T10:05:19Z</time>
      </trkpt>
      <trkpt lat="48.12251" lon="-3.30729">
        <ele>193.5</ele>
        <time>2024-11-20T10:05:20Z</time>
      </trkpt>
      <trkpt lat="48.12252" lon="-3.30729">
        <ele>193.5</ele>
        <time>2024-11-20T10:05:21Z</time>
      </trkpt>
      <trkpt lat="48.12253" lon="-3.3073">
        <ele>193.6</ele>
        <time>2024-11-20T10:05:22Z</time>
      </trkpt>
      <trkpt lat="48.12254" lon="-3.30732">
        <ele>193.6</ele>
        <time>2024-11-20T10:05:23Z</time>
      </trkpt>
      <trkpt lat="48.12255" lon="-3.30733">
        <ele>193.7</ele>
        <time>2024-11-20T10:05:24Z</time>
      </trkpt>
      <trkpt lat="48.12256" lon="-3.30734">
        <ele>193.7</ele>
        <time>2024-11-20T10:05:25Z</time>
      </trkpt>
      <trkpt lat="48.12257" lon="-3.30735">
        <ele>193.8</ele>
        <time>2024-11-20T10:05:26Z</time>
      </trkpt>
      <trkpt lat="48.12258" lon="-3.30736">
        <ele>193.9</ele>
        <time>2024-11-20T10:05:27Z</time>
      </trkpt>
      <trkpt lat="48.12259" lon="-3.30738">
        <ele>193.9</ele>
        <time>2024-11-20T10:05:28Z</time>
      </trkpt>
      <trkpt lat="48.1226" lon="-3.3074">
        <ele>194</ele>
        <time>2024-11-20T10:05:29Z</time>
      </trkpt>
      <trkpt lat="48.12261" lon="-3.30741">
        <ele>194.1</ele>
        <time>2024-11-20T10:05:30Z</time>
      </trkpt>
      <trkpt lat="48.12263" lon="-3.30742">
        <ele>194.1</ele>
        <time>2024-11-20T10:05:31Z</time>
      </trkpt>
      <trkpt lat="48.12264" lon="-3.30743">
        <ele>194.1</ele>
        <time>2024-11-20T10:05:32Z</time>
      </trkpt>
      <trkpt lat="48.12265" lon="-3.30744">
        <ele>194.2</ele>
        <time>2024-11-20T10:05:33Z</time>
      </trkpt>
      <trkpt lat="48.12266" lon="-3.30746">
        <ele>194.2</ele>
        <time>2024-11-20T10:05:34Z</time>
      </trkpt>
      <trkpt lat="48.12267" lon="-3.30747">
        <ele>194.2</ele>
        <time>2024-11-20T10:05:35Z</time>
      </trkpt>
      <trkpt lat="48.12267" lon="-3.30748">
        <ele>194.3</ele>
        <time>2024-11-20T10:05:36Z</time>
      </trkpt>
      <trkpt lat="48.12268" lon="-3.3075">
        <ele>194.3</ele>
        <time>2024-11-20T10:05:37Z</time>
      </trkpt>
      <trkpt lat="48.12269" lon="-3.30751">
        <ele>194.4</ele>
        <time>2024-11-20T10:05:38Z</time>
      </trkpt>
      <trkpt lat="48.1227" lon="-3.30752">
        <ele>194.4</ele>
        <time>2024-11-20T10:05:39Z</time>
      </trkpt>
      <trkpt lat="48.12271" lon="-3.30753">
        <ele>194.5</ele>
        <time>2024-11-20T10:05:40Z</time>
      </trkpt>
      <trkpt lat="48.12272" lon="-3.30754">
        <ele>194.5</ele>
        <time>2024-11-20T10:05:41Z</time>
      </trkpt>
      <trkpt lat="48.12273" lon="-3.30755">
        <ele>194.6</ele>
        <time>2024-11-20T10:05:42Z</time>
      </trkpt>
      <trkpt lat="48.12275" lon="-3.30756">
        <ele>194.6</ele>
        <time>2024-11-20T10:05:43Z</time>
      </trkpt>
      <trkpt lat="48.12276" lon="-3.30757">
        <ele>194.6</ele>
        <time>2024-11-20T10:05:44Z</time>
      </trkpt>
      <trkpt lat="48.12278" lon="-3.30757">
        <ele>194.5</ele>
        <time>2024-11-20T10:05:45Z</time>
      </trkpt>
      <trkpt lat="48.12279" lon="-3.30758">
        <ele>194.5</ele>
        <time>2024-11-20T10:05:46Z</time>
      </trkpt>
      <trkpt lat="48.12279" lon="-3.30759">
        <ele>194.6</ele>
        <time>2024-11-20T10:05:47Z</time>
      </trkpt>
      <trkpt lat="48.1228" lon="-3.30759">
        <ele>194.6</ele>
        <time>2024-11-20T10:05:48Z</time>
      </trkpt>
      <trkpt lat="48.12281" lon="-3.3076">
        <ele>194.6</ele>
        <time>2024-11-20T10:05:49Z</time>
      </trkpt>
      <trkpt lat="48.12282" lon="-3.30762">
        <ele>194.7</ele>
        <time>2024-11-20T10:05:50Z</time>
      </trkpt>
      <trkpt lat="48.12282" lon="-3.30763">
        <ele>194.7</ele>
        <time>2024-11-20T10:05:51Z</time>
      </trkpt>
      <trkpt lat="48.12284" lon="-3.30765">
        <ele>194.7</ele>
        <time>2024-11-20T10:05:52Z</time>
      </trkpt>
      <trkpt lat="48.12285" lon="-3.30766">
        <ele>194.8</ele>
        <time>2024-11-20T10:05:53Z</time>
      </trkpt>
      <trkpt lat="48.12286" lon="-3.30767">
        <ele>194.8</ele>
        <time>2024-11-20T10:05:54Z</time>
      </trkpt>
      <trkpt lat="48.12287" lon="-3.30768">
        <ele>194.8</ele>
        <time>2024-11-20T10:05:55Z</time>
      </trkpt>
      <trkpt lat="48.12287" lon="-3.30769">
        <ele>194.8</ele>
        <time>2024-11-20T10:05:56Z</time>
      </trkpt>
      <trkpt lat="48.12288" lon="-3.30769">
        <ele>194.8</ele>
        <time>2024-11-20T10:05:57Z</time>
      </trkpt>
      <trkpt lat="48.12289" lon="-3.3077">
        <ele>194.7</ele>
        <time>2024-11-20T10:05:58Z</time>
      </trkpt>
      <trkpt lat="48.1229" lon="-3.3077">
        <ele>194.7</ele>
        <time>2024-11-20T10:05:59Z</time>
      </trkpt>
      <trkpt lat="48.12291" lon="-3.30771">
        <ele>194.7</ele>
        <time>2024-11-20T10:06:00Z</time>
      </trkpt>
      <trkpt lat="48.12292" lon="-3.30772">
        <ele>194.7</ele>
        <time>2024-11-20T10:06:01Z</time>
      </trkpt>
      <trkpt lat="48.12293" lon="-3.30773">
        <ele>194.7</ele>
        <time>2024-11-20T10:06:02Z</time>
      </trkpt>
      <trkpt lat="48.12294" lon="-3.30774">
        <ele>194.7</ele>
        <time>2024-11-20T10:06:03Z</time>
      </trkpt>
      <trkpt lat="48.12294" lon="-3.30774">
        <ele>194.6</ele>
        <time>2024-11-20T10:06:04Z</time>
      </trkpt>
      <trkpt lat="48.12295" lon="-3.30774">
        <ele>194.6</ele>
        <time>2024-11-20T10:06:05Z</time>
      </trkpt>
      <trkpt lat="48.12296" lon="-3.30774">
        <ele>194.5</ele>
        <time>2024-11-20T10:06:06Z</time>
      </trkpt>
      <trkpt lat="48.12297" lon="-3.30775">
        <ele>194.5</ele>
        <time>2024-11-20T10:06:07Z</time>
      </trkpt>
      <trkpt lat="48.12298" lon="-3.30776">
        <ele>194.5</ele>
        <time>2024-11-20T10:06:08Z</time>
      </trkpt>
      <trkpt lat="48.12299" lon="-3.30777">
        <ele>194.4</ele>
        <time>2024-11-20T10:06:09Z</time>
      </trkpt>
      <trkpt lat="48.123" lon="-3.30778">
        <ele>194.4</ele>
        <time>2024-11-20T10:06:10Z</time>
      </trkpt>
      <trkpt lat="48.12302" lon="-3.30779">
        <ele>194.3</ele>
        <time>2024-11-20T10:06:11Z</time>
      </trkpt>
      <trkpt lat="48.12303" lon="-3.3078">
        <ele>194.3</ele>
        <time>2024-11-20T10:06:12Z</time>
      </trkpt>
      <trkpt lat="48.12304" lon="-3.30781">
        <ele>194.2</ele>
        <time>2024-11-20T10:06:13Z</time>
      </trkpt>
      <trkpt lat="48.12305" lon="-3.30782">
        <ele>194.2</ele>
        <time>2024-11-20T10:06:14Z</time>
      </trkpt>
      <trkpt lat="48.12306" lon="-3.30784">
        <ele>194.2</ele>
        <time>2024-11-20T10:06:15Z</time>
      </trkpt>
      <trkpt lat="48.12307" lon="-3.30785">
        <ele>194.2</ele>
        <time>2024-11-20T10:06:16Z</time>
      </trkpt>
      <trkpt lat="48.12308" lon="-3.30786">
        <ele>194.2</ele>
        <time>2024-11-20T10:06:17Z</time>
      </trkpt>
      <trkpt lat="48.12309" lon="-3.30787">
        <ele>194.2</ele>
        <time>2024-11-20T10:06:18Z</time>
      </trkpt>
      <trkpt lat="48.12309" lon="-3.30789">
        <ele>194.3</ele>
        <time>2024-11-20T10:06:19Z</time>
      </trkpt>
      <trkpt lat="48.1231" lon="-3.30791">
        <ele>194.3</ele>
        <time>2024-11-20T10:06:20Z</time>
      </trkpt>
      <trkpt lat="48.12311" lon="-3.30792">
        <ele>194.3</ele>
        <time>2024-11-20T10:06:21Z</time>
      </trkpt>
      <trkpt lat="48.12312" lon="-3.30794">
        <ele>194.4</ele>
        <time>2024-11-20T10:06:22Z</time>
      </trkpt>
      <trkpt lat="48.12313" lon="-3.30796">
        <ele>194.4</ele>
        <time>2024-11-20T10:06:23Z</time>
      </trkpt>
      <trkpt lat="48.12314" lon="-3.30797">
        <ele>194.4</ele>
        <time>2024-11-20T10:06:24Z</time>
      </trkpt>
      <trkpt lat="48.12315" lon="-3.30799">
        <ele>194.4</ele>
        <time>2024-11-20T10:06:25Z</time>
      </trkpt>
      <trkpt lat="48.12316" lon="-3.308">
        <ele>194.4</ele>
        <time>2024-11-20T10:06:26Z</time>
      </trkpt>
      <trkpt lat="48.12317" lon="-3.30802">
        <ele>194.5</ele>
        <time>2024-11-20T10:06:27Z</time>
      </trkpt>
      <trkpt lat="48.12318" lon="-3.30804">
        <ele>194.5</ele>
        <time>2024-11-20T10:06:28Z</time>
      </trkpt>
      <trkpt lat="48.12319" lon="-3.30806">
        <ele>194.6</ele>
        <time>2024-11-20T10:06:29Z</time>
      </trkpt>
      <trkpt lat="48.1232" lon="-3.30808">
        <ele>194.7</ele>
        <time>2024-11-20T10:06:30Z</time>
      </trkpt>
      <trkpt lat="48.1232" lon="-3.30809">
        <ele>194.7</ele>
        <time>2024-11-20T10:06:31Z</time>
      </trkpt>
      <trkpt lat="48.12321" lon="-3.30811">
        <ele>194.8</ele>
        <time>2024-11-20T10:06:32Z</time>
      </trkpt>
      <trkpt lat="48.12322" lon="-3.30813">
        <ele>194.9</ele>
        <time>2024-11-20T10:06:33Z</time>
      </trkpt>
      <trkpt lat="48.12323" lon="-3.30815">
        <ele>195</ele>
        <time>2024-11-20T10:06:34Z</time>
      </trkpt>
      <trkpt lat="48.12324" lon="-3.30816">
        <ele>195.1</ele>
        <time>2024-11-20T10:06:35Z</time>
      </trkpt>
      <trkpt lat="48.12325" lon="-3.30817">
        <ele>195.1</ele>
        <time>2024-11-20T10:06:36Z</time>
      </trkpt>
      <trkpt lat="48.12327" lon="-3.30818">
        <ele>195.1</ele>
        <time>2024-11-20T10:06:37Z</time>
      </trkpt>
      <trkpt lat="48.12328" lon="-3.30819">
        <ele>195.1</ele>
        <time>2024-11-20T10:06:38Z</time>
      </trkpt>
      <trkpt lat="48.12329" lon="-3.3082">
        <ele>195.2</ele>
        <time>2024-11-20T10:06:39Z</time>
      </trkpt>
      <trkpt lat="48.1233" lon="-3.30821">
        <ele>195.2</ele>
        <time>2024-11-20T10:06:40Z</time>
      </trkpt>
      <trkpt lat="48.12331" lon="-3.30823">
        <ele>195.3</ele>
        <time>2024-11-20T10:06:41Z</time>
      </trkpt>
      <trkpt lat="48.12331" lon="-3.30824">
        <ele>195.4</ele>
        <time>2024-11-20T10:06:42Z</time>
      </trkpt>
      <trkpt lat="48.1233" lon="-3.30826">
        <ele>195.5</ele>
        <time>2024-11-20T10:06:43Z</time>
      </trkpt>
      <trkpt lat="48.1233" lon="-3.30827">
        <ele>195.7</ele>
        <time>2024-11-20T10:06:44Z</time>
      </trkpt>
      <trkpt lat="48.12329" lon="-3.30828">
        <ele>195.8</ele>
        <time>2024-11-20T10:06:45Z</time>
      </trkpt>
      <trkpt lat="48.12328" lon="-3.3083">
        <ele>195.9</ele>
        <time>2024-11-20T10:06:46Z</time>
      </trkpt>
      <trkpt lat="48.12327" lon="-3.30831">
        <ele>196</ele>
        <time>2024-11-20T10:06:47Z</time>
      </trkpt>
      <trkpt lat="48.12326" lon="-3.30832">
        <ele>196.2</ele>
        <time>2024-11-20T10:06:48Z</time>
      </trkpt>
      <trkpt lat="48.12325" lon="-3.30833">
        <ele>196.3</ele>
        <time>2024-11-20T10:06:49Z</time>
      </trkpt>
      <trkpt lat="48.12324" lon="-3.30834">
        <ele>196.4</ele>
        <time>2024-11-20T10:06:50Z</time>
      </trkpt>
      <trkpt lat="48.12323" lon="-3.30835">
        <ele>196.5</ele>
        <time>2024-11-20T10:06:51Z</time>
      </trkpt>
      <trkpt lat="48.12322" lon="-3.30836">
        <ele>196.5</ele>
        <time>2024-11-20T10:06:52Z</time>
      </trkpt>
      <trkpt lat="48.12321" lon="-3.30838">
        <ele>196.6</ele>
        <time>2024-11-20T10:06:53Z</time>
      </trkpt>
      <trkpt lat="48.12321" lon="-3.30839">
        <ele>196.7</ele>
        <time>2024-11-20T10:06:54Z</time>
      </trkpt>
      <trkpt lat="48.1232" lon="-3.3084">
        <ele>196.8</ele>
        <time>2024-11-20T10:06:55Z</time>
      </trkpt>
      <trkpt lat="48.12319" lon="-3.30841">
        <ele>196.9</ele>
        <time>2024-11-20T10:06:56Z</time>
      </trkpt>
      <trkpt lat="48.12319" lon="-3.30842">
        <ele>197</ele>
        <time>2024-11-20T10:06:57Z</time>
      </trkpt>
      <trkpt lat="48.12318" lon="-3.30843">
        <ele>197.1</ele>
        <time>2024-11-20T10:06:58Z</time>
      </trkpt>
      <trkpt lat="48.12317" lon="-3.30844">
        <ele>197.2</ele>
        <time>2024-11-20T10:06:59Z</time>
      </trkpt>
      <trkpt lat="48.12317" lon="-3.30844">
        <ele>197.2</ele>
        <time>2024-11-20T10:07:00Z</time>
      </trkpt>
      <trkpt lat="48.12317" lon="-3.30845">
        <ele>197.3</ele>
        <time>2024-11-20T10:07:01Z</time>
      </trkpt>
      <trkpt lat="48.12316" lon="-3.30846">
        <ele>197.3</ele>
        <time>2024-11-20T10:07:02Z</time>
      </trkpt>
      <trkpt lat="48.12316" lon="-3.30846">
        <ele>197.4</ele>
        <time>2024-11-20T10:07:03Z</time>
      </trkpt>
      <trkpt lat="48.12315" lon="-3.30847">
        <ele>197.5</ele>
        <time>2024-11-20T10:07:04Z</time>
      </trkpt>
      <trkpt lat="48.12315" lon="-3.30848">
        <ele>197.6</ele>
        <time>2024-11-20T10:07:05Z</time>
      </trkpt>
      <trkpt lat="48.12315" lon="-3.30849">
        <ele>197.6</ele>
        <time>2024-11-20T10:07:06Z</time>
      </trkpt>
      <trkpt lat="48.12314" lon="-3.3085">
        <ele>197.7</ele>
        <time>2024-11-20T10:07:07Z</time>
      </trkpt>
      <trkpt lat="48.12314" lon="-3.30851">
        <ele>197.8</ele>
        <time>2024-11-20T10:07:08Z</time>
      </trkpt>
      <trkpt lat="48.12313" lon="-3.30852">
        <ele>197.9</ele>
        <time>2024-11-20T10:07:09Z</time>
      </trkpt>
      <trkpt lat="48.12312" lon="-3.30853">
        <ele>198</ele>
        <time>2024-11-20T10:07:10Z</time>
      </trkpt>
      <trkpt lat="48.12311" lon="-3.30854">
        <ele>198.1</ele>
        <time>2024-11-20T10:07:11Z</time>
      </trkpt>
      <trkpt lat="48.1231" lon="-3.30856">
        <ele>198.3</ele>
        <time>2024-11-20T10:07:12Z</time>
      </trkpt>
      <trkpt lat="48.12309" lon="-3.30857">
        <ele>198.4</ele>
        <time>2024-11-20T10:07:13Z</time>
      </trkpt>
      <trkpt lat="48.12309" lon="-3.30858">
        <ele>198.6</ele>
        <time>2024-11-20T10:07:14Z</time>
      </trkpt>
      <trkpt lat="48.12308" lon="-3.30859">
        <ele>198.7</ele>
        <time>2024-11-20T10:07:15Z</time>
      </trkpt>
      <trkpt lat="48.12306" lon="-3.30861">
        <ele>198.9</ele>
        <time>2024-11-20T10:07:16Z</time>
      </trkpt>
      <trkpt lat="48.12305" lon="-3.30862">
        <ele>199.1</ele>
        <time>2024-11-20T10:07:17Z</time>
      </trkpt>
      <trkpt lat="48.12304" lon="-3.30864">
        <ele>199.2</ele>
        <time>2024-11-20T10:07:18Z</time>
      </trkpt>
      <trkpt lat="48.12303" lon="-3.30865">
        <ele>199.3</ele>
        <time>2024-11-20T10:07:19Z</time>
      </trkpt>
      <trkpt lat="48.12302" lon="-3.30866">
        <ele>199.4</ele>
        <time>2024-11-20T10:07:20Z</time>
      </trkpt>
      <trkpt lat="48.12302" lon="-3.30867">
        <ele>199.5</ele>
        <time>2024-11-20T10:07:21Z</time>
      </trkpt>
      <trkpt lat="48.12301" lon="-3.30868">
        <ele>199.6</ele>
        <time>2024-11-20T10:07:22Z</time>
      </trkpt>
      <trkpt lat="48.123" lon="-3.3087">
        <ele>199.8</ele>
        <time>2024-11-20T10:07:23Z</time>
      </trkpt>
      <trkpt lat="48.123" lon="-3.30871">
        <ele>199.8</ele>
        <time>2024-11-20T10:07:24Z</time>
      </trkpt>
      <trkpt lat="48.12299" lon="-3.30871">
        <ele>200</ele>
        <time>2024-11-20T10:07:25Z</time>
      </trkpt>
      <trkpt lat="48.12298" lon="-3.30872">
        <ele>200.1</ele>
        <time>2024-11-20T10:07:26Z</time>
      </trkpt>
      <trkpt lat="48.12297" lon="-3.30873">
        <ele>200.2</ele>
        <time>2024-11-20T10:07:27Z</time>
      </trkpt>
      <trkpt lat="48.12296" lon="-3.30874">
        <ele>200.3</ele>
        <time>2024-11-20T10:07:28Z</time>
      </trkpt>
      <trkpt lat="48.12295" lon="-3.30874">
        <ele>200.4</ele>
        <time>2024-11-20T10:07:29Z</time>
      </trkpt>
      <trkpt lat="48.12294" lon="-3.30875">
        <ele>200.5</ele>
        <time>2024-11-20T10:07:30Z</time>
      </trkpt>
      <trkpt lat="48.12294" lon="-3.30876">
        <ele>200.6</ele>
        <time>2024-11-20T10:07:31Z</time>
      </trkpt>
      <trkpt lat="48.12293" lon="-3.30876">
        <ele>200.7</ele>
        <time>2024-11-20T10:07:32Z</time>
      </trkpt>
      <trkpt lat="48.12293" lon="-3.30877">
        <ele>200.7</ele>
        <time>2024-11-20T10:07:33Z</time>
      </trkpt>
      <trkpt lat="48.12293" lon="-3.30877">
        <ele>200.8</ele>
        <time>2024-11-20T10:07:34Z</time>
      </trkpt>
      <trkpt lat="48.12293" lon="-3.30878">
        <ele>200.8</ele>
        <time>2024-11-20T10:07:35Z</time>
      </trkpt>
      <trkpt lat="48.12293" lon="-3.3088">
        <ele>200.9</ele>
        <time>2024-11-20T10:07:36Z</time>
      </trkpt>
      <trkpt lat="48.12294" lon="-3.30881">
        <ele>200.9</ele>
        <time>2024-11-20T10:07:37Z</time>
      </trkpt>
      <trkpt lat="48.12294" lon="-3.30882">
        <ele>200.9</ele>
        <time>2024-11-20T10:07:38Z</time>
      </trkpt>
      <trkpt lat="48.12294" lon="-3.30883">
        <ele>200.9</ele>
        <time>2024-11-20T10:07:39Z</time>
      </trkpt>
      <trkpt lat="48.12294" lon="-3.30884">
        <ele>200.9</ele>
        <time>2024-11-20T10:07:40Z</time>
      </trkpt>
      <trkpt lat="48.12294" lon="-3.30884">
        <ele>201</ele>
        <time>2024-11-20T10:07:41Z</time>
      </trkpt>
      <trkpt lat="48.12295" lon="-3.30885">
        <ele>200.9</ele>
        <time>2024-11-20T10:07:42Z</time>
      </trkpt>
      <trkpt lat="48.12296" lon="-3.30887">
        <ele>200.9</ele>
        <time>2024-11-20T10:07:43Z</time>
      </trkpt>
      <trkpt lat="48.12297" lon="-3.30888">
        <ele>200.9</ele>
        <time>2024-11-20T10:07:44Z</time>
      </trkpt>
      <trkpt lat="48.12298" lon="-3.30889">
        <ele>200.9</ele>
        <time>2024-11-20T10:07:45Z</time>
      </trkpt>
      <trkpt lat="48.12298" lon="-3.3089">
        <ele>200.9</ele>
        <time>2024-11-20T10:07:46Z</time>
      </trkpt>
      <trkpt lat="48.12298" lon="-3.30891">
        <ele>200.9</ele>
        <time>2024-11-20T10:07:47Z</time>
      </trkpt>
      <trkpt lat="48.12299" lon="-3.30892">
        <ele>201</ele>
        <time>2024-11-20T10:07:48Z</time>
      </trkpt>
      <trkpt lat="48.12299" lon="-3.30894">
        <ele>201</ele>
        <time>2024-11-20T10:07:49Z</time>
      </trkpt>
      <trkpt lat="48.12299" lon="-3.30895">
        <ele>201.1</ele>
        <time>2024-11-20T10:07:50Z</time>
      </trkpt>
      <trkpt lat="48.12299" lon="-3.30896">
        <ele>201.1</ele>
        <time>2024-11-20T10:07:51Z</time>
      </trkpt>
      <trkpt lat="48.123" lon="-3.30897">
        <ele>201.1</ele>
        <time>2024-11-20T10:07:52Z</time>
      </trkpt>
      <trkpt lat="48.12301" lon="-3.30898">
        <ele>201.1</ele>
        <time>2024-11-20T10:07:53Z</time>
      </trkpt>
      <trkpt lat="48.12302" lon="-3.30899">
        <ele>201</ele>
        <time>2024-11-20T10:07:54Z</time>
      </trkpt>
      <trkpt lat="48.12303" lon="-3.30899">
        <ele>201</ele>
        <time>2024-11-20T10:07:55Z</time>
      </trkpt>
      <trkpt lat="48.12304" lon="-3.30901">
        <ele>201</ele>
        <time>2024-11-20T10:07:56Z</time>
      </trkpt>
      <trkpt lat="48.12305" lon="-3.30902">
        <ele>201</ele>
        <time>2024-11-20T10:07:57Z</time>
      </trkpt>
      <trkpt lat="48.12306" lon="-3.30903">
        <ele>201</ele>
        <time>2024-11-20T10:07:58Z</time>
      </trkpt>
      <trkpt lat="48.12307" lon="-3.30904">
        <ele>201.1</ele>
        <time>2024-11-20T10:07:59Z</time>
      </trkpt>
      <trkpt lat="48.12308" lon="-3.30905">
        <ele>201.1</ele>
        <time>2024-11-20T10:08:00Z</time>
      </trkpt>
      <trkpt lat="48.12309" lon="-3.30906">
        <ele>201.1</ele>
        <time>2024-11-20T10:08:01Z</time>
      </trkpt>
      <trkpt lat="48.1231" lon="-3.30907">
        <ele>201.1</ele>
        <time>2024-11-20T10:08:02Z</time>
      </trkpt>
      <trkpt lat="48.1231" lon="-3.30908">
        <ele>201.2</ele>
        <time>2024-11-20T10:08:03Z</time>
      </trkpt>
      <trkpt lat="48.12311" lon="-3.30908">
        <ele>201.2</ele>
        <time>2024-11-20T10:08:04Z</time>
      </trkpt>
      <trkpt lat="48.12311" lon="-3.30909">
        <ele>201.2</ele>
        <time>2024-11-20T10:08:05Z</time>
      </trkpt>
      <trkpt lat="48.12312" lon="-3.3091">
        <ele>201.3</ele>
        <time>2024-11-20T10:08:06Z</time>
      </trkpt>
      <trkpt lat="48.12313" lon="-3.30911">
        <ele>201.3</ele>
        <time>2024-11-20T10:08:07Z</time>
      </trkpt>
      <trkpt lat="48.12313" lon="-3.30912">
        <ele>201.4</ele>
        <time>2024-11-20T10:08:08Z</time>
      </trkpt>
      <trkpt lat="48.12314" lon="-3.30913">
        <ele>201.5</ele>
        <time>2024-11-20T10:08:09Z</time>
      </trkpt>
      <trkpt lat="48.12314" lon="-3.30915">
        <ele>201.5</ele>
        <time>2024-11-20T10:08:10Z</time>
      </trkpt>
      <trkpt lat="48.12315" lon="-3.30916">
        <ele>201.6</ele>
        <time>2024-11-20T10:08:11Z</time>
      </trkpt>
      <trkpt lat="48.12316" lon="-3.30917">
        <ele>201.7</ele>
        <time>2024-11-20T10:08:12Z</time>
      </trkpt>
      <trkpt lat="48.12317" lon="-3.30918">
        <ele>201.7</ele>
        <time>2024-11-20T10:08:13Z</time>
      </trkpt>
      <trkpt lat="48.12318" lon="-3.30919">
        <ele>201.7</ele>
        <time>2024-11-20T10:08:14Z</time>
      </trkpt>
      <trkpt lat="48.12319" lon="-3.3092">
        <ele>201.7</ele>
        <time>2024-11-20T10:08:15Z</time>
      </trkpt>
      <trkpt lat="48.1232" lon="-3.30921">
        <ele>201.8</ele>
        <time>2024-11-20T10:08:16Z</time>
      </trkpt>
      <trkpt lat="48.12321" lon="-3.30921">
        <ele>201.8</ele>
        <time>2024-11-20T10:08:17Z</time>
      </trkpt>
      <trkpt lat="48.12321" lon="-3.30922">
        <ele>201.8</ele>
        <time>2024-11-20T10:08:18Z</time>
      </trkpt>
      <trkpt lat="48.12322" lon="-3.30923">
        <ele>201.8</ele>
        <time>2024-11-20T10:08:19Z</time>
      </trkpt>
      <trkpt lat="48.12323" lon="-3.30923">
        <ele>201.9</ele>
        <time>2024-11-20T10:08:20Z</time>
      </trkpt>
      <trkpt lat="48.12324" lon="-3.30924">
        <ele>201.9</ele>
        <time>2024-11-20T10:08:21Z</time>
      </trkpt>
      <trkpt lat="48.12325" lon="-3.30925">
        <ele>201.9</ele>
        <time>2024-11-20T10:08:22Z</time>
      </trkpt>
      <trkpt lat="48.12326" lon="-3.30926">
        <ele>202</ele>
        <time>2024-11-20T10:08:23Z</time>
      </trkpt>
      <trkpt lat="48.12327" lon="-3.30928">
        <ele>202.1</ele>
        <time>2024-11-20T10:08:24Z</time>
      </trkpt>
      <trkpt lat="48.12327" lon="-3.3093">
        <ele>202.2</ele>
        <time>2024-11-20T10:08:25Z</time>
      </trkpt>
      <trkpt lat="48.12328" lon="-3.30932">
        <ele>202.3</ele>
        <time>2024-11-20T10:08:26Z</time>
      </trkpt>
      <trkpt lat="48.12328" lon="-3.30934">
        <ele>202.4</ele>
        <time>2024-11-20T10:08:27Z</time>
      </trkpt>
      <trkpt lat="48.12328" lon="-3.30935">
        <ele>202.5</ele>
        <time>2024-11-20T10:08:28Z</time>
      </trkpt>
      <trkpt lat="48.12329" lon="-3.30937">
        <ele>202.6</ele>
        <time>2024-11-20T10:08:29Z</time>
      </trkpt>
      <trkpt lat="48.12329" lon="-3.30939">
        <ele>202.7</ele>
        <time>2024-11-20T10:08:30Z</time>
      </trkpt>
      <trkpt lat="48.1233" lon="-3.3094">
        <ele>202.8</ele>
        <time>2024-11-20T10:08:31Z</time>
      </trkpt>
      <trkpt lat="48.12331" lon="-3.30942">
        <ele>202.9</ele>
        <time>2024-11-20T10:08:32Z</time>
      </trkpt>
      <trkpt lat="48.12331" lon="-3.30943">
        <ele>203</ele>
        <time>2024-11-20T10:08:33Z</time>
      </trkpt>
      <trkpt lat="48.12332" lon="-3.30944">
        <ele>203</ele>
        <time>2024-11-20T10:08:34Z</time>
      </trkpt>
      <trkpt lat="48.12333" lon="-3.30946">
        <ele>203.1</ele>
        <time>2024-11-20T10:08:35Z</time>
      </trkpt>
      <trkpt lat="48.12333" lon="-3.30947">
        <ele>203.2</ele>
        <time>2024-11-20T10:08:36Z</time>
      </trkpt>
      <trkpt lat="48.12333" lon="-3.30948">
        <ele>203.3</ele>
        <time>2024-11-20T10:08:37Z</time>
      </trkpt>
      <trkpt lat="48.12333" lon="-3.30949">
        <ele>203.4</ele>
        <time>2024-11-20T10:08:38Z</time>
      </trkpt>
      <trkpt lat="48.12333" lon="-3.30951">
        <ele>203.5</ele>
        <time>2024-11-20T10:08:39Z</time>
      </trkpt>
      <trkpt lat="48.12333" lon="-3.30952">
        <ele>203.5</ele>
        <time>2024-11-20T10:08:40Z</time>
      </trkpt>
      <trkpt lat="48.12334" lon="-3.30953">
        <ele>203.6</ele>
        <time>2024-11-20T10:08:41Z</time>
      </trkpt>
      <trkpt lat="48.12334" lon="-3.30954">
        <ele>203.7</ele>
        <time>2024-11-20T10:08:42Z</time>
      </trkpt>
      <trkpt lat="48.12334" lon="-3.30955">
        <ele>203.8</ele>
        <time>2024-11-20T10:08:43Z</time>
      </trkpt>
      <trkpt lat="48.12334" lon="-3.30956">
        <ele>203.8</ele>
        <time>2024-11-20T10:08:44Z</time>
      </trkpt>
      <trkpt lat="48.12334" lon="-3.30958">
        <ele>203.9</ele>
        <time>2024-11-20T10:08:45Z</time>
      </trkpt>
      <trkpt lat="48.12334" lon="-3.30959">
        <ele>204</ele>
        <time>2024-11-20T10:08:46Z</time>
      </trkpt>
      <trkpt lat="48.12334" lon="-3.30961">
        <ele>204.2</ele>
        <time>2024-11-20T10:08:47Z</time>
      </trkpt>
      <trkpt lat="48.12334" lon="-3.30962">
        <ele>204.2</ele>
        <time>2024-11-20T10:08:48Z</time>
      </trkpt>
      <trkpt lat="48.12333" lon="-3.30963">
        <ele>204.3</ele>
        <time>2024-11-20T10:08:49Z</time>
      </trkpt>
      <trkpt lat="48.12333" lon="-3.30963">
        <ele>204.4</ele>
        <time>2024-11-20T10:08:50Z</time>
      </trkpt>
      <trkpt lat="48.12333" lon="-3.30964">
        <ele>204.4</ele>
        <time>2024-11-20T10:08:51Z</time>
      </trkpt>
      <trkpt lat="48.12333" lon="-3.30964">
        <ele>204.4</ele>
        <time>2024-11-20T10:08:52Z</time>
      </trkpt>
      <trkpt lat="48.12333" lon="-3.30965">
        <ele>204.5</ele>
        <time>2024-11-20T10:08:53Z</time>
      </trkpt>
      <trkpt lat="48.12334" lon="-3.30967">
        <ele>204.6</ele>
        <time>2024-11-20T10:08:54Z</time>
      </trkpt>
      <trkpt lat="48.12334" lon="-3.30968">
        <ele>204.7</ele>
        <time>2024-11-20T10:08:55Z</time>
      </trkpt>
      <trkpt lat="48.12334" lon="-3.3097">
        <ele>204.8</ele>
        <time>2024-11-20T10:08:56Z</time>
      </trkpt>
      <trkpt lat="48.12335" lon="-3.30971">
        <ele>204.8</ele>
        <time>2024-11-20T10:08:57Z</time>
      </trkpt>
      <trkpt lat="48.12335" lon="-3.30972">
        <ele>204.9</ele>
        <time>2024-11-20T10:08:58Z</time>
      </trkpt>
      <trkpt lat="48.12336" lon="-3.30973">
        <ele>204.9</ele>
        <time>2024-11-20T10:08:59Z</time>
      </trkpt>
      <trkpt lat="48.12336" lon="-3.30975">
        <ele>205</ele>
        <time>2024-11-20T10:09:00Z</time>
      </trkpt>
      <trkpt lat="48.12336" lon="-3.30977">
        <ele>205.1</ele>
        <time>2024-11-20T10:09:01Z</time>
      </trkpt>
      <trkpt lat="48.12336" lon="-3.30978">
        <ele>205.1</ele>
        <time>2024-11-20T10:09:02Z</time>
      </trkpt>
      <trkpt lat="48.12337" lon="-3.30979">
        <ele>205.2</ele>
        <time>2024-11-20T10:09:03Z</time>
      </trkpt>
      <trkpt lat="48.12337" lon="-3.3098">
        <ele>205.2</ele>
        <time>2024-11-20T10:09:04Z</time>
      </trkpt>
      <trkpt lat="48.12337" lon="-3.30982">
        <ele>205.3</ele>
        <time>2024-11-20T10:09:05Z</time>
      </trkpt>
      <trkpt lat="48.12337" lon="-3.30983">
        <ele>205.3</ele>
        <time>2024-11-20T10:09:06Z</time>
      </trkpt>
      <trkpt lat="48.12337" lon="-3.30985">
        <ele>205.4</ele>
        <time>2024-11-20T10:09:07Z</time>
      </trkpt>
      <trkpt lat="48.12338" lon="-3.30986">
        <ele>205.4</ele>
        <time>2024-11-20T10:09:08Z</time>
      </trkpt>
      <trkpt lat="48.12338" lon="-3.30988">
        <ele>205.5</ele>
        <time>2024-11-20T10:09:09Z</time>
      </trkpt>
      <trkpt lat="48.12338" lon="-3.30989">
        <ele>205.5</ele>
        <time>2024-11-20T10:09:10Z</time>
      </trkpt>
      <trkpt lat="48.12338" lon="-3.3099">
        <ele>205.6</ele>
        <time>2024-11-20T10:09:11Z</time>
      </trkpt>
      <trkpt lat="48.12338" lon="-3.30992">
        <ele>205.7</ele>
        <time>2024-11-20T10:09:12Z</time>
      </trkpt>
      <trkpt lat="48.12339" lon="-3.30994">
        <ele>205.7</ele>
        <time>2024-11-20T10:09:13Z</time>
      </trkpt>
      <trkpt lat="48.12339" lon="-3.30995">
        <ele>205.8</ele>
        <time>2024-11-20T10:09:14Z</time>
      </trkpt>
      <trkpt lat="48.1234" lon="-3.30997">
        <ele>205.8</ele>
        <time>2024-11-20T10:09:15Z</time>
      </trkpt>
      <trkpt lat="48.12341" lon="-3.30998">
        <ele>205.9</ele>
        <time>2024-11-20T10:09:16Z</time>
      </trkpt>
      <trkpt lat="48.12342" lon="-3.31">
        <ele>206</ele>
        <time>2024-11-20T10:09:17Z</time>
      </trkpt>
      <trkpt lat="48.12342" lon="-3.31001">
        <ele>206.1</ele>
        <time>2024-11-20T10:09:18Z</time>
      </trkpt>
      <trkpt lat="48.12343" lon="-3.31003">
        <ele>206.1</ele>
        <time>2024-11-20T10:09:19Z</time>
      </trkpt>
      <trkpt lat="48.12343" lon="-3.31005">
        <ele>206.2</ele>
        <time>2024-11-20T10:09:20Z</time>
      </trkpt>
      <trkpt lat="48.12343" lon="-3.31006">
        <ele>206.3</ele>
        <time>2024-11-20T10:09:21Z</time>
      </trkpt>
      <trkpt lat="48.12344" lon="-3.31008">
        <ele>206.4</ele>
        <time>2024-11-20T10:09:22Z</time>
      </trkpt>
      <trkpt lat="48.12344" lon="-3.3101">
        <ele>206.5</ele>
        <time>2024-11-20T10:09:23Z</time>
      </trkpt>
      <trkpt lat="48.12344" lon="-3.31012">
        <ele>206.6</ele>
        <time>2024-11-20T10:09:24Z</time>
      </trkpt>
      <trkpt lat="48.12344" lon="-3.31013">
        <ele>206.7</ele>
        <time>2024-11-20T10:09:25Z</time>
      </trkpt>
      <trkpt lat="48.12344" lon="-3.31015">
        <ele>206.7</ele>
        <time>2024-11-20T10:09:26Z</time>
      </trkpt>
      <trkpt lat="48.12345" lon="-3.31016">
        <ele>206.8</ele>
        <time>2024-11-20T10:09:27Z</time>
      </trkpt>
      <trkpt lat="48.12345" lon="-3.31018">
        <ele>206.9</ele>
        <time>2024-11-20T10:09:28Z</time>
      </trkpt>
      <trkpt lat="48.12345" lon="-3.31019">
        <ele>207</ele>
        <time>2024-11-20T10:09:29Z</time>
      </trkpt>
      <trkpt lat="48.12345" lon="-3.3102">
        <ele>207</ele>
        <time>2024-11-20T10:09:30Z</time>
      </trkpt>
      <trkpt lat="48.12346" lon="-3.31022">
        <ele>207.1</ele>
        <time>2024-11-20T10:09:31Z</time>
      </trkpt>
      <trkpt lat="48.12346" lon="-3.31024">
        <ele>207.2</ele>
        <time>2024-11-20T10:09:32Z</time>
      </trkpt>
      <trkpt lat="48.12346" lon="-3.31026">
        <ele>207.4</ele>
        <time>2024-11-20T10:09:33Z</time>
      </trkpt>
      <trkpt lat="48.12347" lon="-3.31028">
        <ele>207.5</ele>
        <time>2024-11-20T10:09:34Z</time>
      </trkpt>
      <trkpt lat="48.12347" lon="-3.31029">
        <ele>207.6</ele>
        <time>2024-11-20T10:09:35Z</time>
      </trkpt>
      <trkpt lat="48.12348" lon="-3.31031">
        <ele>207.6</ele>
        <time>2024-11-20T10:09:36Z</time>
      </trkpt>
      <trkpt lat="48.12348" lon="-3.31033">
        <ele>207.7</ele>
        <time>2024-11-20T10:09:37Z</time>
      </trkpt>
      <trkpt lat="48.12348" lon="-3.31035">
        <ele>207.8</ele>
        <time>2024-11-20T10:09:38Z</time>
      </trkpt>
      <trkpt lat="48.12349" lon="-3.31036">
        <ele>207.8</ele>
        <time>2024-11-20T10:09:39Z</time>
      </trkpt>
      <trkpt lat="48.12349" lon="-3.31037">
        <ele>207.9</ele>
        <time>2024-11-20T10:09:40Z</time>
      </trkpt>
      <trkpt lat="48.1235" lon="-3.31038">
        <ele>208</ele>
        <time>2024-11-20T10:09:41Z</time>
      </trkpt>
      <trkpt lat="48.12351" lon="-3.31039">
        <ele>208</ele>
        <time>2024-11-20T10:09:42Z</time>
      </trkpt>
      <trkpt lat="48.12352" lon="-3.3104">
        <ele>208.1</ele>
        <time>2024-11-20T10:09:43Z</time>
      </trkpt>
      <trkpt lat="48.12352" lon="-3.31041">
        <ele>208.2</ele>
        <time>2024-11-20T10:09:44Z</time>
      </trkpt>
      <trkpt lat="48.12352" lon="-3.31043">
        <ele>208.2</ele>
        <time>2024-11-20T10:09:45Z</time>
      </trkpt>
      <trkpt lat="48.12352" lon="-3.31045">
        <ele>208.3</ele>
        <time>2024-11-20T10:09:46Z</time>
      </trkpt>
      <trkpt lat="48.12353" lon="-3.31047">
        <ele>208.4</ele>
        <time>2024-11-20T10:09:47Z</time>
      </trkpt>
      <trkpt lat="48.12353" lon="-3.31049">
        <ele>208.5</ele>
        <time>2024-11-20T10:09:48Z</time>
      </trkpt>
      <trkpt lat="48.12353" lon="-3.3105">
        <ele>208.5</ele>
        <time>2024-11-20T10:09:49Z</time>
      </trkpt>
      <trkpt lat="48.12353" lon="-3.31052">
        <ele>208.6</ele>
        <time>2024-11-20T10:09:50Z</time>
      </trkpt>
      <trkpt lat="48.12353" lon="-3.31053">
        <ele>208.6</ele>
        <time>2024-11-20T10:09:51Z</time>
      </trkpt>
      <trkpt lat="48.12354" lon="-3.31054">
        <ele>208.7</ele>
        <time>2024-11-20T10:09:52Z</time>
      </trkpt>
      <trkpt lat="48.12354" lon="-3.31055">
        <ele>208.7</ele>
        <time>2024-11-20T10:09:53Z</time>
      </trkpt>
      <trkpt lat="48.12354" lon="-3.31057">
        <ele>208.7</ele>
        <time>2024-11-20T10:09:54Z</time>
      </trkpt>
      <trkpt lat="48.12354" lon="-3.31058">
        <ele>208.7</ele>
        <time>2024-11-20T10:09:55Z</time>
      </trkpt>
      <trkpt lat="48.12354" lon="-3.3106">
        <ele>208.8</ele>
        <time>2024-11-20T10:09:56Z</time>
      </trkpt>
      <trkpt lat="48.12355" lon="-3.31061">
        <ele>208.8</ele>
        <time>2024-11-20T10:09:57Z</time>
      </trkpt>
      <trkpt lat="48.12355" lon="-3.31063">
        <ele>208.8</ele>
        <time>2024-11-20T10:09:58Z</time>
      </trkpt>
      <trkpt lat="48.12356" lon="-3.31064">
        <ele>208.8</ele>
        <time>2024-11-20T10:09:59Z</time>
      </trkpt>
      <trkpt lat="48.12356" lon="-3.31064">
        <ele>208.8</ele>
        <time>2024-11-20T10:10:00Z</time>
      </trkpt>
      <trkpt lat="48.12357" lon="-3.31065">
        <ele>208.8</ele>
        <time>2024-11-20T10:10:01Z</time>
      </trkpt>
      <trkpt lat="48.12357" lon="-3.31067">
        <ele>208.9</ele>
        <time>2024-11-20T10:10:02Z</time>
      </trkpt>
      <trkpt lat="48.12358" lon="-3.31068">
        <ele>208.9</ele>
        <time>2024-11-20T10:10:03Z</time>
      </trkpt>
      <trkpt lat="48.12358" lon="-3.31069">
        <ele>208.9</ele>
        <time>2024-11-20T10:10:04Z</time>
      </trkpt>
      <trkpt lat="48.12358" lon="-3.3107">
        <ele>208.9</ele>
        <time>2024-11-20T10:10:05Z</time>
      </trkpt>
      <trkpt lat="48.12359" lon="-3.31071">
        <ele>208.9</ele>
        <time>2024-11-20T10:10:06Z</time>
      </trkpt>
      <trkpt lat="48.12359" lon="-3.31072">
        <ele>208.9</ele>
        <time>2024-11-20T10:10:07Z</time>
      </trkpt>
      <trkpt lat="48.12359" lon="-3.31073">
        <ele>208.9</ele>
        <time>2024-11-20T10:10:08Z</time>
      </trkpt>
      <trkpt lat="48.1236" lon="-3.31075">
        <ele>208.9</ele>
        <time>2024-11-20T10:10:09Z</time>
      </trkpt>
      <trkpt lat="48.1236" lon="-3.31077">
        <ele>209</ele>
        <time>2024-11-20T10:10:10Z</time>
      </trkpt>
      <trkpt lat="48.12361" lon="-3.31079">
        <ele>209</ele>
        <time>2024-11-20T10:10:11Z</time>
      </trkpt>
      <trkpt lat="48.12362" lon="-3.31082">
        <ele>209</ele>
        <time>2024-11-20T10:10:12Z</time>
      </trkpt>
      <trkpt lat="48.12362" lon="-3.31083">
        <ele>209</ele>
        <time>2024-11-20T10:10:13Z</time>
      </trkpt>
      <trkpt lat="48.12362" lon="-3.31085">
        <ele>209</ele>
        <time>2024-11-20T10:10:14Z</time>
      </trkpt>
      <trkpt lat="48.12362" lon="-3.31087">
        <ele>208.9</ele>
        <time>2024-11-20T10:10:15Z</time>
      </trkpt>
      <trkpt lat="48.12362" lon="-3.3109">
        <ele>208.8</ele>
        <time>2024-11-20T10:10:16Z</time>
      </trkpt>
      <trkpt lat="48.12362" lon="-3.31093">
        <ele>208.7</ele>
        <time>2024-11-20T10:10:17Z</time>
      </trkpt>
      <trkpt lat="48.12362" lon="-3.31095">
        <ele>208.6</ele>
        <time>2024-11-20T10:10:18Z</time>
      </trkpt>
      <trkpt lat="48.12362" lon="-3.31097">
        <ele>208.6</ele>
        <time>2024-11-20T10:10:19Z</time>
      </trkpt>
      <trkpt lat="48.12363" lon="-3.31099">
        <ele>208.5</ele>
        <time>2024-11-20T10:10:20Z</time>
      </trkpt>
      <trkpt lat="48.12363" lon="-3.311">
        <ele>208.5</ele>
        <time>2024-11-20T10:10:21Z</time>
      </trkpt>
      <trkpt lat="48.12363" lon="-3.31102">
        <ele>208.4</ele>
        <time>2024-11-20T10:10:22Z</time>
      </trkpt>
      <trkpt lat="48.12364" lon="-3.31104">
        <ele>208.3</ele>
        <time>2024-11-20T10:10:23Z</time>
      </trkpt>
      <trkpt lat="48.12364" lon="-3.31106">
        <ele>208.3</ele>
        <time>2024-11-20T10:10:24Z</time>
      </trkpt>
      <trkpt lat="48.12364" lon="-3.31108">
        <ele>208.2</ele>
        <time>2024-11-20T10:10:25Z</time>
      </trkpt>
      <trkpt lat="48.12365" lon="-3.31109">
        <ele>208.2</ele>
        <time>2024-11-20T10:10:26Z</time>
      </trkpt>
      <trkpt lat="48.12365" lon="-3.31111">
        <ele>208.2</ele>
        <time>2024-11-20T10:10:27Z</time>
      </trkpt>
      <trkpt lat="48.12366" lon="-3.31112">
        <ele>208.2</ele>
        <time>2024-11-20T10:10:28Z</time>
      </trkpt>
      <trkpt lat="48.12367" lon="-3.31112">
        <ele>208.2</ele>
        <time>2024-11-20T10:10:29Z</time>
      </trkpt>
      <trkpt lat="48.12368" lon="-3.31113">
        <ele>208.2</ele>
        <time>2024-11-20T10:10:30Z</time>
      </trkpt>
      <trkpt lat="48.12368" lon="-3.31114">
        <ele>208.2</ele>
        <time>2024-11-20T10:10:31Z</time>
      </trkpt>
      <trkpt lat="48.12368" lon="-3.31115">
        <ele>208.1</ele>
        <time>2024-11-20T10:10:32Z</time>
      </trkpt>
      <trkpt lat="48.12369" lon="-3.31117">
        <ele>208.1</ele>
        <time>2024-11-20T10:10:33Z</time>
      </trkpt>
      <trkpt lat="48.12369" lon="-3.31119">
        <ele>208</ele>
        <time>2024-11-20T10:10:34Z</time>
      </trkpt>
      <trkpt lat="48.12369" lon="-3.31121">
        <ele>207.9</ele>
        <time>2024-11-20T10:10:35Z</time>
      </trkpt>
      <trkpt lat="48.12369" lon="-3.31123">
        <ele>207.9</ele>
        <time>2024-11-20T10:10:36Z</time>
      </trkpt>
      <trkpt lat="48.12369" lon="-3.31124">
        <ele>207.8</ele>
        <time>2024-11-20T10:10:37Z</time>
      </trkpt>
      <trkpt lat="48.12369" lon="-3.31127">
        <ele>207.7</ele>
        <time>2024-11-20T10:10:38Z</time>
      </trkpt>
      <trkpt lat="48.12369" lon="-3.31129">
        <ele>207.6</ele>
        <time>2024-11-20T10:10:39Z</time>
      </trkpt>
      <trkpt lat="48.12369" lon="-3.31131">
        <ele>207.6</ele>
        <time>2024-11-20T10:10:40Z</time>
      </trkpt>
      <trkpt lat="48.12369" lon="-3.31133">
        <ele>207.5</ele>
        <time>2024-11-20T10:10:41Z</time>
      </trkpt>
      <trkpt lat="48.12369" lon="-3.31135">
        <ele>207.4</ele>
        <time>2024-11-20T10:10:42Z</time>
      </trkpt>
      <trkpt lat="48.12369" lon="-3.31137">
        <ele>207.4</ele>
        <time>2024-11-20T10:10:43Z</time>
      </trkpt>
      <trkpt lat="48.1237" lon="-3.31138">
        <ele>207.3</ele>
        <time>2024-11-20T10:10:44Z</time>
      </trkpt>
      <trkpt lat="48.1237" lon="-3.3114">
        <ele>207.3</ele>
        <time>2024-11-20T10:10:45Z</time>
      </trkpt>
      <trkpt lat="48.1237" lon="-3.31142">
        <ele>207.3</ele>
        <time>2024-11-20T10:10:46Z</time>
      </trkpt>
      <trkpt lat="48.1237" lon="-3.31143">
        <ele>207.3</ele>
        <time>2024-11-20T10:10:47Z</time>
      </trkpt>
      <trkpt lat="48.12371" lon="-3.31144">
        <ele>207.3</ele>
        <time>2024-11-20T10:10:48Z</time>
      </trkpt>
      <trkpt lat="48.1237" lon="-3.31145">
        <ele>207.3</ele>
        <time>2024-11-20T10:10:49Z</time>
      </trkpt>
      <trkpt lat="48.1237" lon="-3.31146">
        <ele>207.2</ele>
        <time>2024-11-20T10:10:50Z</time>
      </trkpt>
      <trkpt lat="48.1237" lon="-3.31148">
        <ele>207.2</ele>
        <time>2024-11-20T10:10:51Z</time>
      </trkpt>
      <trkpt lat="48.1237" lon="-3.31149">
        <ele>207.2</ele>
        <time>2024-11-20T10:10:52Z</time>
      </trkpt>
      <trkpt lat="48.1237" lon="-3.3115">
        <ele>207.2</ele>
        <time>2024-11-20T10:10:53Z</time>
      </trkpt>
      <trkpt lat="48.1237" lon="-3.31151">
        <ele>207.2</ele>
        <time>2024-11-20T10:10:54Z</time>
      </trkpt>
      <trkpt lat="48.1237" lon="-3.31152">
        <ele>207.2</ele>
        <time>2024-11-20T10:10:55Z</time>
      </trkpt>
      <trkpt lat="48.12371" lon="-3.31154">
        <ele>207.2</ele>
        <time>2024-11-20T10:10:56Z</time>
      </trkpt>
      <trkpt lat="48.12371" lon="-3.31156">
        <ele>207.1</ele>
        <time>2024-11-20T10:10:57Z</time>
      </trkpt>
      <trkpt lat="48.12371" lon="-3.31157">
        <ele>207.1</ele>
        <time>2024-11-20T10:10:58Z</time>
      </trkpt>
      <trkpt lat="48.12371" lon="-3.31159">
        <ele>207.1</ele>
        <time>2024-11-20T10:10:59Z</time>
      </trkpt>
      <trkpt lat="48.12371" lon="-3.31161">
        <ele>207.1</ele>
        <time>2024-11-20T10:11:00Z</time>
      </trkpt>
      <trkpt lat="48.12371" lon="-3.31162">
        <ele>207.1</ele>
        <time>2024-11-20T10:11:01Z</time>
      </trkpt>
      <trkpt lat="48.12372" lon="-3.31165">
        <ele>207</ele>
        <time>2024-11-20T10:11:03Z</time>
      </trkpt>
      <trkpt lat="48.12373" lon="-3.31166">
        <ele>207</ele>
        <time>2024-11-20T10:11:04Z</time>
      </trkpt>
      <trkpt lat="48.12373" lon="-3.31167">
        <ele>207</ele>
        <time>2024-11-20T10:11:05Z</time>
      </trkpt>
      <trkpt lat="48.12372" lon="-3.31169">
        <ele>207</ele>
        <time>2024-11-20T10:11:06Z</time>
      </trkpt>
      <trkpt lat="48.12372" lon="-3.3117">
        <ele>206.9</ele>
        <time>2024-11-20T10:11:07Z</time>
      </trkpt>
      <trkpt lat="48.12372" lon="-3.31172">
        <ele>206.9</ele>
        <time>2024-11-20T10:11:08Z</time>
      </trkpt>
      <trkpt lat="48.12372" lon="-3.31174">
        <ele>206.9</ele>
        <time>2024-11-20T10:11:09Z</time>
      </trkpt>
      <trkpt lat="48.12372" lon="-3.31175">
        <ele>206.9</ele>
        <time>2024-11-20T10:11:10Z</time>
      </trkpt>
      <trkpt lat="48.12372" lon="-3.31176">
        <ele>206.9</ele>
        <time>2024-11-20T10:11:11Z</time>
      </trkpt>
      <trkpt lat="48.12373" lon="-3.31177">
        <ele>206.8</ele>
        <time>2024-11-20T10:11:12Z</time>
      </trkpt>
      <trkpt lat="48.12374" lon="-3.31177">
        <ele>206.8</ele>
        <time>2024-11-20T10:11:13Z</time>
      </trkpt>
      <trkpt lat="48.12375" lon="-3.31178">
        <ele>206.8</ele>
        <time>2024-11-20T10:11:14Z</time>
      </trkpt>
      <trkpt lat="48.12376" lon="-3.31179">
        <ele>206.8</ele>
        <time>2024-11-20T10:11:15Z</time>
      </trkpt>
      <trkpt lat="48.12377" lon="-3.31179">
        <ele>206.7</ele>
        <time>2024-11-20T10:11:16Z</time>
      </trkpt>
      <trkpt lat="48.12377" lon="-3.31179">
        <ele>206.7</ele>
        <time>2024-11-20T10:11:17Z</time>
      </trkpt>
      <trkpt lat="48.12377" lon="-3.3118">
        <ele>206.7</ele>
        <time>2024-11-20T10:11:18Z</time>
      </trkpt>
      <trkpt lat="48.12378" lon="-3.3118">
        <ele>206.7</ele>
        <time>2024-11-20T10:11:19Z</time>
      </trkpt>
      <trkpt lat="48.12378" lon="-3.31181">
        <ele>206.7</ele>
        <time>2024-11-20T10:11:20Z</time>
      </trkpt>
      <trkpt lat="48.12379" lon="-3.31181">
        <ele>206.7</ele>
        <time>2024-11-20T10:11:21Z</time>
      </trkpt>
      <trkpt lat="48.12379" lon="-3.31181">
        <ele>206.7</ele>
        <time>2024-11-20T10:11:22Z</time>
      </trkpt>
      <trkpt lat="48.12381" lon="-3.31182">
        <ele>206.6</ele>
        <time>2024-11-20T10:11:23Z</time>
      </trkpt>
      <trkpt lat="48.12382" lon="-3.31182">
        <ele>206.6</ele>
        <time>2024-11-20T10:11:24Z</time>
      </trkpt>
      <trkpt lat="48.12382" lon="-3.31183">
        <ele>206.6</ele>
        <time>2024-11-20T10:11:25Z</time>
      </trkpt>
      <trkpt lat="48.12382" lon="-3.31183">
        <ele>206.5</ele>
        <time>2024-11-20T10:11:26Z</time>
      </trkpt>
      <trkpt lat="48.12383" lon="-3.31184">
        <ele>206.5</ele>
        <time>2024-11-20T10:11:27Z</time>
      </trkpt>
      <trkpt lat="48.12384" lon="-3.31185">
        <ele>206.5</ele>
        <time>2024-11-20T10:11:28Z</time>
      </trkpt>
      <trkpt lat="48.12385" lon="-3.31186">
        <ele>206.4</ele>
        <time>2024-11-20T10:11:29Z</time>
      </trkpt>
      <trkpt lat="48.12386" lon="-3.31187">
        <ele>206.3</ele>
        <time>2024-11-20T10:11:30Z</time>
      </trkpt>
      <trkpt lat="48.12387" lon="-3.31188">
        <ele>206.3</ele>
        <time>2024-11-20T10:11:31Z</time>
      </trkpt>
      <trkpt lat="48.12389" lon="-3.31189">
        <ele>206.2</ele>
        <time>2024-11-20T10:11:32Z</time>
      </trkpt>
      <trkpt lat="48.1239" lon="-3.3119">
        <ele>206.2</ele>
        <time>2024-11-20T10:11:33Z</time>
      </trkpt>
      <trkpt lat="48.12391" lon="-3.3119">
        <ele>206.2</ele>
        <time>2024-11-20T10:11:34Z</time>
      </trkpt>
      <trkpt lat="48.12392" lon="-3.31191">
        <ele>206.1</ele>
        <time>2024-11-20T10:11:35Z</time>
      </trkpt>
      <trkpt lat="48.12392" lon="-3.31191">
        <ele>206.1</ele>
        <time>2024-11-20T10:11:36Z</time>
      </trkpt>
      <trkpt lat="48.12392" lon="-3.31192">
        <ele>206.1</ele>
        <time>2024-11-20T10:11:37Z</time>
      </trkpt>
      <trkpt lat="48.12393" lon="-3.31192">
        <ele>206.1</ele>
        <time>2024-11-20T10:11:38Z</time>
      </trkpt>
      <trkpt lat="48.12394" lon="-3.31193">
        <ele>206.1</ele>
        <time>2024-11-20T10:11:39Z</time>
      </trkpt>
      <trkpt lat="48.12395" lon="-3.31193">
        <ele>206</ele>
        <time>2024-11-20T10:11:40Z</time>
      </trkpt>
      <trkpt lat="48.12396" lon="-3.31194">
        <ele>206</ele>
        <time>2024-11-20T10:11:41Z</time>
      </trkpt>
      <trkpt lat="48.12398" lon="-3.31194">
        <ele>206</ele>
        <time>2024-11-20T10:11:42Z</time>
      </trkpt>
      <trkpt lat="48.12399" lon="-3.31194">
        <ele>206</ele>
        <time>2024-11-20T10:11:43Z</time>
      </trkpt>
      <trkpt lat="48.124" lon="-3.31195">
        <ele>206</ele>
        <time>2024-11-20T10:11:44Z</time>
      </trkpt>
      <trkpt lat="48.12401" lon="-3.31196">
        <ele>206</ele>
        <time>2024-11-20T10:11:45Z</time>
      </trkpt>
      <trkpt lat="48.12402" lon="-3.31197">
        <ele>205.9</ele>
        <time>2024-11-20T10:11:46Z</time>
      </trkpt>
      <trkpt lat="48.12403" lon="-3.31198">
        <ele>205.9</ele>
        <time>2024-11-20T10:11:47Z</time>
      </trkpt>
      <trkpt lat="48.12405" lon="-3.31199">
        <ele>205.9</ele>
        <time>2024-11-20T10:11:48Z</time>
      </trkpt>
      <trkpt lat="48.12407" lon="-3.31199">
        <ele>205.9</ele>
        <time>2024-11-20T10:11:49Z</time>
      </trkpt>
      <trkpt lat="48.12408" lon="-3.31199">
        <ele>205.9</ele>
        <time>2024-11-20T10:11:50Z</time>
      </trkpt>
      <trkpt lat="48.12409" lon="-3.31199">
        <ele>205.9</ele>
        <time>2024-11-20T10:11:51Z</time>
      </trkpt>
      <trkpt lat="48.1241" lon="-3.312">
        <ele>205.8</ele>
        <time>2024-11-20T10:11:52Z</time>
      </trkpt>
      <trkpt lat="48.12411" lon="-3.31201">
        <ele>205.8</ele>
        <time>2024-11-20T10:11:53Z</time>
      </trkpt>
      <trkpt lat="48.12411" lon="-3.31202">
        <ele>205.8</ele>
        <time>2024-11-20T10:11:54Z</time>
      </trkpt>
      <trkpt lat="48.12412" lon="-3.31203">
        <ele>205.7</ele>
        <time>2024-11-20T10:11:55Z</time>
      </trkpt>
      <trkpt lat="48.12413" lon="-3.31204">
        <ele>205.7</ele>
        <time>2024-11-20T10:11:56Z</time>
      </trkpt>
      <trkpt lat="48.12414" lon="-3.31205">
        <ele>205.7</ele>
        <time>2024-11-20T10:11:57Z</time>
      </trkpt>
      <trkpt lat="48.12414" lon="-3.31206">
        <ele>205.6</ele>
        <time>2024-11-20T10:11:58Z</time>
      </trkpt>
      <trkpt lat="48.12415" lon="-3.31207">
        <ele>205.6</ele>
        <time>2024-11-20T10:11:59Z</time>
      </trkpt>
      <trkpt lat="48.12416" lon="-3.31207">
        <ele>205.5</ele>
        <time>2024-11-20T10:12:00Z</time>
      </trkpt>
      <trkpt lat="48.12417" lon="-3.31208">
        <ele>205.5</ele>
        <time>2024-11-20T10:12:01Z</time>
      </trkpt>
      <trkpt lat="48.12418" lon="-3.31209">
        <ele>205.5</ele>
        <time>2024-11-20T10:12:02Z</time>
      </trkpt>
      <trkpt lat="48.12419" lon="-3.31209">
        <ele>205.5</ele>
        <time>2024-11-20T10:12:03Z</time>
      </trkpt>
      <trkpt lat="48.1242" lon="-3.31209">
        <ele>205.5</ele>
        <time>2024-11-20T10:12:04Z</time>
      </trkpt>
      <trkpt lat="48.12422" lon="-3.3121">
        <ele>205.4</ele>
        <time>2024-11-20T10:12:05Z</time>
      </trkpt>
      <trkpt lat="48.12423" lon="-3.31211">
        <ele>205.4</ele>
        <time>2024-11-20T10:12:06Z</time>
      </trkpt>
      <trkpt lat="48.12424" lon="-3.31212">
        <ele>205.4</ele>
        <time>2024-11-20T10:12:07Z</time>
      </trkpt>
      <trkpt lat="48.12424" lon="-3.31214">
        <ele>205.3</ele>
        <time>2024-11-20T10:12:08Z</time>
      </trkpt>
      <trkpt lat="48.12425" lon="-3.31215">
        <ele>205.3</ele>
        <time>2024-11-20T10:12:09Z</time>
      </trkpt>
      <trkpt lat="48.12426" lon="-3.31216">
        <ele>205.2</ele>
        <time>2024-11-20T10:12:10Z</time>
      </trkpt>
      <trkpt lat="48.12427" lon="-3.31216">
        <ele>205.2</ele>
        <time>2024-11-20T10:12:11Z</time>
      </trkpt>
      <trkpt lat="48.12427" lon="-3.31217">
        <ele>205.2</ele>
        <time>2024-11-20T10:12:12Z</time>
      </trkpt>
      <trkpt lat="48.12428" lon="-3.31219">
        <ele>205.1</ele>
        <time>2024-11-20T10:12:13Z</time>
      </trkpt>
      <trkpt lat="48.12429" lon="-3.3122">
        <ele>205.1</ele>
        <time>2024-11-20T10:12:14Z</time>
      </trkpt>
      <trkpt lat="48.12429" lon="-3.31221">
        <ele>205</ele>
        <time>2024-11-20T10:12:15Z</time>
      </trkpt>
      <trkpt lat="48.1243" lon="-3.31223">
        <ele>205</ele>
        <time>2024-11-20T10:12:16Z</time>
      </trkpt>
      <trkpt lat="48.1243" lon="-3.31225">
        <ele>205</ele>
        <time>2024-11-20T10:12:17Z</time>
      </trkpt>
      <trkpt lat="48.1243" lon="-3.31227">
        <ele>204.9</ele>
        <time>2024-11-20T10:12:18Z</time>
      </trkpt>
      <trkpt lat="48.1243" lon="-3.31229">
        <ele>204.9</ele>
        <time>2024-11-20T10:12:19Z</time>
      </trkpt>
      <trkpt lat="48.12431" lon="-3.31231">
        <ele>204.8</ele>
        <time>2024-11-20T10:12:20Z</time>
      </trkpt>
      <trkpt lat="48.12431" lon="-3.31233">
        <ele>204.8</ele>
        <time>2024-11-20T10:12:21Z</time>
      </trkpt>
      <trkpt lat="48.12431" lon="-3.31236">
        <ele>204.8</ele>
        <time>2024-11-20T10:12:22Z</time>
      </trkpt>
      <trkpt lat="48.12431" lon="-3.31237">
        <ele>204.7</ele>
        <time>2024-11-20T10:12:23Z</time>
      </trkpt>
      <trkpt lat="48.12431" lon="-3.31238">
        <ele>204.7</ele>
        <time>2024-11-20T10:12:24Z</time>
      </trkpt>
      <trkpt lat="48.1243" lon="-3.31239">
        <ele>204.7</ele>
        <time>2024-11-20T10:12:25Z</time>
      </trkpt>
      <trkpt lat="48.1243" lon="-3.31241">
        <ele>204.7</ele>
        <time>2024-11-20T10:12:26Z</time>
      </trkpt>
      <trkpt lat="48.1243" lon="-3.31242">
        <ele>204.7</ele>
        <time>2024-11-20T10:12:27Z</time>
      </trkpt>
      <trkpt lat="48.1243" lon="-3.31243">
        <ele>204.6</ele>
        <time>2024-11-20T10:12:28Z</time>
      </trkpt>
      <trkpt lat="48.1243" lon="-3.31245">
        <ele>204.6</ele>
        <time>2024-11-20T10:12:29Z</time>
      </trkpt>
      <trkpt lat="48.12429" lon="-3.31247">
        <ele>204.6</ele>
        <time>2024-11-20T10:12:30Z</time>
      </trkpt>
      <trkpt lat="48.12428" lon="-3.31248">
        <ele>204.6</ele>
        <time>2024-11-20T10:12:31Z</time>
      </trkpt>
      <trkpt lat="48.12427" lon="-3.31249">
        <ele>204.6</ele>
        <time>2024-11-20T10:12:32Z</time>
      </trkpt>
      <trkpt lat="48.12427" lon="-3.31251">
        <ele>204.6</ele>
        <time>2024-11-20T10:12:33Z</time>
      </trkpt>
      <trkpt lat="48.12426" lon="-3.31252">
        <ele>204.6</ele>
        <time>2024-11-20T10:12:34Z</time>
      </trkpt>
      <trkpt lat="48.12425" lon="-3.31254">
        <ele>204.6</ele>
        <time>2024-11-20T10:12:35Z</time>
      </trkpt>
      <trkpt lat="48.12424" lon="-3.31255">
        <ele>204.5</ele>
        <time>2024-11-20T10:12:36Z</time>
      </trkpt>
      <trkpt lat="48.12424" lon="-3.31256">
        <ele>204.5</ele>
        <time>2024-11-20T10:12:37Z</time>
      </trkpt>
      <trkpt lat="48.12423" lon="-3.31258">
        <ele>204.5</ele>
        <time>2024-11-20T10:12:38Z</time>
      </trkpt>
      <trkpt lat="48.12422" lon="-3.31259">
        <ele>204.5</ele>
        <time>2024-11-20T10:12:39Z</time>
      </trkpt>
      <trkpt lat="48.12421" lon="-3.31261">
        <ele>204.5</ele>
        <time>2024-11-20T10:12:40Z</time>
      </trkpt>
      <trkpt lat="48.12421" lon="-3.31262">
        <ele>204.4</ele>
        <time>2024-11-20T10:12:41Z</time>
      </trkpt>
      <trkpt lat="48.1242" lon="-3.31263">
        <ele>204.4</ele>
        <time>2024-11-20T10:12:42Z</time>
      </trkpt>
      <trkpt lat="48.12419" lon="-3.31265">
        <ele>204.4</ele>
        <time>2024-11-20T10:12:43Z</time>
      </trkpt>
      <trkpt lat="48.12419" lon="-3.31267">
        <ele>204.3</ele>
        <time>2024-11-20T10:12:44Z</time>
      </trkpt>
      <trkpt lat="48.12419" lon="-3.31269">
        <ele>204.2</ele>
        <time>2024-11-20T10:12:45Z</time>
      </trkpt>
      <trkpt lat="48.12419" lon="-3.3127">
        <ele>204.2</ele>
        <time>2024-11-20T10:12:46Z</time>
      </trkpt>
      <trkpt lat="48.1242" lon="-3.31272">
        <ele>204.1</ele>
        <time>2024-11-20T10:12:47Z</time>
      </trkpt>
      <trkpt lat="48.1242" lon="-3.31272">
        <ele>204.1</ele>
        <time>2024-11-20T10:12:48Z</time>
      </trkpt>
      <trkpt lat="48.12421" lon="-3.31274">
        <ele>204</ele>
        <time>2024-11-20T10:12:49Z</time>
      </trkpt>
      <trkpt lat="48.12422" lon="-3.31274">
        <ele>203.9</ele>
        <time>2024-11-20T10:12:50Z</time>
      </trkpt>
      <trkpt lat="48.12422" lon="-3.31276">
        <ele>203.9</ele>
        <time>2024-11-20T10:12:51Z</time>
      </trkpt>
      <trkpt lat="48.12423" lon="-3.31278">
        <ele>203.8</ele>
        <time>2024-11-20T10:12:52Z</time>
      </trkpt>
      <trkpt lat="48.12423" lon="-3.31279">
        <ele>203.7</ele>
        <time>2024-11-20T10:12:53Z</time>
      </trkpt>
      <trkpt lat="48.12423" lon="-3.31279">
        <ele>203.7</ele>
        <time>2024-11-20T10:12:54Z</time>
      </trkpt>
      <trkpt lat="48.12424" lon="-3.3128">
        <ele>203.6</ele>
        <time>2024-11-20T10:12:55Z</time>
      </trkpt>
      <trkpt lat="48.12424" lon="-3.31281">
        <ele>203.5</ele>
        <time>2024-11-20T10:12:56Z</time>
      </trkpt>
      <trkpt lat="48.12425" lon="-3.31281">
        <ele>203.5</ele>
        <time>2024-11-20T10:12:57Z</time>
      </trkpt>
      <trkpt lat="48.12426" lon="-3.31282">
        <ele>203.4</ele>
        <time>2024-11-20T10:12:58Z</time>
      </trkpt>
      <trkpt lat="48.12426" lon="-3.31283">
        <ele>203.4</ele>
        <time>2024-11-20T10:12:59Z</time>
      </trkpt>
      <trkpt lat="48.12427" lon="-3.31284">
        <ele>203.3</ele>
        <time>2024-11-20T10:13:00Z</time>
      </trkpt>
      <trkpt lat="48.12427" lon="-3.31285">
        <ele>203.2</ele>
        <time>2024-11-20T10:13:01Z</time>
      </trkpt>
      <trkpt lat="48.12428" lon="-3.31286">
        <ele>203.1</ele>
        <time>2024-11-20T10:13:02Z</time>
      </trkpt>
      <trkpt lat="48.12428" lon="-3.31287">
        <ele>203.1</ele>
        <time>2024-11-20T10:13:03Z</time>
      </trkpt>
      <trkpt lat="48.12428" lon="-3.31288">
        <ele>203</ele>
        <time>2024-11-20T10:13:04Z</time>
      </trkpt>
      <trkpt lat="48.12429" lon="-3.31289">
        <ele>203</ele>
        <time>2024-11-20T10:13:05Z</time>
      </trkpt>
      <trkpt lat="48.12429" lon="-3.3129">
        <ele>202.9</ele>
        <time>2024-11-20T10:13:06Z</time>
      </trkpt>
      <trkpt lat="48.1243" lon="-3.31291">
        <ele>202.8</ele>
        <time>2024-11-20T10:13:07Z</time>
      </trkpt>
      <trkpt lat="48.12431" lon="-3.31292">
        <ele>202.7</ele>
        <time>2024-11-20T10:13:08Z</time>
      </trkpt>
      <trkpt lat="48.12431" lon="-3.31293">
        <ele>202.7</ele>
        <time>2024-11-20T10:13:09Z</time>
      </trkpt>
      <trkpt lat="48.12431" lon="-3.31294">
        <ele>202.6</ele>
        <time>2024-11-20T10:13:10Z</time>
      </trkpt>
      <trkpt lat="48.12431" lon="-3.31295">
        <ele>202.6</ele>
        <time>2024-11-20T10:13:11Z</time>
      </trkpt>
      <trkpt lat="48.12432" lon="-3.31296">
        <ele>202.5</ele>
        <time>2024-11-20T10:13:12Z</time>
      </trkpt>
      <trkpt lat="48.12432" lon="-3.31297">
        <ele>202.4</ele>
        <time>2024-11-20T10:13:13Z</time>
      </trkpt>
      <trkpt lat="48.12432" lon="-3.31298">
        <ele>202.4</ele>
        <time>2024-11-20T10:13:14Z</time>
      </trkpt>
      <trkpt lat="48.12433" lon="-3.313">
        <ele>202.3</ele>
        <time>2024-11-20T10:13:15Z</time>
      </trkpt>
      <trkpt lat="48.12433" lon="-3.31302">
        <ele>202.2</ele>
        <time>2024-11-20T10:13:16Z</time>
      </trkpt>
      <trkpt lat="48.12433" lon="-3.31304">
        <ele>202.1</ele>
        <time>2024-11-20T10:13:17Z</time>
      </trkpt>
      <trkpt lat="48.12432" lon="-3.31306">
        <ele>202</ele>
        <time>2024-11-20T10:13:18Z</time>
      </trkpt>
      <trkpt lat="48.12431" lon="-3.31307">
        <ele>201.8</ele>
        <time>2024-11-20T10:13:19Z</time>
      </trkpt>
      <trkpt lat="48.1243" lon="-3.31308">
        <ele>201.7</ele>
        <time>2024-11-20T10:13:20Z</time>
      </trkpt>
      <trkpt lat="48.1243" lon="-3.31309">
        <ele>201.6</ele>
        <time>2024-11-20T10:13:21Z</time>
      </trkpt>
      <trkpt lat="48.12429" lon="-3.3131">
        <ele>201.4</ele>
        <time>2024-11-20T10:13:22Z</time>
      </trkpt>
      <trkpt lat="48.12428" lon="-3.31311">
        <ele>201.2</ele>
        <time>2024-11-20T10:13:23Z</time>
      </trkpt>
      <trkpt lat="48.12427" lon="-3.31312">
        <ele>201.1</ele>
        <time>2024-11-20T10:13:24Z</time>
      </trkpt>
      <trkpt lat="48.12427" lon="-3.31313">
        <ele>201.1</ele>
        <time>2024-11-20T10:13:25Z</time>
      </trkpt>
      <trkpt lat="48.12427" lon="-3.31313">
        <ele>201.1</ele>
        <time>2024-11-20T10:13:26Z</time>
      </trkpt>
      <trkpt lat="48.12427" lon="-3.31313">
        <ele>201</ele>
        <time>2024-11-20T10:13:27Z</time>
      </trkpt>
      <trkpt lat="48.12427" lon="-3.31314">
        <ele>200.9</ele>
        <time>2024-11-20T10:13:28Z</time>
      </trkpt>
      <trkpt lat="48.12427" lon="-3.31314">
        <ele>200.8</ele>
        <time>2024-11-20T10:13:29Z</time>
      </trkpt>
      <trkpt lat="48.12427" lon="-3.31315">
        <ele>200.7</ele>
        <time>2024-11-20T10:13:30Z</time>
      </trkpt>
      <trkpt lat="48.12426" lon="-3.31316">
        <ele>200.6</ele>
        <time>2024-11-20T10:13:31Z</time>
      </trkpt>
      <trkpt lat="48.12426" lon="-3.31317">
        <ele>200.6</ele>
        <time>2024-11-20T10:13:32Z</time>
      </trkpt>
      <trkpt lat="48.12426" lon="-3.31317">
        <ele>200.5</ele>
        <time>2024-11-20T10:13:33Z</time>
      </trkpt>
      <trkpt lat="48.12425" lon="-3.31317">
        <ele>200.5</ele>
        <time>2024-11-20T10:13:34Z</time>
      </trkpt>
      <trkpt lat="48.12425" lon="-3.31318">
        <ele>200.5</ele>
        <time>2024-11-20T10:13:35Z</time>
      </trkpt>
      <trkpt lat="48.12424" lon="-3.31318">
        <ele>200.4</ele>
        <time>2024-11-20T10:13:36Z</time>
      </trkpt>
      <trkpt lat="48.12424" lon="-3.31318">
        <ele>200.4</ele>
        <time>2024-11-20T10:13:37Z</time>
      </trkpt>
      <trkpt lat="48.12424" lon="-3.31318">
        <ele>200.4</ele>
        <time>2024-11-20T10:13:38Z</time>
      </trkpt>
      <trkpt lat="48.12423" lon="-3.31319">
        <ele>200.3</ele>
        <time>2024-11-20T10:13:39Z</time>
      </trkpt>
      <trkpt lat="48.12422" lon="-3.3132">
        <ele>200.2</ele>
        <time>2024-11-20T10:13:40Z</time>
      </trkpt>
      <trkpt lat="48.12421" lon="-3.31321">
        <ele>200.2</ele>
        <time>2024-11-20T10:13:41Z</time>
      </trkpt>
      <trkpt lat="48.1242" lon="-3.31322">
        <ele>200.1</ele>
        <time>2024-11-20T10:13:42Z</time>
      </trkpt>
      <trkpt lat="48.12419" lon="-3.31322">
        <ele>200.1</ele>
        <time>2024-11-20T10:13:43Z</time>
      </trkpt>
      <trkpt lat="48.12418" lon="-3.31323">
        <ele>200.1</ele>
        <time>2024-11-20T10:13:44Z</time>
      </trkpt>
      <trkpt lat="48.12417" lon="-3.31324">
        <ele>200</ele>
        <time>2024-11-20T10:13:45Z</time>
      </trkpt>
      <trkpt lat="48.12416" lon="-3.31324">
        <ele>200</ele>
        <time>2024-11-20T10:13:46Z</time>
      </trkpt>
      <trkpt lat="48.12415" lon="-3.31325">
        <ele>200</ele>
        <time>2024-11-20T10:13:47Z</time>
      </trkpt>
      <trkpt lat="48.12414" lon="-3.31326">
        <ele>199.9</ele>
        <time>2024-11-20T10:13:48Z</time>
      </trkpt>
      <trkpt lat="48.12414" lon="-3.31327">
        <ele>199.9</ele>
        <time>2024-11-20T10:13:49Z</time>
      </trkpt>
      <trkpt lat="48.12413" lon="-3.31328">
        <ele>199.8</ele>
        <time>2024-11-20T10:13:50Z</time>
      </trkpt>
      <trkpt lat="48.12412" lon="-3.31329">
        <ele>199.7</ele>
        <time>2024-11-20T10:13:51Z</time>
      </trkpt>
      <trkpt lat="48.12411" lon="-3.3133">
        <ele>199.7</ele>
        <time>2024-11-20T10:13:52Z</time>
      </trkpt>
      <trkpt lat="48.1241" lon="-3.31331">
        <ele>199.7</ele>
        <time>2024-11-20T10:13:53Z</time>
      </trkpt>
      <trkpt lat="48.12409" lon="-3.31332">
        <ele>199.7</ele>
        <time>2024-11-20T10:13:54Z</time>
      </trkpt>
      <trkpt lat="48.12408" lon="-3.31333">
        <ele>199.6</ele>
        <time>2024-11-20T10:13:55Z</time>
      </trkpt>
      <trkpt lat="48.12408" lon="-3.31334">
        <ele>199.6</ele>
        <time>2024-11-20T10:13:56Z</time>
      </trkpt>
      <trkpt lat="48.12408" lon="-3.31334">
        <ele>199.5</ele>
        <time>2024-11-20T10:13:57Z</time>
      </trkpt>
      <trkpt lat="48.12407" lon="-3.31335">
        <ele>199.5</ele>
        <time>2024-11-20T10:13:58Z</time>
      </trkpt>
      <trkpt lat="48.12406" lon="-3.31335">
        <ele>199.5</ele>
        <time>2024-11-20T10:13:59Z</time>
      </trkpt>
      <trkpt lat="48.12406" lon="-3.31335">
        <ele>199.5</ele>
        <time>2024-11-20T10:14:00Z</time>
      </trkpt>
      <trkpt lat="48.12406" lon="-3.31335">
        <ele>199.6</ele>
        <time>2024-11-20T10:14:01Z</time>
      </trkpt>
      <trkpt lat="48.12406" lon="-3.31334">
        <ele>199.6</ele>
        <time>2024-11-20T10:14:02Z</time>
      </trkpt>
      <trkpt lat="48.12406" lon="-3.31334">
        <ele>199.7</ele>
        <time>2024-11-20T10:14:03Z</time>
      </trkpt>
      <trkpt lat="48.12405" lon="-3.31335">
        <ele>199.6</ele>
        <time>2024-11-20T10:14:04Z</time>
      </trkpt>
      <trkpt lat="48.12405" lon="-3.31336">
        <ele>199.4</ele>
        <time>2024-11-20T10:14:05Z</time>
      </trkpt>
      <trkpt lat="48.12404" lon="-3.31338">
        <ele>199.3</ele>
        <time>2024-11-20T10:14:06Z</time>
      </trkpt>
      <trkpt lat="48.12403" lon="-3.31339">
        <ele>199.2</ele>
        <time>2024-11-20T10:14:07Z</time>
      </trkpt>
      <trkpt lat="48.12402" lon="-3.3134">
        <ele>199.1</ele>
        <time>2024-11-20T10:14:08Z</time>
      </trkpt>
      <trkpt lat="48.124" lon="-3.31341">
        <ele>199.1</ele>
        <time>2024-11-20T10:14:09Z</time>
      </trkpt>
      <trkpt lat="48.12399" lon="-3.31342">
        <ele>199.1</ele>
        <time>2024-11-20T10:14:10Z</time>
      </trkpt>
      <trkpt lat="48.12398" lon="-3.31343">
        <ele>199.1</ele>
        <time>2024-11-20T10:14:11Z</time>
      </trkpt>
      <trkpt lat="48.12397" lon="-3.31343">
        <ele>199.2</ele>
        <time>2024-11-20T10:14:12Z</time>
      </trkpt>
      <trkpt lat="48.12396" lon="-3.31343">
        <ele>199.3</ele>
        <time>2024-11-20T10:14:13Z</time>
      </trkpt>
      <trkpt lat="48.12395" lon="-3.31344">
        <ele>199.3</ele>
        <time>2024-11-20T10:14:14Z</time>
      </trkpt>
      <trkpt lat="48.12394" lon="-3.31344">
        <ele>199.3</ele>
        <time>2024-11-20T10:14:15Z</time>
      </trkpt>
      <trkpt lat="48.12393" lon="-3.31346">
        <ele>199.3</ele>
        <time>2024-11-20T10:14:16Z</time>
      </trkpt>
      <trkpt lat="48.12391" lon="-3.31347">
        <ele>199.3</ele>
        <time>2024-11-20T10:14:17Z</time>
      </trkpt>
      <trkpt lat="48.1239" lon="-3.31349">
        <ele>199.2</ele>
        <time>2024-11-20T10:14:18Z</time>
      </trkpt>
      <trkpt lat="48.12388" lon="-3.3135">
        <ele>199.2</ele>
        <time>2024-11-20T10:14:19Z</time>
      </trkpt>
      <trkpt lat="48.12387" lon="-3.31352">
        <ele>199.1</ele>
        <time>2024-11-20T10:14:20Z</time>
      </trkpt>
      <trkpt lat="48.12386" lon="-3.31353">
        <ele>198.9</ele>
        <time>2024-11-20T10:14:21Z</time>
      </trkpt>
      <trkpt lat="48.12385" lon="-3.31355">
        <ele>198.9</ele>
        <time>2024-11-20T10:14:22Z</time>
      </trkpt>
      <trkpt lat="48.12384" lon="-3.31356">
        <ele>198.8</ele>
        <time>2024-11-20T10:14:23Z</time>
      </trkpt>
      <trkpt lat="48.12383" lon="-3.31356">
        <ele>198.7</ele>
        <time>2024-11-20T10:14:24Z</time>
      </trkpt>
      <trkpt lat="48.12381" lon="-3.31357">
        <ele>198.7</ele>
        <time>2024-11-20T10:14:25Z</time>
      </trkpt>
      <trkpt lat="48.1238" lon="-3.31357">
        <ele>198.7</ele>
        <time>2024-11-20T10:14:26Z</time>
      </trkpt>
      <trkpt lat="48.12378" lon="-3.31358">
        <ele>198.7</ele>
        <time>2024-11-20T10:14:27Z</time>
      </trkpt>
      <trkpt lat="48.12377" lon="-3.31358">
        <ele>198.7</ele>
        <time>2024-11-20T10:14:28Z</time>
      </trkpt>
      <trkpt lat="48.12376" lon="-3.31359">
        <ele>198.7</ele>
        <time>2024-11-20T10:14:29Z</time>
      </trkpt>
      <trkpt lat="48.12375" lon="-3.3136">
        <ele>198.7</ele>
        <time>2024-11-20T10:14:30Z</time>
      </trkpt>
      <trkpt lat="48.12374" lon="-3.3136">
        <ele>198.6</ele>
        <time>2024-11-20T10:14:31Z</time>
      </trkpt>
      <trkpt lat="48.12373" lon="-3.31361">
        <ele>198.6</ele>
        <time>2024-11-20T10:14:32Z</time>
      </trkpt>
      <trkpt lat="48.12372" lon="-3.31362">
        <ele>198.4</ele>
        <time>2024-11-20T10:14:33Z</time>
      </trkpt>
      <trkpt lat="48.12371" lon="-3.31363">
        <ele>198.3</ele>
        <time>2024-11-20T10:14:34Z</time>
      </trkpt>
      <trkpt lat="48.12371" lon="-3.31363">
        <ele>198.2</ele>
        <time>2024-11-20T10:14:35Z</time>
      </trkpt>
      <trkpt lat="48.1237" lon="-3.31364">
        <ele>198.1</ele>
        <time>2024-11-20T10:14:36Z</time>
      </trkpt>
      <trkpt lat="48.1237" lon="-3.31364">
        <ele>198.1</ele>
        <time>2024-11-20T10:14:37Z</time>
      </trkpt>
      <trkpt lat="48.12369" lon="-3.31364">
        <ele>198.1</ele>
        <time>2024-11-20T10:14:40Z</time>
      </trkpt>
      <trkpt lat="48.12368" lon="-3.31364">
        <ele>198.1</ele>
        <time>2024-11-20T10:14:41Z</time>
      </trkpt>
      <trkpt lat="48.12368" lon="-3.31365">
        <ele>198</ele>
        <time>2024-11-20T10:14:42Z</time>
      </trkpt>
      <trkpt lat="48.12367" lon="-3.31365">
        <ele>198</ele>
        <time>2024-11-20T10:14:43Z</time>
      </trkpt>
      <trkpt lat="48.12366" lon="-3.31365">
        <ele>198</ele>
        <time>2024-11-20T10:14:44Z</time>
      </trkpt>
      <trkpt lat="48.12365" lon="-3.31366">
        <ele>197.9</ele>
        <time>2024-11-20T10:14:45Z</time>
      </trkpt>
      <trkpt lat="48.12365" lon="-3.31366">
        <ele>197.8</ele>
        <time>2024-11-20T10:14:46Z</time>
      </trkpt>
      <trkpt lat="48.12365" lon="-3.31366">
        <ele>197.8</ele>
        <time>2024-11-20T10:14:47Z</time>
      </trkpt>
      <trkpt lat="48.12364" lon="-3.31366">
        <ele>197.9</ele>
        <time>2024-11-20T10:14:48Z</time>
      </trkpt>
      <trkpt lat="48.12364" lon="-3.31365">
        <ele>198</ele>
        <time>2024-11-20T10:14:49Z</time>
      </trkpt>
      <trkpt lat="48.12363" lon="-3.31364">
        <ele>198.2</ele>
        <time>2024-11-20T10:14:50Z</time>
      </trkpt>
      <trkpt lat="48.12361" lon="-3.31364">
        <ele>198.4</ele>
        <time>2024-11-20T10:14:51Z</time>
      </trkpt>
      <trkpt lat="48.12361" lon="-3.31364">
        <ele>198.3</ele>
        <time>2024-11-20T10:14:52Z</time>
      </trkpt>
      <trkpt lat="48.1236" lon="-3.31365">
        <ele>198.2</ele>
        <time>2024-11-20T10:14:53Z</time>
      </trkpt>
      <trkpt lat="48.12359" lon="-3.31365">
        <ele>198</ele>
        <time>2024-11-20T10:14:54Z</time>
      </trkpt>
      <trkpt lat="48.12358" lon="-3.31366">
        <ele>197.7</ele>
        <time>2024-11-20T10:14:55Z</time>
      </trkpt>
      <trkpt lat="48.12357" lon="-3.31367">
        <ele>197.4</ele>
        <time>2024-11-20T10:14:56Z</time>
      </trkpt>
      <trkpt lat="48.12356" lon="-3.31368">
        <ele>197</ele>
        <time>2024-11-20T10:14:57Z</time>
      </trkpt>
      <trkpt lat="48.12355" lon="-3.3137">
        <ele>196.6</ele>
        <time>2024-11-20T10:14:58Z</time>
      </trkpt>
      <trkpt lat="48.12354" lon="-3.31371">
        <ele>196.3</ele>
        <time>2024-11-20T10:14:59Z</time>
      </trkpt>
      <trkpt lat="48.12353" lon="-3.31371">
        <ele>196.1</ele>
        <time>2024-11-20T10:15:00Z</time>
      </trkpt>
      <trkpt lat="48.12351" lon="-3.31372">
        <ele>195.8</ele>
        <time>2024-11-20T10:15:01Z</time>
      </trkpt>
      <trkpt lat="48.1235" lon="-3.31372">
        <ele>195.6</ele>
        <time>2024-11-20T10:15:02Z</time>
      </trkpt>
      <trkpt lat="48.12349" lon="-3.31373">
        <ele>195.4</ele>
        <time>2024-11-20T10:15:03Z</time>
      </trkpt>
      <trkpt lat="48.12347" lon="-3.31373">
        <ele>195.2</ele>
        <time>2024-11-20T10:15:04Z</time>
      </trkpt>
      <trkpt lat="48.12346" lon="-3.31373">
        <ele>195.2</ele>
        <time>2024-11-20T10:15:05Z</time>
      </trkpt>
      <trkpt lat="48.12345" lon="-3.31372">
        <ele>195.2</ele>
        <time>2024-11-20T10:15:06Z</time>
      </trkpt>
      <trkpt lat="48.12344" lon="-3.31372">
        <ele>195.1</ele>
        <time>2024-11-20T10:15:07Z</time>
      </trkpt>
      <trkpt lat="48.12342" lon="-3.31372">
        <ele>195</ele>
        <time>2024-11-20T10:15:08Z</time>
      </trkpt>
      <trkpt lat="48.12341" lon="-3.31373">
        <ele>194.8</ele>
        <time>2024-11-20T10:15:09Z</time>
      </trkpt>
      <trkpt lat="48.1234" lon="-3.31374">
        <ele>194.5</ele>
        <time>2024-11-20T10:15:10Z</time>
      </trkpt>
      <trkpt lat="48.12339" lon="-3.31374">
        <ele>194.2</ele>
        <time>2024-11-20T10:15:11Z</time>
      </trkpt>
      <trkpt lat="48.12338" lon="-3.31375">
        <ele>193.9</ele>
        <time>2024-11-20T10:15:12Z</time>
      </trkpt>
      <trkpt lat="48.12337" lon="-3.31376">
        <ele>193.6</ele>
        <time>2024-11-20T10:15:13Z</time>
      </trkpt>
      <trkpt lat="48.12336" lon="-3.31377">
        <ele>193.3</ele>
        <time>2024-11-20T10:15:14Z</time>
      </trkpt>
      <trkpt lat="48.12336" lon="-3.31378">
        <ele>193.1</ele>
        <time>2024-11-20T10:15:15Z</time>
      </trkpt>
      <trkpt lat="48.12336" lon="-3.31379">
        <ele>192.8</ele>
        <time>2024-11-20T10:15:16Z</time>
      </trkpt>
      <trkpt lat="48.12335" lon="-3.3138">
        <ele>192.5</ele>
        <time>2024-11-20T10:15:17Z</time>
      </trkpt>
      <trkpt lat="48.12335" lon="-3.31381">
        <ele>192.2</ele>
        <time>2024-11-20T10:15:18Z</time>
      </trkpt>
      <trkpt lat="48.12335" lon="-3.31383">
        <ele>191.8</ele>
        <time>2024-11-20T10:15:19Z</time>
      </trkpt>
      <trkpt lat="48.12335" lon="-3.31384">
        <ele>191.5</ele>
        <time>2024-11-20T10:15:20Z</time>
      </trkpt>
      <trkpt lat="48.12335" lon="-3.31385">
        <ele>191.2</ele>
        <time>2024-11-20T10:15:21Z</time>
      </trkpt>
      <trkpt lat="48.12335" lon="-3.31386">
        <ele>190.9</ele>
        <time>2024-11-20T10:15:22Z</time>
      </trkpt>
      <trkpt lat="48.12334" lon="-3.31387">
        <ele>190.6</ele>
        <time>2024-11-20T10:15:23Z</time>
      </trkpt>
      <trkpt lat="48.12333" lon="-3.31387">
        <ele>190.5</ele>
        <time>2024-11-20T10:15:24Z</time>
      </trkpt>
      <trkpt lat="48.12333" lon="-3.31387">
        <ele>190.4</ele>
        <time>2024-11-20T10:15:25Z</time>
      </trkpt>
      <trkpt lat="48.12332" lon="-3.31387">
        <ele>190.4</ele>
        <time>2024-11-20T10:15:26Z</time>
      </trkpt>
      <trkpt lat="48.12332" lon="-3.31387">
        <ele>190.4</ele>
        <time>2024-11-20T10:15:27Z</time>
      </trkpt>
      <trkpt lat="48.12332" lon="-3.31387">
        <ele>190.4</ele>
        <time>2024-11-20T10:15:28Z</time>
      </trkpt>
      <trkpt lat="48.12331" lon="-3.31387">
        <ele>190.3</ele>
        <time>2024-11-20T10:15:29Z</time>
      </trkpt>
      <trkpt lat="48.12331" lon="-3.31387">
        <ele>190.2</ele>
        <time>2024-11-20T10:15:30Z</time>
      </trkpt>
      <trkpt lat="48.12331" lon="-3.31387">
        <ele>190.2</ele>
        <time>2024-11-20T10:15:31Z</time>
      </trkpt>
      <trkpt lat="48.1233" lon="-3.31387">
        <ele>190.1</ele>
        <time>2024-11-20T10:15:32Z</time>
      </trkpt>
      <trkpt lat="48.1233" lon="-3.31387">
        <ele>190.1</ele>
        <time>2024-11-20T10:15:33Z</time>
      </trkpt>
      <trkpt lat="48.1233" lon="-3.31387">
        <ele>190.1</ele>
        <time>2024-11-20T10:15:34Z</time>
      </trkpt>
      <trkpt lat="48.1233" lon="-3.31387">
        <ele>190.1</ele>
        <time>2024-11-20T10:15:35Z</time>
      </trkpt>
      <trkpt lat="48.1233" lon="-3.31387">
        <ele>190.1</ele>
        <time>2024-11-20T10:15:36Z</time>
      </trkpt>
      <trkpt lat="48.1233" lon="-3.31387">
        <ele>190.2</ele>
        <time>2024-11-20T10:15:37Z</time>
      </trkpt>
      <trkpt lat="48.1233" lon="-3.31387">
        <ele>190.2</ele>
        <time>2024-11-20T10:15:38Z</time>
      </trkpt>
      <trkpt lat="48.1233" lon="-3.31387">
        <ele>190.2</ele>
        <time>2024-11-20T10:15:39Z</time>
      </trkpt>
      <trkpt lat="48.1233" lon="-3.31387">
        <ele>190.2</ele>
        <time>2024-11-20T10:15:40Z</time>
      </trkpt>
      <trkpt lat="48.1233" lon="-3.31387">
        <ele>190.2</ele>
        <time>2024-11-20T10:15:41Z</time>
      </trkpt>
      <trkpt lat="48.1233" lon="-3.31387">
        <ele>190.2</ele>
        <time>2024-11-20T10:15:42Z</time>
      </trkpt>
      <trkpt lat="48.1233" lon="-3.31387">
        <ele>190.2</ele>
        <time>2024-11-20T10:15:43Z</time>
      </trkpt>
      <trkpt lat="48.1233" lon="-3.31387">
        <ele>190.2</ele>
        <time>2024-11-20T10:15:44Z</time>
      </trkpt>
      <trkpt lat="48.1233" lon="-3.31387">
        <ele>190.2</ele>
        <time>2024-11-20T10:15:45Z</time>
      </trkpt>
      <trkpt lat="48.1233" lon="-3.31387">
        <ele>190.2</ele>
        <time>2024-11-20T10:15:46Z</time>
      </trkpt>
      <trkpt lat="48.1233" lon="-3.31387">
        <ele>190.2</ele>
        <time>2024-11-20T10:15:47Z</time>
      </trkpt>
      <trkpt lat="48.1233" lon="-3.31387">
        <ele>190.2</ele>
        <time>2024-11-20T10:15:48Z</time>
      </trkpt>
      <trkpt lat="48.1233" lon="-3.31387">
        <ele>190.2</ele>
        <time>2024-11-20T10:15:49Z</time>
      </trkpt>
      <trkpt lat="48.1233" lon="-3.31387">
        <ele>190.2</ele>
        <time>2024-11-20T10:15:50Z</time>
      </trkpt>
      <trkpt lat="48.1233" lon="-3.31387">
        <ele>190.2</ele>
        <time>2024-11-20T10:15:51Z</time>
      </trkpt>
      <trkpt lat="48.1233" lon="-3.31387">
        <ele>190.2</ele>
        <time>2024-11-20T10:15:52Z</time>
      </trkpt>
      <trkpt lat="48.1233" lon="-3.31387">
        <ele>190.2</ele>
        <time>2024-11-20T10:15:53Z</time>
      </trkpt>
      <trkpt lat="48.1233" lon="-3.31387">
        <ele>190.2</ele>
        <time>2024-11-20T10:15:54Z</time>
      </trkpt>
      <trkpt lat="48.1233" lon="-3.31387">
        <ele>190.2</ele>
        <time>2024-11-20T10:15:55Z</time>
      </trkpt>
      <trkpt lat="48.12329" lon="-3.31387">
        <ele>190.1</ele>
        <time>2024-11-20T10:15:56Z</time>
      </trkpt>
      <trkpt lat="48.12329" lon="-3.31387">
        <ele>190.1</ele>
        <time>2024-11-20T10:15:57Z</time>
      </trkpt>
      <trkpt lat="48.12329" lon="-3.31387">
        <ele>190.1</ele>
        <time>2024-11-20T10:15:58Z</time>
      </trkpt>
      <trkpt lat="48.12329" lon="-3.31387">
        <ele>190.1</ele>
        <time>2024-11-20T10:15:59Z</time>
      </trkpt>
      <trkpt lat="48.12329" lon="-3.31387">
        <ele>190.1</ele>
        <time>2024-11-20T10:16:00Z</time>
      </trkpt>
      <trkpt lat="48.12329" lon="-3.31387">
        <ele>190.1</ele>
        <time>2024-11-20T10:16:01Z</time>
      </trkpt>
      <trkpt lat="48.12329" lon="-3.31387">
        <ele>190.1</ele>
        <time>2024-11-20T10:16:02Z</time>
      </trkpt>
      <trkpt lat="48.12329" lon="-3.31387">
        <ele>190.1</ele>
        <time>2024-11-20T10:16:03Z</time>
      </trkpt>
      <trkpt lat="48.12329" lon="-3.31387">
        <ele>190.1</ele>
        <time>2024-11-20T10:16:04Z</time>
      </trkpt>
      <trkpt lat="48.12329" lon="-3.31387">
        <ele>190.1</ele>
        <time>2024-11-20T10:16:05Z</time>
      </trkpt>
      <trkpt lat="48.12329" lon="-3.31387">
        <ele>190.2</ele>
        <time>2024-11-20T10:16:06Z</time>
      </trkpt>
      <trkpt lat="48.12329" lon="-3.31387">
        <ele>190.2</ele>
        <time>2024-11-20T10:16:07Z</time>
      </trkpt>
      <trkpt lat="48.12329" lon="-3.31387">
        <ele>190.2</ele>
        <time>2024-11-20T10:16:08Z</time>
      </trkpt>
      <trkpt lat="48.12329" lon="-3.31387">
        <ele>190.2</ele>
        <time>2024-11-20T10:16:09Z</time>
      </trkpt>
      <trkpt lat="48.12329" lon="-3.31387">
        <ele>190.2</ele>
        <time>2024-11-20T10:16:10Z</time>
      </trkpt>
      <trkpt lat="48.12329" lon="-3.31387">
        <ele>190.2</ele>
        <time>2024-11-20T10:16:11Z</time>
      </trkpt>
      <trkpt lat="48.12329" lon="-3.31387">
        <ele>190.2</ele>
        <time>2024-11-20T10:16:12Z</time>
      </trkpt>
      <trkpt lat="48.12329" lon="-3.31387">
        <ele>190.2</ele>
        <time>2024-11-20T10:16:13Z</time>
      </trkpt>
      <trkpt lat="48.12329" lon="-3.31387">
        <ele>190.2</ele>
        <time>2024-11-20T10:16:14Z</time>
      </trkpt>
      <trkpt lat="48.12329" lon="-3.31387">
        <ele>190.2</ele>
        <time>2024-11-20T10:16:15Z</time>
      </trkpt>
      <trkpt lat="48.12329" lon="-3.31387">
        <ele>190.2</ele>
        <time>2024-11-20T10:16:16Z</time>
      </trkpt>
      <trkpt lat="48.12329" lon="-3.31387">
        <ele>190.2</ele>
        <time>2024-11-20T10:16:17Z</time>
      </trkpt>
      <trkpt lat="48.12329" lon="-3.31387">
        <ele>190.2</ele>
        <time>2024-11-20T10:16:18Z</time>
      </trkpt>
      <trkpt lat="48.12329" lon="-3.31387">
        <ele>190.2</ele>
        <time>2024-11-20T10:16:19Z</time>
      </trkpt>
      <trkpt lat="48.12329" lon="-3.31387">
        <ele>190.2</ele>
        <time>2024-11-20T10:16:20Z</time>
      </trkpt>
      <trkpt lat="48.12329" lon="-3.31387">
        <ele>190.2</ele>
        <time>2024-11-20T10:16:21Z</time>
      </trkpt>
      <trkpt lat="48.12329" lon="-3.31387">
        <ele>190.2</ele>
        <time>2024-11-20T10:16:22Z</time>
      </trkpt>
      <trkpt lat="48.12329" lon="-3.31387">
        <ele>190.2</ele>
        <time>2024-11-20T10:16:23Z</time>
      </trkpt>
      <trkpt lat="48.12329" lon="-3.31387">
        <ele>190.2</ele>
        <time>2024-11-20T10:16:24Z</time>
      </trkpt>
      <trkpt lat="48.12329" lon="-3.31387">
        <ele>190.2</ele>
        <time>2024-11-20T10:16:25Z</time>
      </trkpt>
      <trkpt lat="48.12329" lon="-3.31387">
        <ele>190.2</ele>
        <time>2024-11-20T10:16:26Z</time>
      </trkpt>
      <trkpt lat="48.12329" lon="-3.31387">
        <ele>190.1</ele>
        <time>2024-11-20T10:16:27Z</time>
      </trkpt>
      <trkpt lat="48.12329" lon="-3.31387">
        <ele>189.9</ele>
        <time>2024-11-20T10:16:28Z</time>
      </trkpt>
      <trkpt lat="48.12328" lon="-3.31389">
        <ele>189.5</ele>
        <time>2024-11-20T10:16:29Z</time>
      </trkpt>
      <trkpt lat="48.12328" lon="-3.31391">
        <ele>189.2</ele>
        <time>2024-11-20T10:16:30Z</time>
      </trkpt>
      <trkpt lat="48.12328" lon="-3.31393">
        <ele>188.8</ele>
        <time>2024-11-20T10:16:31Z</time>
      </trkpt>
      <trkpt lat="48.12327" lon="-3.31395">
        <ele>188.5</ele>
        <time>2024-11-20T10:16:32Z</time>
      </trkpt>
      <trkpt lat="48.12326" lon="-3.31397">
        <ele>188.2</ele>
        <time>2024-11-20T10:16:33Z</time>
      </trkpt>
      <trkpt lat="48.12326" lon="-3.31399">
        <ele>187.9</ele>
        <time>2024-11-20T10:16:34Z</time>
      </trkpt>
      <trkpt lat="48.12325" lon="-3.31401">
        <ele>187.6</ele>
        <time>2024-11-20T10:16:35Z</time>
      </trkpt>
      <trkpt lat="48.12325" lon="-3.31402">
        <ele>187.4</ele>
        <time>2024-11-20T10:16:36Z</time>
      </trkpt>
      <trkpt lat="48.12324" lon="-3.31404">
        <ele>187.2</ele>
        <time>2024-11-20T10:16:37Z</time>
      </trkpt>
      <trkpt lat="48.12323" lon="-3.31406">
        <ele>186.9</ele>
        <time>2024-11-20T10:16:38Z</time>
      </trkpt>
      <trkpt lat="48.12322" lon="-3.31407">
        <ele>186.7</ele>
        <time>2024-11-20T10:16:39Z</time>
      </trkpt>
      <trkpt lat="48.12322" lon="-3.31409">
        <ele>186.5</ele>
        <time>2024-11-20T10:16:40Z</time>
      </trkpt>
      <trkpt lat="48.12321" lon="-3.31411">
        <ele>186.2</ele>
        <time>2024-11-20T10:16:41Z</time>
      </trkpt>
      <trkpt lat="48.12321" lon="-3.31413">
        <ele>185.9</ele>
        <time>2024-11-20T10:16:42Z</time>
      </trkpt>
      <trkpt lat="48.1232" lon="-3.31415">
        <ele>185.7</ele>
        <time>2024-11-20T10:16:43Z</time>
      </trkpt>
      <trkpt lat="48.12319" lon="-3.31417">
        <ele>185.5</ele>
        <time>2024-11-20T10:16:44Z</time>
      </trkpt>
      <trkpt lat="48.12318" lon="-3.31419">
        <ele>185.4</ele>
        <time>2024-11-20T10:16:45Z</time>
      </trkpt>
      <trkpt lat="48.12317" lon="-3.3142">
        <ele>185.3</ele>
        <time>2024-11-20T10:16:46Z</time>
      </trkpt>
      <trkpt lat="48.12317" lon="-3.31422">
        <ele>185.2</ele>
        <time>2024-11-20T10:16:47Z</time>
      </trkpt>
      <trkpt lat="48.12317" lon="-3.31422">
        <ele>185.2</ele>
        <time>2024-11-20T10:16:48Z</time>
      </trkpt>
      <trkpt lat="48.12317" lon="-3.31424">
        <ele>185.1</ele>
        <time>2024-11-20T10:16:49Z</time>
      </trkpt>
      <trkpt lat="48.12316" lon="-3.31425">
        <ele>185.1</ele>
        <time>2024-11-20T10:16:50Z</time>
      </trkpt>
      <trkpt lat="48.12316" lon="-3.31427">
        <ele>185</ele>
        <time>2024-11-20T10:16:51Z</time>
      </trkpt>
      <trkpt lat="48.12316" lon="-3.31427">
        <ele>185</ele>
        <time>2024-11-20T10:16:52Z</time>
      </trkpt>
      <trkpt lat="48.12315" lon="-3.31428">
        <ele>184.9</ele>
        <time>2024-11-20T10:16:53Z</time>
      </trkpt>
      <trkpt lat="48.12315" lon="-3.31428">
        <ele>184.9</ele>
        <time>2024-11-20T10:16:54Z</time>
      </trkpt>
      <trkpt lat="48.12315" lon="-3.31429">
        <ele>184.9</ele>
        <time>2024-11-20T10:16:55Z</time>
      </trkpt>
      <trkpt lat="48.12315" lon="-3.3143">
        <ele>184.8</ele>
        <time>2024-11-20T10:16:56Z</time>
      </trkpt>
      <trkpt lat="48.12314" lon="-3.31431">
        <ele>184.8</ele>
        <time>2024-11-20T10:16:57Z</time>
      </trkpt>
      <trkpt lat="48.12314" lon="-3.31432">
        <ele>184.8</ele>
        <time>2024-11-20T10:16:58Z</time>
      </trkpt>
      <trkpt lat="48.12314" lon="-3.31432">
        <ele>184.7</ele>
        <time>2024-11-20T10:16:59Z</time>
      </trkpt>
      <trkpt lat="48.12314" lon="-3.31433">
        <ele>184.7</ele>
        <time>2024-11-20T10:17:00Z</time>
      </trkpt>
      <trkpt lat="48.12314" lon="-3.31433">
        <ele>184.7</ele>
        <time>2024-11-20T10:17:01Z</time>
      </trkpt>
      <trkpt lat="48.12314" lon="-3.31433">
        <ele>184.7</ele>
        <time>2024-11-20T10:17:02Z</time>
      </trkpt>
      <trkpt lat="48.12314" lon="-3.31433">
        <ele>184.7</ele>
        <time>2024-11-20T10:17:03Z</time>
      </trkpt>
      <trkpt lat="48.12314" lon="-3.31434">
        <ele>184.7</ele>
        <time>2024-11-20T10:17:04Z</time>
      </trkpt>
      <trkpt lat="48.12314" lon="-3.31434">
        <ele>184.7</ele>
        <time>2024-11-20T10:17:05Z</time>
      </trkpt>
      <trkpt lat="48.12314" lon="-3.31434">
        <ele>184.7</ele>
        <time>2024-11-20T10:17:06Z</time>
      </trkpt>
      <trkpt lat="48.12314" lon="-3.31435">
        <ele>184.7</ele>
        <time>2024-11-20T10:17:07Z</time>
      </trkpt>
      <trkpt lat="48.12314" lon="-3.31435">
        <ele>184.6</ele>
        <time>2024-11-20T10:17:08Z</time>
      </trkpt>
      <trkpt lat="48.12314" lon="-3.31436">
        <ele>184.6</ele>
        <time>2024-11-20T10:17:09Z</time>
      </trkpt>
      <trkpt lat="48.12315" lon="-3.31438">
        <ele>184.6</ele>
        <time>2024-11-20T10:17:10Z</time>
      </trkpt>
      <trkpt lat="48.12315" lon="-3.31438">
        <ele>184.6</ele>
        <time>2024-11-20T10:17:11Z</time>
      </trkpt>
      <trkpt lat="48.12316" lon="-3.31439">
        <ele>184.6</ele>
        <time>2024-11-20T10:17:12Z</time>
      </trkpt>
      <trkpt lat="48.12316" lon="-3.31439">
        <ele>184.6</ele>
        <time>2024-11-20T10:17:13Z</time>
      </trkpt>
      <trkpt lat="48.12317" lon="-3.3144">
        <ele>184.6</ele>
        <time>2024-11-20T10:17:14Z</time>
      </trkpt>
      <trkpt lat="48.12318" lon="-3.31441">
        <ele>184.6</ele>
        <time>2024-11-20T10:17:15Z</time>
      </trkpt>
      <trkpt lat="48.12319" lon="-3.31442">
        <ele>184.6</ele>
        <time>2024-11-20T10:17:16Z</time>
      </trkpt>
      <trkpt lat="48.1232" lon="-3.31443">
        <ele>184.6</ele>
        <time>2024-11-20T10:17:17Z</time>
      </trkpt>
      <trkpt lat="48.12321" lon="-3.31444">
        <ele>184.6</ele>
        <time>2024-11-20T10:17:18Z</time>
      </trkpt>
      <trkpt lat="48.12322" lon="-3.31445">
        <ele>184.6</ele>
        <time>2024-11-20T10:17:19Z</time>
      </trkpt>
      <trkpt lat="48.12324" lon="-3.31446">
        <ele>184.6</ele>
        <time>2024-11-20T10:17:20Z</time>
      </trkpt>
      <trkpt lat="48.12325" lon="-3.31447">
        <ele>184.6</ele>
        <time>2024-11-20T10:17:21Z</time>
      </trkpt>
      <trkpt lat="48.12326" lon="-3.31448">
        <ele>184.6</ele>
        <time>2024-11-20T10:17:22Z</time>
      </trkpt>
      <trkpt lat="48.12327" lon="-3.31449">
        <ele>184.6</ele>
        <time>2024-11-20T10:17:23Z</time>
      </trkpt>
      <trkpt lat="48.12328" lon="-3.31451">
        <ele>184.6</ele>
        <time>2024-11-20T10:17:24Z</time>
      </trkpt>
      <trkpt lat="48.12329" lon="-3.31452">
        <ele>184.6</ele>
        <time>2024-11-20T10:17:25Z</time>
      </trkpt>
      <trkpt lat="48.1233" lon="-3.31453">
        <ele>184.6</ele>
        <time>2024-11-20T10:17:26Z</time>
      </trkpt>
      <trkpt lat="48.12331" lon="-3.31454">
        <ele>184.6</ele>
        <time>2024-11-20T10:17:27Z</time>
      </trkpt>
      <trkpt lat="48.12332" lon="-3.31455">
        <ele>184.6</ele>
        <time>2024-11-20T10:17:28Z</time>
      </trkpt>
      <trkpt lat="48.12333" lon="-3.31456">
        <ele>184.6</ele>
        <time>2024-11-20T10:17:29Z</time>
      </trkpt>
      <trkpt lat="48.12334" lon="-3.31457">
        <ele>184.6</ele>
        <time>2024-11-20T10:17:30Z</time>
      </trkpt>
      <trkpt lat="48.12335" lon="-3.31458">
        <ele>184.6</ele>
        <time>2024-11-20T10:17:31Z</time>
      </trkpt>
      <trkpt lat="48.12336" lon="-3.3146">
        <ele>184.5</ele>
        <time>2024-11-20T10:17:32Z</time>
      </trkpt>
      <trkpt lat="48.12337" lon="-3.31461">
        <ele>184.5</ele>
        <time>2024-11-20T10:17:33Z</time>
      </trkpt>
      <trkpt lat="48.12338" lon="-3.31462">
        <ele>184.5</ele>
        <time>2024-11-20T10:17:34Z</time>
      </trkpt>
      <trkpt lat="48.12339" lon="-3.31463">
        <ele>184.5</ele>
        <time>2024-11-20T10:17:35Z</time>
      </trkpt>
      <trkpt lat="48.1234" lon="-3.31463">
        <ele>184.5</ele>
        <time>2024-11-20T10:17:36Z</time>
      </trkpt>
      <trkpt lat="48.12341" lon="-3.31464">
        <ele>184.6</ele>
        <time>2024-11-20T10:17:37Z</time>
      </trkpt>
      <trkpt lat="48.12342" lon="-3.31465">
        <ele>184.6</ele>
        <time>2024-11-20T10:17:38Z</time>
      </trkpt>
      <trkpt lat="48.12343" lon="-3.31466">
        <ele>184.6</ele>
        <time>2024-11-20T10:17:39Z</time>
      </trkpt>
      <trkpt lat="48.12344" lon="-3.31467">
        <ele>184.6</ele>
        <time>2024-11-20T10:17:40Z</time>
      </trkpt>
      <trkpt lat="48.12344" lon="-3.31468">
        <ele>184.5</ele>
        <time>2024-11-20T10:17:41Z</time>
      </trkpt>
      <trkpt lat="48.12345" lon="-3.3147">
        <ele>184.5</ele>
        <time>2024-11-20T10:17:42Z</time>
      </trkpt>
      <trkpt lat="48.12346" lon="-3.31471">
        <ele>184.5</ele>
        <time>2024-11-20T10:17:43Z</time>
      </trkpt>
      <trkpt lat="48.12348" lon="-3.31472">
        <ele>184.5</ele>
        <time>2024-11-20T10:17:44Z</time>
      </trkpt>
      <trkpt lat="48.12349" lon="-3.31474">
        <ele>184.5</ele>
        <time>2024-11-20T10:17:45Z</time>
      </trkpt>
      <trkpt lat="48.1235" lon="-3.31475">
        <ele>184.6</ele>
        <time>2024-11-20T10:17:46Z</time>
      </trkpt>
      <trkpt lat="48.12351" lon="-3.31476">
        <ele>184.6</ele>
        <time>2024-11-20T10:17:47Z</time>
      </trkpt>
      <trkpt lat="48.12352" lon="-3.31476">
        <ele>184.7</ele>
        <time>2024-11-20T10:17:48Z</time>
      </trkpt>
      <trkpt lat="48.12353" lon="-3.31477">
        <ele>184.7</ele>
        <time>2024-11-20T10:17:49Z</time>
      </trkpt>
      <trkpt lat="48.12354" lon="-3.31479">
        <ele>184.7</ele>
        <time>2024-11-20T10:17:50Z</time>
      </trkpt>
      <trkpt lat="48.12355" lon="-3.3148">
        <ele>184.8</ele>
        <time>2024-11-20T10:17:51Z</time>
      </trkpt>
      <trkpt lat="48.12356" lon="-3.3148">
        <ele>184.8</ele>
        <time>2024-11-20T10:17:52Z</time>
      </trkpt>
      <trkpt lat="48.12357" lon="-3.31481">
        <ele>184.8</ele>
        <time>2024-11-20T10:17:53Z</time>
      </trkpt>
      <trkpt lat="48.12358" lon="-3.31482">
        <ele>184.9</ele>
        <time>2024-11-20T10:17:54Z</time>
      </trkpt>
      <trkpt lat="48.12359" lon="-3.31483">
        <ele>184.9</ele>
        <time>2024-11-20T10:17:55Z</time>
      </trkpt>
      <trkpt lat="48.12361" lon="-3.31484">
        <ele>185</ele>
        <time>2024-11-20T10:17:56Z</time>
      </trkpt>
      <trkpt lat="48.12362" lon="-3.31485">
        <ele>185</ele>
        <time>2024-11-20T10:17:57Z</time>
      </trkpt>
      <trkpt lat="48.12363" lon="-3.31486">
        <ele>185</ele>
        <time>2024-11-20T10:17:58Z</time>
      </trkpt>
      <trkpt lat="48.12363" lon="-3.31487">
        <ele>185.1</ele>
        <time>2024-11-20T10:17:59Z</time>
      </trkpt>
      <trkpt lat="48.12364" lon="-3.31489">
        <ele>185.1</ele>
        <time>2024-11-20T10:18:00Z</time>
      </trkpt>
      <trkpt lat="48.12365" lon="-3.31491">
        <ele>185.1</ele>
        <time>2024-11-20T10:18:01Z</time>
      </trkpt>
      <trkpt lat="48.12366" lon="-3.31492">
        <ele>185.2</ele>
        <time>2024-11-20T10:18:02Z</time>
      </trkpt>
      <trkpt lat="48.12367" lon="-3.31493">
        <ele>185.2</ele>
        <time>2024-11-20T10:18:03Z</time>
      </trkpt>
      <trkpt lat="48.12368" lon="-3.31493">
        <ele>185.2</ele>
        <time>2024-11-20T10:18:04Z</time>
      </trkpt>
      <trkpt lat="48.12369" lon="-3.31494">
        <ele>185.3</ele>
        <time>2024-11-20T10:18:05Z</time>
      </trkpt>
      <trkpt lat="48.1237" lon="-3.31495">
        <ele>185.3</ele>
        <time>2024-11-20T10:18:06Z</time>
      </trkpt>
      <trkpt lat="48.12371" lon="-3.31496">
        <ele>185.4</ele>
        <time>2024-11-20T10:18:07Z</time>
      </trkpt>
      <trkpt lat="48.12373" lon="-3.31497">
        <ele>185.4</ele>
        <time>2024-11-20T10:18:08Z</time>
      </trkpt>
      <trkpt lat="48.12374" lon="-3.31498">
        <ele>185.5</ele>
        <time>2024-11-20T10:18:09Z</time>
      </trkpt>
      <trkpt lat="48.12375" lon="-3.31499">
        <ele>185.5</ele>
        <time>2024-11-20T10:18:10Z</time>
      </trkpt>
      <trkpt lat="48.12376" lon="-3.31499">
        <ele>185.5</ele>
        <time>2024-11-20T10:18:11Z</time>
      </trkpt>
      <trkpt lat="48.12377" lon="-3.315">
        <ele>185.6</ele>
        <time>2024-11-20T10:18:12Z</time>
      </trkpt>
      <trkpt lat="48.12378" lon="-3.31501">
        <ele>185.6</ele>
        <time>2024-11-20T10:18:13Z</time>
      </trkpt>
      <trkpt lat="48.12379" lon="-3.31502">
        <ele>185.6</ele>
        <time>2024-11-20T10:18:14Z</time>
      </trkpt>
      <trkpt lat="48.12379" lon="-3.31502">
        <ele>185.6</ele>
        <time>2024-11-20T10:18:15Z</time>
      </trkpt>
      <trkpt lat="48.1238" lon="-3.31503">
        <ele>185.6</ele>
        <time>2024-11-20T10:18:16Z</time>
      </trkpt>
      <trkpt lat="48.12381" lon="-3.31504">
        <ele>185.6</ele>
        <time>2024-11-20T10:18:17Z</time>
      </trkpt>
      <trkpt lat="48.12383" lon="-3.31505">
        <ele>185.6</ele>
        <time>2024-11-20T10:18:18Z</time>
      </trkpt>
      <trkpt lat="48.12384" lon="-3.31506">
        <ele>185.6</ele>
        <time>2024-11-20T10:18:19Z</time>
      </trkpt>
      <trkpt lat="48.12385" lon="-3.31507">
        <ele>185.6</ele>
        <time>2024-11-20T10:18:20Z</time>
      </trkpt>
      <trkpt lat="48.12386" lon="-3.31508">
        <ele>185.6</ele>
        <time>2024-11-20T10:18:21Z</time>
      </trkpt>
      <trkpt lat="48.12387" lon="-3.31509">
        <ele>185.6</ele>
        <time>2024-11-20T10:18:22Z</time>
      </trkpt>
      <trkpt lat="48.12388" lon="-3.3151">
        <ele>185.6</ele>
        <time>2024-11-20T10:18:23Z</time>
      </trkpt>
      <trkpt lat="48.12389" lon="-3.31511">
        <ele>185.6</ele>
        <time>2024-11-20T10:18:24Z</time>
      </trkpt>
      <trkpt lat="48.1239" lon="-3.31512">
        <ele>185.6</ele>
        <time>2024-11-20T10:18:25Z</time>
      </trkpt>
      <trkpt lat="48.12391" lon="-3.31513">
        <ele>185.6</ele>
        <time>2024-11-20T10:18:26Z</time>
      </trkpt>
      <trkpt lat="48.12392" lon="-3.31515">
        <ele>185.6</ele>
        <time>2024-11-20T10:18:27Z</time>
      </trkpt>
      <trkpt lat="48.12393" lon="-3.31516">
        <ele>185.6</ele>
        <time>2024-11-20T10:18:28Z</time>
      </trkpt>
      <trkpt lat="48.12394" lon="-3.31517">
        <ele>185.6</ele>
        <time>2024-11-20T10:18:29Z</time>
      </trkpt>
      <trkpt lat="48.12395" lon="-3.31518">
        <ele>185.5</ele>
        <time>2024-11-20T10:18:30Z</time>
      </trkpt>
      <trkpt lat="48.12396" lon="-3.31519">
        <ele>185.5</ele>
        <time>2024-11-20T10:18:31Z</time>
      </trkpt>
      <trkpt lat="48.12397" lon="-3.3152">
        <ele>185.5</ele>
        <time>2024-11-20T10:18:32Z</time>
      </trkpt>
      <trkpt lat="48.12398" lon="-3.31522">
        <ele>185.5</ele>
        <time>2024-11-20T10:18:33Z</time>
      </trkpt>
      <trkpt lat="48.12398" lon="-3.31522">
        <ele>185.5</ele>
        <time>2024-11-20T10:18:34Z</time>
      </trkpt>
      <trkpt lat="48.12399" lon="-3.31523">
        <ele>185.5</ele>
        <time>2024-11-20T10:18:35Z</time>
      </trkpt>
      <trkpt lat="48.124" lon="-3.31524">
        <ele>185.5</ele>
        <time>2024-11-20T10:18:36Z</time>
      </trkpt>
      <trkpt lat="48.12401" lon="-3.31525">
        <ele>185.5</ele>
        <time>2024-11-20T10:18:37Z</time>
      </trkpt>
      <trkpt lat="48.12402" lon="-3.31527">
        <ele>185.5</ele>
        <time>2024-11-20T10:18:38Z</time>
      </trkpt>
      <trkpt lat="48.12404" lon="-3.31528">
        <ele>185.5</ele>
        <time>2024-11-20T10:18:39Z</time>
      </trkpt>
      <trkpt lat="48.12405" lon="-3.31529">
        <ele>185.6</ele>
        <time>2024-11-20T10:18:40Z</time>
      </trkpt>
      <trkpt lat="48.12406" lon="-3.3153">
        <ele>185.6</ele>
        <time>2024-11-20T10:18:41Z</time>
      </trkpt>
      <trkpt lat="48.12407" lon="-3.31531">
        <ele>185.6</ele>
        <time>2024-11-20T10:18:42Z</time>
      </trkpt>
      <trkpt lat="48.12408" lon="-3.31532">
        <ele>185.7</ele>
        <time>2024-11-20T10:18:43Z</time>
      </trkpt>
      <trkpt lat="48.12409" lon="-3.31534">
        <ele>185.7</ele>
        <time>2024-11-20T10:18:44Z</time>
      </trkpt>
      <trkpt lat="48.1241" lon="-3.31535">
        <ele>185.7</ele>
        <time>2024-11-20T10:18:45Z</time>
      </trkpt>
      <trkpt lat="48.12411" lon="-3.31535">
        <ele>185.8</ele>
        <time>2024-11-20T10:18:46Z</time>
      </trkpt>
      <trkpt lat="48.12412" lon="-3.31537">
        <ele>185.8</ele>
        <time>2024-11-20T10:18:47Z</time>
      </trkpt>
      <trkpt lat="48.12413" lon="-3.31538">
        <ele>185.9</ele>
        <time>2024-11-20T10:18:48Z</time>
      </trkpt>
      <trkpt lat="48.12414" lon="-3.31539">
        <ele>185.9</ele>
        <time>2024-11-20T10:18:49Z</time>
      </trkpt>
      <trkpt lat="48.12415" lon="-3.3154">
        <ele>185.9</ele>
        <time>2024-11-20T10:18:50Z</time>
      </trkpt>
      <trkpt lat="48.12416" lon="-3.31542">
        <ele>186</ele>
        <time>2024-11-20T10:18:51Z</time>
      </trkpt>
      <trkpt lat="48.12417" lon="-3.31543">
        <ele>186</ele>
        <time>2024-11-20T10:18:52Z</time>
      </trkpt>
      <trkpt lat="48.12418" lon="-3.31543">
        <ele>186</ele>
        <time>2024-11-20T10:18:53Z</time>
      </trkpt>
      <trkpt lat="48.12419" lon="-3.31544">
        <ele>186</ele>
        <time>2024-11-20T10:18:54Z</time>
      </trkpt>
      <trkpt lat="48.1242" lon="-3.31545">
        <ele>186</ele>
        <time>2024-11-20T10:18:55Z</time>
      </trkpt>
      <trkpt lat="48.1242" lon="-3.31546">
        <ele>186</ele>
        <time>2024-11-20T10:18:56Z</time>
      </trkpt>
      <trkpt lat="48.12422" lon="-3.31547">
        <ele>186</ele>
        <time>2024-11-20T10:18:57Z</time>
      </trkpt>
      <trkpt lat="48.12423" lon="-3.31548">
        <ele>186</ele>
        <time>2024-11-20T10:18:58Z</time>
      </trkpt>
      <trkpt lat="48.12424" lon="-3.3155">
        <ele>186</ele>
        <time>2024-11-20T10:18:59Z</time>
      </trkpt>
      <trkpt lat="48.12425" lon="-3.3155">
        <ele>186</ele>
        <time>2024-11-20T10:19:00Z</time>
      </trkpt>
      <trkpt lat="48.12426" lon="-3.31551">
        <ele>186</ele>
        <time>2024-11-20T10:19:01Z</time>
      </trkpt>
      <trkpt lat="48.12427" lon="-3.31552">
        <ele>186</ele>
        <time>2024-11-20T10:19:02Z</time>
      </trkpt>
      <trkpt lat="48.12428" lon="-3.31553">
        <ele>186</ele>
        <time>2024-11-20T10:19:03Z</time>
      </trkpt>
      <trkpt lat="48.1243" lon="-3.31554">
        <ele>186</ele>
        <time>2024-11-20T10:19:04Z</time>
      </trkpt>
      <trkpt lat="48.12431" lon="-3.31555">
        <ele>186</ele>
        <time>2024-11-20T10:19:05Z</time>
      </trkpt>
      <trkpt lat="48.12431" lon="-3.31556">
        <ele>186</ele>
        <time>2024-11-20T10:19:06Z</time>
      </trkpt>
      <trkpt lat="48.12432" lon="-3.31557">
        <ele>186</ele>
        <time>2024-11-20T10:19:07Z</time>
      </trkpt>
      <trkpt lat="48.12433" lon="-3.31558">
        <ele>186</ele>
        <time>2024-11-20T10:19:08Z</time>
      </trkpt>
      <trkpt lat="48.12434" lon="-3.3156">
        <ele>185.9</ele>
        <time>2024-11-20T10:19:09Z</time>
      </trkpt>
      <trkpt lat="48.12435" lon="-3.31561">
        <ele>185.9</ele>
        <time>2024-11-20T10:19:10Z</time>
      </trkpt>
      <trkpt lat="48.12435" lon="-3.31563">
        <ele>185.9</ele>
        <time>2024-11-20T10:19:11Z</time>
      </trkpt>
      <trkpt lat="48.12436" lon="-3.31564">
        <ele>185.9</ele>
        <time>2024-11-20T10:19:12Z</time>
      </trkpt>
      <trkpt lat="48.12437" lon="-3.31566">
        <ele>185.9</ele>
        <time>2024-11-20T10:19:13Z</time>
      </trkpt>
      <trkpt lat="48.12438" lon="-3.31567">
        <ele>185.9</ele>
        <time>2024-11-20T10:19:14Z</time>
      </trkpt>
      <trkpt lat="48.12439" lon="-3.31568">
        <ele>185.9</ele>
        <time>2024-11-20T10:19:15Z</time>
      </trkpt>
      <trkpt lat="48.1244" lon="-3.31569">
        <ele>185.9</ele>
        <time>2024-11-20T10:19:16Z</time>
      </trkpt>
      <trkpt lat="48.12441" lon="-3.3157">
        <ele>185.9</ele>
        <time>2024-11-20T10:19:17Z</time>
      </trkpt>
      <trkpt lat="48.12442" lon="-3.31571">
        <ele>186</ele>
        <time>2024-11-20T10:19:18Z</time>
      </trkpt>
      <trkpt lat="48.12444" lon="-3.31572">
        <ele>186</ele>
        <time>2024-11-20T10:19:19Z</time>
      </trkpt>
      <trkpt lat="48.12445" lon="-3.31573">
        <ele>186</ele>
        <time>2024-11-20T10:19:20Z</time>
      </trkpt>
      <trkpt lat="48.12446" lon="-3.31574">
        <ele>186</ele>
        <time>2024-11-20T10:19:21Z</time>
      </trkpt>
      <trkpt lat="48.12447" lon="-3.31575">
        <ele>186.1</ele>
        <time>2024-11-20T10:19:22Z</time>
      </trkpt>
      <trkpt lat="48.12447" lon="-3.31577">
        <ele>186.1</ele>
        <time>2024-11-20T10:19:23Z</time>
      </trkpt>
      <trkpt lat="48.12448" lon="-3.31577">
        <ele>186.1</ele>
        <time>2024-11-20T10:19:24Z</time>
      </trkpt>
      <trkpt lat="48.12449" lon="-3.31578">
        <ele>186.1</ele>
        <time>2024-11-20T10:19:25Z</time>
      </trkpt>
      <trkpt lat="48.1245" lon="-3.31579">
        <ele>186.2</ele>
        <time>2024-11-20T10:19:26Z</time>
      </trkpt>
      <trkpt lat="48.12451" lon="-3.3158">
        <ele>186.2</ele>
        <time>2024-11-20T10:19:27Z</time>
      </trkpt>
      <trkpt lat="48.12452" lon="-3.31581">
        <ele>186.2</ele>
        <time>2024-11-20T10:19:28Z</time>
      </trkpt>
      <trkpt lat="48.12453" lon="-3.31582">
        <ele>186.3</ele>
        <time>2024-11-20T10:19:29Z</time>
      </trkpt>
      <trkpt lat="48.12454" lon="-3.31582">
        <ele>186.3</ele>
        <time>2024-11-20T10:19:30Z</time>
      </trkpt>
      <trkpt lat="48.12455" lon="-3.31583">
        <ele>186.4</ele>
        <time>2024-11-20T10:19:31Z</time>
      </trkpt>
      <trkpt lat="48.12456" lon="-3.31584">
        <ele>186.4</ele>
        <time>2024-11-20T10:19:32Z</time>
      </trkpt>
      <trkpt lat="48.12458" lon="-3.31585">
        <ele>186.5</ele>
        <time>2024-11-20T10:19:33Z</time>
      </trkpt>
      <trkpt lat="48.12459" lon="-3.31586">
        <ele>186.5</ele>
        <time>2024-11-20T10:19:34Z</time>
      </trkpt>
      <trkpt lat="48.1246" lon="-3.31587">
        <ele>186.6</ele>
        <time>2024-11-20T10:19:35Z</time>
      </trkpt>
      <trkpt lat="48.12461" lon="-3.31588">
        <ele>186.6</ele>
        <time>2024-11-20T10:19:36Z</time>
      </trkpt>
      <trkpt lat="48.12462" lon="-3.31589">
        <ele>186.6</ele>
        <time>2024-11-20T10:19:37Z</time>
      </trkpt>
      <trkpt lat="48.12463" lon="-3.3159">
        <ele>186.7</ele>
        <time>2024-11-20T10:19:38Z</time>
      </trkpt>
      <trkpt lat="48.12464" lon="-3.31591">
        <ele>186.7</ele>
        <time>2024-11-20T10:19:39Z</time>
      </trkpt>
      <trkpt lat="48.12465" lon="-3.31592">
        <ele>186.7</ele>
        <time>2024-11-20T10:19:40Z</time>
      </trkpt>
      <trkpt lat="48.12466" lon="-3.31593">
        <ele>186.8</ele>
        <time>2024-11-20T10:19:41Z</time>
      </trkpt>
      <trkpt lat="48.12467" lon="-3.31594">
        <ele>186.8</ele>
        <time>2024-11-20T10:19:42Z</time>
      </trkpt>
      <trkpt lat="48.12468" lon="-3.31595">
        <ele>186.9</ele>
        <time>2024-11-20T10:19:43Z</time>
      </trkpt>
      <trkpt lat="48.12469" lon="-3.31596">
        <ele>186.9</ele>
        <time>2024-11-20T10:19:44Z</time>
      </trkpt>
      <trkpt lat="48.1247" lon="-3.31597">
        <ele>186.9</ele>
        <time>2024-11-20T10:19:45Z</time>
      </trkpt>
      <trkpt lat="48.12471" lon="-3.31597">
        <ele>187</ele>
        <time>2024-11-20T10:19:46Z</time>
      </trkpt>
      <trkpt lat="48.12472" lon="-3.31598">
        <ele>187</ele>
        <time>2024-11-20T10:19:47Z</time>
      </trkpt>
      <trkpt lat="48.12473" lon="-3.31599">
        <ele>187</ele>
        <time>2024-11-20T10:19:48Z</time>
      </trkpt>
      <trkpt lat="48.12474" lon="-3.316">
        <ele>187</ele>
        <time>2024-11-20T10:19:49Z</time>
      </trkpt>
      <trkpt lat="48.12475" lon="-3.31601">
        <ele>187</ele>
        <time>2024-11-20T10:19:50Z</time>
      </trkpt>
      <trkpt lat="48.12477" lon="-3.31602">
        <ele>187</ele>
        <time>2024-11-20T10:19:51Z</time>
      </trkpt>
      <trkpt lat="48.12478" lon="-3.31603">
        <ele>187</ele>
        <time>2024-11-20T10:19:52Z</time>
      </trkpt>
      <trkpt lat="48.12478" lon="-3.31604">
        <ele>187</ele>
        <time>2024-11-20T10:19:53Z</time>
      </trkpt>
      <trkpt lat="48.12479" lon="-3.31605">
        <ele>187</ele>
        <time>2024-11-20T10:19:54Z</time>
      </trkpt>
      <trkpt lat="48.1248" lon="-3.31605">
        <ele>187</ele>
        <time>2024-11-20T10:19:55Z</time>
      </trkpt>
      <trkpt lat="48.1248" lon="-3.31606">
        <ele>187</ele>
        <time>2024-11-20T10:19:56Z</time>
      </trkpt>
      <trkpt lat="48.12481" lon="-3.31607">
        <ele>187</ele>
        <time>2024-11-20T10:19:57Z</time>
      </trkpt>
      <trkpt lat="48.12482" lon="-3.31608">
        <ele>187</ele>
        <time>2024-11-20T10:19:58Z</time>
      </trkpt>
      <trkpt lat="48.12484" lon="-3.3161">
        <ele>187</ele>
        <time>2024-11-20T10:19:59Z</time>
      </trkpt>
      <trkpt lat="48.12485" lon="-3.31611">
        <ele>187</ele>
        <time>2024-11-20T10:20:00Z</time>
      </trkpt>
      <trkpt lat="48.12486" lon="-3.31611">
        <ele>187</ele>
        <time>2024-11-20T10:20:01Z</time>
      </trkpt>
      <trkpt lat="48.12487" lon="-3.31612">
        <ele>187</ele>
        <time>2024-11-20T10:20:02Z</time>
      </trkpt>
      <trkpt lat="48.12489" lon="-3.31613">
        <ele>187</ele>
        <time>2024-11-20T10:20:03Z</time>
      </trkpt>
      <trkpt lat="48.1249" lon="-3.31614">
        <ele>187</ele>
        <time>2024-11-20T10:20:04Z</time>
      </trkpt>
      <trkpt lat="48.12491" lon="-3.31616">
        <ele>187.1</ele>
        <time>2024-11-20T10:20:05Z</time>
      </trkpt>
      <trkpt lat="48.12492" lon="-3.31617">
        <ele>187.1</ele>
        <time>2024-11-20T10:20:06Z</time>
      </trkpt>
      <trkpt lat="48.12493" lon="-3.31618">
        <ele>187.1</ele>
        <time>2024-11-20T10:20:07Z</time>
      </trkpt>
      <trkpt lat="48.12494" lon="-3.31619">
        <ele>187.1</ele>
        <time>2024-11-20T10:20:08Z</time>
      </trkpt>
      <trkpt lat="48.12495" lon="-3.3162">
        <ele>187.1</ele>
        <time>2024-11-20T10:20:09Z</time>
      </trkpt>
      <trkpt lat="48.12496" lon="-3.31622">
        <ele>187.1</ele>
        <time>2024-11-20T10:20:10Z</time>
      </trkpt>
      <trkpt lat="48.12497" lon="-3.31623">
        <ele>187</ele>
        <time>2024-11-20T10:20:11Z</time>
      </trkpt>
      <trkpt lat="48.12498" lon="-3.31624">
        <ele>187</ele>
        <time>2024-11-20T10:20:12Z</time>
      </trkpt>
      <trkpt lat="48.125" lon="-3.31625">
        <ele>187</ele>
        <time>2024-11-20T10:20:13Z</time>
      </trkpt>
      <trkpt lat="48.12501" lon="-3.31626">
        <ele>187</ele>
        <time>2024-11-20T10:20:14Z</time>
      </trkpt>
      <trkpt lat="48.12502" lon="-3.31627">
        <ele>187.1</ele>
        <time>2024-11-20T10:20:15Z</time>
      </trkpt>
      <trkpt lat="48.12503" lon="-3.31629">
        <ele>187.1</ele>
        <time>2024-11-20T10:20:16Z</time>
      </trkpt>
      <trkpt lat="48.12504" lon="-3.3163">
        <ele>187.1</ele>
        <time>2024-11-20T10:20:17Z</time>
      </trkpt>
      <trkpt lat="48.12505" lon="-3.31631">
        <ele>187.2</ele>
        <time>2024-11-20T10:20:18Z</time>
      </trkpt>
      <trkpt lat="48.12506" lon="-3.31633">
        <ele>187.2</ele>
        <time>2024-11-20T10:20:19Z</time>
      </trkpt>
      <trkpt lat="48.12507" lon="-3.31634">
        <ele>187.3</ele>
        <time>2024-11-20T10:20:20Z</time>
      </trkpt>
      <trkpt lat="48.12508" lon="-3.31635">
        <ele>187.3</ele>
        <time>2024-11-20T10:20:21Z</time>
      </trkpt>
      <trkpt lat="48.12509" lon="-3.31636">
        <ele>187.3</ele>
        <time>2024-11-20T10:20:22Z</time>
      </trkpt>
      <trkpt lat="48.1251" lon="-3.31637">
        <ele>187.4</ele>
        <time>2024-11-20T10:20:23Z</time>
      </trkpt>
      <trkpt lat="48.12511" lon="-3.31639">
        <ele>187.4</ele>
        <time>2024-11-20T10:20:24Z</time>
      </trkpt>
      <trkpt lat="48.12513" lon="-3.3164">
        <ele>187.5</ele>
        <time>2024-11-20T10:20:25Z</time>
      </trkpt>
      <trkpt lat="48.12514" lon="-3.31642">
        <ele>187.5</ele>
        <time>2024-11-20T10:20:26Z</time>
      </trkpt>
      <trkpt lat="48.12515" lon="-3.31643">
        <ele>187.6</ele>
        <time>2024-11-20T10:20:27Z</time>
      </trkpt>
      <trkpt lat="48.12516" lon="-3.31644">
        <ele>187.6</ele>
        <time>2024-11-20T10:20:28Z</time>
      </trkpt>
      <trkpt lat="48.12517" lon="-3.31646">
        <ele>187.7</ele>
        <time>2024-11-20T10:20:29Z</time>
      </trkpt>
      <trkpt lat="48.12518" lon="-3.31647">
        <ele>187.7</ele>
        <time>2024-11-20T10:20:30Z</time>
      </trkpt>
      <trkpt lat="48.12519" lon="-3.31647">
        <ele>187.8</ele>
        <time>2024-11-20T10:20:31Z</time>
      </trkpt>
      <trkpt lat="48.1252" lon="-3.31648">
        <ele>187.8</ele>
        <time>2024-11-20T10:20:32Z</time>
      </trkpt>
      <trkpt lat="48.12521" lon="-3.31649">
        <ele>187.8</ele>
        <time>2024-11-20T10:20:33Z</time>
      </trkpt>
      <trkpt lat="48.12522" lon="-3.3165">
        <ele>187.9</ele>
        <time>2024-11-20T10:20:34Z</time>
      </trkpt>
      <trkpt lat="48.12523" lon="-3.3165">
        <ele>187.9</ele>
        <time>2024-11-20T10:20:35Z</time>
      </trkpt>
      <trkpt lat="48.12524" lon="-3.31651">
        <ele>187.9</ele>
        <time>2024-11-20T10:20:36Z</time>
      </trkpt>
      <trkpt lat="48.12525" lon="-3.31652">
        <ele>187.9</ele>
        <time>2024-11-20T10:20:37Z</time>
      </trkpt>
      <trkpt lat="48.12526" lon="-3.31653">
        <ele>188</ele>
        <time>2024-11-20T10:20:38Z</time>
      </trkpt>
      <trkpt lat="48.12527" lon="-3.31654">
        <ele>188</ele>
        <time>2024-11-20T10:20:39Z</time>
      </trkpt>
      <trkpt lat="48.12528" lon="-3.31655">
        <ele>188</ele>
        <time>2024-11-20T10:20:40Z</time>
      </trkpt>
      <trkpt lat="48.12529" lon="-3.31655">
        <ele>188</ele>
        <time>2024-11-20T10:20:41Z</time>
      </trkpt>
      <trkpt lat="48.1253" lon="-3.31656">
        <ele>188.1</ele>
        <time>2024-11-20T10:20:42Z</time>
      </trkpt>
      <trkpt lat="48.12531" lon="-3.31658">
        <ele>188.1</ele>
        <time>2024-11-20T10:20:43Z</time>
      </trkpt>
      <trkpt lat="48.12533" lon="-3.31659">
        <ele>188.2</ele>
        <time>2024-11-20T10:20:44Z</time>
      </trkpt>
      <trkpt lat="48.12534" lon="-3.3166">
        <ele>188.2</ele>
        <time>2024-11-20T10:20:45Z</time>
      </trkpt>
      <trkpt lat="48.12535" lon="-3.31661">
        <ele>188.3</ele>
        <time>2024-11-20T10:20:46Z</time>
      </trkpt>
      <trkpt lat="48.12536" lon="-3.31662">
        <ele>188.3</ele>
        <time>2024-11-20T10:20:47Z</time>
      </trkpt>
      <trkpt lat="48.12537" lon="-3.31663">
        <ele>188.3</ele>
        <time>2024-11-20T10:20:48Z</time>
      </trkpt>
      <trkpt lat="48.12538" lon="-3.31664">
        <ele>188.4</ele>
        <time>2024-11-20T10:20:49Z</time>
      </trkpt>
      <trkpt lat="48.12539" lon="-3.31666">
        <ele>188.4</ele>
        <time>2024-11-20T10:20:50Z</time>
      </trkpt>
      <trkpt lat="48.1254" lon="-3.31667">
        <ele>188.5</ele>
        <time>2024-11-20T10:20:51Z</time>
      </trkpt>
      <trkpt lat="48.12541" lon="-3.31668">
        <ele>188.5</ele>
        <time>2024-11-20T10:20:52Z</time>
      </trkpt>
      <trkpt lat="48.12543" lon="-3.31669">
        <ele>188.6</ele>
        <time>2024-11-20T10:20:53Z</time>
      </trkpt>
      <trkpt lat="48.12544" lon="-3.3167">
        <ele>188.6</ele>
        <time>2024-11-20T10:20:54Z</time>
      </trkpt>
      <trkpt lat="48.12545" lon="-3.31672">
        <ele>188.7</ele>
        <time>2024-11-20T10:20:55Z</time>
      </trkpt>
      <trkpt lat="48.12546" lon="-3.31673">
        <ele>188.7</ele>
        <time>2024-11-20T10:20:56Z</time>
      </trkpt>
      <trkpt lat="48.12546" lon="-3.31675">
        <ele>188.8</ele>
        <time>2024-11-20T10:20:57Z</time>
      </trkpt>
      <trkpt lat="48.12548" lon="-3.31677">
        <ele>188.8</ele>
        <time>2024-11-20T10:20:58Z</time>
      </trkpt>
      <trkpt lat="48.12549" lon="-3.31678">
        <ele>188.9</ele>
        <time>2024-11-20T10:20:59Z</time>
      </trkpt>
      <trkpt lat="48.1255" lon="-3.31679">
        <ele>188.9</ele>
        <time>2024-11-20T10:21:00Z</time>
      </trkpt>
      <trkpt lat="48.12551" lon="-3.3168">
        <ele>188.9</ele>
        <time>2024-11-20T10:21:01Z</time>
      </trkpt>
      <trkpt lat="48.12552" lon="-3.3168">
        <ele>188.9</ele>
        <time>2024-11-20T10:21:02Z</time>
      </trkpt>
      <trkpt lat="48.12553" lon="-3.31681">
        <ele>189</ele>
        <time>2024-11-20T10:21:03Z</time>
      </trkpt>
      <trkpt lat="48.12554" lon="-3.31682">
        <ele>189</ele>
        <time>2024-11-20T10:21:04Z</time>
      </trkpt>
      <trkpt lat="48.12555" lon="-3.31683">
        <ele>189</ele>
        <time>2024-11-20T10:21:05Z</time>
      </trkpt>
      <trkpt lat="48.12556" lon="-3.31685">
        <ele>189</ele>
        <time>2024-11-20T10:21:06Z</time>
      </trkpt>
      <trkpt lat="48.12557" lon="-3.31686">
        <ele>189</ele>
        <time>2024-11-20T10:21:07Z</time>
      </trkpt>
      <trkpt lat="48.12558" lon="-3.31687">
        <ele>189</ele>
        <time>2024-11-20T10:21:08Z</time>
      </trkpt>
      <trkpt lat="48.12559" lon="-3.31688">
        <ele>189</ele>
        <time>2024-11-20T10:21:09Z</time>
      </trkpt>
      <trkpt lat="48.1256" lon="-3.31689">
        <ele>189</ele>
        <time>2024-11-20T10:21:10Z</time>
      </trkpt>
      <trkpt lat="48.12561" lon="-3.3169">
        <ele>189</ele>
        <time>2024-11-20T10:21:11Z</time>
      </trkpt>
      <trkpt lat="48.12562" lon="-3.31692">
        <ele>189</ele>
        <time>2024-11-20T10:21:12Z</time>
      </trkpt>
      <trkpt lat="48.12563" lon="-3.31692">
        <ele>189</ele>
        <time>2024-11-20T10:21:13Z</time>
      </trkpt>
      <trkpt lat="48.12564" lon="-3.31694">
        <ele>189</ele>
        <time>2024-11-20T10:21:14Z</time>
      </trkpt>
      <trkpt lat="48.12565" lon="-3.31695">
        <ele>189</ele>
        <time>2024-11-20T10:21:15Z</time>
      </trkpt>
      <trkpt lat="48.12566" lon="-3.31696">
        <ele>189</ele>
        <time>2024-11-20T10:21:16Z</time>
      </trkpt>
      <trkpt lat="48.12568" lon="-3.31697">
        <ele>189</ele>
        <time>2024-11-20T10:21:17Z</time>
      </trkpt>
      <trkpt lat="48.12568" lon="-3.31698">
        <ele>189.1</ele>
        <time>2024-11-20T10:21:18Z</time>
      </trkpt>
      <trkpt lat="48.12569" lon="-3.31699">
        <ele>189.1</ele>
        <time>2024-11-20T10:21:19Z</time>
      </trkpt>
      <trkpt lat="48.1257" lon="-3.317">
        <ele>189.1</ele>
        <time>2024-11-20T10:21:20Z</time>
      </trkpt>
      <trkpt lat="48.12571" lon="-3.31702">
        <ele>189.1</ele>
        <time>2024-11-20T10:21:21Z</time>
      </trkpt>
      <trkpt lat="48.12572" lon="-3.31702">
        <ele>189.2</ele>
        <time>2024-11-20T10:21:22Z</time>
      </trkpt>
      <trkpt lat="48.12573" lon="-3.31703">
        <ele>189.2</ele>
        <time>2024-11-20T10:21:23Z</time>
      </trkpt>
      <trkpt lat="48.12574" lon="-3.31703">
        <ele>189.2</ele>
        <time>2024-11-20T10:21:24Z</time>
      </trkpt>
      <trkpt lat="48.12575" lon="-3.31704">
        <ele>189.2</ele>
        <time>2024-11-20T10:21:25Z</time>
      </trkpt>
      <trkpt lat="48.12576" lon="-3.31705">
        <ele>189.3</ele>
        <time>2024-11-20T10:21:26Z</time>
      </trkpt>
      <trkpt lat="48.12577" lon="-3.31706">
        <ele>189.3</ele>
        <time>2024-11-20T10:21:27Z</time>
      </trkpt>
      <trkpt lat="48.12578" lon="-3.31707">
        <ele>189.3</ele>
        <time>2024-11-20T10:21:28Z</time>
      </trkpt>
      <trkpt lat="48.12579" lon="-3.31708">
        <ele>189.4</ele>
        <time>2024-11-20T10:21:29Z</time>
      </trkpt>
      <trkpt lat="48.1258" lon="-3.31709">
        <ele>189.5</ele>
        <time>2024-11-20T10:21:30Z</time>
      </trkpt>
      <trkpt lat="48.12581" lon="-3.31711">
        <ele>189.5</ele>
        <time>2024-11-20T10:21:31Z</time>
      </trkpt>
      <trkpt lat="48.12582" lon="-3.31712">
        <ele>189.6</ele>
        <time>2024-11-20T10:21:32Z</time>
      </trkpt>
      <trkpt lat="48.12583" lon="-3.31712">
        <ele>189.6</ele>
        <time>2024-11-20T10:21:33Z</time>
      </trkpt>
      <trkpt lat="48.12584" lon="-3.31712">
        <ele>189.7</ele>
        <time>2024-11-20T10:21:34Z</time>
      </trkpt>
      <trkpt lat="48.12585" lon="-3.31713">
        <ele>189.7</ele>
        <time>2024-11-20T10:21:35Z</time>
      </trkpt>
      <trkpt lat="48.12586" lon="-3.31714">
        <ele>189.7</ele>
        <time>2024-11-20T10:21:36Z</time>
      </trkpt>
      <trkpt lat="48.12588" lon="-3.31715">
        <ele>189.8</ele>
        <time>2024-11-20T10:21:37Z</time>
      </trkpt>
      <trkpt lat="48.12589" lon="-3.31715">
        <ele>189.8</ele>
        <time>2024-11-20T10:21:38Z</time>
      </trkpt>
      <trkpt lat="48.1259" lon="-3.31716">
        <ele>189.8</ele>
        <time>2024-11-20T10:21:39Z</time>
      </trkpt>
      <trkpt lat="48.12591" lon="-3.31717">
        <ele>189.9</ele>
        <time>2024-11-20T10:21:40Z</time>
      </trkpt>
      <trkpt lat="48.12592" lon="-3.31718">
        <ele>189.9</ele>
        <time>2024-11-20T10:21:41Z</time>
      </trkpt>
      <trkpt lat="48.12593" lon="-3.31718">
        <ele>189.9</ele>
        <time>2024-11-20T10:21:42Z</time>
      </trkpt>
      <trkpt lat="48.12594" lon="-3.31719">
        <ele>189.9</ele>
        <time>2024-11-20T10:21:43Z</time>
      </trkpt>
      <trkpt lat="48.12595" lon="-3.3172">
        <ele>189.9</ele>
        <time>2024-11-20T10:21:44Z</time>
      </trkpt>
      <trkpt lat="48.12596" lon="-3.31721">
        <ele>190</ele>
        <time>2024-11-20T10:21:45Z</time>
      </trkpt>
      <trkpt lat="48.12597" lon="-3.31722">
        <ele>190</ele>
        <time>2024-11-20T10:21:46Z</time>
      </trkpt>
      <trkpt lat="48.12599" lon="-3.31723">
        <ele>190</ele>
        <time>2024-11-20T10:21:47Z</time>
      </trkpt>
      <trkpt lat="48.126" lon="-3.31724">
        <ele>190</ele>
        <time>2024-11-20T10:21:48Z</time>
      </trkpt>
      <trkpt lat="48.12601" lon="-3.31724">
        <ele>190</ele>
        <time>2024-11-20T10:21:49Z</time>
      </trkpt>
      <trkpt lat="48.12602" lon="-3.31725">
        <ele>190.1</ele>
        <time>2024-11-20T10:21:50Z</time>
      </trkpt>
      <trkpt lat="48.12604" lon="-3.31726">
        <ele>190.1</ele>
        <time>2024-11-20T10:21:51Z</time>
      </trkpt>
      <trkpt lat="48.12605" lon="-3.31727">
        <ele>190.1</ele>
        <time>2024-11-20T10:21:52Z</time>
      </trkpt>
      <trkpt lat="48.12606" lon="-3.31728">
        <ele>190.2</ele>
        <time>2024-11-20T10:21:53Z</time>
      </trkpt>
      <trkpt lat="48.12607" lon="-3.31729">
        <ele>190.2</ele>
        <time>2024-11-20T10:21:54Z</time>
      </trkpt>
      <trkpt lat="48.12608" lon="-3.31731">
        <ele>190.3</ele>
        <time>2024-11-20T10:21:55Z</time>
      </trkpt>
      <trkpt lat="48.12608" lon="-3.31732">
        <ele>190.3</ele>
        <time>2024-11-20T10:21:56Z</time>
      </trkpt>
      <trkpt lat="48.12609" lon="-3.31733">
        <ele>190.4</ele>
        <time>2024-11-20T10:21:57Z</time>
      </trkpt>
      <trkpt lat="48.1261" lon="-3.31735">
        <ele>190.4</ele>
        <time>2024-11-20T10:21:58Z</time>
      </trkpt>
      <trkpt lat="48.12611" lon="-3.31736">
        <ele>190.5</ele>
        <time>2024-11-20T10:21:59Z</time>
      </trkpt>
      <trkpt lat="48.12612" lon="-3.31737">
        <ele>190.5</ele>
        <time>2024-11-20T10:22:00Z</time>
      </trkpt>
      <trkpt lat="48.12613" lon="-3.31738">
        <ele>190.6</ele>
        <time>2024-11-20T10:22:01Z</time>
      </trkpt>
      <trkpt lat="48.12614" lon="-3.31739">
        <ele>190.6</ele>
        <time>2024-11-20T10:22:02Z</time>
      </trkpt>
      <trkpt lat="48.12615" lon="-3.3174">
        <ele>190.7</ele>
        <time>2024-11-20T10:22:03Z</time>
      </trkpt>
      <trkpt lat="48.12616" lon="-3.31741">
        <ele>190.7</ele>
        <time>2024-11-20T10:22:04Z</time>
      </trkpt>
      <trkpt lat="48.12617" lon="-3.31742">
        <ele>190.8</ele>
        <time>2024-11-20T10:22:05Z</time>
      </trkpt>
      <trkpt lat="48.12619" lon="-3.31743">
        <ele>190.8</ele>
        <time>2024-11-20T10:22:06Z</time>
      </trkpt>
      <trkpt lat="48.1262" lon="-3.31744">
        <ele>190.8</ele>
        <time>2024-11-20T10:22:07Z</time>
      </trkpt>
      <trkpt lat="48.12621" lon="-3.31744">
        <ele>190.9</ele>
        <time>2024-11-20T10:22:08Z</time>
      </trkpt>
      <trkpt lat="48.12622" lon="-3.31745">
        <ele>190.9</ele>
        <time>2024-11-20T10:22:09Z</time>
      </trkpt>
      <trkpt lat="48.12623" lon="-3.31745">
        <ele>190.9</ele>
        <time>2024-11-20T10:22:10Z</time>
      </trkpt>
      <trkpt lat="48.12624" lon="-3.31746">
        <ele>190.9</ele>
        <time>2024-11-20T10:22:11Z</time>
      </trkpt>
      <trkpt lat="48.12625" lon="-3.31747">
        <ele>190.9</ele>
        <time>2024-11-20T10:22:12Z</time>
      </trkpt>
      <trkpt lat="48.12626" lon="-3.31748">
        <ele>191</ele>
        <time>2024-11-20T10:22:13Z</time>
      </trkpt>
      <trkpt lat="48.12627" lon="-3.31749">
        <ele>191</ele>
        <time>2024-11-20T10:22:14Z</time>
      </trkpt>
      <trkpt lat="48.12628" lon="-3.3175">
        <ele>191</ele>
        <time>2024-11-20T10:22:15Z</time>
      </trkpt>
      <trkpt lat="48.12629" lon="-3.3175">
        <ele>191</ele>
        <time>2024-11-20T10:22:16Z</time>
      </trkpt>
      <trkpt lat="48.1263" lon="-3.3175">
        <ele>191</ele>
        <time>2024-11-20T10:22:17Z</time>
      </trkpt>
      <trkpt lat="48.12631" lon="-3.31751">
        <ele>191</ele>
        <time>2024-11-20T10:22:18Z</time>
      </trkpt>
      <trkpt lat="48.12632" lon="-3.31752">
        <ele>191</ele>
        <time>2024-11-20T10:22:19Z</time>
      </trkpt>
      <trkpt lat="48.12633" lon="-3.31753">
        <ele>191</ele>
        <time>2024-11-20T10:22:20Z</time>
      </trkpt>
      <trkpt lat="48.12634" lon="-3.31754">
        <ele>191</ele>
        <time>2024-11-20T10:22:21Z</time>
      </trkpt>
      <trkpt lat="48.12635" lon="-3.31754">
        <ele>191</ele>
        <time>2024-11-20T10:22:22Z</time>
      </trkpt>
      <trkpt lat="48.12636" lon="-3.31755">
        <ele>191</ele>
        <time>2024-11-20T10:22:23Z</time>
      </trkpt>
      <trkpt lat="48.12637" lon="-3.31755">
        <ele>191</ele>
        <time>2024-11-20T10:22:24Z</time>
      </trkpt>
      <trkpt lat="48.12638" lon="-3.31754">
        <ele>191</ele>
        <time>2024-11-20T10:22:25Z</time>
      </trkpt>
      <trkpt lat="48.12639" lon="-3.31754">
        <ele>191</ele>
        <time>2024-11-20T10:22:26Z</time>
      </trkpt>
      <trkpt lat="48.1264" lon="-3.31753">
        <ele>191</ele>
        <time>2024-11-20T10:22:27Z</time>
      </trkpt>
      <trkpt lat="48.12642" lon="-3.31753">
        <ele>191.1</ele>
        <time>2024-11-20T10:22:28Z</time>
      </trkpt>
      <trkpt lat="48.12643" lon="-3.31753">
        <ele>191.1</ele>
        <time>2024-11-20T10:22:29Z</time>
      </trkpt>
      <trkpt lat="48.12644" lon="-3.31753">
        <ele>191.2</ele>
        <time>2024-11-20T10:22:30Z</time>
      </trkpt>
      <trkpt lat="48.12645" lon="-3.31753">
        <ele>191.2</ele>
        <time>2024-11-20T10:22:31Z</time>
      </trkpt>
      <trkpt lat="48.12647" lon="-3.31752">
        <ele>191.3</ele>
        <time>2024-11-20T10:22:32Z</time>
      </trkpt>
      <trkpt lat="48.12648" lon="-3.31752">
        <ele>191.3</ele>
        <time>2024-11-20T10:22:33Z</time>
      </trkpt>
      <trkpt lat="48.12649" lon="-3.31752">
        <ele>191.4</ele>
        <time>2024-11-20T10:22:34Z</time>
      </trkpt>
      <trkpt lat="48.1265" lon="-3.31751">
        <ele>191.4</ele>
        <time>2024-11-20T10:22:35Z</time>
      </trkpt>
      <trkpt lat="48.12652" lon="-3.3175">
        <ele>191.5</ele>
        <time>2024-11-20T10:22:36Z</time>
      </trkpt>
      <trkpt lat="48.12653" lon="-3.31749">
        <ele>191.5</ele>
        <time>2024-11-20T10:22:37Z</time>
      </trkpt>
      <trkpt lat="48.12655" lon="-3.31749">
        <ele>191.6</ele>
        <time>2024-11-20T10:22:38Z</time>
      </trkpt>
      <trkpt lat="48.12656" lon="-3.31749">
        <ele>191.6</ele>
        <time>2024-11-20T10:22:39Z</time>
      </trkpt>
      <trkpt lat="48.12657" lon="-3.3175">
        <ele>191.7</ele>
        <time>2024-11-20T10:22:40Z</time>
      </trkpt>
      <trkpt lat="48.12658" lon="-3.3175">
        <ele>191.7</ele>
        <time>2024-11-20T10:22:41Z</time>
      </trkpt>
      <trkpt lat="48.12659" lon="-3.31751">
        <ele>191.7</ele>
        <time>2024-11-20T10:22:42Z</time>
      </trkpt>
      <trkpt lat="48.1266" lon="-3.31751">
        <ele>191.8</ele>
        <time>2024-11-20T10:22:43Z</time>
      </trkpt>
      <trkpt lat="48.12661" lon="-3.31751">
        <ele>191.8</ele>
        <time>2024-11-20T10:22:44Z</time>
      </trkpt>
      <trkpt lat="48.12662" lon="-3.31751">
        <ele>191.8</ele>
        <time>2024-11-20T10:22:45Z</time>
      </trkpt>
      <trkpt lat="48.12663" lon="-3.31751">
        <ele>191.9</ele>
        <time>2024-11-20T10:22:46Z</time>
      </trkpt>
      <trkpt lat="48.12665" lon="-3.31751">
        <ele>191.9</ele>
        <time>2024-11-20T10:22:47Z</time>
      </trkpt>
      <trkpt lat="48.12665" lon="-3.31752">
        <ele>191.9</ele>
        <time>2024-11-20T10:22:48Z</time>
      </trkpt>
      <trkpt lat="48.12665" lon="-3.31752">
        <ele>192</ele>
        <time>2024-11-20T10:22:49Z</time>
      </trkpt>
      <trkpt lat="48.12666" lon="-3.31752">
        <ele>192</ele>
        <time>2024-11-20T10:22:50Z</time>
      </trkpt>
      <trkpt lat="48.12668" lon="-3.31752">
        <ele>192.1</ele>
        <time>2024-11-20T10:22:51Z</time>
      </trkpt>
      <trkpt lat="48.12669" lon="-3.31752">
        <ele>192.1</ele>
        <time>2024-11-20T10:22:52Z</time>
      </trkpt>
      <trkpt lat="48.12669" lon="-3.31753">
        <ele>192.2</ele>
        <time>2024-11-20T10:22:53Z</time>
      </trkpt>
      <trkpt lat="48.1267" lon="-3.31753">
        <ele>192.2</ele>
        <time>2024-11-20T10:22:54Z</time>
      </trkpt>
      <trkpt lat="48.12671" lon="-3.31753">
        <ele>192.3</ele>
        <time>2024-11-20T10:22:55Z</time>
      </trkpt>
      <trkpt lat="48.12672" lon="-3.31754">
        <ele>192.4</ele>
        <time>2024-11-20T10:22:56Z</time>
      </trkpt>
      <trkpt lat="48.12674" lon="-3.31754">
        <ele>192.5</ele>
        <time>2024-11-20T10:22:57Z</time>
      </trkpt>
      <trkpt lat="48.12675" lon="-3.31755">
        <ele>192.5</ele>
        <time>2024-11-20T10:22:58Z</time>
      </trkpt>
      <trkpt lat="48.12676" lon="-3.31755">
        <ele>192.6</ele>
        <time>2024-11-20T10:22:59Z</time>
      </trkpt>
      <trkpt lat="48.12677" lon="-3.31756">
        <ele>192.7</ele>
        <time>2024-11-20T10:23:00Z</time>
      </trkpt>
      <trkpt lat="48.12678" lon="-3.31756">
        <ele>192.7</ele>
        <time>2024-11-20T10:23:01Z</time>
      </trkpt>
      <trkpt lat="48.12679" lon="-3.31756">
        <ele>192.8</ele>
        <time>2024-11-20T10:23:02Z</time>
      </trkpt>
      <trkpt lat="48.1268" lon="-3.31757">
        <ele>192.8</ele>
        <time>2024-11-20T10:23:03Z</time>
      </trkpt>
      <trkpt lat="48.12681" lon="-3.31757">
        <ele>192.9</ele>
        <time>2024-11-20T10:23:04Z</time>
      </trkpt>
      <trkpt lat="48.12682" lon="-3.31758">
        <ele>192.9</ele>
        <time>2024-11-20T10:23:05Z</time>
      </trkpt>
      <trkpt lat="48.12683" lon="-3.31758">
        <ele>193</ele>
        <time>2024-11-20T10:23:06Z</time>
      </trkpt>
      <trkpt lat="48.12683" lon="-3.31759">
        <ele>193</ele>
        <time>2024-11-20T10:23:07Z</time>
      </trkpt>
      <trkpt lat="48.12685" lon="-3.31759">
        <ele>193.1</ele>
        <time>2024-11-20T10:23:08Z</time>
      </trkpt>
      <trkpt lat="48.12686" lon="-3.3176">
        <ele>193.2</ele>
        <time>2024-11-20T10:23:09Z</time>
      </trkpt>
      <trkpt lat="48.12687" lon="-3.31761">
        <ele>193.2</ele>
        <time>2024-11-20T10:23:10Z</time>
      </trkpt>
      <trkpt lat="48.12688" lon="-3.31761">
        <ele>193.2</ele>
        <time>2024-11-20T10:23:11Z</time>
      </trkpt>
      <trkpt lat="48.12689" lon="-3.31762">
        <ele>193.3</ele>
        <time>2024-11-20T10:23:12Z</time>
      </trkpt>
      <trkpt lat="48.1269" lon="-3.31763">
        <ele>193.3</ele>
        <time>2024-11-20T10:23:13Z</time>
      </trkpt>
      <trkpt lat="48.1269" lon="-3.31763">
        <ele>193.3</ele>
        <time>2024-11-20T10:23:14Z</time>
      </trkpt>
      <trkpt lat="48.12691" lon="-3.31763">
        <ele>193.3</ele>
        <time>2024-11-20T10:23:15Z</time>
      </trkpt>
      <trkpt lat="48.12692" lon="-3.31763">
        <ele>193.4</ele>
        <time>2024-11-20T10:23:16Z</time>
      </trkpt>
      <trkpt lat="48.12693" lon="-3.31764">
        <ele>193.4</ele>
        <time>2024-11-20T10:23:17Z</time>
      </trkpt>
      <trkpt lat="48.12695" lon="-3.31764">
        <ele>193.5</ele>
        <time>2024-11-20T10:23:18Z</time>
      </trkpt>
      <trkpt lat="48.12697" lon="-3.31764">
        <ele>193.7</ele>
        <time>2024-11-20T10:23:19Z</time>
      </trkpt>
      <trkpt lat="48.12699" lon="-3.31764">
        <ele>193.9</ele>
        <time>2024-11-20T10:23:20Z</time>
      </trkpt>
      <trkpt lat="48.127" lon="-3.31764">
        <ele>194</ele>
        <time>2024-11-20T10:23:21Z</time>
      </trkpt>
      <trkpt lat="48.12701" lon="-3.31764">
        <ele>194.1</ele>
        <time>2024-11-20T10:23:22Z</time>
      </trkpt>
      <trkpt lat="48.12702" lon="-3.31763">
        <ele>194.2</ele>
        <time>2024-11-20T10:23:23Z</time>
      </trkpt>
      <trkpt lat="48.12703" lon="-3.31763">
        <ele>194.3</ele>
        <time>2024-11-20T10:23:24Z</time>
      </trkpt>
      <trkpt lat="48.12704" lon="-3.31763">
        <ele>194.4</ele>
        <time>2024-11-20T10:23:25Z</time>
      </trkpt>
      <trkpt lat="48.12704" lon="-3.31763">
        <ele>194.4</ele>
        <time>2024-11-20T10:23:26Z</time>
      </trkpt>
      <trkpt lat="48.12705" lon="-3.31763">
        <ele>194.5</ele>
        <time>2024-11-20T10:23:27Z</time>
      </trkpt>
      <trkpt lat="48.12707" lon="-3.31763">
        <ele>194.7</ele>
        <time>2024-11-20T10:23:28Z</time>
      </trkpt>
      <trkpt lat="48.12708" lon="-3.31763">
        <ele>194.8</ele>
        <time>2024-11-20T10:23:29Z</time>
      </trkpt>
      <trkpt lat="48.12709" lon="-3.31762">
        <ele>194.9</ele>
        <time>2024-11-20T10:23:30Z</time>
      </trkpt>
      <trkpt lat="48.1271" lon="-3.31763">
        <ele>195</ele>
        <time>2024-11-20T10:23:31Z</time>
      </trkpt>
      <trkpt lat="48.12711" lon="-3.31763">
        <ele>195</ele>
        <time>2024-11-20T10:23:32Z</time>
      </trkpt>
      <trkpt lat="48.12712" lon="-3.31763">
        <ele>195.1</ele>
        <time>2024-11-20T10:23:33Z</time>
      </trkpt>
      <trkpt lat="48.12713" lon="-3.31764">
        <ele>195.1</ele>
        <time>2024-11-20T10:23:34Z</time>
      </trkpt>
      <trkpt lat="48.12713" lon="-3.31764">
        <ele>195.2</ele>
        <time>2024-11-20T10:23:35Z</time>
      </trkpt>
      <trkpt lat="48.12714" lon="-3.31764">
        <ele>195.2</ele>
        <time>2024-11-20T10:23:36Z</time>
      </trkpt>
      <trkpt lat="48.12716" lon="-3.31764">
        <ele>195.4</ele>
        <time>2024-11-20T10:23:37Z</time>
      </trkpt>
      <trkpt lat="48.12716" lon="-3.31765">
        <ele>195.4</ele>
        <time>2024-11-20T10:23:38Z</time>
      </trkpt>
      <trkpt lat="48.12717" lon="-3.31766">
        <ele>195.4</ele>
        <time>2024-11-20T10:23:39Z</time>
      </trkpt>
      <trkpt lat="48.12718" lon="-3.31766">
        <ele>195.4</ele>
        <time>2024-11-20T10:23:40Z</time>
      </trkpt>
      <trkpt lat="48.12719" lon="-3.31767">
        <ele>195.5</ele>
        <time>2024-11-20T10:23:41Z</time>
      </trkpt>
      <trkpt lat="48.12721" lon="-3.31768">
        <ele>195.6</ele>
        <time>2024-11-20T10:23:42Z</time>
      </trkpt>
      <trkpt lat="48.12722" lon="-3.31769">
        <ele>195.6</ele>
        <time>2024-11-20T10:23:43Z</time>
      </trkpt>
      <trkpt lat="48.12724" lon="-3.31769">
        <ele>195.7</ele>
        <time>2024-11-20T10:23:44Z</time>
      </trkpt>
      <trkpt lat="48.12725" lon="-3.3177">
        <ele>195.8</ele>
        <time>2024-11-20T10:23:45Z</time>
      </trkpt>
      <trkpt lat="48.12726" lon="-3.3177">
        <ele>195.9</ele>
        <time>2024-11-20T10:23:46Z</time>
      </trkpt>
      <trkpt lat="48.12726" lon="-3.3177">
        <ele>196</ele>
        <time>2024-11-20T10:23:47Z</time>
      </trkpt>
      <trkpt lat="48.12727" lon="-3.3177">
        <ele>196</ele>
        <time>2024-11-20T10:23:48Z</time>
      </trkpt>
      <trkpt lat="48.12727" lon="-3.3177">
        <ele>196</ele>
        <time>2024-11-20T10:23:49Z</time>
      </trkpt>
      <trkpt lat="48.12728" lon="-3.3177">
        <ele>196.1</ele>
        <time>2024-11-20T10:23:50Z</time>
      </trkpt>
      <trkpt lat="48.12729" lon="-3.3177">
        <ele>196.2</ele>
        <time>2024-11-20T10:23:51Z</time>
      </trkpt>
      <trkpt lat="48.1273" lon="-3.31771">
        <ele>196.2</ele>
        <time>2024-11-20T10:23:52Z</time>
      </trkpt>
      <trkpt lat="48.12732" lon="-3.31771">
        <ele>196.3</ele>
        <time>2024-11-20T10:23:53Z</time>
      </trkpt>
      <trkpt lat="48.12733" lon="-3.31771">
        <ele>196.4</ele>
        <time>2024-11-20T10:23:54Z</time>
      </trkpt>
      <trkpt lat="48.12733" lon="-3.31772">
        <ele>196.4</ele>
        <time>2024-11-20T10:23:55Z</time>
      </trkpt>
      <trkpt lat="48.12735" lon="-3.31773">
        <ele>196.4</ele>
        <time>2024-11-20T10:23:56Z</time>
      </trkpt>
      <trkpt lat="48.12736" lon="-3.31773">
        <ele>196.5</ele>
        <time>2024-11-20T10:23:57Z</time>
      </trkpt>
      <trkpt lat="48.12738" lon="-3.31774">
        <ele>196.6</ele>
        <time>2024-11-20T10:23:58Z</time>
      </trkpt>
      <trkpt lat="48.12738" lon="-3.31774">
        <ele>196.6</ele>
        <time>2024-11-20T10:23:59Z</time>
      </trkpt>
      <trkpt lat="48.12739" lon="-3.31774">
        <ele>196.6</ele>
        <time>2024-11-20T10:24:00Z</time>
      </trkpt>
      <trkpt lat="48.1274" lon="-3.31775">
        <ele>196.6</ele>
        <time>2024-11-20T10:24:01Z</time>
      </trkpt>
      <trkpt lat="48.1274" lon="-3.31775">
        <ele>196.6</ele>
        <time>2024-11-20T10:24:02Z</time>
      </trkpt>
      <trkpt lat="48.12741" lon="-3.31776">
        <ele>196.6</ele>
        <time>2024-11-20T10:24:03Z</time>
      </trkpt>
      <trkpt lat="48.12742" lon="-3.31777">
        <ele>196.5</ele>
        <time>2024-11-20T10:24:04Z</time>
      </trkpt>
      <trkpt lat="48.12742" lon="-3.31778">
        <ele>196.4</ele>
        <time>2024-11-20T10:24:05Z</time>
      </trkpt>
      <trkpt lat="48.12743" lon="-3.31779">
        <ele>196.4</ele>
        <time>2024-11-20T10:24:06Z</time>
      </trkpt>
      <trkpt lat="48.12743" lon="-3.31779">
        <ele>196.4</ele>
        <time>2024-11-20T10:24:07Z</time>
      </trkpt>
      <trkpt lat="48.12744" lon="-3.3178">
        <ele>196.4</ele>
        <time>2024-11-20T10:24:08Z</time>
      </trkpt>
      <trkpt lat="48.12744" lon="-3.3178">
        <ele>196.4</ele>
        <time>2024-11-20T10:24:09Z</time>
      </trkpt>
      <trkpt lat="48.12744" lon="-3.3178">
        <ele>196.5</ele>
        <time>2024-11-20T10:24:10Z</time>
      </trkpt>
      <trkpt lat="48.12745" lon="-3.3178">
        <ele>196.5</ele>
        <time>2024-11-20T10:24:11Z</time>
      </trkpt>
      <trkpt lat="48.12747" lon="-3.31781">
        <ele>196.6</ele>
        <time>2024-11-20T10:24:12Z</time>
      </trkpt>
      <trkpt lat="48.12748" lon="-3.31781">
        <ele>196.6</ele>
        <time>2024-11-20T10:24:13Z</time>
      </trkpt>
      <trkpt lat="48.12749" lon="-3.31782">
        <ele>196.6</ele>
        <time>2024-11-20T10:24:14Z</time>
      </trkpt>
      <trkpt lat="48.12751" lon="-3.31783">
        <ele>196.7</ele>
        <time>2024-11-20T10:24:15Z</time>
      </trkpt>
      <trkpt lat="48.12752" lon="-3.31784">
        <ele>196.8</ele>
        <time>2024-11-20T10:24:16Z</time>
      </trkpt>
      <trkpt lat="48.12753" lon="-3.31786">
        <ele>196.9</ele>
        <time>2024-11-20T10:24:17Z</time>
      </trkpt>
      <trkpt lat="48.12753" lon="-3.31786">
        <ele>197</ele>
        <time>2024-11-20T10:24:18Z</time>
      </trkpt>
      <trkpt lat="48.12754" lon="-3.31787">
        <ele>197.1</ele>
        <time>2024-11-20T10:24:19Z</time>
      </trkpt>
      <trkpt lat="48.12755" lon="-3.31788">
        <ele>197.2</ele>
        <time>2024-11-20T10:24:20Z</time>
      </trkpt>
      <trkpt lat="48.12756" lon="-3.31788">
        <ele>197.3</ele>
        <time>2024-11-20T10:24:21Z</time>
      </trkpt>
      <trkpt lat="48.12757" lon="-3.31789">
        <ele>197.4</ele>
        <time>2024-11-20T10:24:22Z</time>
      </trkpt>
      <trkpt lat="48.12758" lon="-3.31789">
        <ele>197.5</ele>
        <time>2024-11-20T10:24:23Z</time>
      </trkpt>
      <trkpt lat="48.12759" lon="-3.31791">
        <ele>197.6</ele>
        <time>2024-11-20T10:24:24Z</time>
      </trkpt>
      <trkpt lat="48.12761" lon="-3.31792">
        <ele>197.7</ele>
        <time>2024-11-20T10:24:25Z</time>
      </trkpt>
      <trkpt lat="48.12762" lon="-3.31793">
        <ele>197.8</ele>
        <time>2024-11-20T10:24:26Z</time>
      </trkpt>
      <trkpt lat="48.12763" lon="-3.31795">
        <ele>197.9</ele>
        <time>2024-11-20T10:24:27Z</time>
      </trkpt>
      <trkpt lat="48.12765" lon="-3.31796">
        <ele>197.9</ele>
        <time>2024-11-20T10:24:28Z</time>
      </trkpt>
      <trkpt lat="48.12765" lon="-3.31798">
        <ele>197.9</ele>
        <time>2024-11-20T10:24:29Z</time>
      </trkpt>
      <trkpt lat="48.12766" lon="-3.31798">
        <ele>198.1</ele>
        <time>2024-11-20T10:24:30Z</time>
      </trkpt>
      <trkpt lat="48.12768" lon="-3.31799">
        <ele>198.1</ele>
        <time>2024-11-20T10:24:31Z</time>
      </trkpt>
      <trkpt lat="48.12769" lon="-3.31801">
        <ele>198.1</ele>
        <time>2024-11-20T10:24:32Z</time>
      </trkpt>
      <trkpt lat="48.12769" lon="-3.31803">
        <ele>198.1</ele>
        <time>2024-11-20T10:24:33Z</time>
      </trkpt>
      <trkpt lat="48.1277" lon="-3.31805">
        <ele>198</ele>
        <time>2024-11-20T10:24:34Z</time>
      </trkpt>
      <trkpt lat="48.12771" lon="-3.31806">
        <ele>198</ele>
        <time>2024-11-20T10:24:35Z</time>
      </trkpt>
      <trkpt lat="48.12772" lon="-3.31808">
        <ele>198</ele>
        <time>2024-11-20T10:24:36Z</time>
      </trkpt>
      <trkpt lat="48.12773" lon="-3.3181">
        <ele>198</ele>
        <time>2024-11-20T10:24:37Z</time>
      </trkpt>
      <trkpt lat="48.12774" lon="-3.31812">
        <ele>198.1</ele>
        <time>2024-11-20T10:24:38Z</time>
      </trkpt>
      <trkpt lat="48.12775" lon="-3.31813">
        <ele>198.1</ele>
        <time>2024-11-20T10:24:39Z</time>
      </trkpt>
      <trkpt lat="48.12776" lon="-3.31815">
        <ele>198.1</ele>
        <time>2024-11-20T10:24:40Z</time>
      </trkpt>
      <trkpt lat="48.12777" lon="-3.31817">
        <ele>198.1</ele>
        <time>2024-11-20T10:24:41Z</time>
      </trkpt>
      <trkpt lat="48.12778" lon="-3.31818">
        <ele>198.1</ele>
        <time>2024-11-20T10:24:42Z</time>
      </trkpt>
      <trkpt lat="48.12778" lon="-3.31819">
        <ele>198.1</ele>
        <time>2024-11-20T10:24:43Z</time>
      </trkpt>
      <trkpt lat="48.1278" lon="-3.3182">
        <ele>198.4</ele>
        <time>2024-11-20T10:24:44Z</time>
      </trkpt>
      <trkpt lat="48.12781" lon="-3.31819">
        <ele>198.7</ele>
        <time>2024-11-20T10:24:45Z</time>
      </trkpt>
      <trkpt lat="48.12783" lon="-3.31819">
        <ele>199</ele>
        <time>2024-11-20T10:24:46Z</time>
      </trkpt>
      <trkpt lat="48.12784" lon="-3.3182">
        <ele>199.1</ele>
        <time>2024-11-20T10:24:47Z</time>
      </trkpt>
      <trkpt lat="48.12784" lon="-3.31821">
        <ele>199.2</ele>
        <time>2024-11-20T10:24:48Z</time>
      </trkpt>
      <trkpt lat="48.12785" lon="-3.31822">
        <ele>199.2</ele>
        <time>2024-11-20T10:24:49Z</time>
      </trkpt>
      <trkpt lat="48.12785" lon="-3.31824">
        <ele>199.1</ele>
        <time>2024-11-20T10:24:50Z</time>
      </trkpt>
      <trkpt lat="48.12786" lon="-3.31826">
        <ele>199.1</ele>
        <time>2024-11-20T10:24:51Z</time>
      </trkpt>
      <trkpt lat="48.12787" lon="-3.31827">
        <ele>199.2</ele>
        <time>2024-11-20T10:24:52Z</time>
      </trkpt>
      <trkpt lat="48.12788" lon="-3.31829">
        <ele>199.2</ele>
        <time>2024-11-20T10:24:53Z</time>
      </trkpt>
      <trkpt lat="48.12788" lon="-3.3183">
        <ele>199.1</ele>
        <time>2024-11-20T10:24:54Z</time>
      </trkpt>
      <trkpt lat="48.12789" lon="-3.31832">
        <ele>199.1</ele>
        <time>2024-11-20T10:24:55Z</time>
      </trkpt>
      <trkpt lat="48.1279" lon="-3.31834">
        <ele>199.1</ele>
        <time>2024-11-20T10:24:56Z</time>
      </trkpt>
      <trkpt lat="48.12791" lon="-3.31835">
        <ele>199.1</ele>
        <time>2024-11-20T10:24:57Z</time>
      </trkpt>
      <trkpt lat="48.12791" lon="-3.31837">
        <ele>199.2</ele>
        <time>2024-11-20T10:24:58Z</time>
      </trkpt>
      <trkpt lat="48.12792" lon="-3.31839">
        <ele>199.2</ele>
        <time>2024-11-20T10:24:59Z</time>
      </trkpt>
      <trkpt lat="48.12793" lon="-3.31841">
        <ele>199.2</ele>
        <time>2024-11-20T10:25:00Z</time>
      </trkpt>
      <trkpt lat="48.12794" lon="-3.31843">
        <ele>199.1</ele>
        <time>2024-11-20T10:25:01Z</time>
      </trkpt>
      <trkpt lat="48.12795" lon="-3.31845">
        <ele>199.1</ele>
        <time>2024-11-20T10:25:02Z</time>
      </trkpt>
      <trkpt lat="48.12795" lon="-3.31847">
        <ele>199.1</ele>
        <time>2024-11-20T10:25:03Z</time>
      </trkpt>
      <trkpt lat="48.12797" lon="-3.31848">
        <ele>199.1</ele>
        <time>2024-11-20T10:25:04Z</time>
      </trkpt>
      <trkpt lat="48.12798" lon="-3.3185">
        <ele>199.1</ele>
        <time>2024-11-20T10:25:05Z</time>
      </trkpt>
      <trkpt lat="48.12798" lon="-3.31851">
        <ele>199.1</ele>
        <time>2024-11-20T10:25:06Z</time>
      </trkpt>
      <trkpt lat="48.12799" lon="-3.31852">
        <ele>199.1</ele>
        <time>2024-11-20T10:25:07Z</time>
      </trkpt>
      <trkpt lat="48.128" lon="-3.31853">
        <ele>199.1</ele>
        <time>2024-11-20T10:25:08Z</time>
      </trkpt>
      <trkpt lat="48.12801" lon="-3.31855">
        <ele>199.1</ele>
        <time>2024-11-20T10:25:09Z</time>
      </trkpt>
      <trkpt lat="48.12802" lon="-3.31856">
        <ele>199.1</ele>
        <time>2024-11-20T10:25:10Z</time>
      </trkpt>
      <trkpt lat="48.12803" lon="-3.31857">
        <ele>199.1</ele>
        <time>2024-11-20T10:25:11Z</time>
      </trkpt>
      <trkpt lat="48.12803" lon="-3.31858">
        <ele>199.1</ele>
        <time>2024-11-20T10:25:12Z</time>
      </trkpt>
      <trkpt lat="48.12804" lon="-3.31859">
        <ele>199.1</ele>
        <time>2024-11-20T10:25:13Z</time>
      </trkpt>
      <trkpt lat="48.12806" lon="-3.31861">
        <ele>199</ele>
        <time>2024-11-20T10:25:14Z</time>
      </trkpt>
      <trkpt lat="48.12806" lon="-3.31863">
        <ele>199.2</ele>
        <time>2024-11-20T10:25:15Z</time>
      </trkpt>
      <trkpt lat="48.12807" lon="-3.31864">
        <ele>199.3</ele>
        <time>2024-11-20T10:25:16Z</time>
      </trkpt>
      <trkpt lat="48.12808" lon="-3.31866">
        <ele>199.5</ele>
        <time>2024-11-20T10:25:17Z</time>
      </trkpt>
      <trkpt lat="48.12809" lon="-3.31867">
        <ele>199.7</ele>
        <time>2024-11-20T10:25:18Z</time>
      </trkpt>
      <trkpt lat="48.1281" lon="-3.31868">
        <ele>199.9</ele>
        <time>2024-11-20T10:25:19Z</time>
      </trkpt>
      <trkpt lat="48.1281" lon="-3.31869">
        <ele>200</ele>
        <time>2024-11-20T10:25:20Z</time>
      </trkpt>
      <trkpt lat="48.12811" lon="-3.3187">
        <ele>200.1</ele>
        <time>2024-11-20T10:25:21Z</time>
      </trkpt>
      <trkpt lat="48.12811" lon="-3.31871">
        <ele>200.2</ele>
        <time>2024-11-20T10:25:22Z</time>
      </trkpt>
      <trkpt lat="48.12812" lon="-3.31872">
        <ele>200.3</ele>
        <time>2024-11-20T10:25:23Z</time>
      </trkpt>
      <trkpt lat="48.12813" lon="-3.31874">
        <ele>200.5</ele>
        <time>2024-11-20T10:25:24Z</time>
      </trkpt>
      <trkpt lat="48.12814" lon="-3.31875">
        <ele>200.6</ele>
        <time>2024-11-20T10:25:25Z</time>
      </trkpt>
      <trkpt lat="48.12815" lon="-3.31876">
        <ele>200.8</ele>
        <time>2024-11-20T10:25:26Z</time>
      </trkpt>
      <trkpt lat="48.12815" lon="-3.31877">
        <ele>200.8</ele>
        <time>2024-11-20T10:25:27Z</time>
      </trkpt>
      <trkpt lat="48.12815" lon="-3.31879">
        <ele>200.8</ele>
        <time>2024-11-20T10:25:28Z</time>
      </trkpt>
      <trkpt lat="48.12816" lon="-3.3188">
        <ele>200.7</ele>
        <time>2024-11-20T10:25:29Z</time>
      </trkpt>
      <trkpt lat="48.12816" lon="-3.31881">
        <ele>200.7</ele>
        <time>2024-11-20T10:25:30Z</time>
      </trkpt>
      <trkpt lat="48.12817" lon="-3.31882">
        <ele>200.8</ele>
        <time>2024-11-20T10:25:31Z</time>
      </trkpt>
      <trkpt lat="48.12818" lon="-3.31884">
        <ele>201</ele>
        <time>2024-11-20T10:25:32Z</time>
      </trkpt>
      <trkpt lat="48.12818" lon="-3.31885">
        <ele>201.1</ele>
        <time>2024-11-20T10:25:33Z</time>
      </trkpt>
      <trkpt lat="48.12819" lon="-3.31885">
        <ele>201.2</ele>
        <time>2024-11-20T10:25:34Z</time>
      </trkpt>
      <trkpt lat="48.1282" lon="-3.31886">
        <ele>201.3</ele>
        <time>2024-11-20T10:25:35Z</time>
      </trkpt>
      <trkpt lat="48.12821" lon="-3.31888">
        <ele>201.4</ele>
        <time>2024-11-20T10:25:36Z</time>
      </trkpt>
      <trkpt lat="48.12822" lon="-3.31889">
        <ele>201.5</ele>
        <time>2024-11-20T10:25:37Z</time>
      </trkpt>
      <trkpt lat="48.12823" lon="-3.31891">
        <ele>201.6</ele>
        <time>2024-11-20T10:25:38Z</time>
      </trkpt>
      <trkpt lat="48.12823" lon="-3.31892">
        <ele>201.5</ele>
        <time>2024-11-20T10:25:39Z</time>
      </trkpt>
      <trkpt lat="48.12824" lon="-3.31893">
        <ele>201.5</ele>
        <time>2024-11-20T10:25:40Z</time>
      </trkpt>
      <trkpt lat="48.12824" lon="-3.31895">
        <ele>201.5</ele>
        <time>2024-11-20T10:25:41Z</time>
      </trkpt>
      <trkpt lat="48.12825" lon="-3.31896">
        <ele>201.5</ele>
        <time>2024-11-20T10:25:42Z</time>
      </trkpt>
      <trkpt lat="48.12826" lon="-3.31897">
        <ele>201.6</ele>
        <time>2024-11-20T10:25:43Z</time>
      </trkpt>
      <trkpt lat="48.12827" lon="-3.31898">
        <ele>201.6</ele>
        <time>2024-11-20T10:25:44Z</time>
      </trkpt>
      <trkpt lat="48.12828" lon="-3.319">
        <ele>201.5</ele>
        <time>2024-11-20T10:25:45Z</time>
      </trkpt>
      <trkpt lat="48.12828" lon="-3.31901">
        <ele>201.5</ele>
        <time>2024-11-20T10:25:46Z</time>
      </trkpt>
      <trkpt lat="48.12829" lon="-3.31902">
        <ele>201.4</ele>
        <time>2024-11-20T10:25:47Z</time>
      </trkpt>
      <trkpt lat="48.12829" lon="-3.31904">
        <ele>201.3</ele>
        <time>2024-11-20T10:25:48Z</time>
      </trkpt>
      <trkpt lat="48.1283" lon="-3.31906">
        <ele>201.2</ele>
        <time>2024-11-20T10:25:49Z</time>
      </trkpt>
      <trkpt lat="48.12831" lon="-3.31907">
        <ele>201.1</ele>
        <time>2024-11-20T10:25:50Z</time>
      </trkpt>
      <trkpt lat="48.12832" lon="-3.31909">
        <ele>201</ele>
        <time>2024-11-20T10:25:51Z</time>
      </trkpt>
      <trkpt lat="48.12833" lon="-3.31911">
        <ele>200.8</ele>
        <time>2024-11-20T10:25:52Z</time>
      </trkpt>
      <trkpt lat="48.12833" lon="-3.31912">
        <ele>200.6</ele>
        <time>2024-11-20T10:25:53Z</time>
      </trkpt>
      <trkpt lat="48.12834" lon="-3.31914">
        <ele>200.5</ele>
        <time>2024-11-20T10:25:54Z</time>
      </trkpt>
      <trkpt lat="48.12835" lon="-3.31915">
        <ele>200.6</ele>
        <time>2024-11-20T10:25:55Z</time>
      </trkpt>
      <trkpt lat="48.12836" lon="-3.31916">
        <ele>200.7</ele>
        <time>2024-11-20T10:25:56Z</time>
      </trkpt>
      <trkpt lat="48.12837" lon="-3.31917">
        <ele>200.9</ele>
        <time>2024-11-20T10:25:57Z</time>
      </trkpt>
      <trkpt lat="48.12838" lon="-3.31918">
        <ele>201</ele>
        <time>2024-11-20T10:25:58Z</time>
      </trkpt>
      <trkpt lat="48.12838" lon="-3.31919">
        <ele>201.1</ele>
        <time>2024-11-20T10:25:59Z</time>
      </trkpt>
      <trkpt lat="48.12839" lon="-3.31921">
        <ele>201.3</ele>
        <time>2024-11-20T10:26:00Z</time>
      </trkpt>
      <trkpt lat="48.1284" lon="-3.31922">
        <ele>201.4</ele>
        <time>2024-11-20T10:26:01Z</time>
      </trkpt>
      <trkpt lat="48.12841" lon="-3.31924">
        <ele>201.5</ele>
        <time>2024-11-20T10:26:02Z</time>
      </trkpt>
      <trkpt lat="48.12843" lon="-3.31925">
        <ele>201.7</ele>
        <time>2024-11-20T10:26:03Z</time>
      </trkpt>
      <trkpt lat="48.12844" lon="-3.31926">
        <ele>201.8</ele>
        <time>2024-11-20T10:26:04Z</time>
      </trkpt>
      <trkpt lat="48.12845" lon="-3.31928">
        <ele>202</ele>
        <time>2024-11-20T10:26:05Z</time>
      </trkpt>
      <trkpt lat="48.12846" lon="-3.31929">
        <ele>202.2</ele>
        <time>2024-11-20T10:26:06Z</time>
      </trkpt>
      <trkpt lat="48.12848" lon="-3.31928">
        <ele>202.6</ele>
        <time>2024-11-20T10:26:07Z</time>
      </trkpt>
      <trkpt lat="48.1285" lon="-3.31928">
        <ele>203</ele>
        <time>2024-11-20T10:26:08Z</time>
      </trkpt>
      <trkpt lat="48.12851" lon="-3.31929">
        <ele>203.1</ele>
        <time>2024-11-20T10:26:09Z</time>
      </trkpt>
      <trkpt lat="48.12851" lon="-3.31929">
        <ele>203.2</ele>
        <time>2024-11-20T10:26:10Z</time>
      </trkpt>
      <trkpt lat="48.12852" lon="-3.31931">
        <ele>203.1</ele>
        <time>2024-11-20T10:26:11Z</time>
      </trkpt>
      <trkpt lat="48.12853" lon="-3.31933">
        <ele>203.1</ele>
        <time>2024-11-20T10:26:12Z</time>
      </trkpt>
      <trkpt lat="48.12854" lon="-3.31935">
        <ele>203</ele>
        <time>2024-11-20T10:26:13Z</time>
      </trkpt>
      <trkpt lat="48.12854" lon="-3.31938">
        <ele>202.8</ele>
        <time>2024-11-20T10:26:14Z</time>
      </trkpt>
      <trkpt lat="48.12855" lon="-3.3194">
        <ele>202.6</ele>
        <time>2024-11-20T10:26:15Z</time>
      </trkpt>
      <trkpt lat="48.12855" lon="-3.31943">
        <ele>202.3</ele>
        <time>2024-11-20T10:26:16Z</time>
      </trkpt>
      <trkpt lat="48.12856" lon="-3.31946">
        <ele>202.2</ele>
        <time>2024-11-20T10:26:17Z</time>
      </trkpt>
      <trkpt lat="48.12857" lon="-3.31948">
        <ele>202.2</ele>
        <time>2024-11-20T10:26:18Z</time>
      </trkpt>
      <trkpt lat="48.12858" lon="-3.31949">
        <ele>202.2</ele>
        <time>2024-11-20T10:26:19Z</time>
      </trkpt>
      <trkpt lat="48.12858" lon="-3.31949">
        <ele>202.3</ele>
        <time>2024-11-20T10:26:20Z</time>
      </trkpt>
      <trkpt lat="48.12859" lon="-3.31949">
        <ele>202.4</ele>
        <time>2024-11-20T10:26:21Z</time>
      </trkpt>
      <trkpt lat="48.1286" lon="-3.3195">
        <ele>202.5</ele>
        <time>2024-11-20T10:26:22Z</time>
      </trkpt>
      <trkpt lat="48.12861" lon="-3.3195">
        <ele>202.7</ele>
        <time>2024-11-20T10:26:23Z</time>
      </trkpt>
      <trkpt lat="48.12863" lon="-3.3195">
        <ele>203</ele>
        <time>2024-11-20T10:26:24Z</time>
      </trkpt>
      <trkpt lat="48.12864" lon="-3.3195">
        <ele>203.3</ele>
        <time>2024-11-20T10:26:25Z</time>
      </trkpt>
      <trkpt lat="48.12865" lon="-3.3195">
        <ele>203.5</ele>
        <time>2024-11-20T10:26:26Z</time>
      </trkpt>
      <trkpt lat="48.12866" lon="-3.31951">
        <ele>203.7</ele>
        <time>2024-11-20T10:26:27Z</time>
      </trkpt>
      <trkpt lat="48.12867" lon="-3.31952">
        <ele>203.9</ele>
        <time>2024-11-20T10:26:28Z</time>
      </trkpt>
      <trkpt lat="48.12868" lon="-3.31953">
        <ele>204.1</ele>
        <time>2024-11-20T10:26:29Z</time>
      </trkpt>
      <trkpt lat="48.12869" lon="-3.31954">
        <ele>204.2</ele>
        <time>2024-11-20T10:26:30Z</time>
      </trkpt>
      <trkpt lat="48.12869" lon="-3.31956">
        <ele>204.2</ele>
        <time>2024-11-20T10:26:31Z</time>
      </trkpt>
      <trkpt lat="48.1287" lon="-3.31958">
        <ele>204.1</ele>
        <time>2024-11-20T10:26:32Z</time>
      </trkpt>
      <trkpt lat="48.1287" lon="-3.3196">
        <ele>203.8</ele>
        <time>2024-11-20T10:26:33Z</time>
      </trkpt>
      <trkpt lat="48.1287" lon="-3.31963">
        <ele>203.6</ele>
        <time>2024-11-20T10:26:34Z</time>
      </trkpt>
      <trkpt lat="48.1287" lon="-3.31966">
        <ele>203.3</ele>
        <time>2024-11-20T10:26:35Z</time>
      </trkpt>
      <trkpt lat="48.12871" lon="-3.31968">
        <ele>203.2</ele>
        <time>2024-11-20T10:26:36Z</time>
      </trkpt>
      <trkpt lat="48.12871" lon="-3.3197">
        <ele>203.1</ele>
        <time>2024-11-20T10:26:37Z</time>
      </trkpt>
      <trkpt lat="48.12872" lon="-3.31972">
        <ele>203</ele>
        <time>2024-11-20T10:26:38Z</time>
      </trkpt>
      <trkpt lat="48.12872" lon="-3.31973">
        <ele>202.9</ele>
        <time>2024-11-20T10:26:39Z</time>
      </trkpt>
      <trkpt lat="48.12873" lon="-3.31975">
        <ele>202.9</ele>
        <time>2024-11-20T10:26:40Z</time>
      </trkpt>
      <trkpt lat="48.12873" lon="-3.31977">
        <ele>202.8</ele>
        <time>2024-11-20T10:26:41Z</time>
      </trkpt>
      <trkpt lat="48.12873" lon="-3.31978">
        <ele>202.7</ele>
        <time>2024-11-20T10:26:42Z</time>
      </trkpt>
      <trkpt lat="48.12873" lon="-3.31979">
        <ele>202.7</ele>
        <time>2024-11-20T10:26:43Z</time>
      </trkpt>
      <trkpt lat="48.12874" lon="-3.31981">
        <ele>202.7</ele>
        <time>2024-11-20T10:26:44Z</time>
      </trkpt>
      <trkpt lat="48.12874" lon="-3.31982">
        <ele>202.6</ele>
        <time>2024-11-20T10:26:45Z</time>
      </trkpt>
      <trkpt lat="48.12874" lon="-3.31984">
        <ele>202.6</ele>
        <time>2024-11-20T10:26:46Z</time>
      </trkpt>
      <trkpt lat="48.12875" lon="-3.31986">
        <ele>202.5</ele>
        <time>2024-11-20T10:26:47Z</time>
      </trkpt>
      <trkpt lat="48.12876" lon="-3.31988">
        <ele>202.5</ele>
        <time>2024-11-20T10:26:48Z</time>
      </trkpt>
      <trkpt lat="48.12876" lon="-3.31989">
        <ele>202.4</ele>
        <time>2024-11-20T10:26:49Z</time>
      </trkpt>
      <trkpt lat="48.12877" lon="-3.31991">
        <ele>202.4</ele>
        <time>2024-11-20T10:26:50Z</time>
      </trkpt>
      <trkpt lat="48.12878" lon="-3.31992">
        <ele>202.4</ele>
        <time>2024-11-20T10:26:51Z</time>
      </trkpt>
      <trkpt lat="48.12879" lon="-3.31994">
        <ele>202.4</ele>
        <time>2024-11-20T10:26:52Z</time>
      </trkpt>
      <trkpt lat="48.12879" lon="-3.31996">
        <ele>202.3</ele>
        <time>2024-11-20T10:26:53Z</time>
      </trkpt>
      <trkpt lat="48.1288" lon="-3.31997">
        <ele>202.2</ele>
        <time>2024-11-20T10:26:54Z</time>
      </trkpt>
      <trkpt lat="48.12881" lon="-3.31999">
        <ele>202.2</ele>
        <time>2024-11-20T10:26:55Z</time>
      </trkpt>
      <trkpt lat="48.12881" lon="-3.32001">
        <ele>202.1</ele>
        <time>2024-11-20T10:26:56Z</time>
      </trkpt>
      <trkpt lat="48.12882" lon="-3.32002">
        <ele>202.2</ele>
        <time>2024-11-20T10:26:57Z</time>
      </trkpt>
      <trkpt lat="48.12882" lon="-3.32004">
        <ele>202.2</ele>
        <time>2024-11-20T10:26:58Z</time>
      </trkpt>
      <trkpt lat="48.12883" lon="-3.32005">
        <ele>202.2</ele>
        <time>2024-11-20T10:26:59Z</time>
      </trkpt>
      <trkpt lat="48.12884" lon="-3.32006">
        <ele>202.2</ele>
        <time>2024-11-20T10:27:00Z</time>
      </trkpt>
      <trkpt lat="48.12885" lon="-3.32008">
        <ele>202.3</ele>
        <time>2024-11-20T10:27:01Z</time>
      </trkpt>
      <trkpt lat="48.12885" lon="-3.3201">
        <ele>202.3</ele>
        <time>2024-11-20T10:27:02Z</time>
      </trkpt>
      <trkpt lat="48.12886" lon="-3.32011">
        <ele>202.3</ele>
        <time>2024-11-20T10:27:03Z</time>
      </trkpt>
      <trkpt lat="48.12887" lon="-3.32013">
        <ele>202.4</ele>
        <time>2024-11-20T10:27:04Z</time>
      </trkpt>
      <trkpt lat="48.12888" lon="-3.32014">
        <ele>202.4</ele>
        <time>2024-11-20T10:27:05Z</time>
      </trkpt>
      <trkpt lat="48.12889" lon="-3.32015">
        <ele>202.5</ele>
        <time>2024-11-20T10:27:06Z</time>
      </trkpt>
      <trkpt lat="48.1289" lon="-3.32016">
        <ele>202.6</ele>
        <time>2024-11-20T10:27:07Z</time>
      </trkpt>
      <trkpt lat="48.12891" lon="-3.32017">
        <ele>202.7</ele>
        <time>2024-11-20T10:27:08Z</time>
      </trkpt>
      <trkpt lat="48.12891" lon="-3.32018">
        <ele>202.8</ele>
        <time>2024-11-20T10:27:09Z</time>
      </trkpt>
      <trkpt lat="48.12892" lon="-3.3202">
        <ele>202.9</ele>
        <time>2024-11-20T10:27:10Z</time>
      </trkpt>
      <trkpt lat="48.12893" lon="-3.32021">
        <ele>203</ele>
        <time>2024-11-20T10:27:11Z</time>
      </trkpt>
      <trkpt lat="48.12894" lon="-3.32023">
        <ele>203.1</ele>
        <time>2024-11-20T10:27:12Z</time>
      </trkpt>
      <trkpt lat="48.12894" lon="-3.32024">
        <ele>203.2</ele>
        <time>2024-11-20T10:27:13Z</time>
      </trkpt>
      <trkpt lat="48.12895" lon="-3.32025">
        <ele>203.3</ele>
        <time>2024-11-20T10:27:14Z</time>
      </trkpt>
      <trkpt lat="48.12896" lon="-3.32027">
        <ele>203.3</ele>
        <time>2024-11-20T10:27:15Z</time>
      </trkpt>
      <trkpt lat="48.12897" lon="-3.32028">
        <ele>203.4</ele>
        <time>2024-11-20T10:27:16Z</time>
      </trkpt>
      <trkpt lat="48.12897" lon="-3.32029">
        <ele>203.5</ele>
        <time>2024-11-20T10:27:17Z</time>
      </trkpt>
      <trkpt lat="48.12898" lon="-3.3203">
        <ele>203.5</ele>
        <time>2024-11-20T10:27:18Z</time>
      </trkpt>
      <trkpt lat="48.12899" lon="-3.32031">
        <ele>203.6</ele>
        <time>2024-11-20T10:27:19Z</time>
      </trkpt>
      <trkpt lat="48.129" lon="-3.32032">
        <ele>203.6</ele>
        <time>2024-11-20T10:27:20Z</time>
      </trkpt>
      <trkpt lat="48.12901" lon="-3.32033">
        <ele>203.7</ele>
        <time>2024-11-20T10:27:21Z</time>
      </trkpt>
      <trkpt lat="48.12902" lon="-3.32034">
        <ele>203.8</ele>
        <time>2024-11-20T10:27:22Z</time>
      </trkpt>
      <trkpt lat="48.12903" lon="-3.32035">
        <ele>203.9</ele>
        <time>2024-11-20T10:27:23Z</time>
      </trkpt>
      <trkpt lat="48.12904" lon="-3.32037">
        <ele>204</ele>
        <time>2024-11-20T10:27:24Z</time>
      </trkpt>
      <trkpt lat="48.12905" lon="-3.32038">
        <ele>204.2</ele>
        <time>2024-11-20T10:27:25Z</time>
      </trkpt>
      <trkpt lat="48.12907" lon="-3.32039">
        <ele>204.3</ele>
        <time>2024-11-20T10:27:26Z</time>
      </trkpt>
      <trkpt lat="48.12907" lon="-3.32039">
        <ele>204.4</ele>
        <time>2024-11-20T10:27:27Z</time>
      </trkpt>
      <trkpt lat="48.12908" lon="-3.3204">
        <ele>204.4</ele>
        <time>2024-11-20T10:27:28Z</time>
      </trkpt>
      <trkpt lat="48.12908" lon="-3.3204">
        <ele>204.5</ele>
        <time>2024-11-20T10:27:29Z</time>
      </trkpt>
      <trkpt lat="48.12909" lon="-3.32041">
        <ele>204.4</ele>
        <time>2024-11-20T10:27:30Z</time>
      </trkpt>
      <trkpt lat="48.12909" lon="-3.32042">
        <ele>204.4</ele>
        <time>2024-11-20T10:27:31Z</time>
      </trkpt>
      <trkpt lat="48.1291" lon="-3.32043">
        <ele>204.5</ele>
        <time>2024-11-20T10:27:32Z</time>
      </trkpt>
      <trkpt lat="48.12911" lon="-3.32044">
        <ele>204.5</ele>
        <time>2024-11-20T10:27:33Z</time>
      </trkpt>
      <trkpt lat="48.12912" lon="-3.32044">
        <ele>204.6</ele>
        <time>2024-11-20T10:27:34Z</time>
      </trkpt>
      <trkpt lat="48.12914" lon="-3.32045">
        <ele>204.7</ele>
        <time>2024-11-20T10:27:35Z</time>
      </trkpt>
      <trkpt lat="48.12914" lon="-3.32045">
        <ele>204.8</ele>
        <time>2024-11-20T10:27:36Z</time>
      </trkpt>
      <trkpt lat="48.12914" lon="-3.32045">
        <ele>204.8</ele>
        <time>2024-11-20T10:27:37Z</time>
      </trkpt>
      <trkpt lat="48.12915" lon="-3.32045">
        <ele>204.9</ele>
        <time>2024-11-20T10:27:38Z</time>
      </trkpt>
      <trkpt lat="48.12916" lon="-3.32046">
        <ele>205</ele>
        <time>2024-11-20T10:27:39Z</time>
      </trkpt>
      <trkpt lat="48.12917" lon="-3.32046">
        <ele>205</ele>
        <time>2024-11-20T10:27:40Z</time>
      </trkpt>
      <trkpt lat="48.12917" lon="-3.32047">
        <ele>205</ele>
        <time>2024-11-20T10:27:41Z</time>
      </trkpt>
      <trkpt lat="48.12918" lon="-3.32047">
        <ele>205</ele>
        <time>2024-11-20T10:27:42Z</time>
      </trkpt>
      <trkpt lat="48.12919" lon="-3.32048">
        <ele>205.1</ele>
        <time>2024-11-20T10:27:43Z</time>
      </trkpt>
      <trkpt lat="48.12919" lon="-3.32049">
        <ele>205.1</ele>
        <time>2024-11-20T10:27:44Z</time>
      </trkpt>
      <trkpt lat="48.1292" lon="-3.3205">
        <ele>205.2</ele>
        <time>2024-11-20T10:27:45Z</time>
      </trkpt>
      <trkpt lat="48.12921" lon="-3.3205">
        <ele>205.2</ele>
        <time>2024-11-20T10:27:46Z</time>
      </trkpt>
      <trkpt lat="48.12922" lon="-3.32051">
        <ele>205.4</ele>
        <time>2024-11-20T10:27:47Z</time>
      </trkpt>
      <trkpt lat="48.12923" lon="-3.32051">
        <ele>205.4</ele>
        <time>2024-11-20T10:27:48Z</time>
      </trkpt>
      <trkpt lat="48.12924" lon="-3.32052">
        <ele>205.5</ele>
        <time>2024-11-20T10:27:49Z</time>
      </trkpt>
      <trkpt lat="48.12924" lon="-3.32053">
        <ele>205.5</ele>
        <time>2024-11-20T10:27:50Z</time>
      </trkpt>
      <trkpt lat="48.12925" lon="-3.32053">
        <ele>205.5</ele>
        <time>2024-11-20T10:27:51Z</time>
      </trkpt>
      <trkpt lat="48.12926" lon="-3.32054">
        <ele>205.6</ele>
        <time>2024-11-20T10:27:52Z</time>
      </trkpt>
      <trkpt lat="48.12927" lon="-3.32054">
        <ele>205.7</ele>
        <time>2024-11-20T10:27:53Z</time>
      </trkpt>
      <trkpt lat="48.12929" lon="-3.32055">
        <ele>205.9</ele>
        <time>2024-11-20T10:27:54Z</time>
      </trkpt>
      <trkpt lat="48.12935" lon="-3.32057">
        <ele>206.5</ele>
        <time>2024-11-20T10:27:58Z</time>
      </trkpt>
      <trkpt lat="48.12936" lon="-3.32057">
        <ele>206.6</ele>
        <time>2024-11-20T10:27:59Z</time>
      </trkpt>
      <trkpt lat="48.12937" lon="-3.32057">
        <ele>206.7</ele>
        <time>2024-11-20T10:28:00Z</time>
      </trkpt>
      <trkpt lat="48.12937" lon="-3.32058">
        <ele>206.8</ele>
        <time>2024-11-20T10:28:01Z</time>
      </trkpt>
      <trkpt lat="48.12938" lon="-3.32058">
        <ele>206.9</ele>
        <time>2024-11-20T10:28:02Z</time>
      </trkpt>
      <trkpt lat="48.12939" lon="-3.32059">
        <ele>207</ele>
        <time>2024-11-20T10:28:03Z</time>
      </trkpt>
      <trkpt lat="48.1294" lon="-3.32059">
        <ele>207.1</ele>
        <time>2024-11-20T10:28:04Z</time>
      </trkpt>
      <trkpt lat="48.12942" lon="-3.32059">
        <ele>207.2</ele>
        <time>2024-11-20T10:28:05Z</time>
      </trkpt>
      <trkpt lat="48.12943" lon="-3.3206">
        <ele>207.3</ele>
        <time>2024-11-20T10:28:06Z</time>
      </trkpt>
      <trkpt lat="48.12944" lon="-3.3206">
        <ele>207.5</ele>
        <time>2024-11-20T10:28:07Z</time>
      </trkpt>
      <trkpt lat="48.12946" lon="-3.32061">
        <ele>207.7</ele>
        <time>2024-11-20T10:28:08Z</time>
      </trkpt>
      <trkpt lat="48.12947" lon="-3.32061">
        <ele>207.8</ele>
        <time>2024-11-20T10:28:09Z</time>
      </trkpt>
      <trkpt lat="48.12949" lon="-3.32062">
        <ele>208</ele>
        <time>2024-11-20T10:28:10Z</time>
      </trkpt>
      <trkpt lat="48.1295" lon="-3.32062">
        <ele>208.1</ele>
        <time>2024-11-20T10:28:11Z</time>
      </trkpt>
      <trkpt lat="48.1295" lon="-3.32062">
        <ele>208.2</ele>
        <time>2024-11-20T10:28:12Z</time>
      </trkpt>
      <trkpt lat="48.12951" lon="-3.32063">
        <ele>208.2</ele>
        <time>2024-11-20T10:28:13Z</time>
      </trkpt>
      <trkpt lat="48.12951" lon="-3.32063">
        <ele>208.3</ele>
        <time>2024-11-20T10:28:14Z</time>
      </trkpt>
      <trkpt lat="48.12952" lon="-3.32063">
        <ele>208.4</ele>
        <time>2024-11-20T10:28:15Z</time>
      </trkpt>
      <trkpt lat="48.12952" lon="-3.32063">
        <ele>208.4</ele>
        <time>2024-11-20T10:28:16Z</time>
      </trkpt>
      <trkpt lat="48.12953" lon="-3.32063">
        <ele>208.5</ele>
        <time>2024-11-20T10:28:17Z</time>
      </trkpt>
      <trkpt lat="48.12953" lon="-3.32063">
        <ele>208.5</ele>
        <time>2024-11-20T10:28:18Z</time>
      </trkpt>
      <trkpt lat="48.12954" lon="-3.32063">
        <ele>208.7</ele>
        <time>2024-11-20T10:28:19Z</time>
      </trkpt>
      <trkpt lat="48.12955" lon="-3.32064">
        <ele>208.8</ele>
        <time>2024-11-20T10:28:20Z</time>
      </trkpt>
      <trkpt lat="48.12957" lon="-3.32064">
        <ele>208.9</ele>
        <time>2024-11-20T10:28:21Z</time>
      </trkpt>
      <trkpt lat="48.12958" lon="-3.32065">
        <ele>209</ele>
        <time>2024-11-20T10:28:22Z</time>
      </trkpt>
      <trkpt lat="48.1296" lon="-3.32066">
        <ele>209</ele>
        <time>2024-11-20T10:28:23Z</time>
      </trkpt>
      <trkpt lat="48.12961" lon="-3.32067">
        <ele>209</ele>
        <time>2024-11-20T10:28:24Z</time>
      </trkpt>
      <trkpt lat="48.12962" lon="-3.32068">
        <ele>209</ele>
        <time>2024-11-20T10:28:25Z</time>
      </trkpt>
      <trkpt lat="48.12964" lon="-3.32068">
        <ele>209.2</ele>
        <time>2024-11-20T10:28:26Z</time>
      </trkpt>
      <trkpt lat="48.12966" lon="-3.32068">
        <ele>209.4</ele>
        <time>2024-11-20T10:28:27Z</time>
      </trkpt>
      <trkpt lat="48.12967" lon="-3.32069">
        <ele>209.5</ele>
        <time>2024-11-20T10:28:28Z</time>
      </trkpt>
      <trkpt lat="48.12968" lon="-3.32069">
        <ele>209.6</ele>
        <time>2024-11-20T10:28:29Z</time>
      </trkpt>
      <trkpt lat="48.12969" lon="-3.32069">
        <ele>209.7</ele>
        <time>2024-11-20T10:28:30Z</time>
      </trkpt>
      <trkpt lat="48.1297" lon="-3.3207">
        <ele>209.7</ele>
        <time>2024-11-20T10:28:31Z</time>
      </trkpt>
      <trkpt lat="48.12971" lon="-3.32071">
        <ele>209.6</ele>
        <time>2024-11-20T10:28:32Z</time>
      </trkpt>
      <trkpt lat="48.12972" lon="-3.32071">
        <ele>209.7</ele>
        <time>2024-11-20T10:28:33Z</time>
      </trkpt>
      <trkpt lat="48.12973" lon="-3.32072">
        <ele>209.8</ele>
        <time>2024-11-20T10:28:34Z</time>
      </trkpt>
      <trkpt lat="48.12975" lon="-3.32072">
        <ele>210</ele>
        <time>2024-11-20T10:28:35Z</time>
      </trkpt>
      <trkpt lat="48.12976" lon="-3.32072">
        <ele>210.1</ele>
        <time>2024-11-20T10:28:36Z</time>
      </trkpt>
      <trkpt lat="48.12977" lon="-3.32073">
        <ele>210.1</ele>
        <time>2024-11-20T10:28:37Z</time>
      </trkpt>
      <trkpt lat="48.12977" lon="-3.32074">
        <ele>210</ele>
        <time>2024-11-20T10:28:38Z</time>
      </trkpt>
      <trkpt lat="48.12978" lon="-3.32075">
        <ele>209.9</ele>
        <time>2024-11-20T10:28:39Z</time>
      </trkpt>
      <trkpt lat="48.12979" lon="-3.32075">
        <ele>210</ele>
        <time>2024-11-20T10:28:40Z</time>
      </trkpt>
      <trkpt lat="48.1298" lon="-3.32076">
        <ele>210.1</ele>
        <time>2024-11-20T10:28:41Z</time>
      </trkpt>
      <trkpt lat="48.12981" lon="-3.32076">
        <ele>210.3</ele>
        <time>2024-11-20T10:28:42Z</time>
      </trkpt>
      <trkpt lat="48.12982" lon="-3.32076">
        <ele>210.4</ele>
        <time>2024-11-20T10:28:43Z</time>
      </trkpt>
      <trkpt lat="48.12983" lon="-3.32076">
        <ele>210.5</ele>
        <time>2024-11-20T10:28:44Z</time>
      </trkpt>
      <trkpt lat="48.12983" lon="-3.32077">
        <ele>210.6</ele>
        <time>2024-11-20T10:28:45Z</time>
      </trkpt>
      <trkpt lat="48.12984" lon="-3.32077">
        <ele>210.7</ele>
        <time>2024-11-20T10:28:46Z</time>
      </trkpt>
      <trkpt lat="48.12986" lon="-3.32078">
        <ele>210.7</ele>
        <time>2024-11-20T10:28:47Z</time>
      </trkpt>
      <trkpt lat="48.12987" lon="-3.32078">
        <ele>210.8</ele>
        <time>2024-11-20T10:28:48Z</time>
      </trkpt>
      <trkpt lat="48.12988" lon="-3.32079">
        <ele>210.9</ele>
        <time>2024-11-20T10:28:49Z</time>
      </trkpt>
      <trkpt lat="48.1299" lon="-3.32079">
        <ele>211</ele>
        <time>2024-11-20T10:28:50Z</time>
      </trkpt>
      <trkpt lat="48.12991" lon="-3.3208">
        <ele>211.2</ele>
        <time>2024-11-20T10:28:51Z</time>
      </trkpt>
      <trkpt lat="48.12992" lon="-3.3208">
        <ele>211.2</ele>
        <time>2024-11-20T10:28:52Z</time>
      </trkpt>
      <trkpt lat="48.12993" lon="-3.32081">
        <ele>211.3</ele>
        <time>2024-11-20T10:28:53Z</time>
      </trkpt>
      <trkpt lat="48.12995" lon="-3.32082">
        <ele>211.4</ele>
        <time>2024-11-20T10:28:54Z</time>
      </trkpt>
      <trkpt lat="48.12996" lon="-3.32083">
        <ele>211.5</ele>
        <time>2024-11-20T10:28:55Z</time>
      </trkpt>
      <trkpt lat="48.12997" lon="-3.32084">
        <ele>211.5</ele>
        <time>2024-11-20T10:28:56Z</time>
      </trkpt>
      <trkpt lat="48.12999" lon="-3.32084">
        <ele>211.6</ele>
        <time>2024-11-20T10:28:57Z</time>
      </trkpt>
      <trkpt lat="48.13" lon="-3.32085">
        <ele>211.8</ele>
        <time>2024-11-20T10:28:58Z</time>
      </trkpt>
      <trkpt lat="48.13001" lon="-3.32086">
        <ele>211.8</ele>
        <time>2024-11-20T10:28:59Z</time>
      </trkpt>
      <trkpt lat="48.13002" lon="-3.32086">
        <ele>211.9</ele>
        <time>2024-11-20T10:29:00Z</time>
      </trkpt>
      <trkpt lat="48.13004" lon="-3.32086">
        <ele>211.9</ele>
        <time>2024-11-20T10:29:01Z</time>
      </trkpt>
      <trkpt lat="48.13005" lon="-3.32087">
        <ele>212</ele>
        <time>2024-11-20T10:29:02Z</time>
      </trkpt>
      <trkpt lat="48.13007" lon="-3.32088">
        <ele>212.1</ele>
        <time>2024-11-20T10:29:03Z</time>
      </trkpt>
      <trkpt lat="48.13008" lon="-3.32088">
        <ele>212.1</ele>
        <time>2024-11-20T10:29:04Z</time>
      </trkpt>
      <trkpt lat="48.13009" lon="-3.32089">
        <ele>212.1</ele>
        <time>2024-11-20T10:29:05Z</time>
      </trkpt>
      <trkpt lat="48.1301" lon="-3.3209">
        <ele>212</ele>
        <time>2024-11-20T10:29:06Z</time>
      </trkpt>
      <trkpt lat="48.13011" lon="-3.3209">
        <ele>212</ele>
        <time>2024-11-20T10:29:07Z</time>
      </trkpt>
      <trkpt lat="48.13012" lon="-3.32091">
        <ele>212.1</ele>
        <time>2024-11-20T10:29:08Z</time>
      </trkpt>
      <trkpt lat="48.13014" lon="-3.32092">
        <ele>212.1</ele>
        <time>2024-11-20T10:29:09Z</time>
      </trkpt>
      <trkpt lat="48.13016" lon="-3.32092">
        <ele>212.2</ele>
        <time>2024-11-20T10:29:10Z</time>
      </trkpt>
      <trkpt lat="48.13017" lon="-3.32093">
        <ele>212.2</ele>
        <time>2024-11-20T10:29:11Z</time>
      </trkpt>
      <trkpt lat="48.13018" lon="-3.32093">
        <ele>212.3</ele>
        <time>2024-11-20T10:29:12Z</time>
      </trkpt>
      <trkpt lat="48.13019" lon="-3.32093">
        <ele>212.4</ele>
        <time>2024-11-20T10:29:13Z</time>
      </trkpt>
      <trkpt lat="48.13021" lon="-3.32093">
        <ele>212.6</ele>
        <time>2024-11-20T10:29:14Z</time>
      </trkpt>
      <trkpt lat="48.13022" lon="-3.32093">
        <ele>212.8</ele>
        <time>2024-11-20T10:29:15Z</time>
      </trkpt>
      <trkpt lat="48.13023" lon="-3.32093">
        <ele>212.9</ele>
        <time>2024-11-20T10:29:16Z</time>
      </trkpt>
      <trkpt lat="48.13025" lon="-3.32093">
        <ele>213</ele>
        <time>2024-11-20T10:29:17Z</time>
      </trkpt>
      <trkpt lat="48.13026" lon="-3.32093">
        <ele>213</ele>
        <time>2024-11-20T10:29:18Z</time>
      </trkpt>
      <trkpt lat="48.13028" lon="-3.32095">
        <ele>213</ele>
        <time>2024-11-20T10:29:20Z</time>
      </trkpt>
      <trkpt lat="48.13029" lon="-3.32095">
        <ele>212.9</ele>
        <time>2024-11-20T10:29:21Z</time>
      </trkpt>
      <trkpt lat="48.1303" lon="-3.32096">
        <ele>212.9</ele>
        <time>2024-11-20T10:29:22Z</time>
      </trkpt>
      <trkpt lat="48.13031" lon="-3.32096">
        <ele>212.9</ele>
        <time>2024-11-20T10:29:23Z</time>
      </trkpt>
      <trkpt lat="48.13033" lon="-3.32096">
        <ele>213</ele>
        <time>2024-11-20T10:29:24Z</time>
      </trkpt>
      <trkpt lat="48.13034" lon="-3.32097">
        <ele>212.9</ele>
        <time>2024-11-20T10:29:25Z</time>
      </trkpt>
      <trkpt lat="48.13035" lon="-3.32097">
        <ele>212.9</ele>
        <time>2024-11-20T10:29:26Z</time>
      </trkpt>
      <trkpt lat="48.13036" lon="-3.32098">
        <ele>212.9</ele>
        <time>2024-11-20T10:29:27Z</time>
      </trkpt>
      <trkpt lat="48.13037" lon="-3.32098">
        <ele>212.9</ele>
        <time>2024-11-20T10:29:28Z</time>
      </trkpt>
      <trkpt lat="48.13038" lon="-3.32098">
        <ele>213</ele>
        <time>2024-11-20T10:29:29Z</time>
      </trkpt>
      <trkpt lat="48.1304" lon="-3.32098">
        <ele>213</ele>
        <time>2024-11-20T10:29:30Z</time>
      </trkpt>
      <trkpt lat="48.13041" lon="-3.32099">
        <ele>213</ele>
        <time>2024-11-20T10:29:31Z</time>
      </trkpt>
      <trkpt lat="48.13042" lon="-3.32099">
        <ele>212.9</ele>
        <time>2024-11-20T10:29:32Z</time>
      </trkpt>
      <trkpt lat="48.13043" lon="-3.321">
        <ele>212.8</ele>
        <time>2024-11-20T10:29:33Z</time>
      </trkpt>
      <trkpt lat="48.13043" lon="-3.32101">
        <ele>212.8</ele>
        <time>2024-11-20T10:29:34Z</time>
      </trkpt>
      <trkpt lat="48.13044" lon="-3.32101">
        <ele>212.7</ele>
        <time>2024-11-20T10:29:35Z</time>
      </trkpt>
      <trkpt lat="48.13045" lon="-3.32102">
        <ele>212.7</ele>
        <time>2024-11-20T10:29:36Z</time>
      </trkpt>
      <trkpt lat="48.13045" lon="-3.32102">
        <ele>212.7</ele>
        <time>2024-11-20T10:29:37Z</time>
      </trkpt>
      <trkpt lat="48.13046" lon="-3.32102">
        <ele>212.7</ele>
        <time>2024-11-20T10:29:38Z</time>
      </trkpt>
      <trkpt lat="48.13047" lon="-3.32102">
        <ele>212.7</ele>
        <time>2024-11-20T10:29:39Z</time>
      </trkpt>
      <trkpt lat="48.13048" lon="-3.32103">
        <ele>212.8</ele>
        <time>2024-11-20T10:29:40Z</time>
      </trkpt>
      <trkpt lat="48.13049" lon="-3.32103">
        <ele>212.8</ele>
        <time>2024-11-20T10:29:41Z</time>
      </trkpt>
      <trkpt lat="48.1305" lon="-3.32103">
        <ele>212.8</ele>
        <time>2024-11-20T10:29:42Z</time>
      </trkpt>
      <trkpt lat="48.13051" lon="-3.32104">
        <ele>212.8</ele>
        <time>2024-11-20T10:29:43Z</time>
      </trkpt>
      <trkpt lat="48.13052" lon="-3.32104">
        <ele>212.8</ele>
        <time>2024-11-20T10:29:44Z</time>
      </trkpt>
      <trkpt lat="48.13054" lon="-3.32104">
        <ele>212.8</ele>
        <time>2024-11-20T10:29:45Z</time>
      </trkpt>
      <trkpt lat="48.13055" lon="-3.32105">
        <ele>212.8</ele>
        <time>2024-11-20T10:29:46Z</time>
      </trkpt>
      <trkpt lat="48.13057" lon="-3.32106">
        <ele>212.8</ele>
        <time>2024-11-20T10:29:47Z</time>
      </trkpt>
      <trkpt lat="48.13058" lon="-3.32106">
        <ele>212.8</ele>
        <time>2024-11-20T10:29:48Z</time>
      </trkpt>
      <trkpt lat="48.13059" lon="-3.32106">
        <ele>212.9</ele>
        <time>2024-11-20T10:29:49Z</time>
      </trkpt>
      <trkpt lat="48.1306" lon="-3.32106">
        <ele>213</ele>
        <time>2024-11-20T10:29:50Z</time>
      </trkpt>
      <trkpt lat="48.13061" lon="-3.32106">
        <ele>213.1</ele>
        <time>2024-11-20T10:29:51Z</time>
      </trkpt>
      <trkpt lat="48.13063" lon="-3.32107">
        <ele>213.1</ele>
        <time>2024-11-20T10:29:52Z</time>
      </trkpt>
      <trkpt lat="48.13064" lon="-3.32108">
        <ele>213.1</ele>
        <time>2024-11-20T10:29:53Z</time>
      </trkpt>
      <trkpt lat="48.13066" lon="-3.32109">
        <ele>213.1</ele>
        <time>2024-11-20T10:29:54Z</time>
      </trkpt>
      <trkpt lat="48.13067" lon="-3.32109">
        <ele>213.1</ele>
        <time>2024-11-20T10:29:55Z</time>
      </trkpt>
      <trkpt lat="48.13068" lon="-3.3211">
        <ele>213</ele>
        <time>2024-11-20T10:29:56Z</time>
      </trkpt>
      <trkpt lat="48.13069" lon="-3.32111">
        <ele>213</ele>
        <time>2024-11-20T10:29:57Z</time>
      </trkpt>
      <trkpt lat="48.1307" lon="-3.32111">
        <ele>213</ele>
        <time>2024-11-20T10:29:58Z</time>
      </trkpt>
      <trkpt lat="48.13071" lon="-3.32112">
        <ele>213</ele>
        <time>2024-11-20T10:29:59Z</time>
      </trkpt>
      <trkpt lat="48.13072" lon="-3.32113">
        <ele>213.1</ele>
        <time>2024-11-20T10:30:00Z</time>
      </trkpt>
      <trkpt lat="48.13074" lon="-3.32114">
        <ele>213.1</ele>
        <time>2024-11-20T10:30:01Z</time>
      </trkpt>
      <trkpt lat="48.13074" lon="-3.32114">
        <ele>213.1</ele>
        <time>2024-11-20T10:30:02Z</time>
      </trkpt>
      <trkpt lat="48.13075" lon="-3.32114">
        <ele>213.1</ele>
        <time>2024-11-20T10:30:03Z</time>
      </trkpt>
      <trkpt lat="48.13075" lon="-3.32115">
        <ele>213.1</ele>
        <time>2024-11-20T10:30:04Z</time>
      </trkpt>
      <trkpt lat="48.13075" lon="-3.32115">
        <ele>213.1</ele>
        <time>2024-11-20T10:30:05Z</time>
      </trkpt>
      <trkpt lat="48.13075" lon="-3.32115">
        <ele>213.1</ele>
        <time>2024-11-20T10:30:06Z</time>
      </trkpt>
      <trkpt lat="48.13076" lon="-3.32115">
        <ele>213.1</ele>
        <time>2024-11-20T10:30:07Z</time>
      </trkpt>
      <trkpt lat="48.13077" lon="-3.32116">
        <ele>213.2</ele>
        <time>2024-11-20T10:30:08Z</time>
      </trkpt>
      <trkpt lat="48.13078" lon="-3.32116">
        <ele>213.3</ele>
        <time>2024-11-20T10:30:09Z</time>
      </trkpt>
      <trkpt lat="48.13079" lon="-3.32117">
        <ele>213.3</ele>
        <time>2024-11-20T10:30:10Z</time>
      </trkpt>
      <trkpt lat="48.13081" lon="-3.32117">
        <ele>213.4</ele>
        <time>2024-11-20T10:30:11Z</time>
      </trkpt>
      <trkpt lat="48.13082" lon="-3.32117">
        <ele>213.5</ele>
        <time>2024-11-20T10:30:12Z</time>
      </trkpt>
      <trkpt lat="48.13083" lon="-3.32117">
        <ele>213.5</ele>
        <time>2024-11-20T10:30:13Z</time>
      </trkpt>
      <trkpt lat="48.13084" lon="-3.32118">
        <ele>213.6</ele>
        <time>2024-11-20T10:30:14Z</time>
      </trkpt>
      <trkpt lat="48.13086" lon="-3.32118">
        <ele>213.7</ele>
        <time>2024-11-20T10:30:15Z</time>
      </trkpt>
      <trkpt lat="48.13087" lon="-3.32118">
        <ele>213.9</ele>
        <time>2024-11-20T10:30:16Z</time>
      </trkpt>
      <trkpt lat="48.13089" lon="-3.32118">
        <ele>214.1</ele>
        <time>2024-11-20T10:30:17Z</time>
      </trkpt>
      <trkpt lat="48.1309" lon="-3.32118">
        <ele>214.2</ele>
        <time>2024-11-20T10:30:18Z</time>
      </trkpt>
      <trkpt lat="48.13091" lon="-3.32118">
        <ele>214.2</ele>
        <time>2024-11-20T10:30:19Z</time>
      </trkpt>
      <trkpt lat="48.13092" lon="-3.32119">
        <ele>214.3</ele>
        <time>2024-11-20T10:30:20Z</time>
      </trkpt>
      <trkpt lat="48.13093" lon="-3.32119">
        <ele>214.3</ele>
        <time>2024-11-20T10:30:21Z</time>
      </trkpt>
      <trkpt lat="48.13093" lon="-3.3212">
        <ele>214.3</ele>
        <time>2024-11-20T10:30:22Z</time>
      </trkpt>
      <trkpt lat="48.13094" lon="-3.32121">
        <ele>214.3</ele>
        <time>2024-11-20T10:30:23Z</time>
      </trkpt>
      <trkpt lat="48.13095" lon="-3.32122">
        <ele>214.3</ele>
        <time>2024-11-20T10:30:24Z</time>
      </trkpt>
      <trkpt lat="48.13095" lon="-3.32122">
        <ele>214.3</ele>
        <time>2024-11-20T10:30:25Z</time>
      </trkpt>
      <trkpt lat="48.13096" lon="-3.32123">
        <ele>214.3</ele>
        <time>2024-11-20T10:30:26Z</time>
      </trkpt>
      <trkpt lat="48.13096" lon="-3.32123">
        <ele>214.3</ele>
        <time>2024-11-20T10:30:27Z</time>
      </trkpt>
      <trkpt lat="48.13096" lon="-3.32124">
        <ele>214.3</ele>
        <time>2024-11-20T10:30:28Z</time>
      </trkpt>
      <trkpt lat="48.13096" lon="-3.32124">
        <ele>214.3</ele>
        <time>2024-11-20T10:30:29Z</time>
      </trkpt>
      <trkpt lat="48.13096" lon="-3.32124">
        <ele>214.3</ele>
        <time>2024-11-20T10:30:30Z</time>
      </trkpt>
      <trkpt lat="48.13097" lon="-3.32125">
        <ele>214.3</ele>
        <time>2024-11-20T10:30:31Z</time>
      </trkpt>
      <trkpt lat="48.13099" lon="-3.32126">
        <ele>214.3</ele>
        <time>2024-11-20T10:30:32Z</time>
      </trkpt>
      <trkpt lat="48.131" lon="-3.32126">
        <ele>214.4</ele>
        <time>2024-11-20T10:30:33Z</time>
      </trkpt>
      <trkpt lat="48.13101" lon="-3.32127">
        <ele>214.4</ele>
        <time>2024-11-20T10:30:34Z</time>
      </trkpt>
      <trkpt lat="48.13102" lon="-3.32127">
        <ele>214.5</ele>
        <time>2024-11-20T10:30:35Z</time>
      </trkpt>
      <trkpt lat="48.13103" lon="-3.32127">
        <ele>214.6</ele>
        <time>2024-11-20T10:30:36Z</time>
      </trkpt>
      <trkpt lat="48.13104" lon="-3.32128">
        <ele>214.6</ele>
        <time>2024-11-20T10:30:37Z</time>
      </trkpt>
      <trkpt lat="48.13105" lon="-3.32128">
        <ele>214.6</ele>
        <time>2024-11-20T10:30:38Z</time>
      </trkpt>
      <trkpt lat="48.13106" lon="-3.32128">
        <ele>214.7</ele>
        <time>2024-11-20T10:30:39Z</time>
      </trkpt>
      <trkpt lat="48.13107" lon="-3.32128">
        <ele>214.8</ele>
        <time>2024-11-20T10:30:40Z</time>
      </trkpt>
      <trkpt lat="48.13108" lon="-3.32128">
        <ele>214.9</ele>
        <time>2024-11-20T10:30:41Z</time>
      </trkpt>
      <trkpt lat="48.13108" lon="-3.32128">
        <ele>214.9</ele>
        <time>2024-11-20T10:30:42Z</time>
      </trkpt>
      <trkpt lat="48.13109" lon="-3.32128">
        <ele>215</ele>
        <time>2024-11-20T10:30:43Z</time>
      </trkpt>
      <trkpt lat="48.13109" lon="-3.32128">
        <ele>215</ele>
        <time>2024-11-20T10:30:44Z</time>
      </trkpt>
      <trkpt lat="48.13111" lon="-3.32126">
        <ele>215.3</ele>
        <time>2024-11-20T10:30:45Z</time>
      </trkpt>
      <trkpt lat="48.13111" lon="-3.32125">
        <ele>215.5</ele>
        <time>2024-11-20T10:30:46Z</time>
      </trkpt>
      <trkpt lat="48.13113" lon="-3.32125">
        <ele>215.7</ele>
        <time>2024-11-20T10:30:47Z</time>
      </trkpt>
      <trkpt lat="48.13114" lon="-3.32125">
        <ele>215.8</ele>
        <time>2024-11-20T10:30:48Z</time>
      </trkpt>
      <trkpt lat="48.13115" lon="-3.32125">
        <ele>215.8</ele>
        <time>2024-11-20T10:30:49Z</time>
      </trkpt>
      <trkpt lat="48.13116" lon="-3.32126">
        <ele>215.8</ele>
        <time>2024-11-20T10:30:50Z</time>
      </trkpt>
      <trkpt lat="48.13117" lon="-3.32128">
        <ele>215.7</ele>
        <time>2024-11-20T10:30:51Z</time>
      </trkpt>
      <trkpt lat="48.13118" lon="-3.3213">
        <ele>215.6</ele>
        <time>2024-11-20T10:30:52Z</time>
      </trkpt>
      <trkpt lat="48.1312" lon="-3.32132">
        <ele>215.6</ele>
        <time>2024-11-20T10:30:53Z</time>
      </trkpt>
      <trkpt lat="48.13121" lon="-3.32132">
        <ele>215.6</ele>
        <time>2024-11-20T10:30:54Z</time>
      </trkpt>
      <trkpt lat="48.13122" lon="-3.32133">
        <ele>215.7</ele>
        <time>2024-11-20T10:30:55Z</time>
      </trkpt>
      <trkpt lat="48.13123" lon="-3.32133">
        <ele>215.8</ele>
        <time>2024-11-20T10:30:56Z</time>
      </trkpt>
      <trkpt lat="48.13124" lon="-3.32134">
        <ele>215.8</ele>
        <time>2024-11-20T10:30:57Z</time>
      </trkpt>
      <trkpt lat="48.13125" lon="-3.32136">
        <ele>215.8</ele>
        <time>2024-11-20T10:30:58Z</time>
      </trkpt>
      <trkpt lat="48.13127" lon="-3.32138">
        <ele>215.8</ele>
        <time>2024-11-20T10:30:59Z</time>
      </trkpt>
      <trkpt lat="48.13128" lon="-3.3214">
        <ele>215.8</ele>
        <time>2024-11-20T10:31:00Z</time>
      </trkpt>
      <trkpt lat="48.13129" lon="-3.32141">
        <ele>215.8</ele>
        <time>2024-11-20T10:31:01Z</time>
      </trkpt>
      <trkpt lat="48.1313" lon="-3.32143">
        <ele>215.9</ele>
        <time>2024-11-20T10:31:02Z</time>
      </trkpt>
      <trkpt lat="48.13131" lon="-3.32144">
        <ele>216</ele>
        <time>2024-11-20T10:31:03Z</time>
      </trkpt>
      <trkpt lat="48.13132" lon="-3.32145">
        <ele>216.1</ele>
        <time>2024-11-20T10:31:04Z</time>
      </trkpt>
      <trkpt lat="48.13133" lon="-3.32146">
        <ele>216.2</ele>
        <time>2024-11-20T10:31:05Z</time>
      </trkpt>
      <trkpt lat="48.13134" lon="-3.32147">
        <ele>216.3</ele>
        <time>2024-11-20T10:31:06Z</time>
      </trkpt>
      <trkpt lat="48.13135" lon="-3.32147">
        <ele>216.4</ele>
        <time>2024-11-20T10:31:07Z</time>
      </trkpt>
      <trkpt lat="48.13137" lon="-3.32147">
        <ele>216.5</ele>
        <time>2024-11-20T10:31:08Z</time>
      </trkpt>
      <trkpt lat="48.13138" lon="-3.32147">
        <ele>216.6</ele>
        <time>2024-11-20T10:31:09Z</time>
      </trkpt>
      <trkpt lat="48.13138" lon="-3.32147">
        <ele>216.6</ele>
        <time>2024-11-20T10:31:10Z</time>
      </trkpt>
      <trkpt lat="48.13139" lon="-3.32148">
        <ele>216.7</ele>
        <time>2024-11-20T10:31:11Z</time>
      </trkpt>
      <trkpt lat="48.13139" lon="-3.32149">
        <ele>216.7</ele>
        <time>2024-11-20T10:31:12Z</time>
      </trkpt>
      <trkpt lat="48.1314" lon="-3.3215">
        <ele>216.7</ele>
        <time>2024-11-20T10:31:13Z</time>
      </trkpt>
      <trkpt lat="48.13141" lon="-3.32151">
        <ele>216.7</ele>
        <time>2024-11-20T10:31:14Z</time>
      </trkpt>
      <trkpt lat="48.13142" lon="-3.32153">
        <ele>216.8</ele>
        <time>2024-11-20T10:31:15Z</time>
      </trkpt>
      <trkpt lat="48.13143" lon="-3.32153">
        <ele>216.9</ele>
        <time>2024-11-20T10:31:16Z</time>
      </trkpt>
      <trkpt lat="48.13145" lon="-3.32153">
        <ele>217.1</ele>
        <time>2024-11-20T10:31:17Z</time>
      </trkpt>
      <trkpt lat="48.13147" lon="-3.32152">
        <ele>217.2</ele>
        <time>2024-11-20T10:31:18Z</time>
      </trkpt>
      <trkpt lat="48.13148" lon="-3.32153">
        <ele>217.3</ele>
        <time>2024-11-20T10:31:19Z</time>
      </trkpt>
      <trkpt lat="48.13149" lon="-3.32153">
        <ele>217.4</ele>
        <time>2024-11-20T10:31:20Z</time>
      </trkpt>
      <trkpt lat="48.1315" lon="-3.32153">
        <ele>217.5</ele>
        <time>2024-11-20T10:31:21Z</time>
      </trkpt>
      <trkpt lat="48.13152" lon="-3.32154">
        <ele>217.6</ele>
        <time>2024-11-20T10:31:22Z</time>
      </trkpt>
      <trkpt lat="48.13153" lon="-3.32154">
        <ele>217.8</ele>
        <time>2024-11-20T10:31:23Z</time>
      </trkpt>
      <trkpt lat="48.13155" lon="-3.32155">
        <ele>217.8</ele>
        <time>2024-11-20T10:31:24Z</time>
      </trkpt>
      <trkpt lat="48.13156" lon="-3.32156">
        <ele>217.8</ele>
        <time>2024-11-20T10:31:25Z</time>
      </trkpt>
      <trkpt lat="48.13157" lon="-3.32157">
        <ele>217.8</ele>
        <time>2024-11-20T10:31:26Z</time>
      </trkpt>
      <trkpt lat="48.13157" lon="-3.32159">
        <ele>217.8</ele>
        <time>2024-11-20T10:31:27Z</time>
      </trkpt>
      <trkpt lat="48.13158" lon="-3.3216">
        <ele>217.8</ele>
        <time>2024-11-20T10:31:28Z</time>
      </trkpt>
      <trkpt lat="48.13159" lon="-3.3216">
        <ele>217.9</ele>
        <time>2024-11-20T10:31:29Z</time>
      </trkpt>
      <trkpt lat="48.1316" lon="-3.32161">
        <ele>217.9</ele>
        <time>2024-11-20T10:31:30Z</time>
      </trkpt>
      <trkpt lat="48.13161" lon="-3.32162">
        <ele>217.8</ele>
        <time>2024-11-20T10:31:31Z</time>
      </trkpt>
      <trkpt lat="48.13162" lon="-3.32164">
        <ele>217.8</ele>
        <time>2024-11-20T10:31:32Z</time>
      </trkpt>
      <trkpt lat="48.13163" lon="-3.32166">
        <ele>217.7</ele>
        <time>2024-11-20T10:31:33Z</time>
      </trkpt>
      <trkpt lat="48.13164" lon="-3.32168">
        <ele>217.8</ele>
        <time>2024-11-20T10:31:34Z</time>
      </trkpt>
      <trkpt lat="48.13165" lon="-3.32169">
        <ele>218</ele>
        <time>2024-11-20T10:31:35Z</time>
      </trkpt>
      <trkpt lat="48.13166" lon="-3.3217">
        <ele>218.1</ele>
        <time>2024-11-20T10:31:36Z</time>
      </trkpt>
      <trkpt lat="48.13168" lon="-3.32171">
        <ele>218.3</ele>
        <time>2024-11-20T10:31:37Z</time>
      </trkpt>
      <trkpt lat="48.13169" lon="-3.32173">
        <ele>218.5</ele>
        <time>2024-11-20T10:31:38Z</time>
      </trkpt>
      <trkpt lat="48.13171" lon="-3.32173">
        <ele>218.6</ele>
        <time>2024-11-20T10:31:39Z</time>
      </trkpt>
      <trkpt lat="48.13172" lon="-3.32174">
        <ele>218.7</ele>
        <time>2024-11-20T10:31:40Z</time>
      </trkpt>
      <trkpt lat="48.13173" lon="-3.32174">
        <ele>218.8</ele>
        <time>2024-11-20T10:31:41Z</time>
      </trkpt>
      <trkpt lat="48.13174" lon="-3.32175">
        <ele>219</ele>
        <time>2024-11-20T10:31:42Z</time>
      </trkpt>
      <trkpt lat="48.13175" lon="-3.32174">
        <ele>219.1</ele>
        <time>2024-11-20T10:31:43Z</time>
      </trkpt>
      <trkpt lat="48.13177" lon="-3.32172">
        <ele>219.2</ele>
        <time>2024-11-20T10:31:44Z</time>
      </trkpt>
      <trkpt lat="48.13178" lon="-3.3217">
        <ele>219.3</ele>
        <time>2024-11-20T10:31:45Z</time>
      </trkpt>
      <trkpt lat="48.13179" lon="-3.32169">
        <ele>219.4</ele>
        <time>2024-11-20T10:31:46Z</time>
      </trkpt>
      <trkpt lat="48.1318" lon="-3.32168">
        <ele>219.5</ele>
        <time>2024-11-20T10:31:47Z</time>
      </trkpt>
      <trkpt lat="48.13182" lon="-3.32167">
        <ele>219.6</ele>
        <time>2024-11-20T10:31:48Z</time>
      </trkpt>
      <trkpt lat="48.13183" lon="-3.32166">
        <ele>219.8</ele>
        <time>2024-11-20T10:31:49Z</time>
      </trkpt>
      <trkpt lat="48.13185" lon="-3.32166">
        <ele>220</ele>
        <time>2024-11-20T10:31:50Z</time>
      </trkpt>
      <trkpt lat="48.13186" lon="-3.32166">
        <ele>220.1</ele>
        <time>2024-11-20T10:31:51Z</time>
      </trkpt>
      <trkpt lat="48.13187" lon="-3.32166">
        <ele>220.2</ele>
        <time>2024-11-20T10:31:52Z</time>
      </trkpt>
      <trkpt lat="48.13188" lon="-3.32167">
        <ele>220.3</ele>
        <time>2024-11-20T10:31:53Z</time>
      </trkpt>
      <trkpt lat="48.13189" lon="-3.32168">
        <ele>220.4</ele>
        <time>2024-11-20T10:31:54Z</time>
      </trkpt>
      <trkpt lat="48.1319" lon="-3.32169">
        <ele>220.5</ele>
        <time>2024-11-20T10:31:55Z</time>
      </trkpt>
      <trkpt lat="48.1319" lon="-3.32169">
        <ele>220.6</ele>
        <time>2024-11-20T10:31:56Z</time>
      </trkpt>
      <trkpt lat="48.13191" lon="-3.32169">
        <ele>220.6</ele>
        <time>2024-11-20T10:31:57Z</time>
      </trkpt>
      <trkpt lat="48.13191" lon="-3.32169">
        <ele>220.7</ele>
        <time>2024-11-20T10:31:58Z</time>
      </trkpt>
      <trkpt lat="48.13192" lon="-3.3217">
        <ele>220.7</ele>
        <time>2024-11-20T10:31:59Z</time>
      </trkpt>
      <trkpt lat="48.13193" lon="-3.32171">
        <ele>220.8</ele>
        <time>2024-11-20T10:32:00Z</time>
      </trkpt>
      <trkpt lat="48.13194" lon="-3.32173">
        <ele>220.9</ele>
        <time>2024-11-20T10:32:01Z</time>
      </trkpt>
      <trkpt lat="48.13195" lon="-3.32173">
        <ele>221.1</ele>
        <time>2024-11-20T10:32:02Z</time>
      </trkpt>
      <trkpt lat="48.13197" lon="-3.32174">
        <ele>221.2</ele>
        <time>2024-11-20T10:32:03Z</time>
      </trkpt>
      <trkpt lat="48.13198" lon="-3.32174">
        <ele>221.2</ele>
        <time>2024-11-20T10:32:04Z</time>
      </trkpt>
      <trkpt lat="48.132" lon="-3.32174">
        <ele>221.3</ele>
        <time>2024-11-20T10:32:05Z</time>
      </trkpt>
      <trkpt lat="48.13201" lon="-3.32174">
        <ele>221.4</ele>
        <time>2024-11-20T10:32:06Z</time>
      </trkpt>
      <trkpt lat="48.13202" lon="-3.32173">
        <ele>221.5</ele>
        <time>2024-11-20T10:32:07Z</time>
      </trkpt>
      <trkpt lat="48.13203" lon="-3.32173">
        <ele>221.6</ele>
        <time>2024-11-20T10:32:08Z</time>
      </trkpt>
      <trkpt lat="48.13204" lon="-3.32173">
        <ele>221.6</ele>
        <time>2024-11-20T10:32:09Z</time>
      </trkpt>
      <trkpt lat="48.13205" lon="-3.32174">
        <ele>221.6</ele>
        <time>2024-11-20T10:32:10Z</time>
      </trkpt>
      <trkpt lat="48.13205" lon="-3.32174">
        <ele>221.6</ele>
        <time>2024-11-20T10:32:11Z</time>
      </trkpt>
      <trkpt lat="48.13206" lon="-3.32175">
        <ele>221.7</ele>
        <time>2024-11-20T10:32:12Z</time>
      </trkpt>
      <trkpt lat="48.13207" lon="-3.32176">
        <ele>221.7</ele>
        <time>2024-11-20T10:32:13Z</time>
      </trkpt>
      <trkpt lat="48.13208" lon="-3.32178">
        <ele>221.8</ele>
        <time>2024-11-20T10:32:14Z</time>
      </trkpt>
      <trkpt lat="48.13209" lon="-3.32179">
        <ele>221.8</ele>
        <time>2024-11-20T10:32:15Z</time>
      </trkpt>
      <trkpt lat="48.13209" lon="-3.3218">
        <ele>221.8</ele>
        <time>2024-11-20T10:32:16Z</time>
      </trkpt>
      <trkpt lat="48.1321" lon="-3.32181">
        <ele>221.8</ele>
        <time>2024-11-20T10:32:17Z</time>
      </trkpt>
      <trkpt lat="48.13211" lon="-3.32182">
        <ele>221.8</ele>
        <time>2024-11-20T10:32:18Z</time>
      </trkpt>
      <trkpt lat="48.13211" lon="-3.32182">
        <ele>221.9</ele>
        <time>2024-11-20T10:32:19Z</time>
      </trkpt>
      <trkpt lat="48.13212" lon="-3.32183">
        <ele>221.9</ele>
        <time>2024-11-20T10:32:20Z</time>
      </trkpt>
      <trkpt lat="48.13213" lon="-3.32183">
        <ele>221.9</ele>
        <time>2024-11-20T10:32:21Z</time>
      </trkpt>
      <trkpt lat="48.13214" lon="-3.32184">
        <ele>222</ele>
        <time>2024-11-20T10:32:22Z</time>
      </trkpt>
      <trkpt lat="48.13216" lon="-3.32184">
        <ele>222</ele>
        <time>2024-11-20T10:32:23Z</time>
      </trkpt>
      <trkpt lat="48.13217" lon="-3.32185">
        <ele>222.1</ele>
        <time>2024-11-20T10:32:24Z</time>
      </trkpt>
      <trkpt lat="48.13218" lon="-3.32186">
        <ele>222.1</ele>
        <time>2024-11-20T10:32:25Z</time>
      </trkpt>
      <trkpt lat="48.13219" lon="-3.32187">
        <ele>222.1</ele>
        <time>2024-11-20T10:32:26Z</time>
      </trkpt>
      <trkpt lat="48.1322" lon="-3.32188">
        <ele>222.1</ele>
        <time>2024-11-20T10:32:27Z</time>
      </trkpt>
      <trkpt lat="48.13221" lon="-3.32188">
        <ele>222.2</ele>
        <time>2024-11-20T10:32:28Z</time>
      </trkpt>
      <trkpt lat="48.13222" lon="-3.32188">
        <ele>222.2</ele>
        <time>2024-11-20T10:32:29Z</time>
      </trkpt>
      <trkpt lat="48.13223" lon="-3.32188">
        <ele>222.3</ele>
        <time>2024-11-20T10:32:30Z</time>
      </trkpt>
      <trkpt lat="48.13225" lon="-3.32187">
        <ele>222.4</ele>
        <time>2024-11-20T10:32:31Z</time>
      </trkpt>
      <trkpt lat="48.13226" lon="-3.32186">
        <ele>222.5</ele>
        <time>2024-11-20T10:32:32Z</time>
      </trkpt>
      <trkpt lat="48.13227" lon="-3.32185">
        <ele>222.5</ele>
        <time>2024-11-20T10:32:33Z</time>
      </trkpt>
      <trkpt lat="48.13228" lon="-3.32185">
        <ele>222.6</ele>
        <time>2024-11-20T10:32:34Z</time>
      </trkpt>
      <trkpt lat="48.1323" lon="-3.32184">
        <ele>222.6</ele>
        <time>2024-11-20T10:32:35Z</time>
      </trkpt>
      <trkpt lat="48.13231" lon="-3.32184">
        <ele>222.7</ele>
        <time>2024-11-20T10:32:36Z</time>
      </trkpt>
      <trkpt lat="48.13233" lon="-3.32184">
        <ele>222.7</ele>
        <time>2024-11-20T10:32:37Z</time>
      </trkpt>
      <trkpt lat="48.13234" lon="-3.32185">
        <ele>222.8</ele>
        <time>2024-11-20T10:32:38Z</time>
      </trkpt>
      <trkpt lat="48.13236" lon="-3.32185">
        <ele>222.8</ele>
        <time>2024-11-20T10:32:39Z</time>
      </trkpt>
      <trkpt lat="48.13237" lon="-3.32186">
        <ele>222.9</ele>
        <time>2024-11-20T10:32:40Z</time>
      </trkpt>
      <trkpt lat="48.13238" lon="-3.32186">
        <ele>222.9</ele>
        <time>2024-11-20T10:32:41Z</time>
      </trkpt>
      <trkpt lat="48.13239" lon="-3.32186">
        <ele>222.9</ele>
        <time>2024-11-20T10:32:42Z</time>
      </trkpt>
      <trkpt lat="48.1324" lon="-3.32186">
        <ele>222.9</ele>
        <time>2024-11-20T10:32:43Z</time>
      </trkpt>
      <trkpt lat="48.13241" lon="-3.32186">
        <ele>223</ele>
        <time>2024-11-20T10:32:44Z</time>
      </trkpt>
      <trkpt lat="48.13242" lon="-3.32187">
        <ele>223</ele>
        <time>2024-11-20T10:32:45Z</time>
      </trkpt>
      <trkpt lat="48.13243" lon="-3.32187">
        <ele>223</ele>
        <time>2024-11-20T10:32:46Z</time>
      </trkpt>
      <trkpt lat="48.13244" lon="-3.32188">
        <ele>223</ele>
        <time>2024-11-20T10:32:47Z</time>
      </trkpt>
      <trkpt lat="48.13246" lon="-3.32189">
        <ele>223</ele>
        <time>2024-11-20T10:32:48Z</time>
      </trkpt>
      <trkpt lat="48.13247" lon="-3.3219">
        <ele>223</ele>
        <time>2024-11-20T10:32:49Z</time>
      </trkpt>
      <trkpt lat="48.13247" lon="-3.32191">
        <ele>223</ele>
        <time>2024-11-20T10:32:50Z</time>
      </trkpt>
      <trkpt lat="48.13248" lon="-3.32192">
        <ele>223</ele>
        <time>2024-11-20T10:32:51Z</time>
      </trkpt>
      <trkpt lat="48.13249" lon="-3.32193">
        <ele>223</ele>
        <time>2024-11-20T10:32:52Z</time>
      </trkpt>
      <trkpt lat="48.1325" lon="-3.32193">
        <ele>223.1</ele>
        <time>2024-11-20T10:32:53Z</time>
      </trkpt>
      <trkpt lat="48.13252" lon="-3.32193">
        <ele>223.1</ele>
        <time>2024-11-20T10:32:54Z</time>
      </trkpt>
      <trkpt lat="48.13252" lon="-3.32193">
        <ele>223.1</ele>
        <time>2024-11-20T10:32:55Z</time>
      </trkpt>
      <trkpt lat="48.13253" lon="-3.32193">
        <ele>223.2</ele>
        <time>2024-11-20T10:32:56Z</time>
      </trkpt>
      <trkpt lat="48.13255" lon="-3.32194">
        <ele>223.2</ele>
        <time>2024-11-20T10:32:57Z</time>
      </trkpt>
      <trkpt lat="48.13256" lon="-3.32194">
        <ele>223.2</ele>
        <time>2024-11-20T10:32:58Z</time>
      </trkpt>
      <trkpt lat="48.13256" lon="-3.32194">
        <ele>223.2</ele>
        <time>2024-11-20T10:32:59Z</time>
      </trkpt>
      <trkpt lat="48.13257" lon="-3.32195">
        <ele>223.3</ele>
        <time>2024-11-20T10:33:00Z</time>
      </trkpt>
      <trkpt lat="48.13258" lon="-3.32196">
        <ele>223.3</ele>
        <time>2024-11-20T10:33:01Z</time>
      </trkpt>
      <trkpt lat="48.13259" lon="-3.32197">
        <ele>223.3</ele>
        <time>2024-11-20T10:33:02Z</time>
      </trkpt>
      <trkpt lat="48.1326" lon="-3.32197">
        <ele>223.3</ele>
        <time>2024-11-20T10:33:03Z</time>
      </trkpt>
      <trkpt lat="48.1326" lon="-3.32197">
        <ele>223.4</ele>
        <time>2024-11-20T10:33:04Z</time>
      </trkpt>
      <trkpt lat="48.1326" lon="-3.32198">
        <ele>223.4</ele>
        <time>2024-11-20T10:33:05Z</time>
      </trkpt>
      <trkpt lat="48.13261" lon="-3.32198">
        <ele>223.4</ele>
        <time>2024-11-20T10:33:06Z</time>
      </trkpt>
      <trkpt lat="48.13261" lon="-3.32198">
        <ele>223.4</ele>
        <time>2024-11-20T10:33:07Z</time>
      </trkpt>
      <trkpt lat="48.13262" lon="-3.32198">
        <ele>223.4</ele>
        <time>2024-11-20T10:33:08Z</time>
      </trkpt>
      <trkpt lat="48.13263" lon="-3.32198">
        <ele>223.5</ele>
        <time>2024-11-20T10:33:09Z</time>
      </trkpt>
      <trkpt lat="48.13264" lon="-3.32198">
        <ele>223.5</ele>
        <time>2024-11-20T10:33:10Z</time>
      </trkpt>
      <trkpt lat="48.13265" lon="-3.32198">
        <ele>223.6</ele>
        <time>2024-11-20T10:33:11Z</time>
      </trkpt>
      <trkpt lat="48.13266" lon="-3.32198">
        <ele>223.6</ele>
        <time>2024-11-20T10:33:12Z</time>
      </trkpt>
      <trkpt lat="48.13267" lon="-3.32198">
        <ele>223.6</ele>
        <time>2024-11-20T10:33:13Z</time>
      </trkpt>
      <trkpt lat="48.13268" lon="-3.32198">
        <ele>223.6</ele>
        <time>2024-11-20T10:33:14Z</time>
      </trkpt>
      <trkpt lat="48.13269" lon="-3.32199">
        <ele>223.7</ele>
        <time>2024-11-20T10:33:15Z</time>
      </trkpt>
      <trkpt lat="48.1327" lon="-3.32199">
        <ele>223.7</ele>
        <time>2024-11-20T10:33:16Z</time>
      </trkpt>
      <trkpt lat="48.1327" lon="-3.32199">
        <ele>223.7</ele>
        <time>2024-11-20T10:33:17Z</time>
      </trkpt>
      <trkpt lat="48.13271" lon="-3.32199">
        <ele>223.8</ele>
        <time>2024-11-20T10:33:18Z</time>
      </trkpt>
      <trkpt lat="48.13272" lon="-3.32199">
        <ele>223.8</ele>
        <time>2024-11-20T10:33:19Z</time>
      </trkpt>
      <trkpt lat="48.13272" lon="-3.32199">
        <ele>223.8</ele>
        <time>2024-11-20T10:33:20Z</time>
      </trkpt>
      <trkpt lat="48.13272" lon="-3.322">
        <ele>223.8</ele>
        <time>2024-11-20T10:33:21Z</time>
      </trkpt>
      <trkpt lat="48.13272" lon="-3.322">
        <ele>223.8</ele>
        <time>2024-11-20T10:33:22Z</time>
      </trkpt>
      <trkpt lat="48.13272" lon="-3.322">
        <ele>223.8</ele>
        <time>2024-11-20T10:33:23Z</time>
      </trkpt>
      <trkpt lat="48.13274" lon="-3.322">
        <ele>223.8</ele>
        <time>2024-11-20T10:33:24Z</time>
      </trkpt>
      <trkpt lat="48.13275" lon="-3.32201">
        <ele>223.9</ele>
        <time>2024-11-20T10:33:25Z</time>
      </trkpt>
      <trkpt lat="48.13276" lon="-3.32202">
        <ele>223.9</ele>
        <time>2024-11-20T10:33:26Z</time>
      </trkpt>
      <trkpt lat="48.13277" lon="-3.32202">
        <ele>224</ele>
        <time>2024-11-20T10:33:27Z</time>
      </trkpt>
      <trkpt lat="48.13279" lon="-3.32203">
        <ele>224</ele>
        <time>2024-11-20T10:33:28Z</time>
      </trkpt>
      <trkpt lat="48.1328" lon="-3.32203">
        <ele>224.1</ele>
        <time>2024-11-20T10:33:29Z</time>
      </trkpt>
      <trkpt lat="48.13281" lon="-3.32204">
        <ele>224.2</ele>
        <time>2024-11-20T10:33:30Z</time>
      </trkpt>
      <trkpt lat="48.13283" lon="-3.32204">
        <ele>224.3</ele>
        <time>2024-11-20T10:33:31Z</time>
      </trkpt>
      <trkpt lat="48.13284" lon="-3.32204">
        <ele>224.4</ele>
        <time>2024-11-20T10:33:32Z</time>
      </trkpt>
      <trkpt lat="48.13285" lon="-3.32205">
        <ele>224.4</ele>
        <time>2024-11-20T10:33:33Z</time>
      </trkpt>
      <trkpt lat="48.13285" lon="-3.32205">
        <ele>224.4</ele>
        <time>2024-11-20T10:33:34Z</time>
      </trkpt>
      <trkpt lat="48.13286" lon="-3.32205">
        <ele>224.5</ele>
        <time>2024-11-20T10:33:35Z</time>
      </trkpt>
      <trkpt lat="48.13287" lon="-3.32205">
        <ele>224.5</ele>
        <time>2024-11-20T10:33:36Z</time>
      </trkpt>
      <trkpt lat="48.13288" lon="-3.32206">
        <ele>224.6</ele>
        <time>2024-11-20T10:33:37Z</time>
      </trkpt>
      <trkpt lat="48.13289" lon="-3.32206">
        <ele>224.7</ele>
        <time>2024-11-20T10:33:38Z</time>
      </trkpt>
      <trkpt lat="48.13291" lon="-3.32207">
        <ele>224.7</ele>
        <time>2024-11-20T10:33:39Z</time>
      </trkpt>
      <trkpt lat="48.13292" lon="-3.32207">
        <ele>224.8</ele>
        <time>2024-11-20T10:33:40Z</time>
      </trkpt>
      <trkpt lat="48.13294" lon="-3.32208">
        <ele>224.9</ele>
        <time>2024-11-20T10:33:41Z</time>
      </trkpt>
      <trkpt lat="48.13296" lon="-3.32208">
        <ele>225</ele>
        <time>2024-11-20T10:33:42Z</time>
      </trkpt>
      <trkpt lat="48.13298" lon="-3.32208">
        <ele>225.1</ele>
        <time>2024-11-20T10:33:43Z</time>
      </trkpt>
      <trkpt lat="48.133" lon="-3.32209">
        <ele>225.2</ele>
        <time>2024-11-20T10:33:44Z</time>
      </trkpt>
      <trkpt lat="48.13301" lon="-3.32209">
        <ele>225.2</ele>
        <time>2024-11-20T10:33:45Z</time>
      </trkpt>
      <trkpt lat="48.13303" lon="-3.3221">
        <ele>225.3</ele>
        <time>2024-11-20T10:33:46Z</time>
      </trkpt>
      <trkpt lat="48.13304" lon="-3.3221">
        <ele>225.3</ele>
        <time>2024-11-20T10:33:47Z</time>
      </trkpt>
      <trkpt lat="48.13305" lon="-3.32211">
        <ele>225.4</ele>
        <time>2024-11-20T10:33:48Z</time>
      </trkpt>
      <trkpt lat="48.13307" lon="-3.32212">
        <ele>225.5</ele>
        <time>2024-11-20T10:33:49Z</time>
      </trkpt>
      <trkpt lat="48.13308" lon="-3.32212">
        <ele>225.5</ele>
        <time>2024-11-20T10:33:50Z</time>
      </trkpt>
      <trkpt lat="48.1331" lon="-3.32213">
        <ele>225.6</ele>
        <time>2024-11-20T10:33:51Z</time>
      </trkpt>
      <trkpt lat="48.13311" lon="-3.32213">
        <ele>225.7</ele>
        <time>2024-11-20T10:33:52Z</time>
      </trkpt>
      <trkpt lat="48.13313" lon="-3.32214">
        <ele>225.7</ele>
        <time>2024-11-20T10:33:53Z</time>
      </trkpt>
      <trkpt lat="48.13314" lon="-3.32214">
        <ele>225.8</ele>
        <time>2024-11-20T10:33:54Z</time>
      </trkpt>
      <trkpt lat="48.13316" lon="-3.32215">
        <ele>225.9</ele>
        <time>2024-11-20T10:33:55Z</time>
      </trkpt>
      <trkpt lat="48.13317" lon="-3.32215">
        <ele>226</ele>
        <time>2024-11-20T10:33:56Z</time>
      </trkpt>
      <trkpt lat="48.13319" lon="-3.32216">
        <ele>226.1</ele>
        <time>2024-11-20T10:33:57Z</time>
      </trkpt>
      <trkpt lat="48.1332" lon="-3.32216">
        <ele>226.2</ele>
        <time>2024-11-20T10:33:58Z</time>
      </trkpt>
      <trkpt lat="48.13321" lon="-3.32216">
        <ele>226.2</ele>
        <time>2024-11-20T10:33:59Z</time>
      </trkpt>
      <trkpt lat="48.13323" lon="-3.32216">
        <ele>226.3</ele>
        <time>2024-11-20T10:34:00Z</time>
      </trkpt>
      <trkpt lat="48.13324" lon="-3.32215">
        <ele>226.4</ele>
        <time>2024-11-20T10:34:01Z</time>
      </trkpt>
      <trkpt lat="48.13325" lon="-3.32215">
        <ele>226.5</ele>
        <time>2024-11-20T10:34:02Z</time>
      </trkpt>
      <trkpt lat="48.13326" lon="-3.32215">
        <ele>226.6</ele>
        <time>2024-11-20T10:34:03Z</time>
      </trkpt>
      <trkpt lat="48.13328" lon="-3.32215">
        <ele>226.6</ele>
        <time>2024-11-20T10:34:04Z</time>
      </trkpt>
      <trkpt lat="48.13329" lon="-3.32215">
        <ele>226.7</ele>
        <time>2024-11-20T10:34:05Z</time>
      </trkpt>
      <trkpt lat="48.13331" lon="-3.32215">
        <ele>226.8</ele>
        <time>2024-11-20T10:34:06Z</time>
      </trkpt>
      <trkpt lat="48.13333" lon="-3.32215">
        <ele>226.9</ele>
        <time>2024-11-20T10:34:07Z</time>
      </trkpt>
      <trkpt lat="48.13334" lon="-3.32215">
        <ele>227</ele>
        <time>2024-11-20T10:34:08Z</time>
      </trkpt>
      <trkpt lat="48.13335" lon="-3.32215">
        <ele>227</ele>
        <time>2024-11-20T10:34:09Z</time>
      </trkpt>
      <trkpt lat="48.13335" lon="-3.32215">
        <ele>227</ele>
        <time>2024-11-20T10:34:10Z</time>
      </trkpt>
      <trkpt lat="48.13336" lon="-3.32215">
        <ele>227</ele>
        <time>2024-11-20T10:34:11Z</time>
      </trkpt>
      <trkpt lat="48.13337" lon="-3.32215">
        <ele>227</ele>
        <time>2024-11-20T10:34:12Z</time>
      </trkpt>
      <trkpt lat="48.13337" lon="-3.32214">
        <ele>227</ele>
        <time>2024-11-20T10:34:13Z</time>
      </trkpt>
      <trkpt lat="48.13338" lon="-3.32215">
        <ele>227</ele>
        <time>2024-11-20T10:34:14Z</time>
      </trkpt>
      <trkpt lat="48.13339" lon="-3.32215">
        <ele>227.1</ele>
        <time>2024-11-20T10:34:15Z</time>
      </trkpt>
      <trkpt lat="48.1334" lon="-3.32215">
        <ele>227.1</ele>
        <time>2024-11-20T10:34:16Z</time>
      </trkpt>
      <trkpt lat="48.13341" lon="-3.32216">
        <ele>227.1</ele>
        <time>2024-11-20T10:34:17Z</time>
      </trkpt>
      <trkpt lat="48.13342" lon="-3.32216">
        <ele>227.1</ele>
        <time>2024-11-20T10:34:18Z</time>
      </trkpt>
      <trkpt lat="48.13343" lon="-3.32217">
        <ele>227.1</ele>
        <time>2024-11-20T10:34:19Z</time>
      </trkpt>
      <trkpt lat="48.13344" lon="-3.32217">
        <ele>227.1</ele>
        <time>2024-11-20T10:34:20Z</time>
      </trkpt>
      <trkpt lat="48.13348" lon="-3.32218">
        <ele>227.1</ele>
        <time>2024-11-20T10:34:24Z</time>
      </trkpt>
      <trkpt lat="48.1335" lon="-3.32217">
        <ele>227.1</ele>
        <time>2024-11-20T10:34:25Z</time>
      </trkpt>
      <trkpt lat="48.13351" lon="-3.32217">
        <ele>227.1</ele>
        <time>2024-11-20T10:34:26Z</time>
      </trkpt>
      <trkpt lat="48.13353" lon="-3.32217">
        <ele>227.1</ele>
        <time>2024-11-20T10:34:27Z</time>
      </trkpt>
      <trkpt lat="48.13354" lon="-3.32217">
        <ele>227.1</ele>
        <time>2024-11-20T10:34:28Z</time>
      </trkpt>
      <trkpt lat="48.13354" lon="-3.32217">
        <ele>227.1</ele>
        <time>2024-11-20T10:34:29Z</time>
      </trkpt>
      <trkpt lat="48.13355" lon="-3.32217">
        <ele>227.2</ele>
        <time>2024-11-20T10:34:30Z</time>
      </trkpt>
      <trkpt lat="48.13357" lon="-3.32217">
        <ele>227.2</ele>
        <time>2024-11-20T10:34:31Z</time>
      </trkpt>
      <trkpt lat="48.13358" lon="-3.32217">
        <ele>227.2</ele>
        <time>2024-11-20T10:34:32Z</time>
      </trkpt>
      <trkpt lat="48.13358" lon="-3.32217">
        <ele>227.2</ele>
        <time>2024-11-20T10:34:33Z</time>
      </trkpt>
      <trkpt lat="48.13358" lon="-3.32217">
        <ele>227.2</ele>
        <time>2024-11-20T10:34:34Z</time>
      </trkpt>
      <trkpt lat="48.13358" lon="-3.32217">
        <ele>227.2</ele>
        <time>2024-11-20T10:34:35Z</time>
      </trkpt>
      <trkpt lat="48.13359" lon="-3.32217">
        <ele>227.2</ele>
        <time>2024-11-20T10:34:36Z</time>
      </trkpt>
      <trkpt lat="48.13359" lon="-3.32218">
        <ele>227.2</ele>
        <time>2024-11-20T10:34:37Z</time>
      </trkpt>
      <trkpt lat="48.1336" lon="-3.32218">
        <ele>227.1</ele>
        <time>2024-11-20T10:34:38Z</time>
      </trkpt>
      <trkpt lat="48.1336" lon="-3.32218">
        <ele>227.1</ele>
        <time>2024-11-20T10:34:39Z</time>
      </trkpt>
      <trkpt lat="48.1336" lon="-3.32218">
        <ele>227.1</ele>
        <time>2024-11-20T10:34:40Z</time>
      </trkpt>
      <trkpt lat="48.1336" lon="-3.32219">
        <ele>227.1</ele>
        <time>2024-11-20T10:34:41Z</time>
      </trkpt>
      <trkpt lat="48.13361" lon="-3.32219">
        <ele>227.1</ele>
        <time>2024-11-20T10:34:42Z</time>
      </trkpt>
      <trkpt lat="48.13361" lon="-3.32219">
        <ele>227.1</ele>
        <time>2024-11-20T10:34:43Z</time>
      </trkpt>
      <trkpt lat="48.13361" lon="-3.32219">
        <ele>227.1</ele>
        <time>2024-11-20T10:34:44Z</time>
      </trkpt>
      <trkpt lat="48.13361" lon="-3.32219">
        <ele>227.1</ele>
        <time>2024-11-20T10:34:45Z</time>
      </trkpt>
      <trkpt lat="48.13361" lon="-3.32219">
        <ele>227.1</ele>
        <time>2024-11-20T10:34:46Z</time>
      </trkpt>
      <trkpt lat="48.13361" lon="-3.32219">
        <ele>227.1</ele>
        <time>2024-11-20T10:34:47Z</time>
      </trkpt>
      <trkpt lat="48.13361" lon="-3.32219">
        <ele>227.1</ele>
        <time>2024-11-20T10:34:48Z</time>
      </trkpt>
      <trkpt lat="48.13361" lon="-3.32219">
        <ele>227.1</ele>
        <time>2024-11-20T10:34:49Z</time>
      </trkpt>
      <trkpt lat="48.13361" lon="-3.3222">
        <ele>227.1</ele>
        <time>2024-11-20T10:34:50Z</time>
      </trkpt>
      <trkpt lat="48.13361" lon="-3.3222">
        <ele>227.1</ele>
        <time>2024-11-20T10:34:51Z</time>
      </trkpt>
      <trkpt lat="48.13361" lon="-3.3222">
        <ele>227.1</ele>
        <time>2024-11-20T10:34:52Z</time>
      </trkpt>
      <trkpt lat="48.13362" lon="-3.3222">
        <ele>227.1</ele>
        <time>2024-11-20T10:34:53Z</time>
      </trkpt>
      <trkpt lat="48.13362" lon="-3.3222">
        <ele>227.1</ele>
        <time>2024-11-20T10:34:54Z</time>
      </trkpt>
      <trkpt lat="48.13362" lon="-3.32221">
        <ele>227.1</ele>
        <time>2024-11-20T10:34:55Z</time>
      </trkpt>
      <trkpt lat="48.13362" lon="-3.32221">
        <ele>227.1</ele>
        <time>2024-11-20T10:34:56Z</time>
      </trkpt>
      <trkpt lat="48.13362" lon="-3.32221">
        <ele>227.1</ele>
        <time>2024-11-20T10:34:57Z</time>
      </trkpt>
      <trkpt lat="48.13362" lon="-3.32221">
        <ele>227.1</ele>
        <time>2024-11-20T10:34:58Z</time>
      </trkpt>
      <trkpt lat="48.13363" lon="-3.3222">
        <ele>227.1</ele>
        <time>2024-11-20T10:34:59Z</time>
      </trkpt>
      <trkpt lat="48.13363" lon="-3.3222">
        <ele>227.1</ele>
        <time>2024-11-20T10:35:00Z</time>
      </trkpt>
      <trkpt lat="48.13363" lon="-3.3222">
        <ele>227.1</ele>
        <time>2024-11-20T10:35:01Z</time>
      </trkpt>
      <trkpt lat="48.13363" lon="-3.3222">
        <ele>227.1</ele>
        <time>2024-11-20T10:35:02Z</time>
      </trkpt>
      <trkpt lat="48.13363" lon="-3.32221">
        <ele>227.1</ele>
        <time>2024-11-20T10:35:03Z</time>
      </trkpt>
      <trkpt lat="48.13363" lon="-3.32221">
        <ele>227.1</ele>
        <time>2024-11-20T10:35:04Z</time>
      </trkpt>
      <trkpt lat="48.13363" lon="-3.32221">
        <ele>227.1</ele>
        <time>2024-11-20T10:35:05Z</time>
      </trkpt>
      <trkpt lat="48.13364" lon="-3.32221">
        <ele>227.1</ele>
        <time>2024-11-20T10:35:06Z</time>
      </trkpt>
      <trkpt lat="48.13364" lon="-3.32221">
        <ele>227</ele>
        <time>2024-11-20T10:35:07Z</time>
      </trkpt>
      <trkpt lat="48.13364" lon="-3.32221">
        <ele>227</ele>
        <time>2024-11-20T10:35:08Z</time>
      </trkpt>
      <trkpt lat="48.13364" lon="-3.32221">
        <ele>227</ele>
        <time>2024-11-20T10:35:09Z</time>
      </trkpt>
      <trkpt lat="48.13364" lon="-3.32221">
        <ele>227</ele>
        <time>2024-11-20T10:35:10Z</time>
      </trkpt>
      <trkpt lat="48.13364" lon="-3.32221">
        <ele>227</ele>
        <time>2024-11-20T10:35:11Z</time>
      </trkpt>
      <trkpt lat="48.13364" lon="-3.32221">
        <ele>227</ele>
        <time>2024-11-20T10:35:12Z</time>
      </trkpt>
      <trkpt lat="48.13364" lon="-3.32221">
        <ele>227</ele>
        <time>2024-11-20T10:35:13Z</time>
      </trkpt>
      <trkpt lat="48.13364" lon="-3.32221">
        <ele>227</ele>
        <time>2024-11-20T10:35:14Z</time>
      </trkpt>
      <trkpt lat="48.13364" lon="-3.32221">
        <ele>227</ele>
        <time>2024-11-20T10:35:15Z</time>
      </trkpt>
      <trkpt lat="48.13364" lon="-3.32221">
        <ele>227</ele>
        <time>2024-11-20T10:35:16Z</time>
      </trkpt>
      <trkpt lat="48.13364" lon="-3.32221">
        <ele>227</ele>
        <time>2024-11-20T10:35:17Z</time>
      </trkpt>
      <trkpt lat="48.13364" lon="-3.32221">
        <ele>227</ele>
        <time>2024-11-20T10:35:18Z</time>
      </trkpt>
      <trkpt lat="48.13364" lon="-3.32221">
        <ele>227</ele>
        <time>2024-11-20T10:35:19Z</time>
      </trkpt>
      <trkpt lat="48.13365" lon="-3.32222">
        <ele>227</ele>
        <time>2024-11-20T10:35:20Z</time>
      </trkpt>
      <trkpt lat="48.13365" lon="-3.32222">
        <ele>227</ele>
        <time>2024-11-20T10:35:21Z</time>
      </trkpt>
      <trkpt lat="48.13366" lon="-3.32222">
        <ele>227</ele>
        <time>2024-11-20T10:35:22Z</time>
      </trkpt>
      <trkpt lat="48.13367" lon="-3.32222">
        <ele>227</ele>
        <time>2024-11-20T10:35:23Z</time>
      </trkpt>
      <trkpt lat="48.13368" lon="-3.32222">
        <ele>227</ele>
        <time>2024-11-20T10:35:24Z</time>
      </trkpt>
      <trkpt lat="48.13368" lon="-3.32222">
        <ele>227</ele>
        <time>2024-11-20T10:35:25Z</time>
      </trkpt>
      <trkpt lat="48.13369" lon="-3.32222">
        <ele>227</ele>
        <time>2024-11-20T10:35:26Z</time>
      </trkpt>
      <trkpt lat="48.1337" lon="-3.32221">
        <ele>227</ele>
        <time>2024-11-20T10:35:27Z</time>
      </trkpt>
      <trkpt lat="48.13371" lon="-3.32221">
        <ele>227</ele>
        <time>2024-11-20T10:35:28Z</time>
      </trkpt>
      <trkpt lat="48.13371" lon="-3.32221">
        <ele>227</ele>
        <time>2024-11-20T10:35:29Z</time>
      </trkpt>
      <trkpt lat="48.13372" lon="-3.32221">
        <ele>227</ele>
        <time>2024-11-20T10:35:30Z</time>
      </trkpt>
      <trkpt lat="48.13372" lon="-3.32221">
        <ele>227</ele>
        <time>2024-11-20T10:35:31Z</time>
      </trkpt>
      <trkpt lat="48.13373" lon="-3.32221">
        <ele>227</ele>
        <time>2024-11-20T10:35:32Z</time>
      </trkpt>
      <trkpt lat="48.13374" lon="-3.32222">
        <ele>227</ele>
        <time>2024-11-20T10:35:33Z</time>
      </trkpt>
      <trkpt lat="48.13375" lon="-3.32222">
        <ele>227</ele>
        <time>2024-11-20T10:35:34Z</time>
      </trkpt>
      <trkpt lat="48.13376" lon="-3.32223">
        <ele>227</ele>
        <time>2024-11-20T10:35:35Z</time>
      </trkpt>
      <trkpt lat="48.13377" lon="-3.32223">
        <ele>227</ele>
        <time>2024-11-20T10:35:36Z</time>
      </trkpt>
      <trkpt lat="48.13378" lon="-3.32223">
        <ele>227</ele>
        <time>2024-11-20T10:35:37Z</time>
      </trkpt>
      <trkpt lat="48.13379" lon="-3.32224">
        <ele>227</ele>
        <time>2024-11-20T10:35:38Z</time>
      </trkpt>
      <trkpt lat="48.13381" lon="-3.32224">
        <ele>227</ele>
        <time>2024-11-20T10:35:39Z</time>
      </trkpt>
      <trkpt lat="48.13382" lon="-3.32224">
        <ele>227</ele>
        <time>2024-11-20T10:35:40Z</time>
      </trkpt>
      <trkpt lat="48.13383" lon="-3.32225">
        <ele>227</ele>
        <time>2024-11-20T10:35:41Z</time>
      </trkpt>
      <trkpt lat="48.13384" lon="-3.32225">
        <ele>227</ele>
        <time>2024-11-20T10:35:42Z</time>
      </trkpt>
      <trkpt lat="48.13385" lon="-3.32225">
        <ele>227</ele>
        <time>2024-11-20T10:35:43Z</time>
      </trkpt>
      <trkpt lat="48.13386" lon="-3.32226">
        <ele>227</ele>
        <time>2024-11-20T10:35:44Z</time>
      </trkpt>
      <trkpt lat="48.13387" lon="-3.32226">
        <ele>227</ele>
        <time>2024-11-20T10:35:45Z</time>
      </trkpt>
      <trkpt lat="48.13387" lon="-3.32226">
        <ele>227</ele>
        <time>2024-11-20T10:35:46Z</time>
      </trkpt>
      <trkpt lat="48.13388" lon="-3.32226">
        <ele>227</ele>
        <time>2024-11-20T10:35:47Z</time>
      </trkpt>
      <trkpt lat="48.1339" lon="-3.32227">
        <ele>227</ele>
        <time>2024-11-20T10:35:48Z</time>
      </trkpt>
      <trkpt lat="48.13391" lon="-3.32227">
        <ele>227</ele>
        <time>2024-11-20T10:35:49Z</time>
      </trkpt>
      <trkpt lat="48.13391" lon="-3.32227">
        <ele>227.1</ele>
        <time>2024-11-20T10:35:50Z</time>
      </trkpt>
      <trkpt lat="48.13392" lon="-3.32228">
        <ele>227.1</ele>
        <time>2024-11-20T10:35:51Z</time>
      </trkpt>
      <trkpt lat="48.13393" lon="-3.32228">
        <ele>227.1</ele>
        <time>2024-11-20T10:35:52Z</time>
      </trkpt>
      <trkpt lat="48.13394" lon="-3.32228">
        <ele>227.1</ele>
        <time>2024-11-20T10:35:53Z</time>
      </trkpt>
      <trkpt lat="48.13395" lon="-3.32228">
        <ele>227.2</ele>
        <time>2024-11-20T10:35:54Z</time>
      </trkpt>
      <trkpt lat="48.13396" lon="-3.32228">
        <ele>227.2</ele>
        <time>2024-11-20T10:35:55Z</time>
      </trkpt>
      <trkpt lat="48.13397" lon="-3.32228">
        <ele>227.2</ele>
        <time>2024-11-20T10:35:56Z</time>
      </trkpt>
      <trkpt lat="48.13398" lon="-3.32228">
        <ele>227.2</ele>
        <time>2024-11-20T10:35:57Z</time>
      </trkpt>
      <trkpt lat="48.13399" lon="-3.32228">
        <ele>227.3</ele>
        <time>2024-11-20T10:35:58Z</time>
      </trkpt>
      <trkpt lat="48.134" lon="-3.32228">
        <ele>227.3</ele>
        <time>2024-11-20T10:35:59Z</time>
      </trkpt>
      <trkpt lat="48.13401" lon="-3.32228">
        <ele>227.3</ele>
        <time>2024-11-20T10:36:00Z</time>
      </trkpt>
      <trkpt lat="48.13402" lon="-3.32229">
        <ele>227.4</ele>
        <time>2024-11-20T10:36:01Z</time>
      </trkpt>
      <trkpt lat="48.13404" lon="-3.32229">
        <ele>227.4</ele>
        <time>2024-11-20T10:36:02Z</time>
      </trkpt>
      <trkpt lat="48.13405" lon="-3.3223">
        <ele>227.4</ele>
        <time>2024-11-20T10:36:03Z</time>
      </trkpt>
      <trkpt lat="48.13407" lon="-3.3223">
        <ele>227.5</ele>
        <time>2024-11-20T10:36:04Z</time>
      </trkpt>
      <trkpt lat="48.13408" lon="-3.3223">
        <ele>227.5</ele>
        <time>2024-11-20T10:36:05Z</time>
      </trkpt>
      <trkpt lat="48.13409" lon="-3.32231">
        <ele>227.5</ele>
        <time>2024-11-20T10:36:06Z</time>
      </trkpt>
      <trkpt lat="48.1341" lon="-3.32231">
        <ele>227.5</ele>
        <time>2024-11-20T10:36:07Z</time>
      </trkpt>
      <trkpt lat="48.13411" lon="-3.32231">
        <ele>227.5</ele>
        <time>2024-11-20T10:36:08Z</time>
      </trkpt>
      <trkpt lat="48.13412" lon="-3.32232">
        <ele>227.5</ele>
        <time>2024-11-20T10:36:09Z</time>
      </trkpt>
      <trkpt lat="48.13413" lon="-3.32232">
        <ele>227.5</ele>
        <time>2024-11-20T10:36:10Z</time>
      </trkpt>
      <trkpt lat="48.13414" lon="-3.32233">
        <ele>227.6</ele>
        <time>2024-11-20T10:36:11Z</time>
      </trkpt>
      <trkpt lat="48.13415" lon="-3.32233">
        <ele>227.6</ele>
        <time>2024-11-20T10:36:12Z</time>
      </trkpt>
      <trkpt lat="48.13416" lon="-3.32233">
        <ele>227.6</ele>
        <time>2024-11-20T10:36:13Z</time>
      </trkpt>
      <trkpt lat="48.13417" lon="-3.32234">
        <ele>227.6</ele>
        <time>2024-11-20T10:36:14Z</time>
      </trkpt>
      <trkpt lat="48.13419" lon="-3.32234">
        <ele>227.6</ele>
        <time>2024-11-20T10:36:15Z</time>
      </trkpt>
      <trkpt lat="48.1342" lon="-3.32234">
        <ele>227.6</ele>
        <time>2024-11-20T10:36:16Z</time>
      </trkpt>
      <trkpt lat="48.13421" lon="-3.32235">
        <ele>227.6</ele>
        <time>2024-11-20T10:36:17Z</time>
      </trkpt>
      <trkpt lat="48.13422" lon="-3.32235">
        <ele>227.6</ele>
        <time>2024-11-20T10:36:18Z</time>
      </trkpt>
      <trkpt lat="48.13423" lon="-3.32235">
        <ele>227.6</ele>
        <time>2024-11-20T10:36:19Z</time>
      </trkpt>
      <trkpt lat="48.13423" lon="-3.32236">
        <ele>227.6</ele>
        <time>2024-11-20T10:36:20Z</time>
      </trkpt>
      <trkpt lat="48.13423" lon="-3.32236">
        <ele>227.6</ele>
        <time>2024-11-20T10:36:21Z</time>
      </trkpt>
      <trkpt lat="48.13424" lon="-3.32236">
        <ele>227.6</ele>
        <time>2024-11-20T10:36:22Z</time>
      </trkpt>
      <trkpt lat="48.13425" lon="-3.32237">
        <ele>227.6</ele>
        <time>2024-11-20T10:36:23Z</time>
      </trkpt>
      <trkpt lat="48.13426" lon="-3.32238">
        <ele>227.6</ele>
        <time>2024-11-20T10:36:24Z</time>
      </trkpt>
      <trkpt lat="48.13427" lon="-3.32238">
        <ele>227.6</ele>
        <time>2024-11-20T10:36:25Z</time>
      </trkpt>
      <trkpt lat="48.13428" lon="-3.32239">
        <ele>227.7</ele>
        <time>2024-11-20T10:36:26Z</time>
      </trkpt>
      <trkpt lat="48.13429" lon="-3.32239">
        <ele>227.7</ele>
        <time>2024-11-20T10:36:27Z</time>
      </trkpt>
      <trkpt lat="48.1343" lon="-3.32239">
        <ele>227.7</ele>
        <time>2024-11-20T10:36:28Z</time>
      </trkpt>
      <trkpt lat="48.13431" lon="-3.32239">
        <ele>227.7</ele>
        <time>2024-11-20T10:36:29Z</time>
      </trkpt>
      <trkpt lat="48.13432" lon="-3.32239">
        <ele>227.7</ele>
        <time>2024-11-20T10:36:30Z</time>
      </trkpt>
      <trkpt lat="48.13433" lon="-3.3224">
        <ele>227.7</ele>
        <time>2024-11-20T10:36:31Z</time>
      </trkpt>
      <trkpt lat="48.13433" lon="-3.3224">
        <ele>227.7</ele>
        <time>2024-11-20T10:36:32Z</time>
      </trkpt>
      <trkpt lat="48.13435" lon="-3.3224">
        <ele>227.8</ele>
        <time>2024-11-20T10:36:33Z</time>
      </trkpt>
      <trkpt lat="48.13436" lon="-3.32241">
        <ele>227.8</ele>
        <time>2024-11-20T10:36:34Z</time>
      </trkpt>
      <trkpt lat="48.13436" lon="-3.32241">
        <ele>227.8</ele>
        <time>2024-11-20T10:36:35Z</time>
      </trkpt>
      <trkpt lat="48.13437" lon="-3.32242">
        <ele>227.8</ele>
        <time>2024-11-20T10:36:36Z</time>
      </trkpt>
      <trkpt lat="48.13438" lon="-3.32242">
        <ele>227.8</ele>
        <time>2024-11-20T10:36:37Z</time>
      </trkpt>
      <trkpt lat="48.1344" lon="-3.32242">
        <ele>227.9</ele>
        <time>2024-11-20T10:36:38Z</time>
      </trkpt>
      <trkpt lat="48.13442" lon="-3.32243">
        <ele>227.9</ele>
        <time>2024-11-20T10:36:39Z</time>
      </trkpt>
      <trkpt lat="48.13443" lon="-3.32243">
        <ele>228</ele>
        <time>2024-11-20T10:36:40Z</time>
      </trkpt>
      <trkpt lat="48.13444" lon="-3.32243">
        <ele>228</ele>
        <time>2024-11-20T10:36:41Z</time>
      </trkpt>
      <trkpt lat="48.13446" lon="-3.32244">
        <ele>228.1</ele>
        <time>2024-11-20T10:36:42Z</time>
      </trkpt>
      <trkpt lat="48.13448" lon="-3.32244">
        <ele>228.1</ele>
        <time>2024-11-20T10:36:43Z</time>
      </trkpt>
      <trkpt lat="48.13449" lon="-3.32245">
        <ele>228.2</ele>
        <time>2024-11-20T10:36:44Z</time>
      </trkpt>
      <trkpt lat="48.1345" lon="-3.32245">
        <ele>228.2</ele>
        <time>2024-11-20T10:36:45Z</time>
      </trkpt>
      <trkpt lat="48.13451" lon="-3.32246">
        <ele>228.2</ele>
        <time>2024-11-20T10:36:46Z</time>
      </trkpt>
      <trkpt lat="48.13453" lon="-3.32247">
        <ele>228.3</ele>
        <time>2024-11-20T10:36:47Z</time>
      </trkpt>
      <trkpt lat="48.13454" lon="-3.32248">
        <ele>228.3</ele>
        <time>2024-11-20T10:36:48Z</time>
      </trkpt>
      <trkpt lat="48.13455" lon="-3.32248">
        <ele>228.4</ele>
        <time>2024-11-20T10:36:49Z</time>
      </trkpt>
      <trkpt lat="48.13457" lon="-3.32249">
        <ele>228.4</ele>
        <time>2024-11-20T10:36:50Z</time>
      </trkpt>
      <trkpt lat="48.13458" lon="-3.32249">
        <ele>228.5</ele>
        <time>2024-11-20T10:36:51Z</time>
      </trkpt>
      <trkpt lat="48.13459" lon="-3.3225">
        <ele>228.5</ele>
        <time>2024-11-20T10:36:52Z</time>
      </trkpt>
      <trkpt lat="48.13461" lon="-3.32251">
        <ele>228.6</ele>
        <time>2024-11-20T10:36:53Z</time>
      </trkpt>
      <trkpt lat="48.13462" lon="-3.32251">
        <ele>228.6</ele>
        <time>2024-11-20T10:36:54Z</time>
      </trkpt>
      <trkpt lat="48.13463" lon="-3.32251">
        <ele>228.7</ele>
        <time>2024-11-20T10:36:55Z</time>
      </trkpt>
      <trkpt lat="48.13465" lon="-3.32252">
        <ele>228.7</ele>
        <time>2024-11-20T10:36:56Z</time>
      </trkpt>
      <trkpt lat="48.13466" lon="-3.32252">
        <ele>228.8</ele>
        <time>2024-11-20T10:36:57Z</time>
      </trkpt>
      <trkpt lat="48.13468" lon="-3.32252">
        <ele>228.8</ele>
        <time>2024-11-20T10:36:58Z</time>
      </trkpt>
      <trkpt lat="48.13469" lon="-3.32253">
        <ele>228.9</ele>
        <time>2024-11-20T10:36:59Z</time>
      </trkpt>
      <trkpt lat="48.1347" lon="-3.32253">
        <ele>228.9</ele>
        <time>2024-11-20T10:37:00Z</time>
      </trkpt>
      <trkpt lat="48.13472" lon="-3.32254">
        <ele>229</ele>
        <time>2024-11-20T10:37:01Z</time>
      </trkpt>
      <trkpt lat="48.13473" lon="-3.32254">
        <ele>229</ele>
        <time>2024-11-20T10:37:02Z</time>
      </trkpt>
      <trkpt lat="48.13475" lon="-3.32255">
        <ele>229.1</ele>
        <time>2024-11-20T10:37:03Z</time>
      </trkpt>
      <trkpt lat="48.13477" lon="-3.32255">
        <ele>229.2</ele>
        <time>2024-11-20T10:37:04Z</time>
      </trkpt>
      <trkpt lat="48.13478" lon="-3.32255">
        <ele>229.2</ele>
        <time>2024-11-20T10:37:05Z</time>
      </trkpt>
      <trkpt lat="48.13479" lon="-3.32256">
        <ele>229.3</ele>
        <time>2024-11-20T10:37:06Z</time>
      </trkpt>
      <trkpt lat="48.13481" lon="-3.32256">
        <ele>229.3</ele>
        <time>2024-11-20T10:37:07Z</time>
      </trkpt>
      <trkpt lat="48.13482" lon="-3.32257">
        <ele>229.3</ele>
        <time>2024-11-20T10:37:08Z</time>
      </trkpt>
      <trkpt lat="48.13483" lon="-3.32258">
        <ele>229.4</ele>
        <time>2024-11-20T10:37:09Z</time>
      </trkpt>
      <trkpt lat="48.13484" lon="-3.32258">
        <ele>229.4</ele>
        <time>2024-11-20T10:37:10Z</time>
      </trkpt>
      <trkpt lat="48.13485" lon="-3.32259">
        <ele>229.5</ele>
        <time>2024-11-20T10:37:11Z</time>
      </trkpt>
      <trkpt lat="48.13486" lon="-3.32259">
        <ele>229.5</ele>
        <time>2024-11-20T10:37:12Z</time>
      </trkpt>
      <trkpt lat="48.13487" lon="-3.32259">
        <ele>229.5</ele>
        <time>2024-11-20T10:37:13Z</time>
      </trkpt>
      <trkpt lat="48.13489" lon="-3.3226">
        <ele>229.6</ele>
        <time>2024-11-20T10:37:14Z</time>
      </trkpt>
      <trkpt lat="48.1349" lon="-3.3226">
        <ele>229.6</ele>
        <time>2024-11-20T10:37:15Z</time>
      </trkpt>
      <trkpt lat="48.13491" lon="-3.32261">
        <ele>229.7</ele>
        <time>2024-11-20T10:37:16Z</time>
      </trkpt>
      <trkpt lat="48.13493" lon="-3.32261">
        <ele>229.7</ele>
        <time>2024-11-20T10:37:17Z</time>
      </trkpt>
      <trkpt lat="48.13494" lon="-3.32262">
        <ele>229.8</ele>
        <time>2024-11-20T10:37:18Z</time>
      </trkpt>
      <trkpt lat="48.13495" lon="-3.32262">
        <ele>229.8</ele>
        <time>2024-11-20T10:37:19Z</time>
      </trkpt>
      <trkpt lat="48.13496" lon="-3.32262">
        <ele>229.8</ele>
        <time>2024-11-20T10:37:20Z</time>
      </trkpt>
      <trkpt lat="48.13496" lon="-3.32263">
        <ele>229.9</ele>
        <time>2024-11-20T10:37:21Z</time>
      </trkpt>
      <trkpt lat="48.13497" lon="-3.32263">
        <ele>229.9</ele>
        <time>2024-11-20T10:37:22Z</time>
      </trkpt>
      <trkpt lat="48.13498" lon="-3.32263">
        <ele>229.9</ele>
        <time>2024-11-20T10:37:23Z</time>
      </trkpt>
      <trkpt lat="48.13499" lon="-3.32263">
        <ele>229.9</ele>
        <time>2024-11-20T10:37:24Z</time>
      </trkpt>
      <trkpt lat="48.135" lon="-3.32263">
        <ele>230</ele>
        <time>2024-11-20T10:37:25Z</time>
      </trkpt>
      <trkpt lat="48.13501" lon="-3.32263">
        <ele>230</ele>
        <time>2024-11-20T10:37:26Z</time>
      </trkpt>
      <trkpt lat="48.13502" lon="-3.32264">
        <ele>230.1</ele>
        <time>2024-11-20T10:37:27Z</time>
      </trkpt>
      <trkpt lat="48.13503" lon="-3.32264">
        <ele>230.1</ele>
        <time>2024-11-20T10:37:28Z</time>
      </trkpt>
      <trkpt lat="48.13505" lon="-3.32265">
        <ele>230.2</ele>
        <time>2024-11-20T10:37:29Z</time>
      </trkpt>
      <trkpt lat="48.13506" lon="-3.32266">
        <ele>230.2</ele>
        <time>2024-11-20T10:37:30Z</time>
      </trkpt>
      <trkpt lat="48.13507" lon="-3.32266">
        <ele>230.3</ele>
        <time>2024-11-20T10:37:31Z</time>
      </trkpt>
      <trkpt lat="48.13509" lon="-3.32267">
        <ele>230.3</ele>
        <time>2024-11-20T10:37:32Z</time>
      </trkpt>
      <trkpt lat="48.1351" lon="-3.32267">
        <ele>230.3</ele>
        <time>2024-11-20T10:37:33Z</time>
      </trkpt>
      <trkpt lat="48.13511" lon="-3.32268">
        <ele>230.4</ele>
        <time>2024-11-20T10:37:34Z</time>
      </trkpt>
      <trkpt lat="48.13512" lon="-3.32268">
        <ele>230.4</ele>
        <time>2024-11-20T10:37:35Z</time>
      </trkpt>
      <trkpt lat="48.13513" lon="-3.32268">
        <ele>230.5</ele>
        <time>2024-11-20T10:37:36Z</time>
      </trkpt>
      <trkpt lat="48.13515" lon="-3.32269">
        <ele>230.5</ele>
        <time>2024-11-20T10:37:37Z</time>
      </trkpt>
      <trkpt lat="48.13516" lon="-3.32269">
        <ele>230.6</ele>
        <time>2024-11-20T10:37:38Z</time>
      </trkpt>
      <trkpt lat="48.13517" lon="-3.32269">
        <ele>230.6</ele>
        <time>2024-11-20T10:37:39Z</time>
      </trkpt>
      <trkpt lat="48.13518" lon="-3.3227">
        <ele>230.6</ele>
        <time>2024-11-20T10:37:40Z</time>
      </trkpt>
      <trkpt lat="48.13519" lon="-3.32271">
        <ele>230.7</ele>
        <time>2024-11-20T10:37:41Z</time>
      </trkpt>
      <trkpt lat="48.1352" lon="-3.32271">
        <ele>230.7</ele>
        <time>2024-11-20T10:37:42Z</time>
      </trkpt>
      <trkpt lat="48.13522" lon="-3.32272">
        <ele>230.8</ele>
        <time>2024-11-20T10:37:43Z</time>
      </trkpt>
      <trkpt lat="48.13523" lon="-3.32273">
        <ele>230.8</ele>
        <time>2024-11-20T10:37:44Z</time>
      </trkpt>
      <trkpt lat="48.13524" lon="-3.32273">
        <ele>230.8</ele>
        <time>2024-11-20T10:37:45Z</time>
      </trkpt>
      <trkpt lat="48.13525" lon="-3.32274">
        <ele>230.9</ele>
        <time>2024-11-20T10:37:46Z</time>
      </trkpt>
      <trkpt lat="48.13527" lon="-3.32274">
        <ele>231</ele>
        <time>2024-11-20T10:37:47Z</time>
      </trkpt>
      <trkpt lat="48.13528" lon="-3.32275">
        <ele>231</ele>
        <time>2024-11-20T10:37:48Z</time>
      </trkpt>
      <trkpt lat="48.13529" lon="-3.32276">
        <ele>231</ele>
        <time>2024-11-20T10:37:49Z</time>
      </trkpt>
      <trkpt lat="48.1353" lon="-3.32276">
        <ele>231</ele>
        <time>2024-11-20T10:37:50Z</time>
      </trkpt>
      <trkpt lat="48.1353" lon="-3.32277">
        <ele>231</ele>
        <time>2024-11-20T10:37:51Z</time>
      </trkpt>
      <trkpt lat="48.13531" lon="-3.32277">
        <ele>231</ele>
        <time>2024-11-20T10:37:52Z</time>
      </trkpt>
      <trkpt lat="48.13532" lon="-3.32277">
        <ele>231</ele>
        <time>2024-11-20T10:37:53Z</time>
      </trkpt>
      <trkpt lat="48.13533" lon="-3.32277">
        <ele>231</ele>
        <time>2024-11-20T10:37:54Z</time>
      </trkpt>
      <trkpt lat="48.13535" lon="-3.32277">
        <ele>231</ele>
        <time>2024-11-20T10:37:55Z</time>
      </trkpt>
      <trkpt lat="48.13535" lon="-3.32276">
        <ele>231</ele>
        <time>2024-11-20T10:37:56Z</time>
      </trkpt>
      <trkpt lat="48.13536" lon="-3.32275">
        <ele>231</ele>
        <time>2024-11-20T10:37:57Z</time>
      </trkpt>
      <trkpt lat="48.13536" lon="-3.32275">
        <ele>231</ele>
        <time>2024-11-20T10:37:58Z</time>
      </trkpt>
      <trkpt lat="48.13536" lon="-3.32275">
        <ele>231</ele>
        <time>2024-11-20T10:37:59Z</time>
      </trkpt>
      <trkpt lat="48.13537" lon="-3.32276">
        <ele>231</ele>
        <time>2024-11-20T10:38:00Z</time>
      </trkpt>
      <trkpt lat="48.13538" lon="-3.32276">
        <ele>231</ele>
        <time>2024-11-20T10:38:01Z</time>
      </trkpt>
      <trkpt lat="48.13539" lon="-3.32277">
        <ele>231</ele>
        <time>2024-11-20T10:38:02Z</time>
      </trkpt>
      <trkpt lat="48.1354" lon="-3.32278">
        <ele>231</ele>
        <time>2024-11-20T10:38:03Z</time>
      </trkpt>
      <trkpt lat="48.13541" lon="-3.32279">
        <ele>231</ele>
        <time>2024-11-20T10:38:04Z</time>
      </trkpt>
      <trkpt lat="48.13543" lon="-3.3228">
        <ele>231</ele>
        <time>2024-11-20T10:38:05Z</time>
      </trkpt>
      <trkpt lat="48.13544" lon="-3.32281">
        <ele>231</ele>
        <time>2024-11-20T10:38:06Z</time>
      </trkpt>
      <trkpt lat="48.13546" lon="-3.32281">
        <ele>231</ele>
        <time>2024-11-20T10:38:07Z</time>
      </trkpt>
      <trkpt lat="48.13547" lon="-3.32281">
        <ele>231</ele>
        <time>2024-11-20T10:38:08Z</time>
      </trkpt>
      <trkpt lat="48.13547" lon="-3.32282">
        <ele>231</ele>
        <time>2024-11-20T10:38:09Z</time>
      </trkpt>
      <trkpt lat="48.13549" lon="-3.32282">
        <ele>231</ele>
        <time>2024-11-20T10:38:10Z</time>
      </trkpt>
      <trkpt lat="48.1355" lon="-3.32283">
        <ele>231</ele>
        <time>2024-11-20T10:38:11Z</time>
      </trkpt>
      <trkpt lat="48.13551" lon="-3.32283">
        <ele>231</ele>
        <time>2024-11-20T10:38:12Z</time>
      </trkpt>
      <trkpt lat="48.13552" lon="-3.32283">
        <ele>231</ele>
        <time>2024-11-20T10:38:13Z</time>
      </trkpt>
      <trkpt lat="48.13553" lon="-3.32283">
        <ele>231</ele>
        <time>2024-11-20T10:38:14Z</time>
      </trkpt>
      <trkpt lat="48.13555" lon="-3.32284">
        <ele>231</ele>
        <time>2024-11-20T10:38:15Z</time>
      </trkpt>
      <trkpt lat="48.13556" lon="-3.32284">
        <ele>231</ele>
        <time>2024-11-20T10:38:16Z</time>
      </trkpt>
      <trkpt lat="48.13557" lon="-3.32284">
        <ele>231</ele>
        <time>2024-11-20T10:38:17Z</time>
      </trkpt>
      <trkpt lat="48.13559" lon="-3.32285">
        <ele>231</ele>
        <time>2024-11-20T10:38:18Z</time>
      </trkpt>
      <trkpt lat="48.1356" lon="-3.32285">
        <ele>231</ele>
        <time>2024-11-20T10:38:19Z</time>
      </trkpt>
      <trkpt lat="48.13561" lon="-3.32285">
        <ele>231</ele>
        <time>2024-11-20T10:38:20Z</time>
      </trkpt>
      <trkpt lat="48.13562" lon="-3.32286">
        <ele>231</ele>
        <time>2024-11-20T10:38:21Z</time>
      </trkpt>
      <trkpt lat="48.13564" lon="-3.32287">
        <ele>231</ele>
        <time>2024-11-20T10:38:22Z</time>
      </trkpt>
      <trkpt lat="48.13565" lon="-3.32288">
        <ele>231</ele>
        <time>2024-11-20T10:38:23Z</time>
      </trkpt>
      <trkpt lat="48.13566" lon="-3.32289">
        <ele>231</ele>
        <time>2024-11-20T10:38:24Z</time>
      </trkpt>
      <trkpt lat="48.13567" lon="-3.3229">
        <ele>231</ele>
        <time>2024-11-20T10:38:25Z</time>
      </trkpt>
      <trkpt lat="48.13568" lon="-3.32291">
        <ele>231</ele>
        <time>2024-11-20T10:38:26Z</time>
      </trkpt>
      <trkpt lat="48.13569" lon="-3.32292">
        <ele>231</ele>
        <time>2024-11-20T10:38:27Z</time>
      </trkpt>
      <trkpt lat="48.1357" lon="-3.32293">
        <ele>231</ele>
        <time>2024-11-20T10:38:28Z</time>
      </trkpt>
      <trkpt lat="48.13571" lon="-3.32294">
        <ele>231</ele>
        <time>2024-11-20T10:38:29Z</time>
      </trkpt>
      <trkpt lat="48.13571" lon="-3.32295">
        <ele>231</ele>
        <time>2024-11-20T10:38:30Z</time>
      </trkpt>
      <trkpt lat="48.13571" lon="-3.32296">
        <ele>231</ele>
        <time>2024-11-20T10:38:31Z</time>
      </trkpt>
      <trkpt lat="48.13572" lon="-3.32296">
        <ele>231</ele>
        <time>2024-11-20T10:38:32Z</time>
      </trkpt>
      <trkpt lat="48.13573" lon="-3.32296">
        <ele>231</ele>
        <time>2024-11-20T10:38:33Z</time>
      </trkpt>
      <trkpt lat="48.13573" lon="-3.32297">
        <ele>231</ele>
        <time>2024-11-20T10:38:34Z</time>
      </trkpt>
      <trkpt lat="48.13574" lon="-3.32297">
        <ele>231</ele>
        <time>2024-11-20T10:38:35Z</time>
      </trkpt>
      <trkpt lat="48.13576" lon="-3.32297">
        <ele>231</ele>
        <time>2024-11-20T10:38:36Z</time>
      </trkpt>
      <trkpt lat="48.13577" lon="-3.32297">
        <ele>231</ele>
        <time>2024-11-20T10:38:37Z</time>
      </trkpt>
      <trkpt lat="48.13579" lon="-3.32297">
        <ele>231</ele>
        <time>2024-11-20T10:38:38Z</time>
      </trkpt>
      <trkpt lat="48.13581" lon="-3.32298">
        <ele>231</ele>
        <time>2024-11-20T10:38:39Z</time>
      </trkpt>
      <trkpt lat="48.13582" lon="-3.32298">
        <ele>231</ele>
        <time>2024-11-20T10:38:40Z</time>
      </trkpt>
      <trkpt lat="48.13583" lon="-3.32298">
        <ele>231</ele>
        <time>2024-11-20T10:38:41Z</time>
      </trkpt>
      <trkpt lat="48.13584" lon="-3.32299">
        <ele>231</ele>
        <time>2024-11-20T10:38:42Z</time>
      </trkpt>
      <trkpt lat="48.13585" lon="-3.32299">
        <ele>231</ele>
        <time>2024-11-20T10:38:43Z</time>
      </trkpt>
      <trkpt lat="48.13586" lon="-3.32299">
        <ele>231</ele>
        <time>2024-11-20T10:38:44Z</time>
      </trkpt>
      <trkpt lat="48.13587" lon="-3.32299">
        <ele>231</ele>
        <time>2024-11-20T10:38:45Z</time>
      </trkpt>
      <trkpt lat="48.13588" lon="-3.32298">
        <ele>231</ele>
        <time>2024-11-20T10:38:46Z</time>
      </trkpt>
      <trkpt lat="48.1359" lon="-3.32298">
        <ele>231</ele>
        <time>2024-11-20T10:38:47Z</time>
      </trkpt>
      <trkpt lat="48.13591" lon="-3.32298">
        <ele>231</ele>
        <time>2024-11-20T10:38:48Z</time>
      </trkpt>
      <trkpt lat="48.13592" lon="-3.32299">
        <ele>231</ele>
        <time>2024-11-20T10:38:49Z</time>
      </trkpt>
      <trkpt lat="48.13594" lon="-3.32299">
        <ele>231</ele>
        <time>2024-11-20T10:38:50Z</time>
      </trkpt>
      <trkpt lat="48.13596" lon="-3.323">
        <ele>231</ele>
        <time>2024-11-20T10:38:51Z</time>
      </trkpt>
      <trkpt lat="48.13597" lon="-3.32301">
        <ele>231</ele>
        <time>2024-11-20T10:38:52Z</time>
      </trkpt>
      <trkpt lat="48.13599" lon="-3.32301">
        <ele>231</ele>
        <time>2024-11-20T10:38:53Z</time>
      </trkpt>
      <trkpt lat="48.136" lon="-3.32302">
        <ele>231</ele>
        <time>2024-11-20T10:38:54Z</time>
      </trkpt>
      <trkpt lat="48.13601" lon="-3.32303">
        <ele>231</ele>
        <time>2024-11-20T10:38:55Z</time>
      </trkpt>
      <trkpt lat="48.13602" lon="-3.32303">
        <ele>231</ele>
        <time>2024-11-20T10:38:56Z</time>
      </trkpt>
      <trkpt lat="48.13604" lon="-3.32303">
        <ele>231</ele>
        <time>2024-11-20T10:38:57Z</time>
      </trkpt>
      <trkpt lat="48.13605" lon="-3.32304">
        <ele>231</ele>
        <time>2024-11-20T10:38:58Z</time>
      </trkpt>
      <trkpt lat="48.13606" lon="-3.32305">
        <ele>231</ele>
        <time>2024-11-20T10:38:59Z</time>
      </trkpt>
      <trkpt lat="48.13606" lon="-3.32306">
        <ele>231</ele>
        <time>2024-11-20T10:39:00Z</time>
      </trkpt>
      <trkpt lat="48.13607" lon="-3.32306">
        <ele>231</ele>
        <time>2024-11-20T10:39:01Z</time>
      </trkpt>
      <trkpt lat="48.13607" lon="-3.32307">
        <ele>231</ele>
        <time>2024-11-20T10:39:02Z</time>
      </trkpt>
      <trkpt lat="48.13608" lon="-3.32307">
        <ele>231</ele>
        <time>2024-11-20T10:39:03Z</time>
      </trkpt>
      <trkpt lat="48.13609" lon="-3.32307">
        <ele>230.9</ele>
        <time>2024-11-20T10:39:04Z</time>
      </trkpt>
      <trkpt lat="48.1361" lon="-3.32307">
        <ele>230.9</ele>
        <time>2024-11-20T10:39:05Z</time>
      </trkpt>
      <trkpt lat="48.13611" lon="-3.32308">
        <ele>230.9</ele>
        <time>2024-11-20T10:39:06Z</time>
      </trkpt>
      <trkpt lat="48.13612" lon="-3.32309">
        <ele>230.8</ele>
        <time>2024-11-20T10:39:07Z</time>
      </trkpt>
      <trkpt lat="48.13613" lon="-3.3231">
        <ele>230.8</ele>
        <time>2024-11-20T10:39:08Z</time>
      </trkpt>
      <trkpt lat="48.13615" lon="-3.32311">
        <ele>230.7</ele>
        <time>2024-11-20T10:39:09Z</time>
      </trkpt>
      <trkpt lat="48.13616" lon="-3.32311">
        <ele>230.6</ele>
        <time>2024-11-20T10:39:10Z</time>
      </trkpt>
      <trkpt lat="48.13618" lon="-3.32312">
        <ele>230.5</ele>
        <time>2024-11-20T10:39:11Z</time>
      </trkpt>
      <trkpt lat="48.1362" lon="-3.32312">
        <ele>230.5</ele>
        <time>2024-11-20T10:39:12Z</time>
      </trkpt>
      <trkpt lat="48.13622" lon="-3.32312">
        <ele>230.4</ele>
        <time>2024-11-20T10:39:13Z</time>
      </trkpt>
      <trkpt lat="48.13622" lon="-3.32312">
        <ele>230.4</ele>
        <time>2024-11-20T10:39:14Z</time>
      </trkpt>
      <trkpt lat="48.13623" lon="-3.32313">
        <ele>230.3</ele>
        <time>2024-11-20T10:39:15Z</time>
      </trkpt>
      <trkpt lat="48.13624" lon="-3.32313">
        <ele>230.3</ele>
        <time>2024-11-20T10:39:16Z</time>
      </trkpt>
      <trkpt lat="48.13625" lon="-3.32313">
        <ele>230.3</ele>
        <time>2024-11-20T10:39:17Z</time>
      </trkpt>
      <trkpt lat="48.13625" lon="-3.32313">
        <ele>230.2</ele>
        <time>2024-11-20T10:39:18Z</time>
      </trkpt>
      <trkpt lat="48.13626" lon="-3.32313">
        <ele>230.2</ele>
        <time>2024-11-20T10:39:19Z</time>
      </trkpt>
      <trkpt lat="48.13627" lon="-3.32313">
        <ele>230.1</ele>
        <time>2024-11-20T10:39:20Z</time>
      </trkpt>
      <trkpt lat="48.13627" lon="-3.32314">
        <ele>230.1</ele>
        <time>2024-11-20T10:39:21Z</time>
      </trkpt>
      <trkpt lat="48.13628" lon="-3.32314">
        <ele>230.1</ele>
        <time>2024-11-20T10:39:22Z</time>
      </trkpt>
      <trkpt lat="48.13628" lon="-3.32314">
        <ele>230.1</ele>
        <time>2024-11-20T10:39:23Z</time>
      </trkpt>
      <trkpt lat="48.13628" lon="-3.32314">
        <ele>230.1</ele>
        <time>2024-11-20T10:39:24Z</time>
      </trkpt>
      <trkpt lat="48.13629" lon="-3.32314">
        <ele>230</ele>
        <time>2024-11-20T10:39:25Z</time>
      </trkpt>
      <trkpt lat="48.1363" lon="-3.32314">
        <ele>230</ele>
        <time>2024-11-20T10:39:26Z</time>
      </trkpt>
      <trkpt lat="48.13632" lon="-3.32315">
        <ele>229.9</ele>
        <time>2024-11-20T10:39:27Z</time>
      </trkpt>
      <trkpt lat="48.13633" lon="-3.32315">
        <ele>229.9</ele>
        <time>2024-11-20T10:39:28Z</time>
      </trkpt>
      <trkpt lat="48.13634" lon="-3.32315">
        <ele>229.8</ele>
        <time>2024-11-20T10:39:29Z</time>
      </trkpt>
      <trkpt lat="48.13635" lon="-3.32315">
        <ele>229.8</ele>
        <time>2024-11-20T10:39:30Z</time>
      </trkpt>
      <trkpt lat="48.13636" lon="-3.32315">
        <ele>229.7</ele>
        <time>2024-11-20T10:39:31Z</time>
      </trkpt>
      <trkpt lat="48.13638" lon="-3.32315">
        <ele>229.7</ele>
        <time>2024-11-20T10:39:32Z</time>
      </trkpt>
      <trkpt lat="48.13639" lon="-3.32316">
        <ele>229.6</ele>
        <time>2024-11-20T10:39:33Z</time>
      </trkpt>
      <trkpt lat="48.1364" lon="-3.32316">
        <ele>229.6</ele>
        <time>2024-11-20T10:39:34Z</time>
      </trkpt>
      <trkpt lat="48.13641" lon="-3.32316">
        <ele>229.6</ele>
        <time>2024-11-20T10:39:35Z</time>
      </trkpt>
      <trkpt lat="48.13642" lon="-3.32316">
        <ele>229.6</ele>
        <time>2024-11-20T10:39:36Z</time>
      </trkpt>
      <trkpt lat="48.13644" lon="-3.32316">
        <ele>229.6</ele>
        <time>2024-11-20T10:39:37Z</time>
      </trkpt>
      <trkpt lat="48.13645" lon="-3.32316">
        <ele>229.6</ele>
        <time>2024-11-20T10:39:38Z</time>
      </trkpt>
      <trkpt lat="48.13646" lon="-3.32317">
        <ele>229.6</ele>
        <time>2024-11-20T10:39:39Z</time>
      </trkpt>
      <trkpt lat="48.13647" lon="-3.32318">
        <ele>229.6</ele>
        <time>2024-11-20T10:39:40Z</time>
      </trkpt>
      <trkpt lat="48.13648" lon="-3.32319">
        <ele>229.5</ele>
        <time>2024-11-20T10:39:41Z</time>
      </trkpt>
      <trkpt lat="48.13649" lon="-3.32319">
        <ele>229.5</ele>
        <time>2024-11-20T10:39:42Z</time>
      </trkpt>
      <trkpt lat="48.13651" lon="-3.3232">
        <ele>229.5</ele>
        <time>2024-11-20T10:39:43Z</time>
      </trkpt>
      <trkpt lat="48.13652" lon="-3.32321">
        <ele>229.5</ele>
        <time>2024-11-20T10:39:44Z</time>
      </trkpt>
      <trkpt lat="48.13654" lon="-3.32322">
        <ele>229.4</ele>
        <time>2024-11-20T10:39:45Z</time>
      </trkpt>
      <trkpt lat="48.13655" lon="-3.32322">
        <ele>229.4</ele>
        <time>2024-11-20T10:39:46Z</time>
      </trkpt>
      <trkpt lat="48.13656" lon="-3.32323">
        <ele>229.4</ele>
        <time>2024-11-20T10:39:47Z</time>
      </trkpt>
      <trkpt lat="48.13656" lon="-3.32323">
        <ele>229.4</ele>
        <time>2024-11-20T10:39:48Z</time>
      </trkpt>
      <trkpt lat="48.13657" lon="-3.32324">
        <ele>229.3</ele>
        <time>2024-11-20T10:39:49Z</time>
      </trkpt>
      <trkpt lat="48.13659" lon="-3.32325">
        <ele>229.3</ele>
        <time>2024-11-20T10:39:50Z</time>
      </trkpt>
      <trkpt lat="48.1366" lon="-3.32325">
        <ele>229.3</ele>
        <time>2024-11-20T10:39:51Z</time>
      </trkpt>
      <trkpt lat="48.13662" lon="-3.32324">
        <ele>229.3</ele>
        <time>2024-11-20T10:39:52Z</time>
      </trkpt>
      <trkpt lat="48.13663" lon="-3.32324">
        <ele>229.3</ele>
        <time>2024-11-20T10:39:53Z</time>
      </trkpt>
      <trkpt lat="48.13665" lon="-3.32323">
        <ele>229.4</ele>
        <time>2024-11-20T10:39:54Z</time>
      </trkpt>
      <trkpt lat="48.13666" lon="-3.32323">
        <ele>229.4</ele>
        <time>2024-11-20T10:39:55Z</time>
      </trkpt>
      <trkpt lat="48.13668" lon="-3.32322">
        <ele>229.4</ele>
        <time>2024-11-20T10:39:56Z</time>
      </trkpt>
      <trkpt lat="48.13669" lon="-3.32321">
        <ele>229.4</ele>
        <time>2024-11-20T10:39:57Z</time>
      </trkpt>
      <trkpt lat="48.1367" lon="-3.32321">
        <ele>229.5</ele>
        <time>2024-11-20T10:39:58Z</time>
      </trkpt>
      <trkpt lat="48.13671" lon="-3.3232">
        <ele>229.5</ele>
        <time>2024-11-20T10:39:59Z</time>
      </trkpt>
      <trkpt lat="48.13672" lon="-3.32319">
        <ele>229.5</ele>
        <time>2024-11-20T10:40:00Z</time>
      </trkpt>
      <trkpt lat="48.13673" lon="-3.32317">
        <ele>229.6</ele>
        <time>2024-11-20T10:40:01Z</time>
      </trkpt>
      <trkpt lat="48.13674" lon="-3.32316">
        <ele>229.6</ele>
        <time>2024-11-20T10:40:02Z</time>
      </trkpt>
      <trkpt lat="48.13674" lon="-3.32315">
        <ele>229.7</ele>
        <time>2024-11-20T10:40:03Z</time>
      </trkpt>
      <trkpt lat="48.13674" lon="-3.32314">
        <ele>229.7</ele>
        <time>2024-11-20T10:40:04Z</time>
      </trkpt>
      <trkpt lat="48.13675" lon="-3.32312">
        <ele>229.8</ele>
        <time>2024-11-20T10:40:05Z</time>
      </trkpt>
      <trkpt lat="48.13676" lon="-3.32311">
        <ele>229.8</ele>
        <time>2024-11-20T10:40:06Z</time>
      </trkpt>
      <trkpt lat="48.13677" lon="-3.3231">
        <ele>229.8</ele>
        <time>2024-11-20T10:40:07Z</time>
      </trkpt>
      <trkpt lat="48.13678" lon="-3.32309">
        <ele>229.9</ele>
        <time>2024-11-20T10:40:08Z</time>
      </trkpt>
      <trkpt lat="48.13679" lon="-3.32307">
        <ele>229.9</ele>
        <time>2024-11-20T10:40:09Z</time>
      </trkpt>
      <trkpt lat="48.13679" lon="-3.32306">
        <ele>230</ele>
        <time>2024-11-20T10:40:10Z</time>
      </trkpt>
      <trkpt lat="48.1368" lon="-3.32305">
        <ele>230</ele>
        <time>2024-11-20T10:40:11Z</time>
      </trkpt>
      <trkpt lat="48.1368" lon="-3.32304">
        <ele>230.1</ele>
        <time>2024-11-20T10:40:12Z</time>
      </trkpt>
      <trkpt lat="48.13681" lon="-3.32303">
        <ele>230.1</ele>
        <time>2024-11-20T10:40:13Z</time>
      </trkpt>
      <trkpt lat="48.13682" lon="-3.32301">
        <ele>230.2</ele>
        <time>2024-11-20T10:40:14Z</time>
      </trkpt>
      <trkpt lat="48.13683" lon="-3.323">
        <ele>230.2</ele>
        <time>2024-11-20T10:40:15Z</time>
      </trkpt>
      <trkpt lat="48.13685" lon="-3.32299">
        <ele>230.2</ele>
        <time>2024-11-20T10:40:16Z</time>
      </trkpt>
      <trkpt lat="48.13686" lon="-3.32298">
        <ele>230.3</ele>
        <time>2024-11-20T10:40:17Z</time>
      </trkpt>
      <trkpt lat="48.13688" lon="-3.32297">
        <ele>230.3</ele>
        <time>2024-11-20T10:40:18Z</time>
      </trkpt>
      <trkpt lat="48.13688" lon="-3.32296">
        <ele>230.3</ele>
        <time>2024-11-20T10:40:19Z</time>
      </trkpt>
      <trkpt lat="48.13689" lon="-3.32295">
        <ele>230.4</ele>
        <time>2024-11-20T10:40:20Z</time>
      </trkpt>
      <trkpt lat="48.13689" lon="-3.32294">
        <ele>230.4</ele>
        <time>2024-11-20T10:40:21Z</time>
      </trkpt>
      <trkpt lat="48.1369" lon="-3.32293">
        <ele>230.5</ele>
        <time>2024-11-20T10:40:22Z</time>
      </trkpt>
      <trkpt lat="48.1369" lon="-3.32292">
        <ele>230.5</ele>
        <time>2024-11-20T10:40:23Z</time>
      </trkpt>
      <trkpt lat="48.1369" lon="-3.32291">
        <ele>230.5</ele>
        <time>2024-11-20T10:40:24Z</time>
      </trkpt>
      <trkpt lat="48.1369" lon="-3.3229">
        <ele>230.6</ele>
        <time>2024-11-20T10:40:25Z</time>
      </trkpt>
      <trkpt lat="48.13691" lon="-3.32289">
        <ele>230.6</ele>
        <time>2024-11-20T10:40:26Z</time>
      </trkpt>
      <trkpt lat="48.13691" lon="-3.32288">
        <ele>230.6</ele>
        <time>2024-11-20T10:40:27Z</time>
      </trkpt>
      <trkpt lat="48.1369" lon="-3.32286">
        <ele>230.7</ele>
        <time>2024-11-20T10:40:28Z</time>
      </trkpt>
      <trkpt lat="48.1369" lon="-3.32285">
        <ele>230.8</ele>
        <time>2024-11-20T10:40:29Z</time>
      </trkpt>
      <trkpt lat="48.1369" lon="-3.32283">
        <ele>230.8</ele>
        <time>2024-11-20T10:40:30Z</time>
      </trkpt>
      <trkpt lat="48.13691" lon="-3.32282">
        <ele>230.9</ele>
        <time>2024-11-20T10:40:31Z</time>
      </trkpt>
      <trkpt lat="48.13691" lon="-3.32281">
        <ele>230.9</ele>
        <time>2024-11-20T10:40:32Z</time>
      </trkpt>
      <trkpt lat="48.13691" lon="-3.3228">
        <ele>230.9</ele>
        <time>2024-11-20T10:40:33Z</time>
      </trkpt>
      <trkpt lat="48.13691" lon="-3.32279">
        <ele>231</ele>
        <time>2024-11-20T10:40:34Z</time>
      </trkpt>
      <trkpt lat="48.13691" lon="-3.32277">
        <ele>231</ele>
        <time>2024-11-20T10:40:35Z</time>
      </trkpt>
      <trkpt lat="48.13691" lon="-3.32276">
        <ele>231.1</ele>
        <time>2024-11-20T10:40:36Z</time>
      </trkpt>
      <trkpt lat="48.13692" lon="-3.32275">
        <ele>231.1</ele>
        <time>2024-11-20T10:40:37Z</time>
      </trkpt>
      <trkpt lat="48.13692" lon="-3.32274">
        <ele>231.1</ele>
        <time>2024-11-20T10:40:38Z</time>
      </trkpt>
      <trkpt lat="48.13692" lon="-3.32274">
        <ele>231.1</ele>
        <time>2024-11-20T10:40:39Z</time>
      </trkpt>
      <trkpt lat="48.13692" lon="-3.32273">
        <ele>231.2</ele>
        <time>2024-11-20T10:40:40Z</time>
      </trkpt>
      <trkpt lat="48.13693" lon="-3.32273">
        <ele>231.2</ele>
        <time>2024-11-20T10:40:41Z</time>
      </trkpt>
      <trkpt lat="48.13693" lon="-3.32272">
        <ele>231.2</ele>
        <time>2024-11-20T10:40:42Z</time>
      </trkpt>
      <trkpt lat="48.13693" lon="-3.32272">
        <ele>231.2</ele>
        <time>2024-11-20T10:40:43Z</time>
      </trkpt>
      <trkpt lat="48.13693" lon="-3.32271">
        <ele>231.2</ele>
        <time>2024-11-20T10:40:44Z</time>
      </trkpt>
      <trkpt lat="48.13693" lon="-3.32271">
        <ele>231.2</ele>
        <time>2024-11-20T10:40:45Z</time>
      </trkpt>
      <trkpt lat="48.13693" lon="-3.3227">
        <ele>231.3</ele>
        <time>2024-11-20T10:40:46Z</time>
      </trkpt>
      <trkpt lat="48.13694" lon="-3.32268">
        <ele>231.3</ele>
        <time>2024-11-20T10:40:47Z</time>
      </trkpt>
      <trkpt lat="48.13694" lon="-3.32266">
        <ele>231.4</ele>
        <time>2024-11-20T10:40:48Z</time>
      </trkpt>
      <trkpt lat="48.13694" lon="-3.32265">
        <ele>231.5</ele>
        <time>2024-11-20T10:40:49Z</time>
      </trkpt>
      <trkpt lat="48.13695" lon="-3.32263">
        <ele>231.5</ele>
        <time>2024-11-20T10:40:50Z</time>
      </trkpt>
      <trkpt lat="48.13695" lon="-3.32261">
        <ele>231.6</ele>
        <time>2024-11-20T10:40:51Z</time>
      </trkpt>
      <trkpt lat="48.13696" lon="-3.3226">
        <ele>231.6</ele>
        <time>2024-11-20T10:40:52Z</time>
      </trkpt>
      <trkpt lat="48.13697" lon="-3.32258">
        <ele>231.6</ele>
        <time>2024-11-20T10:40:53Z</time>
      </trkpt>
      <trkpt lat="48.13697" lon="-3.32257">
        <ele>231.7</ele>
        <time>2024-11-20T10:40:54Z</time>
      </trkpt>
      <trkpt lat="48.13697" lon="-3.32255">
        <ele>231.7</ele>
        <time>2024-11-20T10:40:55Z</time>
      </trkpt>
      <trkpt lat="48.13697" lon="-3.32254">
        <ele>231.8</ele>
        <time>2024-11-20T10:40:56Z</time>
      </trkpt>
      <trkpt lat="48.13698" lon="-3.32252">
        <ele>231.8</ele>
        <time>2024-11-20T10:40:57Z</time>
      </trkpt>
      <trkpt lat="48.13698" lon="-3.32249">
        <ele>231.9</ele>
        <time>2024-11-20T10:40:58Z</time>
      </trkpt>
      <trkpt lat="48.13699" lon="-3.32248">
        <ele>231.9</ele>
        <time>2024-11-20T10:40:59Z</time>
      </trkpt>
      <trkpt lat="48.137" lon="-3.32246">
        <ele>231.9</ele>
        <time>2024-11-20T10:41:00Z</time>
      </trkpt>
      <trkpt lat="48.13701" lon="-3.32244">
        <ele>231.9</ele>
        <time>2024-11-20T10:41:01Z</time>
      </trkpt>
      <trkpt lat="48.13703" lon="-3.32241">
        <ele>231.9</ele>
        <time>2024-11-20T10:41:02Z</time>
      </trkpt>
      <trkpt lat="48.13704" lon="-3.32239">
        <ele>231.9</ele>
        <time>2024-11-20T10:41:03Z</time>
      </trkpt>
      <trkpt lat="48.13704" lon="-3.32238">
        <ele>232</ele>
        <time>2024-11-20T10:41:04Z</time>
      </trkpt>
      <trkpt lat="48.13705" lon="-3.32237">
        <ele>232</ele>
        <time>2024-11-20T10:41:05Z</time>
      </trkpt>
      <trkpt lat="48.13705" lon="-3.32236">
        <ele>232</ele>
        <time>2024-11-20T10:41:06Z</time>
      </trkpt>
      <trkpt lat="48.13705" lon="-3.32235">
        <ele>232</ele>
        <time>2024-11-20T10:41:07Z</time>
      </trkpt>
      <trkpt lat="48.13706" lon="-3.32234">
        <ele>232.1</ele>
        <time>2024-11-20T10:41:08Z</time>
      </trkpt>
      <trkpt lat="48.13705" lon="-3.32232">
        <ele>232.1</ele>
        <time>2024-11-20T10:41:09Z</time>
      </trkpt>
      <trkpt lat="48.13705" lon="-3.32231">
        <ele>232.2</ele>
        <time>2024-11-20T10:41:10Z</time>
      </trkpt>
      <trkpt lat="48.13705" lon="-3.32229">
        <ele>232.2</ele>
        <time>2024-11-20T10:41:11Z</time>
      </trkpt>
      <trkpt lat="48.13705" lon="-3.32227">
        <ele>232.3</ele>
        <time>2024-11-20T10:41:12Z</time>
      </trkpt>
      <trkpt lat="48.13706" lon="-3.32224">
        <ele>232.4</ele>
        <time>2024-11-20T10:41:13Z</time>
      </trkpt>
      <trkpt lat="48.13707" lon="-3.32222">
        <ele>232.5</ele>
        <time>2024-11-20T10:41:14Z</time>
      </trkpt>
      <trkpt lat="48.13708" lon="-3.32221">
        <ele>232.5</ele>
        <time>2024-11-20T10:41:15Z</time>
      </trkpt>
      <trkpt lat="48.13709" lon="-3.32219">
        <ele>232.6</ele>
        <time>2024-11-20T10:41:16Z</time>
      </trkpt>
      <trkpt lat="48.13711" lon="-3.32217">
        <ele>232.7</ele>
        <time>2024-11-20T10:41:17Z</time>
      </trkpt>
      <trkpt lat="48.13713" lon="-3.32216">
        <ele>232.7</ele>
        <time>2024-11-20T10:41:18Z</time>
      </trkpt>
      <trkpt lat="48.13714" lon="-3.32214">
        <ele>232.8</ele>
        <time>2024-11-20T10:41:19Z</time>
      </trkpt>
      <trkpt lat="48.13715" lon="-3.32213">
        <ele>232.8</ele>
        <time>2024-11-20T10:41:20Z</time>
      </trkpt>
      <trkpt lat="48.13716" lon="-3.32211">
        <ele>232.9</ele>
        <time>2024-11-20T10:41:21Z</time>
      </trkpt>
      <trkpt lat="48.13717" lon="-3.3221">
        <ele>232.9</ele>
        <time>2024-11-20T10:41:22Z</time>
      </trkpt>
      <trkpt lat="48.13718" lon="-3.32208">
        <ele>232.9</ele>
        <time>2024-11-20T10:41:23Z</time>
      </trkpt>
      <trkpt lat="48.13719" lon="-3.32206">
        <ele>233</ele>
        <time>2024-11-20T10:41:24Z</time>
      </trkpt>
      <trkpt lat="48.1372" lon="-3.32205">
        <ele>233</ele>
        <time>2024-11-20T10:41:25Z</time>
      </trkpt>
      <trkpt lat="48.13721" lon="-3.32204">
        <ele>233</ele>
        <time>2024-11-20T10:41:26Z</time>
      </trkpt>
      <trkpt lat="48.13722" lon="-3.32201">
        <ele>233</ele>
        <time>2024-11-20T10:41:28Z</time>
      </trkpt>
      <trkpt lat="48.13723" lon="-3.32199">
        <ele>233</ele>
        <time>2024-11-20T10:41:29Z</time>
      </trkpt>
      <trkpt lat="48.13723" lon="-3.32198">
        <ele>233</ele>
        <time>2024-11-20T10:41:30Z</time>
      </trkpt>
      <trkpt lat="48.13723" lon="-3.32196">
        <ele>233</ele>
        <time>2024-11-20T10:41:31Z</time>
      </trkpt>
      <trkpt lat="48.13724" lon="-3.32195">
        <ele>233</ele>
        <time>2024-11-20T10:41:32Z</time>
      </trkpt>
      <trkpt lat="48.13725" lon="-3.32195">
        <ele>233</ele>
        <time>2024-11-20T10:41:33Z</time>
      </trkpt>
      <trkpt lat="48.13726" lon="-3.32195">
        <ele>233</ele>
        <time>2024-11-20T10:41:34Z</time>
      </trkpt>
      <trkpt lat="48.13726" lon="-3.32194">
        <ele>233</ele>
        <time>2024-11-20T10:41:35Z</time>
      </trkpt>
      <trkpt lat="48.13727" lon="-3.32194">
        <ele>233</ele>
        <time>2024-11-20T10:41:36Z</time>
      </trkpt>
      <trkpt lat="48.13728" lon="-3.32192">
        <ele>233.1</ele>
        <time>2024-11-20T10:41:37Z</time>
      </trkpt>
      <trkpt lat="48.13729" lon="-3.32191">
        <ele>233.1</ele>
        <time>2024-11-20T10:41:38Z</time>
      </trkpt>
      <trkpt lat="48.1373" lon="-3.32191">
        <ele>233.1</ele>
        <time>2024-11-20T10:41:39Z</time>
      </trkpt>
      <trkpt lat="48.13731" lon="-3.3219">
        <ele>233.2</ele>
        <time>2024-11-20T10:41:40Z</time>
      </trkpt>
      <trkpt lat="48.13733" lon="-3.32189">
        <ele>233.2</ele>
        <time>2024-11-20T10:41:41Z</time>
      </trkpt>
      <trkpt lat="48.13734" lon="-3.32189">
        <ele>233.2</ele>
        <time>2024-11-20T10:41:42Z</time>
      </trkpt>
      <trkpt lat="48.13735" lon="-3.32188">
        <ele>233.2</ele>
        <time>2024-11-20T10:41:43Z</time>
      </trkpt>
      <trkpt lat="48.13736" lon="-3.32188">
        <ele>233.3</ele>
        <time>2024-11-20T10:41:44Z</time>
      </trkpt>
      <trkpt lat="48.13737" lon="-3.32187">
        <ele>233.3</ele>
        <time>2024-11-20T10:41:45Z</time>
      </trkpt>
      <trkpt lat="48.13738" lon="-3.32185">
        <ele>233.3</ele>
        <time>2024-11-20T10:41:46Z</time>
      </trkpt>
      <trkpt lat="48.13738" lon="-3.32185">
        <ele>233.4</ele>
        <time>2024-11-20T10:41:47Z</time>
      </trkpt>
      <trkpt lat="48.13739" lon="-3.32184">
        <ele>233.4</ele>
        <time>2024-11-20T10:41:48Z</time>
      </trkpt>
      <trkpt lat="48.13739" lon="-3.32183">
        <ele>233.4</ele>
        <time>2024-11-20T10:41:49Z</time>
      </trkpt>
      <trkpt lat="48.1374" lon="-3.32182">
        <ele>233.4</ele>
        <time>2024-11-20T10:41:50Z</time>
      </trkpt>
      <trkpt lat="48.13741" lon="-3.32182">
        <ele>233.5</ele>
        <time>2024-11-20T10:41:51Z</time>
      </trkpt>
      <trkpt lat="48.13742" lon="-3.32181">
        <ele>233.5</ele>
        <time>2024-11-20T10:41:52Z</time>
      </trkpt>
      <trkpt lat="48.13743" lon="-3.32181">
        <ele>233.5</ele>
        <time>2024-11-20T10:41:53Z</time>
      </trkpt>
      <trkpt lat="48.13744" lon="-3.32181">
        <ele>233.5</ele>
        <time>2024-11-20T10:41:54Z</time>
      </trkpt>
      <trkpt lat="48.13744" lon="-3.3218">
        <ele>233.5</ele>
        <time>2024-11-20T10:41:55Z</time>
      </trkpt>
      <trkpt lat="48.13745" lon="-3.32179">
        <ele>233.5</ele>
        <time>2024-11-20T10:41:56Z</time>
      </trkpt>
      <trkpt lat="48.13746" lon="-3.32177">
        <ele>233.6</ele>
        <time>2024-11-20T10:41:57Z</time>
      </trkpt>
      <trkpt lat="48.13747" lon="-3.32176">
        <ele>233.7</ele>
        <time>2024-11-20T10:41:58Z</time>
      </trkpt>
      <trkpt lat="48.13748" lon="-3.32175">
        <ele>233.7</ele>
        <time>2024-11-20T10:41:59Z</time>
      </trkpt>
      <trkpt lat="48.13749" lon="-3.32174">
        <ele>233.7</ele>
        <time>2024-11-20T10:42:00Z</time>
      </trkpt>
      <trkpt lat="48.1375" lon="-3.32174">
        <ele>233.7</ele>
        <time>2024-11-20T10:42:01Z</time>
      </trkpt>
      <trkpt lat="48.13751" lon="-3.32174">
        <ele>233.8</ele>
        <time>2024-11-20T10:42:02Z</time>
      </trkpt>
      <trkpt lat="48.13752" lon="-3.32174">
        <ele>233.8</ele>
        <time>2024-11-20T10:42:03Z</time>
      </trkpt>
      <trkpt lat="48.13753" lon="-3.32175">
        <ele>233.7</ele>
        <time>2024-11-20T10:42:04Z</time>
      </trkpt>
      <trkpt lat="48.13754" lon="-3.32175">
        <ele>233.7</ele>
        <time>2024-11-20T10:42:05Z</time>
      </trkpt>
      <trkpt lat="48.13756" lon="-3.32175">
        <ele>233.8</ele>
        <time>2024-11-20T10:42:06Z</time>
      </trkpt>
      <trkpt lat="48.13757" lon="-3.32176">
        <ele>233.8</ele>
        <time>2024-11-20T10:42:07Z</time>
      </trkpt>
      <trkpt lat="48.13757" lon="-3.32176">
        <ele>233.8</ele>
        <time>2024-11-20T10:42:08Z</time>
      </trkpt>
      <trkpt lat="48.13757" lon="-3.32175">
        <ele>233.8</ele>
        <time>2024-11-20T10:42:09Z</time>
      </trkpt>
      <trkpt lat="48.13757" lon="-3.32175">
        <ele>233.8</ele>
        <time>2024-11-20T10:42:10Z</time>
      </trkpt>
      <trkpt lat="48.13758" lon="-3.32175">
        <ele>233.8</ele>
        <time>2024-11-20T10:42:11Z</time>
      </trkpt>
      <trkpt lat="48.13758" lon="-3.32176">
        <ele>233.8</ele>
        <time>2024-11-20T10:42:12Z</time>
      </trkpt>
      <trkpt lat="48.13758" lon="-3.32176">
        <ele>233.8</ele>
        <time>2024-11-20T10:42:13Z</time>
      </trkpt>
      <trkpt lat="48.13758" lon="-3.32176">
        <ele>233.8</ele>
        <time>2024-11-20T10:42:14Z</time>
      </trkpt>
      <trkpt lat="48.13758" lon="-3.32176">
        <ele>233.8</ele>
        <time>2024-11-20T10:42:15Z</time>
      </trkpt>
      <trkpt lat="48.13759" lon="-3.32176">
        <ele>233.8</ele>
        <time>2024-11-20T10:42:16Z</time>
      </trkpt>
      <trkpt lat="48.13759" lon="-3.32176">
        <ele>233.8</ele>
        <time>2024-11-20T10:42:17Z</time>
      </trkpt>
      <trkpt lat="48.13759" lon="-3.32175">
        <ele>233.8</ele>
        <time>2024-11-20T10:42:18Z</time>
      </trkpt>
      <trkpt lat="48.13759" lon="-3.32175">
        <ele>233.8</ele>
        <time>2024-11-20T10:42:19Z</time>
      </trkpt>
      <trkpt lat="48.13759" lon="-3.32175">
        <ele>233.8</ele>
        <time>2024-11-20T10:42:20Z</time>
      </trkpt>
      <trkpt lat="48.13759" lon="-3.32175">
        <ele>233.8</ele>
        <time>2024-11-20T10:42:21Z</time>
      </trkpt>
      <trkpt lat="48.13759" lon="-3.32175">
        <ele>233.8</ele>
        <time>2024-11-20T10:42:22Z</time>
      </trkpt>
      <trkpt lat="48.13759" lon="-3.32175">
        <ele>233.8</ele>
        <time>2024-11-20T10:42:23Z</time>
      </trkpt>
      <trkpt lat="48.1376" lon="-3.32174">
        <ele>233.8</ele>
        <time>2024-11-20T10:42:24Z</time>
      </trkpt>
      <trkpt lat="48.13762" lon="-3.32173">
        <ele>233.9</ele>
        <time>2024-11-20T10:42:25Z</time>
      </trkpt>
      <trkpt lat="48.13763" lon="-3.32171">
        <ele>233.9</ele>
        <time>2024-11-20T10:42:26Z</time>
      </trkpt>
      <trkpt lat="48.13765" lon="-3.32169">
        <ele>234</ele>
        <time>2024-11-20T10:42:27Z</time>
      </trkpt>
      <trkpt lat="48.13766" lon="-3.32168">
        <ele>234</ele>
        <time>2024-11-20T10:42:28Z</time>
      </trkpt>
      <trkpt lat="48.13768" lon="-3.32167">
        <ele>234</ele>
        <time>2024-11-20T10:42:29Z</time>
      </trkpt>
      <trkpt lat="48.13769" lon="-3.32165">
        <ele>234</ele>
        <time>2024-11-20T10:42:30Z</time>
      </trkpt>
      <trkpt lat="48.1377" lon="-3.32164">
        <ele>234.1</ele>
        <time>2024-11-20T10:42:31Z</time>
      </trkpt>
      <trkpt lat="48.13773" lon="-3.32163">
        <ele>234.1</ele>
        <time>2024-11-20T10:42:32Z</time>
      </trkpt>
      <trkpt lat="48.13775" lon="-3.32162">
        <ele>234.2</ele>
        <time>2024-11-20T10:42:33Z</time>
      </trkpt>
      <trkpt lat="48.13776" lon="-3.32161">
        <ele>234.2</ele>
        <time>2024-11-20T10:42:34Z</time>
      </trkpt>
      <trkpt lat="48.13778" lon="-3.3216">
        <ele>234.3</ele>
        <time>2024-11-20T10:42:35Z</time>
      </trkpt>
      <trkpt lat="48.1378" lon="-3.32159">
        <ele>234.4</ele>
        <time>2024-11-20T10:42:36Z</time>
      </trkpt>
      <trkpt lat="48.13782" lon="-3.32158">
        <ele>234.6</ele>
        <time>2024-11-20T10:42:37Z</time>
      </trkpt>
      <trkpt lat="48.13783" lon="-3.32158">
        <ele>234.6</ele>
        <time>2024-11-20T10:42:38Z</time>
      </trkpt>
      <trkpt lat="48.13784" lon="-3.32158">
        <ele>234.7</ele>
        <time>2024-11-20T10:42:39Z</time>
      </trkpt>
      <trkpt lat="48.13786" lon="-3.32157">
        <ele>234.8</ele>
        <time>2024-11-20T10:42:40Z</time>
      </trkpt>
      <trkpt lat="48.13787" lon="-3.32156">
        <ele>234.9</ele>
        <time>2024-11-20T10:42:41Z</time>
      </trkpt>
      <trkpt lat="48.13788" lon="-3.32155">
        <ele>235</ele>
        <time>2024-11-20T10:42:42Z</time>
      </trkpt>
      <trkpt lat="48.13789" lon="-3.32155">
        <ele>235.1</ele>
        <time>2024-11-20T10:42:43Z</time>
      </trkpt>
      <trkpt lat="48.1379" lon="-3.32154">
        <ele>235.2</ele>
        <time>2024-11-20T10:42:44Z</time>
      </trkpt>
      <trkpt lat="48.13791" lon="-3.32153">
        <ele>235.2</ele>
        <time>2024-11-20T10:42:45Z</time>
      </trkpt>
      <trkpt lat="48.13792" lon="-3.32153">
        <ele>235.3</ele>
        <time>2024-11-20T10:42:46Z</time>
      </trkpt>
      <trkpt lat="48.13792" lon="-3.32153">
        <ele>235.3</ele>
        <time>2024-11-20T10:42:47Z</time>
      </trkpt>
      <trkpt lat="48.13793" lon="-3.32152">
        <ele>235.3</ele>
        <time>2024-11-20T10:42:48Z</time>
      </trkpt>
      <trkpt lat="48.13794" lon="-3.32152">
        <ele>235.4</ele>
        <time>2024-11-20T10:42:49Z</time>
      </trkpt>
      <trkpt lat="48.13795" lon="-3.32151">
        <ele>235.4</ele>
        <time>2024-11-20T10:42:50Z</time>
      </trkpt>
      <trkpt lat="48.13796" lon="-3.32151">
        <ele>235.5</ele>
        <time>2024-11-20T10:42:51Z</time>
      </trkpt>
      <trkpt lat="48.13797" lon="-3.3215">
        <ele>235.6</ele>
        <time>2024-11-20T10:42:52Z</time>
      </trkpt>
      <trkpt lat="48.13797" lon="-3.32149">
        <ele>235.6</ele>
        <time>2024-11-20T10:42:53Z</time>
      </trkpt>
      <trkpt lat="48.13798" lon="-3.32149">
        <ele>235.6</ele>
        <time>2024-11-20T10:42:54Z</time>
      </trkpt>
      <trkpt lat="48.13799" lon="-3.32148">
        <ele>235.7</ele>
        <time>2024-11-20T10:42:55Z</time>
      </trkpt>
      <trkpt lat="48.13799" lon="-3.32148">
        <ele>235.7</ele>
        <time>2024-11-20T10:42:56Z</time>
      </trkpt>
      <trkpt lat="48.138" lon="-3.32148">
        <ele>235.7</ele>
        <time>2024-11-20T10:42:57Z</time>
      </trkpt>
      <trkpt lat="48.13801" lon="-3.32148">
        <ele>235.8</ele>
        <time>2024-11-20T10:42:58Z</time>
      </trkpt>
      <trkpt lat="48.13802" lon="-3.32146">
        <ele>235.8</ele>
        <time>2024-11-20T10:42:59Z</time>
      </trkpt>
      <trkpt lat="48.13803" lon="-3.32145">
        <ele>235.9</ele>
        <time>2024-11-20T10:43:00Z</time>
      </trkpt>
      <trkpt lat="48.13804" lon="-3.32144">
        <ele>235.9</ele>
        <time>2024-11-20T10:43:01Z</time>
      </trkpt>
      <trkpt lat="48.13805" lon="-3.32143">
        <ele>236</ele>
        <time>2024-11-20T10:43:02Z</time>
      </trkpt>
      <trkpt lat="48.13807" lon="-3.32143">
        <ele>236.1</ele>
        <time>2024-11-20T10:43:03Z</time>
      </trkpt>
      <trkpt lat="48.13808" lon="-3.32143">
        <ele>236.2</ele>
        <time>2024-11-20T10:43:04Z</time>
      </trkpt>
      <trkpt lat="48.13809" lon="-3.32143">
        <ele>236.2</ele>
        <time>2024-11-20T10:43:05Z</time>
      </trkpt>
      <trkpt lat="48.13809" lon="-3.32143">
        <ele>236.3</ele>
        <time>2024-11-20T10:43:06Z</time>
      </trkpt>
      <trkpt lat="48.13809" lon="-3.32143">
        <ele>236.3</ele>
        <time>2024-11-20T10:43:07Z</time>
      </trkpt>
      <trkpt lat="48.1381" lon="-3.32143">
        <ele>236.3</ele>
        <time>2024-11-20T10:43:08Z</time>
      </trkpt>
      <trkpt lat="48.1381" lon="-3.32142">
        <ele>236.3</ele>
        <time>2024-11-20T10:43:09Z</time>
      </trkpt>
      <trkpt lat="48.1381" lon="-3.32142">
        <ele>236.3</ele>
        <time>2024-11-20T10:43:10Z</time>
      </trkpt>
      <trkpt lat="48.13811" lon="-3.32142">
        <ele>236.4</ele>
        <time>2024-11-20T10:43:11Z</time>
      </trkpt>
      <trkpt lat="48.13811" lon="-3.32141">
        <ele>236.4</ele>
        <time>2024-11-20T10:43:12Z</time>
      </trkpt>
      <trkpt lat="48.13812" lon="-3.3214">
        <ele>236.5</ele>
        <time>2024-11-20T10:43:13Z</time>
      </trkpt>
      <trkpt lat="48.13814" lon="-3.3214">
        <ele>236.6</ele>
        <time>2024-11-20T10:43:14Z</time>
      </trkpt>
      <trkpt lat="48.13814" lon="-3.3214">
        <ele>236.6</ele>
        <time>2024-11-20T10:43:15Z</time>
      </trkpt>
      <trkpt lat="48.13815" lon="-3.3214">
        <ele>236.7</ele>
        <time>2024-11-20T10:43:16Z</time>
      </trkpt>
      <trkpt lat="48.13816" lon="-3.3214">
        <ele>236.7</ele>
        <time>2024-11-20T10:43:17Z</time>
      </trkpt>
      <trkpt lat="48.13816" lon="-3.32139">
        <ele>236.8</ele>
        <time>2024-11-20T10:43:18Z</time>
      </trkpt>
      <trkpt lat="48.13817" lon="-3.32139">
        <ele>236.8</ele>
        <time>2024-11-20T10:43:19Z</time>
      </trkpt>
      <trkpt lat="48.13818" lon="-3.32139">
        <ele>236.9</ele>
        <time>2024-11-20T10:43:20Z</time>
      </trkpt>
      <trkpt lat="48.13819" lon="-3.32138">
        <ele>236.9</ele>
        <time>2024-11-20T10:43:21Z</time>
      </trkpt>
      <trkpt lat="48.1382" lon="-3.32136">
        <ele>237</ele>
        <time>2024-11-20T10:43:22Z</time>
      </trkpt>
      <trkpt lat="48.13822" lon="-3.32135">
        <ele>237.1</ele>
        <time>2024-11-20T10:43:23Z</time>
      </trkpt>
      <trkpt lat="48.13822" lon="-3.32135">
        <ele>237.1</ele>
        <time>2024-11-20T10:43:24Z</time>
      </trkpt>
      <trkpt lat="48.13822" lon="-3.32134">
        <ele>237.1</ele>
        <time>2024-11-20T10:43:25Z</time>
      </trkpt>
      <trkpt lat="48.13823" lon="-3.32134">
        <ele>237.1</ele>
        <time>2024-11-20T10:43:26Z</time>
      </trkpt>
      <trkpt lat="48.13824" lon="-3.32134">
        <ele>237.2</ele>
        <time>2024-11-20T10:43:27Z</time>
      </trkpt>
      <trkpt lat="48.13824" lon="-3.32134">
        <ele>237.2</ele>
        <time>2024-11-20T10:43:28Z</time>
      </trkpt>
      <trkpt lat="48.13825" lon="-3.32134">
        <ele>237.2</ele>
        <time>2024-11-20T10:43:29Z</time>
      </trkpt>
      <trkpt lat="48.13825" lon="-3.32134">
        <ele>237.2</ele>
        <time>2024-11-20T10:43:30Z</time>
      </trkpt>
      <trkpt lat="48.13825" lon="-3.32133">
        <ele>237.3</ele>
        <time>2024-11-20T10:43:31Z</time>
      </trkpt>
      <trkpt lat="48.13826" lon="-3.32132">
        <ele>237.3</ele>
        <time>2024-11-20T10:43:32Z</time>
      </trkpt>
      <trkpt lat="48.13828" lon="-3.32132">
        <ele>237.4</ele>
        <time>2024-11-20T10:43:33Z</time>
      </trkpt>
      <trkpt lat="48.13829" lon="-3.32131">
        <ele>237.4</ele>
        <time>2024-11-20T10:43:34Z</time>
      </trkpt>
      <trkpt lat="48.1383" lon="-3.3213">
        <ele>237.5</ele>
        <time>2024-11-20T10:43:35Z</time>
      </trkpt>
      <trkpt lat="48.13832" lon="-3.3213">
        <ele>237.6</ele>
        <time>2024-11-20T10:43:36Z</time>
      </trkpt>
      <trkpt lat="48.13834" lon="-3.32129">
        <ele>237.7</ele>
        <time>2024-11-20T10:43:37Z</time>
      </trkpt>
      <trkpt lat="48.13836" lon="-3.32128">
        <ele>237.7</ele>
        <time>2024-11-20T10:43:38Z</time>
      </trkpt>
      <trkpt lat="48.13837" lon="-3.32128">
        <ele>237.7</ele>
        <time>2024-11-20T10:43:39Z</time>
      </trkpt>
      <trkpt lat="48.13839" lon="-3.32127">
        <ele>237.7</ele>
        <time>2024-11-20T10:43:40Z</time>
      </trkpt>
      <trkpt lat="48.1384" lon="-3.32126">
        <ele>237.8</ele>
        <time>2024-11-20T10:43:41Z</time>
      </trkpt>
      <trkpt lat="48.13841" lon="-3.32124">
        <ele>237.8</ele>
        <time>2024-11-20T10:43:42Z</time>
      </trkpt>
      <trkpt lat="48.13842" lon="-3.32124">
        <ele>237.8</ele>
        <time>2024-11-20T10:43:43Z</time>
      </trkpt>
      <trkpt lat="48.13844" lon="-3.32123">
        <ele>237.8</ele>
        <time>2024-11-20T10:43:44Z</time>
      </trkpt>
      <trkpt lat="48.13845" lon="-3.32123">
        <ele>237.9</ele>
        <time>2024-11-20T10:43:45Z</time>
      </trkpt>
      <trkpt lat="48.13846" lon="-3.32122">
        <ele>237.9</ele>
        <time>2024-11-20T10:43:46Z</time>
      </trkpt>
      <trkpt lat="48.13847" lon="-3.32122">
        <ele>237.9</ele>
        <time>2024-11-20T10:43:47Z</time>
      </trkpt>
      <trkpt lat="48.13848" lon="-3.32122">
        <ele>237.9</ele>
        <time>2024-11-20T10:43:48Z</time>
      </trkpt>
      <trkpt lat="48.13849" lon="-3.32122">
        <ele>238</ele>
        <time>2024-11-20T10:43:49Z</time>
      </trkpt>
      <trkpt lat="48.13851" lon="-3.32122">
        <ele>238</ele>
        <time>2024-11-20T10:43:50Z</time>
      </trkpt>
      <trkpt lat="48.13852" lon="-3.32122">
        <ele>238</ele>
        <time>2024-11-20T10:43:51Z</time>
      </trkpt>
      <trkpt lat="48.13852" lon="-3.32122">
        <ele>238.1</ele>
        <time>2024-11-20T10:43:52Z</time>
      </trkpt>
      <trkpt lat="48.13853" lon="-3.32122">
        <ele>238.1</ele>
        <time>2024-11-20T10:43:53Z</time>
      </trkpt>
      <trkpt lat="48.13853" lon="-3.32121">
        <ele>238.1</ele>
        <time>2024-11-20T10:43:54Z</time>
      </trkpt>
      <trkpt lat="48.13854" lon="-3.3212">
        <ele>238.1</ele>
        <time>2024-11-20T10:43:55Z</time>
      </trkpt>
      <trkpt lat="48.13856" lon="-3.32118">
        <ele>238.1</ele>
        <time>2024-11-20T10:43:56Z</time>
      </trkpt>
      <trkpt lat="48.13857" lon="-3.32117">
        <ele>238.1</ele>
        <time>2024-11-20T10:43:57Z</time>
      </trkpt>
      <trkpt lat="48.13857" lon="-3.32117">
        <ele>238.1</ele>
        <time>2024-11-20T10:43:58Z</time>
      </trkpt>
      <trkpt lat="48.13858" lon="-3.32117">
        <ele>238.1</ele>
        <time>2024-11-20T10:43:59Z</time>
      </trkpt>
      <trkpt lat="48.13858" lon="-3.32117">
        <ele>238.1</ele>
        <time>2024-11-20T10:44:00Z</time>
      </trkpt>
      <trkpt lat="48.13859" lon="-3.32117">
        <ele>238.1</ele>
        <time>2024-11-20T10:44:01Z</time>
      </trkpt>
      <trkpt lat="48.13859" lon="-3.32117">
        <ele>238.1</ele>
        <time>2024-11-20T10:44:02Z</time>
      </trkpt>
      <trkpt lat="48.1386" lon="-3.32117">
        <ele>238.2</ele>
        <time>2024-11-20T10:44:03Z</time>
      </trkpt>
      <trkpt lat="48.13861" lon="-3.32116">
        <ele>238.2</ele>
        <time>2024-11-20T10:44:04Z</time>
      </trkpt>
      <trkpt lat="48.13861" lon="-3.32116">
        <ele>238.2</ele>
        <time>2024-11-20T10:44:05Z</time>
      </trkpt>
      <trkpt lat="48.13862" lon="-3.32117">
        <ele>238.2</ele>
        <time>2024-11-20T10:44:06Z</time>
      </trkpt>
      <trkpt lat="48.13862" lon="-3.32117">
        <ele>238.2</ele>
        <time>2024-11-20T10:44:07Z</time>
      </trkpt>
      <trkpt lat="48.13862" lon="-3.32116">
        <ele>238.2</ele>
        <time>2024-11-20T10:44:08Z</time>
      </trkpt>
      <trkpt lat="48.13863" lon="-3.32116">
        <ele>238.3</ele>
        <time>2024-11-20T10:44:09Z</time>
      </trkpt>
      <trkpt lat="48.13864" lon="-3.32116">
        <ele>238.3</ele>
        <time>2024-11-20T10:44:10Z</time>
      </trkpt>
      <trkpt lat="48.13865" lon="-3.32115">
        <ele>238.3</ele>
        <time>2024-11-20T10:44:11Z</time>
      </trkpt>
      <trkpt lat="48.13867" lon="-3.32114">
        <ele>238.3</ele>
        <time>2024-11-20T10:44:12Z</time>
      </trkpt>
      <trkpt lat="48.13869" lon="-3.32113">
        <ele>238.3</ele>
        <time>2024-11-20T10:44:13Z</time>
      </trkpt>
      <trkpt lat="48.13871" lon="-3.32112">
        <ele>238.4</ele>
        <time>2024-11-20T10:44:14Z</time>
      </trkpt>
      <trkpt lat="48.13872" lon="-3.32112">
        <ele>238.4</ele>
        <time>2024-11-20T10:44:15Z</time>
      </trkpt>
      <trkpt lat="48.13874" lon="-3.32112">
        <ele>238.5</ele>
        <time>2024-11-20T10:44:16Z</time>
      </trkpt>
      <trkpt lat="48.13875" lon="-3.32112">
        <ele>238.5</ele>
        <time>2024-11-20T10:44:17Z</time>
      </trkpt>
      <trkpt lat="48.13878" lon="-3.32112">
        <ele>238.6</ele>
        <time>2024-11-20T10:44:18Z</time>
      </trkpt>
      <trkpt lat="48.13879" lon="-3.32112">
        <ele>238.7</ele>
        <time>2024-11-20T10:44:19Z</time>
      </trkpt>
      <trkpt lat="48.1388" lon="-3.32112">
        <ele>238.7</ele>
        <time>2024-11-20T10:44:20Z</time>
      </trkpt>
      <trkpt lat="48.1388" lon="-3.32112">
        <ele>238.7</ele>
        <time>2024-11-20T10:44:21Z</time>
      </trkpt>
      <trkpt lat="48.13881" lon="-3.32112">
        <ele>238.7</ele>
        <time>2024-11-20T10:44:22Z</time>
      </trkpt>
      <trkpt lat="48.13881" lon="-3.32112">
        <ele>238.7</ele>
        <time>2024-11-20T10:44:23Z</time>
      </trkpt>
      <trkpt lat="48.13881" lon="-3.32112">
        <ele>238.8</ele>
        <time>2024-11-20T10:44:24Z</time>
      </trkpt>
      <trkpt lat="48.13882" lon="-3.32112">
        <ele>238.8</ele>
        <time>2024-11-20T10:44:25Z</time>
      </trkpt>
      <trkpt lat="48.13883" lon="-3.32112">
        <ele>238.9</ele>
        <time>2024-11-20T10:44:26Z</time>
      </trkpt>
      <trkpt lat="48.13884" lon="-3.32112">
        <ele>238.9</ele>
        <time>2024-11-20T10:44:27Z</time>
      </trkpt>
      <trkpt lat="48.13884" lon="-3.32112">
        <ele>238.9</ele>
        <time>2024-11-20T10:44:28Z</time>
      </trkpt>
      <trkpt lat="48.13885" lon="-3.32112">
        <ele>238.9</ele>
        <time>2024-11-20T10:44:29Z</time>
      </trkpt>
      <trkpt lat="48.13885" lon="-3.32112">
        <ele>238.9</ele>
        <time>2024-11-20T10:44:30Z</time>
      </trkpt>
      <trkpt lat="48.13886" lon="-3.32112">
        <ele>238.9</ele>
        <time>2024-11-20T10:44:31Z</time>
      </trkpt>
      <trkpt lat="48.13887" lon="-3.32112">
        <ele>239</ele>
        <time>2024-11-20T10:44:32Z</time>
      </trkpt>
      <trkpt lat="48.13887" lon="-3.32112">
        <ele>239</ele>
        <time>2024-11-20T10:44:33Z</time>
      </trkpt>
      <trkpt lat="48.13888" lon="-3.32111">
        <ele>239</ele>
        <time>2024-11-20T10:44:34Z</time>
      </trkpt>
      <trkpt lat="48.13889" lon="-3.32111">
        <ele>238.9</ele>
        <time>2024-11-20T10:44:35Z</time>
      </trkpt>
      <trkpt lat="48.13889" lon="-3.3211">
        <ele>238.9</ele>
        <time>2024-11-20T10:44:36Z</time>
      </trkpt>
      <trkpt lat="48.1389" lon="-3.32109">
        <ele>238.9</ele>
        <time>2024-11-20T10:44:37Z</time>
      </trkpt>
      <trkpt lat="48.13893" lon="-3.32108">
        <ele>238.9</ele>
        <time>2024-11-20T10:44:38Z</time>
      </trkpt>
      <trkpt lat="48.13895" lon="-3.32107">
        <ele>238.9</ele>
        <time>2024-11-20T10:44:39Z</time>
      </trkpt>
      <trkpt lat="48.13897" lon="-3.32105">
        <ele>238.9</ele>
        <time>2024-11-20T10:44:40Z</time>
      </trkpt>
      <trkpt lat="48.13899" lon="-3.32104">
        <ele>238.9</ele>
        <time>2024-11-20T10:44:41Z</time>
      </trkpt>
      <trkpt lat="48.13901" lon="-3.32103">
        <ele>238.8</ele>
        <time>2024-11-20T10:44:42Z</time>
      </trkpt>
      <trkpt lat="48.13902" lon="-3.32102">
        <ele>238.8</ele>
        <time>2024-11-20T10:44:43Z</time>
      </trkpt>
      <trkpt lat="48.13903" lon="-3.32101">
        <ele>238.8</ele>
        <time>2024-11-20T10:44:44Z</time>
      </trkpt>
      <trkpt lat="48.13905" lon="-3.321">
        <ele>238.8</ele>
        <time>2024-11-20T10:44:45Z</time>
      </trkpt>
      <trkpt lat="48.13906" lon="-3.32099">
        <ele>238.8</ele>
        <time>2024-11-20T10:44:46Z</time>
      </trkpt>
      <trkpt lat="48.13907" lon="-3.32099">
        <ele>238.7</ele>
        <time>2024-11-20T10:44:47Z</time>
      </trkpt>
      <trkpt lat="48.13908" lon="-3.32098">
        <ele>238.7</ele>
        <time>2024-11-20T10:44:48Z</time>
      </trkpt>
      <trkpt lat="48.13909" lon="-3.32097">
        <ele>238.7</ele>
        <time>2024-11-20T10:44:49Z</time>
      </trkpt>
      <trkpt lat="48.1391" lon="-3.32096">
        <ele>238.7</ele>
        <time>2024-11-20T10:44:50Z</time>
      </trkpt>
      <trkpt lat="48.13911" lon="-3.32096">
        <ele>238.7</ele>
        <time>2024-11-20T10:44:51Z</time>
      </trkpt>
      <trkpt lat="48.13912" lon="-3.32095">
        <ele>238.7</ele>
        <time>2024-11-20T10:44:52Z</time>
      </trkpt>
      <trkpt lat="48.13913" lon="-3.32094">
        <ele>238.6</ele>
        <time>2024-11-20T10:44:53Z</time>
      </trkpt>
      <trkpt lat="48.13914" lon="-3.32093">
        <ele>238.5</ele>
        <time>2024-11-20T10:44:54Z</time>
      </trkpt>
      <trkpt lat="48.13914" lon="-3.32092">
        <ele>238.5</ele>
        <time>2024-11-20T10:44:55Z</time>
      </trkpt>
      <trkpt lat="48.13915" lon="-3.32091">
        <ele>238.5</ele>
        <time>2024-11-20T10:44:56Z</time>
      </trkpt>
      <trkpt lat="48.13915" lon="-3.3209">
        <ele>238.4</ele>
        <time>2024-11-20T10:44:57Z</time>
      </trkpt>
      <trkpt lat="48.13915" lon="-3.3209">
        <ele>238.4</ele>
        <time>2024-11-20T10:44:58Z</time>
      </trkpt>
      <trkpt lat="48.13915" lon="-3.32089">
        <ele>238.4</ele>
        <time>2024-11-20T10:44:59Z</time>
      </trkpt>
      <trkpt lat="48.13916" lon="-3.32088">
        <ele>238.3</ele>
        <time>2024-11-20T10:45:00Z</time>
      </trkpt>
      <trkpt lat="48.13917" lon="-3.32086">
        <ele>238.2</ele>
        <time>2024-11-20T10:45:01Z</time>
      </trkpt>
      <trkpt lat="48.13918" lon="-3.32085">
        <ele>238.2</ele>
        <time>2024-11-20T10:45:02Z</time>
      </trkpt>
      <trkpt lat="48.13919" lon="-3.32084">
        <ele>238.2</ele>
        <time>2024-11-20T10:45:03Z</time>
      </trkpt>
      <trkpt lat="48.13919" lon="-3.32083">
        <ele>238.2</ele>
        <time>2024-11-20T10:45:04Z</time>
      </trkpt>
      <trkpt lat="48.1392" lon="-3.32083">
        <ele>238.2</ele>
        <time>2024-11-20T10:45:05Z</time>
      </trkpt>
      <trkpt lat="48.1392" lon="-3.32082">
        <ele>238.1</ele>
        <time>2024-11-20T10:45:06Z</time>
      </trkpt>
      <trkpt lat="48.13921" lon="-3.32081">
        <ele>238.1</ele>
        <time>2024-11-20T10:45:07Z</time>
      </trkpt>
      <trkpt lat="48.13921" lon="-3.3208">
        <ele>238.1</ele>
        <time>2024-11-20T10:45:08Z</time>
      </trkpt>
      <trkpt lat="48.13921" lon="-3.3208">
        <ele>238.1</ele>
        <time>2024-11-20T10:45:09Z</time>
      </trkpt>
      <trkpt lat="48.13921" lon="-3.3208">
        <ele>238.1</ele>
        <time>2024-11-20T10:45:10Z</time>
      </trkpt>
      <trkpt lat="48.13922" lon="-3.3208">
        <ele>238.1</ele>
        <time>2024-11-20T10:45:11Z</time>
      </trkpt>
      <trkpt lat="48.13922" lon="-3.32079">
        <ele>238.1</ele>
        <time>2024-11-20T10:45:12Z</time>
      </trkpt>
      <trkpt lat="48.13922" lon="-3.32078">
        <ele>238</ele>
        <time>2024-11-20T10:45:13Z</time>
      </trkpt>
      <trkpt lat="48.13923" lon="-3.32077">
        <ele>238</ele>
        <time>2024-11-20T10:45:14Z</time>
      </trkpt>
      <trkpt lat="48.13924" lon="-3.32076">
        <ele>238</ele>
        <time>2024-11-20T10:45:15Z</time>
      </trkpt>
      <trkpt lat="48.13925" lon="-3.32075">
        <ele>238</ele>
        <time>2024-11-20T10:45:16Z</time>
      </trkpt>
      <trkpt lat="48.13925" lon="-3.32074">
        <ele>238</ele>
        <time>2024-11-20T10:45:17Z</time>
      </trkpt>
      <trkpt lat="48.13926" lon="-3.32074">
        <ele>238</ele>
        <time>2024-11-20T10:45:18Z</time>
      </trkpt>
      <trkpt lat="48.13927" lon="-3.32073">
        <ele>237.9</ele>
        <time>2024-11-20T10:45:19Z</time>
      </trkpt>
      <trkpt lat="48.13927" lon="-3.32072">
        <ele>237.9</ele>
        <time>2024-11-20T10:45:20Z</time>
      </trkpt>
      <trkpt lat="48.13927" lon="-3.32072">
        <ele>237.9</ele>
        <time>2024-11-20T10:45:21Z</time>
      </trkpt>
      <trkpt lat="48.13928" lon="-3.32071">
        <ele>237.9</ele>
        <time>2024-11-20T10:45:22Z</time>
      </trkpt>
      <trkpt lat="48.13928" lon="-3.32071">
        <ele>237.9</ele>
        <time>2024-11-20T10:45:23Z</time>
      </trkpt>
      <trkpt lat="48.13928" lon="-3.32069">
        <ele>237.8</ele>
        <time>2024-11-20T10:45:24Z</time>
      </trkpt>
      <trkpt lat="48.13928" lon="-3.32069">
        <ele>237.8</ele>
        <time>2024-11-20T10:45:25Z</time>
      </trkpt>
      <trkpt lat="48.13928" lon="-3.32068">
        <ele>237.7</ele>
        <time>2024-11-20T10:45:26Z</time>
      </trkpt>
      <trkpt lat="48.13929" lon="-3.32067">
        <ele>237.7</ele>
        <time>2024-11-20T10:45:27Z</time>
      </trkpt>
      <trkpt lat="48.13929" lon="-3.32066">
        <ele>237.6</ele>
        <time>2024-11-20T10:45:28Z</time>
      </trkpt>
      <trkpt lat="48.13929" lon="-3.32065">
        <ele>237.6</ele>
        <time>2024-11-20T10:45:29Z</time>
      </trkpt>
      <trkpt lat="48.1393" lon="-3.32063">
        <ele>237.5</ele>
        <time>2024-11-20T10:45:30Z</time>
      </trkpt>
      <trkpt lat="48.1393" lon="-3.32061">
        <ele>237.4</ele>
        <time>2024-11-20T10:45:31Z</time>
      </trkpt>
      <trkpt lat="48.13931" lon="-3.32059">
        <ele>237.3</ele>
        <time>2024-11-20T10:45:32Z</time>
      </trkpt>
      <trkpt lat="48.13931" lon="-3.32057">
        <ele>237.1</ele>
        <time>2024-11-20T10:45:33Z</time>
      </trkpt>
      <trkpt lat="48.13932" lon="-3.32056">
        <ele>237.1</ele>
        <time>2024-11-20T10:45:34Z</time>
      </trkpt>
      <trkpt lat="48.13932" lon="-3.32055">
        <ele>237.1</ele>
        <time>2024-11-20T10:45:35Z</time>
      </trkpt>
      <trkpt lat="48.13933" lon="-3.32054">
        <ele>237.1</ele>
        <time>2024-11-20T10:45:36Z</time>
      </trkpt>
      <trkpt lat="48.13933" lon="-3.32053">
        <ele>237.1</ele>
        <time>2024-11-20T10:45:37Z</time>
      </trkpt>
      <trkpt lat="48.13934" lon="-3.32053">
        <ele>237.1</ele>
        <time>2024-11-20T10:45:38Z</time>
      </trkpt>
      <trkpt lat="48.13934" lon="-3.32052">
        <ele>237.1</ele>
        <time>2024-11-20T10:45:39Z</time>
      </trkpt>
      <trkpt lat="48.13934" lon="-3.32051">
        <ele>237.1</ele>
        <time>2024-11-20T10:45:40Z</time>
      </trkpt>
      <trkpt lat="48.13935" lon="-3.32049">
        <ele>237.1</ele>
        <time>2024-11-20T10:45:41Z</time>
      </trkpt>
      <trkpt lat="48.13936" lon="-3.32048">
        <ele>237.1</ele>
        <time>2024-11-20T10:45:42Z</time>
      </trkpt>
      <trkpt lat="48.13936" lon="-3.32047">
        <ele>237.1</ele>
        <time>2024-11-20T10:45:43Z</time>
      </trkpt>
      <trkpt lat="48.13937" lon="-3.32046">
        <ele>237.1</ele>
        <time>2024-11-20T10:45:44Z</time>
      </trkpt>
      <trkpt lat="48.13938" lon="-3.32044">
        <ele>237.1</ele>
        <time>2024-11-20T10:45:45Z</time>
      </trkpt>
      <trkpt lat="48.13938" lon="-3.32042">
        <ele>237.1</ele>
        <time>2024-11-20T10:45:46Z</time>
      </trkpt>
      <trkpt lat="48.13939" lon="-3.32039">
        <ele>237</ele>
        <time>2024-11-20T10:45:47Z</time>
      </trkpt>
      <trkpt lat="48.13939" lon="-3.32038">
        <ele>237</ele>
        <time>2024-11-20T10:45:48Z</time>
      </trkpt>
      <trkpt lat="48.13939" lon="-3.32037">
        <ele>237</ele>
        <time>2024-11-20T10:45:49Z</time>
      </trkpt>
      <trkpt lat="48.1394" lon="-3.32036">
        <ele>237</ele>
        <time>2024-11-20T10:45:50Z</time>
      </trkpt>
      <trkpt lat="48.1394" lon="-3.32035">
        <ele>237</ele>
        <time>2024-11-20T10:45:51Z</time>
      </trkpt>
      <trkpt lat="48.1394" lon="-3.32035">
        <ele>237</ele>
        <time>2024-11-20T10:45:52Z</time>
      </trkpt>
      <trkpt lat="48.13941" lon="-3.32033">
        <ele>236.9</ele>
        <time>2024-11-20T10:45:53Z</time>
      </trkpt>
      <trkpt lat="48.13942" lon="-3.32032">
        <ele>236.9</ele>
        <time>2024-11-20T10:45:54Z</time>
      </trkpt>
      <trkpt lat="48.13942" lon="-3.32031">
        <ele>236.9</ele>
        <time>2024-11-20T10:45:55Z</time>
      </trkpt>
      <trkpt lat="48.13942" lon="-3.3203">
        <ele>236.9</ele>
        <time>2024-11-20T10:45:56Z</time>
      </trkpt>
      <trkpt lat="48.13943" lon="-3.32028">
        <ele>236.9</ele>
        <time>2024-11-20T10:45:57Z</time>
      </trkpt>
      <trkpt lat="48.13944" lon="-3.32026">
        <ele>236.9</ele>
        <time>2024-11-20T10:45:58Z</time>
      </trkpt>
      <trkpt lat="48.13945" lon="-3.32024">
        <ele>237</ele>
        <time>2024-11-20T10:45:59Z</time>
      </trkpt>
      <trkpt lat="48.13946" lon="-3.32022">
        <ele>237.1</ele>
        <time>2024-11-20T10:46:00Z</time>
      </trkpt>
      <trkpt lat="48.13947" lon="-3.32019">
        <ele>237.2</ele>
        <time>2024-11-20T10:46:01Z</time>
      </trkpt>
      <trkpt lat="48.13948" lon="-3.32017">
        <ele>237.2</ele>
        <time>2024-11-20T10:46:02Z</time>
      </trkpt>
      <trkpt lat="48.13949" lon="-3.32014">
        <ele>237.3</ele>
        <time>2024-11-20T10:46:03Z</time>
      </trkpt>
      <trkpt lat="48.1395" lon="-3.32012">
        <ele>237.4</ele>
        <time>2024-11-20T10:46:04Z</time>
      </trkpt>
      <trkpt lat="48.13951" lon="-3.3201">
        <ele>237.4</ele>
        <time>2024-11-20T10:46:05Z</time>
      </trkpt>
      <trkpt lat="48.13951" lon="-3.32007">
        <ele>237.5</ele>
        <time>2024-11-20T10:46:06Z</time>
      </trkpt>
      <trkpt lat="48.13951" lon="-3.32005">
        <ele>237.5</ele>
        <time>2024-11-20T10:46:07Z</time>
      </trkpt>
      <trkpt lat="48.13952" lon="-3.32004">
        <ele>237.5</ele>
        <time>2024-11-20T10:46:08Z</time>
      </trkpt>
      <trkpt lat="48.13952" lon="-3.32004">
        <ele>237.5</ele>
        <time>2024-11-20T10:46:09Z</time>
      </trkpt>
      <trkpt lat="48.13952" lon="-3.32003">
        <ele>237.5</ele>
        <time>2024-11-20T10:46:10Z</time>
      </trkpt>
      <trkpt lat="48.13952" lon="-3.32002">
        <ele>237.6</ele>
        <time>2024-11-20T10:46:11Z</time>
      </trkpt>
      <trkpt lat="48.13953" lon="-3.32001">
        <ele>237.6</ele>
        <time>2024-11-20T10:46:12Z</time>
      </trkpt>
      <trkpt lat="48.13953" lon="-3.32">
        <ele>237.6</ele>
        <time>2024-11-20T10:46:13Z</time>
      </trkpt>
      <trkpt lat="48.13953" lon="-3.31999">
        <ele>237.7</ele>
        <time>2024-11-20T10:46:14Z</time>
      </trkpt>
      <trkpt lat="48.13954" lon="-3.31997">
        <ele>237.7</ele>
        <time>2024-11-20T10:46:15Z</time>
      </trkpt>
      <trkpt lat="48.13954" lon="-3.31996">
        <ele>237.7</ele>
        <time>2024-11-20T10:46:16Z</time>
      </trkpt>
      <trkpt lat="48.13954" lon="-3.31995">
        <ele>237.8</ele>
        <time>2024-11-20T10:46:17Z</time>
      </trkpt>
      <trkpt lat="48.13955" lon="-3.31993">
        <ele>237.8</ele>
        <time>2024-11-20T10:46:18Z</time>
      </trkpt>
      <trkpt lat="48.13955" lon="-3.31992">
        <ele>237.9</ele>
        <time>2024-11-20T10:46:19Z</time>
      </trkpt>
      <trkpt lat="48.13956" lon="-3.31991">
        <ele>237.9</ele>
        <time>2024-11-20T10:46:20Z</time>
      </trkpt>
      <trkpt lat="48.13956" lon="-3.31989">
        <ele>238</ele>
        <time>2024-11-20T10:46:21Z</time>
      </trkpt>
      <trkpt lat="48.13957" lon="-3.31987">
        <ele>238.1</ele>
        <time>2024-11-20T10:46:22Z</time>
      </trkpt>
      <trkpt lat="48.13958" lon="-3.31985">
        <ele>238.2</ele>
        <time>2024-11-20T10:46:23Z</time>
      </trkpt>
      <trkpt lat="48.13958" lon="-3.31984">
        <ele>238.3</ele>
        <time>2024-11-20T10:46:24Z</time>
      </trkpt>
      <trkpt lat="48.13959" lon="-3.31982">
        <ele>238.4</ele>
        <time>2024-11-20T10:46:25Z</time>
      </trkpt>
      <trkpt lat="48.13959" lon="-3.3198">
        <ele>238.5</ele>
        <time>2024-11-20T10:46:26Z</time>
      </trkpt>
      <trkpt lat="48.1396" lon="-3.31977">
        <ele>238.5</ele>
        <time>2024-11-20T10:46:27Z</time>
      </trkpt>
      <trkpt lat="48.1396" lon="-3.31975">
        <ele>238.6</ele>
        <time>2024-11-20T10:46:28Z</time>
      </trkpt>
      <trkpt lat="48.1396" lon="-3.31973">
        <ele>238.6</ele>
        <time>2024-11-20T10:46:29Z</time>
      </trkpt>
      <trkpt lat="48.13959" lon="-3.31971">
        <ele>238.6</ele>
        <time>2024-11-20T10:46:30Z</time>
      </trkpt>
      <trkpt lat="48.13959" lon="-3.31968">
        <ele>238.6</ele>
        <time>2024-11-20T10:46:31Z</time>
      </trkpt>
      <trkpt lat="48.13959" lon="-3.31966">
        <ele>238.6</ele>
        <time>2024-11-20T10:46:32Z</time>
      </trkpt>
      <trkpt lat="48.13959" lon="-3.31965">
        <ele>238.6</ele>
        <time>2024-11-20T10:46:33Z</time>
      </trkpt>
      <trkpt lat="48.13959" lon="-3.31963">
        <ele>238.6</ele>
        <time>2024-11-20T10:46:34Z</time>
      </trkpt>
      <trkpt lat="48.1396" lon="-3.31962">
        <ele>238.6</ele>
        <time>2024-11-20T10:46:35Z</time>
      </trkpt>
      <trkpt lat="48.1396" lon="-3.3196">
        <ele>238.7</ele>
        <time>2024-11-20T10:46:36Z</time>
      </trkpt>
      <trkpt lat="48.1396" lon="-3.31959">
        <ele>238.7</ele>
        <time>2024-11-20T10:46:37Z</time>
      </trkpt>
      <trkpt lat="48.13961" lon="-3.31957">
        <ele>238.7</ele>
        <time>2024-11-20T10:46:38Z</time>
      </trkpt>
      <trkpt lat="48.13961" lon="-3.31955">
        <ele>238.8</ele>
        <time>2024-11-20T10:46:39Z</time>
      </trkpt>
      <trkpt lat="48.13961" lon="-3.31952">
        <ele>238.8</ele>
        <time>2024-11-20T10:46:40Z</time>
      </trkpt>
      <trkpt lat="48.13962" lon="-3.3195">
        <ele>238.9</ele>
        <time>2024-11-20T10:46:41Z</time>
      </trkpt>
      <trkpt lat="48.13963" lon="-3.31949">
        <ele>239</ele>
        <time>2024-11-20T10:46:42Z</time>
      </trkpt>
      <trkpt lat="48.13963" lon="-3.31947">
        <ele>239</ele>
        <time>2024-11-20T10:46:43Z</time>
      </trkpt>
      <trkpt lat="48.13964" lon="-3.31945">
        <ele>239.1</ele>
        <time>2024-11-20T10:46:44Z</time>
      </trkpt>
      <trkpt lat="48.13964" lon="-3.31943">
        <ele>239.2</ele>
        <time>2024-11-20T10:46:45Z</time>
      </trkpt>
      <trkpt lat="48.13965" lon="-3.31941">
        <ele>239.2</ele>
        <time>2024-11-20T10:46:46Z</time>
      </trkpt>
      <trkpt lat="48.13965" lon="-3.31939">
        <ele>239.3</ele>
        <time>2024-11-20T10:46:47Z</time>
      </trkpt>
      <trkpt lat="48.13966" lon="-3.31938">
        <ele>239.3</ele>
        <time>2024-11-20T10:46:48Z</time>
      </trkpt>
      <trkpt lat="48.13966" lon="-3.31936">
        <ele>239.4</ele>
        <time>2024-11-20T10:46:49Z</time>
      </trkpt>
      <trkpt lat="48.13967" lon="-3.31934">
        <ele>239.4</ele>
        <time>2024-11-20T10:46:50Z</time>
      </trkpt>
      <trkpt lat="48.13968" lon="-3.31932">
        <ele>239.5</ele>
        <time>2024-11-20T10:46:51Z</time>
      </trkpt>
      <trkpt lat="48.13968" lon="-3.3193">
        <ele>239.6</ele>
        <time>2024-11-20T10:46:52Z</time>
      </trkpt>
      <trkpt lat="48.13969" lon="-3.31928">
        <ele>239.6</ele>
        <time>2024-11-20T10:46:53Z</time>
      </trkpt>
      <trkpt lat="48.1397" lon="-3.31926">
        <ele>239.7</ele>
        <time>2024-11-20T10:46:54Z</time>
      </trkpt>
      <trkpt lat="48.1397" lon="-3.31924">
        <ele>239.8</ele>
        <time>2024-11-20T10:46:55Z</time>
      </trkpt>
      <trkpt lat="48.13971" lon="-3.31923">
        <ele>239.9</ele>
        <time>2024-11-20T10:46:56Z</time>
      </trkpt>
      <trkpt lat="48.13972" lon="-3.31922">
        <ele>240</ele>
        <time>2024-11-20T10:46:57Z</time>
      </trkpt>
      <trkpt lat="48.13973" lon="-3.31921">
        <ele>240.1</ele>
        <time>2024-11-20T10:46:58Z</time>
      </trkpt>
      <trkpt lat="48.13974" lon="-3.31919">
        <ele>240.2</ele>
        <time>2024-11-20T10:46:59Z</time>
      </trkpt>
      <trkpt lat="48.13975" lon="-3.31918">
        <ele>240.2</ele>
        <time>2024-11-20T10:47:00Z</time>
      </trkpt>
      <trkpt lat="48.13975" lon="-3.31917">
        <ele>240.3</ele>
        <time>2024-11-20T10:47:01Z</time>
      </trkpt>
      <trkpt lat="48.13976" lon="-3.31916">
        <ele>240.4</ele>
        <time>2024-11-20T10:47:02Z</time>
      </trkpt>
      <trkpt lat="48.13977" lon="-3.31915">
        <ele>240.4</ele>
        <time>2024-11-20T10:47:03Z</time>
      </trkpt>
      <trkpt lat="48.13977" lon="-3.31913">
        <ele>240.4</ele>
        <time>2024-11-20T10:47:04Z</time>
      </trkpt>
      <trkpt lat="48.13978" lon="-3.31912">
        <ele>240.4</ele>
        <time>2024-11-20T10:47:05Z</time>
      </trkpt>
      <trkpt lat="48.13978" lon="-3.31911">
        <ele>240.5</ele>
        <time>2024-11-20T10:47:06Z</time>
      </trkpt>
      <trkpt lat="48.13979" lon="-3.31911">
        <ele>240.5</ele>
        <time>2024-11-20T10:47:07Z</time>
      </trkpt>
      <trkpt lat="48.1398" lon="-3.3191">
        <ele>240.6</ele>
        <time>2024-11-20T10:47:08Z</time>
      </trkpt>
      <trkpt lat="48.1398" lon="-3.31909">
        <ele>240.6</ele>
        <time>2024-11-20T10:47:09Z</time>
      </trkpt>
      <trkpt lat="48.1398" lon="-3.31908">
        <ele>240.5</ele>
        <time>2024-11-20T10:47:10Z</time>
      </trkpt>
      <trkpt lat="48.1398" lon="-3.31907">
        <ele>240.5</ele>
        <time>2024-11-20T10:47:11Z</time>
      </trkpt>
      <trkpt lat="48.1398" lon="-3.31906">
        <ele>240.5</ele>
        <time>2024-11-20T10:47:12Z</time>
      </trkpt>
      <trkpt lat="48.13981" lon="-3.31904">
        <ele>240.5</ele>
        <time>2024-11-20T10:47:13Z</time>
      </trkpt>
      <trkpt lat="48.13981" lon="-3.31902">
        <ele>240.4</ele>
        <time>2024-11-20T10:47:14Z</time>
      </trkpt>
      <trkpt lat="48.13982" lon="-3.319">
        <ele>240.4</ele>
        <time>2024-11-20T10:47:15Z</time>
      </trkpt>
      <trkpt lat="48.13982" lon="-3.31898">
        <ele>240.4</ele>
        <time>2024-11-20T10:47:16Z</time>
      </trkpt>
      <trkpt lat="48.13983" lon="-3.31896">
        <ele>240.4</ele>
        <time>2024-11-20T10:47:17Z</time>
      </trkpt>
      <trkpt lat="48.13984" lon="-3.31894">
        <ele>240.5</ele>
        <time>2024-11-20T10:47:18Z</time>
      </trkpt>
      <trkpt lat="48.13985" lon="-3.31893">
        <ele>240.5</ele>
        <time>2024-11-20T10:47:19Z</time>
      </trkpt>
      <trkpt lat="48.13985" lon="-3.31892">
        <ele>240.5</ele>
        <time>2024-11-20T10:47:20Z</time>
      </trkpt>
      <trkpt lat="48.13986" lon="-3.3189">
        <ele>240.5</ele>
        <time>2024-11-20T10:47:21Z</time>
      </trkpt>
      <trkpt lat="48.13987" lon="-3.31889">
        <ele>240.6</ele>
        <time>2024-11-20T10:47:22Z</time>
      </trkpt>
      <trkpt lat="48.13987" lon="-3.31888">
        <ele>240.6</ele>
        <time>2024-11-20T10:47:23Z</time>
      </trkpt>
      <trkpt lat="48.13988" lon="-3.31887">
        <ele>240.7</ele>
        <time>2024-11-20T10:47:24Z</time>
      </trkpt>
      <trkpt lat="48.13988" lon="-3.31885">
        <ele>240.7</ele>
        <time>2024-11-20T10:47:25Z</time>
      </trkpt>
      <trkpt lat="48.13989" lon="-3.31884">
        <ele>240.8</ele>
        <time>2024-11-20T10:47:26Z</time>
      </trkpt>
      <trkpt lat="48.1399" lon="-3.31883">
        <ele>240.9</ele>
        <time>2024-11-20T10:47:27Z</time>
      </trkpt>
      <trkpt lat="48.13991" lon="-3.31881">
        <ele>241</ele>
        <time>2024-11-20T10:47:28Z</time>
      </trkpt>
      <trkpt lat="48.13991" lon="-3.3188">
        <ele>241</ele>
        <time>2024-11-20T10:47:29Z</time>
      </trkpt>
      <trkpt lat="48.13992" lon="-3.31878">
        <ele>241.1</ele>
        <time>2024-11-20T10:47:30Z</time>
      </trkpt>
      <trkpt lat="48.13992" lon="-3.31877">
        <ele>241.2</ele>
        <time>2024-11-20T10:47:31Z</time>
      </trkpt>
      <trkpt lat="48.13993" lon="-3.31876">
        <ele>241.3</ele>
        <time>2024-11-20T10:47:32Z</time>
      </trkpt>
      <trkpt lat="48.13994" lon="-3.31875">
        <ele>241.3</ele>
        <time>2024-11-20T10:47:33Z</time>
      </trkpt>
      <trkpt lat="48.13994" lon="-3.31874">
        <ele>241.4</ele>
        <time>2024-11-20T10:47:34Z</time>
      </trkpt>
      <trkpt lat="48.13995" lon="-3.31873">
        <ele>241.5</ele>
        <time>2024-11-20T10:47:35Z</time>
      </trkpt>
      <trkpt lat="48.13996" lon="-3.31871">
        <ele>241.5</ele>
        <time>2024-11-20T10:47:36Z</time>
      </trkpt>
      <trkpt lat="48.13996" lon="-3.31869">
        <ele>241.6</ele>
        <time>2024-11-20T10:47:37Z</time>
      </trkpt>
      <trkpt lat="48.13996" lon="-3.31867">
        <ele>241.6</ele>
        <time>2024-11-20T10:47:38Z</time>
      </trkpt>
      <trkpt lat="48.13997" lon="-3.31865">
        <ele>241.6</ele>
        <time>2024-11-20T10:47:39Z</time>
      </trkpt>
      <trkpt lat="48.13997" lon="-3.31863">
        <ele>241.7</ele>
        <time>2024-11-20T10:47:40Z</time>
      </trkpt>
      <trkpt lat="48.13997" lon="-3.31862">
        <ele>241.7</ele>
        <time>2024-11-20T10:47:41Z</time>
      </trkpt>
      <trkpt lat="48.13998" lon="-3.3186">
        <ele>241.8</ele>
        <time>2024-11-20T10:47:42Z</time>
      </trkpt>
      <trkpt lat="48.13998" lon="-3.31858">
        <ele>241.8</ele>
        <time>2024-11-20T10:47:43Z</time>
      </trkpt>
      <trkpt lat="48.13998" lon="-3.31856">
        <ele>241.8</ele>
        <time>2024-11-20T10:47:44Z</time>
      </trkpt>
      <trkpt lat="48.13999" lon="-3.31854">
        <ele>241.8</ele>
        <time>2024-11-20T10:47:45Z</time>
      </trkpt>
      <trkpt lat="48.13999" lon="-3.31853">
        <ele>241.9</ele>
        <time>2024-11-20T10:47:46Z</time>
      </trkpt>
      <trkpt lat="48.13999" lon="-3.31851">
        <ele>241.9</ele>
        <time>2024-11-20T10:47:47Z</time>
      </trkpt>
      <trkpt lat="48.14" lon="-3.3185">
        <ele>242</ele>
        <time>2024-11-20T10:47:48Z</time>
      </trkpt>
      <trkpt lat="48.14001" lon="-3.31848">
        <ele>242.1</ele>
        <time>2024-11-20T10:47:49Z</time>
      </trkpt>
      <trkpt lat="48.14002" lon="-3.31847">
        <ele>242.2</ele>
        <time>2024-11-20T10:47:50Z</time>
      </trkpt>
      <trkpt lat="48.14003" lon="-3.31845">
        <ele>242.2</ele>
        <time>2024-11-20T10:47:51Z</time>
      </trkpt>
      <trkpt lat="48.14004" lon="-3.31844">
        <ele>242.3</ele>
        <time>2024-11-20T10:47:52Z</time>
      </trkpt>
      <trkpt lat="48.14004" lon="-3.31843">
        <ele>242.3</ele>
        <time>2024-11-20T10:47:53Z</time>
      </trkpt>
      <trkpt lat="48.14005" lon="-3.31841">
        <ele>242.3</ele>
        <time>2024-11-20T10:47:54Z</time>
      </trkpt>
      <trkpt lat="48.14006" lon="-3.3184">
        <ele>242.4</ele>
        <time>2024-11-20T10:47:55Z</time>
      </trkpt>
      <trkpt lat="48.14007" lon="-3.31839">
        <ele>242.5</ele>
        <time>2024-11-20T10:47:56Z</time>
      </trkpt>
      <trkpt lat="48.14007" lon="-3.31838">
        <ele>242.5</ele>
        <time>2024-11-20T10:47:57Z</time>
      </trkpt>
      <trkpt lat="48.14008" lon="-3.31837">
        <ele>242.6</ele>
        <time>2024-11-20T10:47:58Z</time>
      </trkpt>
      <trkpt lat="48.14009" lon="-3.31835">
        <ele>242.6</ele>
        <time>2024-11-20T10:47:59Z</time>
      </trkpt>
      <trkpt lat="48.14009" lon="-3.31834">
        <ele>242.6</ele>
        <time>2024-11-20T10:48:00Z</time>
      </trkpt>
      <trkpt lat="48.14009" lon="-3.31832">
        <ele>242.6</ele>
        <time>2024-11-20T10:48:01Z</time>
      </trkpt>
      <trkpt lat="48.14009" lon="-3.31831">
        <ele>242.6</ele>
        <time>2024-11-20T10:48:02Z</time>
      </trkpt>
      <trkpt lat="48.14009" lon="-3.31829">
        <ele>242.7</ele>
        <time>2024-11-20T10:48:03Z</time>
      </trkpt>
      <trkpt lat="48.1401" lon="-3.31827">
        <ele>242.7</ele>
        <time>2024-11-20T10:48:04Z</time>
      </trkpt>
      <trkpt lat="48.1401" lon="-3.31825">
        <ele>242.7</ele>
        <time>2024-11-20T10:48:05Z</time>
      </trkpt>
      <trkpt lat="48.1401" lon="-3.31823">
        <ele>242.7</ele>
        <time>2024-11-20T10:48:06Z</time>
      </trkpt>
      <trkpt lat="48.14011" lon="-3.3182">
        <ele>242.8</ele>
        <time>2024-11-20T10:48:07Z</time>
      </trkpt>
      <trkpt lat="48.14012" lon="-3.31817">
        <ele>242.8</ele>
        <time>2024-11-20T10:48:08Z</time>
      </trkpt>
      <trkpt lat="48.14013" lon="-3.31815">
        <ele>242.9</ele>
        <time>2024-11-20T10:48:09Z</time>
      </trkpt>
      <trkpt lat="48.14013" lon="-3.31814">
        <ele>243</ele>
        <time>2024-11-20T10:48:10Z</time>
      </trkpt>
      <trkpt lat="48.14013" lon="-3.31813">
        <ele>243</ele>
        <time>2024-11-20T10:48:11Z</time>
      </trkpt>
      <trkpt lat="48.14014" lon="-3.31812">
        <ele>243</ele>
        <time>2024-11-20T10:48:12Z</time>
      </trkpt>
      <trkpt lat="48.14014" lon="-3.31812">
        <ele>243</ele>
        <time>2024-11-20T10:48:13Z</time>
      </trkpt>
      <trkpt lat="48.14014" lon="-3.31812">
        <ele>243</ele>
        <time>2024-11-20T10:48:14Z</time>
      </trkpt>
      <trkpt lat="48.14014" lon="-3.31811">
        <ele>243</ele>
        <time>2024-11-20T10:48:15Z</time>
      </trkpt>
      <trkpt lat="48.14014" lon="-3.31809">
        <ele>243</ele>
        <time>2024-11-20T10:48:16Z</time>
      </trkpt>
      <trkpt lat="48.14015" lon="-3.31808">
        <ele>243.1</ele>
        <time>2024-11-20T10:48:17Z</time>
      </trkpt>
      <trkpt lat="48.14015" lon="-3.31808">
        <ele>243.1</ele>
        <time>2024-11-20T10:48:18Z</time>
      </trkpt>
      <trkpt lat="48.14016" lon="-3.31807">
        <ele>243.2</ele>
        <time>2024-11-20T10:48:19Z</time>
      </trkpt>
      <trkpt lat="48.14017" lon="-3.31806">
        <ele>243.2</ele>
        <time>2024-11-20T10:48:20Z</time>
      </trkpt>
      <trkpt lat="48.14018" lon="-3.31804">
        <ele>243.4</ele>
        <time>2024-11-20T10:48:21Z</time>
      </trkpt>
      <trkpt lat="48.14019" lon="-3.31802">
        <ele>243.5</ele>
        <time>2024-11-20T10:48:22Z</time>
      </trkpt>
      <trkpt lat="48.1402" lon="-3.318">
        <ele>243.6</ele>
        <time>2024-11-20T10:48:23Z</time>
      </trkpt>
      <trkpt lat="48.1402" lon="-3.31798">
        <ele>243.7</ele>
        <time>2024-11-20T10:48:24Z</time>
      </trkpt>
      <trkpt lat="48.1402" lon="-3.31796">
        <ele>243.8</ele>
        <time>2024-11-20T10:48:25Z</time>
      </trkpt>
      <trkpt lat="48.1402" lon="-3.31793">
        <ele>243.9</ele>
        <time>2024-11-20T10:48:26Z</time>
      </trkpt>
      <trkpt lat="48.1402" lon="-3.3179">
        <ele>244</ele>
        <time>2024-11-20T10:48:27Z</time>
      </trkpt>
      <trkpt lat="48.1402" lon="-3.31788">
        <ele>244.1</ele>
        <time>2024-11-20T10:48:28Z</time>
      </trkpt>
      <trkpt lat="48.14021" lon="-3.31786">
        <ele>244.2</ele>
        <time>2024-11-20T10:48:29Z</time>
      </trkpt>
      <trkpt lat="48.14021" lon="-3.31785">
        <ele>244.3</ele>
        <time>2024-11-20T10:48:30Z</time>
      </trkpt>
      <trkpt lat="48.14022" lon="-3.31783">
        <ele>244.4</ele>
        <time>2024-11-20T10:48:31Z</time>
      </trkpt>
      <trkpt lat="48.14023" lon="-3.31781">
        <ele>244.5</ele>
        <time>2024-11-20T10:48:32Z</time>
      </trkpt>
      <trkpt lat="48.14023" lon="-3.31779">
        <ele>244.6</ele>
        <time>2024-11-20T10:48:33Z</time>
      </trkpt>
      <trkpt lat="48.14024" lon="-3.31777">
        <ele>244.7</ele>
        <time>2024-11-20T10:48:34Z</time>
      </trkpt>
      <trkpt lat="48.14024" lon="-3.31776">
        <ele>244.7</ele>
        <time>2024-11-20T10:48:35Z</time>
      </trkpt>
      <trkpt lat="48.14025" lon="-3.31775">
        <ele>244.8</ele>
        <time>2024-11-20T10:48:36Z</time>
      </trkpt>
      <trkpt lat="48.14027" lon="-3.31774">
        <ele>244.9</ele>
        <time>2024-11-20T10:48:37Z</time>
      </trkpt>
      <trkpt lat="48.14027" lon="-3.31773">
        <ele>245</ele>
        <time>2024-11-20T10:48:38Z</time>
      </trkpt>
      <trkpt lat="48.14028" lon="-3.31773">
        <ele>245</ele>
        <time>2024-11-20T10:48:39Z</time>
      </trkpt>
      <trkpt lat="48.14029" lon="-3.31773">
        <ele>245</ele>
        <time>2024-11-20T10:48:40Z</time>
      </trkpt>
      <trkpt lat="48.1403" lon="-3.3177">
        <ele>245.1</ele>
        <time>2024-11-20T10:48:41Z</time>
      </trkpt>
      <trkpt lat="48.1403" lon="-3.31769">
        <ele>245.1</ele>
        <time>2024-11-20T10:48:42Z</time>
      </trkpt>
      <trkpt lat="48.1403" lon="-3.31768">
        <ele>245.1</ele>
        <time>2024-11-20T10:48:43Z</time>
      </trkpt>
      <trkpt lat="48.1403" lon="-3.31766">
        <ele>245.1</ele>
        <time>2024-11-20T10:48:44Z</time>
      </trkpt>
      <trkpt lat="48.1403" lon="-3.31765">
        <ele>245.1</ele>
        <time>2024-11-20T10:48:45Z</time>
      </trkpt>
      <trkpt lat="48.14031" lon="-3.31764">
        <ele>245.1</ele>
        <time>2024-11-20T10:48:46Z</time>
      </trkpt>
      <trkpt lat="48.14031" lon="-3.31763">
        <ele>245.1</ele>
        <time>2024-11-20T10:48:47Z</time>
      </trkpt>
      <trkpt lat="48.14032" lon="-3.31762">
        <ele>245.1</ele>
        <time>2024-11-20T10:48:48Z</time>
      </trkpt>
      <trkpt lat="48.14032" lon="-3.3176">
        <ele>245.2</ele>
        <time>2024-11-20T10:48:49Z</time>
      </trkpt>
      <trkpt lat="48.14033" lon="-3.31758">
        <ele>245.2</ele>
        <time>2024-11-20T10:48:50Z</time>
      </trkpt>
      <trkpt lat="48.14033" lon="-3.31757">
        <ele>245.2</ele>
        <time>2024-11-20T10:48:51Z</time>
      </trkpt>
      <trkpt lat="48.14034" lon="-3.31755">
        <ele>245.2</ele>
        <time>2024-11-20T10:48:52Z</time>
      </trkpt>
      <trkpt lat="48.14034" lon="-3.31753">
        <ele>245.2</ele>
        <time>2024-11-20T10:48:53Z</time>
      </trkpt>
      <trkpt lat="48.14035" lon="-3.31751">
        <ele>245.3</ele>
        <time>2024-11-20T10:48:54Z</time>
      </trkpt>
      <trkpt lat="48.14036" lon="-3.3175">
        <ele>245.3</ele>
        <time>2024-11-20T10:48:55Z</time>
      </trkpt>
      <trkpt lat="48.14037" lon="-3.31748">
        <ele>245.3</ele>
        <time>2024-11-20T10:48:56Z</time>
      </trkpt>
      <trkpt lat="48.14038" lon="-3.31747">
        <ele>245.4</ele>
        <time>2024-11-20T10:48:57Z</time>
      </trkpt>
      <trkpt lat="48.14039" lon="-3.31747">
        <ele>245.4</ele>
        <time>2024-11-20T10:48:58Z</time>
      </trkpt>
      <trkpt lat="48.1404" lon="-3.31746">
        <ele>245.4</ele>
        <time>2024-11-20T10:48:59Z</time>
      </trkpt>
      <trkpt lat="48.1404" lon="-3.31745">
        <ele>245.4</ele>
        <time>2024-11-20T10:49:00Z</time>
      </trkpt>
      <trkpt lat="48.1404" lon="-3.31743">
        <ele>245.4</ele>
        <time>2024-11-20T10:49:01Z</time>
      </trkpt>
      <trkpt lat="48.1404" lon="-3.31741">
        <ele>245.5</ele>
        <time>2024-11-20T10:49:02Z</time>
      </trkpt>
      <trkpt lat="48.14041" lon="-3.31739">
        <ele>245.5</ele>
        <time>2024-11-20T10:49:03Z</time>
      </trkpt>
      <trkpt lat="48.14041" lon="-3.31738">
        <ele>245.5</ele>
        <time>2024-11-20T10:49:04Z</time>
      </trkpt>
      <trkpt lat="48.14041" lon="-3.31736">
        <ele>245.5</ele>
        <time>2024-11-20T10:49:05Z</time>
      </trkpt>
      <trkpt lat="48.14041" lon="-3.31735">
        <ele>245.5</ele>
        <time>2024-11-20T10:49:06Z</time>
      </trkpt>
      <trkpt lat="48.14042" lon="-3.31733">
        <ele>245.5</ele>
        <time>2024-11-20T10:49:07Z</time>
      </trkpt>
      <trkpt lat="48.14042" lon="-3.31731">
        <ele>245.5</ele>
        <time>2024-11-20T10:49:08Z</time>
      </trkpt>
      <trkpt lat="48.14042" lon="-3.31729">
        <ele>245.5</ele>
        <time>2024-11-20T10:49:09Z</time>
      </trkpt>
      <trkpt lat="48.14043" lon="-3.31727">
        <ele>245.5</ele>
        <time>2024-11-20T10:49:10Z</time>
      </trkpt>
      <trkpt lat="48.14043" lon="-3.31726">
        <ele>245.5</ele>
        <time>2024-11-20T10:49:11Z</time>
      </trkpt>
      <trkpt lat="48.14043" lon="-3.31724">
        <ele>245.6</ele>
        <time>2024-11-20T10:49:12Z</time>
      </trkpt>
      <trkpt lat="48.14043" lon="-3.31723">
        <ele>245.6</ele>
        <time>2024-11-20T10:49:13Z</time>
      </trkpt>
      <trkpt lat="48.14044" lon="-3.31721">
        <ele>245.6</ele>
        <time>2024-11-20T10:49:14Z</time>
      </trkpt>
      <trkpt lat="48.14044" lon="-3.31719">
        <ele>245.6</ele>
        <time>2024-11-20T10:49:15Z</time>
      </trkpt>
      <trkpt lat="48.14045" lon="-3.31717">
        <ele>245.6</ele>
        <time>2024-11-20T10:49:16Z</time>
      </trkpt>
      <trkpt lat="48.14046" lon="-3.31716">
        <ele>245.6</ele>
        <time>2024-11-20T10:49:17Z</time>
      </trkpt>
      <trkpt lat="48.14046" lon="-3.31714">
        <ele>245.7</ele>
        <time>2024-11-20T10:49:18Z</time>
      </trkpt>
      <trkpt lat="48.14047" lon="-3.31713">
        <ele>245.7</ele>
        <time>2024-11-20T10:49:19Z</time>
      </trkpt>
      <trkpt lat="48.14048" lon="-3.31711">
        <ele>245.7</ele>
        <time>2024-11-20T10:49:20Z</time>
      </trkpt>
      <trkpt lat="48.14048" lon="-3.31709">
        <ele>245.7</ele>
        <time>2024-11-20T10:49:21Z</time>
      </trkpt>
      <trkpt lat="48.14049" lon="-3.31707">
        <ele>245.7</ele>
        <time>2024-11-20T10:49:22Z</time>
      </trkpt>
      <trkpt lat="48.14049" lon="-3.31705">
        <ele>245.8</ele>
        <time>2024-11-20T10:49:23Z</time>
      </trkpt>
      <trkpt lat="48.14049" lon="-3.31702">
        <ele>245.8</ele>
        <time>2024-11-20T10:49:24Z</time>
      </trkpt>
      <trkpt lat="48.1405" lon="-3.31701">
        <ele>245.8</ele>
        <time>2024-11-20T10:49:25Z</time>
      </trkpt>
      <trkpt lat="48.1405" lon="-3.31699">
        <ele>245.8</ele>
        <time>2024-11-20T10:49:26Z</time>
      </trkpt>
      <trkpt lat="48.14051" lon="-3.31698">
        <ele>245.8</ele>
        <time>2024-11-20T10:49:27Z</time>
      </trkpt>
      <trkpt lat="48.14051" lon="-3.31697">
        <ele>245.8</ele>
        <time>2024-11-20T10:49:28Z</time>
      </trkpt>
      <trkpt lat="48.14052" lon="-3.31695">
        <ele>245.9</ele>
        <time>2024-11-20T10:49:29Z</time>
      </trkpt>
      <trkpt lat="48.14052" lon="-3.31694">
        <ele>245.9</ele>
        <time>2024-11-20T10:49:30Z</time>
      </trkpt>
      <trkpt lat="48.14053" lon="-3.31692">
        <ele>246</ele>
        <time>2024-11-20T10:49:31Z</time>
      </trkpt>
      <trkpt lat="48.14054" lon="-3.3169">
        <ele>246.1</ele>
        <time>2024-11-20T10:49:32Z</time>
      </trkpt>
      <trkpt lat="48.14054" lon="-3.31689">
        <ele>246.2</ele>
        <time>2024-11-20T10:49:33Z</time>
      </trkpt>
      <trkpt lat="48.14055" lon="-3.31688">
        <ele>246.2</ele>
        <time>2024-11-20T10:49:34Z</time>
      </trkpt>
      <trkpt lat="48.14055" lon="-3.31686">
        <ele>246.3</ele>
        <time>2024-11-20T10:49:35Z</time>
      </trkpt>
      <trkpt lat="48.14055" lon="-3.31684">
        <ele>246.4</ele>
        <time>2024-11-20T10:49:36Z</time>
      </trkpt>
      <trkpt lat="48.14055" lon="-3.31682">
        <ele>246.4</ele>
        <time>2024-11-20T10:49:37Z</time>
      </trkpt>
      <trkpt lat="48.14055" lon="-3.31681">
        <ele>246.4</ele>
        <time>2024-11-20T10:49:38Z</time>
      </trkpt>
      <trkpt lat="48.14055" lon="-3.3168">
        <ele>246.5</ele>
        <time>2024-11-20T10:49:39Z</time>
      </trkpt>
      <trkpt lat="48.14055" lon="-3.31678">
        <ele>246.6</ele>
        <time>2024-11-20T10:49:40Z</time>
      </trkpt>
      <trkpt lat="48.14056" lon="-3.31677">
        <ele>246.7</ele>
        <time>2024-11-20T10:49:41Z</time>
      </trkpt>
      <trkpt lat="48.14056" lon="-3.31675">
        <ele>246.7</ele>
        <time>2024-11-20T10:49:42Z</time>
      </trkpt>
      <trkpt lat="48.14056" lon="-3.31673">
        <ele>246.8</ele>
        <time>2024-11-20T10:49:43Z</time>
      </trkpt>
      <trkpt lat="48.14056" lon="-3.31671">
        <ele>246.9</ele>
        <time>2024-11-20T10:49:44Z</time>
      </trkpt>
      <trkpt lat="48.14056" lon="-3.3167">
        <ele>246.9</ele>
        <time>2024-11-20T10:49:45Z</time>
      </trkpt>
      <trkpt lat="48.14056" lon="-3.31669">
        <ele>246.9</ele>
        <time>2024-11-20T10:49:46Z</time>
      </trkpt>
      <trkpt lat="48.14056" lon="-3.31666">
        <ele>247</ele>
        <time>2024-11-20T10:49:47Z</time>
      </trkpt>
      <trkpt lat="48.14057" lon="-3.31665">
        <ele>247</ele>
        <time>2024-11-20T10:49:48Z</time>
      </trkpt>
      <trkpt lat="48.14057" lon="-3.31663">
        <ele>247</ele>
        <time>2024-11-20T10:49:49Z</time>
      </trkpt>
      <trkpt lat="48.14057" lon="-3.31662">
        <ele>247</ele>
        <time>2024-11-20T10:49:50Z</time>
      </trkpt>
      <trkpt lat="48.14057" lon="-3.31661">
        <ele>247</ele>
        <time>2024-11-20T10:49:51Z</time>
      </trkpt>
      <trkpt lat="48.14057" lon="-3.3166">
        <ele>247.1</ele>
        <time>2024-11-20T10:49:52Z</time>
      </trkpt>
      <trkpt lat="48.14057" lon="-3.31659">
        <ele>247.1</ele>
        <time>2024-11-20T10:49:53Z</time>
      </trkpt>
      <trkpt lat="48.14057" lon="-3.31658">
        <ele>247.1</ele>
        <time>2024-11-20T10:49:54Z</time>
      </trkpt>
      <trkpt lat="48.14058" lon="-3.31658">
        <ele>247.1</ele>
        <time>2024-11-20T10:49:55Z</time>
      </trkpt>
      <trkpt lat="48.14058" lon="-3.31657">
        <ele>247.1</ele>
        <time>2024-11-20T10:49:56Z</time>
      </trkpt>
      <trkpt lat="48.14059" lon="-3.31655">
        <ele>247.1</ele>
        <time>2024-11-20T10:49:57Z</time>
      </trkpt>
      <trkpt lat="48.14059" lon="-3.31654">
        <ele>247.1</ele>
        <time>2024-11-20T10:49:58Z</time>
      </trkpt>
      <trkpt lat="48.1406" lon="-3.31654">
        <ele>247.2</ele>
        <time>2024-11-20T10:49:59Z</time>
      </trkpt>
      <trkpt lat="48.14061" lon="-3.31653">
        <ele>247.2</ele>
        <time>2024-11-20T10:50:00Z</time>
      </trkpt>
      <trkpt lat="48.14062" lon="-3.3165">
        <ele>247.2</ele>
        <time>2024-11-20T10:50:01Z</time>
      </trkpt>
      <trkpt lat="48.14063" lon="-3.31649">
        <ele>247.3</ele>
        <time>2024-11-20T10:50:02Z</time>
      </trkpt>
      <trkpt lat="48.14064" lon="-3.31647">
        <ele>247.3</ele>
        <time>2024-11-20T10:50:03Z</time>
      </trkpt>
      <trkpt lat="48.14064" lon="-3.31645">
        <ele>247.3</ele>
        <time>2024-11-20T10:50:04Z</time>
      </trkpt>
      <trkpt lat="48.14065" lon="-3.31644">
        <ele>247.3</ele>
        <time>2024-11-20T10:50:05Z</time>
      </trkpt>
      <trkpt lat="48.14065" lon="-3.31642">
        <ele>247.4</ele>
        <time>2024-11-20T10:50:06Z</time>
      </trkpt>
      <trkpt lat="48.14066" lon="-3.31639">
        <ele>247.4</ele>
        <time>2024-11-20T10:50:07Z</time>
      </trkpt>
      <trkpt lat="48.14067" lon="-3.31637">
        <ele>247.4</ele>
        <time>2024-11-20T10:50:08Z</time>
      </trkpt>
      <trkpt lat="48.14067" lon="-3.31635">
        <ele>247.4</ele>
        <time>2024-11-20T10:50:09Z</time>
      </trkpt>
      <trkpt lat="48.14067" lon="-3.31634">
        <ele>247.4</ele>
        <time>2024-11-20T10:50:10Z</time>
      </trkpt>
      <trkpt lat="48.14068" lon="-3.31633">
        <ele>247.4</ele>
        <time>2024-11-20T10:50:11Z</time>
      </trkpt>
      <trkpt lat="48.14068" lon="-3.31632">
        <ele>247.4</ele>
        <time>2024-11-20T10:50:12Z</time>
      </trkpt>
      <trkpt lat="48.14068" lon="-3.3163">
        <ele>247.4</ele>
        <time>2024-11-20T10:50:13Z</time>
      </trkpt>
      <trkpt lat="48.14068" lon="-3.31628">
        <ele>247.4</ele>
        <time>2024-11-20T10:50:14Z</time>
      </trkpt>
      <trkpt lat="48.14068" lon="-3.31627">
        <ele>247.4</ele>
        <time>2024-11-20T10:50:15Z</time>
      </trkpt>
      <trkpt lat="48.14068" lon="-3.31625">
        <ele>247.5</ele>
        <time>2024-11-20T10:50:16Z</time>
      </trkpt>
      <trkpt lat="48.14069" lon="-3.31624">
        <ele>247.5</ele>
        <time>2024-11-20T10:50:17Z</time>
      </trkpt>
      <trkpt lat="48.14069" lon="-3.31622">
        <ele>247.5</ele>
        <time>2024-11-20T10:50:18Z</time>
      </trkpt>
      <trkpt lat="48.14069" lon="-3.3162">
        <ele>247.5</ele>
        <time>2024-11-20T10:50:19Z</time>
      </trkpt>
      <trkpt lat="48.1407" lon="-3.31619">
        <ele>247.5</ele>
        <time>2024-11-20T10:50:20Z</time>
      </trkpt>
      <trkpt lat="48.1407" lon="-3.31617">
        <ele>247.5</ele>
        <time>2024-11-20T10:50:21Z</time>
      </trkpt>
      <trkpt lat="48.14071" lon="-3.31616">
        <ele>247.5</ele>
        <time>2024-11-20T10:50:22Z</time>
      </trkpt>
      <trkpt lat="48.14071" lon="-3.31615">
        <ele>247.6</ele>
        <time>2024-11-20T10:50:23Z</time>
      </trkpt>
      <trkpt lat="48.14071" lon="-3.31614">
        <ele>247.6</ele>
        <time>2024-11-20T10:50:24Z</time>
      </trkpt>
      <trkpt lat="48.14071" lon="-3.31613">
        <ele>247.6</ele>
        <time>2024-11-20T10:50:25Z</time>
      </trkpt>
      <trkpt lat="48.14071" lon="-3.31613">
        <ele>247.6</ele>
        <time>2024-11-20T10:50:26Z</time>
      </trkpt>
      <trkpt lat="48.14071" lon="-3.31612">
        <ele>247.6</ele>
        <time>2024-11-20T10:50:27Z</time>
      </trkpt>
      <trkpt lat="48.14071" lon="-3.31612">
        <ele>247.6</ele>
        <time>2024-11-20T10:50:28Z</time>
      </trkpt>
      <trkpt lat="48.14071" lon="-3.31611">
        <ele>247.6</ele>
        <time>2024-11-20T10:50:29Z</time>
      </trkpt>
      <trkpt lat="48.14071" lon="-3.31611">
        <ele>247.6</ele>
        <time>2024-11-20T10:50:30Z</time>
      </trkpt>
      <trkpt lat="48.14071" lon="-3.31611">
        <ele>247.6</ele>
        <time>2024-11-20T10:50:31Z</time>
      </trkpt>
      <trkpt lat="48.14071" lon="-3.3161">
        <ele>247.6</ele>
        <time>2024-11-20T10:50:32Z</time>
      </trkpt>
      <trkpt lat="48.14071" lon="-3.3161">
        <ele>247.6</ele>
        <time>2024-11-20T10:50:33Z</time>
      </trkpt>
      <trkpt lat="48.14071" lon="-3.3161">
        <ele>247.6</ele>
        <time>2024-11-20T10:50:34Z</time>
      </trkpt>
      <trkpt lat="48.14071" lon="-3.31609">
        <ele>247.6</ele>
        <time>2024-11-20T10:50:35Z</time>
      </trkpt>
      <trkpt lat="48.14071" lon="-3.31609">
        <ele>247.6</ele>
        <time>2024-11-20T10:50:36Z</time>
      </trkpt>
      <trkpt lat="48.14072" lon="-3.31608">
        <ele>247.6</ele>
        <time>2024-11-20T10:50:37Z</time>
      </trkpt>
      <trkpt lat="48.14072" lon="-3.31608">
        <ele>247.6</ele>
        <time>2024-11-20T10:50:38Z</time>
      </trkpt>
      <trkpt lat="48.14072" lon="-3.31607">
        <ele>247.6</ele>
        <time>2024-11-20T10:50:39Z</time>
      </trkpt>
      <trkpt lat="48.14072" lon="-3.31607">
        <ele>247.6</ele>
        <time>2024-11-20T10:50:40Z</time>
      </trkpt>
      <trkpt lat="48.14073" lon="-3.31606">
        <ele>247.6</ele>
        <time>2024-11-20T10:50:41Z</time>
      </trkpt>
      <trkpt lat="48.14074" lon="-3.31606">
        <ele>247.7</ele>
        <time>2024-11-20T10:50:42Z</time>
      </trkpt>
      <trkpt lat="48.14075" lon="-3.31605">
        <ele>247.7</ele>
        <time>2024-11-20T10:50:43Z</time>
      </trkpt>
      <trkpt lat="48.14076" lon="-3.31605">
        <ele>247.7</ele>
        <time>2024-11-20T10:50:44Z</time>
      </trkpt>
      <trkpt lat="48.14076" lon="-3.31605">
        <ele>247.7</ele>
        <time>2024-11-20T10:50:45Z</time>
      </trkpt>
      <trkpt lat="48.14077" lon="-3.31605">
        <ele>247.8</ele>
        <time>2024-11-20T10:50:46Z</time>
      </trkpt>
      <trkpt lat="48.14078" lon="-3.31605">
        <ele>247.8</ele>
        <time>2024-11-20T10:50:47Z</time>
      </trkpt>
      <trkpt lat="48.14079" lon="-3.31605">
        <ele>247.8</ele>
        <time>2024-11-20T10:50:48Z</time>
      </trkpt>
      <trkpt lat="48.14079" lon="-3.31603">
        <ele>247.8</ele>
        <time>2024-11-20T10:50:49Z</time>
      </trkpt>
      <trkpt lat="48.14079" lon="-3.31602">
        <ele>247.8</ele>
        <time>2024-11-20T10:50:50Z</time>
      </trkpt>
      <trkpt lat="48.14078" lon="-3.31602">
        <ele>247.8</ele>
        <time>2024-11-20T10:50:51Z</time>
      </trkpt>
      <trkpt lat="48.14078" lon="-3.31601">
        <ele>247.8</ele>
        <time>2024-11-20T10:50:52Z</time>
      </trkpt>
      <trkpt lat="48.14078" lon="-3.31601">
        <ele>247.8</ele>
        <time>2024-11-20T10:50:53Z</time>
      </trkpt>
      <trkpt lat="48.14078" lon="-3.316">
        <ele>247.8</ele>
        <time>2024-11-20T10:50:54Z</time>
      </trkpt>
      <trkpt lat="48.14078" lon="-3.316">
        <ele>247.8</ele>
        <time>2024-11-20T10:50:55Z</time>
      </trkpt>
      <trkpt lat="48.14078" lon="-3.316">
        <ele>247.8</ele>
        <time>2024-11-20T10:50:56Z</time>
      </trkpt>
      <trkpt lat="48.14078" lon="-3.316">
        <ele>247.8</ele>
        <time>2024-11-20T10:50:57Z</time>
      </trkpt>
      <trkpt lat="48.14078" lon="-3.316">
        <ele>247.8</ele>
        <time>2024-11-20T10:50:58Z</time>
      </trkpt>
      <trkpt lat="48.14078" lon="-3.316">
        <ele>247.8</ele>
        <time>2024-11-20T10:50:59Z</time>
      </trkpt>
      <trkpt lat="48.14078" lon="-3.316">
        <ele>247.8</ele>
        <time>2024-11-20T10:51:00Z</time>
      </trkpt>
      <trkpt lat="48.14078" lon="-3.316">
        <ele>247.8</ele>
        <time>2024-11-20T10:51:01Z</time>
      </trkpt>
      <trkpt lat="48.14078" lon="-3.316">
        <ele>247.8</ele>
        <time>2024-11-20T10:51:02Z</time>
      </trkpt>
      <trkpt lat="48.14078" lon="-3.316">
        <ele>247.8</ele>
        <time>2024-11-20T10:51:03Z</time>
      </trkpt>
      <trkpt lat="48.14078" lon="-3.316">
        <ele>247.8</ele>
        <time>2024-11-20T10:51:04Z</time>
      </trkpt>
      <trkpt lat="48.14078" lon="-3.316">
        <ele>247.8</ele>
        <time>2024-11-20T10:51:05Z</time>
      </trkpt>
      <trkpt lat="48.14078" lon="-3.316">
        <ele>247.8</ele>
        <time>2024-11-20T10:51:06Z</time>
      </trkpt>
      <trkpt lat="48.14078" lon="-3.316">
        <ele>247.8</ele>
        <time>2024-11-20T10:51:07Z</time>
      </trkpt>
      <trkpt lat="48.14078" lon="-3.316">
        <ele>247.8</ele>
        <time>2024-11-20T10:51:08Z</time>
      </trkpt>
      <trkpt lat="48.14079" lon="-3.316">
        <ele>247.8</ele>
        <time>2024-11-20T10:51:09Z</time>
      </trkpt>
      <trkpt lat="48.14079" lon="-3.316">
        <ele>247.9</ele>
        <time>2024-11-20T10:51:10Z</time>
      </trkpt>
      <trkpt lat="48.1408" lon="-3.31601">
        <ele>247.9</ele>
        <time>2024-11-20T10:51:11Z</time>
      </trkpt>
      <trkpt lat="48.14081" lon="-3.31601">
        <ele>247.9</ele>
        <time>2024-11-20T10:51:12Z</time>
      </trkpt>
      <trkpt lat="48.14081" lon="-3.31601">
        <ele>247.9</ele>
        <time>2024-11-20T10:51:13Z</time>
      </trkpt>
      <trkpt lat="48.14081" lon="-3.31601">
        <ele>247.9</ele>
        <time>2024-11-20T10:51:14Z</time>
      </trkpt>
      <trkpt lat="48.14082" lon="-3.31602">
        <ele>248</ele>
        <time>2024-11-20T10:51:17Z</time>
      </trkpt>
      <trkpt lat="48.14083" lon="-3.31603">
        <ele>248</ele>
        <time>2024-11-20T10:51:18Z</time>
      </trkpt>
      <trkpt lat="48.14084" lon="-3.31603">
        <ele>248</ele>
        <time>2024-11-20T10:51:19Z</time>
      </trkpt>
      <trkpt lat="48.14085" lon="-3.31604">
        <ele>248</ele>
        <time>2024-11-20T10:51:20Z</time>
      </trkpt>
      <trkpt lat="48.14086" lon="-3.31604">
        <ele>248.1</ele>
        <time>2024-11-20T10:51:21Z</time>
      </trkpt>
      <trkpt lat="48.14087" lon="-3.31604">
        <ele>248.1</ele>
        <time>2024-11-20T10:51:22Z</time>
      </trkpt>
      <trkpt lat="48.14088" lon="-3.31605">
        <ele>248.1</ele>
        <time>2024-11-20T10:51:23Z</time>
      </trkpt>
      <trkpt lat="48.14089" lon="-3.31605">
        <ele>248.2</ele>
        <time>2024-11-20T10:51:24Z</time>
      </trkpt>
      <trkpt lat="48.1409" lon="-3.31606">
        <ele>248.2</ele>
        <time>2024-11-20T10:51:25Z</time>
      </trkpt>
      <trkpt lat="48.1409" lon="-3.31606">
        <ele>248.2</ele>
        <time>2024-11-20T10:51:26Z</time>
      </trkpt>
      <trkpt lat="48.14091" lon="-3.31606">
        <ele>248.2</ele>
        <time>2024-11-20T10:51:27Z</time>
      </trkpt>
      <trkpt lat="48.14091" lon="-3.31607">
        <ele>248.2</ele>
        <time>2024-11-20T10:51:28Z</time>
      </trkpt>
      <trkpt lat="48.14092" lon="-3.31608">
        <ele>248.3</ele>
        <time>2024-11-20T10:51:29Z</time>
      </trkpt>
      <trkpt lat="48.14093" lon="-3.31609">
        <ele>248.3</ele>
        <time>2024-11-20T10:51:30Z</time>
      </trkpt>
      <trkpt lat="48.14094" lon="-3.3161">
        <ele>248.4</ele>
        <time>2024-11-20T10:51:31Z</time>
      </trkpt>
      <trkpt lat="48.14095" lon="-3.3161">
        <ele>248.4</ele>
        <time>2024-11-20T10:51:32Z</time>
      </trkpt>
      <trkpt lat="48.14097" lon="-3.31611">
        <ele>248.5</ele>
        <time>2024-11-20T10:51:33Z</time>
      </trkpt>
      <trkpt lat="48.14098" lon="-3.31613">
        <ele>248.5</ele>
        <time>2024-11-20T10:51:34Z</time>
      </trkpt>
      <trkpt lat="48.14099" lon="-3.31613">
        <ele>248.6</ele>
        <time>2024-11-20T10:51:35Z</time>
      </trkpt>
      <trkpt lat="48.141" lon="-3.31614">
        <ele>248.6</ele>
        <time>2024-11-20T10:51:36Z</time>
      </trkpt>
      <trkpt lat="48.141" lon="-3.31615">
        <ele>248.6</ele>
        <time>2024-11-20T10:51:37Z</time>
      </trkpt>
      <trkpt lat="48.141" lon="-3.31616">
        <ele>248.6</ele>
        <time>2024-11-20T10:51:38Z</time>
      </trkpt>
      <trkpt lat="48.14101" lon="-3.31617">
        <ele>248.6</ele>
        <time>2024-11-20T10:51:39Z</time>
      </trkpt>
      <trkpt lat="48.14102" lon="-3.31618">
        <ele>248.7</ele>
        <time>2024-11-20T10:51:40Z</time>
      </trkpt>
      <trkpt lat="48.14102" lon="-3.31619">
        <ele>248.7</ele>
        <time>2024-11-20T10:51:41Z</time>
      </trkpt>
      <trkpt lat="48.14103" lon="-3.31621">
        <ele>248.7</ele>
        <time>2024-11-20T10:51:42Z</time>
      </trkpt>
      <trkpt lat="48.14104" lon="-3.31621">
        <ele>248.7</ele>
        <time>2024-11-20T10:51:43Z</time>
      </trkpt>
      <trkpt lat="48.14105" lon="-3.31622">
        <ele>248.8</ele>
        <time>2024-11-20T10:51:44Z</time>
      </trkpt>
      <trkpt lat="48.14107" lon="-3.31622">
        <ele>248.8</ele>
        <time>2024-11-20T10:51:45Z</time>
      </trkpt>
      <trkpt lat="48.14108" lon="-3.31623">
        <ele>248.9</ele>
        <time>2024-11-20T10:51:46Z</time>
      </trkpt>
      <trkpt lat="48.14109" lon="-3.31623">
        <ele>248.9</ele>
        <time>2024-11-20T10:51:47Z</time>
      </trkpt>
      <trkpt lat="48.14109" lon="-3.31623">
        <ele>248.9</ele>
        <time>2024-11-20T10:51:48Z</time>
      </trkpt>
      <trkpt lat="48.1411" lon="-3.31624">
        <ele>248.9</ele>
        <time>2024-11-20T10:51:49Z</time>
      </trkpt>
      <trkpt lat="48.1411" lon="-3.31624">
        <ele>249</ele>
        <time>2024-11-20T10:51:50Z</time>
      </trkpt>
      <trkpt lat="48.14111" lon="-3.31624">
        <ele>249</ele>
        <time>2024-11-20T10:51:51Z</time>
      </trkpt>
      <trkpt lat="48.14111" lon="-3.31624">
        <ele>249</ele>
        <time>2024-11-20T10:51:52Z</time>
      </trkpt>
      <trkpt lat="48.14112" lon="-3.31625">
        <ele>249</ele>
        <time>2024-11-20T10:51:53Z</time>
      </trkpt>
      <trkpt lat="48.14113" lon="-3.31625">
        <ele>249</ele>
        <time>2024-11-20T10:51:54Z</time>
      </trkpt>
      <trkpt lat="48.14114" lon="-3.31625">
        <ele>249</ele>
        <time>2024-11-20T10:51:55Z</time>
      </trkpt>
      <trkpt lat="48.14115" lon="-3.31625">
        <ele>249.1</ele>
        <time>2024-11-20T10:51:56Z</time>
      </trkpt>
      <trkpt lat="48.14116" lon="-3.31625">
        <ele>249.1</ele>
        <time>2024-11-20T10:51:57Z</time>
      </trkpt>
      <trkpt lat="48.14116" lon="-3.31625">
        <ele>249.1</ele>
        <time>2024-11-20T10:51:58Z</time>
      </trkpt>
      <trkpt lat="48.14117" lon="-3.31624">
        <ele>249.1</ele>
        <time>2024-11-20T10:51:59Z</time>
      </trkpt>
      <trkpt lat="48.14117" lon="-3.31624">
        <ele>249.1</ele>
        <time>2024-11-20T10:52:00Z</time>
      </trkpt>
      <trkpt lat="48.14117" lon="-3.31624">
        <ele>249.1</ele>
        <time>2024-11-20T10:52:01Z</time>
      </trkpt>
      <trkpt lat="48.14117" lon="-3.31625">
        <ele>249.1</ele>
        <time>2024-11-20T10:52:02Z</time>
      </trkpt>
      <trkpt lat="48.14118" lon="-3.31626">
        <ele>249.1</ele>
        <time>2024-11-20T10:52:03Z</time>
      </trkpt>
      <trkpt lat="48.1412" lon="-3.31627">
        <ele>249.2</ele>
        <time>2024-11-20T10:52:04Z</time>
      </trkpt>
      <trkpt lat="48.14121" lon="-3.31627">
        <ele>249.2</ele>
        <time>2024-11-20T10:52:05Z</time>
      </trkpt>
      <trkpt lat="48.14122" lon="-3.31627">
        <ele>249.2</ele>
        <time>2024-11-20T10:52:06Z</time>
      </trkpt>
      <trkpt lat="48.14123" lon="-3.31628">
        <ele>249.2</ele>
        <time>2024-11-20T10:52:07Z</time>
      </trkpt>
      <trkpt lat="48.14123" lon="-3.31628">
        <ele>249.3</ele>
        <time>2024-11-20T10:52:08Z</time>
      </trkpt>
      <trkpt lat="48.14125" lon="-3.31628">
        <ele>249.3</ele>
        <time>2024-11-20T10:52:09Z</time>
      </trkpt>
      <trkpt lat="48.14127" lon="-3.31629">
        <ele>249.4</ele>
        <time>2024-11-20T10:52:10Z</time>
      </trkpt>
      <trkpt lat="48.14128" lon="-3.31629">
        <ele>249.4</ele>
        <time>2024-11-20T10:52:11Z</time>
      </trkpt>
      <trkpt lat="48.1413" lon="-3.31628">
        <ele>249.4</ele>
        <time>2024-11-20T10:52:12Z</time>
      </trkpt>
      <trkpt lat="48.14133" lon="-3.31629">
        <ele>249.5</ele>
        <time>2024-11-20T10:52:13Z</time>
      </trkpt>
      <trkpt lat="48.14135" lon="-3.31629">
        <ele>249.5</ele>
        <time>2024-11-20T10:52:14Z</time>
      </trkpt>
      <trkpt lat="48.14136" lon="-3.31629">
        <ele>249.6</ele>
        <time>2024-11-20T10:52:15Z</time>
      </trkpt>
      <trkpt lat="48.14137" lon="-3.31629">
        <ele>249.6</ele>
        <time>2024-11-20T10:52:16Z</time>
      </trkpt>
      <trkpt lat="48.14138" lon="-3.31629">
        <ele>249.6</ele>
        <time>2024-11-20T10:52:17Z</time>
      </trkpt>
      <trkpt lat="48.14139" lon="-3.31629">
        <ele>249.7</ele>
        <time>2024-11-20T10:52:18Z</time>
      </trkpt>
      <trkpt lat="48.14141" lon="-3.31631">
        <ele>249.8</ele>
        <time>2024-11-20T10:52:19Z</time>
      </trkpt>
      <trkpt lat="48.14142" lon="-3.31632">
        <ele>249.9</ele>
        <time>2024-11-20T10:52:20Z</time>
      </trkpt>
      <trkpt lat="48.14143" lon="-3.31632">
        <ele>249.9</ele>
        <time>2024-11-20T10:52:21Z</time>
      </trkpt>
      <trkpt lat="48.14145" lon="-3.31632">
        <ele>250</ele>
        <time>2024-11-20T10:52:22Z</time>
      </trkpt>
      <trkpt lat="48.14145" lon="-3.31632">
        <ele>250</ele>
        <time>2024-11-20T10:52:23Z</time>
      </trkpt>
      <trkpt lat="48.14146" lon="-3.31632">
        <ele>250</ele>
        <time>2024-11-20T10:52:24Z</time>
      </trkpt>
      <trkpt lat="48.14147" lon="-3.31632">
        <ele>250</ele>
        <time>2024-11-20T10:52:25Z</time>
      </trkpt>
      <trkpt lat="48.14149" lon="-3.31632">
        <ele>250.1</ele>
        <time>2024-11-20T10:52:26Z</time>
      </trkpt>
      <trkpt lat="48.1415" lon="-3.31632">
        <ele>250.2</ele>
        <time>2024-11-20T10:52:27Z</time>
      </trkpt>
      <trkpt lat="48.14151" lon="-3.31633">
        <ele>250.2</ele>
        <time>2024-11-20T10:52:28Z</time>
      </trkpt>
      <trkpt lat="48.14153" lon="-3.31633">
        <ele>250.3</ele>
        <time>2024-11-20T10:52:29Z</time>
      </trkpt>
      <trkpt lat="48.14155" lon="-3.31633">
        <ele>250.4</ele>
        <time>2024-11-20T10:52:30Z</time>
      </trkpt>
      <trkpt lat="48.14156" lon="-3.31633">
        <ele>250.4</ele>
        <time>2024-11-20T10:52:31Z</time>
      </trkpt>
      <trkpt lat="48.14157" lon="-3.31633">
        <ele>250.4</ele>
        <time>2024-11-20T10:52:32Z</time>
      </trkpt>
      <trkpt lat="48.14159" lon="-3.31633">
        <ele>250.5</ele>
        <time>2024-11-20T10:52:33Z</time>
      </trkpt>
      <trkpt lat="48.1416" lon="-3.31633">
        <ele>250.6</ele>
        <time>2024-11-20T10:52:34Z</time>
      </trkpt>
      <trkpt lat="48.14162" lon="-3.31632">
        <ele>250.6</ele>
        <time>2024-11-20T10:52:35Z</time>
      </trkpt>
      <trkpt lat="48.14163" lon="-3.31632">
        <ele>250.6</ele>
        <time>2024-11-20T10:52:36Z</time>
      </trkpt>
      <trkpt lat="48.14164" lon="-3.31631">
        <ele>250.6</ele>
        <time>2024-11-20T10:52:37Z</time>
      </trkpt>
      <trkpt lat="48.14166" lon="-3.3163">
        <ele>250.7</ele>
        <time>2024-11-20T10:52:38Z</time>
      </trkpt>
      <trkpt lat="48.14167" lon="-3.31629">
        <ele>250.7</ele>
        <time>2024-11-20T10:52:39Z</time>
      </trkpt>
      <trkpt lat="48.14168" lon="-3.31628">
        <ele>250.7</ele>
        <time>2024-11-20T10:52:40Z</time>
      </trkpt>
      <trkpt lat="48.14169" lon="-3.31627">
        <ele>250.7</ele>
        <time>2024-11-20T10:52:41Z</time>
      </trkpt>
      <trkpt lat="48.1417" lon="-3.31625">
        <ele>250.6</ele>
        <time>2024-11-20T10:52:42Z</time>
      </trkpt>
      <trkpt lat="48.1417" lon="-3.31624">
        <ele>250.6</ele>
        <time>2024-11-20T10:52:43Z</time>
      </trkpt>
      <trkpt lat="48.14171" lon="-3.31623">
        <ele>250.5</ele>
        <time>2024-11-20T10:52:44Z</time>
      </trkpt>
      <trkpt lat="48.14171" lon="-3.31622">
        <ele>250.5</ele>
        <time>2024-11-20T10:52:45Z</time>
      </trkpt>
      <trkpt lat="48.14173" lon="-3.31621">
        <ele>250.6</ele>
        <time>2024-11-20T10:52:46Z</time>
      </trkpt>
      <trkpt lat="48.14173" lon="-3.31621">
        <ele>250.6</ele>
        <time>2024-11-20T10:52:47Z</time>
      </trkpt>
      <trkpt lat="48.14173" lon="-3.3162">
        <ele>250.6</ele>
        <time>2024-11-20T10:52:48Z</time>
      </trkpt>
      <trkpt lat="48.14174" lon="-3.3162">
        <ele>250.6</ele>
        <time>2024-11-20T10:52:49Z</time>
      </trkpt>
      <trkpt lat="48.14174" lon="-3.3162">
        <ele>250.6</ele>
        <time>2024-11-20T10:52:50Z</time>
      </trkpt>
      <trkpt lat="48.14174" lon="-3.31619">
        <ele>250.6</ele>
        <time>2024-11-20T10:52:51Z</time>
      </trkpt>
      <trkpt lat="48.14174" lon="-3.31619">
        <ele>250.6</ele>
        <time>2024-11-20T10:52:52Z</time>
      </trkpt>
      <trkpt lat="48.14174" lon="-3.31619">
        <ele>250.5</ele>
        <time>2024-11-20T10:52:53Z</time>
      </trkpt>
      <trkpt lat="48.14174" lon="-3.31618">
        <ele>250.5</ele>
        <time>2024-11-20T10:52:54Z</time>
      </trkpt>
      <trkpt lat="48.14175" lon="-3.31618">
        <ele>250.5</ele>
        <time>2024-11-20T10:52:55Z</time>
      </trkpt>
      <trkpt lat="48.14175" lon="-3.31618">
        <ele>250.5</ele>
        <time>2024-11-20T10:52:56Z</time>
      </trkpt>
      <trkpt lat="48.14175" lon="-3.31618">
        <ele>250.5</ele>
        <time>2024-11-20T10:52:57Z</time>
      </trkpt>
      <trkpt lat="48.14175" lon="-3.31618">
        <ele>250.5</ele>
        <time>2024-11-20T10:52:58Z</time>
      </trkpt>
      <trkpt lat="48.14175" lon="-3.31617">
        <ele>250.5</ele>
        <time>2024-11-20T10:52:59Z</time>
      </trkpt>
      <trkpt lat="48.14175" lon="-3.31617">
        <ele>250.5</ele>
        <time>2024-11-20T10:53:00Z</time>
      </trkpt>
      <trkpt lat="48.14176" lon="-3.31617">
        <ele>250.6</ele>
        <time>2024-11-20T10:53:01Z</time>
      </trkpt>
      <trkpt lat="48.14177" lon="-3.31618">
        <ele>250.6</ele>
        <time>2024-11-20T10:53:02Z</time>
      </trkpt>
      <trkpt lat="48.14178" lon="-3.31618">
        <ele>250.7</ele>
        <time>2024-11-20T10:53:03Z</time>
      </trkpt>
      <trkpt lat="48.14179" lon="-3.31619">
        <ele>250.7</ele>
        <time>2024-11-20T10:53:04Z</time>
      </trkpt>
      <trkpt lat="48.14179" lon="-3.31619">
        <ele>250.7</ele>
        <time>2024-11-20T10:53:05Z</time>
      </trkpt>
      <trkpt lat="48.1418" lon="-3.31619">
        <ele>250.7</ele>
        <time>2024-11-20T10:53:06Z</time>
      </trkpt>
      <trkpt lat="48.1418" lon="-3.31618">
        <ele>250.7</ele>
        <time>2024-11-20T10:53:07Z</time>
      </trkpt>
      <trkpt lat="48.1418" lon="-3.31618">
        <ele>250.7</ele>
        <time>2024-11-20T10:53:08Z</time>
      </trkpt>
      <trkpt lat="48.1418" lon="-3.31618">
        <ele>250.7</ele>
        <time>2024-11-20T10:53:09Z</time>
      </trkpt>
      <trkpt lat="48.1418" lon="-3.31617">
        <ele>250.7</ele>
        <time>2024-11-20T10:53:10Z</time>
      </trkpt>
      <trkpt lat="48.14181" lon="-3.31617">
        <ele>250.7</ele>
        <time>2024-11-20T10:53:11Z</time>
      </trkpt>
      <trkpt lat="48.14181" lon="-3.31617">
        <ele>250.7</ele>
        <time>2024-11-20T10:53:12Z</time>
      </trkpt>
      <trkpt lat="48.14181" lon="-3.31617">
        <ele>250.7</ele>
        <time>2024-11-20T10:53:13Z</time>
      </trkpt>
      <trkpt lat="48.14181" lon="-3.31617">
        <ele>250.7</ele>
        <time>2024-11-20T10:53:14Z</time>
      </trkpt>
      <trkpt lat="48.14181" lon="-3.31616">
        <ele>250.7</ele>
        <time>2024-11-20T10:53:15Z</time>
      </trkpt>
      <trkpt lat="48.14182" lon="-3.31616">
        <ele>250.7</ele>
        <time>2024-11-20T10:53:16Z</time>
      </trkpt>
      <trkpt lat="48.14182" lon="-3.31616">
        <ele>250.7</ele>
        <time>2024-11-20T10:53:17Z</time>
      </trkpt>
      <trkpt lat="48.14182" lon="-3.31616">
        <ele>250.7</ele>
        <time>2024-11-20T10:53:18Z</time>
      </trkpt>
      <trkpt lat="48.14182" lon="-3.31616">
        <ele>250.7</ele>
        <time>2024-11-20T10:53:19Z</time>
      </trkpt>
      <trkpt lat="48.14182" lon="-3.31616">
        <ele>250.7</ele>
        <time>2024-11-20T10:53:20Z</time>
      </trkpt>
      <trkpt lat="48.14182" lon="-3.31616">
        <ele>250.7</ele>
        <time>2024-11-20T10:53:21Z</time>
      </trkpt>
      <trkpt lat="48.14182" lon="-3.31616">
        <ele>250.7</ele>
        <time>2024-11-20T10:53:22Z</time>
      </trkpt>
      <trkpt lat="48.14182" lon="-3.31616">
        <ele>250.7</ele>
        <time>2024-11-20T10:53:23Z</time>
      </trkpt>
      <trkpt lat="48.14182" lon="-3.31615">
        <ele>250.7</ele>
        <time>2024-11-20T10:53:24Z</time>
      </trkpt>
      <trkpt lat="48.14182" lon="-3.31615">
        <ele>250.7</ele>
        <time>2024-11-20T10:53:25Z</time>
      </trkpt>
      <trkpt lat="48.14183" lon="-3.31615">
        <ele>250.7</ele>
        <time>2024-11-20T10:53:26Z</time>
      </trkpt>
      <trkpt lat="48.14183" lon="-3.31614">
        <ele>250.7</ele>
        <time>2024-11-20T10:53:27Z</time>
      </trkpt>
      <trkpt lat="48.14183" lon="-3.31614">
        <ele>250.7</ele>
        <time>2024-11-20T10:53:28Z</time>
      </trkpt>
      <trkpt lat="48.14183" lon="-3.31614">
        <ele>250.7</ele>
        <time>2024-11-20T10:53:29Z</time>
      </trkpt>
      <trkpt lat="48.14183" lon="-3.31614">
        <ele>250.7</ele>
        <time>2024-11-20T10:53:30Z</time>
      </trkpt>
      <trkpt lat="48.14183" lon="-3.31614">
        <ele>250.7</ele>
        <time>2024-11-20T10:53:31Z</time>
      </trkpt>
      <trkpt lat="48.14184" lon="-3.31615">
        <ele>250.7</ele>
        <time>2024-11-20T10:53:32Z</time>
      </trkpt>
      <trkpt lat="48.14184" lon="-3.31615">
        <ele>250.7</ele>
        <time>2024-11-20T10:53:33Z</time>
      </trkpt>
      <trkpt lat="48.14184" lon="-3.31615">
        <ele>250.8</ele>
        <time>2024-11-20T10:53:34Z</time>
      </trkpt>
      <trkpt lat="48.14184" lon="-3.31615">
        <ele>250.8</ele>
        <time>2024-11-20T10:53:35Z</time>
      </trkpt>
      <trkpt lat="48.14184" lon="-3.31615">
        <ele>250.8</ele>
        <time>2024-11-20T10:53:36Z</time>
      </trkpt>
      <trkpt lat="48.14184" lon="-3.31615">
        <ele>250.8</ele>
        <time>2024-11-20T10:53:37Z</time>
      </trkpt>
      <trkpt lat="48.14184" lon="-3.31615">
        <ele>250.8</ele>
        <time>2024-11-20T10:53:38Z</time>
      </trkpt>
      <trkpt lat="48.14185" lon="-3.31615">
        <ele>250.8</ele>
        <time>2024-11-20T10:53:39Z</time>
      </trkpt>
      <trkpt lat="48.14185" lon="-3.31614">
        <ele>250.8</ele>
        <time>2024-11-20T10:53:40Z</time>
      </trkpt>
      <trkpt lat="48.14186" lon="-3.31614">
        <ele>250.8</ele>
        <time>2024-11-20T10:53:41Z</time>
      </trkpt>
      <trkpt lat="48.14187" lon="-3.31614">
        <ele>250.8</ele>
        <time>2024-11-20T10:53:42Z</time>
      </trkpt>
      <trkpt lat="48.14187" lon="-3.31614">
        <ele>250.8</ele>
        <time>2024-11-20T10:53:43Z</time>
      </trkpt>
      <trkpt lat="48.14188" lon="-3.31614">
        <ele>250.8</ele>
        <time>2024-11-20T10:53:44Z</time>
      </trkpt>
      <trkpt lat="48.14188" lon="-3.31612">
        <ele>250.8</ele>
        <time>2024-11-20T10:53:45Z</time>
      </trkpt>
      <trkpt lat="48.14189" lon="-3.31611">
        <ele>250.8</ele>
        <time>2024-11-20T10:53:46Z</time>
      </trkpt>
      <trkpt lat="48.14189" lon="-3.3161">
        <ele>250.8</ele>
        <time>2024-11-20T10:53:47Z</time>
      </trkpt>
      <trkpt lat="48.1419" lon="-3.3161">
        <ele>250.8</ele>
        <time>2024-11-20T10:53:48Z</time>
      </trkpt>
      <trkpt lat="48.1419" lon="-3.31609">
        <ele>250.8</ele>
        <time>2024-11-20T10:53:49Z</time>
      </trkpt>
      <trkpt lat="48.1419" lon="-3.31608">
        <ele>250.8</ele>
        <time>2024-11-20T10:53:50Z</time>
      </trkpt>
      <trkpt lat="48.14191" lon="-3.31607">
        <ele>250.9</ele>
        <time>2024-11-20T10:53:51Z</time>
      </trkpt>
      <trkpt lat="48.14191" lon="-3.31606">
        <ele>250.9</ele>
        <time>2024-11-20T10:53:52Z</time>
      </trkpt>
      <trkpt lat="48.14192" lon="-3.31605">
        <ele>250.9</ele>
        <time>2024-11-20T10:53:53Z</time>
      </trkpt>
      <trkpt lat="48.14192" lon="-3.31604">
        <ele>250.9</ele>
        <time>2024-11-20T10:53:54Z</time>
      </trkpt>
      <trkpt lat="48.14193" lon="-3.31603">
        <ele>250.9</ele>
        <time>2024-11-20T10:53:55Z</time>
      </trkpt>
      <trkpt lat="48.14193" lon="-3.31601">
        <ele>250.9</ele>
        <time>2024-11-20T10:53:56Z</time>
      </trkpt>
      <trkpt lat="48.14194" lon="-3.316">
        <ele>251</ele>
        <time>2024-11-20T10:53:57Z</time>
      </trkpt>
      <trkpt lat="48.14194" lon="-3.316">
        <ele>251</ele>
        <time>2024-11-20T10:53:58Z</time>
      </trkpt>
      <trkpt lat="48.14195" lon="-3.316">
        <ele>251</ele>
        <time>2024-11-20T10:53:59Z</time>
      </trkpt>
      <trkpt lat="48.14195" lon="-3.316">
        <ele>251</ele>
        <time>2024-11-20T10:54:00Z</time>
      </trkpt>
      <trkpt lat="48.14195" lon="-3.31599">
        <ele>251</ele>
        <time>2024-11-20T10:54:01Z</time>
      </trkpt>
      <trkpt lat="48.14196" lon="-3.31599">
        <ele>251.1</ele>
        <time>2024-11-20T10:54:02Z</time>
      </trkpt>
      <trkpt lat="48.14197" lon="-3.31597">
        <ele>251.1</ele>
        <time>2024-11-20T10:54:03Z</time>
      </trkpt>
      <trkpt lat="48.14197" lon="-3.31596">
        <ele>251.1</ele>
        <time>2024-11-20T10:54:04Z</time>
      </trkpt>
      <trkpt lat="48.14198" lon="-3.31594">
        <ele>251.2</ele>
        <time>2024-11-20T10:54:05Z</time>
      </trkpt>
      <trkpt lat="48.14198" lon="-3.31593">
        <ele>251.2</ele>
        <time>2024-11-20T10:54:06Z</time>
      </trkpt>
      <trkpt lat="48.14199" lon="-3.31592">
        <ele>251.2</ele>
        <time>2024-11-20T10:54:07Z</time>
      </trkpt>
      <trkpt lat="48.142" lon="-3.31592">
        <ele>251.2</ele>
        <time>2024-11-20T10:54:08Z</time>
      </trkpt>
      <trkpt lat="48.142" lon="-3.31591">
        <ele>251.3</ele>
        <time>2024-11-20T10:54:09Z</time>
      </trkpt>
      <trkpt lat="48.14202" lon="-3.31588">
        <ele>251.3</ele>
        <time>2024-11-20T10:54:11Z</time>
      </trkpt>
      <trkpt lat="48.14203" lon="-3.31587">
        <ele>251.3</ele>
        <time>2024-11-20T10:54:12Z</time>
      </trkpt>
      <trkpt lat="48.14203" lon="-3.31587">
        <ele>251.4</ele>
        <time>2024-11-20T10:54:13Z</time>
      </trkpt>
      <trkpt lat="48.14204" lon="-3.31586">
        <ele>251.4</ele>
        <time>2024-11-20T10:54:14Z</time>
      </trkpt>
      <trkpt lat="48.14205" lon="-3.31585">
        <ele>251.4</ele>
        <time>2024-11-20T10:54:15Z</time>
      </trkpt>
      <trkpt lat="48.14206" lon="-3.31583">
        <ele>251.4</ele>
        <time>2024-11-20T10:54:16Z</time>
      </trkpt>
      <trkpt lat="48.14207" lon="-3.31583">
        <ele>251.4</ele>
        <time>2024-11-20T10:54:17Z</time>
      </trkpt>
      <trkpt lat="48.14208" lon="-3.31582">
        <ele>251.5</ele>
        <time>2024-11-20T10:54:18Z</time>
      </trkpt>
      <trkpt lat="48.14209" lon="-3.31581">
        <ele>251.5</ele>
        <time>2024-11-20T10:54:19Z</time>
      </trkpt>
      <trkpt lat="48.1421" lon="-3.3158">
        <ele>251.5</ele>
        <time>2024-11-20T10:54:20Z</time>
      </trkpt>
      <trkpt lat="48.1421" lon="-3.31579">
        <ele>251.6</ele>
        <time>2024-11-20T10:54:21Z</time>
      </trkpt>
      <trkpt lat="48.1421" lon="-3.31579">
        <ele>251.6</ele>
        <time>2024-11-20T10:54:22Z</time>
      </trkpt>
      <trkpt lat="48.14211" lon="-3.31578">
        <ele>251.6</ele>
        <time>2024-11-20T10:54:23Z</time>
      </trkpt>
      <trkpt lat="48.14212" lon="-3.31577">
        <ele>251.6</ele>
        <time>2024-11-20T10:54:24Z</time>
      </trkpt>
      <trkpt lat="48.14212" lon="-3.31577">
        <ele>251.6</ele>
        <time>2024-11-20T10:54:25Z</time>
      </trkpt>
      <trkpt lat="48.14213" lon="-3.31577">
        <ele>251.7</ele>
        <time>2024-11-20T10:54:26Z</time>
      </trkpt>
      <trkpt lat="48.14214" lon="-3.31577">
        <ele>251.7</ele>
        <time>2024-11-20T10:54:27Z</time>
      </trkpt>
      <trkpt lat="48.14214" lon="-3.31577">
        <ele>251.7</ele>
        <time>2024-11-20T10:54:28Z</time>
      </trkpt>
      <trkpt lat="48.14215" lon="-3.31577">
        <ele>251.7</ele>
        <time>2024-11-20T10:54:29Z</time>
      </trkpt>
      <trkpt lat="48.14215" lon="-3.31576">
        <ele>251.7</ele>
        <time>2024-11-20T10:54:30Z</time>
      </trkpt>
      <trkpt lat="48.14215" lon="-3.31575">
        <ele>251.7</ele>
        <time>2024-11-20T10:54:31Z</time>
      </trkpt>
      <trkpt lat="48.14215" lon="-3.31574">
        <ele>251.8</ele>
        <time>2024-11-20T10:54:32Z</time>
      </trkpt>
      <trkpt lat="48.14216" lon="-3.31573">
        <ele>251.8</ele>
        <time>2024-11-20T10:54:33Z</time>
      </trkpt>
      <trkpt lat="48.14217" lon="-3.31573">
        <ele>251.8</ele>
        <time>2024-11-20T10:54:34Z</time>
      </trkpt>
      <trkpt lat="48.14217" lon="-3.31572">
        <ele>251.8</ele>
        <time>2024-11-20T10:54:35Z</time>
      </trkpt>
      <trkpt lat="48.14217" lon="-3.31571">
        <ele>251.8</ele>
        <time>2024-11-20T10:54:36Z</time>
      </trkpt>
      <trkpt lat="48.14218" lon="-3.3157">
        <ele>251.9</ele>
        <time>2024-11-20T10:54:37Z</time>
      </trkpt>
      <trkpt lat="48.14219" lon="-3.3157">
        <ele>251.9</ele>
        <time>2024-11-20T10:54:38Z</time>
      </trkpt>
      <trkpt lat="48.14219" lon="-3.31569">
        <ele>251.9</ele>
        <time>2024-11-20T10:54:39Z</time>
      </trkpt>
      <trkpt lat="48.1422" lon="-3.31567">
        <ele>251.9</ele>
        <time>2024-11-20T10:54:40Z</time>
      </trkpt>
      <trkpt lat="48.14221" lon="-3.31566">
        <ele>252</ele>
        <time>2024-11-20T10:54:41Z</time>
      </trkpt>
      <trkpt lat="48.14222" lon="-3.31565">
        <ele>252</ele>
        <time>2024-11-20T10:54:42Z</time>
      </trkpt>
      <trkpt lat="48.14222" lon="-3.31564">
        <ele>252</ele>
        <time>2024-11-20T10:54:43Z</time>
      </trkpt>
      <trkpt lat="48.14223" lon="-3.31563">
        <ele>252</ele>
        <time>2024-11-20T10:54:44Z</time>
      </trkpt>
      <trkpt lat="48.14223" lon="-3.31562">
        <ele>252</ele>
        <time>2024-11-20T10:54:45Z</time>
      </trkpt>
      <trkpt lat="48.14223" lon="-3.31561">
        <ele>252</ele>
        <time>2024-11-20T10:54:46Z</time>
      </trkpt>
      <trkpt lat="48.14224" lon="-3.3156">
        <ele>252.1</ele>
        <time>2024-11-20T10:54:47Z</time>
      </trkpt>
      <trkpt lat="48.14225" lon="-3.3156">
        <ele>252.1</ele>
        <time>2024-11-20T10:54:48Z</time>
      </trkpt>
      <trkpt lat="48.14226" lon="-3.31559">
        <ele>252.1</ele>
        <time>2024-11-20T10:54:49Z</time>
      </trkpt>
      <trkpt lat="48.14227" lon="-3.31558">
        <ele>252.2</ele>
        <time>2024-11-20T10:54:50Z</time>
      </trkpt>
      <trkpt lat="48.14227" lon="-3.31558">
        <ele>252.2</ele>
        <time>2024-11-20T10:54:51Z</time>
      </trkpt>
      <trkpt lat="48.14228" lon="-3.31557">
        <ele>252.2</ele>
        <time>2024-11-20T10:54:52Z</time>
      </trkpt>
      <trkpt lat="48.14229" lon="-3.31557">
        <ele>252.2</ele>
        <time>2024-11-20T10:54:53Z</time>
      </trkpt>
      <trkpt lat="48.1423" lon="-3.31556">
        <ele>252.3</ele>
        <time>2024-11-20T10:54:54Z</time>
      </trkpt>
      <trkpt lat="48.14231" lon="-3.31555">
        <ele>252.3</ele>
        <time>2024-11-20T10:54:55Z</time>
      </trkpt>
      <trkpt lat="48.14232" lon="-3.31555">
        <ele>252.4</ele>
        <time>2024-11-20T10:54:56Z</time>
      </trkpt>
      <trkpt lat="48.14233" lon="-3.31555">
        <ele>252.4</ele>
        <time>2024-11-20T10:54:57Z</time>
      </trkpt>
      <trkpt lat="48.14234" lon="-3.31555">
        <ele>252.4</ele>
        <time>2024-11-20T10:54:58Z</time>
      </trkpt>
      <trkpt lat="48.14235" lon="-3.31555">
        <ele>252.4</ele>
        <time>2024-11-20T10:54:59Z</time>
      </trkpt>
      <trkpt lat="48.14235" lon="-3.31555">
        <ele>252.5</ele>
        <time>2024-11-20T10:55:00Z</time>
      </trkpt>
      <trkpt lat="48.14236" lon="-3.31555">
        <ele>252.5</ele>
        <time>2024-11-20T10:55:01Z</time>
      </trkpt>
      <trkpt lat="48.14236" lon="-3.31555">
        <ele>252.5</ele>
        <time>2024-11-20T10:55:02Z</time>
      </trkpt>
      <trkpt lat="48.14237" lon="-3.31554">
        <ele>252.5</ele>
        <time>2024-11-20T10:55:03Z</time>
      </trkpt>
      <trkpt lat="48.14237" lon="-3.31554">
        <ele>252.5</ele>
        <time>2024-11-20T10:55:04Z</time>
      </trkpt>
      <trkpt lat="48.14238" lon="-3.31554">
        <ele>252.6</ele>
        <time>2024-11-20T10:55:05Z</time>
      </trkpt>
      <trkpt lat="48.14238" lon="-3.31554">
        <ele>252.6</ele>
        <time>2024-11-20T10:55:06Z</time>
      </trkpt>
      <trkpt lat="48.14238" lon="-3.31554">
        <ele>252.6</ele>
        <time>2024-11-20T10:55:07Z</time>
      </trkpt>
      <trkpt lat="48.14239" lon="-3.31554">
        <ele>252.6</ele>
        <time>2024-11-20T10:55:08Z</time>
      </trkpt>
      <trkpt lat="48.14239" lon="-3.31553">
        <ele>252.6</ele>
        <time>2024-11-20T10:55:09Z</time>
      </trkpt>
      <trkpt lat="48.14239" lon="-3.31552">
        <ele>252.6</ele>
        <time>2024-11-20T10:55:10Z</time>
      </trkpt>
      <trkpt lat="48.1424" lon="-3.31551">
        <ele>252.6</ele>
        <time>2024-11-20T10:55:11Z</time>
      </trkpt>
      <trkpt lat="48.14241" lon="-3.3155">
        <ele>252.7</ele>
        <time>2024-11-20T10:55:12Z</time>
      </trkpt>
      <trkpt lat="48.14242" lon="-3.31551">
        <ele>252.7</ele>
        <time>2024-11-20T10:55:13Z</time>
      </trkpt>
      <trkpt lat="48.14243" lon="-3.31551">
        <ele>252.8</ele>
        <time>2024-11-20T10:55:14Z</time>
      </trkpt>
      <trkpt lat="48.14244" lon="-3.31551">
        <ele>252.8</ele>
        <time>2024-11-20T10:55:15Z</time>
      </trkpt>
      <trkpt lat="48.14245" lon="-3.31552">
        <ele>252.8</ele>
        <time>2024-11-20T10:55:16Z</time>
      </trkpt>
      <trkpt lat="48.14245" lon="-3.31551">
        <ele>252.8</ele>
        <time>2024-11-20T10:55:17Z</time>
      </trkpt>
      <trkpt lat="48.14246" lon="-3.31551">
        <ele>252.8</ele>
        <time>2024-11-20T10:55:18Z</time>
      </trkpt>
      <trkpt lat="48.14246" lon="-3.31551">
        <ele>252.9</ele>
        <time>2024-11-20T10:55:19Z</time>
      </trkpt>
      <trkpt lat="48.14247" lon="-3.31551">
        <ele>252.9</ele>
        <time>2024-11-20T10:55:20Z</time>
      </trkpt>
      <trkpt lat="48.14247" lon="-3.3155">
        <ele>252.9</ele>
        <time>2024-11-20T10:55:21Z</time>
      </trkpt>
      <trkpt lat="48.14247" lon="-3.31549">
        <ele>252.9</ele>
        <time>2024-11-20T10:55:22Z</time>
      </trkpt>
      <trkpt lat="48.14248" lon="-3.31549">
        <ele>252.9</ele>
        <time>2024-11-20T10:55:23Z</time>
      </trkpt>
      <trkpt lat="48.14249" lon="-3.31548">
        <ele>252.9</ele>
        <time>2024-11-20T10:55:24Z</time>
      </trkpt>
      <trkpt lat="48.1425" lon="-3.31547">
        <ele>253</ele>
        <time>2024-11-20T10:55:25Z</time>
      </trkpt>
      <trkpt lat="48.1425" lon="-3.31547">
        <ele>253</ele>
        <time>2024-11-20T10:55:26Z</time>
      </trkpt>
      <trkpt lat="48.14251" lon="-3.31547">
        <ele>253</ele>
        <time>2024-11-20T10:55:27Z</time>
      </trkpt>
      <trkpt lat="48.14252" lon="-3.31546">
        <ele>253.1</ele>
        <time>2024-11-20T10:55:28Z</time>
      </trkpt>
      <trkpt lat="48.14253" lon="-3.31546">
        <ele>253.1</ele>
        <time>2024-11-20T10:55:29Z</time>
      </trkpt>
      <trkpt lat="48.14253" lon="-3.31546">
        <ele>253.1</ele>
        <time>2024-11-20T10:55:30Z</time>
      </trkpt>
      <trkpt lat="48.14254" lon="-3.31545">
        <ele>253.1</ele>
        <time>2024-11-20T10:55:31Z</time>
      </trkpt>
      <trkpt lat="48.14254" lon="-3.31545">
        <ele>253.2</ele>
        <time>2024-11-20T10:55:32Z</time>
      </trkpt>
      <trkpt lat="48.14255" lon="-3.31544">
        <ele>253.2</ele>
        <time>2024-11-20T10:55:33Z</time>
      </trkpt>
      <trkpt lat="48.14255" lon="-3.31544">
        <ele>253.2</ele>
        <time>2024-11-20T10:55:34Z</time>
      </trkpt>
      <trkpt lat="48.14256" lon="-3.31544">
        <ele>253.2</ele>
        <time>2024-11-20T10:55:35Z</time>
      </trkpt>
      <trkpt lat="48.14257" lon="-3.31543">
        <ele>253.2</ele>
        <time>2024-11-20T10:55:36Z</time>
      </trkpt>
      <trkpt lat="48.14258" lon="-3.31542">
        <ele>253.3</ele>
        <time>2024-11-20T10:55:37Z</time>
      </trkpt>
      <trkpt lat="48.14259" lon="-3.31541">
        <ele>253.3</ele>
        <time>2024-11-20T10:55:38Z</time>
      </trkpt>
      <trkpt lat="48.1426" lon="-3.3154">
        <ele>253.4</ele>
        <time>2024-11-20T10:55:39Z</time>
      </trkpt>
      <trkpt lat="48.14261" lon="-3.3154">
        <ele>253.4</ele>
        <time>2024-11-20T10:55:40Z</time>
      </trkpt>
      <trkpt lat="48.14263" lon="-3.31539">
        <ele>253.5</ele>
        <time>2024-11-20T10:55:41Z</time>
      </trkpt>
      <trkpt lat="48.14265" lon="-3.31539">
        <ele>253.5</ele>
        <time>2024-11-20T10:55:42Z</time>
      </trkpt>
      <trkpt lat="48.14266" lon="-3.31539">
        <ele>253.6</ele>
        <time>2024-11-20T10:55:43Z</time>
      </trkpt>
      <trkpt lat="48.14267" lon="-3.31538">
        <ele>253.6</ele>
        <time>2024-11-20T10:55:44Z</time>
      </trkpt>
      <trkpt lat="48.14268" lon="-3.31538">
        <ele>253.6</ele>
        <time>2024-11-20T10:55:45Z</time>
      </trkpt>
      <trkpt lat="48.14268" lon="-3.31538">
        <ele>253.7</ele>
        <time>2024-11-20T10:55:46Z</time>
      </trkpt>
      <trkpt lat="48.14269" lon="-3.31538">
        <ele>253.7</ele>
        <time>2024-11-20T10:55:47Z</time>
      </trkpt>
      <trkpt lat="48.14269" lon="-3.31537">
        <ele>253.7</ele>
        <time>2024-11-20T10:55:48Z</time>
      </trkpt>
      <trkpt lat="48.1427" lon="-3.31537">
        <ele>253.7</ele>
        <time>2024-11-20T10:55:49Z</time>
      </trkpt>
      <trkpt lat="48.1427" lon="-3.31537">
        <ele>253.7</ele>
        <time>2024-11-20T10:55:50Z</time>
      </trkpt>
      <trkpt lat="48.14271" lon="-3.31537">
        <ele>253.7</ele>
        <time>2024-11-20T10:55:51Z</time>
      </trkpt>
      <trkpt lat="48.14271" lon="-3.31536">
        <ele>253.8</ele>
        <time>2024-11-20T10:55:52Z</time>
      </trkpt>
      <trkpt lat="48.14272" lon="-3.31535">
        <ele>253.8</ele>
        <time>2024-11-20T10:55:53Z</time>
      </trkpt>
      <trkpt lat="48.14274" lon="-3.31535">
        <ele>253.8</ele>
        <time>2024-11-20T10:55:54Z</time>
      </trkpt>
      <trkpt lat="48.14275" lon="-3.31535">
        <ele>253.9</ele>
        <time>2024-11-20T10:55:55Z</time>
      </trkpt>
      <trkpt lat="48.14276" lon="-3.31535">
        <ele>253.9</ele>
        <time>2024-11-20T10:55:56Z</time>
      </trkpt>
      <trkpt lat="48.14277" lon="-3.31535">
        <ele>254</ele>
        <time>2024-11-20T10:55:57Z</time>
      </trkpt>
      <trkpt lat="48.14278" lon="-3.31534">
        <ele>254</ele>
        <time>2024-11-20T10:55:58Z</time>
      </trkpt>
      <trkpt lat="48.14279" lon="-3.31534">
        <ele>254.1</ele>
        <time>2024-11-20T10:55:59Z</time>
      </trkpt>
      <trkpt lat="48.14281" lon="-3.31532">
        <ele>254.1</ele>
        <time>2024-11-20T10:56:00Z</time>
      </trkpt>
      <trkpt lat="48.14282" lon="-3.31532">
        <ele>254.2</ele>
        <time>2024-11-20T10:56:01Z</time>
      </trkpt>
      <trkpt lat="48.14284" lon="-3.31531">
        <ele>254.2</ele>
        <time>2024-11-20T10:56:02Z</time>
      </trkpt>
      <trkpt lat="48.14285" lon="-3.31529">
        <ele>254.3</ele>
        <time>2024-11-20T10:56:03Z</time>
      </trkpt>
      <trkpt lat="48.14286" lon="-3.31528">
        <ele>254.3</ele>
        <time>2024-11-20T10:56:04Z</time>
      </trkpt>
      <trkpt lat="48.14287" lon="-3.31528">
        <ele>254.3</ele>
        <time>2024-11-20T10:56:05Z</time>
      </trkpt>
      <trkpt lat="48.14288" lon="-3.31527">
        <ele>254.4</ele>
        <time>2024-11-20T10:56:06Z</time>
      </trkpt>
      <trkpt lat="48.1429" lon="-3.31526">
        <ele>254.4</ele>
        <time>2024-11-20T10:56:07Z</time>
      </trkpt>
      <trkpt lat="48.14291" lon="-3.31526">
        <ele>254.5</ele>
        <time>2024-11-20T10:56:08Z</time>
      </trkpt>
      <trkpt lat="48.14291" lon="-3.31526">
        <ele>254.5</ele>
        <time>2024-11-20T10:56:09Z</time>
      </trkpt>
      <trkpt lat="48.14291" lon="-3.31526">
        <ele>254.5</ele>
        <time>2024-11-20T10:56:10Z</time>
      </trkpt>
      <trkpt lat="48.14292" lon="-3.31525">
        <ele>254.5</ele>
        <time>2024-11-20T10:56:11Z</time>
      </trkpt>
      <trkpt lat="48.14292" lon="-3.31524">
        <ele>254.5</ele>
        <time>2024-11-20T10:56:12Z</time>
      </trkpt>
      <trkpt lat="48.14293" lon="-3.31522">
        <ele>254.5</ele>
        <time>2024-11-20T10:56:13Z</time>
      </trkpt>
      <trkpt lat="48.14293" lon="-3.31522">
        <ele>254.6</ele>
        <time>2024-11-20T10:56:14Z</time>
      </trkpt>
      <trkpt lat="48.14294" lon="-3.31521">
        <ele>254.6</ele>
        <time>2024-11-20T10:56:15Z</time>
      </trkpt>
      <trkpt lat="48.14295" lon="-3.31521">
        <ele>254.6</ele>
        <time>2024-11-20T10:56:16Z</time>
      </trkpt>
      <trkpt lat="48.14295" lon="-3.3152">
        <ele>254.6</ele>
        <time>2024-11-20T10:56:17Z</time>
      </trkpt>
      <trkpt lat="48.14295" lon="-3.3152">
        <ele>254.6</ele>
        <time>2024-11-20T10:56:18Z</time>
      </trkpt>
      <trkpt lat="48.14295" lon="-3.3152">
        <ele>254.6</ele>
        <time>2024-11-20T10:56:19Z</time>
      </trkpt>
      <trkpt lat="48.14296" lon="-3.31519">
        <ele>254.6</ele>
        <time>2024-11-20T10:56:20Z</time>
      </trkpt>
      <trkpt lat="48.14296" lon="-3.31519">
        <ele>254.7</ele>
        <time>2024-11-20T10:56:21Z</time>
      </trkpt>
      <trkpt lat="48.14297" lon="-3.31519">
        <ele>254.7</ele>
        <time>2024-11-20T10:56:22Z</time>
      </trkpt>
      <trkpt lat="48.14297" lon="-3.31519">
        <ele>254.7</ele>
        <time>2024-11-20T10:56:23Z</time>
      </trkpt>
      <trkpt lat="48.14297" lon="-3.31518">
        <ele>254.7</ele>
        <time>2024-11-20T10:56:24Z</time>
      </trkpt>
      <trkpt lat="48.14298" lon="-3.31518">
        <ele>254.7</ele>
        <time>2024-11-20T10:56:25Z</time>
      </trkpt>
      <trkpt lat="48.14298" lon="-3.31518">
        <ele>254.7</ele>
        <time>2024-11-20T10:56:26Z</time>
      </trkpt>
      <trkpt lat="48.14298" lon="-3.31518">
        <ele>254.7</ele>
        <time>2024-11-20T10:56:27Z</time>
      </trkpt>
      <trkpt lat="48.14299" lon="-3.31518">
        <ele>254.8</ele>
        <time>2024-11-20T10:56:28Z</time>
      </trkpt>
      <trkpt lat="48.143" lon="-3.31517">
        <ele>254.8</ele>
        <time>2024-11-20T10:56:29Z</time>
      </trkpt>
      <trkpt lat="48.14301" lon="-3.31516">
        <ele>254.8</ele>
        <time>2024-11-20T10:56:30Z</time>
      </trkpt>
      <trkpt lat="48.14303" lon="-3.31514">
        <ele>254.9</ele>
        <time>2024-11-20T10:56:31Z</time>
      </trkpt>
      <trkpt lat="48.14304" lon="-3.31513">
        <ele>255</ele>
        <time>2024-11-20T10:56:32Z</time>
      </trkpt>
      <trkpt lat="48.14306" lon="-3.31512">
        <ele>255</ele>
        <time>2024-11-20T10:56:33Z</time>
      </trkpt>
      <trkpt lat="48.14307" lon="-3.31511">
        <ele>255</ele>
        <time>2024-11-20T10:56:34Z</time>
      </trkpt>
      <trkpt lat="48.14307" lon="-3.3151">
        <ele>255</ele>
        <time>2024-11-20T10:56:35Z</time>
      </trkpt>
      <trkpt lat="48.14308" lon="-3.31508">
        <ele>254.9</ele>
        <time>2024-11-20T10:56:36Z</time>
      </trkpt>
      <trkpt lat="48.1431" lon="-3.31507">
        <ele>254.9</ele>
        <time>2024-11-20T10:56:37Z</time>
      </trkpt>
      <trkpt lat="48.14312" lon="-3.31505">
        <ele>254.8</ele>
        <time>2024-11-20T10:56:38Z</time>
      </trkpt>
      <trkpt lat="48.14313" lon="-3.31504">
        <ele>254.8</ele>
        <time>2024-11-20T10:56:39Z</time>
      </trkpt>
      <trkpt lat="48.14314" lon="-3.31504">
        <ele>254.7</ele>
        <time>2024-11-20T10:56:40Z</time>
      </trkpt>
      <trkpt lat="48.14316" lon="-3.31503">
        <ele>254.7</ele>
        <time>2024-11-20T10:56:41Z</time>
      </trkpt>
      <trkpt lat="48.14316" lon="-3.31502">
        <ele>254.6</ele>
        <time>2024-11-20T10:56:42Z</time>
      </trkpt>
      <trkpt lat="48.14317" lon="-3.31502">
        <ele>254.6</ele>
        <time>2024-11-20T10:56:43Z</time>
      </trkpt>
      <trkpt lat="48.14319" lon="-3.31502">
        <ele>254.6</ele>
        <time>2024-11-20T10:56:44Z</time>
      </trkpt>
      <trkpt lat="48.14321" lon="-3.31501">
        <ele>254.5</ele>
        <time>2024-11-20T10:56:45Z</time>
      </trkpt>
      <trkpt lat="48.14322" lon="-3.31501">
        <ele>254.4</ele>
        <time>2024-11-20T10:56:46Z</time>
      </trkpt>
      <trkpt lat="48.14324" lon="-3.315">
        <ele>254.4</ele>
        <time>2024-11-20T10:56:47Z</time>
      </trkpt>
      <trkpt lat="48.14325" lon="-3.315">
        <ele>254.3</ele>
        <time>2024-11-20T10:56:48Z</time>
      </trkpt>
      <trkpt lat="48.14327" lon="-3.31499">
        <ele>254.2</ele>
        <time>2024-11-20T10:56:49Z</time>
      </trkpt>
      <trkpt lat="48.14329" lon="-3.31498">
        <ele>254.1</ele>
        <time>2024-11-20T10:56:50Z</time>
      </trkpt>
      <trkpt lat="48.1433" lon="-3.31497">
        <ele>254</ele>
        <time>2024-11-20T10:56:51Z</time>
      </trkpt>
      <trkpt lat="48.14331" lon="-3.31496">
        <ele>253.9</ele>
        <time>2024-11-20T10:56:52Z</time>
      </trkpt>
      <trkpt lat="48.14333" lon="-3.31495">
        <ele>253.8</ele>
        <time>2024-11-20T10:56:53Z</time>
      </trkpt>
      <trkpt lat="48.14334" lon="-3.31494">
        <ele>253.6</ele>
        <time>2024-11-20T10:56:54Z</time>
      </trkpt>
      <trkpt lat="48.14336" lon="-3.31494">
        <ele>253.5</ele>
        <time>2024-11-20T10:56:55Z</time>
      </trkpt>
      <trkpt lat="48.14337" lon="-3.31494">
        <ele>253.3</ele>
        <time>2024-11-20T10:56:56Z</time>
      </trkpt>
      <trkpt lat="48.14337" lon="-3.31493">
        <ele>253.2</ele>
        <time>2024-11-20T10:56:57Z</time>
      </trkpt>
      <trkpt lat="48.14338" lon="-3.31492">
        <ele>253</ele>
        <time>2024-11-20T10:56:58Z</time>
      </trkpt>
      <trkpt lat="48.1434" lon="-3.31491">
        <ele>252.8</ele>
        <time>2024-11-20T10:56:59Z</time>
      </trkpt>
      <trkpt lat="48.14341" lon="-3.31491">
        <ele>252.6</ele>
        <time>2024-11-20T10:57:00Z</time>
      </trkpt>
      <trkpt lat="48.14342" lon="-3.31491">
        <ele>252.4</ele>
        <time>2024-11-20T10:57:01Z</time>
      </trkpt>
      <trkpt lat="48.14344" lon="-3.31491">
        <ele>252.2</ele>
        <time>2024-11-20T10:57:02Z</time>
      </trkpt>
      <trkpt lat="48.14345" lon="-3.3149">
        <ele>252</ele>
        <time>2024-11-20T10:57:03Z</time>
      </trkpt>
      <trkpt lat="48.14346" lon="-3.31489">
        <ele>251.8</ele>
        <time>2024-11-20T10:57:04Z</time>
      </trkpt>
      <trkpt lat="48.14347" lon="-3.31488">
        <ele>251.6</ele>
        <time>2024-11-20T10:57:05Z</time>
      </trkpt>
      <trkpt lat="48.14347" lon="-3.31487">
        <ele>251.5</ele>
        <time>2024-11-20T10:57:06Z</time>
      </trkpt>
      <trkpt lat="48.14348" lon="-3.31485">
        <ele>251.3</ele>
        <time>2024-11-20T10:57:07Z</time>
      </trkpt>
      <trkpt lat="48.14349" lon="-3.31483">
        <ele>251.1</ele>
        <time>2024-11-20T10:57:08Z</time>
      </trkpt>
      <trkpt lat="48.1435" lon="-3.31482">
        <ele>250.9</ele>
        <time>2024-11-20T10:57:09Z</time>
      </trkpt>
      <trkpt lat="48.14351" lon="-3.31481">
        <ele>250.8</ele>
        <time>2024-11-20T10:57:10Z</time>
      </trkpt>
      <trkpt lat="48.14352" lon="-3.3148">
        <ele>250.7</ele>
        <time>2024-11-20T10:57:11Z</time>
      </trkpt>
      <trkpt lat="48.14352" lon="-3.31479">
        <ele>250.5</ele>
        <time>2024-11-20T10:57:12Z</time>
      </trkpt>
      <trkpt lat="48.14353" lon="-3.31478">
        <ele>250.3</ele>
        <time>2024-11-20T10:57:13Z</time>
      </trkpt>
      <trkpt lat="48.14354" lon="-3.31477">
        <ele>250.1</ele>
        <time>2024-11-20T10:57:14Z</time>
      </trkpt>
      <trkpt lat="48.14355" lon="-3.31475">
        <ele>250</ele>
        <time>2024-11-20T10:57:15Z</time>
      </trkpt>
      <trkpt lat="48.14356" lon="-3.31474">
        <ele>249.8</ele>
        <time>2024-11-20T10:57:16Z</time>
      </trkpt>
      <trkpt lat="48.14356" lon="-3.31471">
        <ele>249.8</ele>
        <time>2024-11-20T10:57:17Z</time>
      </trkpt>
      <trkpt lat="48.14356" lon="-3.31469">
        <ele>249.8</ele>
        <time>2024-11-20T10:57:18Z</time>
      </trkpt>
      <trkpt lat="48.14356" lon="-3.31467">
        <ele>249.7</ele>
        <time>2024-11-20T10:57:19Z</time>
      </trkpt>
      <trkpt lat="48.14357" lon="-3.31465">
        <ele>249.6</ele>
        <time>2024-11-20T10:57:20Z</time>
      </trkpt>
      <trkpt lat="48.14358" lon="-3.31464">
        <ele>249.5</ele>
        <time>2024-11-20T10:57:21Z</time>
      </trkpt>
      <trkpt lat="48.14359" lon="-3.31463">
        <ele>249.3</ele>
        <time>2024-11-20T10:57:22Z</time>
      </trkpt>
      <trkpt lat="48.1436" lon="-3.31461">
        <ele>249.1</ele>
        <time>2024-11-20T10:57:23Z</time>
      </trkpt>
      <trkpt lat="48.14361" lon="-3.31459">
        <ele>249</ele>
        <time>2024-11-20T10:57:24Z</time>
      </trkpt>
      <trkpt lat="48.14362" lon="-3.31457">
        <ele>248.9</ele>
        <time>2024-11-20T10:57:25Z</time>
      </trkpt>
      <trkpt lat="48.14363" lon="-3.31455">
        <ele>248.7</ele>
        <time>2024-11-20T10:57:26Z</time>
      </trkpt>
      <trkpt lat="48.14363" lon="-3.31454">
        <ele>248.6</ele>
        <time>2024-11-20T10:57:27Z</time>
      </trkpt>
      <trkpt lat="48.14364" lon="-3.31453">
        <ele>248.5</ele>
        <time>2024-11-20T10:57:28Z</time>
      </trkpt>
      <trkpt lat="48.14364" lon="-3.31452">
        <ele>248.5</ele>
        <time>2024-11-20T10:57:29Z</time>
      </trkpt>
      <trkpt lat="48.14364" lon="-3.31451">
        <ele>248.4</ele>
        <time>2024-11-20T10:57:30Z</time>
      </trkpt>
      <trkpt lat="48.14364" lon="-3.31451">
        <ele>248.4</ele>
        <time>2024-11-20T10:57:31Z</time>
      </trkpt>
      <trkpt lat="48.14365" lon="-3.31449">
        <ele>248.4</ele>
        <time>2024-11-20T10:57:32Z</time>
      </trkpt>
      <trkpt lat="48.14365" lon="-3.31447">
        <ele>248.3</ele>
        <time>2024-11-20T10:57:33Z</time>
      </trkpt>
      <trkpt lat="48.14365" lon="-3.31446">
        <ele>248.3</ele>
        <time>2024-11-20T10:57:34Z</time>
      </trkpt>
      <trkpt lat="48.14365" lon="-3.31444">
        <ele>248.3</ele>
        <time>2024-11-20T10:57:35Z</time>
      </trkpt>
      <trkpt lat="48.14366" lon="-3.31442">
        <ele>248.2</ele>
        <time>2024-11-20T10:57:36Z</time>
      </trkpt>
      <trkpt lat="48.14367" lon="-3.31441">
        <ele>248</ele>
        <time>2024-11-20T10:57:37Z</time>
      </trkpt>
      <trkpt lat="48.14367" lon="-3.3144">
        <ele>247.9</ele>
        <time>2024-11-20T10:57:38Z</time>
      </trkpt>
      <trkpt lat="48.14368" lon="-3.31439">
        <ele>247.8</ele>
        <time>2024-11-20T10:57:39Z</time>
      </trkpt>
      <trkpt lat="48.14368" lon="-3.31438">
        <ele>247.8</ele>
        <time>2024-11-20T10:57:40Z</time>
      </trkpt>
      <trkpt lat="48.14368" lon="-3.31437">
        <ele>247.7</ele>
        <time>2024-11-20T10:57:41Z</time>
      </trkpt>
      <trkpt lat="48.14369" lon="-3.31436">
        <ele>247.7</ele>
        <time>2024-11-20T10:57:42Z</time>
      </trkpt>
      <trkpt lat="48.1437" lon="-3.31435">
        <ele>247.5</ele>
        <time>2024-11-20T10:57:43Z</time>
      </trkpt>
      <trkpt lat="48.14371" lon="-3.31435">
        <ele>247.3</ele>
        <time>2024-11-20T10:57:44Z</time>
      </trkpt>
      <trkpt lat="48.14372" lon="-3.31434">
        <ele>247.1</ele>
        <time>2024-11-20T10:57:45Z</time>
      </trkpt>
      <trkpt lat="48.14373" lon="-3.31434">
        <ele>246.9</ele>
        <time>2024-11-20T10:57:46Z</time>
      </trkpt>
      <trkpt lat="48.14373" lon="-3.31433">
        <ele>246.8</ele>
        <time>2024-11-20T10:57:47Z</time>
      </trkpt>
      <trkpt lat="48.14374" lon="-3.31433">
        <ele>246.7</ele>
        <time>2024-11-20T10:57:48Z</time>
      </trkpt>
      <trkpt lat="48.14374" lon="-3.31434">
        <ele>246.7</ele>
        <time>2024-11-20T10:57:49Z</time>
      </trkpt>
      <trkpt lat="48.14374" lon="-3.31434">
        <ele>246.6</ele>
        <time>2024-11-20T10:57:50Z</time>
      </trkpt>
      <trkpt lat="48.14375" lon="-3.31434">
        <ele>246.5</ele>
        <time>2024-11-20T10:57:51Z</time>
      </trkpt>
      <trkpt lat="48.14375" lon="-3.31435">
        <ele>246.5</ele>
        <time>2024-11-20T10:57:52Z</time>
      </trkpt>
      <trkpt lat="48.14375" lon="-3.31435">
        <ele>246.4</ele>
        <time>2024-11-20T10:57:53Z</time>
      </trkpt>
      <trkpt lat="48.14376" lon="-3.31435">
        <ele>246.4</ele>
        <time>2024-11-20T10:57:54Z</time>
      </trkpt>
      <trkpt lat="48.14376" lon="-3.31435">
        <ele>246.4</ele>
        <time>2024-11-20T10:57:55Z</time>
      </trkpt>
      <trkpt lat="48.14376" lon="-3.31435">
        <ele>246.4</ele>
        <time>2024-11-20T10:57:56Z</time>
      </trkpt>
      <trkpt lat="48.14376" lon="-3.31435">
        <ele>246.4</ele>
        <time>2024-11-20T10:57:57Z</time>
      </trkpt>
      <trkpt lat="48.14376" lon="-3.31435">
        <ele>246.3</ele>
        <time>2024-11-20T10:57:58Z</time>
      </trkpt>
      <trkpt lat="48.14376" lon="-3.31435">
        <ele>246.3</ele>
        <time>2024-11-20T10:57:59Z</time>
      </trkpt>
      <trkpt lat="48.14376" lon="-3.31435">
        <ele>246.2</ele>
        <time>2024-11-20T10:58:00Z</time>
      </trkpt>
      <trkpt lat="48.14376" lon="-3.31435">
        <ele>246.2</ele>
        <time>2024-11-20T10:58:01Z</time>
      </trkpt>
      <trkpt lat="48.14377" lon="-3.31435">
        <ele>246.2</ele>
        <time>2024-11-20T10:58:02Z</time>
      </trkpt>
      <trkpt lat="48.14377" lon="-3.31435">
        <ele>246.2</ele>
        <time>2024-11-20T10:58:03Z</time>
      </trkpt>
      <trkpt lat="48.14377" lon="-3.31435">
        <ele>246.2</ele>
        <time>2024-11-20T10:58:04Z</time>
      </trkpt>
      <trkpt lat="48.14377" lon="-3.31435">
        <ele>246.2</ele>
        <time>2024-11-20T10:58:05Z</time>
      </trkpt>
      <trkpt lat="48.14377" lon="-3.31435">
        <ele>246.2</ele>
        <time>2024-11-20T10:58:06Z</time>
      </trkpt>
      <trkpt lat="48.14377" lon="-3.31435">
        <ele>246.2</ele>
        <time>2024-11-20T10:58:07Z</time>
      </trkpt>
      <trkpt lat="48.14377" lon="-3.31434">
        <ele>246.2</ele>
        <time>2024-11-20T10:58:08Z</time>
      </trkpt>
      <trkpt lat="48.14377" lon="-3.31434">
        <ele>246.2</ele>
        <time>2024-11-20T10:58:09Z</time>
      </trkpt>
      <trkpt lat="48.14377" lon="-3.31434">
        <ele>246.1</ele>
        <time>2024-11-20T10:58:10Z</time>
      </trkpt>
      <trkpt lat="48.14377" lon="-3.31434">
        <ele>246.1</ele>
        <time>2024-11-20T10:58:11Z</time>
      </trkpt>
      <trkpt lat="48.14377" lon="-3.31434">
        <ele>246.1</ele>
        <time>2024-11-20T10:58:12Z</time>
      </trkpt>
      <trkpt lat="48.14377" lon="-3.31434">
        <ele>246.1</ele>
        <time>2024-11-20T10:58:13Z</time>
      </trkpt>
      <trkpt lat="48.14377" lon="-3.31434">
        <ele>246.1</ele>
        <time>2024-11-20T10:58:14Z</time>
      </trkpt>
      <trkpt lat="48.14378" lon="-3.31435">
        <ele>246.1</ele>
        <time>2024-11-20T10:58:15Z</time>
      </trkpt>
      <trkpt lat="48.14378" lon="-3.31436">
        <ele>245.9</ele>
        <time>2024-11-20T10:58:16Z</time>
      </trkpt>
      <trkpt lat="48.14379" lon="-3.31438">
        <ele>245.7</ele>
        <time>2024-11-20T10:58:17Z</time>
      </trkpt>
      <trkpt lat="48.14381" lon="-3.31439">
        <ele>245.5</ele>
        <time>2024-11-20T10:58:18Z</time>
      </trkpt>
      <trkpt lat="48.14381" lon="-3.3144">
        <ele>245.4</ele>
        <time>2024-11-20T10:58:19Z</time>
      </trkpt>
      <trkpt lat="48.14382" lon="-3.3144">
        <ele>245.3</ele>
        <time>2024-11-20T10:58:20Z</time>
      </trkpt>
      <trkpt lat="48.14382" lon="-3.3144">
        <ele>245.3</ele>
        <time>2024-11-20T10:58:21Z</time>
      </trkpt>
      <trkpt lat="48.14382" lon="-3.3144">
        <ele>245.2</ele>
        <time>2024-11-20T10:58:22Z</time>
      </trkpt>
      <trkpt lat="48.14382" lon="-3.31441">
        <ele>245.2</ele>
        <time>2024-11-20T10:58:23Z</time>
      </trkpt>
      <trkpt lat="48.14382" lon="-3.31441">
        <ele>245.2</ele>
        <time>2024-11-20T10:58:24Z</time>
      </trkpt>
      <trkpt lat="48.14382" lon="-3.31441">
        <ele>245.2</ele>
        <time>2024-11-20T10:58:25Z</time>
      </trkpt>
      <trkpt lat="48.14382" lon="-3.31442">
        <ele>245.2</ele>
        <time>2024-11-20T10:58:26Z</time>
      </trkpt>
      <trkpt lat="48.14382" lon="-3.31442">
        <ele>245.2</ele>
        <time>2024-11-20T10:58:27Z</time>
      </trkpt>
      <trkpt lat="48.14382" lon="-3.31442">
        <ele>245.2</ele>
        <time>2024-11-20T10:58:28Z</time>
      </trkpt>
      <trkpt lat="48.14382" lon="-3.31443">
        <ele>245.2</ele>
        <time>2024-11-20T10:58:29Z</time>
      </trkpt>
      <trkpt lat="48.14383" lon="-3.31444">
        <ele>245.1</ele>
        <time>2024-11-20T10:58:30Z</time>
      </trkpt>
      <trkpt lat="48.14384" lon="-3.31445">
        <ele>244.9</ele>
        <time>2024-11-20T10:58:31Z</time>
      </trkpt>
      <trkpt lat="48.14385" lon="-3.31446">
        <ele>244.8</ele>
        <time>2024-11-20T10:58:32Z</time>
      </trkpt>
      <trkpt lat="48.14386" lon="-3.31447">
        <ele>244.6</ele>
        <time>2024-11-20T10:58:33Z</time>
      </trkpt>
      <trkpt lat="48.14387" lon="-3.31448">
        <ele>244.4</ele>
        <time>2024-11-20T10:58:34Z</time>
      </trkpt>
      <trkpt lat="48.14387" lon="-3.31451">
        <ele>244.4</ele>
        <time>2024-11-20T10:58:35Z</time>
      </trkpt>
      <trkpt lat="48.14387" lon="-3.31452">
        <ele>244.4</ele>
        <time>2024-11-20T10:58:36Z</time>
      </trkpt>
      <trkpt lat="48.14388" lon="-3.31453">
        <ele>244.2</ele>
        <time>2024-11-20T10:58:37Z</time>
      </trkpt>
      <trkpt lat="48.14389" lon="-3.31453">
        <ele>244</ele>
        <time>2024-11-20T10:58:38Z</time>
      </trkpt>
      <trkpt lat="48.1439" lon="-3.31454">
        <ele>244</ele>
        <time>2024-11-20T10:58:39Z</time>
      </trkpt>
      <trkpt lat="48.14391" lon="-3.31455">
        <ele>244</ele>
        <time>2024-11-20T10:58:40Z</time>
      </trkpt>
      <trkpt lat="48.14392" lon="-3.31455">
        <ele>243.9</ele>
        <time>2024-11-20T10:58:41Z</time>
      </trkpt>
      <trkpt lat="48.14393" lon="-3.31456">
        <ele>243.9</ele>
        <time>2024-11-20T10:58:42Z</time>
      </trkpt>
      <trkpt lat="48.14394" lon="-3.31457">
        <ele>243.9</ele>
        <time>2024-11-20T10:58:43Z</time>
      </trkpt>
      <trkpt lat="48.14396" lon="-3.31458">
        <ele>243.9</ele>
        <time>2024-11-20T10:58:44Z</time>
      </trkpt>
      <trkpt lat="48.14397" lon="-3.31458">
        <ele>243.8</ele>
        <time>2024-11-20T10:58:45Z</time>
      </trkpt>
      <trkpt lat="48.14399" lon="-3.31458">
        <ele>243.8</ele>
        <time>2024-11-20T10:58:46Z</time>
      </trkpt>
      <trkpt lat="48.14401" lon="-3.31459">
        <ele>243.8</ele>
        <time>2024-11-20T10:58:47Z</time>
      </trkpt>
      <trkpt lat="48.14402" lon="-3.31459">
        <ele>243.8</ele>
        <time>2024-11-20T10:58:48Z</time>
      </trkpt>
      <trkpt lat="48.14404" lon="-3.31459">
        <ele>243.8</ele>
        <time>2024-11-20T10:58:49Z</time>
      </trkpt>
      <trkpt lat="48.14404" lon="-3.3146">
        <ele>243.7</ele>
        <time>2024-11-20T10:58:50Z</time>
      </trkpt>
      <trkpt lat="48.14405" lon="-3.3146">
        <ele>243.8</ele>
        <time>2024-11-20T10:58:51Z</time>
      </trkpt>
      <trkpt lat="48.14405" lon="-3.31462">
        <ele>243.8</ele>
        <time>2024-11-20T10:58:52Z</time>
      </trkpt>
      <trkpt lat="48.14405" lon="-3.31463">
        <ele>243.8</ele>
        <time>2024-11-20T10:58:53Z</time>
      </trkpt>
      <trkpt lat="48.14406" lon="-3.31463">
        <ele>243.8</ele>
        <time>2024-11-20T10:58:54Z</time>
      </trkpt>
      <trkpt lat="48.14406" lon="-3.31464">
        <ele>243.8</ele>
        <time>2024-11-20T10:58:55Z</time>
      </trkpt>
      <trkpt lat="48.14406" lon="-3.31465">
        <ele>243.8</ele>
        <time>2024-11-20T10:58:56Z</time>
      </trkpt>
      <trkpt lat="48.14406" lon="-3.31465">
        <ele>243.8</ele>
        <time>2024-11-20T10:58:57Z</time>
      </trkpt>
      <trkpt lat="48.14408" lon="-3.31466">
        <ele>243.8</ele>
        <time>2024-11-20T10:58:58Z</time>
      </trkpt>
      <trkpt lat="48.14409" lon="-3.31467">
        <ele>243.9</ele>
        <time>2024-11-20T10:58:59Z</time>
      </trkpt>
      <trkpt lat="48.1441" lon="-3.31467">
        <ele>243.9</ele>
        <time>2024-11-20T10:59:00Z</time>
      </trkpt>
      <trkpt lat="48.14411" lon="-3.31468">
        <ele>243.9</ele>
        <time>2024-11-20T10:59:01Z</time>
      </trkpt>
      <trkpt lat="48.14412" lon="-3.31469">
        <ele>243.9</ele>
        <time>2024-11-20T10:59:02Z</time>
      </trkpt>
      <trkpt lat="48.14412" lon="-3.31469">
        <ele>243.9</ele>
        <time>2024-11-20T10:59:03Z</time>
      </trkpt>
      <trkpt lat="48.14412" lon="-3.31469">
        <ele>243.9</ele>
        <time>2024-11-20T10:59:04Z</time>
      </trkpt>
      <trkpt lat="48.14413" lon="-3.31469">
        <ele>243.9</ele>
        <time>2024-11-20T10:59:05Z</time>
      </trkpt>
      <trkpt lat="48.14413" lon="-3.3147">
        <ele>243.9</ele>
        <time>2024-11-20T10:59:06Z</time>
      </trkpt>
      <trkpt lat="48.14414" lon="-3.3147">
        <ele>243.9</ele>
        <time>2024-11-20T10:59:07Z</time>
      </trkpt>
      <trkpt lat="48.14415" lon="-3.31471">
        <ele>243.9</ele>
        <time>2024-11-20T10:59:08Z</time>
      </trkpt>
      <trkpt lat="48.14416" lon="-3.31471">
        <ele>244</ele>
        <time>2024-11-20T10:59:09Z</time>
      </trkpt>
      <trkpt lat="48.14417" lon="-3.31472">
        <ele>244</ele>
        <time>2024-11-20T10:59:10Z</time>
      </trkpt>
      <trkpt lat="48.14418" lon="-3.31473">
        <ele>244</ele>
        <time>2024-11-20T10:59:11Z</time>
      </trkpt>
      <trkpt lat="48.14419" lon="-3.31475">
        <ele>244.1</ele>
        <time>2024-11-20T10:59:12Z</time>
      </trkpt>
      <trkpt lat="48.14421" lon="-3.31476">
        <ele>244.1</ele>
        <time>2024-11-20T10:59:13Z</time>
      </trkpt>
      <trkpt lat="48.14422" lon="-3.31478">
        <ele>244.2</ele>
        <time>2024-11-20T10:59:14Z</time>
      </trkpt>
      <trkpt lat="48.14424" lon="-3.31481">
        <ele>244.3</ele>
        <time>2024-11-20T10:59:15Z</time>
      </trkpt>
      <trkpt lat="48.14425" lon="-3.31483">
        <ele>244.4</ele>
        <time>2024-11-20T10:59:16Z</time>
      </trkpt>
      <trkpt lat="48.14426" lon="-3.31484">
        <ele>244.4</ele>
        <time>2024-11-20T10:59:17Z</time>
      </trkpt>
      <trkpt lat="48.14427" lon="-3.31484">
        <ele>244.4</ele>
        <time>2024-11-20T10:59:18Z</time>
      </trkpt>
      <trkpt lat="48.14427" lon="-3.31485">
        <ele>244.5</ele>
        <time>2024-11-20T10:59:19Z</time>
      </trkpt>
      <trkpt lat="48.14428" lon="-3.31485">
        <ele>244.5</ele>
        <time>2024-11-20T10:59:20Z</time>
      </trkpt>
      <trkpt lat="48.14429" lon="-3.31485">
        <ele>244.4</ele>
        <time>2024-11-20T10:59:21Z</time>
      </trkpt>
      <trkpt lat="48.1443" lon="-3.31485">
        <ele>244.4</ele>
        <time>2024-11-20T10:59:22Z</time>
      </trkpt>
      <trkpt lat="48.14431" lon="-3.31485">
        <ele>244.5</ele>
        <time>2024-11-20T10:59:23Z</time>
      </trkpt>
      <trkpt lat="48.14432" lon="-3.31487">
        <ele>244.5</ele>
        <time>2024-11-20T10:59:24Z</time>
      </trkpt>
      <trkpt lat="48.14434" lon="-3.31488">
        <ele>244.6</ele>
        <time>2024-11-20T10:59:25Z</time>
      </trkpt>
      <trkpt lat="48.14435" lon="-3.31489">
        <ele>244.6</ele>
        <time>2024-11-20T10:59:26Z</time>
      </trkpt>
      <trkpt lat="48.14436" lon="-3.3149">
        <ele>244.6</ele>
        <time>2024-11-20T10:59:27Z</time>
      </trkpt>
      <trkpt lat="48.14436" lon="-3.3149">
        <ele>244.6</ele>
        <time>2024-11-20T10:59:28Z</time>
      </trkpt>
      <trkpt lat="48.14437" lon="-3.3149">
        <ele>244.6</ele>
        <time>2024-11-20T10:59:29Z</time>
      </trkpt>
      <trkpt lat="48.14438" lon="-3.3149">
        <ele>244.6</ele>
        <time>2024-11-20T10:59:30Z</time>
      </trkpt>
      <trkpt lat="48.14438" lon="-3.3149">
        <ele>244.6</ele>
        <time>2024-11-20T10:59:31Z</time>
      </trkpt>
      <trkpt lat="48.14441" lon="-3.3149">
        <ele>244.6</ele>
        <time>2024-11-20T10:59:32Z</time>
      </trkpt>
      <trkpt lat="48.14442" lon="-3.3149">
        <ele>244.6</ele>
        <time>2024-11-20T10:59:33Z</time>
      </trkpt>
      <trkpt lat="48.14443" lon="-3.3149">
        <ele>244.6</ele>
        <time>2024-11-20T10:59:34Z</time>
      </trkpt>
      <trkpt lat="48.14443" lon="-3.31491">
        <ele>244.7</ele>
        <time>2024-11-20T10:59:35Z</time>
      </trkpt>
      <trkpt lat="48.14444" lon="-3.31491">
        <ele>244.7</ele>
        <time>2024-11-20T10:59:36Z</time>
      </trkpt>
      <trkpt lat="48.14445" lon="-3.31491">
        <ele>244.7</ele>
        <time>2024-11-20T10:59:37Z</time>
      </trkpt>
      <trkpt lat="48.14446" lon="-3.31492">
        <ele>244.7</ele>
        <time>2024-11-20T10:59:38Z</time>
      </trkpt>
      <trkpt lat="48.14446" lon="-3.31492">
        <ele>244.7</ele>
        <time>2024-11-20T10:59:39Z</time>
      </trkpt>
      <trkpt lat="48.14447" lon="-3.31493">
        <ele>244.7</ele>
        <time>2024-11-20T10:59:40Z</time>
      </trkpt>
      <trkpt lat="48.14448" lon="-3.31493">
        <ele>244.8</ele>
        <time>2024-11-20T10:59:41Z</time>
      </trkpt>
      <trkpt lat="48.1445" lon="-3.31493">
        <ele>244.8</ele>
        <time>2024-11-20T10:59:42Z</time>
      </trkpt>
      <trkpt lat="48.14451" lon="-3.31494">
        <ele>244.8</ele>
        <time>2024-11-20T10:59:43Z</time>
      </trkpt>
      <trkpt lat="48.14451" lon="-3.31494">
        <ele>244.8</ele>
        <time>2024-11-20T10:59:44Z</time>
      </trkpt>
      <trkpt lat="48.14452" lon="-3.31495">
        <ele>244.8</ele>
        <time>2024-11-20T10:59:45Z</time>
      </trkpt>
      <trkpt lat="48.14453" lon="-3.31495">
        <ele>244.8</ele>
        <time>2024-11-20T10:59:46Z</time>
      </trkpt>
      <trkpt lat="48.14453" lon="-3.31495">
        <ele>244.8</ele>
        <time>2024-11-20T10:59:47Z</time>
      </trkpt>
      <trkpt lat="48.14454" lon="-3.31495">
        <ele>244.8</ele>
        <time>2024-11-20T10:59:48Z</time>
      </trkpt>
      <trkpt lat="48.14455" lon="-3.31495">
        <ele>244.8</ele>
        <time>2024-11-20T10:59:49Z</time>
      </trkpt>
      <trkpt lat="48.14455" lon="-3.31495">
        <ele>244.8</ele>
        <time>2024-11-20T10:59:50Z</time>
      </trkpt>
      <trkpt lat="48.14456" lon="-3.31496">
        <ele>244.8</ele>
        <time>2024-11-20T10:59:51Z</time>
      </trkpt>
      <trkpt lat="48.14457" lon="-3.31496">
        <ele>244.9</ele>
        <time>2024-11-20T10:59:52Z</time>
      </trkpt>
      <trkpt lat="48.14458" lon="-3.31496">
        <ele>244.9</ele>
        <time>2024-11-20T10:59:53Z</time>
      </trkpt>
      <trkpt lat="48.14459" lon="-3.31496">
        <ele>244.9</ele>
        <time>2024-11-20T10:59:54Z</time>
      </trkpt>
      <trkpt lat="48.1446" lon="-3.31497">
        <ele>244.9</ele>
        <time>2024-11-20T10:59:55Z</time>
      </trkpt>
      <trkpt lat="48.14461" lon="-3.31498">
        <ele>244.9</ele>
        <time>2024-11-20T10:59:56Z</time>
      </trkpt>
      <trkpt lat="48.14463" lon="-3.31499">
        <ele>245</ele>
        <time>2024-11-20T10:59:57Z</time>
      </trkpt>
      <trkpt lat="48.14464" lon="-3.315">
        <ele>245</ele>
        <time>2024-11-20T10:59:58Z</time>
      </trkpt>
      <trkpt lat="48.14465" lon="-3.31501">
        <ele>245</ele>
        <time>2024-11-20T10:59:59Z</time>
      </trkpt>
      <trkpt lat="48.14466" lon="-3.31502">
        <ele>245.1</ele>
        <time>2024-11-20T11:00:00Z</time>
      </trkpt>
      <trkpt lat="48.14467" lon="-3.31502">
        <ele>245.1</ele>
        <time>2024-11-20T11:00:01Z</time>
      </trkpt>
      <trkpt lat="48.1447" lon="-3.31503">
        <ele>245.1</ele>
        <time>2024-11-20T11:00:02Z</time>
      </trkpt>
      <trkpt lat="48.14471" lon="-3.31503">
        <ele>245.1</ele>
        <time>2024-11-20T11:00:03Z</time>
      </trkpt>
      <trkpt lat="48.14472" lon="-3.31504">
        <ele>245.1</ele>
        <time>2024-11-20T11:00:04Z</time>
      </trkpt>
      <trkpt lat="48.14473" lon="-3.31504">
        <ele>245.1</ele>
        <time>2024-11-20T11:00:05Z</time>
      </trkpt>
      <trkpt lat="48.14474" lon="-3.31504">
        <ele>245.2</ele>
        <time>2024-11-20T11:00:06Z</time>
      </trkpt>
      <trkpt lat="48.14475" lon="-3.31505">
        <ele>245.2</ele>
        <time>2024-11-20T11:00:07Z</time>
      </trkpt>
      <trkpt lat="48.14475" lon="-3.31505">
        <ele>245.2</ele>
        <time>2024-11-20T11:00:08Z</time>
      </trkpt>
      <trkpt lat="48.14476" lon="-3.31505">
        <ele>245.2</ele>
        <time>2024-11-20T11:00:09Z</time>
      </trkpt>
      <trkpt lat="48.14477" lon="-3.31506">
        <ele>245.2</ele>
        <time>2024-11-20T11:00:10Z</time>
      </trkpt>
      <trkpt lat="48.14478" lon="-3.31506">
        <ele>245.2</ele>
        <time>2024-11-20T11:00:11Z</time>
      </trkpt>
      <trkpt lat="48.14478" lon="-3.31506">
        <ele>245.2</ele>
        <time>2024-11-20T11:00:12Z</time>
      </trkpt>
      <trkpt lat="48.14479" lon="-3.31506">
        <ele>245.2</ele>
        <time>2024-11-20T11:00:13Z</time>
      </trkpt>
      <trkpt lat="48.14479" lon="-3.31507">
        <ele>245.3</ele>
        <time>2024-11-20T11:00:14Z</time>
      </trkpt>
      <trkpt lat="48.1448" lon="-3.31508">
        <ele>245.3</ele>
        <time>2024-11-20T11:00:15Z</time>
      </trkpt>
      <trkpt lat="48.14481" lon="-3.31508">
        <ele>245.3</ele>
        <time>2024-11-20T11:00:16Z</time>
      </trkpt>
      <trkpt lat="48.14482" lon="-3.31508">
        <ele>245.3</ele>
        <time>2024-11-20T11:00:17Z</time>
      </trkpt>
      <trkpt lat="48.14482" lon="-3.31508">
        <ele>245.3</ele>
        <time>2024-11-20T11:00:18Z</time>
      </trkpt>
      <trkpt lat="48.14484" lon="-3.31509">
        <ele>245.3</ele>
        <time>2024-11-20T11:00:19Z</time>
      </trkpt>
      <trkpt lat="48.14486" lon="-3.31511">
        <ele>245.4</ele>
        <time>2024-11-20T11:00:20Z</time>
      </trkpt>
      <trkpt lat="48.14487" lon="-3.31511">
        <ele>245.4</ele>
        <time>2024-11-20T11:00:21Z</time>
      </trkpt>
      <trkpt lat="48.14487" lon="-3.31512">
        <ele>245.4</ele>
        <time>2024-11-20T11:00:22Z</time>
      </trkpt>
      <trkpt lat="48.14488" lon="-3.31512">
        <ele>245.4</ele>
        <time>2024-11-20T11:00:23Z</time>
      </trkpt>
      <trkpt lat="48.14489" lon="-3.31511">
        <ele>245.4</ele>
        <time>2024-11-20T11:00:24Z</time>
      </trkpt>
      <trkpt lat="48.1449" lon="-3.31511">
        <ele>245.4</ele>
        <time>2024-11-20T11:00:25Z</time>
      </trkpt>
      <trkpt lat="48.14491" lon="-3.31512">
        <ele>245.4</ele>
        <time>2024-11-20T11:00:26Z</time>
      </trkpt>
      <trkpt lat="48.14492" lon="-3.31512">
        <ele>245.4</ele>
        <time>2024-11-20T11:00:27Z</time>
      </trkpt>
      <trkpt lat="48.14494" lon="-3.31513">
        <ele>245.5</ele>
        <time>2024-11-20T11:00:28Z</time>
      </trkpt>
      <trkpt lat="48.14495" lon="-3.31513">
        <ele>245.5</ele>
        <time>2024-11-20T11:00:29Z</time>
      </trkpt>
      <trkpt lat="48.14496" lon="-3.31514">
        <ele>245.5</ele>
        <time>2024-11-20T11:00:30Z</time>
      </trkpt>
      <trkpt lat="48.14497" lon="-3.31515">
        <ele>245.5</ele>
        <time>2024-11-20T11:00:31Z</time>
      </trkpt>
      <trkpt lat="48.14498" lon="-3.31515">
        <ele>245.6</ele>
        <time>2024-11-20T11:00:32Z</time>
      </trkpt>
      <trkpt lat="48.14499" lon="-3.31516">
        <ele>245.6</ele>
        <time>2024-11-20T11:00:33Z</time>
      </trkpt>
      <trkpt lat="48.14502" lon="-3.31518">
        <ele>245.6</ele>
        <time>2024-11-20T11:00:34Z</time>
      </trkpt>
      <trkpt lat="48.14503" lon="-3.31519">
        <ele>245.7</ele>
        <time>2024-11-20T11:00:35Z</time>
      </trkpt>
      <trkpt lat="48.14504" lon="-3.3152">
        <ele>245.7</ele>
        <time>2024-11-20T11:00:36Z</time>
      </trkpt>
      <trkpt lat="48.14505" lon="-3.3152">
        <ele>245.7</ele>
        <time>2024-11-20T11:00:37Z</time>
      </trkpt>
      <trkpt lat="48.14506" lon="-3.31521">
        <ele>245.7</ele>
        <time>2024-11-20T11:00:38Z</time>
      </trkpt>
      <trkpt lat="48.14506" lon="-3.31521">
        <ele>245.7</ele>
        <time>2024-11-20T11:00:39Z</time>
      </trkpt>
      <trkpt lat="48.14507" lon="-3.31521">
        <ele>245.8</ele>
        <time>2024-11-20T11:00:40Z</time>
      </trkpt>
      <trkpt lat="48.14508" lon="-3.31522">
        <ele>245.8</ele>
        <time>2024-11-20T11:00:41Z</time>
      </trkpt>
      <trkpt lat="48.14509" lon="-3.31522">
        <ele>245.8</ele>
        <time>2024-11-20T11:00:42Z</time>
      </trkpt>
      <trkpt lat="48.14509" lon="-3.31523">
        <ele>245.8</ele>
        <time>2024-11-20T11:00:43Z</time>
      </trkpt>
      <trkpt lat="48.1451" lon="-3.31523">
        <ele>245.8</ele>
        <time>2024-11-20T11:00:44Z</time>
      </trkpt>
      <trkpt lat="48.14511" lon="-3.31523">
        <ele>245.8</ele>
        <time>2024-11-20T11:00:45Z</time>
      </trkpt>
      <trkpt lat="48.14512" lon="-3.31524">
        <ele>245.8</ele>
        <time>2024-11-20T11:00:46Z</time>
      </trkpt>
      <trkpt lat="48.14514" lon="-3.31524">
        <ele>245.9</ele>
        <time>2024-11-20T11:00:47Z</time>
      </trkpt>
      <trkpt lat="48.14515" lon="-3.31525">
        <ele>245.9</ele>
        <time>2024-11-20T11:00:48Z</time>
      </trkpt>
      <trkpt lat="48.14516" lon="-3.31526">
        <ele>245.9</ele>
        <time>2024-11-20T11:00:49Z</time>
      </trkpt>
      <trkpt lat="48.14517" lon="-3.31527">
        <ele>246</ele>
        <time>2024-11-20T11:00:50Z</time>
      </trkpt>
      <trkpt lat="48.14517" lon="-3.31527">
        <ele>246</ele>
        <time>2024-11-20T11:00:51Z</time>
      </trkpt>
      <trkpt lat="48.14518" lon="-3.31527">
        <ele>246</ele>
        <time>2024-11-20T11:00:52Z</time>
      </trkpt>
      <trkpt lat="48.14519" lon="-3.31528">
        <ele>246</ele>
        <time>2024-11-20T11:00:53Z</time>
      </trkpt>
      <trkpt lat="48.14521" lon="-3.31529">
        <ele>246</ele>
        <time>2024-11-20T11:00:54Z</time>
      </trkpt>
      <trkpt lat="48.14522" lon="-3.31531">
        <ele>246.1</ele>
        <time>2024-11-20T11:00:55Z</time>
      </trkpt>
      <trkpt lat="48.14524" lon="-3.31533">
        <ele>246.2</ele>
        <time>2024-11-20T11:00:56Z</time>
      </trkpt>
      <trkpt lat="48.14526" lon="-3.31535">
        <ele>246.2</ele>
        <time>2024-11-20T11:00:57Z</time>
      </trkpt>
      <trkpt lat="48.14528" lon="-3.31537">
        <ele>246.3</ele>
        <time>2024-11-20T11:00:58Z</time>
      </trkpt>
      <trkpt lat="48.1453" lon="-3.31538">
        <ele>246.4</ele>
        <time>2024-11-20T11:00:59Z</time>
      </trkpt>
      <trkpt lat="48.14531" lon="-3.31539">
        <ele>246.4</ele>
        <time>2024-11-20T11:01:00Z</time>
      </trkpt>
      <trkpt lat="48.14532" lon="-3.3154">
        <ele>246.4</ele>
        <time>2024-11-20T11:01:01Z</time>
      </trkpt>
      <trkpt lat="48.14533" lon="-3.3154">
        <ele>246.4</ele>
        <time>2024-11-20T11:01:02Z</time>
      </trkpt>
      <trkpt lat="48.14536" lon="-3.31541">
        <ele>246.5</ele>
        <time>2024-11-20T11:01:03Z</time>
      </trkpt>
      <trkpt lat="48.14537" lon="-3.31541">
        <ele>246.5</ele>
        <time>2024-11-20T11:01:04Z</time>
      </trkpt>
      <trkpt lat="48.14538" lon="-3.31542">
        <ele>246.5</ele>
        <time>2024-11-20T11:01:05Z</time>
      </trkpt>
      <trkpt lat="48.14539" lon="-3.31542">
        <ele>246.5</ele>
        <time>2024-11-20T11:01:06Z</time>
      </trkpt>
      <trkpt lat="48.1454" lon="-3.31542">
        <ele>246.5</ele>
        <time>2024-11-20T11:01:07Z</time>
      </trkpt>
      <trkpt lat="48.1454" lon="-3.31542">
        <ele>246.5</ele>
        <time>2024-11-20T11:01:08Z</time>
      </trkpt>
      <trkpt lat="48.14541" lon="-3.31543">
        <ele>246.5</ele>
        <time>2024-11-20T11:01:09Z</time>
      </trkpt>
      <trkpt lat="48.14541" lon="-3.31543">
        <ele>246.6</ele>
        <time>2024-11-20T11:01:10Z</time>
      </trkpt>
      <trkpt lat="48.14542" lon="-3.31544">
        <ele>246.6</ele>
        <time>2024-11-20T11:01:11Z</time>
      </trkpt>
      <trkpt lat="48.14543" lon="-3.31544">
        <ele>246.6</ele>
        <time>2024-11-20T11:01:12Z</time>
      </trkpt>
      <trkpt lat="48.14544" lon="-3.31544">
        <ele>246.6</ele>
        <time>2024-11-20T11:01:13Z</time>
      </trkpt>
      <trkpt lat="48.14545" lon="-3.31546">
        <ele>246.7</ele>
        <time>2024-11-20T11:01:14Z</time>
      </trkpt>
      <trkpt lat="48.14546" lon="-3.31546">
        <ele>246.7</ele>
        <time>2024-11-20T11:01:15Z</time>
      </trkpt>
      <trkpt lat="48.14547" lon="-3.31547">
        <ele>246.7</ele>
        <time>2024-11-20T11:01:16Z</time>
      </trkpt>
      <trkpt lat="48.14548" lon="-3.31547">
        <ele>246.7</ele>
        <time>2024-11-20T11:01:17Z</time>
      </trkpt>
      <trkpt lat="48.14548" lon="-3.31547">
        <ele>246.7</ele>
        <time>2024-11-20T11:01:18Z</time>
      </trkpt>
      <trkpt lat="48.14549" lon="-3.31547">
        <ele>246.7</ele>
        <time>2024-11-20T11:01:19Z</time>
      </trkpt>
      <trkpt lat="48.14551" lon="-3.31548">
        <ele>246.7</ele>
        <time>2024-11-20T11:01:20Z</time>
      </trkpt>
      <trkpt lat="48.14552" lon="-3.31549">
        <ele>246.7</ele>
        <time>2024-11-20T11:01:21Z</time>
      </trkpt>
      <trkpt lat="48.14554" lon="-3.3155">
        <ele>246.8</ele>
        <time>2024-11-20T11:01:22Z</time>
      </trkpt>
      <trkpt lat="48.14555" lon="-3.31552">
        <ele>246.9</ele>
        <time>2024-11-20T11:01:23Z</time>
      </trkpt>
      <trkpt lat="48.14557" lon="-3.31553">
        <ele>246.9</ele>
        <time>2024-11-20T11:01:24Z</time>
      </trkpt>
      <trkpt lat="48.14559" lon="-3.31554">
        <ele>247</ele>
        <time>2024-11-20T11:01:25Z</time>
      </trkpt>
      <trkpt lat="48.1456" lon="-3.31555">
        <ele>247</ele>
        <time>2024-11-20T11:01:26Z</time>
      </trkpt>
      <trkpt lat="48.14562" lon="-3.31555">
        <ele>247</ele>
        <time>2024-11-20T11:01:27Z</time>
      </trkpt>
      <trkpt lat="48.14563" lon="-3.31556">
        <ele>247</ele>
        <time>2024-11-20T11:01:28Z</time>
      </trkpt>
      <trkpt lat="48.14565" lon="-3.31557">
        <ele>247.1</ele>
        <time>2024-11-20T11:01:29Z</time>
      </trkpt>
      <trkpt lat="48.14566" lon="-3.31558">
        <ele>247.2</ele>
        <time>2024-11-20T11:01:30Z</time>
      </trkpt>
      <trkpt lat="48.14568" lon="-3.31559">
        <ele>247.3</ele>
        <time>2024-11-20T11:01:31Z</time>
      </trkpt>
      <trkpt lat="48.14569" lon="-3.31561">
        <ele>247.4</ele>
        <time>2024-11-20T11:01:32Z</time>
      </trkpt>
      <trkpt lat="48.1457" lon="-3.31562">
        <ele>247.4</ele>
        <time>2024-11-20T11:01:33Z</time>
      </trkpt>
      <trkpt lat="48.14572" lon="-3.31563">
        <ele>247.5</ele>
        <time>2024-11-20T11:01:34Z</time>
      </trkpt>
      <trkpt lat="48.14572" lon="-3.31563">
        <ele>247.6</ele>
        <time>2024-11-20T11:01:35Z</time>
      </trkpt>
      <trkpt lat="48.14574" lon="-3.31564">
        <ele>247.6</ele>
        <time>2024-11-20T11:01:36Z</time>
      </trkpt>
      <trkpt lat="48.14575" lon="-3.31565">
        <ele>247.7</ele>
        <time>2024-11-20T11:01:37Z</time>
      </trkpt>
      <trkpt lat="48.14576" lon="-3.31565">
        <ele>247.7</ele>
        <time>2024-11-20T11:01:38Z</time>
      </trkpt>
      <trkpt lat="48.14578" lon="-3.31566">
        <ele>247.8</ele>
        <time>2024-11-20T11:01:39Z</time>
      </trkpt>
      <trkpt lat="48.14579" lon="-3.31567">
        <ele>247.8</ele>
        <time>2024-11-20T11:01:40Z</time>
      </trkpt>
      <trkpt lat="48.1458" lon="-3.31567">
        <ele>247.9</ele>
        <time>2024-11-20T11:01:41Z</time>
      </trkpt>
      <trkpt lat="48.14581" lon="-3.31568">
        <ele>247.9</ele>
        <time>2024-11-20T11:01:42Z</time>
      </trkpt>
      <trkpt lat="48.14583" lon="-3.31569">
        <ele>248</ele>
        <time>2024-11-20T11:01:43Z</time>
      </trkpt>
      <trkpt lat="48.14584" lon="-3.3157">
        <ele>248.1</ele>
        <time>2024-11-20T11:01:44Z</time>
      </trkpt>
      <trkpt lat="48.14586" lon="-3.31572">
        <ele>248.2</ele>
        <time>2024-11-20T11:01:45Z</time>
      </trkpt>
      <trkpt lat="48.14588" lon="-3.31574">
        <ele>248.3</ele>
        <time>2024-11-20T11:01:46Z</time>
      </trkpt>
      <trkpt lat="48.14588" lon="-3.31574">
        <ele>248.3</ele>
        <time>2024-11-20T11:01:47Z</time>
      </trkpt>
      <trkpt lat="48.14589" lon="-3.31575">
        <ele>248.4</ele>
        <time>2024-11-20T11:01:48Z</time>
      </trkpt>
      <trkpt lat="48.1459" lon="-3.31575">
        <ele>248.4</ele>
        <time>2024-11-20T11:01:49Z</time>
      </trkpt>
      <trkpt lat="48.14591" lon="-3.31575">
        <ele>248.4</ele>
        <time>2024-11-20T11:01:50Z</time>
      </trkpt>
      <trkpt lat="48.14591" lon="-3.31576">
        <ele>248.5</ele>
        <time>2024-11-20T11:01:51Z</time>
      </trkpt>
      <trkpt lat="48.14592" lon="-3.31576">
        <ele>248.5</ele>
        <time>2024-11-20T11:01:52Z</time>
      </trkpt>
      <trkpt lat="48.14593" lon="-3.31576">
        <ele>248.5</ele>
        <time>2024-11-20T11:01:53Z</time>
      </trkpt>
      <trkpt lat="48.14594" lon="-3.31577">
        <ele>248.5</ele>
        <time>2024-11-20T11:01:54Z</time>
      </trkpt>
      <trkpt lat="48.14595" lon="-3.31577">
        <ele>248.6</ele>
        <time>2024-11-20T11:01:55Z</time>
      </trkpt>
      <trkpt lat="48.14595" lon="-3.31578">
        <ele>248.6</ele>
        <time>2024-11-20T11:01:56Z</time>
      </trkpt>
      <trkpt lat="48.14596" lon="-3.31579">
        <ele>248.7</ele>
        <time>2024-11-20T11:01:57Z</time>
      </trkpt>
      <trkpt lat="48.14598" lon="-3.3158">
        <ele>248.8</ele>
        <time>2024-11-20T11:01:58Z</time>
      </trkpt>
      <trkpt lat="48.14599" lon="-3.31582">
        <ele>248.9</ele>
        <time>2024-11-20T11:01:59Z</time>
      </trkpt>
      <trkpt lat="48.14599" lon="-3.31583">
        <ele>249</ele>
        <time>2024-11-20T11:02:00Z</time>
      </trkpt>
      <trkpt lat="48.146" lon="-3.31584">
        <ele>249</ele>
        <time>2024-11-20T11:02:01Z</time>
      </trkpt>
      <trkpt lat="48.14601" lon="-3.31585">
        <ele>249.1</ele>
        <time>2024-11-20T11:02:02Z</time>
      </trkpt>
      <trkpt lat="48.14602" lon="-3.31586">
        <ele>249.1</ele>
        <time>2024-11-20T11:02:03Z</time>
      </trkpt>
      <trkpt lat="48.14603" lon="-3.31587">
        <ele>249.1</ele>
        <time>2024-11-20T11:02:04Z</time>
      </trkpt>
      <trkpt lat="48.14604" lon="-3.31587">
        <ele>249.2</ele>
        <time>2024-11-20T11:02:05Z</time>
      </trkpt>
      <trkpt lat="48.14605" lon="-3.31587">
        <ele>249.2</ele>
        <time>2024-11-20T11:02:06Z</time>
      </trkpt>
      <trkpt lat="48.14605" lon="-3.31587">
        <ele>249.2</ele>
        <time>2024-11-20T11:02:07Z</time>
      </trkpt>
      <trkpt lat="48.14606" lon="-3.31588">
        <ele>249.2</ele>
        <time>2024-11-20T11:02:08Z</time>
      </trkpt>
      <trkpt lat="48.14606" lon="-3.31588">
        <ele>249.2</ele>
        <time>2024-11-20T11:02:09Z</time>
      </trkpt>
      <trkpt lat="48.14607" lon="-3.31588">
        <ele>249.2</ele>
        <time>2024-11-20T11:02:10Z</time>
      </trkpt>
      <trkpt lat="48.14607" lon="-3.31589">
        <ele>249.2</ele>
        <time>2024-11-20T11:02:11Z</time>
      </trkpt>
      <trkpt lat="48.14607" lon="-3.31589">
        <ele>249.2</ele>
        <time>2024-11-20T11:02:12Z</time>
      </trkpt>
      <trkpt lat="48.14608" lon="-3.31589">
        <ele>249.2</ele>
        <time>2024-11-20T11:02:13Z</time>
      </trkpt>
      <trkpt lat="48.14608" lon="-3.31589">
        <ele>249.2</ele>
        <time>2024-11-20T11:02:14Z</time>
      </trkpt>
      <trkpt lat="48.14608" lon="-3.31589">
        <ele>249.2</ele>
        <time>2024-11-20T11:02:15Z</time>
      </trkpt>
      <trkpt lat="48.14608" lon="-3.31589">
        <ele>249.2</ele>
        <time>2024-11-20T11:02:16Z</time>
      </trkpt>
      <trkpt lat="48.14608" lon="-3.31589">
        <ele>249.2</ele>
        <time>2024-11-20T11:02:17Z</time>
      </trkpt>
      <trkpt lat="48.14608" lon="-3.31589">
        <ele>249.2</ele>
        <time>2024-11-20T11:02:18Z</time>
      </trkpt>
      <trkpt lat="48.14609" lon="-3.3159">
        <ele>249.2</ele>
        <time>2024-11-20T11:02:19Z</time>
      </trkpt>
      <trkpt lat="48.1461" lon="-3.3159">
        <ele>249.3</ele>
        <time>2024-11-20T11:02:20Z</time>
      </trkpt>
      <trkpt lat="48.14611" lon="-3.3159">
        <ele>249.3</ele>
        <time>2024-11-20T11:02:21Z</time>
      </trkpt>
      <trkpt lat="48.14612" lon="-3.31591">
        <ele>249.3</ele>
        <time>2024-11-20T11:02:22Z</time>
      </trkpt>
      <trkpt lat="48.14613" lon="-3.31591">
        <ele>249.2</ele>
        <time>2024-11-20T11:02:23Z</time>
      </trkpt>
      <trkpt lat="48.14615" lon="-3.31592">
        <ele>249.2</ele>
        <time>2024-11-20T11:02:24Z</time>
      </trkpt>
      <trkpt lat="48.14616" lon="-3.31592">
        <ele>249.2</ele>
        <time>2024-11-20T11:02:25Z</time>
      </trkpt>
      <trkpt lat="48.14617" lon="-3.31593">
        <ele>249.2</ele>
        <time>2024-11-20T11:02:26Z</time>
      </trkpt>
      <trkpt lat="48.14618" lon="-3.31593">
        <ele>249.2</ele>
        <time>2024-11-20T11:02:27Z</time>
      </trkpt>
      <trkpt lat="48.14618" lon="-3.31593">
        <ele>249.2</ele>
        <time>2024-11-20T11:02:28Z</time>
      </trkpt>
      <trkpt lat="48.14619" lon="-3.31594">
        <ele>249.2</ele>
        <time>2024-11-20T11:02:29Z</time>
      </trkpt>
      <trkpt lat="48.1462" lon="-3.31595">
        <ele>249.2</ele>
        <time>2024-11-20T11:02:30Z</time>
      </trkpt>
      <trkpt lat="48.1462" lon="-3.31596">
        <ele>249.3</ele>
        <time>2024-11-20T11:02:31Z</time>
      </trkpt>
      <trkpt lat="48.14622" lon="-3.31597">
        <ele>249.3</ele>
        <time>2024-11-20T11:02:32Z</time>
      </trkpt>
      <trkpt lat="48.14623" lon="-3.31597">
        <ele>249.3</ele>
        <time>2024-11-20T11:02:33Z</time>
      </trkpt>
      <trkpt lat="48.14624" lon="-3.31598">
        <ele>249.3</ele>
        <time>2024-11-20T11:02:34Z</time>
      </trkpt>
      <trkpt lat="48.14625" lon="-3.31599">
        <ele>249.3</ele>
        <time>2024-11-20T11:02:35Z</time>
      </trkpt>
      <trkpt lat="48.14626" lon="-3.31601">
        <ele>249.4</ele>
        <time>2024-11-20T11:02:36Z</time>
      </trkpt>
      <trkpt lat="48.14627" lon="-3.31603">
        <ele>249.5</ele>
        <time>2024-11-20T11:02:37Z</time>
      </trkpt>
      <trkpt lat="48.14628" lon="-3.31604">
        <ele>249.6</ele>
        <time>2024-11-20T11:02:38Z</time>
      </trkpt>
      <trkpt lat="48.14629" lon="-3.31605">
        <ele>249.6</ele>
        <time>2024-11-20T11:02:39Z</time>
      </trkpt>
      <trkpt lat="48.14631" lon="-3.31606">
        <ele>249.7</ele>
        <time>2024-11-20T11:02:40Z</time>
      </trkpt>
      <trkpt lat="48.14632" lon="-3.31606">
        <ele>249.7</ele>
        <time>2024-11-20T11:02:41Z</time>
      </trkpt>
      <trkpt lat="48.14634" lon="-3.31607">
        <ele>249.7</ele>
        <time>2024-11-20T11:02:42Z</time>
      </trkpt>
      <trkpt lat="48.14635" lon="-3.31607">
        <ele>249.7</ele>
        <time>2024-11-20T11:02:43Z</time>
      </trkpt>
      <trkpt lat="48.14635" lon="-3.31607">
        <ele>249.7</ele>
        <time>2024-11-20T11:02:44Z</time>
      </trkpt>
      <trkpt lat="48.14636" lon="-3.31608">
        <ele>249.8</ele>
        <time>2024-11-20T11:02:45Z</time>
      </trkpt>
      <trkpt lat="48.14637" lon="-3.31608">
        <ele>249.8</ele>
        <time>2024-11-20T11:02:46Z</time>
      </trkpt>
      <trkpt lat="48.14638" lon="-3.31609">
        <ele>249.8</ele>
        <time>2024-11-20T11:02:47Z</time>
      </trkpt>
      <trkpt lat="48.14639" lon="-3.3161">
        <ele>249.9</ele>
        <time>2024-11-20T11:02:48Z</time>
      </trkpt>
      <trkpt lat="48.14641" lon="-3.31611">
        <ele>250</ele>
        <time>2024-11-20T11:02:49Z</time>
      </trkpt>
      <trkpt lat="48.14642" lon="-3.31612">
        <ele>250</ele>
        <time>2024-11-20T11:02:50Z</time>
      </trkpt>
      <trkpt lat="48.14643" lon="-3.31613">
        <ele>250.1</ele>
        <time>2024-11-20T11:02:51Z</time>
      </trkpt>
      <trkpt lat="48.14644" lon="-3.31615">
        <ele>250.2</ele>
        <time>2024-11-20T11:02:52Z</time>
      </trkpt>
      <trkpt lat="48.14646" lon="-3.31616">
        <ele>250.2</ele>
        <time>2024-11-20T11:02:53Z</time>
      </trkpt>
      <trkpt lat="48.14647" lon="-3.31617">
        <ele>250.2</ele>
        <time>2024-11-20T11:02:54Z</time>
      </trkpt>
      <trkpt lat="48.14648" lon="-3.31618">
        <ele>250.2</ele>
        <time>2024-11-20T11:02:55Z</time>
      </trkpt>
      <trkpt lat="48.14648" lon="-3.31618">
        <ele>250.2</ele>
        <time>2024-11-20T11:02:56Z</time>
      </trkpt>
      <trkpt lat="48.14649" lon="-3.31618">
        <ele>250.3</ele>
        <time>2024-11-20T11:02:57Z</time>
      </trkpt>
      <trkpt lat="48.1465" lon="-3.31619">
        <ele>250.3</ele>
        <time>2024-11-20T11:02:58Z</time>
      </trkpt>
      <trkpt lat="48.14651" lon="-3.31619">
        <ele>250.3</ele>
        <time>2024-11-20T11:02:59Z</time>
      </trkpt>
      <trkpt lat="48.14651" lon="-3.3162">
        <ele>250.3</ele>
        <time>2024-11-20T11:03:00Z</time>
      </trkpt>
      <trkpt lat="48.14652" lon="-3.31621">
        <ele>250.3</ele>
        <time>2024-11-20T11:03:01Z</time>
      </trkpt>
      <trkpt lat="48.14653" lon="-3.31621">
        <ele>250.4</ele>
        <time>2024-11-20T11:03:02Z</time>
      </trkpt>
      <trkpt lat="48.14653" lon="-3.31622">
        <ele>250.4</ele>
        <time>2024-11-20T11:03:03Z</time>
      </trkpt>
      <trkpt lat="48.14655" lon="-3.31622">
        <ele>250.4</ele>
        <time>2024-11-20T11:03:04Z</time>
      </trkpt>
      <trkpt lat="48.14656" lon="-3.31623">
        <ele>250.4</ele>
        <time>2024-11-20T11:03:05Z</time>
      </trkpt>
      <trkpt lat="48.14657" lon="-3.31623">
        <ele>250.4</ele>
        <time>2024-11-20T11:03:06Z</time>
      </trkpt>
      <trkpt lat="48.14658" lon="-3.31624">
        <ele>250.5</ele>
        <time>2024-11-20T11:03:07Z</time>
      </trkpt>
      <trkpt lat="48.14659" lon="-3.31625">
        <ele>250.5</ele>
        <time>2024-11-20T11:03:08Z</time>
      </trkpt>
      <trkpt lat="48.14659" lon="-3.31626">
        <ele>250.5</ele>
        <time>2024-11-20T11:03:09Z</time>
      </trkpt>
      <trkpt lat="48.14661" lon="-3.31627">
        <ele>250.6</ele>
        <time>2024-11-20T11:03:10Z</time>
      </trkpt>
      <trkpt lat="48.14662" lon="-3.31628">
        <ele>250.6</ele>
        <time>2024-11-20T11:03:11Z</time>
      </trkpt>
      <trkpt lat="48.14663" lon="-3.31628">
        <ele>250.6</ele>
        <time>2024-11-20T11:03:12Z</time>
      </trkpt>
      <trkpt lat="48.14664" lon="-3.31629">
        <ele>250.6</ele>
        <time>2024-11-20T11:03:13Z</time>
      </trkpt>
      <trkpt lat="48.14665" lon="-3.3163">
        <ele>250.7</ele>
        <time>2024-11-20T11:03:14Z</time>
      </trkpt>
      <trkpt lat="48.14665" lon="-3.3163">
        <ele>250.7</ele>
        <time>2024-11-20T11:03:15Z</time>
      </trkpt>
      <trkpt lat="48.14665" lon="-3.31631">
        <ele>250.7</ele>
        <time>2024-11-20T11:03:16Z</time>
      </trkpt>
      <trkpt lat="48.14666" lon="-3.31631">
        <ele>250.7</ele>
        <time>2024-11-20T11:03:17Z</time>
      </trkpt>
      <trkpt lat="48.14667" lon="-3.31632">
        <ele>250.7</ele>
        <time>2024-11-20T11:03:18Z</time>
      </trkpt>
      <trkpt lat="48.14667" lon="-3.31632">
        <ele>250.7</ele>
        <time>2024-11-20T11:03:19Z</time>
      </trkpt>
      <trkpt lat="48.14667" lon="-3.31632">
        <ele>250.8</ele>
        <time>2024-11-20T11:03:20Z</time>
      </trkpt>
      <trkpt lat="48.14668" lon="-3.31633">
        <ele>250.8</ele>
        <time>2024-11-20T11:03:21Z</time>
      </trkpt>
      <trkpt lat="48.14668" lon="-3.31633">
        <ele>250.8</ele>
        <time>2024-11-20T11:03:22Z</time>
      </trkpt>
      <trkpt lat="48.14669" lon="-3.31634">
        <ele>250.8</ele>
        <time>2024-11-20T11:03:23Z</time>
      </trkpt>
      <trkpt lat="48.1467" lon="-3.31634">
        <ele>250.8</ele>
        <time>2024-11-20T11:03:24Z</time>
      </trkpt>
      <trkpt lat="48.1467" lon="-3.31635">
        <ele>250.9</ele>
        <time>2024-11-20T11:03:25Z</time>
      </trkpt>
      <trkpt lat="48.14671" lon="-3.31636">
        <ele>250.9</ele>
        <time>2024-11-20T11:03:26Z</time>
      </trkpt>
      <trkpt lat="48.14671" lon="-3.31636">
        <ele>250.9</ele>
        <time>2024-11-20T11:03:27Z</time>
      </trkpt>
      <trkpt lat="48.14672" lon="-3.31637">
        <ele>250.9</ele>
        <time>2024-11-20T11:03:28Z</time>
      </trkpt>
      <trkpt lat="48.14672" lon="-3.31638">
        <ele>251</ele>
        <time>2024-11-20T11:03:29Z</time>
      </trkpt>
      <trkpt lat="48.14673" lon="-3.31639">
        <ele>251</ele>
        <time>2024-11-20T11:03:30Z</time>
      </trkpt>
      <trkpt lat="48.14673" lon="-3.3164">
        <ele>251</ele>
        <time>2024-11-20T11:03:31Z</time>
      </trkpt>
      <trkpt lat="48.14674" lon="-3.31641">
        <ele>251.1</ele>
        <time>2024-11-20T11:03:32Z</time>
      </trkpt>
      <trkpt lat="48.14676" lon="-3.31642">
        <ele>251.1</ele>
        <time>2024-11-20T11:03:33Z</time>
      </trkpt>
      <trkpt lat="48.14678" lon="-3.31643">
        <ele>251.1</ele>
        <time>2024-11-20T11:03:34Z</time>
      </trkpt>
      <trkpt lat="48.14679" lon="-3.31644">
        <ele>251.2</ele>
        <time>2024-11-20T11:03:35Z</time>
      </trkpt>
      <trkpt lat="48.1468" lon="-3.31644">
        <ele>251.2</ele>
        <time>2024-11-20T11:03:36Z</time>
      </trkpt>
      <trkpt lat="48.14682" lon="-3.31645">
        <ele>251.2</ele>
        <time>2024-11-20T11:03:37Z</time>
      </trkpt>
      <trkpt lat="48.14683" lon="-3.31646">
        <ele>251.3</ele>
        <time>2024-11-20T11:03:38Z</time>
      </trkpt>
      <trkpt lat="48.14684" lon="-3.31647">
        <ele>251.3</ele>
        <time>2024-11-20T11:03:39Z</time>
      </trkpt>
      <trkpt lat="48.14684" lon="-3.31648">
        <ele>251.3</ele>
        <time>2024-11-20T11:03:40Z</time>
      </trkpt>
      <trkpt lat="48.14684" lon="-3.31649">
        <ele>251.4</ele>
        <time>2024-11-20T11:03:41Z</time>
      </trkpt>
      <trkpt lat="48.14685" lon="-3.3165">
        <ele>251.4</ele>
        <time>2024-11-20T11:03:42Z</time>
      </trkpt>
      <trkpt lat="48.14686" lon="-3.31651">
        <ele>251.4</ele>
        <time>2024-11-20T11:03:43Z</time>
      </trkpt>
      <trkpt lat="48.14687" lon="-3.31652">
        <ele>251.5</ele>
        <time>2024-11-20T11:03:44Z</time>
      </trkpt>
      <trkpt lat="48.14688" lon="-3.31653">
        <ele>251.5</ele>
        <time>2024-11-20T11:03:45Z</time>
      </trkpt>
      <trkpt lat="48.14689" lon="-3.31653">
        <ele>251.5</ele>
        <time>2024-11-20T11:03:46Z</time>
      </trkpt>
      <trkpt lat="48.1469" lon="-3.31654">
        <ele>251.5</ele>
        <time>2024-11-20T11:03:47Z</time>
      </trkpt>
      <trkpt lat="48.14691" lon="-3.31655">
        <ele>251.6</ele>
        <time>2024-11-20T11:03:48Z</time>
      </trkpt>
      <trkpt lat="48.14692" lon="-3.31656">
        <ele>251.6</ele>
        <time>2024-11-20T11:03:49Z</time>
      </trkpt>
      <trkpt lat="48.14693" lon="-3.31656">
        <ele>251.6</ele>
        <time>2024-11-20T11:03:50Z</time>
      </trkpt>
      <trkpt lat="48.14693" lon="-3.31657">
        <ele>251.7</ele>
        <time>2024-11-20T11:03:51Z</time>
      </trkpt>
      <trkpt lat="48.14694" lon="-3.31659">
        <ele>251.7</ele>
        <time>2024-11-20T11:03:52Z</time>
      </trkpt>
      <trkpt lat="48.14696" lon="-3.3166">
        <ele>251.8</ele>
        <time>2024-11-20T11:03:53Z</time>
      </trkpt>
      <trkpt lat="48.14697" lon="-3.31661">
        <ele>251.8</ele>
        <time>2024-11-20T11:03:54Z</time>
      </trkpt>
      <trkpt lat="48.14699" lon="-3.31662">
        <ele>251.8</ele>
        <time>2024-11-20T11:03:55Z</time>
      </trkpt>
      <trkpt lat="48.14701" lon="-3.31663">
        <ele>251.9</ele>
        <time>2024-11-20T11:03:56Z</time>
      </trkpt>
      <trkpt lat="48.14703" lon="-3.31664">
        <ele>251.9</ele>
        <time>2024-11-20T11:03:57Z</time>
      </trkpt>
      <trkpt lat="48.14704" lon="-3.31664">
        <ele>251.9</ele>
        <time>2024-11-20T11:03:58Z</time>
      </trkpt>
      <trkpt lat="48.14706" lon="-3.31664">
        <ele>251.9</ele>
        <time>2024-11-20T11:03:59Z</time>
      </trkpt>
      <trkpt lat="48.14706" lon="-3.31665">
        <ele>251.9</ele>
        <time>2024-11-20T11:04:00Z</time>
      </trkpt>
      <trkpt lat="48.14708" lon="-3.31666">
        <ele>252</ele>
        <time>2024-11-20T11:04:01Z</time>
      </trkpt>
      <trkpt lat="48.14709" lon="-3.31667">
        <ele>252</ele>
        <time>2024-11-20T11:04:02Z</time>
      </trkpt>
      <trkpt lat="48.1471" lon="-3.31667">
        <ele>252</ele>
        <time>2024-11-20T11:04:03Z</time>
      </trkpt>
      <trkpt lat="48.14711" lon="-3.31668">
        <ele>252</ele>
        <time>2024-11-20T11:04:04Z</time>
      </trkpt>
      <trkpt lat="48.14712" lon="-3.31669">
        <ele>252.1</ele>
        <time>2024-11-20T11:04:05Z</time>
      </trkpt>
      <trkpt lat="48.14713" lon="-3.3167">
        <ele>252.1</ele>
        <time>2024-11-20T11:04:06Z</time>
      </trkpt>
      <trkpt lat="48.14714" lon="-3.31671">
        <ele>252.1</ele>
        <time>2024-11-20T11:04:07Z</time>
      </trkpt>
      <trkpt lat="48.14715" lon="-3.31672">
        <ele>252.1</ele>
        <time>2024-11-20T11:04:08Z</time>
      </trkpt>
      <trkpt lat="48.14716" lon="-3.31673">
        <ele>252.1</ele>
        <time>2024-11-20T11:04:09Z</time>
      </trkpt>
      <trkpt lat="48.14717" lon="-3.31674">
        <ele>252.1</ele>
        <time>2024-11-20T11:04:10Z</time>
      </trkpt>
      <trkpt lat="48.14718" lon="-3.31674">
        <ele>252.1</ele>
        <time>2024-11-20T11:04:11Z</time>
      </trkpt>
      <trkpt lat="48.14719" lon="-3.31675">
        <ele>252.1</ele>
        <time>2024-11-20T11:04:12Z</time>
      </trkpt>
      <trkpt lat="48.1472" lon="-3.31676">
        <ele>252</ele>
        <time>2024-11-20T11:04:13Z</time>
      </trkpt>
      <trkpt lat="48.14722" lon="-3.31677">
        <ele>252</ele>
        <time>2024-11-20T11:04:14Z</time>
      </trkpt>
      <trkpt lat="48.14723" lon="-3.31678">
        <ele>252</ele>
        <time>2024-11-20T11:04:15Z</time>
      </trkpt>
      <trkpt lat="48.14724" lon="-3.31679">
        <ele>252</ele>
        <time>2024-11-20T11:04:16Z</time>
      </trkpt>
      <trkpt lat="48.14726" lon="-3.3168">
        <ele>252</ele>
        <time>2024-11-20T11:04:17Z</time>
      </trkpt>
      <trkpt lat="48.14727" lon="-3.31681">
        <ele>252</ele>
        <time>2024-11-20T11:04:18Z</time>
      </trkpt>
      <trkpt lat="48.14728" lon="-3.31683">
        <ele>252</ele>
        <time>2024-11-20T11:04:19Z</time>
      </trkpt>
      <trkpt lat="48.14729" lon="-3.31684">
        <ele>252</ele>
        <time>2024-11-20T11:04:20Z</time>
      </trkpt>
      <trkpt lat="48.14731" lon="-3.31684">
        <ele>252</ele>
        <time>2024-11-20T11:04:21Z</time>
      </trkpt>
      <trkpt lat="48.14732" lon="-3.31685">
        <ele>252</ele>
        <time>2024-11-20T11:04:22Z</time>
      </trkpt>
      <trkpt lat="48.14732" lon="-3.31686">
        <ele>252</ele>
        <time>2024-11-20T11:04:23Z</time>
      </trkpt>
      <trkpt lat="48.14733" lon="-3.31687">
        <ele>252</ele>
        <time>2024-11-20T11:04:24Z</time>
      </trkpt>
      <trkpt lat="48.14734" lon="-3.31688">
        <ele>252</ele>
        <time>2024-11-20T11:04:25Z</time>
      </trkpt>
      <trkpt lat="48.14736" lon="-3.31689">
        <ele>252</ele>
        <time>2024-11-20T11:04:26Z</time>
      </trkpt>
      <trkpt lat="48.14737" lon="-3.31689">
        <ele>252</ele>
        <time>2024-11-20T11:04:27Z</time>
      </trkpt>
      <trkpt lat="48.14738" lon="-3.3169">
        <ele>252</ele>
        <time>2024-11-20T11:04:28Z</time>
      </trkpt>
      <trkpt lat="48.14739" lon="-3.31691">
        <ele>252</ele>
        <time>2024-11-20T11:04:29Z</time>
      </trkpt>
      <trkpt lat="48.14739" lon="-3.31692">
        <ele>252</ele>
        <time>2024-11-20T11:04:30Z</time>
      </trkpt>
      <trkpt lat="48.14739" lon="-3.31692">
        <ele>252</ele>
        <time>2024-11-20T11:04:31Z</time>
      </trkpt>
      <trkpt lat="48.1474" lon="-3.31693">
        <ele>252</ele>
        <time>2024-11-20T11:04:32Z</time>
      </trkpt>
      <trkpt lat="48.14741" lon="-3.31694">
        <ele>252</ele>
        <time>2024-11-20T11:04:33Z</time>
      </trkpt>
      <trkpt lat="48.14741" lon="-3.31695">
        <ele>252</ele>
        <time>2024-11-20T11:04:34Z</time>
      </trkpt>
      <trkpt lat="48.14742" lon="-3.31695">
        <ele>252</ele>
        <time>2024-11-20T11:04:35Z</time>
      </trkpt>
      <trkpt lat="48.14743" lon="-3.31696">
        <ele>252.1</ele>
        <time>2024-11-20T11:04:36Z</time>
      </trkpt>
      <trkpt lat="48.14744" lon="-3.31697">
        <ele>252.1</ele>
        <time>2024-11-20T11:04:37Z</time>
      </trkpt>
      <trkpt lat="48.14745" lon="-3.31697">
        <ele>252.1</ele>
        <time>2024-11-20T11:04:38Z</time>
      </trkpt>
      <trkpt lat="48.14746" lon="-3.31698">
        <ele>252.2</ele>
        <time>2024-11-20T11:04:39Z</time>
      </trkpt>
      <trkpt lat="48.14747" lon="-3.31698">
        <ele>252.2</ele>
        <time>2024-11-20T11:04:40Z</time>
      </trkpt>
      <trkpt lat="48.14747" lon="-3.31699">
        <ele>252.2</ele>
        <time>2024-11-20T11:04:41Z</time>
      </trkpt>
      <trkpt lat="48.14748" lon="-3.31699">
        <ele>252.2</ele>
        <time>2024-11-20T11:04:42Z</time>
      </trkpt>
      <trkpt lat="48.14749" lon="-3.31699">
        <ele>252.2</ele>
        <time>2024-11-20T11:04:43Z</time>
      </trkpt>
      <trkpt lat="48.1475" lon="-3.317">
        <ele>252.2</ele>
        <time>2024-11-20T11:04:44Z</time>
      </trkpt>
      <trkpt lat="48.14751" lon="-3.31701">
        <ele>252.3</ele>
        <time>2024-11-20T11:04:45Z</time>
      </trkpt>
      <trkpt lat="48.14752" lon="-3.31702">
        <ele>252.3</ele>
        <time>2024-11-20T11:04:46Z</time>
      </trkpt>
      <trkpt lat="48.14753" lon="-3.31703">
        <ele>252.4</ele>
        <time>2024-11-20T11:04:47Z</time>
      </trkpt>
      <trkpt lat="48.14754" lon="-3.31704">
        <ele>252.4</ele>
        <time>2024-11-20T11:04:48Z</time>
      </trkpt>
      <trkpt lat="48.14756" lon="-3.31705">
        <ele>252.5</ele>
        <time>2024-11-20T11:04:49Z</time>
      </trkpt>
      <trkpt lat="48.14757" lon="-3.31706">
        <ele>252.5</ele>
        <time>2024-11-20T11:04:50Z</time>
      </trkpt>
      <trkpt lat="48.14758" lon="-3.31707">
        <ele>252.6</ele>
        <time>2024-11-20T11:04:51Z</time>
      </trkpt>
      <trkpt lat="48.14759" lon="-3.31708">
        <ele>252.7</ele>
        <time>2024-11-20T11:04:52Z</time>
      </trkpt>
      <trkpt lat="48.1476" lon="-3.31709">
        <ele>252.7</ele>
        <time>2024-11-20T11:04:53Z</time>
      </trkpt>
      <trkpt lat="48.14761" lon="-3.31711">
        <ele>252.8</ele>
        <time>2024-11-20T11:04:54Z</time>
      </trkpt>
      <trkpt lat="48.14762" lon="-3.31713">
        <ele>252.8</ele>
        <time>2024-11-20T11:04:55Z</time>
      </trkpt>
      <trkpt lat="48.14763" lon="-3.31715">
        <ele>252.9</ele>
        <time>2024-11-20T11:04:56Z</time>
      </trkpt>
      <trkpt lat="48.14764" lon="-3.31716">
        <ele>252.9</ele>
        <time>2024-11-20T11:04:57Z</time>
      </trkpt>
      <trkpt lat="48.14765" lon="-3.31717">
        <ele>252.9</ele>
        <time>2024-11-20T11:04:58Z</time>
      </trkpt>
      <trkpt lat="48.14766" lon="-3.31718">
        <ele>252.9</ele>
        <time>2024-11-20T11:04:59Z</time>
      </trkpt>
      <trkpt lat="48.14768" lon="-3.3172">
        <ele>253</ele>
        <time>2024-11-20T11:05:00Z</time>
      </trkpt>
      <trkpt lat="48.14769" lon="-3.31721">
        <ele>253</ele>
        <time>2024-11-20T11:05:01Z</time>
      </trkpt>
      <trkpt lat="48.1477" lon="-3.31722">
        <ele>253</ele>
        <time>2024-11-20T11:05:02Z</time>
      </trkpt>
      <trkpt lat="48.14771" lon="-3.31723">
        <ele>253</ele>
        <time>2024-11-20T11:05:03Z</time>
      </trkpt>
      <trkpt lat="48.14772" lon="-3.31723">
        <ele>253.1</ele>
        <time>2024-11-20T11:05:04Z</time>
      </trkpt>
      <trkpt lat="48.14774" lon="-3.31724">
        <ele>253.1</ele>
        <time>2024-11-20T11:05:05Z</time>
      </trkpt>
      <trkpt lat="48.14775" lon="-3.31725">
        <ele>253.1</ele>
        <time>2024-11-20T11:05:06Z</time>
      </trkpt>
      <trkpt lat="48.14776" lon="-3.31726">
        <ele>253.2</ele>
        <time>2024-11-20T11:05:07Z</time>
      </trkpt>
      <trkpt lat="48.14777" lon="-3.31727">
        <ele>253.2</ele>
        <time>2024-11-20T11:05:08Z</time>
      </trkpt>
      <trkpt lat="48.14777" lon="-3.31728">
        <ele>253.2</ele>
        <time>2024-11-20T11:05:09Z</time>
      </trkpt>
      <trkpt lat="48.14778" lon="-3.31729">
        <ele>253.2</ele>
        <time>2024-11-20T11:05:10Z</time>
      </trkpt>
      <trkpt lat="48.14779" lon="-3.3173">
        <ele>253.3</ele>
        <time>2024-11-20T11:05:11Z</time>
      </trkpt>
      <trkpt lat="48.1478" lon="-3.31731">
        <ele>253.3</ele>
        <time>2024-11-20T11:05:12Z</time>
      </trkpt>
      <trkpt lat="48.14781" lon="-3.31733">
        <ele>253.3</ele>
        <time>2024-11-20T11:05:13Z</time>
      </trkpt>
      <trkpt lat="48.14782" lon="-3.31734">
        <ele>253.4</ele>
        <time>2024-11-20T11:05:14Z</time>
      </trkpt>
      <trkpt lat="48.14784" lon="-3.31735">
        <ele>253.4</ele>
        <time>2024-11-20T11:05:15Z</time>
      </trkpt>
      <trkpt lat="48.14785" lon="-3.31736">
        <ele>253.4</ele>
        <time>2024-11-20T11:05:16Z</time>
      </trkpt>
      <trkpt lat="48.14786" lon="-3.31737">
        <ele>253.4</ele>
        <time>2024-11-20T11:05:17Z</time>
      </trkpt>
      <trkpt lat="48.14788" lon="-3.31738">
        <ele>253.4</ele>
        <time>2024-11-20T11:05:18Z</time>
      </trkpt>
      <trkpt lat="48.14789" lon="-3.31739">
        <ele>253.4</ele>
        <time>2024-11-20T11:05:19Z</time>
      </trkpt>
      <trkpt lat="48.1479" lon="-3.3174">
        <ele>253.4</ele>
        <time>2024-11-20T11:05:20Z</time>
      </trkpt>
      <trkpt lat="48.14791" lon="-3.31741">
        <ele>253.4</ele>
        <time>2024-11-20T11:05:21Z</time>
      </trkpt>
      <trkpt lat="48.14791" lon="-3.31741">
        <ele>253.4</ele>
        <time>2024-11-20T11:05:22Z</time>
      </trkpt>
      <trkpt lat="48.14792" lon="-3.31742">
        <ele>253.4</ele>
        <time>2024-11-20T11:05:23Z</time>
      </trkpt>
      <trkpt lat="48.14793" lon="-3.31743">
        <ele>253.4</ele>
        <time>2024-11-20T11:05:24Z</time>
      </trkpt>
      <trkpt lat="48.14793" lon="-3.31744">
        <ele>253.4</ele>
        <time>2024-11-20T11:05:25Z</time>
      </trkpt>
      <trkpt lat="48.14794" lon="-3.31745">
        <ele>253.3</ele>
        <time>2024-11-20T11:05:26Z</time>
      </trkpt>
      <trkpt lat="48.14795" lon="-3.31746">
        <ele>253.3</ele>
        <time>2024-11-20T11:05:27Z</time>
      </trkpt>
      <trkpt lat="48.14796" lon="-3.31746">
        <ele>253.3</ele>
        <time>2024-11-20T11:05:28Z</time>
      </trkpt>
      <trkpt lat="48.14796" lon="-3.31746">
        <ele>253.3</ele>
        <time>2024-11-20T11:05:29Z</time>
      </trkpt>
      <trkpt lat="48.14798" lon="-3.31746">
        <ele>253.2</ele>
        <time>2024-11-20T11:05:30Z</time>
      </trkpt>
      <trkpt lat="48.14798" lon="-3.31746">
        <ele>253.2</ele>
        <time>2024-11-20T11:05:31Z</time>
      </trkpt>
      <trkpt lat="48.14799" lon="-3.31746">
        <ele>253.2</ele>
        <time>2024-11-20T11:05:32Z</time>
      </trkpt>
      <trkpt lat="48.14799" lon="-3.31747">
        <ele>253.2</ele>
        <time>2024-11-20T11:05:33Z</time>
      </trkpt>
      <trkpt lat="48.148" lon="-3.31749">
        <ele>253.2</ele>
        <time>2024-11-20T11:05:34Z</time>
      </trkpt>
      <trkpt lat="48.148" lon="-3.3175">
        <ele>253.2</ele>
        <time>2024-11-20T11:05:35Z</time>
      </trkpt>
      <trkpt lat="48.14801" lon="-3.31751">
        <ele>253.1</ele>
        <time>2024-11-20T11:05:36Z</time>
      </trkpt>
      <trkpt lat="48.14802" lon="-3.31752">
        <ele>253.1</ele>
        <time>2024-11-20T11:05:37Z</time>
      </trkpt>
      <trkpt lat="48.14803" lon="-3.31754">
        <ele>253</ele>
        <time>2024-11-20T11:05:38Z</time>
      </trkpt>
      <trkpt lat="48.14804" lon="-3.31755">
        <ele>252.9</ele>
        <time>2024-11-20T11:05:39Z</time>
      </trkpt>
      <trkpt lat="48.14805" lon="-3.31756">
        <ele>252.8</ele>
        <time>2024-11-20T11:05:40Z</time>
      </trkpt>
      <trkpt lat="48.14806" lon="-3.31758">
        <ele>252.7</ele>
        <time>2024-11-20T11:05:41Z</time>
      </trkpt>
      <trkpt lat="48.14806" lon="-3.3176">
        <ele>252.7</ele>
        <time>2024-11-20T11:05:42Z</time>
      </trkpt>
      <trkpt lat="48.14807" lon="-3.31761">
        <ele>252.6</ele>
        <time>2024-11-20T11:05:43Z</time>
      </trkpt>
      <trkpt lat="48.14808" lon="-3.31763">
        <ele>252.6</ele>
        <time>2024-11-20T11:05:44Z</time>
      </trkpt>
      <trkpt lat="48.14808" lon="-3.31763">
        <ele>252.6</ele>
        <time>2024-11-20T11:05:45Z</time>
      </trkpt>
      <trkpt lat="48.14809" lon="-3.31764">
        <ele>252.6</ele>
        <time>2024-11-20T11:05:46Z</time>
      </trkpt>
      <trkpt lat="48.14809" lon="-3.31765">
        <ele>252.6</ele>
        <time>2024-11-20T11:05:47Z</time>
      </trkpt>
      <trkpt lat="48.14809" lon="-3.31765">
        <ele>252.6</ele>
        <time>2024-11-20T11:05:48Z</time>
      </trkpt>
      <trkpt lat="48.14809" lon="-3.31765">
        <ele>252.6</ele>
        <time>2024-11-20T11:05:49Z</time>
      </trkpt>
      <trkpt lat="48.14809" lon="-3.31765">
        <ele>252.6</ele>
        <time>2024-11-20T11:05:50Z</time>
      </trkpt>
      <trkpt lat="48.14809" lon="-3.31766">
        <ele>252.6</ele>
        <time>2024-11-20T11:05:51Z</time>
      </trkpt>
      <trkpt lat="48.14809" lon="-3.31766">
        <ele>252.6</ele>
        <time>2024-11-20T11:05:52Z</time>
      </trkpt>
      <trkpt lat="48.14809" lon="-3.31766">
        <ele>252.5</ele>
        <time>2024-11-20T11:05:53Z</time>
      </trkpt>
      <trkpt lat="48.14809" lon="-3.31766">
        <ele>252.5</ele>
        <time>2024-11-20T11:05:54Z</time>
      </trkpt>
      <trkpt lat="48.14809" lon="-3.31766">
        <ele>252.5</ele>
        <time>2024-11-20T11:05:55Z</time>
      </trkpt>
      <trkpt lat="48.14809" lon="-3.31767">
        <ele>252.5</ele>
        <time>2024-11-20T11:05:56Z</time>
      </trkpt>
      <trkpt lat="48.14809" lon="-3.31767">
        <ele>252.5</ele>
        <time>2024-11-20T11:05:57Z</time>
      </trkpt>
      <trkpt lat="48.1481" lon="-3.31769">
        <ele>252.5</ele>
        <time>2024-11-20T11:05:58Z</time>
      </trkpt>
      <trkpt lat="48.14811" lon="-3.3177">
        <ele>252.5</ele>
        <time>2024-11-20T11:05:59Z</time>
      </trkpt>
      <trkpt lat="48.14812" lon="-3.31771">
        <ele>252.5</ele>
        <time>2024-11-20T11:06:00Z</time>
      </trkpt>
      <trkpt lat="48.14813" lon="-3.31771">
        <ele>252.5</ele>
        <time>2024-11-20T11:06:01Z</time>
      </trkpt>
      <trkpt lat="48.14814" lon="-3.31772">
        <ele>252.5</ele>
        <time>2024-11-20T11:06:02Z</time>
      </trkpt>
      <trkpt lat="48.14815" lon="-3.31773">
        <ele>252.5</ele>
        <time>2024-11-20T11:06:03Z</time>
      </trkpt>
      <trkpt lat="48.14815" lon="-3.31773">
        <ele>252.5</ele>
        <time>2024-11-20T11:06:04Z</time>
      </trkpt>
      <trkpt lat="48.14816" lon="-3.31773">
        <ele>252.5</ele>
        <time>2024-11-20T11:06:05Z</time>
      </trkpt>
      <trkpt lat="48.14817" lon="-3.31774">
        <ele>252.5</ele>
        <time>2024-11-20T11:06:06Z</time>
      </trkpt>
      <trkpt lat="48.14817" lon="-3.31775">
        <ele>252.5</ele>
        <time>2024-11-20T11:06:07Z</time>
      </trkpt>
      <trkpt lat="48.14817" lon="-3.31775">
        <ele>252.5</ele>
        <time>2024-11-20T11:06:08Z</time>
      </trkpt>
      <trkpt lat="48.14817" lon="-3.31775">
        <ele>252.5</ele>
        <time>2024-11-20T11:06:09Z</time>
      </trkpt>
      <trkpt lat="48.14817" lon="-3.31775">
        <ele>252.5</ele>
        <time>2024-11-20T11:06:10Z</time>
      </trkpt>
      <trkpt lat="48.14817" lon="-3.31775">
        <ele>252.5</ele>
        <time>2024-11-20T11:06:11Z</time>
      </trkpt>
      <trkpt lat="48.14817" lon="-3.31775">
        <ele>252.5</ele>
        <time>2024-11-20T11:06:12Z</time>
      </trkpt>
      <trkpt lat="48.14817" lon="-3.31775">
        <ele>252.5</ele>
        <time>2024-11-20T11:06:13Z</time>
      </trkpt>
      <trkpt lat="48.14818" lon="-3.31775">
        <ele>252.5</ele>
        <time>2024-11-20T11:06:14Z</time>
      </trkpt>
      <trkpt lat="48.14819" lon="-3.31775">
        <ele>252.6</ele>
        <time>2024-11-20T11:06:15Z</time>
      </trkpt>
      <trkpt lat="48.1482" lon="-3.31775">
        <ele>252.6</ele>
        <time>2024-11-20T11:06:16Z</time>
      </trkpt>
      <trkpt lat="48.14821" lon="-3.31775">
        <ele>252.7</ele>
        <time>2024-11-20T11:06:17Z</time>
      </trkpt>
      <trkpt lat="48.14822" lon="-3.31775">
        <ele>252.7</ele>
        <time>2024-11-20T11:06:18Z</time>
      </trkpt>
      <trkpt lat="48.14822" lon="-3.31775">
        <ele>252.7</ele>
        <time>2024-11-20T11:06:19Z</time>
      </trkpt>
      <trkpt lat="48.14822" lon="-3.31775">
        <ele>252.7</ele>
        <time>2024-11-20T11:06:20Z</time>
      </trkpt>
      <trkpt lat="48.14823" lon="-3.31775">
        <ele>252.7</ele>
        <time>2024-11-20T11:06:21Z</time>
      </trkpt>
      <trkpt lat="48.14823" lon="-3.31775">
        <ele>252.7</ele>
        <time>2024-11-20T11:06:22Z</time>
      </trkpt>
      <trkpt lat="48.14824" lon="-3.31776">
        <ele>252.7</ele>
        <time>2024-11-20T11:06:23Z</time>
      </trkpt>
      <trkpt lat="48.14825" lon="-3.31776">
        <ele>252.7</ele>
        <time>2024-11-20T11:06:24Z</time>
      </trkpt>
      <trkpt lat="48.14826" lon="-3.31777">
        <ele>252.7</ele>
        <time>2024-11-20T11:06:25Z</time>
      </trkpt>
      <trkpt lat="48.14826" lon="-3.31778">
        <ele>252.8</ele>
        <time>2024-11-20T11:06:26Z</time>
      </trkpt>
      <trkpt lat="48.14827" lon="-3.31778">
        <ele>252.7</ele>
        <time>2024-11-20T11:06:27Z</time>
      </trkpt>
      <trkpt lat="48.14828" lon="-3.31779">
        <ele>252.7</ele>
        <time>2024-11-20T11:06:28Z</time>
      </trkpt>
      <trkpt lat="48.14828" lon="-3.3178">
        <ele>252.7</ele>
        <time>2024-11-20T11:06:29Z</time>
      </trkpt>
      <trkpt lat="48.14829" lon="-3.3178">
        <ele>252.6</ele>
        <time>2024-11-20T11:06:30Z</time>
      </trkpt>
      <trkpt lat="48.1483" lon="-3.31781">
        <ele>252.5</ele>
        <time>2024-11-20T11:06:31Z</time>
      </trkpt>
      <trkpt lat="48.1483" lon="-3.31782">
        <ele>252.5</ele>
        <time>2024-11-20T11:06:32Z</time>
      </trkpt>
      <trkpt lat="48.14831" lon="-3.31783">
        <ele>252.4</ele>
        <time>2024-11-20T11:06:33Z</time>
      </trkpt>
      <trkpt lat="48.14831" lon="-3.31783">
        <ele>252.4</ele>
        <time>2024-11-20T11:06:34Z</time>
      </trkpt>
      <trkpt lat="48.14832" lon="-3.31783">
        <ele>252.4</ele>
        <time>2024-11-20T11:06:35Z</time>
      </trkpt>
      <trkpt lat="48.14833" lon="-3.31783">
        <ele>252.4</ele>
        <time>2024-11-20T11:06:36Z</time>
      </trkpt>
      <trkpt lat="48.14834" lon="-3.31784">
        <ele>252.4</ele>
        <time>2024-11-20T11:06:37Z</time>
      </trkpt>
      <trkpt lat="48.14835" lon="-3.31784">
        <ele>252.5</ele>
        <time>2024-11-20T11:06:38Z</time>
      </trkpt>
      <trkpt lat="48.14836" lon="-3.31784">
        <ele>252.4</ele>
        <time>2024-11-20T11:06:39Z</time>
      </trkpt>
      <trkpt lat="48.14835" lon="-3.31785">
        <ele>252.4</ele>
        <time>2024-11-20T11:06:40Z</time>
      </trkpt>
      <trkpt lat="48.14836" lon="-3.31785">
        <ele>252.4</ele>
        <time>2024-11-20T11:06:41Z</time>
      </trkpt>
      <trkpt lat="48.14836" lon="-3.31786">
        <ele>252.3</ele>
        <time>2024-11-20T11:06:42Z</time>
      </trkpt>
      <trkpt lat="48.14837" lon="-3.31787">
        <ele>252.2</ele>
        <time>2024-11-20T11:06:43Z</time>
      </trkpt>
      <trkpt lat="48.14838" lon="-3.31788">
        <ele>252.2</ele>
        <time>2024-11-20T11:06:44Z</time>
      </trkpt>
      <trkpt lat="48.14838" lon="-3.31789">
        <ele>252.2</ele>
        <time>2024-11-20T11:06:45Z</time>
      </trkpt>
      <trkpt lat="48.14839" lon="-3.31789">
        <ele>252.1</ele>
        <time>2024-11-20T11:06:46Z</time>
      </trkpt>
      <trkpt lat="48.14838" lon="-3.3179">
        <ele>252</ele>
        <time>2024-11-20T11:06:47Z</time>
      </trkpt>
      <trkpt lat="48.14838" lon="-3.3179">
        <ele>252</ele>
        <time>2024-11-20T11:06:48Z</time>
      </trkpt>
      <trkpt lat="48.14838" lon="-3.31791">
        <ele>251.9</ele>
        <time>2024-11-20T11:06:49Z</time>
      </trkpt>
      <trkpt lat="48.14837" lon="-3.31791">
        <ele>251.9</ele>
        <time>2024-11-20T11:06:50Z</time>
      </trkpt>
      <trkpt lat="48.14837" lon="-3.31791">
        <ele>251.9</ele>
        <time>2024-11-20T11:06:51Z</time>
      </trkpt>
      <trkpt lat="48.14837" lon="-3.31791">
        <ele>251.9</ele>
        <time>2024-11-20T11:06:52Z</time>
      </trkpt>
      <trkpt lat="48.14838" lon="-3.31791">
        <ele>251.9</ele>
        <time>2024-11-20T11:06:53Z</time>
      </trkpt>
      <trkpt lat="48.14838" lon="-3.3179">
        <ele>252</ele>
        <time>2024-11-20T11:06:54Z</time>
      </trkpt>
      <trkpt lat="48.14838" lon="-3.31789">
        <ele>252.1</ele>
        <time>2024-11-20T11:06:55Z</time>
      </trkpt>
      <trkpt lat="48.14838" lon="-3.31789">
        <ele>252.2</ele>
        <time>2024-11-20T11:06:56Z</time>
      </trkpt>
      <trkpt lat="48.14838" lon="-3.31788">
        <ele>252.2</ele>
        <time>2024-11-20T11:06:57Z</time>
      </trkpt>
      <trkpt lat="48.14839" lon="-3.31788">
        <ele>252.2</ele>
        <time>2024-11-20T11:06:58Z</time>
      </trkpt>
      <trkpt lat="48.14839" lon="-3.31788">
        <ele>252.2</ele>
        <time>2024-11-20T11:06:59Z</time>
      </trkpt>
      <trkpt lat="48.14839" lon="-3.31789">
        <ele>252.2</ele>
        <time>2024-11-20T11:07:00Z</time>
      </trkpt>
      <trkpt lat="48.14839" lon="-3.31789">
        <ele>252.1</ele>
        <time>2024-11-20T11:07:01Z</time>
      </trkpt>
      <trkpt lat="48.14839" lon="-3.3179">
        <ele>252.1</ele>
        <time>2024-11-20T11:07:02Z</time>
      </trkpt>
      <trkpt lat="48.14838" lon="-3.3179">
        <ele>252</ele>
        <time>2024-11-20T11:07:03Z</time>
      </trkpt>
      <trkpt lat="48.14838" lon="-3.31791">
        <ele>251.9</ele>
        <time>2024-11-20T11:07:04Z</time>
      </trkpt>
      <trkpt lat="48.14838" lon="-3.31792">
        <ele>251.9</ele>
        <time>2024-11-20T11:07:05Z</time>
      </trkpt>
      <trkpt lat="48.14839" lon="-3.31793">
        <ele>251.8</ele>
        <time>2024-11-20T11:07:06Z</time>
      </trkpt>
      <trkpt lat="48.14839" lon="-3.31793">
        <ele>251.7</ele>
        <time>2024-11-20T11:07:07Z</time>
      </trkpt>
      <trkpt lat="48.14839" lon="-3.31793">
        <ele>251.7</ele>
        <time>2024-11-20T11:07:08Z</time>
      </trkpt>
      <trkpt lat="48.14839" lon="-3.31793">
        <ele>251.7</ele>
        <time>2024-11-20T11:07:09Z</time>
      </trkpt>
      <trkpt lat="48.14839" lon="-3.31793">
        <ele>251.8</ele>
        <time>2024-11-20T11:07:10Z</time>
      </trkpt>
      <trkpt lat="48.14839" lon="-3.31793">
        <ele>251.8</ele>
        <time>2024-11-20T11:07:11Z</time>
      </trkpt>
      <trkpt lat="48.14839" lon="-3.31793">
        <ele>251.8</ele>
        <time>2024-11-20T11:07:12Z</time>
      </trkpt>
      <trkpt lat="48.14839" lon="-3.31793">
        <ele>251.7</ele>
        <time>2024-11-20T11:07:13Z</time>
      </trkpt>
      <trkpt lat="48.14839" lon="-3.31793">
        <ele>251.7</ele>
        <time>2024-11-20T11:07:14Z</time>
      </trkpt>
      <trkpt lat="48.1484" lon="-3.31794">
        <ele>251.7</ele>
        <time>2024-11-20T11:07:15Z</time>
      </trkpt>
      <trkpt lat="48.14839" lon="-3.31795">
        <ele>251.6</ele>
        <time>2024-11-20T11:07:16Z</time>
      </trkpt>
      <trkpt lat="48.14839" lon="-3.31795">
        <ele>251.5</ele>
        <time>2024-11-20T11:07:17Z</time>
      </trkpt>
      <trkpt lat="48.14839" lon="-3.31796">
        <ele>251.5</ele>
        <time>2024-11-20T11:07:18Z</time>
      </trkpt>
      <trkpt lat="48.14839" lon="-3.31796">
        <ele>251.5</ele>
        <time>2024-11-20T11:07:19Z</time>
      </trkpt>
      <trkpt lat="48.14839" lon="-3.31796">
        <ele>251.4</ele>
        <time>2024-11-20T11:07:20Z</time>
      </trkpt>
      <trkpt lat="48.14839" lon="-3.31796">
        <ele>251.4</ele>
        <time>2024-11-20T11:07:21Z</time>
      </trkpt>
      <trkpt lat="48.14839" lon="-3.31796">
        <ele>251.4</ele>
        <time>2024-11-20T11:07:22Z</time>
      </trkpt>
      <trkpt lat="48.14839" lon="-3.31796">
        <ele>251.4</ele>
        <time>2024-11-20T11:07:23Z</time>
      </trkpt>
      <trkpt lat="48.14839" lon="-3.31797">
        <ele>251.4</ele>
        <time>2024-11-20T11:07:24Z</time>
      </trkpt>
      <trkpt lat="48.14839" lon="-3.31797">
        <ele>251.4</ele>
        <time>2024-11-20T11:07:25Z</time>
      </trkpt>
      <trkpt lat="48.1484" lon="-3.31797">
        <ele>251.4</ele>
        <time>2024-11-20T11:07:26Z</time>
      </trkpt>
      <trkpt lat="48.14841" lon="-3.31798">
        <ele>251.4</ele>
        <time>2024-11-20T11:07:27Z</time>
      </trkpt>
      <trkpt lat="48.14841" lon="-3.31799">
        <ele>251.3</ele>
        <time>2024-11-20T11:07:28Z</time>
      </trkpt>
      <trkpt lat="48.14841" lon="-3.318">
        <ele>251.2</ele>
        <time>2024-11-20T11:07:29Z</time>
      </trkpt>
      <trkpt lat="48.14841" lon="-3.31802">
        <ele>250.9</ele>
        <time>2024-11-20T11:07:30Z</time>
      </trkpt>
      <trkpt lat="48.14841" lon="-3.31803">
        <ele>250.8</ele>
        <time>2024-11-20T11:07:31Z</time>
      </trkpt>
      <trkpt lat="48.14841" lon="-3.31804">
        <ele>250.7</ele>
        <time>2024-11-20T11:07:32Z</time>
      </trkpt>
      <trkpt lat="48.14842" lon="-3.31805">
        <ele>250.7</ele>
        <time>2024-11-20T11:07:33Z</time>
      </trkpt>
      <trkpt lat="48.14841" lon="-3.31806">
        <ele>250.6</ele>
        <time>2024-11-20T11:07:34Z</time>
      </trkpt>
      <trkpt lat="48.14841" lon="-3.31806">
        <ele>250.5</ele>
        <time>2024-11-20T11:07:35Z</time>
      </trkpt>
      <trkpt lat="48.14841" lon="-3.31806">
        <ele>250.5</ele>
        <time>2024-11-20T11:07:36Z</time>
      </trkpt>
      <trkpt lat="48.14841" lon="-3.31806">
        <ele>250.5</ele>
        <time>2024-11-20T11:07:37Z</time>
      </trkpt>
      <trkpt lat="48.14842" lon="-3.31805">
        <ele>250.7</ele>
        <time>2024-11-20T11:07:38Z</time>
      </trkpt>
      <trkpt lat="48.14842" lon="-3.31804">
        <ele>250.8</ele>
        <time>2024-11-20T11:07:39Z</time>
      </trkpt>
      <trkpt lat="48.14842" lon="-3.31804">
        <ele>250.8</ele>
        <time>2024-11-20T11:07:40Z</time>
      </trkpt>
      <trkpt lat="48.14843" lon="-3.31804">
        <ele>250.9</ele>
        <time>2024-11-20T11:07:41Z</time>
      </trkpt>
      <trkpt lat="48.14843" lon="-3.31803">
        <ele>250.9</ele>
        <time>2024-11-20T11:07:42Z</time>
      </trkpt>
      <trkpt lat="48.14843" lon="-3.31803">
        <ele>250.9</ele>
        <time>2024-11-20T11:07:43Z</time>
      </trkpt>
      <trkpt lat="48.14843" lon="-3.31803">
        <ele>250.9</ele>
        <time>2024-11-20T11:07:44Z</time>
      </trkpt>
      <trkpt lat="48.14843" lon="-3.31804">
        <ele>250.9</ele>
        <time>2024-11-20T11:07:45Z</time>
      </trkpt>
      <trkpt lat="48.14843" lon="-3.31804">
        <ele>250.9</ele>
        <time>2024-11-20T11:07:46Z</time>
      </trkpt>
      <trkpt lat="48.14843" lon="-3.31805">
        <ele>250.8</ele>
        <time>2024-11-20T11:07:47Z</time>
      </trkpt>
      <trkpt lat="48.14843" lon="-3.31805">
        <ele>250.8</ele>
        <time>2024-11-20T11:07:48Z</time>
      </trkpt>
      <trkpt lat="48.14843" lon="-3.31805">
        <ele>250.7</ele>
        <time>2024-11-20T11:07:49Z</time>
      </trkpt>
      <trkpt lat="48.14842" lon="-3.31805">
        <ele>250.7</ele>
        <time>2024-11-20T11:07:50Z</time>
      </trkpt>
      <trkpt lat="48.14842" lon="-3.31805">
        <ele>250.7</ele>
        <time>2024-11-20T11:07:51Z</time>
      </trkpt>
      <trkpt lat="48.14842" lon="-3.31805">
        <ele>250.7</ele>
        <time>2024-11-20T11:07:52Z</time>
      </trkpt>
      <trkpt lat="48.14842" lon="-3.31805">
        <ele>250.7</ele>
        <time>2024-11-20T11:07:53Z</time>
      </trkpt>
      <trkpt lat="48.14842" lon="-3.31806">
        <ele>250.6</ele>
        <time>2024-11-20T11:07:54Z</time>
      </trkpt>
      <trkpt lat="48.14842" lon="-3.31806">
        <ele>250.7</ele>
        <time>2024-11-20T11:07:55Z</time>
      </trkpt>
      <trkpt lat="48.14843" lon="-3.31805">
        <ele>250.7</ele>
        <time>2024-11-20T11:07:56Z</time>
      </trkpt>
      <trkpt lat="48.14843" lon="-3.31806">
        <ele>250.7</ele>
        <time>2024-11-20T11:07:57Z</time>
      </trkpt>
      <trkpt lat="48.14843" lon="-3.31805">
        <ele>250.7</ele>
        <time>2024-11-20T11:07:58Z</time>
      </trkpt>
      <trkpt lat="48.14843" lon="-3.31805">
        <ele>250.7</ele>
        <time>2024-11-20T11:07:59Z</time>
      </trkpt>
      <trkpt lat="48.14843" lon="-3.31805">
        <ele>250.7</ele>
        <time>2024-11-20T11:08:00Z</time>
      </trkpt>
      <trkpt lat="48.14843" lon="-3.31805">
        <ele>250.7</ele>
        <time>2024-11-20T11:08:01Z</time>
      </trkpt>
      <trkpt lat="48.14843" lon="-3.31805">
        <ele>250.7</ele>
        <time>2024-11-20T11:08:02Z</time>
      </trkpt>
      <trkpt lat="48.14843" lon="-3.31805">
        <ele>250.7</ele>
        <time>2024-11-20T11:08:03Z</time>
      </trkpt>
      <trkpt lat="48.14843" lon="-3.31806">
        <ele>250.7</ele>
        <time>2024-11-20T11:08:04Z</time>
      </trkpt>
      <trkpt lat="48.14843" lon="-3.31805">
        <ele>250.7</ele>
        <time>2024-11-20T11:08:05Z</time>
      </trkpt>
      <trkpt lat="48.14844" lon="-3.31805">
        <ele>250.8</ele>
        <time>2024-11-20T11:08:06Z</time>
      </trkpt>
      <trkpt lat="48.14844" lon="-3.31806">
        <ele>250.8</ele>
        <time>2024-11-20T11:08:07Z</time>
      </trkpt>
      <trkpt lat="48.14845" lon="-3.31806">
        <ele>250.8</ele>
        <time>2024-11-20T11:08:08Z</time>
      </trkpt>
      <trkpt lat="48.14846" lon="-3.31806">
        <ele>250.8</ele>
        <time>2024-11-20T11:08:09Z</time>
      </trkpt>
      <trkpt lat="48.14846" lon="-3.31807">
        <ele>250.8</ele>
        <time>2024-11-20T11:08:10Z</time>
      </trkpt>
      <trkpt lat="48.14847" lon="-3.31807">
        <ele>250.9</ele>
        <time>2024-11-20T11:08:11Z</time>
      </trkpt>
      <trkpt lat="48.14848" lon="-3.31808">
        <ele>250.9</ele>
        <time>2024-11-20T11:08:12Z</time>
      </trkpt>
      <trkpt lat="48.14849" lon="-3.31808">
        <ele>250.9</ele>
        <time>2024-11-20T11:08:13Z</time>
      </trkpt>
      <trkpt lat="48.14849" lon="-3.31808">
        <ele>251</ele>
        <time>2024-11-20T11:08:14Z</time>
      </trkpt>
      <trkpt lat="48.1485" lon="-3.31808">
        <ele>251</ele>
        <time>2024-11-20T11:08:15Z</time>
      </trkpt>
      <trkpt lat="48.1485" lon="-3.31809">
        <ele>251</ele>
        <time>2024-11-20T11:08:16Z</time>
      </trkpt>
      <trkpt lat="48.14851" lon="-3.3181">
        <ele>251</ele>
        <time>2024-11-20T11:08:17Z</time>
      </trkpt>
      <trkpt lat="48.14851" lon="-3.31811">
        <ele>250.9</ele>
        <time>2024-11-20T11:08:18Z</time>
      </trkpt>
      <trkpt lat="48.14852" lon="-3.31811">
        <ele>250.9</ele>
        <time>2024-11-20T11:08:19Z</time>
      </trkpt>
      <trkpt lat="48.14852" lon="-3.31812">
        <ele>250.9</ele>
        <time>2024-11-20T11:08:20Z</time>
      </trkpt>
      <trkpt lat="48.14853" lon="-3.31813">
        <ele>250.9</ele>
        <time>2024-11-20T11:08:21Z</time>
      </trkpt>
      <trkpt lat="48.14853" lon="-3.31815">
        <ele>250.8</ele>
        <time>2024-11-20T11:08:22Z</time>
      </trkpt>
      <trkpt lat="48.14853" lon="-3.31817">
        <ele>250.6</ele>
        <time>2024-11-20T11:08:23Z</time>
      </trkpt>
      <trkpt lat="48.14853" lon="-3.31818">
        <ele>250.5</ele>
        <time>2024-11-20T11:08:24Z</time>
      </trkpt>
      <trkpt lat="48.14854" lon="-3.3182">
        <ele>250.4</ele>
        <time>2024-11-20T11:08:25Z</time>
      </trkpt>
      <trkpt lat="48.14854" lon="-3.31821">
        <ele>250.4</ele>
        <time>2024-11-20T11:08:26Z</time>
      </trkpt>
      <trkpt lat="48.14855" lon="-3.31822">
        <ele>250.4</ele>
        <time>2024-11-20T11:08:27Z</time>
      </trkpt>
      <trkpt lat="48.14855" lon="-3.31822">
        <ele>250.4</ele>
        <time>2024-11-20T11:08:28Z</time>
      </trkpt>
      <trkpt lat="48.14856" lon="-3.31823">
        <ele>250.4</ele>
        <time>2024-11-20T11:08:29Z</time>
      </trkpt>
      <trkpt lat="48.14858" lon="-3.31823">
        <ele>250.5</ele>
        <time>2024-11-20T11:08:30Z</time>
      </trkpt>
      <trkpt lat="48.14859" lon="-3.31823">
        <ele>250.6</ele>
        <time>2024-11-20T11:08:31Z</time>
      </trkpt>
      <trkpt lat="48.14861" lon="-3.31823">
        <ele>250.7</ele>
        <time>2024-11-20T11:08:32Z</time>
      </trkpt>
      <trkpt lat="48.14862" lon="-3.31824">
        <ele>250.7</ele>
        <time>2024-11-20T11:08:33Z</time>
      </trkpt>
      <trkpt lat="48.14863" lon="-3.31825">
        <ele>250.7</ele>
        <time>2024-11-20T11:08:34Z</time>
      </trkpt>
      <trkpt lat="48.14864" lon="-3.31826">
        <ele>250.7</ele>
        <time>2024-11-20T11:08:35Z</time>
      </trkpt>
      <trkpt lat="48.14865" lon="-3.31827">
        <ele>250.6</ele>
        <time>2024-11-20T11:08:36Z</time>
      </trkpt>
      <trkpt lat="48.14866" lon="-3.31829">
        <ele>250.5</ele>
        <time>2024-11-20T11:08:37Z</time>
      </trkpt>
      <trkpt lat="48.14867" lon="-3.3183">
        <ele>250.4</ele>
        <time>2024-11-20T11:08:38Z</time>
      </trkpt>
      <trkpt lat="48.14868" lon="-3.31831">
        <ele>250.4</ele>
        <time>2024-11-20T11:08:39Z</time>
      </trkpt>
      <trkpt lat="48.14869" lon="-3.31832">
        <ele>250.4</ele>
        <time>2024-11-20T11:08:40Z</time>
      </trkpt>
      <trkpt lat="48.1487" lon="-3.31832">
        <ele>250.4</ele>
        <time>2024-11-20T11:08:41Z</time>
      </trkpt>
      <trkpt lat="48.14871" lon="-3.31833">
        <ele>250.4</ele>
        <time>2024-11-20T11:08:42Z</time>
      </trkpt>
      <trkpt lat="48.14871" lon="-3.31833">
        <ele>250.4</ele>
        <time>2024-11-20T11:08:43Z</time>
      </trkpt>
      <trkpt lat="48.14872" lon="-3.31834">
        <ele>250.4</ele>
        <time>2024-11-20T11:08:44Z</time>
      </trkpt>
      <trkpt lat="48.14873" lon="-3.31834">
        <ele>250.3</ele>
        <time>2024-11-20T11:08:45Z</time>
      </trkpt>
      <trkpt lat="48.14874" lon="-3.31835">
        <ele>250.3</ele>
        <time>2024-11-20T11:08:46Z</time>
      </trkpt>
      <trkpt lat="48.14875" lon="-3.31835">
        <ele>250.3</ele>
        <time>2024-11-20T11:08:47Z</time>
      </trkpt>
      <trkpt lat="48.14876" lon="-3.31836">
        <ele>250.3</ele>
        <time>2024-11-20T11:08:48Z</time>
      </trkpt>
      <trkpt lat="48.14877" lon="-3.31836">
        <ele>250.3</ele>
        <time>2024-11-20T11:08:49Z</time>
      </trkpt>
      <trkpt lat="48.14878" lon="-3.31836">
        <ele>250.3</ele>
        <time>2024-11-20T11:08:50Z</time>
      </trkpt>
      <trkpt lat="48.14879" lon="-3.31837">
        <ele>250.3</ele>
        <time>2024-11-20T11:08:51Z</time>
      </trkpt>
      <trkpt lat="48.1488" lon="-3.31837">
        <ele>250.3</ele>
        <time>2024-11-20T11:08:52Z</time>
      </trkpt>
      <trkpt lat="48.1488" lon="-3.31837">
        <ele>250.3</ele>
        <time>2024-11-20T11:08:53Z</time>
      </trkpt>
      <trkpt lat="48.14881" lon="-3.31837">
        <ele>250.3</ele>
        <time>2024-11-20T11:08:54Z</time>
      </trkpt>
      <trkpt lat="48.14882" lon="-3.31838">
        <ele>250.3</ele>
        <time>2024-11-20T11:08:55Z</time>
      </trkpt>
      <trkpt lat="48.14883" lon="-3.31838">
        <ele>250.3</ele>
        <time>2024-11-20T11:08:56Z</time>
      </trkpt>
      <trkpt lat="48.14884" lon="-3.31839">
        <ele>250.2</ele>
        <time>2024-11-20T11:08:57Z</time>
      </trkpt>
      <trkpt lat="48.14885" lon="-3.31839">
        <ele>250.3</ele>
        <time>2024-11-20T11:08:58Z</time>
      </trkpt>
      <trkpt lat="48.14886" lon="-3.31839">
        <ele>250.3</ele>
        <time>2024-11-20T11:08:59Z</time>
      </trkpt>
      <trkpt lat="48.14888" lon="-3.31839">
        <ele>250.3</ele>
        <time>2024-11-20T11:09:00Z</time>
      </trkpt>
      <trkpt lat="48.14889" lon="-3.31839">
        <ele>250.4</ele>
        <time>2024-11-20T11:09:01Z</time>
      </trkpt>
      <trkpt lat="48.1489" lon="-3.3184">
        <ele>250.4</ele>
        <time>2024-11-20T11:09:02Z</time>
      </trkpt>
      <trkpt lat="48.14891" lon="-3.31841">
        <ele>250.3</ele>
        <time>2024-11-20T11:09:03Z</time>
      </trkpt>
      <trkpt lat="48.14891" lon="-3.31842">
        <ele>250.2</ele>
        <time>2024-11-20T11:09:04Z</time>
      </trkpt>
      <trkpt lat="48.14891" lon="-3.31843">
        <ele>250.1</ele>
        <time>2024-11-20T11:09:05Z</time>
      </trkpt>
      <trkpt lat="48.14891" lon="-3.31843">
        <ele>250.1</ele>
        <time>2024-11-20T11:09:06Z</time>
      </trkpt>
      <trkpt lat="48.14892" lon="-3.31843">
        <ele>250.1</ele>
        <time>2024-11-20T11:09:07Z</time>
      </trkpt>
      <trkpt lat="48.14893" lon="-3.31843">
        <ele>250.2</ele>
        <time>2024-11-20T11:09:08Z</time>
      </trkpt>
      <trkpt lat="48.14894" lon="-3.31842">
        <ele>250.4</ele>
        <time>2024-11-20T11:09:09Z</time>
      </trkpt>
      <trkpt lat="48.14895" lon="-3.31841">
        <ele>250.6</ele>
        <time>2024-11-20T11:09:10Z</time>
      </trkpt>
      <trkpt lat="48.14896" lon="-3.3184">
        <ele>250.8</ele>
        <time>2024-11-20T11:09:11Z</time>
      </trkpt>
      <trkpt lat="48.14897" lon="-3.3184">
        <ele>250.8</ele>
        <time>2024-11-20T11:09:12Z</time>
      </trkpt>
      <trkpt lat="48.14898" lon="-3.31839">
        <ele>250.9</ele>
        <time>2024-11-20T11:09:13Z</time>
      </trkpt>
      <trkpt lat="48.14899" lon="-3.3184">
        <ele>250.9</ele>
        <time>2024-11-20T11:09:14Z</time>
      </trkpt>
      <trkpt lat="48.149" lon="-3.3184">
        <ele>250.9</ele>
        <time>2024-11-20T11:09:15Z</time>
      </trkpt>
      <trkpt lat="48.149" lon="-3.31841">
        <ele>250.9</ele>
        <time>2024-11-20T11:09:16Z</time>
      </trkpt>
      <trkpt lat="48.14902" lon="-3.31841">
        <ele>251</ele>
        <time>2024-11-20T11:09:17Z</time>
      </trkpt>
      <trkpt lat="48.14902" lon="-3.3184">
        <ele>251.2</ele>
        <time>2024-11-20T11:09:18Z</time>
      </trkpt>
      <trkpt lat="48.14903" lon="-3.31839">
        <ele>251.2</ele>
        <time>2024-11-20T11:09:19Z</time>
      </trkpt>
      <trkpt lat="48.14904" lon="-3.3184">
        <ele>251.3</ele>
        <time>2024-11-20T11:09:20Z</time>
      </trkpt>
      <trkpt lat="48.14905" lon="-3.31841">
        <ele>251.2</ele>
        <time>2024-11-20T11:09:21Z</time>
      </trkpt>
      <trkpt lat="48.14905" lon="-3.31842">
        <ele>251.1</ele>
        <time>2024-11-20T11:09:22Z</time>
      </trkpt>
      <trkpt lat="48.14906" lon="-3.31843">
        <ele>250.9</ele>
        <time>2024-11-20T11:09:23Z</time>
      </trkpt>
      <trkpt lat="48.14907" lon="-3.31844">
        <ele>250.8</ele>
        <time>2024-11-20T11:09:24Z</time>
      </trkpt>
      <trkpt lat="48.14907" lon="-3.31845">
        <ele>250.8</ele>
        <time>2024-11-20T11:09:25Z</time>
      </trkpt>
      <trkpt lat="48.14908" lon="-3.31846">
        <ele>250.7</ele>
        <time>2024-11-20T11:09:26Z</time>
      </trkpt>
      <trkpt lat="48.14908" lon="-3.31848">
        <ele>250.4</ele>
        <time>2024-11-20T11:09:27Z</time>
      </trkpt>
      <trkpt lat="48.14909" lon="-3.31849">
        <ele>250.3</ele>
        <time>2024-11-20T11:09:28Z</time>
      </trkpt>
      <trkpt lat="48.1491" lon="-3.31849">
        <ele>250.5</ele>
        <time>2024-11-20T11:09:29Z</time>
      </trkpt>
      <trkpt lat="48.14911" lon="-3.31848">
        <ele>250.7</ele>
        <time>2024-11-20T11:09:30Z</time>
      </trkpt>
      <trkpt lat="48.14912" lon="-3.31847">
        <ele>250.8</ele>
        <time>2024-11-20T11:09:31Z</time>
      </trkpt>
      <trkpt lat="48.14913" lon="-3.31847">
        <ele>250.8</ele>
        <time>2024-11-20T11:09:32Z</time>
      </trkpt>
      <trkpt lat="48.14914" lon="-3.31848">
        <ele>250.8</ele>
        <time>2024-11-20T11:09:33Z</time>
      </trkpt>
      <trkpt lat="48.14915" lon="-3.3185">
        <ele>250.5</ele>
        <time>2024-11-20T11:09:34Z</time>
      </trkpt>
      <trkpt lat="48.14916" lon="-3.31853">
        <ele>250.1</ele>
        <time>2024-11-20T11:09:35Z</time>
      </trkpt>
      <trkpt lat="48.14917" lon="-3.31855">
        <ele>249.8</ele>
        <time>2024-11-20T11:09:36Z</time>
      </trkpt>
      <trkpt lat="48.14918" lon="-3.31858">
        <ele>249.6</ele>
        <time>2024-11-20T11:09:37Z</time>
      </trkpt>
      <trkpt lat="48.1492" lon="-3.3186">
        <ele>249.4</ele>
        <time>2024-11-20T11:09:38Z</time>
      </trkpt>
      <trkpt lat="48.14921" lon="-3.31861">
        <ele>249.4</ele>
        <time>2024-11-20T11:09:39Z</time>
      </trkpt>
      <trkpt lat="48.14922" lon="-3.31862">
        <ele>249.3</ele>
        <time>2024-11-20T11:09:40Z</time>
      </trkpt>
      <trkpt lat="48.14924" lon="-3.31862">
        <ele>249.4</ele>
        <time>2024-11-20T11:09:41Z</time>
      </trkpt>
      <trkpt lat="48.14925" lon="-3.31863">
        <ele>249.4</ele>
        <time>2024-11-20T11:09:42Z</time>
      </trkpt>
      <trkpt lat="48.14926" lon="-3.31863">
        <ele>249.5</ele>
        <time>2024-11-20T11:09:43Z</time>
      </trkpt>
      <trkpt lat="48.14926" lon="-3.31862">
        <ele>249.6</ele>
        <time>2024-11-20T11:09:44Z</time>
      </trkpt>
      <trkpt lat="48.14927" lon="-3.31861">
        <ele>249.8</ele>
        <time>2024-11-20T11:09:45Z</time>
      </trkpt>
      <trkpt lat="48.14928" lon="-3.31861">
        <ele>249.9</ele>
        <time>2024-11-20T11:09:46Z</time>
      </trkpt>
      <trkpt lat="48.1493" lon="-3.31862">
        <ele>249.9</ele>
        <time>2024-11-20T11:09:47Z</time>
      </trkpt>
      <trkpt lat="48.14931" lon="-3.31863">
        <ele>249.9</ele>
        <time>2024-11-20T11:09:48Z</time>
      </trkpt>
      <trkpt lat="48.14933" lon="-3.31864">
        <ele>249.9</ele>
        <time>2024-11-20T11:09:49Z</time>
      </trkpt>
      <trkpt lat="48.14934" lon="-3.31865">
        <ele>249.8</ele>
        <time>2024-11-20T11:09:50Z</time>
      </trkpt>
      <trkpt lat="48.14935" lon="-3.31867">
        <ele>249.7</ele>
        <time>2024-11-20T11:09:51Z</time>
      </trkpt>
      <trkpt lat="48.14936" lon="-3.31869">
        <ele>249.6</ele>
        <time>2024-11-20T11:09:52Z</time>
      </trkpt>
      <trkpt lat="48.14937" lon="-3.3187">
        <ele>249.5</ele>
        <time>2024-11-20T11:09:53Z</time>
      </trkpt>
      <trkpt lat="48.14938" lon="-3.31871">
        <ele>249.5</ele>
        <time>2024-11-20T11:09:54Z</time>
      </trkpt>
      <trkpt lat="48.14939" lon="-3.31872">
        <ele>249.5</ele>
        <time>2024-11-20T11:09:55Z</time>
      </trkpt>
      <trkpt lat="48.1494" lon="-3.31872">
        <ele>249.4</ele>
        <time>2024-11-20T11:09:56Z</time>
      </trkpt>
      <trkpt lat="48.14941" lon="-3.31874">
        <ele>249.4</ele>
        <time>2024-11-20T11:09:57Z</time>
      </trkpt>
      <trkpt lat="48.14941" lon="-3.31876">
        <ele>249.1</ele>
        <time>2024-11-20T11:09:58Z</time>
      </trkpt>
      <trkpt lat="48.14942" lon="-3.31878">
        <ele>249</ele>
        <time>2024-11-20T11:09:59Z</time>
      </trkpt>
      <trkpt lat="48.14943" lon="-3.31879">
        <ele>249</ele>
        <time>2024-11-20T11:10:00Z</time>
      </trkpt>
      <trkpt lat="48.14944" lon="-3.3188">
        <ele>248.9</ele>
        <time>2024-11-20T11:10:01Z</time>
      </trkpt>
      <trkpt lat="48.14945" lon="-3.31881">
        <ele>248.9</ele>
        <time>2024-11-20T11:10:02Z</time>
      </trkpt>
      <trkpt lat="48.14946" lon="-3.31881">
        <ele>248.9</ele>
        <time>2024-11-20T11:10:03Z</time>
      </trkpt>
      <trkpt lat="48.14947" lon="-3.31882">
        <ele>248.9</ele>
        <time>2024-11-20T11:10:04Z</time>
      </trkpt>
      <trkpt lat="48.14948" lon="-3.31883">
        <ele>248.9</ele>
        <time>2024-11-20T11:10:05Z</time>
      </trkpt>
      <trkpt lat="48.1495" lon="-3.31885">
        <ele>248.8</ele>
        <time>2024-11-20T11:10:06Z</time>
      </trkpt>
      <trkpt lat="48.14951" lon="-3.31886">
        <ele>248.7</ele>
        <time>2024-11-20T11:10:07Z</time>
      </trkpt>
      <trkpt lat="48.14952" lon="-3.31888">
        <ele>248.7</ele>
        <time>2024-11-20T11:10:08Z</time>
      </trkpt>
      <trkpt lat="48.14953" lon="-3.3189">
        <ele>248.6</ele>
        <time>2024-11-20T11:10:09Z</time>
      </trkpt>
      <trkpt lat="48.14955" lon="-3.31891">
        <ele>248.6</ele>
        <time>2024-11-20T11:10:10Z</time>
      </trkpt>
      <trkpt lat="48.14957" lon="-3.31892">
        <ele>248.6</ele>
        <time>2024-11-20T11:10:11Z</time>
      </trkpt>
      <trkpt lat="48.14959" lon="-3.31894">
        <ele>248.6</ele>
        <time>2024-11-20T11:10:12Z</time>
      </trkpt>
      <trkpt lat="48.1496" lon="-3.31894">
        <ele>248.6</ele>
        <time>2024-11-20T11:10:13Z</time>
      </trkpt>
      <trkpt lat="48.1496" lon="-3.31895">
        <ele>248.6</ele>
        <time>2024-11-20T11:10:14Z</time>
      </trkpt>
      <trkpt lat="48.14962" lon="-3.31896">
        <ele>248.6</ele>
        <time>2024-11-20T11:10:15Z</time>
      </trkpt>
      <trkpt lat="48.14963" lon="-3.31897">
        <ele>248.5</ele>
        <time>2024-11-20T11:10:16Z</time>
      </trkpt>
      <trkpt lat="48.14964" lon="-3.31898">
        <ele>248.5</ele>
        <time>2024-11-20T11:10:17Z</time>
      </trkpt>
      <trkpt lat="48.14965" lon="-3.31899">
        <ele>248.5</ele>
        <time>2024-11-20T11:10:18Z</time>
      </trkpt>
      <trkpt lat="48.14966" lon="-3.31899">
        <ele>248.5</ele>
        <time>2024-11-20T11:10:19Z</time>
      </trkpt>
      <trkpt lat="48.14968" lon="-3.31901">
        <ele>248.5</ele>
        <time>2024-11-20T11:10:20Z</time>
      </trkpt>
      <trkpt lat="48.14969" lon="-3.31902">
        <ele>248.4</ele>
        <time>2024-11-20T11:10:21Z</time>
      </trkpt>
      <trkpt lat="48.1497" lon="-3.31903">
        <ele>248.4</ele>
        <time>2024-11-20T11:10:22Z</time>
      </trkpt>
      <trkpt lat="48.14971" lon="-3.31904">
        <ele>248.3</ele>
        <time>2024-11-20T11:10:23Z</time>
      </trkpt>
      <trkpt lat="48.14972" lon="-3.31905">
        <ele>248.2</ele>
        <time>2024-11-20T11:10:24Z</time>
      </trkpt>
      <trkpt lat="48.14973" lon="-3.31907">
        <ele>248.1</ele>
        <time>2024-11-20T11:10:25Z</time>
      </trkpt>
      <trkpt lat="48.14974" lon="-3.31909">
        <ele>247.9</ele>
        <time>2024-11-20T11:10:26Z</time>
      </trkpt>
      <trkpt lat="48.14975" lon="-3.31912">
        <ele>247.7</ele>
        <time>2024-11-20T11:10:27Z</time>
      </trkpt>
      <trkpt lat="48.14975" lon="-3.31914">
        <ele>247.5</ele>
        <time>2024-11-20T11:10:28Z</time>
      </trkpt>
      <trkpt lat="48.14976" lon="-3.31916">
        <ele>247.3</ele>
        <time>2024-11-20T11:10:29Z</time>
      </trkpt>
      <trkpt lat="48.14977" lon="-3.31919">
        <ele>247.2</ele>
        <time>2024-11-20T11:10:30Z</time>
      </trkpt>
      <trkpt lat="48.14978" lon="-3.31921">
        <ele>247.1</ele>
        <time>2024-11-20T11:10:31Z</time>
      </trkpt>
      <trkpt lat="48.14979" lon="-3.31923">
        <ele>247</ele>
        <time>2024-11-20T11:10:32Z</time>
      </trkpt>
      <trkpt lat="48.1498" lon="-3.31925">
        <ele>246.9</ele>
        <time>2024-11-20T11:10:33Z</time>
      </trkpt>
      <trkpt lat="48.1498" lon="-3.31927">
        <ele>246.8</ele>
        <time>2024-11-20T11:10:34Z</time>
      </trkpt>
      <trkpt lat="48.1498" lon="-3.31928">
        <ele>246.8</ele>
        <time>2024-11-20T11:10:35Z</time>
      </trkpt>
      <trkpt lat="48.1498" lon="-3.31928">
        <ele>246.8</ele>
        <time>2024-11-20T11:10:36Z</time>
      </trkpt>
      <trkpt lat="48.14981" lon="-3.31929">
        <ele>246.8</ele>
        <time>2024-11-20T11:10:37Z</time>
      </trkpt>
      <trkpt lat="48.14982" lon="-3.31929">
        <ele>246.8</ele>
        <time>2024-11-20T11:10:38Z</time>
      </trkpt>
      <trkpt lat="48.14983" lon="-3.31929">
        <ele>246.9</ele>
        <time>2024-11-20T11:10:39Z</time>
      </trkpt>
      <trkpt lat="48.14984" lon="-3.31931">
        <ele>246.9</ele>
        <time>2024-11-20T11:10:40Z</time>
      </trkpt>
      <trkpt lat="48.14985" lon="-3.31933">
        <ele>246.7</ele>
        <time>2024-11-20T11:10:41Z</time>
      </trkpt>
      <trkpt lat="48.14986" lon="-3.31936">
        <ele>246.6</ele>
        <time>2024-11-20T11:10:42Z</time>
      </trkpt>
      <trkpt lat="48.14987" lon="-3.31938">
        <ele>246.5</ele>
        <time>2024-11-20T11:10:43Z</time>
      </trkpt>
      <trkpt lat="48.14988" lon="-3.31939">
        <ele>246.5</ele>
        <time>2024-11-20T11:10:44Z</time>
      </trkpt>
      <trkpt lat="48.14988" lon="-3.31941">
        <ele>246.4</ele>
        <time>2024-11-20T11:10:45Z</time>
      </trkpt>
      <trkpt lat="48.14989" lon="-3.31942">
        <ele>246.4</ele>
        <time>2024-11-20T11:10:46Z</time>
      </trkpt>
      <trkpt lat="48.1499" lon="-3.31944">
        <ele>246.3</ele>
        <time>2024-11-20T11:10:47Z</time>
      </trkpt>
      <trkpt lat="48.1499" lon="-3.31945">
        <ele>246.2</ele>
        <time>2024-11-20T11:10:48Z</time>
      </trkpt>
      <trkpt lat="48.14991" lon="-3.31946">
        <ele>246.2</ele>
        <time>2024-11-20T11:10:49Z</time>
      </trkpt>
      <trkpt lat="48.14992" lon="-3.31946">
        <ele>246.3</ele>
        <time>2024-11-20T11:10:50Z</time>
      </trkpt>
      <trkpt lat="48.14994" lon="-3.31946">
        <ele>246.4</ele>
        <time>2024-11-20T11:10:51Z</time>
      </trkpt>
      <trkpt lat="48.14995" lon="-3.31945">
        <ele>246.5</ele>
        <time>2024-11-20T11:10:52Z</time>
      </trkpt>
      <trkpt lat="48.14996" lon="-3.31945">
        <ele>246.6</ele>
        <time>2024-11-20T11:10:53Z</time>
      </trkpt>
      <trkpt lat="48.14997" lon="-3.31945">
        <ele>246.7</ele>
        <time>2024-11-20T11:10:54Z</time>
      </trkpt>
      <trkpt lat="48.14999" lon="-3.31946">
        <ele>246.7</ele>
        <time>2024-11-20T11:10:55Z</time>
      </trkpt>
      <trkpt lat="48.15001" lon="-3.31947">
        <ele>246.7</ele>
        <time>2024-11-20T11:10:56Z</time>
      </trkpt>
      <trkpt lat="48.15002" lon="-3.31948">
        <ele>246.7</ele>
        <time>2024-11-20T11:10:57Z</time>
      </trkpt>
      <trkpt lat="48.15003" lon="-3.31949">
        <ele>246.6</ele>
        <time>2024-11-20T11:10:58Z</time>
      </trkpt>
      <trkpt lat="48.15004" lon="-3.31949">
        <ele>246.6</ele>
        <time>2024-11-20T11:10:59Z</time>
      </trkpt>
      <trkpt lat="48.15005" lon="-3.3195">
        <ele>246.6</ele>
        <time>2024-11-20T11:11:00Z</time>
      </trkpt>
      <trkpt lat="48.15006" lon="-3.31951">
        <ele>246.5</ele>
        <time>2024-11-20T11:11:01Z</time>
      </trkpt>
      <trkpt lat="48.15007" lon="-3.31952">
        <ele>246.5</ele>
        <time>2024-11-20T11:11:02Z</time>
      </trkpt>
      <trkpt lat="48.15008" lon="-3.31952">
        <ele>246.5</ele>
        <time>2024-11-20T11:11:03Z</time>
      </trkpt>
      <trkpt lat="48.15009" lon="-3.31953">
        <ele>246.4</ele>
        <time>2024-11-20T11:11:04Z</time>
      </trkpt>
      <trkpt lat="48.15009" lon="-3.31953">
        <ele>246.4</ele>
        <time>2024-11-20T11:11:05Z</time>
      </trkpt>
      <trkpt lat="48.15009" lon="-3.31953">
        <ele>246.4</ele>
        <time>2024-11-20T11:11:06Z</time>
      </trkpt>
      <trkpt lat="48.1501" lon="-3.31954">
        <ele>246.3</ele>
        <time>2024-11-20T11:11:07Z</time>
      </trkpt>
      <trkpt lat="48.15011" lon="-3.31955">
        <ele>246.3</ele>
        <time>2024-11-20T11:11:08Z</time>
      </trkpt>
      <trkpt lat="48.15012" lon="-3.31956">
        <ele>246.2</ele>
        <time>2024-11-20T11:11:09Z</time>
      </trkpt>
      <trkpt lat="48.15014" lon="-3.31956">
        <ele>246.2</ele>
        <time>2024-11-20T11:11:10Z</time>
      </trkpt>
      <trkpt lat="48.15015" lon="-3.31957">
        <ele>246.2</ele>
        <time>2024-11-20T11:11:11Z</time>
      </trkpt>
      <trkpt lat="48.15016" lon="-3.31957">
        <ele>246.2</ele>
        <time>2024-11-20T11:11:12Z</time>
      </trkpt>
      <trkpt lat="48.15017" lon="-3.31957">
        <ele>246.2</ele>
        <time>2024-11-20T11:11:13Z</time>
      </trkpt>
      <trkpt lat="48.15019" lon="-3.31958">
        <ele>246.3</ele>
        <time>2024-11-20T11:11:14Z</time>
      </trkpt>
      <trkpt lat="48.1502" lon="-3.31958">
        <ele>246.2</ele>
        <time>2024-11-20T11:11:15Z</time>
      </trkpt>
      <trkpt lat="48.15021" lon="-3.3196">
        <ele>246.1</ele>
        <time>2024-11-20T11:11:16Z</time>
      </trkpt>
      <trkpt lat="48.15023" lon="-3.31961">
        <ele>246</ele>
        <time>2024-11-20T11:11:17Z</time>
      </trkpt>
      <trkpt lat="48.15024" lon="-3.31962">
        <ele>246</ele>
        <time>2024-11-20T11:11:18Z</time>
      </trkpt>
      <trkpt lat="48.15025" lon="-3.31962">
        <ele>246</ele>
        <time>2024-11-20T11:11:19Z</time>
      </trkpt>
      <trkpt lat="48.15026" lon="-3.31963">
        <ele>245.9</ele>
        <time>2024-11-20T11:11:20Z</time>
      </trkpt>
      <trkpt lat="48.15027" lon="-3.31964">
        <ele>245.8</ele>
        <time>2024-11-20T11:11:21Z</time>
      </trkpt>
      <trkpt lat="48.15029" lon="-3.31965">
        <ele>245.8</ele>
        <time>2024-11-20T11:11:22Z</time>
      </trkpt>
      <trkpt lat="48.15029" lon="-3.31965">
        <ele>245.8</ele>
        <time>2024-11-20T11:11:23Z</time>
      </trkpt>
      <trkpt lat="48.1503" lon="-3.31965">
        <ele>245.8</ele>
        <time>2024-11-20T11:11:24Z</time>
      </trkpt>
      <trkpt lat="48.15031" lon="-3.31965">
        <ele>245.8</ele>
        <time>2024-11-20T11:11:25Z</time>
      </trkpt>
      <trkpt lat="48.15033" lon="-3.31965">
        <ele>245.8</ele>
        <time>2024-11-20T11:11:26Z</time>
      </trkpt>
      <trkpt lat="48.15034" lon="-3.31965">
        <ele>245.8</ele>
        <time>2024-11-20T11:11:27Z</time>
      </trkpt>
      <trkpt lat="48.15035" lon="-3.31965">
        <ele>245.8</ele>
        <time>2024-11-20T11:11:28Z</time>
      </trkpt>
      <trkpt lat="48.15037" lon="-3.31966">
        <ele>245.8</ele>
        <time>2024-11-20T11:11:29Z</time>
      </trkpt>
      <trkpt lat="48.15038" lon="-3.31966">
        <ele>245.7</ele>
        <time>2024-11-20T11:11:30Z</time>
      </trkpt>
      <trkpt lat="48.1504" lon="-3.31967">
        <ele>245.7</ele>
        <time>2024-11-20T11:11:31Z</time>
      </trkpt>
      <trkpt lat="48.15041" lon="-3.31968">
        <ele>245.5</ele>
        <time>2024-11-20T11:11:32Z</time>
      </trkpt>
      <trkpt lat="48.15041" lon="-3.31968">
        <ele>245.5</ele>
        <time>2024-11-20T11:11:33Z</time>
      </trkpt>
      <trkpt lat="48.15042" lon="-3.31969">
        <ele>245.5</ele>
        <time>2024-11-20T11:11:34Z</time>
      </trkpt>
      <trkpt lat="48.15043" lon="-3.31968">
        <ele>245.5</ele>
        <time>2024-11-20T11:11:35Z</time>
      </trkpt>
      <trkpt lat="48.15044" lon="-3.31967">
        <ele>245.6</ele>
        <time>2024-11-20T11:11:36Z</time>
      </trkpt>
      <trkpt lat="48.15046" lon="-3.31967">
        <ele>245.7</ele>
        <time>2024-11-20T11:11:37Z</time>
      </trkpt>
      <trkpt lat="48.15047" lon="-3.31966">
        <ele>245.8</ele>
        <time>2024-11-20T11:11:38Z</time>
      </trkpt>
      <trkpt lat="48.15049" lon="-3.31966">
        <ele>245.9</ele>
        <time>2024-11-20T11:11:39Z</time>
      </trkpt>
      <trkpt lat="48.1505" lon="-3.31966">
        <ele>245.9</ele>
        <time>2024-11-20T11:11:40Z</time>
      </trkpt>
      <trkpt lat="48.15052" lon="-3.31966">
        <ele>245.8</ele>
        <time>2024-11-20T11:11:41Z</time>
      </trkpt>
      <trkpt lat="48.15053" lon="-3.31967">
        <ele>245.7</ele>
        <time>2024-11-20T11:11:42Z</time>
      </trkpt>
      <trkpt lat="48.15054" lon="-3.31968">
        <ele>245.7</ele>
        <time>2024-11-20T11:11:43Z</time>
      </trkpt>
      <trkpt lat="48.15055" lon="-3.31969">
        <ele>245.5</ele>
        <time>2024-11-20T11:11:44Z</time>
      </trkpt>
      <trkpt lat="48.15056" lon="-3.3197">
        <ele>245.4</ele>
        <time>2024-11-20T11:11:45Z</time>
      </trkpt>
      <trkpt lat="48.15057" lon="-3.31971">
        <ele>245.2</ele>
        <time>2024-11-20T11:11:46Z</time>
      </trkpt>
      <trkpt lat="48.15058" lon="-3.31971">
        <ele>245.2</ele>
        <time>2024-11-20T11:11:47Z</time>
      </trkpt>
      <trkpt lat="48.15059" lon="-3.31972">
        <ele>245</ele>
        <time>2024-11-20T11:11:48Z</time>
      </trkpt>
      <trkpt lat="48.15061" lon="-3.31973">
        <ele>245</ele>
        <time>2024-11-20T11:11:49Z</time>
      </trkpt>
      <trkpt lat="48.15062" lon="-3.31975">
        <ele>244.7</ele>
        <time>2024-11-20T11:11:50Z</time>
      </trkpt>
      <trkpt lat="48.15063" lon="-3.31975">
        <ele>244.7</ele>
        <time>2024-11-20T11:11:51Z</time>
      </trkpt>
      <trkpt lat="48.15064" lon="-3.31977">
        <ele>244.5</ele>
        <time>2024-11-20T11:11:52Z</time>
      </trkpt>
      <trkpt lat="48.15064" lon="-3.31978">
        <ele>244.4</ele>
        <time>2024-11-20T11:11:53Z</time>
      </trkpt>
      <trkpt lat="48.15065" lon="-3.31978">
        <ele>244.4</ele>
        <time>2024-11-20T11:11:54Z</time>
      </trkpt>
      <trkpt lat="48.15066" lon="-3.31979">
        <ele>244.2</ele>
        <time>2024-11-20T11:11:55Z</time>
      </trkpt>
      <trkpt lat="48.15067" lon="-3.3198">
        <ele>244.1</ele>
        <time>2024-11-20T11:11:56Z</time>
      </trkpt>
      <trkpt lat="48.15068" lon="-3.31982">
        <ele>244</ele>
        <time>2024-11-20T11:11:57Z</time>
      </trkpt>
      <trkpt lat="48.15069" lon="-3.31982">
        <ele>243.9</ele>
        <time>2024-11-20T11:11:58Z</time>
      </trkpt>
      <trkpt lat="48.15069" lon="-3.31983">
        <ele>243.9</ele>
        <time>2024-11-20T11:11:59Z</time>
      </trkpt>
      <trkpt lat="48.15069" lon="-3.31983">
        <ele>243.8</ele>
        <time>2024-11-20T11:12:00Z</time>
      </trkpt>
      <trkpt lat="48.1507" lon="-3.31983">
        <ele>243.8</ele>
        <time>2024-11-20T11:12:01Z</time>
      </trkpt>
      <trkpt lat="48.1507" lon="-3.31984">
        <ele>243.8</ele>
        <time>2024-11-20T11:12:02Z</time>
      </trkpt>
      <trkpt lat="48.15071" lon="-3.31983">
        <ele>243.8</ele>
        <time>2024-11-20T11:12:03Z</time>
      </trkpt>
      <trkpt lat="48.15072" lon="-3.31983">
        <ele>243.8</ele>
        <time>2024-11-20T11:12:04Z</time>
      </trkpt>
      <trkpt lat="48.15073" lon="-3.31982">
        <ele>243.9</ele>
        <time>2024-11-20T11:12:05Z</time>
      </trkpt>
      <trkpt lat="48.15074" lon="-3.31981">
        <ele>244.1</ele>
        <time>2024-11-20T11:12:06Z</time>
      </trkpt>
      <trkpt lat="48.15075" lon="-3.31979">
        <ele>244.2</ele>
        <time>2024-11-20T11:12:07Z</time>
      </trkpt>
      <trkpt lat="48.15076" lon="-3.31978">
        <ele>244.4</ele>
        <time>2024-11-20T11:12:08Z</time>
      </trkpt>
      <trkpt lat="48.15078" lon="-3.31978">
        <ele>244.4</ele>
        <time>2024-11-20T11:12:09Z</time>
      </trkpt>
      <trkpt lat="48.15079" lon="-3.31978">
        <ele>244.4</ele>
        <time>2024-11-20T11:12:10Z</time>
      </trkpt>
      <trkpt lat="48.1508" lon="-3.31978">
        <ele>244.4</ele>
        <time>2024-11-20T11:12:11Z</time>
      </trkpt>
      <trkpt lat="48.15082" lon="-3.31978">
        <ele>244.4</ele>
        <time>2024-11-20T11:12:12Z</time>
      </trkpt>
      <trkpt lat="48.15083" lon="-3.31977">
        <ele>244.4</ele>
        <time>2024-11-20T11:12:13Z</time>
      </trkpt>
      <trkpt lat="48.15084" lon="-3.31978">
        <ele>244.4</ele>
        <time>2024-11-20T11:12:14Z</time>
      </trkpt>
      <trkpt lat="48.15086" lon="-3.31978">
        <ele>244.4</ele>
        <time>2024-11-20T11:12:15Z</time>
      </trkpt>
      <trkpt lat="48.15087" lon="-3.31979">
        <ele>244.3</ele>
        <time>2024-11-20T11:12:16Z</time>
      </trkpt>
      <trkpt lat="48.15089" lon="-3.3198">
        <ele>244.2</ele>
        <time>2024-11-20T11:12:17Z</time>
      </trkpt>
      <trkpt lat="48.15091" lon="-3.31981">
        <ele>244.1</ele>
        <time>2024-11-20T11:12:18Z</time>
      </trkpt>
      <trkpt lat="48.15093" lon="-3.31982">
        <ele>243.9</ele>
        <time>2024-11-20T11:12:19Z</time>
      </trkpt>
      <trkpt lat="48.15095" lon="-3.31983">
        <ele>243.8</ele>
        <time>2024-11-20T11:12:20Z</time>
      </trkpt>
      <trkpt lat="48.15096" lon="-3.31985">
        <ele>243.7</ele>
        <time>2024-11-20T11:12:21Z</time>
      </trkpt>
      <trkpt lat="48.15097" lon="-3.31985">
        <ele>243.6</ele>
        <time>2024-11-20T11:12:22Z</time>
      </trkpt>
      <trkpt lat="48.15099" lon="-3.31986">
        <ele>243.5</ele>
        <time>2024-11-20T11:12:23Z</time>
      </trkpt>
      <trkpt lat="48.151" lon="-3.31986">
        <ele>243.5</ele>
        <time>2024-11-20T11:12:24Z</time>
      </trkpt>
      <trkpt lat="48.15101" lon="-3.31987">
        <ele>243.4</ele>
        <time>2024-11-20T11:12:25Z</time>
      </trkpt>
      <trkpt lat="48.15102" lon="-3.31987">
        <ele>243.4</ele>
        <time>2024-11-20T11:12:26Z</time>
      </trkpt>
      <trkpt lat="48.15104" lon="-3.31986">
        <ele>243.5</ele>
        <time>2024-11-20T11:12:27Z</time>
      </trkpt>
      <trkpt lat="48.15105" lon="-3.31985">
        <ele>243.6</ele>
        <time>2024-11-20T11:12:28Z</time>
      </trkpt>
      <trkpt lat="48.15106" lon="-3.31985">
        <ele>243.6</ele>
        <time>2024-11-20T11:12:29Z</time>
      </trkpt>
      <trkpt lat="48.15107" lon="-3.31985">
        <ele>243.7</ele>
        <time>2024-11-20T11:12:30Z</time>
      </trkpt>
      <trkpt lat="48.15108" lon="-3.31984">
        <ele>243.7</ele>
        <time>2024-11-20T11:12:31Z</time>
      </trkpt>
      <trkpt lat="48.15109" lon="-3.31984">
        <ele>243.7</ele>
        <time>2024-11-20T11:12:32Z</time>
      </trkpt>
      <trkpt lat="48.15111" lon="-3.31984">
        <ele>243.7</ele>
        <time>2024-11-20T11:12:33Z</time>
      </trkpt>
      <trkpt lat="48.15113" lon="-3.31984">
        <ele>243.7</ele>
        <time>2024-11-20T11:12:34Z</time>
      </trkpt>
      <trkpt lat="48.15115" lon="-3.31985">
        <ele>243.5</ele>
        <time>2024-11-20T11:12:35Z</time>
      </trkpt>
      <trkpt lat="48.15117" lon="-3.31986">
        <ele>243.4</ele>
        <time>2024-11-20T11:12:36Z</time>
      </trkpt>
      <trkpt lat="48.15118" lon="-3.31987">
        <ele>243.3</ele>
        <time>2024-11-20T11:12:37Z</time>
      </trkpt>
      <trkpt lat="48.1512" lon="-3.31988">
        <ele>243.1</ele>
        <time>2024-11-20T11:12:38Z</time>
      </trkpt>
      <trkpt lat="48.15121" lon="-3.31989">
        <ele>243</ele>
        <time>2024-11-20T11:12:39Z</time>
      </trkpt>
      <trkpt lat="48.15122" lon="-3.3199">
        <ele>242.9</ele>
        <time>2024-11-20T11:12:40Z</time>
      </trkpt>
      <trkpt lat="48.15124" lon="-3.3199">
        <ele>242.8</ele>
        <time>2024-11-20T11:12:41Z</time>
      </trkpt>
      <trkpt lat="48.15125" lon="-3.3199">
        <ele>242.7</ele>
        <time>2024-11-20T11:12:42Z</time>
      </trkpt>
      <trkpt lat="48.15126" lon="-3.3199">
        <ele>242.7</ele>
        <time>2024-11-20T11:12:43Z</time>
      </trkpt>
      <trkpt lat="48.15127" lon="-3.3199">
        <ele>242.7</ele>
        <time>2024-11-20T11:12:44Z</time>
      </trkpt>
      <trkpt lat="48.15129" lon="-3.3199">
        <ele>242.7</ele>
        <time>2024-11-20T11:12:45Z</time>
      </trkpt>
      <trkpt lat="48.1513" lon="-3.31991">
        <ele>242.5</ele>
        <time>2024-11-20T11:12:46Z</time>
      </trkpt>
      <trkpt lat="48.15132" lon="-3.31992">
        <ele>242.3</ele>
        <time>2024-11-20T11:12:47Z</time>
      </trkpt>
      <trkpt lat="48.15133" lon="-3.31994">
        <ele>242</ele>
        <time>2024-11-20T11:12:48Z</time>
      </trkpt>
      <trkpt lat="48.15133" lon="-3.31995">
        <ele>241.8</ele>
        <time>2024-11-20T11:12:49Z</time>
      </trkpt>
      <trkpt lat="48.15134" lon="-3.31996">
        <ele>241.7</ele>
        <time>2024-11-20T11:12:50Z</time>
      </trkpt>
      <trkpt lat="48.15135" lon="-3.31996">
        <ele>241.7</ele>
        <time>2024-11-20T11:12:51Z</time>
      </trkpt>
      <trkpt lat="48.15136" lon="-3.31996">
        <ele>241.7</ele>
        <time>2024-11-20T11:12:52Z</time>
      </trkpt>
      <trkpt lat="48.15137" lon="-3.31995">
        <ele>241.7</ele>
        <time>2024-11-20T11:12:53Z</time>
      </trkpt>
      <trkpt lat="48.15138" lon="-3.31995">
        <ele>241.7</ele>
        <time>2024-11-20T11:12:54Z</time>
      </trkpt>
      <trkpt lat="48.15139" lon="-3.31995">
        <ele>241.7</ele>
        <time>2024-11-20T11:12:55Z</time>
      </trkpt>
      <trkpt lat="48.15141" lon="-3.31995">
        <ele>241.6</ele>
        <time>2024-11-20T11:12:56Z</time>
      </trkpt>
      <trkpt lat="48.15141" lon="-3.31995">
        <ele>241.5</ele>
        <time>2024-11-20T11:12:57Z</time>
      </trkpt>
      <trkpt lat="48.15142" lon="-3.31995">
        <ele>241.5</ele>
        <time>2024-11-20T11:12:58Z</time>
      </trkpt>
      <trkpt lat="48.15143" lon="-3.31994">
        <ele>241.5</ele>
        <time>2024-11-20T11:12:59Z</time>
      </trkpt>
      <trkpt lat="48.15144" lon="-3.31994">
        <ele>241.5</ele>
        <time>2024-11-20T11:13:00Z</time>
      </trkpt>
      <trkpt lat="48.15145" lon="-3.31994">
        <ele>241.5</ele>
        <time>2024-11-20T11:13:01Z</time>
      </trkpt>
      <trkpt lat="48.15146" lon="-3.31994">
        <ele>241.4</ele>
        <time>2024-11-20T11:13:02Z</time>
      </trkpt>
      <trkpt lat="48.15148" lon="-3.31994">
        <ele>241.2</ele>
        <time>2024-11-20T11:13:03Z</time>
      </trkpt>
      <trkpt lat="48.15149" lon="-3.31994">
        <ele>241.1</ele>
        <time>2024-11-20T11:13:04Z</time>
      </trkpt>
      <trkpt lat="48.1515" lon="-3.31994">
        <ele>241</ele>
        <time>2024-11-20T11:13:05Z</time>
      </trkpt>
      <trkpt lat="48.15151" lon="-3.31994">
        <ele>241</ele>
        <time>2024-11-20T11:13:06Z</time>
      </trkpt>
      <trkpt lat="48.15153" lon="-3.31993">
        <ele>241</ele>
        <time>2024-11-20T11:13:07Z</time>
      </trkpt>
      <trkpt lat="48.15154" lon="-3.31993">
        <ele>240.9</ele>
        <time>2024-11-20T11:13:08Z</time>
      </trkpt>
      <trkpt lat="48.15155" lon="-3.31992">
        <ele>240.9</ele>
        <time>2024-11-20T11:13:09Z</time>
      </trkpt>
      <trkpt lat="48.15156" lon="-3.31992">
        <ele>240.9</ele>
        <time>2024-11-20T11:13:10Z</time>
      </trkpt>
      <trkpt lat="48.15157" lon="-3.31992">
        <ele>240.9</ele>
        <time>2024-11-20T11:13:11Z</time>
      </trkpt>
      <trkpt lat="48.15158" lon="-3.31992">
        <ele>240.8</ele>
        <time>2024-11-20T11:13:12Z</time>
      </trkpt>
      <trkpt lat="48.15159" lon="-3.31991">
        <ele>240.8</ele>
        <time>2024-11-20T11:13:13Z</time>
      </trkpt>
      <trkpt lat="48.1516" lon="-3.31991">
        <ele>240.8</ele>
        <time>2024-11-20T11:13:14Z</time>
      </trkpt>
      <trkpt lat="48.15161" lon="-3.31991">
        <ele>240.7</ele>
        <time>2024-11-20T11:13:15Z</time>
      </trkpt>
      <trkpt lat="48.15162" lon="-3.31991">
        <ele>240.7</ele>
        <time>2024-11-20T11:13:16Z</time>
      </trkpt>
      <trkpt lat="48.15162" lon="-3.31991">
        <ele>240.6</ele>
        <time>2024-11-20T11:13:17Z</time>
      </trkpt>
      <trkpt lat="48.15163" lon="-3.31991">
        <ele>240.6</ele>
        <time>2024-11-20T11:13:18Z</time>
      </trkpt>
      <trkpt lat="48.15163" lon="-3.31991">
        <ele>240.6</ele>
        <time>2024-11-20T11:13:19Z</time>
      </trkpt>
      <trkpt lat="48.15165" lon="-3.3199">
        <ele>240.6</ele>
        <time>2024-11-20T11:13:20Z</time>
      </trkpt>
      <trkpt lat="48.15166" lon="-3.3199">
        <ele>240.5</ele>
        <time>2024-11-20T11:13:21Z</time>
      </trkpt>
      <trkpt lat="48.15167" lon="-3.31989">
        <ele>240.5</ele>
        <time>2024-11-20T11:13:22Z</time>
      </trkpt>
      <trkpt lat="48.15167" lon="-3.31989">
        <ele>240.6</ele>
        <time>2024-11-20T11:13:23Z</time>
      </trkpt>
      <trkpt lat="48.15168" lon="-3.31988">
        <ele>240.6</ele>
        <time>2024-11-20T11:13:24Z</time>
      </trkpt>
      <trkpt lat="48.1517" lon="-3.31988">
        <ele>240.7</ele>
        <time>2024-11-20T11:13:25Z</time>
      </trkpt>
      <trkpt lat="48.15171" lon="-3.31987">
        <ele>240.6</ele>
        <time>2024-11-20T11:13:26Z</time>
      </trkpt>
      <trkpt lat="48.15171" lon="-3.31987">
        <ele>240.7</ele>
        <time>2024-11-20T11:13:27Z</time>
      </trkpt>
      <trkpt lat="48.15172" lon="-3.31987">
        <ele>240.6</ele>
        <time>2024-11-20T11:13:28Z</time>
      </trkpt>
      <trkpt lat="48.15173" lon="-3.31986">
        <ele>240.6</ele>
        <time>2024-11-20T11:13:29Z</time>
      </trkpt>
      <trkpt lat="48.15175" lon="-3.31986">
        <ele>240.6</ele>
        <time>2024-11-20T11:13:30Z</time>
      </trkpt>
      <trkpt lat="48.15176" lon="-3.31986">
        <ele>240.5</ele>
        <time>2024-11-20T11:13:31Z</time>
      </trkpt>
      <trkpt lat="48.15177" lon="-3.31986">
        <ele>240.4</ele>
        <time>2024-11-20T11:13:32Z</time>
      </trkpt>
      <trkpt lat="48.15179" lon="-3.31986">
        <ele>240.4</ele>
        <time>2024-11-20T11:13:33Z</time>
      </trkpt>
      <trkpt lat="48.1518" lon="-3.31986">
        <ele>240.4</ele>
        <time>2024-11-20T11:13:34Z</time>
      </trkpt>
      <trkpt lat="48.15181" lon="-3.31985">
        <ele>240.3</ele>
        <time>2024-11-20T11:13:35Z</time>
      </trkpt>
      <trkpt lat="48.15183" lon="-3.31985">
        <ele>240.3</ele>
        <time>2024-11-20T11:13:36Z</time>
      </trkpt>
      <trkpt lat="48.15184" lon="-3.31984">
        <ele>240.3</ele>
        <time>2024-11-20T11:13:37Z</time>
      </trkpt>
      <trkpt lat="48.15186" lon="-3.31984">
        <ele>240.3</ele>
        <time>2024-11-20T11:13:38Z</time>
      </trkpt>
      <trkpt lat="48.15187" lon="-3.31983">
        <ele>240.2</ele>
        <time>2024-11-20T11:13:39Z</time>
      </trkpt>
      <trkpt lat="48.15188" lon="-3.31983">
        <ele>240.2</ele>
        <time>2024-11-20T11:13:40Z</time>
      </trkpt>
      <trkpt lat="48.15189" lon="-3.31983">
        <ele>240.1</ele>
        <time>2024-11-20T11:13:41Z</time>
      </trkpt>
      <trkpt lat="48.1519" lon="-3.31983">
        <ele>240.1</ele>
        <time>2024-11-20T11:13:42Z</time>
      </trkpt>
      <trkpt lat="48.1519" lon="-3.31983">
        <ele>240.1</ele>
        <time>2024-11-20T11:13:43Z</time>
      </trkpt>
      <trkpt lat="48.15191" lon="-3.31983">
        <ele>240</ele>
        <time>2024-11-20T11:13:44Z</time>
      </trkpt>
      <trkpt lat="48.15192" lon="-3.31984">
        <ele>239.9</ele>
        <time>2024-11-20T11:13:45Z</time>
      </trkpt>
      <trkpt lat="48.15193" lon="-3.31984">
        <ele>239.8</ele>
        <time>2024-11-20T11:13:46Z</time>
      </trkpt>
      <trkpt lat="48.15194" lon="-3.31983">
        <ele>239.8</ele>
        <time>2024-11-20T11:13:47Z</time>
      </trkpt>
      <trkpt lat="48.15195" lon="-3.31984">
        <ele>239.8</ele>
        <time>2024-11-20T11:13:48Z</time>
      </trkpt>
      <trkpt lat="48.15195" lon="-3.31984">
        <ele>239.7</ele>
        <time>2024-11-20T11:13:49Z</time>
      </trkpt>
      <trkpt lat="48.15196" lon="-3.31984">
        <ele>239.7</ele>
        <time>2024-11-20T11:13:50Z</time>
      </trkpt>
      <trkpt lat="48.15196" lon="-3.31984">
        <ele>239.7</ele>
        <time>2024-11-20T11:13:51Z</time>
      </trkpt>
      <trkpt lat="48.15197" lon="-3.31984">
        <ele>239.7</ele>
        <time>2024-11-20T11:13:52Z</time>
      </trkpt>
      <trkpt lat="48.15198" lon="-3.31984">
        <ele>239.6</ele>
        <time>2024-11-20T11:13:53Z</time>
      </trkpt>
      <trkpt lat="48.15199" lon="-3.31985">
        <ele>239.5</ele>
        <time>2024-11-20T11:13:54Z</time>
      </trkpt>
      <trkpt lat="48.152" lon="-3.31985">
        <ele>239.5</ele>
        <time>2024-11-20T11:13:55Z</time>
      </trkpt>
      <trkpt lat="48.15201" lon="-3.31986">
        <ele>239.4</ele>
        <time>2024-11-20T11:13:56Z</time>
      </trkpt>
      <trkpt lat="48.15203" lon="-3.31986">
        <ele>239.3</ele>
        <time>2024-11-20T11:13:57Z</time>
      </trkpt>
      <trkpt lat="48.15204" lon="-3.31987">
        <ele>239.3</ele>
        <time>2024-11-20T11:13:58Z</time>
      </trkpt>
      <trkpt lat="48.15206" lon="-3.31987">
        <ele>239.2</ele>
        <time>2024-11-20T11:13:59Z</time>
      </trkpt>
      <trkpt lat="48.15208" lon="-3.31987">
        <ele>239.2</ele>
        <time>2024-11-20T11:14:00Z</time>
      </trkpt>
      <trkpt lat="48.15209" lon="-3.31987">
        <ele>239.1</ele>
        <time>2024-11-20T11:14:01Z</time>
      </trkpt>
      <trkpt lat="48.1521" lon="-3.31988">
        <ele>239.1</ele>
        <time>2024-11-20T11:14:02Z</time>
      </trkpt>
      <trkpt lat="48.15212" lon="-3.31988">
        <ele>239</ele>
        <time>2024-11-20T11:14:03Z</time>
      </trkpt>
      <trkpt lat="48.15214" lon="-3.31988">
        <ele>239</ele>
        <time>2024-11-20T11:14:04Z</time>
      </trkpt>
      <trkpt lat="48.15216" lon="-3.31987">
        <ele>239</ele>
        <time>2024-11-20T11:14:05Z</time>
      </trkpt>
      <trkpt lat="48.15217" lon="-3.31986">
        <ele>239.1</ele>
        <time>2024-11-20T11:14:06Z</time>
      </trkpt>
      <trkpt lat="48.15219" lon="-3.31985">
        <ele>239.2</ele>
        <time>2024-11-20T11:14:07Z</time>
      </trkpt>
      <trkpt lat="48.15221" lon="-3.31985">
        <ele>239.2</ele>
        <time>2024-11-20T11:14:08Z</time>
      </trkpt>
      <trkpt lat="48.15221" lon="-3.31985">
        <ele>239.1</ele>
        <time>2024-11-20T11:14:09Z</time>
      </trkpt>
      <trkpt lat="48.15223" lon="-3.31985">
        <ele>239.1</ele>
        <time>2024-11-20T11:14:10Z</time>
      </trkpt>
      <trkpt lat="48.15224" lon="-3.31985">
        <ele>239.1</ele>
        <time>2024-11-20T11:14:11Z</time>
      </trkpt>
      <trkpt lat="48.15225" lon="-3.31985">
        <ele>239.2</ele>
        <time>2024-11-20T11:14:12Z</time>
      </trkpt>
      <trkpt lat="48.15226" lon="-3.31985">
        <ele>239.2</ele>
        <time>2024-11-20T11:14:13Z</time>
      </trkpt>
      <trkpt lat="48.15227" lon="-3.31985">
        <ele>239.2</ele>
        <time>2024-11-20T11:14:14Z</time>
      </trkpt>
      <trkpt lat="48.15229" lon="-3.31985">
        <ele>239.2</ele>
        <time>2024-11-20T11:14:15Z</time>
      </trkpt>
      <trkpt lat="48.1523" lon="-3.31985">
        <ele>239.2</ele>
        <time>2024-11-20T11:14:16Z</time>
      </trkpt>
      <trkpt lat="48.15232" lon="-3.31985">
        <ele>239.3</ele>
        <time>2024-11-20T11:14:17Z</time>
      </trkpt>
      <trkpt lat="48.15233" lon="-3.31986">
        <ele>239.2</ele>
        <time>2024-11-20T11:14:18Z</time>
      </trkpt>
      <trkpt lat="48.15235" lon="-3.31986">
        <ele>239.2</ele>
        <time>2024-11-20T11:14:19Z</time>
      </trkpt>
      <trkpt lat="48.15236" lon="-3.31987">
        <ele>239.2</ele>
        <time>2024-11-20T11:14:20Z</time>
      </trkpt>
      <trkpt lat="48.15238" lon="-3.31986">
        <ele>239.3</ele>
        <time>2024-11-20T11:14:21Z</time>
      </trkpt>
      <trkpt lat="48.15239" lon="-3.31986">
        <ele>239.3</ele>
        <time>2024-11-20T11:14:22Z</time>
      </trkpt>
      <trkpt lat="48.15241" lon="-3.31985">
        <ele>239.4</ele>
        <time>2024-11-20T11:14:23Z</time>
      </trkpt>
      <trkpt lat="48.15242" lon="-3.31985">
        <ele>239.5</ele>
        <time>2024-11-20T11:14:24Z</time>
      </trkpt>
      <trkpt lat="48.15244" lon="-3.31984">
        <ele>239.6</ele>
        <time>2024-11-20T11:14:25Z</time>
      </trkpt>
      <trkpt lat="48.15246" lon="-3.31983">
        <ele>239.7</ele>
        <time>2024-11-20T11:14:26Z</time>
      </trkpt>
      <trkpt lat="48.15247" lon="-3.31982">
        <ele>239.8</ele>
        <time>2024-11-20T11:14:27Z</time>
      </trkpt>
      <trkpt lat="48.15248" lon="-3.31983">
        <ele>239.9</ele>
        <time>2024-11-20T11:14:28Z</time>
      </trkpt>
      <trkpt lat="48.1525" lon="-3.31983">
        <ele>239.8</ele>
        <time>2024-11-20T11:14:29Z</time>
      </trkpt>
      <trkpt lat="48.15251" lon="-3.31984">
        <ele>239.7</ele>
        <time>2024-11-20T11:14:30Z</time>
      </trkpt>
      <trkpt lat="48.15252" lon="-3.31985">
        <ele>239.7</ele>
        <time>2024-11-20T11:14:31Z</time>
      </trkpt>
      <trkpt lat="48.15253" lon="-3.31985">
        <ele>239.6</ele>
        <time>2024-11-20T11:14:32Z</time>
      </trkpt>
      <trkpt lat="48.15254" lon="-3.31985">
        <ele>239.6</ele>
        <time>2024-11-20T11:14:33Z</time>
      </trkpt>
      <trkpt lat="48.15254" lon="-3.31986">
        <ele>239.5</ele>
        <time>2024-11-20T11:14:34Z</time>
      </trkpt>
      <trkpt lat="48.15255" lon="-3.31986">
        <ele>239.5</ele>
        <time>2024-11-20T11:14:35Z</time>
      </trkpt>
      <trkpt lat="48.15256" lon="-3.31986">
        <ele>239.5</ele>
        <time>2024-11-20T11:14:36Z</time>
      </trkpt>
      <trkpt lat="48.15257" lon="-3.31987">
        <ele>239.4</ele>
        <time>2024-11-20T11:14:37Z</time>
      </trkpt>
      <trkpt lat="48.15257" lon="-3.31987">
        <ele>239.4</ele>
        <time>2024-11-20T11:14:38Z</time>
      </trkpt>
      <trkpt lat="48.15258" lon="-3.31987">
        <ele>239.4</ele>
        <time>2024-11-20T11:14:39Z</time>
      </trkpt>
      <trkpt lat="48.15259" lon="-3.31988">
        <ele>239.3</ele>
        <time>2024-11-20T11:14:40Z</time>
      </trkpt>
      <trkpt lat="48.1526" lon="-3.3199">
        <ele>239.1</ele>
        <time>2024-11-20T11:14:41Z</time>
      </trkpt>
      <trkpt lat="48.15261" lon="-3.31992">
        <ele>238.9</ele>
        <time>2024-11-20T11:14:42Z</time>
      </trkpt>
      <trkpt lat="48.15262" lon="-3.31993">
        <ele>238.7</ele>
        <time>2024-11-20T11:14:43Z</time>
      </trkpt>
      <trkpt lat="48.15263" lon="-3.31995">
        <ele>238.5</ele>
        <time>2024-11-20T11:14:44Z</time>
      </trkpt>
      <trkpt lat="48.15265" lon="-3.31997">
        <ele>238.4</ele>
        <time>2024-11-20T11:14:45Z</time>
      </trkpt>
      <trkpt lat="48.15266" lon="-3.31998">
        <ele>238.2</ele>
        <time>2024-11-20T11:14:46Z</time>
      </trkpt>
      <trkpt lat="48.15268" lon="-3.31999">
        <ele>238.2</ele>
        <time>2024-11-20T11:14:47Z</time>
      </trkpt>
      <trkpt lat="48.1527" lon="-3.31999">
        <ele>238.1</ele>
        <time>2024-11-20T11:14:48Z</time>
      </trkpt>
      <trkpt lat="48.15271" lon="-3.32">
        <ele>238</ele>
        <time>2024-11-20T11:14:49Z</time>
      </trkpt>
      <trkpt lat="48.15273" lon="-3.32001">
        <ele>237.9</ele>
        <time>2024-11-20T11:14:50Z</time>
      </trkpt>
      <trkpt lat="48.15274" lon="-3.32003">
        <ele>237.8</ele>
        <time>2024-11-20T11:14:51Z</time>
      </trkpt>
      <trkpt lat="48.15276" lon="-3.32004">
        <ele>237.7</ele>
        <time>2024-11-20T11:14:52Z</time>
      </trkpt>
      <trkpt lat="48.15277" lon="-3.32005">
        <ele>237.7</ele>
        <time>2024-11-20T11:14:53Z</time>
      </trkpt>
      <trkpt lat="48.15278" lon="-3.32005">
        <ele>237.7</ele>
        <time>2024-11-20T11:14:54Z</time>
      </trkpt>
      <trkpt lat="48.1528" lon="-3.32004">
        <ele>237.7</ele>
        <time>2024-11-20T11:14:55Z</time>
      </trkpt>
      <trkpt lat="48.15281" lon="-3.32004">
        <ele>237.8</ele>
        <time>2024-11-20T11:14:56Z</time>
      </trkpt>
      <trkpt lat="48.15282" lon="-3.32004">
        <ele>237.9</ele>
        <time>2024-11-20T11:14:57Z</time>
      </trkpt>
      <trkpt lat="48.15284" lon="-3.32004">
        <ele>237.9</ele>
        <time>2024-11-20T11:14:58Z</time>
      </trkpt>
      <trkpt lat="48.15285" lon="-3.32003">
        <ele>238</ele>
        <time>2024-11-20T11:14:59Z</time>
      </trkpt>
      <trkpt lat="48.15286" lon="-3.32003">
        <ele>238.1</ele>
        <time>2024-11-20T11:15:00Z</time>
      </trkpt>
      <trkpt lat="48.15287" lon="-3.32003">
        <ele>238.1</ele>
        <time>2024-11-20T11:15:01Z</time>
      </trkpt>
      <trkpt lat="48.15288" lon="-3.32002">
        <ele>238.2</ele>
        <time>2024-11-20T11:15:02Z</time>
      </trkpt>
      <trkpt lat="48.15289" lon="-3.32002">
        <ele>238.3</ele>
        <time>2024-11-20T11:15:03Z</time>
      </trkpt>
      <trkpt lat="48.15291" lon="-3.32002">
        <ele>238.3</ele>
        <time>2024-11-20T11:15:04Z</time>
      </trkpt>
      <trkpt lat="48.15292" lon="-3.32002">
        <ele>238.4</ele>
        <time>2024-11-20T11:15:05Z</time>
      </trkpt>
      <trkpt lat="48.15294" lon="-3.32003">
        <ele>238.4</ele>
        <time>2024-11-20T11:15:06Z</time>
      </trkpt>
      <trkpt lat="48.15295" lon="-3.32004">
        <ele>238.3</ele>
        <time>2024-11-20T11:15:07Z</time>
      </trkpt>
      <trkpt lat="48.15296" lon="-3.32005">
        <ele>238.3</ele>
        <time>2024-11-20T11:15:08Z</time>
      </trkpt>
      <trkpt lat="48.15297" lon="-3.32006">
        <ele>238.3</ele>
        <time>2024-11-20T11:15:09Z</time>
      </trkpt>
      <trkpt lat="48.15298" lon="-3.32007">
        <ele>238.2</ele>
        <time>2024-11-20T11:15:10Z</time>
      </trkpt>
      <trkpt lat="48.15299" lon="-3.32008">
        <ele>238.2</ele>
        <time>2024-11-20T11:15:11Z</time>
      </trkpt>
      <trkpt lat="48.153" lon="-3.32009">
        <ele>238.2</ele>
        <time>2024-11-20T11:15:12Z</time>
      </trkpt>
      <trkpt lat="48.15301" lon="-3.3201">
        <ele>238.2</ele>
        <time>2024-11-20T11:15:13Z</time>
      </trkpt>
      <trkpt lat="48.15302" lon="-3.3201">
        <ele>238.2</ele>
        <time>2024-11-20T11:15:14Z</time>
      </trkpt>
      <trkpt lat="48.15304" lon="-3.32011">
        <ele>238.2</ele>
        <time>2024-11-20T11:15:15Z</time>
      </trkpt>
      <trkpt lat="48.15304" lon="-3.32012">
        <ele>238.1</ele>
        <time>2024-11-20T11:15:16Z</time>
      </trkpt>
      <trkpt lat="48.15304" lon="-3.32014">
        <ele>238</ele>
        <time>2024-11-20T11:15:17Z</time>
      </trkpt>
      <trkpt lat="48.15305" lon="-3.32014">
        <ele>237.9</ele>
        <time>2024-11-20T11:15:18Z</time>
      </trkpt>
      <trkpt lat="48.15305" lon="-3.32016">
        <ele>237.9</ele>
        <time>2024-11-20T11:15:19Z</time>
      </trkpt>
      <trkpt lat="48.15305" lon="-3.32017">
        <ele>237.8</ele>
        <time>2024-11-20T11:15:20Z</time>
      </trkpt>
      <trkpt lat="48.15305" lon="-3.32018">
        <ele>237.7</ele>
        <time>2024-11-20T11:15:21Z</time>
      </trkpt>
      <trkpt lat="48.15306" lon="-3.32019">
        <ele>237.7</ele>
        <time>2024-11-20T11:15:22Z</time>
      </trkpt>
      <trkpt lat="48.15307" lon="-3.32019">
        <ele>237.7</ele>
        <time>2024-11-20T11:15:23Z</time>
      </trkpt>
      <trkpt lat="48.15308" lon="-3.3202">
        <ele>237.7</ele>
        <time>2024-11-20T11:15:24Z</time>
      </trkpt>
      <trkpt lat="48.15308" lon="-3.32021">
        <ele>237.7</ele>
        <time>2024-11-20T11:15:25Z</time>
      </trkpt>
      <trkpt lat="48.15309" lon="-3.32021">
        <ele>237.6</ele>
        <time>2024-11-20T11:15:26Z</time>
      </trkpt>
      <trkpt lat="48.15309" lon="-3.32022">
        <ele>237.6</ele>
        <time>2024-11-20T11:15:27Z</time>
      </trkpt>
      <trkpt lat="48.15309" lon="-3.32022">
        <ele>237.6</ele>
        <time>2024-11-20T11:15:28Z</time>
      </trkpt>
      <trkpt lat="48.1531" lon="-3.32023">
        <ele>237.5</ele>
        <time>2024-11-20T11:15:29Z</time>
      </trkpt>
      <trkpt lat="48.15311" lon="-3.32024">
        <ele>237.5</ele>
        <time>2024-11-20T11:15:30Z</time>
      </trkpt>
      <trkpt lat="48.15311" lon="-3.32024">
        <ele>237.5</ele>
        <time>2024-11-20T11:15:31Z</time>
      </trkpt>
      <trkpt lat="48.15312" lon="-3.32024">
        <ele>237.5</ele>
        <time>2024-11-20T11:15:32Z</time>
      </trkpt>
      <trkpt lat="48.15312" lon="-3.32025">
        <ele>237.5</ele>
        <time>2024-11-20T11:15:33Z</time>
      </trkpt>
      <trkpt lat="48.15313" lon="-3.32025">
        <ele>237.5</ele>
        <time>2024-11-20T11:15:34Z</time>
      </trkpt>
      <trkpt lat="48.15314" lon="-3.32026">
        <ele>237.5</ele>
        <time>2024-11-20T11:15:35Z</time>
      </trkpt>
      <trkpt lat="48.15315" lon="-3.32026">
        <ele>237.5</ele>
        <time>2024-11-20T11:15:36Z</time>
      </trkpt>
      <trkpt lat="48.15315" lon="-3.32027">
        <ele>237.4</ele>
        <time>2024-11-20T11:15:37Z</time>
      </trkpt>
      <trkpt lat="48.15316" lon="-3.32028">
        <ele>237.4</ele>
        <time>2024-11-20T11:15:38Z</time>
      </trkpt>
      <trkpt lat="48.15316" lon="-3.32028">
        <ele>237.3</ele>
        <time>2024-11-20T11:15:39Z</time>
      </trkpt>
      <trkpt lat="48.15316" lon="-3.32029">
        <ele>237.3</ele>
        <time>2024-11-20T11:15:40Z</time>
      </trkpt>
      <trkpt lat="48.15317" lon="-3.3203">
        <ele>237.3</ele>
        <time>2024-11-20T11:15:41Z</time>
      </trkpt>
      <trkpt lat="48.15317" lon="-3.32031">
        <ele>237.3</ele>
        <time>2024-11-20T11:15:42Z</time>
      </trkpt>
      <trkpt lat="48.15316" lon="-3.32032">
        <ele>237.2</ele>
        <time>2024-11-20T11:15:43Z</time>
      </trkpt>
      <trkpt lat="48.15316" lon="-3.32033">
        <ele>237.2</ele>
        <time>2024-11-20T11:15:44Z</time>
      </trkpt>
      <trkpt lat="48.15316" lon="-3.32033">
        <ele>237.2</ele>
        <time>2024-11-20T11:15:45Z</time>
      </trkpt>
      <trkpt lat="48.15316" lon="-3.32034">
        <ele>237.1</ele>
        <time>2024-11-20T11:15:46Z</time>
      </trkpt>
      <trkpt lat="48.15317" lon="-3.32035">
        <ele>237.1</ele>
        <time>2024-11-20T11:15:47Z</time>
      </trkpt>
      <trkpt lat="48.15318" lon="-3.32036">
        <ele>237.2</ele>
        <time>2024-11-20T11:15:48Z</time>
      </trkpt>
      <trkpt lat="48.15318" lon="-3.32036">
        <ele>237.2</ele>
        <time>2024-11-20T11:15:49Z</time>
      </trkpt>
      <trkpt lat="48.15319" lon="-3.32036">
        <ele>237.2</ele>
        <time>2024-11-20T11:15:50Z</time>
      </trkpt>
      <trkpt lat="48.1532" lon="-3.32036">
        <ele>237.2</ele>
        <time>2024-11-20T11:15:51Z</time>
      </trkpt>
      <trkpt lat="48.1532" lon="-3.32037">
        <ele>237.2</ele>
        <time>2024-11-20T11:15:52Z</time>
      </trkpt>
      <trkpt lat="48.15321" lon="-3.32037">
        <ele>237.2</ele>
        <time>2024-11-20T11:15:53Z</time>
      </trkpt>
      <trkpt lat="48.15323" lon="-3.32038">
        <ele>237.3</ele>
        <time>2024-11-20T11:15:54Z</time>
      </trkpt>
      <trkpt lat="48.15324" lon="-3.32038">
        <ele>237.3</ele>
        <time>2024-11-20T11:15:55Z</time>
      </trkpt>
      <trkpt lat="48.15326" lon="-3.32039">
        <ele>237.3</ele>
        <time>2024-11-20T11:15:56Z</time>
      </trkpt>
      <trkpt lat="48.15327" lon="-3.32039">
        <ele>237.4</ele>
        <time>2024-11-20T11:15:57Z</time>
      </trkpt>
      <trkpt lat="48.15329" lon="-3.3204">
        <ele>237.4</ele>
        <time>2024-11-20T11:15:58Z</time>
      </trkpt>
      <trkpt lat="48.1533" lon="-3.32041">
        <ele>237.4</ele>
        <time>2024-11-20T11:15:59Z</time>
      </trkpt>
      <trkpt lat="48.15332" lon="-3.32041">
        <ele>237.5</ele>
        <time>2024-11-20T11:16:00Z</time>
      </trkpt>
      <trkpt lat="48.15333" lon="-3.32041">
        <ele>237.5</ele>
        <time>2024-11-20T11:16:01Z</time>
      </trkpt>
      <trkpt lat="48.15334" lon="-3.32042">
        <ele>237.6</ele>
        <time>2024-11-20T11:16:02Z</time>
      </trkpt>
      <trkpt lat="48.15336" lon="-3.32042">
        <ele>237.6</ele>
        <time>2024-11-20T11:16:03Z</time>
      </trkpt>
      <trkpt lat="48.15337" lon="-3.32042">
        <ele>237.7</ele>
        <time>2024-11-20T11:16:04Z</time>
      </trkpt>
      <trkpt lat="48.15338" lon="-3.32043">
        <ele>237.7</ele>
        <time>2024-11-20T11:16:05Z</time>
      </trkpt>
      <trkpt lat="48.15339" lon="-3.32043">
        <ele>237.7</ele>
        <time>2024-11-20T11:16:06Z</time>
      </trkpt>
      <trkpt lat="48.15339" lon="-3.32044">
        <ele>237.7</ele>
        <time>2024-11-20T11:16:07Z</time>
      </trkpt>
      <trkpt lat="48.15341" lon="-3.32044">
        <ele>237.8</ele>
        <time>2024-11-20T11:16:08Z</time>
      </trkpt>
      <trkpt lat="48.15341" lon="-3.32044">
        <ele>237.8</ele>
        <time>2024-11-20T11:16:09Z</time>
      </trkpt>
      <trkpt lat="48.15342" lon="-3.32045">
        <ele>237.8</ele>
        <time>2024-11-20T11:16:10Z</time>
      </trkpt>
      <trkpt lat="48.15342" lon="-3.32045">
        <ele>237.8</ele>
        <time>2024-11-20T11:16:11Z</time>
      </trkpt>
      <trkpt lat="48.15343" lon="-3.32046">
        <ele>237.8</ele>
        <time>2024-11-20T11:16:12Z</time>
      </trkpt>
      <trkpt lat="48.15344" lon="-3.32046">
        <ele>237.9</ele>
        <time>2024-11-20T11:16:13Z</time>
      </trkpt>
      <trkpt lat="48.15346" lon="-3.32046">
        <ele>237.9</ele>
        <time>2024-11-20T11:16:14Z</time>
      </trkpt>
      <trkpt lat="48.15347" lon="-3.32046">
        <ele>238</ele>
        <time>2024-11-20T11:16:15Z</time>
      </trkpt>
      <trkpt lat="48.15348" lon="-3.32046">
        <ele>238.1</ele>
        <time>2024-11-20T11:16:16Z</time>
      </trkpt>
      <trkpt lat="48.15349" lon="-3.32046">
        <ele>238.1</ele>
        <time>2024-11-20T11:16:17Z</time>
      </trkpt>
      <trkpt lat="48.1535" lon="-3.32046">
        <ele>238.2</ele>
        <time>2024-11-20T11:16:18Z</time>
      </trkpt>
      <trkpt lat="48.15352" lon="-3.32046">
        <ele>238.2</ele>
        <time>2024-11-20T11:16:19Z</time>
      </trkpt>
      <trkpt lat="48.15353" lon="-3.32046">
        <ele>238.3</ele>
        <time>2024-11-20T11:16:20Z</time>
      </trkpt>
      <trkpt lat="48.15355" lon="-3.32046">
        <ele>238.4</ele>
        <time>2024-11-20T11:16:21Z</time>
      </trkpt>
      <trkpt lat="48.15356" lon="-3.32047">
        <ele>238.4</ele>
        <time>2024-11-20T11:16:22Z</time>
      </trkpt>
      <trkpt lat="48.15358" lon="-3.32047">
        <ele>238.5</ele>
        <time>2024-11-20T11:16:23Z</time>
      </trkpt>
      <trkpt lat="48.1536" lon="-3.32048">
        <ele>238.5</ele>
        <time>2024-11-20T11:16:24Z</time>
      </trkpt>
      <trkpt lat="48.15363" lon="-3.32048">
        <ele>238.6</ele>
        <time>2024-11-20T11:16:25Z</time>
      </trkpt>
      <trkpt lat="48.15364" lon="-3.32049">
        <ele>238.6</ele>
        <time>2024-11-20T11:16:26Z</time>
      </trkpt>
      <trkpt lat="48.15365" lon="-3.32049">
        <ele>238.6</ele>
        <time>2024-11-20T11:16:27Z</time>
      </trkpt>
      <trkpt lat="48.15366" lon="-3.3205">
        <ele>238.6</ele>
        <time>2024-11-20T11:16:28Z</time>
      </trkpt>
      <trkpt lat="48.15367" lon="-3.3205">
        <ele>238.6</ele>
        <time>2024-11-20T11:16:29Z</time>
      </trkpt>
      <trkpt lat="48.15368" lon="-3.3205">
        <ele>238.7</ele>
        <time>2024-11-20T11:16:30Z</time>
      </trkpt>
      <trkpt lat="48.1537" lon="-3.32051">
        <ele>238.7</ele>
        <time>2024-11-20T11:16:31Z</time>
      </trkpt>
      <trkpt lat="48.15372" lon="-3.32051">
        <ele>238.8</ele>
        <time>2024-11-20T11:16:32Z</time>
      </trkpt>
      <trkpt lat="48.15373" lon="-3.32051">
        <ele>238.8</ele>
        <time>2024-11-20T11:16:33Z</time>
      </trkpt>
      <trkpt lat="48.15374" lon="-3.32052">
        <ele>238.8</ele>
        <time>2024-11-20T11:16:34Z</time>
      </trkpt>
      <trkpt lat="48.15375" lon="-3.32053">
        <ele>238.8</ele>
        <time>2024-11-20T11:16:35Z</time>
      </trkpt>
      <trkpt lat="48.15377" lon="-3.32053">
        <ele>238.8</ele>
        <time>2024-11-20T11:16:36Z</time>
      </trkpt>
      <trkpt lat="48.15378" lon="-3.32054">
        <ele>238.8</ele>
        <time>2024-11-20T11:16:37Z</time>
      </trkpt>
      <trkpt lat="48.15379" lon="-3.32054">
        <ele>238.8</ele>
        <time>2024-11-20T11:16:38Z</time>
      </trkpt>
      <trkpt lat="48.1538" lon="-3.32055">
        <ele>238.8</ele>
        <time>2024-11-20T11:16:39Z</time>
      </trkpt>
      <trkpt lat="48.15381" lon="-3.32055">
        <ele>238.8</ele>
        <time>2024-11-20T11:16:40Z</time>
      </trkpt>
      <trkpt lat="48.15382" lon="-3.32055">
        <ele>238.8</ele>
        <time>2024-11-20T11:16:41Z</time>
      </trkpt>
      <trkpt lat="48.15382" lon="-3.32056">
        <ele>238.7</ele>
        <time>2024-11-20T11:16:42Z</time>
      </trkpt>
      <trkpt lat="48.15383" lon="-3.32057">
        <ele>238.7</ele>
        <time>2024-11-20T11:16:43Z</time>
      </trkpt>
      <trkpt lat="48.15384" lon="-3.32057">
        <ele>238.7</ele>
        <time>2024-11-20T11:16:44Z</time>
      </trkpt>
      <trkpt lat="48.15385" lon="-3.32057">
        <ele>238.8</ele>
        <time>2024-11-20T11:16:45Z</time>
      </trkpt>
      <trkpt lat="48.15386" lon="-3.32057">
        <ele>238.8</ele>
        <time>2024-11-20T11:16:46Z</time>
      </trkpt>
      <trkpt lat="48.15387" lon="-3.32058">
        <ele>238.8</ele>
        <time>2024-11-20T11:16:47Z</time>
      </trkpt>
      <trkpt lat="48.15389" lon="-3.32057">
        <ele>238.9</ele>
        <time>2024-11-20T11:16:48Z</time>
      </trkpt>
      <trkpt lat="48.1539" lon="-3.32057">
        <ele>238.9</ele>
        <time>2024-11-20T11:16:49Z</time>
      </trkpt>
      <trkpt lat="48.15391" lon="-3.32058">
        <ele>238.8</ele>
        <time>2024-11-20T11:16:50Z</time>
      </trkpt>
      <trkpt lat="48.15391" lon="-3.32058">
        <ele>238.8</ele>
        <time>2024-11-20T11:16:51Z</time>
      </trkpt>
      <trkpt lat="48.15392" lon="-3.3206">
        <ele>238.7</ele>
        <time>2024-11-20T11:16:52Z</time>
      </trkpt>
      <trkpt lat="48.15393" lon="-3.32061">
        <ele>238.6</ele>
        <time>2024-11-20T11:16:53Z</time>
      </trkpt>
      <trkpt lat="48.15395" lon="-3.32062">
        <ele>238.5</ele>
        <time>2024-11-20T11:16:54Z</time>
      </trkpt>
      <trkpt lat="48.15396" lon="-3.32063">
        <ele>238.4</ele>
        <time>2024-11-20T11:16:55Z</time>
      </trkpt>
      <trkpt lat="48.15397" lon="-3.32064">
        <ele>238.4</ele>
        <time>2024-11-20T11:16:56Z</time>
      </trkpt>
      <trkpt lat="48.15399" lon="-3.32065">
        <ele>238.3</ele>
        <time>2024-11-20T11:16:57Z</time>
      </trkpt>
      <trkpt lat="48.154" lon="-3.32065">
        <ele>238.3</ele>
        <time>2024-11-20T11:16:58Z</time>
      </trkpt>
      <trkpt lat="48.15402" lon="-3.32066">
        <ele>238.2</ele>
        <time>2024-11-20T11:16:59Z</time>
      </trkpt>
      <trkpt lat="48.15403" lon="-3.32067">
        <ele>238.2</ele>
        <time>2024-11-20T11:17:00Z</time>
      </trkpt>
      <trkpt lat="48.15405" lon="-3.32068">
        <ele>238.1</ele>
        <time>2024-11-20T11:17:01Z</time>
      </trkpt>
      <trkpt lat="48.15406" lon="-3.32069">
        <ele>238</ele>
        <time>2024-11-20T11:17:02Z</time>
      </trkpt>
      <trkpt lat="48.15408" lon="-3.32071">
        <ele>237.9</ele>
        <time>2024-11-20T11:17:03Z</time>
      </trkpt>
      <trkpt lat="48.1541" lon="-3.32072">
        <ele>237.8</ele>
        <time>2024-11-20T11:17:04Z</time>
      </trkpt>
      <trkpt lat="48.15411" lon="-3.32073">
        <ele>237.7</ele>
        <time>2024-11-20T11:17:05Z</time>
      </trkpt>
      <trkpt lat="48.15413" lon="-3.32075">
        <ele>237.6</ele>
        <time>2024-11-20T11:17:06Z</time>
      </trkpt>
      <trkpt lat="48.15414" lon="-3.32076">
        <ele>237.5</ele>
        <time>2024-11-20T11:17:07Z</time>
      </trkpt>
      <trkpt lat="48.15415" lon="-3.32077">
        <ele>237.5</ele>
        <time>2024-11-20T11:17:08Z</time>
      </trkpt>
      <trkpt lat="48.15416" lon="-3.32077">
        <ele>237.4</ele>
        <time>2024-11-20T11:17:09Z</time>
      </trkpt>
      <trkpt lat="48.15417" lon="-3.32078">
        <ele>237.4</ele>
        <time>2024-11-20T11:17:10Z</time>
      </trkpt>
      <trkpt lat="48.15417" lon="-3.32078">
        <ele>237.4</ele>
        <time>2024-11-20T11:17:11Z</time>
      </trkpt>
      <trkpt lat="48.15417" lon="-3.32078">
        <ele>237.4</ele>
        <time>2024-11-20T11:17:12Z</time>
      </trkpt>
      <trkpt lat="48.15418" lon="-3.32079">
        <ele>237.4</ele>
        <time>2024-11-20T11:17:13Z</time>
      </trkpt>
      <trkpt lat="48.15418" lon="-3.32079">
        <ele>237.4</ele>
        <time>2024-11-20T11:17:14Z</time>
      </trkpt>
      <trkpt lat="48.15418" lon="-3.32079">
        <ele>237.4</ele>
        <time>2024-11-20T11:17:15Z</time>
      </trkpt>
      <trkpt lat="48.15419" lon="-3.32079">
        <ele>237.4</ele>
        <time>2024-11-20T11:17:16Z</time>
      </trkpt>
      <trkpt lat="48.15419" lon="-3.32079">
        <ele>237.4</ele>
        <time>2024-11-20T11:17:17Z</time>
      </trkpt>
      <trkpt lat="48.15419" lon="-3.32079">
        <ele>237.4</ele>
        <time>2024-11-20T11:17:18Z</time>
      </trkpt>
      <trkpt lat="48.1542" lon="-3.3208">
        <ele>237.4</ele>
        <time>2024-11-20T11:17:19Z</time>
      </trkpt>
      <trkpt lat="48.1542" lon="-3.3208">
        <ele>237.4</ele>
        <time>2024-11-20T11:17:20Z</time>
      </trkpt>
      <trkpt lat="48.1542" lon="-3.3208">
        <ele>237.4</ele>
        <time>2024-11-20T11:17:21Z</time>
      </trkpt>
      <trkpt lat="48.1542" lon="-3.3208">
        <ele>237.4</ele>
        <time>2024-11-20T11:17:22Z</time>
      </trkpt>
      <trkpt lat="48.1542" lon="-3.3208">
        <ele>237.4</ele>
        <time>2024-11-20T11:17:23Z</time>
      </trkpt>
      <trkpt lat="48.1542" lon="-3.3208">
        <ele>237.4</ele>
        <time>2024-11-20T11:17:24Z</time>
      </trkpt>
      <trkpt lat="48.1542" lon="-3.3208">
        <ele>237.4</ele>
        <time>2024-11-20T11:17:25Z</time>
      </trkpt>
      <trkpt lat="48.1542" lon="-3.3208">
        <ele>237.4</ele>
        <time>2024-11-20T11:17:26Z</time>
      </trkpt>
      <trkpt lat="48.1542" lon="-3.3208">
        <ele>237.4</ele>
        <time>2024-11-20T11:17:27Z</time>
      </trkpt>
      <trkpt lat="48.1542" lon="-3.3208">
        <ele>237.4</ele>
        <time>2024-11-20T11:17:28Z</time>
      </trkpt>
      <trkpt lat="48.1542" lon="-3.3208">
        <ele>237.4</ele>
        <time>2024-11-20T11:17:29Z</time>
      </trkpt>
      <trkpt lat="48.1542" lon="-3.3208">
        <ele>237.4</ele>
        <time>2024-11-20T11:17:30Z</time>
      </trkpt>
      <trkpt lat="48.1542" lon="-3.3208">
        <ele>237.4</ele>
        <time>2024-11-20T11:17:31Z</time>
      </trkpt>
      <trkpt lat="48.1542" lon="-3.3208">
        <ele>237.4</ele>
        <time>2024-11-20T11:17:32Z</time>
      </trkpt>
      <trkpt lat="48.1542" lon="-3.3208">
        <ele>237.4</ele>
        <time>2024-11-20T11:17:33Z</time>
      </trkpt>
      <trkpt lat="48.15421" lon="-3.32081">
        <ele>237.4</ele>
        <time>2024-11-20T11:17:34Z</time>
      </trkpt>
      <trkpt lat="48.15421" lon="-3.32081">
        <ele>237.4</ele>
        <time>2024-11-20T11:17:35Z</time>
      </trkpt>
      <trkpt lat="48.15422" lon="-3.32081">
        <ele>237.4</ele>
        <time>2024-11-20T11:17:36Z</time>
      </trkpt>
      <trkpt lat="48.15422" lon="-3.32081">
        <ele>237.4</ele>
        <time>2024-11-20T11:17:37Z</time>
      </trkpt>
      <trkpt lat="48.15423" lon="-3.32081">
        <ele>237.4</ele>
        <time>2024-11-20T11:17:38Z</time>
      </trkpt>
      <trkpt lat="48.15424" lon="-3.32081">
        <ele>237.4</ele>
        <time>2024-11-20T11:17:39Z</time>
      </trkpt>
      <trkpt lat="48.15424" lon="-3.32081">
        <ele>237.5</ele>
        <time>2024-11-20T11:17:40Z</time>
      </trkpt>
      <trkpt lat="48.15425" lon="-3.32081">
        <ele>237.5</ele>
        <time>2024-11-20T11:17:41Z</time>
      </trkpt>
      <trkpt lat="48.15426" lon="-3.32082">
        <ele>237.5</ele>
        <time>2024-11-20T11:17:42Z</time>
      </trkpt>
      <trkpt lat="48.15426" lon="-3.32083">
        <ele>237.4</ele>
        <time>2024-11-20T11:17:43Z</time>
      </trkpt>
      <trkpt lat="48.15426" lon="-3.32083">
        <ele>237.3</ele>
        <time>2024-11-20T11:17:44Z</time>
      </trkpt>
      <trkpt lat="48.15426" lon="-3.32084">
        <ele>237.3</ele>
        <time>2024-11-20T11:17:45Z</time>
      </trkpt>
      <trkpt lat="48.15427" lon="-3.32085">
        <ele>237.3</ele>
        <time>2024-11-20T11:17:46Z</time>
      </trkpt>
      <trkpt lat="48.15428" lon="-3.32085">
        <ele>237.3</ele>
        <time>2024-11-20T11:17:47Z</time>
      </trkpt>
      <trkpt lat="48.1543" lon="-3.32085">
        <ele>237.4</ele>
        <time>2024-11-20T11:17:48Z</time>
      </trkpt>
      <trkpt lat="48.15431" lon="-3.32085">
        <ele>237.4</ele>
        <time>2024-11-20T11:17:49Z</time>
      </trkpt>
      <trkpt lat="48.15433" lon="-3.32085">
        <ele>237.5</ele>
        <time>2024-11-20T11:17:50Z</time>
      </trkpt>
      <trkpt lat="48.15434" lon="-3.32086">
        <ele>237.5</ele>
        <time>2024-11-20T11:17:51Z</time>
      </trkpt>
      <trkpt lat="48.15435" lon="-3.32087">
        <ele>237.5</ele>
        <time>2024-11-20T11:17:52Z</time>
      </trkpt>
      <trkpt lat="48.15437" lon="-3.32088">
        <ele>237.5</ele>
        <time>2024-11-20T11:17:53Z</time>
      </trkpt>
      <trkpt lat="48.15439" lon="-3.32088">
        <ele>237.5</ele>
        <time>2024-11-20T11:17:54Z</time>
      </trkpt>
      <trkpt lat="48.1544" lon="-3.32089">
        <ele>237.5</ele>
        <time>2024-11-20T11:17:55Z</time>
      </trkpt>
      <trkpt lat="48.15442" lon="-3.3209">
        <ele>237.5</ele>
        <time>2024-11-20T11:17:56Z</time>
      </trkpt>
      <trkpt lat="48.15444" lon="-3.32091">
        <ele>237.4</ele>
        <time>2024-11-20T11:17:57Z</time>
      </trkpt>
      <trkpt lat="48.15445" lon="-3.32092">
        <ele>237.5</ele>
        <time>2024-11-20T11:17:58Z</time>
      </trkpt>
      <trkpt lat="48.15447" lon="-3.32093">
        <ele>237.5</ele>
        <time>2024-11-20T11:17:59Z</time>
      </trkpt>
      <trkpt lat="48.15448" lon="-3.32094">
        <ele>237.5</ele>
        <time>2024-11-20T11:18:00Z</time>
      </trkpt>
      <trkpt lat="48.15449" lon="-3.32095">
        <ele>237.5</ele>
        <time>2024-11-20T11:18:01Z</time>
      </trkpt>
      <trkpt lat="48.1545" lon="-3.32096">
        <ele>237.5</ele>
        <time>2024-11-20T11:18:02Z</time>
      </trkpt>
      <trkpt lat="48.15452" lon="-3.32097">
        <ele>237.5</ele>
        <time>2024-11-20T11:18:03Z</time>
      </trkpt>
      <trkpt lat="48.15453" lon="-3.32098">
        <ele>237.6</ele>
        <time>2024-11-20T11:18:04Z</time>
      </trkpt>
      <trkpt lat="48.15453" lon="-3.32099">
        <ele>237.6</ele>
        <time>2024-11-20T11:18:05Z</time>
      </trkpt>
      <trkpt lat="48.15454" lon="-3.32099">
        <ele>237.6</ele>
        <time>2024-11-20T11:18:06Z</time>
      </trkpt>
      <trkpt lat="48.15455" lon="-3.321">
        <ele>237.6</ele>
        <time>2024-11-20T11:18:07Z</time>
      </trkpt>
      <trkpt lat="48.15456" lon="-3.321">
        <ele>237.6</ele>
        <time>2024-11-20T11:18:08Z</time>
      </trkpt>
      <trkpt lat="48.15456" lon="-3.32101">
        <ele>237.6</ele>
        <time>2024-11-20T11:18:09Z</time>
      </trkpt>
      <trkpt lat="48.15457" lon="-3.32101">
        <ele>237.6</ele>
        <time>2024-11-20T11:18:10Z</time>
      </trkpt>
      <trkpt lat="48.15458" lon="-3.32102">
        <ele>237.6</ele>
        <time>2024-11-20T11:18:11Z</time>
      </trkpt>
      <trkpt lat="48.15459" lon="-3.32103">
        <ele>237.7</ele>
        <time>2024-11-20T11:18:12Z</time>
      </trkpt>
      <trkpt lat="48.1546" lon="-3.32103">
        <ele>237.7</ele>
        <time>2024-11-20T11:18:13Z</time>
      </trkpt>
      <trkpt lat="48.1546" lon="-3.32104">
        <ele>237.7</ele>
        <time>2024-11-20T11:18:14Z</time>
      </trkpt>
      <trkpt lat="48.15461" lon="-3.32104">
        <ele>237.7</ele>
        <time>2024-11-20T11:18:15Z</time>
      </trkpt>
      <trkpt lat="48.15463" lon="-3.32105">
        <ele>237.8</ele>
        <time>2024-11-20T11:18:16Z</time>
      </trkpt>
      <trkpt lat="48.15465" lon="-3.32106">
        <ele>237.9</ele>
        <time>2024-11-20T11:18:17Z</time>
      </trkpt>
      <trkpt lat="48.15466" lon="-3.32106">
        <ele>237.9</ele>
        <time>2024-11-20T11:18:18Z</time>
      </trkpt>
      <trkpt lat="48.15468" lon="-3.32106">
        <ele>238</ele>
        <time>2024-11-20T11:18:19Z</time>
      </trkpt>
      <trkpt lat="48.15469" lon="-3.32107">
        <ele>238.1</ele>
        <time>2024-11-20T11:18:20Z</time>
      </trkpt>
      <trkpt lat="48.1547" lon="-3.32107">
        <ele>238.2</ele>
        <time>2024-11-20T11:18:21Z</time>
      </trkpt>
      <trkpt lat="48.15471" lon="-3.32107">
        <ele>238.2</ele>
        <time>2024-11-20T11:18:22Z</time>
      </trkpt>
      <trkpt lat="48.15472" lon="-3.32108">
        <ele>238.2</ele>
        <time>2024-11-20T11:18:23Z</time>
      </trkpt>
      <trkpt lat="48.15473" lon="-3.32109">
        <ele>238.2</ele>
        <time>2024-11-20T11:18:24Z</time>
      </trkpt>
      <trkpt lat="48.15475" lon="-3.3211">
        <ele>238.3</ele>
        <time>2024-11-20T11:18:25Z</time>
      </trkpt>
      <trkpt lat="48.15476" lon="-3.3211">
        <ele>238.4</ele>
        <time>2024-11-20T11:18:26Z</time>
      </trkpt>
      <trkpt lat="48.15478" lon="-3.3211">
        <ele>238.4</ele>
        <time>2024-11-20T11:18:27Z</time>
      </trkpt>
      <trkpt lat="48.15479" lon="-3.32111">
        <ele>238.5</ele>
        <time>2024-11-20T11:18:28Z</time>
      </trkpt>
      <trkpt lat="48.15481" lon="-3.32112">
        <ele>238.6</ele>
        <time>2024-11-20T11:18:29Z</time>
      </trkpt>
      <trkpt lat="48.15483" lon="-3.32112">
        <ele>238.7</ele>
        <time>2024-11-20T11:18:30Z</time>
      </trkpt>
      <trkpt lat="48.15484" lon="-3.32113">
        <ele>238.7</ele>
        <time>2024-11-20T11:18:31Z</time>
      </trkpt>
      <trkpt lat="48.15486" lon="-3.32114">
        <ele>238.8</ele>
        <time>2024-11-20T11:18:32Z</time>
      </trkpt>
      <trkpt lat="48.15487" lon="-3.32114">
        <ele>238.8</ele>
        <time>2024-11-20T11:18:33Z</time>
      </trkpt>
      <trkpt lat="48.15488" lon="-3.32115">
        <ele>238.9</ele>
        <time>2024-11-20T11:18:34Z</time>
      </trkpt>
      <trkpt lat="48.1549" lon="-3.32116">
        <ele>238.9</ele>
        <time>2024-11-20T11:18:35Z</time>
      </trkpt>
      <trkpt lat="48.15491" lon="-3.32116">
        <ele>239</ele>
        <time>2024-11-20T11:18:36Z</time>
      </trkpt>
      <trkpt lat="48.15492" lon="-3.32117">
        <ele>239.1</ele>
        <time>2024-11-20T11:18:37Z</time>
      </trkpt>
      <trkpt lat="48.15494" lon="-3.32117">
        <ele>239.1</ele>
        <time>2024-11-20T11:18:38Z</time>
      </trkpt>
      <trkpt lat="48.15495" lon="-3.32118">
        <ele>239.2</ele>
        <time>2024-11-20T11:18:39Z</time>
      </trkpt>
      <trkpt lat="48.15497" lon="-3.32118">
        <ele>239.3</ele>
        <time>2024-11-20T11:18:40Z</time>
      </trkpt>
      <trkpt lat="48.15498" lon="-3.32118">
        <ele>239.4</ele>
        <time>2024-11-20T11:18:41Z</time>
      </trkpt>
      <trkpt lat="48.155" lon="-3.32119">
        <ele>239.4</ele>
        <time>2024-11-20T11:18:42Z</time>
      </trkpt>
      <trkpt lat="48.15501" lon="-3.32119">
        <ele>239.5</ele>
        <time>2024-11-20T11:18:43Z</time>
      </trkpt>
      <trkpt lat="48.15502" lon="-3.3212">
        <ele>239.5</ele>
        <time>2024-11-20T11:18:44Z</time>
      </trkpt>
      <trkpt lat="48.15504" lon="-3.3212">
        <ele>239.5</ele>
        <time>2024-11-20T11:18:45Z</time>
      </trkpt>
      <trkpt lat="48.15505" lon="-3.32121">
        <ele>239.5</ele>
        <time>2024-11-20T11:18:46Z</time>
      </trkpt>
      <trkpt lat="48.15506" lon="-3.32121">
        <ele>239.5</ele>
        <time>2024-11-20T11:18:47Z</time>
      </trkpt>
      <trkpt lat="48.15508" lon="-3.32121">
        <ele>239.5</ele>
        <time>2024-11-20T11:18:48Z</time>
      </trkpt>
      <trkpt lat="48.15509" lon="-3.32122">
        <ele>239.6</ele>
        <time>2024-11-20T11:18:49Z</time>
      </trkpt>
      <trkpt lat="48.1551" lon="-3.32122">
        <ele>239.6</ele>
        <time>2024-11-20T11:18:50Z</time>
      </trkpt>
      <trkpt lat="48.15512" lon="-3.32123">
        <ele>239.6</ele>
        <time>2024-11-20T11:18:51Z</time>
      </trkpt>
      <trkpt lat="48.15513" lon="-3.32123">
        <ele>239.6</ele>
        <time>2024-11-20T11:18:52Z</time>
      </trkpt>
      <trkpt lat="48.15514" lon="-3.32124">
        <ele>239.6</ele>
        <time>2024-11-20T11:18:53Z</time>
      </trkpt>
      <trkpt lat="48.15516" lon="-3.32124">
        <ele>239.6</ele>
        <time>2024-11-20T11:18:54Z</time>
      </trkpt>
      <trkpt lat="48.15517" lon="-3.32125">
        <ele>239.6</ele>
        <time>2024-11-20T11:18:55Z</time>
      </trkpt>
      <trkpt lat="48.15518" lon="-3.32125">
        <ele>239.6</ele>
        <time>2024-11-20T11:18:56Z</time>
      </trkpt>
      <trkpt lat="48.15519" lon="-3.32126">
        <ele>239.6</ele>
        <time>2024-11-20T11:18:57Z</time>
      </trkpt>
      <trkpt lat="48.1552" lon="-3.32126">
        <ele>239.7</ele>
        <time>2024-11-20T11:18:58Z</time>
      </trkpt>
      <trkpt lat="48.15522" lon="-3.32127">
        <ele>239.7</ele>
        <time>2024-11-20T11:18:59Z</time>
      </trkpt>
      <trkpt lat="48.15523" lon="-3.32127">
        <ele>239.7</ele>
        <time>2024-11-20T11:19:00Z</time>
      </trkpt>
      <trkpt lat="48.15524" lon="-3.32127">
        <ele>239.7</ele>
        <time>2024-11-20T11:19:01Z</time>
      </trkpt>
      <trkpt lat="48.15525" lon="-3.32128">
        <ele>239.7</ele>
        <time>2024-11-20T11:19:02Z</time>
      </trkpt>
      <trkpt lat="48.15527" lon="-3.32128">
        <ele>239.7</ele>
        <time>2024-11-20T11:19:03Z</time>
      </trkpt>
      <trkpt lat="48.15528" lon="-3.32128">
        <ele>239.8</ele>
        <time>2024-11-20T11:19:04Z</time>
      </trkpt>
      <trkpt lat="48.15529" lon="-3.32129">
        <ele>239.7</ele>
        <time>2024-11-20T11:19:05Z</time>
      </trkpt>
      <trkpt lat="48.1553" lon="-3.32129">
        <ele>239.7</ele>
        <time>2024-11-20T11:19:06Z</time>
      </trkpt>
      <trkpt lat="48.15532" lon="-3.32129">
        <ele>239.7</ele>
        <time>2024-11-20T11:19:07Z</time>
      </trkpt>
      <trkpt lat="48.15533" lon="-3.3213">
        <ele>239.7</ele>
        <time>2024-11-20T11:19:08Z</time>
      </trkpt>
      <trkpt lat="48.15534" lon="-3.3213">
        <ele>239.7</ele>
        <time>2024-11-20T11:19:09Z</time>
      </trkpt>
      <trkpt lat="48.15535" lon="-3.3213">
        <ele>239.7</ele>
        <time>2024-11-20T11:19:10Z</time>
      </trkpt>
      <trkpt lat="48.15536" lon="-3.3213">
        <ele>239.7</ele>
        <time>2024-11-20T11:19:11Z</time>
      </trkpt>
      <trkpt lat="48.15537" lon="-3.3213">
        <ele>239.7</ele>
        <time>2024-11-20T11:19:12Z</time>
      </trkpt>
      <trkpt lat="48.15538" lon="-3.3213">
        <ele>239.8</ele>
        <time>2024-11-20T11:19:13Z</time>
      </trkpt>
      <trkpt lat="48.15539" lon="-3.3213">
        <ele>239.8</ele>
        <time>2024-11-20T11:19:14Z</time>
      </trkpt>
      <trkpt lat="48.1554" lon="-3.3213">
        <ele>239.8</ele>
        <time>2024-11-20T11:19:15Z</time>
      </trkpt>
      <trkpt lat="48.15542" lon="-3.3213">
        <ele>239.8</ele>
        <time>2024-11-20T11:19:16Z</time>
      </trkpt>
      <trkpt lat="48.15543" lon="-3.3213">
        <ele>239.8</ele>
        <time>2024-11-20T11:19:17Z</time>
      </trkpt>
      <trkpt lat="48.15544" lon="-3.3213">
        <ele>239.8</ele>
        <time>2024-11-20T11:19:18Z</time>
      </trkpt>
      <trkpt lat="48.15545" lon="-3.3213">
        <ele>239.8</ele>
        <time>2024-11-20T11:19:19Z</time>
      </trkpt>
      <trkpt lat="48.15546" lon="-3.3213">
        <ele>239.9</ele>
        <time>2024-11-20T11:19:20Z</time>
      </trkpt>
      <trkpt lat="48.15547" lon="-3.3213">
        <ele>239.9</ele>
        <time>2024-11-20T11:19:21Z</time>
      </trkpt>
      <trkpt lat="48.15548" lon="-3.3213">
        <ele>239.9</ele>
        <time>2024-11-20T11:19:22Z</time>
      </trkpt>
      <trkpt lat="48.15549" lon="-3.3213">
        <ele>239.9</ele>
        <time>2024-11-20T11:19:23Z</time>
      </trkpt>
      <trkpt lat="48.1555" lon="-3.3213">
        <ele>239.9</ele>
        <time>2024-11-20T11:19:24Z</time>
      </trkpt>
      <trkpt lat="48.15551" lon="-3.3213">
        <ele>239.9</ele>
        <time>2024-11-20T11:19:25Z</time>
      </trkpt>
      <trkpt lat="48.15553" lon="-3.3213">
        <ele>239.9</ele>
        <time>2024-11-20T11:19:26Z</time>
      </trkpt>
      <trkpt lat="48.15554" lon="-3.3213">
        <ele>239.9</ele>
        <time>2024-11-20T11:19:27Z</time>
      </trkpt>
      <trkpt lat="48.15555" lon="-3.3213">
        <ele>240</ele>
        <time>2024-11-20T11:19:28Z</time>
      </trkpt>
      <trkpt lat="48.15556" lon="-3.3213">
        <ele>240</ele>
        <time>2024-11-20T11:19:29Z</time>
      </trkpt>
      <trkpt lat="48.15557" lon="-3.3213">
        <ele>240</ele>
        <time>2024-11-20T11:19:30Z</time>
      </trkpt>
      <trkpt lat="48.15558" lon="-3.3213">
        <ele>240</ele>
        <time>2024-11-20T11:19:31Z</time>
      </trkpt>
      <trkpt lat="48.15559" lon="-3.3213">
        <ele>240</ele>
        <time>2024-11-20T11:19:32Z</time>
      </trkpt>
      <trkpt lat="48.1556" lon="-3.3213">
        <ele>240</ele>
        <time>2024-11-20T11:19:33Z</time>
      </trkpt>
      <trkpt lat="48.15561" lon="-3.3213">
        <ele>240</ele>
        <time>2024-11-20T11:19:34Z</time>
      </trkpt>
      <trkpt lat="48.15562" lon="-3.3213">
        <ele>240</ele>
        <time>2024-11-20T11:19:35Z</time>
      </trkpt>
      <trkpt lat="48.15563" lon="-3.3213">
        <ele>240</ele>
        <time>2024-11-20T11:19:36Z</time>
      </trkpt>
      <trkpt lat="48.15564" lon="-3.3213">
        <ele>240</ele>
        <time>2024-11-20T11:19:37Z</time>
      </trkpt>
      <trkpt lat="48.15566" lon="-3.3213">
        <ele>239.9</ele>
        <time>2024-11-20T11:19:38Z</time>
      </trkpt>
      <trkpt lat="48.15567" lon="-3.3213">
        <ele>239.9</ele>
        <time>2024-11-20T11:19:39Z</time>
      </trkpt>
      <trkpt lat="48.15568" lon="-3.32131">
        <ele>239.9</ele>
        <time>2024-11-20T11:19:40Z</time>
      </trkpt>
      <trkpt lat="48.15569" lon="-3.3213">
        <ele>239.9</ele>
        <time>2024-11-20T11:19:41Z</time>
      </trkpt>
      <trkpt lat="48.1557" lon="-3.3213">
        <ele>240</ele>
        <time>2024-11-20T11:19:42Z</time>
      </trkpt>
      <trkpt lat="48.15572" lon="-3.3213">
        <ele>240</ele>
        <time>2024-11-20T11:19:43Z</time>
      </trkpt>
      <trkpt lat="48.15573" lon="-3.32129">
        <ele>240</ele>
        <time>2024-11-20T11:19:44Z</time>
      </trkpt>
      <trkpt lat="48.15574" lon="-3.32129">
        <ele>240</ele>
        <time>2024-11-20T11:19:45Z</time>
      </trkpt>
      <trkpt lat="48.15575" lon="-3.32129">
        <ele>240</ele>
        <time>2024-11-20T11:19:46Z</time>
      </trkpt>
      <trkpt lat="48.15576" lon="-3.32129">
        <ele>240</ele>
        <time>2024-11-20T11:19:47Z</time>
      </trkpt>
      <trkpt lat="48.15577" lon="-3.32129">
        <ele>240</ele>
        <time>2024-11-20T11:19:48Z</time>
      </trkpt>
      <trkpt lat="48.15578" lon="-3.32129">
        <ele>240.1</ele>
        <time>2024-11-20T11:19:49Z</time>
      </trkpt>
      <trkpt lat="48.1558" lon="-3.32129">
        <ele>240.1</ele>
        <time>2024-11-20T11:19:50Z</time>
      </trkpt>
      <trkpt lat="48.15581" lon="-3.32129">
        <ele>240.1</ele>
        <time>2024-11-20T11:19:51Z</time>
      </trkpt>
      <trkpt lat="48.15583" lon="-3.32129">
        <ele>240.1</ele>
        <time>2024-11-20T11:19:52Z</time>
      </trkpt>
      <trkpt lat="48.15584" lon="-3.32129">
        <ele>240.1</ele>
        <time>2024-11-20T11:19:53Z</time>
      </trkpt>
      <trkpt lat="48.15586" lon="-3.32129">
        <ele>240.1</ele>
        <time>2024-11-20T11:19:54Z</time>
      </trkpt>
      <trkpt lat="48.15587" lon="-3.32129">
        <ele>240.1</ele>
        <time>2024-11-20T11:19:55Z</time>
      </trkpt>
      <trkpt lat="48.15589" lon="-3.32129">
        <ele>240.1</ele>
        <time>2024-11-20T11:19:56Z</time>
      </trkpt>
      <trkpt lat="48.1559" lon="-3.32129">
        <ele>240.1</ele>
        <time>2024-11-20T11:19:57Z</time>
      </trkpt>
      <trkpt lat="48.15592" lon="-3.32129">
        <ele>240.2</ele>
        <time>2024-11-20T11:19:58Z</time>
      </trkpt>
      <trkpt lat="48.15593" lon="-3.32129">
        <ele>240.2</ele>
        <time>2024-11-20T11:19:59Z</time>
      </trkpt>
      <trkpt lat="48.15595" lon="-3.32129">
        <ele>240.2</ele>
        <time>2024-11-20T11:20:00Z</time>
      </trkpt>
      <trkpt lat="48.15595" lon="-3.32129">
        <ele>240.2</ele>
        <time>2024-11-20T11:20:01Z</time>
      </trkpt>
      <trkpt lat="48.15596" lon="-3.32129">
        <ele>240.2</ele>
        <time>2024-11-20T11:20:02Z</time>
      </trkpt>
      <trkpt lat="48.15596" lon="-3.3213">
        <ele>240.1</ele>
        <time>2024-11-20T11:20:03Z</time>
      </trkpt>
      <trkpt lat="48.15597" lon="-3.3213">
        <ele>240.1</ele>
        <time>2024-11-20T11:20:04Z</time>
      </trkpt>
      <trkpt lat="48.15598" lon="-3.32131">
        <ele>240.1</ele>
        <time>2024-11-20T11:20:05Z</time>
      </trkpt>
      <trkpt lat="48.15599" lon="-3.32131">
        <ele>240</ele>
        <time>2024-11-20T11:20:06Z</time>
      </trkpt>
      <trkpt lat="48.15599" lon="-3.32131">
        <ele>240.1</ele>
        <time>2024-11-20T11:20:07Z</time>
      </trkpt>
      <trkpt lat="48.15601" lon="-3.3213">
        <ele>240.1</ele>
        <time>2024-11-20T11:20:08Z</time>
      </trkpt>
      <trkpt lat="48.15602" lon="-3.3213">
        <ele>240.1</ele>
        <time>2024-11-20T11:20:09Z</time>
      </trkpt>
      <trkpt lat="48.15603" lon="-3.3213">
        <ele>240.2</ele>
        <time>2024-11-20T11:20:10Z</time>
      </trkpt>
      <trkpt lat="48.15605" lon="-3.3213">
        <ele>240.2</ele>
        <time>2024-11-20T11:20:11Z</time>
      </trkpt>
      <trkpt lat="48.15606" lon="-3.3213">
        <ele>240.3</ele>
        <time>2024-11-20T11:20:12Z</time>
      </trkpt>
      <trkpt lat="48.15607" lon="-3.32129">
        <ele>240.3</ele>
        <time>2024-11-20T11:20:13Z</time>
      </trkpt>
      <trkpt lat="48.15608" lon="-3.32129">
        <ele>240.4</ele>
        <time>2024-11-20T11:20:14Z</time>
      </trkpt>
      <trkpt lat="48.15609" lon="-3.32129">
        <ele>240.4</ele>
        <time>2024-11-20T11:20:15Z</time>
      </trkpt>
      <trkpt lat="48.15611" lon="-3.32129">
        <ele>240.4</ele>
        <time>2024-11-20T11:20:16Z</time>
      </trkpt>
      <trkpt lat="48.15612" lon="-3.32129">
        <ele>240.4</ele>
        <time>2024-11-20T11:20:17Z</time>
      </trkpt>
      <trkpt lat="48.15613" lon="-3.32129">
        <ele>240.5</ele>
        <time>2024-11-20T11:20:18Z</time>
      </trkpt>
      <trkpt lat="48.15614" lon="-3.32128">
        <ele>240.5</ele>
        <time>2024-11-20T11:20:19Z</time>
      </trkpt>
      <trkpt lat="48.15615" lon="-3.32128">
        <ele>240.5</ele>
        <time>2024-11-20T11:20:20Z</time>
      </trkpt>
      <trkpt lat="48.15617" lon="-3.32128">
        <ele>240.5</ele>
        <time>2024-11-20T11:20:21Z</time>
      </trkpt>
      <trkpt lat="48.15618" lon="-3.32128">
        <ele>240.5</ele>
        <time>2024-11-20T11:20:22Z</time>
      </trkpt>
      <trkpt lat="48.15619" lon="-3.32127">
        <ele>240.5</ele>
        <time>2024-11-20T11:20:23Z</time>
      </trkpt>
      <trkpt lat="48.15621" lon="-3.32127">
        <ele>240.5</ele>
        <time>2024-11-20T11:20:24Z</time>
      </trkpt>
      <trkpt lat="48.15622" lon="-3.32127">
        <ele>240.5</ele>
        <time>2024-11-20T11:20:25Z</time>
      </trkpt>
      <trkpt lat="48.15623" lon="-3.32127">
        <ele>240.5</ele>
        <time>2024-11-20T11:20:26Z</time>
      </trkpt>
      <trkpt lat="48.15624" lon="-3.32127">
        <ele>240.5</ele>
        <time>2024-11-20T11:20:27Z</time>
      </trkpt>
      <trkpt lat="48.15625" lon="-3.32127">
        <ele>240.5</ele>
        <time>2024-11-20T11:20:28Z</time>
      </trkpt>
      <trkpt lat="48.15627" lon="-3.32127">
        <ele>240.5</ele>
        <time>2024-11-20T11:20:29Z</time>
      </trkpt>
      <trkpt lat="48.15628" lon="-3.32127">
        <ele>240.5</ele>
        <time>2024-11-20T11:20:30Z</time>
      </trkpt>
      <trkpt lat="48.15629" lon="-3.32127">
        <ele>240.5</ele>
        <time>2024-11-20T11:20:31Z</time>
      </trkpt>
      <trkpt lat="48.1563" lon="-3.32127">
        <ele>240.5</ele>
        <time>2024-11-20T11:20:32Z</time>
      </trkpt>
      <trkpt lat="48.15631" lon="-3.32127">
        <ele>240.4</ele>
        <time>2024-11-20T11:20:33Z</time>
      </trkpt>
      <trkpt lat="48.15633" lon="-3.32127">
        <ele>240.4</ele>
        <time>2024-11-20T11:20:34Z</time>
      </trkpt>
      <trkpt lat="48.15634" lon="-3.32126">
        <ele>240.4</ele>
        <time>2024-11-20T11:20:35Z</time>
      </trkpt>
      <trkpt lat="48.15636" lon="-3.32126">
        <ele>240.4</ele>
        <time>2024-11-20T11:20:36Z</time>
      </trkpt>
      <trkpt lat="48.15636" lon="-3.32126">
        <ele>240.4</ele>
        <time>2024-11-20T11:20:37Z</time>
      </trkpt>
      <trkpt lat="48.15637" lon="-3.32126">
        <ele>240.4</ele>
        <time>2024-11-20T11:20:38Z</time>
      </trkpt>
      <trkpt lat="48.15638" lon="-3.32126">
        <ele>240.4</ele>
        <time>2024-11-20T11:20:39Z</time>
      </trkpt>
      <trkpt lat="48.15639" lon="-3.32126">
        <ele>240.4</ele>
        <time>2024-11-20T11:20:40Z</time>
      </trkpt>
      <trkpt lat="48.15641" lon="-3.32125">
        <ele>240.5</ele>
        <time>2024-11-20T11:20:41Z</time>
      </trkpt>
      <trkpt lat="48.15642" lon="-3.32125">
        <ele>240.5</ele>
        <time>2024-11-20T11:20:42Z</time>
      </trkpt>
      <trkpt lat="48.15644" lon="-3.32125">
        <ele>240.5</ele>
        <time>2024-11-20T11:20:43Z</time>
      </trkpt>
      <trkpt lat="48.15645" lon="-3.32125">
        <ele>240.5</ele>
        <time>2024-11-20T11:20:44Z</time>
      </trkpt>
      <trkpt lat="48.15646" lon="-3.32125">
        <ele>240.5</ele>
        <time>2024-11-20T11:20:45Z</time>
      </trkpt>
      <trkpt lat="48.15648" lon="-3.32125">
        <ele>240.5</ele>
        <time>2024-11-20T11:20:46Z</time>
      </trkpt>
      <trkpt lat="48.15649" lon="-3.32125">
        <ele>240.5</ele>
        <time>2024-11-20T11:20:47Z</time>
      </trkpt>
      <trkpt lat="48.1565" lon="-3.32125">
        <ele>240.5</ele>
        <time>2024-11-20T11:20:48Z</time>
      </trkpt>
      <trkpt lat="48.1565" lon="-3.32125">
        <ele>240.5</ele>
        <time>2024-11-20T11:20:49Z</time>
      </trkpt>
      <trkpt lat="48.15651" lon="-3.32125">
        <ele>240.5</ele>
        <time>2024-11-20T11:20:50Z</time>
      </trkpt>
      <trkpt lat="48.15653" lon="-3.32125">
        <ele>240.5</ele>
        <time>2024-11-20T11:20:51Z</time>
      </trkpt>
      <trkpt lat="48.15654" lon="-3.32126">
        <ele>240.4</ele>
        <time>2024-11-20T11:20:52Z</time>
      </trkpt>
      <trkpt lat="48.15655" lon="-3.32126">
        <ele>240.4</ele>
        <time>2024-11-20T11:20:53Z</time>
      </trkpt>
      <trkpt lat="48.15656" lon="-3.32126">
        <ele>240.3</ele>
        <time>2024-11-20T11:20:54Z</time>
      </trkpt>
      <trkpt lat="48.15657" lon="-3.32127">
        <ele>240.3</ele>
        <time>2024-11-20T11:20:55Z</time>
      </trkpt>
      <trkpt lat="48.15658" lon="-3.32127">
        <ele>240.3</ele>
        <time>2024-11-20T11:20:56Z</time>
      </trkpt>
      <trkpt lat="48.15659" lon="-3.32127">
        <ele>240.2</ele>
        <time>2024-11-20T11:20:57Z</time>
      </trkpt>
      <trkpt lat="48.1566" lon="-3.32127">
        <ele>240.3</ele>
        <time>2024-11-20T11:20:58Z</time>
      </trkpt>
      <trkpt lat="48.15661" lon="-3.32126">
        <ele>240.4</ele>
        <time>2024-11-20T11:20:59Z</time>
      </trkpt>
      <trkpt lat="48.15662" lon="-3.32125">
        <ele>240.5</ele>
        <time>2024-11-20T11:21:00Z</time>
      </trkpt>
      <trkpt lat="48.15662" lon="-3.32125">
        <ele>240.5</ele>
        <time>2024-11-20T11:21:01Z</time>
      </trkpt>
      <trkpt lat="48.15663" lon="-3.32124">
        <ele>240.6</ele>
        <time>2024-11-20T11:21:02Z</time>
      </trkpt>
      <trkpt lat="48.15664" lon="-3.32124">
        <ele>240.6</ele>
        <time>2024-11-20T11:21:03Z</time>
      </trkpt>
      <trkpt lat="48.15665" lon="-3.32124">
        <ele>240.6</ele>
        <time>2024-11-20T11:21:04Z</time>
      </trkpt>
      <trkpt lat="48.15666" lon="-3.32124">
        <ele>240.7</ele>
        <time>2024-11-20T11:21:05Z</time>
      </trkpt>
      <trkpt lat="48.15667" lon="-3.32124">
        <ele>240.7</ele>
        <time>2024-11-20T11:21:06Z</time>
      </trkpt>
      <trkpt lat="48.15668" lon="-3.32123">
        <ele>240.7</ele>
        <time>2024-11-20T11:21:07Z</time>
      </trkpt>
      <trkpt lat="48.15669" lon="-3.32123">
        <ele>240.7</ele>
        <time>2024-11-20T11:21:08Z</time>
      </trkpt>
      <trkpt lat="48.15671" lon="-3.32123">
        <ele>240.7</ele>
        <time>2024-11-20T11:21:09Z</time>
      </trkpt>
      <trkpt lat="48.15672" lon="-3.32124">
        <ele>240.6</ele>
        <time>2024-11-20T11:21:10Z</time>
      </trkpt>
      <trkpt lat="48.15673" lon="-3.32124">
        <ele>240.6</ele>
        <time>2024-11-20T11:21:11Z</time>
      </trkpt>
      <trkpt lat="48.15674" lon="-3.32124">
        <ele>240.6</ele>
        <time>2024-11-20T11:21:12Z</time>
      </trkpt>
      <trkpt lat="48.15675" lon="-3.32125">
        <ele>240.5</ele>
        <time>2024-11-20T11:21:13Z</time>
      </trkpt>
      <trkpt lat="48.15676" lon="-3.32125">
        <ele>240.5</ele>
        <time>2024-11-20T11:21:14Z</time>
      </trkpt>
      <trkpt lat="48.15677" lon="-3.32125">
        <ele>240.5</ele>
        <time>2024-11-20T11:21:15Z</time>
      </trkpt>
      <trkpt lat="48.15678" lon="-3.32126">
        <ele>240.4</ele>
        <time>2024-11-20T11:21:16Z</time>
      </trkpt>
      <trkpt lat="48.15679" lon="-3.32126">
        <ele>240.4</ele>
        <time>2024-11-20T11:21:17Z</time>
      </trkpt>
      <trkpt lat="48.1568" lon="-3.32127">
        <ele>240.3</ele>
        <time>2024-11-20T11:21:18Z</time>
      </trkpt>
      <trkpt lat="48.15681" lon="-3.32127">
        <ele>240.3</ele>
        <time>2024-11-20T11:21:19Z</time>
      </trkpt>
      <trkpt lat="48.15682" lon="-3.32128">
        <ele>240.2</ele>
        <time>2024-11-20T11:21:20Z</time>
      </trkpt>
      <trkpt lat="48.15684" lon="-3.32129">
        <ele>240.1</ele>
        <time>2024-11-20T11:21:21Z</time>
      </trkpt>
      <trkpt lat="48.15685" lon="-3.3213">
        <ele>240</ele>
        <time>2024-11-20T11:21:22Z</time>
      </trkpt>
      <trkpt lat="48.15686" lon="-3.3213">
        <ele>239.9</ele>
        <time>2024-11-20T11:21:23Z</time>
      </trkpt>
      <trkpt lat="48.15687" lon="-3.32131">
        <ele>239.9</ele>
        <time>2024-11-20T11:21:24Z</time>
      </trkpt>
      <trkpt lat="48.15688" lon="-3.32131">
        <ele>239.8</ele>
        <time>2024-11-20T11:21:25Z</time>
      </trkpt>
      <trkpt lat="48.15689" lon="-3.32131">
        <ele>239.8</ele>
        <time>2024-11-20T11:21:26Z</time>
      </trkpt>
      <trkpt lat="48.1569" lon="-3.32131">
        <ele>239.8</ele>
        <time>2024-11-20T11:21:27Z</time>
      </trkpt>
      <trkpt lat="48.15691" lon="-3.32132">
        <ele>239.8</ele>
        <time>2024-11-20T11:21:28Z</time>
      </trkpt>
      <trkpt lat="48.15693" lon="-3.32132">
        <ele>239.8</ele>
        <time>2024-11-20T11:21:29Z</time>
      </trkpt>
      <trkpt lat="48.15694" lon="-3.32132">
        <ele>239.7</ele>
        <time>2024-11-20T11:21:30Z</time>
      </trkpt>
      <trkpt lat="48.15695" lon="-3.32133">
        <ele>239.6</ele>
        <time>2024-11-20T11:21:31Z</time>
      </trkpt>
      <trkpt lat="48.15695" lon="-3.32134">
        <ele>239.5</ele>
        <time>2024-11-20T11:21:32Z</time>
      </trkpt>
      <trkpt lat="48.15697" lon="-3.32135">
        <ele>239.4</ele>
        <time>2024-11-20T11:21:33Z</time>
      </trkpt>
      <trkpt lat="48.15698" lon="-3.32136">
        <ele>239.3</ele>
        <time>2024-11-20T11:21:34Z</time>
      </trkpt>
      <trkpt lat="48.15699" lon="-3.32137">
        <ele>239.2</ele>
        <time>2024-11-20T11:21:35Z</time>
      </trkpt>
      <trkpt lat="48.157" lon="-3.32138">
        <ele>239.1</ele>
        <time>2024-11-20T11:21:36Z</time>
      </trkpt>
      <trkpt lat="48.15701" lon="-3.32138">
        <ele>239.1</ele>
        <time>2024-11-20T11:21:37Z</time>
      </trkpt>
      <trkpt lat="48.15702" lon="-3.32138">
        <ele>239.1</ele>
        <time>2024-11-20T11:21:38Z</time>
      </trkpt>
      <trkpt lat="48.15703" lon="-3.32139">
        <ele>239</ele>
        <time>2024-11-20T11:21:39Z</time>
      </trkpt>
      <trkpt lat="48.15704" lon="-3.32139">
        <ele>239</ele>
        <time>2024-11-20T11:21:40Z</time>
      </trkpt>
      <trkpt lat="48.15705" lon="-3.32139">
        <ele>239</ele>
        <time>2024-11-20T11:21:41Z</time>
      </trkpt>
      <trkpt lat="48.15706" lon="-3.3214">
        <ele>238.9</ele>
        <time>2024-11-20T11:21:42Z</time>
      </trkpt>
      <trkpt lat="48.15708" lon="-3.3214">
        <ele>238.9</ele>
        <time>2024-11-20T11:21:43Z</time>
      </trkpt>
      <trkpt lat="48.15709" lon="-3.3214">
        <ele>238.9</ele>
        <time>2024-11-20T11:21:44Z</time>
      </trkpt>
      <trkpt lat="48.1571" lon="-3.3214">
        <ele>238.8</ele>
        <time>2024-11-20T11:21:45Z</time>
      </trkpt>
      <trkpt lat="48.15711" lon="-3.3214">
        <ele>238.8</ele>
        <time>2024-11-20T11:21:46Z</time>
      </trkpt>
      <trkpt lat="48.15712" lon="-3.3214">
        <ele>238.9</ele>
        <time>2024-11-20T11:21:47Z</time>
      </trkpt>
      <trkpt lat="48.15713" lon="-3.3214">
        <ele>238.9</ele>
        <time>2024-11-20T11:21:48Z</time>
      </trkpt>
      <trkpt lat="48.15714" lon="-3.3214">
        <ele>238.9</ele>
        <time>2024-11-20T11:21:49Z</time>
      </trkpt>
      <trkpt lat="48.15715" lon="-3.3214">
        <ele>238.9</ele>
        <time>2024-11-20T11:21:50Z</time>
      </trkpt>
      <trkpt lat="48.15715" lon="-3.32141">
        <ele>238.8</ele>
        <time>2024-11-20T11:21:51Z</time>
      </trkpt>
      <trkpt lat="48.15716" lon="-3.32142">
        <ele>238.7</ele>
        <time>2024-11-20T11:21:52Z</time>
      </trkpt>
      <trkpt lat="48.15716" lon="-3.32142">
        <ele>238.6</ele>
        <time>2024-11-20T11:21:53Z</time>
      </trkpt>
      <trkpt lat="48.15717" lon="-3.32143">
        <ele>238.6</ele>
        <time>2024-11-20T11:21:54Z</time>
      </trkpt>
      <trkpt lat="48.15718" lon="-3.32144">
        <ele>238.5</ele>
        <time>2024-11-20T11:21:55Z</time>
      </trkpt>
      <trkpt lat="48.1572" lon="-3.32144">
        <ele>238.5</ele>
        <time>2024-11-20T11:21:56Z</time>
      </trkpt>
      <trkpt lat="48.1572" lon="-3.32144">
        <ele>238.4</ele>
        <time>2024-11-20T11:21:57Z</time>
      </trkpt>
      <trkpt lat="48.15722" lon="-3.32145">
        <ele>238.4</ele>
        <time>2024-11-20T11:21:58Z</time>
      </trkpt>
      <trkpt lat="48.15723" lon="-3.32145">
        <ele>238.4</ele>
        <time>2024-11-20T11:21:59Z</time>
      </trkpt>
      <trkpt lat="48.15724" lon="-3.32145">
        <ele>238.3</ele>
        <time>2024-11-20T11:22:00Z</time>
      </trkpt>
      <trkpt lat="48.15725" lon="-3.32146">
        <ele>238.2</ele>
        <time>2024-11-20T11:22:01Z</time>
      </trkpt>
      <trkpt lat="48.15725" lon="-3.32146">
        <ele>238.1</ele>
        <time>2024-11-20T11:22:02Z</time>
      </trkpt>
      <trkpt lat="48.15727" lon="-3.32147">
        <ele>238</ele>
        <time>2024-11-20T11:22:03Z</time>
      </trkpt>
      <trkpt lat="48.15728" lon="-3.32147">
        <ele>238</ele>
        <time>2024-11-20T11:22:04Z</time>
      </trkpt>
      <trkpt lat="48.15729" lon="-3.32147">
        <ele>237.9</ele>
        <time>2024-11-20T11:22:05Z</time>
      </trkpt>
      <trkpt lat="48.1573" lon="-3.32147">
        <ele>237.9</ele>
        <time>2024-11-20T11:22:06Z</time>
      </trkpt>
      <trkpt lat="48.15731" lon="-3.32147">
        <ele>237.8</ele>
        <time>2024-11-20T11:22:07Z</time>
      </trkpt>
      <trkpt lat="48.15732" lon="-3.32148">
        <ele>237.7</ele>
        <time>2024-11-20T11:22:08Z</time>
      </trkpt>
      <trkpt lat="48.15733" lon="-3.32148">
        <ele>237.6</ele>
        <time>2024-11-20T11:22:09Z</time>
      </trkpt>
      <trkpt lat="48.15734" lon="-3.32149">
        <ele>237.5</ele>
        <time>2024-11-20T11:22:10Z</time>
      </trkpt>
      <trkpt lat="48.15735" lon="-3.32149">
        <ele>237.4</ele>
        <time>2024-11-20T11:22:11Z</time>
      </trkpt>
      <trkpt lat="48.15736" lon="-3.32149">
        <ele>237.4</ele>
        <time>2024-11-20T11:22:12Z</time>
      </trkpt>
      <trkpt lat="48.15737" lon="-3.3215">
        <ele>237.3</ele>
        <time>2024-11-20T11:22:13Z</time>
      </trkpt>
      <trkpt lat="48.15738" lon="-3.3215">
        <ele>237.3</ele>
        <time>2024-11-20T11:22:14Z</time>
      </trkpt>
      <trkpt lat="48.1574" lon="-3.3215">
        <ele>237.2</ele>
        <time>2024-11-20T11:22:15Z</time>
      </trkpt>
      <trkpt lat="48.15741" lon="-3.32151">
        <ele>237.1</ele>
        <time>2024-11-20T11:22:16Z</time>
      </trkpt>
      <trkpt lat="48.15742" lon="-3.32151">
        <ele>236.9</ele>
        <time>2024-11-20T11:22:17Z</time>
      </trkpt>
      <trkpt lat="48.15743" lon="-3.32152">
        <ele>236.8</ele>
        <time>2024-11-20T11:22:18Z</time>
      </trkpt>
      <trkpt lat="48.15745" lon="-3.32152">
        <ele>236.7</ele>
        <time>2024-11-20T11:22:20Z</time>
      </trkpt>
      <trkpt lat="48.15747" lon="-3.32152">
        <ele>236.7</ele>
        <time>2024-11-20T11:22:21Z</time>
      </trkpt>
      <trkpt lat="48.15748" lon="-3.32152">
        <ele>236.7</ele>
        <time>2024-11-20T11:22:22Z</time>
      </trkpt>
      <trkpt lat="48.1575" lon="-3.32151">
        <ele>236.7</ele>
        <time>2024-11-20T11:22:23Z</time>
      </trkpt>
      <trkpt lat="48.15751" lon="-3.3215">
        <ele>236.7</ele>
        <time>2024-11-20T11:22:24Z</time>
      </trkpt>
      <trkpt lat="48.15753" lon="-3.3215">
        <ele>236.6</ele>
        <time>2024-11-20T11:22:25Z</time>
      </trkpt>
      <trkpt lat="48.15754" lon="-3.32151">
        <ele>236.5</ele>
        <time>2024-11-20T11:22:26Z</time>
      </trkpt>
      <trkpt lat="48.15756" lon="-3.32151">
        <ele>236.3</ele>
        <time>2024-11-20T11:22:27Z</time>
      </trkpt>
      <trkpt lat="48.15757" lon="-3.32151">
        <ele>236.2</ele>
        <time>2024-11-20T11:22:28Z</time>
      </trkpt>
      <trkpt lat="48.15758" lon="-3.32151">
        <ele>236.1</ele>
        <time>2024-11-20T11:22:29Z</time>
      </trkpt>
      <trkpt lat="48.1576" lon="-3.32151">
        <ele>236</ele>
        <time>2024-11-20T11:22:30Z</time>
      </trkpt>
      <trkpt lat="48.15762" lon="-3.32151">
        <ele>235.8</ele>
        <time>2024-11-20T11:22:31Z</time>
      </trkpt>
      <trkpt lat="48.15763" lon="-3.32152">
        <ele>235.7</ele>
        <time>2024-11-20T11:22:32Z</time>
      </trkpt>
      <trkpt lat="48.15764" lon="-3.32152">
        <ele>235.5</ele>
        <time>2024-11-20T11:22:33Z</time>
      </trkpt>
      <trkpt lat="48.15766" lon="-3.32152">
        <ele>235.4</ele>
        <time>2024-11-20T11:22:34Z</time>
      </trkpt>
      <trkpt lat="48.15767" lon="-3.32153">
        <ele>235.3</ele>
        <time>2024-11-20T11:22:35Z</time>
      </trkpt>
      <trkpt lat="48.15768" lon="-3.32154">
        <ele>235.1</ele>
        <time>2024-11-20T11:22:36Z</time>
      </trkpt>
      <trkpt lat="48.1577" lon="-3.32154">
        <ele>235</ele>
        <time>2024-11-20T11:22:37Z</time>
      </trkpt>
      <trkpt lat="48.15771" lon="-3.32154">
        <ele>234.8</ele>
        <time>2024-11-20T11:22:38Z</time>
      </trkpt>
      <trkpt lat="48.15773" lon="-3.32155">
        <ele>234.6</ele>
        <time>2024-11-20T11:22:39Z</time>
      </trkpt>
      <trkpt lat="48.15774" lon="-3.32156">
        <ele>234.5</ele>
        <time>2024-11-20T11:22:40Z</time>
      </trkpt>
      <trkpt lat="48.15776" lon="-3.32156">
        <ele>234.3</ele>
        <time>2024-11-20T11:22:41Z</time>
      </trkpt>
      <trkpt lat="48.15777" lon="-3.32157">
        <ele>234.2</ele>
        <time>2024-11-20T11:22:42Z</time>
      </trkpt>
      <trkpt lat="48.15779" lon="-3.32157">
        <ele>234</ele>
        <time>2024-11-20T11:22:43Z</time>
      </trkpt>
      <trkpt lat="48.1578" lon="-3.32158">
        <ele>233.9</ele>
        <time>2024-11-20T11:22:44Z</time>
      </trkpt>
      <trkpt lat="48.15781" lon="-3.32158">
        <ele>233.8</ele>
        <time>2024-11-20T11:22:45Z</time>
      </trkpt>
      <trkpt lat="48.15783" lon="-3.32158">
        <ele>233.7</ele>
        <time>2024-11-20T11:22:46Z</time>
      </trkpt>
      <trkpt lat="48.15784" lon="-3.32159">
        <ele>233.6</ele>
        <time>2024-11-20T11:22:47Z</time>
      </trkpt>
      <trkpt lat="48.15785" lon="-3.32159">
        <ele>233.5</ele>
        <time>2024-11-20T11:22:48Z</time>
      </trkpt>
      <trkpt lat="48.15786" lon="-3.3216">
        <ele>233.4</ele>
        <time>2024-11-20T11:22:49Z</time>
      </trkpt>
      <trkpt lat="48.15788" lon="-3.3216">
        <ele>233.3</ele>
        <time>2024-11-20T11:22:50Z</time>
      </trkpt>
      <trkpt lat="48.15789" lon="-3.32161">
        <ele>233.2</ele>
        <time>2024-11-20T11:22:51Z</time>
      </trkpt>
      <trkpt lat="48.15791" lon="-3.32162">
        <ele>233.1</ele>
        <time>2024-11-20T11:22:52Z</time>
      </trkpt>
      <trkpt lat="48.15792" lon="-3.32162">
        <ele>233</ele>
        <time>2024-11-20T11:22:53Z</time>
      </trkpt>
      <trkpt lat="48.15793" lon="-3.32162">
        <ele>232.9</ele>
        <time>2024-11-20T11:22:54Z</time>
      </trkpt>
      <trkpt lat="48.15794" lon="-3.32163">
        <ele>232.8</ele>
        <time>2024-11-20T11:22:55Z</time>
      </trkpt>
      <trkpt lat="48.15795" lon="-3.32163">
        <ele>232.8</ele>
        <time>2024-11-20T11:22:56Z</time>
      </trkpt>
      <trkpt lat="48.15796" lon="-3.32164">
        <ele>232.6</ele>
        <time>2024-11-20T11:22:57Z</time>
      </trkpt>
      <trkpt lat="48.15798" lon="-3.32165">
        <ele>232.5</ele>
        <time>2024-11-20T11:22:58Z</time>
      </trkpt>
      <trkpt lat="48.15799" lon="-3.32165">
        <ele>232.4</ele>
        <time>2024-11-20T11:22:59Z</time>
      </trkpt>
      <trkpt lat="48.158" lon="-3.32166">
        <ele>232.3</ele>
        <time>2024-11-20T11:23:00Z</time>
      </trkpt>
      <trkpt lat="48.15802" lon="-3.32167">
        <ele>232.1</ele>
        <time>2024-11-20T11:23:01Z</time>
      </trkpt>
      <trkpt lat="48.15803" lon="-3.32167">
        <ele>232.1</ele>
        <time>2024-11-20T11:23:02Z</time>
      </trkpt>
      <trkpt lat="48.15804" lon="-3.32167">
        <ele>232</ele>
        <time>2024-11-20T11:23:03Z</time>
      </trkpt>
      <trkpt lat="48.15805" lon="-3.32168">
        <ele>231.9</ele>
        <time>2024-11-20T11:23:04Z</time>
      </trkpt>
      <trkpt lat="48.15806" lon="-3.32168">
        <ele>231.8</ele>
        <time>2024-11-20T11:23:05Z</time>
      </trkpt>
      <trkpt lat="48.15807" lon="-3.32169">
        <ele>231.8</ele>
        <time>2024-11-20T11:23:06Z</time>
      </trkpt>
      <trkpt lat="48.15809" lon="-3.3217">
        <ele>231.7</ele>
        <time>2024-11-20T11:23:07Z</time>
      </trkpt>
      <trkpt lat="48.15809" lon="-3.3217">
        <ele>231.7</ele>
        <time>2024-11-20T11:23:08Z</time>
      </trkpt>
      <trkpt lat="48.1581" lon="-3.3217">
        <ele>231.6</ele>
        <time>2024-11-20T11:23:09Z</time>
      </trkpt>
      <trkpt lat="48.15812" lon="-3.32171">
        <ele>231.5</ele>
        <time>2024-11-20T11:23:10Z</time>
      </trkpt>
      <trkpt lat="48.15813" lon="-3.32172">
        <ele>231.5</ele>
        <time>2024-11-20T11:23:11Z</time>
      </trkpt>
      <trkpt lat="48.15814" lon="-3.32172">
        <ele>231.4</ele>
        <time>2024-11-20T11:23:12Z</time>
      </trkpt>
      <trkpt lat="48.15816" lon="-3.32173">
        <ele>231.4</ele>
        <time>2024-11-20T11:23:13Z</time>
      </trkpt>
      <trkpt lat="48.15817" lon="-3.32173">
        <ele>231.3</ele>
        <time>2024-11-20T11:23:14Z</time>
      </trkpt>
      <trkpt lat="48.15818" lon="-3.32174">
        <ele>231.2</ele>
        <time>2024-11-20T11:23:15Z</time>
      </trkpt>
      <trkpt lat="48.15819" lon="-3.32174">
        <ele>231.2</ele>
        <time>2024-11-20T11:23:16Z</time>
      </trkpt>
      <trkpt lat="48.15821" lon="-3.32175">
        <ele>231.1</ele>
        <time>2024-11-20T11:23:17Z</time>
      </trkpt>
      <trkpt lat="48.15822" lon="-3.32176">
        <ele>231</ele>
        <time>2024-11-20T11:23:18Z</time>
      </trkpt>
      <trkpt lat="48.15823" lon="-3.32176">
        <ele>231</ele>
        <time>2024-11-20T11:23:19Z</time>
      </trkpt>
      <trkpt lat="48.15824" lon="-3.32177">
        <ele>230.9</ele>
        <time>2024-11-20T11:23:20Z</time>
      </trkpt>
      <trkpt lat="48.15826" lon="-3.32178">
        <ele>230.8</ele>
        <time>2024-11-20T11:23:21Z</time>
      </trkpt>
      <trkpt lat="48.15827" lon="-3.32178">
        <ele>230.8</ele>
        <time>2024-11-20T11:23:22Z</time>
      </trkpt>
      <trkpt lat="48.15829" lon="-3.32179">
        <ele>230.7</ele>
        <time>2024-11-20T11:23:23Z</time>
      </trkpt>
      <trkpt lat="48.1583" lon="-3.32179">
        <ele>230.6</ele>
        <time>2024-11-20T11:23:24Z</time>
      </trkpt>
      <trkpt lat="48.15831" lon="-3.32179">
        <ele>230.6</ele>
        <time>2024-11-20T11:23:25Z</time>
      </trkpt>
      <trkpt lat="48.15832" lon="-3.3218">
        <ele>230.6</ele>
        <time>2024-11-20T11:23:26Z</time>
      </trkpt>
      <trkpt lat="48.15834" lon="-3.3218">
        <ele>230.6</ele>
        <time>2024-11-20T11:23:27Z</time>
      </trkpt>
      <trkpt lat="48.15835" lon="-3.3218">
        <ele>230.6</ele>
        <time>2024-11-20T11:23:28Z</time>
      </trkpt>
      <trkpt lat="48.15836" lon="-3.32181">
        <ele>230.6</ele>
        <time>2024-11-20T11:23:29Z</time>
      </trkpt>
      <trkpt lat="48.15838" lon="-3.32181">
        <ele>230.7</ele>
        <time>2024-11-20T11:23:30Z</time>
      </trkpt>
      <trkpt lat="48.15839" lon="-3.32182">
        <ele>230.7</ele>
        <time>2024-11-20T11:23:31Z</time>
      </trkpt>
      <trkpt lat="48.1584" lon="-3.32182">
        <ele>230.7</ele>
        <time>2024-11-20T11:23:32Z</time>
      </trkpt>
      <trkpt lat="48.15841" lon="-3.32182">
        <ele>230.7</ele>
        <time>2024-11-20T11:23:33Z</time>
      </trkpt>
      <trkpt lat="48.15842" lon="-3.32183">
        <ele>230.7</ele>
        <time>2024-11-20T11:23:34Z</time>
      </trkpt>
      <trkpt lat="48.15843" lon="-3.32183">
        <ele>230.8</ele>
        <time>2024-11-20T11:23:35Z</time>
      </trkpt>
      <trkpt lat="48.15844" lon="-3.32184">
        <ele>230.8</ele>
        <time>2024-11-20T11:23:36Z</time>
      </trkpt>
      <trkpt lat="48.15845" lon="-3.32184">
        <ele>230.8</ele>
        <time>2024-11-20T11:23:37Z</time>
      </trkpt>
      <trkpt lat="48.15846" lon="-3.32184">
        <ele>230.9</ele>
        <time>2024-11-20T11:23:38Z</time>
      </trkpt>
      <trkpt lat="48.15848" lon="-3.32184">
        <ele>230.9</ele>
        <time>2024-11-20T11:23:39Z</time>
      </trkpt>
      <trkpt lat="48.15849" lon="-3.32185">
        <ele>231</ele>
        <time>2024-11-20T11:23:40Z</time>
      </trkpt>
      <trkpt lat="48.1585" lon="-3.32185">
        <ele>231</ele>
        <time>2024-11-20T11:23:41Z</time>
      </trkpt>
      <trkpt lat="48.15851" lon="-3.32185">
        <ele>231</ele>
        <time>2024-11-20T11:23:42Z</time>
      </trkpt>
      <trkpt lat="48.15852" lon="-3.32186">
        <ele>231</ele>
        <time>2024-11-20T11:23:43Z</time>
      </trkpt>
      <trkpt lat="48.15853" lon="-3.32186">
        <ele>231.1</ele>
        <time>2024-11-20T11:23:44Z</time>
      </trkpt>
      <trkpt lat="48.15854" lon="-3.32187">
        <ele>231.1</ele>
        <time>2024-11-20T11:23:45Z</time>
      </trkpt>
      <trkpt lat="48.15855" lon="-3.32187">
        <ele>231.1</ele>
        <time>2024-11-20T11:23:46Z</time>
      </trkpt>
      <trkpt lat="48.15856" lon="-3.32188">
        <ele>231.2</ele>
        <time>2024-11-20T11:23:47Z</time>
      </trkpt>
      <trkpt lat="48.15857" lon="-3.32188">
        <ele>231.2</ele>
        <time>2024-11-20T11:23:48Z</time>
      </trkpt>
      <trkpt lat="48.15859" lon="-3.32188">
        <ele>231.3</ele>
        <time>2024-11-20T11:23:49Z</time>
      </trkpt>
      <trkpt lat="48.1586" lon="-3.32189">
        <ele>231.4</ele>
        <time>2024-11-20T11:23:50Z</time>
      </trkpt>
      <trkpt lat="48.15861" lon="-3.32189">
        <ele>231.4</ele>
        <time>2024-11-20T11:23:51Z</time>
      </trkpt>
      <trkpt lat="48.15861" lon="-3.32189">
        <ele>231.4</ele>
        <time>2024-11-20T11:23:52Z</time>
      </trkpt>
      <trkpt lat="48.15863" lon="-3.3219">
        <ele>231.4</ele>
        <time>2024-11-20T11:23:53Z</time>
      </trkpt>
      <trkpt lat="48.15864" lon="-3.3219">
        <ele>231.4</ele>
        <time>2024-11-20T11:23:54Z</time>
      </trkpt>
      <trkpt lat="48.15865" lon="-3.32191">
        <ele>231.4</ele>
        <time>2024-11-20T11:23:55Z</time>
      </trkpt>
      <trkpt lat="48.15866" lon="-3.32191">
        <ele>231.4</ele>
        <time>2024-11-20T11:23:56Z</time>
      </trkpt>
      <trkpt lat="48.15867" lon="-3.32192">
        <ele>231.4</ele>
        <time>2024-11-20T11:23:57Z</time>
      </trkpt>
      <trkpt lat="48.15869" lon="-3.32192">
        <ele>231.4</ele>
        <time>2024-11-20T11:23:58Z</time>
      </trkpt>
      <trkpt lat="48.1587" lon="-3.32193">
        <ele>231.5</ele>
        <time>2024-11-20T11:23:59Z</time>
      </trkpt>
      <trkpt lat="48.15872" lon="-3.32193">
        <ele>231.5</ele>
        <time>2024-11-20T11:24:00Z</time>
      </trkpt>
      <trkpt lat="48.15873" lon="-3.32194">
        <ele>231.5</ele>
        <time>2024-11-20T11:24:01Z</time>
      </trkpt>
      <trkpt lat="48.15875" lon="-3.32194">
        <ele>231.5</ele>
        <time>2024-11-20T11:24:02Z</time>
      </trkpt>
      <trkpt lat="48.15876" lon="-3.32194">
        <ele>231.6</ele>
        <time>2024-11-20T11:24:03Z</time>
      </trkpt>
      <trkpt lat="48.15877" lon="-3.32194">
        <ele>231.6</ele>
        <time>2024-11-20T11:24:04Z</time>
      </trkpt>
      <trkpt lat="48.15879" lon="-3.32194">
        <ele>231.7</ele>
        <time>2024-11-20T11:24:05Z</time>
      </trkpt>
      <trkpt lat="48.15879" lon="-3.32194">
        <ele>231.7</ele>
        <time>2024-11-20T11:24:06Z</time>
      </trkpt>
      <trkpt lat="48.15881" lon="-3.32195">
        <ele>231.7</ele>
        <time>2024-11-20T11:24:07Z</time>
      </trkpt>
      <trkpt lat="48.15882" lon="-3.32195">
        <ele>231.7</ele>
        <time>2024-11-20T11:24:08Z</time>
      </trkpt>
      <trkpt lat="48.15884" lon="-3.32195">
        <ele>231.8</ele>
        <time>2024-11-20T11:24:09Z</time>
      </trkpt>
      <trkpt lat="48.15885" lon="-3.32195">
        <ele>231.8</ele>
        <time>2024-11-20T11:24:10Z</time>
      </trkpt>
      <trkpt lat="48.15886" lon="-3.32195">
        <ele>231.8</ele>
        <time>2024-11-20T11:24:11Z</time>
      </trkpt>
      <trkpt lat="48.15888" lon="-3.32196">
        <ele>231.9</ele>
        <time>2024-11-20T11:24:12Z</time>
      </trkpt>
      <trkpt lat="48.15889" lon="-3.32196">
        <ele>231.9</ele>
        <time>2024-11-20T11:24:13Z</time>
      </trkpt>
      <trkpt lat="48.1589" lon="-3.32196">
        <ele>231.9</ele>
        <time>2024-11-20T11:24:14Z</time>
      </trkpt>
      <trkpt lat="48.15891" lon="-3.32197">
        <ele>231.9</ele>
        <time>2024-11-20T11:24:15Z</time>
      </trkpt>
      <trkpt lat="48.15892" lon="-3.32197">
        <ele>231.9</ele>
        <time>2024-11-20T11:24:16Z</time>
      </trkpt>
      <trkpt lat="48.15894" lon="-3.32198">
        <ele>232</ele>
        <time>2024-11-20T11:24:17Z</time>
      </trkpt>
      <trkpt lat="48.15895" lon="-3.32198">
        <ele>232</ele>
        <time>2024-11-20T11:24:18Z</time>
      </trkpt>
      <trkpt lat="48.15897" lon="-3.32199">
        <ele>232</ele>
        <time>2024-11-20T11:24:19Z</time>
      </trkpt>
      <trkpt lat="48.15898" lon="-3.32199">
        <ele>232</ele>
        <time>2024-11-20T11:24:20Z</time>
      </trkpt>
      <trkpt lat="48.15899" lon="-3.32199">
        <ele>232.1</ele>
        <time>2024-11-20T11:24:21Z</time>
      </trkpt>
      <trkpt lat="48.15901" lon="-3.32199">
        <ele>232.1</ele>
        <time>2024-11-20T11:24:22Z</time>
      </trkpt>
      <trkpt lat="48.15902" lon="-3.32199">
        <ele>232.1</ele>
        <time>2024-11-20T11:24:23Z</time>
      </trkpt>
      <trkpt lat="48.15903" lon="-3.32199">
        <ele>232.2</ele>
        <time>2024-11-20T11:24:24Z</time>
      </trkpt>
      <trkpt lat="48.15904" lon="-3.32199">
        <ele>232.2</ele>
        <time>2024-11-20T11:24:25Z</time>
      </trkpt>
      <trkpt lat="48.15904" lon="-3.32199">
        <ele>232.2</ele>
        <time>2024-11-20T11:24:26Z</time>
      </trkpt>
      <trkpt lat="48.15905" lon="-3.322">
        <ele>232.2</ele>
        <time>2024-11-20T11:24:27Z</time>
      </trkpt>
      <trkpt lat="48.15906" lon="-3.322">
        <ele>232.2</ele>
        <time>2024-11-20T11:24:28Z</time>
      </trkpt>
      <trkpt lat="48.15906" lon="-3.322">
        <ele>232.2</ele>
        <time>2024-11-20T11:24:29Z</time>
      </trkpt>
      <trkpt lat="48.15906" lon="-3.322">
        <ele>232.2</ele>
        <time>2024-11-20T11:24:30Z</time>
      </trkpt>
      <trkpt lat="48.15906" lon="-3.322">
        <ele>232.2</ele>
        <time>2024-11-20T11:24:31Z</time>
      </trkpt>
      <trkpt lat="48.15906" lon="-3.322">
        <ele>232.2</ele>
        <time>2024-11-20T11:24:32Z</time>
      </trkpt>
      <trkpt lat="48.15906" lon="-3.322">
        <ele>232.2</ele>
        <time>2024-11-20T11:24:33Z</time>
      </trkpt>
      <trkpt lat="48.15906" lon="-3.322">
        <ele>232.2</ele>
        <time>2024-11-20T11:24:34Z</time>
      </trkpt>
      <trkpt lat="48.15906" lon="-3.322">
        <ele>232.2</ele>
        <time>2024-11-20T11:24:35Z</time>
      </trkpt>
      <trkpt lat="48.15906" lon="-3.322">
        <ele>232.2</ele>
        <time>2024-11-20T11:24:36Z</time>
      </trkpt>
      <trkpt lat="48.15905" lon="-3.322">
        <ele>232.2</ele>
        <time>2024-11-20T11:24:40Z</time>
      </trkpt>
      <trkpt lat="48.15905" lon="-3.322">
        <ele>232.2</ele>
        <time>2024-11-20T11:24:41Z</time>
      </trkpt>
      <trkpt lat="48.15906" lon="-3.322">
        <ele>232.2</ele>
        <time>2024-11-20T11:24:42Z</time>
      </trkpt>
      <trkpt lat="48.15906" lon="-3.322">
        <ele>232.2</ele>
        <time>2024-11-20T11:24:43Z</time>
      </trkpt>
      <trkpt lat="48.15906" lon="-3.32201">
        <ele>232.2</ele>
        <time>2024-11-20T11:24:44Z</time>
      </trkpt>
      <trkpt lat="48.15907" lon="-3.32201">
        <ele>232.1</ele>
        <time>2024-11-20T11:24:45Z</time>
      </trkpt>
      <trkpt lat="48.15907" lon="-3.32202">
        <ele>232.1</ele>
        <time>2024-11-20T11:24:46Z</time>
      </trkpt>
      <trkpt lat="48.15907" lon="-3.32202">
        <ele>232.1</ele>
        <time>2024-11-20T11:24:47Z</time>
      </trkpt>
      <trkpt lat="48.15907" lon="-3.32201">
        <ele>232.2</ele>
        <time>2024-11-20T11:24:48Z</time>
      </trkpt>
      <trkpt lat="48.15907" lon="-3.32201">
        <ele>232.2</ele>
        <time>2024-11-20T11:24:49Z</time>
      </trkpt>
      <trkpt lat="48.15907" lon="-3.322">
        <ele>232.2</ele>
        <time>2024-11-20T11:24:50Z</time>
      </trkpt>
      <trkpt lat="48.15908" lon="-3.322">
        <ele>232.2</ele>
        <time>2024-11-20T11:24:51Z</time>
      </trkpt>
      <trkpt lat="48.15908" lon="-3.322">
        <ele>232.3</ele>
        <time>2024-11-20T11:24:52Z</time>
      </trkpt>
      <trkpt lat="48.15909" lon="-3.322">
        <ele>232.3</ele>
        <time>2024-11-20T11:24:53Z</time>
      </trkpt>
      <trkpt lat="48.15909" lon="-3.322">
        <ele>232.3</ele>
        <time>2024-11-20T11:24:54Z</time>
      </trkpt>
      <trkpt lat="48.15909" lon="-3.322">
        <ele>232.3</ele>
        <time>2024-11-20T11:24:55Z</time>
      </trkpt>
      <trkpt lat="48.15909" lon="-3.322">
        <ele>232.3</ele>
        <time>2024-11-20T11:24:56Z</time>
      </trkpt>
      <trkpt lat="48.15909" lon="-3.322">
        <ele>232.3</ele>
        <time>2024-11-20T11:24:57Z</time>
      </trkpt>
      <trkpt lat="48.15909" lon="-3.322">
        <ele>232.3</ele>
        <time>2024-11-20T11:24:58Z</time>
      </trkpt>
      <trkpt lat="48.1591" lon="-3.32201">
        <ele>232.2</ele>
        <time>2024-11-20T11:24:59Z</time>
      </trkpt>
      <trkpt lat="48.1591" lon="-3.32202">
        <ele>232.2</ele>
        <time>2024-11-20T11:25:00Z</time>
      </trkpt>
      <trkpt lat="48.1591" lon="-3.32203">
        <ele>232.2</ele>
        <time>2024-11-20T11:25:01Z</time>
      </trkpt>
      <trkpt lat="48.15911" lon="-3.32203">
        <ele>232.2</ele>
        <time>2024-11-20T11:25:02Z</time>
      </trkpt>
      <trkpt lat="48.15911" lon="-3.32202">
        <ele>232.2</ele>
        <time>2024-11-20T11:25:03Z</time>
      </trkpt>
      <trkpt lat="48.15911" lon="-3.32203">
        <ele>232.2</ele>
        <time>2024-11-20T11:25:04Z</time>
      </trkpt>
      <trkpt lat="48.1591" lon="-3.32203">
        <ele>232.2</ele>
        <time>2024-11-20T11:25:05Z</time>
      </trkpt>
      <trkpt lat="48.1591" lon="-3.32204">
        <ele>232.1</ele>
        <time>2024-11-20T11:25:06Z</time>
      </trkpt>
      <trkpt lat="48.15909" lon="-3.32205">
        <ele>232</ele>
        <time>2024-11-20T11:25:07Z</time>
      </trkpt>
      <trkpt lat="48.15909" lon="-3.32207">
        <ele>231.8</ele>
        <time>2024-11-20T11:25:08Z</time>
      </trkpt>
      <trkpt lat="48.15908" lon="-3.32208">
        <ele>231.7</ele>
        <time>2024-11-20T11:25:09Z</time>
      </trkpt>
      <trkpt lat="48.15909" lon="-3.3221">
        <ele>231.6</ele>
        <time>2024-11-20T11:25:10Z</time>
      </trkpt>
      <trkpt lat="48.15909" lon="-3.32212">
        <ele>231.5</ele>
        <time>2024-11-20T11:25:11Z</time>
      </trkpt>
      <trkpt lat="48.1591" lon="-3.32213">
        <ele>231.4</ele>
        <time>2024-11-20T11:25:12Z</time>
      </trkpt>
      <trkpt lat="48.15911" lon="-3.32214">
        <ele>231.4</ele>
        <time>2024-11-20T11:25:13Z</time>
      </trkpt>
      <trkpt lat="48.15911" lon="-3.32215">
        <ele>231.3</ele>
        <time>2024-11-20T11:25:14Z</time>
      </trkpt>
      <trkpt lat="48.15912" lon="-3.32216">
        <ele>231.3</ele>
        <time>2024-11-20T11:25:15Z</time>
      </trkpt>
      <trkpt lat="48.15913" lon="-3.32217">
        <ele>231.3</ele>
        <time>2024-11-20T11:25:16Z</time>
      </trkpt>
      <trkpt lat="48.15914" lon="-3.32217">
        <ele>231.2</ele>
        <time>2024-11-20T11:25:17Z</time>
      </trkpt>
      <trkpt lat="48.15914" lon="-3.32218">
        <ele>231.2</ele>
        <time>2024-11-20T11:25:18Z</time>
      </trkpt>
      <trkpt lat="48.15915" lon="-3.32218">
        <ele>231.2</ele>
        <time>2024-11-20T11:25:19Z</time>
      </trkpt>
      <trkpt lat="48.15916" lon="-3.32219">
        <ele>231.2</ele>
        <time>2024-11-20T11:25:20Z</time>
      </trkpt>
      <trkpt lat="48.15916" lon="-3.32219">
        <ele>231.2</ele>
        <time>2024-11-20T11:25:21Z</time>
      </trkpt>
      <trkpt lat="48.15916" lon="-3.32219">
        <ele>231.2</ele>
        <time>2024-11-20T11:25:22Z</time>
      </trkpt>
      <trkpt lat="48.15917" lon="-3.32219">
        <ele>231.2</ele>
        <time>2024-11-20T11:25:23Z</time>
      </trkpt>
      <trkpt lat="48.15918" lon="-3.32219">
        <ele>231.3</ele>
        <time>2024-11-20T11:25:25Z</time>
      </trkpt>
      <trkpt lat="48.15919" lon="-3.3222">
        <ele>231.3</ele>
        <time>2024-11-20T11:25:26Z</time>
      </trkpt>
      <trkpt lat="48.1592" lon="-3.3222">
        <ele>231.3</ele>
        <time>2024-11-20T11:25:27Z</time>
      </trkpt>
      <trkpt lat="48.15921" lon="-3.32221">
        <ele>231.2</ele>
        <time>2024-11-20T11:25:28Z</time>
      </trkpt>
      <trkpt lat="48.15921" lon="-3.32222">
        <ele>231.2</ele>
        <time>2024-11-20T11:25:29Z</time>
      </trkpt>
      <trkpt lat="48.15922" lon="-3.32222">
        <ele>231.2</ele>
        <time>2024-11-20T11:25:30Z</time>
      </trkpt>
      <trkpt lat="48.15923" lon="-3.32223">
        <ele>231.1</ele>
        <time>2024-11-20T11:25:31Z</time>
      </trkpt>
      <trkpt lat="48.15923" lon="-3.32224">
        <ele>231.1</ele>
        <time>2024-11-20T11:25:32Z</time>
      </trkpt>
      <trkpt lat="48.15925" lon="-3.32225">
        <ele>231.1</ele>
        <time>2024-11-20T11:25:33Z</time>
      </trkpt>
      <trkpt lat="48.15925" lon="-3.32226">
        <ele>231.1</ele>
        <time>2024-11-20T11:25:34Z</time>
      </trkpt>
      <trkpt lat="48.15926" lon="-3.32226">
        <ele>231</ele>
        <time>2024-11-20T11:25:35Z</time>
      </trkpt>
      <trkpt lat="48.15927" lon="-3.32227">
        <ele>231</ele>
        <time>2024-11-20T11:25:36Z</time>
      </trkpt>
      <trkpt lat="48.15928" lon="-3.32228">
        <ele>231</ele>
        <time>2024-11-20T11:25:37Z</time>
      </trkpt>
      <trkpt lat="48.15929" lon="-3.32229">
        <ele>230.9</ele>
        <time>2024-11-20T11:25:38Z</time>
      </trkpt>
      <trkpt lat="48.15929" lon="-3.3223">
        <ele>230.9</ele>
        <time>2024-11-20T11:25:39Z</time>
      </trkpt>
      <trkpt lat="48.1593" lon="-3.32231">
        <ele>230.9</ele>
        <time>2024-11-20T11:25:40Z</time>
      </trkpt>
      <trkpt lat="48.1593" lon="-3.32231">
        <ele>230.8</ele>
        <time>2024-11-20T11:25:41Z</time>
      </trkpt>
      <trkpt lat="48.1593" lon="-3.32232">
        <ele>230.8</ele>
        <time>2024-11-20T11:25:42Z</time>
      </trkpt>
      <trkpt lat="48.1593" lon="-3.32232">
        <ele>230.8</ele>
        <time>2024-11-20T11:25:43Z</time>
      </trkpt>
      <trkpt lat="48.15931" lon="-3.32232">
        <ele>230.8</ele>
        <time>2024-11-20T11:25:44Z</time>
      </trkpt>
      <trkpt lat="48.15932" lon="-3.32233">
        <ele>230.8</ele>
        <time>2024-11-20T11:25:45Z</time>
      </trkpt>
      <trkpt lat="48.15933" lon="-3.32233">
        <ele>230.8</ele>
        <time>2024-11-20T11:25:46Z</time>
      </trkpt>
      <trkpt lat="48.15934" lon="-3.32234">
        <ele>230.8</ele>
        <time>2024-11-20T11:25:47Z</time>
      </trkpt>
      <trkpt lat="48.15935" lon="-3.32234">
        <ele>230.8</ele>
        <time>2024-11-20T11:25:48Z</time>
      </trkpt>
      <trkpt lat="48.15936" lon="-3.32235">
        <ele>230.8</ele>
        <time>2024-11-20T11:25:49Z</time>
      </trkpt>
      <trkpt lat="48.15937" lon="-3.32236">
        <ele>230.8</ele>
        <time>2024-11-20T11:25:50Z</time>
      </trkpt>
      <trkpt lat="48.15938" lon="-3.32237">
        <ele>230.8</ele>
        <time>2024-11-20T11:25:51Z</time>
      </trkpt>
      <trkpt lat="48.1594" lon="-3.32237">
        <ele>230.8</ele>
        <time>2024-11-20T11:25:52Z</time>
      </trkpt>
      <trkpt lat="48.15941" lon="-3.32238">
        <ele>230.8</ele>
        <time>2024-11-20T11:25:53Z</time>
      </trkpt>
      <trkpt lat="48.15942" lon="-3.32238">
        <ele>230.8</ele>
        <time>2024-11-20T11:25:54Z</time>
      </trkpt>
      <trkpt lat="48.15944" lon="-3.32239">
        <ele>230.8</ele>
        <time>2024-11-20T11:25:55Z</time>
      </trkpt>
      <trkpt lat="48.15944" lon="-3.32239">
        <ele>230.8</ele>
        <time>2024-11-20T11:25:56Z</time>
      </trkpt>
      <trkpt lat="48.15945" lon="-3.3224">
        <ele>230.7</ele>
        <time>2024-11-20T11:25:57Z</time>
      </trkpt>
      <trkpt lat="48.15946" lon="-3.32241">
        <ele>230.7</ele>
        <time>2024-11-20T11:25:58Z</time>
      </trkpt>
      <trkpt lat="48.15947" lon="-3.32242">
        <ele>230.7</ele>
        <time>2024-11-20T11:25:59Z</time>
      </trkpt>
      <trkpt lat="48.15948" lon="-3.32243">
        <ele>230.6</ele>
        <time>2024-11-20T11:26:00Z</time>
      </trkpt>
      <trkpt lat="48.15949" lon="-3.32244">
        <ele>230.6</ele>
        <time>2024-11-20T11:26:01Z</time>
      </trkpt>
      <trkpt lat="48.1595" lon="-3.32244">
        <ele>230.6</ele>
        <time>2024-11-20T11:26:02Z</time>
      </trkpt>
      <trkpt lat="48.15951" lon="-3.32245">
        <ele>230.6</ele>
        <time>2024-11-20T11:26:03Z</time>
      </trkpt>
      <trkpt lat="48.15952" lon="-3.32245">
        <ele>230.6</ele>
        <time>2024-11-20T11:26:04Z</time>
      </trkpt>
      <trkpt lat="48.15953" lon="-3.32246">
        <ele>230.6</ele>
        <time>2024-11-20T11:26:05Z</time>
      </trkpt>
      <trkpt lat="48.15954" lon="-3.32247">
        <ele>230.6</ele>
        <time>2024-11-20T11:26:06Z</time>
      </trkpt>
      <trkpt lat="48.15955" lon="-3.32247">
        <ele>230.6</ele>
        <time>2024-11-20T11:26:07Z</time>
      </trkpt>
      <trkpt lat="48.15957" lon="-3.32248">
        <ele>230.6</ele>
        <time>2024-11-20T11:26:08Z</time>
      </trkpt>
      <trkpt lat="48.15958" lon="-3.32249">
        <ele>230.6</ele>
        <time>2024-11-20T11:26:09Z</time>
      </trkpt>
      <trkpt lat="48.15959" lon="-3.32249">
        <ele>230.6</ele>
        <time>2024-11-20T11:26:10Z</time>
      </trkpt>
      <trkpt lat="48.1596" lon="-3.3225">
        <ele>230.6</ele>
        <time>2024-11-20T11:26:11Z</time>
      </trkpt>
      <trkpt lat="48.15961" lon="-3.32251">
        <ele>230.6</ele>
        <time>2024-11-20T11:26:12Z</time>
      </trkpt>
      <trkpt lat="48.15962" lon="-3.32251">
        <ele>230.6</ele>
        <time>2024-11-20T11:26:13Z</time>
      </trkpt>
      <trkpt lat="48.15963" lon="-3.32252">
        <ele>230.6</ele>
        <time>2024-11-20T11:26:14Z</time>
      </trkpt>
      <trkpt lat="48.15965" lon="-3.32253">
        <ele>230.6</ele>
        <time>2024-11-20T11:26:15Z</time>
      </trkpt>
      <trkpt lat="48.15966" lon="-3.32254">
        <ele>230.5</ele>
        <time>2024-11-20T11:26:16Z</time>
      </trkpt>
      <trkpt lat="48.15967" lon="-3.32254">
        <ele>230.5</ele>
        <time>2024-11-20T11:26:17Z</time>
      </trkpt>
      <trkpt lat="48.15968" lon="-3.32255">
        <ele>230.5</ele>
        <time>2024-11-20T11:26:18Z</time>
      </trkpt>
      <trkpt lat="48.15969" lon="-3.32255">
        <ele>230.5</ele>
        <time>2024-11-20T11:26:19Z</time>
      </trkpt>
      <trkpt lat="48.1597" lon="-3.32256">
        <ele>230.5</ele>
        <time>2024-11-20T11:26:20Z</time>
      </trkpt>
      <trkpt lat="48.1597" lon="-3.32256">
        <ele>230.5</ele>
        <time>2024-11-20T11:26:21Z</time>
      </trkpt>
      <trkpt lat="48.15972" lon="-3.32256">
        <ele>230.5</ele>
        <time>2024-11-20T11:26:22Z</time>
      </trkpt>
      <trkpt lat="48.15973" lon="-3.32257">
        <ele>230.5</ele>
        <time>2024-11-20T11:26:23Z</time>
      </trkpt>
      <trkpt lat="48.15974" lon="-3.32257">
        <ele>230.5</ele>
        <time>2024-11-20T11:26:24Z</time>
      </trkpt>
      <trkpt lat="48.15976" lon="-3.32258">
        <ele>230.5</ele>
        <time>2024-11-20T11:26:25Z</time>
      </trkpt>
      <trkpt lat="48.15976" lon="-3.32258">
        <ele>230.4</ele>
        <time>2024-11-20T11:26:26Z</time>
      </trkpt>
      <trkpt lat="48.15977" lon="-3.32258">
        <ele>230.4</ele>
        <time>2024-11-20T11:26:27Z</time>
      </trkpt>
      <trkpt lat="48.15978" lon="-3.32258">
        <ele>230.4</ele>
        <time>2024-11-20T11:26:28Z</time>
      </trkpt>
      <trkpt lat="48.15978" lon="-3.32258">
        <ele>230.4</ele>
        <time>2024-11-20T11:26:29Z</time>
      </trkpt>
      <trkpt lat="48.15979" lon="-3.32259">
        <ele>230.4</ele>
        <time>2024-11-20T11:26:30Z</time>
      </trkpt>
      <trkpt lat="48.1598" lon="-3.32259">
        <ele>230.4</ele>
        <time>2024-11-20T11:26:31Z</time>
      </trkpt>
      <trkpt lat="48.15981" lon="-3.32259">
        <ele>230.3</ele>
        <time>2024-11-20T11:26:32Z</time>
      </trkpt>
      <trkpt lat="48.15981" lon="-3.3226">
        <ele>230.3</ele>
        <time>2024-11-20T11:26:33Z</time>
      </trkpt>
      <trkpt lat="48.15982" lon="-3.3226">
        <ele>230.3</ele>
        <time>2024-11-20T11:26:34Z</time>
      </trkpt>
      <trkpt lat="48.15983" lon="-3.3226">
        <ele>230.3</ele>
        <time>2024-11-20T11:26:35Z</time>
      </trkpt>
      <trkpt lat="48.15983" lon="-3.3226">
        <ele>230.3</ele>
        <time>2024-11-20T11:26:36Z</time>
      </trkpt>
      <trkpt lat="48.15984" lon="-3.32261">
        <ele>230.2</ele>
        <time>2024-11-20T11:26:37Z</time>
      </trkpt>
      <trkpt lat="48.15985" lon="-3.32261">
        <ele>230.2</ele>
        <time>2024-11-20T11:26:38Z</time>
      </trkpt>
      <trkpt lat="48.15986" lon="-3.32261">
        <ele>230.2</ele>
        <time>2024-11-20T11:26:39Z</time>
      </trkpt>
      <trkpt lat="48.15987" lon="-3.32262">
        <ele>230.2</ele>
        <time>2024-11-20T11:26:40Z</time>
      </trkpt>
      <trkpt lat="48.15988" lon="-3.32262">
        <ele>230.1</ele>
        <time>2024-11-20T11:26:41Z</time>
      </trkpt>
      <trkpt lat="48.15989" lon="-3.32263">
        <ele>230.1</ele>
        <time>2024-11-20T11:26:42Z</time>
      </trkpt>
      <trkpt lat="48.15989" lon="-3.32263">
        <ele>230</ele>
        <time>2024-11-20T11:26:43Z</time>
      </trkpt>
      <trkpt lat="48.15991" lon="-3.32264">
        <ele>230</ele>
        <time>2024-11-20T11:26:44Z</time>
      </trkpt>
      <trkpt lat="48.15992" lon="-3.32264">
        <ele>230</ele>
        <time>2024-11-20T11:26:45Z</time>
      </trkpt>
      <trkpt lat="48.15992" lon="-3.32265">
        <ele>230</ele>
        <time>2024-11-20T11:26:46Z</time>
      </trkpt>
      <trkpt lat="48.15993" lon="-3.32265">
        <ele>229.9</ele>
        <time>2024-11-20T11:26:47Z</time>
      </trkpt>
      <trkpt lat="48.15993" lon="-3.32265">
        <ele>229.9</ele>
        <time>2024-11-20T11:26:48Z</time>
      </trkpt>
      <trkpt lat="48.15994" lon="-3.32265">
        <ele>229.9</ele>
        <time>2024-11-20T11:26:49Z</time>
      </trkpt>
      <trkpt lat="48.15994" lon="-3.32265">
        <ele>229.9</ele>
        <time>2024-11-20T11:26:50Z</time>
      </trkpt>
      <trkpt lat="48.15995" lon="-3.32265">
        <ele>229.9</ele>
        <time>2024-11-20T11:26:51Z</time>
      </trkpt>
      <trkpt lat="48.15995" lon="-3.32265">
        <ele>229.9</ele>
        <time>2024-11-20T11:26:52Z</time>
      </trkpt>
      <trkpt lat="48.15996" lon="-3.32266">
        <ele>229.8</ele>
        <time>2024-11-20T11:26:53Z</time>
      </trkpt>
      <trkpt lat="48.15996" lon="-3.32267">
        <ele>229.8</ele>
        <time>2024-11-20T11:26:54Z</time>
      </trkpt>
      <trkpt lat="48.15997" lon="-3.32267">
        <ele>229.8</ele>
        <time>2024-11-20T11:26:55Z</time>
      </trkpt>
      <trkpt lat="48.15998" lon="-3.32268">
        <ele>229.7</ele>
        <time>2024-11-20T11:26:56Z</time>
      </trkpt>
      <trkpt lat="48.16" lon="-3.32268">
        <ele>229.7</ele>
        <time>2024-11-20T11:26:57Z</time>
      </trkpt>
      <trkpt lat="48.16002" lon="-3.32269">
        <ele>229.6</ele>
        <time>2024-11-20T11:26:58Z</time>
      </trkpt>
      <trkpt lat="48.16004" lon="-3.3227">
        <ele>229.5</ele>
        <time>2024-11-20T11:26:59Z</time>
      </trkpt>
      <trkpt lat="48.16005" lon="-3.3227">
        <ele>229.4</ele>
        <time>2024-11-20T11:27:00Z</time>
      </trkpt>
      <trkpt lat="48.16006" lon="-3.3227">
        <ele>229.4</ele>
        <time>2024-11-20T11:27:01Z</time>
      </trkpt>
      <trkpt lat="48.16007" lon="-3.3227">
        <ele>229.4</ele>
        <time>2024-11-20T11:27:02Z</time>
      </trkpt>
      <trkpt lat="48.16007" lon="-3.32271">
        <ele>229.3</ele>
        <time>2024-11-20T11:27:03Z</time>
      </trkpt>
      <trkpt lat="48.16009" lon="-3.32271">
        <ele>229.2</ele>
        <time>2024-11-20T11:27:04Z</time>
      </trkpt>
      <trkpt lat="48.1601" lon="-3.32272">
        <ele>229.1</ele>
        <time>2024-11-20T11:27:05Z</time>
      </trkpt>
      <trkpt lat="48.16011" lon="-3.32273">
        <ele>229</ele>
        <time>2024-11-20T11:27:06Z</time>
      </trkpt>
      <trkpt lat="48.16011" lon="-3.32274">
        <ele>228.9</ele>
        <time>2024-11-20T11:27:07Z</time>
      </trkpt>
      <trkpt lat="48.16012" lon="-3.32275">
        <ele>228.8</ele>
        <time>2024-11-20T11:27:08Z</time>
      </trkpt>
      <trkpt lat="48.16013" lon="-3.32277">
        <ele>228.6</ele>
        <time>2024-11-20T11:27:09Z</time>
      </trkpt>
      <trkpt lat="48.16014" lon="-3.32278">
        <ele>228.5</ele>
        <time>2024-11-20T11:27:10Z</time>
      </trkpt>
      <trkpt lat="48.16016" lon="-3.32279">
        <ele>228.3</ele>
        <time>2024-11-20T11:27:11Z</time>
      </trkpt>
      <trkpt lat="48.16017" lon="-3.3228">
        <ele>228.2</ele>
        <time>2024-11-20T11:27:12Z</time>
      </trkpt>
      <trkpt lat="48.16018" lon="-3.3228">
        <ele>228.1</ele>
        <time>2024-11-20T11:27:13Z</time>
      </trkpt>
      <trkpt lat="48.1602" lon="-3.32281">
        <ele>228</ele>
        <time>2024-11-20T11:27:14Z</time>
      </trkpt>
      <trkpt lat="48.16022" lon="-3.32283">
        <ele>227.8</ele>
        <time>2024-11-20T11:27:15Z</time>
      </trkpt>
      <trkpt lat="48.16023" lon="-3.32284">
        <ele>227.7</ele>
        <time>2024-11-20T11:27:16Z</time>
      </trkpt>
      <trkpt lat="48.16024" lon="-3.32284">
        <ele>227.6</ele>
        <time>2024-11-20T11:27:17Z</time>
      </trkpt>
      <trkpt lat="48.16025" lon="-3.32285">
        <ele>227.6</ele>
        <time>2024-11-20T11:27:18Z</time>
      </trkpt>
      <trkpt lat="48.16025" lon="-3.32285">
        <ele>227.5</ele>
        <time>2024-11-20T11:27:19Z</time>
      </trkpt>
      <trkpt lat="48.16026" lon="-3.32286">
        <ele>227.5</ele>
        <time>2024-11-20T11:27:20Z</time>
      </trkpt>
      <trkpt lat="48.16027" lon="-3.32286">
        <ele>227.4</ele>
        <time>2024-11-20T11:27:21Z</time>
      </trkpt>
      <trkpt lat="48.16028" lon="-3.32286">
        <ele>227.4</ele>
        <time>2024-11-20T11:27:22Z</time>
      </trkpt>
      <trkpt lat="48.1603" lon="-3.32286">
        <ele>227.4</ele>
        <time>2024-11-20T11:27:23Z</time>
      </trkpt>
      <trkpt lat="48.16031" lon="-3.32286">
        <ele>227.4</ele>
        <time>2024-11-20T11:27:24Z</time>
      </trkpt>
      <trkpt lat="48.16031" lon="-3.32286">
        <ele>227.4</ele>
        <time>2024-11-20T11:27:25Z</time>
      </trkpt>
      <trkpt lat="48.16032" lon="-3.32288">
        <ele>227.3</ele>
        <time>2024-11-20T11:27:26Z</time>
      </trkpt>
      <trkpt lat="48.16032" lon="-3.32289">
        <ele>227.2</ele>
        <time>2024-11-20T11:27:27Z</time>
      </trkpt>
      <trkpt lat="48.16034" lon="-3.3229">
        <ele>227.1</ele>
        <time>2024-11-20T11:27:28Z</time>
      </trkpt>
      <trkpt lat="48.16036" lon="-3.32292">
        <ele>227</ele>
        <time>2024-11-20T11:27:29Z</time>
      </trkpt>
      <trkpt lat="48.16038" lon="-3.32293">
        <ele>226.9</ele>
        <time>2024-11-20T11:27:30Z</time>
      </trkpt>
      <trkpt lat="48.1604" lon="-3.32294">
        <ele>226.9</ele>
        <time>2024-11-20T11:27:31Z</time>
      </trkpt>
      <trkpt lat="48.16042" lon="-3.32295">
        <ele>226.8</ele>
        <time>2024-11-20T11:27:32Z</time>
      </trkpt>
      <trkpt lat="48.16044" lon="-3.32296">
        <ele>226.7</ele>
        <time>2024-11-20T11:27:33Z</time>
      </trkpt>
      <trkpt lat="48.16046" lon="-3.32297">
        <ele>226.7</ele>
        <time>2024-11-20T11:27:34Z</time>
      </trkpt>
      <trkpt lat="48.16048" lon="-3.32297">
        <ele>226.6</ele>
        <time>2024-11-20T11:27:35Z</time>
      </trkpt>
      <trkpt lat="48.16049" lon="-3.32298">
        <ele>226.6</ele>
        <time>2024-11-20T11:27:36Z</time>
      </trkpt>
      <trkpt lat="48.16051" lon="-3.32299">
        <ele>226.5</ele>
        <time>2024-11-20T11:27:37Z</time>
      </trkpt>
      <trkpt lat="48.16052" lon="-3.323">
        <ele>226.4</ele>
        <time>2024-11-20T11:27:38Z</time>
      </trkpt>
      <trkpt lat="48.16054" lon="-3.32301">
        <ele>226.4</ele>
        <time>2024-11-20T11:27:39Z</time>
      </trkpt>
      <trkpt lat="48.16055" lon="-3.32302">
        <ele>226.3</ele>
        <time>2024-11-20T11:27:40Z</time>
      </trkpt>
      <trkpt lat="48.16056" lon="-3.32303">
        <ele>226.1</ele>
        <time>2024-11-20T11:27:41Z</time>
      </trkpt>
      <trkpt lat="48.16057" lon="-3.32304">
        <ele>226</ele>
        <time>2024-11-20T11:27:42Z</time>
      </trkpt>
      <trkpt lat="48.16057" lon="-3.32305">
        <ele>226</ele>
        <time>2024-11-20T11:27:43Z</time>
      </trkpt>
      <trkpt lat="48.16057" lon="-3.32306">
        <ele>225.9</ele>
        <time>2024-11-20T11:27:44Z</time>
      </trkpt>
      <trkpt lat="48.16057" lon="-3.32306">
        <ele>225.9</ele>
        <time>2024-11-20T11:27:45Z</time>
      </trkpt>
      <trkpt lat="48.16058" lon="-3.32306">
        <ele>225.9</ele>
        <time>2024-11-20T11:27:46Z</time>
      </trkpt>
      <trkpt lat="48.16058" lon="-3.32307">
        <ele>225.8</ele>
        <time>2024-11-20T11:27:47Z</time>
      </trkpt>
      <trkpt lat="48.16058" lon="-3.32307">
        <ele>225.8</ele>
        <time>2024-11-20T11:27:48Z</time>
      </trkpt>
      <trkpt lat="48.16058" lon="-3.32307">
        <ele>225.8</ele>
        <time>2024-11-20T11:27:49Z</time>
      </trkpt>
      <trkpt lat="48.16058" lon="-3.32307">
        <ele>225.8</ele>
        <time>2024-11-20T11:27:50Z</time>
      </trkpt>
      <trkpt lat="48.16058" lon="-3.32306">
        <ele>225.9</ele>
        <time>2024-11-20T11:27:51Z</time>
      </trkpt>
      <trkpt lat="48.16058" lon="-3.32306">
        <ele>225.9</ele>
        <time>2024-11-20T11:27:52Z</time>
      </trkpt>
      <trkpt lat="48.16059" lon="-3.32305">
        <ele>225.9</ele>
        <time>2024-11-20T11:27:53Z</time>
      </trkpt>
      <trkpt lat="48.16059" lon="-3.32305">
        <ele>225.9</ele>
        <time>2024-11-20T11:27:54Z</time>
      </trkpt>
      <trkpt lat="48.16059" lon="-3.32305">
        <ele>225.9</ele>
        <time>2024-11-20T11:27:55Z</time>
      </trkpt>
      <trkpt lat="48.16059" lon="-3.32305">
        <ele>225.9</ele>
        <time>2024-11-20T11:27:56Z</time>
      </trkpt>
      <trkpt lat="48.16059" lon="-3.32305">
        <ele>225.9</ele>
        <time>2024-11-20T11:27:57Z</time>
      </trkpt>
      <trkpt lat="48.16059" lon="-3.32305">
        <ele>225.9</ele>
        <time>2024-11-20T11:27:58Z</time>
      </trkpt>
      <trkpt lat="48.16058" lon="-3.32306">
        <ele>225.9</ele>
        <time>2024-11-20T11:27:59Z</time>
      </trkpt>
      <trkpt lat="48.16058" lon="-3.32307">
        <ele>225.8</ele>
        <time>2024-11-20T11:28:00Z</time>
      </trkpt>
      <trkpt lat="48.16058" lon="-3.32307">
        <ele>225.8</ele>
        <time>2024-11-20T11:28:01Z</time>
      </trkpt>
      <trkpt lat="48.16059" lon="-3.32308">
        <ele>225.7</ele>
        <time>2024-11-20T11:28:02Z</time>
      </trkpt>
      <trkpt lat="48.16059" lon="-3.32308">
        <ele>225.7</ele>
        <time>2024-11-20T11:28:03Z</time>
      </trkpt>
      <trkpt lat="48.16059" lon="-3.32308">
        <ele>225.7</ele>
        <time>2024-11-20T11:28:04Z</time>
      </trkpt>
      <trkpt lat="48.16059" lon="-3.32308">
        <ele>225.7</ele>
        <time>2024-11-20T11:28:05Z</time>
      </trkpt>
      <trkpt lat="48.16059" lon="-3.32309">
        <ele>225.7</ele>
        <time>2024-11-20T11:28:06Z</time>
      </trkpt>
      <trkpt lat="48.16059" lon="-3.32309">
        <ele>225.7</ele>
        <time>2024-11-20T11:28:07Z</time>
      </trkpt>
      <trkpt lat="48.16059" lon="-3.32309">
        <ele>225.7</ele>
        <time>2024-11-20T11:28:08Z</time>
      </trkpt>
      <trkpt lat="48.16059" lon="-3.32309">
        <ele>225.7</ele>
        <time>2024-11-20T11:28:09Z</time>
      </trkpt>
      <trkpt lat="48.16059" lon="-3.32309">
        <ele>225.7</ele>
        <time>2024-11-20T11:28:10Z</time>
      </trkpt>
      <trkpt lat="48.16059" lon="-3.32309">
        <ele>225.7</ele>
        <time>2024-11-20T11:28:11Z</time>
      </trkpt>
      <trkpt lat="48.16059" lon="-3.32309">
        <ele>225.6</ele>
        <time>2024-11-20T11:28:12Z</time>
      </trkpt>
      <trkpt lat="48.16059" lon="-3.32309">
        <ele>225.7</ele>
        <time>2024-11-20T11:28:13Z</time>
      </trkpt>
      <trkpt lat="48.16059" lon="-3.32309">
        <ele>225.7</ele>
        <time>2024-11-20T11:28:14Z</time>
      </trkpt>
      <trkpt lat="48.16058" lon="-3.32309">
        <ele>225.7</ele>
        <time>2024-11-20T11:28:15Z</time>
      </trkpt>
      <trkpt lat="48.16058" lon="-3.32309">
        <ele>225.7</ele>
        <time>2024-11-20T11:28:16Z</time>
      </trkpt>
      <trkpt lat="48.16058" lon="-3.32309">
        <ele>225.7</ele>
        <time>2024-11-20T11:28:17Z</time>
      </trkpt>
      <trkpt lat="48.16058" lon="-3.32309">
        <ele>225.7</ele>
        <time>2024-11-20T11:28:18Z</time>
      </trkpt>
      <trkpt lat="48.16058" lon="-3.32309">
        <ele>225.7</ele>
        <time>2024-11-20T11:28:19Z</time>
      </trkpt>
      <trkpt lat="48.16058" lon="-3.32309">
        <ele>225.7</ele>
        <time>2024-11-20T11:28:20Z</time>
      </trkpt>
      <trkpt lat="48.16058" lon="-3.3231">
        <ele>225.6</ele>
        <time>2024-11-20T11:28:21Z</time>
      </trkpt>
      <trkpt lat="48.16058" lon="-3.3231">
        <ele>225.6</ele>
        <time>2024-11-20T11:28:22Z</time>
      </trkpt>
      <trkpt lat="48.16057" lon="-3.3231">
        <ele>225.6</ele>
        <time>2024-11-20T11:28:23Z</time>
      </trkpt>
      <trkpt lat="48.16057" lon="-3.3231">
        <ele>225.6</ele>
        <time>2024-11-20T11:28:24Z</time>
      </trkpt>
      <trkpt lat="48.16057" lon="-3.32311">
        <ele>225.6</ele>
        <time>2024-11-20T11:28:25Z</time>
      </trkpt>
      <trkpt lat="48.16057" lon="-3.32311">
        <ele>225.6</ele>
        <time>2024-11-20T11:28:26Z</time>
      </trkpt>
      <trkpt lat="48.16057" lon="-3.32311">
        <ele>225.6</ele>
        <time>2024-11-20T11:28:27Z</time>
      </trkpt>
      <trkpt lat="48.16057" lon="-3.32311">
        <ele>225.6</ele>
        <time>2024-11-20T11:28:28Z</time>
      </trkpt>
      <trkpt lat="48.16057" lon="-3.32311">
        <ele>225.6</ele>
        <time>2024-11-20T11:28:29Z</time>
      </trkpt>
      <trkpt lat="48.16057" lon="-3.32311">
        <ele>225.6</ele>
        <time>2024-11-20T11:28:30Z</time>
      </trkpt>
      <trkpt lat="48.16057" lon="-3.32311">
        <ele>225.6</ele>
        <time>2024-11-20T11:28:31Z</time>
      </trkpt>
      <trkpt lat="48.16057" lon="-3.32311">
        <ele>225.6</ele>
        <time>2024-11-20T11:28:32Z</time>
      </trkpt>
      <trkpt lat="48.16057" lon="-3.32311">
        <ele>225.6</ele>
        <time>2024-11-20T11:28:33Z</time>
      </trkpt>
      <trkpt lat="48.16057" lon="-3.32311">
        <ele>225.6</ele>
        <time>2024-11-20T11:28:34Z</time>
      </trkpt>
      <trkpt lat="48.16057" lon="-3.32311">
        <ele>225.6</ele>
        <time>2024-11-20T11:28:35Z</time>
      </trkpt>
      <trkpt lat="48.16057" lon="-3.32311">
        <ele>225.6</ele>
        <time>2024-11-20T11:28:36Z</time>
      </trkpt>
      <trkpt lat="48.16057" lon="-3.32311">
        <ele>225.6</ele>
        <time>2024-11-20T11:28:37Z</time>
      </trkpt>
      <trkpt lat="48.16057" lon="-3.32311">
        <ele>225.5</ele>
        <time>2024-11-20T11:28:38Z</time>
      </trkpt>
      <trkpt lat="48.16056" lon="-3.32311">
        <ele>225.6</ele>
        <time>2024-11-20T11:28:39Z</time>
      </trkpt>
      <trkpt lat="48.16056" lon="-3.32311">
        <ele>225.6</ele>
        <time>2024-11-20T11:28:40Z</time>
      </trkpt>
      <trkpt lat="48.16056" lon="-3.32311">
        <ele>225.6</ele>
        <time>2024-11-20T11:28:41Z</time>
      </trkpt>
      <trkpt lat="48.16056" lon="-3.32311">
        <ele>225.6</ele>
        <time>2024-11-20T11:28:42Z</time>
      </trkpt>
      <trkpt lat="48.16056" lon="-3.32311">
        <ele>225.6</ele>
        <time>2024-11-20T11:28:43Z</time>
      </trkpt>
      <trkpt lat="48.16055" lon="-3.32311">
        <ele>225.6</ele>
        <time>2024-11-20T11:28:44Z</time>
      </trkpt>
      <trkpt lat="48.16055" lon="-3.32311">
        <ele>225.6</ele>
        <time>2024-11-20T11:28:45Z</time>
      </trkpt>
      <trkpt lat="48.16055" lon="-3.32311">
        <ele>225.6</ele>
        <time>2024-11-20T11:28:46Z</time>
      </trkpt>
      <trkpt lat="48.16055" lon="-3.32311">
        <ele>225.6</ele>
        <time>2024-11-20T11:28:47Z</time>
      </trkpt>
      <trkpt lat="48.16055" lon="-3.32311">
        <ele>225.6</ele>
        <time>2024-11-20T11:28:48Z</time>
      </trkpt>
      <trkpt lat="48.16055" lon="-3.32311">
        <ele>225.6</ele>
        <time>2024-11-20T11:28:49Z</time>
      </trkpt>
      <trkpt lat="48.16055" lon="-3.32311">
        <ele>225.6</ele>
        <time>2024-11-20T11:28:50Z</time>
      </trkpt>
      <trkpt lat="48.16055" lon="-3.32311">
        <ele>225.6</ele>
        <time>2024-11-20T11:28:51Z</time>
      </trkpt>
      <trkpt lat="48.16055" lon="-3.32311">
        <ele>225.6</ele>
        <time>2024-11-20T11:28:52Z</time>
      </trkpt>
      <trkpt lat="48.16055" lon="-3.32311">
        <ele>225.6</ele>
        <time>2024-11-20T11:28:53Z</time>
      </trkpt>
      <trkpt lat="48.16055" lon="-3.32311">
        <ele>225.6</ele>
        <time>2024-11-20T11:28:54Z</time>
      </trkpt>
      <trkpt lat="48.16055" lon="-3.32311">
        <ele>225.6</ele>
        <time>2024-11-20T11:28:55Z</time>
      </trkpt>
      <trkpt lat="48.16055" lon="-3.32311">
        <ele>225.6</ele>
        <time>2024-11-20T11:28:56Z</time>
      </trkpt>
      <trkpt lat="48.16055" lon="-3.32311">
        <ele>225.6</ele>
        <time>2024-11-20T11:28:57Z</time>
      </trkpt>
      <trkpt lat="48.16055" lon="-3.32311">
        <ele>225.6</ele>
        <time>2024-11-20T11:28:58Z</time>
      </trkpt>
      <trkpt lat="48.16055" lon="-3.32311">
        <ele>225.6</ele>
        <time>2024-11-20T11:28:59Z</time>
      </trkpt>
      <trkpt lat="48.16055" lon="-3.32311">
        <ele>225.6</ele>
        <time>2024-11-20T11:29:00Z</time>
      </trkpt>
      <trkpt lat="48.16055" lon="-3.32311">
        <ele>225.6</ele>
        <time>2024-11-20T11:29:01Z</time>
      </trkpt>
      <trkpt lat="48.16055" lon="-3.32311">
        <ele>225.6</ele>
        <time>2024-11-20T11:29:02Z</time>
      </trkpt>
      <trkpt lat="48.16055" lon="-3.32311">
        <ele>225.6</ele>
        <time>2024-11-20T11:29:03Z</time>
      </trkpt>
      <trkpt lat="48.16055" lon="-3.32311">
        <ele>225.6</ele>
        <time>2024-11-20T11:29:04Z</time>
      </trkpt>
      <trkpt lat="48.16055" lon="-3.32311">
        <ele>225.6</ele>
        <time>2024-11-20T11:29:05Z</time>
      </trkpt>
      <trkpt lat="48.16055" lon="-3.32311">
        <ele>225.6</ele>
        <time>2024-11-20T11:29:06Z</time>
      </trkpt>
      <trkpt lat="48.16055" lon="-3.32311">
        <ele>225.6</ele>
        <time>2024-11-20T11:29:07Z</time>
      </trkpt>
      <trkpt lat="48.16055" lon="-3.32311">
        <ele>225.6</ele>
        <time>2024-11-20T11:29:08Z</time>
      </trkpt>
      <trkpt lat="48.16055" lon="-3.32312">
        <ele>225.6</ele>
        <time>2024-11-20T11:29:09Z</time>
      </trkpt>
      <trkpt lat="48.16055" lon="-3.32312">
        <ele>225.6</ele>
        <time>2024-11-20T11:29:10Z</time>
      </trkpt>
      <trkpt lat="48.16056" lon="-3.32312">
        <ele>225.6</ele>
        <time>2024-11-20T11:29:11Z</time>
      </trkpt>
      <trkpt lat="48.16056" lon="-3.32312">
        <ele>225.6</ele>
        <time>2024-11-20T11:29:12Z</time>
      </trkpt>
      <trkpt lat="48.16056" lon="-3.32311">
        <ele>225.6</ele>
        <time>2024-11-20T11:29:13Z</time>
      </trkpt>
      <trkpt lat="48.16056" lon="-3.32311">
        <ele>225.6</ele>
        <time>2024-11-20T11:29:14Z</time>
      </trkpt>
      <trkpt lat="48.16056" lon="-3.32311">
        <ele>225.6</ele>
        <time>2024-11-20T11:29:15Z</time>
      </trkpt>
      <trkpt lat="48.16057" lon="-3.32311">
        <ele>225.6</ele>
        <time>2024-11-20T11:29:16Z</time>
      </trkpt>
      <trkpt lat="48.16057" lon="-3.3231">
        <ele>225.6</ele>
        <time>2024-11-20T11:29:17Z</time>
      </trkpt>
      <trkpt lat="48.16057" lon="-3.3231">
        <ele>225.6</ele>
        <time>2024-11-20T11:29:18Z</time>
      </trkpt>
      <trkpt lat="48.16057" lon="-3.32309">
        <ele>225.7</ele>
        <time>2024-11-20T11:29:19Z</time>
      </trkpt>
      <trkpt lat="48.16057" lon="-3.32309">
        <ele>225.7</ele>
        <time>2024-11-20T11:29:20Z</time>
      </trkpt>
      <trkpt lat="48.16057" lon="-3.32309">
        <ele>225.7</ele>
        <time>2024-11-20T11:29:21Z</time>
      </trkpt>
      <trkpt lat="48.16057" lon="-3.32309">
        <ele>225.7</ele>
        <time>2024-11-20T11:29:22Z</time>
      </trkpt>
      <trkpt lat="48.16057" lon="-3.32309">
        <ele>225.7</ele>
        <time>2024-11-20T11:29:23Z</time>
      </trkpt>
      <trkpt lat="48.16057" lon="-3.32309">
        <ele>225.7</ele>
        <time>2024-11-20T11:29:24Z</time>
      </trkpt>
      <trkpt lat="48.16057" lon="-3.32308">
        <ele>225.8</ele>
        <time>2024-11-20T11:29:25Z</time>
      </trkpt>
      <trkpt lat="48.16057" lon="-3.32308">
        <ele>225.8</ele>
        <time>2024-11-20T11:29:26Z</time>
      </trkpt>
      <trkpt lat="48.16057" lon="-3.32308">
        <ele>225.8</ele>
        <time>2024-11-20T11:29:27Z</time>
      </trkpt>
      <trkpt lat="48.16057" lon="-3.32307">
        <ele>225.8</ele>
        <time>2024-11-20T11:29:28Z</time>
      </trkpt>
      <trkpt lat="48.16057" lon="-3.32307">
        <ele>225.8</ele>
        <time>2024-11-20T11:29:29Z</time>
      </trkpt>
      <trkpt lat="48.16057" lon="-3.32307">
        <ele>225.8</ele>
        <time>2024-11-20T11:29:30Z</time>
      </trkpt>
      <trkpt lat="48.16057" lon="-3.32307">
        <ele>225.9</ele>
        <time>2024-11-20T11:29:31Z</time>
      </trkpt>
      <trkpt lat="48.16057" lon="-3.32307">
        <ele>225.9</ele>
        <time>2024-11-20T11:29:32Z</time>
      </trkpt>
      <trkpt lat="48.16057" lon="-3.32307">
        <ele>225.9</ele>
        <time>2024-11-20T11:29:33Z</time>
      </trkpt>
      <trkpt lat="48.16057" lon="-3.32307">
        <ele>225.9</ele>
        <time>2024-11-20T11:29:34Z</time>
      </trkpt>
      <trkpt lat="48.16057" lon="-3.32307">
        <ele>225.9</ele>
        <time>2024-11-20T11:29:35Z</time>
      </trkpt>
      <trkpt lat="48.16057" lon="-3.32307">
        <ele>225.9</ele>
        <time>2024-11-20T11:29:36Z</time>
      </trkpt>
      <trkpt lat="48.16057" lon="-3.32307">
        <ele>225.9</ele>
        <time>2024-11-20T11:29:37Z</time>
      </trkpt>
      <trkpt lat="48.16057" lon="-3.32307">
        <ele>225.9</ele>
        <time>2024-11-20T11:29:38Z</time>
      </trkpt>
      <trkpt lat="48.16057" lon="-3.32307">
        <ele>225.9</ele>
        <time>2024-11-20T11:29:39Z</time>
      </trkpt>
      <trkpt lat="48.16057" lon="-3.32307">
        <ele>225.9</ele>
        <time>2024-11-20T11:29:40Z</time>
      </trkpt>
      <trkpt lat="48.16057" lon="-3.32307">
        <ele>225.9</ele>
        <time>2024-11-20T11:29:41Z</time>
      </trkpt>
      <trkpt lat="48.16057" lon="-3.32306">
        <ele>225.9</ele>
        <time>2024-11-20T11:29:42Z</time>
      </trkpt>
      <trkpt lat="48.16056" lon="-3.32306">
        <ele>225.9</ele>
        <time>2024-11-20T11:29:43Z</time>
      </trkpt>
      <trkpt lat="48.16056" lon="-3.32306">
        <ele>225.9</ele>
        <time>2024-11-20T11:29:44Z</time>
      </trkpt>
      <trkpt lat="48.16056" lon="-3.32306">
        <ele>226</ele>
        <time>2024-11-20T11:29:45Z</time>
      </trkpt>
      <trkpt lat="48.16056" lon="-3.32306">
        <ele>226</ele>
        <time>2024-11-20T11:29:46Z</time>
      </trkpt>
      <trkpt lat="48.16056" lon="-3.32306">
        <ele>226</ele>
        <time>2024-11-20T11:29:47Z</time>
      </trkpt>
      <trkpt lat="48.16056" lon="-3.32306">
        <ele>225.9</ele>
        <time>2024-11-20T11:29:48Z</time>
      </trkpt>
      <trkpt lat="48.16056" lon="-3.32307">
        <ele>225.9</ele>
        <time>2024-11-20T11:29:49Z</time>
      </trkpt>
      <trkpt lat="48.16057" lon="-3.32307">
        <ele>225.8</ele>
        <time>2024-11-20T11:29:50Z</time>
      </trkpt>
      <trkpt lat="48.16057" lon="-3.32308">
        <ele>225.8</ele>
        <time>2024-11-20T11:29:51Z</time>
      </trkpt>
      <trkpt lat="48.16057" lon="-3.32308">
        <ele>225.8</ele>
        <time>2024-11-20T11:29:52Z</time>
      </trkpt>
      <trkpt lat="48.16057" lon="-3.32308">
        <ele>225.7</ele>
        <time>2024-11-20T11:29:53Z</time>
      </trkpt>
      <trkpt lat="48.16057" lon="-3.32309">
        <ele>225.7</ele>
        <time>2024-11-20T11:29:54Z</time>
      </trkpt>
      <trkpt lat="48.16057" lon="-3.32309">
        <ele>225.7</ele>
        <time>2024-11-20T11:29:55Z</time>
      </trkpt>
      <trkpt lat="48.16057" lon="-3.32309">
        <ele>225.7</ele>
        <time>2024-11-20T11:29:56Z</time>
      </trkpt>
      <trkpt lat="48.16057" lon="-3.32309">
        <ele>225.7</ele>
        <time>2024-11-20T11:29:57Z</time>
      </trkpt>
      <trkpt lat="48.16057" lon="-3.32309">
        <ele>225.7</ele>
        <time>2024-11-20T11:29:58Z</time>
      </trkpt>
      <trkpt lat="48.16057" lon="-3.32309">
        <ele>225.7</ele>
        <time>2024-11-20T11:29:59Z</time>
      </trkpt>
      <trkpt lat="48.16057" lon="-3.32309">
        <ele>225.7</ele>
        <time>2024-11-20T11:30:00Z</time>
      </trkpt>
      <trkpt lat="48.16057" lon="-3.3231">
        <ele>225.7</ele>
        <time>2024-11-20T11:30:01Z</time>
      </trkpt>
      <trkpt lat="48.16057" lon="-3.3231">
        <ele>225.7</ele>
        <time>2024-11-20T11:30:02Z</time>
      </trkpt>
      <trkpt lat="48.16056" lon="-3.3231">
        <ele>225.7</ele>
        <time>2024-11-20T11:30:03Z</time>
      </trkpt>
      <trkpt lat="48.16056" lon="-3.3231">
        <ele>225.7</ele>
        <time>2024-11-20T11:30:04Z</time>
      </trkpt>
      <trkpt lat="48.16056" lon="-3.3231">
        <ele>225.7</ele>
        <time>2024-11-20T11:30:05Z</time>
      </trkpt>
      <trkpt lat="48.16056" lon="-3.3231">
        <ele>225.7</ele>
        <time>2024-11-20T11:30:06Z</time>
      </trkpt>
      <trkpt lat="48.16056" lon="-3.3231">
        <ele>225.7</ele>
        <time>2024-11-20T11:30:07Z</time>
      </trkpt>
      <trkpt lat="48.16056" lon="-3.3231">
        <ele>225.7</ele>
        <time>2024-11-20T11:30:08Z</time>
      </trkpt>
      <trkpt lat="48.16056" lon="-3.3231">
        <ele>225.7</ele>
        <time>2024-11-20T11:30:09Z</time>
      </trkpt>
      <trkpt lat="48.16056" lon="-3.3231">
        <ele>225.7</ele>
        <time>2024-11-20T11:30:10Z</time>
      </trkpt>
      <trkpt lat="48.16056" lon="-3.3231">
        <ele>225.7</ele>
        <time>2024-11-20T11:30:11Z</time>
      </trkpt>
      <trkpt lat="48.16056" lon="-3.3231">
        <ele>225.7</ele>
        <time>2024-11-20T11:30:12Z</time>
      </trkpt>
      <trkpt lat="48.16055" lon="-3.32311">
        <ele>225.6</ele>
        <time>2024-11-20T11:30:13Z</time>
      </trkpt>
      <trkpt lat="48.16055" lon="-3.32311">
        <ele>225.6</ele>
        <time>2024-11-20T11:30:14Z</time>
      </trkpt>
      <trkpt lat="48.16055" lon="-3.32312">
        <ele>225.5</ele>
        <time>2024-11-20T11:30:15Z</time>
      </trkpt>
      <trkpt lat="48.16054" lon="-3.32313">
        <ele>225.5</ele>
        <time>2024-11-20T11:30:16Z</time>
      </trkpt>
      <trkpt lat="48.16054" lon="-3.32313">
        <ele>225.5</ele>
        <time>2024-11-20T11:30:17Z</time>
      </trkpt>
      <trkpt lat="48.16055" lon="-3.32314">
        <ele>225.4</ele>
        <time>2024-11-20T11:30:18Z</time>
      </trkpt>
      <trkpt lat="48.16055" lon="-3.32314">
        <ele>225.4</ele>
        <time>2024-11-20T11:30:19Z</time>
      </trkpt>
      <trkpt lat="48.16055" lon="-3.32313">
        <ele>225.4</ele>
        <time>2024-11-20T11:30:20Z</time>
      </trkpt>
      <trkpt lat="48.16055" lon="-3.32313">
        <ele>225.4</ele>
        <time>2024-11-20T11:30:21Z</time>
      </trkpt>
      <trkpt lat="48.16055" lon="-3.32313">
        <ele>225.4</ele>
        <time>2024-11-20T11:30:22Z</time>
      </trkpt>
      <trkpt lat="48.16055" lon="-3.32313">
        <ele>225.4</ele>
        <time>2024-11-20T11:30:23Z</time>
      </trkpt>
      <trkpt lat="48.16055" lon="-3.32313">
        <ele>225.4</ele>
        <time>2024-11-20T11:30:24Z</time>
      </trkpt>
      <trkpt lat="48.16055" lon="-3.32313">
        <ele>225.4</ele>
        <time>2024-11-20T11:30:25Z</time>
      </trkpt>
      <trkpt lat="48.16055" lon="-3.32313">
        <ele>225.4</ele>
        <time>2024-11-20T11:30:26Z</time>
      </trkpt>
      <trkpt lat="48.16055" lon="-3.32313">
        <ele>225.4</ele>
        <time>2024-11-20T11:30:27Z</time>
      </trkpt>
      <trkpt lat="48.16055" lon="-3.32313">
        <ele>225.4</ele>
        <time>2024-11-20T11:30:28Z</time>
      </trkpt>
      <trkpt lat="48.16055" lon="-3.32313">
        <ele>225.4</ele>
        <time>2024-11-20T11:30:29Z</time>
      </trkpt>
      <trkpt lat="48.16055" lon="-3.32313">
        <ele>225.4</ele>
        <time>2024-11-20T11:30:30Z</time>
      </trkpt>
      <trkpt lat="48.16055" lon="-3.32313">
        <ele>225.4</ele>
        <time>2024-11-20T11:30:31Z</time>
      </trkpt>
      <trkpt lat="48.16055" lon="-3.32313">
        <ele>225.4</ele>
        <time>2024-11-20T11:30:32Z</time>
      </trkpt>
      <trkpt lat="48.16055" lon="-3.32313">
        <ele>225.4</ele>
        <time>2024-11-20T11:30:33Z</time>
      </trkpt>
      <trkpt lat="48.16055" lon="-3.32313">
        <ele>225.4</ele>
        <time>2024-11-20T11:30:34Z</time>
      </trkpt>
      <trkpt lat="48.16055" lon="-3.32313">
        <ele>225.4</ele>
        <time>2024-11-20T11:30:35Z</time>
      </trkpt>
      <trkpt lat="48.16055" lon="-3.32313">
        <ele>225.4</ele>
        <time>2024-11-20T11:30:36Z</time>
      </trkpt>
      <trkpt lat="48.16055" lon="-3.32313">
        <ele>225.4</ele>
        <time>2024-11-20T11:30:37Z</time>
      </trkpt>
      <trkpt lat="48.16055" lon="-3.32313">
        <ele>225.4</ele>
        <time>2024-11-20T11:30:38Z</time>
      </trkpt>
      <trkpt lat="48.16055" lon="-3.32313">
        <ele>225.4</ele>
        <time>2024-11-20T11:30:39Z</time>
      </trkpt>
      <trkpt lat="48.16055" lon="-3.32313">
        <ele>225.5</ele>
        <time>2024-11-20T11:30:40Z</time>
      </trkpt>
      <trkpt lat="48.16055" lon="-3.32313">
        <ele>225.5</ele>
        <time>2024-11-20T11:30:41Z</time>
      </trkpt>
      <trkpt lat="48.16055" lon="-3.32313">
        <ele>225.5</ele>
        <time>2024-11-20T11:30:42Z</time>
      </trkpt>
      <trkpt lat="48.16055" lon="-3.32313">
        <ele>225.5</ele>
        <time>2024-11-20T11:30:43Z</time>
      </trkpt>
      <trkpt lat="48.16055" lon="-3.32313">
        <ele>225.5</ele>
        <time>2024-11-20T11:30:44Z</time>
      </trkpt>
      <trkpt lat="48.16055" lon="-3.32313">
        <ele>225.5</ele>
        <time>2024-11-20T11:30:45Z</time>
      </trkpt>
      <trkpt lat="48.16055" lon="-3.32313">
        <ele>225.5</ele>
        <time>2024-11-20T11:30:46Z</time>
      </trkpt>
      <trkpt lat="48.16055" lon="-3.32313">
        <ele>225.5</ele>
        <time>2024-11-20T11:30:47Z</time>
      </trkpt>
      <trkpt lat="48.16055" lon="-3.32313">
        <ele>225.5</ele>
        <time>2024-11-20T11:30:48Z</time>
      </trkpt>
      <trkpt lat="48.16055" lon="-3.32313">
        <ele>225.5</ele>
        <time>2024-11-20T11:30:49Z</time>
      </trkpt>
      <trkpt lat="48.16055" lon="-3.32313">
        <ele>225.5</ele>
        <time>2024-11-20T11:30:50Z</time>
      </trkpt>
      <trkpt lat="48.16055" lon="-3.32313">
        <ele>225.5</ele>
        <time>2024-11-20T11:30:51Z</time>
      </trkpt>
      <trkpt lat="48.16055" lon="-3.32313">
        <ele>225.5</ele>
        <time>2024-11-20T11:30:52Z</time>
      </trkpt>
      <trkpt lat="48.16055" lon="-3.32313">
        <ele>225.5</ele>
        <time>2024-11-20T11:30:53Z</time>
      </trkpt>
      <trkpt lat="48.16055" lon="-3.32313">
        <ele>225.4</ele>
        <time>2024-11-20T11:30:54Z</time>
      </trkpt>
      <trkpt lat="48.16055" lon="-3.32314">
        <ele>225.4</ele>
        <time>2024-11-20T11:30:55Z</time>
      </trkpt>
      <trkpt lat="48.16055" lon="-3.32314">
        <ele>225.4</ele>
        <time>2024-11-20T11:30:56Z</time>
      </trkpt>
      <trkpt lat="48.16055" lon="-3.32314">
        <ele>225.4</ele>
        <time>2024-11-20T11:30:57Z</time>
      </trkpt>
      <trkpt lat="48.16055" lon="-3.32314">
        <ele>225.4</ele>
        <time>2024-11-20T11:30:58Z</time>
      </trkpt>
      <trkpt lat="48.16054" lon="-3.32314">
        <ele>225.4</ele>
        <time>2024-11-20T11:30:59Z</time>
      </trkpt>
      <trkpt lat="48.16054" lon="-3.32314">
        <ele>225.4</ele>
        <time>2024-11-20T11:31:00Z</time>
      </trkpt>
      <trkpt lat="48.16054" lon="-3.32314">
        <ele>225.4</ele>
        <time>2024-11-20T11:31:01Z</time>
      </trkpt>
      <trkpt lat="48.16054" lon="-3.32314">
        <ele>225.4</ele>
        <time>2024-11-20T11:31:02Z</time>
      </trkpt>
      <trkpt lat="48.16054" lon="-3.32314">
        <ele>225.4</ele>
        <time>2024-11-20T11:31:03Z</time>
      </trkpt>
      <trkpt lat="48.16054" lon="-3.32314">
        <ele>225.4</ele>
        <time>2024-11-20T11:31:04Z</time>
      </trkpt>
      <trkpt lat="48.16055" lon="-3.32314">
        <ele>225.4</ele>
        <time>2024-11-20T11:31:05Z</time>
      </trkpt>
      <trkpt lat="48.16055" lon="-3.32314">
        <ele>225.4</ele>
        <time>2024-11-20T11:31:06Z</time>
      </trkpt>
      <trkpt lat="48.16055" lon="-3.32314">
        <ele>225.4</ele>
        <time>2024-11-20T11:31:07Z</time>
      </trkpt>
      <trkpt lat="48.16055" lon="-3.32314">
        <ele>225.4</ele>
        <time>2024-11-20T11:31:08Z</time>
      </trkpt>
      <trkpt lat="48.16055" lon="-3.32314">
        <ele>225.4</ele>
        <time>2024-11-20T11:31:09Z</time>
      </trkpt>
      <trkpt lat="48.16055" lon="-3.32314">
        <ele>225.4</ele>
        <time>2024-11-20T11:31:10Z</time>
      </trkpt>
      <trkpt lat="48.16055" lon="-3.32314">
        <ele>225.4</ele>
        <time>2024-11-20T11:31:11Z</time>
      </trkpt>
      <trkpt lat="48.16055" lon="-3.32314">
        <ele>225.4</ele>
        <time>2024-11-20T11:31:12Z</time>
      </trkpt>
      <trkpt lat="48.16055" lon="-3.32314">
        <ele>225.4</ele>
        <time>2024-11-20T11:31:13Z</time>
      </trkpt>
      <trkpt lat="48.16055" lon="-3.32314">
        <ele>225.4</ele>
        <time>2024-11-20T11:31:14Z</time>
      </trkpt>
      <trkpt lat="48.16055" lon="-3.32314">
        <ele>225.4</ele>
        <time>2024-11-20T11:31:15Z</time>
      </trkpt>
      <trkpt lat="48.16055" lon="-3.32314">
        <ele>225.4</ele>
        <time>2024-11-20T11:31:16Z</time>
      </trkpt>
      <trkpt lat="48.16055" lon="-3.32314">
        <ele>225.4</ele>
        <time>2024-11-20T11:31:17Z</time>
      </trkpt>
      <trkpt lat="48.16055" lon="-3.32314">
        <ele>225.4</ele>
        <time>2024-11-20T11:31:18Z</time>
      </trkpt>
      <trkpt lat="48.16055" lon="-3.32314">
        <ele>225.4</ele>
        <time>2024-11-20T11:31:19Z</time>
      </trkpt>
      <trkpt lat="48.16055" lon="-3.32314">
        <ele>225.4</ele>
        <time>2024-11-20T11:31:20Z</time>
      </trkpt>
      <trkpt lat="48.16055" lon="-3.32314">
        <ele>225.4</ele>
        <time>2024-11-20T11:31:21Z</time>
      </trkpt>
      <trkpt lat="48.16055" lon="-3.32314">
        <ele>225.4</ele>
        <time>2024-11-20T11:31:22Z</time>
      </trkpt>
      <trkpt lat="48.16055" lon="-3.32314">
        <ele>225.4</ele>
        <time>2024-11-20T11:31:23Z</time>
      </trkpt>
      <trkpt lat="48.16055" lon="-3.32314">
        <ele>225.4</ele>
        <time>2024-11-20T11:31:24Z</time>
      </trkpt>
      <trkpt lat="48.16055" lon="-3.32314">
        <ele>225.4</ele>
        <time>2024-11-20T11:31:25Z</time>
      </trkpt>
      <trkpt lat="48.16055" lon="-3.32314">
        <ele>225.4</ele>
        <time>2024-11-20T11:31:26Z</time>
      </trkpt>
      <trkpt lat="48.16055" lon="-3.32314">
        <ele>225.4</ele>
        <time>2024-11-20T11:31:27Z</time>
      </trkpt>
      <trkpt lat="48.16055" lon="-3.32314">
        <ele>225.4</ele>
        <time>2024-11-20T11:31:28Z</time>
      </trkpt>
      <trkpt lat="48.16055" lon="-3.32314">
        <ele>225.4</ele>
        <time>2024-11-20T11:31:29Z</time>
      </trkpt>
      <trkpt lat="48.16055" lon="-3.32314">
        <ele>225.4</ele>
        <time>2024-11-20T11:31:30Z</time>
      </trkpt>
      <trkpt lat="48.16055" lon="-3.32314">
        <ele>225.4</ele>
        <time>2024-11-20T11:31:31Z</time>
      </trkpt>
      <trkpt lat="48.16055" lon="-3.32314">
        <ele>225.4</ele>
        <time>2024-11-20T11:31:32Z</time>
      </trkpt>
      <trkpt lat="48.16055" lon="-3.32314">
        <ele>225.4</ele>
        <time>2024-11-20T11:31:33Z</time>
      </trkpt>
      <trkpt lat="48.16055" lon="-3.32314">
        <ele>225.4</ele>
        <time>2024-11-20T11:31:34Z</time>
      </trkpt>
      <trkpt lat="48.16055" lon="-3.32314">
        <ele>225.4</ele>
        <time>2024-11-20T11:31:35Z</time>
      </trkpt>
      <trkpt lat="48.16055" lon="-3.32314">
        <ele>225.4</ele>
        <time>2024-11-20T11:31:36Z</time>
      </trkpt>
      <trkpt lat="48.16055" lon="-3.32314">
        <ele>225.4</ele>
        <time>2024-11-20T11:31:37Z</time>
      </trkpt>
      <trkpt lat="48.16055" lon="-3.32314">
        <ele>225.4</ele>
        <time>2024-11-20T11:31:38Z</time>
      </trkpt>
      <trkpt lat="48.16055" lon="-3.32314">
        <ele>225.4</ele>
        <time>2024-11-20T11:31:39Z</time>
      </trkpt>
      <trkpt lat="48.16055" lon="-3.32314">
        <ele>225.4</ele>
        <time>2024-11-20T11:31:40Z</time>
      </trkpt>
      <trkpt lat="48.16055" lon="-3.32314">
        <ele>225.4</ele>
        <time>2024-11-20T11:31:41Z</time>
      </trkpt>
      <trkpt lat="48.16055" lon="-3.32314">
        <ele>225.4</ele>
        <time>2024-11-20T11:31:42Z</time>
      </trkpt>
      <trkpt lat="48.16055" lon="-3.32314">
        <ele>225.4</ele>
        <time>2024-11-20T11:31:43Z</time>
      </trkpt>
      <trkpt lat="48.16055" lon="-3.32314">
        <ele>225.4</ele>
        <time>2024-11-20T11:31:44Z</time>
      </trkpt>
      <trkpt lat="48.16055" lon="-3.32314">
        <ele>225.4</ele>
        <time>2024-11-20T11:31:45Z</time>
      </trkpt>
      <trkpt lat="48.16055" lon="-3.32314">
        <ele>225.4</ele>
        <time>2024-11-20T11:31:46Z</time>
      </trkpt>
      <trkpt lat="48.16055" lon="-3.32314">
        <ele>225.4</ele>
        <time>2024-11-20T11:31:47Z</time>
      </trkpt>
      <trkpt lat="48.16055" lon="-3.32314">
        <ele>225.4</ele>
        <time>2024-11-20T11:31:48Z</time>
      </trkpt>
      <trkpt lat="48.16055" lon="-3.32314">
        <ele>225.4</ele>
        <time>2024-11-20T11:31:49Z</time>
      </trkpt>
      <trkpt lat="48.16055" lon="-3.32314">
        <ele>225.4</ele>
        <time>2024-11-20T11:31:50Z</time>
      </trkpt>
      <trkpt lat="48.16055" lon="-3.32314">
        <ele>225.4</ele>
        <time>2024-11-20T11:31:51Z</time>
      </trkpt>
      <trkpt lat="48.16055" lon="-3.32314">
        <ele>225.4</ele>
        <time>2024-11-20T11:31:52Z</time>
      </trkpt>
      <trkpt lat="48.16055" lon="-3.32314">
        <ele>225.4</ele>
        <time>2024-11-20T11:31:53Z</time>
      </trkpt>
      <trkpt lat="48.16055" lon="-3.32314">
        <ele>225.4</ele>
        <time>2024-11-20T11:31:54Z</time>
      </trkpt>
      <trkpt lat="48.16055" lon="-3.32314">
        <ele>225.4</ele>
        <time>2024-11-20T11:31:55Z</time>
      </trkpt>
      <trkpt lat="48.16055" lon="-3.32314">
        <ele>225.4</ele>
        <time>2024-11-20T11:31:56Z</time>
      </trkpt>
      <trkpt lat="48.16055" lon="-3.32314">
        <ele>225.4</ele>
        <time>2024-11-20T11:31:57Z</time>
      </trkpt>
      <trkpt lat="48.16055" lon="-3.32314">
        <ele>225.4</ele>
        <time>2024-11-20T11:31:58Z</time>
      </trkpt>
      <trkpt lat="48.16055" lon="-3.32314">
        <ele>225.4</ele>
        <time>2024-11-20T11:31:59Z</time>
      </trkpt>
      <trkpt lat="48.16055" lon="-3.32314">
        <ele>225.4</ele>
        <time>2024-11-20T11:32:00Z</time>
      </trkpt>
      <trkpt lat="48.16055" lon="-3.32314">
        <ele>225.4</ele>
        <time>2024-11-20T11:32:01Z</time>
      </trkpt>
      <trkpt lat="48.16055" lon="-3.32314">
        <ele>225.4</ele>
        <time>2024-11-20T11:32:02Z</time>
      </trkpt>
      <trkpt lat="48.16055" lon="-3.32314">
        <ele>225.4</ele>
        <time>2024-11-20T11:32:03Z</time>
      </trkpt>
      <trkpt lat="48.16055" lon="-3.32314">
        <ele>225.4</ele>
        <time>2024-11-20T11:32:04Z</time>
      </trkpt>
      <trkpt lat="48.16055" lon="-3.32314">
        <ele>225.4</ele>
        <time>2024-11-20T11:32:05Z</time>
      </trkpt>
      <trkpt lat="48.16055" lon="-3.32314">
        <ele>225.4</ele>
        <time>2024-11-20T11:32:06Z</time>
      </trkpt>
      <trkpt lat="48.16055" lon="-3.32314">
        <ele>225.4</ele>
        <time>2024-11-20T11:32:07Z</time>
      </trkpt>
      <trkpt lat="48.16055" lon="-3.32314">
        <ele>225.4</ele>
        <time>2024-11-20T11:32:08Z</time>
      </trkpt>
      <trkpt lat="48.16055" lon="-3.32314">
        <ele>225.4</ele>
        <time>2024-11-20T11:32:09Z</time>
      </trkpt>
      <trkpt lat="48.16055" lon="-3.32314">
        <ele>225.4</ele>
        <time>2024-11-20T11:32:10Z</time>
      </trkpt>
      <trkpt lat="48.16055" lon="-3.32314">
        <ele>225.4</ele>
        <time>2024-11-20T11:32:11Z</time>
      </trkpt>
      <trkpt lat="48.16055" lon="-3.32314">
        <ele>225.4</ele>
        <time>2024-11-20T11:32:12Z</time>
      </trkpt>
      <trkpt lat="48.16054" lon="-3.32314">
        <ele>225.4</ele>
        <time>2024-11-20T11:32:13Z</time>
      </trkpt>
      <trkpt lat="48.16054" lon="-3.32314">
        <ele>225.4</ele>
        <time>2024-11-20T11:32:14Z</time>
      </trkpt>
      <trkpt lat="48.16054" lon="-3.32314">
        <ele>225.4</ele>
        <time>2024-11-20T11:32:15Z</time>
      </trkpt>
      <trkpt lat="48.16054" lon="-3.32314">
        <ele>225.4</ele>
        <time>2024-11-20T11:32:16Z</time>
      </trkpt>
      <trkpt lat="48.16054" lon="-3.32314">
        <ele>225.4</ele>
        <time>2024-11-20T11:32:17Z</time>
      </trkpt>
      <trkpt lat="48.16054" lon="-3.32314">
        <ele>225.4</ele>
        <time>2024-11-20T11:32:18Z</time>
      </trkpt>
      <trkpt lat="48.16054" lon="-3.32314">
        <ele>225.4</ele>
        <time>2024-11-20T11:32:19Z</time>
      </trkpt>
      <trkpt lat="48.16054" lon="-3.32314">
        <ele>225.4</ele>
        <time>2024-11-20T11:32:20Z</time>
      </trkpt>
      <trkpt lat="48.16054" lon="-3.32314">
        <ele>225.4</ele>
        <time>2024-11-20T11:32:21Z</time>
      </trkpt>
      <trkpt lat="48.16054" lon="-3.32314">
        <ele>225.4</ele>
        <time>2024-11-20T11:32:22Z</time>
      </trkpt>
      <trkpt lat="48.16054" lon="-3.32314">
        <ele>225.4</ele>
        <time>2024-11-20T11:32:23Z</time>
      </trkpt>
      <trkpt lat="48.16054" lon="-3.32314">
        <ele>225.4</ele>
        <time>2024-11-20T11:32:24Z</time>
      </trkpt>
      <trkpt lat="48.16054" lon="-3.32314">
        <ele>225.4</ele>
        <time>2024-11-20T11:32:25Z</time>
      </trkpt>
      <trkpt lat="48.16054" lon="-3.32314">
        <ele>225.4</ele>
        <time>2024-11-20T11:32:26Z</time>
      </trkpt>
      <trkpt lat="48.16054" lon="-3.32314">
        <ele>225.4</ele>
        <time>2024-11-20T11:32:27Z</time>
      </trkpt>
      <trkpt lat="48.16054" lon="-3.32314">
        <ele>225.4</ele>
        <time>2024-11-20T11:32:28Z</time>
      </trkpt>
      <trkpt lat="48.16054" lon="-3.32314">
        <ele>225.4</ele>
        <time>2024-11-20T11:32:29Z</time>
      </trkpt>
      <trkpt lat="48.16054" lon="-3.32314">
        <ele>225.4</ele>
        <time>2024-11-20T11:32:30Z</time>
      </trkpt>
      <trkpt lat="48.16054" lon="-3.32314">
        <ele>225.4</ele>
        <time>2024-11-20T11:32:31Z</time>
      </trkpt>
      <trkpt lat="48.16054" lon="-3.32314">
        <ele>225.4</ele>
        <time>2024-11-20T11:32:32Z</time>
      </trkpt>
      <trkpt lat="48.16054" lon="-3.32314">
        <ele>225.4</ele>
        <time>2024-11-20T11:32:33Z</time>
      </trkpt>
      <trkpt lat="48.16054" lon="-3.32314">
        <ele>225.4</ele>
        <time>2024-11-20T11:32:34Z</time>
      </trkpt>
      <trkpt lat="48.16055" lon="-3.32314">
        <ele>225.4</ele>
        <time>2024-11-20T11:32:35Z</time>
      </trkpt>
      <trkpt lat="48.16054" lon="-3.32314">
        <ele>225.4</ele>
        <time>2024-11-20T11:32:36Z</time>
      </trkpt>
      <trkpt lat="48.16055" lon="-3.32314">
        <ele>225.4</ele>
        <time>2024-11-20T11:32:37Z</time>
      </trkpt>
      <trkpt lat="48.16055" lon="-3.32314">
        <ele>225.4</ele>
        <time>2024-11-20T11:32:38Z</time>
      </trkpt>
      <trkpt lat="48.16054" lon="-3.32314">
        <ele>225.4</ele>
        <time>2024-11-20T11:32:39Z</time>
      </trkpt>
      <trkpt lat="48.16054" lon="-3.32314">
        <ele>225.4</ele>
        <time>2024-11-20T11:32:40Z</time>
      </trkpt>
      <trkpt lat="48.16054" lon="-3.32314">
        <ele>225.4</ele>
        <time>2024-11-20T11:32:41Z</time>
      </trkpt>
      <trkpt lat="48.16054" lon="-3.32314">
        <ele>225.4</ele>
        <time>2024-11-20T11:32:42Z</time>
      </trkpt>
      <trkpt lat="48.16054" lon="-3.32314">
        <ele>225.4</ele>
        <time>2024-11-20T11:32:43Z</time>
      </trkpt>
      <trkpt lat="48.16054" lon="-3.32314">
        <ele>225.4</ele>
        <time>2024-11-20T11:32:44Z</time>
      </trkpt>
      <trkpt lat="48.16054" lon="-3.32314">
        <ele>225.4</ele>
        <time>2024-11-20T11:32:45Z</time>
      </trkpt>
      <trkpt lat="48.16054" lon="-3.32315">
        <ele>225.4</ele>
        <time>2024-11-20T11:32:46Z</time>
      </trkpt>
      <trkpt lat="48.16054" lon="-3.32315">
        <ele>225.3</ele>
        <time>2024-11-20T11:32:47Z</time>
      </trkpt>
      <trkpt lat="48.16054" lon="-3.32315">
        <ele>225.3</ele>
        <time>2024-11-20T11:32:48Z</time>
      </trkpt>
      <trkpt lat="48.16055" lon="-3.32315">
        <ele>225.3</ele>
        <time>2024-11-20T11:32:49Z</time>
      </trkpt>
      <trkpt lat="48.16055" lon="-3.32315">
        <ele>225.3</ele>
        <time>2024-11-20T11:32:50Z</time>
      </trkpt>
      <trkpt lat="48.16055" lon="-3.32315">
        <ele>225.3</ele>
        <time>2024-11-20T11:32:51Z</time>
      </trkpt>
      <trkpt lat="48.16056" lon="-3.32316">
        <ele>225.3</ele>
        <time>2024-11-20T11:32:52Z</time>
      </trkpt>
      <trkpt lat="48.16056" lon="-3.32316">
        <ele>225.2</ele>
        <time>2024-11-20T11:32:53Z</time>
      </trkpt>
      <trkpt lat="48.16057" lon="-3.32316">
        <ele>225.2</ele>
        <time>2024-11-20T11:32:54Z</time>
      </trkpt>
      <trkpt lat="48.16057" lon="-3.32316">
        <ele>225.2</ele>
        <time>2024-11-20T11:32:55Z</time>
      </trkpt>
      <trkpt lat="48.16057" lon="-3.32316">
        <ele>225.2</ele>
        <time>2024-11-20T11:32:56Z</time>
      </trkpt>
      <trkpt lat="48.16058" lon="-3.32317">
        <ele>225.1</ele>
        <time>2024-11-20T11:32:57Z</time>
      </trkpt>
      <trkpt lat="48.16058" lon="-3.32317">
        <ele>225.1</ele>
        <time>2024-11-20T11:32:58Z</time>
      </trkpt>
      <trkpt lat="48.16058" lon="-3.32317">
        <ele>225.1</ele>
        <time>2024-11-20T11:32:59Z</time>
      </trkpt>
      <trkpt lat="48.16058" lon="-3.32318">
        <ele>225</ele>
        <time>2024-11-20T11:33:00Z</time>
      </trkpt>
      <trkpt lat="48.16058" lon="-3.32317">
        <ele>225.1</ele>
        <time>2024-11-20T11:33:01Z</time>
      </trkpt>
      <trkpt lat="48.16058" lon="-3.32317">
        <ele>225.1</ele>
        <time>2024-11-20T11:33:02Z</time>
      </trkpt>
      <trkpt lat="48.16059" lon="-3.32316">
        <ele>225.1</ele>
        <time>2024-11-20T11:33:03Z</time>
      </trkpt>
      <trkpt lat="48.16059" lon="-3.32316">
        <ele>225.1</ele>
        <time>2024-11-20T11:33:04Z</time>
      </trkpt>
      <trkpt lat="48.16059" lon="-3.32316">
        <ele>225.2</ele>
        <time>2024-11-20T11:33:05Z</time>
      </trkpt>
      <trkpt lat="48.16058" lon="-3.32316">
        <ele>225.2</ele>
        <time>2024-11-20T11:33:06Z</time>
      </trkpt>
      <trkpt lat="48.16058" lon="-3.32315">
        <ele>225.2</ele>
        <time>2024-11-20T11:33:07Z</time>
      </trkpt>
      <trkpt lat="48.16058" lon="-3.32315">
        <ele>225.2</ele>
        <time>2024-11-20T11:33:08Z</time>
      </trkpt>
      <trkpt lat="48.16058" lon="-3.32315">
        <ele>225.2</ele>
        <time>2024-11-20T11:33:09Z</time>
      </trkpt>
      <trkpt lat="48.16058" lon="-3.32315">
        <ele>225.2</ele>
        <time>2024-11-20T11:33:10Z</time>
      </trkpt>
      <trkpt lat="48.16058" lon="-3.32315">
        <ele>225.3</ele>
        <time>2024-11-20T11:33:11Z</time>
      </trkpt>
      <trkpt lat="48.16058" lon="-3.32315">
        <ele>225.3</ele>
        <time>2024-11-20T11:33:12Z</time>
      </trkpt>
      <trkpt lat="48.16058" lon="-3.32314">
        <ele>225.3</ele>
        <time>2024-11-20T11:33:13Z</time>
      </trkpt>
      <trkpt lat="48.16058" lon="-3.32314">
        <ele>225.3</ele>
        <time>2024-11-20T11:33:14Z</time>
      </trkpt>
      <trkpt lat="48.16058" lon="-3.32314">
        <ele>225.3</ele>
        <time>2024-11-20T11:33:15Z</time>
      </trkpt>
      <trkpt lat="48.16058" lon="-3.32314">
        <ele>225.3</ele>
        <time>2024-11-20T11:33:16Z</time>
      </trkpt>
      <trkpt lat="48.16058" lon="-3.32314">
        <ele>225.3</ele>
        <time>2024-11-20T11:33:17Z</time>
      </trkpt>
      <trkpt lat="48.16058" lon="-3.32314">
        <ele>225.3</ele>
        <time>2024-11-20T11:33:18Z</time>
      </trkpt>
      <trkpt lat="48.16058" lon="-3.32314">
        <ele>225.3</ele>
        <time>2024-11-20T11:33:19Z</time>
      </trkpt>
      <trkpt lat="48.16058" lon="-3.32314">
        <ele>225.3</ele>
        <time>2024-11-20T11:33:20Z</time>
      </trkpt>
      <trkpt lat="48.16058" lon="-3.32313">
        <ele>225.3</ele>
        <time>2024-11-20T11:33:21Z</time>
      </trkpt>
      <trkpt lat="48.16058" lon="-3.32313">
        <ele>225.3</ele>
        <time>2024-11-20T11:33:22Z</time>
      </trkpt>
      <trkpt lat="48.16058" lon="-3.32313">
        <ele>225.4</ele>
        <time>2024-11-20T11:33:23Z</time>
      </trkpt>
      <trkpt lat="48.16058" lon="-3.32313">
        <ele>225.4</ele>
        <time>2024-11-20T11:33:24Z</time>
      </trkpt>
      <trkpt lat="48.16058" lon="-3.32313">
        <ele>225.4</ele>
        <time>2024-11-20T11:33:25Z</time>
      </trkpt>
      <trkpt lat="48.16058" lon="-3.32313">
        <ele>225.4</ele>
        <time>2024-11-20T11:33:26Z</time>
      </trkpt>
      <trkpt lat="48.16058" lon="-3.32313">
        <ele>225.4</ele>
        <time>2024-11-20T11:33:27Z</time>
      </trkpt>
      <trkpt lat="48.16058" lon="-3.32313">
        <ele>225.4</ele>
        <time>2024-11-20T11:33:28Z</time>
      </trkpt>
      <trkpt lat="48.16058" lon="-3.32313">
        <ele>225.4</ele>
        <time>2024-11-20T11:33:29Z</time>
      </trkpt>
      <trkpt lat="48.16058" lon="-3.32313">
        <ele>225.4</ele>
        <time>2024-11-20T11:33:30Z</time>
      </trkpt>
      <trkpt lat="48.16058" lon="-3.32313">
        <ele>225.4</ele>
        <time>2024-11-20T11:33:31Z</time>
      </trkpt>
      <trkpt lat="48.16058" lon="-3.32313">
        <ele>225.4</ele>
        <time>2024-11-20T11:33:32Z</time>
      </trkpt>
      <trkpt lat="48.16058" lon="-3.32313">
        <ele>225.4</ele>
        <time>2024-11-20T11:33:33Z</time>
      </trkpt>
      <trkpt lat="48.16058" lon="-3.32313">
        <ele>225.4</ele>
        <time>2024-11-20T11:33:34Z</time>
      </trkpt>
      <trkpt lat="48.16058" lon="-3.32313">
        <ele>225.4</ele>
        <time>2024-11-20T11:33:35Z</time>
      </trkpt>
      <trkpt lat="48.16058" lon="-3.32313">
        <ele>225.4</ele>
        <time>2024-11-20T11:33:36Z</time>
      </trkpt>
      <trkpt lat="48.16057" lon="-3.32313">
        <ele>225.4</ele>
        <time>2024-11-20T11:33:37Z</time>
      </trkpt>
      <trkpt lat="48.16057" lon="-3.32313">
        <ele>225.4</ele>
        <time>2024-11-20T11:33:38Z</time>
      </trkpt>
      <trkpt lat="48.16057" lon="-3.32313">
        <ele>225.4</ele>
        <time>2024-11-20T11:33:39Z</time>
      </trkpt>
      <trkpt lat="48.16057" lon="-3.32313">
        <ele>225.4</ele>
        <time>2024-11-20T11:33:40Z</time>
      </trkpt>
      <trkpt lat="48.16057" lon="-3.32313">
        <ele>225.4</ele>
        <time>2024-11-20T11:33:41Z</time>
      </trkpt>
      <trkpt lat="48.16057" lon="-3.32314">
        <ele>225.4</ele>
        <time>2024-11-20T11:33:42Z</time>
      </trkpt>
      <trkpt lat="48.16057" lon="-3.32314">
        <ele>225.4</ele>
        <time>2024-11-20T11:33:43Z</time>
      </trkpt>
      <trkpt lat="48.16057" lon="-3.32314">
        <ele>225.4</ele>
        <time>2024-11-20T11:33:44Z</time>
      </trkpt>
      <trkpt lat="48.16057" lon="-3.32314">
        <ele>225.4</ele>
        <time>2024-11-20T11:33:45Z</time>
      </trkpt>
      <trkpt lat="48.16057" lon="-3.32314">
        <ele>225.4</ele>
        <time>2024-11-20T11:33:46Z</time>
      </trkpt>
      <trkpt lat="48.16057" lon="-3.32314">
        <ele>225.4</ele>
        <time>2024-11-20T11:33:47Z</time>
      </trkpt>
      <trkpt lat="48.16057" lon="-3.32314">
        <ele>225.4</ele>
        <time>2024-11-20T11:33:48Z</time>
      </trkpt>
      <trkpt lat="48.16057" lon="-3.32314">
        <ele>225.4</ele>
        <time>2024-11-20T11:33:49Z</time>
      </trkpt>
      <trkpt lat="48.16057" lon="-3.32314">
        <ele>225.4</ele>
        <time>2024-11-20T11:33:50Z</time>
      </trkpt>
      <trkpt lat="48.16057" lon="-3.32314">
        <ele>225.4</ele>
        <time>2024-11-20T11:33:51Z</time>
      </trkpt>
      <trkpt lat="48.16057" lon="-3.32314">
        <ele>225.4</ele>
        <time>2024-11-20T11:33:52Z</time>
      </trkpt>
      <trkpt lat="48.16057" lon="-3.32314">
        <ele>225.4</ele>
        <time>2024-11-20T11:33:53Z</time>
      </trkpt>
      <trkpt lat="48.16057" lon="-3.32314">
        <ele>225.4</ele>
        <time>2024-11-20T11:33:54Z</time>
      </trkpt>
      <trkpt lat="48.16057" lon="-3.32314">
        <ele>225.4</ele>
        <time>2024-11-20T11:33:55Z</time>
      </trkpt>
      <trkpt lat="48.16057" lon="-3.32314">
        <ele>225.4</ele>
        <time>2024-11-20T11:33:56Z</time>
      </trkpt>
      <trkpt lat="48.16057" lon="-3.32314">
        <ele>225.4</ele>
        <time>2024-11-20T11:33:57Z</time>
      </trkpt>
      <trkpt lat="48.16057" lon="-3.32314">
        <ele>225.4</ele>
        <time>2024-11-20T11:33:58Z</time>
      </trkpt>
      <trkpt lat="48.16057" lon="-3.32314">
        <ele>225.4</ele>
        <time>2024-11-20T11:33:59Z</time>
      </trkpt>
      <trkpt lat="48.16057" lon="-3.32314">
        <ele>225.4</ele>
        <time>2024-11-20T11:34:00Z</time>
      </trkpt>
      <trkpt lat="48.16057" lon="-3.32314">
        <ele>225.4</ele>
        <time>2024-11-20T11:34:01Z</time>
      </trkpt>
      <trkpt lat="48.16057" lon="-3.32314">
        <ele>225.4</ele>
        <time>2024-11-20T11:34:02Z</time>
      </trkpt>
      <trkpt lat="48.16057" lon="-3.32314">
        <ele>225.4</ele>
        <time>2024-11-20T11:34:03Z</time>
      </trkpt>
      <trkpt lat="48.16057" lon="-3.32314">
        <ele>225.4</ele>
        <time>2024-11-20T11:34:04Z</time>
      </trkpt>
      <trkpt lat="48.16057" lon="-3.32314">
        <ele>225.4</ele>
        <time>2024-11-20T11:34:05Z</time>
      </trkpt>
      <trkpt lat="48.16057" lon="-3.32314">
        <ele>225.4</ele>
        <time>2024-11-20T11:34:06Z</time>
      </trkpt>
      <trkpt lat="48.16057" lon="-3.32314">
        <ele>225.4</ele>
        <time>2024-11-20T11:34:07Z</time>
      </trkpt>
      <trkpt lat="48.16057" lon="-3.32314">
        <ele>225.4</ele>
        <time>2024-11-20T11:34:08Z</time>
      </trkpt>
      <trkpt lat="48.16057" lon="-3.32314">
        <ele>225.4</ele>
        <time>2024-11-20T11:34:09Z</time>
      </trkpt>
      <trkpt lat="48.16057" lon="-3.32314">
        <ele>225.4</ele>
        <time>2024-11-20T11:34:10Z</time>
      </trkpt>
      <trkpt lat="48.16057" lon="-3.32314">
        <ele>225.4</ele>
        <time>2024-11-20T11:34:11Z</time>
      </trkpt>
      <trkpt lat="48.16057" lon="-3.32314">
        <ele>225.4</ele>
        <time>2024-11-20T11:34:12Z</time>
      </trkpt>
      <trkpt lat="48.16057" lon="-3.32314">
        <ele>225.4</ele>
        <time>2024-11-20T11:34:13Z</time>
      </trkpt>
      <trkpt lat="48.16057" lon="-3.32314">
        <ele>225.4</ele>
        <time>2024-11-20T11:34:14Z</time>
      </trkpt>
      <trkpt lat="48.16057" lon="-3.32314">
        <ele>225.4</ele>
        <time>2024-11-20T11:34:15Z</time>
      </trkpt>
      <trkpt lat="48.16056" lon="-3.32314">
        <ele>225.4</ele>
        <time>2024-11-20T11:34:16Z</time>
      </trkpt>
      <trkpt lat="48.16056" lon="-3.32314">
        <ele>225.4</ele>
        <time>2024-11-20T11:34:17Z</time>
      </trkpt>
      <trkpt lat="48.16056" lon="-3.32314">
        <ele>225.4</ele>
        <time>2024-11-20T11:34:18Z</time>
      </trkpt>
      <trkpt lat="48.16055" lon="-3.32314">
        <ele>225.4</ele>
        <time>2024-11-20T11:34:19Z</time>
      </trkpt>
      <trkpt lat="48.16055" lon="-3.32314">
        <ele>225.4</ele>
        <time>2024-11-20T11:34:20Z</time>
      </trkpt>
      <trkpt lat="48.16055" lon="-3.32314">
        <ele>225.4</ele>
        <time>2024-11-20T11:34:21Z</time>
      </trkpt>
      <trkpt lat="48.16055" lon="-3.32314">
        <ele>225.4</ele>
        <time>2024-11-20T11:34:22Z</time>
      </trkpt>
      <trkpt lat="48.16055" lon="-3.32314">
        <ele>225.4</ele>
        <time>2024-11-20T11:34:23Z</time>
      </trkpt>
      <trkpt lat="48.16055" lon="-3.32314">
        <ele>225.4</ele>
        <time>2024-11-20T11:34:24Z</time>
      </trkpt>
      <trkpt lat="48.16055" lon="-3.32314">
        <ele>225.4</ele>
        <time>2024-11-20T11:34:25Z</time>
      </trkpt>
      <trkpt lat="48.16055" lon="-3.32314">
        <ele>225.4</ele>
        <time>2024-11-20T11:34:26Z</time>
      </trkpt>
      <trkpt lat="48.16055" lon="-3.32314">
        <ele>225.4</ele>
        <time>2024-11-20T11:34:27Z</time>
      </trkpt>
      <trkpt lat="48.16055" lon="-3.32314">
        <ele>225.4</ele>
        <time>2024-11-20T11:34:28Z</time>
      </trkpt>
      <trkpt lat="48.16054" lon="-3.32314">
        <ele>225.4</ele>
        <time>2024-11-20T11:34:29Z</time>
      </trkpt>
      <trkpt lat="48.16054" lon="-3.32314">
        <ele>225.4</ele>
        <time>2024-11-20T11:34:30Z</time>
      </trkpt>
      <trkpt lat="48.16054" lon="-3.32314">
        <ele>225.4</ele>
        <time>2024-11-20T11:34:31Z</time>
      </trkpt>
      <trkpt lat="48.16054" lon="-3.32314">
        <ele>225.4</ele>
        <time>2024-11-20T11:34:32Z</time>
      </trkpt>
      <trkpt lat="48.16054" lon="-3.32314">
        <ele>225.4</ele>
        <time>2024-11-20T11:34:33Z</time>
      </trkpt>
      <trkpt lat="48.16054" lon="-3.32314">
        <ele>225.4</ele>
        <time>2024-11-20T11:34:34Z</time>
      </trkpt>
      <trkpt lat="48.16054" lon="-3.32314">
        <ele>225.4</ele>
        <time>2024-11-20T11:34:35Z</time>
      </trkpt>
      <trkpt lat="48.16054" lon="-3.32315">
        <ele>225.4</ele>
        <time>2024-11-20T11:34:36Z</time>
      </trkpt>
      <trkpt lat="48.16054" lon="-3.32315">
        <ele>225.4</ele>
        <time>2024-11-20T11:34:37Z</time>
      </trkpt>
      <trkpt lat="48.16054" lon="-3.32314">
        <ele>225.4</ele>
        <time>2024-11-20T11:34:38Z</time>
      </trkpt>
      <trkpt lat="48.16054" lon="-3.32314">
        <ele>225.4</ele>
        <time>2024-11-20T11:34:39Z</time>
      </trkpt>
      <trkpt lat="48.16054" lon="-3.32314">
        <ele>225.4</ele>
        <time>2024-11-20T11:34:40Z</time>
      </trkpt>
      <trkpt lat="48.16054" lon="-3.32314">
        <ele>225.4</ele>
        <time>2024-11-20T11:34:41Z</time>
      </trkpt>
      <trkpt lat="48.16054" lon="-3.32314">
        <ele>225.4</ele>
        <time>2024-11-20T11:34:42Z</time>
      </trkpt>
      <trkpt lat="48.16054" lon="-3.32314">
        <ele>225.4</ele>
        <time>2024-11-20T11:34:43Z</time>
      </trkpt>
      <trkpt lat="48.16054" lon="-3.32314">
        <ele>225.4</ele>
        <time>2024-11-20T11:34:44Z</time>
      </trkpt>
      <trkpt lat="48.16054" lon="-3.32314">
        <ele>225.4</ele>
        <time>2024-11-20T11:34:45Z</time>
      </trkpt>
      <trkpt lat="48.16054" lon="-3.32314">
        <ele>225.4</ele>
        <time>2024-11-20T11:34:46Z</time>
      </trkpt>
      <trkpt lat="48.16054" lon="-3.32314">
        <ele>225.4</ele>
        <time>2024-11-20T11:34:47Z</time>
      </trkpt>
      <trkpt lat="48.16054" lon="-3.32313">
        <ele>225.4</ele>
        <time>2024-11-20T11:34:48Z</time>
      </trkpt>
      <trkpt lat="48.16054" lon="-3.32313">
        <ele>225.4</ele>
        <time>2024-11-20T11:34:49Z</time>
      </trkpt>
      <trkpt lat="48.16054" lon="-3.32313">
        <ele>225.5</ele>
        <time>2024-11-20T11:34:50Z</time>
      </trkpt>
      <trkpt lat="48.16055" lon="-3.32313">
        <ele>225.5</ele>
        <time>2024-11-20T11:34:51Z</time>
      </trkpt>
      <trkpt lat="48.16055" lon="-3.32313">
        <ele>225.5</ele>
        <time>2024-11-20T11:34:52Z</time>
      </trkpt>
      <trkpt lat="48.16055" lon="-3.32313">
        <ele>225.5</ele>
        <time>2024-11-20T11:34:53Z</time>
      </trkpt>
      <trkpt lat="48.16055" lon="-3.32313">
        <ele>225.5</ele>
        <time>2024-11-20T11:34:54Z</time>
      </trkpt>
      <trkpt lat="48.16055" lon="-3.32313">
        <ele>225.5</ele>
        <time>2024-11-20T11:34:55Z</time>
      </trkpt>
      <trkpt lat="48.16055" lon="-3.32313">
        <ele>225.5</ele>
        <time>2024-11-20T11:34:56Z</time>
      </trkpt>
      <trkpt lat="48.16055" lon="-3.32313">
        <ele>225.5</ele>
        <time>2024-11-20T11:34:57Z</time>
      </trkpt>
      <trkpt lat="48.16055" lon="-3.32313">
        <ele>225.5</ele>
        <time>2024-11-20T11:34:58Z</time>
      </trkpt>
      <trkpt lat="48.16055" lon="-3.32313">
        <ele>225.5</ele>
        <time>2024-11-20T11:34:59Z</time>
      </trkpt>
      <trkpt lat="48.16055" lon="-3.32312">
        <ele>225.5</ele>
        <time>2024-11-20T11:35:00Z</time>
      </trkpt>
      <trkpt lat="48.16055" lon="-3.32312">
        <ele>225.5</ele>
        <time>2024-11-20T11:35:01Z</time>
      </trkpt>
      <trkpt lat="48.16055" lon="-3.32312">
        <ele>225.5</ele>
        <time>2024-11-20T11:35:02Z</time>
      </trkpt>
      <trkpt lat="48.16055" lon="-3.32312">
        <ele>225.5</ele>
        <time>2024-11-20T11:35:03Z</time>
      </trkpt>
      <trkpt lat="48.16055" lon="-3.32312">
        <ele>225.5</ele>
        <time>2024-11-20T11:35:04Z</time>
      </trkpt>
      <trkpt lat="48.16055" lon="-3.32312">
        <ele>225.5</ele>
        <time>2024-11-20T11:35:05Z</time>
      </trkpt>
      <trkpt lat="48.16055" lon="-3.32312">
        <ele>225.5</ele>
        <time>2024-11-20T11:35:06Z</time>
      </trkpt>
      <trkpt lat="48.16055" lon="-3.32312">
        <ele>225.5</ele>
        <time>2024-11-20T11:35:07Z</time>
      </trkpt>
      <trkpt lat="48.16055" lon="-3.32312">
        <ele>225.5</ele>
        <time>2024-11-20T11:35:08Z</time>
      </trkpt>
      <trkpt lat="48.16055" lon="-3.32312">
        <ele>225.5</ele>
        <time>2024-11-20T11:35:09Z</time>
      </trkpt>
      <trkpt lat="48.16055" lon="-3.32312">
        <ele>225.5</ele>
        <time>2024-11-20T11:35:10Z</time>
      </trkpt>
      <trkpt lat="48.16055" lon="-3.32312">
        <ele>225.5</ele>
        <time>2024-11-20T11:35:11Z</time>
      </trkpt>
      <trkpt lat="48.16055" lon="-3.32312">
        <ele>225.5</ele>
        <time>2024-11-20T11:35:12Z</time>
      </trkpt>
      <trkpt lat="48.16055" lon="-3.32312">
        <ele>225.5</ele>
        <time>2024-11-20T11:35:13Z</time>
      </trkpt>
      <trkpt lat="48.16055" lon="-3.32312">
        <ele>225.6</ele>
        <time>2024-11-20T11:35:17Z</time>
      </trkpt>
      <trkpt lat="48.16055" lon="-3.32312">
        <ele>225.6</ele>
        <time>2024-11-20T11:35:18Z</time>
      </trkpt>
      <trkpt lat="48.16055" lon="-3.32311">
        <ele>225.6</ele>
        <time>2024-11-20T11:35:19Z</time>
      </trkpt>
      <trkpt lat="48.16055" lon="-3.32311">
        <ele>225.6</ele>
        <time>2024-11-20T11:35:20Z</time>
      </trkpt>
      <trkpt lat="48.16055" lon="-3.32311">
        <ele>225.6</ele>
        <time>2024-11-20T11:35:21Z</time>
      </trkpt>
      <trkpt lat="48.16055" lon="-3.32311">
        <ele>225.6</ele>
        <time>2024-11-20T11:35:22Z</time>
      </trkpt>
      <trkpt lat="48.16055" lon="-3.32311">
        <ele>225.6</ele>
        <time>2024-11-20T11:35:23Z</time>
      </trkpt>
      <trkpt lat="48.16055" lon="-3.32311">
        <ele>225.6</ele>
        <time>2024-11-20T11:35:24Z</time>
      </trkpt>
      <trkpt lat="48.16055" lon="-3.32311">
        <ele>225.6</ele>
        <time>2024-11-20T11:35:25Z</time>
      </trkpt>
      <trkpt lat="48.16055" lon="-3.32311">
        <ele>225.6</ele>
        <time>2024-11-20T11:35:26Z</time>
      </trkpt>
      <trkpt lat="48.16055" lon="-3.3231">
        <ele>225.7</ele>
        <time>2024-11-20T11:35:27Z</time>
      </trkpt>
      <trkpt lat="48.16055" lon="-3.3231">
        <ele>225.7</ele>
        <time>2024-11-20T11:35:28Z</time>
      </trkpt>
      <trkpt lat="48.16055" lon="-3.3231">
        <ele>225.7</ele>
        <time>2024-11-20T11:35:29Z</time>
      </trkpt>
      <trkpt lat="48.16055" lon="-3.3231">
        <ele>225.7</ele>
        <time>2024-11-20T11:35:30Z</time>
      </trkpt>
      <trkpt lat="48.16055" lon="-3.3231">
        <ele>225.7</ele>
        <time>2024-11-20T11:35:31Z</time>
      </trkpt>
      <trkpt lat="48.16055" lon="-3.3231">
        <ele>225.7</ele>
        <time>2024-11-20T11:35:32Z</time>
      </trkpt>
      <trkpt lat="48.16055" lon="-3.3231">
        <ele>225.7</ele>
        <time>2024-11-20T11:35:33Z</time>
      </trkpt>
      <trkpt lat="48.16055" lon="-3.3231">
        <ele>225.7</ele>
        <time>2024-11-20T11:35:34Z</time>
      </trkpt>
      <trkpt lat="48.16055" lon="-3.3231">
        <ele>225.7</ele>
        <time>2024-11-20T11:35:35Z</time>
      </trkpt>
      <trkpt lat="48.16055" lon="-3.3231">
        <ele>225.7</ele>
        <time>2024-11-20T11:35:36Z</time>
      </trkpt>
      <trkpt lat="48.16055" lon="-3.3231">
        <ele>225.7</ele>
        <time>2024-11-20T11:35:37Z</time>
      </trkpt>
      <trkpt lat="48.16055" lon="-3.3231">
        <ele>225.7</ele>
        <time>2024-11-20T11:35:38Z</time>
      </trkpt>
      <trkpt lat="48.16055" lon="-3.3231">
        <ele>225.7</ele>
        <time>2024-11-20T11:35:39Z</time>
      </trkpt>
      <trkpt lat="48.16055" lon="-3.3231">
        <ele>225.7</ele>
        <time>2024-11-20T11:35:40Z</time>
      </trkpt>
      <trkpt lat="48.16055" lon="-3.3231">
        <ele>225.7</ele>
        <time>2024-11-20T11:35:41Z</time>
      </trkpt>
      <trkpt lat="48.16055" lon="-3.3231">
        <ele>225.7</ele>
        <time>2024-11-20T11:35:42Z</time>
      </trkpt>
      <trkpt lat="48.16055" lon="-3.3231">
        <ele>225.7</ele>
        <time>2024-11-20T11:35:43Z</time>
      </trkpt>
      <trkpt lat="48.16055" lon="-3.3231">
        <ele>225.7</ele>
        <time>2024-11-20T11:35:44Z</time>
      </trkpt>
      <trkpt lat="48.16055" lon="-3.3231">
        <ele>225.7</ele>
        <time>2024-11-20T11:35:45Z</time>
      </trkpt>
      <trkpt lat="48.16055" lon="-3.3231">
        <ele>225.7</ele>
        <time>2024-11-20T11:35:46Z</time>
      </trkpt>
      <trkpt lat="48.16055" lon="-3.3231">
        <ele>225.7</ele>
        <time>2024-11-20T11:35:47Z</time>
      </trkpt>
      <trkpt lat="48.16055" lon="-3.3231">
        <ele>225.7</ele>
        <time>2024-11-20T11:35:48Z</time>
      </trkpt>
      <trkpt lat="48.16055" lon="-3.3231">
        <ele>225.7</ele>
        <time>2024-11-20T11:35:49Z</time>
      </trkpt>
      <trkpt lat="48.16055" lon="-3.3231">
        <ele>225.7</ele>
        <time>2024-11-20T11:35:50Z</time>
      </trkpt>
      <trkpt lat="48.16055" lon="-3.3231">
        <ele>225.7</ele>
        <time>2024-11-20T11:35:51Z</time>
      </trkpt>
      <trkpt lat="48.16055" lon="-3.3231">
        <ele>225.7</ele>
        <time>2024-11-20T11:35:52Z</time>
      </trkpt>
      <trkpt lat="48.16055" lon="-3.3231">
        <ele>225.7</ele>
        <time>2024-11-20T11:35:53Z</time>
      </trkpt>
      <trkpt lat="48.16055" lon="-3.32309">
        <ele>225.7</ele>
        <time>2024-11-20T11:35:54Z</time>
      </trkpt>
      <trkpt lat="48.16055" lon="-3.32308">
        <ele>225.8</ele>
        <time>2024-11-20T11:35:55Z</time>
      </trkpt>
      <trkpt lat="48.16055" lon="-3.32308">
        <ele>225.8</ele>
        <time>2024-11-20T11:35:56Z</time>
      </trkpt>
      <trkpt lat="48.16055" lon="-3.32308">
        <ele>225.8</ele>
        <time>2024-11-20T11:35:57Z</time>
      </trkpt>
      <trkpt lat="48.16055" lon="-3.32309">
        <ele>225.8</ele>
        <time>2024-11-20T11:35:58Z</time>
      </trkpt>
      <trkpt lat="48.16055" lon="-3.3231">
        <ele>225.7</ele>
        <time>2024-11-20T11:35:59Z</time>
      </trkpt>
      <trkpt lat="48.16055" lon="-3.3231">
        <ele>225.7</ele>
        <time>2024-11-20T11:36:00Z</time>
      </trkpt>
      <trkpt lat="48.16056" lon="-3.32311">
        <ele>225.6</ele>
        <time>2024-11-20T11:36:01Z</time>
      </trkpt>
      <trkpt lat="48.16056" lon="-3.32312">
        <ele>225.5</ele>
        <time>2024-11-20T11:36:02Z</time>
      </trkpt>
      <trkpt lat="48.16056" lon="-3.32312">
        <ele>225.5</ele>
        <time>2024-11-20T11:36:03Z</time>
      </trkpt>
      <trkpt lat="48.16056" lon="-3.32312">
        <ele>225.5</ele>
        <time>2024-11-20T11:36:04Z</time>
      </trkpt>
      <trkpt lat="48.16056" lon="-3.32312">
        <ele>225.5</ele>
        <time>2024-11-20T11:36:05Z</time>
      </trkpt>
      <trkpt lat="48.16056" lon="-3.32312">
        <ele>225.5</ele>
        <time>2024-11-20T11:36:06Z</time>
      </trkpt>
      <trkpt lat="48.16056" lon="-3.32312">
        <ele>225.5</ele>
        <time>2024-11-20T11:36:07Z</time>
      </trkpt>
      <trkpt lat="48.16056" lon="-3.32312">
        <ele>225.5</ele>
        <time>2024-11-20T11:36:08Z</time>
      </trkpt>
      <trkpt lat="48.16056" lon="-3.32312">
        <ele>225.6</ele>
        <time>2024-11-20T11:36:09Z</time>
      </trkpt>
      <trkpt lat="48.16056" lon="-3.32312">
        <ele>225.6</ele>
        <time>2024-11-20T11:36:10Z</time>
      </trkpt>
      <trkpt lat="48.16056" lon="-3.32312">
        <ele>225.6</ele>
        <time>2024-11-20T11:36:11Z</time>
      </trkpt>
      <trkpt lat="48.16056" lon="-3.32312">
        <ele>225.6</ele>
        <time>2024-11-20T11:36:12Z</time>
      </trkpt>
      <trkpt lat="48.16056" lon="-3.32312">
        <ele>225.5</ele>
        <time>2024-11-20T11:36:13Z</time>
      </trkpt>
      <trkpt lat="48.16056" lon="-3.32311">
        <ele>225.6</ele>
        <time>2024-11-20T11:36:14Z</time>
      </trkpt>
      <trkpt lat="48.16055" lon="-3.3231">
        <ele>225.7</ele>
        <time>2024-11-20T11:36:15Z</time>
      </trkpt>
      <trkpt lat="48.16055" lon="-3.3231">
        <ele>225.7</ele>
        <time>2024-11-20T11:36:16Z</time>
      </trkpt>
      <trkpt lat="48.16054" lon="-3.32309">
        <ele>225.7</ele>
        <time>2024-11-20T11:36:17Z</time>
      </trkpt>
      <trkpt lat="48.16054" lon="-3.32309">
        <ele>225.8</ele>
        <time>2024-11-20T11:36:18Z</time>
      </trkpt>
      <trkpt lat="48.16053" lon="-3.32309">
        <ele>225.8</ele>
        <time>2024-11-20T11:36:19Z</time>
      </trkpt>
      <trkpt lat="48.16053" lon="-3.32308">
        <ele>225.8</ele>
        <time>2024-11-20T11:36:20Z</time>
      </trkpt>
      <trkpt lat="48.16053" lon="-3.32309">
        <ele>225.8</ele>
        <time>2024-11-20T11:36:21Z</time>
      </trkpt>
      <trkpt lat="48.16053" lon="-3.32309">
        <ele>225.7</ele>
        <time>2024-11-20T11:36:22Z</time>
      </trkpt>
      <trkpt lat="48.16053" lon="-3.32309">
        <ele>225.7</ele>
        <time>2024-11-20T11:36:23Z</time>
      </trkpt>
      <trkpt lat="48.16053" lon="-3.32309">
        <ele>225.7</ele>
        <time>2024-11-20T11:36:24Z</time>
      </trkpt>
      <trkpt lat="48.16054" lon="-3.32309">
        <ele>225.7</ele>
        <time>2024-11-20T11:36:26Z</time>
      </trkpt>
      <trkpt lat="48.16055" lon="-3.32309">
        <ele>225.7</ele>
        <time>2024-11-20T11:36:27Z</time>
      </trkpt>
      <trkpt lat="48.16056" lon="-3.3231">
        <ele>225.7</ele>
        <time>2024-11-20T11:36:28Z</time>
      </trkpt>
      <trkpt lat="48.16056" lon="-3.3231">
        <ele>225.6</ele>
        <time>2024-11-20T11:36:29Z</time>
      </trkpt>
      <trkpt lat="48.16057" lon="-3.32311">
        <ele>225.6</ele>
        <time>2024-11-20T11:36:30Z</time>
      </trkpt>
      <trkpt lat="48.16057" lon="-3.32311">
        <ele>225.6</ele>
        <time>2024-11-20T11:36:31Z</time>
      </trkpt>
      <trkpt lat="48.16057" lon="-3.32311">
        <ele>225.6</ele>
        <time>2024-11-20T11:36:32Z</time>
      </trkpt>
      <trkpt lat="48.16057" lon="-3.3231">
        <ele>225.6</ele>
        <time>2024-11-20T11:36:33Z</time>
      </trkpt>
      <trkpt lat="48.16057" lon="-3.3231">
        <ele>225.6</ele>
        <time>2024-11-20T11:36:34Z</time>
      </trkpt>
      <trkpt lat="48.16057" lon="-3.3231">
        <ele>225.6</ele>
        <time>2024-11-20T11:36:35Z</time>
      </trkpt>
      <trkpt lat="48.16057" lon="-3.3231">
        <ele>225.6</ele>
        <time>2024-11-20T11:36:36Z</time>
      </trkpt>
      <trkpt lat="48.16057" lon="-3.3231">
        <ele>225.6</ele>
        <time>2024-11-20T11:36:37Z</time>
      </trkpt>
      <trkpt lat="48.16057" lon="-3.3231">
        <ele>225.6</ele>
        <time>2024-11-20T11:36:38Z</time>
      </trkpt>
      <trkpt lat="48.16057" lon="-3.3231">
        <ele>225.6</ele>
        <time>2024-11-20T11:36:39Z</time>
      </trkpt>
      <trkpt lat="48.16057" lon="-3.3231">
        <ele>225.6</ele>
        <time>2024-11-20T11:36:40Z</time>
      </trkpt>
      <trkpt lat="48.16057" lon="-3.3231">
        <ele>225.6</ele>
        <time>2024-11-20T11:36:41Z</time>
      </trkpt>
      <trkpt lat="48.16057" lon="-3.3231">
        <ele>225.6</ele>
        <time>2024-11-20T11:36:42Z</time>
      </trkpt>
      <trkpt lat="48.16057" lon="-3.3231">
        <ele>225.6</ele>
        <time>2024-11-20T11:36:43Z</time>
      </trkpt>
      <trkpt lat="48.16057" lon="-3.3231">
        <ele>225.6</ele>
        <time>2024-11-20T11:36:45Z</time>
      </trkpt>
      <trkpt lat="48.16057" lon="-3.3231">
        <ele>225.6</ele>
        <time>2024-11-20T11:36:46Z</time>
      </trkpt>
      <trkpt lat="48.16057" lon="-3.3231">
        <ele>225.6</ele>
        <time>2024-11-20T11:36:47Z</time>
      </trkpt>
      <trkpt lat="48.16057" lon="-3.3231">
        <ele>225.6</ele>
        <time>2024-11-20T11:36:48Z</time>
      </trkpt>
      <trkpt lat="48.16057" lon="-3.3231">
        <ele>225.6</ele>
        <time>2024-11-20T11:36:49Z</time>
      </trkpt>
      <trkpt lat="48.16057" lon="-3.3231">
        <ele>225.6</ele>
        <time>2024-11-20T11:36:50Z</time>
      </trkpt>
      <trkpt lat="48.16057" lon="-3.3231">
        <ele>225.6</ele>
        <time>2024-11-20T11:36:51Z</time>
      </trkpt>
      <trkpt lat="48.16057" lon="-3.3231">
        <ele>225.6</ele>
        <time>2024-11-20T11:36:52Z</time>
      </trkpt>
      <trkpt lat="48.16057" lon="-3.3231">
        <ele>225.6</ele>
        <time>2024-11-20T11:36:53Z</time>
      </trkpt>
      <trkpt lat="48.16057" lon="-3.3231">
        <ele>225.6</ele>
        <time>2024-11-20T11:36:54Z</time>
      </trkpt>
      <trkpt lat="48.16057" lon="-3.3231">
        <ele>225.6</ele>
        <time>2024-11-20T11:36:55Z</time>
      </trkpt>
      <trkpt lat="48.16057" lon="-3.3231">
        <ele>225.6</ele>
        <time>2024-11-20T11:36:56Z</time>
      </trkpt>
      <trkpt lat="48.16057" lon="-3.3231">
        <ele>225.6</ele>
        <time>2024-11-20T11:36:57Z</time>
      </trkpt>
      <trkpt lat="48.16057" lon="-3.3231">
        <ele>225.6</ele>
        <time>2024-11-20T11:36:58Z</time>
      </trkpt>
      <trkpt lat="48.16057" lon="-3.3231">
        <ele>225.6</ele>
        <time>2024-11-20T11:36:59Z</time>
      </trkpt>
      <trkpt lat="48.16056" lon="-3.3231">
        <ele>225.6</ele>
        <time>2024-11-20T11:37:00Z</time>
      </trkpt>
      <trkpt lat="48.16056" lon="-3.3231">
        <ele>225.6</ele>
        <time>2024-11-20T11:37:01Z</time>
      </trkpt>
      <trkpt lat="48.16056" lon="-3.3231">
        <ele>225.7</ele>
        <time>2024-11-20T11:37:02Z</time>
      </trkpt>
      <trkpt lat="48.16056" lon="-3.3231">
        <ele>225.7</ele>
        <time>2024-11-20T11:37:03Z</time>
      </trkpt>
      <trkpt lat="48.16055" lon="-3.3231">
        <ele>225.7</ele>
        <time>2024-11-20T11:37:04Z</time>
      </trkpt>
      <trkpt lat="48.16055" lon="-3.32309">
        <ele>225.7</ele>
        <time>2024-11-20T11:37:05Z</time>
      </trkpt>
      <trkpt lat="48.16055" lon="-3.32309">
        <ele>225.7</ele>
        <time>2024-11-20T11:37:06Z</time>
      </trkpt>
      <trkpt lat="48.16055" lon="-3.32309">
        <ele>225.7</ele>
        <time>2024-11-20T11:37:07Z</time>
      </trkpt>
      <trkpt lat="48.16055" lon="-3.32309">
        <ele>225.8</ele>
        <time>2024-11-20T11:37:08Z</time>
      </trkpt>
      <trkpt lat="48.16054" lon="-3.32309">
        <ele>225.8</ele>
        <time>2024-11-20T11:37:09Z</time>
      </trkpt>
      <trkpt lat="48.16054" lon="-3.32309">
        <ele>225.8</ele>
        <time>2024-11-20T11:37:10Z</time>
      </trkpt>
      <trkpt lat="48.16054" lon="-3.32309">
        <ele>225.8</ele>
        <time>2024-11-20T11:37:11Z</time>
      </trkpt>
      <trkpt lat="48.16054" lon="-3.32308">
        <ele>225.8</ele>
        <time>2024-11-20T11:37:12Z</time>
      </trkpt>
      <trkpt lat="48.16054" lon="-3.32308">
        <ele>225.8</ele>
        <time>2024-11-20T11:37:13Z</time>
      </trkpt>
      <trkpt lat="48.16054" lon="-3.32308">
        <ele>225.8</ele>
        <time>2024-11-20T11:37:14Z</time>
      </trkpt>
      <trkpt lat="48.16054" lon="-3.32308">
        <ele>225.8</ele>
        <time>2024-11-20T11:37:15Z</time>
      </trkpt>
      <trkpt lat="48.16054" lon="-3.32308">
        <ele>225.8</ele>
        <time>2024-11-20T11:37:16Z</time>
      </trkpt>
      <trkpt lat="48.16054" lon="-3.32308">
        <ele>225.8</ele>
        <time>2024-11-20T11:37:17Z</time>
      </trkpt>
      <trkpt lat="48.16054" lon="-3.32308">
        <ele>225.8</ele>
        <time>2024-11-20T11:37:18Z</time>
      </trkpt>
      <trkpt lat="48.16054" lon="-3.32308">
        <ele>225.8</ele>
        <time>2024-11-20T11:37:19Z</time>
      </trkpt>
      <trkpt lat="48.16054" lon="-3.32308">
        <ele>225.8</ele>
        <time>2024-11-20T11:37:20Z</time>
      </trkpt>
      <trkpt lat="48.16054" lon="-3.32308">
        <ele>225.8</ele>
        <time>2024-11-20T11:37:21Z</time>
      </trkpt>
      <trkpt lat="48.16054" lon="-3.32308">
        <ele>225.9</ele>
        <time>2024-11-20T11:37:22Z</time>
      </trkpt>
      <trkpt lat="48.16054" lon="-3.32308">
        <ele>225.8</ele>
        <time>2024-11-20T11:37:23Z</time>
      </trkpt>
      <trkpt lat="48.16054" lon="-3.32308">
        <ele>225.8</ele>
        <time>2024-11-20T11:37:24Z</time>
      </trkpt>
      <trkpt lat="48.16055" lon="-3.32308">
        <ele>225.8</ele>
        <time>2024-11-20T11:37:25Z</time>
      </trkpt>
      <trkpt lat="48.16055" lon="-3.32308">
        <ele>225.8</ele>
        <time>2024-11-20T11:37:26Z</time>
      </trkpt>
      <trkpt lat="48.16055" lon="-3.32308">
        <ele>225.8</ele>
        <time>2024-11-20T11:37:27Z</time>
      </trkpt>
      <trkpt lat="48.16055" lon="-3.32308">
        <ele>225.8</ele>
        <time>2024-11-20T11:37:28Z</time>
      </trkpt>
      <trkpt lat="48.16055" lon="-3.32308">
        <ele>225.8</ele>
        <time>2024-11-20T11:37:29Z</time>
      </trkpt>
      <trkpt lat="48.16055" lon="-3.32308">
        <ele>225.8</ele>
        <time>2024-11-20T11:37:30Z</time>
      </trkpt>
      <trkpt lat="48.16055" lon="-3.32308">
        <ele>225.8</ele>
        <time>2024-11-20T11:37:31Z</time>
      </trkpt>
      <trkpt lat="48.16055" lon="-3.32308">
        <ele>225.8</ele>
        <time>2024-11-20T11:37:32Z</time>
      </trkpt>
      <trkpt lat="48.16056" lon="-3.32308">
        <ele>225.8</ele>
        <time>2024-11-20T11:37:33Z</time>
      </trkpt>
      <trkpt lat="48.16056" lon="-3.32308">
        <ele>225.8</ele>
        <time>2024-11-20T11:37:34Z</time>
      </trkpt>
      <trkpt lat="48.16056" lon="-3.32308">
        <ele>225.8</ele>
        <time>2024-11-20T11:37:35Z</time>
      </trkpt>
      <trkpt lat="48.16056" lon="-3.32308">
        <ele>225.8</ele>
        <time>2024-11-20T11:37:36Z</time>
      </trkpt>
      <trkpt lat="48.16056" lon="-3.32308">
        <ele>225.8</ele>
        <time>2024-11-20T11:37:37Z</time>
      </trkpt>
      <trkpt lat="48.16056" lon="-3.32308">
        <ele>225.8</ele>
        <time>2024-11-20T11:37:38Z</time>
      </trkpt>
      <trkpt lat="48.16056" lon="-3.32308">
        <ele>225.8</ele>
        <time>2024-11-20T11:37:39Z</time>
      </trkpt>
      <trkpt lat="48.16056" lon="-3.32308">
        <ele>225.8</ele>
        <time>2024-11-20T11:37:40Z</time>
      </trkpt>
      <trkpt lat="48.16056" lon="-3.32308">
        <ele>225.8</ele>
        <time>2024-11-20T11:37:41Z</time>
      </trkpt>
      <trkpt lat="48.16056" lon="-3.32308">
        <ele>225.8</ele>
        <time>2024-11-20T11:37:42Z</time>
      </trkpt>
      <trkpt lat="48.16056" lon="-3.32308">
        <ele>225.8</ele>
        <time>2024-11-20T11:37:43Z</time>
      </trkpt>
      <trkpt lat="48.16056" lon="-3.32308">
        <ele>225.8</ele>
        <time>2024-11-20T11:37:44Z</time>
      </trkpt>
      <trkpt lat="48.16057" lon="-3.32308">
        <ele>225.8</ele>
        <time>2024-11-20T11:37:45Z</time>
      </trkpt>
      <trkpt lat="48.16057" lon="-3.32308">
        <ele>225.8</ele>
        <time>2024-11-20T11:37:46Z</time>
      </trkpt>
      <trkpt lat="48.16057" lon="-3.32307">
        <ele>225.8</ele>
        <time>2024-11-20T11:37:47Z</time>
      </trkpt>
      <trkpt lat="48.16057" lon="-3.32307">
        <ele>225.8</ele>
        <time>2024-11-20T11:37:48Z</time>
      </trkpt>
      <trkpt lat="48.16057" lon="-3.32307">
        <ele>225.9</ele>
        <time>2024-11-20T11:37:49Z</time>
      </trkpt>
      <trkpt lat="48.16057" lon="-3.32307">
        <ele>225.8</ele>
        <time>2024-11-20T11:37:50Z</time>
      </trkpt>
      <trkpt lat="48.16057" lon="-3.32307">
        <ele>225.9</ele>
        <time>2024-11-20T11:37:51Z</time>
      </trkpt>
      <trkpt lat="48.16057" lon="-3.32307">
        <ele>225.8</ele>
        <time>2024-11-20T11:37:52Z</time>
      </trkpt>
      <trkpt lat="48.16057" lon="-3.32307">
        <ele>225.8</ele>
        <time>2024-11-20T11:37:53Z</time>
      </trkpt>
      <trkpt lat="48.16057" lon="-3.32307">
        <ele>225.8</ele>
        <time>2024-11-20T11:37:54Z</time>
      </trkpt>
      <trkpt lat="48.16057" lon="-3.32307">
        <ele>225.8</ele>
        <time>2024-11-20T11:37:55Z</time>
      </trkpt>
      <trkpt lat="48.16057" lon="-3.32307">
        <ele>225.8</ele>
        <time>2024-11-20T11:37:56Z</time>
      </trkpt>
      <trkpt lat="48.16057" lon="-3.32307">
        <ele>225.9</ele>
        <time>2024-11-20T11:37:57Z</time>
      </trkpt>
      <trkpt lat="48.16057" lon="-3.32307">
        <ele>225.9</ele>
        <time>2024-11-20T11:37:58Z</time>
      </trkpt>
      <trkpt lat="48.16057" lon="-3.32307">
        <ele>225.9</ele>
        <time>2024-11-20T11:37:59Z</time>
      </trkpt>
      <trkpt lat="48.16057" lon="-3.32307">
        <ele>225.9</ele>
        <time>2024-11-20T11:38:00Z</time>
      </trkpt>
      <trkpt lat="48.16057" lon="-3.32307">
        <ele>225.9</ele>
        <time>2024-11-20T11:38:01Z</time>
      </trkpt>
      <trkpt lat="48.16057" lon="-3.32307">
        <ele>225.9</ele>
        <time>2024-11-20T11:38:02Z</time>
      </trkpt>
      <trkpt lat="48.16056" lon="-3.32307">
        <ele>225.9</ele>
        <time>2024-11-20T11:38:03Z</time>
      </trkpt>
      <trkpt lat="48.16056" lon="-3.32307">
        <ele>225.9</ele>
        <time>2024-11-20T11:38:04Z</time>
      </trkpt>
      <trkpt lat="48.16056" lon="-3.32307">
        <ele>225.9</ele>
        <time>2024-11-20T11:38:05Z</time>
      </trkpt>
      <trkpt lat="48.16056" lon="-3.32307">
        <ele>225.9</ele>
        <time>2024-11-20T11:38:06Z</time>
      </trkpt>
      <trkpt lat="48.16056" lon="-3.32307">
        <ele>225.9</ele>
        <time>2024-11-20T11:38:07Z</time>
      </trkpt>
      <trkpt lat="48.16056" lon="-3.32307">
        <ele>225.9</ele>
        <time>2024-11-20T11:38:08Z</time>
      </trkpt>
      <trkpt lat="48.16056" lon="-3.32307">
        <ele>225.9</ele>
        <time>2024-11-20T11:38:09Z</time>
      </trkpt>
      <trkpt lat="48.16056" lon="-3.32307">
        <ele>225.9</ele>
        <time>2024-11-20T11:38:10Z</time>
      </trkpt>
      <trkpt lat="48.16056" lon="-3.32307">
        <ele>225.9</ele>
        <time>2024-11-20T11:38:11Z</time>
      </trkpt>
      <trkpt lat="48.16056" lon="-3.32307">
        <ele>225.9</ele>
        <time>2024-11-20T11:38:12Z</time>
      </trkpt>
      <trkpt lat="48.16056" lon="-3.32307">
        <ele>225.9</ele>
        <time>2024-11-20T11:38:13Z</time>
      </trkpt>
      <trkpt lat="48.16056" lon="-3.32307">
        <ele>225.9</ele>
        <time>2024-11-20T11:38:14Z</time>
      </trkpt>
      <trkpt lat="48.16056" lon="-3.32307">
        <ele>225.9</ele>
        <time>2024-11-20T11:38:15Z</time>
      </trkpt>
      <trkpt lat="48.16056" lon="-3.32307">
        <ele>225.9</ele>
        <time>2024-11-20T11:38:16Z</time>
      </trkpt>
      <trkpt lat="48.16056" lon="-3.32307">
        <ele>225.9</ele>
        <time>2024-11-20T11:38:17Z</time>
      </trkpt>
      <trkpt lat="48.16056" lon="-3.32307">
        <ele>225.9</ele>
        <time>2024-11-20T11:38:18Z</time>
      </trkpt>
      <trkpt lat="48.16056" lon="-3.32307">
        <ele>225.9</ele>
        <time>2024-11-20T11:38:19Z</time>
      </trkpt>
      <trkpt lat="48.16056" lon="-3.32307">
        <ele>225.9</ele>
        <time>2024-11-20T11:38:20Z</time>
      </trkpt>
      <trkpt lat="48.16056" lon="-3.32307">
        <ele>225.9</ele>
        <time>2024-11-20T11:38:21Z</time>
      </trkpt>
      <trkpt lat="48.16056" lon="-3.32307">
        <ele>225.9</ele>
        <time>2024-11-20T11:38:22Z</time>
      </trkpt>
      <trkpt lat="48.16056" lon="-3.32307">
        <ele>225.9</ele>
        <time>2024-11-20T11:38:23Z</time>
      </trkpt>
      <trkpt lat="48.16056" lon="-3.32307">
        <ele>225.9</ele>
        <time>2024-11-20T11:38:24Z</time>
      </trkpt>
      <trkpt lat="48.16056" lon="-3.32307">
        <ele>225.9</ele>
        <time>2024-11-20T11:38:25Z</time>
      </trkpt>
      <trkpt lat="48.16056" lon="-3.32307">
        <ele>225.9</ele>
        <time>2024-11-20T11:38:26Z</time>
      </trkpt>
      <trkpt lat="48.16056" lon="-3.32307">
        <ele>225.9</ele>
        <time>2024-11-20T11:38:27Z</time>
      </trkpt>
      <trkpt lat="48.16056" lon="-3.32307">
        <ele>225.9</ele>
        <time>2024-11-20T11:38:28Z</time>
      </trkpt>
      <trkpt lat="48.16056" lon="-3.32307">
        <ele>225.9</ele>
        <time>2024-11-20T11:38:29Z</time>
      </trkpt>
      <trkpt lat="48.16056" lon="-3.32307">
        <ele>225.9</ele>
        <time>2024-11-20T11:38:30Z</time>
      </trkpt>
      <trkpt lat="48.16056" lon="-3.32307">
        <ele>225.9</ele>
        <time>2024-11-20T11:38:31Z</time>
      </trkpt>
      <trkpt lat="48.16056" lon="-3.32307">
        <ele>225.9</ele>
        <time>2024-11-20T11:38:32Z</time>
      </trkpt>
      <trkpt lat="48.16057" lon="-3.32307">
        <ele>225.9</ele>
        <time>2024-11-20T11:38:33Z</time>
      </trkpt>
      <trkpt lat="48.16057" lon="-3.32307">
        <ele>225.8</ele>
        <time>2024-11-20T11:38:34Z</time>
      </trkpt>
      <trkpt lat="48.16057" lon="-3.32307">
        <ele>225.8</ele>
        <time>2024-11-20T11:38:35Z</time>
      </trkpt>
      <trkpt lat="48.16057" lon="-3.32307">
        <ele>225.8</ele>
        <time>2024-11-20T11:38:36Z</time>
      </trkpt>
      <trkpt lat="48.16057" lon="-3.32307">
        <ele>225.8</ele>
        <time>2024-11-20T11:38:37Z</time>
      </trkpt>
      <trkpt lat="48.16057" lon="-3.32307">
        <ele>225.8</ele>
        <time>2024-11-20T11:38:38Z</time>
      </trkpt>
      <trkpt lat="48.16057" lon="-3.32307">
        <ele>225.8</ele>
        <time>2024-11-20T11:38:39Z</time>
      </trkpt>
      <trkpt lat="48.16057" lon="-3.32308">
        <ele>225.8</ele>
        <time>2024-11-20T11:38:40Z</time>
      </trkpt>
      <trkpt lat="48.16057" lon="-3.32308">
        <ele>225.8</ele>
        <time>2024-11-20T11:38:41Z</time>
      </trkpt>
      <trkpt lat="48.16057" lon="-3.32308">
        <ele>225.8</ele>
        <time>2024-11-20T11:38:42Z</time>
      </trkpt>
      <trkpt lat="48.16057" lon="-3.32308">
        <ele>225.8</ele>
        <time>2024-11-20T11:38:43Z</time>
      </trkpt>
      <trkpt lat="48.16058" lon="-3.32308">
        <ele>225.8</ele>
        <time>2024-11-20T11:38:44Z</time>
      </trkpt>
      <trkpt lat="48.16058" lon="-3.32308">
        <ele>225.8</ele>
        <time>2024-11-20T11:38:45Z</time>
      </trkpt>
      <trkpt lat="48.16058" lon="-3.32308">
        <ele>225.8</ele>
        <time>2024-11-20T11:38:46Z</time>
      </trkpt>
      <trkpt lat="48.16058" lon="-3.32308">
        <ele>225.8</ele>
        <time>2024-11-20T11:38:47Z</time>
      </trkpt>
      <trkpt lat="48.16058" lon="-3.32308">
        <ele>225.8</ele>
        <time>2024-11-20T11:38:48Z</time>
      </trkpt>
      <trkpt lat="48.16058" lon="-3.32308">
        <ele>225.8</ele>
        <time>2024-11-20T11:38:49Z</time>
      </trkpt>
      <trkpt lat="48.16058" lon="-3.32308">
        <ele>225.8</ele>
        <time>2024-11-20T11:38:50Z</time>
      </trkpt>
      <trkpt lat="48.16058" lon="-3.32308">
        <ele>225.7</ele>
        <time>2024-11-20T11:38:51Z</time>
      </trkpt>
      <trkpt lat="48.16058" lon="-3.32308">
        <ele>225.7</ele>
        <time>2024-11-20T11:38:52Z</time>
      </trkpt>
      <trkpt lat="48.16058" lon="-3.32308">
        <ele>225.7</ele>
        <time>2024-11-20T11:38:53Z</time>
      </trkpt>
      <trkpt lat="48.16058" lon="-3.32309">
        <ele>225.7</ele>
        <time>2024-11-20T11:38:54Z</time>
      </trkpt>
      <trkpt lat="48.16058" lon="-3.32309">
        <ele>225.7</ele>
        <time>2024-11-20T11:38:55Z</time>
      </trkpt>
      <trkpt lat="48.16059" lon="-3.32309">
        <ele>225.6</ele>
        <time>2024-11-20T11:38:56Z</time>
      </trkpt>
      <trkpt lat="48.16059" lon="-3.32309">
        <ele>225.6</ele>
        <time>2024-11-20T11:38:57Z</time>
      </trkpt>
      <trkpt lat="48.16059" lon="-3.32309">
        <ele>225.6</ele>
        <time>2024-11-20T11:38:58Z</time>
      </trkpt>
      <trkpt lat="48.16059" lon="-3.3231">
        <ele>225.6</ele>
        <time>2024-11-20T11:38:59Z</time>
      </trkpt>
      <trkpt lat="48.16058" lon="-3.3231">
        <ele>225.6</ele>
        <time>2024-11-20T11:39:00Z</time>
      </trkpt>
      <trkpt lat="48.16058" lon="-3.3231">
        <ele>225.6</ele>
        <time>2024-11-20T11:39:01Z</time>
      </trkpt>
      <trkpt lat="48.16058" lon="-3.3231">
        <ele>225.6</ele>
        <time>2024-11-20T11:39:02Z</time>
      </trkpt>
      <trkpt lat="48.16058" lon="-3.3231">
        <ele>225.6</ele>
        <time>2024-11-20T11:39:03Z</time>
      </trkpt>
      <trkpt lat="48.16058" lon="-3.32311">
        <ele>225.5</ele>
        <time>2024-11-20T11:39:04Z</time>
      </trkpt>
      <trkpt lat="48.16058" lon="-3.32311">
        <ele>225.5</ele>
        <time>2024-11-20T11:39:05Z</time>
      </trkpt>
      <trkpt lat="48.16058" lon="-3.32311">
        <ele>225.5</ele>
        <time>2024-11-20T11:39:06Z</time>
      </trkpt>
      <trkpt lat="48.16058" lon="-3.32311">
        <ele>225.5</ele>
        <time>2024-11-20T11:39:07Z</time>
      </trkpt>
      <trkpt lat="48.16058" lon="-3.32311">
        <ele>225.5</ele>
        <time>2024-11-20T11:39:08Z</time>
      </trkpt>
      <trkpt lat="48.16058" lon="-3.32311">
        <ele>225.5</ele>
        <time>2024-11-20T11:39:09Z</time>
      </trkpt>
      <trkpt lat="48.16058" lon="-3.32311">
        <ele>225.5</ele>
        <time>2024-11-20T11:39:10Z</time>
      </trkpt>
      <trkpt lat="48.16058" lon="-3.32311">
        <ele>225.5</ele>
        <time>2024-11-20T11:39:11Z</time>
      </trkpt>
      <trkpt lat="48.16058" lon="-3.32311">
        <ele>225.5</ele>
        <time>2024-11-20T11:39:12Z</time>
      </trkpt>
      <trkpt lat="48.16059" lon="-3.32311">
        <ele>225.5</ele>
        <time>2024-11-20T11:39:13Z</time>
      </trkpt>
      <trkpt lat="48.16058" lon="-3.32311">
        <ele>225.5</ele>
        <time>2024-11-20T11:39:14Z</time>
      </trkpt>
      <trkpt lat="48.16058" lon="-3.32312">
        <ele>225.5</ele>
        <time>2024-11-20T11:39:15Z</time>
      </trkpt>
      <trkpt lat="48.16058" lon="-3.32312">
        <ele>225.5</ele>
        <time>2024-11-20T11:39:16Z</time>
      </trkpt>
      <trkpt lat="48.16058" lon="-3.32312">
        <ele>225.5</ele>
        <time>2024-11-20T11:39:17Z</time>
      </trkpt>
      <trkpt lat="48.16057" lon="-3.32312">
        <ele>225.5</ele>
        <time>2024-11-20T11:39:18Z</time>
      </trkpt>
      <trkpt lat="48.16057" lon="-3.32312">
        <ele>225.5</ele>
        <time>2024-11-20T11:39:19Z</time>
      </trkpt>
      <trkpt lat="48.16057" lon="-3.32312">
        <ele>225.5</ele>
        <time>2024-11-20T11:39:20Z</time>
      </trkpt>
      <trkpt lat="48.16057" lon="-3.32312">
        <ele>225.5</ele>
        <time>2024-11-20T11:39:21Z</time>
      </trkpt>
      <trkpt lat="48.16056" lon="-3.32312">
        <ele>225.5</ele>
        <time>2024-11-20T11:39:22Z</time>
      </trkpt>
      <trkpt lat="48.16056" lon="-3.32312">
        <ele>225.5</ele>
        <time>2024-11-20T11:39:23Z</time>
      </trkpt>
      <trkpt lat="48.16056" lon="-3.32312">
        <ele>225.6</ele>
        <time>2024-11-20T11:39:24Z</time>
      </trkpt>
      <trkpt lat="48.16056" lon="-3.32312">
        <ele>225.6</ele>
        <time>2024-11-20T11:39:25Z</time>
      </trkpt>
      <trkpt lat="48.16056" lon="-3.32311">
        <ele>225.6</ele>
        <time>2024-11-20T11:39:26Z</time>
      </trkpt>
      <trkpt lat="48.16056" lon="-3.32311">
        <ele>225.6</ele>
        <time>2024-11-20T11:39:27Z</time>
      </trkpt>
      <trkpt lat="48.16056" lon="-3.32311">
        <ele>225.6</ele>
        <time>2024-11-20T11:39:28Z</time>
      </trkpt>
      <trkpt lat="48.16056" lon="-3.32311">
        <ele>225.6</ele>
        <time>2024-11-20T11:39:29Z</time>
      </trkpt>
      <trkpt lat="48.16056" lon="-3.32311">
        <ele>225.6</ele>
        <time>2024-11-20T11:39:30Z</time>
      </trkpt>
      <trkpt lat="48.16056" lon="-3.32311">
        <ele>225.6</ele>
        <time>2024-11-20T11:39:31Z</time>
      </trkpt>
      <trkpt lat="48.16056" lon="-3.32311">
        <ele>225.6</ele>
        <time>2024-11-20T11:39:32Z</time>
      </trkpt>
      <trkpt lat="48.16056" lon="-3.32311">
        <ele>225.6</ele>
        <time>2024-11-20T11:39:33Z</time>
      </trkpt>
      <trkpt lat="48.16056" lon="-3.32311">
        <ele>225.6</ele>
        <time>2024-11-20T11:39:34Z</time>
      </trkpt>
      <trkpt lat="48.16056" lon="-3.32311">
        <ele>225.6</ele>
        <time>2024-11-20T11:39:35Z</time>
      </trkpt>
      <trkpt lat="48.16056" lon="-3.32311">
        <ele>225.6</ele>
        <time>2024-11-20T11:39:36Z</time>
      </trkpt>
      <trkpt lat="48.16056" lon="-3.32311">
        <ele>225.6</ele>
        <time>2024-11-20T11:39:37Z</time>
      </trkpt>
      <trkpt lat="48.16056" lon="-3.32311">
        <ele>225.6</ele>
        <time>2024-11-20T11:39:38Z</time>
      </trkpt>
      <trkpt lat="48.16056" lon="-3.32311">
        <ele>225.6</ele>
        <time>2024-11-20T11:39:39Z</time>
      </trkpt>
      <trkpt lat="48.16056" lon="-3.32311">
        <ele>225.6</ele>
        <time>2024-11-20T11:39:40Z</time>
      </trkpt>
      <trkpt lat="48.16056" lon="-3.32311">
        <ele>225.6</ele>
        <time>2024-11-20T11:39:41Z</time>
      </trkpt>
      <trkpt lat="48.16056" lon="-3.32311">
        <ele>225.6</ele>
        <time>2024-11-20T11:39:42Z</time>
      </trkpt>
      <trkpt lat="48.16056" lon="-3.3231">
        <ele>225.7</ele>
        <time>2024-11-20T11:39:43Z</time>
      </trkpt>
      <trkpt lat="48.16056" lon="-3.3231">
        <ele>225.7</ele>
        <time>2024-11-20T11:39:44Z</time>
      </trkpt>
      <trkpt lat="48.16056" lon="-3.3231">
        <ele>225.7</ele>
        <time>2024-11-20T11:39:45Z</time>
      </trkpt>
      <trkpt lat="48.16056" lon="-3.3231">
        <ele>225.6</ele>
        <time>2024-11-20T11:39:46Z</time>
      </trkpt>
      <trkpt lat="48.16056" lon="-3.3231">
        <ele>225.6</ele>
        <time>2024-11-20T11:39:47Z</time>
      </trkpt>
      <trkpt lat="48.16056" lon="-3.3231">
        <ele>225.6</ele>
        <time>2024-11-20T11:39:48Z</time>
      </trkpt>
      <trkpt lat="48.16056" lon="-3.3231">
        <ele>225.6</ele>
        <time>2024-11-20T11:39:49Z</time>
      </trkpt>
      <trkpt lat="48.16056" lon="-3.3231">
        <ele>225.6</ele>
        <time>2024-11-20T11:39:50Z</time>
      </trkpt>
      <trkpt lat="48.16056" lon="-3.3231">
        <ele>225.7</ele>
        <time>2024-11-20T11:39:51Z</time>
      </trkpt>
      <trkpt lat="48.16056" lon="-3.3231">
        <ele>225.7</ele>
        <time>2024-11-20T11:39:52Z</time>
      </trkpt>
      <trkpt lat="48.16056" lon="-3.3231">
        <ele>225.7</ele>
        <time>2024-11-20T11:39:53Z</time>
      </trkpt>
      <trkpt lat="48.16056" lon="-3.3231">
        <ele>225.7</ele>
        <time>2024-11-20T11:39:54Z</time>
      </trkpt>
      <trkpt lat="48.16056" lon="-3.3231">
        <ele>225.7</ele>
        <time>2024-11-20T11:39:55Z</time>
      </trkpt>
      <trkpt lat="48.16056" lon="-3.3231">
        <ele>225.7</ele>
        <time>2024-11-20T11:39:56Z</time>
      </trkpt>
      <trkpt lat="48.16056" lon="-3.3231">
        <ele>225.7</ele>
        <time>2024-11-20T11:39:57Z</time>
      </trkpt>
      <trkpt lat="48.16056" lon="-3.3231">
        <ele>225.7</ele>
        <time>2024-11-20T11:39:58Z</time>
      </trkpt>
      <trkpt lat="48.16056" lon="-3.3231">
        <ele>225.7</ele>
        <time>2024-11-20T11:39:59Z</time>
      </trkpt>
      <trkpt lat="48.16056" lon="-3.3231">
        <ele>225.7</ele>
        <time>2024-11-20T11:40:00Z</time>
      </trkpt>
      <trkpt lat="48.16056" lon="-3.3231">
        <ele>225.7</ele>
        <time>2024-11-20T11:40:01Z</time>
      </trkpt>
      <trkpt lat="48.16056" lon="-3.3231">
        <ele>225.7</ele>
        <time>2024-11-20T11:40:02Z</time>
      </trkpt>
      <trkpt lat="48.16056" lon="-3.3231">
        <ele>225.7</ele>
        <time>2024-11-20T11:40:03Z</time>
      </trkpt>
      <trkpt lat="48.16056" lon="-3.3231">
        <ele>225.7</ele>
        <time>2024-11-20T11:40:04Z</time>
      </trkpt>
      <trkpt lat="48.16056" lon="-3.3231">
        <ele>225.7</ele>
        <time>2024-11-20T11:40:05Z</time>
      </trkpt>
      <trkpt lat="48.16056" lon="-3.3231">
        <ele>225.7</ele>
        <time>2024-11-20T11:40:06Z</time>
      </trkpt>
      <trkpt lat="48.16056" lon="-3.3231">
        <ele>225.7</ele>
        <time>2024-11-20T11:40:07Z</time>
      </trkpt>
      <trkpt lat="48.16056" lon="-3.3231">
        <ele>225.7</ele>
        <time>2024-11-20T11:40:08Z</time>
      </trkpt>
      <trkpt lat="48.16056" lon="-3.3231">
        <ele>225.7</ele>
        <time>2024-11-20T11:40:09Z</time>
      </trkpt>
      <trkpt lat="48.16056" lon="-3.3231">
        <ele>225.7</ele>
        <time>2024-11-20T11:40:10Z</time>
      </trkpt>
      <trkpt lat="48.16056" lon="-3.3231">
        <ele>225.7</ele>
        <time>2024-11-20T11:40:11Z</time>
      </trkpt>
      <trkpt lat="48.16056" lon="-3.3231">
        <ele>225.7</ele>
        <time>2024-11-20T11:40:12Z</time>
      </trkpt>
      <trkpt lat="48.16056" lon="-3.3231">
        <ele>225.7</ele>
        <time>2024-11-20T11:40:13Z</time>
      </trkpt>
      <trkpt lat="48.16056" lon="-3.3231">
        <ele>225.7</ele>
        <time>2024-11-20T11:40:14Z</time>
      </trkpt>
      <trkpt lat="48.16056" lon="-3.3231">
        <ele>225.7</ele>
        <time>2024-11-20T11:40:15Z</time>
      </trkpt>
      <trkpt lat="48.16056" lon="-3.3231">
        <ele>225.7</ele>
        <time>2024-11-20T11:40:16Z</time>
      </trkpt>
      <trkpt lat="48.16056" lon="-3.3231">
        <ele>225.7</ele>
        <time>2024-11-20T11:40:17Z</time>
      </trkpt>
      <trkpt lat="48.16056" lon="-3.3231">
        <ele>225.7</ele>
        <time>2024-11-20T11:40:18Z</time>
      </trkpt>
      <trkpt lat="48.16056" lon="-3.3231">
        <ele>225.7</ele>
        <time>2024-11-20T11:40:19Z</time>
      </trkpt>
      <trkpt lat="48.16056" lon="-3.3231">
        <ele>225.7</ele>
        <time>2024-11-20T11:40:20Z</time>
      </trkpt>
      <trkpt lat="48.16056" lon="-3.3231">
        <ele>225.7</ele>
        <time>2024-11-20T11:40:21Z</time>
      </trkpt>
      <trkpt lat="48.16056" lon="-3.3231">
        <ele>225.7</ele>
        <time>2024-11-20T11:40:22Z</time>
      </trkpt>
      <trkpt lat="48.16056" lon="-3.3231">
        <ele>225.7</ele>
        <time>2024-11-20T11:40:23Z</time>
      </trkpt>
      <trkpt lat="48.16056" lon="-3.3231">
        <ele>225.7</ele>
        <time>2024-11-20T11:40:24Z</time>
      </trkpt>
      <trkpt lat="48.16056" lon="-3.3231">
        <ele>225.7</ele>
        <time>2024-11-20T11:40:25Z</time>
      </trkpt>
      <trkpt lat="48.16056" lon="-3.3231">
        <ele>225.7</ele>
        <time>2024-11-20T11:40:26Z</time>
      </trkpt>
      <trkpt lat="48.16056" lon="-3.3231">
        <ele>225.7</ele>
        <time>2024-11-20T11:40:29Z</time>
      </trkpt>
      <trkpt lat="48.16056" lon="-3.3231">
        <ele>225.7</ele>
        <time>2024-11-20T11:40:30Z</time>
      </trkpt>
      <trkpt lat="48.16056" lon="-3.3231">
        <ele>225.7</ele>
        <time>2024-11-20T11:40:31Z</time>
      </trkpt>
      <trkpt lat="48.16056" lon="-3.3231">
        <ele>225.7</ele>
        <time>2024-11-20T11:40:32Z</time>
      </trkpt>
      <trkpt lat="48.16056" lon="-3.3231">
        <ele>225.7</ele>
        <time>2024-11-20T11:40:33Z</time>
      </trkpt>
      <trkpt lat="48.16056" lon="-3.3231">
        <ele>225.7</ele>
        <time>2024-11-20T11:40:34Z</time>
      </trkpt>
      <trkpt lat="48.16056" lon="-3.3231">
        <ele>225.7</ele>
        <time>2024-11-20T11:40:35Z</time>
      </trkpt>
      <trkpt lat="48.16056" lon="-3.3231">
        <ele>225.7</ele>
        <time>2024-11-20T11:40:36Z</time>
      </trkpt>
      <trkpt lat="48.16056" lon="-3.3231">
        <ele>225.7</ele>
        <time>2024-11-20T11:40:37Z</time>
      </trkpt>
      <trkpt lat="48.16056" lon="-3.3231">
        <ele>225.7</ele>
        <time>2024-11-20T11:40:38Z</time>
      </trkpt>
      <trkpt lat="48.16056" lon="-3.3231">
        <ele>225.7</ele>
        <time>2024-11-20T11:40:39Z</time>
      </trkpt>
      <trkpt lat="48.16056" lon="-3.3231">
        <ele>225.7</ele>
        <time>2024-11-20T11:40:40Z</time>
      </trkpt>
      <trkpt lat="48.16056" lon="-3.3231">
        <ele>225.7</ele>
        <time>2024-11-20T11:40:41Z</time>
      </trkpt>
      <trkpt lat="48.16056" lon="-3.3231">
        <ele>225.7</ele>
        <time>2024-11-20T11:40:42Z</time>
      </trkpt>
      <trkpt lat="48.16056" lon="-3.3231">
        <ele>225.7</ele>
        <time>2024-11-20T11:40:43Z</time>
      </trkpt>
      <trkpt lat="48.16056" lon="-3.3231">
        <ele>225.7</ele>
        <time>2024-11-20T11:40:44Z</time>
      </trkpt>
      <trkpt lat="48.16056" lon="-3.3231">
        <ele>225.7</ele>
        <time>2024-11-20T11:40:45Z</time>
      </trkpt>
      <trkpt lat="48.16056" lon="-3.3231">
        <ele>225.7</ele>
        <time>2024-11-20T11:40:46Z</time>
      </trkpt>
      <trkpt lat="48.16056" lon="-3.3231">
        <ele>225.7</ele>
        <time>2024-11-20T11:40:47Z</time>
      </trkpt>
      <trkpt lat="48.16056" lon="-3.3231">
        <ele>225.7</ele>
        <time>2024-11-20T11:40:48Z</time>
      </trkpt>
      <trkpt lat="48.16056" lon="-3.3231">
        <ele>225.7</ele>
        <time>2024-11-20T11:40:49Z</time>
      </trkpt>
      <trkpt lat="48.16056" lon="-3.3231">
        <ele>225.7</ele>
        <time>2024-11-20T11:40:50Z</time>
      </trkpt>
      <trkpt lat="48.16056" lon="-3.3231">
        <ele>225.7</ele>
        <time>2024-11-20T11:40:51Z</time>
      </trkpt>
      <trkpt lat="48.16056" lon="-3.3231">
        <ele>225.7</ele>
        <time>2024-11-20T11:40:52Z</time>
      </trkpt>
      <trkpt lat="48.16056" lon="-3.3231">
        <ele>225.7</ele>
        <time>2024-11-20T11:40:53Z</time>
      </trkpt>
      <trkpt lat="48.16056" lon="-3.3231">
        <ele>225.7</ele>
        <time>2024-11-20T11:40:54Z</time>
      </trkpt>
      <trkpt lat="48.16056" lon="-3.3231">
        <ele>225.7</ele>
        <time>2024-11-20T11:40:55Z</time>
      </trkpt>
      <trkpt lat="48.16056" lon="-3.3231">
        <ele>225.7</ele>
        <time>2024-11-20T11:40:56Z</time>
      </trkpt>
      <trkpt lat="48.16056" lon="-3.3231">
        <ele>225.7</ele>
        <time>2024-11-20T11:40:57Z</time>
      </trkpt>
      <trkpt lat="48.16056" lon="-3.3231">
        <ele>225.7</ele>
        <time>2024-11-20T11:40:58Z</time>
      </trkpt>
      <trkpt lat="48.16056" lon="-3.3231">
        <ele>225.7</ele>
        <time>2024-11-20T11:40:59Z</time>
      </trkpt>
      <trkpt lat="48.16056" lon="-3.3231">
        <ele>225.7</ele>
        <time>2024-11-20T11:41:00Z</time>
      </trkpt>
      <trkpt lat="48.16056" lon="-3.3231">
        <ele>225.7</ele>
        <time>2024-11-20T11:41:01Z</time>
      </trkpt>
      <trkpt lat="48.16056" lon="-3.3231">
        <ele>225.7</ele>
        <time>2024-11-20T11:41:02Z</time>
      </trkpt>
      <trkpt lat="48.16056" lon="-3.3231">
        <ele>225.6</ele>
        <time>2024-11-20T11:41:03Z</time>
      </trkpt>
      <trkpt lat="48.16056" lon="-3.3231">
        <ele>225.6</ele>
        <time>2024-11-20T11:41:04Z</time>
      </trkpt>
      <trkpt lat="48.16056" lon="-3.3231">
        <ele>225.6</ele>
        <time>2024-11-20T11:41:05Z</time>
      </trkpt>
      <trkpt lat="48.16056" lon="-3.3231">
        <ele>225.6</ele>
        <time>2024-11-20T11:41:06Z</time>
      </trkpt>
      <trkpt lat="48.16056" lon="-3.3231">
        <ele>225.7</ele>
        <time>2024-11-20T11:41:07Z</time>
      </trkpt>
      <trkpt lat="48.16056" lon="-3.3231">
        <ele>225.7</ele>
        <time>2024-11-20T11:41:08Z</time>
      </trkpt>
      <trkpt lat="48.16056" lon="-3.3231">
        <ele>225.7</ele>
        <time>2024-11-20T11:41:09Z</time>
      </trkpt>
      <trkpt lat="48.16056" lon="-3.3231">
        <ele>225.7</ele>
        <time>2024-11-20T11:41:10Z</time>
      </trkpt>
      <trkpt lat="48.16056" lon="-3.3231">
        <ele>225.7</ele>
        <time>2024-11-20T11:41:11Z</time>
      </trkpt>
      <trkpt lat="48.16056" lon="-3.32311">
        <ele>225.6</ele>
        <time>2024-11-20T11:41:12Z</time>
      </trkpt>
      <trkpt lat="48.16056" lon="-3.32311">
        <ele>225.6</ele>
        <time>2024-11-20T11:41:13Z</time>
      </trkpt>
      <trkpt lat="48.16056" lon="-3.32311">
        <ele>225.6</ele>
        <time>2024-11-20T11:41:14Z</time>
      </trkpt>
      <trkpt lat="48.16056" lon="-3.32311">
        <ele>225.6</ele>
        <time>2024-11-20T11:41:15Z</time>
      </trkpt>
      <trkpt lat="48.16056" lon="-3.32311">
        <ele>225.6</ele>
        <time>2024-11-20T11:41:16Z</time>
      </trkpt>
      <trkpt lat="48.16056" lon="-3.32311">
        <ele>225.6</ele>
        <time>2024-11-20T11:41:17Z</time>
      </trkpt>
      <trkpt lat="48.16056" lon="-3.32311">
        <ele>225.6</ele>
        <time>2024-11-20T11:41:18Z</time>
      </trkpt>
      <trkpt lat="48.16056" lon="-3.32311">
        <ele>225.6</ele>
        <time>2024-11-20T11:41:19Z</time>
      </trkpt>
      <trkpt lat="48.16056" lon="-3.32311">
        <ele>225.6</ele>
        <time>2024-11-20T11:41:20Z</time>
      </trkpt>
      <trkpt lat="48.16056" lon="-3.32311">
        <ele>225.6</ele>
        <time>2024-11-20T11:41:21Z</time>
      </trkpt>
      <trkpt lat="48.16056" lon="-3.32311">
        <ele>225.6</ele>
        <time>2024-11-20T11:41:22Z</time>
      </trkpt>
      <trkpt lat="48.16056" lon="-3.32311">
        <ele>225.6</ele>
        <time>2024-11-20T11:41:23Z</time>
      </trkpt>
      <trkpt lat="48.16056" lon="-3.32311">
        <ele>225.6</ele>
        <time>2024-11-20T11:41:24Z</time>
      </trkpt>
      <trkpt lat="48.16056" lon="-3.32311">
        <ele>225.6</ele>
        <time>2024-11-20T11:41:25Z</time>
      </trkpt>
      <trkpt lat="48.16056" lon="-3.32311">
        <ele>225.6</ele>
        <time>2024-11-20T11:41:26Z</time>
      </trkpt>
      <trkpt lat="48.16056" lon="-3.32311">
        <ele>225.6</ele>
        <time>2024-11-20T11:41:27Z</time>
      </trkpt>
      <trkpt lat="48.16056" lon="-3.32311">
        <ele>225.6</ele>
        <time>2024-11-20T11:41:28Z</time>
      </trkpt>
      <trkpt lat="48.16056" lon="-3.32311">
        <ele>225.6</ele>
        <time>2024-11-20T11:41:29Z</time>
      </trkpt>
      <trkpt lat="48.16056" lon="-3.32311">
        <ele>225.6</ele>
        <time>2024-11-20T11:41:30Z</time>
      </trkpt>
      <trkpt lat="48.16056" lon="-3.32311">
        <ele>225.6</ele>
        <time>2024-11-20T11:41:31Z</time>
      </trkpt>
      <trkpt lat="48.16056" lon="-3.32311">
        <ele>225.6</ele>
        <time>2024-11-20T11:41:32Z</time>
      </trkpt>
      <trkpt lat="48.16056" lon="-3.32312">
        <ele>225.5</ele>
        <time>2024-11-20T11:41:33Z</time>
      </trkpt>
      <trkpt lat="48.16056" lon="-3.32312">
        <ele>225.5</ele>
        <time>2024-11-20T11:41:34Z</time>
      </trkpt>
      <trkpt lat="48.16056" lon="-3.32312">
        <ele>225.5</ele>
        <time>2024-11-20T11:41:35Z</time>
      </trkpt>
      <trkpt lat="48.16056" lon="-3.32312">
        <ele>225.5</ele>
        <time>2024-11-20T11:41:36Z</time>
      </trkpt>
      <trkpt lat="48.16056" lon="-3.32312">
        <ele>225.5</ele>
        <time>2024-11-20T11:41:37Z</time>
      </trkpt>
      <trkpt lat="48.16056" lon="-3.32312">
        <ele>225.5</ele>
        <time>2024-11-20T11:41:38Z</time>
      </trkpt>
      <trkpt lat="48.16056" lon="-3.32312">
        <ele>225.5</ele>
        <time>2024-11-20T11:41:39Z</time>
      </trkpt>
      <trkpt lat="48.16056" lon="-3.32312">
        <ele>225.5</ele>
        <time>2024-11-20T11:41:40Z</time>
      </trkpt>
      <trkpt lat="48.16056" lon="-3.32312">
        <ele>225.5</ele>
        <time>2024-11-20T11:41:41Z</time>
      </trkpt>
      <trkpt lat="48.16056" lon="-3.32312">
        <ele>225.5</ele>
        <time>2024-11-20T11:41:42Z</time>
      </trkpt>
      <trkpt lat="48.16056" lon="-3.32312">
        <ele>225.5</ele>
        <time>2024-11-20T11:41:43Z</time>
      </trkpt>
      <trkpt lat="48.16057" lon="-3.32312">
        <ele>225.5</ele>
        <time>2024-11-20T11:41:44Z</time>
      </trkpt>
      <trkpt lat="48.16057" lon="-3.32312">
        <ele>225.5</ele>
        <time>2024-11-20T11:41:45Z</time>
      </trkpt>
      <trkpt lat="48.16057" lon="-3.32312">
        <ele>225.5</ele>
        <time>2024-11-20T11:41:46Z</time>
      </trkpt>
      <trkpt lat="48.16057" lon="-3.32312">
        <ele>225.5</ele>
        <time>2024-11-20T11:41:47Z</time>
      </trkpt>
      <trkpt lat="48.16057" lon="-3.32312">
        <ele>225.5</ele>
        <time>2024-11-20T11:41:48Z</time>
      </trkpt>
      <trkpt lat="48.16057" lon="-3.32312">
        <ele>225.5</ele>
        <time>2024-11-20T11:41:49Z</time>
      </trkpt>
      <trkpt lat="48.16057" lon="-3.32312">
        <ele>225.5</ele>
        <time>2024-11-20T11:41:50Z</time>
      </trkpt>
      <trkpt lat="48.16057" lon="-3.32312">
        <ele>225.5</ele>
        <time>2024-11-20T11:41:51Z</time>
      </trkpt>
      <trkpt lat="48.16057" lon="-3.32312">
        <ele>225.5</ele>
        <time>2024-11-20T11:41:52Z</time>
      </trkpt>
      <trkpt lat="48.16057" lon="-3.32312">
        <ele>225.5</ele>
        <time>2024-11-20T11:41:53Z</time>
      </trkpt>
      <trkpt lat="48.16057" lon="-3.32312">
        <ele>225.5</ele>
        <time>2024-11-20T11:41:54Z</time>
      </trkpt>
      <trkpt lat="48.16057" lon="-3.32312">
        <ele>225.5</ele>
        <time>2024-11-20T11:41:55Z</time>
      </trkpt>
      <trkpt lat="48.16057" lon="-3.32312">
        <ele>225.5</ele>
        <time>2024-11-20T11:41:56Z</time>
      </trkpt>
      <trkpt lat="48.16057" lon="-3.32312">
        <ele>225.5</ele>
        <time>2024-11-20T11:41:57Z</time>
      </trkpt>
      <trkpt lat="48.16057" lon="-3.32312">
        <ele>225.5</ele>
        <time>2024-11-20T11:41:58Z</time>
      </trkpt>
      <trkpt lat="48.16057" lon="-3.32312">
        <ele>225.5</ele>
        <time>2024-11-20T11:41:59Z</time>
      </trkpt>
      <trkpt lat="48.16057" lon="-3.32312">
        <ele>225.5</ele>
        <time>2024-11-20T11:42:00Z</time>
      </trkpt>
      <trkpt lat="48.16057" lon="-3.32312">
        <ele>225.5</ele>
        <time>2024-11-20T11:42:01Z</time>
      </trkpt>
      <trkpt lat="48.16057" lon="-3.32312">
        <ele>225.5</ele>
        <time>2024-11-20T11:42:02Z</time>
      </trkpt>
      <trkpt lat="48.16057" lon="-3.32312">
        <ele>225.5</ele>
        <time>2024-11-20T11:42:03Z</time>
      </trkpt>
      <trkpt lat="48.16057" lon="-3.32312">
        <ele>225.5</ele>
        <time>2024-11-20T11:42:04Z</time>
      </trkpt>
      <trkpt lat="48.16057" lon="-3.32312">
        <ele>225.5</ele>
        <time>2024-11-20T11:42:05Z</time>
      </trkpt>
      <trkpt lat="48.16057" lon="-3.32312">
        <ele>225.5</ele>
        <time>2024-11-20T11:42:06Z</time>
      </trkpt>
      <trkpt lat="48.16057" lon="-3.32312">
        <ele>225.5</ele>
        <time>2024-11-20T11:42:07Z</time>
      </trkpt>
      <trkpt lat="48.16057" lon="-3.32312">
        <ele>225.5</ele>
        <time>2024-11-20T11:42:08Z</time>
      </trkpt>
      <trkpt lat="48.16057" lon="-3.32312">
        <ele>225.5</ele>
        <time>2024-11-20T11:42:09Z</time>
      </trkpt>
      <trkpt lat="48.16057" lon="-3.32312">
        <ele>225.5</ele>
        <time>2024-11-20T11:42:10Z</time>
      </trkpt>
      <trkpt lat="48.16057" lon="-3.32312">
        <ele>225.5</ele>
        <time>2024-11-20T11:42:11Z</time>
      </trkpt>
      <trkpt lat="48.16057" lon="-3.32312">
        <ele>225.5</ele>
        <time>2024-11-20T11:42:12Z</time>
      </trkpt>
      <trkpt lat="48.16057" lon="-3.32312">
        <ele>225.5</ele>
        <time>2024-11-20T11:42:13Z</time>
      </trkpt>
      <trkpt lat="48.16057" lon="-3.32312">
        <ele>225.5</ele>
        <time>2024-11-20T11:42:14Z</time>
      </trkpt>
      <trkpt lat="48.16057" lon="-3.32312">
        <ele>225.5</ele>
        <time>2024-11-20T11:42:15Z</time>
      </trkpt>
      <trkpt lat="48.16056" lon="-3.32312">
        <ele>225.5</ele>
        <time>2024-11-20T11:42:16Z</time>
      </trkpt>
      <trkpt lat="48.16056" lon="-3.32312">
        <ele>225.5</ele>
        <time>2024-11-20T11:42:17Z</time>
      </trkpt>
      <trkpt lat="48.16056" lon="-3.32312">
        <ele>225.5</ele>
        <time>2024-11-20T11:42:18Z</time>
      </trkpt>
      <trkpt lat="48.16056" lon="-3.32312">
        <ele>225.5</ele>
        <time>2024-11-20T11:42:19Z</time>
      </trkpt>
      <trkpt lat="48.16056" lon="-3.32312">
        <ele>225.5</ele>
        <time>2024-11-20T11:42:20Z</time>
      </trkpt>
      <trkpt lat="48.16056" lon="-3.32312">
        <ele>225.5</ele>
        <time>2024-11-20T11:42:21Z</time>
      </trkpt>
      <trkpt lat="48.16056" lon="-3.32312">
        <ele>225.5</ele>
        <time>2024-11-20T11:42:22Z</time>
      </trkpt>
      <trkpt lat="48.16056" lon="-3.32312">
        <ele>225.5</ele>
        <time>2024-11-20T11:42:23Z</time>
      </trkpt>
      <trkpt lat="48.16056" lon="-3.32312">
        <ele>225.5</ele>
        <time>2024-11-20T11:42:24Z</time>
      </trkpt>
      <trkpt lat="48.16056" lon="-3.32312">
        <ele>225.5</ele>
        <time>2024-11-20T11:42:25Z</time>
      </trkpt>
      <trkpt lat="48.16056" lon="-3.32312">
        <ele>225.5</ele>
        <time>2024-11-20T11:42:26Z</time>
      </trkpt>
      <trkpt lat="48.16056" lon="-3.32312">
        <ele>225.5</ele>
        <time>2024-11-20T11:42:27Z</time>
      </trkpt>
      <trkpt lat="48.16056" lon="-3.32312">
        <ele>225.5</ele>
        <time>2024-11-20T11:42:28Z</time>
      </trkpt>
      <trkpt lat="48.16056" lon="-3.32312">
        <ele>225.5</ele>
        <time>2024-11-20T11:42:29Z</time>
      </trkpt>
      <trkpt lat="48.16056" lon="-3.32312">
        <ele>225.5</ele>
        <time>2024-11-20T11:42:30Z</time>
      </trkpt>
      <trkpt lat="48.16056" lon="-3.32312">
        <ele>225.5</ele>
        <time>2024-11-20T11:42:31Z</time>
      </trkpt>
      <trkpt lat="48.16056" lon="-3.32312">
        <ele>225.5</ele>
        <time>2024-11-20T11:42:32Z</time>
      </trkpt>
      <trkpt lat="48.16056" lon="-3.32312">
        <ele>225.5</ele>
        <time>2024-11-20T11:42:33Z</time>
      </trkpt>
      <trkpt lat="48.16056" lon="-3.32312">
        <ele>225.5</ele>
        <time>2024-11-20T11:42:34Z</time>
      </trkpt>
      <trkpt lat="48.16056" lon="-3.32312">
        <ele>225.5</ele>
        <time>2024-11-20T11:42:35Z</time>
      </trkpt>
      <trkpt lat="48.16056" lon="-3.32312">
        <ele>225.5</ele>
        <time>2024-11-20T11:42:36Z</time>
      </trkpt>
      <trkpt lat="48.16056" lon="-3.32312">
        <ele>225.5</ele>
        <time>2024-11-20T11:42:37Z</time>
      </trkpt>
      <trkpt lat="48.16056" lon="-3.32312">
        <ele>225.5</ele>
        <time>2024-11-20T11:42:38Z</time>
      </trkpt>
      <trkpt lat="48.16056" lon="-3.32312">
        <ele>225.5</ele>
        <time>2024-11-20T11:42:39Z</time>
      </trkpt>
      <trkpt lat="48.16056" lon="-3.32312">
        <ele>225.5</ele>
        <time>2024-11-20T11:42:40Z</time>
      </trkpt>
      <trkpt lat="48.16056" lon="-3.32312">
        <ele>225.5</ele>
        <time>2024-11-20T11:42:41Z</time>
      </trkpt>
      <trkpt lat="48.16056" lon="-3.32312">
        <ele>225.5</ele>
        <time>2024-11-20T11:42:42Z</time>
      </trkpt>
      <trkpt lat="48.16056" lon="-3.32312">
        <ele>225.5</ele>
        <time>2024-11-20T11:42:43Z</time>
      </trkpt>
      <trkpt lat="48.16056" lon="-3.32312">
        <ele>225.5</ele>
        <time>2024-11-20T11:42:44Z</time>
      </trkpt>
      <trkpt lat="48.16056" lon="-3.32312">
        <ele>225.5</ele>
        <time>2024-11-20T11:42:45Z</time>
      </trkpt>
      <trkpt lat="48.16056" lon="-3.32312">
        <ele>225.5</ele>
        <time>2024-11-20T11:42:46Z</time>
      </trkpt>
      <trkpt lat="48.16056" lon="-3.32312">
        <ele>225.5</ele>
        <time>2024-11-20T11:42:47Z</time>
      </trkpt>
      <trkpt lat="48.16056" lon="-3.32312">
        <ele>225.6</ele>
        <time>2024-11-20T11:42:48Z</time>
      </trkpt>
      <trkpt lat="48.16056" lon="-3.32311">
        <ele>225.6</ele>
        <time>2024-11-20T11:42:49Z</time>
      </trkpt>
      <trkpt lat="48.16056" lon="-3.32311">
        <ele>225.6</ele>
        <time>2024-11-20T11:42:50Z</time>
      </trkpt>
      <trkpt lat="48.16056" lon="-3.32311">
        <ele>225.6</ele>
        <time>2024-11-20T11:42:51Z</time>
      </trkpt>
      <trkpt lat="48.16056" lon="-3.32311">
        <ele>225.6</ele>
        <time>2024-11-20T11:42:52Z</time>
      </trkpt>
      <trkpt lat="48.16056" lon="-3.32311">
        <ele>225.6</ele>
        <time>2024-11-20T11:42:53Z</time>
      </trkpt>
      <trkpt lat="48.16056" lon="-3.32311">
        <ele>225.6</ele>
        <time>2024-11-20T11:42:54Z</time>
      </trkpt>
      <trkpt lat="48.16056" lon="-3.32311">
        <ele>225.6</ele>
        <time>2024-11-20T11:42:55Z</time>
      </trkpt>
      <trkpt lat="48.16056" lon="-3.32311">
        <ele>225.6</ele>
        <time>2024-11-20T11:42:56Z</time>
      </trkpt>
      <trkpt lat="48.16056" lon="-3.32311">
        <ele>225.6</ele>
        <time>2024-11-20T11:42:57Z</time>
      </trkpt>
      <trkpt lat="48.16056" lon="-3.32311">
        <ele>225.6</ele>
        <time>2024-11-20T11:42:58Z</time>
      </trkpt>
      <trkpt lat="48.16056" lon="-3.32311">
        <ele>225.6</ele>
        <time>2024-11-20T11:42:59Z</time>
      </trkpt>
      <trkpt lat="48.16056" lon="-3.32311">
        <ele>225.6</ele>
        <time>2024-11-20T11:43:00Z</time>
      </trkpt>
      <trkpt lat="48.16055" lon="-3.32311">
        <ele>225.6</ele>
        <time>2024-11-20T11:43:01Z</time>
      </trkpt>
      <trkpt lat="48.16055" lon="-3.32311">
        <ele>225.6</ele>
        <time>2024-11-20T11:43:02Z</time>
      </trkpt>
      <trkpt lat="48.16055" lon="-3.3231">
        <ele>225.7</ele>
        <time>2024-11-20T11:43:03Z</time>
      </trkpt>
      <trkpt lat="48.16055" lon="-3.3231">
        <ele>225.7</ele>
        <time>2024-11-20T11:43:04Z</time>
      </trkpt>
      <trkpt lat="48.16055" lon="-3.3231">
        <ele>225.7</ele>
        <time>2024-11-20T11:43:05Z</time>
      </trkpt>
      <trkpt lat="48.16055" lon="-3.3231">
        <ele>225.7</ele>
        <time>2024-11-20T11:43:06Z</time>
      </trkpt>
      <trkpt lat="48.16055" lon="-3.3231">
        <ele>225.7</ele>
        <time>2024-11-20T11:43:07Z</time>
      </trkpt>
      <trkpt lat="48.16055" lon="-3.32309">
        <ele>225.7</ele>
        <time>2024-11-20T11:43:08Z</time>
      </trkpt>
      <trkpt lat="48.16055" lon="-3.32309">
        <ele>225.7</ele>
        <time>2024-11-20T11:43:09Z</time>
      </trkpt>
      <trkpt lat="48.16055" lon="-3.32309">
        <ele>225.7</ele>
        <time>2024-11-20T11:43:10Z</time>
      </trkpt>
      <trkpt lat="48.16055" lon="-3.32309">
        <ele>225.7</ele>
        <time>2024-11-20T11:43:11Z</time>
      </trkpt>
      <trkpt lat="48.16055" lon="-3.32309">
        <ele>225.7</ele>
        <time>2024-11-20T11:43:12Z</time>
      </trkpt>
      <trkpt lat="48.16055" lon="-3.32309">
        <ele>225.7</ele>
        <time>2024-11-20T11:43:13Z</time>
      </trkpt>
      <trkpt lat="48.16055" lon="-3.32309">
        <ele>225.7</ele>
        <time>2024-11-20T11:43:14Z</time>
      </trkpt>
      <trkpt lat="48.16055" lon="-3.32309">
        <ele>225.7</ele>
        <time>2024-11-20T11:43:15Z</time>
      </trkpt>
      <trkpt lat="48.16055" lon="-3.32309">
        <ele>225.7</ele>
        <time>2024-11-20T11:43:16Z</time>
      </trkpt>
      <trkpt lat="48.16055" lon="-3.32309">
        <ele>225.7</ele>
        <time>2024-11-20T11:43:17Z</time>
      </trkpt>
      <trkpt lat="48.16055" lon="-3.32309">
        <ele>225.7</ele>
        <time>2024-11-20T11:43:18Z</time>
      </trkpt>
      <trkpt lat="48.16055" lon="-3.32309">
        <ele>225.7</ele>
        <time>2024-11-20T11:43:19Z</time>
      </trkpt>
      <trkpt lat="48.16055" lon="-3.32309">
        <ele>225.7</ele>
        <time>2024-11-20T11:43:20Z</time>
      </trkpt>
      <trkpt lat="48.16055" lon="-3.32309">
        <ele>225.7</ele>
        <time>2024-11-20T11:43:21Z</time>
      </trkpt>
      <trkpt lat="48.16055" lon="-3.32309">
        <ele>225.7</ele>
        <time>2024-11-20T11:43:22Z</time>
      </trkpt>
      <trkpt lat="48.16055" lon="-3.32309">
        <ele>225.7</ele>
        <time>2024-11-20T11:43:23Z</time>
      </trkpt>
      <trkpt lat="48.16055" lon="-3.32309">
        <ele>225.7</ele>
        <time>2024-11-20T11:43:24Z</time>
      </trkpt>
      <trkpt lat="48.16055" lon="-3.32309">
        <ele>225.7</ele>
        <time>2024-11-20T11:43:25Z</time>
      </trkpt>
      <trkpt lat="48.16055" lon="-3.32309">
        <ele>225.7</ele>
        <time>2024-11-20T11:43:26Z</time>
      </trkpt>
      <trkpt lat="48.16055" lon="-3.32309">
        <ele>225.7</ele>
        <time>2024-11-20T11:43:27Z</time>
      </trkpt>
      <trkpt lat="48.16055" lon="-3.32309">
        <ele>225.8</ele>
        <time>2024-11-20T11:43:28Z</time>
      </trkpt>
      <trkpt lat="48.16055" lon="-3.32309">
        <ele>225.8</ele>
        <time>2024-11-20T11:43:29Z</time>
      </trkpt>
      <trkpt lat="48.16055" lon="-3.32309">
        <ele>225.8</ele>
        <time>2024-11-20T11:43:30Z</time>
      </trkpt>
      <trkpt lat="48.16055" lon="-3.32309">
        <ele>225.8</ele>
        <time>2024-11-20T11:43:31Z</time>
      </trkpt>
      <trkpt lat="48.16055" lon="-3.32309">
        <ele>225.8</ele>
        <time>2024-11-20T11:43:32Z</time>
      </trkpt>
      <trkpt lat="48.16055" lon="-3.32309">
        <ele>225.8</ele>
        <time>2024-11-20T11:43:33Z</time>
      </trkpt>
      <trkpt lat="48.16055" lon="-3.32309">
        <ele>225.8</ele>
        <time>2024-11-20T11:43:34Z</time>
      </trkpt>
      <trkpt lat="48.16055" lon="-3.32309">
        <ele>225.8</ele>
        <time>2024-11-20T11:43:35Z</time>
      </trkpt>
      <trkpt lat="48.16055" lon="-3.32309">
        <ele>225.8</ele>
        <time>2024-11-20T11:43:36Z</time>
      </trkpt>
      <trkpt lat="48.16055" lon="-3.32309">
        <ele>225.8</ele>
        <time>2024-11-20T11:43:37Z</time>
      </trkpt>
      <trkpt lat="48.16055" lon="-3.32309">
        <ele>225.8</ele>
        <time>2024-11-20T11:43:38Z</time>
      </trkpt>
      <trkpt lat="48.16055" lon="-3.32309">
        <ele>225.8</ele>
        <time>2024-11-20T11:43:39Z</time>
      </trkpt>
      <trkpt lat="48.16055" lon="-3.32309">
        <ele>225.8</ele>
        <time>2024-11-20T11:43:40Z</time>
      </trkpt>
      <trkpt lat="48.16055" lon="-3.32309">
        <ele>225.8</ele>
        <time>2024-11-20T11:43:41Z</time>
      </trkpt>
      <trkpt lat="48.16055" lon="-3.32309">
        <ele>225.8</ele>
        <time>2024-11-20T11:43:42Z</time>
      </trkpt>
      <trkpt lat="48.16055" lon="-3.32309">
        <ele>225.8</ele>
        <time>2024-11-20T11:43:43Z</time>
      </trkpt>
      <trkpt lat="48.16055" lon="-3.32309">
        <ele>225.8</ele>
        <time>2024-11-20T11:43:44Z</time>
      </trkpt>
      <trkpt lat="48.16055" lon="-3.32309">
        <ele>225.8</ele>
        <time>2024-11-20T11:43:45Z</time>
      </trkpt>
      <trkpt lat="48.16055" lon="-3.32309">
        <ele>225.8</ele>
        <time>2024-11-20T11:43:46Z</time>
      </trkpt>
      <trkpt lat="48.16055" lon="-3.32309">
        <ele>225.8</ele>
        <time>2024-11-20T11:43:47Z</time>
      </trkpt>
      <trkpt lat="48.16055" lon="-3.32309">
        <ele>225.8</ele>
        <time>2024-11-20T11:43:48Z</time>
      </trkpt>
      <trkpt lat="48.16055" lon="-3.32309">
        <ele>225.8</ele>
        <time>2024-11-20T11:43:49Z</time>
      </trkpt>
      <trkpt lat="48.16055" lon="-3.32309">
        <ele>225.8</ele>
        <time>2024-11-20T11:43:50Z</time>
      </trkpt>
      <trkpt lat="48.16055" lon="-3.32309">
        <ele>225.8</ele>
        <time>2024-11-20T11:43:51Z</time>
      </trkpt>
      <trkpt lat="48.16055" lon="-3.32309">
        <ele>225.8</ele>
        <time>2024-11-20T11:43:52Z</time>
      </trkpt>
      <trkpt lat="48.16055" lon="-3.32309">
        <ele>225.8</ele>
        <time>2024-11-20T11:43:53Z</time>
      </trkpt>
      <trkpt lat="48.16055" lon="-3.32309">
        <ele>225.8</ele>
        <time>2024-11-20T11:43:54Z</time>
      </trkpt>
      <trkpt lat="48.16054" lon="-3.32309">
        <ele>225.8</ele>
        <time>2024-11-20T11:43:55Z</time>
      </trkpt>
      <trkpt lat="48.16054" lon="-3.32308">
        <ele>225.8</ele>
        <time>2024-11-20T11:43:56Z</time>
      </trkpt>
      <trkpt lat="48.16053" lon="-3.32308">
        <ele>225.8</ele>
        <time>2024-11-20T11:43:57Z</time>
      </trkpt>
      <trkpt lat="48.16053" lon="-3.32308">
        <ele>225.9</ele>
        <time>2024-11-20T11:43:58Z</time>
      </trkpt>
      <trkpt lat="48.16053" lon="-3.32308">
        <ele>225.9</ele>
        <time>2024-11-20T11:43:59Z</time>
      </trkpt>
      <trkpt lat="48.16052" lon="-3.32307">
        <ele>225.9</ele>
        <time>2024-11-20T11:44:00Z</time>
      </trkpt>
      <trkpt lat="48.16052" lon="-3.32307">
        <ele>225.9</ele>
        <time>2024-11-20T11:44:01Z</time>
      </trkpt>
      <trkpt lat="48.16052" lon="-3.32306">
        <ele>225.9</ele>
        <time>2024-11-20T11:44:02Z</time>
      </trkpt>
      <trkpt lat="48.16052" lon="-3.32306">
        <ele>226</ele>
        <time>2024-11-20T11:44:03Z</time>
      </trkpt>
      <trkpt lat="48.16052" lon="-3.32306">
        <ele>226</ele>
        <time>2024-11-20T11:44:04Z</time>
      </trkpt>
      <trkpt lat="48.16052" lon="-3.32306">
        <ele>226</ele>
        <time>2024-11-20T11:44:05Z</time>
      </trkpt>
      <trkpt lat="48.16052" lon="-3.32306">
        <ele>226</ele>
        <time>2024-11-20T11:44:06Z</time>
      </trkpt>
      <trkpt lat="48.16051" lon="-3.32306">
        <ele>226</ele>
        <time>2024-11-20T11:44:07Z</time>
      </trkpt>
      <trkpt lat="48.16051" lon="-3.32306">
        <ele>226</ele>
        <time>2024-11-20T11:44:08Z</time>
      </trkpt>
      <trkpt lat="48.16051" lon="-3.32306">
        <ele>226</ele>
        <time>2024-11-20T11:44:09Z</time>
      </trkpt>
      <trkpt lat="48.16051" lon="-3.32306">
        <ele>226</ele>
        <time>2024-11-20T11:44:10Z</time>
      </trkpt>
      <trkpt lat="48.16051" lon="-3.32306">
        <ele>226</ele>
        <time>2024-11-20T11:44:11Z</time>
      </trkpt>
      <trkpt lat="48.16051" lon="-3.32306">
        <ele>226</ele>
        <time>2024-11-20T11:44:12Z</time>
      </trkpt>
      <trkpt lat="48.16051" lon="-3.32306">
        <ele>226</ele>
        <time>2024-11-20T11:44:13Z</time>
      </trkpt>
      <trkpt lat="48.16051" lon="-3.32306">
        <ele>226</ele>
        <time>2024-11-20T11:44:14Z</time>
      </trkpt>
      <trkpt lat="48.16051" lon="-3.32306">
        <ele>226</ele>
        <time>2024-11-20T11:44:15Z</time>
      </trkpt>
      <trkpt lat="48.16051" lon="-3.32306">
        <ele>226</ele>
        <time>2024-11-20T11:44:16Z</time>
      </trkpt>
      <trkpt lat="48.16051" lon="-3.32306">
        <ele>226</ele>
        <time>2024-11-20T11:44:17Z</time>
      </trkpt>
      <trkpt lat="48.16051" lon="-3.32306">
        <ele>226</ele>
        <time>2024-11-20T11:44:18Z</time>
      </trkpt>
      <trkpt lat="48.16051" lon="-3.32306">
        <ele>226</ele>
        <time>2024-11-20T11:44:19Z</time>
      </trkpt>
      <trkpt lat="48.16051" lon="-3.32306">
        <ele>226</ele>
        <time>2024-11-20T11:44:20Z</time>
      </trkpt>
      <trkpt lat="48.16052" lon="-3.32306">
        <ele>225.9</ele>
        <time>2024-11-20T11:44:21Z</time>
      </trkpt>
      <trkpt lat="48.16052" lon="-3.32307">
        <ele>225.9</ele>
        <time>2024-11-20T11:44:22Z</time>
      </trkpt>
      <trkpt lat="48.16052" lon="-3.32307">
        <ele>225.9</ele>
        <time>2024-11-20T11:44:23Z</time>
      </trkpt>
      <trkpt lat="48.16052" lon="-3.32307">
        <ele>225.9</ele>
        <time>2024-11-20T11:44:24Z</time>
      </trkpt>
      <trkpt lat="48.16053" lon="-3.32307">
        <ele>225.9</ele>
        <time>2024-11-20T11:44:25Z</time>
      </trkpt>
      <trkpt lat="48.16053" lon="-3.32307">
        <ele>225.9</ele>
        <time>2024-11-20T11:44:26Z</time>
      </trkpt>
      <trkpt lat="48.16053" lon="-3.32307">
        <ele>225.9</ele>
        <time>2024-11-20T11:44:27Z</time>
      </trkpt>
      <trkpt lat="48.16054" lon="-3.32307">
        <ele>225.9</ele>
        <time>2024-11-20T11:44:28Z</time>
      </trkpt>
      <trkpt lat="48.16054" lon="-3.32307">
        <ele>225.9</ele>
        <time>2024-11-20T11:44:29Z</time>
      </trkpt>
      <trkpt lat="48.16054" lon="-3.32307">
        <ele>225.9</ele>
        <time>2024-11-20T11:44:30Z</time>
      </trkpt>
      <trkpt lat="48.16054" lon="-3.32308">
        <ele>225.9</ele>
        <time>2024-11-20T11:44:31Z</time>
      </trkpt>
      <trkpt lat="48.16054" lon="-3.32308">
        <ele>225.8</ele>
        <time>2024-11-20T11:44:32Z</time>
      </trkpt>
      <trkpt lat="48.16054" lon="-3.32308">
        <ele>225.8</ele>
        <time>2024-11-20T11:44:33Z</time>
      </trkpt>
      <trkpt lat="48.16054" lon="-3.32308">
        <ele>225.8</ele>
        <time>2024-11-20T11:44:34Z</time>
      </trkpt>
      <trkpt lat="48.16054" lon="-3.32308">
        <ele>225.8</ele>
        <time>2024-11-20T11:44:35Z</time>
      </trkpt>
      <trkpt lat="48.16054" lon="-3.32308">
        <ele>225.8</ele>
        <time>2024-11-20T11:44:36Z</time>
      </trkpt>
      <trkpt lat="48.16055" lon="-3.32308">
        <ele>225.8</ele>
        <time>2024-11-20T11:44:37Z</time>
      </trkpt>
      <trkpt lat="48.16055" lon="-3.32309">
        <ele>225.8</ele>
        <time>2024-11-20T11:44:38Z</time>
      </trkpt>
      <trkpt lat="48.16055" lon="-3.32309">
        <ele>225.8</ele>
        <time>2024-11-20T11:44:39Z</time>
      </trkpt>
      <trkpt lat="48.16055" lon="-3.32309">
        <ele>225.8</ele>
        <time>2024-11-20T11:44:40Z</time>
      </trkpt>
      <trkpt lat="48.16055" lon="-3.32309">
        <ele>225.8</ele>
        <time>2024-11-20T11:44:41Z</time>
      </trkpt>
      <trkpt lat="48.16054" lon="-3.32309">
        <ele>225.7</ele>
        <time>2024-11-20T11:44:42Z</time>
      </trkpt>
      <trkpt lat="48.16054" lon="-3.32309">
        <ele>225.7</ele>
        <time>2024-11-20T11:44:43Z</time>
      </trkpt>
      <trkpt lat="48.16054" lon="-3.32309">
        <ele>225.7</ele>
        <time>2024-11-20T11:44:44Z</time>
      </trkpt>
      <trkpt lat="48.16054" lon="-3.32309">
        <ele>225.7</ele>
        <time>2024-11-20T11:44:45Z</time>
      </trkpt>
      <trkpt lat="48.16054" lon="-3.32309">
        <ele>225.7</ele>
        <time>2024-11-20T11:44:46Z</time>
      </trkpt>
      <trkpt lat="48.16054" lon="-3.32309">
        <ele>225.7</ele>
        <time>2024-11-20T11:44:47Z</time>
      </trkpt>
      <trkpt lat="48.16054" lon="-3.32309">
        <ele>225.7</ele>
        <time>2024-11-20T11:44:48Z</time>
      </trkpt>
      <trkpt lat="48.16054" lon="-3.32309">
        <ele>225.7</ele>
        <time>2024-11-20T11:44:49Z</time>
      </trkpt>
      <trkpt lat="48.16054" lon="-3.32309">
        <ele>225.7</ele>
        <time>2024-11-20T11:44:50Z</time>
      </trkpt>
      <trkpt lat="48.16054" lon="-3.32309">
        <ele>225.7</ele>
        <time>2024-11-20T11:44:51Z</time>
      </trkpt>
      <trkpt lat="48.16054" lon="-3.32309">
        <ele>225.7</ele>
        <time>2024-11-20T11:44:52Z</time>
      </trkpt>
      <trkpt lat="48.16054" lon="-3.32309">
        <ele>225.7</ele>
        <time>2024-11-20T11:44:53Z</time>
      </trkpt>
      <trkpt lat="48.16054" lon="-3.32309">
        <ele>225.7</ele>
        <time>2024-11-20T11:44:54Z</time>
      </trkpt>
      <trkpt lat="48.16054" lon="-3.32309">
        <ele>225.7</ele>
        <time>2024-11-20T11:44:55Z</time>
      </trkpt>
      <trkpt lat="48.16054" lon="-3.32309">
        <ele>225.7</ele>
        <time>2024-11-20T11:44:56Z</time>
      </trkpt>
      <trkpt lat="48.16054" lon="-3.32309">
        <ele>225.7</ele>
        <time>2024-11-20T11:44:57Z</time>
      </trkpt>
      <trkpt lat="48.16054" lon="-3.32309">
        <ele>225.7</ele>
        <time>2024-11-20T11:44:58Z</time>
      </trkpt>
      <trkpt lat="48.16054" lon="-3.32309">
        <ele>225.7</ele>
        <time>2024-11-20T11:44:59Z</time>
      </trkpt>
      <trkpt lat="48.16054" lon="-3.32309">
        <ele>225.7</ele>
        <time>2024-11-20T11:45:00Z</time>
      </trkpt>
      <trkpt lat="48.16054" lon="-3.32309">
        <ele>225.7</ele>
        <time>2024-11-20T11:45:01Z</time>
      </trkpt>
      <trkpt lat="48.16054" lon="-3.32309">
        <ele>225.7</ele>
        <time>2024-11-20T11:45:02Z</time>
      </trkpt>
      <trkpt lat="48.16054" lon="-3.32309">
        <ele>225.7</ele>
        <time>2024-11-20T11:45:03Z</time>
      </trkpt>
      <trkpt lat="48.16054" lon="-3.32309">
        <ele>225.7</ele>
        <time>2024-11-20T11:45:04Z</time>
      </trkpt>
      <trkpt lat="48.16054" lon="-3.32309">
        <ele>225.7</ele>
        <time>2024-11-20T11:45:05Z</time>
      </trkpt>
      <trkpt lat="48.16054" lon="-3.32309">
        <ele>225.7</ele>
        <time>2024-11-20T11:45:06Z</time>
      </trkpt>
      <trkpt lat="48.16054" lon="-3.32309">
        <ele>225.7</ele>
        <time>2024-11-20T11:45:07Z</time>
      </trkpt>
      <trkpt lat="48.16054" lon="-3.32309">
        <ele>225.7</ele>
        <time>2024-11-20T11:45:08Z</time>
      </trkpt>
      <trkpt lat="48.16054" lon="-3.32309">
        <ele>225.7</ele>
        <time>2024-11-20T11:45:09Z</time>
      </trkpt>
      <trkpt lat="48.16054" lon="-3.32309">
        <ele>225.7</ele>
        <time>2024-11-20T11:45:10Z</time>
      </trkpt>
      <trkpt lat="48.16054" lon="-3.32309">
        <ele>225.8</ele>
        <time>2024-11-20T11:45:11Z</time>
      </trkpt>
      <trkpt lat="48.16054" lon="-3.32309">
        <ele>225.8</ele>
        <time>2024-11-20T11:45:12Z</time>
      </trkpt>
      <trkpt lat="48.16054" lon="-3.32309">
        <ele>225.8</ele>
        <time>2024-11-20T11:45:13Z</time>
      </trkpt>
      <trkpt lat="48.16054" lon="-3.32309">
        <ele>225.8</ele>
        <time>2024-11-20T11:45:14Z</time>
      </trkpt>
      <trkpt lat="48.16054" lon="-3.32309">
        <ele>225.8</ele>
        <time>2024-11-20T11:45:15Z</time>
      </trkpt>
      <trkpt lat="48.16054" lon="-3.32309">
        <ele>225.8</ele>
        <time>2024-11-20T11:45:16Z</time>
      </trkpt>
      <trkpt lat="48.16054" lon="-3.32309">
        <ele>225.8</ele>
        <time>2024-11-20T11:45:17Z</time>
      </trkpt>
      <trkpt lat="48.16054" lon="-3.32309">
        <ele>225.8</ele>
        <time>2024-11-20T11:45:18Z</time>
      </trkpt>
      <trkpt lat="48.16054" lon="-3.32309">
        <ele>225.8</ele>
        <time>2024-11-20T11:45:19Z</time>
      </trkpt>
      <trkpt lat="48.16054" lon="-3.32309">
        <ele>225.8</ele>
        <time>2024-11-20T11:45:20Z</time>
      </trkpt>
      <trkpt lat="48.16054" lon="-3.32309">
        <ele>225.8</ele>
        <time>2024-11-20T11:45:21Z</time>
      </trkpt>
      <trkpt lat="48.16054" lon="-3.32309">
        <ele>225.8</ele>
        <time>2024-11-20T11:45:22Z</time>
      </trkpt>
      <trkpt lat="48.16054" lon="-3.32309">
        <ele>225.8</ele>
        <time>2024-11-20T11:45:23Z</time>
      </trkpt>
      <trkpt lat="48.16054" lon="-3.32309">
        <ele>225.8</ele>
        <time>2024-11-20T11:45:24Z</time>
      </trkpt>
      <trkpt lat="48.16054" lon="-3.32309">
        <ele>225.8</ele>
        <time>2024-11-20T11:45:25Z</time>
      </trkpt>
      <trkpt lat="48.16054" lon="-3.32309">
        <ele>225.8</ele>
        <time>2024-11-20T11:45:26Z</time>
      </trkpt>
      <trkpt lat="48.16054" lon="-3.32309">
        <ele>225.8</ele>
        <time>2024-11-20T11:45:27Z</time>
      </trkpt>
      <trkpt lat="48.16054" lon="-3.32309">
        <ele>225.8</ele>
        <time>2024-11-20T11:45:28Z</time>
      </trkpt>
      <trkpt lat="48.16054" lon="-3.32309">
        <ele>225.8</ele>
        <time>2024-11-20T11:45:29Z</time>
      </trkpt>
      <trkpt lat="48.16054" lon="-3.32309">
        <ele>225.8</ele>
        <time>2024-11-20T11:45:30Z</time>
      </trkpt>
      <trkpt lat="48.16054" lon="-3.32309">
        <ele>225.8</ele>
        <time>2024-11-20T11:45:31Z</time>
      </trkpt>
      <trkpt lat="48.16054" lon="-3.32309">
        <ele>225.8</ele>
        <time>2024-11-20T11:45:32Z</time>
      </trkpt>
      <trkpt lat="48.16054" lon="-3.32309">
        <ele>225.8</ele>
        <time>2024-11-20T11:45:33Z</time>
      </trkpt>
      <trkpt lat="48.16054" lon="-3.32309">
        <ele>225.8</ele>
        <time>2024-11-20T11:45:34Z</time>
      </trkpt>
      <trkpt lat="48.16054" lon="-3.32309">
        <ele>225.8</ele>
        <time>2024-11-20T11:45:35Z</time>
      </trkpt>
      <trkpt lat="48.16054" lon="-3.32309">
        <ele>225.8</ele>
        <time>2024-11-20T11:45:36Z</time>
      </trkpt>
      <trkpt lat="48.16054" lon="-3.32309">
        <ele>225.8</ele>
        <time>2024-11-20T11:45:37Z</time>
      </trkpt>
      <trkpt lat="48.16054" lon="-3.32309">
        <ele>225.8</ele>
        <time>2024-11-20T11:45:39Z</time>
      </trkpt>
      <trkpt lat="48.16054" lon="-3.32309">
        <ele>225.8</ele>
        <time>2024-11-20T11:45:40Z</time>
      </trkpt>
      <trkpt lat="48.16054" lon="-3.32309">
        <ele>225.8</ele>
        <time>2024-11-20T11:45:41Z</time>
      </trkpt>
      <trkpt lat="48.16054" lon="-3.32309">
        <ele>225.8</ele>
        <time>2024-11-20T11:45:42Z</time>
      </trkpt>
      <trkpt lat="48.16054" lon="-3.32309">
        <ele>225.8</ele>
        <time>2024-11-20T11:45:43Z</time>
      </trkpt>
      <trkpt lat="48.16054" lon="-3.32309">
        <ele>225.8</ele>
        <time>2024-11-20T11:45:44Z</time>
      </trkpt>
      <trkpt lat="48.16054" lon="-3.32309">
        <ele>225.8</ele>
        <time>2024-11-20T11:45:45Z</time>
      </trkpt>
      <trkpt lat="48.16054" lon="-3.32309">
        <ele>225.8</ele>
        <time>2024-11-20T11:45:46Z</time>
      </trkpt>
      <trkpt lat="48.16054" lon="-3.32309">
        <ele>225.8</ele>
        <time>2024-11-20T11:45:47Z</time>
      </trkpt>
      <trkpt lat="48.16054" lon="-3.32309">
        <ele>225.8</ele>
        <time>2024-11-20T11:45:48Z</time>
      </trkpt>
      <trkpt lat="48.16054" lon="-3.32309">
        <ele>225.8</ele>
        <time>2024-11-20T11:45:49Z</time>
      </trkpt>
      <trkpt lat="48.16054" lon="-3.32309">
        <ele>225.8</ele>
        <time>2024-11-20T11:45:50Z</time>
      </trkpt>
      <trkpt lat="48.16054" lon="-3.32309">
        <ele>225.8</ele>
        <time>2024-11-20T11:45:51Z</time>
      </trkpt>
      <trkpt lat="48.16054" lon="-3.32309">
        <ele>225.8</ele>
        <time>2024-11-20T11:45:52Z</time>
      </trkpt>
      <trkpt lat="48.16054" lon="-3.32309">
        <ele>225.8</ele>
        <time>2024-11-20T11:45:53Z</time>
      </trkpt>
      <trkpt lat="48.16054" lon="-3.32309">
        <ele>225.8</ele>
        <time>2024-11-20T11:45:54Z</time>
      </trkpt>
      <trkpt lat="48.16054" lon="-3.32309">
        <ele>225.8</ele>
        <time>2024-11-20T11:45:55Z</time>
      </trkpt>
      <trkpt lat="48.16054" lon="-3.32309">
        <ele>225.8</ele>
        <time>2024-11-20T11:45:56Z</time>
      </trkpt>
      <trkpt lat="48.16054" lon="-3.32309">
        <ele>225.8</ele>
        <time>2024-11-20T11:45:57Z</time>
      </trkpt>
      <trkpt lat="48.16054" lon="-3.32309">
        <ele>225.8</ele>
        <time>2024-11-20T11:45:58Z</time>
      </trkpt>
      <trkpt lat="48.16054" lon="-3.32309">
        <ele>225.8</ele>
        <time>2024-11-20T11:45:59Z</time>
      </trkpt>
      <trkpt lat="48.16054" lon="-3.32309">
        <ele>225.8</ele>
        <time>2024-11-20T11:46:00Z</time>
      </trkpt>
      <trkpt lat="48.16054" lon="-3.32309">
        <ele>225.8</ele>
        <time>2024-11-20T11:46:01Z</time>
      </trkpt>
      <trkpt lat="48.16054" lon="-3.32309">
        <ele>225.8</ele>
        <time>2024-11-20T11:46:02Z</time>
      </trkpt>
      <trkpt lat="48.16054" lon="-3.32309">
        <ele>225.7</ele>
        <time>2024-11-20T11:46:03Z</time>
      </trkpt>
      <trkpt lat="48.16054" lon="-3.3231">
        <ele>225.7</ele>
        <time>2024-11-20T11:46:04Z</time>
      </trkpt>
      <trkpt lat="48.16055" lon="-3.32311">
        <ele>225.6</ele>
        <time>2024-11-20T11:46:05Z</time>
      </trkpt>
      <trkpt lat="48.16055" lon="-3.32311">
        <ele>225.6</ele>
        <time>2024-11-20T11:46:06Z</time>
      </trkpt>
      <trkpt lat="48.16055" lon="-3.32311">
        <ele>225.6</ele>
        <time>2024-11-20T11:46:07Z</time>
      </trkpt>
      <trkpt lat="48.16055" lon="-3.32311">
        <ele>225.6</ele>
        <time>2024-11-20T11:46:08Z</time>
      </trkpt>
      <trkpt lat="48.16055" lon="-3.32311">
        <ele>225.6</ele>
        <time>2024-11-20T11:46:09Z</time>
      </trkpt>
      <trkpt lat="48.16055" lon="-3.32311">
        <ele>225.6</ele>
        <time>2024-11-20T11:46:10Z</time>
      </trkpt>
      <trkpt lat="48.16055" lon="-3.32311">
        <ele>225.6</ele>
        <time>2024-11-20T11:46:11Z</time>
      </trkpt>
      <trkpt lat="48.16055" lon="-3.32311">
        <ele>225.6</ele>
        <time>2024-11-20T11:46:12Z</time>
      </trkpt>
      <trkpt lat="48.16055" lon="-3.32311">
        <ele>225.6</ele>
        <time>2024-11-20T11:46:13Z</time>
      </trkpt>
      <trkpt lat="48.16054" lon="-3.32311">
        <ele>225.6</ele>
        <time>2024-11-20T11:46:14Z</time>
      </trkpt>
      <trkpt lat="48.16054" lon="-3.32311">
        <ele>225.6</ele>
        <time>2024-11-20T11:46:15Z</time>
      </trkpt>
      <trkpt lat="48.16054" lon="-3.3231">
        <ele>225.7</ele>
        <time>2024-11-20T11:46:16Z</time>
      </trkpt>
      <trkpt lat="48.16054" lon="-3.3231">
        <ele>225.7</ele>
        <time>2024-11-20T11:46:17Z</time>
      </trkpt>
      <trkpt lat="48.16054" lon="-3.3231">
        <ele>225.7</ele>
        <time>2024-11-20T11:46:18Z</time>
      </trkpt>
      <trkpt lat="48.16054" lon="-3.3231">
        <ele>225.7</ele>
        <time>2024-11-20T11:46:19Z</time>
      </trkpt>
      <trkpt lat="48.16054" lon="-3.3231">
        <ele>225.7</ele>
        <time>2024-11-20T11:46:20Z</time>
      </trkpt>
      <trkpt lat="48.16054" lon="-3.3231">
        <ele>225.7</ele>
        <time>2024-11-20T11:46:21Z</time>
      </trkpt>
      <trkpt lat="48.16054" lon="-3.3231">
        <ele>225.7</ele>
        <time>2024-11-20T11:46:22Z</time>
      </trkpt>
      <trkpt lat="48.16054" lon="-3.3231">
        <ele>225.7</ele>
        <time>2024-11-20T11:46:23Z</time>
      </trkpt>
      <trkpt lat="48.16054" lon="-3.3231">
        <ele>225.7</ele>
        <time>2024-11-20T11:46:24Z</time>
      </trkpt>
      <trkpt lat="48.16054" lon="-3.3231">
        <ele>225.7</ele>
        <time>2024-11-20T11:46:25Z</time>
      </trkpt>
      <trkpt lat="48.16054" lon="-3.3231">
        <ele>225.7</ele>
        <time>2024-11-20T11:46:26Z</time>
      </trkpt>
      <trkpt lat="48.16054" lon="-3.32309">
        <ele>225.7</ele>
        <time>2024-11-20T11:46:27Z</time>
      </trkpt>
      <trkpt lat="48.16054" lon="-3.32309">
        <ele>225.7</ele>
        <time>2024-11-20T11:46:28Z</time>
      </trkpt>
      <trkpt lat="48.16054" lon="-3.32309">
        <ele>225.7</ele>
        <time>2024-11-20T11:46:29Z</time>
      </trkpt>
      <trkpt lat="48.16054" lon="-3.32309">
        <ele>225.7</ele>
        <time>2024-11-20T11:46:30Z</time>
      </trkpt>
      <trkpt lat="48.16054" lon="-3.32309">
        <ele>225.7</ele>
        <time>2024-11-20T11:46:31Z</time>
      </trkpt>
      <trkpt lat="48.16054" lon="-3.32309">
        <ele>225.7</ele>
        <time>2024-11-20T11:46:32Z</time>
      </trkpt>
      <trkpt lat="48.16054" lon="-3.32309">
        <ele>225.7</ele>
        <time>2024-11-20T11:46:33Z</time>
      </trkpt>
      <trkpt lat="48.16054" lon="-3.32309">
        <ele>225.7</ele>
        <time>2024-11-20T11:46:34Z</time>
      </trkpt>
      <trkpt lat="48.16054" lon="-3.32309">
        <ele>225.7</ele>
        <time>2024-11-20T11:46:35Z</time>
      </trkpt>
      <trkpt lat="48.16054" lon="-3.32309">
        <ele>225.7</ele>
        <time>2024-11-20T11:46:36Z</time>
      </trkpt>
      <trkpt lat="48.16054" lon="-3.32309">
        <ele>225.7</ele>
        <time>2024-11-20T11:46:37Z</time>
      </trkpt>
      <trkpt lat="48.16054" lon="-3.32309">
        <ele>225.7</ele>
        <time>2024-11-20T11:46:38Z</time>
      </trkpt>
      <trkpt lat="48.16054" lon="-3.32309">
        <ele>225.7</ele>
        <time>2024-11-20T11:46:39Z</time>
      </trkpt>
      <trkpt lat="48.16054" lon="-3.32309">
        <ele>225.7</ele>
        <time>2024-11-20T11:46:40Z</time>
      </trkpt>
      <trkpt lat="48.16054" lon="-3.32309">
        <ele>225.7</ele>
        <time>2024-11-20T11:46:41Z</time>
      </trkpt>
      <trkpt lat="48.16054" lon="-3.32309">
        <ele>225.7</ele>
        <time>2024-11-20T11:46:42Z</time>
      </trkpt>
      <trkpt lat="48.16054" lon="-3.3231">
        <ele>225.7</ele>
        <time>2024-11-20T11:46:43Z</time>
      </trkpt>
      <trkpt lat="48.16054" lon="-3.3231">
        <ele>225.7</ele>
        <time>2024-11-20T11:46:44Z</time>
      </trkpt>
      <trkpt lat="48.16054" lon="-3.3231">
        <ele>225.7</ele>
        <time>2024-11-20T11:46:45Z</time>
      </trkpt>
      <trkpt lat="48.16054" lon="-3.3231">
        <ele>225.7</ele>
        <time>2024-11-20T11:46:46Z</time>
      </trkpt>
      <trkpt lat="48.16054" lon="-3.3231">
        <ele>225.7</ele>
        <time>2024-11-20T11:46:47Z</time>
      </trkpt>
      <trkpt lat="48.16054" lon="-3.3231">
        <ele>225.7</ele>
        <time>2024-11-20T11:46:50Z</time>
      </trkpt>
      <trkpt lat="48.16054" lon="-3.3231">
        <ele>225.7</ele>
        <time>2024-11-20T11:46:51Z</time>
      </trkpt>
      <trkpt lat="48.16054" lon="-3.3231">
        <ele>225.7</ele>
        <time>2024-11-20T11:46:52Z</time>
      </trkpt>
      <trkpt lat="48.16054" lon="-3.3231">
        <ele>225.7</ele>
        <time>2024-11-20T11:46:53Z</time>
      </trkpt>
      <trkpt lat="48.16054" lon="-3.3231">
        <ele>225.7</ele>
        <time>2024-11-20T11:46:54Z</time>
      </trkpt>
      <trkpt lat="48.16054" lon="-3.3231">
        <ele>225.7</ele>
        <time>2024-11-20T11:46:55Z</time>
      </trkpt>
      <trkpt lat="48.16054" lon="-3.3231">
        <ele>225.7</ele>
        <time>2024-11-20T11:46:56Z</time>
      </trkpt>
      <trkpt lat="48.16054" lon="-3.3231">
        <ele>225.7</ele>
        <time>2024-11-20T11:46:57Z</time>
      </trkpt>
      <trkpt lat="48.16054" lon="-3.3231">
        <ele>225.7</ele>
        <time>2024-11-20T11:46:58Z</time>
      </trkpt>
      <trkpt lat="48.16054" lon="-3.3231">
        <ele>225.7</ele>
        <time>2024-11-20T11:46:59Z</time>
      </trkpt>
      <trkpt lat="48.16054" lon="-3.3231">
        <ele>225.7</ele>
        <time>2024-11-20T11:47:00Z</time>
      </trkpt>
      <trkpt lat="48.16054" lon="-3.3231">
        <ele>225.7</ele>
        <time>2024-11-20T11:47:01Z</time>
      </trkpt>
      <trkpt lat="48.16054" lon="-3.3231">
        <ele>225.7</ele>
        <time>2024-11-20T11:47:02Z</time>
      </trkpt>
      <trkpt lat="48.16054" lon="-3.3231">
        <ele>225.7</ele>
        <time>2024-11-20T11:47:03Z</time>
      </trkpt>
      <trkpt lat="48.16054" lon="-3.3231">
        <ele>225.7</ele>
        <time>2024-11-20T11:47:04Z</time>
      </trkpt>
      <trkpt lat="48.16054" lon="-3.3231">
        <ele>225.7</ele>
        <time>2024-11-20T11:47:05Z</time>
      </trkpt>
      <trkpt lat="48.16054" lon="-3.3231">
        <ele>225.7</ele>
        <time>2024-11-20T11:47:06Z</time>
      </trkpt>
      <trkpt lat="48.16054" lon="-3.3231">
        <ele>225.7</ele>
        <time>2024-11-20T11:47:07Z</time>
      </trkpt>
      <trkpt lat="48.16054" lon="-3.3231">
        <ele>225.7</ele>
        <time>2024-11-20T11:47:08Z</time>
      </trkpt>
      <trkpt lat="48.16054" lon="-3.3231">
        <ele>225.7</ele>
        <time>2024-11-20T11:47:09Z</time>
      </trkpt>
      <trkpt lat="48.16054" lon="-3.3231">
        <ele>225.7</ele>
        <time>2024-11-20T11:47:10Z</time>
      </trkpt>
      <trkpt lat="48.16054" lon="-3.3231">
        <ele>225.7</ele>
        <time>2024-11-20T11:47:11Z</time>
      </trkpt>
      <trkpt lat="48.16054" lon="-3.3231">
        <ele>225.7</ele>
        <time>2024-11-20T11:47:12Z</time>
      </trkpt>
      <trkpt lat="48.16054" lon="-3.3231">
        <ele>225.7</ele>
        <time>2024-11-20T11:47:13Z</time>
      </trkpt>
      <trkpt lat="48.16054" lon="-3.3231">
        <ele>225.7</ele>
        <time>2024-11-20T11:47:14Z</time>
      </trkpt>
      <trkpt lat="48.16054" lon="-3.3231">
        <ele>225.7</ele>
        <time>2024-11-20T11:47:15Z</time>
      </trkpt>
      <trkpt lat="48.16054" lon="-3.3231">
        <ele>225.7</ele>
        <time>2024-11-20T11:47:16Z</time>
      </trkpt>
      <trkpt lat="48.16054" lon="-3.3231">
        <ele>225.7</ele>
        <time>2024-11-20T11:47:17Z</time>
      </trkpt>
      <trkpt lat="48.16054" lon="-3.3231">
        <ele>225.7</ele>
        <time>2024-11-20T11:47:18Z</time>
      </trkpt>
      <trkpt lat="48.16054" lon="-3.3231">
        <ele>225.7</ele>
        <time>2024-11-20T11:47:19Z</time>
      </trkpt>
      <trkpt lat="48.16054" lon="-3.32309">
        <ele>225.7</ele>
        <time>2024-11-20T11:47:20Z</time>
      </trkpt>
      <trkpt lat="48.16054" lon="-3.32309">
        <ele>225.7</ele>
        <time>2024-11-20T11:47:21Z</time>
      </trkpt>
      <trkpt lat="48.16054" lon="-3.32309">
        <ele>225.7</ele>
        <time>2024-11-20T11:47:22Z</time>
      </trkpt>
      <trkpt lat="48.16054" lon="-3.32309">
        <ele>225.8</ele>
        <time>2024-11-20T11:47:23Z</time>
      </trkpt>
      <trkpt lat="48.16054" lon="-3.32309">
        <ele>225.8</ele>
        <time>2024-11-20T11:47:24Z</time>
      </trkpt>
      <trkpt lat="48.16053" lon="-3.32309">
        <ele>225.8</ele>
        <time>2024-11-20T11:47:25Z</time>
      </trkpt>
      <trkpt lat="48.16053" lon="-3.32309">
        <ele>225.8</ele>
        <time>2024-11-20T11:47:26Z</time>
      </trkpt>
      <trkpt lat="48.16053" lon="-3.32309">
        <ele>225.8</ele>
        <time>2024-11-20T11:47:27Z</time>
      </trkpt>
      <trkpt lat="48.16053" lon="-3.32309">
        <ele>225.8</ele>
        <time>2024-11-20T11:47:28Z</time>
      </trkpt>
      <trkpt lat="48.16053" lon="-3.32308">
        <ele>225.8</ele>
        <time>2024-11-20T11:47:29Z</time>
      </trkpt>
      <trkpt lat="48.16053" lon="-3.32308">
        <ele>225.8</ele>
        <time>2024-11-20T11:47:30Z</time>
      </trkpt>
      <trkpt lat="48.16053" lon="-3.32308">
        <ele>225.8</ele>
        <time>2024-11-20T11:47:31Z</time>
      </trkpt>
      <trkpt lat="48.16053" lon="-3.32308">
        <ele>225.8</ele>
        <time>2024-11-20T11:47:32Z</time>
      </trkpt>
      <trkpt lat="48.16053" lon="-3.32308">
        <ele>225.8</ele>
        <time>2024-11-20T11:47:33Z</time>
      </trkpt>
      <trkpt lat="48.16053" lon="-3.32308">
        <ele>225.8</ele>
        <time>2024-11-20T11:47:34Z</time>
      </trkpt>
      <trkpt lat="48.16053" lon="-3.32308">
        <ele>225.8</ele>
        <time>2024-11-20T11:47:35Z</time>
      </trkpt>
      <trkpt lat="48.16053" lon="-3.32308">
        <ele>225.8</ele>
        <time>2024-11-20T11:47:36Z</time>
      </trkpt>
      <trkpt lat="48.16053" lon="-3.32308">
        <ele>225.8</ele>
        <time>2024-11-20T11:47:37Z</time>
      </trkpt>
      <trkpt lat="48.16053" lon="-3.32308">
        <ele>225.8</ele>
        <time>2024-11-20T11:47:38Z</time>
      </trkpt>
      <trkpt lat="48.16053" lon="-3.32308">
        <ele>225.8</ele>
        <time>2024-11-20T11:47:39Z</time>
      </trkpt>
      <trkpt lat="48.16053" lon="-3.32308">
        <ele>225.8</ele>
        <time>2024-11-20T11:47:40Z</time>
      </trkpt>
      <trkpt lat="48.16053" lon="-3.32308">
        <ele>225.8</ele>
        <time>2024-11-20T11:47:41Z</time>
      </trkpt>
      <trkpt lat="48.16053" lon="-3.32308">
        <ele>225.8</ele>
        <time>2024-11-20T11:47:42Z</time>
      </trkpt>
      <trkpt lat="48.16054" lon="-3.32308">
        <ele>225.8</ele>
        <time>2024-11-20T11:47:43Z</time>
      </trkpt>
      <trkpt lat="48.16054" lon="-3.32308">
        <ele>225.9</ele>
        <time>2024-11-20T11:47:44Z</time>
      </trkpt>
      <trkpt lat="48.16054" lon="-3.32307">
        <ele>225.9</ele>
        <time>2024-11-20T11:47:45Z</time>
      </trkpt>
      <trkpt lat="48.16054" lon="-3.32307">
        <ele>225.9</ele>
        <time>2024-11-20T11:47:46Z</time>
      </trkpt>
      <trkpt lat="48.16054" lon="-3.32307">
        <ele>225.9</ele>
        <time>2024-11-20T11:47:47Z</time>
      </trkpt>
      <trkpt lat="48.16054" lon="-3.32307">
        <ele>225.9</ele>
        <time>2024-11-20T11:47:48Z</time>
      </trkpt>
      <trkpt lat="48.16054" lon="-3.32307">
        <ele>225.9</ele>
        <time>2024-11-20T11:47:49Z</time>
      </trkpt>
      <trkpt lat="48.16054" lon="-3.32307">
        <ele>225.9</ele>
        <time>2024-11-20T11:47:50Z</time>
      </trkpt>
      <trkpt lat="48.16054" lon="-3.32307">
        <ele>225.9</ele>
        <time>2024-11-20T11:47:51Z</time>
      </trkpt>
      <trkpt lat="48.16054" lon="-3.32307">
        <ele>225.9</ele>
        <time>2024-11-20T11:47:52Z</time>
      </trkpt>
      <trkpt lat="48.16054" lon="-3.32307">
        <ele>225.9</ele>
        <time>2024-11-20T11:47:53Z</time>
      </trkpt>
      <trkpt lat="48.16054" lon="-3.32307">
        <ele>225.9</ele>
        <time>2024-11-20T11:47:54Z</time>
      </trkpt>
      <trkpt lat="48.16054" lon="-3.32307">
        <ele>225.9</ele>
        <time>2024-11-20T11:47:55Z</time>
      </trkpt>
      <trkpt lat="48.16054" lon="-3.32307">
        <ele>225.9</ele>
        <time>2024-11-20T11:47:56Z</time>
      </trkpt>
      <trkpt lat="48.16054" lon="-3.32307">
        <ele>225.9</ele>
        <time>2024-11-20T11:47:57Z</time>
      </trkpt>
      <trkpt lat="48.16054" lon="-3.32307">
        <ele>225.9</ele>
        <time>2024-11-20T11:47:58Z</time>
      </trkpt>
      <trkpt lat="48.16054" lon="-3.32307">
        <ele>225.9</ele>
        <time>2024-11-20T11:47:59Z</time>
      </trkpt>
      <trkpt lat="48.16053" lon="-3.32307">
        <ele>225.9</ele>
        <time>2024-11-20T11:48:00Z</time>
      </trkpt>
      <trkpt lat="48.16053" lon="-3.32307">
        <ele>225.9</ele>
        <time>2024-11-20T11:48:01Z</time>
      </trkpt>
      <trkpt lat="48.16053" lon="-3.32307">
        <ele>225.9</ele>
        <time>2024-11-20T11:48:02Z</time>
      </trkpt>
      <trkpt lat="48.16053" lon="-3.32307">
        <ele>225.9</ele>
        <time>2024-11-20T11:48:03Z</time>
      </trkpt>
      <trkpt lat="48.16053" lon="-3.32307">
        <ele>225.9</ele>
        <time>2024-11-20T11:48:04Z</time>
      </trkpt>
      <trkpt lat="48.16053" lon="-3.32307">
        <ele>225.9</ele>
        <time>2024-11-20T11:48:05Z</time>
      </trkpt>
      <trkpt lat="48.16053" lon="-3.32307">
        <ele>225.9</ele>
        <time>2024-11-20T11:48:06Z</time>
      </trkpt>
      <trkpt lat="48.16054" lon="-3.32307">
        <ele>225.9</ele>
        <time>2024-11-20T11:48:07Z</time>
      </trkpt>
      <trkpt lat="48.16054" lon="-3.32307">
        <ele>225.9</ele>
        <time>2024-11-20T11:48:08Z</time>
      </trkpt>
      <trkpt lat="48.16054" lon="-3.32307">
        <ele>225.9</ele>
        <time>2024-11-20T11:48:09Z</time>
      </trkpt>
      <trkpt lat="48.16054" lon="-3.32307">
        <ele>225.9</ele>
        <time>2024-11-20T11:48:10Z</time>
      </trkpt>
      <trkpt lat="48.16054" lon="-3.32307">
        <ele>225.9</ele>
        <time>2024-11-20T11:48:11Z</time>
      </trkpt>
      <trkpt lat="48.16054" lon="-3.32307">
        <ele>225.9</ele>
        <time>2024-11-20T11:48:12Z</time>
      </trkpt>
      <trkpt lat="48.16054" lon="-3.32308">
        <ele>225.9</ele>
        <time>2024-11-20T11:48:13Z</time>
      </trkpt>
      <trkpt lat="48.16054" lon="-3.32308">
        <ele>225.9</ele>
        <time>2024-11-20T11:48:14Z</time>
      </trkpt>
      <trkpt lat="48.16054" lon="-3.32308">
        <ele>225.9</ele>
        <time>2024-11-20T11:48:15Z</time>
      </trkpt>
      <trkpt lat="48.16054" lon="-3.32308">
        <ele>225.8</ele>
        <time>2024-11-20T11:48:16Z</time>
      </trkpt>
      <trkpt lat="48.16054" lon="-3.32308">
        <ele>225.8</ele>
        <time>2024-11-20T11:48:17Z</time>
      </trkpt>
      <trkpt lat="48.16054" lon="-3.32308">
        <ele>225.8</ele>
        <time>2024-11-20T11:48:18Z</time>
      </trkpt>
      <trkpt lat="48.16054" lon="-3.32308">
        <ele>225.8</ele>
        <time>2024-11-20T11:48:19Z</time>
      </trkpt>
      <trkpt lat="48.16054" lon="-3.32308">
        <ele>225.8</ele>
        <time>2024-11-20T11:48:20Z</time>
      </trkpt>
      <trkpt lat="48.16054" lon="-3.32308">
        <ele>225.8</ele>
        <time>2024-11-20T11:48:21Z</time>
      </trkpt>
      <trkpt lat="48.16054" lon="-3.32308">
        <ele>225.8</ele>
        <time>2024-11-20T11:48:22Z</time>
      </trkpt>
      <trkpt lat="48.16054" lon="-3.32308">
        <ele>225.8</ele>
        <time>2024-11-20T11:48:23Z</time>
      </trkpt>
      <trkpt lat="48.16054" lon="-3.32308">
        <ele>225.8</ele>
        <time>2024-11-20T11:48:24Z</time>
      </trkpt>
      <trkpt lat="48.16054" lon="-3.32308">
        <ele>225.8</ele>
        <time>2024-11-20T11:48:25Z</time>
      </trkpt>
      <trkpt lat="48.16054" lon="-3.32308">
        <ele>225.8</ele>
        <time>2024-11-20T11:48:26Z</time>
      </trkpt>
      <trkpt lat="48.16054" lon="-3.32308">
        <ele>225.8</ele>
        <time>2024-11-20T11:48:27Z</time>
      </trkpt>
      <trkpt lat="48.16054" lon="-3.32308">
        <ele>225.8</ele>
        <time>2024-11-20T11:48:28Z</time>
      </trkpt>
      <trkpt lat="48.16054" lon="-3.32308">
        <ele>225.8</ele>
        <time>2024-11-20T11:48:29Z</time>
      </trkpt>
      <trkpt lat="48.16054" lon="-3.32308">
        <ele>225.8</ele>
        <time>2024-11-20T11:48:30Z</time>
      </trkpt>
      <trkpt lat="48.16054" lon="-3.32308">
        <ele>225.8</ele>
        <time>2024-11-20T11:48:31Z</time>
      </trkpt>
      <trkpt lat="48.16054" lon="-3.32308">
        <ele>225.8</ele>
        <time>2024-11-20T11:48:32Z</time>
      </trkpt>
      <trkpt lat="48.16054" lon="-3.32308">
        <ele>225.8</ele>
        <time>2024-11-20T11:48:33Z</time>
      </trkpt>
      <trkpt lat="48.16054" lon="-3.32308">
        <ele>225.8</ele>
        <time>2024-11-20T11:48:34Z</time>
      </trkpt>
      <trkpt lat="48.16054" lon="-3.32308">
        <ele>225.8</ele>
        <time>2024-11-20T11:48:35Z</time>
      </trkpt>
      <trkpt lat="48.16054" lon="-3.32308">
        <ele>225.8</ele>
        <time>2024-11-20T11:48:36Z</time>
      </trkpt>
      <trkpt lat="48.16054" lon="-3.32308">
        <ele>225.8</ele>
        <time>2024-11-20T11:48:37Z</time>
      </trkpt>
      <trkpt lat="48.16054" lon="-3.32308">
        <ele>225.8</ele>
        <time>2024-11-20T11:48:38Z</time>
      </trkpt>
      <trkpt lat="48.16054" lon="-3.32308">
        <ele>225.8</ele>
        <time>2024-11-20T11:48:39Z</time>
      </trkpt>
      <trkpt lat="48.16054" lon="-3.32308">
        <ele>225.8</ele>
        <time>2024-11-20T11:48:40Z</time>
      </trkpt>
      <trkpt lat="48.16054" lon="-3.32308">
        <ele>225.8</ele>
        <time>2024-11-20T11:48:41Z</time>
      </trkpt>
      <trkpt lat="48.16054" lon="-3.32308">
        <ele>225.8</ele>
        <time>2024-11-20T11:48:42Z</time>
      </trkpt>
      <trkpt lat="48.16054" lon="-3.32308">
        <ele>225.8</ele>
        <time>2024-11-20T11:48:43Z</time>
      </trkpt>
      <trkpt lat="48.16054" lon="-3.32308">
        <ele>225.8</ele>
        <time>2024-11-20T11:48:44Z</time>
      </trkpt>
      <trkpt lat="48.16054" lon="-3.32308">
        <ele>225.8</ele>
        <time>2024-11-20T11:48:45Z</time>
      </trkpt>
      <trkpt lat="48.16054" lon="-3.32308">
        <ele>225.8</ele>
        <time>2024-11-20T11:48:46Z</time>
      </trkpt>
      <trkpt lat="48.16054" lon="-3.32308">
        <ele>225.8</ele>
        <time>2024-11-20T11:48:47Z</time>
      </trkpt>
      <trkpt lat="48.16054" lon="-3.32308">
        <ele>225.8</ele>
        <time>2024-11-20T11:48:48Z</time>
      </trkpt>
      <trkpt lat="48.16054" lon="-3.32308">
        <ele>225.8</ele>
        <time>2024-11-20T11:48:49Z</time>
      </trkpt>
      <trkpt lat="48.16054" lon="-3.32308">
        <ele>225.8</ele>
        <time>2024-11-20T11:48:50Z</time>
      </trkpt>
      <trkpt lat="48.16054" lon="-3.32308">
        <ele>225.8</ele>
        <time>2024-11-20T11:48:51Z</time>
      </trkpt>
      <trkpt lat="48.16054" lon="-3.32308">
        <ele>225.8</ele>
        <time>2024-11-20T11:48:52Z</time>
      </trkpt>
      <trkpt lat="48.16054" lon="-3.32308">
        <ele>225.8</ele>
        <time>2024-11-20T11:48:53Z</time>
      </trkpt>
      <trkpt lat="48.16054" lon="-3.32308">
        <ele>225.8</ele>
        <time>2024-11-20T11:48:54Z</time>
      </trkpt>
      <trkpt lat="48.16054" lon="-3.32308">
        <ele>225.8</ele>
        <time>2024-11-20T11:48:55Z</time>
      </trkpt>
      <trkpt lat="48.16054" lon="-3.32308">
        <ele>225.8</ele>
        <time>2024-11-20T11:48:56Z</time>
      </trkpt>
      <trkpt lat="48.16054" lon="-3.32308">
        <ele>225.8</ele>
        <time>2024-11-20T11:48:57Z</time>
      </trkpt>
      <trkpt lat="48.16054" lon="-3.32308">
        <ele>225.8</ele>
        <time>2024-11-20T11:48:58Z</time>
      </trkpt>
      <trkpt lat="48.16054" lon="-3.32308">
        <ele>225.8</ele>
        <time>2024-11-20T11:48:59Z</time>
      </trkpt>
      <trkpt lat="48.16054" lon="-3.32308">
        <ele>225.8</ele>
        <time>2024-11-20T11:49:00Z</time>
      </trkpt>
      <trkpt lat="48.16054" lon="-3.32308">
        <ele>225.8</ele>
        <time>2024-11-20T11:49:01Z</time>
      </trkpt>
      <trkpt lat="48.16054" lon="-3.32308">
        <ele>225.8</ele>
        <time>2024-11-20T11:49:02Z</time>
      </trkpt>
      <trkpt lat="48.16054" lon="-3.32308">
        <ele>225.8</ele>
        <time>2024-11-20T11:49:03Z</time>
      </trkpt>
      <trkpt lat="48.16054" lon="-3.32308">
        <ele>225.8</ele>
        <time>2024-11-20T11:49:04Z</time>
      </trkpt>
      <trkpt lat="48.16054" lon="-3.32308">
        <ele>225.8</ele>
        <time>2024-11-20T11:49:05Z</time>
      </trkpt>
      <trkpt lat="48.16054" lon="-3.32308">
        <ele>225.8</ele>
        <time>2024-11-20T11:49:06Z</time>
      </trkpt>
      <trkpt lat="48.16054" lon="-3.32308">
        <ele>225.8</ele>
        <time>2024-11-20T11:49:07Z</time>
      </trkpt>
      <trkpt lat="48.16054" lon="-3.32308">
        <ele>225.8</ele>
        <time>2024-11-20T11:49:08Z</time>
      </trkpt>
      <trkpt lat="48.16054" lon="-3.32308">
        <ele>225.8</ele>
        <time>2024-11-20T11:49:09Z</time>
      </trkpt>
      <trkpt lat="48.16054" lon="-3.32308">
        <ele>225.8</ele>
        <time>2024-11-20T11:49:10Z</time>
      </trkpt>
      <trkpt lat="48.16054" lon="-3.32308">
        <ele>225.8</ele>
        <time>2024-11-20T11:49:11Z</time>
      </trkpt>
      <trkpt lat="48.16054" lon="-3.32308">
        <ele>225.8</ele>
        <time>2024-11-20T11:49:12Z</time>
      </trkpt>
      <trkpt lat="48.16054" lon="-3.32308">
        <ele>225.8</ele>
        <time>2024-11-20T11:49:13Z</time>
      </trkpt>
      <trkpt lat="48.16054" lon="-3.32308">
        <ele>225.8</ele>
        <time>2024-11-20T11:49:14Z</time>
      </trkpt>
      <trkpt lat="48.16054" lon="-3.32308">
        <ele>225.8</ele>
        <time>2024-11-20T11:49:15Z</time>
      </trkpt>
      <trkpt lat="48.16054" lon="-3.32308">
        <ele>225.8</ele>
        <time>2024-11-20T11:49:16Z</time>
      </trkpt>
      <trkpt lat="48.16054" lon="-3.32308">
        <ele>225.8</ele>
        <time>2024-11-20T11:49:17Z</time>
      </trkpt>
      <trkpt lat="48.16054" lon="-3.32308">
        <ele>225.8</ele>
        <time>2024-11-20T11:49:18Z</time>
      </trkpt>
      <trkpt lat="48.16054" lon="-3.32308">
        <ele>225.8</ele>
        <time>2024-11-20T11:49:19Z</time>
      </trkpt>
      <trkpt lat="48.16054" lon="-3.32308">
        <ele>225.8</ele>
        <time>2024-11-20T11:49:20Z</time>
      </trkpt>
      <trkpt lat="48.16054" lon="-3.32308">
        <ele>225.8</ele>
        <time>2024-11-20T11:49:21Z</time>
      </trkpt>
      <trkpt lat="48.16054" lon="-3.32308">
        <ele>225.8</ele>
        <time>2024-11-20T11:49:22Z</time>
      </trkpt>
      <trkpt lat="48.16054" lon="-3.32308">
        <ele>225.8</ele>
        <time>2024-11-20T11:49:23Z</time>
      </trkpt>
      <trkpt lat="48.16054" lon="-3.32308">
        <ele>225.8</ele>
        <time>2024-11-20T11:49:24Z</time>
      </trkpt>
      <trkpt lat="48.16054" lon="-3.32308">
        <ele>225.8</ele>
        <time>2024-11-20T11:49:25Z</time>
      </trkpt>
      <trkpt lat="48.16054" lon="-3.32308">
        <ele>225.8</ele>
        <time>2024-11-20T11:49:26Z</time>
      </trkpt>
      <trkpt lat="48.16054" lon="-3.32308">
        <ele>225.8</ele>
        <time>2024-11-20T11:49:27Z</time>
      </trkpt>
      <trkpt lat="48.16054" lon="-3.32308">
        <ele>225.8</ele>
        <time>2024-11-20T11:49:28Z</time>
      </trkpt>
      <trkpt lat="48.16054" lon="-3.32308">
        <ele>225.8</ele>
        <time>2024-11-20T11:49:29Z</time>
      </trkpt>
      <trkpt lat="48.16054" lon="-3.32308">
        <ele>225.8</ele>
        <time>2024-11-20T11:49:30Z</time>
      </trkpt>
      <trkpt lat="48.16054" lon="-3.32308">
        <ele>225.8</ele>
        <time>2024-11-20T11:49:31Z</time>
      </trkpt>
      <trkpt lat="48.16054" lon="-3.32308">
        <ele>225.8</ele>
        <time>2024-11-20T11:49:32Z</time>
      </trkpt>
      <trkpt lat="48.16054" lon="-3.32308">
        <ele>225.8</ele>
        <time>2024-11-20T11:49:33Z</time>
      </trkpt>
      <trkpt lat="48.16054" lon="-3.32308">
        <ele>225.8</ele>
        <time>2024-11-20T11:49:34Z</time>
      </trkpt>
      <trkpt lat="48.16054" lon="-3.32308">
        <ele>225.8</ele>
        <time>2024-11-20T11:49:35Z</time>
      </trkpt>
      <trkpt lat="48.16054" lon="-3.32308">
        <ele>225.8</ele>
        <time>2024-11-20T11:49:36Z</time>
      </trkpt>
      <trkpt lat="48.16054" lon="-3.32308">
        <ele>225.8</ele>
        <time>2024-11-20T11:49:37Z</time>
      </trkpt>
      <trkpt lat="48.16054" lon="-3.32308">
        <ele>225.8</ele>
        <time>2024-11-20T11:49:38Z</time>
      </trkpt>
      <trkpt lat="48.16054" lon="-3.32308">
        <ele>225.8</ele>
        <time>2024-11-20T11:49:39Z</time>
      </trkpt>
      <trkpt lat="48.16054" lon="-3.32308">
        <ele>225.8</ele>
        <time>2024-11-20T11:49:40Z</time>
      </trkpt>
      <trkpt lat="48.16054" lon="-3.32308">
        <ele>225.8</ele>
        <time>2024-11-20T11:49:41Z</time>
      </trkpt>
      <trkpt lat="48.16054" lon="-3.32308">
        <ele>225.8</ele>
        <time>2024-11-20T11:49:42Z</time>
      </trkpt>
      <trkpt lat="48.16054" lon="-3.32308">
        <ele>225.8</ele>
        <time>2024-11-20T11:49:43Z</time>
      </trkpt>
      <trkpt lat="48.16054" lon="-3.32308">
        <ele>225.8</ele>
        <time>2024-11-20T11:49:44Z</time>
      </trkpt>
      <trkpt lat="48.16054" lon="-3.32308">
        <ele>225.8</ele>
        <time>2024-11-20T11:49:45Z</time>
      </trkpt>
      <trkpt lat="48.16054" lon="-3.32308">
        <ele>225.8</ele>
        <time>2024-11-20T11:49:46Z</time>
      </trkpt>
      <trkpt lat="48.16054" lon="-3.32308">
        <ele>225.8</ele>
        <time>2024-11-20T11:49:47Z</time>
      </trkpt>
      <trkpt lat="48.16054" lon="-3.32308">
        <ele>225.8</ele>
        <time>2024-11-20T11:49:48Z</time>
      </trkpt>
      <trkpt lat="48.16054" lon="-3.32308">
        <ele>225.8</ele>
        <time>2024-11-20T11:49:49Z</time>
      </trkpt>
      <trkpt lat="48.16054" lon="-3.32308">
        <ele>225.8</ele>
        <time>2024-11-20T11:49:50Z</time>
      </trkpt>
      <trkpt lat="48.16054" lon="-3.32308">
        <ele>225.8</ele>
        <time>2024-11-20T11:49:51Z</time>
      </trkpt>
      <trkpt lat="48.16054" lon="-3.32308">
        <ele>225.8</ele>
        <time>2024-11-20T11:49:52Z</time>
      </trkpt>
      <trkpt lat="48.16054" lon="-3.32308">
        <ele>225.8</ele>
        <time>2024-11-20T11:49:53Z</time>
      </trkpt>
      <trkpt lat="48.16054" lon="-3.32308">
        <ele>225.8</ele>
        <time>2024-11-20T11:49:54Z</time>
      </trkpt>
      <trkpt lat="48.16054" lon="-3.32308">
        <ele>225.8</ele>
        <time>2024-11-20T11:49:55Z</time>
      </trkpt>
      <trkpt lat="48.16054" lon="-3.32308">
        <ele>225.8</ele>
        <time>2024-11-20T11:49:56Z</time>
      </trkpt>
      <trkpt lat="48.16054" lon="-3.32308">
        <ele>225.8</ele>
        <time>2024-11-20T11:49:57Z</time>
      </trkpt>
      <trkpt lat="48.16054" lon="-3.32308">
        <ele>225.8</ele>
        <time>2024-11-20T11:49:58Z</time>
      </trkpt>
      <trkpt lat="48.16054" lon="-3.32308">
        <ele>225.8</ele>
        <time>2024-11-20T11:49:59Z</time>
      </trkpt>
      <trkpt lat="48.16054" lon="-3.32308">
        <ele>225.8</ele>
        <time>2024-11-20T11:50:00Z</time>
      </trkpt>
      <trkpt lat="48.16054" lon="-3.32308">
        <ele>225.8</ele>
        <time>2024-11-20T11:50:01Z</time>
      </trkpt>
      <trkpt lat="48.16054" lon="-3.32308">
        <ele>225.8</ele>
        <time>2024-11-20T11:50:02Z</time>
      </trkpt>
      <trkpt lat="48.16054" lon="-3.32308">
        <ele>225.8</ele>
        <time>2024-11-20T11:50:03Z</time>
      </trkpt>
      <trkpt lat="48.16054" lon="-3.32308">
        <ele>225.8</ele>
        <time>2024-11-20T11:50:04Z</time>
      </trkpt>
      <trkpt lat="48.16054" lon="-3.32308">
        <ele>225.8</ele>
        <time>2024-11-20T11:50:05Z</time>
      </trkpt>
      <trkpt lat="48.16054" lon="-3.32308">
        <ele>225.8</ele>
        <time>2024-11-20T11:50:06Z</time>
      </trkpt>
      <trkpt lat="48.16054" lon="-3.32308">
        <ele>225.8</ele>
        <time>2024-11-20T11:50:07Z</time>
      </trkpt>
      <trkpt lat="48.16054" lon="-3.32308">
        <ele>225.8</ele>
        <time>2024-11-20T11:50:08Z</time>
      </trkpt>
      <trkpt lat="48.16054" lon="-3.32308">
        <ele>225.8</ele>
        <time>2024-11-20T11:50:09Z</time>
      </trkpt>
      <trkpt lat="48.16054" lon="-3.32308">
        <ele>225.8</ele>
        <time>2024-11-20T11:50:10Z</time>
      </trkpt>
      <trkpt lat="48.16054" lon="-3.32308">
        <ele>225.8</ele>
        <time>2024-11-20T11:50:11Z</time>
      </trkpt>
      <trkpt lat="48.16054" lon="-3.32308">
        <ele>225.8</ele>
        <time>2024-11-20T11:50:12Z</time>
      </trkpt>
      <trkpt lat="48.16054" lon="-3.32308">
        <ele>225.8</ele>
        <time>2024-11-20T11:50:13Z</time>
      </trkpt>
      <trkpt lat="48.16054" lon="-3.32308">
        <ele>225.8</ele>
        <time>2024-11-20T11:50:14Z</time>
      </trkpt>
      <trkpt lat="48.16054" lon="-3.32308">
        <ele>225.8</ele>
        <time>2024-11-20T11:50:15Z</time>
      </trkpt>
      <trkpt lat="48.16054" lon="-3.32308">
        <ele>225.8</ele>
        <time>2024-11-20T11:50:16Z</time>
      </trkpt>
      <trkpt lat="48.16054" lon="-3.32308">
        <ele>225.8</ele>
        <time>2024-11-20T11:50:17Z</time>
      </trkpt>
      <trkpt lat="48.16054" lon="-3.32308">
        <ele>225.8</ele>
        <time>2024-11-20T11:50:18Z</time>
      </trkpt>
      <trkpt lat="48.16054" lon="-3.32308">
        <ele>225.8</ele>
        <time>2024-11-20T11:50:19Z</time>
      </trkpt>
      <trkpt lat="48.16054" lon="-3.32308">
        <ele>225.8</ele>
        <time>2024-11-20T11:50:20Z</time>
      </trkpt>
      <trkpt lat="48.16054" lon="-3.32308">
        <ele>225.8</ele>
        <time>2024-11-20T11:50:21Z</time>
      </trkpt>
      <trkpt lat="48.16054" lon="-3.32308">
        <ele>225.8</ele>
        <time>2024-11-20T11:50:22Z</time>
      </trkpt>
      <trkpt lat="48.16054" lon="-3.32308">
        <ele>225.8</ele>
        <time>2024-11-20T11:50:23Z</time>
      </trkpt>
      <trkpt lat="48.16054" lon="-3.32308">
        <ele>225.8</ele>
        <time>2024-11-20T11:50:24Z</time>
      </trkpt>
      <trkpt lat="48.16054" lon="-3.32308">
        <ele>225.8</ele>
        <time>2024-11-20T11:50:25Z</time>
      </trkpt>
      <trkpt lat="48.16054" lon="-3.32308">
        <ele>225.8</ele>
        <time>2024-11-20T11:50:26Z</time>
      </trkpt>
      <trkpt lat="48.16054" lon="-3.32308">
        <ele>225.8</ele>
        <time>2024-11-20T11:50:27Z</time>
      </trkpt>
      <trkpt lat="48.16054" lon="-3.32308">
        <ele>225.8</ele>
        <time>2024-11-20T11:50:28Z</time>
      </trkpt>
      <trkpt lat="48.16054" lon="-3.32308">
        <ele>225.8</ele>
        <time>2024-11-20T11:50:29Z</time>
      </trkpt>
      <trkpt lat="48.16054" lon="-3.32308">
        <ele>225.8</ele>
        <time>2024-11-20T11:50:30Z</time>
      </trkpt>
      <trkpt lat="48.16054" lon="-3.32308">
        <ele>225.8</ele>
        <time>2024-11-20T11:50:31Z</time>
      </trkpt>
      <trkpt lat="48.16054" lon="-3.32308">
        <ele>225.8</ele>
        <time>2024-11-20T11:50:32Z</time>
      </trkpt>
      <trkpt lat="48.16054" lon="-3.32308">
        <ele>225.8</ele>
        <time>2024-11-20T11:50:33Z</time>
      </trkpt>
      <trkpt lat="48.16054" lon="-3.32308">
        <ele>225.8</ele>
        <time>2024-11-20T11:50:34Z</time>
      </trkpt>
      <trkpt lat="48.16054" lon="-3.32308">
        <ele>225.8</ele>
        <time>2024-11-20T11:50:35Z</time>
      </trkpt>
      <trkpt lat="48.16054" lon="-3.32308">
        <ele>225.8</ele>
        <time>2024-11-20T11:50:36Z</time>
      </trkpt>
      <trkpt lat="48.16054" lon="-3.32308">
        <ele>225.8</ele>
        <time>2024-11-20T11:50:37Z</time>
      </trkpt>
      <trkpt lat="48.16054" lon="-3.32308">
        <ele>225.8</ele>
        <time>2024-11-20T11:50:38Z</time>
      </trkpt>
      <trkpt lat="48.16054" lon="-3.32308">
        <ele>225.8</ele>
        <time>2024-11-20T11:50:39Z</time>
      </trkpt>
      <trkpt lat="48.16054" lon="-3.32308">
        <ele>225.8</ele>
        <time>2024-11-20T11:50:40Z</time>
      </trkpt>
      <trkpt lat="48.16054" lon="-3.32308">
        <ele>225.8</ele>
        <time>2024-11-20T11:50:41Z</time>
      </trkpt>
      <trkpt lat="48.16054" lon="-3.32308">
        <ele>225.8</ele>
        <time>2024-11-20T11:50:42Z</time>
      </trkpt>
      <trkpt lat="48.16054" lon="-3.32308">
        <ele>225.8</ele>
        <time>2024-11-20T11:50:43Z</time>
      </trkpt>
      <trkpt lat="48.16054" lon="-3.32308">
        <ele>225.8</ele>
        <time>2024-11-20T11:50:44Z</time>
      </trkpt>
      <trkpt lat="48.16054" lon="-3.32308">
        <ele>225.8</ele>
        <time>2024-11-20T11:50:45Z</time>
      </trkpt>
      <trkpt lat="48.16054" lon="-3.32308">
        <ele>225.8</ele>
        <time>2024-11-20T11:50:46Z</time>
      </trkpt>
      <trkpt lat="48.16054" lon="-3.32308">
        <ele>225.8</ele>
        <time>2024-11-20T11:50:47Z</time>
      </trkpt>
      <trkpt lat="48.16054" lon="-3.32308">
        <ele>225.8</ele>
        <time>2024-11-20T11:50:48Z</time>
      </trkpt>
      <trkpt lat="48.16054" lon="-3.32308">
        <ele>225.8</ele>
        <time>2024-11-20T11:50:49Z</time>
      </trkpt>
      <trkpt lat="48.16054" lon="-3.32308">
        <ele>225.8</ele>
        <time>2024-11-20T11:50:50Z</time>
      </trkpt>
      <trkpt lat="48.16054" lon="-3.32308">
        <ele>225.8</ele>
        <time>2024-11-20T11:50:51Z</time>
      </trkpt>
      <trkpt lat="48.16054" lon="-3.32308">
        <ele>225.8</ele>
        <time>2024-11-20T11:50:52Z</time>
      </trkpt>
      <trkpt lat="48.16054" lon="-3.32308">
        <ele>225.8</ele>
        <time>2024-11-20T11:50:53Z</time>
      </trkpt>
      <trkpt lat="48.16054" lon="-3.32308">
        <ele>225.8</ele>
        <time>2024-11-20T11:50:54Z</time>
      </trkpt>
      <trkpt lat="48.16054" lon="-3.32308">
        <ele>225.8</ele>
        <time>2024-11-20T11:50:55Z</time>
      </trkpt>
      <trkpt lat="48.16054" lon="-3.32308">
        <ele>225.8</ele>
        <time>2024-11-20T11:50:56Z</time>
      </trkpt>
      <trkpt lat="48.16054" lon="-3.32308">
        <ele>225.8</ele>
        <time>2024-11-20T11:50:57Z</time>
      </trkpt>
      <trkpt lat="48.16054" lon="-3.32308">
        <ele>225.8</ele>
        <time>2024-11-20T11:50:58Z</time>
      </trkpt>
      <trkpt lat="48.16054" lon="-3.32308">
        <ele>225.8</ele>
        <time>2024-11-20T11:50:59Z</time>
      </trkpt>
      <trkpt lat="48.16054" lon="-3.32308">
        <ele>225.8</ele>
        <time>2024-11-20T11:51:00Z</time>
      </trkpt>
      <trkpt lat="48.16054" lon="-3.32308">
        <ele>225.8</ele>
        <time>2024-11-20T11:51:01Z</time>
      </trkpt>
      <trkpt lat="48.16054" lon="-3.32308">
        <ele>225.8</ele>
        <time>2024-11-20T11:51:02Z</time>
      </trkpt>
      <trkpt lat="48.16054" lon="-3.32308">
        <ele>225.8</ele>
        <time>2024-11-20T11:51:03Z</time>
      </trkpt>
      <trkpt lat="48.16054" lon="-3.32308">
        <ele>225.8</ele>
        <time>2024-11-20T11:51:05Z</time>
      </trkpt>
      <trkpt lat="48.16054" lon="-3.32308">
        <ele>225.8</ele>
        <time>2024-11-20T11:51:06Z</time>
      </trkpt>
      <trkpt lat="48.16054" lon="-3.32308">
        <ele>225.8</ele>
        <time>2024-11-20T11:51:07Z</time>
      </trkpt>
      <trkpt lat="48.16054" lon="-3.32308">
        <ele>225.8</ele>
        <time>2024-11-20T11:51:08Z</time>
      </trkpt>
      <trkpt lat="48.16054" lon="-3.32308">
        <ele>225.8</ele>
        <time>2024-11-20T11:51:09Z</time>
      </trkpt>
      <trkpt lat="48.16054" lon="-3.32308">
        <ele>225.8</ele>
        <time>2024-11-20T11:51:10Z</time>
      </trkpt>
      <trkpt lat="48.16054" lon="-3.32308">
        <ele>225.8</ele>
        <time>2024-11-20T11:51:11Z</time>
      </trkpt>
      <trkpt lat="48.16054" lon="-3.32308">
        <ele>225.8</ele>
        <time>2024-11-20T11:51:12Z</time>
      </trkpt>
      <trkpt lat="48.16054" lon="-3.32308">
        <ele>225.8</ele>
        <time>2024-11-20T11:51:13Z</time>
      </trkpt>
      <trkpt lat="48.16054" lon="-3.32308">
        <ele>225.8</ele>
        <time>2024-11-20T11:51:14Z</time>
      </trkpt>
      <trkpt lat="48.16054" lon="-3.32308">
        <ele>225.8</ele>
        <time>2024-11-20T11:51:15Z</time>
      </trkpt>
      <trkpt lat="48.16054" lon="-3.32308">
        <ele>225.8</ele>
        <time>2024-11-20T11:51:16Z</time>
      </trkpt>
      <trkpt lat="48.16054" lon="-3.32308">
        <ele>225.8</ele>
        <time>2024-11-20T11:51:17Z</time>
      </trkpt>
      <trkpt lat="48.16054" lon="-3.32308">
        <ele>225.8</ele>
        <time>2024-11-20T11:51:18Z</time>
      </trkpt>
      <trkpt lat="48.16054" lon="-3.32308">
        <ele>225.8</ele>
        <time>2024-11-20T11:51:19Z</time>
      </trkpt>
      <trkpt lat="48.16054" lon="-3.32308">
        <ele>225.8</ele>
        <time>2024-11-20T11:51:20Z</time>
      </trkpt>
      <trkpt lat="48.16054" lon="-3.32308">
        <ele>225.8</ele>
        <time>2024-11-20T11:51:21Z</time>
      </trkpt>
      <trkpt lat="48.16054" lon="-3.32308">
        <ele>225.8</ele>
        <time>2024-11-20T11:51:22Z</time>
      </trkpt>
      <trkpt lat="48.16054" lon="-3.32308">
        <ele>225.8</ele>
        <time>2024-11-20T11:51:23Z</time>
      </trkpt>
      <trkpt lat="48.16054" lon="-3.32308">
        <ele>225.8</ele>
        <time>2024-11-20T11:51:24Z</time>
      </trkpt>
      <trkpt lat="48.16054" lon="-3.32308">
        <ele>225.8</ele>
        <time>2024-11-20T11:51:25Z</time>
      </trkpt>
      <trkpt lat="48.16054" lon="-3.32308">
        <ele>225.8</ele>
        <time>2024-11-20T11:51:26Z</time>
      </trkpt>
      <trkpt lat="48.16054" lon="-3.32308">
        <ele>225.8</ele>
        <time>2024-11-20T11:51:27Z</time>
      </trkpt>
      <trkpt lat="48.16054" lon="-3.32308">
        <ele>225.8</ele>
        <time>2024-11-20T11:51:28Z</time>
      </trkpt>
      <trkpt lat="48.16054" lon="-3.32308">
        <ele>225.8</ele>
        <time>2024-11-20T11:51:29Z</time>
      </trkpt>
      <trkpt lat="48.16054" lon="-3.32308">
        <ele>225.8</ele>
        <time>2024-11-20T11:51:30Z</time>
      </trkpt>
      <trkpt lat="48.16054" lon="-3.32308">
        <ele>225.8</ele>
        <time>2024-11-20T11:51:31Z</time>
      </trkpt>
      <trkpt lat="48.16054" lon="-3.32308">
        <ele>225.8</ele>
        <time>2024-11-20T11:51:32Z</time>
      </trkpt>
      <trkpt lat="48.16054" lon="-3.32308">
        <ele>225.8</ele>
        <time>2024-11-20T11:51:33Z</time>
      </trkpt>
      <trkpt lat="48.16054" lon="-3.32308">
        <ele>225.8</ele>
        <time>2024-11-20T11:51:34Z</time>
      </trkpt>
      <trkpt lat="48.16054" lon="-3.32308">
        <ele>225.8</ele>
        <time>2024-11-20T11:51:35Z</time>
      </trkpt>
      <trkpt lat="48.16054" lon="-3.32308">
        <ele>225.8</ele>
        <time>2024-11-20T11:51:36Z</time>
      </trkpt>
      <trkpt lat="48.16054" lon="-3.32308">
        <ele>225.8</ele>
        <time>2024-11-20T11:51:37Z</time>
      </trkpt>
      <trkpt lat="48.16054" lon="-3.32308">
        <ele>225.8</ele>
        <time>2024-11-20T11:51:38Z</time>
      </trkpt>
      <trkpt lat="48.16054" lon="-3.32308">
        <ele>225.8</ele>
        <time>2024-11-20T11:51:39Z</time>
      </trkpt>
      <trkpt lat="48.16054" lon="-3.32308">
        <ele>225.8</ele>
        <time>2024-11-20T11:51:40Z</time>
      </trkpt>
      <trkpt lat="48.16054" lon="-3.32308">
        <ele>225.8</ele>
        <time>2024-11-20T11:51:41Z</time>
      </trkpt>
      <trkpt lat="48.16054" lon="-3.32308">
        <ele>225.8</ele>
        <time>2024-11-20T11:51:42Z</time>
      </trkpt>
      <trkpt lat="48.16054" lon="-3.32308">
        <ele>225.8</ele>
        <time>2024-11-20T11:51:43Z</time>
      </trkpt>
      <trkpt lat="48.16054" lon="-3.32308">
        <ele>225.8</ele>
        <time>2024-11-20T11:51:44Z</time>
      </trkpt>
      <trkpt lat="48.16054" lon="-3.32308">
        <ele>225.8</ele>
        <time>2024-11-20T11:51:46Z</time>
      </trkpt>
      <trkpt lat="48.16054" lon="-3.32308">
        <ele>225.8</ele>
        <time>2024-11-20T11:51:47Z</time>
      </trkpt>
      <trkpt lat="48.16054" lon="-3.32308">
        <ele>225.8</ele>
        <time>2024-11-20T11:51:48Z</time>
      </trkpt>
      <trkpt lat="48.16054" lon="-3.32308">
        <ele>225.8</ele>
        <time>2024-11-20T11:51:49Z</time>
      </trkpt>
      <trkpt lat="48.16054" lon="-3.32308">
        <ele>225.8</ele>
        <time>2024-11-20T11:51:50Z</time>
      </trkpt>
      <trkpt lat="48.16054" lon="-3.32308">
        <ele>225.8</ele>
        <time>2024-11-20T11:51:51Z</time>
      </trkpt>
      <trkpt lat="48.16054" lon="-3.32308">
        <ele>225.8</ele>
        <time>2024-11-20T11:51:52Z</time>
      </trkpt>
      <trkpt lat="48.16054" lon="-3.32308">
        <ele>225.8</ele>
        <time>2024-11-20T11:51:53Z</time>
      </trkpt>
      <trkpt lat="48.16054" lon="-3.32308">
        <ele>225.8</ele>
        <time>2024-11-20T11:51:54Z</time>
      </trkpt>
      <trkpt lat="48.16054" lon="-3.32308">
        <ele>225.8</ele>
        <time>2024-11-20T11:51:55Z</time>
      </trkpt>
      <trkpt lat="48.16054" lon="-3.32308">
        <ele>225.8</ele>
        <time>2024-11-20T11:51:56Z</time>
      </trkpt>
      <trkpt lat="48.16054" lon="-3.32308">
        <ele>225.8</ele>
        <time>2024-11-20T11:51:57Z</time>
      </trkpt>
      <trkpt lat="48.16054" lon="-3.32308">
        <ele>225.8</ele>
        <time>2024-11-20T11:51:58Z</time>
      </trkpt>
      <trkpt lat="48.16054" lon="-3.32308">
        <ele>225.8</ele>
        <time>2024-11-20T11:51:59Z</time>
      </trkpt>
      <trkpt lat="48.16054" lon="-3.32308">
        <ele>225.8</ele>
        <time>2024-11-20T11:52:00Z</time>
      </trkpt>
      <trkpt lat="48.16054" lon="-3.32308">
        <ele>225.8</ele>
        <time>2024-11-20T11:52:01Z</time>
      </trkpt>
      <trkpt lat="48.16054" lon="-3.32308">
        <ele>225.8</ele>
        <time>2024-11-20T11:52:02Z</time>
      </trkpt>
      <trkpt lat="48.16054" lon="-3.32308">
        <ele>225.8</ele>
        <time>2024-11-20T11:52:03Z</time>
      </trkpt>
      <trkpt lat="48.16054" lon="-3.32308">
        <ele>225.8</ele>
        <time>2024-11-20T11:52:04Z</time>
      </trkpt>
      <trkpt lat="48.16054" lon="-3.32308">
        <ele>225.8</ele>
        <time>2024-11-20T11:52:05Z</time>
      </trkpt>
      <trkpt lat="48.16054" lon="-3.32308">
        <ele>225.8</ele>
        <time>2024-11-20T11:52:06Z</time>
      </trkpt>
      <trkpt lat="48.16054" lon="-3.32308">
        <ele>225.8</ele>
        <time>2024-11-20T11:52:07Z</time>
      </trkpt>
      <trkpt lat="48.16054" lon="-3.32308">
        <ele>225.8</ele>
        <time>2024-11-20T11:52:08Z</time>
      </trkpt>
      <trkpt lat="48.16054" lon="-3.32308">
        <ele>225.8</ele>
        <time>2024-11-20T11:52:09Z</time>
      </trkpt>
      <trkpt lat="48.16054" lon="-3.32308">
        <ele>225.8</ele>
        <time>2024-11-20T11:52:10Z</time>
      </trkpt>
      <trkpt lat="48.16054" lon="-3.32308">
        <ele>225.8</ele>
        <time>2024-11-20T11:52:11Z</time>
      </trkpt>
      <trkpt lat="48.16054" lon="-3.32308">
        <ele>225.8</ele>
        <time>2024-11-20T11:52:12Z</time>
      </trkpt>
      <trkpt lat="48.16054" lon="-3.32308">
        <ele>225.8</ele>
        <time>2024-11-20T11:52:13Z</time>
      </trkpt>
      <trkpt lat="48.16054" lon="-3.32308">
        <ele>225.8</ele>
        <time>2024-11-20T11:52:14Z</time>
      </trkpt>
      <trkpt lat="48.16054" lon="-3.32308">
        <ele>225.8</ele>
        <time>2024-11-20T11:52:15Z</time>
      </trkpt>
      <trkpt lat="48.16054" lon="-3.32308">
        <ele>225.8</ele>
        <time>2024-11-20T11:52:16Z</time>
      </trkpt>
      <trkpt lat="48.16054" lon="-3.32308">
        <ele>225.8</ele>
        <time>2024-11-20T11:52:17Z</time>
      </trkpt>
      <trkpt lat="48.16054" lon="-3.32308">
        <ele>225.8</ele>
        <time>2024-11-20T11:52:18Z</time>
      </trkpt>
      <trkpt lat="48.16054" lon="-3.32308">
        <ele>225.8</ele>
        <time>2024-11-20T11:52:19Z</time>
      </trkpt>
      <trkpt lat="48.16054" lon="-3.32308">
        <ele>225.8</ele>
        <time>2024-11-20T11:52:20Z</time>
      </trkpt>
      <trkpt lat="48.16054" lon="-3.32308">
        <ele>225.8</ele>
        <time>2024-11-20T11:52:21Z</time>
      </trkpt>
      <trkpt lat="48.16054" lon="-3.32308">
        <ele>225.8</ele>
        <time>2024-11-20T11:52:22Z</time>
      </trkpt>
      <trkpt lat="48.16054" lon="-3.32308">
        <ele>225.8</ele>
        <time>2024-11-20T11:52:23Z</time>
      </trkpt>
      <trkpt lat="48.16054" lon="-3.32308">
        <ele>225.8</ele>
        <time>2024-11-20T11:52:24Z</time>
      </trkpt>
      <trkpt lat="48.16054" lon="-3.32308">
        <ele>225.8</ele>
        <time>2024-11-20T11:52:25Z</time>
      </trkpt>
      <trkpt lat="48.16054" lon="-3.32308">
        <ele>225.8</ele>
        <time>2024-11-20T11:52:26Z</time>
      </trkpt>
      <trkpt lat="48.16054" lon="-3.32308">
        <ele>225.8</ele>
        <time>2024-11-20T11:52:27Z</time>
      </trkpt>
      <trkpt lat="48.16054" lon="-3.32308">
        <ele>225.8</ele>
        <time>2024-11-20T11:52:28Z</time>
      </trkpt>
      <trkpt lat="48.16054" lon="-3.32308">
        <ele>225.8</ele>
        <time>2024-11-20T11:52:29Z</time>
      </trkpt>
      <trkpt lat="48.16054" lon="-3.32308">
        <ele>225.8</ele>
        <time>2024-11-20T11:52:30Z</time>
      </trkpt>
      <trkpt lat="48.16054" lon="-3.32308">
        <ele>225.8</ele>
        <time>2024-11-20T11:52:31Z</time>
      </trkpt>
      <trkpt lat="48.16054" lon="-3.32308">
        <ele>225.8</ele>
        <time>2024-11-20T11:52:32Z</time>
      </trkpt>
      <trkpt lat="48.16054" lon="-3.32308">
        <ele>225.8</ele>
        <time>2024-11-20T11:52:33Z</time>
      </trkpt>
      <trkpt lat="48.16054" lon="-3.32308">
        <ele>225.8</ele>
        <time>2024-11-20T11:52:34Z</time>
      </trkpt>
      <trkpt lat="48.16054" lon="-3.32308">
        <ele>225.8</ele>
        <time>2024-11-20T11:52:35Z</time>
      </trkpt>
      <trkpt lat="48.16054" lon="-3.32308">
        <ele>225.8</ele>
        <time>2024-11-20T11:52:36Z</time>
      </trkpt>
      <trkpt lat="48.16054" lon="-3.32308">
        <ele>225.8</ele>
        <time>2024-11-20T11:52:37Z</time>
      </trkpt>
      <trkpt lat="48.16054" lon="-3.32308">
        <ele>225.8</ele>
        <time>2024-11-20T11:52:38Z</time>
      </trkpt>
      <trkpt lat="48.16054" lon="-3.32308">
        <ele>225.8</ele>
        <time>2024-11-20T11:52:39Z</time>
      </trkpt>
      <trkpt lat="48.16054" lon="-3.32308">
        <ele>225.8</ele>
        <time>2024-11-20T11:52:40Z</time>
      </trkpt>
      <trkpt lat="48.16054" lon="-3.32308">
        <ele>225.8</ele>
        <time>2024-11-20T11:52:41Z</time>
      </trkpt>
      <trkpt lat="48.16054" lon="-3.32308">
        <ele>225.8</ele>
        <time>2024-11-20T11:52:42Z</time>
      </trkpt>
      <trkpt lat="48.16054" lon="-3.32308">
        <ele>225.8</ele>
        <time>2024-11-20T11:52:43Z</time>
      </trkpt>
      <trkpt lat="48.16054" lon="-3.32308">
        <ele>225.8</ele>
        <time>2024-11-20T11:52:44Z</time>
      </trkpt>
      <trkpt lat="48.16054" lon="-3.32308">
        <ele>225.8</ele>
        <time>2024-11-20T11:52:45Z</time>
      </trkpt>
      <trkpt lat="48.16054" lon="-3.32308">
        <ele>225.8</ele>
        <time>2024-11-20T11:52:46Z</time>
      </trkpt>
      <trkpt lat="48.16054" lon="-3.32308">
        <ele>225.8</ele>
        <time>2024-11-20T11:52:47Z</time>
      </trkpt>
      <trkpt lat="48.16054" lon="-3.32308">
        <ele>225.8</ele>
        <time>2024-11-20T11:52:48Z</time>
      </trkpt>
      <trkpt lat="48.16054" lon="-3.32308">
        <ele>225.8</ele>
        <time>2024-11-20T11:52:49Z</time>
      </trkpt>
      <trkpt lat="48.16054" lon="-3.32308">
        <ele>225.8</ele>
        <time>2024-11-20T11:52:50Z</time>
      </trkpt>
      <trkpt lat="48.16054" lon="-3.32308">
        <ele>225.8</ele>
        <time>2024-11-20T11:52:51Z</time>
      </trkpt>
      <trkpt lat="48.16054" lon="-3.32308">
        <ele>225.8</ele>
        <time>2024-11-20T11:52:52Z</time>
      </trkpt>
      <trkpt lat="48.16054" lon="-3.32308">
        <ele>225.8</ele>
        <time>2024-11-20T11:52:53Z</time>
      </trkpt>
      <trkpt lat="48.16054" lon="-3.32308">
        <ele>225.8</ele>
        <time>2024-11-20T11:52:54Z</time>
      </trkpt>
      <trkpt lat="48.16054" lon="-3.32308">
        <ele>225.8</ele>
        <time>2024-11-20T11:52:55Z</time>
      </trkpt>
      <trkpt lat="48.16054" lon="-3.32308">
        <ele>225.8</ele>
        <time>2024-11-20T11:52:56Z</time>
      </trkpt>
      <trkpt lat="48.16054" lon="-3.32308">
        <ele>225.8</ele>
        <time>2024-11-20T11:52:57Z</time>
      </trkpt>
      <trkpt lat="48.16054" lon="-3.32308">
        <ele>225.8</ele>
        <time>2024-11-20T11:52:58Z</time>
      </trkpt>
      <trkpt lat="48.16054" lon="-3.32308">
        <ele>225.8</ele>
        <time>2024-11-20T11:52:59Z</time>
      </trkpt>
      <trkpt lat="48.16054" lon="-3.32308">
        <ele>225.8</ele>
        <time>2024-11-20T11:53:00Z</time>
      </trkpt>
      <trkpt lat="48.16054" lon="-3.32308">
        <ele>225.8</ele>
        <time>2024-11-20T11:53:01Z</time>
      </trkpt>
      <trkpt lat="48.16054" lon="-3.32308">
        <ele>225.8</ele>
        <time>2024-11-20T11:53:02Z</time>
      </trkpt>
      <trkpt lat="48.16054" lon="-3.32308">
        <ele>225.8</ele>
        <time>2024-11-20T11:53:03Z</time>
      </trkpt>
      <trkpt lat="48.16054" lon="-3.32308">
        <ele>225.8</ele>
        <time>2024-11-20T11:53:04Z</time>
      </trkpt>
      <trkpt lat="48.16054" lon="-3.32308">
        <ele>225.8</ele>
        <time>2024-11-20T11:53:05Z</time>
      </trkpt>
      <trkpt lat="48.16054" lon="-3.32308">
        <ele>225.8</ele>
        <time>2024-11-20T11:53:06Z</time>
      </trkpt>
      <trkpt lat="48.16054" lon="-3.32308">
        <ele>225.8</ele>
        <time>2024-11-20T11:53:07Z</time>
      </trkpt>
      <trkpt lat="48.16054" lon="-3.32308">
        <ele>225.8</ele>
        <time>2024-11-20T11:53:08Z</time>
      </trkpt>
      <trkpt lat="48.16054" lon="-3.32308">
        <ele>225.8</ele>
        <time>2024-11-20T11:53:09Z</time>
      </trkpt>
      <trkpt lat="48.16054" lon="-3.32308">
        <ele>225.8</ele>
        <time>2024-11-20T11:53:10Z</time>
      </trkpt>
      <trkpt lat="48.16054" lon="-3.32308">
        <ele>225.8</ele>
        <time>2024-11-20T11:53:11Z</time>
      </trkpt>
      <trkpt lat="48.16054" lon="-3.32308">
        <ele>225.8</ele>
        <time>2024-11-20T11:53:12Z</time>
      </trkpt>
      <trkpt lat="48.16054" lon="-3.32308">
        <ele>225.8</ele>
        <time>2024-11-20T11:53:13Z</time>
      </trkpt>
      <trkpt lat="48.16054" lon="-3.32308">
        <ele>225.8</ele>
        <time>2024-11-20T11:53:14Z</time>
      </trkpt>
      <trkpt lat="48.16054" lon="-3.32308">
        <ele>225.8</ele>
        <time>2024-11-20T11:53:15Z</time>
      </trkpt>
      <trkpt lat="48.16054" lon="-3.32308">
        <ele>225.8</ele>
        <time>2024-11-20T11:53:16Z</time>
      </trkpt>
      <trkpt lat="48.16054" lon="-3.32308">
        <ele>225.8</ele>
        <time>2024-11-20T11:53:17Z</time>
      </trkpt>
      <trkpt lat="48.16054" lon="-3.32308">
        <ele>225.8</ele>
        <time>2024-11-20T11:53:18Z</time>
      </trkpt>
      <trkpt lat="48.16054" lon="-3.32308">
        <ele>225.8</ele>
        <time>2024-11-20T11:53:19Z</time>
      </trkpt>
      <trkpt lat="48.16054" lon="-3.32308">
        <ele>225.8</ele>
        <time>2024-11-20T11:53:20Z</time>
      </trkpt>
      <trkpt lat="48.16054" lon="-3.32308">
        <ele>225.8</ele>
        <time>2024-11-20T11:53:21Z</time>
      </trkpt>
      <trkpt lat="48.16054" lon="-3.32308">
        <ele>225.8</ele>
        <time>2024-11-20T11:53:22Z</time>
      </trkpt>
      <trkpt lat="48.16054" lon="-3.32308">
        <ele>225.8</ele>
        <time>2024-11-20T11:53:23Z</time>
      </trkpt>
      <trkpt lat="48.16054" lon="-3.32308">
        <ele>225.8</ele>
        <time>2024-11-20T11:53:24Z</time>
      </trkpt>
      <trkpt lat="48.16054" lon="-3.32308">
        <ele>225.8</ele>
        <time>2024-11-20T11:53:25Z</time>
      </trkpt>
      <trkpt lat="48.16054" lon="-3.32308">
        <ele>225.8</ele>
        <time>2024-11-20T11:53:26Z</time>
      </trkpt>
      <trkpt lat="48.16054" lon="-3.32308">
        <ele>225.8</ele>
        <time>2024-11-20T11:53:27Z</time>
      </trkpt>
      <trkpt lat="48.16054" lon="-3.32308">
        <ele>225.8</ele>
        <time>2024-11-20T11:53:28Z</time>
      </trkpt>
      <trkpt lat="48.16054" lon="-3.32308">
        <ele>225.8</ele>
        <time>2024-11-20T11:53:29Z</time>
      </trkpt>
      <trkpt lat="48.16054" lon="-3.32308">
        <ele>225.8</ele>
        <time>2024-11-20T11:53:30Z</time>
      </trkpt>
      <trkpt lat="48.16054" lon="-3.32308">
        <ele>225.8</ele>
        <time>2024-11-20T11:53:31Z</time>
      </trkpt>
      <trkpt lat="48.16054" lon="-3.32308">
        <ele>225.8</ele>
        <time>2024-11-20T11:53:32Z</time>
      </trkpt>
      <trkpt lat="48.16054" lon="-3.32308">
        <ele>225.8</ele>
        <time>2024-11-20T11:53:33Z</time>
      </trkpt>
      <trkpt lat="48.16054" lon="-3.32308">
        <ele>225.8</ele>
        <time>2024-11-20T11:53:34Z</time>
      </trkpt>
      <trkpt lat="48.16054" lon="-3.32308">
        <ele>225.8</ele>
        <time>2024-11-20T11:53:35Z</time>
      </trkpt>
      <trkpt lat="48.16054" lon="-3.32308">
        <ele>225.8</ele>
        <time>2024-11-20T11:53:36Z</time>
      </trkpt>
      <trkpt lat="48.16054" lon="-3.32308">
        <ele>225.8</ele>
        <time>2024-11-20T11:53:37Z</time>
      </trkpt>
      <trkpt lat="48.16054" lon="-3.32308">
        <ele>225.8</ele>
        <time>2024-11-20T11:53:38Z</time>
      </trkpt>
      <trkpt lat="48.16054" lon="-3.32308">
        <ele>225.8</ele>
        <time>2024-11-20T11:53:39Z</time>
      </trkpt>
      <trkpt lat="48.16054" lon="-3.32308">
        <ele>225.8</ele>
        <time>2024-11-20T11:53:40Z</time>
      </trkpt>
      <trkpt lat="48.16054" lon="-3.32308">
        <ele>225.8</ele>
        <time>2024-11-20T11:53:41Z</time>
      </trkpt>
      <trkpt lat="48.16054" lon="-3.32308">
        <ele>225.8</ele>
        <time>2024-11-20T11:53:42Z</time>
      </trkpt>
      <trkpt lat="48.16054" lon="-3.32308">
        <ele>225.8</ele>
        <time>2024-11-20T11:53:43Z</time>
      </trkpt>
      <trkpt lat="48.16054" lon="-3.32308">
        <ele>225.8</ele>
        <time>2024-11-20T11:53:44Z</time>
      </trkpt>
      <trkpt lat="48.16054" lon="-3.32308">
        <ele>225.8</ele>
        <time>2024-11-20T11:53:45Z</time>
      </trkpt>
      <trkpt lat="48.16054" lon="-3.32308">
        <ele>225.8</ele>
        <time>2024-11-20T11:53:46Z</time>
      </trkpt>
      <trkpt lat="48.16054" lon="-3.32308">
        <ele>225.8</ele>
        <time>2024-11-20T11:53:47Z</time>
      </trkpt>
      <trkpt lat="48.16054" lon="-3.32308">
        <ele>225.8</ele>
        <time>2024-11-20T11:53:48Z</time>
      </trkpt>
      <trkpt lat="48.16054" lon="-3.32308">
        <ele>225.8</ele>
        <time>2024-11-20T11:53:49Z</time>
      </trkpt>
      <trkpt lat="48.16054" lon="-3.32308">
        <ele>225.8</ele>
        <time>2024-11-20T11:53:50Z</time>
      </trkpt>
      <trkpt lat="48.16054" lon="-3.32308">
        <ele>225.8</ele>
        <time>2024-11-20T11:53:51Z</time>
      </trkpt>
      <trkpt lat="48.16054" lon="-3.32308">
        <ele>225.8</ele>
        <time>2024-11-20T11:53:52Z</time>
      </trkpt>
      <trkpt lat="48.16054" lon="-3.32308">
        <ele>225.8</ele>
        <time>2024-11-20T11:53:53Z</time>
      </trkpt>
      <trkpt lat="48.16054" lon="-3.32308">
        <ele>225.8</ele>
        <time>2024-11-20T11:53:54Z</time>
      </trkpt>
      <trkpt lat="48.16054" lon="-3.32308">
        <ele>225.8</ele>
        <time>2024-11-20T11:53:55Z</time>
      </trkpt>
      <trkpt lat="48.16054" lon="-3.32308">
        <ele>225.8</ele>
        <time>2024-11-20T11:53:56Z</time>
      </trkpt>
      <trkpt lat="48.16054" lon="-3.32308">
        <ele>225.8</ele>
        <time>2024-11-20T11:53:57Z</time>
      </trkpt>
      <trkpt lat="48.16054" lon="-3.32308">
        <ele>225.8</ele>
        <time>2024-11-20T11:53:58Z</time>
      </trkpt>
      <trkpt lat="48.16054" lon="-3.32308">
        <ele>225.8</ele>
        <time>2024-11-20T11:53:59Z</time>
      </trkpt>
      <trkpt lat="48.16054" lon="-3.32308">
        <ele>225.8</ele>
        <time>2024-11-20T11:54:00Z</time>
      </trkpt>
      <trkpt lat="48.16054" lon="-3.32308">
        <ele>225.8</ele>
        <time>2024-11-20T11:54:01Z</time>
      </trkpt>
      <trkpt lat="48.16054" lon="-3.32308">
        <ele>225.8</ele>
        <time>2024-11-20T11:54:02Z</time>
      </trkpt>
      <trkpt lat="48.16054" lon="-3.32308">
        <ele>225.8</ele>
        <time>2024-11-20T11:54:03Z</time>
      </trkpt>
      <trkpt lat="48.16054" lon="-3.32308">
        <ele>225.8</ele>
        <time>2024-11-20T11:54:04Z</time>
      </trkpt>
      <trkpt lat="48.16054" lon="-3.32308">
        <ele>225.8</ele>
        <time>2024-11-20T11:54:05Z</time>
      </trkpt>
      <trkpt lat="48.16054" lon="-3.32308">
        <ele>225.8</ele>
        <time>2024-11-20T11:54:06Z</time>
      </trkpt>
      <trkpt lat="48.16054" lon="-3.32308">
        <ele>225.8</ele>
        <time>2024-11-20T11:54:07Z</time>
      </trkpt>
      <trkpt lat="48.16054" lon="-3.32308">
        <ele>225.8</ele>
        <time>2024-11-20T11:54:08Z</time>
      </trkpt>
      <trkpt lat="48.16054" lon="-3.32308">
        <ele>225.8</ele>
        <time>2024-11-20T11:54:09Z</time>
      </trkpt>
      <trkpt lat="48.16054" lon="-3.32308">
        <ele>225.8</ele>
        <time>2024-11-20T11:54:10Z</time>
      </trkpt>
      <trkpt lat="48.16054" lon="-3.32308">
        <ele>225.8</ele>
        <time>2024-11-20T11:54:11Z</time>
      </trkpt>
      <trkpt lat="48.16054" lon="-3.32308">
        <ele>225.8</ele>
        <time>2024-11-20T11:54:12Z</time>
      </trkpt>
      <trkpt lat="48.16054" lon="-3.32308">
        <ele>225.8</ele>
        <time>2024-11-20T11:54:13Z</time>
      </trkpt>
      <trkpt lat="48.16054" lon="-3.32308">
        <ele>225.8</ele>
        <time>2024-11-20T11:54:14Z</time>
      </trkpt>
      <trkpt lat="48.16054" lon="-3.32308">
        <ele>225.8</ele>
        <time>2024-11-20T11:54:15Z</time>
      </trkpt>
      <trkpt lat="48.16054" lon="-3.32308">
        <ele>225.8</ele>
        <time>2024-11-20T11:54:16Z</time>
      </trkpt>
      <trkpt lat="48.16054" lon="-3.32308">
        <ele>225.8</ele>
        <time>2024-11-20T11:54:17Z</time>
      </trkpt>
      <trkpt lat="48.16054" lon="-3.32308">
        <ele>225.8</ele>
        <time>2024-11-20T11:54:18Z</time>
      </trkpt>
      <trkpt lat="48.16054" lon="-3.32308">
        <ele>225.8</ele>
        <time>2024-11-20T11:54:19Z</time>
      </trkpt>
      <trkpt lat="48.16054" lon="-3.32308">
        <ele>225.8</ele>
        <time>2024-11-20T11:54:20Z</time>
      </trkpt>
      <trkpt lat="48.16054" lon="-3.32308">
        <ele>225.8</ele>
        <time>2024-11-20T11:54:21Z</time>
      </trkpt>
      <trkpt lat="48.16054" lon="-3.32308">
        <ele>225.8</ele>
        <time>2024-11-20T11:54:22Z</time>
      </trkpt>
      <trkpt lat="48.16054" lon="-3.32308">
        <ele>225.8</ele>
        <time>2024-11-20T11:54:23Z</time>
      </trkpt>
      <trkpt lat="48.16054" lon="-3.32308">
        <ele>225.8</ele>
        <time>2024-11-20T11:54:24Z</time>
      </trkpt>
      <trkpt lat="48.16054" lon="-3.32308">
        <ele>225.8</ele>
        <time>2024-11-20T11:54:25Z</time>
      </trkpt>
      <trkpt lat="48.16054" lon="-3.32308">
        <ele>225.8</ele>
        <time>2024-11-20T11:54:26Z</time>
      </trkpt>
      <trkpt lat="48.16054" lon="-3.32308">
        <ele>225.8</ele>
        <time>2024-11-20T11:54:27Z</time>
      </trkpt>
      <trkpt lat="48.16054" lon="-3.32308">
        <ele>225.8</ele>
        <time>2024-11-20T11:54:28Z</time>
      </trkpt>
      <trkpt lat="48.16054" lon="-3.32308">
        <ele>225.8</ele>
        <time>2024-11-20T11:54:29Z</time>
      </trkpt>
      <trkpt lat="48.16054" lon="-3.32308">
        <ele>225.8</ele>
        <time>2024-11-20T11:54:30Z</time>
      </trkpt>
      <trkpt lat="48.16054" lon="-3.32308">
        <ele>225.8</ele>
        <time>2024-11-20T11:54:31Z</time>
      </trkpt>
      <trkpt lat="48.16054" lon="-3.32308">
        <ele>225.8</ele>
        <time>2024-11-20T11:54:32Z</time>
      </trkpt>
      <trkpt lat="48.16054" lon="-3.32308">
        <ele>225.8</ele>
        <time>2024-11-20T11:54:33Z</time>
      </trkpt>
      <trkpt lat="48.16054" lon="-3.32308">
        <ele>225.8</ele>
        <time>2024-11-20T11:54:34Z</time>
      </trkpt>
      <trkpt lat="48.16054" lon="-3.32308">
        <ele>225.8</ele>
        <time>2024-11-20T11:54:35Z</time>
      </trkpt>
      <trkpt lat="48.16054" lon="-3.32308">
        <ele>225.8</ele>
        <time>2024-11-20T11:54:36Z</time>
      </trkpt>
      <trkpt lat="48.16054" lon="-3.32308">
        <ele>225.8</ele>
        <time>2024-11-20T11:54:37Z</time>
      </trkpt>
      <trkpt lat="48.16054" lon="-3.32308">
        <ele>225.8</ele>
        <time>2024-11-20T11:54:38Z</time>
      </trkpt>
      <trkpt lat="48.16054" lon="-3.32308">
        <ele>225.8</ele>
        <time>2024-11-20T11:54:39Z</time>
      </trkpt>
      <trkpt lat="48.16054" lon="-3.32308">
        <ele>225.8</ele>
        <time>2024-11-20T11:54:40Z</time>
      </trkpt>
      <trkpt lat="48.16054" lon="-3.32308">
        <ele>225.8</ele>
        <time>2024-11-20T11:54:41Z</time>
      </trkpt>
      <trkpt lat="48.16054" lon="-3.32308">
        <ele>225.8</ele>
        <time>2024-11-20T11:54:42Z</time>
      </trkpt>
      <trkpt lat="48.16054" lon="-3.32308">
        <ele>225.8</ele>
        <time>2024-11-20T11:54:43Z</time>
      </trkpt>
      <trkpt lat="48.16054" lon="-3.32308">
        <ele>225.8</ele>
        <time>2024-11-20T11:54:44Z</time>
      </trkpt>
      <trkpt lat="48.16054" lon="-3.32308">
        <ele>225.8</ele>
        <time>2024-11-20T11:54:45Z</time>
      </trkpt>
      <trkpt lat="48.16054" lon="-3.32308">
        <ele>225.8</ele>
        <time>2024-11-20T11:54:46Z</time>
      </trkpt>
      <trkpt lat="48.16054" lon="-3.32308">
        <ele>225.8</ele>
        <time>2024-11-20T11:54:47Z</time>
      </trkpt>
      <trkpt lat="48.16054" lon="-3.32308">
        <ele>225.8</ele>
        <time>2024-11-20T11:54:48Z</time>
      </trkpt>
      <trkpt lat="48.16054" lon="-3.32308">
        <ele>225.8</ele>
        <time>2024-11-20T11:54:49Z</time>
      </trkpt>
      <trkpt lat="48.16054" lon="-3.32308">
        <ele>225.8</ele>
        <time>2024-11-20T11:54:50Z</time>
      </trkpt>
      <trkpt lat="48.16054" lon="-3.32308">
        <ele>225.8</ele>
        <time>2024-11-20T11:54:51Z</time>
      </trkpt>
      <trkpt lat="48.16054" lon="-3.32308">
        <ele>225.8</ele>
        <time>2024-11-20T11:54:52Z</time>
      </trkpt>
      <trkpt lat="48.16054" lon="-3.32308">
        <ele>225.8</ele>
        <time>2024-11-20T11:54:53Z</time>
      </trkpt>
      <trkpt lat="48.16054" lon="-3.32308">
        <ele>225.8</ele>
        <time>2024-11-20T11:54:54Z</time>
      </trkpt>
      <trkpt lat="48.16054" lon="-3.32308">
        <ele>225.8</ele>
        <time>2024-11-20T11:54:55Z</time>
      </trkpt>
      <trkpt lat="48.16054" lon="-3.32308">
        <ele>225.8</ele>
        <time>2024-11-20T11:54:56Z</time>
      </trkpt>
      <trkpt lat="48.16054" lon="-3.32308">
        <ele>225.8</ele>
        <time>2024-11-20T11:54:57Z</time>
      </trkpt>
      <trkpt lat="48.16054" lon="-3.32308">
        <ele>225.8</ele>
        <time>2024-11-20T11:54:58Z</time>
      </trkpt>
      <trkpt lat="48.16054" lon="-3.32308">
        <ele>225.8</ele>
        <time>2024-11-20T11:54:59Z</time>
      </trkpt>
      <trkpt lat="48.16054" lon="-3.32308">
        <ele>225.8</ele>
        <time>2024-11-20T11:55:00Z</time>
      </trkpt>
      <trkpt lat="48.16054" lon="-3.32308">
        <ele>225.8</ele>
        <time>2024-11-20T11:55:01Z</time>
      </trkpt>
      <trkpt lat="48.16054" lon="-3.32308">
        <ele>225.8</ele>
        <time>2024-11-20T11:55:02Z</time>
      </trkpt>
      <trkpt lat="48.16054" lon="-3.32308">
        <ele>225.8</ele>
        <time>2024-11-20T11:55:03Z</time>
      </trkpt>
      <trkpt lat="48.16054" lon="-3.32308">
        <ele>225.8</ele>
        <time>2024-11-20T11:55:04Z</time>
      </trkpt>
      <trkpt lat="48.16054" lon="-3.32308">
        <ele>225.8</ele>
        <time>2024-11-20T11:55:05Z</time>
      </trkpt>
      <trkpt lat="48.16054" lon="-3.32308">
        <ele>225.8</ele>
        <time>2024-11-20T11:55:06Z</time>
      </trkpt>
      <trkpt lat="48.16054" lon="-3.32308">
        <ele>225.8</ele>
        <time>2024-11-20T11:55:07Z</time>
      </trkpt>
      <trkpt lat="48.16054" lon="-3.32308">
        <ele>225.8</ele>
        <time>2024-11-20T11:55:08Z</time>
      </trkpt>
      <trkpt lat="48.16054" lon="-3.32308">
        <ele>225.8</ele>
        <time>2024-11-20T11:55:09Z</time>
      </trkpt>
      <trkpt lat="48.16054" lon="-3.32308">
        <ele>225.8</ele>
        <time>2024-11-20T11:55:10Z</time>
      </trkpt>
      <trkpt lat="48.16054" lon="-3.32308">
        <ele>225.8</ele>
        <time>2024-11-20T11:55:11Z</time>
      </trkpt>
      <trkpt lat="48.16054" lon="-3.32308">
        <ele>225.8</ele>
        <time>2024-11-20T11:55:12Z</time>
      </trkpt>
      <trkpt lat="48.16054" lon="-3.32308">
        <ele>225.8</ele>
        <time>2024-11-20T11:55:13Z</time>
      </trkpt>
      <trkpt lat="48.16054" lon="-3.32308">
        <ele>225.8</ele>
        <time>2024-11-20T11:55:14Z</time>
      </trkpt>
      <trkpt lat="48.16054" lon="-3.32308">
        <ele>225.8</ele>
        <time>2024-11-20T11:55:15Z</time>
      </trkpt>
      <trkpt lat="48.16054" lon="-3.32308">
        <ele>225.8</ele>
        <time>2024-11-20T11:55:16Z</time>
      </trkpt>
      <trkpt lat="48.16054" lon="-3.32308">
        <ele>225.8</ele>
        <time>2024-11-20T11:55:17Z</time>
      </trkpt>
      <trkpt lat="48.16054" lon="-3.32308">
        <ele>225.8</ele>
        <time>2024-11-20T11:55:18Z</time>
      </trkpt>
      <trkpt lat="48.16054" lon="-3.32308">
        <ele>225.8</ele>
        <time>2024-11-20T11:55:19Z</time>
      </trkpt>
      <trkpt lat="48.16054" lon="-3.32308">
        <ele>225.8</ele>
        <time>2024-11-20T11:55:20Z</time>
      </trkpt>
      <trkpt lat="48.16054" lon="-3.32308">
        <ele>225.8</ele>
        <time>2024-11-20T11:55:21Z</time>
      </trkpt>
      <trkpt lat="48.16054" lon="-3.32308">
        <ele>225.8</ele>
        <time>2024-11-20T11:55:22Z</time>
      </trkpt>
      <trkpt lat="48.16054" lon="-3.32308">
        <ele>225.8</ele>
        <time>2024-11-20T11:55:23Z</time>
      </trkpt>
      <trkpt lat="48.16054" lon="-3.32308">
        <ele>225.8</ele>
        <time>2024-11-20T11:55:24Z</time>
      </trkpt>
      <trkpt lat="48.16054" lon="-3.32308">
        <ele>225.8</ele>
        <time>2024-11-20T11:55:25Z</time>
      </trkpt>
      <trkpt lat="48.16054" lon="-3.32308">
        <ele>225.8</ele>
        <time>2024-11-20T11:55:26Z</time>
      </trkpt>
      <trkpt lat="48.16054" lon="-3.32308">
        <ele>225.8</ele>
        <time>2024-11-20T11:55:27Z</time>
      </trkpt>
      <trkpt lat="48.16054" lon="-3.32308">
        <ele>225.8</ele>
        <time>2024-11-20T11:55:28Z</time>
      </trkpt>
      <trkpt lat="48.16054" lon="-3.32308">
        <ele>225.8</ele>
        <time>2024-11-20T11:55:29Z</time>
      </trkpt>
      <trkpt lat="48.16054" lon="-3.32308">
        <ele>225.8</ele>
        <time>2024-11-20T11:55:30Z</time>
      </trkpt>
      <trkpt lat="48.16054" lon="-3.32308">
        <ele>225.8</ele>
        <time>2024-11-20T11:55:31Z</time>
      </trkpt>
      <trkpt lat="48.16054" lon="-3.32308">
        <ele>225.8</ele>
        <time>2024-11-20T11:55:32Z</time>
      </trkpt>
      <trkpt lat="48.16054" lon="-3.32308">
        <ele>225.8</ele>
        <time>2024-11-20T11:55:33Z</time>
      </trkpt>
      <trkpt lat="48.16054" lon="-3.32308">
        <ele>225.8</ele>
        <time>2024-11-20T11:55:34Z</time>
      </trkpt>
      <trkpt lat="48.16054" lon="-3.32308">
        <ele>225.8</ele>
        <time>2024-11-20T11:55:35Z</time>
      </trkpt>
      <trkpt lat="48.16054" lon="-3.32308">
        <ele>225.8</ele>
        <time>2024-11-20T11:55:36Z</time>
      </trkpt>
      <trkpt lat="48.16054" lon="-3.32308">
        <ele>225.8</ele>
        <time>2024-11-20T11:55:37Z</time>
      </trkpt>
      <trkpt lat="48.16054" lon="-3.32308">
        <ele>225.8</ele>
        <time>2024-11-20T11:55:38Z</time>
      </trkpt>
      <trkpt lat="48.16054" lon="-3.32308">
        <ele>225.8</ele>
        <time>2024-11-20T11:55:39Z</time>
      </trkpt>
      <trkpt lat="48.16054" lon="-3.32308">
        <ele>225.8</ele>
        <time>2024-11-20T11:55:40Z</time>
      </trkpt>
      <trkpt lat="48.16054" lon="-3.32308">
        <ele>225.8</ele>
        <time>2024-11-20T11:55:41Z</time>
      </trkpt>
      <trkpt lat="48.16054" lon="-3.32308">
        <ele>225.8</ele>
        <time>2024-11-20T11:55:42Z</time>
      </trkpt>
      <trkpt lat="48.16054" lon="-3.32308">
        <ele>225.8</ele>
        <time>2024-11-20T11:55:43Z</time>
      </trkpt>
      <trkpt lat="48.16054" lon="-3.32308">
        <ele>225.8</ele>
        <time>2024-11-20T11:55:44Z</time>
      </trkpt>
      <trkpt lat="48.16054" lon="-3.32308">
        <ele>225.8</ele>
        <time>2024-11-20T11:55:45Z</time>
      </trkpt>
      <trkpt lat="48.16054" lon="-3.32308">
        <ele>225.8</ele>
        <time>2024-11-20T11:55:46Z</time>
      </trkpt>
      <trkpt lat="48.16054" lon="-3.32308">
        <ele>225.8</ele>
        <time>2024-11-20T11:55:47Z</time>
      </trkpt>
      <trkpt lat="48.16054" lon="-3.32308">
        <ele>225.8</ele>
        <time>2024-11-20T11:55:48Z</time>
      </trkpt>
      <trkpt lat="48.16054" lon="-3.32308">
        <ele>225.8</ele>
        <time>2024-11-20T11:55:49Z</time>
      </trkpt>
      <trkpt lat="48.16054" lon="-3.32308">
        <ele>225.8</ele>
        <time>2024-11-20T11:55:50Z</time>
      </trkpt>
      <trkpt lat="48.16054" lon="-3.32308">
        <ele>225.8</ele>
        <time>2024-11-20T11:55:51Z</time>
      </trkpt>
      <trkpt lat="48.16054" lon="-3.32308">
        <ele>225.8</ele>
        <time>2024-11-20T11:55:52Z</time>
      </trkpt>
      <trkpt lat="48.16054" lon="-3.32308">
        <ele>225.8</ele>
        <time>2024-11-20T11:55:53Z</time>
      </trkpt>
      <trkpt lat="48.16054" lon="-3.32308">
        <ele>225.8</ele>
        <time>2024-11-20T11:55:54Z</time>
      </trkpt>
      <trkpt lat="48.16054" lon="-3.32308">
        <ele>225.8</ele>
        <time>2024-11-20T11:55:55Z</time>
      </trkpt>
      <trkpt lat="48.16054" lon="-3.32308">
        <ele>225.8</ele>
        <time>2024-11-20T11:55:56Z</time>
      </trkpt>
      <trkpt lat="48.16054" lon="-3.32308">
        <ele>225.8</ele>
        <time>2024-11-20T11:55:57Z</time>
      </trkpt>
      <trkpt lat="48.16054" lon="-3.32308">
        <ele>225.8</ele>
        <time>2024-11-20T11:55:58Z</time>
      </trkpt>
      <trkpt lat="48.16054" lon="-3.32308">
        <ele>225.8</ele>
        <time>2024-11-20T11:55:59Z</time>
      </trkpt>
      <trkpt lat="48.16054" lon="-3.32308">
        <ele>225.8</ele>
        <time>2024-11-20T11:56:00Z</time>
      </trkpt>
      <trkpt lat="48.16054" lon="-3.32308">
        <ele>225.8</ele>
        <time>2024-11-20T11:56:01Z</time>
      </trkpt>
      <trkpt lat="48.16054" lon="-3.32308">
        <ele>225.8</ele>
        <time>2024-11-20T11:56:02Z</time>
      </trkpt>
      <trkpt lat="48.16054" lon="-3.32308">
        <ele>225.8</ele>
        <time>2024-11-20T11:56:03Z</time>
      </trkpt>
      <trkpt lat="48.16054" lon="-3.32308">
        <ele>225.8</ele>
        <time>2024-11-20T11:56:04Z</time>
      </trkpt>
      <trkpt lat="48.16054" lon="-3.32308">
        <ele>225.8</ele>
        <time>2024-11-20T11:56:05Z</time>
      </trkpt>
      <trkpt lat="48.16054" lon="-3.32308">
        <ele>225.8</ele>
        <time>2024-11-20T11:56:06Z</time>
      </trkpt>
      <trkpt lat="48.16054" lon="-3.32308">
        <ele>225.8</ele>
        <time>2024-11-20T11:56:07Z</time>
      </trkpt>
      <trkpt lat="48.16054" lon="-3.32308">
        <ele>225.8</ele>
        <time>2024-11-20T11:56:08Z</time>
      </trkpt>
      <trkpt lat="48.16054" lon="-3.32308">
        <ele>225.8</ele>
        <time>2024-11-20T11:56:09Z</time>
      </trkpt>
      <trkpt lat="48.16054" lon="-3.32308">
        <ele>225.8</ele>
        <time>2024-11-20T11:56:10Z</time>
      </trkpt>
      <trkpt lat="48.16054" lon="-3.32308">
        <ele>225.8</ele>
        <time>2024-11-20T11:56:11Z</time>
      </trkpt>
      <trkpt lat="48.16054" lon="-3.32308">
        <ele>225.8</ele>
        <time>2024-11-20T11:56:12Z</time>
      </trkpt>
      <trkpt lat="48.16054" lon="-3.32308">
        <ele>225.8</ele>
        <time>2024-11-20T11:56:13Z</time>
      </trkpt>
      <trkpt lat="48.16054" lon="-3.32308">
        <ele>225.8</ele>
        <time>2024-11-20T11:56:14Z</time>
      </trkpt>
      <trkpt lat="48.16054" lon="-3.32308">
        <ele>225.8</ele>
        <time>2024-11-20T11:56:15Z</time>
      </trkpt>
      <trkpt lat="48.16054" lon="-3.32308">
        <ele>225.8</ele>
        <time>2024-11-20T11:56:16Z</time>
      </trkpt>
      <trkpt lat="48.16054" lon="-3.32308">
        <ele>225.8</ele>
        <time>2024-11-20T11:56:17Z</time>
      </trkpt>
      <trkpt lat="48.16054" lon="-3.32308">
        <ele>225.8</ele>
        <time>2024-11-20T11:56:18Z</time>
      </trkpt>
      <trkpt lat="48.16054" lon="-3.32308">
        <ele>225.8</ele>
        <time>2024-11-20T11:56:19Z</time>
      </trkpt>
      <trkpt lat="48.16054" lon="-3.32308">
        <ele>225.8</ele>
        <time>2024-11-20T11:56:20Z</time>
      </trkpt>
      <trkpt lat="48.16054" lon="-3.32308">
        <ele>225.8</ele>
        <time>2024-11-20T11:56:21Z</time>
      </trkpt>
      <trkpt lat="48.16054" lon="-3.32308">
        <ele>225.8</ele>
        <time>2024-11-20T11:56:22Z</time>
      </trkpt>
      <trkpt lat="48.16054" lon="-3.32308">
        <ele>225.8</ele>
        <time>2024-11-20T11:56:23Z</time>
      </trkpt>
      <trkpt lat="48.16054" lon="-3.32308">
        <ele>225.8</ele>
        <time>2024-11-20T11:56:24Z</time>
      </trkpt>
      <trkpt lat="48.16054" lon="-3.32308">
        <ele>225.8</ele>
        <time>2024-11-20T11:56:25Z</time>
      </trkpt>
      <trkpt lat="48.16054" lon="-3.32308">
        <ele>225.8</ele>
        <time>2024-11-20T11:56:26Z</time>
      </trkpt>
      <trkpt lat="48.16054" lon="-3.32308">
        <ele>225.8</ele>
        <time>2024-11-20T11:56:27Z</time>
      </trkpt>
      <trkpt lat="48.16054" lon="-3.32308">
        <ele>225.8</ele>
        <time>2024-11-20T11:56:28Z</time>
      </trkpt>
      <trkpt lat="48.16054" lon="-3.32308">
        <ele>225.8</ele>
        <time>2024-11-20T11:56:29Z</time>
      </trkpt>
      <trkpt lat="48.16054" lon="-3.32308">
        <ele>225.8</ele>
        <time>2024-11-20T11:56:30Z</time>
      </trkpt>
      <trkpt lat="48.16054" lon="-3.32308">
        <ele>225.8</ele>
        <time>2024-11-20T11:56:31Z</time>
      </trkpt>
      <trkpt lat="48.16054" lon="-3.32308">
        <ele>225.8</ele>
        <time>2024-11-20T11:56:32Z</time>
      </trkpt>
      <trkpt lat="48.16054" lon="-3.32308">
        <ele>225.8</ele>
        <time>2024-11-20T11:56:33Z</time>
      </trkpt>
      <trkpt lat="48.16054" lon="-3.32308">
        <ele>225.8</ele>
        <time>2024-11-20T11:56:34Z</time>
      </trkpt>
      <trkpt lat="48.16054" lon="-3.32308">
        <ele>225.8</ele>
        <time>2024-11-20T11:56:35Z</time>
      </trkpt>
      <trkpt lat="48.16054" lon="-3.32308">
        <ele>225.8</ele>
        <time>2024-11-20T11:56:37Z</time>
      </trkpt>
      <trkpt lat="48.16054" lon="-3.32308">
        <ele>225.8</ele>
        <time>2024-11-20T11:56:38Z</time>
      </trkpt>
      <trkpt lat="48.16054" lon="-3.32308">
        <ele>225.8</ele>
        <time>2024-11-20T11:56:39Z</time>
      </trkpt>
      <trkpt lat="48.16054" lon="-3.32308">
        <ele>225.8</ele>
        <time>2024-11-20T11:56:40Z</time>
      </trkpt>
      <trkpt lat="48.16054" lon="-3.32308">
        <ele>225.8</ele>
        <time>2024-11-20T11:56:41Z</time>
      </trkpt>
      <trkpt lat="48.16054" lon="-3.32308">
        <ele>225.8</ele>
        <time>2024-11-20T11:56:42Z</time>
      </trkpt>
      <trkpt lat="48.16054" lon="-3.32308">
        <ele>225.8</ele>
        <time>2024-11-20T11:56:43Z</time>
      </trkpt>
      <trkpt lat="48.16055" lon="-3.32308">
        <ele>225.8</ele>
        <time>2024-11-20T11:56:44Z</time>
      </trkpt>
      <trkpt lat="48.16055" lon="-3.32309">
        <ele>225.8</ele>
        <time>2024-11-20T11:56:45Z</time>
      </trkpt>
      <trkpt lat="48.16055" lon="-3.32309">
        <ele>225.8</ele>
        <time>2024-11-20T11:56:46Z</time>
      </trkpt>
      <trkpt lat="48.16055" lon="-3.32309">
        <ele>225.8</ele>
        <time>2024-11-20T11:56:47Z</time>
      </trkpt>
      <trkpt lat="48.16055" lon="-3.32309">
        <ele>225.7</ele>
        <time>2024-11-20T11:56:48Z</time>
      </trkpt>
      <trkpt lat="48.16055" lon="-3.32309">
        <ele>225.8</ele>
        <time>2024-11-20T11:56:49Z</time>
      </trkpt>
      <trkpt lat="48.16055" lon="-3.32309">
        <ele>225.8</ele>
        <time>2024-11-20T11:56:50Z</time>
      </trkpt>
      <trkpt lat="48.16056" lon="-3.32309">
        <ele>225.7</ele>
        <time>2024-11-20T11:56:51Z</time>
      </trkpt>
      <trkpt lat="48.16056" lon="-3.32309">
        <ele>225.7</ele>
        <time>2024-11-20T11:56:52Z</time>
      </trkpt>
      <trkpt lat="48.16056" lon="-3.32309">
        <ele>225.7</ele>
        <time>2024-11-20T11:56:53Z</time>
      </trkpt>
      <trkpt lat="48.16056" lon="-3.3231">
        <ele>225.7</ele>
        <time>2024-11-20T11:56:54Z</time>
      </trkpt>
      <trkpt lat="48.16056" lon="-3.3231">
        <ele>225.7</ele>
        <time>2024-11-20T11:56:55Z</time>
      </trkpt>
      <trkpt lat="48.16056" lon="-3.3231">
        <ele>225.7</ele>
        <time>2024-11-20T11:56:56Z</time>
      </trkpt>
      <trkpt lat="48.16056" lon="-3.3231">
        <ele>225.7</ele>
        <time>2024-11-20T11:56:57Z</time>
      </trkpt>
      <trkpt lat="48.16056" lon="-3.3231">
        <ele>225.7</ele>
        <time>2024-11-20T11:56:58Z</time>
      </trkpt>
      <trkpt lat="48.16056" lon="-3.3231">
        <ele>225.6</ele>
        <time>2024-11-20T11:56:59Z</time>
      </trkpt>
      <trkpt lat="48.16056" lon="-3.3231">
        <ele>225.6</ele>
        <time>2024-11-20T11:57:00Z</time>
      </trkpt>
      <trkpt lat="48.16056" lon="-3.3231">
        <ele>225.7</ele>
        <time>2024-11-20T11:57:01Z</time>
      </trkpt>
      <trkpt lat="48.16056" lon="-3.3231">
        <ele>225.7</ele>
        <time>2024-11-20T11:57:02Z</time>
      </trkpt>
      <trkpt lat="48.16056" lon="-3.3231">
        <ele>225.7</ele>
        <time>2024-11-20T11:57:03Z</time>
      </trkpt>
      <trkpt lat="48.16056" lon="-3.3231">
        <ele>225.7</ele>
        <time>2024-11-20T11:57:04Z</time>
      </trkpt>
      <trkpt lat="48.16056" lon="-3.3231">
        <ele>225.7</ele>
        <time>2024-11-20T11:57:05Z</time>
      </trkpt>
      <trkpt lat="48.16056" lon="-3.3231">
        <ele>225.7</ele>
        <time>2024-11-20T11:57:06Z</time>
      </trkpt>
      <trkpt lat="48.16056" lon="-3.3231">
        <ele>225.7</ele>
        <time>2024-11-20T11:57:07Z</time>
      </trkpt>
      <trkpt lat="48.16056" lon="-3.3231">
        <ele>225.7</ele>
        <time>2024-11-20T11:57:08Z</time>
      </trkpt>
      <trkpt lat="48.16056" lon="-3.3231">
        <ele>225.7</ele>
        <time>2024-11-20T11:57:09Z</time>
      </trkpt>
      <trkpt lat="48.16056" lon="-3.3231">
        <ele>225.7</ele>
        <time>2024-11-20T11:57:10Z</time>
      </trkpt>
      <trkpt lat="48.16056" lon="-3.3231">
        <ele>225.7</ele>
        <time>2024-11-20T11:57:11Z</time>
      </trkpt>
      <trkpt lat="48.16056" lon="-3.3231">
        <ele>225.7</ele>
        <time>2024-11-20T11:57:12Z</time>
      </trkpt>
      <trkpt lat="48.16056" lon="-3.3231">
        <ele>225.7</ele>
        <time>2024-11-20T11:57:13Z</time>
      </trkpt>
      <trkpt lat="48.16056" lon="-3.3231">
        <ele>225.6</ele>
        <time>2024-11-20T11:57:14Z</time>
      </trkpt>
      <trkpt lat="48.16056" lon="-3.3231">
        <ele>225.7</ele>
        <time>2024-11-20T11:57:15Z</time>
      </trkpt>
      <trkpt lat="48.16056" lon="-3.32309">
        <ele>225.7</ele>
        <time>2024-11-20T11:57:16Z</time>
      </trkpt>
      <trkpt lat="48.16056" lon="-3.32309">
        <ele>225.7</ele>
        <time>2024-11-20T11:57:17Z</time>
      </trkpt>
      <trkpt lat="48.16056" lon="-3.32309">
        <ele>225.7</ele>
        <time>2024-11-20T11:57:18Z</time>
      </trkpt>
      <trkpt lat="48.16056" lon="-3.32309">
        <ele>225.7</ele>
        <time>2024-11-20T11:57:19Z</time>
      </trkpt>
      <trkpt lat="48.16056" lon="-3.32309">
        <ele>225.7</ele>
        <time>2024-11-20T11:57:20Z</time>
      </trkpt>
      <trkpt lat="48.16057" lon="-3.32309">
        <ele>225.7</ele>
        <time>2024-11-20T11:57:21Z</time>
      </trkpt>
      <trkpt lat="48.16057" lon="-3.32309">
        <ele>225.7</ele>
        <time>2024-11-20T11:57:22Z</time>
      </trkpt>
      <trkpt lat="48.16057" lon="-3.32309">
        <ele>225.8</ele>
        <time>2024-11-20T11:57:23Z</time>
      </trkpt>
      <trkpt lat="48.16057" lon="-3.32308">
        <ele>225.8</ele>
        <time>2024-11-20T11:57:24Z</time>
      </trkpt>
      <trkpt lat="48.16057" lon="-3.32308">
        <ele>225.8</ele>
        <time>2024-11-20T11:57:25Z</time>
      </trkpt>
      <trkpt lat="48.16057" lon="-3.32308">
        <ele>225.8</ele>
        <time>2024-11-20T11:57:26Z</time>
      </trkpt>
      <trkpt lat="48.16057" lon="-3.32308">
        <ele>225.8</ele>
        <time>2024-11-20T11:57:27Z</time>
      </trkpt>
      <trkpt lat="48.16057" lon="-3.32308">
        <ele>225.8</ele>
        <time>2024-11-20T11:57:28Z</time>
      </trkpt>
      <trkpt lat="48.16057" lon="-3.32308">
        <ele>225.8</ele>
        <time>2024-11-20T11:57:29Z</time>
      </trkpt>
      <trkpt lat="48.16057" lon="-3.32308">
        <ele>225.8</ele>
        <time>2024-11-20T11:57:30Z</time>
      </trkpt>
      <trkpt lat="48.16057" lon="-3.32308">
        <ele>225.8</ele>
        <time>2024-11-20T11:57:31Z</time>
      </trkpt>
      <trkpt lat="48.16056" lon="-3.32308">
        <ele>225.8</ele>
        <time>2024-11-20T11:57:32Z</time>
      </trkpt>
      <trkpt lat="48.16056" lon="-3.32308">
        <ele>225.8</ele>
        <time>2024-11-20T11:57:33Z</time>
      </trkpt>
      <trkpt lat="48.16056" lon="-3.32308">
        <ele>225.8</ele>
        <time>2024-11-20T11:57:34Z</time>
      </trkpt>
      <trkpt lat="48.16056" lon="-3.32308">
        <ele>225.8</ele>
        <time>2024-11-20T11:57:35Z</time>
      </trkpt>
      <trkpt lat="48.16055" lon="-3.32308">
        <ele>225.8</ele>
        <time>2024-11-20T11:57:36Z</time>
      </trkpt>
      <trkpt lat="48.16055" lon="-3.32308">
        <ele>225.8</ele>
        <time>2024-11-20T11:57:37Z</time>
      </trkpt>
      <trkpt lat="48.16055" lon="-3.32308">
        <ele>225.8</ele>
        <time>2024-11-20T11:57:38Z</time>
      </trkpt>
      <trkpt lat="48.16056" lon="-3.32308">
        <ele>225.8</ele>
        <time>2024-11-20T11:57:39Z</time>
      </trkpt>
      <trkpt lat="48.16056" lon="-3.32308">
        <ele>225.8</ele>
        <time>2024-11-20T11:57:40Z</time>
      </trkpt>
      <trkpt lat="48.16056" lon="-3.32308">
        <ele>225.8</ele>
        <time>2024-11-20T11:57:41Z</time>
      </trkpt>
      <trkpt lat="48.16056" lon="-3.32308">
        <ele>225.8</ele>
        <time>2024-11-20T11:57:42Z</time>
      </trkpt>
      <trkpt lat="48.16056" lon="-3.32308">
        <ele>225.8</ele>
        <time>2024-11-20T11:57:43Z</time>
      </trkpt>
      <trkpt lat="48.16056" lon="-3.32308">
        <ele>225.8</ele>
        <time>2024-11-20T11:57:44Z</time>
      </trkpt>
      <trkpt lat="48.16056" lon="-3.32308">
        <ele>225.8</ele>
        <time>2024-11-20T11:57:45Z</time>
      </trkpt>
      <trkpt lat="48.16056" lon="-3.32308">
        <ele>225.9</ele>
        <time>2024-11-20T11:57:46Z</time>
      </trkpt>
      <trkpt lat="48.16056" lon="-3.32307">
        <ele>225.9</ele>
        <time>2024-11-20T11:57:47Z</time>
      </trkpt>
      <trkpt lat="48.16056" lon="-3.32307">
        <ele>225.9</ele>
        <time>2024-11-20T11:57:48Z</time>
      </trkpt>
      <trkpt lat="48.16056" lon="-3.32307">
        <ele>225.9</ele>
        <time>2024-11-20T11:57:49Z</time>
      </trkpt>
      <trkpt lat="48.16056" lon="-3.32307">
        <ele>225.9</ele>
        <time>2024-11-20T11:57:50Z</time>
      </trkpt>
      <trkpt lat="48.16056" lon="-3.32307">
        <ele>225.9</ele>
        <time>2024-11-20T11:57:51Z</time>
      </trkpt>
      <trkpt lat="48.16055" lon="-3.32307">
        <ele>225.9</ele>
        <time>2024-11-20T11:57:52Z</time>
      </trkpt>
      <trkpt lat="48.16055" lon="-3.32307">
        <ele>225.9</ele>
        <time>2024-11-20T11:57:53Z</time>
      </trkpt>
      <trkpt lat="48.16055" lon="-3.32307">
        <ele>225.9</ele>
        <time>2024-11-20T11:57:54Z</time>
      </trkpt>
      <trkpt lat="48.16055" lon="-3.32307">
        <ele>225.9</ele>
        <time>2024-11-20T11:57:55Z</time>
      </trkpt>
      <trkpt lat="48.16055" lon="-3.32307">
        <ele>225.9</ele>
        <time>2024-11-20T11:57:56Z</time>
      </trkpt>
      <trkpt lat="48.16055" lon="-3.32307">
        <ele>225.9</ele>
        <time>2024-11-20T11:57:57Z</time>
      </trkpt>
      <trkpt lat="48.16055" lon="-3.32307">
        <ele>225.9</ele>
        <time>2024-11-20T11:57:58Z</time>
      </trkpt>
      <trkpt lat="48.16055" lon="-3.32307">
        <ele>225.9</ele>
        <time>2024-11-20T11:57:59Z</time>
      </trkpt>
      <trkpt lat="48.16055" lon="-3.32307">
        <ele>225.9</ele>
        <time>2024-11-20T11:58:00Z</time>
      </trkpt>
      <trkpt lat="48.16055" lon="-3.32307">
        <ele>225.9</ele>
        <time>2024-11-20T11:58:01Z</time>
      </trkpt>
      <trkpt lat="48.16055" lon="-3.32307">
        <ele>225.9</ele>
        <time>2024-11-20T11:58:02Z</time>
      </trkpt>
      <trkpt lat="48.16055" lon="-3.32307">
        <ele>225.9</ele>
        <time>2024-11-20T11:58:03Z</time>
      </trkpt>
      <trkpt lat="48.16055" lon="-3.32307">
        <ele>225.9</ele>
        <time>2024-11-20T11:58:04Z</time>
      </trkpt>
      <trkpt lat="48.16055" lon="-3.32307">
        <ele>225.9</ele>
        <time>2024-11-20T11:58:05Z</time>
      </trkpt>
      <trkpt lat="48.16055" lon="-3.32307">
        <ele>225.9</ele>
        <time>2024-11-20T11:58:06Z</time>
      </trkpt>
      <trkpt lat="48.16055" lon="-3.32307">
        <ele>225.9</ele>
        <time>2024-11-20T11:58:07Z</time>
      </trkpt>
      <trkpt lat="48.16055" lon="-3.32307">
        <ele>225.9</ele>
        <time>2024-11-20T11:58:08Z</time>
      </trkpt>
      <trkpt lat="48.16055" lon="-3.32307">
        <ele>225.9</ele>
        <time>2024-11-20T11:58:09Z</time>
      </trkpt>
      <trkpt lat="48.16055" lon="-3.32307">
        <ele>225.9</ele>
        <time>2024-11-20T11:58:10Z</time>
      </trkpt>
      <trkpt lat="48.16055" lon="-3.32307">
        <ele>225.9</ele>
        <time>2024-11-20T11:58:11Z</time>
      </trkpt>
      <trkpt lat="48.16055" lon="-3.32307">
        <ele>225.9</ele>
        <time>2024-11-20T11:58:12Z</time>
      </trkpt>
      <trkpt lat="48.16055" lon="-3.32307">
        <ele>225.9</ele>
        <time>2024-11-20T11:58:13Z</time>
      </trkpt>
      <trkpt lat="48.16055" lon="-3.32307">
        <ele>225.9</ele>
        <time>2024-11-20T11:58:14Z</time>
      </trkpt>
      <trkpt lat="48.16055" lon="-3.32307">
        <ele>225.9</ele>
        <time>2024-11-20T11:58:15Z</time>
      </trkpt>
      <trkpt lat="48.16055" lon="-3.32307">
        <ele>225.9</ele>
        <time>2024-11-20T11:58:16Z</time>
      </trkpt>
      <trkpt lat="48.16055" lon="-3.32307">
        <ele>225.9</ele>
        <time>2024-11-20T11:58:17Z</time>
      </trkpt>
      <trkpt lat="48.16055" lon="-3.32307">
        <ele>225.9</ele>
        <time>2024-11-20T11:58:18Z</time>
      </trkpt>
      <trkpt lat="48.16055" lon="-3.32307">
        <ele>225.9</ele>
        <time>2024-11-20T11:58:19Z</time>
      </trkpt>
      <trkpt lat="48.16055" lon="-3.32307">
        <ele>225.9</ele>
        <time>2024-11-20T11:58:20Z</time>
      </trkpt>
      <trkpt lat="48.16055" lon="-3.32307">
        <ele>225.9</ele>
        <time>2024-11-20T11:58:21Z</time>
      </trkpt>
      <trkpt lat="48.16055" lon="-3.32307">
        <ele>225.9</ele>
        <time>2024-11-20T11:58:22Z</time>
      </trkpt>
      <trkpt lat="48.16055" lon="-3.32307">
        <ele>225.9</ele>
        <time>2024-11-20T11:58:23Z</time>
      </trkpt>
      <trkpt lat="48.16055" lon="-3.32307">
        <ele>225.9</ele>
        <time>2024-11-20T11:58:24Z</time>
      </trkpt>
      <trkpt lat="48.16055" lon="-3.32307">
        <ele>225.9</ele>
        <time>2024-11-20T11:58:25Z</time>
      </trkpt>
      <trkpt lat="48.16055" lon="-3.32307">
        <ele>225.9</ele>
        <time>2024-11-20T11:58:26Z</time>
      </trkpt>
      <trkpt lat="48.16055" lon="-3.32307">
        <ele>225.9</ele>
        <time>2024-11-20T11:58:27Z</time>
      </trkpt>
      <trkpt lat="48.16055" lon="-3.32307">
        <ele>225.9</ele>
        <time>2024-11-20T11:58:28Z</time>
      </trkpt>
      <trkpt lat="48.16055" lon="-3.32307">
        <ele>225.9</ele>
        <time>2024-11-20T11:58:29Z</time>
      </trkpt>
      <trkpt lat="48.16055" lon="-3.32307">
        <ele>225.9</ele>
        <time>2024-11-20T11:58:30Z</time>
      </trkpt>
      <trkpt lat="48.16055" lon="-3.32307">
        <ele>225.9</ele>
        <time>2024-11-20T11:58:31Z</time>
      </trkpt>
      <trkpt lat="48.16055" lon="-3.32307">
        <ele>225.9</ele>
        <time>2024-11-20T11:58:32Z</time>
      </trkpt>
      <trkpt lat="48.16055" lon="-3.32307">
        <ele>225.9</ele>
        <time>2024-11-20T11:58:33Z</time>
      </trkpt>
      <trkpt lat="48.16055" lon="-3.32307">
        <ele>225.9</ele>
        <time>2024-11-20T11:58:34Z</time>
      </trkpt>
      <trkpt lat="48.16055" lon="-3.32307">
        <ele>225.9</ele>
        <time>2024-11-20T11:58:35Z</time>
      </trkpt>
      <trkpt lat="48.16055" lon="-3.32307">
        <ele>225.9</ele>
        <time>2024-11-20T11:58:36Z</time>
      </trkpt>
      <trkpt lat="48.16055" lon="-3.32307">
        <ele>225.9</ele>
        <time>2024-11-20T11:58:37Z</time>
      </trkpt>
      <trkpt lat="48.16055" lon="-3.32307">
        <ele>225.9</ele>
        <time>2024-11-20T11:58:38Z</time>
      </trkpt>
      <trkpt lat="48.16055" lon="-3.32307">
        <ele>225.9</ele>
        <time>2024-11-20T11:58:39Z</time>
      </trkpt>
      <trkpt lat="48.16055" lon="-3.32307">
        <ele>225.9</ele>
        <time>2024-11-20T11:58:40Z</time>
      </trkpt>
      <trkpt lat="48.16054" lon="-3.32307">
        <ele>225.9</ele>
        <time>2024-11-20T11:58:41Z</time>
      </trkpt>
      <trkpt lat="48.16054" lon="-3.32307">
        <ele>225.9</ele>
        <time>2024-11-20T11:58:42Z</time>
      </trkpt>
      <trkpt lat="48.16054" lon="-3.32307">
        <ele>225.9</ele>
        <time>2024-11-20T11:58:43Z</time>
      </trkpt>
      <trkpt lat="48.16054" lon="-3.32307">
        <ele>225.9</ele>
        <time>2024-11-20T11:58:44Z</time>
      </trkpt>
      <trkpt lat="48.16054" lon="-3.32307">
        <ele>225.9</ele>
        <time>2024-11-20T11:58:45Z</time>
      </trkpt>
      <trkpt lat="48.16054" lon="-3.32307">
        <ele>225.9</ele>
        <time>2024-11-20T11:58:46Z</time>
      </trkpt>
      <trkpt lat="48.16054" lon="-3.32307">
        <ele>225.9</ele>
        <time>2024-11-20T11:58:47Z</time>
      </trkpt>
      <trkpt lat="48.16054" lon="-3.32307">
        <ele>225.9</ele>
        <time>2024-11-20T11:58:48Z</time>
      </trkpt>
      <trkpt lat="48.16054" lon="-3.32307">
        <ele>225.9</ele>
        <time>2024-11-20T11:58:49Z</time>
      </trkpt>
      <trkpt lat="48.16053" lon="-3.32307">
        <ele>225.9</ele>
        <time>2024-11-20T11:58:50Z</time>
      </trkpt>
      <trkpt lat="48.16053" lon="-3.32307">
        <ele>225.9</ele>
        <time>2024-11-20T11:58:51Z</time>
      </trkpt>
      <trkpt lat="48.16053" lon="-3.32307">
        <ele>225.9</ele>
        <time>2024-11-20T11:58:52Z</time>
      </trkpt>
      <trkpt lat="48.16053" lon="-3.32307">
        <ele>225.9</ele>
        <time>2024-11-20T11:58:53Z</time>
      </trkpt>
      <trkpt lat="48.16053" lon="-3.32307">
        <ele>225.9</ele>
        <time>2024-11-20T11:58:54Z</time>
      </trkpt>
      <trkpt lat="48.16053" lon="-3.32307">
        <ele>225.9</ele>
        <time>2024-11-20T11:58:55Z</time>
      </trkpt>
      <trkpt lat="48.16053" lon="-3.32307">
        <ele>225.9</ele>
        <time>2024-11-20T11:58:56Z</time>
      </trkpt>
      <trkpt lat="48.16053" lon="-3.32307">
        <ele>225.9</ele>
        <time>2024-11-20T11:58:57Z</time>
      </trkpt>
      <trkpt lat="48.16053" lon="-3.32307">
        <ele>225.9</ele>
        <time>2024-11-20T11:58:58Z</time>
      </trkpt>
      <trkpt lat="48.16053" lon="-3.32307">
        <ele>225.9</ele>
        <time>2024-11-20T11:58:59Z</time>
      </trkpt>
      <trkpt lat="48.16053" lon="-3.32307">
        <ele>225.9</ele>
        <time>2024-11-20T11:59:00Z</time>
      </trkpt>
      <trkpt lat="48.16053" lon="-3.32307">
        <ele>225.9</ele>
        <time>2024-11-20T11:59:01Z</time>
      </trkpt>
      <trkpt lat="48.16053" lon="-3.32307">
        <ele>225.9</ele>
        <time>2024-11-20T11:59:02Z</time>
      </trkpt>
      <trkpt lat="48.16053" lon="-3.32307">
        <ele>225.9</ele>
        <time>2024-11-20T11:59:03Z</time>
      </trkpt>
      <trkpt lat="48.16053" lon="-3.32307">
        <ele>225.9</ele>
        <time>2024-11-20T11:59:04Z</time>
      </trkpt>
      <trkpt lat="48.16053" lon="-3.32307">
        <ele>225.9</ele>
        <time>2024-11-20T11:59:05Z</time>
      </trkpt>
      <trkpt lat="48.16053" lon="-3.32307">
        <ele>225.9</ele>
        <time>2024-11-20T11:59:06Z</time>
      </trkpt>
      <trkpt lat="48.16053" lon="-3.32307">
        <ele>225.9</ele>
        <time>2024-11-20T11:59:07Z</time>
      </trkpt>
      <trkpt lat="48.16053" lon="-3.32307">
        <ele>225.9</ele>
        <time>2024-11-20T11:59:08Z</time>
      </trkpt>
      <trkpt lat="48.16053" lon="-3.32307">
        <ele>225.9</ele>
        <time>2024-11-20T11:59:09Z</time>
      </trkpt>
      <trkpt lat="48.16053" lon="-3.32307">
        <ele>225.9</ele>
        <time>2024-11-20T11:59:10Z</time>
      </trkpt>
      <trkpt lat="48.16053" lon="-3.32307">
        <ele>225.9</ele>
        <time>2024-11-20T11:59:11Z</time>
      </trkpt>
      <trkpt lat="48.16053" lon="-3.32307">
        <ele>225.9</ele>
        <time>2024-11-20T11:59:12Z</time>
      </trkpt>
      <trkpt lat="48.16053" lon="-3.32307">
        <ele>225.9</ele>
        <time>2024-11-20T11:59:13Z</time>
      </trkpt>
      <trkpt lat="48.16053" lon="-3.32307">
        <ele>225.9</ele>
        <time>2024-11-20T11:59:14Z</time>
      </trkpt>
      <trkpt lat="48.16053" lon="-3.32307">
        <ele>225.9</ele>
        <time>2024-11-20T11:59:15Z</time>
      </trkpt>
      <trkpt lat="48.16053" lon="-3.32307">
        <ele>225.9</ele>
        <time>2024-11-20T11:59:16Z</time>
      </trkpt>
      <trkpt lat="48.16053" lon="-3.32307">
        <ele>225.9</ele>
        <time>2024-11-20T11:59:17Z</time>
      </trkpt>
      <trkpt lat="48.16053" lon="-3.32307">
        <ele>225.9</ele>
        <time>2024-11-20T11:59:18Z</time>
      </trkpt>
      <trkpt lat="48.16053" lon="-3.32307">
        <ele>225.9</ele>
        <time>2024-11-20T11:59:19Z</time>
      </trkpt>
      <trkpt lat="48.16053" lon="-3.32307">
        <ele>225.9</ele>
        <time>2024-11-20T11:59:20Z</time>
      </trkpt>
      <trkpt lat="48.16053" lon="-3.32307">
        <ele>225.9</ele>
        <time>2024-11-20T11:59:21Z</time>
      </trkpt>
      <trkpt lat="48.16053" lon="-3.32307">
        <ele>225.9</ele>
        <time>2024-11-20T11:59:22Z</time>
      </trkpt>
      <trkpt lat="48.16053" lon="-3.32307">
        <ele>225.9</ele>
        <time>2024-11-20T11:59:23Z</time>
      </trkpt>
      <trkpt lat="48.16053" lon="-3.32307">
        <ele>225.9</ele>
        <time>2024-11-20T11:59:24Z</time>
      </trkpt>
      <trkpt lat="48.16053" lon="-3.32307">
        <ele>225.9</ele>
        <time>2024-11-20T11:59:25Z</time>
      </trkpt>
      <trkpt lat="48.16053" lon="-3.32307">
        <ele>225.9</ele>
        <time>2024-11-20T11:59:26Z</time>
      </trkpt>
      <trkpt lat="48.16053" lon="-3.32307">
        <ele>225.9</ele>
        <time>2024-11-20T11:59:27Z</time>
      </trkpt>
      <trkpt lat="48.16053" lon="-3.32307">
        <ele>225.9</ele>
        <time>2024-11-20T11:59:28Z</time>
      </trkpt>
      <trkpt lat="48.16053" lon="-3.32307">
        <ele>225.9</ele>
        <time>2024-11-20T11:59:29Z</time>
      </trkpt>
      <trkpt lat="48.16053" lon="-3.32307">
        <ele>225.9</ele>
        <time>2024-11-20T11:59:30Z</time>
      </trkpt>
      <trkpt lat="48.16053" lon="-3.32307">
        <ele>225.9</ele>
        <time>2024-11-20T11:59:31Z</time>
      </trkpt>
      <trkpt lat="48.16053" lon="-3.32307">
        <ele>225.9</ele>
        <time>2024-11-20T11:59:32Z</time>
      </trkpt>
      <trkpt lat="48.16053" lon="-3.32307">
        <ele>225.9</ele>
        <time>2024-11-20T11:59:33Z</time>
      </trkpt>
      <trkpt lat="48.16053" lon="-3.32307">
        <ele>225.9</ele>
        <time>2024-11-20T11:59:34Z</time>
      </trkpt>
      <trkpt lat="48.16053" lon="-3.32307">
        <ele>225.9</ele>
        <time>2024-11-20T11:59:35Z</time>
      </trkpt>
      <trkpt lat="48.16053" lon="-3.32307">
        <ele>225.9</ele>
        <time>2024-11-20T11:59:36Z</time>
      </trkpt>
      <trkpt lat="48.16053" lon="-3.32307">
        <ele>225.9</ele>
        <time>2024-11-20T11:59:37Z</time>
      </trkpt>
      <trkpt lat="48.16053" lon="-3.32307">
        <ele>225.9</ele>
        <time>2024-11-20T11:59:38Z</time>
      </trkpt>
      <trkpt lat="48.16053" lon="-3.32307">
        <ele>225.9</ele>
        <time>2024-11-20T11:59:39Z</time>
      </trkpt>
      <trkpt lat="48.16053" lon="-3.32307">
        <ele>225.9</ele>
        <time>2024-11-20T11:59:40Z</time>
      </trkpt>
      <trkpt lat="48.16053" lon="-3.32307">
        <ele>225.9</ele>
        <time>2024-11-20T11:59:41Z</time>
      </trkpt>
      <trkpt lat="48.16053" lon="-3.32307">
        <ele>225.9</ele>
        <time>2024-11-20T11:59:42Z</time>
      </trkpt>
      <trkpt lat="48.16053" lon="-3.32307">
        <ele>225.9</ele>
        <time>2024-11-20T11:59:43Z</time>
      </trkpt>
      <trkpt lat="48.16053" lon="-3.32307">
        <ele>225.9</ele>
        <time>2024-11-20T11:59:44Z</time>
      </trkpt>
      <trkpt lat="48.16053" lon="-3.32307">
        <ele>225.9</ele>
        <time>2024-11-20T11:59:45Z</time>
      </trkpt>
      <trkpt lat="48.16053" lon="-3.32307">
        <ele>225.9</ele>
        <time>2024-11-20T11:59:46Z</time>
      </trkpt>
      <trkpt lat="48.16053" lon="-3.32307">
        <ele>225.9</ele>
        <time>2024-11-20T11:59:47Z</time>
      </trkpt>
      <trkpt lat="48.16053" lon="-3.32307">
        <ele>225.9</ele>
        <time>2024-11-20T11:59:48Z</time>
      </trkpt>
      <trkpt lat="48.16053" lon="-3.32307">
        <ele>225.9</ele>
        <time>2024-11-20T11:59:49Z</time>
      </trkpt>
      <trkpt lat="48.16053" lon="-3.32307">
        <ele>225.9</ele>
        <time>2024-11-20T11:59:50Z</time>
      </trkpt>
      <trkpt lat="48.16053" lon="-3.32307">
        <ele>225.9</ele>
        <time>2024-11-20T11:59:51Z</time>
      </trkpt>
      <trkpt lat="48.16053" lon="-3.32307">
        <ele>225.9</ele>
        <time>2024-11-20T11:59:52Z</time>
      </trkpt>
      <trkpt lat="48.16053" lon="-3.32307">
        <ele>225.9</ele>
        <time>2024-11-20T11:59:53Z</time>
      </trkpt>
      <trkpt lat="48.16053" lon="-3.32307">
        <ele>225.9</ele>
        <time>2024-11-20T11:59:54Z</time>
      </trkpt>
      <trkpt lat="48.16053" lon="-3.32307">
        <ele>225.9</ele>
        <time>2024-11-20T11:59:55Z</time>
      </trkpt>
      <trkpt lat="48.16053" lon="-3.32307">
        <ele>225.9</ele>
        <time>2024-11-20T11:59:56Z</time>
      </trkpt>
      <trkpt lat="48.16053" lon="-3.32307">
        <ele>225.9</ele>
        <time>2024-11-20T11:59:57Z</time>
      </trkpt>
      <trkpt lat="48.16053" lon="-3.32307">
        <ele>225.9</ele>
        <time>2024-11-20T11:59:58Z</time>
      </trkpt>
      <trkpt lat="48.16053" lon="-3.32307">
        <ele>225.9</ele>
        <time>2024-11-20T11:59:59Z</time>
      </trkpt>
      <trkpt lat="48.16053" lon="-3.32307">
        <ele>225.9</ele>
        <time>2024-11-20T12:00:00Z</time>
      </trkpt>
      <trkpt lat="48.16053" lon="-3.32307">
        <ele>225.9</ele>
        <time>2024-11-20T12:00:01Z</time>
      </trkpt>
      <trkpt lat="48.16053" lon="-3.32308">
        <ele>225.8</ele>
        <time>2024-11-20T12:00:02Z</time>
      </trkpt>
      <trkpt lat="48.16054" lon="-3.32308">
        <ele>225.8</ele>
        <time>2024-11-20T12:00:03Z</time>
      </trkpt>
      <trkpt lat="48.16054" lon="-3.32308">
        <ele>225.8</ele>
        <time>2024-11-20T12:00:04Z</time>
      </trkpt>
      <trkpt lat="48.16054" lon="-3.32309">
        <ele>225.8</ele>
        <time>2024-11-20T12:00:05Z</time>
      </trkpt>
      <trkpt lat="48.16054" lon="-3.32309">
        <ele>225.8</ele>
        <time>2024-11-20T12:00:06Z</time>
      </trkpt>
      <trkpt lat="48.16055" lon="-3.32309">
        <ele>225.7</ele>
        <time>2024-11-20T12:00:07Z</time>
      </trkpt>
      <trkpt lat="48.16055" lon="-3.3231">
        <ele>225.7</ele>
        <time>2024-11-20T12:00:08Z</time>
      </trkpt>
      <trkpt lat="48.16055" lon="-3.32311">
        <ele>225.6</ele>
        <time>2024-11-20T12:00:09Z</time>
      </trkpt>
      <trkpt lat="48.16055" lon="-3.32311">
        <ele>225.6</ele>
        <time>2024-11-20T12:00:10Z</time>
      </trkpt>
      <trkpt lat="48.16056" lon="-3.32311">
        <ele>225.6</ele>
        <time>2024-11-20T12:00:11Z</time>
      </trkpt>
      <trkpt lat="48.16056" lon="-3.32312">
        <ele>225.6</ele>
        <time>2024-11-20T12:00:12Z</time>
      </trkpt>
      <trkpt lat="48.16056" lon="-3.32312">
        <ele>225.5</ele>
        <time>2024-11-20T12:00:13Z</time>
      </trkpt>
      <trkpt lat="48.16056" lon="-3.32312">
        <ele>225.5</ele>
        <time>2024-11-20T12:00:14Z</time>
      </trkpt>
      <trkpt lat="48.16056" lon="-3.32312">
        <ele>225.5</ele>
        <time>2024-11-20T12:00:15Z</time>
      </trkpt>
      <trkpt lat="48.16056" lon="-3.32312">
        <ele>225.5</ele>
        <time>2024-11-20T12:00:16Z</time>
      </trkpt>
      <trkpt lat="48.16056" lon="-3.32313">
        <ele>225.5</ele>
        <time>2024-11-20T12:00:17Z</time>
      </trkpt>
      <trkpt lat="48.16056" lon="-3.32313">
        <ele>225.4</ele>
        <time>2024-11-20T12:00:18Z</time>
      </trkpt>
      <trkpt lat="48.16056" lon="-3.32314">
        <ele>225.4</ele>
        <time>2024-11-20T12:00:19Z</time>
      </trkpt>
      <trkpt lat="48.16056" lon="-3.32314">
        <ele>225.4</ele>
        <time>2024-11-20T12:00:20Z</time>
      </trkpt>
      <trkpt lat="48.16056" lon="-3.32314">
        <ele>225.4</ele>
        <time>2024-11-20T12:00:21Z</time>
      </trkpt>
      <trkpt lat="48.16056" lon="-3.32314">
        <ele>225.4</ele>
        <time>2024-11-20T12:00:22Z</time>
      </trkpt>
      <trkpt lat="48.16056" lon="-3.32314">
        <ele>225.4</ele>
        <time>2024-11-20T12:00:23Z</time>
      </trkpt>
      <trkpt lat="48.16056" lon="-3.32314">
        <ele>225.3</ele>
        <time>2024-11-20T12:00:24Z</time>
      </trkpt>
      <trkpt lat="48.16056" lon="-3.32315">
        <ele>225.3</ele>
        <time>2024-11-20T12:00:25Z</time>
      </trkpt>
      <trkpt lat="48.16056" lon="-3.32315">
        <ele>225.3</ele>
        <time>2024-11-20T12:00:26Z</time>
      </trkpt>
      <trkpt lat="48.16056" lon="-3.32315">
        <ele>225.3</ele>
        <time>2024-11-20T12:00:27Z</time>
      </trkpt>
      <trkpt lat="48.16056" lon="-3.32315">
        <ele>225.3</ele>
        <time>2024-11-20T12:00:28Z</time>
      </trkpt>
      <trkpt lat="48.16056" lon="-3.32315">
        <ele>225.3</ele>
        <time>2024-11-20T12:00:29Z</time>
      </trkpt>
      <trkpt lat="48.16056" lon="-3.32315">
        <ele>225.3</ele>
        <time>2024-11-20T12:00:30Z</time>
      </trkpt>
      <trkpt lat="48.16056" lon="-3.32315">
        <ele>225.3</ele>
        <time>2024-11-20T12:00:31Z</time>
      </trkpt>
      <trkpt lat="48.16056" lon="-3.32315">
        <ele>225.3</ele>
        <time>2024-11-20T12:00:32Z</time>
      </trkpt>
      <trkpt lat="48.16056" lon="-3.32315">
        <ele>225.3</ele>
        <time>2024-11-20T12:00:33Z</time>
      </trkpt>
      <trkpt lat="48.16056" lon="-3.32315">
        <ele>225.3</ele>
        <time>2024-11-20T12:00:34Z</time>
      </trkpt>
      <trkpt lat="48.16056" lon="-3.32315">
        <ele>225.3</ele>
        <time>2024-11-20T12:00:35Z</time>
      </trkpt>
      <trkpt lat="48.16056" lon="-3.32315">
        <ele>225.3</ele>
        <time>2024-11-20T12:00:36Z</time>
      </trkpt>
      <trkpt lat="48.16056" lon="-3.32315">
        <ele>225.3</ele>
        <time>2024-11-20T12:00:37Z</time>
      </trkpt>
      <trkpt lat="48.16056" lon="-3.32315">
        <ele>225.3</ele>
        <time>2024-11-20T12:00:38Z</time>
      </trkpt>
      <trkpt lat="48.16056" lon="-3.32315">
        <ele>225.3</ele>
        <time>2024-11-20T12:00:39Z</time>
      </trkpt>
      <trkpt lat="48.16056" lon="-3.32315">
        <ele>225.3</ele>
        <time>2024-11-20T12:00:40Z</time>
      </trkpt>
      <trkpt lat="48.16055" lon="-3.32315">
        <ele>225.3</ele>
        <time>2024-11-20T12:00:41Z</time>
      </trkpt>
      <trkpt lat="48.16055" lon="-3.32316">
        <ele>225.3</ele>
        <time>2024-11-20T12:00:42Z</time>
      </trkpt>
      <trkpt lat="48.16055" lon="-3.32316">
        <ele>225.2</ele>
        <time>2024-11-20T12:00:43Z</time>
      </trkpt>
      <trkpt lat="48.16055" lon="-3.32316">
        <ele>225.2</ele>
        <time>2024-11-20T12:00:44Z</time>
      </trkpt>
      <trkpt lat="48.16054" lon="-3.32316">
        <ele>225.2</ele>
        <time>2024-11-20T12:00:45Z</time>
      </trkpt>
      <trkpt lat="48.16054" lon="-3.32316">
        <ele>225.2</ele>
        <time>2024-11-20T12:00:46Z</time>
      </trkpt>
      <trkpt lat="48.16054" lon="-3.32316">
        <ele>225.2</ele>
        <time>2024-11-20T12:00:47Z</time>
      </trkpt>
      <trkpt lat="48.16054" lon="-3.32316">
        <ele>225.2</ele>
        <time>2024-11-20T12:00:48Z</time>
      </trkpt>
      <trkpt lat="48.16053" lon="-3.32317">
        <ele>225.2</ele>
        <time>2024-11-20T12:00:49Z</time>
      </trkpt>
      <trkpt lat="48.16053" lon="-3.32317">
        <ele>225.2</ele>
        <time>2024-11-20T12:00:50Z</time>
      </trkpt>
      <trkpt lat="48.16053" lon="-3.32317">
        <ele>225.2</ele>
        <time>2024-11-20T12:00:51Z</time>
      </trkpt>
      <trkpt lat="48.16053" lon="-3.32317">
        <ele>225.1</ele>
        <time>2024-11-20T12:00:52Z</time>
      </trkpt>
      <trkpt lat="48.16053" lon="-3.32317">
        <ele>225.2</ele>
        <time>2024-11-20T12:00:53Z</time>
      </trkpt>
      <trkpt lat="48.16053" lon="-3.32318">
        <ele>225.1</ele>
        <time>2024-11-20T12:00:54Z</time>
      </trkpt>
      <trkpt lat="48.16052" lon="-3.32318">
        <ele>225.1</ele>
        <time>2024-11-20T12:00:55Z</time>
      </trkpt>
      <trkpt lat="48.16052" lon="-3.32318">
        <ele>225.1</ele>
        <time>2024-11-20T12:00:56Z</time>
      </trkpt>
      <trkpt lat="48.16052" lon="-3.32318">
        <ele>225.1</ele>
        <time>2024-11-20T12:00:57Z</time>
      </trkpt>
      <trkpt lat="48.16052" lon="-3.32318">
        <ele>225.1</ele>
        <time>2024-11-20T12:00:58Z</time>
      </trkpt>
      <trkpt lat="48.16052" lon="-3.32319">
        <ele>225.1</ele>
        <time>2024-11-20T12:00:59Z</time>
      </trkpt>
      <trkpt lat="48.16052" lon="-3.32319">
        <ele>225</ele>
        <time>2024-11-20T12:01:00Z</time>
      </trkpt>
      <trkpt lat="48.16051" lon="-3.32319">
        <ele>225</ele>
        <time>2024-11-20T12:01:01Z</time>
      </trkpt>
      <trkpt lat="48.16051" lon="-3.3232">
        <ele>225</ele>
        <time>2024-11-20T12:01:02Z</time>
      </trkpt>
      <trkpt lat="48.16051" lon="-3.3232">
        <ele>225</ele>
        <time>2024-11-20T12:01:03Z</time>
      </trkpt>
      <trkpt lat="48.16051" lon="-3.3232">
        <ele>224.9</ele>
        <time>2024-11-20T12:01:04Z</time>
      </trkpt>
      <trkpt lat="48.16051" lon="-3.32321">
        <ele>224.9</ele>
        <time>2024-11-20T12:01:05Z</time>
      </trkpt>
      <trkpt lat="48.16051" lon="-3.32321">
        <ele>224.9</ele>
        <time>2024-11-20T12:01:06Z</time>
      </trkpt>
      <trkpt lat="48.16051" lon="-3.32321">
        <ele>224.9</ele>
        <time>2024-11-20T12:01:07Z</time>
      </trkpt>
      <trkpt lat="48.16051" lon="-3.32321">
        <ele>224.9</ele>
        <time>2024-11-20T12:01:08Z</time>
      </trkpt>
      <trkpt lat="48.16051" lon="-3.32321">
        <ele>224.9</ele>
        <time>2024-11-20T12:01:09Z</time>
      </trkpt>
      <trkpt lat="48.16051" lon="-3.32322">
        <ele>224.9</ele>
        <time>2024-11-20T12:01:10Z</time>
      </trkpt>
      <trkpt lat="48.16051" lon="-3.32322">
        <ele>224.9</ele>
        <time>2024-11-20T12:01:11Z</time>
      </trkpt>
      <trkpt lat="48.16052" lon="-3.32321">
        <ele>224.9</ele>
        <time>2024-11-20T12:01:12Z</time>
      </trkpt>
      <trkpt lat="48.16052" lon="-3.32321">
        <ele>224.9</ele>
        <time>2024-11-20T12:01:13Z</time>
      </trkpt>
      <trkpt lat="48.16052" lon="-3.32321">
        <ele>224.9</ele>
        <time>2024-11-20T12:01:14Z</time>
      </trkpt>
      <trkpt lat="48.16052" lon="-3.32321">
        <ele>224.9</ele>
        <time>2024-11-20T12:01:15Z</time>
      </trkpt>
      <trkpt lat="48.16052" lon="-3.32321">
        <ele>224.9</ele>
        <time>2024-11-20T12:01:16Z</time>
      </trkpt>
      <trkpt lat="48.16052" lon="-3.32321">
        <ele>224.9</ele>
        <time>2024-11-20T12:01:17Z</time>
      </trkpt>
      <trkpt lat="48.16052" lon="-3.32321">
        <ele>224.9</ele>
        <time>2024-11-20T12:01:18Z</time>
      </trkpt>
      <trkpt lat="48.16052" lon="-3.32322">
        <ele>224.8</ele>
        <time>2024-11-20T12:01:19Z</time>
      </trkpt>
      <trkpt lat="48.16052" lon="-3.32322">
        <ele>224.8</ele>
        <time>2024-11-20T12:01:20Z</time>
      </trkpt>
      <trkpt lat="48.16052" lon="-3.32322">
        <ele>224.8</ele>
        <time>2024-11-20T12:01:21Z</time>
      </trkpt>
      <trkpt lat="48.16053" lon="-3.32322">
        <ele>224.8</ele>
        <time>2024-11-20T12:01:22Z</time>
      </trkpt>
      <trkpt lat="48.16053" lon="-3.32322">
        <ele>224.8</ele>
        <time>2024-11-20T12:01:23Z</time>
      </trkpt>
      <trkpt lat="48.16053" lon="-3.32322">
        <ele>224.8</ele>
        <time>2024-11-20T12:01:24Z</time>
      </trkpt>
      <trkpt lat="48.16053" lon="-3.32322">
        <ele>224.8</ele>
        <time>2024-11-20T12:01:25Z</time>
      </trkpt>
      <trkpt lat="48.16053" lon="-3.32321">
        <ele>224.9</ele>
        <time>2024-11-20T12:01:26Z</time>
      </trkpt>
      <trkpt lat="48.16054" lon="-3.32321">
        <ele>224.9</ele>
        <time>2024-11-20T12:01:27Z</time>
      </trkpt>
      <trkpt lat="48.16054" lon="-3.32321">
        <ele>224.9</ele>
        <time>2024-11-20T12:01:28Z</time>
      </trkpt>
      <trkpt lat="48.16054" lon="-3.32321">
        <ele>224.9</ele>
        <time>2024-11-20T12:01:29Z</time>
      </trkpt>
      <trkpt lat="48.16054" lon="-3.32321">
        <ele>224.9</ele>
        <time>2024-11-20T12:01:30Z</time>
      </trkpt>
      <trkpt lat="48.16054" lon="-3.3232">
        <ele>224.9</ele>
        <time>2024-11-20T12:01:31Z</time>
      </trkpt>
      <trkpt lat="48.16054" lon="-3.3232">
        <ele>224.9</ele>
        <time>2024-11-20T12:01:32Z</time>
      </trkpt>
      <trkpt lat="48.16054" lon="-3.3232">
        <ele>224.9</ele>
        <time>2024-11-20T12:01:33Z</time>
      </trkpt>
      <trkpt lat="48.16054" lon="-3.3232">
        <ele>224.9</ele>
        <time>2024-11-20T12:01:34Z</time>
      </trkpt>
      <trkpt lat="48.16054" lon="-3.3232">
        <ele>225</ele>
        <time>2024-11-20T12:01:35Z</time>
      </trkpt>
      <trkpt lat="48.16054" lon="-3.3232">
        <ele>225</ele>
        <time>2024-11-20T12:01:36Z</time>
      </trkpt>
      <trkpt lat="48.16054" lon="-3.3232">
        <ele>225</ele>
        <time>2024-11-20T12:01:37Z</time>
      </trkpt>
      <trkpt lat="48.16054" lon="-3.3232">
        <ele>225</ele>
        <time>2024-11-20T12:01:38Z</time>
      </trkpt>
      <trkpt lat="48.16054" lon="-3.3232">
        <ele>225</ele>
        <time>2024-11-20T12:01:39Z</time>
      </trkpt>
      <trkpt lat="48.16054" lon="-3.3232">
        <ele>225</ele>
        <time>2024-11-20T12:01:40Z</time>
      </trkpt>
      <trkpt lat="48.16054" lon="-3.3232">
        <ele>225</ele>
        <time>2024-11-20T12:01:41Z</time>
      </trkpt>
      <trkpt lat="48.16054" lon="-3.3232">
        <ele>225</ele>
        <time>2024-11-20T12:01:42Z</time>
      </trkpt>
      <trkpt lat="48.16054" lon="-3.3232">
        <ele>225</ele>
        <time>2024-11-20T12:01:43Z</time>
      </trkpt>
      <trkpt lat="48.16054" lon="-3.3232">
        <ele>225</ele>
        <time>2024-11-20T12:01:44Z</time>
      </trkpt>
      <trkpt lat="48.16054" lon="-3.3232">
        <ele>225</ele>
        <time>2024-11-20T12:01:45Z</time>
      </trkpt>
      <trkpt lat="48.16054" lon="-3.3232">
        <ele>225</ele>
        <time>2024-11-20T12:01:46Z</time>
      </trkpt>
      <trkpt lat="48.16054" lon="-3.3232">
        <ele>225</ele>
        <time>2024-11-20T12:01:48Z</time>
      </trkpt>
      <trkpt lat="48.16054" lon="-3.3232">
        <ele>225</ele>
        <time>2024-11-20T12:01:49Z</time>
      </trkpt>
      <trkpt lat="48.16054" lon="-3.3232">
        <ele>225</ele>
        <time>2024-11-20T12:01:50Z</time>
      </trkpt>
      <trkpt lat="48.16054" lon="-3.3232">
        <ele>225</ele>
        <time>2024-11-20T12:01:51Z</time>
      </trkpt>
      <trkpt lat="48.16054" lon="-3.3232">
        <ele>225</ele>
        <time>2024-11-20T12:01:52Z</time>
      </trkpt>
      <trkpt lat="48.16054" lon="-3.3232">
        <ele>225</ele>
        <time>2024-11-20T12:01:53Z</time>
      </trkpt>
      <trkpt lat="48.16054" lon="-3.3232">
        <ele>225</ele>
        <time>2024-11-20T12:01:54Z</time>
      </trkpt>
      <trkpt lat="48.16054" lon="-3.3232">
        <ele>225</ele>
        <time>2024-11-20T12:01:55Z</time>
      </trkpt>
      <trkpt lat="48.16054" lon="-3.3232">
        <ele>225</ele>
        <time>2024-11-20T12:01:56Z</time>
      </trkpt>
      <trkpt lat="48.16054" lon="-3.3232">
        <ele>225</ele>
        <time>2024-11-20T12:01:57Z</time>
      </trkpt>
      <trkpt lat="48.16054" lon="-3.3232">
        <ele>225</ele>
        <time>2024-11-20T12:01:58Z</time>
      </trkpt>
      <trkpt lat="48.16054" lon="-3.3232">
        <ele>225</ele>
        <time>2024-11-20T12:01:59Z</time>
      </trkpt>
      <trkpt lat="48.16054" lon="-3.3232">
        <ele>225</ele>
        <time>2024-11-20T12:02:00Z</time>
      </trkpt>
      <trkpt lat="48.16054" lon="-3.3232">
        <ele>225</ele>
        <time>2024-11-20T12:02:01Z</time>
      </trkpt>
      <trkpt lat="48.16054" lon="-3.3232">
        <ele>225</ele>
        <time>2024-11-20T12:02:02Z</time>
      </trkpt>
      <trkpt lat="48.16054" lon="-3.3232">
        <ele>225</ele>
        <time>2024-11-20T12:02:03Z</time>
      </trkpt>
      <trkpt lat="48.16054" lon="-3.3232">
        <ele>225</ele>
        <time>2024-11-20T12:02:04Z</time>
      </trkpt>
      <trkpt lat="48.16054" lon="-3.3232">
        <ele>225</ele>
        <time>2024-11-20T12:02:05Z</time>
      </trkpt>
      <trkpt lat="48.16054" lon="-3.3232">
        <ele>225</ele>
        <time>2024-11-20T12:02:06Z</time>
      </trkpt>
      <trkpt lat="48.16054" lon="-3.3232">
        <ele>225</ele>
        <time>2024-11-20T12:02:07Z</time>
      </trkpt>
      <trkpt lat="48.16054" lon="-3.3232">
        <ele>225</ele>
        <time>2024-11-20T12:02:08Z</time>
      </trkpt>
      <trkpt lat="48.16054" lon="-3.3232">
        <ele>225</ele>
        <time>2024-11-20T12:02:09Z</time>
      </trkpt>
      <trkpt lat="48.16054" lon="-3.3232">
        <ele>225</ele>
        <time>2024-11-20T12:02:10Z</time>
      </trkpt>
      <trkpt lat="48.16054" lon="-3.3232">
        <ele>225</ele>
        <time>2024-11-20T12:02:11Z</time>
      </trkpt>
      <trkpt lat="48.16054" lon="-3.3232">
        <ele>225</ele>
        <time>2024-11-20T12:02:12Z</time>
      </trkpt>
      <trkpt lat="48.16054" lon="-3.3232">
        <ele>225</ele>
        <time>2024-11-20T12:02:13Z</time>
      </trkpt>
      <trkpt lat="48.16054" lon="-3.3232">
        <ele>225</ele>
        <time>2024-11-20T12:02:14Z</time>
      </trkpt>
      <trkpt lat="48.16054" lon="-3.3232">
        <ele>225</ele>
        <time>2024-11-20T12:02:15Z</time>
      </trkpt>
      <trkpt lat="48.16054" lon="-3.3232">
        <ele>225</ele>
        <time>2024-11-20T12:02:16Z</time>
      </trkpt>
      <trkpt lat="48.16054" lon="-3.3232">
        <ele>225</ele>
        <time>2024-11-20T12:02:17Z</time>
      </trkpt>
      <trkpt lat="48.16054" lon="-3.3232">
        <ele>225</ele>
        <time>2024-11-20T12:02:18Z</time>
      </trkpt>
      <trkpt lat="48.16054" lon="-3.3232">
        <ele>225</ele>
        <time>2024-11-20T12:02:19Z</time>
      </trkpt>
      <trkpt lat="48.16054" lon="-3.3232">
        <ele>225</ele>
        <time>2024-11-20T12:02:20Z</time>
      </trkpt>
      <trkpt lat="48.16054" lon="-3.3232">
        <ele>225</ele>
        <time>2024-11-20T12:02:21Z</time>
      </trkpt>
      <trkpt lat="48.16054" lon="-3.3232">
        <ele>225</ele>
        <time>2024-11-20T12:02:22Z</time>
      </trkpt>
      <trkpt lat="48.16054" lon="-3.3232">
        <ele>225</ele>
        <time>2024-11-20T12:02:23Z</time>
      </trkpt>
      <trkpt lat="48.16054" lon="-3.3232">
        <ele>225</ele>
        <time>2024-11-20T12:02:24Z</time>
      </trkpt>
      <trkpt lat="48.16054" lon="-3.3232">
        <ele>225</ele>
        <time>2024-11-20T12:02:25Z</time>
      </trkpt>
      <trkpt lat="48.16054" lon="-3.3232">
        <ele>225</ele>
        <time>2024-11-20T12:02:26Z</time>
      </trkpt>
      <trkpt lat="48.16054" lon="-3.3232">
        <ele>225</ele>
        <time>2024-11-20T12:02:27Z</time>
      </trkpt>
      <trkpt lat="48.16054" lon="-3.3232">
        <ele>225</ele>
        <time>2024-11-20T12:02:28Z</time>
      </trkpt>
      <trkpt lat="48.16054" lon="-3.3232">
        <ele>225</ele>
        <time>2024-11-20T12:02:29Z</time>
      </trkpt>
      <trkpt lat="48.16054" lon="-3.3232">
        <ele>225</ele>
        <time>2024-11-20T12:02:30Z</time>
      </trkpt>
      <trkpt lat="48.16054" lon="-3.3232">
        <ele>225</ele>
        <time>2024-11-20T12:02:31Z</time>
      </trkpt>
      <trkpt lat="48.16054" lon="-3.3232">
        <ele>225</ele>
        <time>2024-11-20T12:02:32Z</time>
      </trkpt>
      <trkpt lat="48.16054" lon="-3.3232">
        <ele>225</ele>
        <time>2024-11-20T12:02:33Z</time>
      </trkpt>
      <trkpt lat="48.16054" lon="-3.3232">
        <ele>225</ele>
        <time>2024-11-20T12:02:34Z</time>
      </trkpt>
      <trkpt lat="48.16054" lon="-3.3232">
        <ele>225</ele>
        <time>2024-11-20T12:02:35Z</time>
      </trkpt>
      <trkpt lat="48.16054" lon="-3.3232">
        <ele>225</ele>
        <time>2024-11-20T12:02:36Z</time>
      </trkpt>
      <trkpt lat="48.16054" lon="-3.3232">
        <ele>225</ele>
        <time>2024-11-20T12:02:37Z</time>
      </trkpt>
      <trkpt lat="48.16054" lon="-3.3232">
        <ele>225</ele>
        <time>2024-11-20T12:02:38Z</time>
      </trkpt>
      <trkpt lat="48.16054" lon="-3.3232">
        <ele>225</ele>
        <time>2024-11-20T12:02:39Z</time>
      </trkpt>
      <trkpt lat="48.16054" lon="-3.3232">
        <ele>225</ele>
        <time>2024-11-20T12:02:40Z</time>
      </trkpt>
      <trkpt lat="48.16054" lon="-3.3232">
        <ele>225</ele>
        <time>2024-11-20T12:02:41Z</time>
      </trkpt>
      <trkpt lat="48.16054" lon="-3.3232">
        <ele>225</ele>
        <time>2024-11-20T12:02:42Z</time>
      </trkpt>
      <trkpt lat="48.16054" lon="-3.3232">
        <ele>225</ele>
        <time>2024-11-20T12:02:43Z</time>
      </trkpt>
      <trkpt lat="48.16054" lon="-3.3232">
        <ele>225</ele>
        <time>2024-11-20T12:02:44Z</time>
      </trkpt>
      <trkpt lat="48.16054" lon="-3.3232">
        <ele>225</ele>
        <time>2024-11-20T12:02:45Z</time>
      </trkpt>
      <trkpt lat="48.16054" lon="-3.3232">
        <ele>225</ele>
        <time>2024-11-20T12:02:46Z</time>
      </trkpt>
      <trkpt lat="48.16054" lon="-3.3232">
        <ele>225</ele>
        <time>2024-11-20T12:02:47Z</time>
      </trkpt>
      <trkpt lat="48.16054" lon="-3.3232">
        <ele>225</ele>
        <time>2024-11-20T12:02:48Z</time>
      </trkpt>
      <trkpt lat="48.16054" lon="-3.3232">
        <ele>225</ele>
        <time>2024-11-20T12:02:49Z</time>
      </trkpt>
      <trkpt lat="48.16054" lon="-3.3232">
        <ele>225</ele>
        <time>2024-11-20T12:02:50Z</time>
      </trkpt>
      <trkpt lat="48.16054" lon="-3.3232">
        <ele>225</ele>
        <time>2024-11-20T12:02:51Z</time>
      </trkpt>
      <trkpt lat="48.16054" lon="-3.3232">
        <ele>225</ele>
        <time>2024-11-20T12:02:52Z</time>
      </trkpt>
      <trkpt lat="48.16054" lon="-3.3232">
        <ele>225</ele>
        <time>2024-11-20T12:02:53Z</time>
      </trkpt>
      <trkpt lat="48.16054" lon="-3.3232">
        <ele>225</ele>
        <time>2024-11-20T12:02:54Z</time>
      </trkpt>
      <trkpt lat="48.16054" lon="-3.3232">
        <ele>225</ele>
        <time>2024-11-20T12:02:55Z</time>
      </trkpt>
      <trkpt lat="48.16054" lon="-3.3232">
        <ele>225</ele>
        <time>2024-11-20T12:02:56Z</time>
      </trkpt>
      <trkpt lat="48.16054" lon="-3.3232">
        <ele>225</ele>
        <time>2024-11-20T12:02:57Z</time>
      </trkpt>
      <trkpt lat="48.16054" lon="-3.3232">
        <ele>225</ele>
        <time>2024-11-20T12:02:58Z</time>
      </trkpt>
      <trkpt lat="48.16054" lon="-3.32319">
        <ele>225</ele>
        <time>2024-11-20T12:02:59Z</time>
      </trkpt>
      <trkpt lat="48.16054" lon="-3.32319">
        <ele>225</ele>
        <time>2024-11-20T12:03:00Z</time>
      </trkpt>
      <trkpt lat="48.16054" lon="-3.32319">
        <ele>225</ele>
        <time>2024-11-20T12:03:01Z</time>
      </trkpt>
      <trkpt lat="48.16054" lon="-3.32319">
        <ele>225</ele>
        <time>2024-11-20T12:03:02Z</time>
      </trkpt>
      <trkpt lat="48.16054" lon="-3.32319">
        <ele>225.1</ele>
        <time>2024-11-20T12:03:03Z</time>
      </trkpt>
      <trkpt lat="48.16054" lon="-3.32319">
        <ele>225.1</ele>
        <time>2024-11-20T12:03:04Z</time>
      </trkpt>
      <trkpt lat="48.16054" lon="-3.32319">
        <ele>225.1</ele>
        <time>2024-11-20T12:03:05Z</time>
      </trkpt>
      <trkpt lat="48.16054" lon="-3.32319">
        <ele>225.1</ele>
        <time>2024-11-20T12:03:06Z</time>
      </trkpt>
      <trkpt lat="48.16054" lon="-3.32319">
        <ele>225</ele>
        <time>2024-11-20T12:03:07Z</time>
      </trkpt>
      <trkpt lat="48.16053" lon="-3.32319">
        <ele>225</ele>
        <time>2024-11-20T12:03:08Z</time>
      </trkpt>
      <trkpt lat="48.16053" lon="-3.32319">
        <ele>225</ele>
        <time>2024-11-20T12:03:09Z</time>
      </trkpt>
      <trkpt lat="48.16053" lon="-3.32319">
        <ele>225</ele>
        <time>2024-11-20T12:03:10Z</time>
      </trkpt>
      <trkpt lat="48.16053" lon="-3.32319">
        <ele>225</ele>
        <time>2024-11-20T12:03:11Z</time>
      </trkpt>
      <trkpt lat="48.16053" lon="-3.32319">
        <ele>225</ele>
        <time>2024-11-20T12:03:12Z</time>
      </trkpt>
      <trkpt lat="48.16053" lon="-3.32319">
        <ele>225</ele>
        <time>2024-11-20T12:03:13Z</time>
      </trkpt>
      <trkpt lat="48.16053" lon="-3.32319">
        <ele>225</ele>
        <time>2024-11-20T12:03:14Z</time>
      </trkpt>
      <trkpt lat="48.16053" lon="-3.32319">
        <ele>225</ele>
        <time>2024-11-20T12:03:15Z</time>
      </trkpt>
      <trkpt lat="48.16053" lon="-3.32319">
        <ele>225</ele>
        <time>2024-11-20T12:03:16Z</time>
      </trkpt>
      <trkpt lat="48.16053" lon="-3.32319">
        <ele>225</ele>
        <time>2024-11-20T12:03:17Z</time>
      </trkpt>
      <trkpt lat="48.16053" lon="-3.32319">
        <ele>225</ele>
        <time>2024-11-20T12:03:18Z</time>
      </trkpt>
      <trkpt lat="48.16053" lon="-3.32319">
        <ele>225</ele>
        <time>2024-11-20T12:03:19Z</time>
      </trkpt>
      <trkpt lat="48.16053" lon="-3.32319">
        <ele>225</ele>
        <time>2024-11-20T12:03:20Z</time>
      </trkpt>
      <trkpt lat="48.16053" lon="-3.32319">
        <ele>225</ele>
        <time>2024-11-20T12:03:21Z</time>
      </trkpt>
      <trkpt lat="48.16053" lon="-3.32319">
        <ele>225</ele>
        <time>2024-11-20T12:03:22Z</time>
      </trkpt>
      <trkpt lat="48.16053" lon="-3.32319">
        <ele>225</ele>
        <time>2024-11-20T12:03:23Z</time>
      </trkpt>
      <trkpt lat="48.16053" lon="-3.32319">
        <ele>225</ele>
        <time>2024-11-20T12:03:24Z</time>
      </trkpt>
      <trkpt lat="48.16053" lon="-3.32319">
        <ele>225</ele>
        <time>2024-11-20T12:03:25Z</time>
      </trkpt>
      <trkpt lat="48.16053" lon="-3.32319">
        <ele>225</ele>
        <time>2024-11-20T12:03:26Z</time>
      </trkpt>
      <trkpt lat="48.16053" lon="-3.32319">
        <ele>225</ele>
        <time>2024-11-20T12:03:27Z</time>
      </trkpt>
      <trkpt lat="48.16053" lon="-3.32319">
        <ele>225</ele>
        <time>2024-11-20T12:03:28Z</time>
      </trkpt>
      <trkpt lat="48.16053" lon="-3.32319">
        <ele>225</ele>
        <time>2024-11-20T12:03:29Z</time>
      </trkpt>
      <trkpt lat="48.16053" lon="-3.32319">
        <ele>225</ele>
        <time>2024-11-20T12:03:30Z</time>
      </trkpt>
      <trkpt lat="48.16053" lon="-3.32319">
        <ele>225</ele>
        <time>2024-11-20T12:03:31Z</time>
      </trkpt>
      <trkpt lat="48.16053" lon="-3.32319">
        <ele>225</ele>
        <time>2024-11-20T12:03:32Z</time>
      </trkpt>
      <trkpt lat="48.16053" lon="-3.32319">
        <ele>225</ele>
        <time>2024-11-20T12:03:33Z</time>
      </trkpt>
      <trkpt lat="48.16053" lon="-3.32319">
        <ele>225</ele>
        <time>2024-11-20T12:03:34Z</time>
      </trkpt>
      <trkpt lat="48.16053" lon="-3.32319">
        <ele>225</ele>
        <time>2024-11-20T12:03:35Z</time>
      </trkpt>
      <trkpt lat="48.16053" lon="-3.32319">
        <ele>225</ele>
        <time>2024-11-20T12:03:36Z</time>
      </trkpt>
      <trkpt lat="48.16053" lon="-3.32319">
        <ele>225</ele>
        <time>2024-11-20T12:03:37Z</time>
      </trkpt>
      <trkpt lat="48.16053" lon="-3.32319">
        <ele>225</ele>
        <time>2024-11-20T12:03:38Z</time>
      </trkpt>
      <trkpt lat="48.16053" lon="-3.32319">
        <ele>225</ele>
        <time>2024-11-20T12:03:39Z</time>
      </trkpt>
      <trkpt lat="48.16053" lon="-3.32319">
        <ele>225</ele>
        <time>2024-11-20T12:03:40Z</time>
      </trkpt>
      <trkpt lat="48.16053" lon="-3.32319">
        <ele>225</ele>
        <time>2024-11-20T12:03:41Z</time>
      </trkpt>
      <trkpt lat="48.16053" lon="-3.32319">
        <ele>225</ele>
        <time>2024-11-20T12:03:42Z</time>
      </trkpt>
      <trkpt lat="48.16053" lon="-3.32319">
        <ele>225</ele>
        <time>2024-11-20T12:03:43Z</time>
      </trkpt>
      <trkpt lat="48.16053" lon="-3.32319">
        <ele>225</ele>
        <time>2024-11-20T12:03:44Z</time>
      </trkpt>
      <trkpt lat="48.16053" lon="-3.32319">
        <ele>225</ele>
        <time>2024-11-20T12:03:45Z</time>
      </trkpt>
      <trkpt lat="48.16053" lon="-3.32319">
        <ele>225</ele>
        <time>2024-11-20T12:03:46Z</time>
      </trkpt>
      <trkpt lat="48.16053" lon="-3.32319">
        <ele>225</ele>
        <time>2024-11-20T12:03:47Z</time>
      </trkpt>
      <trkpt lat="48.16053" lon="-3.32319">
        <ele>225</ele>
        <time>2024-11-20T12:03:48Z</time>
      </trkpt>
      <trkpt lat="48.16053" lon="-3.32319">
        <ele>225</ele>
        <time>2024-11-20T12:03:49Z</time>
      </trkpt>
      <trkpt lat="48.16053" lon="-3.32319">
        <ele>225</ele>
        <time>2024-11-20T12:03:50Z</time>
      </trkpt>
      <trkpt lat="48.16053" lon="-3.32319">
        <ele>225</ele>
        <time>2024-11-20T12:03:51Z</time>
      </trkpt>
      <trkpt lat="48.16053" lon="-3.32319">
        <ele>225</ele>
        <time>2024-11-20T12:03:52Z</time>
      </trkpt>
      <trkpt lat="48.16053" lon="-3.32319">
        <ele>225</ele>
        <time>2024-11-20T12:03:53Z</time>
      </trkpt>
      <trkpt lat="48.16053" lon="-3.32319">
        <ele>225</ele>
        <time>2024-11-20T12:03:54Z</time>
      </trkpt>
      <trkpt lat="48.16053" lon="-3.32319">
        <ele>225</ele>
        <time>2024-11-20T12:03:55Z</time>
      </trkpt>
      <trkpt lat="48.16054" lon="-3.32319">
        <ele>225</ele>
        <time>2024-11-20T12:03:56Z</time>
      </trkpt>
      <trkpt lat="48.16054" lon="-3.32319">
        <ele>225</ele>
        <time>2024-11-20T12:03:57Z</time>
      </trkpt>
      <trkpt lat="48.16054" lon="-3.32319">
        <ele>225</ele>
        <time>2024-11-20T12:03:58Z</time>
      </trkpt>
      <trkpt lat="48.16054" lon="-3.32319">
        <ele>225</ele>
        <time>2024-11-20T12:03:59Z</time>
      </trkpt>
      <trkpt lat="48.16054" lon="-3.32319">
        <ele>225</ele>
        <time>2024-11-20T12:04:00Z</time>
      </trkpt>
      <trkpt lat="48.16054" lon="-3.32319">
        <ele>225</ele>
        <time>2024-11-20T12:04:01Z</time>
      </trkpt>
      <trkpt lat="48.16054" lon="-3.32319">
        <ele>225</ele>
        <time>2024-11-20T12:04:02Z</time>
      </trkpt>
      <trkpt lat="48.16054" lon="-3.32319">
        <ele>225</ele>
        <time>2024-11-20T12:04:03Z</time>
      </trkpt>
      <trkpt lat="48.16054" lon="-3.32319">
        <ele>225</ele>
        <time>2024-11-20T12:04:04Z</time>
      </trkpt>
      <trkpt lat="48.16054" lon="-3.32319">
        <ele>225</ele>
        <time>2024-11-20T12:04:05Z</time>
      </trkpt>
      <trkpt lat="48.16054" lon="-3.32319">
        <ele>225</ele>
        <time>2024-11-20T12:04:06Z</time>
      </trkpt>
      <trkpt lat="48.16054" lon="-3.32319">
        <ele>225.1</ele>
        <time>2024-11-20T12:04:07Z</time>
      </trkpt>
      <trkpt lat="48.16054" lon="-3.32318">
        <ele>225.1</ele>
        <time>2024-11-20T12:04:08Z</time>
      </trkpt>
      <trkpt lat="48.16054" lon="-3.32318">
        <ele>225.1</ele>
        <time>2024-11-20T12:04:09Z</time>
      </trkpt>
      <trkpt lat="48.16054" lon="-3.32318">
        <ele>225.1</ele>
        <time>2024-11-20T12:04:10Z</time>
      </trkpt>
      <trkpt lat="48.16054" lon="-3.32318">
        <ele>225.1</ele>
        <time>2024-11-20T12:04:11Z</time>
      </trkpt>
      <trkpt lat="48.16054" lon="-3.32318">
        <ele>225.1</ele>
        <time>2024-11-20T12:04:12Z</time>
      </trkpt>
      <trkpt lat="48.16055" lon="-3.32318">
        <ele>225.1</ele>
        <time>2024-11-20T12:04:13Z</time>
      </trkpt>
      <trkpt lat="48.16055" lon="-3.32317">
        <ele>225.1</ele>
        <time>2024-11-20T12:04:14Z</time>
      </trkpt>
      <trkpt lat="48.16055" lon="-3.32317">
        <ele>225.1</ele>
        <time>2024-11-20T12:04:15Z</time>
      </trkpt>
      <trkpt lat="48.16055" lon="-3.32317">
        <ele>225.1</ele>
        <time>2024-11-20T12:04:16Z</time>
      </trkpt>
      <trkpt lat="48.16055" lon="-3.32317">
        <ele>225.1</ele>
        <time>2024-11-20T12:04:17Z</time>
      </trkpt>
      <trkpt lat="48.16055" lon="-3.32317">
        <ele>225.1</ele>
        <time>2024-11-20T12:04:18Z</time>
      </trkpt>
      <trkpt lat="48.16055" lon="-3.32317">
        <ele>225.1</ele>
        <time>2024-11-20T12:04:19Z</time>
      </trkpt>
      <trkpt lat="48.16055" lon="-3.32317">
        <ele>225.1</ele>
        <time>2024-11-20T12:04:20Z</time>
      </trkpt>
      <trkpt lat="48.16055" lon="-3.32317">
        <ele>225.1</ele>
        <time>2024-11-20T12:04:21Z</time>
      </trkpt>
      <trkpt lat="48.16055" lon="-3.32317">
        <ele>225.1</ele>
        <time>2024-11-20T12:04:22Z</time>
      </trkpt>
      <trkpt lat="48.16055" lon="-3.32317">
        <ele>225.1</ele>
        <time>2024-11-20T12:04:23Z</time>
      </trkpt>
      <trkpt lat="48.16055" lon="-3.32317">
        <ele>225.1</ele>
        <time>2024-11-20T12:04:24Z</time>
      </trkpt>
      <trkpt lat="48.16055" lon="-3.32317">
        <ele>225.1</ele>
        <time>2024-11-20T12:04:25Z</time>
      </trkpt>
      <trkpt lat="48.16055" lon="-3.32317">
        <ele>225.1</ele>
        <time>2024-11-20T12:04:26Z</time>
      </trkpt>
      <trkpt lat="48.16055" lon="-3.32317">
        <ele>225.1</ele>
        <time>2024-11-20T12:04:27Z</time>
      </trkpt>
      <trkpt lat="48.16055" lon="-3.32317">
        <ele>225.1</ele>
        <time>2024-11-20T12:04:28Z</time>
      </trkpt>
      <trkpt lat="48.16055" lon="-3.32317">
        <ele>225.1</ele>
        <time>2024-11-20T12:04:29Z</time>
      </trkpt>
      <trkpt lat="48.16055" lon="-3.32317">
        <ele>225.1</ele>
        <time>2024-11-20T12:04:30Z</time>
      </trkpt>
      <trkpt lat="48.16055" lon="-3.32317">
        <ele>225.1</ele>
        <time>2024-11-20T12:04:31Z</time>
      </trkpt>
      <trkpt lat="48.16055" lon="-3.32317">
        <ele>225.1</ele>
        <time>2024-11-20T12:04:32Z</time>
      </trkpt>
      <trkpt lat="48.16055" lon="-3.32317">
        <ele>225.1</ele>
        <time>2024-11-20T12:04:33Z</time>
      </trkpt>
      <trkpt lat="48.16055" lon="-3.32317">
        <ele>225.1</ele>
        <time>2024-11-20T12:04:34Z</time>
      </trkpt>
      <trkpt lat="48.16055" lon="-3.32317">
        <ele>225.1</ele>
        <time>2024-11-20T12:04:35Z</time>
      </trkpt>
      <trkpt lat="48.16055" lon="-3.32317">
        <ele>225.1</ele>
        <time>2024-11-20T12:04:36Z</time>
      </trkpt>
      <trkpt lat="48.16055" lon="-3.32317">
        <ele>225.1</ele>
        <time>2024-11-20T12:04:37Z</time>
      </trkpt>
      <trkpt lat="48.16055" lon="-3.32317">
        <ele>225.1</ele>
        <time>2024-11-20T12:04:38Z</time>
      </trkpt>
      <trkpt lat="48.16055" lon="-3.32317">
        <ele>225.1</ele>
        <time>2024-11-20T12:04:39Z</time>
      </trkpt>
      <trkpt lat="48.16055" lon="-3.32317">
        <ele>225.1</ele>
        <time>2024-11-20T12:04:40Z</time>
      </trkpt>
      <trkpt lat="48.16055" lon="-3.32317">
        <ele>225.1</ele>
        <time>2024-11-20T12:04:41Z</time>
      </trkpt>
      <trkpt lat="48.16055" lon="-3.32317">
        <ele>225.1</ele>
        <time>2024-11-20T12:04:42Z</time>
      </trkpt>
      <trkpt lat="48.16055" lon="-3.32318">
        <ele>225.1</ele>
        <time>2024-11-20T12:04:43Z</time>
      </trkpt>
      <trkpt lat="48.16055" lon="-3.32318">
        <ele>225.1</ele>
        <time>2024-11-20T12:04:44Z</time>
      </trkpt>
      <trkpt lat="48.16055" lon="-3.32318">
        <ele>225.1</ele>
        <time>2024-11-20T12:04:45Z</time>
      </trkpt>
      <trkpt lat="48.16055" lon="-3.32318">
        <ele>225.1</ele>
        <time>2024-11-20T12:04:46Z</time>
      </trkpt>
      <trkpt lat="48.16055" lon="-3.32318">
        <ele>225.1</ele>
        <time>2024-11-20T12:04:47Z</time>
      </trkpt>
      <trkpt lat="48.16055" lon="-3.32318">
        <ele>225.1</ele>
        <time>2024-11-20T12:04:48Z</time>
      </trkpt>
      <trkpt lat="48.16055" lon="-3.32318">
        <ele>225.1</ele>
        <time>2024-11-20T12:04:49Z</time>
      </trkpt>
      <trkpt lat="48.16055" lon="-3.32318">
        <ele>225.1</ele>
        <time>2024-11-20T12:04:50Z</time>
      </trkpt>
      <trkpt lat="48.16055" lon="-3.32318">
        <ele>225.1</ele>
        <time>2024-11-20T12:04:51Z</time>
      </trkpt>
      <trkpt lat="48.16055" lon="-3.32318">
        <ele>225.1</ele>
        <time>2024-11-20T12:04:52Z</time>
      </trkpt>
      <trkpt lat="48.16055" lon="-3.32318">
        <ele>225.1</ele>
        <time>2024-11-20T12:04:53Z</time>
      </trkpt>
      <trkpt lat="48.16055" lon="-3.32318">
        <ele>225.1</ele>
        <time>2024-11-20T12:04:54Z</time>
      </trkpt>
      <trkpt lat="48.16055" lon="-3.32318">
        <ele>225.1</ele>
        <time>2024-11-20T12:04:55Z</time>
      </trkpt>
      <trkpt lat="48.16055" lon="-3.32318">
        <ele>225.1</ele>
        <time>2024-11-20T12:04:56Z</time>
      </trkpt>
      <trkpt lat="48.16055" lon="-3.32318">
        <ele>225.1</ele>
        <time>2024-11-20T12:04:57Z</time>
      </trkpt>
      <trkpt lat="48.16055" lon="-3.32318">
        <ele>225.1</ele>
        <time>2024-11-20T12:04:58Z</time>
      </trkpt>
      <trkpt lat="48.16055" lon="-3.32318">
        <ele>225.1</ele>
        <time>2024-11-20T12:04:59Z</time>
      </trkpt>
      <trkpt lat="48.16055" lon="-3.32317">
        <ele>225.1</ele>
        <time>2024-11-20T12:05:00Z</time>
      </trkpt>
      <trkpt lat="48.16055" lon="-3.32317">
        <ele>225.1</ele>
        <time>2024-11-20T12:05:01Z</time>
      </trkpt>
      <trkpt lat="48.16055" lon="-3.32317">
        <ele>225.1</ele>
        <time>2024-11-20T12:05:02Z</time>
      </trkpt>
      <trkpt lat="48.16055" lon="-3.32317">
        <ele>225.1</ele>
        <time>2024-11-20T12:05:03Z</time>
      </trkpt>
      <trkpt lat="48.16055" lon="-3.32317">
        <ele>225.1</ele>
        <time>2024-11-20T12:05:04Z</time>
      </trkpt>
      <trkpt lat="48.16055" lon="-3.32317">
        <ele>225.1</ele>
        <time>2024-11-20T12:05:05Z</time>
      </trkpt>
      <trkpt lat="48.16055" lon="-3.32317">
        <ele>225.1</ele>
        <time>2024-11-20T12:05:06Z</time>
      </trkpt>
      <trkpt lat="48.16055" lon="-3.32317">
        <ele>225.1</ele>
        <time>2024-11-20T12:05:07Z</time>
      </trkpt>
      <trkpt lat="48.16055" lon="-3.32317">
        <ele>225.1</ele>
        <time>2024-11-20T12:05:08Z</time>
      </trkpt>
      <trkpt lat="48.16055" lon="-3.32317">
        <ele>225.1</ele>
        <time>2024-11-20T12:05:09Z</time>
      </trkpt>
      <trkpt lat="48.16055" lon="-3.32317">
        <ele>225.2</ele>
        <time>2024-11-20T12:05:10Z</time>
      </trkpt>
      <trkpt lat="48.16055" lon="-3.32317">
        <ele>225.2</ele>
        <time>2024-11-20T12:05:11Z</time>
      </trkpt>
      <trkpt lat="48.16055" lon="-3.32316">
        <ele>225.2</ele>
        <time>2024-11-20T12:05:12Z</time>
      </trkpt>
      <trkpt lat="48.16055" lon="-3.32316">
        <ele>225.2</ele>
        <time>2024-11-20T12:05:13Z</time>
      </trkpt>
      <trkpt lat="48.16055" lon="-3.32316">
        <ele>225.3</ele>
        <time>2024-11-20T12:05:14Z</time>
      </trkpt>
      <trkpt lat="48.16055" lon="-3.32316">
        <ele>225.3</ele>
        <time>2024-11-20T12:05:15Z</time>
      </trkpt>
      <trkpt lat="48.16055" lon="-3.32315">
        <ele>225.4</ele>
        <time>2024-11-20T12:05:16Z</time>
      </trkpt>
      <trkpt lat="48.16056" lon="-3.32314">
        <ele>225.4</ele>
        <time>2024-11-20T12:05:17Z</time>
      </trkpt>
      <trkpt lat="48.16056" lon="-3.32314">
        <ele>225.4</ele>
        <time>2024-11-20T12:05:18Z</time>
      </trkpt>
      <trkpt lat="48.16056" lon="-3.32314">
        <ele>225.4</ele>
        <time>2024-11-20T12:05:19Z</time>
      </trkpt>
      <trkpt lat="48.16056" lon="-3.32314">
        <ele>225.4</ele>
        <time>2024-11-20T12:05:20Z</time>
      </trkpt>
      <trkpt lat="48.16056" lon="-3.32314">
        <ele>225.4</ele>
        <time>2024-11-20T12:05:21Z</time>
      </trkpt>
      <trkpt lat="48.16056" lon="-3.32314">
        <ele>225.4</ele>
        <time>2024-11-20T12:05:22Z</time>
      </trkpt>
      <trkpt lat="48.16056" lon="-3.32314">
        <ele>225.4</ele>
        <time>2024-11-20T12:05:23Z</time>
      </trkpt>
      <trkpt lat="48.16056" lon="-3.32315">
        <ele>225.3</ele>
        <time>2024-11-20T12:05:24Z</time>
      </trkpt>
      <trkpt lat="48.16056" lon="-3.32316">
        <ele>225.3</ele>
        <time>2024-11-20T12:05:25Z</time>
      </trkpt>
      <trkpt lat="48.16056" lon="-3.32316">
        <ele>225.2</ele>
        <time>2024-11-20T12:05:26Z</time>
      </trkpt>
      <trkpt lat="48.16056" lon="-3.32317">
        <ele>225.2</ele>
        <time>2024-11-20T12:05:27Z</time>
      </trkpt>
      <trkpt lat="48.16056" lon="-3.32317">
        <ele>225.2</ele>
        <time>2024-11-20T12:05:28Z</time>
      </trkpt>
      <trkpt lat="48.16056" lon="-3.32317">
        <ele>225.2</ele>
        <time>2024-11-20T12:05:29Z</time>
      </trkpt>
      <trkpt lat="48.16056" lon="-3.32317">
        <ele>225.1</ele>
        <time>2024-11-20T12:05:30Z</time>
      </trkpt>
      <trkpt lat="48.16056" lon="-3.32317">
        <ele>225.1</ele>
        <time>2024-11-20T12:05:31Z</time>
      </trkpt>
      <trkpt lat="48.16057" lon="-3.32317">
        <ele>225.1</ele>
        <time>2024-11-20T12:05:32Z</time>
      </trkpt>
      <trkpt lat="48.16057" lon="-3.32317">
        <ele>225.1</ele>
        <time>2024-11-20T12:05:33Z</time>
      </trkpt>
      <trkpt lat="48.16057" lon="-3.32317">
        <ele>225.2</ele>
        <time>2024-11-20T12:05:34Z</time>
      </trkpt>
      <trkpt lat="48.16057" lon="-3.32316">
        <ele>225.2</ele>
        <time>2024-11-20T12:05:35Z</time>
      </trkpt>
      <trkpt lat="48.16058" lon="-3.32316">
        <ele>225.2</ele>
        <time>2024-11-20T12:05:36Z</time>
      </trkpt>
      <trkpt lat="48.16058" lon="-3.32316">
        <ele>225.2</ele>
        <time>2024-11-20T12:05:37Z</time>
      </trkpt>
      <trkpt lat="48.16058" lon="-3.32316">
        <ele>225.2</ele>
        <time>2024-11-20T12:05:38Z</time>
      </trkpt>
      <trkpt lat="48.16058" lon="-3.32316">
        <ele>225.2</ele>
        <time>2024-11-20T12:05:39Z</time>
      </trkpt>
      <trkpt lat="48.16058" lon="-3.32316">
        <ele>225.2</ele>
        <time>2024-11-20T12:05:40Z</time>
      </trkpt>
      <trkpt lat="48.16058" lon="-3.32316">
        <ele>225.2</ele>
        <time>2024-11-20T12:05:41Z</time>
      </trkpt>
      <trkpt lat="48.16058" lon="-3.32316">
        <ele>225.2</ele>
        <time>2024-11-20T12:05:42Z</time>
      </trkpt>
      <trkpt lat="48.16058" lon="-3.32316">
        <ele>225.2</ele>
        <time>2024-11-20T12:05:43Z</time>
      </trkpt>
      <trkpt lat="48.16058" lon="-3.32316">
        <ele>225.2</ele>
        <time>2024-11-20T12:05:44Z</time>
      </trkpt>
      <trkpt lat="48.16058" lon="-3.32316">
        <ele>225.2</ele>
        <time>2024-11-20T12:05:45Z</time>
      </trkpt>
      <trkpt lat="48.16058" lon="-3.32316">
        <ele>225.2</ele>
        <time>2024-11-20T12:05:46Z</time>
      </trkpt>
      <trkpt lat="48.16058" lon="-3.32316">
        <ele>225.1</ele>
        <time>2024-11-20T12:05:47Z</time>
      </trkpt>
      <trkpt lat="48.16058" lon="-3.32317">
        <ele>225.1</ele>
        <time>2024-11-20T12:05:48Z</time>
      </trkpt>
      <trkpt lat="48.16057" lon="-3.32317">
        <ele>225.1</ele>
        <time>2024-11-20T12:05:49Z</time>
      </trkpt>
      <trkpt lat="48.16057" lon="-3.32318">
        <ele>225.1</ele>
        <time>2024-11-20T12:05:50Z</time>
      </trkpt>
      <trkpt lat="48.16057" lon="-3.32318">
        <ele>225.1</ele>
        <time>2024-11-20T12:05:51Z</time>
      </trkpt>
      <trkpt lat="48.16057" lon="-3.32318">
        <ele>225.1</ele>
        <time>2024-11-20T12:05:52Z</time>
      </trkpt>
      <trkpt lat="48.16057" lon="-3.32318">
        <ele>225.1</ele>
        <time>2024-11-20T12:05:53Z</time>
      </trkpt>
      <trkpt lat="48.16057" lon="-3.32318">
        <ele>225.1</ele>
        <time>2024-11-20T12:05:54Z</time>
      </trkpt>
      <trkpt lat="48.16057" lon="-3.32318">
        <ele>225.1</ele>
        <time>2024-11-20T12:05:55Z</time>
      </trkpt>
      <trkpt lat="48.16057" lon="-3.32318">
        <ele>225.1</ele>
        <time>2024-11-20T12:05:56Z</time>
      </trkpt>
      <trkpt lat="48.16057" lon="-3.32318">
        <ele>225.1</ele>
        <time>2024-11-20T12:05:57Z</time>
      </trkpt>
      <trkpt lat="48.16057" lon="-3.32318">
        <ele>225.1</ele>
        <time>2024-11-20T12:05:58Z</time>
      </trkpt>
      <trkpt lat="48.16057" lon="-3.32318">
        <ele>225.1</ele>
        <time>2024-11-20T12:05:59Z</time>
      </trkpt>
      <trkpt lat="48.16057" lon="-3.32318">
        <ele>225.1</ele>
        <time>2024-11-20T12:06:00Z</time>
      </trkpt>
      <trkpt lat="48.16057" lon="-3.32318">
        <ele>225.1</ele>
        <time>2024-11-20T12:06:01Z</time>
      </trkpt>
      <trkpt lat="48.16057" lon="-3.32318">
        <ele>225.1</ele>
        <time>2024-11-20T12:06:02Z</time>
      </trkpt>
      <trkpt lat="48.16057" lon="-3.32318">
        <ele>225.1</ele>
        <time>2024-11-20T12:06:03Z</time>
      </trkpt>
      <trkpt lat="48.16057" lon="-3.32318">
        <ele>225.1</ele>
        <time>2024-11-20T12:06:04Z</time>
      </trkpt>
      <trkpt lat="48.16057" lon="-3.32318">
        <ele>225.1</ele>
        <time>2024-11-20T12:06:05Z</time>
      </trkpt>
      <trkpt lat="48.16057" lon="-3.32318">
        <ele>225.1</ele>
        <time>2024-11-20T12:06:06Z</time>
      </trkpt>
      <trkpt lat="48.16057" lon="-3.32318">
        <ele>225.1</ele>
        <time>2024-11-20T12:06:07Z</time>
      </trkpt>
      <trkpt lat="48.16057" lon="-3.32318">
        <ele>225.1</ele>
        <time>2024-11-20T12:06:08Z</time>
      </trkpt>
      <trkpt lat="48.16057" lon="-3.32318">
        <ele>225.1</ele>
        <time>2024-11-20T12:06:09Z</time>
      </trkpt>
      <trkpt lat="48.16057" lon="-3.32318">
        <ele>225.1</ele>
        <time>2024-11-20T12:06:10Z</time>
      </trkpt>
      <trkpt lat="48.16057" lon="-3.32318">
        <ele>225.1</ele>
        <time>2024-11-20T12:06:11Z</time>
      </trkpt>
      <trkpt lat="48.16057" lon="-3.32318">
        <ele>225.1</ele>
        <time>2024-11-20T12:06:12Z</time>
      </trkpt>
      <trkpt lat="48.16057" lon="-3.32318">
        <ele>225.1</ele>
        <time>2024-11-20T12:06:13Z</time>
      </trkpt>
      <trkpt lat="48.16057" lon="-3.32318">
        <ele>225.1</ele>
        <time>2024-11-20T12:06:14Z</time>
      </trkpt>
      <trkpt lat="48.16057" lon="-3.32318">
        <ele>225.1</ele>
        <time>2024-11-20T12:06:15Z</time>
      </trkpt>
      <trkpt lat="48.16057" lon="-3.32317">
        <ele>225.1</ele>
        <time>2024-11-20T12:06:16Z</time>
      </trkpt>
      <trkpt lat="48.16058" lon="-3.32317">
        <ele>225.1</ele>
        <time>2024-11-20T12:06:17Z</time>
      </trkpt>
      <trkpt lat="48.16058" lon="-3.32317">
        <ele>225.1</ele>
        <time>2024-11-20T12:06:18Z</time>
      </trkpt>
      <trkpt lat="48.16058" lon="-3.32317">
        <ele>225.1</ele>
        <time>2024-11-20T12:06:19Z</time>
      </trkpt>
      <trkpt lat="48.16058" lon="-3.32317">
        <ele>225.1</ele>
        <time>2024-11-20T12:06:20Z</time>
      </trkpt>
      <trkpt lat="48.16057" lon="-3.32317">
        <ele>225.1</ele>
        <time>2024-11-20T12:06:21Z</time>
      </trkpt>
      <trkpt lat="48.16057" lon="-3.32317">
        <ele>225.1</ele>
        <time>2024-11-20T12:06:22Z</time>
      </trkpt>
      <trkpt lat="48.16057" lon="-3.32317">
        <ele>225.1</ele>
        <time>2024-11-20T12:06:23Z</time>
      </trkpt>
      <trkpt lat="48.16057" lon="-3.32317">
        <ele>225.1</ele>
        <time>2024-11-20T12:06:24Z</time>
      </trkpt>
      <trkpt lat="48.16057" lon="-3.32317">
        <ele>225.1</ele>
        <time>2024-11-20T12:06:25Z</time>
      </trkpt>
      <trkpt lat="48.16057" lon="-3.32317">
        <ele>225.1</ele>
        <time>2024-11-20T12:06:26Z</time>
      </trkpt>
      <trkpt lat="48.16057" lon="-3.32317">
        <ele>225.1</ele>
        <time>2024-11-20T12:06:27Z</time>
      </trkpt>
      <trkpt lat="48.16057" lon="-3.32317">
        <ele>225.1</ele>
        <time>2024-11-20T12:06:28Z</time>
      </trkpt>
      <trkpt lat="48.16057" lon="-3.32317">
        <ele>225.1</ele>
        <time>2024-11-20T12:06:29Z</time>
      </trkpt>
      <trkpt lat="48.16056" lon="-3.32317">
        <ele>225.1</ele>
        <time>2024-11-20T12:06:30Z</time>
      </trkpt>
      <trkpt lat="48.16056" lon="-3.32317">
        <ele>225.1</ele>
        <time>2024-11-20T12:06:31Z</time>
      </trkpt>
      <trkpt lat="48.16056" lon="-3.32318">
        <ele>225.1</ele>
        <time>2024-11-20T12:06:32Z</time>
      </trkpt>
      <trkpt lat="48.16056" lon="-3.32317">
        <ele>225.2</ele>
        <time>2024-11-20T12:06:33Z</time>
      </trkpt>
      <trkpt lat="48.16056" lon="-3.32316">
        <ele>225.2</ele>
        <time>2024-11-20T12:06:34Z</time>
      </trkpt>
      <trkpt lat="48.16056" lon="-3.32316">
        <ele>225.2</ele>
        <time>2024-11-20T12:06:35Z</time>
      </trkpt>
      <trkpt lat="48.16056" lon="-3.32316">
        <ele>225.3</ele>
        <time>2024-11-20T12:06:36Z</time>
      </trkpt>
      <trkpt lat="48.16056" lon="-3.32316">
        <ele>225.2</ele>
        <time>2024-11-20T12:06:37Z</time>
      </trkpt>
      <trkpt lat="48.16055" lon="-3.32316">
        <ele>225.2</ele>
        <time>2024-11-20T12:06:38Z</time>
      </trkpt>
      <trkpt lat="48.16055" lon="-3.32316">
        <ele>225.2</ele>
        <time>2024-11-20T12:06:39Z</time>
      </trkpt>
      <trkpt lat="48.16055" lon="-3.32316">
        <ele>225.2</ele>
        <time>2024-11-20T12:06:40Z</time>
      </trkpt>
      <trkpt lat="48.16055" lon="-3.32316">
        <ele>225.2</ele>
        <time>2024-11-20T12:06:41Z</time>
      </trkpt>
      <trkpt lat="48.16055" lon="-3.32316">
        <ele>225.2</ele>
        <time>2024-11-20T12:06:42Z</time>
      </trkpt>
      <trkpt lat="48.16055" lon="-3.32316">
        <ele>225.2</ele>
        <time>2024-11-20T12:06:43Z</time>
      </trkpt>
      <trkpt lat="48.16055" lon="-3.32316">
        <ele>225.2</ele>
        <time>2024-11-20T12:06:44Z</time>
      </trkpt>
      <trkpt lat="48.16055" lon="-3.32316">
        <ele>225.2</ele>
        <time>2024-11-20T12:06:45Z</time>
      </trkpt>
      <trkpt lat="48.16055" lon="-3.32316">
        <ele>225.2</ele>
        <time>2024-11-20T12:06:46Z</time>
      </trkpt>
      <trkpt lat="48.16055" lon="-3.32316">
        <ele>225.2</ele>
        <time>2024-11-20T12:06:47Z</time>
      </trkpt>
      <trkpt lat="48.16055" lon="-3.32316">
        <ele>225.2</ele>
        <time>2024-11-20T12:06:48Z</time>
      </trkpt>
      <trkpt lat="48.16055" lon="-3.32316">
        <ele>225.2</ele>
        <time>2024-11-20T12:06:49Z</time>
      </trkpt>
      <trkpt lat="48.16055" lon="-3.32316">
        <ele>225.2</ele>
        <time>2024-11-20T12:06:50Z</time>
      </trkpt>
      <trkpt lat="48.16055" lon="-3.32316">
        <ele>225.2</ele>
        <time>2024-11-20T12:06:51Z</time>
      </trkpt>
      <trkpt lat="48.16055" lon="-3.32316">
        <ele>225.2</ele>
        <time>2024-11-20T12:06:52Z</time>
      </trkpt>
      <trkpt lat="48.16055" lon="-3.32316">
        <ele>225.2</ele>
        <time>2024-11-20T12:06:53Z</time>
      </trkpt>
      <trkpt lat="48.16055" lon="-3.32316">
        <ele>225.2</ele>
        <time>2024-11-20T12:06:54Z</time>
      </trkpt>
      <trkpt lat="48.16055" lon="-3.32316">
        <ele>225.2</ele>
        <time>2024-11-20T12:06:55Z</time>
      </trkpt>
      <trkpt lat="48.16055" lon="-3.32316">
        <ele>225.2</ele>
        <time>2024-11-20T12:06:56Z</time>
      </trkpt>
      <trkpt lat="48.16055" lon="-3.32316">
        <ele>225.2</ele>
        <time>2024-11-20T12:06:57Z</time>
      </trkpt>
      <trkpt lat="48.16055" lon="-3.32316">
        <ele>225.2</ele>
        <time>2024-11-20T12:06:58Z</time>
      </trkpt>
      <trkpt lat="48.16054" lon="-3.32317">
        <ele>225.2</ele>
        <time>2024-11-20T12:06:59Z</time>
      </trkpt>
      <trkpt lat="48.16054" lon="-3.32317">
        <ele>225.2</ele>
        <time>2024-11-20T12:07:00Z</time>
      </trkpt>
      <trkpt lat="48.16054" lon="-3.32317">
        <ele>225.2</ele>
        <time>2024-11-20T12:07:01Z</time>
      </trkpt>
      <trkpt lat="48.16054" lon="-3.32316">
        <ele>225.2</ele>
        <time>2024-11-20T12:07:02Z</time>
      </trkpt>
      <trkpt lat="48.16054" lon="-3.32316">
        <ele>225.2</ele>
        <time>2024-11-20T12:07:03Z</time>
      </trkpt>
      <trkpt lat="48.16054" lon="-3.32316">
        <ele>225.2</ele>
        <time>2024-11-20T12:07:04Z</time>
      </trkpt>
      <trkpt lat="48.16054" lon="-3.32316">
        <ele>225.2</ele>
        <time>2024-11-20T12:07:05Z</time>
      </trkpt>
      <trkpt lat="48.16054" lon="-3.32316">
        <ele>225.2</ele>
        <time>2024-11-20T12:07:06Z</time>
      </trkpt>
      <trkpt lat="48.16054" lon="-3.32316">
        <ele>225.2</ele>
        <time>2024-11-20T12:07:07Z</time>
      </trkpt>
      <trkpt lat="48.16055" lon="-3.32316">
        <ele>225.2</ele>
        <time>2024-11-20T12:07:08Z</time>
      </trkpt>
      <trkpt lat="48.16055" lon="-3.32317">
        <ele>225.2</ele>
        <time>2024-11-20T12:07:09Z</time>
      </trkpt>
      <trkpt lat="48.16055" lon="-3.32317">
        <ele>225.2</ele>
        <time>2024-11-20T12:07:10Z</time>
      </trkpt>
      <trkpt lat="48.16055" lon="-3.32317">
        <ele>225.2</ele>
        <time>2024-11-20T12:07:11Z</time>
      </trkpt>
      <trkpt lat="48.16055" lon="-3.32317">
        <ele>225.2</ele>
        <time>2024-11-20T12:07:12Z</time>
      </trkpt>
      <trkpt lat="48.16055" lon="-3.32317">
        <ele>225.1</ele>
        <time>2024-11-20T12:07:13Z</time>
      </trkpt>
      <trkpt lat="48.16055" lon="-3.32318">
        <ele>225.1</ele>
        <time>2024-11-20T12:07:14Z</time>
      </trkpt>
      <trkpt lat="48.16055" lon="-3.32317">
        <ele>225.2</ele>
        <time>2024-11-20T12:07:15Z</time>
      </trkpt>
      <trkpt lat="48.16055" lon="-3.32317">
        <ele>225.2</ele>
        <time>2024-11-20T12:07:16Z</time>
      </trkpt>
      <trkpt lat="48.16055" lon="-3.32316">
        <ele>225.2</ele>
        <time>2024-11-20T12:07:17Z</time>
      </trkpt>
      <trkpt lat="48.16054" lon="-3.32316">
        <ele>225.3</ele>
        <time>2024-11-20T12:07:18Z</time>
      </trkpt>
      <trkpt lat="48.16054" lon="-3.32315">
        <ele>225.3</ele>
        <time>2024-11-20T12:07:19Z</time>
      </trkpt>
      <trkpt lat="48.16054" lon="-3.32315">
        <ele>225.3</ele>
        <time>2024-11-20T12:07:20Z</time>
      </trkpt>
      <trkpt lat="48.16054" lon="-3.32315">
        <ele>225.3</ele>
        <time>2024-11-20T12:07:21Z</time>
      </trkpt>
      <trkpt lat="48.16054" lon="-3.32315">
        <ele>225.3</ele>
        <time>2024-11-20T12:07:22Z</time>
      </trkpt>
      <trkpt lat="48.16053" lon="-3.32315">
        <ele>225.3</ele>
        <time>2024-11-20T12:07:23Z</time>
      </trkpt>
      <trkpt lat="48.16053" lon="-3.32315">
        <ele>225.3</ele>
        <time>2024-11-20T12:07:24Z</time>
      </trkpt>
      <trkpt lat="48.16053" lon="-3.32314">
        <ele>225.4</ele>
        <time>2024-11-20T12:07:25Z</time>
      </trkpt>
      <trkpt lat="48.16053" lon="-3.32313">
        <ele>225.4</ele>
        <time>2024-11-20T12:07:26Z</time>
      </trkpt>
      <trkpt lat="48.16054" lon="-3.32313">
        <ele>225.5</ele>
        <time>2024-11-20T12:07:27Z</time>
      </trkpt>
      <trkpt lat="48.16054" lon="-3.32313">
        <ele>225.5</ele>
        <time>2024-11-20T12:07:28Z</time>
      </trkpt>
      <trkpt lat="48.16054" lon="-3.32312">
        <ele>225.5</ele>
        <time>2024-11-20T12:07:29Z</time>
      </trkpt>
      <trkpt lat="48.16054" lon="-3.32312">
        <ele>225.6</ele>
        <time>2024-11-20T12:07:30Z</time>
      </trkpt>
      <trkpt lat="48.16054" lon="-3.32311">
        <ele>225.6</ele>
        <time>2024-11-20T12:07:31Z</time>
      </trkpt>
      <trkpt lat="48.16054" lon="-3.32311">
        <ele>225.6</ele>
        <time>2024-11-20T12:07:32Z</time>
      </trkpt>
      <trkpt lat="48.16054" lon="-3.32311">
        <ele>225.6</ele>
        <time>2024-11-20T12:07:33Z</time>
      </trkpt>
      <trkpt lat="48.16054" lon="-3.32311">
        <ele>225.6</ele>
        <time>2024-11-20T12:07:34Z</time>
      </trkpt>
      <trkpt lat="48.16054" lon="-3.32311">
        <ele>225.6</ele>
        <time>2024-11-20T12:07:35Z</time>
      </trkpt>
      <trkpt lat="48.16054" lon="-3.32312">
        <ele>225.6</ele>
        <time>2024-11-20T12:07:36Z</time>
      </trkpt>
      <trkpt lat="48.16054" lon="-3.32312">
        <ele>225.6</ele>
        <time>2024-11-20T12:07:37Z</time>
      </trkpt>
      <trkpt lat="48.16054" lon="-3.32312">
        <ele>225.6</ele>
        <time>2024-11-20T12:07:38Z</time>
      </trkpt>
      <trkpt lat="48.16054" lon="-3.32312">
        <ele>225.6</ele>
        <time>2024-11-20T12:07:39Z</time>
      </trkpt>
      <trkpt lat="48.16054" lon="-3.32312">
        <ele>225.6</ele>
        <time>2024-11-20T12:07:40Z</time>
      </trkpt>
      <trkpt lat="48.16054" lon="-3.32312">
        <ele>225.6</ele>
        <time>2024-11-20T12:07:41Z</time>
      </trkpt>
      <trkpt lat="48.16054" lon="-3.32312">
        <ele>225.6</ele>
        <time>2024-11-20T12:07:42Z</time>
      </trkpt>
      <trkpt lat="48.16054" lon="-3.32312">
        <ele>225.6</ele>
        <time>2024-11-20T12:07:43Z</time>
      </trkpt>
      <trkpt lat="48.16054" lon="-3.32312">
        <ele>225.6</ele>
        <time>2024-11-20T12:07:44Z</time>
      </trkpt>
      <trkpt lat="48.16054" lon="-3.32312">
        <ele>225.6</ele>
        <time>2024-11-20T12:07:45Z</time>
      </trkpt>
      <trkpt lat="48.16054" lon="-3.32312">
        <ele>225.6</ele>
        <time>2024-11-20T12:07:46Z</time>
      </trkpt>
      <trkpt lat="48.16054" lon="-3.32312">
        <ele>225.6</ele>
        <time>2024-11-20T12:07:47Z</time>
      </trkpt>
      <trkpt lat="48.16054" lon="-3.32312">
        <ele>225.6</ele>
        <time>2024-11-20T12:07:48Z</time>
      </trkpt>
      <trkpt lat="48.16054" lon="-3.32312">
        <ele>225.6</ele>
        <time>2024-11-20T12:07:49Z</time>
      </trkpt>
      <trkpt lat="48.16054" lon="-3.32312">
        <ele>225.6</ele>
        <time>2024-11-20T12:07:50Z</time>
      </trkpt>
      <trkpt lat="48.16054" lon="-3.32312">
        <ele>225.6</ele>
        <time>2024-11-20T12:07:51Z</time>
      </trkpt>
      <trkpt lat="48.16054" lon="-3.32312">
        <ele>225.5</ele>
        <time>2024-11-20T12:07:52Z</time>
      </trkpt>
      <trkpt lat="48.16055" lon="-3.32313">
        <ele>225.5</ele>
        <time>2024-11-20T12:07:53Z</time>
      </trkpt>
      <trkpt lat="48.16055" lon="-3.32314">
        <ele>225.4</ele>
        <time>2024-11-20T12:07:54Z</time>
      </trkpt>
      <trkpt lat="48.16055" lon="-3.32314">
        <ele>225.4</ele>
        <time>2024-11-20T12:07:55Z</time>
      </trkpt>
      <trkpt lat="48.16055" lon="-3.32314">
        <ele>225.4</ele>
        <time>2024-11-20T12:07:56Z</time>
      </trkpt>
      <trkpt lat="48.16055" lon="-3.32315">
        <ele>225.4</ele>
        <time>2024-11-20T12:07:57Z</time>
      </trkpt>
      <trkpt lat="48.16055" lon="-3.32315">
        <ele>225.3</ele>
        <time>2024-11-20T12:07:58Z</time>
      </trkpt>
      <trkpt lat="48.16055" lon="-3.32315">
        <ele>225.3</ele>
        <time>2024-11-20T12:07:59Z</time>
      </trkpt>
      <trkpt lat="48.16055" lon="-3.32315">
        <ele>225.3</ele>
        <time>2024-11-20T12:08:00Z</time>
      </trkpt>
      <trkpt lat="48.16055" lon="-3.32316">
        <ele>225.3</ele>
        <time>2024-11-20T12:08:01Z</time>
      </trkpt>
      <trkpt lat="48.16055" lon="-3.32316">
        <ele>225.2</ele>
        <time>2024-11-20T12:08:02Z</time>
      </trkpt>
      <trkpt lat="48.16055" lon="-3.32317">
        <ele>225.2</ele>
        <time>2024-11-20T12:08:03Z</time>
      </trkpt>
      <trkpt lat="48.16055" lon="-3.32317">
        <ele>225.2</ele>
        <time>2024-11-20T12:08:04Z</time>
      </trkpt>
      <trkpt lat="48.16055" lon="-3.32316">
        <ele>225.2</ele>
        <time>2024-11-20T12:08:05Z</time>
      </trkpt>
      <trkpt lat="48.16055" lon="-3.32316">
        <ele>225.3</ele>
        <time>2024-11-20T12:08:06Z</time>
      </trkpt>
      <trkpt lat="48.16055" lon="-3.32316">
        <ele>225.3</ele>
        <time>2024-11-20T12:08:07Z</time>
      </trkpt>
      <trkpt lat="48.16055" lon="-3.32316">
        <ele>225.3</ele>
        <time>2024-11-20T12:08:08Z</time>
      </trkpt>
      <trkpt lat="48.16055" lon="-3.32316">
        <ele>225.2</ele>
        <time>2024-11-20T12:08:09Z</time>
      </trkpt>
      <trkpt lat="48.16055" lon="-3.32316">
        <ele>225.2</ele>
        <time>2024-11-20T12:08:10Z</time>
      </trkpt>
      <trkpt lat="48.16055" lon="-3.32317">
        <ele>225.2</ele>
        <time>2024-11-20T12:08:11Z</time>
      </trkpt>
      <trkpt lat="48.16055" lon="-3.32317">
        <ele>225.2</ele>
        <time>2024-11-20T12:08:12Z</time>
      </trkpt>
      <trkpt lat="48.16055" lon="-3.32317">
        <ele>225.2</ele>
        <time>2024-11-20T12:08:13Z</time>
      </trkpt>
      <trkpt lat="48.16055" lon="-3.32317">
        <ele>225.2</ele>
        <time>2024-11-20T12:08:14Z</time>
      </trkpt>
      <trkpt lat="48.16055" lon="-3.32316">
        <ele>225.2</ele>
        <time>2024-11-20T12:08:15Z</time>
      </trkpt>
      <trkpt lat="48.16055" lon="-3.32316">
        <ele>225.2</ele>
        <time>2024-11-20T12:08:16Z</time>
      </trkpt>
      <trkpt lat="48.16055" lon="-3.32317">
        <ele>225.2</ele>
        <time>2024-11-20T12:08:17Z</time>
      </trkpt>
      <trkpt lat="48.16055" lon="-3.32317">
        <ele>225.2</ele>
        <time>2024-11-20T12:08:18Z</time>
      </trkpt>
      <trkpt lat="48.16056" lon="-3.32318">
        <ele>225.1</ele>
        <time>2024-11-20T12:08:19Z</time>
      </trkpt>
      <trkpt lat="48.16056" lon="-3.32318">
        <ele>225.1</ele>
        <time>2024-11-20T12:08:20Z</time>
      </trkpt>
      <trkpt lat="48.16056" lon="-3.32319">
        <ele>225</ele>
        <time>2024-11-20T12:08:21Z</time>
      </trkpt>
      <trkpt lat="48.16056" lon="-3.32319">
        <ele>225</ele>
        <time>2024-11-20T12:08:22Z</time>
      </trkpt>
      <trkpt lat="48.16056" lon="-3.32319">
        <ele>225</ele>
        <time>2024-11-20T12:08:23Z</time>
      </trkpt>
      <trkpt lat="48.16056" lon="-3.32319">
        <ele>225</ele>
        <time>2024-11-20T12:08:24Z</time>
      </trkpt>
      <trkpt lat="48.16056" lon="-3.32319">
        <ele>225</ele>
        <time>2024-11-20T12:08:25Z</time>
      </trkpt>
      <trkpt lat="48.16056" lon="-3.32319">
        <ele>225</ele>
        <time>2024-11-20T12:08:26Z</time>
      </trkpt>
      <trkpt lat="48.16056" lon="-3.32319">
        <ele>225</ele>
        <time>2024-11-20T12:08:27Z</time>
      </trkpt>
      <trkpt lat="48.16056" lon="-3.32319">
        <ele>225</ele>
        <time>2024-11-20T12:08:28Z</time>
      </trkpt>
      <trkpt lat="48.16056" lon="-3.32319">
        <ele>225</ele>
        <time>2024-11-20T12:08:29Z</time>
      </trkpt>
      <trkpt lat="48.16056" lon="-3.32319">
        <ele>225</ele>
        <time>2024-11-20T12:08:30Z</time>
      </trkpt>
      <trkpt lat="48.16056" lon="-3.32319">
        <ele>225</ele>
        <time>2024-11-20T12:08:31Z</time>
      </trkpt>
      <trkpt lat="48.16056" lon="-3.32319">
        <ele>225</ele>
        <time>2024-11-20T12:08:32Z</time>
      </trkpt>
      <trkpt lat="48.16056" lon="-3.32319">
        <ele>225</ele>
        <time>2024-11-20T12:08:33Z</time>
      </trkpt>
      <trkpt lat="48.16056" lon="-3.32319">
        <ele>225</ele>
        <time>2024-11-20T12:08:34Z</time>
      </trkpt>
      <trkpt lat="48.16056" lon="-3.32319">
        <ele>225</ele>
        <time>2024-11-20T12:08:35Z</time>
      </trkpt>
      <trkpt lat="48.16056" lon="-3.32319">
        <ele>225</ele>
        <time>2024-11-20T12:08:36Z</time>
      </trkpt>
      <trkpt lat="48.16056" lon="-3.32319">
        <ele>225</ele>
        <time>2024-11-20T12:08:37Z</time>
      </trkpt>
      <trkpt lat="48.16056" lon="-3.32319">
        <ele>225</ele>
        <time>2024-11-20T12:08:38Z</time>
      </trkpt>
      <trkpt lat="48.16056" lon="-3.32319">
        <ele>225</ele>
        <time>2024-11-20T12:08:39Z</time>
      </trkpt>
      <trkpt lat="48.16056" lon="-3.32319">
        <ele>225</ele>
        <time>2024-11-20T12:08:40Z</time>
      </trkpt>
      <trkpt lat="48.16056" lon="-3.32319">
        <ele>225</ele>
        <time>2024-11-20T12:08:41Z</time>
      </trkpt>
      <trkpt lat="48.16056" lon="-3.32319">
        <ele>225</ele>
        <time>2024-11-20T12:08:42Z</time>
      </trkpt>
      <trkpt lat="48.16056" lon="-3.32319">
        <ele>225</ele>
        <time>2024-11-20T12:08:43Z</time>
      </trkpt>
      <trkpt lat="48.16056" lon="-3.32319">
        <ele>225</ele>
        <time>2024-11-20T12:08:44Z</time>
      </trkpt>
      <trkpt lat="48.16056" lon="-3.32319">
        <ele>225</ele>
        <time>2024-11-20T12:08:45Z</time>
      </trkpt>
      <trkpt lat="48.16056" lon="-3.32319">
        <ele>225</ele>
        <time>2024-11-20T12:08:46Z</time>
      </trkpt>
      <trkpt lat="48.16056" lon="-3.32319">
        <ele>225</ele>
        <time>2024-11-20T12:08:47Z</time>
      </trkpt>
      <trkpt lat="48.16056" lon="-3.32319">
        <ele>225</ele>
        <time>2024-11-20T12:08:48Z</time>
      </trkpt>
      <trkpt lat="48.16056" lon="-3.32319">
        <ele>225</ele>
        <time>2024-11-20T12:08:49Z</time>
      </trkpt>
      <trkpt lat="48.16056" lon="-3.32319">
        <ele>225</ele>
        <time>2024-11-20T12:08:50Z</time>
      </trkpt>
      <trkpt lat="48.16056" lon="-3.32319">
        <ele>225</ele>
        <time>2024-11-20T12:08:51Z</time>
      </trkpt>
      <trkpt lat="48.16056" lon="-3.32319">
        <ele>225</ele>
        <time>2024-11-20T12:08:52Z</time>
      </trkpt>
      <trkpt lat="48.16056" lon="-3.32319">
        <ele>225</ele>
        <time>2024-11-20T12:08:53Z</time>
      </trkpt>
      <trkpt lat="48.16056" lon="-3.32319">
        <ele>225</ele>
        <time>2024-11-20T12:08:54Z</time>
      </trkpt>
      <trkpt lat="48.16056" lon="-3.32319">
        <ele>225</ele>
        <time>2024-11-20T12:08:55Z</time>
      </trkpt>
      <trkpt lat="48.16056" lon="-3.32319">
        <ele>225</ele>
        <time>2024-11-20T12:08:56Z</time>
      </trkpt>
      <trkpt lat="48.16056" lon="-3.32319">
        <ele>225</ele>
        <time>2024-11-20T12:08:57Z</time>
      </trkpt>
      <trkpt lat="48.16056" lon="-3.32319">
        <ele>225</ele>
        <time>2024-11-20T12:08:58Z</time>
      </trkpt>
      <trkpt lat="48.16056" lon="-3.32319">
        <ele>225</ele>
        <time>2024-11-20T12:08:59Z</time>
      </trkpt>
      <trkpt lat="48.16056" lon="-3.32319">
        <ele>225</ele>
        <time>2024-11-20T12:09:00Z</time>
      </trkpt>
      <trkpt lat="48.16056" lon="-3.32319">
        <ele>225</ele>
        <time>2024-11-20T12:09:01Z</time>
      </trkpt>
      <trkpt lat="48.16056" lon="-3.32319">
        <ele>225</ele>
        <time>2024-11-20T12:09:02Z</time>
      </trkpt>
      <trkpt lat="48.16056" lon="-3.3232">
        <ele>225</ele>
        <time>2024-11-20T12:09:03Z</time>
      </trkpt>
      <trkpt lat="48.16057" lon="-3.3232">
        <ele>224.9</ele>
        <time>2024-11-20T12:09:04Z</time>
      </trkpt>
      <trkpt lat="48.16057" lon="-3.32321">
        <ele>224.9</ele>
        <time>2024-11-20T12:09:05Z</time>
      </trkpt>
      <trkpt lat="48.16057" lon="-3.32321">
        <ele>224.8</ele>
        <time>2024-11-20T12:09:06Z</time>
      </trkpt>
      <trkpt lat="48.16057" lon="-3.32322">
        <ele>224.8</ele>
        <time>2024-11-20T12:09:07Z</time>
      </trkpt>
      <trkpt lat="48.16057" lon="-3.32322">
        <ele>224.8</ele>
        <time>2024-11-20T12:09:08Z</time>
      </trkpt>
      <trkpt lat="48.16057" lon="-3.32321">
        <ele>224.9</ele>
        <time>2024-11-20T12:09:09Z</time>
      </trkpt>
      <trkpt lat="48.16058" lon="-3.3232">
        <ele>224.9</ele>
        <time>2024-11-20T12:09:10Z</time>
      </trkpt>
      <trkpt lat="48.16058" lon="-3.32319">
        <ele>225</ele>
        <time>2024-11-20T12:09:11Z</time>
      </trkpt>
      <trkpt lat="48.16058" lon="-3.32319">
        <ele>225</ele>
        <time>2024-11-20T12:09:12Z</time>
      </trkpt>
      <trkpt lat="48.16058" lon="-3.32319">
        <ele>225</ele>
        <time>2024-11-20T12:09:13Z</time>
      </trkpt>
      <trkpt lat="48.16058" lon="-3.32319">
        <ele>225</ele>
        <time>2024-11-20T12:09:14Z</time>
      </trkpt>
      <trkpt lat="48.16058" lon="-3.32319">
        <ele>224.9</ele>
        <time>2024-11-20T12:09:15Z</time>
      </trkpt>
      <trkpt lat="48.16058" lon="-3.3232">
        <ele>224.9</ele>
        <time>2024-11-20T12:09:16Z</time>
      </trkpt>
      <trkpt lat="48.16058" lon="-3.32321">
        <ele>224.8</ele>
        <time>2024-11-20T12:09:17Z</time>
      </trkpt>
      <trkpt lat="48.16058" lon="-3.32321">
        <ele>224.8</ele>
        <time>2024-11-20T12:09:18Z</time>
      </trkpt>
      <trkpt lat="48.16059" lon="-3.32322">
        <ele>224.7</ele>
        <time>2024-11-20T12:09:19Z</time>
      </trkpt>
      <trkpt lat="48.16059" lon="-3.32323">
        <ele>224.6</ele>
        <time>2024-11-20T12:09:20Z</time>
      </trkpt>
      <trkpt lat="48.16059" lon="-3.32324">
        <ele>224.5</ele>
        <time>2024-11-20T12:09:21Z</time>
      </trkpt>
      <trkpt lat="48.16059" lon="-3.32325">
        <ele>224.5</ele>
        <time>2024-11-20T12:09:22Z</time>
      </trkpt>
      <trkpt lat="48.16059" lon="-3.32326">
        <ele>224.4</ele>
        <time>2024-11-20T12:09:23Z</time>
      </trkpt>
      <trkpt lat="48.16059" lon="-3.32327">
        <ele>224.3</ele>
        <time>2024-11-20T12:09:24Z</time>
      </trkpt>
      <trkpt lat="48.16059" lon="-3.32328">
        <ele>224.3</ele>
        <time>2024-11-20T12:09:25Z</time>
      </trkpt>
      <trkpt lat="48.16058" lon="-3.32328">
        <ele>224.3</ele>
        <time>2024-11-20T12:09:26Z</time>
      </trkpt>
      <trkpt lat="48.16058" lon="-3.32329">
        <ele>224.2</ele>
        <time>2024-11-20T12:09:27Z</time>
      </trkpt>
      <trkpt lat="48.16058" lon="-3.32329">
        <ele>224.2</ele>
        <time>2024-11-20T12:09:28Z</time>
      </trkpt>
      <trkpt lat="48.16057" lon="-3.32329">
        <ele>224.2</ele>
        <time>2024-11-20T12:09:29Z</time>
      </trkpt>
      <trkpt lat="48.16057" lon="-3.3233">
        <ele>224.2</ele>
        <time>2024-11-20T12:09:30Z</time>
      </trkpt>
      <trkpt lat="48.16057" lon="-3.32331">
        <ele>224.1</ele>
        <time>2024-11-20T12:09:31Z</time>
      </trkpt>
      <trkpt lat="48.16056" lon="-3.32332">
        <ele>224.1</ele>
        <time>2024-11-20T12:09:32Z</time>
      </trkpt>
      <trkpt lat="48.16056" lon="-3.32332">
        <ele>224.1</ele>
        <time>2024-11-20T12:09:33Z</time>
      </trkpt>
      <trkpt lat="48.16056" lon="-3.32332">
        <ele>224.1</ele>
        <time>2024-11-20T12:09:34Z</time>
      </trkpt>
      <trkpt lat="48.16057" lon="-3.32333">
        <ele>224</ele>
        <time>2024-11-20T12:09:35Z</time>
      </trkpt>
      <trkpt lat="48.16057" lon="-3.32333">
        <ele>224</ele>
        <time>2024-11-20T12:09:36Z</time>
      </trkpt>
      <trkpt lat="48.16057" lon="-3.32334">
        <ele>223.9</ele>
        <time>2024-11-20T12:09:37Z</time>
      </trkpt>
      <trkpt lat="48.16058" lon="-3.32336">
        <ele>223.8</ele>
        <time>2024-11-20T12:09:38Z</time>
      </trkpt>
      <trkpt lat="48.16058" lon="-3.32337">
        <ele>223.7</ele>
        <time>2024-11-20T12:09:39Z</time>
      </trkpt>
      <trkpt lat="48.16058" lon="-3.32337">
        <ele>223.6</ele>
        <time>2024-11-20T12:09:40Z</time>
      </trkpt>
      <trkpt lat="48.16059" lon="-3.32338">
        <ele>223.6</ele>
        <time>2024-11-20T12:09:41Z</time>
      </trkpt>
      <trkpt lat="48.16059" lon="-3.32339">
        <ele>223.5</ele>
        <time>2024-11-20T12:09:42Z</time>
      </trkpt>
      <trkpt lat="48.16059" lon="-3.3234">
        <ele>223.4</ele>
        <time>2024-11-20T12:09:43Z</time>
      </trkpt>
      <trkpt lat="48.16059" lon="-3.32341">
        <ele>223.4</ele>
        <time>2024-11-20T12:09:44Z</time>
      </trkpt>
      <trkpt lat="48.1606" lon="-3.32342">
        <ele>223.3</ele>
        <time>2024-11-20T12:09:45Z</time>
      </trkpt>
      <trkpt lat="48.1606" lon="-3.32343">
        <ele>223.2</ele>
        <time>2024-11-20T12:09:46Z</time>
      </trkpt>
      <trkpt lat="48.1606" lon="-3.32343">
        <ele>223.2</ele>
        <time>2024-11-20T12:09:47Z</time>
      </trkpt>
      <trkpt lat="48.1606" lon="-3.32344">
        <ele>223.1</ele>
        <time>2024-11-20T12:09:48Z</time>
      </trkpt>
      <trkpt lat="48.1606" lon="-3.32345">
        <ele>223.1</ele>
        <time>2024-11-20T12:09:49Z</time>
      </trkpt>
      <trkpt lat="48.1606" lon="-3.32345">
        <ele>223.1</ele>
        <time>2024-11-20T12:09:50Z</time>
      </trkpt>
      <trkpt lat="48.1606" lon="-3.32346">
        <ele>223</ele>
        <time>2024-11-20T12:09:51Z</time>
      </trkpt>
      <trkpt lat="48.1606" lon="-3.32346">
        <ele>223</ele>
        <time>2024-11-20T12:09:52Z</time>
      </trkpt>
      <trkpt lat="48.1606" lon="-3.32347">
        <ele>222.9</ele>
        <time>2024-11-20T12:09:53Z</time>
      </trkpt>
      <trkpt lat="48.1606" lon="-3.32348">
        <ele>222.9</ele>
        <time>2024-11-20T12:09:54Z</time>
      </trkpt>
      <trkpt lat="48.1606" lon="-3.32349">
        <ele>222.8</ele>
        <time>2024-11-20T12:09:55Z</time>
      </trkpt>
      <trkpt lat="48.16061" lon="-3.3235">
        <ele>222.7</ele>
        <time>2024-11-20T12:09:56Z</time>
      </trkpt>
      <trkpt lat="48.16061" lon="-3.3235">
        <ele>222.7</ele>
        <time>2024-11-20T12:09:57Z</time>
      </trkpt>
      <trkpt lat="48.16061" lon="-3.32351">
        <ele>222.7</ele>
        <time>2024-11-20T12:09:58Z</time>
      </trkpt>
      <trkpt lat="48.16061" lon="-3.32351">
        <ele>222.7</ele>
        <time>2024-11-20T12:09:59Z</time>
      </trkpt>
      <trkpt lat="48.16061" lon="-3.32352">
        <ele>222.6</ele>
        <time>2024-11-20T12:10:00Z</time>
      </trkpt>
      <trkpt lat="48.16062" lon="-3.32353">
        <ele>222.5</ele>
        <time>2024-11-20T12:10:01Z</time>
      </trkpt>
      <trkpt lat="48.16062" lon="-3.32353">
        <ele>222.5</ele>
        <time>2024-11-20T12:10:02Z</time>
      </trkpt>
      <trkpt lat="48.16063" lon="-3.32354">
        <ele>222.4</ele>
        <time>2024-11-20T12:10:03Z</time>
      </trkpt>
      <trkpt lat="48.16063" lon="-3.32355">
        <ele>222.4</ele>
        <time>2024-11-20T12:10:04Z</time>
      </trkpt>
      <trkpt lat="48.16064" lon="-3.32356">
        <ele>222.3</ele>
        <time>2024-11-20T12:10:05Z</time>
      </trkpt>
      <trkpt lat="48.16064" lon="-3.32357">
        <ele>222.3</ele>
        <time>2024-11-20T12:10:06Z</time>
      </trkpt>
      <trkpt lat="48.16064" lon="-3.32357">
        <ele>222.2</ele>
        <time>2024-11-20T12:10:07Z</time>
      </trkpt>
      <trkpt lat="48.16064" lon="-3.32359">
        <ele>222.1</ele>
        <time>2024-11-20T12:10:08Z</time>
      </trkpt>
      <trkpt lat="48.16064" lon="-3.3236">
        <ele>222.1</ele>
        <time>2024-11-20T12:10:09Z</time>
      </trkpt>
      <trkpt lat="48.16064" lon="-3.32362">
        <ele>222</ele>
        <time>2024-11-20T12:10:10Z</time>
      </trkpt>
      <trkpt lat="48.16064" lon="-3.32363">
        <ele>222</ele>
        <time>2024-11-20T12:10:11Z</time>
      </trkpt>
      <trkpt lat="48.16064" lon="-3.32365">
        <ele>222</ele>
        <time>2024-11-20T12:10:12Z</time>
      </trkpt>
      <trkpt lat="48.16065" lon="-3.32366">
        <ele>222</ele>
        <time>2024-11-20T12:10:13Z</time>
      </trkpt>
      <trkpt lat="48.16065" lon="-3.32367">
        <ele>222</ele>
        <time>2024-11-20T12:10:14Z</time>
      </trkpt>
      <trkpt lat="48.16065" lon="-3.32369">
        <ele>222</ele>
        <time>2024-11-20T12:10:15Z</time>
      </trkpt>
      <trkpt lat="48.16065" lon="-3.32371">
        <ele>222</ele>
        <time>2024-11-20T12:10:16Z</time>
      </trkpt>
      <trkpt lat="48.16065" lon="-3.32372">
        <ele>222</ele>
        <time>2024-11-20T12:10:17Z</time>
      </trkpt>
      <trkpt lat="48.16065" lon="-3.32373">
        <ele>222</ele>
        <time>2024-11-20T12:10:18Z</time>
      </trkpt>
      <trkpt lat="48.16065" lon="-3.32373">
        <ele>222</ele>
        <time>2024-11-20T12:10:19Z</time>
      </trkpt>
      <trkpt lat="48.16066" lon="-3.32374">
        <ele>222</ele>
        <time>2024-11-20T12:10:20Z</time>
      </trkpt>
      <trkpt lat="48.16066" lon="-3.32374">
        <ele>222</ele>
        <time>2024-11-20T12:10:21Z</time>
      </trkpt>
      <trkpt lat="48.16067" lon="-3.32374">
        <ele>222</ele>
        <time>2024-11-20T12:10:22Z</time>
      </trkpt>
      <trkpt lat="48.16068" lon="-3.32375">
        <ele>222</ele>
        <time>2024-11-20T12:10:23Z</time>
      </trkpt>
      <trkpt lat="48.16068" lon="-3.32376">
        <ele>222</ele>
        <time>2024-11-20T12:10:24Z</time>
      </trkpt>
      <trkpt lat="48.16068" lon="-3.32376">
        <ele>222</ele>
        <time>2024-11-20T12:10:25Z</time>
      </trkpt>
      <trkpt lat="48.16069" lon="-3.32377">
        <ele>222</ele>
        <time>2024-11-20T12:10:26Z</time>
      </trkpt>
      <trkpt lat="48.16069" lon="-3.32378">
        <ele>222</ele>
        <time>2024-11-20T12:10:27Z</time>
      </trkpt>
      <trkpt lat="48.1607" lon="-3.32379">
        <ele>222</ele>
        <time>2024-11-20T12:10:28Z</time>
      </trkpt>
      <trkpt lat="48.1607" lon="-3.3238">
        <ele>222</ele>
        <time>2024-11-20T12:10:29Z</time>
      </trkpt>
      <trkpt lat="48.1607" lon="-3.32381">
        <ele>222</ele>
        <time>2024-11-20T12:10:30Z</time>
      </trkpt>
      <trkpt lat="48.16071" lon="-3.32382">
        <ele>222</ele>
        <time>2024-11-20T12:10:31Z</time>
      </trkpt>
      <trkpt lat="48.16071" lon="-3.32383">
        <ele>222</ele>
        <time>2024-11-20T12:10:32Z</time>
      </trkpt>
      <trkpt lat="48.16071" lon="-3.32385">
        <ele>222</ele>
        <time>2024-11-20T12:10:33Z</time>
      </trkpt>
      <trkpt lat="48.16071" lon="-3.32386">
        <ele>222</ele>
        <time>2024-11-20T12:10:34Z</time>
      </trkpt>
      <trkpt lat="48.16071" lon="-3.32387">
        <ele>222</ele>
        <time>2024-11-20T12:10:35Z</time>
      </trkpt>
      <trkpt lat="48.16071" lon="-3.32388">
        <ele>222</ele>
        <time>2024-11-20T12:10:36Z</time>
      </trkpt>
      <trkpt lat="48.16071" lon="-3.32389">
        <ele>222</ele>
        <time>2024-11-20T12:10:37Z</time>
      </trkpt>
      <trkpt lat="48.16071" lon="-3.32391">
        <ele>222</ele>
        <time>2024-11-20T12:10:38Z</time>
      </trkpt>
      <trkpt lat="48.1607" lon="-3.32392">
        <ele>222.1</ele>
        <time>2024-11-20T12:10:39Z</time>
      </trkpt>
      <trkpt lat="48.16071" lon="-3.32393">
        <ele>222.1</ele>
        <time>2024-11-20T12:10:40Z</time>
      </trkpt>
      <trkpt lat="48.16071" lon="-3.32394">
        <ele>222.1</ele>
        <time>2024-11-20T12:10:41Z</time>
      </trkpt>
      <trkpt lat="48.16071" lon="-3.32395">
        <ele>222.1</ele>
        <time>2024-11-20T12:10:42Z</time>
      </trkpt>
      <trkpt lat="48.16072" lon="-3.32396">
        <ele>222.1</ele>
        <time>2024-11-20T12:10:43Z</time>
      </trkpt>
      <trkpt lat="48.16072" lon="-3.32397">
        <ele>222.1</ele>
        <time>2024-11-20T12:10:44Z</time>
      </trkpt>
      <trkpt lat="48.16072" lon="-3.32398">
        <ele>222.1</ele>
        <time>2024-11-20T12:10:45Z</time>
      </trkpt>
      <trkpt lat="48.16073" lon="-3.32399">
        <ele>222.1</ele>
        <time>2024-11-20T12:10:46Z</time>
      </trkpt>
      <trkpt lat="48.16074" lon="-3.32399">
        <ele>222.1</ele>
        <time>2024-11-20T12:10:47Z</time>
      </trkpt>
      <trkpt lat="48.16074" lon="-3.324">
        <ele>222.1</ele>
        <time>2024-11-20T12:10:48Z</time>
      </trkpt>
      <trkpt lat="48.16075" lon="-3.324">
        <ele>222.1</ele>
        <time>2024-11-20T12:10:49Z</time>
      </trkpt>
      <trkpt lat="48.16075" lon="-3.32401">
        <ele>222.1</ele>
        <time>2024-11-20T12:10:50Z</time>
      </trkpt>
      <trkpt lat="48.16075" lon="-3.32402">
        <ele>222.1</ele>
        <time>2024-11-20T12:10:51Z</time>
      </trkpt>
      <trkpt lat="48.16075" lon="-3.32403">
        <ele>222.2</ele>
        <time>2024-11-20T12:10:52Z</time>
      </trkpt>
      <trkpt lat="48.16074" lon="-3.32403">
        <ele>222.2</ele>
        <time>2024-11-20T12:10:53Z</time>
      </trkpt>
      <trkpt lat="48.16073" lon="-3.32405">
        <ele>222.2</ele>
        <time>2024-11-20T12:10:54Z</time>
      </trkpt>
      <trkpt lat="48.16073" lon="-3.32407">
        <ele>222.2</ele>
        <time>2024-11-20T12:10:55Z</time>
      </trkpt>
      <trkpt lat="48.16073" lon="-3.32409">
        <ele>222.3</ele>
        <time>2024-11-20T12:10:56Z</time>
      </trkpt>
      <trkpt lat="48.16074" lon="-3.32411">
        <ele>222.3</ele>
        <time>2024-11-20T12:10:57Z</time>
      </trkpt>
      <trkpt lat="48.16074" lon="-3.32413">
        <ele>222.3</ele>
        <time>2024-11-20T12:10:58Z</time>
      </trkpt>
      <trkpt lat="48.16075" lon="-3.32415">
        <ele>222.3</ele>
        <time>2024-11-20T12:10:59Z</time>
      </trkpt>
      <trkpt lat="48.16075" lon="-3.32416">
        <ele>222.3</ele>
        <time>2024-11-20T12:11:00Z</time>
      </trkpt>
      <trkpt lat="48.16076" lon="-3.32418">
        <ele>222.3</ele>
        <time>2024-11-20T12:11:01Z</time>
      </trkpt>
      <trkpt lat="48.16077" lon="-3.3242">
        <ele>222.3</ele>
        <time>2024-11-20T12:11:02Z</time>
      </trkpt>
      <trkpt lat="48.16078" lon="-3.32421">
        <ele>222.4</ele>
        <time>2024-11-20T12:11:03Z</time>
      </trkpt>
      <trkpt lat="48.16078" lon="-3.32422">
        <ele>222.4</ele>
        <time>2024-11-20T12:11:04Z</time>
      </trkpt>
      <trkpt lat="48.16079" lon="-3.32424">
        <ele>222.4</ele>
        <time>2024-11-20T12:11:05Z</time>
      </trkpt>
      <trkpt lat="48.1608" lon="-3.32426">
        <ele>222.4</ele>
        <time>2024-11-20T12:11:06Z</time>
      </trkpt>
      <trkpt lat="48.16081" lon="-3.32427">
        <ele>222.5</ele>
        <time>2024-11-20T12:11:07Z</time>
      </trkpt>
      <trkpt lat="48.16081" lon="-3.32428">
        <ele>222.5</ele>
        <time>2024-11-20T12:11:08Z</time>
      </trkpt>
      <trkpt lat="48.16082" lon="-3.32429">
        <ele>222.5</ele>
        <time>2024-11-20T12:11:09Z</time>
      </trkpt>
      <trkpt lat="48.16082" lon="-3.32431">
        <ele>222.5</ele>
        <time>2024-11-20T12:11:10Z</time>
      </trkpt>
      <trkpt lat="48.16083" lon="-3.32432">
        <ele>222.6</ele>
        <time>2024-11-20T12:11:11Z</time>
      </trkpt>
      <trkpt lat="48.16083" lon="-3.32433">
        <ele>222.6</ele>
        <time>2024-11-20T12:11:12Z</time>
      </trkpt>
      <trkpt lat="48.16083" lon="-3.32435">
        <ele>222.7</ele>
        <time>2024-11-20T12:11:13Z</time>
      </trkpt>
      <trkpt lat="48.16083" lon="-3.32437">
        <ele>222.7</ele>
        <time>2024-11-20T12:11:14Z</time>
      </trkpt>
      <trkpt lat="48.16084" lon="-3.32438">
        <ele>222.8</ele>
        <time>2024-11-20T12:11:15Z</time>
      </trkpt>
      <trkpt lat="48.16084" lon="-3.3244">
        <ele>222.8</ele>
        <time>2024-11-20T12:11:16Z</time>
      </trkpt>
      <trkpt lat="48.16084" lon="-3.32441">
        <ele>222.9</ele>
        <time>2024-11-20T12:11:17Z</time>
      </trkpt>
      <trkpt lat="48.16085" lon="-3.32443">
        <ele>222.9</ele>
        <time>2024-11-20T12:11:18Z</time>
      </trkpt>
      <trkpt lat="48.16085" lon="-3.32444">
        <ele>223</ele>
        <time>2024-11-20T12:11:19Z</time>
      </trkpt>
      <trkpt lat="48.16086" lon="-3.32446">
        <ele>223</ele>
        <time>2024-11-20T12:11:20Z</time>
      </trkpt>
      <trkpt lat="48.16087" lon="-3.32447">
        <ele>223.1</ele>
        <time>2024-11-20T12:11:21Z</time>
      </trkpt>
      <trkpt lat="48.16087" lon="-3.32448">
        <ele>223.1</ele>
        <time>2024-11-20T12:11:22Z</time>
      </trkpt>
      <trkpt lat="48.16088" lon="-3.32449">
        <ele>223.1</ele>
        <time>2024-11-20T12:11:23Z</time>
      </trkpt>
      <trkpt lat="48.16088" lon="-3.3245">
        <ele>223.2</ele>
        <time>2024-11-20T12:11:24Z</time>
      </trkpt>
      <trkpt lat="48.16089" lon="-3.32452">
        <ele>223.2</ele>
        <time>2024-11-20T12:11:25Z</time>
      </trkpt>
      <trkpt lat="48.16089" lon="-3.32453">
        <ele>223.2</ele>
        <time>2024-11-20T12:11:26Z</time>
      </trkpt>
      <trkpt lat="48.1609" lon="-3.32454">
        <ele>223.3</ele>
        <time>2024-11-20T12:11:27Z</time>
      </trkpt>
      <trkpt lat="48.1609" lon="-3.32456">
        <ele>223.3</ele>
        <time>2024-11-20T12:11:28Z</time>
      </trkpt>
      <trkpt lat="48.16091" lon="-3.32458">
        <ele>223.4</ele>
        <time>2024-11-20T12:11:29Z</time>
      </trkpt>
      <trkpt lat="48.16091" lon="-3.3246">
        <ele>223.4</ele>
        <time>2024-11-20T12:11:30Z</time>
      </trkpt>
      <trkpt lat="48.16091" lon="-3.32462">
        <ele>223.4</ele>
        <time>2024-11-20T12:11:31Z</time>
      </trkpt>
      <trkpt lat="48.16092" lon="-3.32463">
        <ele>223.5</ele>
        <time>2024-11-20T12:11:32Z</time>
      </trkpt>
      <trkpt lat="48.16092" lon="-3.32464">
        <ele>223.5</ele>
        <time>2024-11-20T12:11:33Z</time>
      </trkpt>
      <trkpt lat="48.16093" lon="-3.32464">
        <ele>223.5</ele>
        <time>2024-11-20T12:11:34Z</time>
      </trkpt>
      <trkpt lat="48.16093" lon="-3.32465">
        <ele>223.5</ele>
        <time>2024-11-20T12:11:35Z</time>
      </trkpt>
      <trkpt lat="48.16093" lon="-3.32467">
        <ele>223.5</ele>
        <time>2024-11-20T12:11:36Z</time>
      </trkpt>
      <trkpt lat="48.16093" lon="-3.32469">
        <ele>223.6</ele>
        <time>2024-11-20T12:11:37Z</time>
      </trkpt>
      <trkpt lat="48.16093" lon="-3.3247">
        <ele>223.6</ele>
        <time>2024-11-20T12:11:38Z</time>
      </trkpt>
      <trkpt lat="48.16093" lon="-3.32471">
        <ele>223.6</ele>
        <time>2024-11-20T12:11:39Z</time>
      </trkpt>
      <trkpt lat="48.16094" lon="-3.32472">
        <ele>223.6</ele>
        <time>2024-11-20T12:11:40Z</time>
      </trkpt>
      <trkpt lat="48.16094" lon="-3.32474">
        <ele>223.6</ele>
        <time>2024-11-20T12:11:41Z</time>
      </trkpt>
      <trkpt lat="48.16094" lon="-3.32475">
        <ele>223.6</ele>
        <time>2024-11-20T12:11:42Z</time>
      </trkpt>
      <trkpt lat="48.16094" lon="-3.32476">
        <ele>223.6</ele>
        <time>2024-11-20T12:11:43Z</time>
      </trkpt>
      <trkpt lat="48.16095" lon="-3.32478">
        <ele>223.6</ele>
        <time>2024-11-20T12:11:44Z</time>
      </trkpt>
      <trkpt lat="48.16095" lon="-3.32479">
        <ele>223.6</ele>
        <time>2024-11-20T12:11:45Z</time>
      </trkpt>
      <trkpt lat="48.16095" lon="-3.32481">
        <ele>223.6</ele>
        <time>2024-11-20T12:11:46Z</time>
      </trkpt>
      <trkpt lat="48.16095" lon="-3.32483">
        <ele>223.6</ele>
        <time>2024-11-20T12:11:47Z</time>
      </trkpt>
      <trkpt lat="48.16095" lon="-3.32485">
        <ele>223.6</ele>
        <time>2024-11-20T12:11:48Z</time>
      </trkpt>
      <trkpt lat="48.16095" lon="-3.32488">
        <ele>223.6</ele>
        <time>2024-11-20T12:11:49Z</time>
      </trkpt>
      <trkpt lat="48.16095" lon="-3.3249">
        <ele>223.6</ele>
        <time>2024-11-20T12:11:50Z</time>
      </trkpt>
      <trkpt lat="48.16095" lon="-3.32493">
        <ele>223.6</ele>
        <time>2024-11-20T12:11:51Z</time>
      </trkpt>
      <trkpt lat="48.16095" lon="-3.32495">
        <ele>223.6</ele>
        <time>2024-11-20T12:11:52Z</time>
      </trkpt>
      <trkpt lat="48.16095" lon="-3.32496">
        <ele>223.6</ele>
        <time>2024-11-20T12:11:53Z</time>
      </trkpt>
      <trkpt lat="48.16095" lon="-3.32497">
        <ele>223.6</ele>
        <time>2024-11-20T12:11:54Z</time>
      </trkpt>
      <trkpt lat="48.16096" lon="-3.32498">
        <ele>223.6</ele>
        <time>2024-11-20T12:11:55Z</time>
      </trkpt>
      <trkpt lat="48.16096" lon="-3.32499">
        <ele>223.5</ele>
        <time>2024-11-20T12:11:56Z</time>
      </trkpt>
      <trkpt lat="48.16097" lon="-3.325">
        <ele>223.5</ele>
        <time>2024-11-20T12:11:57Z</time>
      </trkpt>
      <trkpt lat="48.16097" lon="-3.32501">
        <ele>223.5</ele>
        <time>2024-11-20T12:11:58Z</time>
      </trkpt>
      <trkpt lat="48.16098" lon="-3.32502">
        <ele>223.5</ele>
        <time>2024-11-20T12:11:59Z</time>
      </trkpt>
      <trkpt lat="48.16098" lon="-3.32504">
        <ele>223.5</ele>
        <time>2024-11-20T12:12:00Z</time>
      </trkpt>
      <trkpt lat="48.16099" lon="-3.32506">
        <ele>223.4</ele>
        <time>2024-11-20T12:12:01Z</time>
      </trkpt>
      <trkpt lat="48.161" lon="-3.32508">
        <ele>223.4</ele>
        <time>2024-11-20T12:12:02Z</time>
      </trkpt>
      <trkpt lat="48.16101" lon="-3.32509">
        <ele>223.4</ele>
        <time>2024-11-20T12:12:03Z</time>
      </trkpt>
      <trkpt lat="48.16101" lon="-3.3251">
        <ele>223.3</ele>
        <time>2024-11-20T12:12:04Z</time>
      </trkpt>
      <trkpt lat="48.16102" lon="-3.32511">
        <ele>223.3</ele>
        <time>2024-11-20T12:12:05Z</time>
      </trkpt>
      <trkpt lat="48.16103" lon="-3.32512">
        <ele>223.3</ele>
        <time>2024-11-20T12:12:06Z</time>
      </trkpt>
      <trkpt lat="48.16104" lon="-3.32513">
        <ele>223.3</ele>
        <time>2024-11-20T12:12:07Z</time>
      </trkpt>
      <trkpt lat="48.16104" lon="-3.32515">
        <ele>223.2</ele>
        <time>2024-11-20T12:12:08Z</time>
      </trkpt>
      <trkpt lat="48.16105" lon="-3.32517">
        <ele>223.2</ele>
        <time>2024-11-20T12:12:09Z</time>
      </trkpt>
      <trkpt lat="48.16105" lon="-3.3252">
        <ele>223.2</ele>
        <time>2024-11-20T12:12:10Z</time>
      </trkpt>
      <trkpt lat="48.16105" lon="-3.32521">
        <ele>223.2</ele>
        <time>2024-11-20T12:12:11Z</time>
      </trkpt>
      <trkpt lat="48.16105" lon="-3.32523">
        <ele>223.2</ele>
        <time>2024-11-20T12:12:12Z</time>
      </trkpt>
      <trkpt lat="48.16106" lon="-3.32524">
        <ele>223.2</ele>
        <time>2024-11-20T12:12:13Z</time>
      </trkpt>
      <trkpt lat="48.16106" lon="-3.32525">
        <ele>223.2</ele>
        <time>2024-11-20T12:12:14Z</time>
      </trkpt>
      <trkpt lat="48.16107" lon="-3.32526">
        <ele>223.1</ele>
        <time>2024-11-20T12:12:15Z</time>
      </trkpt>
      <trkpt lat="48.16108" lon="-3.32528">
        <ele>223.1</ele>
        <time>2024-11-20T12:12:16Z</time>
      </trkpt>
      <trkpt lat="48.16108" lon="-3.32529">
        <ele>223.1</ele>
        <time>2024-11-20T12:12:17Z</time>
      </trkpt>
      <trkpt lat="48.16109" lon="-3.32531">
        <ele>223.1</ele>
        <time>2024-11-20T12:12:18Z</time>
      </trkpt>
      <trkpt lat="48.16109" lon="-3.32533">
        <ele>223.1</ele>
        <time>2024-11-20T12:12:19Z</time>
      </trkpt>
      <trkpt lat="48.1611" lon="-3.32535">
        <ele>223.1</ele>
        <time>2024-11-20T12:12:20Z</time>
      </trkpt>
      <trkpt lat="48.1611" lon="-3.32536">
        <ele>223</ele>
        <time>2024-11-20T12:12:21Z</time>
      </trkpt>
      <trkpt lat="48.16111" lon="-3.32538">
        <ele>223</ele>
        <time>2024-11-20T12:12:22Z</time>
      </trkpt>
      <trkpt lat="48.16111" lon="-3.32539">
        <ele>223</ele>
        <time>2024-11-20T12:12:23Z</time>
      </trkpt>
      <trkpt lat="48.16111" lon="-3.32541">
        <ele>223</ele>
        <time>2024-11-20T12:12:24Z</time>
      </trkpt>
      <trkpt lat="48.16112" lon="-3.32543">
        <ele>223</ele>
        <time>2024-11-20T12:12:25Z</time>
      </trkpt>
      <trkpt lat="48.16112" lon="-3.32546">
        <ele>223</ele>
        <time>2024-11-20T12:12:26Z</time>
      </trkpt>
      <trkpt lat="48.16112" lon="-3.32548">
        <ele>223</ele>
        <time>2024-11-20T12:12:27Z</time>
      </trkpt>
      <trkpt lat="48.16112" lon="-3.3255">
        <ele>223</ele>
        <time>2024-11-20T12:12:28Z</time>
      </trkpt>
      <trkpt lat="48.16113" lon="-3.32551">
        <ele>223</ele>
        <time>2024-11-20T12:12:29Z</time>
      </trkpt>
      <trkpt lat="48.16113" lon="-3.32553">
        <ele>223</ele>
        <time>2024-11-20T12:12:30Z</time>
      </trkpt>
      <trkpt lat="48.16113" lon="-3.32554">
        <ele>223</ele>
        <time>2024-11-20T12:12:31Z</time>
      </trkpt>
      <trkpt lat="48.16113" lon="-3.32556">
        <ele>223</ele>
        <time>2024-11-20T12:12:32Z</time>
      </trkpt>
      <trkpt lat="48.16112" lon="-3.32557">
        <ele>223.1</ele>
        <time>2024-11-20T12:12:33Z</time>
      </trkpt>
      <trkpt lat="48.16112" lon="-3.32558">
        <ele>223.1</ele>
        <time>2024-11-20T12:12:34Z</time>
      </trkpt>
      <trkpt lat="48.16112" lon="-3.32559">
        <ele>223.1</ele>
        <time>2024-11-20T12:12:35Z</time>
      </trkpt>
      <trkpt lat="48.16112" lon="-3.3256">
        <ele>223.1</ele>
        <time>2024-11-20T12:12:36Z</time>
      </trkpt>
      <trkpt lat="48.16113" lon="-3.32561">
        <ele>223.2</ele>
        <time>2024-11-20T12:12:37Z</time>
      </trkpt>
      <trkpt lat="48.16113" lon="-3.32561">
        <ele>223.2</ele>
        <time>2024-11-20T12:12:38Z</time>
      </trkpt>
      <trkpt lat="48.16114" lon="-3.32562">
        <ele>223.2</ele>
        <time>2024-11-20T12:12:39Z</time>
      </trkpt>
      <trkpt lat="48.16115" lon="-3.32563">
        <ele>223.2</ele>
        <time>2024-11-20T12:12:40Z</time>
      </trkpt>
      <trkpt lat="48.16115" lon="-3.32565">
        <ele>223.3</ele>
        <time>2024-11-20T12:12:41Z</time>
      </trkpt>
      <trkpt lat="48.16116" lon="-3.32566">
        <ele>223.3</ele>
        <time>2024-11-20T12:12:42Z</time>
      </trkpt>
      <trkpt lat="48.16117" lon="-3.32567">
        <ele>223.3</ele>
        <time>2024-11-20T12:12:43Z</time>
      </trkpt>
      <trkpt lat="48.16117" lon="-3.32569">
        <ele>223.4</ele>
        <time>2024-11-20T12:12:44Z</time>
      </trkpt>
      <trkpt lat="48.16118" lon="-3.32571">
        <ele>223.4</ele>
        <time>2024-11-20T12:12:45Z</time>
      </trkpt>
      <trkpt lat="48.16119" lon="-3.32573">
        <ele>223.4</ele>
        <time>2024-11-20T12:12:46Z</time>
      </trkpt>
      <trkpt lat="48.16119" lon="-3.32575">
        <ele>223.5</ele>
        <time>2024-11-20T12:12:47Z</time>
      </trkpt>
      <trkpt lat="48.1612" lon="-3.32577">
        <ele>223.5</ele>
        <time>2024-11-20T12:12:48Z</time>
      </trkpt>
      <trkpt lat="48.1612" lon="-3.32578">
        <ele>223.5</ele>
        <time>2024-11-20T12:12:49Z</time>
      </trkpt>
      <trkpt lat="48.16121" lon="-3.3258">
        <ele>223.6</ele>
        <time>2024-11-20T12:12:50Z</time>
      </trkpt>
      <trkpt lat="48.16121" lon="-3.32582">
        <ele>223.6</ele>
        <time>2024-11-20T12:12:51Z</time>
      </trkpt>
      <trkpt lat="48.16121" lon="-3.32583">
        <ele>223.6</ele>
        <time>2024-11-20T12:12:52Z</time>
      </trkpt>
      <trkpt lat="48.16122" lon="-3.32584">
        <ele>223.6</ele>
        <time>2024-11-20T12:12:53Z</time>
      </trkpt>
      <trkpt lat="48.16122" lon="-3.32585">
        <ele>223.6</ele>
        <time>2024-11-20T12:12:54Z</time>
      </trkpt>
      <trkpt lat="48.16123" lon="-3.32586">
        <ele>223.6</ele>
        <time>2024-11-20T12:12:55Z</time>
      </trkpt>
      <trkpt lat="48.16123" lon="-3.32587">
        <ele>223.6</ele>
        <time>2024-11-20T12:12:56Z</time>
      </trkpt>
      <trkpt lat="48.16124" lon="-3.32589">
        <ele>223.6</ele>
        <time>2024-11-20T12:12:57Z</time>
      </trkpt>
      <trkpt lat="48.16124" lon="-3.3259">
        <ele>223.7</ele>
        <time>2024-11-20T12:12:58Z</time>
      </trkpt>
      <trkpt lat="48.16124" lon="-3.32592">
        <ele>223.7</ele>
        <time>2024-11-20T12:12:59Z</time>
      </trkpt>
      <trkpt lat="48.16124" lon="-3.32593">
        <ele>223.7</ele>
        <time>2024-11-20T12:13:00Z</time>
      </trkpt>
      <trkpt lat="48.16125" lon="-3.32595">
        <ele>223.7</ele>
        <time>2024-11-20T12:13:01Z</time>
      </trkpt>
      <trkpt lat="48.16125" lon="-3.32596">
        <ele>223.7</ele>
        <time>2024-11-20T12:13:02Z</time>
      </trkpt>
      <trkpt lat="48.16126" lon="-3.32598">
        <ele>223.7</ele>
        <time>2024-11-20T12:13:03Z</time>
      </trkpt>
      <trkpt lat="48.16126" lon="-3.326">
        <ele>223.8</ele>
        <time>2024-11-20T12:13:04Z</time>
      </trkpt>
      <trkpt lat="48.16126" lon="-3.32602">
        <ele>223.8</ele>
        <time>2024-11-20T12:13:05Z</time>
      </trkpt>
      <trkpt lat="48.16127" lon="-3.32604">
        <ele>223.9</ele>
        <time>2024-11-20T12:13:06Z</time>
      </trkpt>
      <trkpt lat="48.16127" lon="-3.32606">
        <ele>223.9</ele>
        <time>2024-11-20T12:13:07Z</time>
      </trkpt>
      <trkpt lat="48.16127" lon="-3.32608">
        <ele>223.9</ele>
        <time>2024-11-20T12:13:08Z</time>
      </trkpt>
      <trkpt lat="48.16127" lon="-3.32611">
        <ele>224</ele>
        <time>2024-11-20T12:13:09Z</time>
      </trkpt>
      <trkpt lat="48.16128" lon="-3.32613">
        <ele>224.1</ele>
        <time>2024-11-20T12:13:10Z</time>
      </trkpt>
      <trkpt lat="48.16128" lon="-3.32615">
        <ele>224.1</ele>
        <time>2024-11-20T12:13:11Z</time>
      </trkpt>
      <trkpt lat="48.16129" lon="-3.32616">
        <ele>224.2</ele>
        <time>2024-11-20T12:13:12Z</time>
      </trkpt>
      <trkpt lat="48.1613" lon="-3.32617">
        <ele>224.2</ele>
        <time>2024-11-20T12:13:13Z</time>
      </trkpt>
      <trkpt lat="48.1613" lon="-3.32619">
        <ele>224.3</ele>
        <time>2024-11-20T12:13:14Z</time>
      </trkpt>
      <trkpt lat="48.16131" lon="-3.32621">
        <ele>224.3</ele>
        <time>2024-11-20T12:13:15Z</time>
      </trkpt>
      <trkpt lat="48.16132" lon="-3.32622">
        <ele>224.4</ele>
        <time>2024-11-20T12:13:16Z</time>
      </trkpt>
      <trkpt lat="48.16133" lon="-3.32623">
        <ele>224.4</ele>
        <time>2024-11-20T12:13:17Z</time>
      </trkpt>
      <trkpt lat="48.16134" lon="-3.32624">
        <ele>224.4</ele>
        <time>2024-11-20T12:13:18Z</time>
      </trkpt>
      <trkpt lat="48.16134" lon="-3.32625">
        <ele>224.5</ele>
        <time>2024-11-20T12:13:19Z</time>
      </trkpt>
      <trkpt lat="48.16135" lon="-3.32627">
        <ele>224.6</ele>
        <time>2024-11-20T12:13:20Z</time>
      </trkpt>
      <trkpt lat="48.16135" lon="-3.3263">
        <ele>224.7</ele>
        <time>2024-11-20T12:13:21Z</time>
      </trkpt>
      <trkpt lat="48.16136" lon="-3.32631">
        <ele>224.7</ele>
        <time>2024-11-20T12:13:22Z</time>
      </trkpt>
      <trkpt lat="48.16137" lon="-3.32633">
        <ele>224.8</ele>
        <time>2024-11-20T12:13:23Z</time>
      </trkpt>
      <trkpt lat="48.16138" lon="-3.32635">
        <ele>224.8</ele>
        <time>2024-11-20T12:13:24Z</time>
      </trkpt>
      <trkpt lat="48.16139" lon="-3.32637">
        <ele>224.9</ele>
        <time>2024-11-20T12:13:25Z</time>
      </trkpt>
      <trkpt lat="48.1614" lon="-3.32639">
        <ele>225</ele>
        <time>2024-11-20T12:13:26Z</time>
      </trkpt>
      <trkpt lat="48.1614" lon="-3.32641">
        <ele>224.9</ele>
        <time>2024-11-20T12:13:27Z</time>
      </trkpt>
      <trkpt lat="48.16141" lon="-3.32643">
        <ele>224.9</ele>
        <time>2024-11-20T12:13:28Z</time>
      </trkpt>
      <trkpt lat="48.16141" lon="-3.32645">
        <ele>224.9</ele>
        <time>2024-11-20T12:13:29Z</time>
      </trkpt>
      <trkpt lat="48.16141" lon="-3.3265">
        <ele>224.9</ele>
        <time>2024-11-20T12:13:30Z</time>
      </trkpt>
      <trkpt lat="48.16141" lon="-3.32652">
        <ele>224.9</ele>
        <time>2024-11-20T12:13:31Z</time>
      </trkpt>
      <trkpt lat="48.16141" lon="-3.32654">
        <ele>224.9</ele>
        <time>2024-11-20T12:13:32Z</time>
      </trkpt>
      <trkpt lat="48.16142" lon="-3.32655">
        <ele>224.9</ele>
        <time>2024-11-20T12:13:33Z</time>
      </trkpt>
      <trkpt lat="48.16142" lon="-3.32656">
        <ele>224.9</ele>
        <time>2024-11-20T12:13:34Z</time>
      </trkpt>
      <trkpt lat="48.16143" lon="-3.32657">
        <ele>224.9</ele>
        <time>2024-11-20T12:13:35Z</time>
      </trkpt>
      <trkpt lat="48.16143" lon="-3.32658">
        <ele>224.9</ele>
        <time>2024-11-20T12:13:36Z</time>
      </trkpt>
      <trkpt lat="48.16142" lon="-3.3266">
        <ele>224.9</ele>
        <time>2024-11-20T12:13:37Z</time>
      </trkpt>
      <trkpt lat="48.16142" lon="-3.32661">
        <ele>224.9</ele>
        <time>2024-11-20T12:13:38Z</time>
      </trkpt>
      <trkpt lat="48.16142" lon="-3.32661">
        <ele>224.9</ele>
        <time>2024-11-20T12:13:39Z</time>
      </trkpt>
      <trkpt lat="48.16142" lon="-3.32662">
        <ele>224.9</ele>
        <time>2024-11-20T12:13:40Z</time>
      </trkpt>
      <trkpt lat="48.16142" lon="-3.32664">
        <ele>224.9</ele>
        <time>2024-11-20T12:13:41Z</time>
      </trkpt>
      <trkpt lat="48.16142" lon="-3.32665">
        <ele>224.9</ele>
        <time>2024-11-20T12:13:42Z</time>
      </trkpt>
      <trkpt lat="48.16142" lon="-3.32668">
        <ele>224.9</ele>
        <time>2024-11-20T12:13:43Z</time>
      </trkpt>
      <trkpt lat="48.16142" lon="-3.3267">
        <ele>224.9</ele>
        <time>2024-11-20T12:13:44Z</time>
      </trkpt>
      <trkpt lat="48.16142" lon="-3.32672">
        <ele>224.9</ele>
        <time>2024-11-20T12:13:45Z</time>
      </trkpt>
      <trkpt lat="48.16142" lon="-3.32674">
        <ele>224.9</ele>
        <time>2024-11-20T12:13:46Z</time>
      </trkpt>
      <trkpt lat="48.16142" lon="-3.32676">
        <ele>224.9</ele>
        <time>2024-11-20T12:13:47Z</time>
      </trkpt>
      <trkpt lat="48.16143" lon="-3.32678">
        <ele>224.9</ele>
        <time>2024-11-20T12:13:48Z</time>
      </trkpt>
      <trkpt lat="48.16143" lon="-3.3268">
        <ele>224.8</ele>
        <time>2024-11-20T12:13:49Z</time>
      </trkpt>
      <trkpt lat="48.16144" lon="-3.32681">
        <ele>224.8</ele>
        <time>2024-11-20T12:13:50Z</time>
      </trkpt>
      <trkpt lat="48.16145" lon="-3.32683">
        <ele>224.8</ele>
        <time>2024-11-20T12:13:51Z</time>
      </trkpt>
      <trkpt lat="48.16145" lon="-3.32685">
        <ele>224.8</ele>
        <time>2024-11-20T12:13:52Z</time>
      </trkpt>
      <trkpt lat="48.16146" lon="-3.32687">
        <ele>224.8</ele>
        <time>2024-11-20T12:13:53Z</time>
      </trkpt>
      <trkpt lat="48.16146" lon="-3.32688">
        <ele>224.7</ele>
        <time>2024-11-20T12:13:54Z</time>
      </trkpt>
      <trkpt lat="48.16147" lon="-3.3269">
        <ele>224.7</ele>
        <time>2024-11-20T12:13:55Z</time>
      </trkpt>
      <trkpt lat="48.16147" lon="-3.32691">
        <ele>224.7</ele>
        <time>2024-11-20T12:13:56Z</time>
      </trkpt>
      <trkpt lat="48.16148" lon="-3.32692">
        <ele>224.7</ele>
        <time>2024-11-20T12:13:57Z</time>
      </trkpt>
      <trkpt lat="48.16149" lon="-3.32694">
        <ele>224.7</ele>
        <time>2024-11-20T12:13:58Z</time>
      </trkpt>
      <trkpt lat="48.16149" lon="-3.32696">
        <ele>224.7</ele>
        <time>2024-11-20T12:13:59Z</time>
      </trkpt>
      <trkpt lat="48.1615" lon="-3.32697">
        <ele>224.7</ele>
        <time>2024-11-20T12:14:00Z</time>
      </trkpt>
      <trkpt lat="48.1615" lon="-3.32699">
        <ele>224.7</ele>
        <time>2024-11-20T12:14:01Z</time>
      </trkpt>
      <trkpt lat="48.16151" lon="-3.327">
        <ele>224.7</ele>
        <time>2024-11-20T12:14:02Z</time>
      </trkpt>
      <trkpt lat="48.16152" lon="-3.327">
        <ele>224.8</ele>
        <time>2024-11-20T12:14:03Z</time>
      </trkpt>
      <trkpt lat="48.16152" lon="-3.32702">
        <ele>224.8</ele>
        <time>2024-11-20T12:14:04Z</time>
      </trkpt>
      <trkpt lat="48.16153" lon="-3.32704">
        <ele>224.8</ele>
        <time>2024-11-20T12:14:05Z</time>
      </trkpt>
      <trkpt lat="48.16153" lon="-3.32706">
        <ele>224.9</ele>
        <time>2024-11-20T12:14:06Z</time>
      </trkpt>
      <trkpt lat="48.16154" lon="-3.32708">
        <ele>224.9</ele>
        <time>2024-11-20T12:14:07Z</time>
      </trkpt>
      <trkpt lat="48.16154" lon="-3.3271">
        <ele>225</ele>
        <time>2024-11-20T12:14:08Z</time>
      </trkpt>
      <trkpt lat="48.16155" lon="-3.32712">
        <ele>225.1</ele>
        <time>2024-11-20T12:14:09Z</time>
      </trkpt>
      <trkpt lat="48.16155" lon="-3.32714">
        <ele>225.1</ele>
        <time>2024-11-20T12:14:10Z</time>
      </trkpt>
      <trkpt lat="48.16155" lon="-3.32715">
        <ele>225.2</ele>
        <time>2024-11-20T12:14:11Z</time>
      </trkpt>
      <trkpt lat="48.16155" lon="-3.32717">
        <ele>225.2</ele>
        <time>2024-11-20T12:14:12Z</time>
      </trkpt>
      <trkpt lat="48.16156" lon="-3.3272">
        <ele>225.3</ele>
        <time>2024-11-20T12:14:13Z</time>
      </trkpt>
      <trkpt lat="48.16156" lon="-3.32721">
        <ele>225.4</ele>
        <time>2024-11-20T12:14:14Z</time>
      </trkpt>
      <trkpt lat="48.16156" lon="-3.32723">
        <ele>225.4</ele>
        <time>2024-11-20T12:14:15Z</time>
      </trkpt>
      <trkpt lat="48.16157" lon="-3.32725">
        <ele>225.3</ele>
        <time>2024-11-20T12:14:16Z</time>
      </trkpt>
      <trkpt lat="48.16158" lon="-3.32727">
        <ele>225.3</ele>
        <time>2024-11-20T12:14:17Z</time>
      </trkpt>
      <trkpt lat="48.16159" lon="-3.32728">
        <ele>225.3</ele>
        <time>2024-11-20T12:14:18Z</time>
      </trkpt>
      <trkpt lat="48.16159" lon="-3.32729">
        <ele>225.3</ele>
        <time>2024-11-20T12:14:19Z</time>
      </trkpt>
      <trkpt lat="48.1616" lon="-3.3273">
        <ele>225.3</ele>
        <time>2024-11-20T12:14:20Z</time>
      </trkpt>
      <trkpt lat="48.16161" lon="-3.32731">
        <ele>225.2</ele>
        <time>2024-11-20T12:14:21Z</time>
      </trkpt>
      <trkpt lat="48.16161" lon="-3.32733">
        <ele>225.2</ele>
        <time>2024-11-20T12:14:22Z</time>
      </trkpt>
      <trkpt lat="48.16162" lon="-3.32734">
        <ele>225.2</ele>
        <time>2024-11-20T12:14:23Z</time>
      </trkpt>
      <trkpt lat="48.16163" lon="-3.32735">
        <ele>225.1</ele>
        <time>2024-11-20T12:14:24Z</time>
      </trkpt>
      <trkpt lat="48.16164" lon="-3.32735">
        <ele>225.1</ele>
        <time>2024-11-20T12:14:25Z</time>
      </trkpt>
      <trkpt lat="48.16165" lon="-3.32736">
        <ele>225.1</ele>
        <time>2024-11-20T12:14:26Z</time>
      </trkpt>
      <trkpt lat="48.16165" lon="-3.32737">
        <ele>225.1</ele>
        <time>2024-11-20T12:14:27Z</time>
      </trkpt>
      <trkpt lat="48.16165" lon="-3.32738">
        <ele>225.1</ele>
        <time>2024-11-20T12:14:28Z</time>
      </trkpt>
      <trkpt lat="48.16165" lon="-3.32739">
        <ele>225.1</ele>
        <time>2024-11-20T12:14:29Z</time>
      </trkpt>
      <trkpt lat="48.16166" lon="-3.32741">
        <ele>225</ele>
        <time>2024-11-20T12:14:30Z</time>
      </trkpt>
      <trkpt lat="48.16166" lon="-3.32743">
        <ele>225</ele>
        <time>2024-11-20T12:14:31Z</time>
      </trkpt>
      <trkpt lat="48.16167" lon="-3.32744">
        <ele>225</ele>
        <time>2024-11-20T12:14:32Z</time>
      </trkpt>
      <trkpt lat="48.16168" lon="-3.32746">
        <ele>225</ele>
        <time>2024-11-20T12:14:33Z</time>
      </trkpt>
      <trkpt lat="48.16168" lon="-3.32747">
        <ele>224.9</ele>
        <time>2024-11-20T12:14:34Z</time>
      </trkpt>
      <trkpt lat="48.16169" lon="-3.32749">
        <ele>224.9</ele>
        <time>2024-11-20T12:14:35Z</time>
      </trkpt>
      <trkpt lat="48.16169" lon="-3.3275">
        <ele>224.9</ele>
        <time>2024-11-20T12:14:36Z</time>
      </trkpt>
      <trkpt lat="48.1617" lon="-3.32751">
        <ele>224.8</ele>
        <time>2024-11-20T12:14:37Z</time>
      </trkpt>
      <trkpt lat="48.1617" lon="-3.32753">
        <ele>224.8</ele>
        <time>2024-11-20T12:14:38Z</time>
      </trkpt>
      <trkpt lat="48.16171" lon="-3.32754">
        <ele>224.7</ele>
        <time>2024-11-20T12:14:39Z</time>
      </trkpt>
      <trkpt lat="48.16171" lon="-3.32756">
        <ele>224.6</ele>
        <time>2024-11-20T12:14:40Z</time>
      </trkpt>
      <trkpt lat="48.16172" lon="-3.32757">
        <ele>224.6</ele>
        <time>2024-11-20T12:14:41Z</time>
      </trkpt>
      <trkpt lat="48.16173" lon="-3.32759">
        <ele>224.5</ele>
        <time>2024-11-20T12:14:42Z</time>
      </trkpt>
      <trkpt lat="48.16173" lon="-3.3276">
        <ele>224.4</ele>
        <time>2024-11-20T12:14:43Z</time>
      </trkpt>
      <trkpt lat="48.16174" lon="-3.32762">
        <ele>224.3</ele>
        <time>2024-11-20T12:14:44Z</time>
      </trkpt>
      <trkpt lat="48.16175" lon="-3.32764">
        <ele>224.2</ele>
        <time>2024-11-20T12:14:45Z</time>
      </trkpt>
      <trkpt lat="48.16176" lon="-3.32766">
        <ele>224.1</ele>
        <time>2024-11-20T12:14:46Z</time>
      </trkpt>
      <trkpt lat="48.16177" lon="-3.32768">
        <ele>224</ele>
        <time>2024-11-20T12:14:47Z</time>
      </trkpt>
      <trkpt lat="48.16178" lon="-3.32769">
        <ele>223.9</ele>
        <time>2024-11-20T12:14:48Z</time>
      </trkpt>
      <trkpt lat="48.16179" lon="-3.3277">
        <ele>223.8</ele>
        <time>2024-11-20T12:14:49Z</time>
      </trkpt>
      <trkpt lat="48.1618" lon="-3.32772">
        <ele>223.7</ele>
        <time>2024-11-20T12:14:50Z</time>
      </trkpt>
      <trkpt lat="48.1618" lon="-3.32775">
        <ele>223.6</ele>
        <time>2024-11-20T12:14:51Z</time>
      </trkpt>
      <trkpt lat="48.16181" lon="-3.32777">
        <ele>223.5</ele>
        <time>2024-11-20T12:14:52Z</time>
      </trkpt>
      <trkpt lat="48.16182" lon="-3.32779">
        <ele>223.5</ele>
        <time>2024-11-20T12:14:53Z</time>
      </trkpt>
      <trkpt lat="48.16182" lon="-3.3278">
        <ele>223.4</ele>
        <time>2024-11-20T12:14:54Z</time>
      </trkpt>
      <trkpt lat="48.16183" lon="-3.32781">
        <ele>223.4</ele>
        <time>2024-11-20T12:14:55Z</time>
      </trkpt>
      <trkpt lat="48.16183" lon="-3.32782">
        <ele>223.4</ele>
        <time>2024-11-20T12:14:56Z</time>
      </trkpt>
      <trkpt lat="48.16184" lon="-3.32783">
        <ele>223.4</ele>
        <time>2024-11-20T12:14:57Z</time>
      </trkpt>
      <trkpt lat="48.16184" lon="-3.32784">
        <ele>223.4</ele>
        <time>2024-11-20T12:14:58Z</time>
      </trkpt>
      <trkpt lat="48.16185" lon="-3.32784">
        <ele>223.3</ele>
        <time>2024-11-20T12:14:59Z</time>
      </trkpt>
      <trkpt lat="48.16186" lon="-3.32785">
        <ele>223.3</ele>
        <time>2024-11-20T12:15:00Z</time>
      </trkpt>
      <trkpt lat="48.16187" lon="-3.32786">
        <ele>223.3</ele>
        <time>2024-11-20T12:15:01Z</time>
      </trkpt>
      <trkpt lat="48.16188" lon="-3.32786">
        <ele>223.2</ele>
        <time>2024-11-20T12:15:02Z</time>
      </trkpt>
      <trkpt lat="48.16189" lon="-3.32787">
        <ele>223.2</ele>
        <time>2024-11-20T12:15:03Z</time>
      </trkpt>
      <trkpt lat="48.1619" lon="-3.32788">
        <ele>223.2</ele>
        <time>2024-11-20T12:15:04Z</time>
      </trkpt>
      <trkpt lat="48.16191" lon="-3.32789">
        <ele>223.1</ele>
        <time>2024-11-20T12:15:05Z</time>
      </trkpt>
      <trkpt lat="48.16192" lon="-3.32789">
        <ele>223.1</ele>
        <time>2024-11-20T12:15:06Z</time>
      </trkpt>
      <trkpt lat="48.16192" lon="-3.3279">
        <ele>223.1</ele>
        <time>2024-11-20T12:15:07Z</time>
      </trkpt>
      <trkpt lat="48.16192" lon="-3.32792">
        <ele>223.1</ele>
        <time>2024-11-20T12:15:08Z</time>
      </trkpt>
      <trkpt lat="48.16193" lon="-3.32793">
        <ele>223.1</ele>
        <time>2024-11-20T12:15:09Z</time>
      </trkpt>
      <trkpt lat="48.16193" lon="-3.32795">
        <ele>223</ele>
        <time>2024-11-20T12:15:10Z</time>
      </trkpt>
      <trkpt lat="48.16194" lon="-3.32797">
        <ele>223</ele>
        <time>2024-11-20T12:15:11Z</time>
      </trkpt>
      <trkpt lat="48.16195" lon="-3.32798">
        <ele>223</ele>
        <time>2024-11-20T12:15:12Z</time>
      </trkpt>
      <trkpt lat="48.16195" lon="-3.328">
        <ele>223</ele>
        <time>2024-11-20T12:15:13Z</time>
      </trkpt>
      <trkpt lat="48.16195" lon="-3.32801">
        <ele>223</ele>
        <time>2024-11-20T12:15:14Z</time>
      </trkpt>
      <trkpt lat="48.16196" lon="-3.32802">
        <ele>223</ele>
        <time>2024-11-20T12:15:15Z</time>
      </trkpt>
      <trkpt lat="48.16196" lon="-3.32803">
        <ele>223</ele>
        <time>2024-11-20T12:15:16Z</time>
      </trkpt>
      <trkpt lat="48.16197" lon="-3.32804">
        <ele>223</ele>
        <time>2024-11-20T12:15:17Z</time>
      </trkpt>
      <trkpt lat="48.16197" lon="-3.32805">
        <ele>223</ele>
        <time>2024-11-20T12:15:18Z</time>
      </trkpt>
      <trkpt lat="48.16198" lon="-3.32807">
        <ele>223</ele>
        <time>2024-11-20T12:15:19Z</time>
      </trkpt>
      <trkpt lat="48.16199" lon="-3.32808">
        <ele>223</ele>
        <time>2024-11-20T12:15:20Z</time>
      </trkpt>
      <trkpt lat="48.16199" lon="-3.32808">
        <ele>223</ele>
        <time>2024-11-20T12:15:21Z</time>
      </trkpt>
      <trkpt lat="48.16199" lon="-3.32808">
        <ele>223</ele>
        <time>2024-11-20T12:15:22Z</time>
      </trkpt>
      <trkpt lat="48.162" lon="-3.32809">
        <ele>223</ele>
        <time>2024-11-20T12:15:23Z</time>
      </trkpt>
      <trkpt lat="48.16201" lon="-3.32809">
        <ele>223</ele>
        <time>2024-11-20T12:15:24Z</time>
      </trkpt>
      <trkpt lat="48.16202" lon="-3.3281">
        <ele>223</ele>
        <time>2024-11-20T12:15:25Z</time>
      </trkpt>
      <trkpt lat="48.16202" lon="-3.32811">
        <ele>223</ele>
        <time>2024-11-20T12:15:26Z</time>
      </trkpt>
      <trkpt lat="48.16203" lon="-3.32812">
        <ele>223</ele>
        <time>2024-11-20T12:15:27Z</time>
      </trkpt>
      <trkpt lat="48.16203" lon="-3.32813">
        <ele>223</ele>
        <time>2024-11-20T12:15:28Z</time>
      </trkpt>
      <trkpt lat="48.16204" lon="-3.32815">
        <ele>223</ele>
        <time>2024-11-20T12:15:29Z</time>
      </trkpt>
      <trkpt lat="48.16205" lon="-3.32816">
        <ele>223</ele>
        <time>2024-11-20T12:15:30Z</time>
      </trkpt>
      <trkpt lat="48.16206" lon="-3.32816">
        <ele>223</ele>
        <time>2024-11-20T12:15:31Z</time>
      </trkpt>
      <trkpt lat="48.16206" lon="-3.32817">
        <ele>223</ele>
        <time>2024-11-20T12:15:32Z</time>
      </trkpt>
      <trkpt lat="48.16207" lon="-3.32817">
        <ele>223</ele>
        <time>2024-11-20T12:15:33Z</time>
      </trkpt>
      <trkpt lat="48.16207" lon="-3.32818">
        <ele>223</ele>
        <time>2024-11-20T12:15:34Z</time>
      </trkpt>
      <trkpt lat="48.16208" lon="-3.32818">
        <ele>223</ele>
        <time>2024-11-20T12:15:35Z</time>
      </trkpt>
      <trkpt lat="48.16208" lon="-3.32819">
        <ele>223</ele>
        <time>2024-11-20T12:15:36Z</time>
      </trkpt>
      <trkpt lat="48.16209" lon="-3.32819">
        <ele>223</ele>
        <time>2024-11-20T12:15:37Z</time>
      </trkpt>
      <trkpt lat="48.1621" lon="-3.32819">
        <ele>223</ele>
        <time>2024-11-20T12:15:38Z</time>
      </trkpt>
      <trkpt lat="48.16211" lon="-3.32819">
        <ele>223</ele>
        <time>2024-11-20T12:15:39Z</time>
      </trkpt>
      <trkpt lat="48.16212" lon="-3.3282">
        <ele>223</ele>
        <time>2024-11-20T12:15:40Z</time>
      </trkpt>
      <trkpt lat="48.16212" lon="-3.32821">
        <ele>223</ele>
        <time>2024-11-20T12:15:41Z</time>
      </trkpt>
      <trkpt lat="48.16212" lon="-3.32822">
        <ele>223</ele>
        <time>2024-11-20T12:15:42Z</time>
      </trkpt>
      <trkpt lat="48.16213" lon="-3.32822">
        <ele>223</ele>
        <time>2024-11-20T12:15:43Z</time>
      </trkpt>
      <trkpt lat="48.16213" lon="-3.32823">
        <ele>223</ele>
        <time>2024-11-20T12:15:44Z</time>
      </trkpt>
      <trkpt lat="48.16214" lon="-3.32823">
        <ele>223</ele>
        <time>2024-11-20T12:15:45Z</time>
      </trkpt>
      <trkpt lat="48.16214" lon="-3.32825">
        <ele>223</ele>
        <time>2024-11-20T12:15:46Z</time>
      </trkpt>
      <trkpt lat="48.16214" lon="-3.32826">
        <ele>223</ele>
        <time>2024-11-20T12:15:47Z</time>
      </trkpt>
      <trkpt lat="48.16214" lon="-3.32827">
        <ele>223</ele>
        <time>2024-11-20T12:15:48Z</time>
      </trkpt>
      <trkpt lat="48.16215" lon="-3.32827">
        <ele>223</ele>
        <time>2024-11-20T12:15:49Z</time>
      </trkpt>
      <trkpt lat="48.16216" lon="-3.32828">
        <ele>223</ele>
        <time>2024-11-20T12:15:50Z</time>
      </trkpt>
      <trkpt lat="48.16217" lon="-3.32829">
        <ele>223</ele>
        <time>2024-11-20T12:15:51Z</time>
      </trkpt>
      <trkpt lat="48.16218" lon="-3.32831">
        <ele>223</ele>
        <time>2024-11-20T12:15:52Z</time>
      </trkpt>
      <trkpt lat="48.16219" lon="-3.32832">
        <ele>223</ele>
        <time>2024-11-20T12:15:53Z</time>
      </trkpt>
      <trkpt lat="48.16219" lon="-3.32833">
        <ele>223</ele>
        <time>2024-11-20T12:15:54Z</time>
      </trkpt>
      <trkpt lat="48.1622" lon="-3.32834">
        <ele>223</ele>
        <time>2024-11-20T12:15:55Z</time>
      </trkpt>
      <trkpt lat="48.16221" lon="-3.32834">
        <ele>223</ele>
        <time>2024-11-20T12:15:56Z</time>
      </trkpt>
      <trkpt lat="48.16221" lon="-3.32835">
        <ele>223</ele>
        <time>2024-11-20T12:15:57Z</time>
      </trkpt>
      <trkpt lat="48.16222" lon="-3.32836">
        <ele>223</ele>
        <time>2024-11-20T12:15:58Z</time>
      </trkpt>
      <trkpt lat="48.16223" lon="-3.32837">
        <ele>223.1</ele>
        <time>2024-11-20T12:15:59Z</time>
      </trkpt>
      <trkpt lat="48.16224" lon="-3.32838">
        <ele>223.1</ele>
        <time>2024-11-20T12:16:00Z</time>
      </trkpt>
      <trkpt lat="48.16225" lon="-3.32839">
        <ele>223.2</ele>
        <time>2024-11-20T12:16:01Z</time>
      </trkpt>
      <trkpt lat="48.16226" lon="-3.3284">
        <ele>223.3</ele>
        <time>2024-11-20T12:16:02Z</time>
      </trkpt>
      <trkpt lat="48.16227" lon="-3.32842">
        <ele>223.4</ele>
        <time>2024-11-20T12:16:03Z</time>
      </trkpt>
      <trkpt lat="48.16228" lon="-3.32843">
        <ele>223.4</ele>
        <time>2024-11-20T12:16:04Z</time>
      </trkpt>
      <trkpt lat="48.16229" lon="-3.32844">
        <ele>223.5</ele>
        <time>2024-11-20T12:16:05Z</time>
      </trkpt>
      <trkpt lat="48.1623" lon="-3.32845">
        <ele>223.6</ele>
        <time>2024-11-20T12:16:06Z</time>
      </trkpt>
      <trkpt lat="48.16231" lon="-3.32846">
        <ele>223.7</ele>
        <time>2024-11-20T12:16:07Z</time>
      </trkpt>
      <trkpt lat="48.16232" lon="-3.32848">
        <ele>223.7</ele>
        <time>2024-11-20T12:16:08Z</time>
      </trkpt>
      <trkpt lat="48.16233" lon="-3.3285">
        <ele>223.7</ele>
        <time>2024-11-20T12:16:09Z</time>
      </trkpt>
      <trkpt lat="48.16233" lon="-3.3285">
        <ele>223.8</ele>
        <time>2024-11-20T12:16:10Z</time>
      </trkpt>
      <trkpt lat="48.16234" lon="-3.32851">
        <ele>223.8</ele>
        <time>2024-11-20T12:16:11Z</time>
      </trkpt>
      <trkpt lat="48.16234" lon="-3.32851">
        <ele>223.9</ele>
        <time>2024-11-20T12:16:12Z</time>
      </trkpt>
      <trkpt lat="48.16234" lon="-3.32851">
        <ele>223.9</ele>
        <time>2024-11-20T12:16:13Z</time>
      </trkpt>
      <trkpt lat="48.16234" lon="-3.32852">
        <ele>223.9</ele>
        <time>2024-11-20T12:16:14Z</time>
      </trkpt>
      <trkpt lat="48.16235" lon="-3.32852">
        <ele>223.9</ele>
        <time>2024-11-20T12:16:15Z</time>
      </trkpt>
      <trkpt lat="48.16235" lon="-3.32852">
        <ele>223.9</ele>
        <time>2024-11-20T12:16:16Z</time>
      </trkpt>
      <trkpt lat="48.16236" lon="-3.32853">
        <ele>224</ele>
        <time>2024-11-20T12:16:17Z</time>
      </trkpt>
      <trkpt lat="48.16237" lon="-3.32854">
        <ele>224.1</ele>
        <time>2024-11-20T12:16:18Z</time>
      </trkpt>
      <trkpt lat="48.16238" lon="-3.32854">
        <ele>224.1</ele>
        <time>2024-11-20T12:16:19Z</time>
      </trkpt>
      <trkpt lat="48.16238" lon="-3.32855">
        <ele>224.2</ele>
        <time>2024-11-20T12:16:20Z</time>
      </trkpt>
      <trkpt lat="48.16239" lon="-3.32855">
        <ele>224.2</ele>
        <time>2024-11-20T12:16:21Z</time>
      </trkpt>
      <trkpt lat="48.16239" lon="-3.32856">
        <ele>224.2</ele>
        <time>2024-11-20T12:16:22Z</time>
      </trkpt>
      <trkpt lat="48.1624" lon="-3.32857">
        <ele>224.3</ele>
        <time>2024-11-20T12:16:23Z</time>
      </trkpt>
      <trkpt lat="48.16241" lon="-3.32857">
        <ele>224.4</ele>
        <time>2024-11-20T12:16:24Z</time>
      </trkpt>
      <trkpt lat="48.16242" lon="-3.32858">
        <ele>224.4</ele>
        <time>2024-11-20T12:16:25Z</time>
      </trkpt>
      <trkpt lat="48.16243" lon="-3.32859">
        <ele>224.5</ele>
        <time>2024-11-20T12:16:26Z</time>
      </trkpt>
      <trkpt lat="48.16243" lon="-3.32861">
        <ele>224.5</ele>
        <time>2024-11-20T12:16:27Z</time>
      </trkpt>
      <trkpt lat="48.16244" lon="-3.32863">
        <ele>224.5</ele>
        <time>2024-11-20T12:16:28Z</time>
      </trkpt>
      <trkpt lat="48.16245" lon="-3.32864">
        <ele>224.6</ele>
        <time>2024-11-20T12:16:29Z</time>
      </trkpt>
      <trkpt lat="48.16246" lon="-3.32864">
        <ele>224.6</ele>
        <time>2024-11-20T12:16:30Z</time>
      </trkpt>
      <trkpt lat="48.16247" lon="-3.32865">
        <ele>224.7</ele>
        <time>2024-11-20T12:16:31Z</time>
      </trkpt>
      <trkpt lat="48.16249" lon="-3.32866">
        <ele>224.7</ele>
        <time>2024-11-20T12:16:32Z</time>
      </trkpt>
      <trkpt lat="48.1625" lon="-3.32867">
        <ele>224.8</ele>
        <time>2024-11-20T12:16:33Z</time>
      </trkpt>
      <trkpt lat="48.16251" lon="-3.32868">
        <ele>224.8</ele>
        <time>2024-11-20T12:16:34Z</time>
      </trkpt>
      <trkpt lat="48.16252" lon="-3.32869">
        <ele>224.9</ele>
        <time>2024-11-20T12:16:35Z</time>
      </trkpt>
      <trkpt lat="48.16253" lon="-3.3287">
        <ele>224.9</ele>
        <time>2024-11-20T12:16:36Z</time>
      </trkpt>
      <trkpt lat="48.16255" lon="-3.32871">
        <ele>224.9</ele>
        <time>2024-11-20T12:16:37Z</time>
      </trkpt>
      <trkpt lat="48.16256" lon="-3.32873">
        <ele>224.9</ele>
        <time>2024-11-20T12:16:38Z</time>
      </trkpt>
      <trkpt lat="48.16257" lon="-3.32874">
        <ele>224.9</ele>
        <time>2024-11-20T12:16:39Z</time>
      </trkpt>
      <trkpt lat="48.16258" lon="-3.32876">
        <ele>224.9</ele>
        <time>2024-11-20T12:16:40Z</time>
      </trkpt>
      <trkpt lat="48.16259" lon="-3.32877">
        <ele>224.9</ele>
        <time>2024-11-20T12:16:41Z</time>
      </trkpt>
      <trkpt lat="48.1626" lon="-3.32877">
        <ele>224.9</ele>
        <time>2024-11-20T12:16:42Z</time>
      </trkpt>
      <trkpt lat="48.16261" lon="-3.32878">
        <ele>224.9</ele>
        <time>2024-11-20T12:16:43Z</time>
      </trkpt>
      <trkpt lat="48.16262" lon="-3.32879">
        <ele>225</ele>
        <time>2024-11-20T12:16:44Z</time>
      </trkpt>
      <trkpt lat="48.16264" lon="-3.32879">
        <ele>225</ele>
        <time>2024-11-20T12:16:45Z</time>
      </trkpt>
      <trkpt lat="48.16265" lon="-3.3288">
        <ele>225.1</ele>
        <time>2024-11-20T12:16:46Z</time>
      </trkpt>
      <trkpt lat="48.16266" lon="-3.3288">
        <ele>225.1</ele>
        <time>2024-11-20T12:16:47Z</time>
      </trkpt>
      <trkpt lat="48.16267" lon="-3.3288">
        <ele>225.1</ele>
        <time>2024-11-20T12:16:48Z</time>
      </trkpt>
      <trkpt lat="48.16268" lon="-3.32882">
        <ele>225</ele>
        <time>2024-11-20T12:16:49Z</time>
      </trkpt>
      <trkpt lat="48.16268" lon="-3.32883">
        <ele>225</ele>
        <time>2024-11-20T12:16:50Z</time>
      </trkpt>
      <trkpt lat="48.16268" lon="-3.32885">
        <ele>224.9</ele>
        <time>2024-11-20T12:16:51Z</time>
      </trkpt>
      <trkpt lat="48.16269" lon="-3.32885">
        <ele>224.9</ele>
        <time>2024-11-20T12:16:52Z</time>
      </trkpt>
      <trkpt lat="48.16269" lon="-3.32886">
        <ele>224.9</ele>
        <time>2024-11-20T12:16:53Z</time>
      </trkpt>
      <trkpt lat="48.1627" lon="-3.32886">
        <ele>224.9</ele>
        <time>2024-11-20T12:16:54Z</time>
      </trkpt>
      <trkpt lat="48.16271" lon="-3.32886">
        <ele>224.9</ele>
        <time>2024-11-20T12:16:55Z</time>
      </trkpt>
      <trkpt lat="48.16271" lon="-3.32887">
        <ele>224.9</ele>
        <time>2024-11-20T12:16:56Z</time>
      </trkpt>
      <trkpt lat="48.16272" lon="-3.32887">
        <ele>224.9</ele>
        <time>2024-11-20T12:16:57Z</time>
      </trkpt>
      <trkpt lat="48.16272" lon="-3.32888">
        <ele>224.8</ele>
        <time>2024-11-20T12:16:58Z</time>
      </trkpt>
      <trkpt lat="48.16272" lon="-3.32889">
        <ele>224.8</ele>
        <time>2024-11-20T12:16:59Z</time>
      </trkpt>
      <trkpt lat="48.16273" lon="-3.3289">
        <ele>224.8</ele>
        <time>2024-11-20T12:17:00Z</time>
      </trkpt>
      <trkpt lat="48.16273" lon="-3.32891">
        <ele>224.8</ele>
        <time>2024-11-20T12:17:01Z</time>
      </trkpt>
      <trkpt lat="48.16274" lon="-3.32892">
        <ele>224.8</ele>
        <time>2024-11-20T12:17:02Z</time>
      </trkpt>
      <trkpt lat="48.16275" lon="-3.32894">
        <ele>224.7</ele>
        <time>2024-11-20T12:17:03Z</time>
      </trkpt>
      <trkpt lat="48.16276" lon="-3.32895">
        <ele>224.7</ele>
        <time>2024-11-20T12:17:04Z</time>
      </trkpt>
      <trkpt lat="48.16277" lon="-3.32896">
        <ele>224.7</ele>
        <time>2024-11-20T12:17:05Z</time>
      </trkpt>
      <trkpt lat="48.16278" lon="-3.32897">
        <ele>224.7</ele>
        <time>2024-11-20T12:17:06Z</time>
      </trkpt>
      <trkpt lat="48.16279" lon="-3.32898">
        <ele>224.7</ele>
        <time>2024-11-20T12:17:07Z</time>
      </trkpt>
      <trkpt lat="48.1628" lon="-3.32898">
        <ele>224.8</ele>
        <time>2024-11-20T12:17:08Z</time>
      </trkpt>
      <trkpt lat="48.16281" lon="-3.32898">
        <ele>224.8</ele>
        <time>2024-11-20T12:17:09Z</time>
      </trkpt>
      <trkpt lat="48.16282" lon="-3.32898">
        <ele>224.9</ele>
        <time>2024-11-20T12:17:10Z</time>
      </trkpt>
      <trkpt lat="48.16283" lon="-3.32897">
        <ele>224.9</ele>
        <time>2024-11-20T12:17:11Z</time>
      </trkpt>
      <trkpt lat="48.16284" lon="-3.32897">
        <ele>225</ele>
        <time>2024-11-20T12:17:12Z</time>
      </trkpt>
      <trkpt lat="48.16284" lon="-3.32897">
        <ele>225</ele>
        <time>2024-11-20T12:17:13Z</time>
      </trkpt>
      <trkpt lat="48.16285" lon="-3.32898">
        <ele>225</ele>
        <time>2024-11-20T12:17:14Z</time>
      </trkpt>
      <trkpt lat="48.16286" lon="-3.32898">
        <ele>225.1</ele>
        <time>2024-11-20T12:17:15Z</time>
      </trkpt>
      <trkpt lat="48.16287" lon="-3.32899">
        <ele>225.1</ele>
        <time>2024-11-20T12:17:16Z</time>
      </trkpt>
      <trkpt lat="48.16288" lon="-3.329">
        <ele>225.1</ele>
        <time>2024-11-20T12:17:17Z</time>
      </trkpt>
      <trkpt lat="48.16289" lon="-3.329">
        <ele>225.2</ele>
        <time>2024-11-20T12:17:18Z</time>
      </trkpt>
      <trkpt lat="48.1629" lon="-3.32902">
        <ele>225.2</ele>
        <time>2024-11-20T12:17:19Z</time>
      </trkpt>
      <trkpt lat="48.16292" lon="-3.32903">
        <ele>225.3</ele>
        <time>2024-11-20T12:17:20Z</time>
      </trkpt>
      <trkpt lat="48.16293" lon="-3.32904">
        <ele>225.3</ele>
        <time>2024-11-20T12:17:21Z</time>
      </trkpt>
      <trkpt lat="48.16295" lon="-3.32906">
        <ele>225.4</ele>
        <time>2024-11-20T12:17:22Z</time>
      </trkpt>
      <trkpt lat="48.16296" lon="-3.32907">
        <ele>225.4</ele>
        <time>2024-11-20T12:17:23Z</time>
      </trkpt>
      <trkpt lat="48.16297" lon="-3.32908">
        <ele>225.5</ele>
        <time>2024-11-20T12:17:24Z</time>
      </trkpt>
      <trkpt lat="48.16298" lon="-3.32909">
        <ele>225.5</ele>
        <time>2024-11-20T12:17:25Z</time>
      </trkpt>
      <trkpt lat="48.16299" lon="-3.3291">
        <ele>225.6</ele>
        <time>2024-11-20T12:17:26Z</time>
      </trkpt>
      <trkpt lat="48.163" lon="-3.32911">
        <ele>225.6</ele>
        <time>2024-11-20T12:17:27Z</time>
      </trkpt>
      <trkpt lat="48.16301" lon="-3.32912">
        <ele>225.7</ele>
        <time>2024-11-20T12:17:28Z</time>
      </trkpt>
      <trkpt lat="48.16302" lon="-3.32912">
        <ele>225.7</ele>
        <time>2024-11-20T12:17:29Z</time>
      </trkpt>
      <trkpt lat="48.16303" lon="-3.32913">
        <ele>225.8</ele>
        <time>2024-11-20T12:17:30Z</time>
      </trkpt>
      <trkpt lat="48.16304" lon="-3.32914">
        <ele>225.9</ele>
        <time>2024-11-20T12:17:31Z</time>
      </trkpt>
      <trkpt lat="48.16305" lon="-3.32915">
        <ele>226</ele>
        <time>2024-11-20T12:17:32Z</time>
      </trkpt>
      <trkpt lat="48.16306" lon="-3.32916">
        <ele>226</ele>
        <time>2024-11-20T12:17:33Z</time>
      </trkpt>
      <trkpt lat="48.16307" lon="-3.32917">
        <ele>226</ele>
        <time>2024-11-20T12:17:34Z</time>
      </trkpt>
      <trkpt lat="48.16307" lon="-3.32918">
        <ele>226.1</ele>
        <time>2024-11-20T12:17:35Z</time>
      </trkpt>
      <trkpt lat="48.16308" lon="-3.32919">
        <ele>226.1</ele>
        <time>2024-11-20T12:17:36Z</time>
      </trkpt>
      <trkpt lat="48.16309" lon="-3.3292">
        <ele>226.1</ele>
        <time>2024-11-20T12:17:37Z</time>
      </trkpt>
      <trkpt lat="48.1631" lon="-3.32922">
        <ele>226.2</ele>
        <time>2024-11-20T12:17:38Z</time>
      </trkpt>
      <trkpt lat="48.16311" lon="-3.32925">
        <ele>226.2</ele>
        <time>2024-11-20T12:17:39Z</time>
      </trkpt>
      <trkpt lat="48.16312" lon="-3.32927">
        <ele>226.2</ele>
        <time>2024-11-20T12:17:40Z</time>
      </trkpt>
      <trkpt lat="48.16313" lon="-3.32928">
        <ele>226.3</ele>
        <time>2024-11-20T12:17:41Z</time>
      </trkpt>
      <trkpt lat="48.16313" lon="-3.32929">
        <ele>226.3</ele>
        <time>2024-11-20T12:17:42Z</time>
      </trkpt>
      <trkpt lat="48.16314" lon="-3.32931">
        <ele>226.3</ele>
        <time>2024-11-20T12:17:43Z</time>
      </trkpt>
      <trkpt lat="48.16315" lon="-3.32932">
        <ele>226.3</ele>
        <time>2024-11-20T12:17:44Z</time>
      </trkpt>
      <trkpt lat="48.16315" lon="-3.32934">
        <ele>226.3</ele>
        <time>2024-11-20T12:17:45Z</time>
      </trkpt>
      <trkpt lat="48.16316" lon="-3.32935">
        <ele>226.4</ele>
        <time>2024-11-20T12:17:46Z</time>
      </trkpt>
      <trkpt lat="48.16317" lon="-3.32935">
        <ele>226.4</ele>
        <time>2024-11-20T12:17:47Z</time>
      </trkpt>
      <trkpt lat="48.16318" lon="-3.32936">
        <ele>226.4</ele>
        <time>2024-11-20T12:17:48Z</time>
      </trkpt>
      <trkpt lat="48.16318" lon="-3.32937">
        <ele>226.5</ele>
        <time>2024-11-20T12:17:49Z</time>
      </trkpt>
      <trkpt lat="48.16318" lon="-3.32937">
        <ele>226.5</ele>
        <time>2024-11-20T12:17:50Z</time>
      </trkpt>
      <trkpt lat="48.16318" lon="-3.32937">
        <ele>226.5</ele>
        <time>2024-11-20T12:17:53Z</time>
      </trkpt>
      <trkpt lat="48.16318" lon="-3.32937">
        <ele>226.4</ele>
        <time>2024-11-20T12:17:54Z</time>
      </trkpt>
      <trkpt lat="48.16318" lon="-3.32937">
        <ele>226.4</ele>
        <time>2024-11-20T12:17:55Z</time>
      </trkpt>
      <trkpt lat="48.16318" lon="-3.32937">
        <ele>226.4</ele>
        <time>2024-11-20T12:17:56Z</time>
      </trkpt>
      <trkpt lat="48.16318" lon="-3.32936">
        <ele>226.5</ele>
        <time>2024-11-20T12:17:57Z</time>
      </trkpt>
      <trkpt lat="48.16318" lon="-3.32936">
        <ele>226.5</ele>
        <time>2024-11-20T12:17:58Z</time>
      </trkpt>
      <trkpt lat="48.16318" lon="-3.32936">
        <ele>226.5</ele>
        <time>2024-11-20T12:17:59Z</time>
      </trkpt>
      <trkpt lat="48.16318" lon="-3.32936">
        <ele>226.5</ele>
        <time>2024-11-20T12:18:00Z</time>
      </trkpt>
      <trkpt lat="48.16318" lon="-3.32936">
        <ele>226.5</ele>
        <time>2024-11-20T12:18:01Z</time>
      </trkpt>
      <trkpt lat="48.16318" lon="-3.32936">
        <ele>226.5</ele>
        <time>2024-11-20T12:18:02Z</time>
      </trkpt>
      <trkpt lat="48.16318" lon="-3.32936">
        <ele>226.5</ele>
        <time>2024-11-20T12:18:03Z</time>
      </trkpt>
      <trkpt lat="48.16319" lon="-3.32936">
        <ele>226.5</ele>
        <time>2024-11-20T12:18:04Z</time>
      </trkpt>
      <trkpt lat="48.16319" lon="-3.32936">
        <ele>226.5</ele>
        <time>2024-11-20T12:18:05Z</time>
      </trkpt>
      <trkpt lat="48.16319" lon="-3.32936">
        <ele>226.5</ele>
        <time>2024-11-20T12:18:06Z</time>
      </trkpt>
      <trkpt lat="48.16318" lon="-3.32937">
        <ele>226.5</ele>
        <time>2024-11-20T12:18:07Z</time>
      </trkpt>
      <trkpt lat="48.16318" lon="-3.32937">
        <ele>226.5</ele>
        <time>2024-11-20T12:18:08Z</time>
      </trkpt>
      <trkpt lat="48.16319" lon="-3.32937">
        <ele>226.5</ele>
        <time>2024-11-20T12:18:09Z</time>
      </trkpt>
      <trkpt lat="48.16319" lon="-3.32936">
        <ele>226.5</ele>
        <time>2024-11-20T12:18:10Z</time>
      </trkpt>
      <trkpt lat="48.16319" lon="-3.32935">
        <ele>226.5</ele>
        <time>2024-11-20T12:18:11Z</time>
      </trkpt>
      <trkpt lat="48.16319" lon="-3.32934">
        <ele>226.5</ele>
        <time>2024-11-20T12:18:12Z</time>
      </trkpt>
      <trkpt lat="48.16319" lon="-3.32932">
        <ele>226.5</ele>
        <time>2024-11-20T12:18:13Z</time>
      </trkpt>
      <trkpt lat="48.16319" lon="-3.32931">
        <ele>226.5</ele>
        <time>2024-11-20T12:18:14Z</time>
      </trkpt>
      <trkpt lat="48.16319" lon="-3.3293">
        <ele>226.5</ele>
        <time>2024-11-20T12:18:15Z</time>
      </trkpt>
      <trkpt lat="48.16319" lon="-3.32929">
        <ele>226.5</ele>
        <time>2024-11-20T12:18:16Z</time>
      </trkpt>
      <trkpt lat="48.16319" lon="-3.32928">
        <ele>226.5</ele>
        <time>2024-11-20T12:18:17Z</time>
      </trkpt>
      <trkpt lat="48.16319" lon="-3.32927">
        <ele>226.5</ele>
        <time>2024-11-20T12:18:18Z</time>
      </trkpt>
      <trkpt lat="48.16319" lon="-3.32927">
        <ele>226.5</ele>
        <time>2024-11-20T12:18:19Z</time>
      </trkpt>
      <trkpt lat="48.16319" lon="-3.32926">
        <ele>226.5</ele>
        <time>2024-11-20T12:18:20Z</time>
      </trkpt>
      <trkpt lat="48.16319" lon="-3.32926">
        <ele>226.5</ele>
        <time>2024-11-20T12:18:21Z</time>
      </trkpt>
      <trkpt lat="48.16319" lon="-3.32926">
        <ele>226.5</ele>
        <time>2024-11-20T12:18:22Z</time>
      </trkpt>
      <trkpt lat="48.16319" lon="-3.32926">
        <ele>226.5</ele>
        <time>2024-11-20T12:18:23Z</time>
      </trkpt>
      <trkpt lat="48.16319" lon="-3.32926">
        <ele>226.5</ele>
        <time>2024-11-20T12:18:24Z</time>
      </trkpt>
      <trkpt lat="48.16319" lon="-3.32926">
        <ele>226.5</ele>
        <time>2024-11-20T12:18:25Z</time>
      </trkpt>
      <trkpt lat="48.16319" lon="-3.32925">
        <ele>226.5</ele>
        <time>2024-11-20T12:18:26Z</time>
      </trkpt>
      <trkpt lat="48.16319" lon="-3.32925">
        <ele>226.5</ele>
        <time>2024-11-20T12:18:27Z</time>
      </trkpt>
      <trkpt lat="48.16319" lon="-3.32925">
        <ele>226.5</ele>
        <time>2024-11-20T12:18:28Z</time>
      </trkpt>
      <trkpt lat="48.16319" lon="-3.32925">
        <ele>226.5</ele>
        <time>2024-11-20T12:18:29Z</time>
      </trkpt>
      <trkpt lat="48.16319" lon="-3.32924">
        <ele>226.5</ele>
        <time>2024-11-20T12:18:30Z</time>
      </trkpt>
      <trkpt lat="48.16319" lon="-3.32924">
        <ele>226.5</ele>
        <time>2024-11-20T12:18:31Z</time>
      </trkpt>
      <trkpt lat="48.16319" lon="-3.32924">
        <ele>226.5</ele>
        <time>2024-11-20T12:18:32Z</time>
      </trkpt>
      <trkpt lat="48.16319" lon="-3.32924">
        <ele>226.5</ele>
        <time>2024-11-20T12:18:33Z</time>
      </trkpt>
      <trkpt lat="48.16319" lon="-3.32924">
        <ele>226.5</ele>
        <time>2024-11-20T12:18:34Z</time>
      </trkpt>
      <trkpt lat="48.16319" lon="-3.32924">
        <ele>226.5</ele>
        <time>2024-11-20T12:18:35Z</time>
      </trkpt>
      <trkpt lat="48.16319" lon="-3.32924">
        <ele>226.5</ele>
        <time>2024-11-20T12:18:36Z</time>
      </trkpt>
      <trkpt lat="48.16319" lon="-3.32924">
        <ele>226.5</ele>
        <time>2024-11-20T12:18:37Z</time>
      </trkpt>
      <trkpt lat="48.16319" lon="-3.32924">
        <ele>226.5</ele>
        <time>2024-11-20T12:18:38Z</time>
      </trkpt>
      <trkpt lat="48.16319" lon="-3.32924">
        <ele>226.5</ele>
        <time>2024-11-20T12:18:39Z</time>
      </trkpt>
      <trkpt lat="48.16319" lon="-3.32924">
        <ele>226.5</ele>
        <time>2024-11-20T12:18:40Z</time>
      </trkpt>
      <trkpt lat="48.16319" lon="-3.32924">
        <ele>226.5</ele>
        <time>2024-11-20T12:18:41Z</time>
      </trkpt>
      <trkpt lat="48.16319" lon="-3.32924">
        <ele>226.5</ele>
        <time>2024-11-20T12:18:42Z</time>
      </trkpt>
      <trkpt lat="48.16319" lon="-3.32924">
        <ele>226.5</ele>
        <time>2024-11-20T12:18:43Z</time>
      </trkpt>
      <trkpt lat="48.16319" lon="-3.32924">
        <ele>226.5</ele>
        <time>2024-11-20T12:18:45Z</time>
      </trkpt>
      <trkpt lat="48.16319" lon="-3.32924">
        <ele>226.5</ele>
        <time>2024-11-20T12:18:46Z</time>
      </trkpt>
      <trkpt lat="48.16319" lon="-3.32924">
        <ele>226.5</ele>
        <time>2024-11-20T12:18:47Z</time>
      </trkpt>
      <trkpt lat="48.16319" lon="-3.32924">
        <ele>226.5</ele>
        <time>2024-11-20T12:18:48Z</time>
      </trkpt>
      <trkpt lat="48.16319" lon="-3.32924">
        <ele>226.5</ele>
        <time>2024-11-20T12:18:49Z</time>
      </trkpt>
      <trkpt lat="48.16319" lon="-3.32923">
        <ele>226.5</ele>
        <time>2024-11-20T12:18:50Z</time>
      </trkpt>
      <trkpt lat="48.16319" lon="-3.32923">
        <ele>226.5</ele>
        <time>2024-11-20T12:18:51Z</time>
      </trkpt>
      <trkpt lat="48.16319" lon="-3.32923">
        <ele>226.5</ele>
        <time>2024-11-20T12:18:52Z</time>
      </trkpt>
      <trkpt lat="48.16319" lon="-3.32923">
        <ele>226.5</ele>
        <time>2024-11-20T12:18:53Z</time>
      </trkpt>
      <trkpt lat="48.16319" lon="-3.32922">
        <ele>226.5</ele>
        <time>2024-11-20T12:18:54Z</time>
      </trkpt>
      <trkpt lat="48.16319" lon="-3.32922">
        <ele>226.5</ele>
        <time>2024-11-20T12:18:55Z</time>
      </trkpt>
      <trkpt lat="48.16319" lon="-3.32922">
        <ele>226.5</ele>
        <time>2024-11-20T12:18:56Z</time>
      </trkpt>
      <trkpt lat="48.16319" lon="-3.32921">
        <ele>226.5</ele>
        <time>2024-11-20T12:18:57Z</time>
      </trkpt>
      <trkpt lat="48.16319" lon="-3.32921">
        <ele>226.5</ele>
        <time>2024-11-20T12:18:58Z</time>
      </trkpt>
      <trkpt lat="48.16319" lon="-3.32921">
        <ele>226.5</ele>
        <time>2024-11-20T12:18:59Z</time>
      </trkpt>
      <trkpt lat="48.16319" lon="-3.32922">
        <ele>226.5</ele>
        <time>2024-11-20T12:19:00Z</time>
      </trkpt>
      <trkpt lat="48.16319" lon="-3.32922">
        <ele>226.5</ele>
        <time>2024-11-20T12:19:01Z</time>
      </trkpt>
      <trkpt lat="48.16319" lon="-3.32922">
        <ele>226.5</ele>
        <time>2024-11-20T12:19:02Z</time>
      </trkpt>
      <trkpt lat="48.16319" lon="-3.32922">
        <ele>226.5</ele>
        <time>2024-11-20T12:19:03Z</time>
      </trkpt>
      <trkpt lat="48.16319" lon="-3.32922">
        <ele>226.5</ele>
        <time>2024-11-20T12:19:04Z</time>
      </trkpt>
      <trkpt lat="48.16319" lon="-3.32922">
        <ele>226.5</ele>
        <time>2024-11-20T12:19:05Z</time>
      </trkpt>
      <trkpt lat="48.1632" lon="-3.32922">
        <ele>226.5</ele>
        <time>2024-11-20T12:19:06Z</time>
      </trkpt>
      <trkpt lat="48.1632" lon="-3.32922">
        <ele>226.5</ele>
        <time>2024-11-20T12:19:07Z</time>
      </trkpt>
      <trkpt lat="48.1632" lon="-3.32922">
        <ele>226.5</ele>
        <time>2024-11-20T12:19:08Z</time>
      </trkpt>
      <trkpt lat="48.1632" lon="-3.32923">
        <ele>226.5</ele>
        <time>2024-11-20T12:19:09Z</time>
      </trkpt>
      <trkpt lat="48.1632" lon="-3.32923">
        <ele>226.5</ele>
        <time>2024-11-20T12:19:10Z</time>
      </trkpt>
      <trkpt lat="48.1632" lon="-3.32923">
        <ele>226.5</ele>
        <time>2024-11-20T12:19:11Z</time>
      </trkpt>
      <trkpt lat="48.1632" lon="-3.32922">
        <ele>226.5</ele>
        <time>2024-11-20T12:19:12Z</time>
      </trkpt>
      <trkpt lat="48.1632" lon="-3.32922">
        <ele>226.5</ele>
        <time>2024-11-20T12:19:13Z</time>
      </trkpt>
      <trkpt lat="48.1632" lon="-3.32922">
        <ele>226.5</ele>
        <time>2024-11-20T12:19:14Z</time>
      </trkpt>
      <trkpt lat="48.16321" lon="-3.32922">
        <ele>226.5</ele>
        <time>2024-11-20T12:19:15Z</time>
      </trkpt>
      <trkpt lat="48.16321" lon="-3.32921">
        <ele>226.5</ele>
        <time>2024-11-20T12:19:16Z</time>
      </trkpt>
      <trkpt lat="48.16321" lon="-3.32921">
        <ele>226.6</ele>
        <time>2024-11-20T12:19:17Z</time>
      </trkpt>
      <trkpt lat="48.16321" lon="-3.32921">
        <ele>226.6</ele>
        <time>2024-11-20T12:19:18Z</time>
      </trkpt>
      <trkpt lat="48.16321" lon="-3.32921">
        <ele>226.6</ele>
        <time>2024-11-20T12:19:19Z</time>
      </trkpt>
      <trkpt lat="48.16321" lon="-3.32921">
        <ele>226.6</ele>
        <time>2024-11-20T12:19:20Z</time>
      </trkpt>
      <trkpt lat="48.16321" lon="-3.32921">
        <ele>226.6</ele>
        <time>2024-11-20T12:19:21Z</time>
      </trkpt>
      <trkpt lat="48.16321" lon="-3.32921">
        <ele>226.6</ele>
        <time>2024-11-20T12:19:22Z</time>
      </trkpt>
      <trkpt lat="48.16321" lon="-3.32921">
        <ele>226.6</ele>
        <time>2024-11-20T12:19:23Z</time>
      </trkpt>
      <trkpt lat="48.16321" lon="-3.32921">
        <ele>226.6</ele>
        <time>2024-11-20T12:19:24Z</time>
      </trkpt>
      <trkpt lat="48.16321" lon="-3.32921">
        <ele>226.6</ele>
        <time>2024-11-20T12:19:25Z</time>
      </trkpt>
      <trkpt lat="48.16321" lon="-3.32921">
        <ele>226.6</ele>
        <time>2024-11-20T12:19:26Z</time>
      </trkpt>
      <trkpt lat="48.16321" lon="-3.32921">
        <ele>226.6</ele>
        <time>2024-11-20T12:19:27Z</time>
      </trkpt>
      <trkpt lat="48.16321" lon="-3.32921">
        <ele>226.6</ele>
        <time>2024-11-20T12:19:28Z</time>
      </trkpt>
      <trkpt lat="48.16321" lon="-3.32921">
        <ele>226.6</ele>
        <time>2024-11-20T12:19:29Z</time>
      </trkpt>
      <trkpt lat="48.16321" lon="-3.32921">
        <ele>226.6</ele>
        <time>2024-11-20T12:19:30Z</time>
      </trkpt>
      <trkpt lat="48.16321" lon="-3.32921">
        <ele>226.6</ele>
        <time>2024-11-20T12:19:31Z</time>
      </trkpt>
      <trkpt lat="48.16321" lon="-3.32921">
        <ele>226.6</ele>
        <time>2024-11-20T12:19:32Z</time>
      </trkpt>
      <trkpt lat="48.16321" lon="-3.32921">
        <ele>226.6</ele>
        <time>2024-11-20T12:19:33Z</time>
      </trkpt>
      <trkpt lat="48.16321" lon="-3.32921">
        <ele>226.6</ele>
        <time>2024-11-20T12:19:34Z</time>
      </trkpt>
      <trkpt lat="48.16321" lon="-3.32921">
        <ele>226.6</ele>
        <time>2024-11-20T12:19:35Z</time>
      </trkpt>
      <trkpt lat="48.16321" lon="-3.3292">
        <ele>226.5</ele>
        <time>2024-11-20T12:19:36Z</time>
      </trkpt>
      <trkpt lat="48.1632" lon="-3.3292">
        <ele>226.5</ele>
        <time>2024-11-20T12:19:37Z</time>
      </trkpt>
      <trkpt lat="48.1632" lon="-3.32919">
        <ele>226.5</ele>
        <time>2024-11-20T12:19:38Z</time>
      </trkpt>
      <trkpt lat="48.1632" lon="-3.32919">
        <ele>226.5</ele>
        <time>2024-11-20T12:19:39Z</time>
      </trkpt>
      <trkpt lat="48.1632" lon="-3.32919">
        <ele>226.5</ele>
        <time>2024-11-20T12:19:40Z</time>
      </trkpt>
      <trkpt lat="48.16321" lon="-3.32918">
        <ele>226.5</ele>
        <time>2024-11-20T12:19:41Z</time>
      </trkpt>
      <trkpt lat="48.16321" lon="-3.32918">
        <ele>226.5</ele>
        <time>2024-11-20T12:19:42Z</time>
      </trkpt>
      <trkpt lat="48.16321" lon="-3.32918">
        <ele>226.5</ele>
        <time>2024-11-20T12:19:43Z</time>
      </trkpt>
      <trkpt lat="48.16321" lon="-3.32917">
        <ele>226.6</ele>
        <time>2024-11-20T12:19:44Z</time>
      </trkpt>
      <trkpt lat="48.16321" lon="-3.32917">
        <ele>226.5</ele>
        <time>2024-11-20T12:19:45Z</time>
      </trkpt>
      <trkpt lat="48.16321" lon="-3.32917">
        <ele>226.5</ele>
        <time>2024-11-20T12:19:46Z</time>
      </trkpt>
      <trkpt lat="48.16321" lon="-3.32917">
        <ele>226.5</ele>
        <time>2024-11-20T12:19:47Z</time>
      </trkpt>
      <trkpt lat="48.16321" lon="-3.32917">
        <ele>226.5</ele>
        <time>2024-11-20T12:19:48Z</time>
      </trkpt>
      <trkpt lat="48.16321" lon="-3.32917">
        <ele>226.5</ele>
        <time>2024-11-20T12:19:49Z</time>
      </trkpt>
      <trkpt lat="48.16321" lon="-3.32917">
        <ele>226.5</ele>
        <time>2024-11-20T12:19:50Z</time>
      </trkpt>
      <trkpt lat="48.16321" lon="-3.32917">
        <ele>226.5</ele>
        <time>2024-11-20T12:19:51Z</time>
      </trkpt>
      <trkpt lat="48.16321" lon="-3.32917">
        <ele>226.5</ele>
        <time>2024-11-20T12:19:52Z</time>
      </trkpt>
      <trkpt lat="48.16321" lon="-3.32917">
        <ele>226.5</ele>
        <time>2024-11-20T12:19:53Z</time>
      </trkpt>
      <trkpt lat="48.16321" lon="-3.32917">
        <ele>226.5</ele>
        <time>2024-11-20T12:19:54Z</time>
      </trkpt>
      <trkpt lat="48.16321" lon="-3.32917">
        <ele>226.5</ele>
        <time>2024-11-20T12:19:55Z</time>
      </trkpt>
      <trkpt lat="48.16321" lon="-3.32917">
        <ele>226.5</ele>
        <time>2024-11-20T12:19:56Z</time>
      </trkpt>
      <trkpt lat="48.16321" lon="-3.32917">
        <ele>226.5</ele>
        <time>2024-11-20T12:19:57Z</time>
      </trkpt>
      <trkpt lat="48.16321" lon="-3.32917">
        <ele>226.5</ele>
        <time>2024-11-20T12:19:58Z</time>
      </trkpt>
      <trkpt lat="48.16321" lon="-3.32917">
        <ele>226.5</ele>
        <time>2024-11-20T12:19:59Z</time>
      </trkpt>
      <trkpt lat="48.16321" lon="-3.32917">
        <ele>226.5</ele>
        <time>2024-11-20T12:20:00Z</time>
      </trkpt>
      <trkpt lat="48.16321" lon="-3.32917">
        <ele>226.5</ele>
        <time>2024-11-20T12:20:01Z</time>
      </trkpt>
      <trkpt lat="48.16321" lon="-3.32917">
        <ele>226.5</ele>
        <time>2024-11-20T12:20:02Z</time>
      </trkpt>
      <trkpt lat="48.16321" lon="-3.32917">
        <ele>226.5</ele>
        <time>2024-11-20T12:20:03Z</time>
      </trkpt>
      <trkpt lat="48.16321" lon="-3.32917">
        <ele>226.5</ele>
        <time>2024-11-20T12:20:04Z</time>
      </trkpt>
      <trkpt lat="48.16321" lon="-3.32917">
        <ele>226.5</ele>
        <time>2024-11-20T12:20:05Z</time>
      </trkpt>
      <trkpt lat="48.16321" lon="-3.32917">
        <ele>226.5</ele>
        <time>2024-11-20T12:20:06Z</time>
      </trkpt>
      <trkpt lat="48.16321" lon="-3.32917">
        <ele>226.5</ele>
        <time>2024-11-20T12:20:07Z</time>
      </trkpt>
      <trkpt lat="48.16321" lon="-3.32917">
        <ele>226.5</ele>
        <time>2024-11-20T12:20:08Z</time>
      </trkpt>
      <trkpt lat="48.16321" lon="-3.32917">
        <ele>226.5</ele>
        <time>2024-11-20T12:20:09Z</time>
      </trkpt>
      <trkpt lat="48.16321" lon="-3.32917">
        <ele>226.5</ele>
        <time>2024-11-20T12:20:10Z</time>
      </trkpt>
      <trkpt lat="48.16321" lon="-3.32917">
        <ele>226.5</ele>
        <time>2024-11-20T12:20:11Z</time>
      </trkpt>
      <trkpt lat="48.16321" lon="-3.32917">
        <ele>226.5</ele>
        <time>2024-11-20T12:20:12Z</time>
      </trkpt>
      <trkpt lat="48.16321" lon="-3.32917">
        <ele>226.5</ele>
        <time>2024-11-20T12:20:13Z</time>
      </trkpt>
      <trkpt lat="48.16321" lon="-3.32917">
        <ele>226.5</ele>
        <time>2024-11-20T12:20:14Z</time>
      </trkpt>
      <trkpt lat="48.16321" lon="-3.32917">
        <ele>226.5</ele>
        <time>2024-11-20T12:20:15Z</time>
      </trkpt>
      <trkpt lat="48.16321" lon="-3.32917">
        <ele>226.5</ele>
        <time>2024-11-20T12:20:16Z</time>
      </trkpt>
      <trkpt lat="48.16321" lon="-3.32917">
        <ele>226.5</ele>
        <time>2024-11-20T12:20:17Z</time>
      </trkpt>
      <trkpt lat="48.1632" lon="-3.32917">
        <ele>226.5</ele>
        <time>2024-11-20T12:20:19Z</time>
      </trkpt>
      <trkpt lat="48.1632" lon="-3.32917">
        <ele>226.5</ele>
        <time>2024-11-20T12:20:20Z</time>
      </trkpt>
      <trkpt lat="48.1632" lon="-3.32917">
        <ele>226.5</ele>
        <time>2024-11-20T12:20:21Z</time>
      </trkpt>
      <trkpt lat="48.1632" lon="-3.32917">
        <ele>226.5</ele>
        <time>2024-11-20T12:20:22Z</time>
      </trkpt>
      <trkpt lat="48.1632" lon="-3.32918">
        <ele>226.5</ele>
        <time>2024-11-20T12:20:23Z</time>
      </trkpt>
      <trkpt lat="48.1632" lon="-3.32919">
        <ele>226.5</ele>
        <time>2024-11-20T12:20:24Z</time>
      </trkpt>
      <trkpt lat="48.1632" lon="-3.32919">
        <ele>226.5</ele>
        <time>2024-11-20T12:20:25Z</time>
      </trkpt>
      <trkpt lat="48.1632" lon="-3.32919">
        <ele>226.5</ele>
        <time>2024-11-20T12:20:26Z</time>
      </trkpt>
      <trkpt lat="48.16319" lon="-3.32919">
        <ele>226.5</ele>
        <time>2024-11-20T12:20:27Z</time>
      </trkpt>
      <trkpt lat="48.16319" lon="-3.32918">
        <ele>226.5</ele>
        <time>2024-11-20T12:20:28Z</time>
      </trkpt>
      <trkpt lat="48.16319" lon="-3.32918">
        <ele>226.5</ele>
        <time>2024-11-20T12:20:29Z</time>
      </trkpt>
      <trkpt lat="48.16319" lon="-3.32918">
        <ele>226.5</ele>
        <time>2024-11-20T12:20:30Z</time>
      </trkpt>
      <trkpt lat="48.16319" lon="-3.32918">
        <ele>226.5</ele>
        <time>2024-11-20T12:20:31Z</time>
      </trkpt>
      <trkpt lat="48.16319" lon="-3.32918">
        <ele>226.5</ele>
        <time>2024-11-20T12:20:32Z</time>
      </trkpt>
      <trkpt lat="48.16319" lon="-3.32918">
        <ele>226.5</ele>
        <time>2024-11-20T12:20:33Z</time>
      </trkpt>
      <trkpt lat="48.16319" lon="-3.32918">
        <ele>226.5</ele>
        <time>2024-11-20T12:20:34Z</time>
      </trkpt>
      <trkpt lat="48.16319" lon="-3.32919">
        <ele>226.5</ele>
        <time>2024-11-20T12:20:35Z</time>
      </trkpt>
      <trkpt lat="48.1632" lon="-3.32918">
        <ele>226.5</ele>
        <time>2024-11-20T12:20:36Z</time>
      </trkpt>
      <trkpt lat="48.1632" lon="-3.32919">
        <ele>226.5</ele>
        <time>2024-11-20T12:20:37Z</time>
      </trkpt>
      <trkpt lat="48.1632" lon="-3.3292">
        <ele>226.5</ele>
        <time>2024-11-20T12:20:38Z</time>
      </trkpt>
      <trkpt lat="48.1632" lon="-3.32921">
        <ele>226.5</ele>
        <time>2024-11-20T12:20:39Z</time>
      </trkpt>
      <trkpt lat="48.1632" lon="-3.32921">
        <ele>226.5</ele>
        <time>2024-11-20T12:20:40Z</time>
      </trkpt>
      <trkpt lat="48.1632" lon="-3.32922">
        <ele>226.5</ele>
        <time>2024-11-20T12:20:41Z</time>
      </trkpt>
      <trkpt lat="48.1632" lon="-3.32922">
        <ele>226.5</ele>
        <time>2024-11-20T12:20:42Z</time>
      </trkpt>
      <trkpt lat="48.1632" lon="-3.32922">
        <ele>226.5</ele>
        <time>2024-11-20T12:20:43Z</time>
      </trkpt>
      <trkpt lat="48.1632" lon="-3.32922">
        <ele>226.5</ele>
        <time>2024-11-20T12:20:44Z</time>
      </trkpt>
      <trkpt lat="48.16321" lon="-3.32922">
        <ele>226.5</ele>
        <time>2024-11-20T12:20:45Z</time>
      </trkpt>
      <trkpt lat="48.16321" lon="-3.32922">
        <ele>226.5</ele>
        <time>2024-11-20T12:20:46Z</time>
      </trkpt>
      <trkpt lat="48.16321" lon="-3.32922">
        <ele>226.5</ele>
        <time>2024-11-20T12:20:47Z</time>
      </trkpt>
      <trkpt lat="48.16321" lon="-3.32922">
        <ele>226.5</ele>
        <time>2024-11-20T12:20:48Z</time>
      </trkpt>
      <trkpt lat="48.16321" lon="-3.32921">
        <ele>226.5</ele>
        <time>2024-11-20T12:20:49Z</time>
      </trkpt>
      <trkpt lat="48.16321" lon="-3.32921">
        <ele>226.5</ele>
        <time>2024-11-20T12:20:50Z</time>
      </trkpt>
      <trkpt lat="48.16321" lon="-3.32921">
        <ele>226.5</ele>
        <time>2024-11-20T12:20:51Z</time>
      </trkpt>
      <trkpt lat="48.16321" lon="-3.32921">
        <ele>226.5</ele>
        <time>2024-11-20T12:20:52Z</time>
      </trkpt>
      <trkpt lat="48.16321" lon="-3.32921">
        <ele>226.5</ele>
        <time>2024-11-20T12:20:53Z</time>
      </trkpt>
      <trkpt lat="48.16321" lon="-3.32921">
        <ele>226.5</ele>
        <time>2024-11-20T12:20:54Z</time>
      </trkpt>
      <trkpt lat="48.16321" lon="-3.32921">
        <ele>226.5</ele>
        <time>2024-11-20T12:20:55Z</time>
      </trkpt>
      <trkpt lat="48.16321" lon="-3.32921">
        <ele>226.5</ele>
        <time>2024-11-20T12:20:56Z</time>
      </trkpt>
      <trkpt lat="48.16321" lon="-3.32921">
        <ele>226.5</ele>
        <time>2024-11-20T12:20:57Z</time>
      </trkpt>
      <trkpt lat="48.16321" lon="-3.32921">
        <ele>226.5</ele>
        <time>2024-11-20T12:20:58Z</time>
      </trkpt>
      <trkpt lat="48.16321" lon="-3.32922">
        <ele>226.5</ele>
        <time>2024-11-20T12:20:59Z</time>
      </trkpt>
      <trkpt lat="48.16321" lon="-3.32922">
        <ele>226.6</ele>
        <time>2024-11-20T12:21:00Z</time>
      </trkpt>
      <trkpt lat="48.16321" lon="-3.32922">
        <ele>226.6</ele>
        <time>2024-11-20T12:21:01Z</time>
      </trkpt>
      <trkpt lat="48.16321" lon="-3.32922">
        <ele>226.6</ele>
        <time>2024-11-20T12:21:02Z</time>
      </trkpt>
      <trkpt lat="48.16321" lon="-3.32922">
        <ele>226.6</ele>
        <time>2024-11-20T12:21:03Z</time>
      </trkpt>
      <trkpt lat="48.16321" lon="-3.32922">
        <ele>226.6</ele>
        <time>2024-11-20T12:21:04Z</time>
      </trkpt>
      <trkpt lat="48.16321" lon="-3.32922">
        <ele>226.6</ele>
        <time>2024-11-20T12:21:05Z</time>
      </trkpt>
      <trkpt lat="48.16321" lon="-3.32922">
        <ele>226.5</ele>
        <time>2024-11-20T12:21:06Z</time>
      </trkpt>
      <trkpt lat="48.16321" lon="-3.32921">
        <ele>226.5</ele>
        <time>2024-11-20T12:21:07Z</time>
      </trkpt>
      <trkpt lat="48.16321" lon="-3.32921">
        <ele>226.5</ele>
        <time>2024-11-20T12:21:08Z</time>
      </trkpt>
      <trkpt lat="48.16321" lon="-3.32921">
        <ele>226.5</ele>
        <time>2024-11-20T12:21:09Z</time>
      </trkpt>
      <trkpt lat="48.16321" lon="-3.32921">
        <ele>226.5</ele>
        <time>2024-11-20T12:21:10Z</time>
      </trkpt>
      <trkpt lat="48.16321" lon="-3.32921">
        <ele>226.5</ele>
        <time>2024-11-20T12:21:11Z</time>
      </trkpt>
      <trkpt lat="48.16321" lon="-3.32921">
        <ele>226.5</ele>
        <time>2024-11-20T12:21:12Z</time>
      </trkpt>
      <trkpt lat="48.16321" lon="-3.32921">
        <ele>226.5</ele>
        <time>2024-11-20T12:21:13Z</time>
      </trkpt>
      <trkpt lat="48.16321" lon="-3.32921">
        <ele>226.5</ele>
        <time>2024-11-20T12:21:14Z</time>
      </trkpt>
      <trkpt lat="48.16321" lon="-3.32921">
        <ele>226.5</ele>
        <time>2024-11-20T12:21:15Z</time>
      </trkpt>
      <trkpt lat="48.16321" lon="-3.32921">
        <ele>226.5</ele>
        <time>2024-11-20T12:21:16Z</time>
      </trkpt>
      <trkpt lat="48.16321" lon="-3.3292">
        <ele>226.5</ele>
        <time>2024-11-20T12:21:17Z</time>
      </trkpt>
      <trkpt lat="48.16321" lon="-3.3292">
        <ele>226.5</ele>
        <time>2024-11-20T12:21:18Z</time>
      </trkpt>
      <trkpt lat="48.16321" lon="-3.3292">
        <ele>226.5</ele>
        <time>2024-11-20T12:21:19Z</time>
      </trkpt>
      <trkpt lat="48.16321" lon="-3.3292">
        <ele>226.5</ele>
        <time>2024-11-20T12:21:20Z</time>
      </trkpt>
      <trkpt lat="48.16321" lon="-3.3292">
        <ele>226.5</ele>
        <time>2024-11-20T12:21:21Z</time>
      </trkpt>
      <trkpt lat="48.16321" lon="-3.3292">
        <ele>226.5</ele>
        <time>2024-11-20T12:21:22Z</time>
      </trkpt>
      <trkpt lat="48.16321" lon="-3.3292">
        <ele>226.5</ele>
        <time>2024-11-20T12:21:23Z</time>
      </trkpt>
      <trkpt lat="48.16321" lon="-3.3292">
        <ele>226.5</ele>
        <time>2024-11-20T12:21:24Z</time>
      </trkpt>
      <trkpt lat="48.16321" lon="-3.3292">
        <ele>226.5</ele>
        <time>2024-11-20T12:21:25Z</time>
      </trkpt>
      <trkpt lat="48.16321" lon="-3.3292">
        <ele>226.5</ele>
        <time>2024-11-20T12:21:26Z</time>
      </trkpt>
      <trkpt lat="48.16321" lon="-3.3292">
        <ele>226.5</ele>
        <time>2024-11-20T12:21:27Z</time>
      </trkpt>
      <trkpt lat="48.16321" lon="-3.3292">
        <ele>226.5</ele>
        <time>2024-11-20T12:21:28Z</time>
      </trkpt>
      <trkpt lat="48.16321" lon="-3.3292">
        <ele>226.5</ele>
        <time>2024-11-20T12:21:29Z</time>
      </trkpt>
      <trkpt lat="48.16321" lon="-3.3292">
        <ele>226.5</ele>
        <time>2024-11-20T12:21:30Z</time>
      </trkpt>
      <trkpt lat="48.16321" lon="-3.3292">
        <ele>226.5</ele>
        <time>2024-11-20T12:21:31Z</time>
      </trkpt>
      <trkpt lat="48.16321" lon="-3.3292">
        <ele>226.5</ele>
        <time>2024-11-20T12:21:32Z</time>
      </trkpt>
      <trkpt lat="48.16321" lon="-3.3292">
        <ele>226.5</ele>
        <time>2024-11-20T12:21:33Z</time>
      </trkpt>
      <trkpt lat="48.16321" lon="-3.3292">
        <ele>226.5</ele>
        <time>2024-11-20T12:21:34Z</time>
      </trkpt>
      <trkpt lat="48.16321" lon="-3.3292">
        <ele>226.5</ele>
        <time>2024-11-20T12:21:35Z</time>
      </trkpt>
      <trkpt lat="48.16321" lon="-3.3292">
        <ele>226.5</ele>
        <time>2024-11-20T12:21:36Z</time>
      </trkpt>
      <trkpt lat="48.16321" lon="-3.3292">
        <ele>226.5</ele>
        <time>2024-11-20T12:21:37Z</time>
      </trkpt>
      <trkpt lat="48.16321" lon="-3.3292">
        <ele>226.5</ele>
        <time>2024-11-20T12:21:38Z</time>
      </trkpt>
      <trkpt lat="48.16321" lon="-3.3292">
        <ele>226.5</ele>
        <time>2024-11-20T12:21:39Z</time>
      </trkpt>
      <trkpt lat="48.16321" lon="-3.3292">
        <ele>226.5</ele>
        <time>2024-11-20T12:21:40Z</time>
      </trkpt>
      <trkpt lat="48.16321" lon="-3.3292">
        <ele>226.5</ele>
        <time>2024-11-20T12:21:41Z</time>
      </trkpt>
      <trkpt lat="48.16321" lon="-3.3292">
        <ele>226.5</ele>
        <time>2024-11-20T12:21:42Z</time>
      </trkpt>
      <trkpt lat="48.16321" lon="-3.3292">
        <ele>226.5</ele>
        <time>2024-11-20T12:21:43Z</time>
      </trkpt>
      <trkpt lat="48.16321" lon="-3.3292">
        <ele>226.5</ele>
        <time>2024-11-20T12:21:44Z</time>
      </trkpt>
      <trkpt lat="48.16321" lon="-3.3292">
        <ele>226.5</ele>
        <time>2024-11-20T12:21:45Z</time>
      </trkpt>
      <trkpt lat="48.16321" lon="-3.3292">
        <ele>226.5</ele>
        <time>2024-11-20T12:21:46Z</time>
      </trkpt>
      <trkpt lat="48.16321" lon="-3.3292">
        <ele>226.5</ele>
        <time>2024-11-20T12:21:47Z</time>
      </trkpt>
      <trkpt lat="48.16321" lon="-3.3292">
        <ele>226.5</ele>
        <time>2024-11-20T12:21:48Z</time>
      </trkpt>
      <trkpt lat="48.16321" lon="-3.3292">
        <ele>226.5</ele>
        <time>2024-11-20T12:21:49Z</time>
      </trkpt>
      <trkpt lat="48.16321" lon="-3.3292">
        <ele>226.5</ele>
        <time>2024-11-20T12:21:50Z</time>
      </trkpt>
      <trkpt lat="48.16321" lon="-3.3292">
        <ele>226.5</ele>
        <time>2024-11-20T12:21:51Z</time>
      </trkpt>
      <trkpt lat="48.16321" lon="-3.3292">
        <ele>226.5</ele>
        <time>2024-11-20T12:21:52Z</time>
      </trkpt>
      <trkpt lat="48.16321" lon="-3.3292">
        <ele>226.5</ele>
        <time>2024-11-20T12:21:53Z</time>
      </trkpt>
      <trkpt lat="48.16321" lon="-3.3292">
        <ele>226.5</ele>
        <time>2024-11-20T12:21:54Z</time>
      </trkpt>
      <trkpt lat="48.16321" lon="-3.3292">
        <ele>226.5</ele>
        <time>2024-11-20T12:21:55Z</time>
      </trkpt>
      <trkpt lat="48.16321" lon="-3.3292">
        <ele>226.5</ele>
        <time>2024-11-20T12:21:56Z</time>
      </trkpt>
      <trkpt lat="48.16321" lon="-3.3292">
        <ele>226.5</ele>
        <time>2024-11-20T12:21:57Z</time>
      </trkpt>
      <trkpt lat="48.16321" lon="-3.3292">
        <ele>226.5</ele>
        <time>2024-11-20T12:21:58Z</time>
      </trkpt>
      <trkpt lat="48.16321" lon="-3.3292">
        <ele>226.5</ele>
        <time>2024-11-20T12:21:59Z</time>
      </trkpt>
      <trkpt lat="48.16321" lon="-3.3292">
        <ele>226.5</ele>
        <time>2024-11-20T12:22:00Z</time>
      </trkpt>
      <trkpt lat="48.16321" lon="-3.3292">
        <ele>226.5</ele>
        <time>2024-11-20T12:22:01Z</time>
      </trkpt>
      <trkpt lat="48.16321" lon="-3.3292">
        <ele>226.5</ele>
        <time>2024-11-20T12:22:02Z</time>
      </trkpt>
      <trkpt lat="48.16321" lon="-3.3292">
        <ele>226.5</ele>
        <time>2024-11-20T12:22:03Z</time>
      </trkpt>
      <trkpt lat="48.16321" lon="-3.3292">
        <ele>226.5</ele>
        <time>2024-11-20T12:22:04Z</time>
      </trkpt>
      <trkpt lat="48.16321" lon="-3.3292">
        <ele>226.5</ele>
        <time>2024-11-20T12:22:05Z</time>
      </trkpt>
      <trkpt lat="48.16321" lon="-3.3292">
        <ele>226.5</ele>
        <time>2024-11-20T12:22:06Z</time>
      </trkpt>
      <trkpt lat="48.16321" lon="-3.3292">
        <ele>226.5</ele>
        <time>2024-11-20T12:22:07Z</time>
      </trkpt>
      <trkpt lat="48.16321" lon="-3.3292">
        <ele>226.5</ele>
        <time>2024-11-20T12:22:08Z</time>
      </trkpt>
      <trkpt lat="48.16321" lon="-3.3292">
        <ele>226.5</ele>
        <time>2024-11-20T12:22:09Z</time>
      </trkpt>
      <trkpt lat="48.16321" lon="-3.3292">
        <ele>226.5</ele>
        <time>2024-11-20T12:22:10Z</time>
      </trkpt>
      <trkpt lat="48.16321" lon="-3.3292">
        <ele>226.5</ele>
        <time>2024-11-20T12:22:11Z</time>
      </trkpt>
      <trkpt lat="48.16321" lon="-3.3292">
        <ele>226.5</ele>
        <time>2024-11-20T12:22:12Z</time>
      </trkpt>
      <trkpt lat="48.16321" lon="-3.3292">
        <ele>226.5</ele>
        <time>2024-11-20T12:22:13Z</time>
      </trkpt>
      <trkpt lat="48.16321" lon="-3.3292">
        <ele>226.5</ele>
        <time>2024-11-20T12:22:14Z</time>
      </trkpt>
      <trkpt lat="48.16321" lon="-3.3292">
        <ele>226.5</ele>
        <time>2024-11-20T12:22:15Z</time>
      </trkpt>
      <trkpt lat="48.16321" lon="-3.3292">
        <ele>226.5</ele>
        <time>2024-11-20T12:22:16Z</time>
      </trkpt>
      <trkpt lat="48.16321" lon="-3.3292">
        <ele>226.5</ele>
        <time>2024-11-20T12:22:17Z</time>
      </trkpt>
      <trkpt lat="48.16321" lon="-3.3292">
        <ele>226.5</ele>
        <time>2024-11-20T12:22:18Z</time>
      </trkpt>
      <trkpt lat="48.16321" lon="-3.3292">
        <ele>226.5</ele>
        <time>2024-11-20T12:22:19Z</time>
      </trkpt>
      <trkpt lat="48.16321" lon="-3.3292">
        <ele>226.5</ele>
        <time>2024-11-20T12:22:20Z</time>
      </trkpt>
      <trkpt lat="48.16321" lon="-3.3292">
        <ele>226.5</ele>
        <time>2024-11-20T12:22:21Z</time>
      </trkpt>
      <trkpt lat="48.16321" lon="-3.3292">
        <ele>226.5</ele>
        <time>2024-11-20T12:22:22Z</time>
      </trkpt>
      <trkpt lat="48.16321" lon="-3.3292">
        <ele>226.5</ele>
        <time>2024-11-20T12:22:23Z</time>
      </trkpt>
      <trkpt lat="48.1632" lon="-3.3292">
        <ele>226.5</ele>
        <time>2024-11-20T12:22:24Z</time>
      </trkpt>
      <trkpt lat="48.1632" lon="-3.3292">
        <ele>226.5</ele>
        <time>2024-11-20T12:22:25Z</time>
      </trkpt>
      <trkpt lat="48.1632" lon="-3.3292">
        <ele>226.5</ele>
        <time>2024-11-20T12:22:26Z</time>
      </trkpt>
      <trkpt lat="48.1632" lon="-3.3292">
        <ele>226.5</ele>
        <time>2024-11-20T12:22:27Z</time>
      </trkpt>
      <trkpt lat="48.1632" lon="-3.3292">
        <ele>226.5</ele>
        <time>2024-11-20T12:22:28Z</time>
      </trkpt>
      <trkpt lat="48.1632" lon="-3.3292">
        <ele>226.5</ele>
        <time>2024-11-20T12:22:29Z</time>
      </trkpt>
      <trkpt lat="48.1632" lon="-3.3292">
        <ele>226.5</ele>
        <time>2024-11-20T12:22:30Z</time>
      </trkpt>
      <trkpt lat="48.1632" lon="-3.3292">
        <ele>226.5</ele>
        <time>2024-11-20T12:22:31Z</time>
      </trkpt>
      <trkpt lat="48.1632" lon="-3.3292">
        <ele>226.5</ele>
        <time>2024-11-20T12:22:32Z</time>
      </trkpt>
      <trkpt lat="48.1632" lon="-3.3292">
        <ele>226.5</ele>
        <time>2024-11-20T12:22:33Z</time>
      </trkpt>
      <trkpt lat="48.1632" lon="-3.3292">
        <ele>226.5</ele>
        <time>2024-11-20T12:22:34Z</time>
      </trkpt>
      <trkpt lat="48.1632" lon="-3.3292">
        <ele>226.5</ele>
        <time>2024-11-20T12:22:35Z</time>
      </trkpt>
      <trkpt lat="48.1632" lon="-3.3292">
        <ele>226.5</ele>
        <time>2024-11-20T12:22:36Z</time>
      </trkpt>
      <trkpt lat="48.1632" lon="-3.3292">
        <ele>226.5</ele>
        <time>2024-11-20T12:22:37Z</time>
      </trkpt>
      <trkpt lat="48.1632" lon="-3.3292">
        <ele>226.5</ele>
        <time>2024-11-20T12:22:38Z</time>
      </trkpt>
      <trkpt lat="48.1632" lon="-3.3292">
        <ele>226.5</ele>
        <time>2024-11-20T12:22:39Z</time>
      </trkpt>
      <trkpt lat="48.1632" lon="-3.3292">
        <ele>226.5</ele>
        <time>2024-11-20T12:22:40Z</time>
      </trkpt>
      <trkpt lat="48.1632" lon="-3.3292">
        <ele>226.5</ele>
        <time>2024-11-20T12:22:41Z</time>
      </trkpt>
      <trkpt lat="48.1632" lon="-3.3292">
        <ele>226.5</ele>
        <time>2024-11-20T12:22:42Z</time>
      </trkpt>
      <trkpt lat="48.1632" lon="-3.3292">
        <ele>226.5</ele>
        <time>2024-11-20T12:22:43Z</time>
      </trkpt>
      <trkpt lat="48.1632" lon="-3.3292">
        <ele>226.5</ele>
        <time>2024-11-20T12:22:44Z</time>
      </trkpt>
      <trkpt lat="48.1632" lon="-3.32921">
        <ele>226.5</ele>
        <time>2024-11-20T12:22:45Z</time>
      </trkpt>
      <trkpt lat="48.16319" lon="-3.32921">
        <ele>226.5</ele>
        <time>2024-11-20T12:22:46Z</time>
      </trkpt>
      <trkpt lat="48.16319" lon="-3.32921">
        <ele>226.5</ele>
        <time>2024-11-20T12:22:47Z</time>
      </trkpt>
      <trkpt lat="48.16319" lon="-3.32922">
        <ele>226.5</ele>
        <time>2024-11-20T12:22:48Z</time>
      </trkpt>
      <trkpt lat="48.16318" lon="-3.32922">
        <ele>226.5</ele>
        <time>2024-11-20T12:22:49Z</time>
      </trkpt>
      <trkpt lat="48.16318" lon="-3.32922">
        <ele>226.5</ele>
        <time>2024-11-20T12:22:50Z</time>
      </trkpt>
      <trkpt lat="48.16318" lon="-3.32922">
        <ele>226.4</ele>
        <time>2024-11-20T12:22:51Z</time>
      </trkpt>
      <trkpt lat="48.16318" lon="-3.32922">
        <ele>226.4</ele>
        <time>2024-11-20T12:22:52Z</time>
      </trkpt>
      <trkpt lat="48.16317" lon="-3.32922">
        <ele>226.4</ele>
        <time>2024-11-20T12:22:53Z</time>
      </trkpt>
      <trkpt lat="48.16317" lon="-3.32922">
        <ele>226.4</ele>
        <time>2024-11-20T12:22:54Z</time>
      </trkpt>
      <trkpt lat="48.16317" lon="-3.32922">
        <ele>226.4</ele>
        <time>2024-11-20T12:22:55Z</time>
      </trkpt>
      <trkpt lat="48.16317" lon="-3.32922">
        <ele>226.4</ele>
        <time>2024-11-20T12:22:56Z</time>
      </trkpt>
      <trkpt lat="48.16317" lon="-3.32922">
        <ele>226.4</ele>
        <time>2024-11-20T12:22:57Z</time>
      </trkpt>
      <trkpt lat="48.16317" lon="-3.32922">
        <ele>226.4</ele>
        <time>2024-11-20T12:22:58Z</time>
      </trkpt>
      <trkpt lat="48.16317" lon="-3.32922">
        <ele>226.4</ele>
        <time>2024-11-20T12:22:59Z</time>
      </trkpt>
      <trkpt lat="48.16316" lon="-3.32922">
        <ele>226.4</ele>
        <time>2024-11-20T12:23:00Z</time>
      </trkpt>
      <trkpt lat="48.16316" lon="-3.32922">
        <ele>226.4</ele>
        <time>2024-11-20T12:23:01Z</time>
      </trkpt>
      <trkpt lat="48.16316" lon="-3.32922">
        <ele>226.4</ele>
        <time>2024-11-20T12:23:02Z</time>
      </trkpt>
      <trkpt lat="48.16316" lon="-3.32922">
        <ele>226.4</ele>
        <time>2024-11-20T12:23:03Z</time>
      </trkpt>
      <trkpt lat="48.16316" lon="-3.32921">
        <ele>226.4</ele>
        <time>2024-11-20T12:23:04Z</time>
      </trkpt>
      <trkpt lat="48.16316" lon="-3.32921">
        <ele>226.4</ele>
        <time>2024-11-20T12:23:05Z</time>
      </trkpt>
      <trkpt lat="48.16316" lon="-3.32921">
        <ele>226.4</ele>
        <time>2024-11-20T12:23:06Z</time>
      </trkpt>
      <trkpt lat="48.16316" lon="-3.32921">
        <ele>226.4</ele>
        <time>2024-11-20T12:23:07Z</time>
      </trkpt>
      <trkpt lat="48.16316" lon="-3.32921">
        <ele>226.4</ele>
        <time>2024-11-20T12:23:08Z</time>
      </trkpt>
      <trkpt lat="48.16316" lon="-3.32921">
        <ele>226.4</ele>
        <time>2024-11-20T12:23:09Z</time>
      </trkpt>
      <trkpt lat="48.16316" lon="-3.32921">
        <ele>226.4</ele>
        <time>2024-11-20T12:23:10Z</time>
      </trkpt>
      <trkpt lat="48.16316" lon="-3.32921">
        <ele>226.4</ele>
        <time>2024-11-20T12:23:11Z</time>
      </trkpt>
      <trkpt lat="48.16316" lon="-3.32921">
        <ele>226.4</ele>
        <time>2024-11-20T12:23:12Z</time>
      </trkpt>
      <trkpt lat="48.16316" lon="-3.32922">
        <ele>226.4</ele>
        <time>2024-11-20T12:23:13Z</time>
      </trkpt>
      <trkpt lat="48.16317" lon="-3.32922">
        <ele>226.4</ele>
        <time>2024-11-20T12:23:14Z</time>
      </trkpt>
      <trkpt lat="48.16317" lon="-3.32922">
        <ele>226.4</ele>
        <time>2024-11-20T12:23:15Z</time>
      </trkpt>
      <trkpt lat="48.16317" lon="-3.32922">
        <ele>226.4</ele>
        <time>2024-11-20T12:23:16Z</time>
      </trkpt>
      <trkpt lat="48.16317" lon="-3.32923">
        <ele>226.4</ele>
        <time>2024-11-20T12:23:17Z</time>
      </trkpt>
      <trkpt lat="48.16317" lon="-3.32923">
        <ele>226.4</ele>
        <time>2024-11-20T12:23:18Z</time>
      </trkpt>
      <trkpt lat="48.16317" lon="-3.32923">
        <ele>226.4</ele>
        <time>2024-11-20T12:23:19Z</time>
      </trkpt>
      <trkpt lat="48.16317" lon="-3.32924">
        <ele>226.4</ele>
        <time>2024-11-20T12:23:20Z</time>
      </trkpt>
      <trkpt lat="48.16317" lon="-3.32924">
        <ele>226.4</ele>
        <time>2024-11-20T12:23:21Z</time>
      </trkpt>
      <trkpt lat="48.16317" lon="-3.32924">
        <ele>226.4</ele>
        <time>2024-11-20T12:23:22Z</time>
      </trkpt>
      <trkpt lat="48.16317" lon="-3.32924">
        <ele>226.4</ele>
        <time>2024-11-20T12:23:23Z</time>
      </trkpt>
      <trkpt lat="48.16317" lon="-3.32924">
        <ele>226.4</ele>
        <time>2024-11-20T12:23:24Z</time>
      </trkpt>
      <trkpt lat="48.16317" lon="-3.32924">
        <ele>226.4</ele>
        <time>2024-11-20T12:23:25Z</time>
      </trkpt>
      <trkpt lat="48.16317" lon="-3.32924">
        <ele>226.4</ele>
        <time>2024-11-20T12:23:26Z</time>
      </trkpt>
      <trkpt lat="48.16317" lon="-3.32924">
        <ele>226.4</ele>
        <time>2024-11-20T12:23:27Z</time>
      </trkpt>
      <trkpt lat="48.16317" lon="-3.32925">
        <ele>226.4</ele>
        <time>2024-11-20T12:23:28Z</time>
      </trkpt>
      <trkpt lat="48.16317" lon="-3.32925">
        <ele>226.4</ele>
        <time>2024-11-20T12:23:29Z</time>
      </trkpt>
      <trkpt lat="48.16317" lon="-3.32925">
        <ele>226.4</ele>
        <time>2024-11-20T12:23:30Z</time>
      </trkpt>
      <trkpt lat="48.16317" lon="-3.32925">
        <ele>226.4</ele>
        <time>2024-11-20T12:23:31Z</time>
      </trkpt>
      <trkpt lat="48.16317" lon="-3.32924">
        <ele>226.4</ele>
        <time>2024-11-20T12:23:32Z</time>
      </trkpt>
      <trkpt lat="48.16317" lon="-3.32924">
        <ele>226.4</ele>
        <time>2024-11-20T12:23:33Z</time>
      </trkpt>
      <trkpt lat="48.16317" lon="-3.32924">
        <ele>226.4</ele>
        <time>2024-11-20T12:23:34Z</time>
      </trkpt>
      <trkpt lat="48.16317" lon="-3.32924">
        <ele>226.4</ele>
        <time>2024-11-20T12:23:35Z</time>
      </trkpt>
      <trkpt lat="48.16317" lon="-3.32924">
        <ele>226.4</ele>
        <time>2024-11-20T12:23:36Z</time>
      </trkpt>
      <trkpt lat="48.16317" lon="-3.32924">
        <ele>226.4</ele>
        <time>2024-11-20T12:23:37Z</time>
      </trkpt>
      <trkpt lat="48.16317" lon="-3.32924">
        <ele>226.4</ele>
        <time>2024-11-20T12:23:38Z</time>
      </trkpt>
      <trkpt lat="48.16317" lon="-3.32924">
        <ele>226.4</ele>
        <time>2024-11-20T12:23:39Z</time>
      </trkpt>
      <trkpt lat="48.16317" lon="-3.32924">
        <ele>226.4</ele>
        <time>2024-11-20T12:23:40Z</time>
      </trkpt>
      <trkpt lat="48.16317" lon="-3.32924">
        <ele>226.4</ele>
        <time>2024-11-20T12:23:41Z</time>
      </trkpt>
      <trkpt lat="48.16317" lon="-3.32924">
        <ele>226.4</ele>
        <time>2024-11-20T12:23:42Z</time>
      </trkpt>
      <trkpt lat="48.16317" lon="-3.32924">
        <ele>226.4</ele>
        <time>2024-11-20T12:23:43Z</time>
      </trkpt>
      <trkpt lat="48.16317" lon="-3.32924">
        <ele>226.4</ele>
        <time>2024-11-20T12:23:44Z</time>
      </trkpt>
      <trkpt lat="48.16317" lon="-3.32924">
        <ele>226.4</ele>
        <time>2024-11-20T12:23:45Z</time>
      </trkpt>
      <trkpt lat="48.16317" lon="-3.32924">
        <ele>226.4</ele>
        <time>2024-11-20T12:23:46Z</time>
      </trkpt>
      <trkpt lat="48.16317" lon="-3.32924">
        <ele>226.4</ele>
        <time>2024-11-20T12:23:47Z</time>
      </trkpt>
      <trkpt lat="48.16317" lon="-3.32924">
        <ele>226.4</ele>
        <time>2024-11-20T12:23:48Z</time>
      </trkpt>
      <trkpt lat="48.16317" lon="-3.32924">
        <ele>226.4</ele>
        <time>2024-11-20T12:23:49Z</time>
      </trkpt>
      <trkpt lat="48.16317" lon="-3.32924">
        <ele>226.4</ele>
        <time>2024-11-20T12:23:50Z</time>
      </trkpt>
      <trkpt lat="48.16317" lon="-3.32924">
        <ele>226.4</ele>
        <time>2024-11-20T12:23:51Z</time>
      </trkpt>
      <trkpt lat="48.16317" lon="-3.32924">
        <ele>226.4</ele>
        <time>2024-11-20T12:23:52Z</time>
      </trkpt>
      <trkpt lat="48.16317" lon="-3.32924">
        <ele>226.4</ele>
        <time>2024-11-20T12:23:53Z</time>
      </trkpt>
      <trkpt lat="48.16317" lon="-3.32924">
        <ele>226.4</ele>
        <time>2024-11-20T12:23:54Z</time>
      </trkpt>
      <trkpt lat="48.16317" lon="-3.32924">
        <ele>226.4</ele>
        <time>2024-11-20T12:23:55Z</time>
      </trkpt>
      <trkpt lat="48.16317" lon="-3.32924">
        <ele>226.4</ele>
        <time>2024-11-20T12:23:56Z</time>
      </trkpt>
      <trkpt lat="48.16317" lon="-3.32925">
        <ele>226.4</ele>
        <time>2024-11-20T12:23:57Z</time>
      </trkpt>
      <trkpt lat="48.16317" lon="-3.32925">
        <ele>226.4</ele>
        <time>2024-11-20T12:23:58Z</time>
      </trkpt>
      <trkpt lat="48.16317" lon="-3.32925">
        <ele>226.4</ele>
        <time>2024-11-20T12:23:59Z</time>
      </trkpt>
      <trkpt lat="48.16318" lon="-3.32925">
        <ele>226.4</ele>
        <time>2024-11-20T12:24:00Z</time>
      </trkpt>
      <trkpt lat="48.16318" lon="-3.32925">
        <ele>226.4</ele>
        <time>2024-11-20T12:24:01Z</time>
      </trkpt>
      <trkpt lat="48.16318" lon="-3.32925">
        <ele>226.4</ele>
        <time>2024-11-20T12:24:02Z</time>
      </trkpt>
      <trkpt lat="48.16318" lon="-3.32926">
        <ele>226.4</ele>
        <time>2024-11-20T12:24:03Z</time>
      </trkpt>
      <trkpt lat="48.16318" lon="-3.32926">
        <ele>226.4</ele>
        <time>2024-11-20T12:24:04Z</time>
      </trkpt>
      <trkpt lat="48.16318" lon="-3.32926">
        <ele>226.4</ele>
        <time>2024-11-20T12:24:05Z</time>
      </trkpt>
      <trkpt lat="48.16318" lon="-3.32925">
        <ele>226.4</ele>
        <time>2024-11-20T12:24:06Z</time>
      </trkpt>
      <trkpt lat="48.16318" lon="-3.32925">
        <ele>226.4</ele>
        <time>2024-11-20T12:24:07Z</time>
      </trkpt>
      <trkpt lat="48.16318" lon="-3.32925">
        <ele>226.4</ele>
        <time>2024-11-20T12:24:08Z</time>
      </trkpt>
      <trkpt lat="48.16318" lon="-3.32925">
        <ele>226.4</ele>
        <time>2024-11-20T12:24:09Z</time>
      </trkpt>
      <trkpt lat="48.16318" lon="-3.32925">
        <ele>226.4</ele>
        <time>2024-11-20T12:24:10Z</time>
      </trkpt>
      <trkpt lat="48.16318" lon="-3.32925">
        <ele>226.4</ele>
        <time>2024-11-20T12:24:11Z</time>
      </trkpt>
      <trkpt lat="48.16318" lon="-3.32925">
        <ele>226.4</ele>
        <time>2024-11-20T12:24:12Z</time>
      </trkpt>
      <trkpt lat="48.16318" lon="-3.32925">
        <ele>226.5</ele>
        <time>2024-11-20T12:24:13Z</time>
      </trkpt>
      <trkpt lat="48.16318" lon="-3.32925">
        <ele>226.5</ele>
        <time>2024-11-20T12:24:14Z</time>
      </trkpt>
      <trkpt lat="48.16319" lon="-3.32925">
        <ele>226.5</ele>
        <time>2024-11-20T12:24:15Z</time>
      </trkpt>
      <trkpt lat="48.16319" lon="-3.32925">
        <ele>226.5</ele>
        <time>2024-11-20T12:24:16Z</time>
      </trkpt>
      <trkpt lat="48.16319" lon="-3.32925">
        <ele>226.5</ele>
        <time>2024-11-20T12:24:17Z</time>
      </trkpt>
      <trkpt lat="48.16319" lon="-3.32925">
        <ele>226.5</ele>
        <time>2024-11-20T12:24:18Z</time>
      </trkpt>
      <trkpt lat="48.1632" lon="-3.32925">
        <ele>226.5</ele>
        <time>2024-11-20T12:24:19Z</time>
      </trkpt>
      <trkpt lat="48.1632" lon="-3.32925">
        <ele>226.5</ele>
        <time>2024-11-20T12:24:20Z</time>
      </trkpt>
      <trkpt lat="48.1632" lon="-3.32925">
        <ele>226.5</ele>
        <time>2024-11-20T12:24:21Z</time>
      </trkpt>
      <trkpt lat="48.1632" lon="-3.32925">
        <ele>226.5</ele>
        <time>2024-11-20T12:24:22Z</time>
      </trkpt>
      <trkpt lat="48.1632" lon="-3.32925">
        <ele>226.5</ele>
        <time>2024-11-20T12:24:23Z</time>
      </trkpt>
      <trkpt lat="48.1632" lon="-3.32925">
        <ele>226.5</ele>
        <time>2024-11-20T12:24:24Z</time>
      </trkpt>
      <trkpt lat="48.16319" lon="-3.32925">
        <ele>226.5</ele>
        <time>2024-11-20T12:24:25Z</time>
      </trkpt>
      <trkpt lat="48.1632" lon="-3.32926">
        <ele>226.5</ele>
        <time>2024-11-20T12:24:26Z</time>
      </trkpt>
      <trkpt lat="48.1632" lon="-3.32926">
        <ele>226.5</ele>
        <time>2024-11-20T12:24:27Z</time>
      </trkpt>
      <trkpt lat="48.1632" lon="-3.32926">
        <ele>226.5</ele>
        <time>2024-11-20T12:24:28Z</time>
      </trkpt>
      <trkpt lat="48.1632" lon="-3.32926">
        <ele>226.5</ele>
        <time>2024-11-20T12:24:29Z</time>
      </trkpt>
      <trkpt lat="48.1632" lon="-3.32926">
        <ele>226.5</ele>
        <time>2024-11-20T12:24:30Z</time>
      </trkpt>
      <trkpt lat="48.1632" lon="-3.32926">
        <ele>226.5</ele>
        <time>2024-11-20T12:24:31Z</time>
      </trkpt>
      <trkpt lat="48.16321" lon="-3.32925">
        <ele>226.5</ele>
        <time>2024-11-20T12:24:32Z</time>
      </trkpt>
      <trkpt lat="48.16321" lon="-3.32925">
        <ele>226.6</ele>
        <time>2024-11-20T12:24:33Z</time>
      </trkpt>
      <trkpt lat="48.16321" lon="-3.32925">
        <ele>226.6</ele>
        <time>2024-11-20T12:24:34Z</time>
      </trkpt>
      <trkpt lat="48.16322" lon="-3.32925">
        <ele>226.6</ele>
        <time>2024-11-20T12:24:35Z</time>
      </trkpt>
      <trkpt lat="48.16322" lon="-3.32924">
        <ele>226.6</ele>
        <time>2024-11-20T12:24:36Z</time>
      </trkpt>
      <trkpt lat="48.16322" lon="-3.32924">
        <ele>226.6</ele>
        <time>2024-11-20T12:24:37Z</time>
      </trkpt>
      <trkpt lat="48.16322" lon="-3.32924">
        <ele>226.6</ele>
        <time>2024-11-20T12:24:38Z</time>
      </trkpt>
      <trkpt lat="48.16322" lon="-3.32923">
        <ele>226.6</ele>
        <time>2024-11-20T12:24:39Z</time>
      </trkpt>
      <trkpt lat="48.16323" lon="-3.32923">
        <ele>226.6</ele>
        <time>2024-11-20T12:24:40Z</time>
      </trkpt>
      <trkpt lat="48.16322" lon="-3.32923">
        <ele>226.6</ele>
        <time>2024-11-20T12:24:41Z</time>
      </trkpt>
      <trkpt lat="48.16323" lon="-3.32922">
        <ele>226.6</ele>
        <time>2024-11-20T12:24:42Z</time>
      </trkpt>
      <trkpt lat="48.16323" lon="-3.32922">
        <ele>226.6</ele>
        <time>2024-11-20T12:24:43Z</time>
      </trkpt>
      <trkpt lat="48.16323" lon="-3.32922">
        <ele>226.6</ele>
        <time>2024-11-20T12:24:44Z</time>
      </trkpt>
      <trkpt lat="48.16324" lon="-3.32922">
        <ele>226.7</ele>
        <time>2024-11-20T12:24:45Z</time>
      </trkpt>
      <trkpt lat="48.16325" lon="-3.32922">
        <ele>226.7</ele>
        <time>2024-11-20T12:24:46Z</time>
      </trkpt>
      <trkpt lat="48.16326" lon="-3.32922">
        <ele>226.7</ele>
        <time>2024-11-20T12:24:47Z</time>
      </trkpt>
      <trkpt lat="48.16327" lon="-3.32923">
        <ele>226.8</ele>
        <time>2024-11-20T12:24:48Z</time>
      </trkpt>
      <trkpt lat="48.16328" lon="-3.32923">
        <ele>226.8</ele>
        <time>2024-11-20T12:24:49Z</time>
      </trkpt>
      <trkpt lat="48.16329" lon="-3.32923">
        <ele>226.8</ele>
        <time>2024-11-20T12:24:50Z</time>
      </trkpt>
      <trkpt lat="48.1633" lon="-3.32924">
        <ele>226.9</ele>
        <time>2024-11-20T12:24:51Z</time>
      </trkpt>
      <trkpt lat="48.16331" lon="-3.32924">
        <ele>226.9</ele>
        <time>2024-11-20T12:24:52Z</time>
      </trkpt>
      <trkpt lat="48.16331" lon="-3.32924">
        <ele>226.9</ele>
        <time>2024-11-20T12:24:53Z</time>
      </trkpt>
      <trkpt lat="48.16332" lon="-3.32925">
        <ele>226.9</ele>
        <time>2024-11-20T12:24:54Z</time>
      </trkpt>
      <trkpt lat="48.16332" lon="-3.32925">
        <ele>227</ele>
        <time>2024-11-20T12:24:55Z</time>
      </trkpt>
      <trkpt lat="48.16333" lon="-3.32925">
        <ele>227</ele>
        <time>2024-11-20T12:24:56Z</time>
      </trkpt>
      <trkpt lat="48.16334" lon="-3.32925">
        <ele>227</ele>
        <time>2024-11-20T12:24:57Z</time>
      </trkpt>
      <trkpt lat="48.16335" lon="-3.32925">
        <ele>227.1</ele>
        <time>2024-11-20T12:24:58Z</time>
      </trkpt>
      <trkpt lat="48.16336" lon="-3.32925">
        <ele>227.2</ele>
        <time>2024-11-20T12:24:59Z</time>
      </trkpt>
      <trkpt lat="48.16336" lon="-3.32925">
        <ele>227.2</ele>
        <time>2024-11-20T12:25:00Z</time>
      </trkpt>
      <trkpt lat="48.16337" lon="-3.32925">
        <ele>227.2</ele>
        <time>2024-11-20T12:25:01Z</time>
      </trkpt>
      <trkpt lat="48.16338" lon="-3.32925">
        <ele>227.3</ele>
        <time>2024-11-20T12:25:02Z</time>
      </trkpt>
      <trkpt lat="48.16339" lon="-3.32927">
        <ele>227.4</ele>
        <time>2024-11-20T12:25:03Z</time>
      </trkpt>
      <trkpt lat="48.1634" lon="-3.32928">
        <ele>227.5</ele>
        <time>2024-11-20T12:25:04Z</time>
      </trkpt>
      <trkpt lat="48.1634" lon="-3.32928">
        <ele>227.5</ele>
        <time>2024-11-20T12:25:05Z</time>
      </trkpt>
      <trkpt lat="48.16341" lon="-3.32928">
        <ele>227.5</ele>
        <time>2024-11-20T12:25:06Z</time>
      </trkpt>
      <trkpt lat="48.16342" lon="-3.32928">
        <ele>227.6</ele>
        <time>2024-11-20T12:25:07Z</time>
      </trkpt>
      <trkpt lat="48.16343" lon="-3.32928">
        <ele>227.7</ele>
        <time>2024-11-20T12:25:08Z</time>
      </trkpt>
      <trkpt lat="48.16344" lon="-3.32928">
        <ele>227.7</ele>
        <time>2024-11-20T12:25:09Z</time>
      </trkpt>
      <trkpt lat="48.16344" lon="-3.32928">
        <ele>227.8</ele>
        <time>2024-11-20T12:25:10Z</time>
      </trkpt>
      <trkpt lat="48.16345" lon="-3.32928">
        <ele>227.8</ele>
        <time>2024-11-20T12:25:11Z</time>
      </trkpt>
      <trkpt lat="48.16345" lon="-3.32928">
        <ele>227.8</ele>
        <time>2024-11-20T12:25:12Z</time>
      </trkpt>
      <trkpt lat="48.16346" lon="-3.32928">
        <ele>227.9</ele>
        <time>2024-11-20T12:25:13Z</time>
      </trkpt>
      <trkpt lat="48.16346" lon="-3.32928">
        <ele>227.9</ele>
        <time>2024-11-20T12:25:14Z</time>
      </trkpt>
      <trkpt lat="48.16347" lon="-3.32928">
        <ele>228</ele>
        <time>2024-11-20T12:25:15Z</time>
      </trkpt>
      <trkpt lat="48.16348" lon="-3.32929">
        <ele>228</ele>
        <time>2024-11-20T12:25:16Z</time>
      </trkpt>
      <trkpt lat="48.16348" lon="-3.32929">
        <ele>228.1</ele>
        <time>2024-11-20T12:25:17Z</time>
      </trkpt>
      <trkpt lat="48.16349" lon="-3.32929">
        <ele>228.1</ele>
        <time>2024-11-20T12:25:18Z</time>
      </trkpt>
      <trkpt lat="48.1635" lon="-3.32929">
        <ele>228.2</ele>
        <time>2024-11-20T12:25:19Z</time>
      </trkpt>
      <trkpt lat="48.16351" lon="-3.32929">
        <ele>228.3</ele>
        <time>2024-11-20T12:25:20Z</time>
      </trkpt>
      <trkpt lat="48.16353" lon="-3.3293">
        <ele>228.4</ele>
        <time>2024-11-20T12:25:21Z</time>
      </trkpt>
      <trkpt lat="48.16354" lon="-3.3293">
        <ele>228.5</ele>
        <time>2024-11-20T12:25:22Z</time>
      </trkpt>
      <trkpt lat="48.16356" lon="-3.32931">
        <ele>228.6</ele>
        <time>2024-11-20T12:25:23Z</time>
      </trkpt>
      <trkpt lat="48.16357" lon="-3.32931">
        <ele>228.7</ele>
        <time>2024-11-20T12:25:24Z</time>
      </trkpt>
      <trkpt lat="48.16359" lon="-3.32931">
        <ele>228.8</ele>
        <time>2024-11-20T12:25:25Z</time>
      </trkpt>
      <trkpt lat="48.1636" lon="-3.32931">
        <ele>228.9</ele>
        <time>2024-11-20T12:25:26Z</time>
      </trkpt>
      <trkpt lat="48.16361" lon="-3.32932">
        <ele>229</ele>
        <time>2024-11-20T12:25:27Z</time>
      </trkpt>
      <trkpt lat="48.16362" lon="-3.32932">
        <ele>229</ele>
        <time>2024-11-20T12:25:28Z</time>
      </trkpt>
      <trkpt lat="48.16364" lon="-3.32932">
        <ele>229.1</ele>
        <time>2024-11-20T12:25:29Z</time>
      </trkpt>
      <trkpt lat="48.16365" lon="-3.32932">
        <ele>229.1</ele>
        <time>2024-11-20T12:25:30Z</time>
      </trkpt>
      <trkpt lat="48.16366" lon="-3.32932">
        <ele>229.1</ele>
        <time>2024-11-20T12:25:31Z</time>
      </trkpt>
      <trkpt lat="48.16367" lon="-3.32932">
        <ele>229.1</ele>
        <time>2024-11-20T12:25:32Z</time>
      </trkpt>
      <trkpt lat="48.16368" lon="-3.32932">
        <ele>229.1</ele>
        <time>2024-11-20T12:25:33Z</time>
      </trkpt>
      <trkpt lat="48.16368" lon="-3.32932">
        <ele>229.1</ele>
        <time>2024-11-20T12:25:34Z</time>
      </trkpt>
      <trkpt lat="48.16369" lon="-3.32932">
        <ele>229.1</ele>
        <time>2024-11-20T12:25:35Z</time>
      </trkpt>
      <trkpt lat="48.16369" lon="-3.32931">
        <ele>229.2</ele>
        <time>2024-11-20T12:25:36Z</time>
      </trkpt>
      <trkpt lat="48.1637" lon="-3.32931">
        <ele>229.2</ele>
        <time>2024-11-20T12:25:37Z</time>
      </trkpt>
      <trkpt lat="48.16371" lon="-3.32931">
        <ele>229.2</ele>
        <time>2024-11-20T12:25:38Z</time>
      </trkpt>
      <trkpt lat="48.16371" lon="-3.32931">
        <ele>229.2</ele>
        <time>2024-11-20T12:25:39Z</time>
      </trkpt>
      <trkpt lat="48.16372" lon="-3.32931">
        <ele>229.2</ele>
        <time>2024-11-20T12:25:40Z</time>
      </trkpt>
      <trkpt lat="48.16372" lon="-3.32931">
        <ele>229.2</ele>
        <time>2024-11-20T12:25:41Z</time>
      </trkpt>
      <trkpt lat="48.16372" lon="-3.32931">
        <ele>229.2</ele>
        <time>2024-11-20T12:25:42Z</time>
      </trkpt>
      <trkpt lat="48.16374" lon="-3.32931">
        <ele>229.2</ele>
        <time>2024-11-20T12:25:43Z</time>
      </trkpt>
      <trkpt lat="48.16375" lon="-3.32931">
        <ele>229.3</ele>
        <time>2024-11-20T12:25:44Z</time>
      </trkpt>
      <trkpt lat="48.16376" lon="-3.32931">
        <ele>229.3</ele>
        <time>2024-11-20T12:25:45Z</time>
      </trkpt>
      <trkpt lat="48.16377" lon="-3.32932">
        <ele>229.3</ele>
        <time>2024-11-20T12:25:46Z</time>
      </trkpt>
      <trkpt lat="48.16377" lon="-3.32933">
        <ele>229.3</ele>
        <time>2024-11-20T12:25:47Z</time>
      </trkpt>
      <trkpt lat="48.16378" lon="-3.32933">
        <ele>229.4</ele>
        <time>2024-11-20T12:25:48Z</time>
      </trkpt>
      <trkpt lat="48.16379" lon="-3.32932">
        <ele>229.4</ele>
        <time>2024-11-20T12:25:49Z</time>
      </trkpt>
      <trkpt lat="48.16381" lon="-3.32932">
        <ele>229.4</ele>
        <time>2024-11-20T12:25:50Z</time>
      </trkpt>
      <trkpt lat="48.16382" lon="-3.32932">
        <ele>229.4</ele>
        <time>2024-11-20T12:25:51Z</time>
      </trkpt>
      <trkpt lat="48.16383" lon="-3.32931">
        <ele>229.4</ele>
        <time>2024-11-20T12:25:52Z</time>
      </trkpt>
      <trkpt lat="48.16384" lon="-3.32931">
        <ele>229.4</ele>
        <time>2024-11-20T12:25:53Z</time>
      </trkpt>
      <trkpt lat="48.16384" lon="-3.32932">
        <ele>229.4</ele>
        <time>2024-11-20T12:25:54Z</time>
      </trkpt>
      <trkpt lat="48.16385" lon="-3.32931">
        <ele>229.5</ele>
        <time>2024-11-20T12:25:55Z</time>
      </trkpt>
      <trkpt lat="48.16385" lon="-3.32931">
        <ele>229.5</ele>
        <time>2024-11-20T12:25:56Z</time>
      </trkpt>
      <trkpt lat="48.16387" lon="-3.32932">
        <ele>229.5</ele>
        <time>2024-11-20T12:25:57Z</time>
      </trkpt>
      <trkpt lat="48.16388" lon="-3.32932">
        <ele>229.5</ele>
        <time>2024-11-20T12:25:58Z</time>
      </trkpt>
      <trkpt lat="48.16388" lon="-3.32933">
        <ele>229.6</ele>
        <time>2024-11-20T12:25:59Z</time>
      </trkpt>
      <trkpt lat="48.16388" lon="-3.32933">
        <ele>229.6</ele>
        <time>2024-11-20T12:26:00Z</time>
      </trkpt>
      <trkpt lat="48.16389" lon="-3.32934">
        <ele>229.6</ele>
        <time>2024-11-20T12:26:01Z</time>
      </trkpt>
      <trkpt lat="48.1639" lon="-3.32934">
        <ele>229.6</ele>
        <time>2024-11-20T12:26:02Z</time>
      </trkpt>
      <trkpt lat="48.16393" lon="-3.32934">
        <ele>229.5</ele>
        <time>2024-11-20T12:26:03Z</time>
      </trkpt>
      <trkpt lat="48.16395" lon="-3.32935">
        <ele>229.4</ele>
        <time>2024-11-20T12:26:04Z</time>
      </trkpt>
      <trkpt lat="48.16397" lon="-3.32935">
        <ele>229.4</ele>
        <time>2024-11-20T12:26:05Z</time>
      </trkpt>
      <trkpt lat="48.16398" lon="-3.32935">
        <ele>229.3</ele>
        <time>2024-11-20T12:26:06Z</time>
      </trkpt>
      <trkpt lat="48.164" lon="-3.32935">
        <ele>229.3</ele>
        <time>2024-11-20T12:26:07Z</time>
      </trkpt>
      <trkpt lat="48.16401" lon="-3.32935">
        <ele>229.2</ele>
        <time>2024-11-20T12:26:08Z</time>
      </trkpt>
      <trkpt lat="48.16403" lon="-3.32935">
        <ele>229.2</ele>
        <time>2024-11-20T12:26:09Z</time>
      </trkpt>
      <trkpt lat="48.16404" lon="-3.32935">
        <ele>229.1</ele>
        <time>2024-11-20T12:26:10Z</time>
      </trkpt>
      <trkpt lat="48.16404" lon="-3.32936">
        <ele>229.1</ele>
        <time>2024-11-20T12:26:11Z</time>
      </trkpt>
      <trkpt lat="48.16405" lon="-3.32936">
        <ele>229.1</ele>
        <time>2024-11-20T12:26:12Z</time>
      </trkpt>
      <trkpt lat="48.16406" lon="-3.32937">
        <ele>229.1</ele>
        <time>2024-11-20T12:26:13Z</time>
      </trkpt>
      <trkpt lat="48.16407" lon="-3.32937">
        <ele>229.1</ele>
        <time>2024-11-20T12:26:14Z</time>
      </trkpt>
      <trkpt lat="48.16408" lon="-3.32938">
        <ele>229.1</ele>
        <time>2024-11-20T12:26:15Z</time>
      </trkpt>
      <trkpt lat="48.16408" lon="-3.32939">
        <ele>229.1</ele>
        <time>2024-11-20T12:26:16Z</time>
      </trkpt>
      <trkpt lat="48.16409" lon="-3.32941">
        <ele>229.1</ele>
        <time>2024-11-20T12:26:17Z</time>
      </trkpt>
      <trkpt lat="48.1641" lon="-3.32942">
        <ele>229.2</ele>
        <time>2024-11-20T12:26:18Z</time>
      </trkpt>
      <trkpt lat="48.16412" lon="-3.32943">
        <ele>229.1</ele>
        <time>2024-11-20T12:26:19Z</time>
      </trkpt>
      <trkpt lat="48.16413" lon="-3.32944">
        <ele>229.1</ele>
        <time>2024-11-20T12:26:20Z</time>
      </trkpt>
      <trkpt lat="48.16413" lon="-3.32944">
        <ele>229.1</ele>
        <time>2024-11-20T12:26:21Z</time>
      </trkpt>
      <trkpt lat="48.16414" lon="-3.32945">
        <ele>229.1</ele>
        <time>2024-11-20T12:26:22Z</time>
      </trkpt>
      <trkpt lat="48.16414" lon="-3.32946">
        <ele>229.1</ele>
        <time>2024-11-20T12:26:23Z</time>
      </trkpt>
      <trkpt lat="48.16416" lon="-3.32948">
        <ele>229.2</ele>
        <time>2024-11-20T12:26:24Z</time>
      </trkpt>
      <trkpt lat="48.16417" lon="-3.32949">
        <ele>229.2</ele>
        <time>2024-11-20T12:26:25Z</time>
      </trkpt>
      <trkpt lat="48.16418" lon="-3.3295">
        <ele>229.2</ele>
        <time>2024-11-20T12:26:26Z</time>
      </trkpt>
      <trkpt lat="48.16418" lon="-3.3295">
        <ele>229.2</ele>
        <time>2024-11-20T12:26:27Z</time>
      </trkpt>
      <trkpt lat="48.16419" lon="-3.32951">
        <ele>229.2</ele>
        <time>2024-11-20T12:26:28Z</time>
      </trkpt>
      <trkpt lat="48.16419" lon="-3.32952">
        <ele>229.2</ele>
        <time>2024-11-20T12:26:29Z</time>
      </trkpt>
      <trkpt lat="48.16419" lon="-3.32952">
        <ele>229.2</ele>
        <time>2024-11-20T12:26:30Z</time>
      </trkpt>
      <trkpt lat="48.1642" lon="-3.32953">
        <ele>229.2</ele>
        <time>2024-11-20T12:26:31Z</time>
      </trkpt>
      <trkpt lat="48.1642" lon="-3.32953">
        <ele>229.2</ele>
        <time>2024-11-20T12:26:32Z</time>
      </trkpt>
      <trkpt lat="48.16421" lon="-3.32954">
        <ele>229.2</ele>
        <time>2024-11-20T12:26:33Z</time>
      </trkpt>
      <trkpt lat="48.16421" lon="-3.32954">
        <ele>229.3</ele>
        <time>2024-11-20T12:26:34Z</time>
      </trkpt>
      <trkpt lat="48.16421" lon="-3.32955">
        <ele>229.3</ele>
        <time>2024-11-20T12:26:35Z</time>
      </trkpt>
      <trkpt lat="48.16422" lon="-3.32955">
        <ele>229.3</ele>
        <time>2024-11-20T12:26:36Z</time>
      </trkpt>
      <trkpt lat="48.16422" lon="-3.32956">
        <ele>229.3</ele>
        <time>2024-11-20T12:26:37Z</time>
      </trkpt>
      <trkpt lat="48.16423" lon="-3.32957">
        <ele>229.3</ele>
        <time>2024-11-20T12:26:38Z</time>
      </trkpt>
      <trkpt lat="48.16425" lon="-3.32958">
        <ele>229.3</ele>
        <time>2024-11-20T12:26:39Z</time>
      </trkpt>
      <trkpt lat="48.16427" lon="-3.32959">
        <ele>229.3</ele>
        <time>2024-11-20T12:26:40Z</time>
      </trkpt>
      <trkpt lat="48.16428" lon="-3.3296">
        <ele>229.4</ele>
        <time>2024-11-20T12:26:41Z</time>
      </trkpt>
      <trkpt lat="48.1643" lon="-3.32961">
        <ele>229.4</ele>
        <time>2024-11-20T12:26:42Z</time>
      </trkpt>
      <trkpt lat="48.16431" lon="-3.32962">
        <ele>229.4</ele>
        <time>2024-11-20T12:26:43Z</time>
      </trkpt>
      <trkpt lat="48.16433" lon="-3.32963">
        <ele>229.5</ele>
        <time>2024-11-20T12:26:44Z</time>
      </trkpt>
      <trkpt lat="48.16434" lon="-3.32965">
        <ele>229.6</ele>
        <time>2024-11-20T12:26:45Z</time>
      </trkpt>
      <trkpt lat="48.16434" lon="-3.32967">
        <ele>229.7</ele>
        <time>2024-11-20T12:26:46Z</time>
      </trkpt>
      <trkpt lat="48.16435" lon="-3.32969">
        <ele>229.8</ele>
        <time>2024-11-20T12:26:47Z</time>
      </trkpt>
      <trkpt lat="48.16436" lon="-3.3297">
        <ele>229.9</ele>
        <time>2024-11-20T12:26:48Z</time>
      </trkpt>
      <trkpt lat="48.16438" lon="-3.32971">
        <ele>229.9</ele>
        <time>2024-11-20T12:26:49Z</time>
      </trkpt>
      <trkpt lat="48.1644" lon="-3.32973">
        <ele>230</ele>
        <time>2024-11-20T12:26:50Z</time>
      </trkpt>
      <trkpt lat="48.16443" lon="-3.32976">
        <ele>230.1</ele>
        <time>2024-11-20T12:26:51Z</time>
      </trkpt>
      <trkpt lat="48.16444" lon="-3.32977">
        <ele>230.2</ele>
        <time>2024-11-20T12:26:52Z</time>
      </trkpt>
      <trkpt lat="48.16445" lon="-3.32978">
        <ele>230.2</ele>
        <time>2024-11-20T12:26:53Z</time>
      </trkpt>
      <trkpt lat="48.16446" lon="-3.3298">
        <ele>230.1</ele>
        <time>2024-11-20T12:26:54Z</time>
      </trkpt>
      <trkpt lat="48.16447" lon="-3.32981">
        <ele>230.1</ele>
        <time>2024-11-20T12:26:55Z</time>
      </trkpt>
      <trkpt lat="48.16447" lon="-3.32982">
        <ele>230.1</ele>
        <time>2024-11-20T12:26:56Z</time>
      </trkpt>
      <trkpt lat="48.16447" lon="-3.32983">
        <ele>230.1</ele>
        <time>2024-11-20T12:26:57Z</time>
      </trkpt>
      <trkpt lat="48.16448" lon="-3.32984">
        <ele>230</ele>
        <time>2024-11-20T12:26:58Z</time>
      </trkpt>
      <trkpt lat="48.1645" lon="-3.32985">
        <ele>229.9</ele>
        <time>2024-11-20T12:26:59Z</time>
      </trkpt>
      <trkpt lat="48.16451" lon="-3.32986">
        <ele>229.8</ele>
        <time>2024-11-20T12:27:00Z</time>
      </trkpt>
      <trkpt lat="48.16452" lon="-3.32987">
        <ele>229.7</ele>
        <time>2024-11-20T12:27:01Z</time>
      </trkpt>
      <trkpt lat="48.16453" lon="-3.32988">
        <ele>229.7</ele>
        <time>2024-11-20T12:27:02Z</time>
      </trkpt>
      <trkpt lat="48.16453" lon="-3.3299">
        <ele>229.7</ele>
        <time>2024-11-20T12:27:03Z</time>
      </trkpt>
      <trkpt lat="48.16454" lon="-3.32992">
        <ele>229.7</ele>
        <time>2024-11-20T12:27:04Z</time>
      </trkpt>
      <trkpt lat="48.16455" lon="-3.32993">
        <ele>229.6</ele>
        <time>2024-11-20T12:27:05Z</time>
      </trkpt>
      <trkpt lat="48.16457" lon="-3.32997">
        <ele>229.5</ele>
        <time>2024-11-20T12:27:06Z</time>
      </trkpt>
      <trkpt lat="48.16458" lon="-3.32998">
        <ele>229.4</ele>
        <time>2024-11-20T12:27:07Z</time>
      </trkpt>
      <trkpt lat="48.16459" lon="-3.32998">
        <ele>229.3</ele>
        <time>2024-11-20T12:27:08Z</time>
      </trkpt>
      <trkpt lat="48.1646" lon="-3.32998">
        <ele>229.2</ele>
        <time>2024-11-20T12:27:09Z</time>
      </trkpt>
      <trkpt lat="48.1646" lon="-3.32997">
        <ele>229.2</ele>
        <time>2024-11-20T12:27:10Z</time>
      </trkpt>
      <trkpt lat="48.16461" lon="-3.32996">
        <ele>229.1</ele>
        <time>2024-11-20T12:27:11Z</time>
      </trkpt>
      <trkpt lat="48.16462" lon="-3.32996">
        <ele>228.9</ele>
        <time>2024-11-20T12:27:12Z</time>
      </trkpt>
      <trkpt lat="48.16464" lon="-3.32995">
        <ele>228.7</ele>
        <time>2024-11-20T12:27:13Z</time>
      </trkpt>
      <trkpt lat="48.16465" lon="-3.32994">
        <ele>228.6</ele>
        <time>2024-11-20T12:27:14Z</time>
      </trkpt>
      <trkpt lat="48.16466" lon="-3.32994">
        <ele>228.4</ele>
        <time>2024-11-20T12:27:15Z</time>
      </trkpt>
      <trkpt lat="48.16468" lon="-3.32994">
        <ele>228.2</ele>
        <time>2024-11-20T12:27:16Z</time>
      </trkpt>
      <trkpt lat="48.1647" lon="-3.32993">
        <ele>228</ele>
        <time>2024-11-20T12:27:17Z</time>
      </trkpt>
      <trkpt lat="48.16471" lon="-3.32993">
        <ele>227.8</ele>
        <time>2024-11-20T12:27:18Z</time>
      </trkpt>
      <trkpt lat="48.16473" lon="-3.32992">
        <ele>227.7</ele>
        <time>2024-11-20T12:27:19Z</time>
      </trkpt>
      <trkpt lat="48.16475" lon="-3.32991">
        <ele>227.6</ele>
        <time>2024-11-20T12:27:20Z</time>
      </trkpt>
      <trkpt lat="48.16477" lon="-3.32991">
        <ele>227.5</ele>
        <time>2024-11-20T12:27:21Z</time>
      </trkpt>
      <trkpt lat="48.16479" lon="-3.32991">
        <ele>227.4</ele>
        <time>2024-11-20T12:27:22Z</time>
      </trkpt>
      <trkpt lat="48.1648" lon="-3.32991">
        <ele>227.4</ele>
        <time>2024-11-20T12:27:23Z</time>
      </trkpt>
      <trkpt lat="48.16482" lon="-3.32991">
        <ele>227.3</ele>
        <time>2024-11-20T12:27:24Z</time>
      </trkpt>
      <trkpt lat="48.16483" lon="-3.3299">
        <ele>227.3</ele>
        <time>2024-11-20T12:27:25Z</time>
      </trkpt>
      <trkpt lat="48.16484" lon="-3.32989">
        <ele>227.2</ele>
        <time>2024-11-20T12:27:26Z</time>
      </trkpt>
      <trkpt lat="48.16486" lon="-3.32989">
        <ele>227.1</ele>
        <time>2024-11-20T12:27:27Z</time>
      </trkpt>
      <trkpt lat="48.16487" lon="-3.32988">
        <ele>227.1</ele>
        <time>2024-11-20T12:27:28Z</time>
      </trkpt>
      <trkpt lat="48.16488" lon="-3.32987">
        <ele>227</ele>
        <time>2024-11-20T12:27:29Z</time>
      </trkpt>
      <trkpt lat="48.16488" lon="-3.32987">
        <ele>226.9</ele>
        <time>2024-11-20T12:27:30Z</time>
      </trkpt>
      <trkpt lat="48.16489" lon="-3.32986">
        <ele>226.9</ele>
        <time>2024-11-20T12:27:31Z</time>
      </trkpt>
      <trkpt lat="48.1649" lon="-3.32985">
        <ele>226.8</ele>
        <time>2024-11-20T12:27:32Z</time>
      </trkpt>
      <trkpt lat="48.16491" lon="-3.32984">
        <ele>226.7</ele>
        <time>2024-11-20T12:27:33Z</time>
      </trkpt>
      <trkpt lat="48.16492" lon="-3.32983">
        <ele>226.7</ele>
        <time>2024-11-20T12:27:34Z</time>
      </trkpt>
      <trkpt lat="48.16493" lon="-3.32982">
        <ele>226.6</ele>
        <time>2024-11-20T12:27:35Z</time>
      </trkpt>
      <trkpt lat="48.16494" lon="-3.32981">
        <ele>226.5</ele>
        <time>2024-11-20T12:27:36Z</time>
      </trkpt>
      <trkpt lat="48.16496" lon="-3.3298">
        <ele>226.4</ele>
        <time>2024-11-20T12:27:37Z</time>
      </trkpt>
      <trkpt lat="48.16497" lon="-3.32979">
        <ele>226.4</ele>
        <time>2024-11-20T12:27:38Z</time>
      </trkpt>
      <trkpt lat="48.16499" lon="-3.32979">
        <ele>226.3</ele>
        <time>2024-11-20T12:27:39Z</time>
      </trkpt>
      <trkpt lat="48.16502" lon="-3.32978">
        <ele>226.2</ele>
        <time>2024-11-20T12:27:40Z</time>
      </trkpt>
      <trkpt lat="48.16504" lon="-3.32978">
        <ele>226.1</ele>
        <time>2024-11-20T12:27:41Z</time>
      </trkpt>
      <trkpt lat="48.16505" lon="-3.32978">
        <ele>226.1</ele>
        <time>2024-11-20T12:27:42Z</time>
      </trkpt>
      <trkpt lat="48.16507" lon="-3.32978">
        <ele>226</ele>
        <time>2024-11-20T12:27:43Z</time>
      </trkpt>
      <trkpt lat="48.16508" lon="-3.32977">
        <ele>225.9</ele>
        <time>2024-11-20T12:27:44Z</time>
      </trkpt>
      <trkpt lat="48.1651" lon="-3.32977">
        <ele>225.8</ele>
        <time>2024-11-20T12:27:45Z</time>
      </trkpt>
      <trkpt lat="48.16511" lon="-3.32976">
        <ele>225.8</ele>
        <time>2024-11-20T12:27:46Z</time>
      </trkpt>
      <trkpt lat="48.16512" lon="-3.32976">
        <ele>225.7</ele>
        <time>2024-11-20T12:27:47Z</time>
      </trkpt>
      <trkpt lat="48.16513" lon="-3.32976">
        <ele>225.7</ele>
        <time>2024-11-20T12:27:48Z</time>
      </trkpt>
      <trkpt lat="48.16514" lon="-3.32976">
        <ele>225.6</ele>
        <time>2024-11-20T12:27:49Z</time>
      </trkpt>
      <trkpt lat="48.16515" lon="-3.32976">
        <ele>225.6</ele>
        <time>2024-11-20T12:27:50Z</time>
      </trkpt>
      <trkpt lat="48.16515" lon="-3.32975">
        <ele>225.6</ele>
        <time>2024-11-20T12:27:51Z</time>
      </trkpt>
      <trkpt lat="48.16516" lon="-3.32975">
        <ele>225.5</ele>
        <time>2024-11-20T12:27:52Z</time>
      </trkpt>
      <trkpt lat="48.16518" lon="-3.32974">
        <ele>225.4</ele>
        <time>2024-11-20T12:27:53Z</time>
      </trkpt>
      <trkpt lat="48.16519" lon="-3.32972">
        <ele>225.3</ele>
        <time>2024-11-20T12:27:54Z</time>
      </trkpt>
      <trkpt lat="48.16521" lon="-3.32972">
        <ele>225.2</ele>
        <time>2024-11-20T12:27:55Z</time>
      </trkpt>
      <trkpt lat="48.16521" lon="-3.32971">
        <ele>225.2</ele>
        <time>2024-11-20T12:27:56Z</time>
      </trkpt>
      <trkpt lat="48.16522" lon="-3.3297">
        <ele>225.1</ele>
        <time>2024-11-20T12:27:57Z</time>
      </trkpt>
      <trkpt lat="48.16522" lon="-3.32969">
        <ele>225.1</ele>
        <time>2024-11-20T12:27:58Z</time>
      </trkpt>
      <trkpt lat="48.16522" lon="-3.32968">
        <ele>225</ele>
        <time>2024-11-20T12:27:59Z</time>
      </trkpt>
      <trkpt lat="48.16523" lon="-3.32966">
        <ele>225</ele>
        <time>2024-11-20T12:28:00Z</time>
      </trkpt>
      <trkpt lat="48.16524" lon="-3.32965">
        <ele>224.9</ele>
        <time>2024-11-20T12:28:01Z</time>
      </trkpt>
      <trkpt lat="48.16526" lon="-3.32964">
        <ele>224.8</ele>
        <time>2024-11-20T12:28:02Z</time>
      </trkpt>
      <trkpt lat="48.16527" lon="-3.32962">
        <ele>224.7</ele>
        <time>2024-11-20T12:28:03Z</time>
      </trkpt>
      <trkpt lat="48.16528" lon="-3.32961">
        <ele>224.6</ele>
        <time>2024-11-20T12:28:04Z</time>
      </trkpt>
      <trkpt lat="48.16529" lon="-3.32959">
        <ele>224.5</ele>
        <time>2024-11-20T12:28:05Z</time>
      </trkpt>
      <trkpt lat="48.1653" lon="-3.32957">
        <ele>224.5</ele>
        <time>2024-11-20T12:28:06Z</time>
      </trkpt>
      <trkpt lat="48.16531" lon="-3.32955">
        <ele>224.4</ele>
        <time>2024-11-20T12:28:07Z</time>
      </trkpt>
      <trkpt lat="48.16531" lon="-3.32953">
        <ele>224.3</ele>
        <time>2024-11-20T12:28:08Z</time>
      </trkpt>
      <trkpt lat="48.16532" lon="-3.32951">
        <ele>224.3</ele>
        <time>2024-11-20T12:28:09Z</time>
      </trkpt>
      <trkpt lat="48.16533" lon="-3.3295">
        <ele>224.2</ele>
        <time>2024-11-20T12:28:10Z</time>
      </trkpt>
      <trkpt lat="48.16534" lon="-3.32948">
        <ele>224.1</ele>
        <time>2024-11-20T12:28:11Z</time>
      </trkpt>
      <trkpt lat="48.16535" lon="-3.32946">
        <ele>224.1</ele>
        <time>2024-11-20T12:28:12Z</time>
      </trkpt>
      <trkpt lat="48.16536" lon="-3.32945">
        <ele>224</ele>
        <time>2024-11-20T12:28:13Z</time>
      </trkpt>
      <trkpt lat="48.16537" lon="-3.32944">
        <ele>224</ele>
        <time>2024-11-20T12:28:14Z</time>
      </trkpt>
      <trkpt lat="48.16538" lon="-3.32942">
        <ele>224</ele>
        <time>2024-11-20T12:28:15Z</time>
      </trkpt>
      <trkpt lat="48.16539" lon="-3.32941">
        <ele>224</ele>
        <time>2024-11-20T12:28:16Z</time>
      </trkpt>
      <trkpt lat="48.16539" lon="-3.32939">
        <ele>224</ele>
        <time>2024-11-20T12:28:17Z</time>
      </trkpt>
      <trkpt lat="48.16541" lon="-3.32938">
        <ele>224</ele>
        <time>2024-11-20T12:28:18Z</time>
      </trkpt>
      <trkpt lat="48.16542" lon="-3.32936">
        <ele>224</ele>
        <time>2024-11-20T12:28:19Z</time>
      </trkpt>
      <trkpt lat="48.16543" lon="-3.32935">
        <ele>224</ele>
        <time>2024-11-20T12:28:20Z</time>
      </trkpt>
      <trkpt lat="48.16544" lon="-3.32933">
        <ele>224</ele>
        <time>2024-11-20T12:28:21Z</time>
      </trkpt>
      <trkpt lat="48.16545" lon="-3.32931">
        <ele>224</ele>
        <time>2024-11-20T12:28:22Z</time>
      </trkpt>
      <trkpt lat="48.16545" lon="-3.32929">
        <ele>224</ele>
        <time>2024-11-20T12:28:23Z</time>
      </trkpt>
      <trkpt lat="48.16546" lon="-3.32927">
        <ele>224</ele>
        <time>2024-11-20T12:28:24Z</time>
      </trkpt>
      <trkpt lat="48.16546" lon="-3.32925">
        <ele>224</ele>
        <time>2024-11-20T12:28:25Z</time>
      </trkpt>
      <trkpt lat="48.16546" lon="-3.32923">
        <ele>224</ele>
        <time>2024-11-20T12:28:26Z</time>
      </trkpt>
      <trkpt lat="48.16546" lon="-3.32922">
        <ele>224</ele>
        <time>2024-11-20T12:28:27Z</time>
      </trkpt>
      <trkpt lat="48.16547" lon="-3.3292">
        <ele>224</ele>
        <time>2024-11-20T12:28:28Z</time>
      </trkpt>
      <trkpt lat="48.16547" lon="-3.32919">
        <ele>224</ele>
        <time>2024-11-20T12:28:29Z</time>
      </trkpt>
      <trkpt lat="48.16548" lon="-3.32918">
        <ele>224</ele>
        <time>2024-11-20T12:28:30Z</time>
      </trkpt>
      <trkpt lat="48.16548" lon="-3.32916">
        <ele>224</ele>
        <time>2024-11-20T12:28:31Z</time>
      </trkpt>
      <trkpt lat="48.16548" lon="-3.32915">
        <ele>223.9</ele>
        <time>2024-11-20T12:28:32Z</time>
      </trkpt>
      <trkpt lat="48.16549" lon="-3.32913">
        <ele>223.9</ele>
        <time>2024-11-20T12:28:33Z</time>
      </trkpt>
      <trkpt lat="48.16549" lon="-3.32912">
        <ele>223.8</ele>
        <time>2024-11-20T12:28:34Z</time>
      </trkpt>
      <trkpt lat="48.16549" lon="-3.3291">
        <ele>223.8</ele>
        <time>2024-11-20T12:28:35Z</time>
      </trkpt>
      <trkpt lat="48.16549" lon="-3.32908">
        <ele>223.7</ele>
        <time>2024-11-20T12:28:36Z</time>
      </trkpt>
      <trkpt lat="48.16549" lon="-3.32906">
        <ele>223.6</ele>
        <time>2024-11-20T12:28:37Z</time>
      </trkpt>
      <trkpt lat="48.1655" lon="-3.32905">
        <ele>223.6</ele>
        <time>2024-11-20T12:28:38Z</time>
      </trkpt>
      <trkpt lat="48.16551" lon="-3.32903">
        <ele>223.5</ele>
        <time>2024-11-20T12:28:39Z</time>
      </trkpt>
      <trkpt lat="48.16552" lon="-3.32901">
        <ele>223.4</ele>
        <time>2024-11-20T12:28:40Z</time>
      </trkpt>
      <trkpt lat="48.16554" lon="-3.329">
        <ele>223.4</ele>
        <time>2024-11-20T12:28:41Z</time>
      </trkpt>
      <trkpt lat="48.16556" lon="-3.32898">
        <ele>223.3</ele>
        <time>2024-11-20T12:28:42Z</time>
      </trkpt>
      <trkpt lat="48.16557" lon="-3.32897">
        <ele>223.3</ele>
        <time>2024-11-20T12:28:43Z</time>
      </trkpt>
      <trkpt lat="48.16559" lon="-3.32896">
        <ele>223.2</ele>
        <time>2024-11-20T12:28:44Z</time>
      </trkpt>
      <trkpt lat="48.1656" lon="-3.32894">
        <ele>223.2</ele>
        <time>2024-11-20T12:28:45Z</time>
      </trkpt>
      <trkpt lat="48.16561" lon="-3.32893">
        <ele>223.1</ele>
        <time>2024-11-20T12:28:46Z</time>
      </trkpt>
      <trkpt lat="48.16563" lon="-3.32891">
        <ele>223.1</ele>
        <time>2024-11-20T12:28:47Z</time>
      </trkpt>
      <trkpt lat="48.16564" lon="-3.3289">
        <ele>223</ele>
        <time>2024-11-20T12:28:48Z</time>
      </trkpt>
      <trkpt lat="48.16565" lon="-3.32889">
        <ele>223</ele>
        <time>2024-11-20T12:28:49Z</time>
      </trkpt>
      <trkpt lat="48.16566" lon="-3.32888">
        <ele>223</ele>
        <time>2024-11-20T12:28:50Z</time>
      </trkpt>
      <trkpt lat="48.16567" lon="-3.32886">
        <ele>222.9</ele>
        <time>2024-11-20T12:28:51Z</time>
      </trkpt>
      <trkpt lat="48.16568" lon="-3.32886">
        <ele>222.9</ele>
        <time>2024-11-20T12:28:52Z</time>
      </trkpt>
      <trkpt lat="48.16569" lon="-3.32885">
        <ele>222.9</ele>
        <time>2024-11-20T12:28:53Z</time>
      </trkpt>
      <trkpt lat="48.1657" lon="-3.32885">
        <ele>222.8</ele>
        <time>2024-11-20T12:28:54Z</time>
      </trkpt>
      <trkpt lat="48.16571" lon="-3.32884">
        <ele>222.8</ele>
        <time>2024-11-20T12:28:55Z</time>
      </trkpt>
      <trkpt lat="48.16571" lon="-3.32884">
        <ele>222.8</ele>
        <time>2024-11-20T12:28:56Z</time>
      </trkpt>
      <trkpt lat="48.16571" lon="-3.32884">
        <ele>222.8</ele>
        <time>2024-11-20T12:28:57Z</time>
      </trkpt>
      <trkpt lat="48.16572" lon="-3.32883">
        <ele>222.8</ele>
        <time>2024-11-20T12:28:58Z</time>
      </trkpt>
      <trkpt lat="48.16572" lon="-3.32882">
        <ele>222.8</ele>
        <time>2024-11-20T12:28:59Z</time>
      </trkpt>
      <trkpt lat="48.16573" lon="-3.3288">
        <ele>222.7</ele>
        <time>2024-11-20T12:29:00Z</time>
      </trkpt>
      <trkpt lat="48.16574" lon="-3.32879">
        <ele>222.6</ele>
        <time>2024-11-20T12:29:01Z</time>
      </trkpt>
      <trkpt lat="48.16574" lon="-3.32877">
        <ele>222.6</ele>
        <time>2024-11-20T12:29:02Z</time>
      </trkpt>
      <trkpt lat="48.16574" lon="-3.32876">
        <ele>222.5</ele>
        <time>2024-11-20T12:29:03Z</time>
      </trkpt>
      <trkpt lat="48.16574" lon="-3.32874">
        <ele>222.5</ele>
        <time>2024-11-20T12:29:04Z</time>
      </trkpt>
      <trkpt lat="48.16574" lon="-3.32873">
        <ele>222.4</ele>
        <time>2024-11-20T12:29:05Z</time>
      </trkpt>
      <trkpt lat="48.16574" lon="-3.32871">
        <ele>222.4</ele>
        <time>2024-11-20T12:29:06Z</time>
      </trkpt>
      <trkpt lat="48.16574" lon="-3.32869">
        <ele>222.3</ele>
        <time>2024-11-20T12:29:07Z</time>
      </trkpt>
      <trkpt lat="48.16575" lon="-3.32868">
        <ele>222.2</ele>
        <time>2024-11-20T12:29:08Z</time>
      </trkpt>
      <trkpt lat="48.16575" lon="-3.32866">
        <ele>222.2</ele>
        <time>2024-11-20T12:29:09Z</time>
      </trkpt>
      <trkpt lat="48.16575" lon="-3.32864">
        <ele>222.1</ele>
        <time>2024-11-20T12:29:10Z</time>
      </trkpt>
      <trkpt lat="48.16575" lon="-3.32863">
        <ele>222.1</ele>
        <time>2024-11-20T12:29:11Z</time>
      </trkpt>
      <trkpt lat="48.16576" lon="-3.32861">
        <ele>222</ele>
        <time>2024-11-20T12:29:12Z</time>
      </trkpt>
      <trkpt lat="48.16576" lon="-3.3286">
        <ele>222</ele>
        <time>2024-11-20T12:29:13Z</time>
      </trkpt>
      <trkpt lat="48.16577" lon="-3.32858">
        <ele>222</ele>
        <time>2024-11-20T12:29:14Z</time>
      </trkpt>
      <trkpt lat="48.16578" lon="-3.32856">
        <ele>222</ele>
        <time>2024-11-20T12:29:15Z</time>
      </trkpt>
      <trkpt lat="48.16578" lon="-3.32855">
        <ele>222</ele>
        <time>2024-11-20T12:29:16Z</time>
      </trkpt>
      <trkpt lat="48.16578" lon="-3.32853">
        <ele>222.1</ele>
        <time>2024-11-20T12:29:17Z</time>
      </trkpt>
      <trkpt lat="48.16579" lon="-3.32851">
        <ele>222.1</ele>
        <time>2024-11-20T12:29:18Z</time>
      </trkpt>
      <trkpt lat="48.16579" lon="-3.3285">
        <ele>222.1</ele>
        <time>2024-11-20T12:29:19Z</time>
      </trkpt>
      <trkpt lat="48.1658" lon="-3.32848">
        <ele>222.1</ele>
        <time>2024-11-20T12:29:20Z</time>
      </trkpt>
      <trkpt lat="48.1658" lon="-3.32847">
        <ele>222.1</ele>
        <time>2024-11-20T12:29:21Z</time>
      </trkpt>
      <trkpt lat="48.1658" lon="-3.32845">
        <ele>222.1</ele>
        <time>2024-11-20T12:29:22Z</time>
      </trkpt>
      <trkpt lat="48.16581" lon="-3.32843">
        <ele>222.1</ele>
        <time>2024-11-20T12:29:23Z</time>
      </trkpt>
      <trkpt lat="48.16581" lon="-3.32842">
        <ele>222</ele>
        <time>2024-11-20T12:29:24Z</time>
      </trkpt>
      <trkpt lat="48.16582" lon="-3.3284">
        <ele>222</ele>
        <time>2024-11-20T12:29:25Z</time>
      </trkpt>
      <trkpt lat="48.16582" lon="-3.32838">
        <ele>222</ele>
        <time>2024-11-20T12:29:26Z</time>
      </trkpt>
      <trkpt lat="48.16583" lon="-3.32837">
        <ele>222</ele>
        <time>2024-11-20T12:29:27Z</time>
      </trkpt>
      <trkpt lat="48.16583" lon="-3.32835">
        <ele>222</ele>
        <time>2024-11-20T12:29:28Z</time>
      </trkpt>
      <trkpt lat="48.16583" lon="-3.32833">
        <ele>222</ele>
        <time>2024-11-20T12:29:29Z</time>
      </trkpt>
      <trkpt lat="48.16583" lon="-3.32832">
        <ele>222.1</ele>
        <time>2024-11-20T12:29:30Z</time>
      </trkpt>
      <trkpt lat="48.16584" lon="-3.3283">
        <ele>222.1</ele>
        <time>2024-11-20T12:29:31Z</time>
      </trkpt>
      <trkpt lat="48.16584" lon="-3.32829">
        <ele>222.2</ele>
        <time>2024-11-20T12:29:32Z</time>
      </trkpt>
      <trkpt lat="48.16584" lon="-3.32828">
        <ele>222.2</ele>
        <time>2024-11-20T12:29:33Z</time>
      </trkpt>
      <trkpt lat="48.16585" lon="-3.32827">
        <ele>222.2</ele>
        <time>2024-11-20T12:29:34Z</time>
      </trkpt>
      <trkpt lat="48.16585" lon="-3.32827">
        <ele>222.2</ele>
        <time>2024-11-20T12:29:35Z</time>
      </trkpt>
      <trkpt lat="48.16586" lon="-3.32827">
        <ele>222.2</ele>
        <time>2024-11-20T12:29:36Z</time>
      </trkpt>
      <trkpt lat="48.16586" lon="-3.32827">
        <ele>222.2</ele>
        <time>2024-11-20T12:29:37Z</time>
      </trkpt>
      <trkpt lat="48.16586" lon="-3.32827">
        <ele>222.2</ele>
        <time>2024-11-20T12:29:38Z</time>
      </trkpt>
      <trkpt lat="48.16587" lon="-3.32825">
        <ele>222.2</ele>
        <time>2024-11-20T12:29:39Z</time>
      </trkpt>
      <trkpt lat="48.16587" lon="-3.32824">
        <ele>222.2</ele>
        <time>2024-11-20T12:29:40Z</time>
      </trkpt>
      <trkpt lat="48.16588" lon="-3.32822">
        <ele>222.3</ele>
        <time>2024-11-20T12:29:41Z</time>
      </trkpt>
      <trkpt lat="48.16589" lon="-3.32821">
        <ele>222.3</ele>
        <time>2024-11-20T12:29:42Z</time>
      </trkpt>
      <trkpt lat="48.1659" lon="-3.3282">
        <ele>222.3</ele>
        <time>2024-11-20T12:29:43Z</time>
      </trkpt>
      <trkpt lat="48.16591" lon="-3.32818">
        <ele>222.2</ele>
        <time>2024-11-20T12:29:44Z</time>
      </trkpt>
      <trkpt lat="48.16592" lon="-3.32817">
        <ele>222.2</ele>
        <time>2024-11-20T12:29:45Z</time>
      </trkpt>
      <trkpt lat="48.16592" lon="-3.32815">
        <ele>222.2</ele>
        <time>2024-11-20T12:29:46Z</time>
      </trkpt>
      <trkpt lat="48.16593" lon="-3.32814">
        <ele>222.2</ele>
        <time>2024-11-20T12:29:47Z</time>
      </trkpt>
      <trkpt lat="48.16593" lon="-3.32813">
        <ele>222.2</ele>
        <time>2024-11-20T12:29:48Z</time>
      </trkpt>
      <trkpt lat="48.16594" lon="-3.32811">
        <ele>222.2</ele>
        <time>2024-11-20T12:29:49Z</time>
      </trkpt>
      <trkpt lat="48.16596" lon="-3.3281">
        <ele>222.1</ele>
        <time>2024-11-20T12:29:50Z</time>
      </trkpt>
      <trkpt lat="48.16596" lon="-3.32809">
        <ele>222.1</ele>
        <time>2024-11-20T12:29:51Z</time>
      </trkpt>
      <trkpt lat="48.16597" lon="-3.32808">
        <ele>222</ele>
        <time>2024-11-20T12:29:52Z</time>
      </trkpt>
      <trkpt lat="48.16597" lon="-3.32807">
        <ele>222</ele>
        <time>2024-11-20T12:29:53Z</time>
      </trkpt>
      <trkpt lat="48.16597" lon="-3.32804">
        <ele>222</ele>
        <time>2024-11-20T12:29:54Z</time>
      </trkpt>
      <trkpt lat="48.16598" lon="-3.32802">
        <ele>222</ele>
        <time>2024-11-20T12:29:55Z</time>
      </trkpt>
      <trkpt lat="48.16598" lon="-3.328">
        <ele>222</ele>
        <time>2024-11-20T12:29:56Z</time>
      </trkpt>
      <trkpt lat="48.16598" lon="-3.32798">
        <ele>222.1</ele>
        <time>2024-11-20T12:29:57Z</time>
      </trkpt>
      <trkpt lat="48.16598" lon="-3.32797">
        <ele>222.1</ele>
        <time>2024-11-20T12:29:58Z</time>
      </trkpt>
      <trkpt lat="48.16598" lon="-3.32795">
        <ele>222.2</ele>
        <time>2024-11-20T12:29:59Z</time>
      </trkpt>
      <trkpt lat="48.16598" lon="-3.32793">
        <ele>222.2</ele>
        <time>2024-11-20T12:30:00Z</time>
      </trkpt>
      <trkpt lat="48.16598" lon="-3.32792">
        <ele>222.2</ele>
        <time>2024-11-20T12:30:01Z</time>
      </trkpt>
      <trkpt lat="48.16598" lon="-3.3279">
        <ele>222.2</ele>
        <time>2024-11-20T12:30:02Z</time>
      </trkpt>
      <trkpt lat="48.16598" lon="-3.32788">
        <ele>222.2</ele>
        <time>2024-11-20T12:30:03Z</time>
      </trkpt>
      <trkpt lat="48.16598" lon="-3.32786">
        <ele>222.2</ele>
        <time>2024-11-20T12:30:04Z</time>
      </trkpt>
      <trkpt lat="48.16598" lon="-3.32784">
        <ele>222.3</ele>
        <time>2024-11-20T12:30:05Z</time>
      </trkpt>
      <trkpt lat="48.16599" lon="-3.32783">
        <ele>222.3</ele>
        <time>2024-11-20T12:30:06Z</time>
      </trkpt>
      <trkpt lat="48.16599" lon="-3.32781">
        <ele>222.3</ele>
        <time>2024-11-20T12:30:07Z</time>
      </trkpt>
      <trkpt lat="48.16599" lon="-3.32779">
        <ele>222.3</ele>
        <time>2024-11-20T12:30:08Z</time>
      </trkpt>
      <trkpt lat="48.16599" lon="-3.32778">
        <ele>222.3</ele>
        <time>2024-11-20T12:30:09Z</time>
      </trkpt>
      <trkpt lat="48.16598" lon="-3.32776">
        <ele>222.3</ele>
        <time>2024-11-20T12:30:10Z</time>
      </trkpt>
      <trkpt lat="48.16598" lon="-3.32775">
        <ele>222.3</ele>
        <time>2024-11-20T12:30:11Z</time>
      </trkpt>
      <trkpt lat="48.16598" lon="-3.32774">
        <ele>222.2</ele>
        <time>2024-11-20T12:30:12Z</time>
      </trkpt>
      <trkpt lat="48.16599" lon="-3.32773">
        <ele>222.2</ele>
        <time>2024-11-20T12:30:13Z</time>
      </trkpt>
      <trkpt lat="48.16599" lon="-3.32772">
        <ele>222.1</ele>
        <time>2024-11-20T12:30:14Z</time>
      </trkpt>
      <trkpt lat="48.166" lon="-3.32771">
        <ele>221.9</ele>
        <time>2024-11-20T12:30:15Z</time>
      </trkpt>
      <trkpt lat="48.166" lon="-3.3277">
        <ele>221.8</ele>
        <time>2024-11-20T12:30:16Z</time>
      </trkpt>
      <trkpt lat="48.166" lon="-3.32768">
        <ele>221.8</ele>
        <time>2024-11-20T12:30:17Z</time>
      </trkpt>
      <trkpt lat="48.166" lon="-3.32766">
        <ele>221.7</ele>
        <time>2024-11-20T12:30:18Z</time>
      </trkpt>
      <trkpt lat="48.166" lon="-3.32765">
        <ele>221.6</ele>
        <time>2024-11-20T12:30:19Z</time>
      </trkpt>
      <trkpt lat="48.166" lon="-3.32764">
        <ele>221.6</ele>
        <time>2024-11-20T12:30:20Z</time>
      </trkpt>
      <trkpt lat="48.166" lon="-3.32763">
        <ele>221.5</ele>
        <time>2024-11-20T12:30:21Z</time>
      </trkpt>
      <trkpt lat="48.166" lon="-3.32763">
        <ele>221.5</ele>
        <time>2024-11-20T12:30:22Z</time>
      </trkpt>
      <trkpt lat="48.166" lon="-3.32762">
        <ele>221.5</ele>
        <time>2024-11-20T12:30:23Z</time>
      </trkpt>
      <trkpt lat="48.166" lon="-3.32762">
        <ele>221.5</ele>
        <time>2024-11-20T12:30:24Z</time>
      </trkpt>
      <trkpt lat="48.166" lon="-3.32761">
        <ele>221.5</ele>
        <time>2024-11-20T12:30:25Z</time>
      </trkpt>
      <trkpt lat="48.166" lon="-3.32761">
        <ele>221.5</ele>
        <time>2024-11-20T12:30:26Z</time>
      </trkpt>
      <trkpt lat="48.166" lon="-3.3276">
        <ele>221.5</ele>
        <time>2024-11-20T12:30:27Z</time>
      </trkpt>
      <trkpt lat="48.166" lon="-3.3276">
        <ele>221.5</ele>
        <time>2024-11-20T12:30:28Z</time>
      </trkpt>
      <trkpt lat="48.166" lon="-3.3276">
        <ele>221.5</ele>
        <time>2024-11-20T12:30:29Z</time>
      </trkpt>
      <trkpt lat="48.166" lon="-3.32758">
        <ele>221.4</ele>
        <time>2024-11-20T12:30:30Z</time>
      </trkpt>
      <trkpt lat="48.166" lon="-3.32757">
        <ele>221.4</ele>
        <time>2024-11-20T12:30:31Z</time>
      </trkpt>
      <trkpt lat="48.166" lon="-3.32755">
        <ele>221.3</ele>
        <time>2024-11-20T12:30:32Z</time>
      </trkpt>
      <trkpt lat="48.166" lon="-3.32753">
        <ele>221.2</ele>
        <time>2024-11-20T12:30:33Z</time>
      </trkpt>
      <trkpt lat="48.166" lon="-3.3275">
        <ele>221.1</ele>
        <time>2024-11-20T12:30:34Z</time>
      </trkpt>
      <trkpt lat="48.16599" lon="-3.32747">
        <ele>221</ele>
        <time>2024-11-20T12:30:35Z</time>
      </trkpt>
      <trkpt lat="48.16599" lon="-3.32744">
        <ele>220.9</ele>
        <time>2024-11-20T12:30:36Z</time>
      </trkpt>
      <trkpt lat="48.16599" lon="-3.32741">
        <ele>220.8</ele>
        <time>2024-11-20T12:30:37Z</time>
      </trkpt>
      <trkpt lat="48.16598" lon="-3.32738">
        <ele>220.7</ele>
        <time>2024-11-20T12:30:38Z</time>
      </trkpt>
      <trkpt lat="48.16598" lon="-3.32735">
        <ele>220.6</ele>
        <time>2024-11-20T12:30:39Z</time>
      </trkpt>
      <trkpt lat="48.16598" lon="-3.32731">
        <ele>220.4</ele>
        <time>2024-11-20T12:30:40Z</time>
      </trkpt>
      <trkpt lat="48.16597" lon="-3.32728">
        <ele>220.3</ele>
        <time>2024-11-20T12:30:41Z</time>
      </trkpt>
      <trkpt lat="48.16597" lon="-3.32726">
        <ele>220.3</ele>
        <time>2024-11-20T12:30:42Z</time>
      </trkpt>
      <trkpt lat="48.16596" lon="-3.32723">
        <ele>220.2</ele>
        <time>2024-11-20T12:30:43Z</time>
      </trkpt>
      <trkpt lat="48.16597" lon="-3.32722">
        <ele>220.1</ele>
        <time>2024-11-20T12:30:44Z</time>
      </trkpt>
      <trkpt lat="48.16596" lon="-3.32721">
        <ele>220.1</ele>
        <time>2024-11-20T12:30:45Z</time>
      </trkpt>
      <trkpt lat="48.16596" lon="-3.32718">
        <ele>220.1</ele>
        <time>2024-11-20T12:30:46Z</time>
      </trkpt>
      <trkpt lat="48.16596" lon="-3.32717">
        <ele>220</ele>
        <time>2024-11-20T12:30:47Z</time>
      </trkpt>
      <trkpt lat="48.16596" lon="-3.32715">
        <ele>219.9</ele>
        <time>2024-11-20T12:30:48Z</time>
      </trkpt>
      <trkpt lat="48.16596" lon="-3.32712">
        <ele>219.9</ele>
        <time>2024-11-20T12:30:49Z</time>
      </trkpt>
      <trkpt lat="48.16596" lon="-3.32708">
        <ele>219.7</ele>
        <time>2024-11-20T12:30:50Z</time>
      </trkpt>
      <trkpt lat="48.16596" lon="-3.32706">
        <ele>219.6</ele>
        <time>2024-11-20T12:30:51Z</time>
      </trkpt>
      <trkpt lat="48.16596" lon="-3.32705">
        <ele>219.6</ele>
        <time>2024-11-20T12:30:52Z</time>
      </trkpt>
      <trkpt lat="48.16596" lon="-3.32704">
        <ele>219.6</ele>
        <time>2024-11-20T12:30:53Z</time>
      </trkpt>
      <trkpt lat="48.16595" lon="-3.32703">
        <ele>219.6</ele>
        <time>2024-11-20T12:30:54Z</time>
      </trkpt>
      <trkpt lat="48.16595" lon="-3.32702">
        <ele>219.6</ele>
        <time>2024-11-20T12:30:55Z</time>
      </trkpt>
      <trkpt lat="48.16595" lon="-3.32701">
        <ele>219.6</ele>
        <time>2024-11-20T12:30:56Z</time>
      </trkpt>
      <trkpt lat="48.16595" lon="-3.327">
        <ele>219.6</ele>
        <time>2024-11-20T12:30:57Z</time>
      </trkpt>
      <trkpt lat="48.16595" lon="-3.327">
        <ele>219.5</ele>
        <time>2024-11-20T12:30:58Z</time>
      </trkpt>
      <trkpt lat="48.16595" lon="-3.32698">
        <ele>219.5</ele>
        <time>2024-11-20T12:30:59Z</time>
      </trkpt>
      <trkpt lat="48.16595" lon="-3.32696">
        <ele>219.4</ele>
        <time>2024-11-20T12:31:00Z</time>
      </trkpt>
      <trkpt lat="48.16595" lon="-3.32696">
        <ele>219.3</ele>
        <time>2024-11-20T12:31:01Z</time>
      </trkpt>
      <trkpt lat="48.16596" lon="-3.32696">
        <ele>219.3</ele>
        <time>2024-11-20T12:31:02Z</time>
      </trkpt>
      <trkpt lat="48.16596" lon="-3.32696">
        <ele>219.3</ele>
        <time>2024-11-20T12:31:03Z</time>
      </trkpt>
      <trkpt lat="48.16596" lon="-3.32695">
        <ele>219.2</ele>
        <time>2024-11-20T12:31:04Z</time>
      </trkpt>
      <trkpt lat="48.16597" lon="-3.32693">
        <ele>219.1</ele>
        <time>2024-11-20T12:31:05Z</time>
      </trkpt>
      <trkpt lat="48.16597" lon="-3.32692">
        <ele>219</ele>
        <time>2024-11-20T12:31:06Z</time>
      </trkpt>
      <trkpt lat="48.16597" lon="-3.3269">
        <ele>219</ele>
        <time>2024-11-20T12:31:07Z</time>
      </trkpt>
      <trkpt lat="48.16596" lon="-3.32688">
        <ele>219</ele>
        <time>2024-11-20T12:31:08Z</time>
      </trkpt>
      <trkpt lat="48.16596" lon="-3.32686">
        <ele>219</ele>
        <time>2024-11-20T12:31:09Z</time>
      </trkpt>
      <trkpt lat="48.16596" lon="-3.32684">
        <ele>219</ele>
        <time>2024-11-20T12:31:10Z</time>
      </trkpt>
      <trkpt lat="48.16597" lon="-3.32679">
        <ele>218.8</ele>
        <time>2024-11-20T12:31:11Z</time>
      </trkpt>
      <trkpt lat="48.16597" lon="-3.32677">
        <ele>218.7</ele>
        <time>2024-11-20T12:31:12Z</time>
      </trkpt>
      <trkpt lat="48.16597" lon="-3.32674">
        <ele>218.7</ele>
        <time>2024-11-20T12:31:13Z</time>
      </trkpt>
      <trkpt lat="48.16597" lon="-3.32672">
        <ele>218.6</ele>
        <time>2024-11-20T12:31:14Z</time>
      </trkpt>
      <trkpt lat="48.16598" lon="-3.3267">
        <ele>218.5</ele>
        <time>2024-11-20T12:31:15Z</time>
      </trkpt>
      <trkpt lat="48.16598" lon="-3.32668">
        <ele>218.5</ele>
        <time>2024-11-20T12:31:16Z</time>
      </trkpt>
      <trkpt lat="48.16598" lon="-3.32665">
        <ele>218.5</ele>
        <time>2024-11-20T12:31:17Z</time>
      </trkpt>
      <trkpt lat="48.16597" lon="-3.32662">
        <ele>218.6</ele>
        <time>2024-11-20T12:31:18Z</time>
      </trkpt>
      <trkpt lat="48.16597" lon="-3.3266">
        <ele>218.6</ele>
        <time>2024-11-20T12:31:19Z</time>
      </trkpt>
      <trkpt lat="48.16597" lon="-3.32659">
        <ele>218.7</ele>
        <time>2024-11-20T12:31:20Z</time>
      </trkpt>
      <trkpt lat="48.16597" lon="-3.32657">
        <ele>218.7</ele>
        <time>2024-11-20T12:31:21Z</time>
      </trkpt>
      <trkpt lat="48.16597" lon="-3.32655">
        <ele>218.8</ele>
        <time>2024-11-20T12:31:22Z</time>
      </trkpt>
      <trkpt lat="48.16596" lon="-3.32653">
        <ele>218.8</ele>
        <time>2024-11-20T12:31:23Z</time>
      </trkpt>
      <trkpt lat="48.16596" lon="-3.32652">
        <ele>218.8</ele>
        <time>2024-11-20T12:31:24Z</time>
      </trkpt>
      <trkpt lat="48.16596" lon="-3.32651">
        <ele>218.9</ele>
        <time>2024-11-20T12:31:25Z</time>
      </trkpt>
      <trkpt lat="48.16596" lon="-3.3265">
        <ele>218.9</ele>
        <time>2024-11-20T12:31:26Z</time>
      </trkpt>
      <trkpt lat="48.16596" lon="-3.32648">
        <ele>218.9</ele>
        <time>2024-11-20T12:31:27Z</time>
      </trkpt>
      <trkpt lat="48.16596" lon="-3.32646">
        <ele>219</ele>
        <time>2024-11-20T12:31:28Z</time>
      </trkpt>
      <trkpt lat="48.16596" lon="-3.32645">
        <ele>219</ele>
        <time>2024-11-20T12:31:29Z</time>
      </trkpt>
      <trkpt lat="48.16596" lon="-3.32643">
        <ele>219</ele>
        <time>2024-11-20T12:31:30Z</time>
      </trkpt>
      <trkpt lat="48.16596" lon="-3.32643">
        <ele>219</ele>
        <time>2024-11-20T12:31:31Z</time>
      </trkpt>
      <trkpt lat="48.16596" lon="-3.32642">
        <ele>219</ele>
        <time>2024-11-20T12:31:32Z</time>
      </trkpt>
      <trkpt lat="48.16596" lon="-3.32641">
        <ele>219</ele>
        <time>2024-11-20T12:31:33Z</time>
      </trkpt>
      <trkpt lat="48.16596" lon="-3.32639">
        <ele>219.1</ele>
        <time>2024-11-20T12:31:34Z</time>
      </trkpt>
      <trkpt lat="48.16595" lon="-3.32638">
        <ele>219.1</ele>
        <time>2024-11-20T12:31:35Z</time>
      </trkpt>
      <trkpt lat="48.16595" lon="-3.32636">
        <ele>219.2</ele>
        <time>2024-11-20T12:31:36Z</time>
      </trkpt>
      <trkpt lat="48.16594" lon="-3.32634">
        <ele>219.2</ele>
        <time>2024-11-20T12:31:37Z</time>
      </trkpt>
      <trkpt lat="48.16594" lon="-3.32632">
        <ele>219.3</ele>
        <time>2024-11-20T12:31:38Z</time>
      </trkpt>
      <trkpt lat="48.16594" lon="-3.3263">
        <ele>219.3</ele>
        <time>2024-11-20T12:31:39Z</time>
      </trkpt>
      <trkpt lat="48.16594" lon="-3.32628">
        <ele>219.3</ele>
        <time>2024-11-20T12:31:40Z</time>
      </trkpt>
      <trkpt lat="48.16594" lon="-3.32625">
        <ele>219.3</ele>
        <time>2024-11-20T12:31:41Z</time>
      </trkpt>
      <trkpt lat="48.16594" lon="-3.32623">
        <ele>219.3</ele>
        <time>2024-11-20T12:31:42Z</time>
      </trkpt>
      <trkpt lat="48.16593" lon="-3.3262">
        <ele>219.3</ele>
        <time>2024-11-20T12:31:43Z</time>
      </trkpt>
      <trkpt lat="48.16593" lon="-3.32617">
        <ele>219.3</ele>
        <time>2024-11-20T12:31:44Z</time>
      </trkpt>
      <trkpt lat="48.16593" lon="-3.32615">
        <ele>219.3</ele>
        <time>2024-11-20T12:31:45Z</time>
      </trkpt>
      <trkpt lat="48.16593" lon="-3.32612">
        <ele>219.3</ele>
        <time>2024-11-20T12:31:46Z</time>
      </trkpt>
      <trkpt lat="48.16594" lon="-3.32609">
        <ele>219.3</ele>
        <time>2024-11-20T12:31:47Z</time>
      </trkpt>
      <trkpt lat="48.16594" lon="-3.32607">
        <ele>219.3</ele>
        <time>2024-11-20T12:31:48Z</time>
      </trkpt>
      <trkpt lat="48.16594" lon="-3.32604">
        <ele>219.3</ele>
        <time>2024-11-20T12:31:49Z</time>
      </trkpt>
      <trkpt lat="48.16594" lon="-3.32601">
        <ele>219.2</ele>
        <time>2024-11-20T12:31:50Z</time>
      </trkpt>
      <trkpt lat="48.16595" lon="-3.32598">
        <ele>219.2</ele>
        <time>2024-11-20T12:31:51Z</time>
      </trkpt>
      <trkpt lat="48.16595" lon="-3.32596">
        <ele>219.2</ele>
        <time>2024-11-20T12:31:52Z</time>
      </trkpt>
      <trkpt lat="48.16596" lon="-3.32594">
        <ele>219.1</ele>
        <time>2024-11-20T12:31:53Z</time>
      </trkpt>
      <trkpt lat="48.16596" lon="-3.32593">
        <ele>219.1</ele>
        <time>2024-11-20T12:31:54Z</time>
      </trkpt>
      <trkpt lat="48.16597" lon="-3.32592">
        <ele>219.1</ele>
        <time>2024-11-20T12:31:55Z</time>
      </trkpt>
      <trkpt lat="48.16597" lon="-3.32591">
        <ele>219</ele>
        <time>2024-11-20T12:31:56Z</time>
      </trkpt>
      <trkpt lat="48.16598" lon="-3.32589">
        <ele>219</ele>
        <time>2024-11-20T12:31:57Z</time>
      </trkpt>
      <trkpt lat="48.16598" lon="-3.32588">
        <ele>218.9</ele>
        <time>2024-11-20T12:31:58Z</time>
      </trkpt>
      <trkpt lat="48.166" lon="-3.32587">
        <ele>218.8</ele>
        <time>2024-11-20T12:31:59Z</time>
      </trkpt>
      <trkpt lat="48.16601" lon="-3.32586">
        <ele>218.7</ele>
        <time>2024-11-20T12:32:00Z</time>
      </trkpt>
      <trkpt lat="48.16602" lon="-3.32585">
        <ele>218.6</ele>
        <time>2024-11-20T12:32:01Z</time>
      </trkpt>
      <trkpt lat="48.16603" lon="-3.32584">
        <ele>218.6</ele>
        <time>2024-11-20T12:32:02Z</time>
      </trkpt>
      <trkpt lat="48.16604" lon="-3.32582">
        <ele>218.6</ele>
        <time>2024-11-20T12:32:03Z</time>
      </trkpt>
      <trkpt lat="48.16604" lon="-3.32581">
        <ele>218.6</ele>
        <time>2024-11-20T12:32:04Z</time>
      </trkpt>
      <trkpt lat="48.16605" lon="-3.3258">
        <ele>218.6</ele>
        <time>2024-11-20T12:32:05Z</time>
      </trkpt>
      <trkpt lat="48.16605" lon="-3.32579">
        <ele>218.6</ele>
        <time>2024-11-20T12:32:06Z</time>
      </trkpt>
      <trkpt lat="48.16606" lon="-3.32577">
        <ele>218.6</ele>
        <time>2024-11-20T12:32:07Z</time>
      </trkpt>
      <trkpt lat="48.16607" lon="-3.32576">
        <ele>218.6</ele>
        <time>2024-11-20T12:32:08Z</time>
      </trkpt>
      <trkpt lat="48.16608" lon="-3.32575">
        <ele>218.6</ele>
        <time>2024-11-20T12:32:09Z</time>
      </trkpt>
      <trkpt lat="48.16609" lon="-3.32574">
        <ele>218.5</ele>
        <time>2024-11-20T12:32:10Z</time>
      </trkpt>
      <trkpt lat="48.1661" lon="-3.32572">
        <ele>218.5</ele>
        <time>2024-11-20T12:32:11Z</time>
      </trkpt>
      <trkpt lat="48.16611" lon="-3.32571">
        <ele>218.5</ele>
        <time>2024-11-20T12:32:12Z</time>
      </trkpt>
      <trkpt lat="48.16611" lon="-3.32569">
        <ele>218.5</ele>
        <time>2024-11-20T12:32:13Z</time>
      </trkpt>
      <trkpt lat="48.16612" lon="-3.32568">
        <ele>218.5</ele>
        <time>2024-11-20T12:32:14Z</time>
      </trkpt>
      <trkpt lat="48.16613" lon="-3.32566">
        <ele>218.5</ele>
        <time>2024-11-20T12:32:15Z</time>
      </trkpt>
      <trkpt lat="48.16615" lon="-3.32564">
        <ele>218.5</ele>
        <time>2024-11-20T12:32:16Z</time>
      </trkpt>
      <trkpt lat="48.16616" lon="-3.32562">
        <ele>218.5</ele>
        <time>2024-11-20T12:32:17Z</time>
      </trkpt>
      <trkpt lat="48.16617" lon="-3.32561">
        <ele>218.4</ele>
        <time>2024-11-20T12:32:18Z</time>
      </trkpt>
      <trkpt lat="48.16618" lon="-3.3256">
        <ele>218.4</ele>
        <time>2024-11-20T12:32:19Z</time>
      </trkpt>
      <trkpt lat="48.16619" lon="-3.32558">
        <ele>218.4</ele>
        <time>2024-11-20T12:32:20Z</time>
      </trkpt>
      <trkpt lat="48.16619" lon="-3.32557">
        <ele>218.4</ele>
        <time>2024-11-20T12:32:21Z</time>
      </trkpt>
      <trkpt lat="48.1662" lon="-3.32556">
        <ele>218.4</ele>
        <time>2024-11-20T12:32:22Z</time>
      </trkpt>
      <trkpt lat="48.1662" lon="-3.32555">
        <ele>218.4</ele>
        <time>2024-11-20T12:32:23Z</time>
      </trkpt>
      <trkpt lat="48.16621" lon="-3.32554">
        <ele>218.4</ele>
        <time>2024-11-20T12:32:24Z</time>
      </trkpt>
      <trkpt lat="48.16622" lon="-3.32552">
        <ele>218.3</ele>
        <time>2024-11-20T12:32:25Z</time>
      </trkpt>
      <trkpt lat="48.16623" lon="-3.3255">
        <ele>218.3</ele>
        <time>2024-11-20T12:32:26Z</time>
      </trkpt>
      <trkpt lat="48.16624" lon="-3.32549">
        <ele>218.3</ele>
        <time>2024-11-20T12:32:27Z</time>
      </trkpt>
      <trkpt lat="48.16625" lon="-3.32549">
        <ele>218.2</ele>
        <time>2024-11-20T12:32:28Z</time>
      </trkpt>
      <trkpt lat="48.16625" lon="-3.32549">
        <ele>218.2</ele>
        <time>2024-11-20T12:32:29Z</time>
      </trkpt>
      <trkpt lat="48.16626" lon="-3.32548">
        <ele>218.2</ele>
        <time>2024-11-20T12:32:30Z</time>
      </trkpt>
      <trkpt lat="48.16626" lon="-3.32548">
        <ele>218.2</ele>
        <time>2024-11-20T12:32:31Z</time>
      </trkpt>
      <trkpt lat="48.16626" lon="-3.32548">
        <ele>218.2</ele>
        <time>2024-11-20T12:32:32Z</time>
      </trkpt>
      <trkpt lat="48.16626" lon="-3.32547">
        <ele>218.2</ele>
        <time>2024-11-20T12:32:33Z</time>
      </trkpt>
      <trkpt lat="48.16627" lon="-3.32545">
        <ele>218.2</ele>
        <time>2024-11-20T12:32:34Z</time>
      </trkpt>
      <trkpt lat="48.16628" lon="-3.32544">
        <ele>218.2</ele>
        <time>2024-11-20T12:32:35Z</time>
      </trkpt>
      <trkpt lat="48.16629" lon="-3.32543">
        <ele>218.2</ele>
        <time>2024-11-20T12:32:36Z</time>
      </trkpt>
      <trkpt lat="48.16631" lon="-3.32542">
        <ele>218.1</ele>
        <time>2024-11-20T12:32:37Z</time>
      </trkpt>
      <trkpt lat="48.16632" lon="-3.3254">
        <ele>218.1</ele>
        <time>2024-11-20T12:32:38Z</time>
      </trkpt>
      <trkpt lat="48.16633" lon="-3.32538">
        <ele>218.1</ele>
        <time>2024-11-20T12:32:39Z</time>
      </trkpt>
      <trkpt lat="48.16634" lon="-3.32537">
        <ele>218</ele>
        <time>2024-11-20T12:32:40Z</time>
      </trkpt>
      <trkpt lat="48.16635" lon="-3.32536">
        <ele>218</ele>
        <time>2024-11-20T12:32:41Z</time>
      </trkpt>
      <trkpt lat="48.16635" lon="-3.32535">
        <ele>218</ele>
        <time>2024-11-20T12:32:42Z</time>
      </trkpt>
      <trkpt lat="48.16636" lon="-3.32534">
        <ele>218</ele>
        <time>2024-11-20T12:32:43Z</time>
      </trkpt>
      <trkpt lat="48.16638" lon="-3.32532">
        <ele>217.9</ele>
        <time>2024-11-20T12:32:44Z</time>
      </trkpt>
      <trkpt lat="48.16639" lon="-3.32531">
        <ele>217.9</ele>
        <time>2024-11-20T12:32:45Z</time>
      </trkpt>
      <trkpt lat="48.1664" lon="-3.3253">
        <ele>217.9</ele>
        <time>2024-11-20T12:32:46Z</time>
      </trkpt>
      <trkpt lat="48.16642" lon="-3.32529">
        <ele>217.9</ele>
        <time>2024-11-20T12:32:47Z</time>
      </trkpt>
      <trkpt lat="48.16643" lon="-3.32529">
        <ele>217.8</ele>
        <time>2024-11-20T12:32:48Z</time>
      </trkpt>
      <trkpt lat="48.16644" lon="-3.32528">
        <ele>217.8</ele>
        <time>2024-11-20T12:32:49Z</time>
      </trkpt>
      <trkpt lat="48.16644" lon="-3.32529">
        <ele>217.8</ele>
        <time>2024-11-20T12:32:50Z</time>
      </trkpt>
      <trkpt lat="48.16645" lon="-3.32528">
        <ele>217.8</ele>
        <time>2024-11-20T12:32:51Z</time>
      </trkpt>
      <trkpt lat="48.16645" lon="-3.32527">
        <ele>217.9</ele>
        <time>2024-11-20T12:32:52Z</time>
      </trkpt>
      <trkpt lat="48.16645" lon="-3.32526">
        <ele>218</ele>
        <time>2024-11-20T12:32:53Z</time>
      </trkpt>
      <trkpt lat="48.16645" lon="-3.32524">
        <ele>218.1</ele>
        <time>2024-11-20T12:32:54Z</time>
      </trkpt>
      <trkpt lat="48.16646" lon="-3.32523">
        <ele>218.3</ele>
        <time>2024-11-20T12:32:55Z</time>
      </trkpt>
      <trkpt lat="48.16646" lon="-3.32521">
        <ele>218.5</ele>
        <time>2024-11-20T12:32:56Z</time>
      </trkpt>
      <trkpt lat="48.16646" lon="-3.32519">
        <ele>218.7</ele>
        <time>2024-11-20T12:32:57Z</time>
      </trkpt>
      <trkpt lat="48.16646" lon="-3.32517">
        <ele>218.9</ele>
        <time>2024-11-20T12:32:58Z</time>
      </trkpt>
      <trkpt lat="48.16646" lon="-3.32516">
        <ele>219</ele>
        <time>2024-11-20T12:32:59Z</time>
      </trkpt>
      <trkpt lat="48.16646" lon="-3.32515">
        <ele>219.2</ele>
        <time>2024-11-20T12:33:00Z</time>
      </trkpt>
      <trkpt lat="48.16646" lon="-3.32514">
        <ele>219.3</ele>
        <time>2024-11-20T12:33:01Z</time>
      </trkpt>
      <trkpt lat="48.16646" lon="-3.32513">
        <ele>219.4</ele>
        <time>2024-11-20T12:33:02Z</time>
      </trkpt>
      <trkpt lat="48.16646" lon="-3.32512">
        <ele>219.4</ele>
        <time>2024-11-20T12:33:03Z</time>
      </trkpt>
      <trkpt lat="48.16646" lon="-3.32512">
        <ele>219.5</ele>
        <time>2024-11-20T12:33:04Z</time>
      </trkpt>
      <trkpt lat="48.16646" lon="-3.32511">
        <ele>219.6</ele>
        <time>2024-11-20T12:33:05Z</time>
      </trkpt>
      <trkpt lat="48.16646" lon="-3.32511">
        <ele>219.6</ele>
        <time>2024-11-20T12:33:06Z</time>
      </trkpt>
      <trkpt lat="48.16646" lon="-3.3251">
        <ele>219.7</ele>
        <time>2024-11-20T12:33:07Z</time>
      </trkpt>
      <trkpt lat="48.16646" lon="-3.3251">
        <ele>219.7</ele>
        <time>2024-11-20T12:33:08Z</time>
      </trkpt>
      <trkpt lat="48.16646" lon="-3.3251">
        <ele>219.7</ele>
        <time>2024-11-20T12:33:09Z</time>
      </trkpt>
      <trkpt lat="48.16646" lon="-3.32509">
        <ele>219.7</ele>
        <time>2024-11-20T12:33:10Z</time>
      </trkpt>
      <trkpt lat="48.16646" lon="-3.32509">
        <ele>219.7</ele>
        <time>2024-11-20T12:33:11Z</time>
      </trkpt>
      <trkpt lat="48.16646" lon="-3.32509">
        <ele>219.8</ele>
        <time>2024-11-20T12:33:12Z</time>
      </trkpt>
      <trkpt lat="48.16646" lon="-3.32509">
        <ele>219.8</ele>
        <time>2024-11-20T12:33:13Z</time>
      </trkpt>
      <trkpt lat="48.16646" lon="-3.32508">
        <ele>219.9</ele>
        <time>2024-11-20T12:33:14Z</time>
      </trkpt>
      <trkpt lat="48.16646" lon="-3.32506">
        <ele>220.1</ele>
        <time>2024-11-20T12:33:15Z</time>
      </trkpt>
      <trkpt lat="48.16645" lon="-3.32505">
        <ele>220.2</ele>
        <time>2024-11-20T12:33:16Z</time>
      </trkpt>
      <trkpt lat="48.16645" lon="-3.32504">
        <ele>220.3</ele>
        <time>2024-11-20T12:33:17Z</time>
      </trkpt>
      <trkpt lat="48.16645" lon="-3.32503">
        <ele>220.4</ele>
        <time>2024-11-20T12:33:18Z</time>
      </trkpt>
      <trkpt lat="48.16646" lon="-3.32501">
        <ele>220.6</ele>
        <time>2024-11-20T12:33:19Z</time>
      </trkpt>
      <trkpt lat="48.16646" lon="-3.325">
        <ele>220.8</ele>
        <time>2024-11-20T12:33:20Z</time>
      </trkpt>
      <trkpt lat="48.16646" lon="-3.32498">
        <ele>220.9</ele>
        <time>2024-11-20T12:33:21Z</time>
      </trkpt>
      <trkpt lat="48.16646" lon="-3.32496">
        <ele>221</ele>
        <time>2024-11-20T12:33:22Z</time>
      </trkpt>
      <trkpt lat="48.16646" lon="-3.32495">
        <ele>221.1</ele>
        <time>2024-11-20T12:33:23Z</time>
      </trkpt>
      <trkpt lat="48.16646" lon="-3.32494">
        <ele>221.2</ele>
        <time>2024-11-20T12:33:24Z</time>
      </trkpt>
      <trkpt lat="48.16646" lon="-3.32493">
        <ele>221.2</ele>
        <time>2024-11-20T12:33:25Z</time>
      </trkpt>
      <trkpt lat="48.16647" lon="-3.32492">
        <ele>221.3</ele>
        <time>2024-11-20T12:33:26Z</time>
      </trkpt>
      <trkpt lat="48.16647" lon="-3.3249">
        <ele>221.5</ele>
        <time>2024-11-20T12:33:27Z</time>
      </trkpt>
      <trkpt lat="48.16648" lon="-3.32487">
        <ele>221.6</ele>
        <time>2024-11-20T12:33:28Z</time>
      </trkpt>
      <trkpt lat="48.16648" lon="-3.32485">
        <ele>221.8</ele>
        <time>2024-11-20T12:33:29Z</time>
      </trkpt>
      <trkpt lat="48.16648" lon="-3.32483">
        <ele>221.9</ele>
        <time>2024-11-20T12:33:30Z</time>
      </trkpt>
      <trkpt lat="48.16647" lon="-3.32481">
        <ele>222.1</ele>
        <time>2024-11-20T12:33:31Z</time>
      </trkpt>
      <trkpt lat="48.16647" lon="-3.32478">
        <ele>222.3</ele>
        <time>2024-11-20T12:33:32Z</time>
      </trkpt>
      <trkpt lat="48.16647" lon="-3.32476">
        <ele>222.5</ele>
        <time>2024-11-20T12:33:33Z</time>
      </trkpt>
      <trkpt lat="48.16648" lon="-3.32474">
        <ele>222.6</ele>
        <time>2024-11-20T12:33:34Z</time>
      </trkpt>
      <trkpt lat="48.16648" lon="-3.32473">
        <ele>222.6</ele>
        <time>2024-11-20T12:33:35Z</time>
      </trkpt>
      <trkpt lat="48.16648" lon="-3.32472">
        <ele>222.7</ele>
        <time>2024-11-20T12:33:36Z</time>
      </trkpt>
      <trkpt lat="48.16647" lon="-3.32471">
        <ele>222.8</ele>
        <time>2024-11-20T12:33:37Z</time>
      </trkpt>
      <trkpt lat="48.16647" lon="-3.3247">
        <ele>223</ele>
        <time>2024-11-20T12:33:38Z</time>
      </trkpt>
      <trkpt lat="48.16647" lon="-3.32469">
        <ele>223.1</ele>
        <time>2024-11-20T12:33:39Z</time>
      </trkpt>
      <trkpt lat="48.16647" lon="-3.32468">
        <ele>223.2</ele>
        <time>2024-11-20T12:33:40Z</time>
      </trkpt>
      <trkpt lat="48.16647" lon="-3.32467">
        <ele>223.3</ele>
        <time>2024-11-20T12:33:41Z</time>
      </trkpt>
      <trkpt lat="48.16646" lon="-3.32466">
        <ele>223.5</ele>
        <time>2024-11-20T12:33:42Z</time>
      </trkpt>
      <trkpt lat="48.16646" lon="-3.32465">
        <ele>223.7</ele>
        <time>2024-11-20T12:33:43Z</time>
      </trkpt>
      <trkpt lat="48.16645" lon="-3.32464">
        <ele>223.8</ele>
        <time>2024-11-20T12:33:44Z</time>
      </trkpt>
      <trkpt lat="48.16644" lon="-3.32464">
        <ele>223.9</ele>
        <time>2024-11-20T12:33:45Z</time>
      </trkpt>
      <trkpt lat="48.16644" lon="-3.32462">
        <ele>224.2</ele>
        <time>2024-11-20T12:33:46Z</time>
      </trkpt>
      <trkpt lat="48.16643" lon="-3.32461">
        <ele>224.3</ele>
        <time>2024-11-20T12:33:47Z</time>
      </trkpt>
      <trkpt lat="48.16642" lon="-3.32461">
        <ele>224.4</ele>
        <time>2024-11-20T12:33:48Z</time>
      </trkpt>
      <trkpt lat="48.16641" lon="-3.32461">
        <ele>224.5</ele>
        <time>2024-11-20T12:33:49Z</time>
      </trkpt>
      <trkpt lat="48.16641" lon="-3.32461">
        <ele>224.5</ele>
        <time>2024-11-20T12:33:50Z</time>
      </trkpt>
      <trkpt lat="48.1664" lon="-3.32461">
        <ele>224.6</ele>
        <time>2024-11-20T12:33:51Z</time>
      </trkpt>
      <trkpt lat="48.1664" lon="-3.32461">
        <ele>224.6</ele>
        <time>2024-11-20T12:33:52Z</time>
      </trkpt>
      <trkpt lat="48.16639" lon="-3.32461">
        <ele>224.7</ele>
        <time>2024-11-20T12:33:53Z</time>
      </trkpt>
      <trkpt lat="48.16638" lon="-3.3246">
        <ele>224.7</ele>
        <time>2024-11-20T12:33:54Z</time>
      </trkpt>
      <trkpt lat="48.16637" lon="-3.3246">
        <ele>224.8</ele>
        <time>2024-11-20T12:33:55Z</time>
      </trkpt>
      <trkpt lat="48.16636" lon="-3.32459">
        <ele>224.9</ele>
        <time>2024-11-20T12:33:56Z</time>
      </trkpt>
      <trkpt lat="48.16636" lon="-3.32458">
        <ele>225</ele>
        <time>2024-11-20T12:33:57Z</time>
      </trkpt>
      <trkpt lat="48.16635" lon="-3.32458">
        <ele>225</ele>
        <time>2024-11-20T12:33:58Z</time>
      </trkpt>
      <trkpt lat="48.16634" lon="-3.32458">
        <ele>225</ele>
        <time>2024-11-20T12:33:59Z</time>
      </trkpt>
      <trkpt lat="48.16633" lon="-3.32458">
        <ele>225</ele>
        <time>2024-11-20T12:34:00Z</time>
      </trkpt>
      <trkpt lat="48.16633" lon="-3.32458">
        <ele>225.1</ele>
        <time>2024-11-20T12:34:01Z</time>
      </trkpt>
      <trkpt lat="48.16632" lon="-3.32457">
        <ele>225.1</ele>
        <time>2024-11-20T12:34:02Z</time>
      </trkpt>
      <trkpt lat="48.16631" lon="-3.32457">
        <ele>225.2</ele>
        <time>2024-11-20T12:34:03Z</time>
      </trkpt>
      <trkpt lat="48.16629" lon="-3.32456">
        <ele>225.3</ele>
        <time>2024-11-20T12:34:04Z</time>
      </trkpt>
      <trkpt lat="48.16628" lon="-3.32456">
        <ele>225.3</ele>
        <time>2024-11-20T12:34:05Z</time>
      </trkpt>
      <trkpt lat="48.16627" lon="-3.32455">
        <ele>225.4</ele>
        <time>2024-11-20T12:34:06Z</time>
      </trkpt>
      <trkpt lat="48.16626" lon="-3.32454">
        <ele>225.5</ele>
        <time>2024-11-20T12:34:07Z</time>
      </trkpt>
      <trkpt lat="48.16624" lon="-3.32454">
        <ele>225.5</ele>
        <time>2024-11-20T12:34:08Z</time>
      </trkpt>
      <trkpt lat="48.16623" lon="-3.32454">
        <ele>225.5</ele>
        <time>2024-11-20T12:34:09Z</time>
      </trkpt>
      <trkpt lat="48.16622" lon="-3.32453">
        <ele>225.6</ele>
        <time>2024-11-20T12:34:10Z</time>
      </trkpt>
      <trkpt lat="48.16621" lon="-3.32452">
        <ele>225.6</ele>
        <time>2024-11-20T12:34:11Z</time>
      </trkpt>
      <trkpt lat="48.1662" lon="-3.32451">
        <ele>225.7</ele>
        <time>2024-11-20T12:34:12Z</time>
      </trkpt>
      <trkpt lat="48.16619" lon="-3.3245">
        <ele>225.8</ele>
        <time>2024-11-20T12:34:13Z</time>
      </trkpt>
      <trkpt lat="48.16618" lon="-3.32449">
        <ele>225.8</ele>
        <time>2024-11-20T12:34:14Z</time>
      </trkpt>
      <trkpt lat="48.16617" lon="-3.32448">
        <ele>225.9</ele>
        <time>2024-11-20T12:34:15Z</time>
      </trkpt>
      <trkpt lat="48.16613" lon="-3.32443">
        <ele>226.2</ele>
        <time>2024-11-20T12:34:19Z</time>
      </trkpt>
      <trkpt lat="48.16612" lon="-3.32443">
        <ele>226.2</ele>
        <time>2024-11-20T12:34:20Z</time>
      </trkpt>
      <trkpt lat="48.16611" lon="-3.32442">
        <ele>226.2</ele>
        <time>2024-11-20T12:34:21Z</time>
      </trkpt>
      <trkpt lat="48.1661" lon="-3.32441">
        <ele>226.2</ele>
        <time>2024-11-20T12:34:22Z</time>
      </trkpt>
      <trkpt lat="48.16609" lon="-3.32441">
        <ele>226.3</ele>
        <time>2024-11-20T12:34:23Z</time>
      </trkpt>
      <trkpt lat="48.16608" lon="-3.3244">
        <ele>226.3</ele>
        <time>2024-11-20T12:34:24Z</time>
      </trkpt>
      <trkpt lat="48.16607" lon="-3.32439">
        <ele>226.4</ele>
        <time>2024-11-20T12:34:25Z</time>
      </trkpt>
      <trkpt lat="48.16605" lon="-3.32438">
        <ele>226.5</ele>
        <time>2024-11-20T12:34:26Z</time>
      </trkpt>
      <trkpt lat="48.16604" lon="-3.32437">
        <ele>226.6</ele>
        <time>2024-11-20T12:34:27Z</time>
      </trkpt>
      <trkpt lat="48.16603" lon="-3.32437">
        <ele>226.7</ele>
        <time>2024-11-20T12:34:28Z</time>
      </trkpt>
      <trkpt lat="48.16601" lon="-3.32436">
        <ele>226.7</ele>
        <time>2024-11-20T12:34:29Z</time>
      </trkpt>
      <trkpt lat="48.166" lon="-3.32435">
        <ele>226.8</ele>
        <time>2024-11-20T12:34:30Z</time>
      </trkpt>
      <trkpt lat="48.16599" lon="-3.32435">
        <ele>226.8</ele>
        <time>2024-11-20T12:34:31Z</time>
      </trkpt>
      <trkpt lat="48.16598" lon="-3.32434">
        <ele>226.9</ele>
        <time>2024-11-20T12:34:32Z</time>
      </trkpt>
      <trkpt lat="48.16596" lon="-3.32434">
        <ele>227</ele>
        <time>2024-11-20T12:34:33Z</time>
      </trkpt>
      <trkpt lat="48.16595" lon="-3.32432">
        <ele>227.1</ele>
        <time>2024-11-20T12:34:34Z</time>
      </trkpt>
      <trkpt lat="48.16594" lon="-3.32432">
        <ele>227.2</ele>
        <time>2024-11-20T12:34:35Z</time>
      </trkpt>
      <trkpt lat="48.16593" lon="-3.32431">
        <ele>227.3</ele>
        <time>2024-11-20T12:34:36Z</time>
      </trkpt>
      <trkpt lat="48.16592" lon="-3.3243">
        <ele>227.4</ele>
        <time>2024-11-20T12:34:37Z</time>
      </trkpt>
      <trkpt lat="48.16591" lon="-3.3243">
        <ele>227.5</ele>
        <time>2024-11-20T12:34:38Z</time>
      </trkpt>
      <trkpt lat="48.16589" lon="-3.32426">
        <ele>227.8</ele>
        <time>2024-11-20T12:34:39Z</time>
      </trkpt>
      <trkpt lat="48.16588" lon="-3.32425">
        <ele>228</ele>
        <time>2024-11-20T12:34:40Z</time>
      </trkpt>
      <trkpt lat="48.16587" lon="-3.32424">
        <ele>228.1</ele>
        <time>2024-11-20T12:34:41Z</time>
      </trkpt>
      <trkpt lat="48.16586" lon="-3.32423">
        <ele>228.2</ele>
        <time>2024-11-20T12:34:42Z</time>
      </trkpt>
      <trkpt lat="48.16585" lon="-3.32423">
        <ele>228.3</ele>
        <time>2024-11-20T12:34:43Z</time>
      </trkpt>
      <trkpt lat="48.16584" lon="-3.32422">
        <ele>228.4</ele>
        <time>2024-11-20T12:34:44Z</time>
      </trkpt>
      <trkpt lat="48.16583" lon="-3.32421">
        <ele>228.5</ele>
        <time>2024-11-20T12:34:45Z</time>
      </trkpt>
      <trkpt lat="48.16581" lon="-3.3242">
        <ele>228.5</ele>
        <time>2024-11-20T12:34:46Z</time>
      </trkpt>
      <trkpt lat="48.1658" lon="-3.32419">
        <ele>228.5</ele>
        <time>2024-11-20T12:34:47Z</time>
      </trkpt>
      <trkpt lat="48.16579" lon="-3.32417">
        <ele>228.7</ele>
        <time>2024-11-20T12:34:48Z</time>
      </trkpt>
      <trkpt lat="48.16578" lon="-3.32416">
        <ele>228.7</ele>
        <time>2024-11-20T12:34:49Z</time>
      </trkpt>
      <trkpt lat="48.16577" lon="-3.32414">
        <ele>228.7</ele>
        <time>2024-11-20T12:34:50Z</time>
      </trkpt>
      <trkpt lat="48.16575" lon="-3.32413">
        <ele>228.7</ele>
        <time>2024-11-20T12:34:51Z</time>
      </trkpt>
      <trkpt lat="48.16574" lon="-3.32411">
        <ele>228.7</ele>
        <time>2024-11-20T12:34:52Z</time>
      </trkpt>
      <trkpt lat="48.16574" lon="-3.3241">
        <ele>228.8</ele>
        <time>2024-11-20T12:34:53Z</time>
      </trkpt>
      <trkpt lat="48.16573" lon="-3.32409">
        <ele>228.8</ele>
        <time>2024-11-20T12:34:54Z</time>
      </trkpt>
      <trkpt lat="48.16572" lon="-3.32409">
        <ele>228.7</ele>
        <time>2024-11-20T12:34:55Z</time>
      </trkpt>
      <trkpt lat="48.1657" lon="-3.32408">
        <ele>228.7</ele>
        <time>2024-11-20T12:34:56Z</time>
      </trkpt>
      <trkpt lat="48.1657" lon="-3.32407">
        <ele>228.7</ele>
        <time>2024-11-20T12:34:57Z</time>
      </trkpt>
      <trkpt lat="48.16569" lon="-3.32407">
        <ele>228.7</ele>
        <time>2024-11-20T12:34:58Z</time>
      </trkpt>
      <trkpt lat="48.16568" lon="-3.32405">
        <ele>228.7</ele>
        <time>2024-11-20T12:34:59Z</time>
      </trkpt>
      <trkpt lat="48.16567" lon="-3.32404">
        <ele>228.7</ele>
        <time>2024-11-20T12:35:00Z</time>
      </trkpt>
      <trkpt lat="48.16565" lon="-3.32402">
        <ele>228.8</ele>
        <time>2024-11-20T12:35:01Z</time>
      </trkpt>
      <trkpt lat="48.16564" lon="-3.324">
        <ele>228.8</ele>
        <time>2024-11-20T12:35:02Z</time>
      </trkpt>
      <trkpt lat="48.16563" lon="-3.32399">
        <ele>228.8</ele>
        <time>2024-11-20T12:35:03Z</time>
      </trkpt>
      <trkpt lat="48.16562" lon="-3.32397">
        <ele>228.9</ele>
        <time>2024-11-20T12:35:04Z</time>
      </trkpt>
      <trkpt lat="48.16561" lon="-3.32396">
        <ele>228.9</ele>
        <time>2024-11-20T12:35:05Z</time>
      </trkpt>
      <trkpt lat="48.1656" lon="-3.32394">
        <ele>228.9</ele>
        <time>2024-11-20T12:35:06Z</time>
      </trkpt>
      <trkpt lat="48.16559" lon="-3.32393">
        <ele>229</ele>
        <time>2024-11-20T12:35:07Z</time>
      </trkpt>
      <trkpt lat="48.16558" lon="-3.32392">
        <ele>229</ele>
        <time>2024-11-20T12:35:08Z</time>
      </trkpt>
      <trkpt lat="48.16557" lon="-3.32391">
        <ele>229</ele>
        <time>2024-11-20T12:35:09Z</time>
      </trkpt>
      <trkpt lat="48.16557" lon="-3.3239">
        <ele>229</ele>
        <time>2024-11-20T12:35:10Z</time>
      </trkpt>
      <trkpt lat="48.16556" lon="-3.32389">
        <ele>229</ele>
        <time>2024-11-20T12:35:11Z</time>
      </trkpt>
      <trkpt lat="48.16554" lon="-3.32386">
        <ele>228.9</ele>
        <time>2024-11-20T12:35:12Z</time>
      </trkpt>
      <trkpt lat="48.16553" lon="-3.32386">
        <ele>228.8</ele>
        <time>2024-11-20T12:35:13Z</time>
      </trkpt>
      <trkpt lat="48.16552" lon="-3.32385">
        <ele>228.7</ele>
        <time>2024-11-20T12:35:14Z</time>
      </trkpt>
      <trkpt lat="48.16551" lon="-3.32385">
        <ele>228.7</ele>
        <time>2024-11-20T12:35:15Z</time>
      </trkpt>
      <trkpt lat="48.1655" lon="-3.32384">
        <ele>228.5</ele>
        <time>2024-11-20T12:35:16Z</time>
      </trkpt>
      <trkpt lat="48.16548" lon="-3.32383">
        <ele>228.4</ele>
        <time>2024-11-20T12:35:17Z</time>
      </trkpt>
      <trkpt lat="48.16547" lon="-3.32382">
        <ele>228.4</ele>
        <time>2024-11-20T12:35:18Z</time>
      </trkpt>
      <trkpt lat="48.16546" lon="-3.3238">
        <ele>228.3</ele>
        <time>2024-11-20T12:35:19Z</time>
      </trkpt>
      <trkpt lat="48.16544" lon="-3.32378">
        <ele>228.2</ele>
        <time>2024-11-20T12:35:20Z</time>
      </trkpt>
      <trkpt lat="48.16543" lon="-3.32377">
        <ele>228.1</ele>
        <time>2024-11-20T12:35:21Z</time>
      </trkpt>
      <trkpt lat="48.16542" lon="-3.32376">
        <ele>228</ele>
        <time>2024-11-20T12:35:22Z</time>
      </trkpt>
      <trkpt lat="48.16541" lon="-3.32375">
        <ele>227.9</ele>
        <time>2024-11-20T12:35:23Z</time>
      </trkpt>
      <trkpt lat="48.1654" lon="-3.32374">
        <ele>227.9</ele>
        <time>2024-11-20T12:35:24Z</time>
      </trkpt>
      <trkpt lat="48.16539" lon="-3.32373">
        <ele>227.8</ele>
        <time>2024-11-20T12:35:25Z</time>
      </trkpt>
      <trkpt lat="48.16537" lon="-3.32371">
        <ele>227.7</ele>
        <time>2024-11-20T12:35:26Z</time>
      </trkpt>
      <trkpt lat="48.16536" lon="-3.3237">
        <ele>227.5</ele>
        <time>2024-11-20T12:35:27Z</time>
      </trkpt>
      <trkpt lat="48.16534" lon="-3.32369">
        <ele>227.4</ele>
        <time>2024-11-20T12:35:28Z</time>
      </trkpt>
      <trkpt lat="48.16533" lon="-3.32368">
        <ele>227.3</ele>
        <time>2024-11-20T12:35:29Z</time>
      </trkpt>
      <trkpt lat="48.16532" lon="-3.32366">
        <ele>227.3</ele>
        <time>2024-11-20T12:35:30Z</time>
      </trkpt>
      <trkpt lat="48.16531" lon="-3.32365">
        <ele>227.2</ele>
        <time>2024-11-20T12:35:31Z</time>
      </trkpt>
      <trkpt lat="48.1653" lon="-3.32364">
        <ele>227.1</ele>
        <time>2024-11-20T12:35:32Z</time>
      </trkpt>
      <trkpt lat="48.16529" lon="-3.32363">
        <ele>227.1</ele>
        <time>2024-11-20T12:35:33Z</time>
      </trkpt>
      <trkpt lat="48.16528" lon="-3.32363">
        <ele>227</ele>
        <time>2024-11-20T12:35:34Z</time>
      </trkpt>
      <trkpt lat="48.16527" lon="-3.32362">
        <ele>226.9</ele>
        <time>2024-11-20T12:35:35Z</time>
      </trkpt>
      <trkpt lat="48.16526" lon="-3.32362">
        <ele>226.8</ele>
        <time>2024-11-20T12:35:36Z</time>
      </trkpt>
      <trkpt lat="48.16525" lon="-3.32363">
        <ele>226.8</ele>
        <time>2024-11-20T12:35:37Z</time>
      </trkpt>
      <trkpt lat="48.16524" lon="-3.32363">
        <ele>226.7</ele>
        <time>2024-11-20T12:35:38Z</time>
      </trkpt>
      <trkpt lat="48.16523" lon="-3.32362">
        <ele>226.6</ele>
        <time>2024-11-20T12:35:39Z</time>
      </trkpt>
      <trkpt lat="48.16522" lon="-3.32361">
        <ele>226.6</ele>
        <time>2024-11-20T12:35:40Z</time>
      </trkpt>
      <trkpt lat="48.16522" lon="-3.3236">
        <ele>226.6</ele>
        <time>2024-11-20T12:35:41Z</time>
      </trkpt>
      <trkpt lat="48.1652" lon="-3.3236">
        <ele>226.5</ele>
        <time>2024-11-20T12:35:42Z</time>
      </trkpt>
      <trkpt lat="48.16519" lon="-3.32359">
        <ele>226.4</ele>
        <time>2024-11-20T12:35:43Z</time>
      </trkpt>
      <trkpt lat="48.16518" lon="-3.32359">
        <ele>226.4</ele>
        <time>2024-11-20T12:35:44Z</time>
      </trkpt>
      <trkpt lat="48.16517" lon="-3.32358">
        <ele>226.3</ele>
        <time>2024-11-20T12:35:45Z</time>
      </trkpt>
      <trkpt lat="48.16515" lon="-3.32357">
        <ele>226.2</ele>
        <time>2024-11-20T12:35:46Z</time>
      </trkpt>
      <trkpt lat="48.16514" lon="-3.32356">
        <ele>226.1</ele>
        <time>2024-11-20T12:35:47Z</time>
      </trkpt>
      <trkpt lat="48.16513" lon="-3.32355">
        <ele>226.1</ele>
        <time>2024-11-20T12:35:48Z</time>
      </trkpt>
      <trkpt lat="48.16512" lon="-3.32354">
        <ele>226</ele>
        <time>2024-11-20T12:35:49Z</time>
      </trkpt>
      <trkpt lat="48.16511" lon="-3.32353">
        <ele>225.9</ele>
        <time>2024-11-20T12:35:50Z</time>
      </trkpt>
      <trkpt lat="48.1651" lon="-3.32352">
        <ele>225.8</ele>
        <time>2024-11-20T12:35:51Z</time>
      </trkpt>
      <trkpt lat="48.16509" lon="-3.32352">
        <ele>225.8</ele>
        <time>2024-11-20T12:35:52Z</time>
      </trkpt>
      <trkpt lat="48.16509" lon="-3.32351">
        <ele>225.7</ele>
        <time>2024-11-20T12:35:53Z</time>
      </trkpt>
      <trkpt lat="48.16508" lon="-3.32351">
        <ele>225.7</ele>
        <time>2024-11-20T12:35:54Z</time>
      </trkpt>
      <trkpt lat="48.16507" lon="-3.3235">
        <ele>225.6</ele>
        <time>2024-11-20T12:35:55Z</time>
      </trkpt>
      <trkpt lat="48.16506" lon="-3.32348">
        <ele>225.5</ele>
        <time>2024-11-20T12:35:56Z</time>
      </trkpt>
      <trkpt lat="48.16505" lon="-3.32347">
        <ele>225.5</ele>
        <time>2024-11-20T12:35:57Z</time>
      </trkpt>
      <trkpt lat="48.16504" lon="-3.32345">
        <ele>225.4</ele>
        <time>2024-11-20T12:35:58Z</time>
      </trkpt>
      <trkpt lat="48.16504" lon="-3.32344">
        <ele>225.4</ele>
        <time>2024-11-20T12:35:59Z</time>
      </trkpt>
      <trkpt lat="48.16503" lon="-3.32342">
        <ele>225.3</ele>
        <time>2024-11-20T12:36:00Z</time>
      </trkpt>
      <trkpt lat="48.16503" lon="-3.3234">
        <ele>225.3</ele>
        <time>2024-11-20T12:36:01Z</time>
      </trkpt>
      <trkpt lat="48.16503" lon="-3.32338">
        <ele>225.3</ele>
        <time>2024-11-20T12:36:02Z</time>
      </trkpt>
      <trkpt lat="48.16503" lon="-3.32336">
        <ele>225.3</ele>
        <time>2024-11-20T12:36:03Z</time>
      </trkpt>
      <trkpt lat="48.16502" lon="-3.32335">
        <ele>225.2</ele>
        <time>2024-11-20T12:36:04Z</time>
      </trkpt>
      <trkpt lat="48.16502" lon="-3.32333">
        <ele>225.2</ele>
        <time>2024-11-20T12:36:05Z</time>
      </trkpt>
      <trkpt lat="48.16501" lon="-3.32331">
        <ele>225.2</ele>
        <time>2024-11-20T12:36:06Z</time>
      </trkpt>
      <trkpt lat="48.16502" lon="-3.32329">
        <ele>225.2</ele>
        <time>2024-11-20T12:36:07Z</time>
      </trkpt>
      <trkpt lat="48.16502" lon="-3.32328">
        <ele>225.2</ele>
        <time>2024-11-20T12:36:08Z</time>
      </trkpt>
      <trkpt lat="48.16502" lon="-3.32327">
        <ele>225.2</ele>
        <time>2024-11-20T12:36:09Z</time>
      </trkpt>
      <trkpt lat="48.16502" lon="-3.32325">
        <ele>225.3</ele>
        <time>2024-11-20T12:36:10Z</time>
      </trkpt>
      <trkpt lat="48.16502" lon="-3.32322">
        <ele>225.2</ele>
        <time>2024-11-20T12:36:11Z</time>
      </trkpt>
      <trkpt lat="48.16502" lon="-3.3232">
        <ele>225.2</ele>
        <time>2024-11-20T12:36:12Z</time>
      </trkpt>
      <trkpt lat="48.16502" lon="-3.32319">
        <ele>225.2</ele>
        <time>2024-11-20T12:36:13Z</time>
      </trkpt>
      <trkpt lat="48.16502" lon="-3.32318">
        <ele>225.2</ele>
        <time>2024-11-20T12:36:14Z</time>
      </trkpt>
      <trkpt lat="48.16502" lon="-3.32316">
        <ele>225.2</ele>
        <time>2024-11-20T12:36:15Z</time>
      </trkpt>
      <trkpt lat="48.16502" lon="-3.32314">
        <ele>225.2</ele>
        <time>2024-11-20T12:36:16Z</time>
      </trkpt>
      <trkpt lat="48.16502" lon="-3.32313">
        <ele>225.2</ele>
        <time>2024-11-20T12:36:17Z</time>
      </trkpt>
      <trkpt lat="48.16502" lon="-3.32311">
        <ele>225.2</ele>
        <time>2024-11-20T12:36:18Z</time>
      </trkpt>
      <trkpt lat="48.16502" lon="-3.3231">
        <ele>225.2</ele>
        <time>2024-11-20T12:36:19Z</time>
      </trkpt>
      <trkpt lat="48.16502" lon="-3.32309">
        <ele>225.2</ele>
        <time>2024-11-20T12:36:20Z</time>
      </trkpt>
      <trkpt lat="48.16501" lon="-3.32307">
        <ele>225.2</ele>
        <time>2024-11-20T12:36:21Z</time>
      </trkpt>
      <trkpt lat="48.16502" lon="-3.32306">
        <ele>225.2</ele>
        <time>2024-11-20T12:36:22Z</time>
      </trkpt>
      <trkpt lat="48.16502" lon="-3.32304">
        <ele>225.2</ele>
        <time>2024-11-20T12:36:23Z</time>
      </trkpt>
      <trkpt lat="48.16503" lon="-3.32302">
        <ele>225.3</ele>
        <time>2024-11-20T12:36:24Z</time>
      </trkpt>
      <trkpt lat="48.16504" lon="-3.32301">
        <ele>225.4</ele>
        <time>2024-11-20T12:36:25Z</time>
      </trkpt>
      <trkpt lat="48.16504" lon="-3.323">
        <ele>225.5</ele>
        <time>2024-11-20T12:36:26Z</time>
      </trkpt>
      <trkpt lat="48.16505" lon="-3.32298">
        <ele>225.6</ele>
        <time>2024-11-20T12:36:27Z</time>
      </trkpt>
      <trkpt lat="48.16506" lon="-3.32297">
        <ele>225.6</ele>
        <time>2024-11-20T12:36:28Z</time>
      </trkpt>
      <trkpt lat="48.16506" lon="-3.32295">
        <ele>225.7</ele>
        <time>2024-11-20T12:36:29Z</time>
      </trkpt>
      <trkpt lat="48.16507" lon="-3.32293">
        <ele>225.7</ele>
        <time>2024-11-20T12:36:30Z</time>
      </trkpt>
      <trkpt lat="48.16507" lon="-3.32291">
        <ele>225.8</ele>
        <time>2024-11-20T12:36:31Z</time>
      </trkpt>
      <trkpt lat="48.16508" lon="-3.32289">
        <ele>225.8</ele>
        <time>2024-11-20T12:36:32Z</time>
      </trkpt>
      <trkpt lat="48.16508" lon="-3.32288">
        <ele>225.9</ele>
        <time>2024-11-20T12:36:33Z</time>
      </trkpt>
      <trkpt lat="48.16509" lon="-3.32286">
        <ele>225.9</ele>
        <time>2024-11-20T12:36:34Z</time>
      </trkpt>
      <trkpt lat="48.1651" lon="-3.32284">
        <ele>226</ele>
        <time>2024-11-20T12:36:35Z</time>
      </trkpt>
      <trkpt lat="48.1651" lon="-3.32282">
        <ele>226.1</ele>
        <time>2024-11-20T12:36:36Z</time>
      </trkpt>
      <trkpt lat="48.1651" lon="-3.3228">
        <ele>226.1</ele>
        <time>2024-11-20T12:36:37Z</time>
      </trkpt>
      <trkpt lat="48.16511" lon="-3.32279">
        <ele>226.2</ele>
        <time>2024-11-20T12:36:38Z</time>
      </trkpt>
      <trkpt lat="48.16511" lon="-3.32277">
        <ele>226.2</ele>
        <time>2024-11-20T12:36:39Z</time>
      </trkpt>
      <trkpt lat="48.16512" lon="-3.32275">
        <ele>226.2</ele>
        <time>2024-11-20T12:36:40Z</time>
      </trkpt>
      <trkpt lat="48.16512" lon="-3.32273">
        <ele>226.2</ele>
        <time>2024-11-20T12:36:41Z</time>
      </trkpt>
      <trkpt lat="48.16512" lon="-3.32272">
        <ele>226.2</ele>
        <time>2024-11-20T12:36:42Z</time>
      </trkpt>
      <trkpt lat="48.16512" lon="-3.3227">
        <ele>226.2</ele>
        <time>2024-11-20T12:36:43Z</time>
      </trkpt>
      <trkpt lat="48.16512" lon="-3.32269">
        <ele>226.2</ele>
        <time>2024-11-20T12:36:44Z</time>
      </trkpt>
      <trkpt lat="48.16513" lon="-3.32267">
        <ele>226.2</ele>
        <time>2024-11-20T12:36:45Z</time>
      </trkpt>
      <trkpt lat="48.16513" lon="-3.32266">
        <ele>226.2</ele>
        <time>2024-11-20T12:36:46Z</time>
      </trkpt>
      <trkpt lat="48.16513" lon="-3.32264">
        <ele>226.1</ele>
        <time>2024-11-20T12:36:47Z</time>
      </trkpt>
      <trkpt lat="48.16514" lon="-3.32262">
        <ele>226.2</ele>
        <time>2024-11-20T12:36:48Z</time>
      </trkpt>
      <trkpt lat="48.16514" lon="-3.3226">
        <ele>226.2</ele>
        <time>2024-11-20T12:36:49Z</time>
      </trkpt>
      <trkpt lat="48.16514" lon="-3.32259">
        <ele>226.2</ele>
        <time>2024-11-20T12:36:50Z</time>
      </trkpt>
      <trkpt lat="48.16514" lon="-3.32258">
        <ele>226.2</ele>
        <time>2024-11-20T12:36:51Z</time>
      </trkpt>
      <trkpt lat="48.16514" lon="-3.32258">
        <ele>226.1</ele>
        <time>2024-11-20T12:36:52Z</time>
      </trkpt>
      <trkpt lat="48.16514" lon="-3.32256">
        <ele>226.1</ele>
        <time>2024-11-20T12:36:53Z</time>
      </trkpt>
      <trkpt lat="48.16514" lon="-3.32255">
        <ele>226.1</ele>
        <time>2024-11-20T12:36:54Z</time>
      </trkpt>
      <trkpt lat="48.16515" lon="-3.32253">
        <ele>226.1</ele>
        <time>2024-11-20T12:36:55Z</time>
      </trkpt>
      <trkpt lat="48.16516" lon="-3.32251">
        <ele>226.2</ele>
        <time>2024-11-20T12:36:56Z</time>
      </trkpt>
      <trkpt lat="48.16516" lon="-3.3225">
        <ele>226.2</ele>
        <time>2024-11-20T12:36:57Z</time>
      </trkpt>
      <trkpt lat="48.16517" lon="-3.32248">
        <ele>226.2</ele>
        <time>2024-11-20T12:36:58Z</time>
      </trkpt>
      <trkpt lat="48.16519" lon="-3.32245">
        <ele>226.3</ele>
        <time>2024-11-20T12:36:59Z</time>
      </trkpt>
      <trkpt lat="48.16519" lon="-3.32243">
        <ele>226.3</ele>
        <time>2024-11-20T12:37:00Z</time>
      </trkpt>
      <trkpt lat="48.1652" lon="-3.32242">
        <ele>226.3</ele>
        <time>2024-11-20T12:37:01Z</time>
      </trkpt>
      <trkpt lat="48.1652" lon="-3.32241">
        <ele>226.3</ele>
        <time>2024-11-20T12:37:02Z</time>
      </trkpt>
      <trkpt lat="48.1652" lon="-3.3224">
        <ele>226.4</ele>
        <time>2024-11-20T12:37:03Z</time>
      </trkpt>
      <trkpt lat="48.1652" lon="-3.32239">
        <ele>226.4</ele>
        <time>2024-11-20T12:37:04Z</time>
      </trkpt>
      <trkpt lat="48.16521" lon="-3.32238">
        <ele>226.4</ele>
        <time>2024-11-20T12:37:05Z</time>
      </trkpt>
      <trkpt lat="48.16522" lon="-3.32236">
        <ele>226.5</ele>
        <time>2024-11-20T12:37:06Z</time>
      </trkpt>
      <trkpt lat="48.16523" lon="-3.32234">
        <ele>226.5</ele>
        <time>2024-11-20T12:37:07Z</time>
      </trkpt>
      <trkpt lat="48.16523" lon="-3.32233">
        <ele>226.6</ele>
        <time>2024-11-20T12:37:08Z</time>
      </trkpt>
      <trkpt lat="48.16524" lon="-3.32232">
        <ele>226.6</ele>
        <time>2024-11-20T12:37:09Z</time>
      </trkpt>
      <trkpt lat="48.16524" lon="-3.3223">
        <ele>226.6</ele>
        <time>2024-11-20T12:37:10Z</time>
      </trkpt>
      <trkpt lat="48.16524" lon="-3.32229">
        <ele>226.7</ele>
        <time>2024-11-20T12:37:11Z</time>
      </trkpt>
      <trkpt lat="48.16525" lon="-3.32228">
        <ele>226.7</ele>
        <time>2024-11-20T12:37:12Z</time>
      </trkpt>
      <trkpt lat="48.16525" lon="-3.32226">
        <ele>226.7</ele>
        <time>2024-11-20T12:37:13Z</time>
      </trkpt>
      <trkpt lat="48.16525" lon="-3.32225">
        <ele>226.7</ele>
        <time>2024-11-20T12:37:14Z</time>
      </trkpt>
      <trkpt lat="48.16526" lon="-3.32224">
        <ele>226.8</ele>
        <time>2024-11-20T12:37:15Z</time>
      </trkpt>
      <trkpt lat="48.16526" lon="-3.32222">
        <ele>226.8</ele>
        <time>2024-11-20T12:37:16Z</time>
      </trkpt>
      <trkpt lat="48.16527" lon="-3.3222">
        <ele>226.8</ele>
        <time>2024-11-20T12:37:17Z</time>
      </trkpt>
      <trkpt lat="48.16527" lon="-3.32219">
        <ele>226.8</ele>
        <time>2024-11-20T12:37:18Z</time>
      </trkpt>
      <trkpt lat="48.16528" lon="-3.32217">
        <ele>226.8</ele>
        <time>2024-11-20T12:37:19Z</time>
      </trkpt>
      <trkpt lat="48.16529" lon="-3.32215">
        <ele>226.8</ele>
        <time>2024-11-20T12:37:20Z</time>
      </trkpt>
      <trkpt lat="48.16529" lon="-3.32213">
        <ele>226.7</ele>
        <time>2024-11-20T12:37:21Z</time>
      </trkpt>
      <trkpt lat="48.1653" lon="-3.32211">
        <ele>226.7</ele>
        <time>2024-11-20T12:37:22Z</time>
      </trkpt>
      <trkpt lat="48.16531" lon="-3.32209">
        <ele>226.7</ele>
        <time>2024-11-20T12:37:23Z</time>
      </trkpt>
      <trkpt lat="48.16531" lon="-3.32207">
        <ele>226.7</ele>
        <time>2024-11-20T12:37:24Z</time>
      </trkpt>
      <trkpt lat="48.16533" lon="-3.32204">
        <ele>226.6</ele>
        <time>2024-11-20T12:37:25Z</time>
      </trkpt>
      <trkpt lat="48.16535" lon="-3.32202">
        <ele>226.6</ele>
        <time>2024-11-20T12:37:26Z</time>
      </trkpt>
      <trkpt lat="48.16536" lon="-3.322">
        <ele>226.6</ele>
        <time>2024-11-20T12:37:27Z</time>
      </trkpt>
      <trkpt lat="48.16537" lon="-3.32199">
        <ele>226.5</ele>
        <time>2024-11-20T12:37:28Z</time>
      </trkpt>
      <trkpt lat="48.16537" lon="-3.32197">
        <ele>226.5</ele>
        <time>2024-11-20T12:37:29Z</time>
      </trkpt>
      <trkpt lat="48.16538" lon="-3.32196">
        <ele>226.4</ele>
        <time>2024-11-20T12:37:30Z</time>
      </trkpt>
      <trkpt lat="48.16538" lon="-3.32194">
        <ele>226.4</ele>
        <time>2024-11-20T12:37:31Z</time>
      </trkpt>
      <trkpt lat="48.16539" lon="-3.32193">
        <ele>226.3</ele>
        <time>2024-11-20T12:37:32Z</time>
      </trkpt>
      <trkpt lat="48.1654" lon="-3.32192">
        <ele>226.3</ele>
        <time>2024-11-20T12:37:33Z</time>
      </trkpt>
      <trkpt lat="48.16541" lon="-3.32192">
        <ele>226.3</ele>
        <time>2024-11-20T12:37:34Z</time>
      </trkpt>
      <trkpt lat="48.16541" lon="-3.32192">
        <ele>226.3</ele>
        <time>2024-11-20T12:37:35Z</time>
      </trkpt>
      <trkpt lat="48.16542" lon="-3.32192">
        <ele>226.3</ele>
        <time>2024-11-20T12:37:36Z</time>
      </trkpt>
      <trkpt lat="48.16542" lon="-3.32192">
        <ele>226.3</ele>
        <time>2024-11-20T12:37:37Z</time>
      </trkpt>
      <trkpt lat="48.16542" lon="-3.32191">
        <ele>226.2</ele>
        <time>2024-11-20T12:37:38Z</time>
      </trkpt>
      <trkpt lat="48.16542" lon="-3.32189">
        <ele>226.1</ele>
        <time>2024-11-20T12:37:39Z</time>
      </trkpt>
      <trkpt lat="48.16541" lon="-3.32188">
        <ele>226</ele>
        <time>2024-11-20T12:37:40Z</time>
      </trkpt>
      <trkpt lat="48.16541" lon="-3.32187">
        <ele>225.9</ele>
        <time>2024-11-20T12:37:41Z</time>
      </trkpt>
      <trkpt lat="48.1654" lon="-3.32187">
        <ele>225.9</ele>
        <time>2024-11-20T12:37:42Z</time>
      </trkpt>
      <trkpt lat="48.16539" lon="-3.32186">
        <ele>225.8</ele>
        <time>2024-11-20T12:37:43Z</time>
      </trkpt>
      <trkpt lat="48.16539" lon="-3.32185">
        <ele>225.7</ele>
        <time>2024-11-20T12:37:44Z</time>
      </trkpt>
      <trkpt lat="48.16538" lon="-3.32185">
        <ele>225.7</ele>
        <time>2024-11-20T12:37:45Z</time>
      </trkpt>
      <trkpt lat="48.16537" lon="-3.32184">
        <ele>225.6</ele>
        <time>2024-11-20T12:37:46Z</time>
      </trkpt>
      <trkpt lat="48.16537" lon="-3.32183">
        <ele>225.5</ele>
        <time>2024-11-20T12:37:47Z</time>
      </trkpt>
      <trkpt lat="48.16536" lon="-3.32182">
        <ele>225.4</ele>
        <time>2024-11-20T12:37:48Z</time>
      </trkpt>
      <trkpt lat="48.16535" lon="-3.32179">
        <ele>225.2</ele>
        <time>2024-11-20T12:37:49Z</time>
      </trkpt>
      <trkpt lat="48.16535" lon="-3.32177">
        <ele>225</ele>
        <time>2024-11-20T12:37:50Z</time>
      </trkpt>
      <trkpt lat="48.16535" lon="-3.32175">
        <ele>224.9</ele>
        <time>2024-11-20T12:37:51Z</time>
      </trkpt>
      <trkpt lat="48.16535" lon="-3.32174">
        <ele>224.8</ele>
        <time>2024-11-20T12:37:52Z</time>
      </trkpt>
      <trkpt lat="48.16535" lon="-3.32173">
        <ele>224.7</ele>
        <time>2024-11-20T12:37:53Z</time>
      </trkpt>
      <trkpt lat="48.16535" lon="-3.32172">
        <ele>224.7</ele>
        <time>2024-11-20T12:37:54Z</time>
      </trkpt>
      <trkpt lat="48.16534" lon="-3.32171">
        <ele>224.5</ele>
        <time>2024-11-20T12:37:55Z</time>
      </trkpt>
      <trkpt lat="48.16534" lon="-3.32169">
        <ele>224.4</ele>
        <time>2024-11-20T12:37:56Z</time>
      </trkpt>
      <trkpt lat="48.16534" lon="-3.32167">
        <ele>224.3</ele>
        <time>2024-11-20T12:37:57Z</time>
      </trkpt>
      <trkpt lat="48.16533" lon="-3.32166">
        <ele>224.2</ele>
        <time>2024-11-20T12:37:58Z</time>
      </trkpt>
      <trkpt lat="48.16533" lon="-3.32164">
        <ele>224</ele>
        <time>2024-11-20T12:37:59Z</time>
      </trkpt>
      <trkpt lat="48.16532" lon="-3.32162">
        <ele>223.9</ele>
        <time>2024-11-20T12:38:00Z</time>
      </trkpt>
      <trkpt lat="48.16531" lon="-3.3216">
        <ele>223.8</ele>
        <time>2024-11-20T12:38:01Z</time>
      </trkpt>
      <trkpt lat="48.1653" lon="-3.32158">
        <ele>223.7</ele>
        <time>2024-11-20T12:38:02Z</time>
      </trkpt>
      <trkpt lat="48.1653" lon="-3.32157">
        <ele>223.7</ele>
        <time>2024-11-20T12:38:03Z</time>
      </trkpt>
      <trkpt lat="48.1653" lon="-3.32156">
        <ele>223.6</ele>
        <time>2024-11-20T12:38:04Z</time>
      </trkpt>
      <trkpt lat="48.16529" lon="-3.32156">
        <ele>223.6</ele>
        <time>2024-11-20T12:38:05Z</time>
      </trkpt>
      <trkpt lat="48.16528" lon="-3.32154">
        <ele>223.5</ele>
        <time>2024-11-20T12:38:06Z</time>
      </trkpt>
      <trkpt lat="48.16527" lon="-3.32152">
        <ele>223.4</ele>
        <time>2024-11-20T12:38:07Z</time>
      </trkpt>
      <trkpt lat="48.16526" lon="-3.32151">
        <ele>223.4</ele>
        <time>2024-11-20T12:38:08Z</time>
      </trkpt>
      <trkpt lat="48.16526" lon="-3.3215">
        <ele>223.3</ele>
        <time>2024-11-20T12:38:09Z</time>
      </trkpt>
      <trkpt lat="48.16525" lon="-3.3215">
        <ele>223.3</ele>
        <time>2024-11-20T12:38:10Z</time>
      </trkpt>
      <trkpt lat="48.16524" lon="-3.3215">
        <ele>223.3</ele>
        <time>2024-11-20T12:38:11Z</time>
      </trkpt>
      <trkpt lat="48.16524" lon="-3.3215">
        <ele>223.3</ele>
        <time>2024-11-20T12:38:12Z</time>
      </trkpt>
      <trkpt lat="48.16524" lon="-3.32149">
        <ele>223.2</ele>
        <time>2024-11-20T12:38:13Z</time>
      </trkpt>
      <trkpt lat="48.16523" lon="-3.32147">
        <ele>223.1</ele>
        <time>2024-11-20T12:38:14Z</time>
      </trkpt>
      <trkpt lat="48.16522" lon="-3.32145">
        <ele>223</ele>
        <time>2024-11-20T12:38:15Z</time>
      </trkpt>
      <trkpt lat="48.16522" lon="-3.32143">
        <ele>222.9</ele>
        <time>2024-11-20T12:38:16Z</time>
      </trkpt>
      <trkpt lat="48.16521" lon="-3.32141">
        <ele>222.8</ele>
        <time>2024-11-20T12:38:17Z</time>
      </trkpt>
      <trkpt lat="48.16521" lon="-3.32138">
        <ele>222.7</ele>
        <time>2024-11-20T12:38:18Z</time>
      </trkpt>
      <trkpt lat="48.1652" lon="-3.32135">
        <ele>222.5</ele>
        <time>2024-11-20T12:38:19Z</time>
      </trkpt>
      <trkpt lat="48.1652" lon="-3.32131">
        <ele>222.2</ele>
        <time>2024-11-20T12:38:20Z</time>
      </trkpt>
      <trkpt lat="48.1652" lon="-3.32128">
        <ele>222.1</ele>
        <time>2024-11-20T12:38:21Z</time>
      </trkpt>
      <trkpt lat="48.16519" lon="-3.32126">
        <ele>221.9</ele>
        <time>2024-11-20T12:38:22Z</time>
      </trkpt>
      <trkpt lat="48.16519" lon="-3.32125">
        <ele>221.8</ele>
        <time>2024-11-20T12:38:23Z</time>
      </trkpt>
      <trkpt lat="48.16519" lon="-3.32124">
        <ele>221.8</ele>
        <time>2024-11-20T12:38:24Z</time>
      </trkpt>
      <trkpt lat="48.16518" lon="-3.32122">
        <ele>221.7</ele>
        <time>2024-11-20T12:38:25Z</time>
      </trkpt>
      <trkpt lat="48.16518" lon="-3.32121">
        <ele>221.6</ele>
        <time>2024-11-20T12:38:26Z</time>
      </trkpt>
      <trkpt lat="48.16518" lon="-3.3212">
        <ele>221.5</ele>
        <time>2024-11-20T12:38:27Z</time>
      </trkpt>
      <trkpt lat="48.16518" lon="-3.3212">
        <ele>221.5</ele>
        <time>2024-11-20T12:38:28Z</time>
      </trkpt>
      <trkpt lat="48.16518" lon="-3.32119">
        <ele>221.5</ele>
        <time>2024-11-20T12:38:29Z</time>
      </trkpt>
      <trkpt lat="48.16518" lon="-3.32117">
        <ele>221.3</ele>
        <time>2024-11-20T12:38:30Z</time>
      </trkpt>
      <trkpt lat="48.16518" lon="-3.32115">
        <ele>221.2</ele>
        <time>2024-11-20T12:38:31Z</time>
      </trkpt>
      <trkpt lat="48.16517" lon="-3.32113">
        <ele>221.1</ele>
        <time>2024-11-20T12:38:32Z</time>
      </trkpt>
      <trkpt lat="48.16517" lon="-3.32112">
        <ele>221</ele>
        <time>2024-11-20T12:38:33Z</time>
      </trkpt>
      <trkpt lat="48.16517" lon="-3.32111">
        <ele>221</ele>
        <time>2024-11-20T12:38:34Z</time>
      </trkpt>
      <trkpt lat="48.16517" lon="-3.3211">
        <ele>221</ele>
        <time>2024-11-20T12:38:35Z</time>
      </trkpt>
      <trkpt lat="48.16517" lon="-3.32109">
        <ele>221</ele>
        <time>2024-11-20T12:38:36Z</time>
      </trkpt>
      <trkpt lat="48.16518" lon="-3.32108">
        <ele>221</ele>
        <time>2024-11-20T12:38:37Z</time>
      </trkpt>
      <trkpt lat="48.16517" lon="-3.32106">
        <ele>221</ele>
        <time>2024-11-20T12:38:38Z</time>
      </trkpt>
      <trkpt lat="48.16517" lon="-3.32104">
        <ele>220.9</ele>
        <time>2024-11-20T12:38:39Z</time>
      </trkpt>
      <trkpt lat="48.16517" lon="-3.32101">
        <ele>220.9</ele>
        <time>2024-11-20T12:38:40Z</time>
      </trkpt>
      <trkpt lat="48.16517" lon="-3.32099">
        <ele>220.9</ele>
        <time>2024-11-20T12:38:41Z</time>
      </trkpt>
      <trkpt lat="48.16516" lon="-3.32096">
        <ele>220.9</ele>
        <time>2024-11-20T12:38:42Z</time>
      </trkpt>
      <trkpt lat="48.16516" lon="-3.32094">
        <ele>220.9</ele>
        <time>2024-11-20T12:38:43Z</time>
      </trkpt>
      <trkpt lat="48.16516" lon="-3.32091">
        <ele>220.9</ele>
        <time>2024-11-20T12:38:44Z</time>
      </trkpt>
      <trkpt lat="48.16516" lon="-3.32089">
        <ele>220.9</ele>
        <time>2024-11-20T12:38:45Z</time>
      </trkpt>
      <trkpt lat="48.16515" lon="-3.32086">
        <ele>220.9</ele>
        <time>2024-11-20T12:38:46Z</time>
      </trkpt>
      <trkpt lat="48.16515" lon="-3.32083">
        <ele>220.9</ele>
        <time>2024-11-20T12:38:47Z</time>
      </trkpt>
      <trkpt lat="48.16516" lon="-3.3208">
        <ele>221</ele>
        <time>2024-11-20T12:38:48Z</time>
      </trkpt>
      <trkpt lat="48.16516" lon="-3.32077">
        <ele>221.1</ele>
        <time>2024-11-20T12:38:49Z</time>
      </trkpt>
      <trkpt lat="48.16517" lon="-3.32074">
        <ele>221.1</ele>
        <time>2024-11-20T12:38:50Z</time>
      </trkpt>
      <trkpt lat="48.16517" lon="-3.32071">
        <ele>221.2</ele>
        <time>2024-11-20T12:38:51Z</time>
      </trkpt>
      <trkpt lat="48.16518" lon="-3.32068">
        <ele>221.3</ele>
        <time>2024-11-20T12:38:52Z</time>
      </trkpt>
      <trkpt lat="48.16518" lon="-3.32065">
        <ele>221.4</ele>
        <time>2024-11-20T12:38:53Z</time>
      </trkpt>
      <trkpt lat="48.16518" lon="-3.32062">
        <ele>221.4</ele>
        <time>2024-11-20T12:38:54Z</time>
      </trkpt>
      <trkpt lat="48.16519" lon="-3.3206">
        <ele>221.5</ele>
        <time>2024-11-20T12:38:55Z</time>
      </trkpt>
      <trkpt lat="48.16519" lon="-3.32057">
        <ele>221.5</ele>
        <time>2024-11-20T12:38:56Z</time>
      </trkpt>
      <trkpt lat="48.1652" lon="-3.32055">
        <ele>221.6</ele>
        <time>2024-11-20T12:38:57Z</time>
      </trkpt>
      <trkpt lat="48.16521" lon="-3.32052">
        <ele>221.8</ele>
        <time>2024-11-20T12:38:58Z</time>
      </trkpt>
      <trkpt lat="48.16522" lon="-3.32049">
        <ele>221.9</ele>
        <time>2024-11-20T12:38:59Z</time>
      </trkpt>
      <trkpt lat="48.16523" lon="-3.32047">
        <ele>222.1</ele>
        <time>2024-11-20T12:39:00Z</time>
      </trkpt>
      <trkpt lat="48.16524" lon="-3.32044">
        <ele>222.2</ele>
        <time>2024-11-20T12:39:01Z</time>
      </trkpt>
      <trkpt lat="48.16524" lon="-3.32042">
        <ele>222.3</ele>
        <time>2024-11-20T12:39:02Z</time>
      </trkpt>
      <trkpt lat="48.16525" lon="-3.32039">
        <ele>222.4</ele>
        <time>2024-11-20T12:39:03Z</time>
      </trkpt>
      <trkpt lat="48.16526" lon="-3.32037">
        <ele>222.5</ele>
        <time>2024-11-20T12:39:04Z</time>
      </trkpt>
      <trkpt lat="48.16527" lon="-3.32035">
        <ele>222.5</ele>
        <time>2024-11-20T12:39:05Z</time>
      </trkpt>
      <trkpt lat="48.16528" lon="-3.32034">
        <ele>222.5</ele>
        <time>2024-11-20T12:39:06Z</time>
      </trkpt>
      <trkpt lat="48.16529" lon="-3.32032">
        <ele>222.5</ele>
        <time>2024-11-20T12:39:07Z</time>
      </trkpt>
      <trkpt lat="48.1653" lon="-3.3203">
        <ele>222.5</ele>
        <time>2024-11-20T12:39:08Z</time>
      </trkpt>
      <trkpt lat="48.16531" lon="-3.32029">
        <ele>222.6</ele>
        <time>2024-11-20T12:39:09Z</time>
      </trkpt>
      <trkpt lat="48.16531" lon="-3.32027">
        <ele>222.7</ele>
        <time>2024-11-20T12:39:10Z</time>
      </trkpt>
      <trkpt lat="48.1653" lon="-3.32026">
        <ele>222.9</ele>
        <time>2024-11-20T12:39:11Z</time>
      </trkpt>
      <trkpt lat="48.1653" lon="-3.32025">
        <ele>223</ele>
        <time>2024-11-20T12:39:12Z</time>
      </trkpt>
      <trkpt lat="48.1653" lon="-3.32023">
        <ele>223.1</ele>
        <time>2024-11-20T12:39:13Z</time>
      </trkpt>
      <trkpt lat="48.1653" lon="-3.32021">
        <ele>223.2</ele>
        <time>2024-11-20T12:39:14Z</time>
      </trkpt>
      <trkpt lat="48.16531" lon="-3.32019">
        <ele>223.3</ele>
        <time>2024-11-20T12:39:15Z</time>
      </trkpt>
      <trkpt lat="48.16532" lon="-3.32018">
        <ele>223.3</ele>
        <time>2024-11-20T12:39:16Z</time>
      </trkpt>
      <trkpt lat="48.16532" lon="-3.32016">
        <ele>223.4</ele>
        <time>2024-11-20T12:39:17Z</time>
      </trkpt>
      <trkpt lat="48.16533" lon="-3.32014">
        <ele>223.4</ele>
        <time>2024-11-20T12:39:18Z</time>
      </trkpt>
      <trkpt lat="48.16534" lon="-3.32014">
        <ele>223.4</ele>
        <time>2024-11-20T12:39:19Z</time>
      </trkpt>
      <trkpt lat="48.16535" lon="-3.32012">
        <ele>223.4</ele>
        <time>2024-11-20T12:39:20Z</time>
      </trkpt>
      <trkpt lat="48.16535" lon="-3.32011">
        <ele>223.4</ele>
        <time>2024-11-20T12:39:21Z</time>
      </trkpt>
      <trkpt lat="48.16536" lon="-3.3201">
        <ele>223.5</ele>
        <time>2024-11-20T12:39:22Z</time>
      </trkpt>
      <trkpt lat="48.16536" lon="-3.32008">
        <ele>223.6</ele>
        <time>2024-11-20T12:39:23Z</time>
      </trkpt>
      <trkpt lat="48.16536" lon="-3.32006">
        <ele>223.7</ele>
        <time>2024-11-20T12:39:24Z</time>
      </trkpt>
      <trkpt lat="48.16536" lon="-3.32005">
        <ele>223.8</ele>
        <time>2024-11-20T12:39:25Z</time>
      </trkpt>
      <trkpt lat="48.16536" lon="-3.32003">
        <ele>223.9</ele>
        <time>2024-11-20T12:39:26Z</time>
      </trkpt>
      <trkpt lat="48.16536" lon="-3.32001">
        <ele>224</ele>
        <time>2024-11-20T12:39:27Z</time>
      </trkpt>
      <trkpt lat="48.16537" lon="-3.32">
        <ele>224.1</ele>
        <time>2024-11-20T12:39:28Z</time>
      </trkpt>
      <trkpt lat="48.16537" lon="-3.31998">
        <ele>224.3</ele>
        <time>2024-11-20T12:39:29Z</time>
      </trkpt>
      <trkpt lat="48.16538" lon="-3.31996">
        <ele>224.4</ele>
        <time>2024-11-20T12:39:30Z</time>
      </trkpt>
      <trkpt lat="48.16538" lon="-3.31995">
        <ele>224.5</ele>
        <time>2024-11-20T12:39:31Z</time>
      </trkpt>
      <trkpt lat="48.16538" lon="-3.31993">
        <ele>224.6</ele>
        <time>2024-11-20T12:39:32Z</time>
      </trkpt>
      <trkpt lat="48.16539" lon="-3.31992">
        <ele>224.8</ele>
        <time>2024-11-20T12:39:33Z</time>
      </trkpt>
      <trkpt lat="48.16539" lon="-3.3199">
        <ele>224.9</ele>
        <time>2024-11-20T12:39:34Z</time>
      </trkpt>
      <trkpt lat="48.16538" lon="-3.31989">
        <ele>225.1</ele>
        <time>2024-11-20T12:39:35Z</time>
      </trkpt>
      <trkpt lat="48.16538" lon="-3.31988">
        <ele>225.2</ele>
        <time>2024-11-20T12:39:36Z</time>
      </trkpt>
      <trkpt lat="48.16538" lon="-3.31986">
        <ele>225.4</ele>
        <time>2024-11-20T12:39:37Z</time>
      </trkpt>
      <trkpt lat="48.16538" lon="-3.31985">
        <ele>225.5</ele>
        <time>2024-11-20T12:39:38Z</time>
      </trkpt>
      <trkpt lat="48.16538" lon="-3.31984">
        <ele>225.7</ele>
        <time>2024-11-20T12:39:39Z</time>
      </trkpt>
      <trkpt lat="48.16538" lon="-3.31981">
        <ele>225.9</ele>
        <time>2024-11-20T12:39:41Z</time>
      </trkpt>
      <trkpt lat="48.16539" lon="-3.3198">
        <ele>226</ele>
        <time>2024-11-20T12:39:42Z</time>
      </trkpt>
      <trkpt lat="48.16539" lon="-3.31978">
        <ele>226.2</ele>
        <time>2024-11-20T12:39:43Z</time>
      </trkpt>
      <trkpt lat="48.16538" lon="-3.31977">
        <ele>226.4</ele>
        <time>2024-11-20T12:39:44Z</time>
      </trkpt>
      <trkpt lat="48.16538" lon="-3.31975">
        <ele>226.6</ele>
        <time>2024-11-20T12:39:45Z</time>
      </trkpt>
      <trkpt lat="48.16538" lon="-3.31974">
        <ele>226.7</ele>
        <time>2024-11-20T12:39:46Z</time>
      </trkpt>
      <trkpt lat="48.16538" lon="-3.31972">
        <ele>226.9</ele>
        <time>2024-11-20T12:39:47Z</time>
      </trkpt>
      <trkpt lat="48.16539" lon="-3.31971">
        <ele>227</ele>
        <time>2024-11-20T12:39:48Z</time>
      </trkpt>
      <trkpt lat="48.16539" lon="-3.31969">
        <ele>227.1</ele>
        <time>2024-11-20T12:39:49Z</time>
      </trkpt>
      <trkpt lat="48.1654" lon="-3.31968">
        <ele>227.1</ele>
        <time>2024-11-20T12:39:50Z</time>
      </trkpt>
      <trkpt lat="48.1654" lon="-3.31967">
        <ele>227.2</ele>
        <time>2024-11-20T12:39:51Z</time>
      </trkpt>
      <trkpt lat="48.16541" lon="-3.31965">
        <ele>227.3</ele>
        <time>2024-11-20T12:39:52Z</time>
      </trkpt>
      <trkpt lat="48.16541" lon="-3.31964">
        <ele>227.4</ele>
        <time>2024-11-20T12:39:53Z</time>
      </trkpt>
      <trkpt lat="48.16541" lon="-3.31963">
        <ele>227.5</ele>
        <time>2024-11-20T12:39:54Z</time>
      </trkpt>
      <trkpt lat="48.16542" lon="-3.31962">
        <ele>227.6</ele>
        <time>2024-11-20T12:39:55Z</time>
      </trkpt>
      <trkpt lat="48.16542" lon="-3.31961">
        <ele>227.7</ele>
        <time>2024-11-20T12:39:56Z</time>
      </trkpt>
      <trkpt lat="48.16543" lon="-3.3196">
        <ele>227.8</ele>
        <time>2024-11-20T12:39:57Z</time>
      </trkpt>
      <trkpt lat="48.16543" lon="-3.31958">
        <ele>227.9</ele>
        <time>2024-11-20T12:39:58Z</time>
      </trkpt>
      <trkpt lat="48.16542" lon="-3.31957">
        <ele>228.1</ele>
        <time>2024-11-20T12:39:59Z</time>
      </trkpt>
      <trkpt lat="48.16542" lon="-3.31956">
        <ele>228.3</ele>
        <time>2024-11-20T12:40:00Z</time>
      </trkpt>
      <trkpt lat="48.16542" lon="-3.31954">
        <ele>228.4</ele>
        <time>2024-11-20T12:40:01Z</time>
      </trkpt>
      <trkpt lat="48.16542" lon="-3.31953">
        <ele>228.6</ele>
        <time>2024-11-20T12:40:02Z</time>
      </trkpt>
      <trkpt lat="48.16542" lon="-3.31952">
        <ele>228.7</ele>
        <time>2024-11-20T12:40:03Z</time>
      </trkpt>
      <trkpt lat="48.16542" lon="-3.3195">
        <ele>228.9</ele>
        <time>2024-11-20T12:40:04Z</time>
      </trkpt>
      <trkpt lat="48.16542" lon="-3.31949">
        <ele>229</ele>
        <time>2024-11-20T12:40:05Z</time>
      </trkpt>
      <trkpt lat="48.16542" lon="-3.31947">
        <ele>229.2</ele>
        <time>2024-11-20T12:40:06Z</time>
      </trkpt>
      <trkpt lat="48.16542" lon="-3.31946">
        <ele>229.3</ele>
        <time>2024-11-20T12:40:07Z</time>
      </trkpt>
      <trkpt lat="48.16542" lon="-3.31944">
        <ele>229.5</ele>
        <time>2024-11-20T12:40:08Z</time>
      </trkpt>
      <trkpt lat="48.16542" lon="-3.31943">
        <ele>229.6</ele>
        <time>2024-11-20T12:40:09Z</time>
      </trkpt>
      <trkpt lat="48.16542" lon="-3.31942">
        <ele>229.8</ele>
        <time>2024-11-20T12:40:10Z</time>
      </trkpt>
      <trkpt lat="48.16543" lon="-3.31941">
        <ele>229.9</ele>
        <time>2024-11-20T12:40:11Z</time>
      </trkpt>
      <trkpt lat="48.16543" lon="-3.3194">
        <ele>230</ele>
        <time>2024-11-20T12:40:12Z</time>
      </trkpt>
      <trkpt lat="48.16543" lon="-3.31939">
        <ele>230.1</ele>
        <time>2024-11-20T12:40:13Z</time>
      </trkpt>
      <trkpt lat="48.16543" lon="-3.31938">
        <ele>230.2</ele>
        <time>2024-11-20T12:40:14Z</time>
      </trkpt>
      <trkpt lat="48.16542" lon="-3.31937">
        <ele>230.3</ele>
        <time>2024-11-20T12:40:15Z</time>
      </trkpt>
      <trkpt lat="48.16542" lon="-3.31936">
        <ele>230.4</ele>
        <time>2024-11-20T12:40:16Z</time>
      </trkpt>
      <trkpt lat="48.16541" lon="-3.31935">
        <ele>230.5</ele>
        <time>2024-11-20T12:40:17Z</time>
      </trkpt>
      <trkpt lat="48.16541" lon="-3.31934">
        <ele>230.6</ele>
        <time>2024-11-20T12:40:18Z</time>
      </trkpt>
      <trkpt lat="48.16541" lon="-3.31934">
        <ele>230.6</ele>
        <time>2024-11-20T12:40:19Z</time>
      </trkpt>
      <trkpt lat="48.16541" lon="-3.31933">
        <ele>230.7</ele>
        <time>2024-11-20T12:40:20Z</time>
      </trkpt>
      <trkpt lat="48.1654" lon="-3.31933">
        <ele>230.8</ele>
        <time>2024-11-20T12:40:21Z</time>
      </trkpt>
      <trkpt lat="48.1654" lon="-3.31933">
        <ele>230.8</ele>
        <time>2024-11-20T12:40:22Z</time>
      </trkpt>
      <trkpt lat="48.1654" lon="-3.31932">
        <ele>230.8</ele>
        <time>2024-11-20T12:40:23Z</time>
      </trkpt>
      <trkpt lat="48.1654" lon="-3.31932">
        <ele>230.9</ele>
        <time>2024-11-20T12:40:24Z</time>
      </trkpt>
      <trkpt lat="48.1654" lon="-3.31931">
        <ele>230.9</ele>
        <time>2024-11-20T12:40:25Z</time>
      </trkpt>
      <trkpt lat="48.1654" lon="-3.31931">
        <ele>231</ele>
        <time>2024-11-20T12:40:26Z</time>
      </trkpt>
      <trkpt lat="48.1654" lon="-3.3193">
        <ele>231</ele>
        <time>2024-11-20T12:40:27Z</time>
      </trkpt>
      <trkpt lat="48.1654" lon="-3.3193">
        <ele>231.1</ele>
        <time>2024-11-20T12:40:28Z</time>
      </trkpt>
      <trkpt lat="48.1654" lon="-3.3193">
        <ele>231.1</ele>
        <time>2024-11-20T12:40:29Z</time>
      </trkpt>
      <trkpt lat="48.1654" lon="-3.3193">
        <ele>231.1</ele>
        <time>2024-11-20T12:40:30Z</time>
      </trkpt>
      <trkpt lat="48.1654" lon="-3.3193">
        <ele>231.1</ele>
        <time>2024-11-20T12:40:31Z</time>
      </trkpt>
      <trkpt lat="48.1654" lon="-3.3193">
        <ele>231.1</ele>
        <time>2024-11-20T12:40:32Z</time>
      </trkpt>
      <trkpt lat="48.16539" lon="-3.3193">
        <ele>231.1</ele>
        <time>2024-11-20T12:40:33Z</time>
      </trkpt>
      <trkpt lat="48.16539" lon="-3.3193">
        <ele>231.1</ele>
        <time>2024-11-20T12:40:34Z</time>
      </trkpt>
      <trkpt lat="48.16539" lon="-3.3193">
        <ele>231.1</ele>
        <time>2024-11-20T12:40:35Z</time>
      </trkpt>
      <trkpt lat="48.16539" lon="-3.3193">
        <ele>231.1</ele>
        <time>2024-11-20T12:40:36Z</time>
      </trkpt>
      <trkpt lat="48.16539" lon="-3.3193">
        <ele>231.1</ele>
        <time>2024-11-20T12:40:37Z</time>
      </trkpt>
      <trkpt lat="48.16539" lon="-3.31929">
        <ele>231.1</ele>
        <time>2024-11-20T12:40:38Z</time>
      </trkpt>
      <trkpt lat="48.16539" lon="-3.31929">
        <ele>231.1</ele>
        <time>2024-11-20T12:40:39Z</time>
      </trkpt>
      <trkpt lat="48.16539" lon="-3.31929">
        <ele>231.2</ele>
        <time>2024-11-20T12:40:40Z</time>
      </trkpt>
      <trkpt lat="48.16539" lon="-3.31929">
        <ele>231.2</ele>
        <time>2024-11-20T12:40:41Z</time>
      </trkpt>
      <trkpt lat="48.16539" lon="-3.31929">
        <ele>231.2</ele>
        <time>2024-11-20T12:40:42Z</time>
      </trkpt>
      <trkpt lat="48.1654" lon="-3.31928">
        <ele>231.2</ele>
        <time>2024-11-20T12:40:43Z</time>
      </trkpt>
      <trkpt lat="48.1654" lon="-3.31928">
        <ele>231.2</ele>
        <time>2024-11-20T12:40:44Z</time>
      </trkpt>
      <trkpt lat="48.1654" lon="-3.31928">
        <ele>231.3</ele>
        <time>2024-11-20T12:40:45Z</time>
      </trkpt>
      <trkpt lat="48.16539" lon="-3.31928">
        <ele>231.3</ele>
        <time>2024-11-20T12:40:46Z</time>
      </trkpt>
      <trkpt lat="48.16539" lon="-3.31927">
        <ele>231.4</ele>
        <time>2024-11-20T12:40:48Z</time>
      </trkpt>
      <trkpt lat="48.16539" lon="-3.31927">
        <ele>231.4</ele>
        <time>2024-11-20T12:40:49Z</time>
      </trkpt>
      <trkpt lat="48.16539" lon="-3.31926">
        <ele>231.5</ele>
        <time>2024-11-20T12:40:50Z</time>
      </trkpt>
      <trkpt lat="48.16539" lon="-3.31925">
        <ele>231.6</ele>
        <time>2024-11-20T12:40:51Z</time>
      </trkpt>
      <trkpt lat="48.16539" lon="-3.31925">
        <ele>231.6</ele>
        <time>2024-11-20T12:40:52Z</time>
      </trkpt>
      <trkpt lat="48.16539" lon="-3.31924">
        <ele>231.6</ele>
        <time>2024-11-20T12:40:53Z</time>
      </trkpt>
      <trkpt lat="48.16538" lon="-3.31924">
        <ele>231.7</ele>
        <time>2024-11-20T12:40:54Z</time>
      </trkpt>
      <trkpt lat="48.16538" lon="-3.31924">
        <ele>231.7</ele>
        <time>2024-11-20T12:40:55Z</time>
      </trkpt>
      <trkpt lat="48.16538" lon="-3.31923">
        <ele>231.8</ele>
        <time>2024-11-20T12:40:56Z</time>
      </trkpt>
      <trkpt lat="48.16538" lon="-3.31922">
        <ele>231.9</ele>
        <time>2024-11-20T12:40:57Z</time>
      </trkpt>
      <trkpt lat="48.16537" lon="-3.31921">
        <ele>231.9</ele>
        <time>2024-11-20T12:40:58Z</time>
      </trkpt>
      <trkpt lat="48.16537" lon="-3.31921">
        <ele>231.9</ele>
        <time>2024-11-20T12:40:59Z</time>
      </trkpt>
      <trkpt lat="48.16537" lon="-3.31922">
        <ele>231.8</ele>
        <time>2024-11-20T12:41:00Z</time>
      </trkpt>
      <trkpt lat="48.16537" lon="-3.31923">
        <ele>231.7</ele>
        <time>2024-11-20T12:41:01Z</time>
      </trkpt>
      <trkpt lat="48.16538" lon="-3.31924">
        <ele>231.6</ele>
        <time>2024-11-20T12:41:02Z</time>
      </trkpt>
      <trkpt lat="48.16538" lon="-3.31926">
        <ele>231.5</ele>
        <time>2024-11-20T12:41:03Z</time>
      </trkpt>
      <trkpt lat="48.16539" lon="-3.31927">
        <ele>231.4</ele>
        <time>2024-11-20T12:41:04Z</time>
      </trkpt>
      <trkpt lat="48.16539" lon="-3.31928">
        <ele>231.3</ele>
        <time>2024-11-20T12:41:05Z</time>
      </trkpt>
      <trkpt lat="48.1654" lon="-3.31929">
        <ele>231.1</ele>
        <time>2024-11-20T12:41:06Z</time>
      </trkpt>
      <trkpt lat="48.1654" lon="-3.31931">
        <ele>231</ele>
        <time>2024-11-20T12:41:07Z</time>
      </trkpt>
      <trkpt lat="48.16541" lon="-3.31932">
        <ele>230.8</ele>
        <time>2024-11-20T12:41:08Z</time>
      </trkpt>
      <trkpt lat="48.16542" lon="-3.31933">
        <ele>230.7</ele>
        <time>2024-11-20T12:41:09Z</time>
      </trkpt>
      <trkpt lat="48.16542" lon="-3.31934">
        <ele>230.6</ele>
        <time>2024-11-20T12:41:10Z</time>
      </trkpt>
      <trkpt lat="48.16543" lon="-3.31935">
        <ele>230.5</ele>
        <time>2024-11-20T12:41:11Z</time>
      </trkpt>
      <trkpt lat="48.16543" lon="-3.31936">
        <ele>230.4</ele>
        <time>2024-11-20T12:41:12Z</time>
      </trkpt>
      <trkpt lat="48.16544" lon="-3.31937">
        <ele>230.3</ele>
        <time>2024-11-20T12:41:13Z</time>
      </trkpt>
      <trkpt lat="48.16545" lon="-3.31937">
        <ele>230.2</ele>
        <time>2024-11-20T12:41:14Z</time>
      </trkpt>
      <trkpt lat="48.16545" lon="-3.31938">
        <ele>230.1</ele>
        <time>2024-11-20T12:41:15Z</time>
      </trkpt>
      <trkpt lat="48.16546" lon="-3.31938">
        <ele>230.1</ele>
        <time>2024-11-20T12:41:16Z</time>
      </trkpt>
      <trkpt lat="48.16546" lon="-3.31938">
        <ele>230.1</ele>
        <time>2024-11-20T12:41:17Z</time>
      </trkpt>
      <trkpt lat="48.16547" lon="-3.31939">
        <ele>230</ele>
        <time>2024-11-20T12:41:18Z</time>
      </trkpt>
      <trkpt lat="48.16547" lon="-3.3194">
        <ele>229.9</ele>
        <time>2024-11-20T12:41:19Z</time>
      </trkpt>
      <trkpt lat="48.16548" lon="-3.3194">
        <ele>229.8</ele>
        <time>2024-11-20T12:41:20Z</time>
      </trkpt>
      <trkpt lat="48.16548" lon="-3.31941">
        <ele>229.7</ele>
        <time>2024-11-20T12:41:21Z</time>
      </trkpt>
      <trkpt lat="48.16548" lon="-3.31941">
        <ele>229.7</ele>
        <time>2024-11-20T12:41:22Z</time>
      </trkpt>
      <trkpt lat="48.16548" lon="-3.31941">
        <ele>229.7</ele>
        <time>2024-11-20T12:41:23Z</time>
      </trkpt>
      <trkpt lat="48.16548" lon="-3.31942">
        <ele>229.6</ele>
        <time>2024-11-20T12:41:24Z</time>
      </trkpt>
      <trkpt lat="48.16549" lon="-3.31943">
        <ele>229.5</ele>
        <time>2024-11-20T12:41:25Z</time>
      </trkpt>
      <trkpt lat="48.1655" lon="-3.31943">
        <ele>229.4</ele>
        <time>2024-11-20T12:41:26Z</time>
      </trkpt>
      <trkpt lat="48.16551" lon="-3.31943">
        <ele>229.3</ele>
        <time>2024-11-20T12:41:27Z</time>
      </trkpt>
      <trkpt lat="48.16552" lon="-3.31944">
        <ele>229.2</ele>
        <time>2024-11-20T12:41:28Z</time>
      </trkpt>
      <trkpt lat="48.16553" lon="-3.31944">
        <ele>229.1</ele>
        <time>2024-11-20T12:41:29Z</time>
      </trkpt>
      <trkpt lat="48.16554" lon="-3.31945">
        <ele>229</ele>
        <time>2024-11-20T12:41:30Z</time>
      </trkpt>
      <trkpt lat="48.16555" lon="-3.31945">
        <ele>229</ele>
        <time>2024-11-20T12:41:31Z</time>
      </trkpt>
      <trkpt lat="48.16556" lon="-3.31946">
        <ele>228.9</ele>
        <time>2024-11-20T12:41:32Z</time>
      </trkpt>
      <trkpt lat="48.16557" lon="-3.31946">
        <ele>228.8</ele>
        <time>2024-11-20T12:41:33Z</time>
      </trkpt>
      <trkpt lat="48.16558" lon="-3.31946">
        <ele>228.8</ele>
        <time>2024-11-20T12:41:34Z</time>
      </trkpt>
      <trkpt lat="48.16559" lon="-3.31947">
        <ele>228.8</ele>
        <time>2024-11-20T12:41:35Z</time>
      </trkpt>
      <trkpt lat="48.1656" lon="-3.31947">
        <ele>228.7</ele>
        <time>2024-11-20T12:41:36Z</time>
      </trkpt>
      <trkpt lat="48.16561" lon="-3.31947">
        <ele>228.7</ele>
        <time>2024-11-20T12:41:37Z</time>
      </trkpt>
      <trkpt lat="48.16562" lon="-3.31948">
        <ele>228.7</ele>
        <time>2024-11-20T12:41:38Z</time>
      </trkpt>
      <trkpt lat="48.16563" lon="-3.31948">
        <ele>228.7</ele>
        <time>2024-11-20T12:41:39Z</time>
      </trkpt>
      <trkpt lat="48.16564" lon="-3.31948">
        <ele>228.7</ele>
        <time>2024-11-20T12:41:40Z</time>
      </trkpt>
      <trkpt lat="48.16566" lon="-3.31948">
        <ele>228.7</ele>
        <time>2024-11-20T12:41:41Z</time>
      </trkpt>
      <trkpt lat="48.16566" lon="-3.31948">
        <ele>228.7</ele>
        <time>2024-11-20T12:41:42Z</time>
      </trkpt>
      <trkpt lat="48.16567" lon="-3.31948">
        <ele>228.7</ele>
        <time>2024-11-20T12:41:43Z</time>
      </trkpt>
      <trkpt lat="48.16567" lon="-3.31948">
        <ele>228.7</ele>
        <time>2024-11-20T12:41:44Z</time>
      </trkpt>
      <trkpt lat="48.16567" lon="-3.31948">
        <ele>228.7</ele>
        <time>2024-11-20T12:41:45Z</time>
      </trkpt>
      <trkpt lat="48.16568" lon="-3.31948">
        <ele>228.8</ele>
        <time>2024-11-20T12:41:46Z</time>
      </trkpt>
      <trkpt lat="48.16568" lon="-3.31948">
        <ele>228.8</ele>
        <time>2024-11-20T12:41:47Z</time>
      </trkpt>
      <trkpt lat="48.16569" lon="-3.31948">
        <ele>228.9</ele>
        <time>2024-11-20T12:41:48Z</time>
      </trkpt>
      <trkpt lat="48.1657" lon="-3.31947">
        <ele>228.9</ele>
        <time>2024-11-20T12:41:49Z</time>
      </trkpt>
      <trkpt lat="48.16572" lon="-3.31947">
        <ele>229</ele>
        <time>2024-11-20T12:41:50Z</time>
      </trkpt>
      <trkpt lat="48.16572" lon="-3.31947">
        <ele>229</ele>
        <time>2024-11-20T12:41:51Z</time>
      </trkpt>
      <trkpt lat="48.16573" lon="-3.31948">
        <ele>229</ele>
        <time>2024-11-20T12:41:52Z</time>
      </trkpt>
      <trkpt lat="48.16573" lon="-3.31948">
        <ele>228.9</ele>
        <time>2024-11-20T12:41:53Z</time>
      </trkpt>
      <trkpt lat="48.16574" lon="-3.31948">
        <ele>229</ele>
        <time>2024-11-20T12:41:54Z</time>
      </trkpt>
      <trkpt lat="48.16575" lon="-3.31948">
        <ele>229</ele>
        <time>2024-11-20T12:41:55Z</time>
      </trkpt>
      <trkpt lat="48.16578" lon="-3.31948">
        <ele>229.1</ele>
        <time>2024-11-20T12:41:59Z</time>
      </trkpt>
      <trkpt lat="48.16579" lon="-3.31947">
        <ele>229.2</ele>
        <time>2024-11-20T12:42:00Z</time>
      </trkpt>
      <trkpt lat="48.16579" lon="-3.31947">
        <ele>229.3</ele>
        <time>2024-11-20T12:42:01Z</time>
      </trkpt>
      <trkpt lat="48.16579" lon="-3.31947">
        <ele>229.4</ele>
        <time>2024-11-20T12:42:02Z</time>
      </trkpt>
      <trkpt lat="48.1658" lon="-3.31946">
        <ele>229.5</ele>
        <time>2024-11-20T12:42:03Z</time>
      </trkpt>
      <trkpt lat="48.16582" lon="-3.31946">
        <ele>229.6</ele>
        <time>2024-11-20T12:42:04Z</time>
      </trkpt>
      <trkpt lat="48.16583" lon="-3.31946">
        <ele>229.6</ele>
        <time>2024-11-20T12:42:05Z</time>
      </trkpt>
      <trkpt lat="48.16584" lon="-3.31946">
        <ele>229.6</ele>
        <time>2024-11-20T12:42:06Z</time>
      </trkpt>
      <trkpt lat="48.16585" lon="-3.31946">
        <ele>229.5</ele>
        <time>2024-11-20T12:42:07Z</time>
      </trkpt>
      <trkpt lat="48.16586" lon="-3.31946">
        <ele>229.4</ele>
        <time>2024-11-20T12:42:08Z</time>
      </trkpt>
      <trkpt lat="48.16587" lon="-3.31945">
        <ele>229.5</ele>
        <time>2024-11-20T12:42:09Z</time>
      </trkpt>
      <trkpt lat="48.16588" lon="-3.31945">
        <ele>229.6</ele>
        <time>2024-11-20T12:42:10Z</time>
      </trkpt>
      <trkpt lat="48.16589" lon="-3.31944">
        <ele>229.7</ele>
        <time>2024-11-20T12:42:11Z</time>
      </trkpt>
      <trkpt lat="48.16591" lon="-3.31943">
        <ele>229.7</ele>
        <time>2024-11-20T12:42:12Z</time>
      </trkpt>
      <trkpt lat="48.16593" lon="-3.31942">
        <ele>229.7</ele>
        <time>2024-11-20T12:42:13Z</time>
      </trkpt>
      <trkpt lat="48.16594" lon="-3.31942">
        <ele>229.6</ele>
        <time>2024-11-20T12:42:14Z</time>
      </trkpt>
      <trkpt lat="48.16595" lon="-3.31941">
        <ele>229.6</ele>
        <time>2024-11-20T12:42:15Z</time>
      </trkpt>
      <trkpt lat="48.16598" lon="-3.31941">
        <ele>229.4</ele>
        <time>2024-11-20T12:42:16Z</time>
      </trkpt>
      <trkpt lat="48.166" lon="-3.31941">
        <ele>229.3</ele>
        <time>2024-11-20T12:42:17Z</time>
      </trkpt>
      <trkpt lat="48.16601" lon="-3.31941">
        <ele>229.2</ele>
        <time>2024-11-20T12:42:18Z</time>
      </trkpt>
      <trkpt lat="48.16603" lon="-3.31941">
        <ele>229.2</ele>
        <time>2024-11-20T12:42:19Z</time>
      </trkpt>
      <trkpt lat="48.16604" lon="-3.3194">
        <ele>229.3</ele>
        <time>2024-11-20T12:42:20Z</time>
      </trkpt>
      <trkpt lat="48.16605" lon="-3.31939">
        <ele>229.3</ele>
        <time>2024-11-20T12:42:21Z</time>
      </trkpt>
      <trkpt lat="48.16606" lon="-3.31939">
        <ele>229.3</ele>
        <time>2024-11-20T12:42:22Z</time>
      </trkpt>
      <trkpt lat="48.16608" lon="-3.31939">
        <ele>229.2</ele>
        <time>2024-11-20T12:42:23Z</time>
      </trkpt>
      <trkpt lat="48.16609" lon="-3.31939">
        <ele>229.2</ele>
        <time>2024-11-20T12:42:24Z</time>
      </trkpt>
      <trkpt lat="48.1661" lon="-3.31938">
        <ele>229.2</ele>
        <time>2024-11-20T12:42:25Z</time>
      </trkpt>
      <trkpt lat="48.1661" lon="-3.31938">
        <ele>229.3</ele>
        <time>2024-11-20T12:42:26Z</time>
      </trkpt>
      <trkpt lat="48.16611" lon="-3.31937">
        <ele>229.3</ele>
        <time>2024-11-20T12:42:27Z</time>
      </trkpt>
      <trkpt lat="48.16612" lon="-3.31937">
        <ele>229.3</ele>
        <time>2024-11-20T12:42:28Z</time>
      </trkpt>
      <trkpt lat="48.16614" lon="-3.31937">
        <ele>229.1</ele>
        <time>2024-11-20T12:42:29Z</time>
      </trkpt>
      <trkpt lat="48.16615" lon="-3.31937">
        <ele>229</ele>
        <time>2024-11-20T12:42:30Z</time>
      </trkpt>
      <trkpt lat="48.16616" lon="-3.31937">
        <ele>228.9</ele>
        <time>2024-11-20T12:42:31Z</time>
      </trkpt>
      <trkpt lat="48.16618" lon="-3.31937">
        <ele>228.9</ele>
        <time>2024-11-20T12:42:32Z</time>
      </trkpt>
      <trkpt lat="48.16619" lon="-3.31936">
        <ele>228.8</ele>
        <time>2024-11-20T12:42:33Z</time>
      </trkpt>
      <trkpt lat="48.1662" lon="-3.31936">
        <ele>228.8</ele>
        <time>2024-11-20T12:42:34Z</time>
      </trkpt>
      <trkpt lat="48.16621" lon="-3.31936">
        <ele>228.7</ele>
        <time>2024-11-20T12:42:35Z</time>
      </trkpt>
      <trkpt lat="48.16622" lon="-3.31936">
        <ele>228.6</ele>
        <time>2024-11-20T12:42:36Z</time>
      </trkpt>
      <trkpt lat="48.16624" lon="-3.31936">
        <ele>228.5</ele>
        <time>2024-11-20T12:42:37Z</time>
      </trkpt>
      <trkpt lat="48.16626" lon="-3.31937">
        <ele>228.3</ele>
        <time>2024-11-20T12:42:38Z</time>
      </trkpt>
      <trkpt lat="48.16628" lon="-3.31937">
        <ele>228.1</ele>
        <time>2024-11-20T12:42:39Z</time>
      </trkpt>
      <trkpt lat="48.16629" lon="-3.31937">
        <ele>227.9</ele>
        <time>2024-11-20T12:42:40Z</time>
      </trkpt>
      <trkpt lat="48.16631" lon="-3.31937">
        <ele>227.7</ele>
        <time>2024-11-20T12:42:41Z</time>
      </trkpt>
      <trkpt lat="48.16633" lon="-3.31937">
        <ele>227.6</ele>
        <time>2024-11-20T12:42:42Z</time>
      </trkpt>
      <trkpt lat="48.16634" lon="-3.31937">
        <ele>227.5</ele>
        <time>2024-11-20T12:42:43Z</time>
      </trkpt>
      <trkpt lat="48.16636" lon="-3.31937">
        <ele>227.5</ele>
        <time>2024-11-20T12:42:44Z</time>
      </trkpt>
      <trkpt lat="48.16637" lon="-3.31936">
        <ele>227.4</ele>
        <time>2024-11-20T12:42:45Z</time>
      </trkpt>
      <trkpt lat="48.16639" lon="-3.31936">
        <ele>227.4</ele>
        <time>2024-11-20T12:42:46Z</time>
      </trkpt>
      <trkpt lat="48.16641" lon="-3.31936">
        <ele>227.4</ele>
        <time>2024-11-20T12:42:47Z</time>
      </trkpt>
      <trkpt lat="48.16642" lon="-3.31936">
        <ele>227.4</ele>
        <time>2024-11-20T12:42:48Z</time>
      </trkpt>
      <trkpt lat="48.16644" lon="-3.31936">
        <ele>227.4</ele>
        <time>2024-11-20T12:42:49Z</time>
      </trkpt>
      <trkpt lat="48.16645" lon="-3.31936">
        <ele>227.3</ele>
        <time>2024-11-20T12:42:50Z</time>
      </trkpt>
      <trkpt lat="48.16647" lon="-3.31935">
        <ele>227.4</ele>
        <time>2024-11-20T12:42:51Z</time>
      </trkpt>
      <trkpt lat="48.16649" lon="-3.31935">
        <ele>227.4</ele>
        <time>2024-11-20T12:42:52Z</time>
      </trkpt>
      <trkpt lat="48.16651" lon="-3.31935">
        <ele>227.4</ele>
        <time>2024-11-20T12:42:53Z</time>
      </trkpt>
      <trkpt lat="48.16652" lon="-3.31934">
        <ele>227.4</ele>
        <time>2024-11-20T12:42:54Z</time>
      </trkpt>
      <trkpt lat="48.16653" lon="-3.31935">
        <ele>227.4</ele>
        <time>2024-11-20T12:42:55Z</time>
      </trkpt>
      <trkpt lat="48.16654" lon="-3.31935">
        <ele>227.3</ele>
        <time>2024-11-20T12:42:56Z</time>
      </trkpt>
      <trkpt lat="48.16655" lon="-3.31935">
        <ele>227.3</ele>
        <time>2024-11-20T12:42:57Z</time>
      </trkpt>
      <trkpt lat="48.16656" lon="-3.31934">
        <ele>227.3</ele>
        <time>2024-11-20T12:42:58Z</time>
      </trkpt>
      <trkpt lat="48.16657" lon="-3.31934">
        <ele>227.3</ele>
        <time>2024-11-20T12:42:59Z</time>
      </trkpt>
      <trkpt lat="48.16659" lon="-3.31934">
        <ele>227.3</ele>
        <time>2024-11-20T12:43:00Z</time>
      </trkpt>
      <trkpt lat="48.16661" lon="-3.31934">
        <ele>227.1</ele>
        <time>2024-11-20T12:43:01Z</time>
      </trkpt>
      <trkpt lat="48.16662" lon="-3.31935">
        <ele>227</ele>
        <time>2024-11-20T12:43:02Z</time>
      </trkpt>
      <trkpt lat="48.16663" lon="-3.31935">
        <ele>226.8</ele>
        <time>2024-11-20T12:43:03Z</time>
      </trkpt>
      <trkpt lat="48.16665" lon="-3.31936">
        <ele>226.7</ele>
        <time>2024-11-20T12:43:04Z</time>
      </trkpt>
      <trkpt lat="48.16666" lon="-3.31936">
        <ele>226.5</ele>
        <time>2024-11-20T12:43:05Z</time>
      </trkpt>
      <trkpt lat="48.16667" lon="-3.31936">
        <ele>226.6</ele>
        <time>2024-11-20T12:43:06Z</time>
      </trkpt>
      <trkpt lat="48.16668" lon="-3.31935">
        <ele>226.6</ele>
        <time>2024-11-20T12:43:07Z</time>
      </trkpt>
      <trkpt lat="48.1667" lon="-3.31935">
        <ele>226.7</ele>
        <time>2024-11-20T12:43:08Z</time>
      </trkpt>
      <trkpt lat="48.16671" lon="-3.31934">
        <ele>226.8</ele>
        <time>2024-11-20T12:43:09Z</time>
      </trkpt>
      <trkpt lat="48.16672" lon="-3.31934">
        <ele>226.8</ele>
        <time>2024-11-20T12:43:10Z</time>
      </trkpt>
      <trkpt lat="48.16673" lon="-3.31934">
        <ele>226.8</ele>
        <time>2024-11-20T12:43:11Z</time>
      </trkpt>
      <trkpt lat="48.16674" lon="-3.31934">
        <ele>226.7</ele>
        <time>2024-11-20T12:43:12Z</time>
      </trkpt>
      <trkpt lat="48.16675" lon="-3.31934">
        <ele>226.6</ele>
        <time>2024-11-20T12:43:13Z</time>
      </trkpt>
      <trkpt lat="48.16676" lon="-3.31935">
        <ele>226.5</ele>
        <time>2024-11-20T12:43:14Z</time>
      </trkpt>
      <trkpt lat="48.16677" lon="-3.31934">
        <ele>226.5</ele>
        <time>2024-11-20T12:43:15Z</time>
      </trkpt>
      <trkpt lat="48.16678" lon="-3.31934">
        <ele>226.5</ele>
        <time>2024-11-20T12:43:16Z</time>
      </trkpt>
      <trkpt lat="48.1668" lon="-3.31934">
        <ele>226.4</ele>
        <time>2024-11-20T12:43:17Z</time>
      </trkpt>
      <trkpt lat="48.16681" lon="-3.31934">
        <ele>226.4</ele>
        <time>2024-11-20T12:43:18Z</time>
      </trkpt>
      <trkpt lat="48.16682" lon="-3.31934">
        <ele>226.4</ele>
        <time>2024-11-20T12:43:19Z</time>
      </trkpt>
      <trkpt lat="48.16683" lon="-3.31935">
        <ele>226.3</ele>
        <time>2024-11-20T12:43:20Z</time>
      </trkpt>
      <trkpt lat="48.16683" lon="-3.31935">
        <ele>226.2</ele>
        <time>2024-11-20T12:43:21Z</time>
      </trkpt>
      <trkpt lat="48.16684" lon="-3.31935">
        <ele>226.1</ele>
        <time>2024-11-20T12:43:22Z</time>
      </trkpt>
      <trkpt lat="48.16686" lon="-3.31935">
        <ele>226.1</ele>
        <time>2024-11-20T12:43:23Z</time>
      </trkpt>
      <trkpt lat="48.16687" lon="-3.31935">
        <ele>226</ele>
        <time>2024-11-20T12:43:24Z</time>
      </trkpt>
      <trkpt lat="48.16688" lon="-3.31935">
        <ele>226</ele>
        <time>2024-11-20T12:43:25Z</time>
      </trkpt>
      <trkpt lat="48.1669" lon="-3.31935">
        <ele>225.9</ele>
        <time>2024-11-20T12:43:26Z</time>
      </trkpt>
      <trkpt lat="48.16691" lon="-3.31935">
        <ele>225.8</ele>
        <time>2024-11-20T12:43:27Z</time>
      </trkpt>
      <trkpt lat="48.16692" lon="-3.31935">
        <ele>225.7</ele>
        <time>2024-11-20T12:43:28Z</time>
      </trkpt>
      <trkpt lat="48.16693" lon="-3.31935">
        <ele>225.7</ele>
        <time>2024-11-20T12:43:29Z</time>
      </trkpt>
      <trkpt lat="48.16693" lon="-3.31935">
        <ele>225.7</ele>
        <time>2024-11-20T12:43:30Z</time>
      </trkpt>
      <trkpt lat="48.16694" lon="-3.31935">
        <ele>225.7</ele>
        <time>2024-11-20T12:43:31Z</time>
      </trkpt>
      <trkpt lat="48.16694" lon="-3.31936">
        <ele>225.6</ele>
        <time>2024-11-20T12:43:32Z</time>
      </trkpt>
      <trkpt lat="48.16695" lon="-3.31936">
        <ele>225.5</ele>
        <time>2024-11-20T12:43:33Z</time>
      </trkpt>
      <trkpt lat="48.16696" lon="-3.31936">
        <ele>225.4</ele>
        <time>2024-11-20T12:43:34Z</time>
      </trkpt>
      <trkpt lat="48.16697" lon="-3.31937">
        <ele>225.3</ele>
        <time>2024-11-20T12:43:35Z</time>
      </trkpt>
      <trkpt lat="48.16698" lon="-3.31937">
        <ele>225.2</ele>
        <time>2024-11-20T12:43:36Z</time>
      </trkpt>
      <trkpt lat="48.16699" lon="-3.31937">
        <ele>225.1</ele>
        <time>2024-11-20T12:43:37Z</time>
      </trkpt>
      <trkpt lat="48.16701" lon="-3.31937">
        <ele>225.1</ele>
        <time>2024-11-20T12:43:38Z</time>
      </trkpt>
      <trkpt lat="48.16703" lon="-3.31937">
        <ele>225</ele>
        <time>2024-11-20T12:43:39Z</time>
      </trkpt>
      <trkpt lat="48.16704" lon="-3.31937">
        <ele>224.9</ele>
        <time>2024-11-20T12:43:40Z</time>
      </trkpt>
      <trkpt lat="48.16705" lon="-3.31937">
        <ele>224.9</ele>
        <time>2024-11-20T12:43:41Z</time>
      </trkpt>
      <trkpt lat="48.16706" lon="-3.31937">
        <ele>224.9</ele>
        <time>2024-11-20T12:43:42Z</time>
      </trkpt>
      <trkpt lat="48.16707" lon="-3.31938">
        <ele>224.8</ele>
        <time>2024-11-20T12:43:43Z</time>
      </trkpt>
      <trkpt lat="48.16709" lon="-3.31939">
        <ele>224.5</ele>
        <time>2024-11-20T12:43:44Z</time>
      </trkpt>
      <trkpt lat="48.1671" lon="-3.31939">
        <ele>224.4</ele>
        <time>2024-11-20T12:43:45Z</time>
      </trkpt>
      <trkpt lat="48.16711" lon="-3.31939">
        <ele>224.4</ele>
        <time>2024-11-20T12:43:46Z</time>
      </trkpt>
      <trkpt lat="48.16712" lon="-3.31939">
        <ele>224.4</ele>
        <time>2024-11-20T12:43:47Z</time>
      </trkpt>
      <trkpt lat="48.16713" lon="-3.31939">
        <ele>224.5</ele>
        <time>2024-11-20T12:43:48Z</time>
      </trkpt>
      <trkpt lat="48.16714" lon="-3.31939">
        <ele>224.5</ele>
        <time>2024-11-20T12:43:49Z</time>
      </trkpt>
      <trkpt lat="48.16715" lon="-3.31938">
        <ele>224.7</ele>
        <time>2024-11-20T12:43:50Z</time>
      </trkpt>
      <trkpt lat="48.16716" lon="-3.31937">
        <ele>224.9</ele>
        <time>2024-11-20T12:43:51Z</time>
      </trkpt>
      <trkpt lat="48.16717" lon="-3.31937">
        <ele>225</ele>
        <time>2024-11-20T12:43:52Z</time>
      </trkpt>
      <trkpt lat="48.16718" lon="-3.31937">
        <ele>225</ele>
        <time>2024-11-20T12:43:53Z</time>
      </trkpt>
      <trkpt lat="48.16719" lon="-3.31937">
        <ele>224.9</ele>
        <time>2024-11-20T12:43:54Z</time>
      </trkpt>
      <trkpt lat="48.1672" lon="-3.31937">
        <ele>224.9</ele>
        <time>2024-11-20T12:43:55Z</time>
      </trkpt>
      <trkpt lat="48.16721" lon="-3.31937">
        <ele>225</ele>
        <time>2024-11-20T12:43:56Z</time>
      </trkpt>
      <trkpt lat="48.16723" lon="-3.31936">
        <ele>225</ele>
        <time>2024-11-20T12:43:57Z</time>
      </trkpt>
      <trkpt lat="48.16724" lon="-3.31936">
        <ele>225.1</ele>
        <time>2024-11-20T12:43:58Z</time>
      </trkpt>
      <trkpt lat="48.16725" lon="-3.31935">
        <ele>225.4</ele>
        <time>2024-11-20T12:43:59Z</time>
      </trkpt>
      <trkpt lat="48.16726" lon="-3.31934">
        <ele>225.5</ele>
        <time>2024-11-20T12:44:00Z</time>
      </trkpt>
      <trkpt lat="48.16728" lon="-3.31933">
        <ele>225.7</ele>
        <time>2024-11-20T12:44:01Z</time>
      </trkpt>
      <trkpt lat="48.16729" lon="-3.31932">
        <ele>225.8</ele>
        <time>2024-11-20T12:44:02Z</time>
      </trkpt>
      <trkpt lat="48.16729" lon="-3.31933">
        <ele>225.8</ele>
        <time>2024-11-20T12:44:03Z</time>
      </trkpt>
      <trkpt lat="48.1673" lon="-3.31933">
        <ele>225.6</ele>
        <time>2024-11-20T12:44:04Z</time>
      </trkpt>
      <trkpt lat="48.16731" lon="-3.31934">
        <ele>225.4</ele>
        <time>2024-11-20T12:44:05Z</time>
      </trkpt>
      <trkpt lat="48.16732" lon="-3.31934">
        <ele>225.3</ele>
        <time>2024-11-20T12:44:06Z</time>
      </trkpt>
      <trkpt lat="48.16734" lon="-3.31935">
        <ele>225.1</ele>
        <time>2024-11-20T12:44:07Z</time>
      </trkpt>
      <trkpt lat="48.16735" lon="-3.31935">
        <ele>224.9</ele>
        <time>2024-11-20T12:44:08Z</time>
      </trkpt>
      <trkpt lat="48.16736" lon="-3.31935">
        <ele>224.8</ele>
        <time>2024-11-20T12:44:09Z</time>
      </trkpt>
      <trkpt lat="48.16737" lon="-3.31935">
        <ele>224.7</ele>
        <time>2024-11-20T12:44:10Z</time>
      </trkpt>
      <trkpt lat="48.16738" lon="-3.31936">
        <ele>224.6</ele>
        <time>2024-11-20T12:44:11Z</time>
      </trkpt>
      <trkpt lat="48.1674" lon="-3.31936">
        <ele>224.4</ele>
        <time>2024-11-20T12:44:12Z</time>
      </trkpt>
      <trkpt lat="48.16741" lon="-3.31937">
        <ele>224.3</ele>
        <time>2024-11-20T12:44:13Z</time>
      </trkpt>
      <trkpt lat="48.16741" lon="-3.31937">
        <ele>224.2</ele>
        <time>2024-11-20T12:44:14Z</time>
      </trkpt>
      <trkpt lat="48.16742" lon="-3.31937">
        <ele>224.2</ele>
        <time>2024-11-20T12:44:15Z</time>
      </trkpt>
      <trkpt lat="48.16743" lon="-3.31937">
        <ele>224</ele>
        <time>2024-11-20T12:44:16Z</time>
      </trkpt>
      <trkpt lat="48.16744" lon="-3.31938">
        <ele>224</ele>
        <time>2024-11-20T12:44:17Z</time>
      </trkpt>
      <trkpt lat="48.16746" lon="-3.31938">
        <ele>223.8</ele>
        <time>2024-11-20T12:44:18Z</time>
      </trkpt>
      <trkpt lat="48.16747" lon="-3.31938">
        <ele>223.7</ele>
        <time>2024-11-20T12:44:19Z</time>
      </trkpt>
      <trkpt lat="48.16748" lon="-3.31938">
        <ele>223.6</ele>
        <time>2024-11-20T12:44:20Z</time>
      </trkpt>
      <trkpt lat="48.16749" lon="-3.31938">
        <ele>223.6</ele>
        <time>2024-11-20T12:44:21Z</time>
      </trkpt>
      <trkpt lat="48.1675" lon="-3.31938">
        <ele>223.6</ele>
        <time>2024-11-20T12:44:22Z</time>
      </trkpt>
      <trkpt lat="48.16751" lon="-3.31939">
        <ele>223.5</ele>
        <time>2024-11-20T12:44:23Z</time>
      </trkpt>
      <trkpt lat="48.16752" lon="-3.31938">
        <ele>223.5</ele>
        <time>2024-11-20T12:44:24Z</time>
      </trkpt>
      <trkpt lat="48.16753" lon="-3.31938">
        <ele>223.5</ele>
        <time>2024-11-20T12:44:25Z</time>
      </trkpt>
      <trkpt lat="48.16755" lon="-3.31938">
        <ele>223.6</ele>
        <time>2024-11-20T12:44:26Z</time>
      </trkpt>
      <trkpt lat="48.16756" lon="-3.31937">
        <ele>223.7</ele>
        <time>2024-11-20T12:44:27Z</time>
      </trkpt>
      <trkpt lat="48.16757" lon="-3.31937">
        <ele>223.8</ele>
        <time>2024-11-20T12:44:28Z</time>
      </trkpt>
      <trkpt lat="48.16758" lon="-3.31936">
        <ele>223.9</ele>
        <time>2024-11-20T12:44:29Z</time>
      </trkpt>
      <trkpt lat="48.16759" lon="-3.31936">
        <ele>224.1</ele>
        <time>2024-11-20T12:44:30Z</time>
      </trkpt>
      <trkpt lat="48.1676" lon="-3.31935">
        <ele>224.1</ele>
        <time>2024-11-20T12:44:31Z</time>
      </trkpt>
      <trkpt lat="48.16762" lon="-3.31936">
        <ele>223.9</ele>
        <time>2024-11-20T12:44:32Z</time>
      </trkpt>
      <trkpt lat="48.16763" lon="-3.31936">
        <ele>223.8</ele>
        <time>2024-11-20T12:44:33Z</time>
      </trkpt>
      <trkpt lat="48.16763" lon="-3.31936">
        <ele>223.8</ele>
        <time>2024-11-20T12:44:34Z</time>
      </trkpt>
      <trkpt lat="48.16765" lon="-3.31937">
        <ele>223.7</ele>
        <time>2024-11-20T12:44:35Z</time>
      </trkpt>
      <trkpt lat="48.16766" lon="-3.31936">
        <ele>223.7</ele>
        <time>2024-11-20T12:44:36Z</time>
      </trkpt>
      <trkpt lat="48.16767" lon="-3.31936">
        <ele>223.7</ele>
        <time>2024-11-20T12:44:37Z</time>
      </trkpt>
      <trkpt lat="48.16769" lon="-3.31936">
        <ele>223.8</ele>
        <time>2024-11-20T12:44:38Z</time>
      </trkpt>
      <trkpt lat="48.16771" lon="-3.31935">
        <ele>223.8</ele>
        <time>2024-11-20T12:44:39Z</time>
      </trkpt>
      <trkpt lat="48.16772" lon="-3.31935">
        <ele>223.8</ele>
        <time>2024-11-20T12:44:40Z</time>
      </trkpt>
      <trkpt lat="48.16773" lon="-3.31935">
        <ele>223.8</ele>
        <time>2024-11-20T12:44:41Z</time>
      </trkpt>
      <trkpt lat="48.16774" lon="-3.31935">
        <ele>223.8</ele>
        <time>2024-11-20T12:44:42Z</time>
      </trkpt>
      <trkpt lat="48.16776" lon="-3.31934">
        <ele>223.9</ele>
        <time>2024-11-20T12:44:43Z</time>
      </trkpt>
      <trkpt lat="48.16777" lon="-3.31934">
        <ele>223.9</ele>
        <time>2024-11-20T12:44:44Z</time>
      </trkpt>
      <trkpt lat="48.16779" lon="-3.31934">
        <ele>223.9</ele>
        <time>2024-11-20T12:44:45Z</time>
      </trkpt>
      <trkpt lat="48.1678" lon="-3.31934">
        <ele>223.9</ele>
        <time>2024-11-20T12:44:46Z</time>
      </trkpt>
      <trkpt lat="48.16782" lon="-3.31934">
        <ele>223.9</ele>
        <time>2024-11-20T12:44:47Z</time>
      </trkpt>
      <trkpt lat="48.16783" lon="-3.31933">
        <ele>223.9</ele>
        <time>2024-11-20T12:44:48Z</time>
      </trkpt>
      <trkpt lat="48.16784" lon="-3.31933">
        <ele>224</ele>
        <time>2024-11-20T12:44:49Z</time>
      </trkpt>
      <trkpt lat="48.16786" lon="-3.31932">
        <ele>224.1</ele>
        <time>2024-11-20T12:44:50Z</time>
      </trkpt>
      <trkpt lat="48.16787" lon="-3.31932">
        <ele>224.2</ele>
        <time>2024-11-20T12:44:51Z</time>
      </trkpt>
      <trkpt lat="48.16789" lon="-3.31931">
        <ele>224.3</ele>
        <time>2024-11-20T12:44:52Z</time>
      </trkpt>
      <trkpt lat="48.1679" lon="-3.3193">
        <ele>224.4</ele>
        <time>2024-11-20T12:44:53Z</time>
      </trkpt>
      <trkpt lat="48.16792" lon="-3.3193">
        <ele>224.4</ele>
        <time>2024-11-20T12:44:54Z</time>
      </trkpt>
      <trkpt lat="48.16794" lon="-3.3193">
        <ele>224.4</ele>
        <time>2024-11-20T12:44:55Z</time>
      </trkpt>
      <trkpt lat="48.16796" lon="-3.3193">
        <ele>224.3</ele>
        <time>2024-11-20T12:44:56Z</time>
      </trkpt>
      <trkpt lat="48.16797" lon="-3.3193">
        <ele>224.3</ele>
        <time>2024-11-20T12:44:57Z</time>
      </trkpt>
      <trkpt lat="48.16798" lon="-3.31929">
        <ele>224.3</ele>
        <time>2024-11-20T12:44:58Z</time>
      </trkpt>
      <trkpt lat="48.16799" lon="-3.31929">
        <ele>224.3</ele>
        <time>2024-11-20T12:44:59Z</time>
      </trkpt>
      <trkpt lat="48.168" lon="-3.31929">
        <ele>224.3</ele>
        <time>2024-11-20T12:45:00Z</time>
      </trkpt>
      <trkpt lat="48.16802" lon="-3.31929">
        <ele>224.3</ele>
        <time>2024-11-20T12:45:01Z</time>
      </trkpt>
      <trkpt lat="48.16803" lon="-3.31929">
        <ele>224.3</ele>
        <time>2024-11-20T12:45:02Z</time>
      </trkpt>
      <trkpt lat="48.16804" lon="-3.31929">
        <ele>224.3</ele>
        <time>2024-11-20T12:45:03Z</time>
      </trkpt>
      <trkpt lat="48.16805" lon="-3.31928">
        <ele>224.4</ele>
        <time>2024-11-20T12:45:04Z</time>
      </trkpt>
      <trkpt lat="48.16806" lon="-3.31928">
        <ele>224.4</ele>
        <time>2024-11-20T12:45:05Z</time>
      </trkpt>
      <trkpt lat="48.16808" lon="-3.31928">
        <ele>224.4</ele>
        <time>2024-11-20T12:45:06Z</time>
      </trkpt>
      <trkpt lat="48.16809" lon="-3.31928">
        <ele>224.4</ele>
        <time>2024-11-20T12:45:07Z</time>
      </trkpt>
      <trkpt lat="48.1681" lon="-3.31928">
        <ele>224.4</ele>
        <time>2024-11-20T12:45:08Z</time>
      </trkpt>
      <trkpt lat="48.16811" lon="-3.31928">
        <ele>224.3</ele>
        <time>2024-11-20T12:45:09Z</time>
      </trkpt>
      <trkpt lat="48.16811" lon="-3.31928">
        <ele>224.4</ele>
        <time>2024-11-20T12:45:10Z</time>
      </trkpt>
      <trkpt lat="48.16812" lon="-3.31928">
        <ele>224.4</ele>
        <time>2024-11-20T12:45:11Z</time>
      </trkpt>
      <trkpt lat="48.16813" lon="-3.31928">
        <ele>224.4</ele>
        <time>2024-11-20T12:45:12Z</time>
      </trkpt>
      <trkpt lat="48.16814" lon="-3.31928">
        <ele>224.4</ele>
        <time>2024-11-20T12:45:13Z</time>
      </trkpt>
      <trkpt lat="48.16815" lon="-3.31927">
        <ele>224.5</ele>
        <time>2024-11-20T12:45:14Z</time>
      </trkpt>
      <trkpt lat="48.16816" lon="-3.31927">
        <ele>224.5</ele>
        <time>2024-11-20T12:45:15Z</time>
      </trkpt>
      <trkpt lat="48.16817" lon="-3.31927">
        <ele>224.5</ele>
        <time>2024-11-20T12:45:16Z</time>
      </trkpt>
      <trkpt lat="48.16818" lon="-3.31927">
        <ele>224.6</ele>
        <time>2024-11-20T12:45:17Z</time>
      </trkpt>
      <trkpt lat="48.16819" lon="-3.31927">
        <ele>224.6</ele>
        <time>2024-11-20T12:45:18Z</time>
      </trkpt>
      <trkpt lat="48.16819" lon="-3.31926">
        <ele>224.7</ele>
        <time>2024-11-20T12:45:19Z</time>
      </trkpt>
      <trkpt lat="48.1682" lon="-3.31925">
        <ele>224.8</ele>
        <time>2024-11-20T12:45:20Z</time>
      </trkpt>
      <trkpt lat="48.16821" lon="-3.31925">
        <ele>224.8</ele>
        <time>2024-11-20T12:45:21Z</time>
      </trkpt>
      <trkpt lat="48.16822" lon="-3.31926">
        <ele>224.7</ele>
        <time>2024-11-20T12:45:22Z</time>
      </trkpt>
      <trkpt lat="48.16822" lon="-3.31926">
        <ele>224.7</ele>
        <time>2024-11-20T12:45:23Z</time>
      </trkpt>
      <trkpt lat="48.16823" lon="-3.31926">
        <ele>224.7</ele>
        <time>2024-11-20T12:45:24Z</time>
      </trkpt>
      <trkpt lat="48.16825" lon="-3.31925">
        <ele>224.8</ele>
        <time>2024-11-20T12:45:25Z</time>
      </trkpt>
      <trkpt lat="48.16826" lon="-3.31925">
        <ele>224.8</ele>
        <time>2024-11-20T12:45:26Z</time>
      </trkpt>
      <trkpt lat="48.16827" lon="-3.31925">
        <ele>224.8</ele>
        <time>2024-11-20T12:45:27Z</time>
      </trkpt>
      <trkpt lat="48.16828" lon="-3.31925">
        <ele>224.8</ele>
        <time>2024-11-20T12:45:28Z</time>
      </trkpt>
      <trkpt lat="48.16829" lon="-3.31925">
        <ele>224.8</ele>
        <time>2024-11-20T12:45:29Z</time>
      </trkpt>
      <trkpt lat="48.16831" lon="-3.31925">
        <ele>224.8</ele>
        <time>2024-11-20T12:45:30Z</time>
      </trkpt>
      <trkpt lat="48.16832" lon="-3.31925">
        <ele>224.8</ele>
        <time>2024-11-20T12:45:31Z</time>
      </trkpt>
      <trkpt lat="48.16834" lon="-3.31925">
        <ele>224.8</ele>
        <time>2024-11-20T12:45:32Z</time>
      </trkpt>
      <trkpt lat="48.16835" lon="-3.31925">
        <ele>224.6</ele>
        <time>2024-11-20T12:45:33Z</time>
      </trkpt>
      <trkpt lat="48.16837" lon="-3.31925">
        <ele>224.4</ele>
        <time>2024-11-20T12:45:34Z</time>
      </trkpt>
      <trkpt lat="48.16838" lon="-3.31925">
        <ele>224.2</ele>
        <time>2024-11-20T12:45:35Z</time>
      </trkpt>
      <trkpt lat="48.1684" lon="-3.31925">
        <ele>224.1</ele>
        <time>2024-11-20T12:45:36Z</time>
      </trkpt>
      <trkpt lat="48.16841" lon="-3.31925">
        <ele>223.9</ele>
        <time>2024-11-20T12:45:37Z</time>
      </trkpt>
      <trkpt lat="48.16843" lon="-3.31925">
        <ele>223.8</ele>
        <time>2024-11-20T12:45:38Z</time>
      </trkpt>
      <trkpt lat="48.16844" lon="-3.31926">
        <ele>223.5</ele>
        <time>2024-11-20T12:45:39Z</time>
      </trkpt>
      <trkpt lat="48.16845" lon="-3.31927">
        <ele>223.3</ele>
        <time>2024-11-20T12:45:40Z</time>
      </trkpt>
      <trkpt lat="48.16847" lon="-3.31928">
        <ele>223</ele>
        <time>2024-11-20T12:45:41Z</time>
      </trkpt>
      <trkpt lat="48.16848" lon="-3.31929">
        <ele>222.8</ele>
        <time>2024-11-20T12:45:42Z</time>
      </trkpt>
      <trkpt lat="48.16848" lon="-3.3193">
        <ele>222.5</ele>
        <time>2024-11-20T12:45:43Z</time>
      </trkpt>
      <trkpt lat="48.16849" lon="-3.31931">
        <ele>222.3</ele>
        <time>2024-11-20T12:45:44Z</time>
      </trkpt>
      <trkpt lat="48.16849" lon="-3.31933">
        <ele>222</ele>
        <time>2024-11-20T12:45:45Z</time>
      </trkpt>
      <trkpt lat="48.1685" lon="-3.31935">
        <ele>221.6</ele>
        <time>2024-11-20T12:45:46Z</time>
      </trkpt>
      <trkpt lat="48.1685" lon="-3.31937">
        <ele>221.3</ele>
        <time>2024-11-20T12:45:47Z</time>
      </trkpt>
      <trkpt lat="48.1685" lon="-3.31938">
        <ele>221</ele>
        <time>2024-11-20T12:45:48Z</time>
      </trkpt>
      <trkpt lat="48.16851" lon="-3.31939">
        <ele>220.9</ele>
        <time>2024-11-20T12:45:49Z</time>
      </trkpt>
      <trkpt lat="48.16851" lon="-3.31941">
        <ele>220.6</ele>
        <time>2024-11-20T12:45:50Z</time>
      </trkpt>
      <trkpt lat="48.16851" lon="-3.31943">
        <ele>220.3</ele>
        <time>2024-11-20T12:45:51Z</time>
      </trkpt>
      <trkpt lat="48.16852" lon="-3.31944">
        <ele>220.1</ele>
        <time>2024-11-20T12:45:52Z</time>
      </trkpt>
      <trkpt lat="48.16852" lon="-3.31945">
        <ele>219.9</ele>
        <time>2024-11-20T12:45:53Z</time>
      </trkpt>
      <trkpt lat="48.16853" lon="-3.31946">
        <ele>219.8</ele>
        <time>2024-11-20T12:45:54Z</time>
      </trkpt>
      <trkpt lat="48.16854" lon="-3.31948">
        <ele>219.6</ele>
        <time>2024-11-20T12:45:55Z</time>
      </trkpt>
      <trkpt lat="48.16854" lon="-3.3195">
        <ele>219.4</ele>
        <time>2024-11-20T12:45:56Z</time>
      </trkpt>
      <trkpt lat="48.16855" lon="-3.31952">
        <ele>219.2</ele>
        <time>2024-11-20T12:45:57Z</time>
      </trkpt>
      <trkpt lat="48.16855" lon="-3.31954">
        <ele>219</ele>
        <time>2024-11-20T12:45:58Z</time>
      </trkpt>
      <trkpt lat="48.16856" lon="-3.31957">
        <ele>218.9</ele>
        <time>2024-11-20T12:45:59Z</time>
      </trkpt>
      <trkpt lat="48.16856" lon="-3.31959">
        <ele>218.7</ele>
        <time>2024-11-20T12:46:00Z</time>
      </trkpt>
      <trkpt lat="48.16856" lon="-3.31961">
        <ele>218.6</ele>
        <time>2024-11-20T12:46:01Z</time>
      </trkpt>
      <trkpt lat="48.16856" lon="-3.31963">
        <ele>218.5</ele>
        <time>2024-11-20T12:46:02Z</time>
      </trkpt>
      <trkpt lat="48.16857" lon="-3.31964">
        <ele>218.4</ele>
        <time>2024-11-20T12:46:03Z</time>
      </trkpt>
      <trkpt lat="48.16858" lon="-3.31966">
        <ele>218.3</ele>
        <time>2024-11-20T12:46:04Z</time>
      </trkpt>
      <trkpt lat="48.16858" lon="-3.31968">
        <ele>218.2</ele>
        <time>2024-11-20T12:46:05Z</time>
      </trkpt>
      <trkpt lat="48.16858" lon="-3.31969">
        <ele>218.1</ele>
        <time>2024-11-20T12:46:06Z</time>
      </trkpt>
      <trkpt lat="48.16859" lon="-3.31971">
        <ele>218.1</ele>
        <time>2024-11-20T12:46:07Z</time>
      </trkpt>
      <trkpt lat="48.1686" lon="-3.31972">
        <ele>218</ele>
        <time>2024-11-20T12:46:08Z</time>
      </trkpt>
      <trkpt lat="48.1686" lon="-3.31973">
        <ele>218</ele>
        <time>2024-11-20T12:46:09Z</time>
      </trkpt>
      <trkpt lat="48.16861" lon="-3.31974">
        <ele>218</ele>
        <time>2024-11-20T12:46:10Z</time>
      </trkpt>
      <trkpt lat="48.16861" lon="-3.31976">
        <ele>218</ele>
        <time>2024-11-20T12:46:12Z</time>
      </trkpt>
      <trkpt lat="48.16862" lon="-3.31978">
        <ele>218</ele>
        <time>2024-11-20T12:46:13Z</time>
      </trkpt>
      <trkpt lat="48.16862" lon="-3.31979">
        <ele>218</ele>
        <time>2024-11-20T12:46:14Z</time>
      </trkpt>
      <trkpt lat="48.16863" lon="-3.3198">
        <ele>217.9</ele>
        <time>2024-11-20T12:46:15Z</time>
      </trkpt>
      <trkpt lat="48.16863" lon="-3.31982">
        <ele>217.9</ele>
        <time>2024-11-20T12:46:16Z</time>
      </trkpt>
      <trkpt lat="48.16863" lon="-3.31984">
        <ele>217.9</ele>
        <time>2024-11-20T12:46:17Z</time>
      </trkpt>
      <trkpt lat="48.16863" lon="-3.31986">
        <ele>217.9</ele>
        <time>2024-11-20T12:46:18Z</time>
      </trkpt>
      <trkpt lat="48.16864" lon="-3.31988">
        <ele>217.9</ele>
        <time>2024-11-20T12:46:19Z</time>
      </trkpt>
      <trkpt lat="48.16864" lon="-3.3199">
        <ele>217.9</ele>
        <time>2024-11-20T12:46:20Z</time>
      </trkpt>
      <trkpt lat="48.16864" lon="-3.31991">
        <ele>217.9</ele>
        <time>2024-11-20T12:46:21Z</time>
      </trkpt>
      <trkpt lat="48.16865" lon="-3.31994">
        <ele>217.9</ele>
        <time>2024-11-20T12:46:22Z</time>
      </trkpt>
      <trkpt lat="48.16865" lon="-3.31997">
        <ele>217.9</ele>
        <time>2024-11-20T12:46:23Z</time>
      </trkpt>
      <trkpt lat="48.16866" lon="-3.31999">
        <ele>217.8</ele>
        <time>2024-11-20T12:46:24Z</time>
      </trkpt>
      <trkpt lat="48.16866" lon="-3.32001">
        <ele>217.8</ele>
        <time>2024-11-20T12:46:25Z</time>
      </trkpt>
      <trkpt lat="48.16868" lon="-3.32002">
        <ele>217.7</ele>
        <time>2024-11-20T12:46:26Z</time>
      </trkpt>
      <trkpt lat="48.16869" lon="-3.32003">
        <ele>217.5</ele>
        <time>2024-11-20T12:46:27Z</time>
      </trkpt>
      <trkpt lat="48.1687" lon="-3.32004">
        <ele>217.5</ele>
        <time>2024-11-20T12:46:28Z</time>
      </trkpt>
      <trkpt lat="48.1687" lon="-3.32005">
        <ele>217.4</ele>
        <time>2024-11-20T12:46:29Z</time>
      </trkpt>
      <trkpt lat="48.1687" lon="-3.32007">
        <ele>217.3</ele>
        <time>2024-11-20T12:46:30Z</time>
      </trkpt>
      <trkpt lat="48.1687" lon="-3.32009">
        <ele>217.1</ele>
        <time>2024-11-20T12:46:31Z</time>
      </trkpt>
      <trkpt lat="48.16869" lon="-3.32012">
        <ele>217</ele>
        <time>2024-11-20T12:46:32Z</time>
      </trkpt>
      <trkpt lat="48.16869" lon="-3.32014">
        <ele>216.9</ele>
        <time>2024-11-20T12:46:33Z</time>
      </trkpt>
      <trkpt lat="48.16869" lon="-3.32016">
        <ele>216.7</ele>
        <time>2024-11-20T12:46:34Z</time>
      </trkpt>
      <trkpt lat="48.16869" lon="-3.32018">
        <ele>216.6</ele>
        <time>2024-11-20T12:46:35Z</time>
      </trkpt>
      <trkpt lat="48.16868" lon="-3.32019">
        <ele>216.5</ele>
        <time>2024-11-20T12:46:36Z</time>
      </trkpt>
      <trkpt lat="48.16868" lon="-3.32021">
        <ele>216.5</ele>
        <time>2024-11-20T12:46:37Z</time>
      </trkpt>
      <trkpt lat="48.16868" lon="-3.32023">
        <ele>216.3</ele>
        <time>2024-11-20T12:46:38Z</time>
      </trkpt>
      <trkpt lat="48.16868" lon="-3.32025">
        <ele>216.2</ele>
        <time>2024-11-20T12:46:39Z</time>
      </trkpt>
      <trkpt lat="48.16868" lon="-3.32026">
        <ele>216.1</ele>
        <time>2024-11-20T12:46:40Z</time>
      </trkpt>
      <trkpt lat="48.16868" lon="-3.32028">
        <ele>216</ele>
        <time>2024-11-20T12:46:41Z</time>
      </trkpt>
      <trkpt lat="48.16868" lon="-3.32029">
        <ele>215.9</ele>
        <time>2024-11-20T12:46:42Z</time>
      </trkpt>
      <trkpt lat="48.16868" lon="-3.3203">
        <ele>215.9</ele>
        <time>2024-11-20T12:46:43Z</time>
      </trkpt>
      <trkpt lat="48.16868" lon="-3.32032">
        <ele>215.7</ele>
        <time>2024-11-20T12:46:44Z</time>
      </trkpt>
      <trkpt lat="48.16869" lon="-3.32032">
        <ele>215.7</ele>
        <time>2024-11-20T12:46:45Z</time>
      </trkpt>
      <trkpt lat="48.16869" lon="-3.32034">
        <ele>215.6</ele>
        <time>2024-11-20T12:46:46Z</time>
      </trkpt>
      <trkpt lat="48.1687" lon="-3.32035">
        <ele>215.5</ele>
        <time>2024-11-20T12:46:47Z</time>
      </trkpt>
      <trkpt lat="48.16871" lon="-3.32037">
        <ele>215.4</ele>
        <time>2024-11-20T12:46:48Z</time>
      </trkpt>
      <trkpt lat="48.16871" lon="-3.32038">
        <ele>215.2</ele>
        <time>2024-11-20T12:46:49Z</time>
      </trkpt>
      <trkpt lat="48.16872" lon="-3.3204">
        <ele>215.1</ele>
        <time>2024-11-20T12:46:50Z</time>
      </trkpt>
      <trkpt lat="48.16872" lon="-3.32041">
        <ele>215.1</ele>
        <time>2024-11-20T12:46:51Z</time>
      </trkpt>
      <trkpt lat="48.16873" lon="-3.32042">
        <ele>215</ele>
        <time>2024-11-20T12:46:52Z</time>
      </trkpt>
      <trkpt lat="48.16874" lon="-3.32043">
        <ele>214.9</ele>
        <time>2024-11-20T12:46:53Z</time>
      </trkpt>
      <trkpt lat="48.16875" lon="-3.32044">
        <ele>214.8</ele>
        <time>2024-11-20T12:46:54Z</time>
      </trkpt>
      <trkpt lat="48.16875" lon="-3.32045">
        <ele>214.7</ele>
        <time>2024-11-20T12:46:55Z</time>
      </trkpt>
      <trkpt lat="48.16876" lon="-3.32046">
        <ele>214.7</ele>
        <time>2024-11-20T12:46:56Z</time>
      </trkpt>
      <trkpt lat="48.16876" lon="-3.32047">
        <ele>214.6</ele>
        <time>2024-11-20T12:46:57Z</time>
      </trkpt>
      <trkpt lat="48.16877" lon="-3.32048">
        <ele>214.6</ele>
        <time>2024-11-20T12:46:58Z</time>
      </trkpt>
      <trkpt lat="48.16878" lon="-3.32048">
        <ele>214.5</ele>
        <time>2024-11-20T12:46:59Z</time>
      </trkpt>
      <trkpt lat="48.16878" lon="-3.32049">
        <ele>214.5</ele>
        <time>2024-11-20T12:47:00Z</time>
      </trkpt>
      <trkpt lat="48.16879" lon="-3.32049">
        <ele>214.5</ele>
        <time>2024-11-20T12:47:01Z</time>
      </trkpt>
      <trkpt lat="48.16879" lon="-3.3205">
        <ele>214.4</ele>
        <time>2024-11-20T12:47:02Z</time>
      </trkpt>
      <trkpt lat="48.1688" lon="-3.32051">
        <ele>214.3</ele>
        <time>2024-11-20T12:47:03Z</time>
      </trkpt>
      <trkpt lat="48.16882" lon="-3.32051">
        <ele>214.3</ele>
        <time>2024-11-20T12:47:04Z</time>
      </trkpt>
      <trkpt lat="48.16883" lon="-3.32051">
        <ele>214.3</ele>
        <time>2024-11-20T12:47:05Z</time>
      </trkpt>
      <trkpt lat="48.16884" lon="-3.32051">
        <ele>214.3</ele>
        <time>2024-11-20T12:47:06Z</time>
      </trkpt>
      <trkpt lat="48.16886" lon="-3.32051">
        <ele>214.3</ele>
        <time>2024-11-20T12:47:07Z</time>
      </trkpt>
      <trkpt lat="48.16887" lon="-3.32053">
        <ele>214.2</ele>
        <time>2024-11-20T12:47:08Z</time>
      </trkpt>
      <trkpt lat="48.16888" lon="-3.32054">
        <ele>214.1</ele>
        <time>2024-11-20T12:47:09Z</time>
      </trkpt>
      <trkpt lat="48.16888" lon="-3.32054">
        <ele>214.1</ele>
        <time>2024-11-20T12:47:10Z</time>
      </trkpt>
      <trkpt lat="48.1689" lon="-3.32053">
        <ele>214.1</ele>
        <time>2024-11-20T12:47:11Z</time>
      </trkpt>
      <trkpt lat="48.16891" lon="-3.32053">
        <ele>214.1</ele>
        <time>2024-11-20T12:47:12Z</time>
      </trkpt>
      <trkpt lat="48.16892" lon="-3.32052">
        <ele>214.1</ele>
        <time>2024-11-20T12:47:13Z</time>
      </trkpt>
      <trkpt lat="48.16892" lon="-3.32051">
        <ele>214.1</ele>
        <time>2024-11-20T12:47:14Z</time>
      </trkpt>
      <trkpt lat="48.16893" lon="-3.3205">
        <ele>214.1</ele>
        <time>2024-11-20T12:47:15Z</time>
      </trkpt>
      <trkpt lat="48.16893" lon="-3.32049">
        <ele>214.2</ele>
        <time>2024-11-20T12:47:16Z</time>
      </trkpt>
      <trkpt lat="48.16894" lon="-3.32048">
        <ele>214.2</ele>
        <time>2024-11-20T12:47:17Z</time>
      </trkpt>
      <trkpt lat="48.16895" lon="-3.32047">
        <ele>214.2</ele>
        <time>2024-11-20T12:47:18Z</time>
      </trkpt>
      <trkpt lat="48.16896" lon="-3.32046">
        <ele>214.2</ele>
        <time>2024-11-20T12:47:19Z</time>
      </trkpt>
      <trkpt lat="48.16897" lon="-3.32045">
        <ele>214.2</ele>
        <time>2024-11-20T12:47:20Z</time>
      </trkpt>
      <trkpt lat="48.16898" lon="-3.32044">
        <ele>214.2</ele>
        <time>2024-11-20T12:47:21Z</time>
      </trkpt>
      <trkpt lat="48.16899" lon="-3.32042">
        <ele>214.3</ele>
        <time>2024-11-20T12:47:22Z</time>
      </trkpt>
      <trkpt lat="48.16899" lon="-3.32041">
        <ele>214.3</ele>
        <time>2024-11-20T12:47:23Z</time>
      </trkpt>
      <trkpt lat="48.169" lon="-3.32039">
        <ele>214.4</ele>
        <time>2024-11-20T12:47:24Z</time>
      </trkpt>
      <trkpt lat="48.16901" lon="-3.32038">
        <ele>214.4</ele>
        <time>2024-11-20T12:47:25Z</time>
      </trkpt>
      <trkpt lat="48.16902" lon="-3.32036">
        <ele>214.4</ele>
        <time>2024-11-20T12:47:26Z</time>
      </trkpt>
      <trkpt lat="48.16903" lon="-3.32035">
        <ele>214.5</ele>
        <time>2024-11-20T12:47:27Z</time>
      </trkpt>
      <trkpt lat="48.16904" lon="-3.32033">
        <ele>214.5</ele>
        <time>2024-11-20T12:47:28Z</time>
      </trkpt>
      <trkpt lat="48.16905" lon="-3.32031">
        <ele>214.6</ele>
        <time>2024-11-20T12:47:29Z</time>
      </trkpt>
      <trkpt lat="48.16906" lon="-3.3203">
        <ele>214.6</ele>
        <time>2024-11-20T12:47:30Z</time>
      </trkpt>
      <trkpt lat="48.16907" lon="-3.32028">
        <ele>214.7</ele>
        <time>2024-11-20T12:47:31Z</time>
      </trkpt>
      <trkpt lat="48.16907" lon="-3.32027">
        <ele>214.7</ele>
        <time>2024-11-20T12:47:32Z</time>
      </trkpt>
      <trkpt lat="48.16908" lon="-3.32026">
        <ele>214.7</ele>
        <time>2024-11-20T12:47:33Z</time>
      </trkpt>
      <trkpt lat="48.16909" lon="-3.32024">
        <ele>214.7</ele>
        <time>2024-11-20T12:47:34Z</time>
      </trkpt>
      <trkpt lat="48.1691" lon="-3.32023">
        <ele>214.7</ele>
        <time>2024-11-20T12:47:35Z</time>
      </trkpt>
      <trkpt lat="48.16911" lon="-3.32022">
        <ele>214.7</ele>
        <time>2024-11-20T12:47:36Z</time>
      </trkpt>
      <trkpt lat="48.16911" lon="-3.3202">
        <ele>214.7</ele>
        <time>2024-11-20T12:47:37Z</time>
      </trkpt>
      <trkpt lat="48.16911" lon="-3.32019">
        <ele>214.7</ele>
        <time>2024-11-20T12:47:38Z</time>
      </trkpt>
      <trkpt lat="48.16911" lon="-3.32017">
        <ele>214.8</ele>
        <time>2024-11-20T12:47:39Z</time>
      </trkpt>
      <trkpt lat="48.16911" lon="-3.32016">
        <ele>214.9</ele>
        <time>2024-11-20T12:47:40Z</time>
      </trkpt>
      <trkpt lat="48.16911" lon="-3.32014">
        <ele>214.9</ele>
        <time>2024-11-20T12:47:41Z</time>
      </trkpt>
      <trkpt lat="48.16911" lon="-3.32013">
        <ele>214.9</ele>
        <time>2024-11-20T12:47:42Z</time>
      </trkpt>
      <trkpt lat="48.16912" lon="-3.32012">
        <ele>214.9</ele>
        <time>2024-11-20T12:47:43Z</time>
      </trkpt>
      <trkpt lat="48.16913" lon="-3.32011">
        <ele>214.9</ele>
        <time>2024-11-20T12:47:44Z</time>
      </trkpt>
      <trkpt lat="48.16914" lon="-3.3201">
        <ele>214.9</ele>
        <time>2024-11-20T12:47:45Z</time>
      </trkpt>
      <trkpt lat="48.16915" lon="-3.32009">
        <ele>214.8</ele>
        <time>2024-11-20T12:47:46Z</time>
      </trkpt>
      <trkpt lat="48.16916" lon="-3.32008">
        <ele>214.8</ele>
        <time>2024-11-20T12:47:47Z</time>
      </trkpt>
      <trkpt lat="48.16916" lon="-3.32006">
        <ele>214.8</ele>
        <time>2024-11-20T12:47:48Z</time>
      </trkpt>
      <trkpt lat="48.16917" lon="-3.32004">
        <ele>214.9</ele>
        <time>2024-11-20T12:47:49Z</time>
      </trkpt>
      <trkpt lat="48.16917" lon="-3.32003">
        <ele>214.9</ele>
        <time>2024-11-20T12:47:50Z</time>
      </trkpt>
      <trkpt lat="48.16918" lon="-3.32001">
        <ele>214.9</ele>
        <time>2024-11-20T12:47:51Z</time>
      </trkpt>
      <trkpt lat="48.16918" lon="-3.32">
        <ele>215</ele>
        <time>2024-11-20T12:47:52Z</time>
      </trkpt>
      <trkpt lat="48.16919" lon="-3.31998">
        <ele>215</ele>
        <time>2024-11-20T12:47:53Z</time>
      </trkpt>
      <trkpt lat="48.1692" lon="-3.31996">
        <ele>215</ele>
        <time>2024-11-20T12:47:54Z</time>
      </trkpt>
      <trkpt lat="48.16921" lon="-3.31995">
        <ele>215</ele>
        <time>2024-11-20T12:47:55Z</time>
      </trkpt>
      <trkpt lat="48.16922" lon="-3.31994">
        <ele>215</ele>
        <time>2024-11-20T12:47:56Z</time>
      </trkpt>
      <trkpt lat="48.16923" lon="-3.31992">
        <ele>215</ele>
        <time>2024-11-20T12:47:57Z</time>
      </trkpt>
      <trkpt lat="48.16923" lon="-3.31991">
        <ele>215</ele>
        <time>2024-11-20T12:47:58Z</time>
      </trkpt>
      <trkpt lat="48.16924" lon="-3.3199">
        <ele>215</ele>
        <time>2024-11-20T12:47:59Z</time>
      </trkpt>
      <trkpt lat="48.16925" lon="-3.31988">
        <ele>215</ele>
        <time>2024-11-20T12:48:00Z</time>
      </trkpt>
      <trkpt lat="48.16926" lon="-3.31987">
        <ele>215</ele>
        <time>2024-11-20T12:48:01Z</time>
      </trkpt>
      <trkpt lat="48.16927" lon="-3.31986">
        <ele>215</ele>
        <time>2024-11-20T12:48:02Z</time>
      </trkpt>
      <trkpt lat="48.16927" lon="-3.31984">
        <ele>215</ele>
        <time>2024-11-20T12:48:03Z</time>
      </trkpt>
      <trkpt lat="48.16928" lon="-3.31983">
        <ele>215</ele>
        <time>2024-11-20T12:48:04Z</time>
      </trkpt>
      <trkpt lat="48.16929" lon="-3.31982">
        <ele>214.9</ele>
        <time>2024-11-20T12:48:05Z</time>
      </trkpt>
      <trkpt lat="48.1693" lon="-3.31981">
        <ele>214.9</ele>
        <time>2024-11-20T12:48:06Z</time>
      </trkpt>
      <trkpt lat="48.16931" lon="-3.31979">
        <ele>214.8</ele>
        <time>2024-11-20T12:48:07Z</time>
      </trkpt>
      <trkpt lat="48.16931" lon="-3.31977">
        <ele>214.9</ele>
        <time>2024-11-20T12:48:08Z</time>
      </trkpt>
      <trkpt lat="48.16932" lon="-3.31975">
        <ele>214.9</ele>
        <time>2024-11-20T12:48:09Z</time>
      </trkpt>
      <trkpt lat="48.16932" lon="-3.31973">
        <ele>214.9</ele>
        <time>2024-11-20T12:48:10Z</time>
      </trkpt>
      <trkpt lat="48.16932" lon="-3.31972">
        <ele>214.9</ele>
        <time>2024-11-20T12:48:11Z</time>
      </trkpt>
      <trkpt lat="48.16931" lon="-3.31971">
        <ele>214.9</ele>
        <time>2024-11-20T12:48:12Z</time>
      </trkpt>
      <trkpt lat="48.16931" lon="-3.31969">
        <ele>214.9</ele>
        <time>2024-11-20T12:48:13Z</time>
      </trkpt>
      <trkpt lat="48.16932" lon="-3.31967">
        <ele>214.9</ele>
        <time>2024-11-20T12:48:14Z</time>
      </trkpt>
      <trkpt lat="48.16932" lon="-3.31966">
        <ele>214.9</ele>
        <time>2024-11-20T12:48:15Z</time>
      </trkpt>
      <trkpt lat="48.16932" lon="-3.31965">
        <ele>214.9</ele>
        <time>2024-11-20T12:48:16Z</time>
      </trkpt>
      <trkpt lat="48.16933" lon="-3.31964">
        <ele>214.8</ele>
        <time>2024-11-20T12:48:17Z</time>
      </trkpt>
      <trkpt lat="48.16934" lon="-3.31962">
        <ele>214.8</ele>
        <time>2024-11-20T12:48:18Z</time>
      </trkpt>
      <trkpt lat="48.16935" lon="-3.31961">
        <ele>214.7</ele>
        <time>2024-11-20T12:48:19Z</time>
      </trkpt>
      <trkpt lat="48.16936" lon="-3.3196">
        <ele>214.6</ele>
        <time>2024-11-20T12:48:20Z</time>
      </trkpt>
      <trkpt lat="48.16936" lon="-3.31958">
        <ele>214.6</ele>
        <time>2024-11-20T12:48:21Z</time>
      </trkpt>
      <trkpt lat="48.16937" lon="-3.31956">
        <ele>214.6</ele>
        <time>2024-11-20T12:48:22Z</time>
      </trkpt>
      <trkpt lat="48.16937" lon="-3.31953">
        <ele>214.5</ele>
        <time>2024-11-20T12:48:23Z</time>
      </trkpt>
      <trkpt lat="48.16938" lon="-3.31951">
        <ele>214.5</ele>
        <time>2024-11-20T12:48:24Z</time>
      </trkpt>
      <trkpt lat="48.16938" lon="-3.31949">
        <ele>214.5</ele>
        <time>2024-11-20T12:48:25Z</time>
      </trkpt>
      <trkpt lat="48.16939" lon="-3.31948">
        <ele>214.4</ele>
        <time>2024-11-20T12:48:26Z</time>
      </trkpt>
      <trkpt lat="48.1694" lon="-3.31947">
        <ele>214.3</ele>
        <time>2024-11-20T12:48:27Z</time>
      </trkpt>
      <trkpt lat="48.16941" lon="-3.31946">
        <ele>214.2</ele>
        <time>2024-11-20T12:48:28Z</time>
      </trkpt>
      <trkpt lat="48.16942" lon="-3.31946">
        <ele>214.2</ele>
        <time>2024-11-20T12:48:29Z</time>
      </trkpt>
      <trkpt lat="48.16943" lon="-3.31945">
        <ele>214.1</ele>
        <time>2024-11-20T12:48:30Z</time>
      </trkpt>
      <trkpt lat="48.16943" lon="-3.31945">
        <ele>214.1</ele>
        <time>2024-11-20T12:48:31Z</time>
      </trkpt>
      <trkpt lat="48.16944" lon="-3.31944">
        <ele>214.1</ele>
        <time>2024-11-20T12:48:32Z</time>
      </trkpt>
      <trkpt lat="48.16944" lon="-3.31944">
        <ele>214</ele>
        <time>2024-11-20T12:48:33Z</time>
      </trkpt>
      <trkpt lat="48.16944" lon="-3.31942">
        <ele>214</ele>
        <time>2024-11-20T12:48:34Z</time>
      </trkpt>
      <trkpt lat="48.16944" lon="-3.3194">
        <ele>214.1</ele>
        <time>2024-11-20T12:48:35Z</time>
      </trkpt>
      <trkpt lat="48.16944" lon="-3.31938">
        <ele>214.1</ele>
        <time>2024-11-20T12:48:36Z</time>
      </trkpt>
      <trkpt lat="48.16945" lon="-3.31936">
        <ele>214</ele>
        <time>2024-11-20T12:48:37Z</time>
      </trkpt>
      <trkpt lat="48.16946" lon="-3.31935">
        <ele>213.9</ele>
        <time>2024-11-20T12:48:38Z</time>
      </trkpt>
      <trkpt lat="48.16947" lon="-3.31933">
        <ele>213.8</ele>
        <time>2024-11-20T12:48:39Z</time>
      </trkpt>
      <trkpt lat="48.16948" lon="-3.31932">
        <ele>213.7</ele>
        <time>2024-11-20T12:48:40Z</time>
      </trkpt>
      <trkpt lat="48.16949" lon="-3.3193">
        <ele>213.6</ele>
        <time>2024-11-20T12:48:41Z</time>
      </trkpt>
      <trkpt lat="48.1695" lon="-3.31928">
        <ele>213.5</ele>
        <time>2024-11-20T12:48:42Z</time>
      </trkpt>
      <trkpt lat="48.16951" lon="-3.31927">
        <ele>213.4</ele>
        <time>2024-11-20T12:48:43Z</time>
      </trkpt>
      <trkpt lat="48.16952" lon="-3.31925">
        <ele>213.4</ele>
        <time>2024-11-20T12:48:44Z</time>
      </trkpt>
      <trkpt lat="48.16952" lon="-3.31923">
        <ele>213.4</ele>
        <time>2024-11-20T12:48:45Z</time>
      </trkpt>
      <trkpt lat="48.16952" lon="-3.31921">
        <ele>213.4</ele>
        <time>2024-11-20T12:48:46Z</time>
      </trkpt>
      <trkpt lat="48.16953" lon="-3.31919">
        <ele>213.4</ele>
        <time>2024-11-20T12:48:47Z</time>
      </trkpt>
      <trkpt lat="48.16954" lon="-3.31917">
        <ele>213.3</ele>
        <time>2024-11-20T12:48:48Z</time>
      </trkpt>
      <trkpt lat="48.16955" lon="-3.31915">
        <ele>213.3</ele>
        <time>2024-11-20T12:48:49Z</time>
      </trkpt>
      <trkpt lat="48.16956" lon="-3.31914">
        <ele>213.2</ele>
        <time>2024-11-20T12:48:50Z</time>
      </trkpt>
      <trkpt lat="48.16957" lon="-3.31913">
        <ele>213.1</ele>
        <time>2024-11-20T12:48:51Z</time>
      </trkpt>
      <trkpt lat="48.16958" lon="-3.31912">
        <ele>213</ele>
        <time>2024-11-20T12:48:52Z</time>
      </trkpt>
      <trkpt lat="48.16959" lon="-3.31911">
        <ele>213</ele>
        <time>2024-11-20T12:48:53Z</time>
      </trkpt>
      <trkpt lat="48.1696" lon="-3.31909">
        <ele>212.9</ele>
        <time>2024-11-20T12:48:54Z</time>
      </trkpt>
      <trkpt lat="48.16961" lon="-3.31908">
        <ele>212.8</ele>
        <time>2024-11-20T12:48:55Z</time>
      </trkpt>
      <trkpt lat="48.16962" lon="-3.31906">
        <ele>212.8</ele>
        <time>2024-11-20T12:48:56Z</time>
      </trkpt>
      <trkpt lat="48.16962" lon="-3.31904">
        <ele>212.7</ele>
        <time>2024-11-20T12:48:57Z</time>
      </trkpt>
      <trkpt lat="48.16962" lon="-3.31903">
        <ele>212.7</ele>
        <time>2024-11-20T12:48:58Z</time>
      </trkpt>
      <trkpt lat="48.16963" lon="-3.31901">
        <ele>212.7</ele>
        <time>2024-11-20T12:48:59Z</time>
      </trkpt>
      <trkpt lat="48.16963" lon="-3.31899">
        <ele>212.7</ele>
        <time>2024-11-20T12:49:00Z</time>
      </trkpt>
      <trkpt lat="48.16963" lon="-3.31897">
        <ele>212.6</ele>
        <time>2024-11-20T12:49:01Z</time>
      </trkpt>
      <trkpt lat="48.16964" lon="-3.31895">
        <ele>212.6</ele>
        <time>2024-11-20T12:49:02Z</time>
      </trkpt>
      <trkpt lat="48.16965" lon="-3.31893">
        <ele>212.5</ele>
        <time>2024-11-20T12:49:03Z</time>
      </trkpt>
      <trkpt lat="48.16966" lon="-3.31891">
        <ele>212.5</ele>
        <time>2024-11-20T12:49:04Z</time>
      </trkpt>
      <trkpt lat="48.16966" lon="-3.31889">
        <ele>212.4</ele>
        <time>2024-11-20T12:49:05Z</time>
      </trkpt>
      <trkpt lat="48.16967" lon="-3.31888">
        <ele>212.4</ele>
        <time>2024-11-20T12:49:06Z</time>
      </trkpt>
      <trkpt lat="48.16967" lon="-3.31886">
        <ele>212.5</ele>
        <time>2024-11-20T12:49:07Z</time>
      </trkpt>
      <trkpt lat="48.16966" lon="-3.31884">
        <ele>212.6</ele>
        <time>2024-11-20T12:49:08Z</time>
      </trkpt>
      <trkpt lat="48.16966" lon="-3.31883">
        <ele>212.7</ele>
        <time>2024-11-20T12:49:09Z</time>
      </trkpt>
      <trkpt lat="48.16967" lon="-3.31882">
        <ele>212.7</ele>
        <time>2024-11-20T12:49:10Z</time>
      </trkpt>
      <trkpt lat="48.16968" lon="-3.3188">
        <ele>212.6</ele>
        <time>2024-11-20T12:49:11Z</time>
      </trkpt>
      <trkpt lat="48.16969" lon="-3.3188">
        <ele>212.6</ele>
        <time>2024-11-20T12:49:12Z</time>
      </trkpt>
      <trkpt lat="48.1697" lon="-3.31879">
        <ele>212.5</ele>
        <time>2024-11-20T12:49:13Z</time>
      </trkpt>
      <trkpt lat="48.1697" lon="-3.31878">
        <ele>212.6</ele>
        <time>2024-11-20T12:49:14Z</time>
      </trkpt>
      <trkpt lat="48.16971" lon="-3.31877">
        <ele>212.6</ele>
        <time>2024-11-20T12:49:15Z</time>
      </trkpt>
      <trkpt lat="48.16971" lon="-3.31876">
        <ele>212.6</ele>
        <time>2024-11-20T12:49:16Z</time>
      </trkpt>
      <trkpt lat="48.16971" lon="-3.31874">
        <ele>212.6</ele>
        <time>2024-11-20T12:49:17Z</time>
      </trkpt>
      <trkpt lat="48.16971" lon="-3.31873">
        <ele>212.6</ele>
        <time>2024-11-20T12:49:18Z</time>
      </trkpt>
      <trkpt lat="48.16971" lon="-3.31872">
        <ele>212.7</ele>
        <time>2024-11-20T12:49:19Z</time>
      </trkpt>
      <trkpt lat="48.16972" lon="-3.31871">
        <ele>212.7</ele>
        <time>2024-11-20T12:49:20Z</time>
      </trkpt>
      <trkpt lat="48.16973" lon="-3.3187">
        <ele>212.7</ele>
        <time>2024-11-20T12:49:21Z</time>
      </trkpt>
      <trkpt lat="48.16974" lon="-3.31869">
        <ele>212.6</ele>
        <time>2024-11-20T12:49:22Z</time>
      </trkpt>
      <trkpt lat="48.16975" lon="-3.31869">
        <ele>212.5</ele>
        <time>2024-11-20T12:49:23Z</time>
      </trkpt>
      <trkpt lat="48.16976" lon="-3.31868">
        <ele>212.5</ele>
        <time>2024-11-20T12:49:24Z</time>
      </trkpt>
      <trkpt lat="48.16976" lon="-3.31867">
        <ele>212.5</ele>
        <time>2024-11-20T12:49:25Z</time>
      </trkpt>
      <trkpt lat="48.16976" lon="-3.31866">
        <ele>212.5</ele>
        <time>2024-11-20T12:49:26Z</time>
      </trkpt>
      <trkpt lat="48.16977" lon="-3.31864">
        <ele>212.5</ele>
        <time>2024-11-20T12:49:27Z</time>
      </trkpt>
      <trkpt lat="48.16978" lon="-3.31862">
        <ele>212.5</ele>
        <time>2024-11-20T12:49:28Z</time>
      </trkpt>
      <trkpt lat="48.16979" lon="-3.31861">
        <ele>212.5</ele>
        <time>2024-11-20T12:49:29Z</time>
      </trkpt>
      <trkpt lat="48.1698" lon="-3.31859">
        <ele>212.5</ele>
        <time>2024-11-20T12:49:30Z</time>
      </trkpt>
      <trkpt lat="48.16981" lon="-3.31857">
        <ele>212.4</ele>
        <time>2024-11-20T12:49:31Z</time>
      </trkpt>
      <trkpt lat="48.16982" lon="-3.31855">
        <ele>212.4</ele>
        <time>2024-11-20T12:49:32Z</time>
      </trkpt>
      <trkpt lat="48.16983" lon="-3.31853">
        <ele>212.4</ele>
        <time>2024-11-20T12:49:33Z</time>
      </trkpt>
      <trkpt lat="48.16984" lon="-3.31852">
        <ele>212.3</ele>
        <time>2024-11-20T12:49:34Z</time>
      </trkpt>
      <trkpt lat="48.16985" lon="-3.3185">
        <ele>212.3</ele>
        <time>2024-11-20T12:49:35Z</time>
      </trkpt>
      <trkpt lat="48.16986" lon="-3.31849">
        <ele>212.2</ele>
        <time>2024-11-20T12:49:36Z</time>
      </trkpt>
      <trkpt lat="48.16987" lon="-3.31847">
        <ele>212.2</ele>
        <time>2024-11-20T12:49:37Z</time>
      </trkpt>
      <trkpt lat="48.16988" lon="-3.31845">
        <ele>212.2</ele>
        <time>2024-11-20T12:49:38Z</time>
      </trkpt>
      <trkpt lat="48.16988" lon="-3.31843">
        <ele>212.2</ele>
        <time>2024-11-20T12:49:39Z</time>
      </trkpt>
      <trkpt lat="48.16988" lon="-3.31841">
        <ele>212.3</ele>
        <time>2024-11-20T12:49:40Z</time>
      </trkpt>
      <trkpt lat="48.16989" lon="-3.3184">
        <ele>212.3</ele>
        <time>2024-11-20T12:49:41Z</time>
      </trkpt>
      <trkpt lat="48.1699" lon="-3.31838">
        <ele>212.3</ele>
        <time>2024-11-20T12:49:42Z</time>
      </trkpt>
      <trkpt lat="48.16991" lon="-3.31837">
        <ele>212.2</ele>
        <time>2024-11-20T12:49:43Z</time>
      </trkpt>
      <trkpt lat="48.16992" lon="-3.31836">
        <ele>212.2</ele>
        <time>2024-11-20T12:49:44Z</time>
      </trkpt>
      <trkpt lat="48.16993" lon="-3.31835">
        <ele>212.2</ele>
        <time>2024-11-20T12:49:45Z</time>
      </trkpt>
      <trkpt lat="48.16995" lon="-3.31834">
        <ele>212.2</ele>
        <time>2024-11-20T12:49:46Z</time>
      </trkpt>
      <trkpt lat="48.16996" lon="-3.31833">
        <ele>212.1</ele>
        <time>2024-11-20T12:49:47Z</time>
      </trkpt>
      <trkpt lat="48.16997" lon="-3.31832">
        <ele>212.1</ele>
        <time>2024-11-20T12:49:48Z</time>
      </trkpt>
      <trkpt lat="48.16997" lon="-3.31831">
        <ele>212.1</ele>
        <time>2024-11-20T12:49:49Z</time>
      </trkpt>
      <trkpt lat="48.16998" lon="-3.31829">
        <ele>212.1</ele>
        <time>2024-11-20T12:49:50Z</time>
      </trkpt>
      <trkpt lat="48.16999" lon="-3.31828">
        <ele>212</ele>
        <time>2024-11-20T12:49:51Z</time>
      </trkpt>
      <trkpt lat="48.17" lon="-3.31826">
        <ele>212</ele>
        <time>2024-11-20T12:49:52Z</time>
      </trkpt>
      <trkpt lat="48.17001" lon="-3.31825">
        <ele>211.9</ele>
        <time>2024-11-20T12:49:53Z</time>
      </trkpt>
      <trkpt lat="48.17002" lon="-3.31824">
        <ele>211.8</ele>
        <time>2024-11-20T12:49:54Z</time>
      </trkpt>
      <trkpt lat="48.17003" lon="-3.31822">
        <ele>211.7</ele>
        <time>2024-11-20T12:49:55Z</time>
      </trkpt>
      <trkpt lat="48.17004" lon="-3.31821">
        <ele>211.6</ele>
        <time>2024-11-20T12:49:56Z</time>
      </trkpt>
      <trkpt lat="48.17005" lon="-3.3182">
        <ele>211.6</ele>
        <time>2024-11-20T12:49:57Z</time>
      </trkpt>
      <trkpt lat="48.17006" lon="-3.31819">
        <ele>211.5</ele>
        <time>2024-11-20T12:49:58Z</time>
      </trkpt>
      <trkpt lat="48.17007" lon="-3.31817">
        <ele>211.4</ele>
        <time>2024-11-20T12:49:59Z</time>
      </trkpt>
      <trkpt lat="48.17007" lon="-3.31816">
        <ele>211.4</ele>
        <time>2024-11-20T12:50:00Z</time>
      </trkpt>
      <trkpt lat="48.17008" lon="-3.31815">
        <ele>211.3</ele>
        <time>2024-11-20T12:50:01Z</time>
      </trkpt>
      <trkpt lat="48.17009" lon="-3.31814">
        <ele>211.3</ele>
        <time>2024-11-20T12:50:02Z</time>
      </trkpt>
      <trkpt lat="48.17009" lon="-3.31813">
        <ele>211.3</ele>
        <time>2024-11-20T12:50:03Z</time>
      </trkpt>
      <trkpt lat="48.1701" lon="-3.31811">
        <ele>211.2</ele>
        <time>2024-11-20T12:50:04Z</time>
      </trkpt>
      <trkpt lat="48.17011" lon="-3.3181">
        <ele>211.2</ele>
        <time>2024-11-20T12:50:05Z</time>
      </trkpt>
      <trkpt lat="48.17012" lon="-3.31809">
        <ele>211.1</ele>
        <time>2024-11-20T12:50:06Z</time>
      </trkpt>
      <trkpt lat="48.17013" lon="-3.31808">
        <ele>211</ele>
        <time>2024-11-20T12:50:07Z</time>
      </trkpt>
      <trkpt lat="48.17015" lon="-3.31808">
        <ele>210.9</ele>
        <time>2024-11-20T12:50:08Z</time>
      </trkpt>
      <trkpt lat="48.17016" lon="-3.31808">
        <ele>210.8</ele>
        <time>2024-11-20T12:50:09Z</time>
      </trkpt>
      <trkpt lat="48.17017" lon="-3.31807">
        <ele>210.7</ele>
        <time>2024-11-20T12:50:10Z</time>
      </trkpt>
      <trkpt lat="48.17018" lon="-3.31806">
        <ele>210.7</ele>
        <time>2024-11-20T12:50:11Z</time>
      </trkpt>
      <trkpt lat="48.17018" lon="-3.31805">
        <ele>210.7</ele>
        <time>2024-11-20T12:50:12Z</time>
      </trkpt>
      <trkpt lat="48.17018" lon="-3.31804">
        <ele>210.7</ele>
        <time>2024-11-20T12:50:13Z</time>
      </trkpt>
      <trkpt lat="48.17019" lon="-3.31802">
        <ele>210.6</ele>
        <time>2024-11-20T12:50:14Z</time>
      </trkpt>
      <trkpt lat="48.1702" lon="-3.31801">
        <ele>210.5</ele>
        <time>2024-11-20T12:50:15Z</time>
      </trkpt>
      <trkpt lat="48.1702" lon="-3.318">
        <ele>210.5</ele>
        <time>2024-11-20T12:50:16Z</time>
      </trkpt>
      <trkpt lat="48.1702" lon="-3.31799">
        <ele>210.5</ele>
        <time>2024-11-20T12:50:17Z</time>
      </trkpt>
      <trkpt lat="48.1702" lon="-3.31797">
        <ele>210.5</ele>
        <time>2024-11-20T12:50:18Z</time>
      </trkpt>
      <trkpt lat="48.1702" lon="-3.31796">
        <ele>210.5</ele>
        <time>2024-11-20T12:50:19Z</time>
      </trkpt>
      <trkpt lat="48.1702" lon="-3.31794">
        <ele>210.4</ele>
        <time>2024-11-20T12:50:20Z</time>
      </trkpt>
      <trkpt lat="48.1702" lon="-3.31793">
        <ele>210.4</ele>
        <time>2024-11-20T12:50:21Z</time>
      </trkpt>
      <trkpt lat="48.17021" lon="-3.31792">
        <ele>210.4</ele>
        <time>2024-11-20T12:50:22Z</time>
      </trkpt>
      <trkpt lat="48.17022" lon="-3.31791">
        <ele>210.3</ele>
        <time>2024-11-20T12:50:23Z</time>
      </trkpt>
      <trkpt lat="48.17023" lon="-3.3179">
        <ele>210.3</ele>
        <time>2024-11-20T12:50:24Z</time>
      </trkpt>
      <trkpt lat="48.17023" lon="-3.31789">
        <ele>210.2</ele>
        <time>2024-11-20T12:50:25Z</time>
      </trkpt>
      <trkpt lat="48.17024" lon="-3.31788">
        <ele>210.2</ele>
        <time>2024-11-20T12:50:26Z</time>
      </trkpt>
      <trkpt lat="48.17025" lon="-3.31787">
        <ele>210.2</ele>
        <time>2024-11-20T12:50:27Z</time>
      </trkpt>
      <trkpt lat="48.17025" lon="-3.31785">
        <ele>210.1</ele>
        <time>2024-11-20T12:50:28Z</time>
      </trkpt>
      <trkpt lat="48.17026" lon="-3.31784">
        <ele>210.1</ele>
        <time>2024-11-20T12:50:29Z</time>
      </trkpt>
      <trkpt lat="48.17027" lon="-3.31783">
        <ele>210</ele>
        <time>2024-11-20T12:50:30Z</time>
      </trkpt>
      <trkpt lat="48.17027" lon="-3.31782">
        <ele>210</ele>
        <time>2024-11-20T12:50:31Z</time>
      </trkpt>
      <trkpt lat="48.17028" lon="-3.3178">
        <ele>210</ele>
        <time>2024-11-20T12:50:32Z</time>
      </trkpt>
      <trkpt lat="48.17029" lon="-3.31779">
        <ele>209.8</ele>
        <time>2024-11-20T12:50:33Z</time>
      </trkpt>
      <trkpt lat="48.1703" lon="-3.31778">
        <ele>209.7</ele>
        <time>2024-11-20T12:50:34Z</time>
      </trkpt>
      <trkpt lat="48.17031" lon="-3.31777">
        <ele>209.4</ele>
        <time>2024-11-20T12:50:35Z</time>
      </trkpt>
      <trkpt lat="48.17032" lon="-3.31776">
        <ele>209.3</ele>
        <time>2024-11-20T12:50:36Z</time>
      </trkpt>
      <trkpt lat="48.17033" lon="-3.31775">
        <ele>209.1</ele>
        <time>2024-11-20T12:50:37Z</time>
      </trkpt>
      <trkpt lat="48.17034" lon="-3.31774">
        <ele>208.9</ele>
        <time>2024-11-20T12:50:38Z</time>
      </trkpt>
      <trkpt lat="48.17035" lon="-3.31774">
        <ele>208.7</ele>
        <time>2024-11-20T12:50:39Z</time>
      </trkpt>
      <trkpt lat="48.17036" lon="-3.31773">
        <ele>208.6</ele>
        <time>2024-11-20T12:50:40Z</time>
      </trkpt>
      <trkpt lat="48.17037" lon="-3.31772">
        <ele>208.5</ele>
        <time>2024-11-20T12:50:41Z</time>
      </trkpt>
      <trkpt lat="48.17037" lon="-3.31771">
        <ele>208.4</ele>
        <time>2024-11-20T12:50:42Z</time>
      </trkpt>
      <trkpt lat="48.17038" lon="-3.3177">
        <ele>208.4</ele>
        <time>2024-11-20T12:50:43Z</time>
      </trkpt>
      <trkpt lat="48.17038" lon="-3.31768">
        <ele>208.3</ele>
        <time>2024-11-20T12:50:44Z</time>
      </trkpt>
      <trkpt lat="48.17039" lon="-3.31767">
        <ele>208.2</ele>
        <time>2024-11-20T12:50:45Z</time>
      </trkpt>
      <trkpt lat="48.1704" lon="-3.31765">
        <ele>208.1</ele>
        <time>2024-11-20T12:50:46Z</time>
      </trkpt>
      <trkpt lat="48.1704" lon="-3.31763">
        <ele>208</ele>
        <time>2024-11-20T12:50:47Z</time>
      </trkpt>
      <trkpt lat="48.17041" lon="-3.31762">
        <ele>208</ele>
        <time>2024-11-20T12:50:48Z</time>
      </trkpt>
      <trkpt lat="48.17041" lon="-3.3176">
        <ele>207.9</ele>
        <time>2024-11-20T12:50:49Z</time>
      </trkpt>
      <trkpt lat="48.17041" lon="-3.31759">
        <ele>208</ele>
        <time>2024-11-20T12:50:50Z</time>
      </trkpt>
      <trkpt lat="48.17041" lon="-3.31756">
        <ele>208</ele>
        <time>2024-11-20T12:50:51Z</time>
      </trkpt>
      <trkpt lat="48.17041" lon="-3.31754">
        <ele>208</ele>
        <time>2024-11-20T12:50:52Z</time>
      </trkpt>
      <trkpt lat="48.17041" lon="-3.31752">
        <ele>208.1</ele>
        <time>2024-11-20T12:50:53Z</time>
      </trkpt>
      <trkpt lat="48.17041" lon="-3.3175">
        <ele>208.1</ele>
        <time>2024-11-20T12:50:54Z</time>
      </trkpt>
      <trkpt lat="48.17041" lon="-3.31747">
        <ele>208.1</ele>
        <time>2024-11-20T12:50:55Z</time>
      </trkpt>
      <trkpt lat="48.17041" lon="-3.31745">
        <ele>208</ele>
        <time>2024-11-20T12:50:56Z</time>
      </trkpt>
      <trkpt lat="48.17042" lon="-3.31743">
        <ele>207.9</ele>
        <time>2024-11-20T12:50:57Z</time>
      </trkpt>
      <trkpt lat="48.17042" lon="-3.31741">
        <ele>207.8</ele>
        <time>2024-11-20T12:50:58Z</time>
      </trkpt>
      <trkpt lat="48.17043" lon="-3.3174">
        <ele>207.7</ele>
        <time>2024-11-20T12:50:59Z</time>
      </trkpt>
      <trkpt lat="48.17043" lon="-3.31739">
        <ele>207.6</ele>
        <time>2024-11-20T12:51:00Z</time>
      </trkpt>
      <trkpt lat="48.17044" lon="-3.31738">
        <ele>207.5</ele>
        <time>2024-11-20T12:51:01Z</time>
      </trkpt>
      <trkpt lat="48.17044" lon="-3.31736">
        <ele>207.4</ele>
        <time>2024-11-20T12:51:02Z</time>
      </trkpt>
      <trkpt lat="48.17044" lon="-3.31735">
        <ele>207.4</ele>
        <time>2024-11-20T12:51:03Z</time>
      </trkpt>
      <trkpt lat="48.17045" lon="-3.31735">
        <ele>207.4</ele>
        <time>2024-11-20T12:51:04Z</time>
      </trkpt>
      <trkpt lat="48.17045" lon="-3.31734">
        <ele>207.3</ele>
        <time>2024-11-20T12:51:05Z</time>
      </trkpt>
      <trkpt lat="48.17045" lon="-3.31733">
        <ele>207.3</ele>
        <time>2024-11-20T12:51:06Z</time>
      </trkpt>
      <trkpt lat="48.17045" lon="-3.31732">
        <ele>207.3</ele>
        <time>2024-11-20T12:51:07Z</time>
      </trkpt>
      <trkpt lat="48.17045" lon="-3.3173">
        <ele>207.3</ele>
        <time>2024-11-20T12:51:08Z</time>
      </trkpt>
      <trkpt lat="48.17045" lon="-3.31728">
        <ele>207.3</ele>
        <time>2024-11-20T12:51:09Z</time>
      </trkpt>
      <trkpt lat="48.17045" lon="-3.31727">
        <ele>207.2</ele>
        <time>2024-11-20T12:51:10Z</time>
      </trkpt>
      <trkpt lat="48.17046" lon="-3.31725">
        <ele>207.1</ele>
        <time>2024-11-20T12:51:11Z</time>
      </trkpt>
      <trkpt lat="48.17047" lon="-3.31724">
        <ele>207</ele>
        <time>2024-11-20T12:51:12Z</time>
      </trkpt>
      <trkpt lat="48.17047" lon="-3.31722">
        <ele>206.9</ele>
        <time>2024-11-20T12:51:13Z</time>
      </trkpt>
      <trkpt lat="48.17048" lon="-3.31721">
        <ele>206.9</ele>
        <time>2024-11-20T12:51:14Z</time>
      </trkpt>
      <trkpt lat="48.17048" lon="-3.31719">
        <ele>206.8</ele>
        <time>2024-11-20T12:51:15Z</time>
      </trkpt>
      <trkpt lat="48.17048" lon="-3.31717">
        <ele>206.8</ele>
        <time>2024-11-20T12:51:16Z</time>
      </trkpt>
      <trkpt lat="48.17048" lon="-3.31715">
        <ele>206.7</ele>
        <time>2024-11-20T12:51:17Z</time>
      </trkpt>
      <trkpt lat="48.17049" lon="-3.31714">
        <ele>206.7</ele>
        <time>2024-11-20T12:51:18Z</time>
      </trkpt>
      <trkpt lat="48.17049" lon="-3.31712">
        <ele>206.6</ele>
        <time>2024-11-20T12:51:19Z</time>
      </trkpt>
      <trkpt lat="48.17049" lon="-3.3171">
        <ele>206.6</ele>
        <time>2024-11-20T12:51:20Z</time>
      </trkpt>
      <trkpt lat="48.1705" lon="-3.31707">
        <ele>206.5</ele>
        <time>2024-11-20T12:51:21Z</time>
      </trkpt>
      <trkpt lat="48.1705" lon="-3.31706">
        <ele>206.5</ele>
        <time>2024-11-20T12:51:22Z</time>
      </trkpt>
      <trkpt lat="48.17051" lon="-3.31704">
        <ele>206.4</ele>
        <time>2024-11-20T12:51:23Z</time>
      </trkpt>
      <trkpt lat="48.17052" lon="-3.31701">
        <ele>206.3</ele>
        <time>2024-11-20T12:51:24Z</time>
      </trkpt>
      <trkpt lat="48.17053" lon="-3.31699">
        <ele>206.2</ele>
        <time>2024-11-20T12:51:25Z</time>
      </trkpt>
      <trkpt lat="48.17053" lon="-3.31696">
        <ele>206.2</ele>
        <time>2024-11-20T12:51:26Z</time>
      </trkpt>
      <trkpt lat="48.17053" lon="-3.31694">
        <ele>206.2</ele>
        <time>2024-11-20T12:51:27Z</time>
      </trkpt>
      <trkpt lat="48.17054" lon="-3.31691">
        <ele>206.3</ele>
        <time>2024-11-20T12:51:28Z</time>
      </trkpt>
      <trkpt lat="48.17054" lon="-3.31689">
        <ele>206.3</ele>
        <time>2024-11-20T12:51:29Z</time>
      </trkpt>
      <trkpt lat="48.17055" lon="-3.31686">
        <ele>206.3</ele>
        <time>2024-11-20T12:51:30Z</time>
      </trkpt>
      <trkpt lat="48.17056" lon="-3.31684">
        <ele>206.4</ele>
        <time>2024-11-20T12:51:31Z</time>
      </trkpt>
      <trkpt lat="48.17056" lon="-3.31682">
        <ele>206.4</ele>
        <time>2024-11-20T12:51:32Z</time>
      </trkpt>
      <trkpt lat="48.17057" lon="-3.3168">
        <ele>206.4</ele>
        <time>2024-11-20T12:51:33Z</time>
      </trkpt>
      <trkpt lat="48.17058" lon="-3.31677">
        <ele>206.4</ele>
        <time>2024-11-20T12:51:34Z</time>
      </trkpt>
      <trkpt lat="48.17058" lon="-3.31675">
        <ele>206.4</ele>
        <time>2024-11-20T12:51:35Z</time>
      </trkpt>
      <trkpt lat="48.17059" lon="-3.31673">
        <ele>206.4</ele>
        <time>2024-11-20T12:51:36Z</time>
      </trkpt>
      <trkpt lat="48.17059" lon="-3.31671">
        <ele>206.5</ele>
        <time>2024-11-20T12:51:37Z</time>
      </trkpt>
      <trkpt lat="48.1706" lon="-3.3167">
        <ele>206.5</ele>
        <time>2024-11-20T12:51:38Z</time>
      </trkpt>
      <trkpt lat="48.1706" lon="-3.31668">
        <ele>206.5</ele>
        <time>2024-11-20T12:51:39Z</time>
      </trkpt>
      <trkpt lat="48.17061" lon="-3.31666">
        <ele>206.5</ele>
        <time>2024-11-20T12:51:40Z</time>
      </trkpt>
      <trkpt lat="48.17061" lon="-3.31666">
        <ele>206.4</ele>
        <time>2024-11-20T12:51:41Z</time>
      </trkpt>
      <trkpt lat="48.17061" lon="-3.31665">
        <ele>206.4</ele>
        <time>2024-11-20T12:51:42Z</time>
      </trkpt>
      <trkpt lat="48.17061" lon="-3.31663">
        <ele>206.4</ele>
        <time>2024-11-20T12:51:43Z</time>
      </trkpt>
      <trkpt lat="48.17062" lon="-3.31661">
        <ele>206.3</ele>
        <time>2024-11-20T12:51:44Z</time>
      </trkpt>
      <trkpt lat="48.17062" lon="-3.3166">
        <ele>206.3</ele>
        <time>2024-11-20T12:51:45Z</time>
      </trkpt>
      <trkpt lat="48.17062" lon="-3.31658">
        <ele>206.3</ele>
        <time>2024-11-20T12:51:46Z</time>
      </trkpt>
      <trkpt lat="48.17063" lon="-3.31656">
        <ele>206.2</ele>
        <time>2024-11-20T12:51:47Z</time>
      </trkpt>
      <trkpt lat="48.17063" lon="-3.31655">
        <ele>206.2</ele>
        <time>2024-11-20T12:51:48Z</time>
      </trkpt>
      <trkpt lat="48.17064" lon="-3.31653">
        <ele>206.1</ele>
        <time>2024-11-20T12:51:49Z</time>
      </trkpt>
      <trkpt lat="48.17064" lon="-3.31652">
        <ele>206</ele>
        <time>2024-11-20T12:51:50Z</time>
      </trkpt>
      <trkpt lat="48.17065" lon="-3.31651">
        <ele>206</ele>
        <time>2024-11-20T12:51:51Z</time>
      </trkpt>
      <trkpt lat="48.17065" lon="-3.31649">
        <ele>205.9</ele>
        <time>2024-11-20T12:51:52Z</time>
      </trkpt>
      <trkpt lat="48.17066" lon="-3.31648">
        <ele>205.9</ele>
        <time>2024-11-20T12:51:53Z</time>
      </trkpt>
      <trkpt lat="48.17067" lon="-3.31646">
        <ele>205.8</ele>
        <time>2024-11-20T12:51:54Z</time>
      </trkpt>
      <trkpt lat="48.17067" lon="-3.31644">
        <ele>205.7</ele>
        <time>2024-11-20T12:51:55Z</time>
      </trkpt>
      <trkpt lat="48.17068" lon="-3.31642">
        <ele>205.7</ele>
        <time>2024-11-20T12:51:56Z</time>
      </trkpt>
      <trkpt lat="48.17069" lon="-3.3164">
        <ele>205.6</ele>
        <time>2024-11-20T12:51:57Z</time>
      </trkpt>
      <trkpt lat="48.17069" lon="-3.31639">
        <ele>205.5</ele>
        <time>2024-11-20T12:51:58Z</time>
      </trkpt>
      <trkpt lat="48.1707" lon="-3.31637">
        <ele>205.4</ele>
        <time>2024-11-20T12:51:59Z</time>
      </trkpt>
      <trkpt lat="48.1707" lon="-3.31635">
        <ele>205.4</ele>
        <time>2024-11-20T12:52:00Z</time>
      </trkpt>
      <trkpt lat="48.1707" lon="-3.31634">
        <ele>205.3</ele>
        <time>2024-11-20T12:52:01Z</time>
      </trkpt>
      <trkpt lat="48.17071" lon="-3.31632">
        <ele>205.2</ele>
        <time>2024-11-20T12:52:02Z</time>
      </trkpt>
      <trkpt lat="48.17072" lon="-3.31631">
        <ele>205.1</ele>
        <time>2024-11-20T12:52:03Z</time>
      </trkpt>
      <trkpt lat="48.17074" lon="-3.31629">
        <ele>204.9</ele>
        <time>2024-11-20T12:52:04Z</time>
      </trkpt>
      <trkpt lat="48.17075" lon="-3.31628">
        <ele>204.8</ele>
        <time>2024-11-20T12:52:05Z</time>
      </trkpt>
      <trkpt lat="48.17077" lon="-3.31627">
        <ele>204.6</ele>
        <time>2024-11-20T12:52:06Z</time>
      </trkpt>
      <trkpt lat="48.17078" lon="-3.31626">
        <ele>204.5</ele>
        <time>2024-11-20T12:52:07Z</time>
      </trkpt>
      <trkpt lat="48.17079" lon="-3.31626">
        <ele>204.4</ele>
        <time>2024-11-20T12:52:08Z</time>
      </trkpt>
      <trkpt lat="48.1708" lon="-3.31625">
        <ele>204.3</ele>
        <time>2024-11-20T12:52:09Z</time>
      </trkpt>
      <trkpt lat="48.17081" lon="-3.31625">
        <ele>204.2</ele>
        <time>2024-11-20T12:52:10Z</time>
      </trkpt>
      <trkpt lat="48.17082" lon="-3.31625">
        <ele>204.1</ele>
        <time>2024-11-20T12:52:11Z</time>
      </trkpt>
      <trkpt lat="48.17083" lon="-3.31624">
        <ele>204</ele>
        <time>2024-11-20T12:52:12Z</time>
      </trkpt>
      <trkpt lat="48.17083" lon="-3.31623">
        <ele>204</ele>
        <time>2024-11-20T12:52:13Z</time>
      </trkpt>
      <trkpt lat="48.17084" lon="-3.31623">
        <ele>203.9</ele>
        <time>2024-11-20T12:52:14Z</time>
      </trkpt>
      <trkpt lat="48.17086" lon="-3.31622">
        <ele>203.8</ele>
        <time>2024-11-20T12:52:15Z</time>
      </trkpt>
      <trkpt lat="48.17087" lon="-3.31622">
        <ele>203.8</ele>
        <time>2024-11-20T12:52:16Z</time>
      </trkpt>
      <trkpt lat="48.17088" lon="-3.31621">
        <ele>203.7</ele>
        <time>2024-11-20T12:52:17Z</time>
      </trkpt>
      <trkpt lat="48.17089" lon="-3.3162">
        <ele>203.6</ele>
        <time>2024-11-20T12:52:18Z</time>
      </trkpt>
      <trkpt lat="48.17091" lon="-3.31619">
        <ele>203.5</ele>
        <time>2024-11-20T12:52:19Z</time>
      </trkpt>
      <trkpt lat="48.17092" lon="-3.31619">
        <ele>203.4</ele>
        <time>2024-11-20T12:52:20Z</time>
      </trkpt>
      <trkpt lat="48.17093" lon="-3.31618">
        <ele>203.3</ele>
        <time>2024-11-20T12:52:21Z</time>
      </trkpt>
      <trkpt lat="48.17094" lon="-3.31618">
        <ele>203.2</ele>
        <time>2024-11-20T12:52:22Z</time>
      </trkpt>
      <trkpt lat="48.17095" lon="-3.31617">
        <ele>203.2</ele>
        <time>2024-11-20T12:52:23Z</time>
      </trkpt>
      <trkpt lat="48.17096" lon="-3.31617">
        <ele>203.1</ele>
        <time>2024-11-20T12:52:24Z</time>
      </trkpt>
      <trkpt lat="48.17097" lon="-3.31617">
        <ele>203</ele>
        <time>2024-11-20T12:52:25Z</time>
      </trkpt>
      <trkpt lat="48.17098" lon="-3.31617">
        <ele>202.9</ele>
        <time>2024-11-20T12:52:26Z</time>
      </trkpt>
      <trkpt lat="48.171" lon="-3.31617">
        <ele>202.8</ele>
        <time>2024-11-20T12:52:27Z</time>
      </trkpt>
      <trkpt lat="48.17101" lon="-3.31617">
        <ele>202.7</ele>
        <time>2024-11-20T12:52:28Z</time>
      </trkpt>
      <trkpt lat="48.17103" lon="-3.31617">
        <ele>202.6</ele>
        <time>2024-11-20T12:52:29Z</time>
      </trkpt>
      <trkpt lat="48.17104" lon="-3.31617">
        <ele>202.5</ele>
        <time>2024-11-20T12:52:30Z</time>
      </trkpt>
      <trkpt lat="48.17105" lon="-3.31617">
        <ele>202.4</ele>
        <time>2024-11-20T12:52:31Z</time>
      </trkpt>
      <trkpt lat="48.17106" lon="-3.31617">
        <ele>202.3</ele>
        <time>2024-11-20T12:52:32Z</time>
      </trkpt>
      <trkpt lat="48.17107" lon="-3.31616">
        <ele>202.3</ele>
        <time>2024-11-20T12:52:33Z</time>
      </trkpt>
      <trkpt lat="48.17108" lon="-3.31616">
        <ele>202.3</ele>
        <time>2024-11-20T12:52:34Z</time>
      </trkpt>
      <trkpt lat="48.17108" lon="-3.31615">
        <ele>202.2</ele>
        <time>2024-11-20T12:52:35Z</time>
      </trkpt>
      <trkpt lat="48.17109" lon="-3.31614">
        <ele>202.2</ele>
        <time>2024-11-20T12:52:36Z</time>
      </trkpt>
      <trkpt lat="48.1711" lon="-3.31614">
        <ele>202.1</ele>
        <time>2024-11-20T12:52:37Z</time>
      </trkpt>
      <trkpt lat="48.17112" lon="-3.31613">
        <ele>202</ele>
        <time>2024-11-20T12:52:38Z</time>
      </trkpt>
      <trkpt lat="48.17113" lon="-3.31613">
        <ele>201.9</ele>
        <time>2024-11-20T12:52:39Z</time>
      </trkpt>
      <trkpt lat="48.17115" lon="-3.31612">
        <ele>201.9</ele>
        <time>2024-11-20T12:52:40Z</time>
      </trkpt>
      <trkpt lat="48.17116" lon="-3.31611">
        <ele>201.8</ele>
        <time>2024-11-20T12:52:41Z</time>
      </trkpt>
      <trkpt lat="48.17117" lon="-3.31611">
        <ele>201.8</ele>
        <time>2024-11-20T12:52:42Z</time>
      </trkpt>
      <trkpt lat="48.17118" lon="-3.31611">
        <ele>201.8</ele>
        <time>2024-11-20T12:52:43Z</time>
      </trkpt>
      <trkpt lat="48.17119" lon="-3.3161">
        <ele>201.7</ele>
        <time>2024-11-20T12:52:44Z</time>
      </trkpt>
      <trkpt lat="48.1712" lon="-3.3161">
        <ele>201.7</ele>
        <time>2024-11-20T12:52:45Z</time>
      </trkpt>
      <trkpt lat="48.17121" lon="-3.3161">
        <ele>201.7</ele>
        <time>2024-11-20T12:52:46Z</time>
      </trkpt>
      <trkpt lat="48.17123" lon="-3.3161">
        <ele>201.6</ele>
        <time>2024-11-20T12:52:47Z</time>
      </trkpt>
      <trkpt lat="48.17124" lon="-3.3161">
        <ele>201.6</ele>
        <time>2024-11-20T12:52:48Z</time>
      </trkpt>
      <trkpt lat="48.17125" lon="-3.31609">
        <ele>201.5</ele>
        <time>2024-11-20T12:52:49Z</time>
      </trkpt>
      <trkpt lat="48.17126" lon="-3.31609">
        <ele>201.5</ele>
        <time>2024-11-20T12:52:50Z</time>
      </trkpt>
      <trkpt lat="48.17127" lon="-3.31609">
        <ele>201.5</ele>
        <time>2024-11-20T12:52:51Z</time>
      </trkpt>
      <trkpt lat="48.17128" lon="-3.31609">
        <ele>201.4</ele>
        <time>2024-11-20T12:52:52Z</time>
      </trkpt>
      <trkpt lat="48.17128" lon="-3.31609">
        <ele>201.4</ele>
        <time>2024-11-20T12:52:53Z</time>
      </trkpt>
      <trkpt lat="48.17129" lon="-3.31609">
        <ele>201.4</ele>
        <time>2024-11-20T12:52:54Z</time>
      </trkpt>
      <trkpt lat="48.1713" lon="-3.3161">
        <ele>201.3</ele>
        <time>2024-11-20T12:52:55Z</time>
      </trkpt>
      <trkpt lat="48.17131" lon="-3.3161">
        <ele>201.3</ele>
        <time>2024-11-20T12:52:56Z</time>
      </trkpt>
      <trkpt lat="48.17132" lon="-3.31611">
        <ele>201.3</ele>
        <time>2024-11-20T12:52:57Z</time>
      </trkpt>
      <trkpt lat="48.17133" lon="-3.31612">
        <ele>201.2</ele>
        <time>2024-11-20T12:52:58Z</time>
      </trkpt>
      <trkpt lat="48.17134" lon="-3.31613">
        <ele>201.3</ele>
        <time>2024-11-20T12:52:59Z</time>
      </trkpt>
      <trkpt lat="48.17134" lon="-3.31614">
        <ele>201.3</ele>
        <time>2024-11-20T12:53:00Z</time>
      </trkpt>
      <trkpt lat="48.17135" lon="-3.31615">
        <ele>201.3</ele>
        <time>2024-11-20T12:53:01Z</time>
      </trkpt>
      <trkpt lat="48.17136" lon="-3.31617">
        <ele>201.3</ele>
        <time>2024-11-20T12:53:02Z</time>
      </trkpt>
      <trkpt lat="48.17137" lon="-3.31618">
        <ele>201.3</ele>
        <time>2024-11-20T12:53:03Z</time>
      </trkpt>
      <trkpt lat="48.17137" lon="-3.3162">
        <ele>201.3</ele>
        <time>2024-11-20T12:53:04Z</time>
      </trkpt>
      <trkpt lat="48.17138" lon="-3.31621">
        <ele>201.4</ele>
        <time>2024-11-20T12:53:05Z</time>
      </trkpt>
      <trkpt lat="48.17138" lon="-3.31622">
        <ele>201.4</ele>
        <time>2024-11-20T12:53:06Z</time>
      </trkpt>
      <trkpt lat="48.17139" lon="-3.31624">
        <ele>201.5</ele>
        <time>2024-11-20T12:53:07Z</time>
      </trkpt>
      <trkpt lat="48.17139" lon="-3.31626">
        <ele>201.5</ele>
        <time>2024-11-20T12:53:08Z</time>
      </trkpt>
      <trkpt lat="48.17139" lon="-3.31627">
        <ele>201.6</ele>
        <time>2024-11-20T12:53:09Z</time>
      </trkpt>
      <trkpt lat="48.1714" lon="-3.31628">
        <ele>201.6</ele>
        <time>2024-11-20T12:53:10Z</time>
      </trkpt>
      <trkpt lat="48.1714" lon="-3.3163">
        <ele>201.6</ele>
        <time>2024-11-20T12:53:11Z</time>
      </trkpt>
      <trkpt lat="48.17141" lon="-3.31632">
        <ele>201.7</ele>
        <time>2024-11-20T12:53:12Z</time>
      </trkpt>
      <trkpt lat="48.17141" lon="-3.31633">
        <ele>201.7</ele>
        <time>2024-11-20T12:53:13Z</time>
      </trkpt>
      <trkpt lat="48.17141" lon="-3.31634">
        <ele>201.8</ele>
        <time>2024-11-20T12:53:14Z</time>
      </trkpt>
      <trkpt lat="48.17141" lon="-3.31635">
        <ele>201.8</ele>
        <time>2024-11-20T12:53:15Z</time>
      </trkpt>
      <trkpt lat="48.17142" lon="-3.31637">
        <ele>201.8</ele>
        <time>2024-11-20T12:53:16Z</time>
      </trkpt>
      <trkpt lat="48.17143" lon="-3.31638">
        <ele>201.8</ele>
        <time>2024-11-20T12:53:17Z</time>
      </trkpt>
      <trkpt lat="48.17144" lon="-3.31639">
        <ele>201.8</ele>
        <time>2024-11-20T12:53:18Z</time>
      </trkpt>
      <trkpt lat="48.17145" lon="-3.31641">
        <ele>201.8</ele>
        <time>2024-11-20T12:53:19Z</time>
      </trkpt>
      <trkpt lat="48.17145" lon="-3.31642">
        <ele>201.8</ele>
        <time>2024-11-20T12:53:20Z</time>
      </trkpt>
      <trkpt lat="48.17146" lon="-3.31642">
        <ele>201.8</ele>
        <time>2024-11-20T12:53:21Z</time>
      </trkpt>
      <trkpt lat="48.17146" lon="-3.31643">
        <ele>201.7</ele>
        <time>2024-11-20T12:53:22Z</time>
      </trkpt>
      <trkpt lat="48.17147" lon="-3.31644">
        <ele>201.7</ele>
        <time>2024-11-20T12:53:23Z</time>
      </trkpt>
      <trkpt lat="48.17147" lon="-3.31645">
        <ele>201.7</ele>
        <time>2024-11-20T12:53:24Z</time>
      </trkpt>
      <trkpt lat="48.17147" lon="-3.31646">
        <ele>201.7</ele>
        <time>2024-11-20T12:53:25Z</time>
      </trkpt>
      <trkpt lat="48.17148" lon="-3.31647">
        <ele>201.7</ele>
        <time>2024-11-20T12:53:26Z</time>
      </trkpt>
      <trkpt lat="48.17148" lon="-3.31648">
        <ele>201.7</ele>
        <time>2024-11-20T12:53:27Z</time>
      </trkpt>
      <trkpt lat="48.17149" lon="-3.31649">
        <ele>201.6</ele>
        <time>2024-11-20T12:53:28Z</time>
      </trkpt>
      <trkpt lat="48.1715" lon="-3.31651">
        <ele>201.6</ele>
        <time>2024-11-20T12:53:29Z</time>
      </trkpt>
      <trkpt lat="48.1715" lon="-3.31652">
        <ele>201.6</ele>
        <time>2024-11-20T12:53:30Z</time>
      </trkpt>
      <trkpt lat="48.17151" lon="-3.31654">
        <ele>201.6</ele>
        <time>2024-11-20T12:53:31Z</time>
      </trkpt>
      <trkpt lat="48.17151" lon="-3.31655">
        <ele>201.5</ele>
        <time>2024-11-20T12:53:32Z</time>
      </trkpt>
      <trkpt lat="48.17152" lon="-3.31656">
        <ele>201.5</ele>
        <time>2024-11-20T12:53:33Z</time>
      </trkpt>
      <trkpt lat="48.17153" lon="-3.31657">
        <ele>201.5</ele>
        <time>2024-11-20T12:53:34Z</time>
      </trkpt>
      <trkpt lat="48.17153" lon="-3.31658">
        <ele>201.5</ele>
        <time>2024-11-20T12:53:35Z</time>
      </trkpt>
      <trkpt lat="48.17153" lon="-3.3166">
        <ele>201.5</ele>
        <time>2024-11-20T12:53:36Z</time>
      </trkpt>
      <trkpt lat="48.17154" lon="-3.31661">
        <ele>201.5</ele>
        <time>2024-11-20T12:53:37Z</time>
      </trkpt>
      <trkpt lat="48.17155" lon="-3.31662">
        <ele>201.4</ele>
        <time>2024-11-20T12:53:38Z</time>
      </trkpt>
      <trkpt lat="48.17155" lon="-3.31664">
        <ele>201.4</ele>
        <time>2024-11-20T12:53:39Z</time>
      </trkpt>
      <trkpt lat="48.17156" lon="-3.31665">
        <ele>201.4</ele>
        <time>2024-11-20T12:53:40Z</time>
      </trkpt>
      <trkpt lat="48.17157" lon="-3.31667">
        <ele>201.3</ele>
        <time>2024-11-20T12:53:41Z</time>
      </trkpt>
      <trkpt lat="48.17158" lon="-3.31668">
        <ele>201.3</ele>
        <time>2024-11-20T12:53:42Z</time>
      </trkpt>
      <trkpt lat="48.17159" lon="-3.31669">
        <ele>201.2</ele>
        <time>2024-11-20T12:53:43Z</time>
      </trkpt>
      <trkpt lat="48.1716" lon="-3.31671">
        <ele>201.2</ele>
        <time>2024-11-20T12:53:44Z</time>
      </trkpt>
      <trkpt lat="48.17161" lon="-3.31673">
        <ele>201.2</ele>
        <time>2024-11-20T12:53:45Z</time>
      </trkpt>
      <trkpt lat="48.17161" lon="-3.31675">
        <ele>201.1</ele>
        <time>2024-11-20T12:53:46Z</time>
      </trkpt>
      <trkpt lat="48.17162" lon="-3.31676">
        <ele>201.1</ele>
        <time>2024-11-20T12:53:47Z</time>
      </trkpt>
      <trkpt lat="48.17162" lon="-3.31678">
        <ele>201.1</ele>
        <time>2024-11-20T12:53:48Z</time>
      </trkpt>
      <trkpt lat="48.17163" lon="-3.31679">
        <ele>201.1</ele>
        <time>2024-11-20T12:53:49Z</time>
      </trkpt>
      <trkpt lat="48.17163" lon="-3.31681">
        <ele>201.1</ele>
        <time>2024-11-20T12:53:50Z</time>
      </trkpt>
      <trkpt lat="48.17163" lon="-3.31683">
        <ele>201</ele>
        <time>2024-11-20T12:53:51Z</time>
      </trkpt>
      <trkpt lat="48.17163" lon="-3.31685">
        <ele>201</ele>
        <time>2024-11-20T12:53:52Z</time>
      </trkpt>
      <trkpt lat="48.17163" lon="-3.31686">
        <ele>201</ele>
        <time>2024-11-20T12:53:53Z</time>
      </trkpt>
      <trkpt lat="48.17163" lon="-3.31688">
        <ele>201</ele>
        <time>2024-11-20T12:53:54Z</time>
      </trkpt>
      <trkpt lat="48.17164" lon="-3.3169">
        <ele>201</ele>
        <time>2024-11-20T12:53:55Z</time>
      </trkpt>
      <trkpt lat="48.17164" lon="-3.31692">
        <ele>201</ele>
        <time>2024-11-20T12:53:56Z</time>
      </trkpt>
      <trkpt lat="48.17164" lon="-3.31694">
        <ele>201</ele>
        <time>2024-11-20T12:53:57Z</time>
      </trkpt>
      <trkpt lat="48.17165" lon="-3.31696">
        <ele>201</ele>
        <time>2024-11-20T12:53:58Z</time>
      </trkpt>
      <trkpt lat="48.17165" lon="-3.31697">
        <ele>200.9</ele>
        <time>2024-11-20T12:53:59Z</time>
      </trkpt>
      <trkpt lat="48.17166" lon="-3.317">
        <ele>200.8</ele>
        <time>2024-11-20T12:54:00Z</time>
      </trkpt>
      <trkpt lat="48.17166" lon="-3.31702">
        <ele>200.7</ele>
        <time>2024-11-20T12:54:01Z</time>
      </trkpt>
      <trkpt lat="48.17166" lon="-3.31704">
        <ele>200.7</ele>
        <time>2024-11-20T12:54:02Z</time>
      </trkpt>
      <trkpt lat="48.17166" lon="-3.31705">
        <ele>200.6</ele>
        <time>2024-11-20T12:54:03Z</time>
      </trkpt>
      <trkpt lat="48.17167" lon="-3.31706">
        <ele>200.6</ele>
        <time>2024-11-20T12:54:04Z</time>
      </trkpt>
      <trkpt lat="48.17167" lon="-3.31708">
        <ele>200.5</ele>
        <time>2024-11-20T12:54:05Z</time>
      </trkpt>
      <trkpt lat="48.17168" lon="-3.3171">
        <ele>200.5</ele>
        <time>2024-11-20T12:54:06Z</time>
      </trkpt>
      <trkpt lat="48.17168" lon="-3.31712">
        <ele>200.4</ele>
        <time>2024-11-20T12:54:07Z</time>
      </trkpt>
      <trkpt lat="48.17169" lon="-3.31714">
        <ele>200.4</ele>
        <time>2024-11-20T12:54:08Z</time>
      </trkpt>
      <trkpt lat="48.1717" lon="-3.31716">
        <ele>200.3</ele>
        <time>2024-11-20T12:54:09Z</time>
      </trkpt>
      <trkpt lat="48.17171" lon="-3.31718">
        <ele>200.3</ele>
        <time>2024-11-20T12:54:10Z</time>
      </trkpt>
      <trkpt lat="48.17172" lon="-3.3172">
        <ele>200.3</ele>
        <time>2024-11-20T12:54:11Z</time>
      </trkpt>
      <trkpt lat="48.17172" lon="-3.31722">
        <ele>200.2</ele>
        <time>2024-11-20T12:54:12Z</time>
      </trkpt>
      <trkpt lat="48.17173" lon="-3.31724">
        <ele>200.2</ele>
        <time>2024-11-20T12:54:13Z</time>
      </trkpt>
      <trkpt lat="48.17173" lon="-3.31726">
        <ele>200.3</ele>
        <time>2024-11-20T12:54:14Z</time>
      </trkpt>
      <trkpt lat="48.17174" lon="-3.31727">
        <ele>200.3</ele>
        <time>2024-11-20T12:54:15Z</time>
      </trkpt>
      <trkpt lat="48.17174" lon="-3.31729">
        <ele>200.3</ele>
        <time>2024-11-20T12:54:16Z</time>
      </trkpt>
      <trkpt lat="48.17175" lon="-3.3173">
        <ele>200.4</ele>
        <time>2024-11-20T12:54:17Z</time>
      </trkpt>
      <trkpt lat="48.17175" lon="-3.31732">
        <ele>200.4</ele>
        <time>2024-11-20T12:54:18Z</time>
      </trkpt>
      <trkpt lat="48.17176" lon="-3.31734">
        <ele>200.5</ele>
        <time>2024-11-20T12:54:19Z</time>
      </trkpt>
      <trkpt lat="48.17176" lon="-3.31736">
        <ele>200.5</ele>
        <time>2024-11-20T12:54:20Z</time>
      </trkpt>
      <trkpt lat="48.17177" lon="-3.31737">
        <ele>200.5</ele>
        <time>2024-11-20T12:54:21Z</time>
      </trkpt>
      <trkpt lat="48.17177" lon="-3.31739">
        <ele>200.6</ele>
        <time>2024-11-20T12:54:22Z</time>
      </trkpt>
      <trkpt lat="48.17177" lon="-3.31741">
        <ele>200.6</ele>
        <time>2024-11-20T12:54:23Z</time>
      </trkpt>
      <trkpt lat="48.17177" lon="-3.31743">
        <ele>200.7</ele>
        <time>2024-11-20T12:54:24Z</time>
      </trkpt>
      <trkpt lat="48.17178" lon="-3.31745">
        <ele>200.7</ele>
        <time>2024-11-20T12:54:25Z</time>
      </trkpt>
      <trkpt lat="48.17178" lon="-3.31747">
        <ele>200.8</ele>
        <time>2024-11-20T12:54:26Z</time>
      </trkpt>
      <trkpt lat="48.17179" lon="-3.31749">
        <ele>200.9</ele>
        <time>2024-11-20T12:54:27Z</time>
      </trkpt>
      <trkpt lat="48.1718" lon="-3.3175">
        <ele>201</ele>
        <time>2024-11-20T12:54:28Z</time>
      </trkpt>
      <trkpt lat="48.17181" lon="-3.31752">
        <ele>201</ele>
        <time>2024-11-20T12:54:29Z</time>
      </trkpt>
      <trkpt lat="48.17182" lon="-3.31753">
        <ele>201</ele>
        <time>2024-11-20T12:54:30Z</time>
      </trkpt>
      <trkpt lat="48.17183" lon="-3.31755">
        <ele>201.1</ele>
        <time>2024-11-20T12:54:31Z</time>
      </trkpt>
      <trkpt lat="48.17184" lon="-3.31756">
        <ele>201.1</ele>
        <time>2024-11-20T12:54:32Z</time>
      </trkpt>
      <trkpt lat="48.17184" lon="-3.31757">
        <ele>201.2</ele>
        <time>2024-11-20T12:54:33Z</time>
      </trkpt>
      <trkpt lat="48.17185" lon="-3.31758">
        <ele>201.2</ele>
        <time>2024-11-20T12:54:34Z</time>
      </trkpt>
      <trkpt lat="48.17186" lon="-3.31759">
        <ele>201.3</ele>
        <time>2024-11-20T12:54:35Z</time>
      </trkpt>
      <trkpt lat="48.17187" lon="-3.31761">
        <ele>201.4</ele>
        <time>2024-11-20T12:54:36Z</time>
      </trkpt>
      <trkpt lat="48.17188" lon="-3.31762">
        <ele>201.4</ele>
        <time>2024-11-20T12:54:37Z</time>
      </trkpt>
      <trkpt lat="48.17189" lon="-3.31763">
        <ele>201.5</ele>
        <time>2024-11-20T12:54:38Z</time>
      </trkpt>
      <trkpt lat="48.1719" lon="-3.31764">
        <ele>201.6</ele>
        <time>2024-11-20T12:54:39Z</time>
      </trkpt>
      <trkpt lat="48.17192" lon="-3.31765">
        <ele>201.7</ele>
        <time>2024-11-20T12:54:40Z</time>
      </trkpt>
      <trkpt lat="48.17193" lon="-3.31766">
        <ele>201.8</ele>
        <time>2024-11-20T12:54:41Z</time>
      </trkpt>
      <trkpt lat="48.17194" lon="-3.31767">
        <ele>201.9</ele>
        <time>2024-11-20T12:54:42Z</time>
      </trkpt>
      <trkpt lat="48.17195" lon="-3.31767">
        <ele>202.1</ele>
        <time>2024-11-20T12:54:43Z</time>
      </trkpt>
      <trkpt lat="48.17196" lon="-3.31768">
        <ele>202.2</ele>
        <time>2024-11-20T12:54:44Z</time>
      </trkpt>
      <trkpt lat="48.17198" lon="-3.31769">
        <ele>202.3</ele>
        <time>2024-11-20T12:54:45Z</time>
      </trkpt>
      <trkpt lat="48.17199" lon="-3.31769">
        <ele>202.4</ele>
        <time>2024-11-20T12:54:46Z</time>
      </trkpt>
      <trkpt lat="48.172" lon="-3.3177">
        <ele>202.5</ele>
        <time>2024-11-20T12:54:47Z</time>
      </trkpt>
      <trkpt lat="48.17201" lon="-3.3177">
        <ele>202.6</ele>
        <time>2024-11-20T12:54:48Z</time>
      </trkpt>
      <trkpt lat="48.17202" lon="-3.31771">
        <ele>202.7</ele>
        <time>2024-11-20T12:54:49Z</time>
      </trkpt>
      <trkpt lat="48.17202" lon="-3.31772">
        <ele>202.8</ele>
        <time>2024-11-20T12:54:50Z</time>
      </trkpt>
      <trkpt lat="48.17203" lon="-3.31773">
        <ele>202.9</ele>
        <time>2024-11-20T12:54:51Z</time>
      </trkpt>
      <trkpt lat="48.17204" lon="-3.31773">
        <ele>202.9</ele>
        <time>2024-11-20T12:54:52Z</time>
      </trkpt>
      <trkpt lat="48.17205" lon="-3.31774">
        <ele>203</ele>
        <time>2024-11-20T12:54:53Z</time>
      </trkpt>
      <trkpt lat="48.17205" lon="-3.31775">
        <ele>203.1</ele>
        <time>2024-11-20T12:54:54Z</time>
      </trkpt>
      <trkpt lat="48.17206" lon="-3.31776">
        <ele>203.2</ele>
        <time>2024-11-20T12:54:55Z</time>
      </trkpt>
      <trkpt lat="48.17207" lon="-3.31778">
        <ele>203.3</ele>
        <time>2024-11-20T12:54:56Z</time>
      </trkpt>
      <trkpt lat="48.17207" lon="-3.31779">
        <ele>203.4</ele>
        <time>2024-11-20T12:54:57Z</time>
      </trkpt>
      <trkpt lat="48.17208" lon="-3.3178">
        <ele>203.5</ele>
        <time>2024-11-20T12:54:58Z</time>
      </trkpt>
      <trkpt lat="48.17208" lon="-3.31781">
        <ele>203.6</ele>
        <time>2024-11-20T12:54:59Z</time>
      </trkpt>
      <trkpt lat="48.17209" lon="-3.31782">
        <ele>203.7</ele>
        <time>2024-11-20T12:55:00Z</time>
      </trkpt>
      <trkpt lat="48.1721" lon="-3.31783">
        <ele>203.9</ele>
        <time>2024-11-20T12:55:01Z</time>
      </trkpt>
      <trkpt lat="48.17211" lon="-3.31785">
        <ele>204</ele>
        <time>2024-11-20T12:55:02Z</time>
      </trkpt>
      <trkpt lat="48.17212" lon="-3.31786">
        <ele>204.1</ele>
        <time>2024-11-20T12:55:03Z</time>
      </trkpt>
      <trkpt lat="48.17213" lon="-3.31787">
        <ele>204.3</ele>
        <time>2024-11-20T12:55:04Z</time>
      </trkpt>
      <trkpt lat="48.17214" lon="-3.31788">
        <ele>204.4</ele>
        <time>2024-11-20T12:55:05Z</time>
      </trkpt>
      <trkpt lat="48.17215" lon="-3.3179">
        <ele>204.6</ele>
        <time>2024-11-20T12:55:06Z</time>
      </trkpt>
      <trkpt lat="48.17216" lon="-3.31791">
        <ele>204.8</ele>
        <time>2024-11-20T12:55:07Z</time>
      </trkpt>
      <trkpt lat="48.17217" lon="-3.31792">
        <ele>204.9</ele>
        <time>2024-11-20T12:55:08Z</time>
      </trkpt>
      <trkpt lat="48.17218" lon="-3.31793">
        <ele>205.1</ele>
        <time>2024-11-20T12:55:09Z</time>
      </trkpt>
      <trkpt lat="48.17219" lon="-3.31794">
        <ele>205.2</ele>
        <time>2024-11-20T12:55:10Z</time>
      </trkpt>
      <trkpt lat="48.1722" lon="-3.31795">
        <ele>205.4</ele>
        <time>2024-11-20T12:55:11Z</time>
      </trkpt>
      <trkpt lat="48.17221" lon="-3.31796">
        <ele>205.5</ele>
        <time>2024-11-20T12:55:12Z</time>
      </trkpt>
      <trkpt lat="48.17222" lon="-3.31797">
        <ele>205.6</ele>
        <time>2024-11-20T12:55:13Z</time>
      </trkpt>
      <trkpt lat="48.17223" lon="-3.31798">
        <ele>205.8</ele>
        <time>2024-11-20T12:55:14Z</time>
      </trkpt>
      <trkpt lat="48.17223" lon="-3.31798">
        <ele>205.9</ele>
        <time>2024-11-20T12:55:15Z</time>
      </trkpt>
      <trkpt lat="48.17224" lon="-3.31799">
        <ele>205.9</ele>
        <time>2024-11-20T12:55:16Z</time>
      </trkpt>
      <trkpt lat="48.17224" lon="-3.31799">
        <ele>206</ele>
        <time>2024-11-20T12:55:17Z</time>
      </trkpt>
      <trkpt lat="48.17225" lon="-3.318">
        <ele>206.1</ele>
        <time>2024-11-20T12:55:18Z</time>
      </trkpt>
      <trkpt lat="48.17226" lon="-3.31801">
        <ele>206.2</ele>
        <time>2024-11-20T12:55:19Z</time>
      </trkpt>
      <trkpt lat="48.17226" lon="-3.31801">
        <ele>206.3</ele>
        <time>2024-11-20T12:55:20Z</time>
      </trkpt>
      <trkpt lat="48.17227" lon="-3.31802">
        <ele>206.4</ele>
        <time>2024-11-20T12:55:21Z</time>
      </trkpt>
      <trkpt lat="48.17228" lon="-3.31803">
        <ele>206.5</ele>
        <time>2024-11-20T12:55:22Z</time>
      </trkpt>
      <trkpt lat="48.17229" lon="-3.31804">
        <ele>206.6</ele>
        <time>2024-11-20T12:55:23Z</time>
      </trkpt>
      <trkpt lat="48.1723" lon="-3.31805">
        <ele>206.8</ele>
        <time>2024-11-20T12:55:24Z</time>
      </trkpt>
      <trkpt lat="48.1723" lon="-3.31806">
        <ele>206.9</ele>
        <time>2024-11-20T12:55:25Z</time>
      </trkpt>
      <trkpt lat="48.17231" lon="-3.31806">
        <ele>207</ele>
        <time>2024-11-20T12:55:26Z</time>
      </trkpt>
      <trkpt lat="48.17232" lon="-3.31807">
        <ele>207.1</ele>
        <time>2024-11-20T12:55:27Z</time>
      </trkpt>
      <trkpt lat="48.17233" lon="-3.31807">
        <ele>207.2</ele>
        <time>2024-11-20T12:55:28Z</time>
      </trkpt>
      <trkpt lat="48.17234" lon="-3.31808">
        <ele>207.3</ele>
        <time>2024-11-20T12:55:29Z</time>
      </trkpt>
      <trkpt lat="48.17235" lon="-3.31809">
        <ele>207.5</ele>
        <time>2024-11-20T12:55:30Z</time>
      </trkpt>
      <trkpt lat="48.17235" lon="-3.3181">
        <ele>207.5</ele>
        <time>2024-11-20T12:55:31Z</time>
      </trkpt>
      <trkpt lat="48.17236" lon="-3.3181">
        <ele>207.7</ele>
        <time>2024-11-20T12:55:32Z</time>
      </trkpt>
      <trkpt lat="48.17237" lon="-3.31811">
        <ele>207.8</ele>
        <time>2024-11-20T12:55:33Z</time>
      </trkpt>
      <trkpt lat="48.17237" lon="-3.31812">
        <ele>207.9</ele>
        <time>2024-11-20T12:55:34Z</time>
      </trkpt>
      <trkpt lat="48.17238" lon="-3.31813">
        <ele>208</ele>
        <time>2024-11-20T12:55:35Z</time>
      </trkpt>
      <trkpt lat="48.17239" lon="-3.31813">
        <ele>208.1</ele>
        <time>2024-11-20T12:55:36Z</time>
      </trkpt>
      <trkpt lat="48.1724" lon="-3.31814">
        <ele>208.2</ele>
        <time>2024-11-20T12:55:37Z</time>
      </trkpt>
      <trkpt lat="48.1724" lon="-3.31814">
        <ele>208.3</ele>
        <time>2024-11-20T12:55:38Z</time>
      </trkpt>
      <trkpt lat="48.17241" lon="-3.31815">
        <ele>208.5</ele>
        <time>2024-11-20T12:55:39Z</time>
      </trkpt>
      <trkpt lat="48.17241" lon="-3.31816">
        <ele>208.6</ele>
        <time>2024-11-20T12:55:40Z</time>
      </trkpt>
      <trkpt lat="48.17242" lon="-3.31817">
        <ele>208.7</ele>
        <time>2024-11-20T12:55:41Z</time>
      </trkpt>
      <trkpt lat="48.17243" lon="-3.31819">
        <ele>208.9</ele>
        <time>2024-11-20T12:55:42Z</time>
      </trkpt>
      <trkpt lat="48.17243" lon="-3.3182">
        <ele>209.1</ele>
        <time>2024-11-20T12:55:43Z</time>
      </trkpt>
      <trkpt lat="48.17244" lon="-3.31822">
        <ele>209.2</ele>
        <time>2024-11-20T12:55:44Z</time>
      </trkpt>
      <trkpt lat="48.17245" lon="-3.31823">
        <ele>209.4</ele>
        <time>2024-11-20T12:55:45Z</time>
      </trkpt>
      <trkpt lat="48.17245" lon="-3.31824">
        <ele>209.6</ele>
        <time>2024-11-20T12:55:46Z</time>
      </trkpt>
      <trkpt lat="48.17246" lon="-3.31826">
        <ele>209.8</ele>
        <time>2024-11-20T12:55:47Z</time>
      </trkpt>
      <trkpt lat="48.17246" lon="-3.31827">
        <ele>209.9</ele>
        <time>2024-11-20T12:55:48Z</time>
      </trkpt>
      <trkpt lat="48.17247" lon="-3.31828">
        <ele>210.1</ele>
        <time>2024-11-20T12:55:49Z</time>
      </trkpt>
      <trkpt lat="48.17248" lon="-3.31829">
        <ele>210.3</ele>
        <time>2024-11-20T12:55:50Z</time>
      </trkpt>
      <trkpt lat="48.17248" lon="-3.31831">
        <ele>210.5</ele>
        <time>2024-11-20T12:55:51Z</time>
      </trkpt>
      <trkpt lat="48.17248" lon="-3.31834">
        <ele>210.7</ele>
        <time>2024-11-20T12:55:52Z</time>
      </trkpt>
      <trkpt lat="48.17248" lon="-3.31836">
        <ele>210.8</ele>
        <time>2024-11-20T12:55:53Z</time>
      </trkpt>
      <trkpt lat="48.17248" lon="-3.31838">
        <ele>210.8</ele>
        <time>2024-11-20T12:55:54Z</time>
      </trkpt>
      <trkpt lat="48.17249" lon="-3.31839">
        <ele>210.9</ele>
        <time>2024-11-20T12:55:55Z</time>
      </trkpt>
      <trkpt lat="48.17249" lon="-3.31839">
        <ele>211.1</ele>
        <time>2024-11-20T12:55:56Z</time>
      </trkpt>
      <trkpt lat="48.1725" lon="-3.3184">
        <ele>211.2</ele>
        <time>2024-11-20T12:55:57Z</time>
      </trkpt>
      <trkpt lat="48.1725" lon="-3.31842">
        <ele>211.4</ele>
        <time>2024-11-20T12:55:58Z</time>
      </trkpt>
      <trkpt lat="48.17251" lon="-3.31843">
        <ele>211.6</ele>
        <time>2024-11-20T12:55:59Z</time>
      </trkpt>
      <trkpt lat="48.17252" lon="-3.31844">
        <ele>211.8</ele>
        <time>2024-11-20T12:56:00Z</time>
      </trkpt>
      <trkpt lat="48.17252" lon="-3.31845">
        <ele>211.9</ele>
        <time>2024-11-20T12:56:01Z</time>
      </trkpt>
      <trkpt lat="48.17252" lon="-3.31846">
        <ele>212</ele>
        <time>2024-11-20T12:56:02Z</time>
      </trkpt>
      <trkpt lat="48.17253" lon="-3.31847">
        <ele>212.1</ele>
        <time>2024-11-20T12:56:03Z</time>
      </trkpt>
      <trkpt lat="48.17254" lon="-3.31847">
        <ele>212.4</ele>
        <time>2024-11-20T12:56:04Z</time>
      </trkpt>
      <trkpt lat="48.17254" lon="-3.31847">
        <ele>212.4</ele>
        <time>2024-11-20T12:56:05Z</time>
      </trkpt>
      <trkpt lat="48.17253" lon="-3.31848">
        <ele>212.3</ele>
        <time>2024-11-20T12:56:06Z</time>
      </trkpt>
      <trkpt lat="48.17253" lon="-3.31848">
        <ele>212.3</ele>
        <time>2024-11-20T12:56:07Z</time>
      </trkpt>
      <trkpt lat="48.17254" lon="-3.31848">
        <ele>212.4</ele>
        <time>2024-11-20T12:56:08Z</time>
      </trkpt>
      <trkpt lat="48.17255" lon="-3.31848">
        <ele>212.6</ele>
        <time>2024-11-20T12:56:09Z</time>
      </trkpt>
      <trkpt lat="48.17256" lon="-3.31847">
        <ele>212.8</ele>
        <time>2024-11-20T12:56:10Z</time>
      </trkpt>
      <trkpt lat="48.17257" lon="-3.31846">
        <ele>213</ele>
        <time>2024-11-20T12:56:11Z</time>
      </trkpt>
      <trkpt lat="48.17258" lon="-3.31846">
        <ele>213.3</ele>
        <time>2024-11-20T12:56:12Z</time>
      </trkpt>
      <trkpt lat="48.17259" lon="-3.31845">
        <ele>213.4</ele>
        <time>2024-11-20T12:56:13Z</time>
      </trkpt>
      <trkpt lat="48.1726" lon="-3.31844">
        <ele>213.5</ele>
        <time>2024-11-20T12:56:14Z</time>
      </trkpt>
      <trkpt lat="48.1726" lon="-3.31842">
        <ele>213.6</ele>
        <time>2024-11-20T12:56:15Z</time>
      </trkpt>
      <trkpt lat="48.17261" lon="-3.31842">
        <ele>213.7</ele>
        <time>2024-11-20T12:56:16Z</time>
      </trkpt>
      <trkpt lat="48.17261" lon="-3.3184">
        <ele>213.7</ele>
        <time>2024-11-20T12:56:17Z</time>
      </trkpt>
      <trkpt lat="48.17261" lon="-3.31839">
        <ele>213.6</ele>
        <time>2024-11-20T12:56:18Z</time>
      </trkpt>
      <trkpt lat="48.17261" lon="-3.31836">
        <ele>213.6</ele>
        <time>2024-11-20T12:56:19Z</time>
      </trkpt>
      <trkpt lat="48.17262" lon="-3.31834">
        <ele>213.5</ele>
        <time>2024-11-20T12:56:20Z</time>
      </trkpt>
      <trkpt lat="48.17262" lon="-3.31832">
        <ele>213.5</ele>
        <time>2024-11-20T12:56:21Z</time>
      </trkpt>
      <trkpt lat="48.17262" lon="-3.31831">
        <ele>213.3</ele>
        <time>2024-11-20T12:56:22Z</time>
      </trkpt>
      <trkpt lat="48.17262" lon="-3.31829">
        <ele>213.2</ele>
        <time>2024-11-20T12:56:23Z</time>
      </trkpt>
      <trkpt lat="48.17262" lon="-3.31827">
        <ele>213.1</ele>
        <time>2024-11-20T12:56:24Z</time>
      </trkpt>
      <trkpt lat="48.17262" lon="-3.31826">
        <ele>213.1</ele>
        <time>2024-11-20T12:56:25Z</time>
      </trkpt>
      <trkpt lat="48.17263" lon="-3.31824">
        <ele>213.1</ele>
        <time>2024-11-20T12:56:26Z</time>
      </trkpt>
      <trkpt lat="48.17263" lon="-3.31823">
        <ele>213</ele>
        <time>2024-11-20T12:56:27Z</time>
      </trkpt>
      <trkpt lat="48.17263" lon="-3.31821">
        <ele>213</ele>
        <time>2024-11-20T12:56:28Z</time>
      </trkpt>
      <trkpt lat="48.17264" lon="-3.3182">
        <ele>213</ele>
        <time>2024-11-20T12:56:29Z</time>
      </trkpt>
      <trkpt lat="48.17265" lon="-3.31818">
        <ele>213</ele>
        <time>2024-11-20T12:56:30Z</time>
      </trkpt>
      <trkpt lat="48.17265" lon="-3.31818">
        <ele>213.1</ele>
        <time>2024-11-20T12:56:31Z</time>
      </trkpt>
      <trkpt lat="48.17265" lon="-3.31818">
        <ele>213.2</ele>
        <time>2024-11-20T12:56:32Z</time>
      </trkpt>
      <trkpt lat="48.17265" lon="-3.31817">
        <ele>213.2</ele>
        <time>2024-11-20T12:56:33Z</time>
      </trkpt>
      <trkpt lat="48.17266" lon="-3.31816">
        <ele>213.2</ele>
        <time>2024-11-20T12:56:34Z</time>
      </trkpt>
      <trkpt lat="48.17266" lon="-3.31815">
        <ele>213.2</ele>
        <time>2024-11-20T12:56:35Z</time>
      </trkpt>
      <trkpt lat="48.17267" lon="-3.31813">
        <ele>213.2</ele>
        <time>2024-11-20T12:56:36Z</time>
      </trkpt>
      <trkpt lat="48.17267" lon="-3.31811">
        <ele>213</ele>
        <time>2024-11-20T12:56:37Z</time>
      </trkpt>
      <trkpt lat="48.17267" lon="-3.31809">
        <ele>212.8</ele>
        <time>2024-11-20T12:56:38Z</time>
      </trkpt>
      <trkpt lat="48.17267" lon="-3.31806">
        <ele>212.7</ele>
        <time>2024-11-20T12:56:39Z</time>
      </trkpt>
      <trkpt lat="48.17267" lon="-3.31805">
        <ele>212.6</ele>
        <time>2024-11-20T12:56:40Z</time>
      </trkpt>
      <trkpt lat="48.17268" lon="-3.31803">
        <ele>212.6</ele>
        <time>2024-11-20T12:56:41Z</time>
      </trkpt>
      <trkpt lat="48.17269" lon="-3.31801">
        <ele>212.6</ele>
        <time>2024-11-20T12:56:42Z</time>
      </trkpt>
      <trkpt lat="48.17269" lon="-3.31799">
        <ele>212.6</ele>
        <time>2024-11-20T12:56:43Z</time>
      </trkpt>
      <trkpt lat="48.1727" lon="-3.31796">
        <ele>212.5</ele>
        <time>2024-11-20T12:56:44Z</time>
      </trkpt>
      <trkpt lat="48.17271" lon="-3.31794">
        <ele>212.4</ele>
        <time>2024-11-20T12:56:45Z</time>
      </trkpt>
      <trkpt lat="48.17272" lon="-3.31791">
        <ele>212.3</ele>
        <time>2024-11-20T12:56:46Z</time>
      </trkpt>
      <trkpt lat="48.17273" lon="-3.31789">
        <ele>212.3</ele>
        <time>2024-11-20T12:56:47Z</time>
      </trkpt>
      <trkpt lat="48.17273" lon="-3.31787">
        <ele>212.3</ele>
        <time>2024-11-20T12:56:48Z</time>
      </trkpt>
      <trkpt lat="48.17274" lon="-3.31786">
        <ele>212.2</ele>
        <time>2024-11-20T12:56:49Z</time>
      </trkpt>
      <trkpt lat="48.17275" lon="-3.31785">
        <ele>212.2</ele>
        <time>2024-11-20T12:56:50Z</time>
      </trkpt>
      <trkpt lat="48.17276" lon="-3.31783">
        <ele>212.2</ele>
        <time>2024-11-20T12:56:51Z</time>
      </trkpt>
      <trkpt lat="48.17276" lon="-3.31781">
        <ele>212.1</ele>
        <time>2024-11-20T12:56:52Z</time>
      </trkpt>
      <trkpt lat="48.17277" lon="-3.31779">
        <ele>212</ele>
        <time>2024-11-20T12:56:53Z</time>
      </trkpt>
      <trkpt lat="48.17277" lon="-3.31777">
        <ele>211.9</ele>
        <time>2024-11-20T12:56:54Z</time>
      </trkpt>
      <trkpt lat="48.17277" lon="-3.31775">
        <ele>211.7</ele>
        <time>2024-11-20T12:56:55Z</time>
      </trkpt>
      <trkpt lat="48.17277" lon="-3.31773">
        <ele>211.6</ele>
        <time>2024-11-20T12:56:56Z</time>
      </trkpt>
      <trkpt lat="48.17278" lon="-3.31771">
        <ele>211.5</ele>
        <time>2024-11-20T12:56:57Z</time>
      </trkpt>
      <trkpt lat="48.17278" lon="-3.31769">
        <ele>211.5</ele>
        <time>2024-11-20T12:56:58Z</time>
      </trkpt>
      <trkpt lat="48.17279" lon="-3.31767">
        <ele>211.5</ele>
        <time>2024-11-20T12:56:59Z</time>
      </trkpt>
      <trkpt lat="48.1728" lon="-3.31765">
        <ele>211.5</ele>
        <time>2024-11-20T12:57:00Z</time>
      </trkpt>
      <trkpt lat="48.17281" lon="-3.31764">
        <ele>211.6</ele>
        <time>2024-11-20T12:57:01Z</time>
      </trkpt>
      <trkpt lat="48.17281" lon="-3.31762">
        <ele>211.6</ele>
        <time>2024-11-20T12:57:02Z</time>
      </trkpt>
      <trkpt lat="48.17282" lon="-3.31761">
        <ele>211.7</ele>
        <time>2024-11-20T12:57:03Z</time>
      </trkpt>
      <trkpt lat="48.17283" lon="-3.31759">
        <ele>211.7</ele>
        <time>2024-11-20T12:57:04Z</time>
      </trkpt>
      <trkpt lat="48.17284" lon="-3.31758">
        <ele>211.8</ele>
        <time>2024-11-20T12:57:05Z</time>
      </trkpt>
      <trkpt lat="48.17286" lon="-3.31756">
        <ele>212</ele>
        <time>2024-11-20T12:57:06Z</time>
      </trkpt>
      <trkpt lat="48.17287" lon="-3.31755">
        <ele>212.1</ele>
        <time>2024-11-20T12:57:07Z</time>
      </trkpt>
      <trkpt lat="48.17288" lon="-3.31755">
        <ele>212.3</ele>
        <time>2024-11-20T12:57:08Z</time>
      </trkpt>
      <trkpt lat="48.17289" lon="-3.31754">
        <ele>212.4</ele>
        <time>2024-11-20T12:57:09Z</time>
      </trkpt>
      <trkpt lat="48.1729" lon="-3.31752">
        <ele>212.5</ele>
        <time>2024-11-20T12:57:10Z</time>
      </trkpt>
      <trkpt lat="48.17291" lon="-3.3175">
        <ele>212.4</ele>
        <time>2024-11-20T12:57:11Z</time>
      </trkpt>
      <trkpt lat="48.17292" lon="-3.31749">
        <ele>212.4</ele>
        <time>2024-11-20T12:57:12Z</time>
      </trkpt>
      <trkpt lat="48.17292" lon="-3.31747">
        <ele>212.4</ele>
        <time>2024-11-20T12:57:13Z</time>
      </trkpt>
      <trkpt lat="48.17293" lon="-3.31746">
        <ele>212.3</ele>
        <time>2024-11-20T12:57:14Z</time>
      </trkpt>
      <trkpt lat="48.17293" lon="-3.31746">
        <ele>212.4</ele>
        <time>2024-11-20T12:57:15Z</time>
      </trkpt>
      <trkpt lat="48.17294" lon="-3.31745">
        <ele>212.4</ele>
        <time>2024-11-20T12:57:16Z</time>
      </trkpt>
      <trkpt lat="48.17294" lon="-3.31745">
        <ele>212.4</ele>
        <time>2024-11-20T12:57:17Z</time>
      </trkpt>
      <trkpt lat="48.17294" lon="-3.31744">
        <ele>212.4</ele>
        <time>2024-11-20T12:57:18Z</time>
      </trkpt>
      <trkpt lat="48.17294" lon="-3.31744">
        <ele>212.4</ele>
        <time>2024-11-20T12:57:19Z</time>
      </trkpt>
      <trkpt lat="48.17294" lon="-3.31744">
        <ele>212.4</ele>
        <time>2024-11-20T12:57:20Z</time>
      </trkpt>
      <trkpt lat="48.17294" lon="-3.31744">
        <ele>212.4</ele>
        <time>2024-11-20T12:57:21Z</time>
      </trkpt>
      <trkpt lat="48.17295" lon="-3.31743">
        <ele>212.4</ele>
        <time>2024-11-20T12:57:22Z</time>
      </trkpt>
      <trkpt lat="48.17296" lon="-3.31741">
        <ele>212.4</ele>
        <time>2024-11-20T12:57:23Z</time>
      </trkpt>
      <trkpt lat="48.17297" lon="-3.31739">
        <ele>212.3</ele>
        <time>2024-11-20T12:57:24Z</time>
      </trkpt>
      <trkpt lat="48.17297" lon="-3.31738">
        <ele>212.3</ele>
        <time>2024-11-20T12:57:25Z</time>
      </trkpt>
      <trkpt lat="48.17298" lon="-3.31737">
        <ele>212.4</ele>
        <time>2024-11-20T12:57:26Z</time>
      </trkpt>
      <trkpt lat="48.17299" lon="-3.31737">
        <ele>212.5</ele>
        <time>2024-11-20T12:57:27Z</time>
      </trkpt>
      <trkpt lat="48.173" lon="-3.31737">
        <ele>212.7</ele>
        <time>2024-11-20T12:57:28Z</time>
      </trkpt>
      <trkpt lat="48.17301" lon="-3.31737">
        <ele>212.8</ele>
        <time>2024-11-20T12:57:29Z</time>
      </trkpt>
      <trkpt lat="48.17302" lon="-3.31737">
        <ele>213</ele>
        <time>2024-11-20T12:57:30Z</time>
      </trkpt>
      <trkpt lat="48.17303" lon="-3.31736">
        <ele>213.1</ele>
        <time>2024-11-20T12:57:31Z</time>
      </trkpt>
      <trkpt lat="48.17304" lon="-3.31735">
        <ele>213.2</ele>
        <time>2024-11-20T12:57:32Z</time>
      </trkpt>
      <trkpt lat="48.17305" lon="-3.31734">
        <ele>213.2</ele>
        <time>2024-11-20T12:57:33Z</time>
      </trkpt>
      <trkpt lat="48.17306" lon="-3.31733">
        <ele>213.2</ele>
        <time>2024-11-20T12:57:34Z</time>
      </trkpt>
      <trkpt lat="48.17307" lon="-3.31732">
        <ele>213.2</ele>
        <time>2024-11-20T12:57:35Z</time>
      </trkpt>
      <trkpt lat="48.17308" lon="-3.3173">
        <ele>213.1</ele>
        <time>2024-11-20T12:57:36Z</time>
      </trkpt>
      <trkpt lat="48.17308" lon="-3.31728">
        <ele>213.1</ele>
        <time>2024-11-20T12:57:37Z</time>
      </trkpt>
      <trkpt lat="48.17309" lon="-3.31726">
        <ele>213.1</ele>
        <time>2024-11-20T12:57:38Z</time>
      </trkpt>
      <trkpt lat="48.1731" lon="-3.31724">
        <ele>213</ele>
        <time>2024-11-20T12:57:39Z</time>
      </trkpt>
      <trkpt lat="48.17311" lon="-3.31723">
        <ele>213</ele>
        <time>2024-11-20T12:57:40Z</time>
      </trkpt>
      <trkpt lat="48.17311" lon="-3.31722">
        <ele>213</ele>
        <time>2024-11-20T12:57:41Z</time>
      </trkpt>
      <trkpt lat="48.17312" lon="-3.3172">
        <ele>212.9</ele>
        <time>2024-11-20T12:57:42Z</time>
      </trkpt>
      <trkpt lat="48.17312" lon="-3.31718">
        <ele>212.8</ele>
        <time>2024-11-20T12:57:43Z</time>
      </trkpt>
      <trkpt lat="48.17312" lon="-3.31716">
        <ele>212.7</ele>
        <time>2024-11-20T12:57:44Z</time>
      </trkpt>
      <trkpt lat="48.17313" lon="-3.31714">
        <ele>212.5</ele>
        <time>2024-11-20T12:57:45Z</time>
      </trkpt>
      <trkpt lat="48.17313" lon="-3.31711">
        <ele>212.4</ele>
        <time>2024-11-20T12:57:46Z</time>
      </trkpt>
      <trkpt lat="48.17315" lon="-3.31709">
        <ele>212.3</ele>
        <time>2024-11-20T12:57:47Z</time>
      </trkpt>
      <trkpt lat="48.17316" lon="-3.31707">
        <ele>212.3</ele>
        <time>2024-11-20T12:57:48Z</time>
      </trkpt>
      <trkpt lat="48.17316" lon="-3.31705">
        <ele>212.2</ele>
        <time>2024-11-20T12:57:49Z</time>
      </trkpt>
      <trkpt lat="48.17316" lon="-3.31705">
        <ele>212.2</ele>
        <time>2024-11-20T12:57:50Z</time>
      </trkpt>
      <trkpt lat="48.17317" lon="-3.31705">
        <ele>212.3</ele>
        <time>2024-11-20T12:57:51Z</time>
      </trkpt>
      <trkpt lat="48.17318" lon="-3.31705">
        <ele>212.4</ele>
        <time>2024-11-20T12:57:52Z</time>
      </trkpt>
      <trkpt lat="48.17318" lon="-3.31704">
        <ele>212.4</ele>
        <time>2024-11-20T12:57:53Z</time>
      </trkpt>
      <trkpt lat="48.17319" lon="-3.31702">
        <ele>212.3</ele>
        <time>2024-11-20T12:57:54Z</time>
      </trkpt>
      <trkpt lat="48.1732" lon="-3.317">
        <ele>212.2</ele>
        <time>2024-11-20T12:57:55Z</time>
      </trkpt>
      <trkpt lat="48.17321" lon="-3.31699">
        <ele>212.1</ele>
        <time>2024-11-20T12:57:56Z</time>
      </trkpt>
      <trkpt lat="48.17322" lon="-3.31698">
        <ele>212.1</ele>
        <time>2024-11-20T12:57:57Z</time>
      </trkpt>
      <trkpt lat="48.17322" lon="-3.31697">
        <ele>212.1</ele>
        <time>2024-11-20T12:57:58Z</time>
      </trkpt>
      <trkpt lat="48.17323" lon="-3.31696">
        <ele>212.1</ele>
        <time>2024-11-20T12:57:59Z</time>
      </trkpt>
      <trkpt lat="48.17324" lon="-3.31695">
        <ele>212.1</ele>
        <time>2024-11-20T12:58:00Z</time>
      </trkpt>
      <trkpt lat="48.17325" lon="-3.31694">
        <ele>212.1</ele>
        <time>2024-11-20T12:58:01Z</time>
      </trkpt>
      <trkpt lat="48.17326" lon="-3.31693">
        <ele>212.2</ele>
        <time>2024-11-20T12:58:02Z</time>
      </trkpt>
      <trkpt lat="48.17328" lon="-3.31692">
        <ele>212.2</ele>
        <time>2024-11-20T12:58:03Z</time>
      </trkpt>
      <trkpt lat="48.17329" lon="-3.31691">
        <ele>212.2</ele>
        <time>2024-11-20T12:58:04Z</time>
      </trkpt>
      <trkpt lat="48.1733" lon="-3.31689">
        <ele>212.3</ele>
        <time>2024-11-20T12:58:05Z</time>
      </trkpt>
      <trkpt lat="48.17331" lon="-3.31688">
        <ele>212.3</ele>
        <time>2024-11-20T12:58:06Z</time>
      </trkpt>
      <trkpt lat="48.17332" lon="-3.31687">
        <ele>212.3</ele>
        <time>2024-11-20T12:58:07Z</time>
      </trkpt>
      <trkpt lat="48.17333" lon="-3.31685">
        <ele>212.3</ele>
        <time>2024-11-20T12:58:08Z</time>
      </trkpt>
      <trkpt lat="48.17335" lon="-3.31684">
        <ele>212.4</ele>
        <time>2024-11-20T12:58:09Z</time>
      </trkpt>
      <trkpt lat="48.17336" lon="-3.31683">
        <ele>212.5</ele>
        <time>2024-11-20T12:58:10Z</time>
      </trkpt>
      <trkpt lat="48.17336" lon="-3.31682">
        <ele>212.5</ele>
        <time>2024-11-20T12:58:11Z</time>
      </trkpt>
      <trkpt lat="48.17337" lon="-3.3168">
        <ele>212.5</ele>
        <time>2024-11-20T12:58:12Z</time>
      </trkpt>
      <trkpt lat="48.17338" lon="-3.31678">
        <ele>212.4</ele>
        <time>2024-11-20T12:58:13Z</time>
      </trkpt>
      <trkpt lat="48.17339" lon="-3.31676">
        <ele>212.4</ele>
        <time>2024-11-20T12:58:14Z</time>
      </trkpt>
      <trkpt lat="48.1734" lon="-3.31674">
        <ele>212.3</ele>
        <time>2024-11-20T12:58:15Z</time>
      </trkpt>
      <trkpt lat="48.17341" lon="-3.31671">
        <ele>212.2</ele>
        <time>2024-11-20T12:58:16Z</time>
      </trkpt>
      <trkpt lat="48.17342" lon="-3.31669">
        <ele>212.1</ele>
        <time>2024-11-20T12:58:17Z</time>
      </trkpt>
      <trkpt lat="48.17343" lon="-3.31666">
        <ele>212</ele>
        <time>2024-11-20T12:58:18Z</time>
      </trkpt>
      <trkpt lat="48.17344" lon="-3.31664">
        <ele>211.9</ele>
        <time>2024-11-20T12:58:19Z</time>
      </trkpt>
      <trkpt lat="48.17345" lon="-3.31662">
        <ele>211.9</ele>
        <time>2024-11-20T12:58:20Z</time>
      </trkpt>
      <trkpt lat="48.17346" lon="-3.3166">
        <ele>211.8</ele>
        <time>2024-11-20T12:58:21Z</time>
      </trkpt>
      <trkpt lat="48.17347" lon="-3.31658">
        <ele>211.7</ele>
        <time>2024-11-20T12:58:22Z</time>
      </trkpt>
      <trkpt lat="48.17348" lon="-3.31657">
        <ele>211.7</ele>
        <time>2024-11-20T12:58:23Z</time>
      </trkpt>
      <trkpt lat="48.17349" lon="-3.31655">
        <ele>211.7</ele>
        <time>2024-11-20T12:58:24Z</time>
      </trkpt>
      <trkpt lat="48.1735" lon="-3.31654">
        <ele>211.7</ele>
        <time>2024-11-20T12:58:25Z</time>
      </trkpt>
      <trkpt lat="48.17352" lon="-3.31653">
        <ele>211.7</ele>
        <time>2024-11-20T12:58:26Z</time>
      </trkpt>
      <trkpt lat="48.17353" lon="-3.31652">
        <ele>211.6</ele>
        <time>2024-11-20T12:58:27Z</time>
      </trkpt>
      <trkpt lat="48.17353" lon="-3.3165">
        <ele>211.5</ele>
        <time>2024-11-20T12:58:28Z</time>
      </trkpt>
      <trkpt lat="48.17354" lon="-3.31648">
        <ele>211.4</ele>
        <time>2024-11-20T12:58:29Z</time>
      </trkpt>
      <trkpt lat="48.17354" lon="-3.31647">
        <ele>211.3</ele>
        <time>2024-11-20T12:58:30Z</time>
      </trkpt>
      <trkpt lat="48.17355" lon="-3.31646">
        <ele>211.2</ele>
        <time>2024-11-20T12:58:31Z</time>
      </trkpt>
      <trkpt lat="48.17356" lon="-3.31645">
        <ele>211.2</ele>
        <time>2024-11-20T12:58:32Z</time>
      </trkpt>
      <trkpt lat="48.17356" lon="-3.31644">
        <ele>211.1</ele>
        <time>2024-11-20T12:58:33Z</time>
      </trkpt>
      <trkpt lat="48.17357" lon="-3.31643">
        <ele>211.1</ele>
        <time>2024-11-20T12:58:34Z</time>
      </trkpt>
      <trkpt lat="48.17358" lon="-3.31642">
        <ele>211.1</ele>
        <time>2024-11-20T12:58:35Z</time>
      </trkpt>
      <trkpt lat="48.17359" lon="-3.31641">
        <ele>211.1</ele>
        <time>2024-11-20T12:58:36Z</time>
      </trkpt>
      <trkpt lat="48.1736" lon="-3.3164">
        <ele>211</ele>
        <time>2024-11-20T12:58:37Z</time>
      </trkpt>
      <trkpt lat="48.17361" lon="-3.31639">
        <ele>211</ele>
        <time>2024-11-20T12:58:38Z</time>
      </trkpt>
      <trkpt lat="48.17362" lon="-3.31638">
        <ele>210.9</ele>
        <time>2024-11-20T12:58:39Z</time>
      </trkpt>
      <trkpt lat="48.17363" lon="-3.31636">
        <ele>210.9</ele>
        <time>2024-11-20T12:58:40Z</time>
      </trkpt>
      <trkpt lat="48.17364" lon="-3.31635">
        <ele>210.9</ele>
        <time>2024-11-20T12:58:41Z</time>
      </trkpt>
      <trkpt lat="48.17364" lon="-3.31634">
        <ele>210.9</ele>
        <time>2024-11-20T12:58:42Z</time>
      </trkpt>
      <trkpt lat="48.17365" lon="-3.31633">
        <ele>210.8</ele>
        <time>2024-11-20T12:58:43Z</time>
      </trkpt>
      <trkpt lat="48.17366" lon="-3.31631">
        <ele>210.7</ele>
        <time>2024-11-20T12:58:44Z</time>
      </trkpt>
      <trkpt lat="48.17367" lon="-3.31629">
        <ele>210.6</ele>
        <time>2024-11-20T12:58:45Z</time>
      </trkpt>
      <trkpt lat="48.17368" lon="-3.31627">
        <ele>210.4</ele>
        <time>2024-11-20T12:58:46Z</time>
      </trkpt>
      <trkpt lat="48.1737" lon="-3.31625">
        <ele>210.3</ele>
        <time>2024-11-20T12:58:47Z</time>
      </trkpt>
      <trkpt lat="48.17371" lon="-3.31624">
        <ele>210.2</ele>
        <time>2024-11-20T12:58:48Z</time>
      </trkpt>
      <trkpt lat="48.17371" lon="-3.31623">
        <ele>210.1</ele>
        <time>2024-11-20T12:58:49Z</time>
      </trkpt>
      <trkpt lat="48.17372" lon="-3.31622">
        <ele>210</ele>
        <time>2024-11-20T12:58:50Z</time>
      </trkpt>
      <trkpt lat="48.17373" lon="-3.3162">
        <ele>209.9</ele>
        <time>2024-11-20T12:58:51Z</time>
      </trkpt>
      <trkpt lat="48.17374" lon="-3.31619">
        <ele>209.7</ele>
        <time>2024-11-20T12:58:52Z</time>
      </trkpt>
      <trkpt lat="48.17375" lon="-3.31618">
        <ele>209.6</ele>
        <time>2024-11-20T12:58:53Z</time>
      </trkpt>
      <trkpt lat="48.17376" lon="-3.31617">
        <ele>209.5</ele>
        <time>2024-11-20T12:58:54Z</time>
      </trkpt>
      <trkpt lat="48.17377" lon="-3.31616">
        <ele>209.4</ele>
        <time>2024-11-20T12:58:55Z</time>
      </trkpt>
      <trkpt lat="48.17378" lon="-3.31615">
        <ele>209.3</ele>
        <time>2024-11-20T12:58:56Z</time>
      </trkpt>
      <trkpt lat="48.17379" lon="-3.31614">
        <ele>209.2</ele>
        <time>2024-11-20T12:58:57Z</time>
      </trkpt>
      <trkpt lat="48.1738" lon="-3.31613">
        <ele>209.1</ele>
        <time>2024-11-20T12:58:58Z</time>
      </trkpt>
      <trkpt lat="48.17381" lon="-3.31612">
        <ele>208.9</ele>
        <time>2024-11-20T12:58:59Z</time>
      </trkpt>
      <trkpt lat="48.17382" lon="-3.31611">
        <ele>208.7</ele>
        <time>2024-11-20T12:59:00Z</time>
      </trkpt>
      <trkpt lat="48.17383" lon="-3.3161">
        <ele>208.6</ele>
        <time>2024-11-20T12:59:01Z</time>
      </trkpt>
      <trkpt lat="48.17384" lon="-3.31609">
        <ele>208.6</ele>
        <time>2024-11-20T12:59:02Z</time>
      </trkpt>
      <trkpt lat="48.17386" lon="-3.31608">
        <ele>208.5</ele>
        <time>2024-11-20T12:59:03Z</time>
      </trkpt>
      <trkpt lat="48.17386" lon="-3.31608">
        <ele>208.4</ele>
        <time>2024-11-20T12:59:04Z</time>
      </trkpt>
      <trkpt lat="48.17387" lon="-3.31607">
        <ele>208.3</ele>
        <time>2024-11-20T12:59:05Z</time>
      </trkpt>
      <trkpt lat="48.17388" lon="-3.31606">
        <ele>208.2</ele>
        <time>2024-11-20T12:59:06Z</time>
      </trkpt>
      <trkpt lat="48.17389" lon="-3.31605">
        <ele>208.1</ele>
        <time>2024-11-20T12:59:07Z</time>
      </trkpt>
      <trkpt lat="48.1739" lon="-3.31604">
        <ele>208</ele>
        <time>2024-11-20T12:59:08Z</time>
      </trkpt>
      <trkpt lat="48.17391" lon="-3.31603">
        <ele>207.9</ele>
        <time>2024-11-20T12:59:09Z</time>
      </trkpt>
      <trkpt lat="48.17392" lon="-3.31602">
        <ele>207.9</ele>
        <time>2024-11-20T12:59:10Z</time>
      </trkpt>
      <trkpt lat="48.17393" lon="-3.31601">
        <ele>207.9</ele>
        <time>2024-11-20T12:59:11Z</time>
      </trkpt>
      <trkpt lat="48.17394" lon="-3.31601">
        <ele>207.9</ele>
        <time>2024-11-20T12:59:12Z</time>
      </trkpt>
      <trkpt lat="48.17395" lon="-3.316">
        <ele>207.8</ele>
        <time>2024-11-20T12:59:13Z</time>
      </trkpt>
      <trkpt lat="48.17396" lon="-3.31599">
        <ele>207.7</ele>
        <time>2024-11-20T12:59:14Z</time>
      </trkpt>
      <trkpt lat="48.17397" lon="-3.31598">
        <ele>207.6</ele>
        <time>2024-11-20T12:59:15Z</time>
      </trkpt>
      <trkpt lat="48.17397" lon="-3.31597">
        <ele>207.4</ele>
        <time>2024-11-20T12:59:16Z</time>
      </trkpt>
      <trkpt lat="48.17398" lon="-3.31596">
        <ele>207.3</ele>
        <time>2024-11-20T12:59:17Z</time>
      </trkpt>
      <trkpt lat="48.17399" lon="-3.31595">
        <ele>207.2</ele>
        <time>2024-11-20T12:59:18Z</time>
      </trkpt>
      <trkpt lat="48.174" lon="-3.31595">
        <ele>207.1</ele>
        <time>2024-11-20T12:59:19Z</time>
      </trkpt>
      <trkpt lat="48.17401" lon="-3.31594">
        <ele>207.1</ele>
        <time>2024-11-20T12:59:20Z</time>
      </trkpt>
      <trkpt lat="48.17402" lon="-3.31594">
        <ele>207</ele>
        <time>2024-11-20T12:59:21Z</time>
      </trkpt>
      <trkpt lat="48.17403" lon="-3.31593">
        <ele>206.9</ele>
        <time>2024-11-20T12:59:22Z</time>
      </trkpt>
      <trkpt lat="48.17404" lon="-3.31592">
        <ele>206.9</ele>
        <time>2024-11-20T12:59:23Z</time>
      </trkpt>
      <trkpt lat="48.17406" lon="-3.31592">
        <ele>206.8</ele>
        <time>2024-11-20T12:59:24Z</time>
      </trkpt>
      <trkpt lat="48.17408" lon="-3.31591">
        <ele>206.7</ele>
        <time>2024-11-20T12:59:25Z</time>
      </trkpt>
      <trkpt lat="48.17409" lon="-3.31591">
        <ele>206.6</ele>
        <time>2024-11-20T12:59:26Z</time>
      </trkpt>
      <trkpt lat="48.1741" lon="-3.3159">
        <ele>206.6</ele>
        <time>2024-11-20T12:59:27Z</time>
      </trkpt>
      <trkpt lat="48.17412" lon="-3.3159">
        <ele>206.5</ele>
        <time>2024-11-20T12:59:28Z</time>
      </trkpt>
      <trkpt lat="48.17413" lon="-3.31589">
        <ele>206.4</ele>
        <time>2024-11-20T12:59:29Z</time>
      </trkpt>
      <trkpt lat="48.17414" lon="-3.31588">
        <ele>206.2</ele>
        <time>2024-11-20T12:59:30Z</time>
      </trkpt>
      <trkpt lat="48.17415" lon="-3.31587">
        <ele>206</ele>
        <time>2024-11-20T12:59:31Z</time>
      </trkpt>
      <trkpt lat="48.17416" lon="-3.31586">
        <ele>205.7</ele>
        <time>2024-11-20T12:59:32Z</time>
      </trkpt>
      <trkpt lat="48.17417" lon="-3.31586">
        <ele>205.6</ele>
        <time>2024-11-20T12:59:33Z</time>
      </trkpt>
      <trkpt lat="48.17418" lon="-3.31586">
        <ele>205.4</ele>
        <time>2024-11-20T12:59:34Z</time>
      </trkpt>
      <trkpt lat="48.17419" lon="-3.31585">
        <ele>205.3</ele>
        <time>2024-11-20T12:59:35Z</time>
      </trkpt>
      <trkpt lat="48.1742" lon="-3.31585">
        <ele>205.1</ele>
        <time>2024-11-20T12:59:36Z</time>
      </trkpt>
      <trkpt lat="48.17422" lon="-3.31585">
        <ele>205</ele>
        <time>2024-11-20T12:59:37Z</time>
      </trkpt>
      <trkpt lat="48.17423" lon="-3.31585">
        <ele>204.8</ele>
        <time>2024-11-20T12:59:38Z</time>
      </trkpt>
      <trkpt lat="48.17424" lon="-3.31584">
        <ele>204.7</ele>
        <time>2024-11-20T12:59:39Z</time>
      </trkpt>
      <trkpt lat="48.17425" lon="-3.31584">
        <ele>204.5</ele>
        <time>2024-11-20T12:59:40Z</time>
      </trkpt>
      <trkpt lat="48.17427" lon="-3.31583">
        <ele>204.3</ele>
        <time>2024-11-20T12:59:41Z</time>
      </trkpt>
      <trkpt lat="48.17428" lon="-3.31583">
        <ele>204.1</ele>
        <time>2024-11-20T12:59:42Z</time>
      </trkpt>
      <trkpt lat="48.1743" lon="-3.31582">
        <ele>204</ele>
        <time>2024-11-20T12:59:43Z</time>
      </trkpt>
      <trkpt lat="48.1743" lon="-3.31582">
        <ele>203.9</ele>
        <time>2024-11-20T12:59:44Z</time>
      </trkpt>
      <trkpt lat="48.17431" lon="-3.31582">
        <ele>203.9</ele>
        <time>2024-11-20T12:59:45Z</time>
      </trkpt>
      <trkpt lat="48.17432" lon="-3.31583">
        <ele>203.8</ele>
        <time>2024-11-20T12:59:46Z</time>
      </trkpt>
      <trkpt lat="48.17433" lon="-3.31583">
        <ele>203.8</ele>
        <time>2024-11-20T12:59:47Z</time>
      </trkpt>
      <trkpt lat="48.17433" lon="-3.31583">
        <ele>203.8</ele>
        <time>2024-11-20T12:59:48Z</time>
      </trkpt>
      <trkpt lat="48.17433" lon="-3.31582">
        <ele>203.7</ele>
        <time>2024-11-20T12:59:49Z</time>
      </trkpt>
      <trkpt lat="48.17434" lon="-3.31583">
        <ele>203.7</ele>
        <time>2024-11-20T12:59:50Z</time>
      </trkpt>
      <trkpt lat="48.17434" lon="-3.31583">
        <ele>203.7</ele>
        <time>2024-11-20T12:59:51Z</time>
      </trkpt>
      <trkpt lat="48.17434" lon="-3.31583">
        <ele>203.7</ele>
        <time>2024-11-20T12:59:52Z</time>
      </trkpt>
      <trkpt lat="48.17436" lon="-3.31583">
        <ele>203.6</ele>
        <time>2024-11-20T12:59:53Z</time>
      </trkpt>
      <trkpt lat="48.17437" lon="-3.31583">
        <ele>203.5</ele>
        <time>2024-11-20T12:59:54Z</time>
      </trkpt>
      <trkpt lat="48.17438" lon="-3.31584">
        <ele>203.6</ele>
        <time>2024-11-20T12:59:55Z</time>
      </trkpt>
      <trkpt lat="48.1744" lon="-3.31585">
        <ele>203.7</ele>
        <time>2024-11-20T12:59:56Z</time>
      </trkpt>
      <trkpt lat="48.17442" lon="-3.31586">
        <ele>203.8</ele>
        <time>2024-11-20T12:59:57Z</time>
      </trkpt>
      <trkpt lat="48.17443" lon="-3.31587">
        <ele>204</ele>
        <time>2024-11-20T12:59:58Z</time>
      </trkpt>
      <trkpt lat="48.17445" lon="-3.31588">
        <ele>204.2</ele>
        <time>2024-11-20T12:59:59Z</time>
      </trkpt>
      <trkpt lat="48.17446" lon="-3.31589">
        <ele>204.3</ele>
        <time>2024-11-20T13:00:00Z</time>
      </trkpt>
      <trkpt lat="48.17447" lon="-3.31589">
        <ele>204.3</ele>
        <time>2024-11-20T13:00:01Z</time>
      </trkpt>
      <trkpt lat="48.17448" lon="-3.3159">
        <ele>204.3</ele>
        <time>2024-11-20T13:00:02Z</time>
      </trkpt>
      <trkpt lat="48.17449" lon="-3.3159">
        <ele>204.4</ele>
        <time>2024-11-20T13:00:03Z</time>
      </trkpt>
      <trkpt lat="48.1745" lon="-3.3159">
        <ele>204.3</ele>
        <time>2024-11-20T13:00:04Z</time>
      </trkpt>
      <trkpt lat="48.1745" lon="-3.31591">
        <ele>204.3</ele>
        <time>2024-11-20T13:00:05Z</time>
      </trkpt>
      <trkpt lat="48.17452" lon="-3.31591">
        <ele>204.4</ele>
        <time>2024-11-20T13:00:06Z</time>
      </trkpt>
      <trkpt lat="48.17453" lon="-3.31593">
        <ele>204.5</ele>
        <time>2024-11-20T13:00:07Z</time>
      </trkpt>
      <trkpt lat="48.17454" lon="-3.31594">
        <ele>204.6</ele>
        <time>2024-11-20T13:00:08Z</time>
      </trkpt>
      <trkpt lat="48.17456" lon="-3.31595">
        <ele>204.6</ele>
        <time>2024-11-20T13:00:09Z</time>
      </trkpt>
      <trkpt lat="48.17458" lon="-3.31595">
        <ele>204.5</ele>
        <time>2024-11-20T13:00:10Z</time>
      </trkpt>
      <trkpt lat="48.17459" lon="-3.31597">
        <ele>204.5</ele>
        <time>2024-11-20T13:00:11Z</time>
      </trkpt>
      <trkpt lat="48.17461" lon="-3.31598">
        <ele>204.6</ele>
        <time>2024-11-20T13:00:12Z</time>
      </trkpt>
      <trkpt lat="48.17462" lon="-3.316">
        <ele>204.8</ele>
        <time>2024-11-20T13:00:13Z</time>
      </trkpt>
      <trkpt lat="48.17463" lon="-3.31602">
        <ele>204.9</ele>
        <time>2024-11-20T13:00:14Z</time>
      </trkpt>
      <trkpt lat="48.17463" lon="-3.31603">
        <ele>204.9</ele>
        <time>2024-11-20T13:00:15Z</time>
      </trkpt>
      <trkpt lat="48.17464" lon="-3.31604">
        <ele>204.9</ele>
        <time>2024-11-20T13:00:16Z</time>
      </trkpt>
      <trkpt lat="48.17466" lon="-3.31606">
        <ele>204.8</ele>
        <time>2024-11-20T13:00:17Z</time>
      </trkpt>
      <trkpt lat="48.17467" lon="-3.31607">
        <ele>204.6</ele>
        <time>2024-11-20T13:00:18Z</time>
      </trkpt>
      <trkpt lat="48.17469" lon="-3.31609">
        <ele>204.5</ele>
        <time>2024-11-20T13:00:19Z</time>
      </trkpt>
      <trkpt lat="48.1747" lon="-3.3161">
        <ele>204.4</ele>
        <time>2024-11-20T13:00:20Z</time>
      </trkpt>
      <trkpt lat="48.17471" lon="-3.31612">
        <ele>204.4</ele>
        <time>2024-11-20T13:00:21Z</time>
      </trkpt>
      <trkpt lat="48.17472" lon="-3.31613">
        <ele>204.4</ele>
        <time>2024-11-20T13:00:22Z</time>
      </trkpt>
      <trkpt lat="48.17474" lon="-3.31614">
        <ele>204.6</ele>
        <time>2024-11-20T13:00:23Z</time>
      </trkpt>
      <trkpt lat="48.17474" lon="-3.31615">
        <ele>204.7</ele>
        <time>2024-11-20T13:00:24Z</time>
      </trkpt>
      <trkpt lat="48.17475" lon="-3.31616">
        <ele>204.7</ele>
        <time>2024-11-20T13:00:25Z</time>
      </trkpt>
      <trkpt lat="48.17476" lon="-3.31617">
        <ele>204.8</ele>
        <time>2024-11-20T13:00:26Z</time>
      </trkpt>
      <trkpt lat="48.17477" lon="-3.31618">
        <ele>204.9</ele>
        <time>2024-11-20T13:00:27Z</time>
      </trkpt>
      <trkpt lat="48.17479" lon="-3.31619">
        <ele>205</ele>
        <time>2024-11-20T13:00:28Z</time>
      </trkpt>
      <trkpt lat="48.1748" lon="-3.3162">
        <ele>205</ele>
        <time>2024-11-20T13:00:29Z</time>
      </trkpt>
      <trkpt lat="48.17481" lon="-3.31621">
        <ele>205.1</ele>
        <time>2024-11-20T13:00:30Z</time>
      </trkpt>
      <trkpt lat="48.17481" lon="-3.31623">
        <ele>205.4</ele>
        <time>2024-11-20T13:00:31Z</time>
      </trkpt>
      <trkpt lat="48.17482" lon="-3.31624">
        <ele>205.5</ele>
        <time>2024-11-20T13:00:32Z</time>
      </trkpt>
      <trkpt lat="48.17482" lon="-3.31625">
        <ele>205.6</ele>
        <time>2024-11-20T13:00:33Z</time>
      </trkpt>
      <trkpt lat="48.17483" lon="-3.31626">
        <ele>205.5</ele>
        <time>2024-11-20T13:00:34Z</time>
      </trkpt>
      <trkpt lat="48.17484" lon="-3.31626">
        <ele>205.5</ele>
        <time>2024-11-20T13:00:35Z</time>
      </trkpt>
      <trkpt lat="48.17485" lon="-3.31627">
        <ele>205.5</ele>
        <time>2024-11-20T13:00:36Z</time>
      </trkpt>
      <trkpt lat="48.17489" lon="-3.31631">
        <ele>205.4</ele>
        <time>2024-11-20T13:00:40Z</time>
      </trkpt>
      <trkpt lat="48.1749" lon="-3.31632">
        <ele>205.3</ele>
        <time>2024-11-20T13:00:41Z</time>
      </trkpt>
      <trkpt lat="48.17491" lon="-3.31633">
        <ele>205.2</ele>
        <time>2024-11-20T13:00:42Z</time>
      </trkpt>
      <trkpt lat="48.17492" lon="-3.31633">
        <ele>205</ele>
        <time>2024-11-20T13:00:43Z</time>
      </trkpt>
      <trkpt lat="48.17494" lon="-3.31633">
        <ele>204.8</ele>
        <time>2024-11-20T13:00:44Z</time>
      </trkpt>
      <trkpt lat="48.17495" lon="-3.31634">
        <ele>204.6</ele>
        <time>2024-11-20T13:00:45Z</time>
      </trkpt>
      <trkpt lat="48.17496" lon="-3.31635">
        <ele>204.5</ele>
        <time>2024-11-20T13:00:46Z</time>
      </trkpt>
      <trkpt lat="48.17497" lon="-3.31635">
        <ele>204.4</ele>
        <time>2024-11-20T13:00:47Z</time>
      </trkpt>
      <trkpt lat="48.17497" lon="-3.31635">
        <ele>204.4</ele>
        <time>2024-11-20T13:00:48Z</time>
      </trkpt>
      <trkpt lat="48.17498" lon="-3.31636">
        <ele>204.2</ele>
        <time>2024-11-20T13:00:49Z</time>
      </trkpt>
      <trkpt lat="48.17499" lon="-3.31636">
        <ele>204</ele>
        <time>2024-11-20T13:00:50Z</time>
      </trkpt>
      <trkpt lat="48.175" lon="-3.31637">
        <ele>203.9</ele>
        <time>2024-11-20T13:00:51Z</time>
      </trkpt>
      <trkpt lat="48.17501" lon="-3.31639">
        <ele>203.9</ele>
        <time>2024-11-20T13:00:52Z</time>
      </trkpt>
      <trkpt lat="48.17502" lon="-3.3164">
        <ele>204</ele>
        <time>2024-11-20T13:00:53Z</time>
      </trkpt>
      <trkpt lat="48.17503" lon="-3.31641">
        <ele>204.1</ele>
        <time>2024-11-20T13:00:54Z</time>
      </trkpt>
      <trkpt lat="48.17503" lon="-3.31642">
        <ele>204.2</ele>
        <time>2024-11-20T13:00:55Z</time>
      </trkpt>
      <trkpt lat="48.17503" lon="-3.31643">
        <ele>204.3</ele>
        <time>2024-11-20T13:00:56Z</time>
      </trkpt>
      <trkpt lat="48.17504" lon="-3.31645">
        <ele>204.5</ele>
        <time>2024-11-20T13:00:57Z</time>
      </trkpt>
      <trkpt lat="48.17504" lon="-3.31646">
        <ele>204.6</ele>
        <time>2024-11-20T13:00:58Z</time>
      </trkpt>
      <trkpt lat="48.17504" lon="-3.31648">
        <ele>204.8</ele>
        <time>2024-11-20T13:00:59Z</time>
      </trkpt>
      <trkpt lat="48.17504" lon="-3.3165">
        <ele>204.9</ele>
        <time>2024-11-20T13:01:00Z</time>
      </trkpt>
      <trkpt lat="48.17505" lon="-3.31651">
        <ele>205.1</ele>
        <time>2024-11-20T13:01:01Z</time>
      </trkpt>
      <trkpt lat="48.17505" lon="-3.31653">
        <ele>205.2</ele>
        <time>2024-11-20T13:01:02Z</time>
      </trkpt>
      <trkpt lat="48.17506" lon="-3.31655">
        <ele>205.4</ele>
        <time>2024-11-20T13:01:03Z</time>
      </trkpt>
      <trkpt lat="48.17507" lon="-3.31656">
        <ele>205.5</ele>
        <time>2024-11-20T13:01:04Z</time>
      </trkpt>
      <trkpt lat="48.17508" lon="-3.31657">
        <ele>205.5</ele>
        <time>2024-11-20T13:01:05Z</time>
      </trkpt>
      <trkpt lat="48.17508" lon="-3.31659">
        <ele>205.6</ele>
        <time>2024-11-20T13:01:06Z</time>
      </trkpt>
      <trkpt lat="48.17509" lon="-3.3166">
        <ele>205.8</ele>
        <time>2024-11-20T13:01:07Z</time>
      </trkpt>
      <trkpt lat="48.17509" lon="-3.31662">
        <ele>205.9</ele>
        <time>2024-11-20T13:01:08Z</time>
      </trkpt>
      <trkpt lat="48.17509" lon="-3.31663">
        <ele>206</ele>
        <time>2024-11-20T13:01:09Z</time>
      </trkpt>
      <trkpt lat="48.17511" lon="-3.31663">
        <ele>205.9</ele>
        <time>2024-11-20T13:01:10Z</time>
      </trkpt>
      <trkpt lat="48.17511" lon="-3.31663">
        <ele>205.9</ele>
        <time>2024-11-20T13:01:11Z</time>
      </trkpt>
      <trkpt lat="48.17512" lon="-3.31663">
        <ele>205.8</ele>
        <time>2024-11-20T13:01:12Z</time>
      </trkpt>
      <trkpt lat="48.17513" lon="-3.31664">
        <ele>205.8</ele>
        <time>2024-11-20T13:01:13Z</time>
      </trkpt>
      <trkpt lat="48.17514" lon="-3.31663">
        <ele>205.7</ele>
        <time>2024-11-20T13:01:14Z</time>
      </trkpt>
      <trkpt lat="48.17514" lon="-3.31663">
        <ele>205.7</ele>
        <time>2024-11-20T13:01:15Z</time>
      </trkpt>
      <trkpt lat="48.17514" lon="-3.31664">
        <ele>205.7</ele>
        <time>2024-11-20T13:01:16Z</time>
      </trkpt>
      <trkpt lat="48.17514" lon="-3.31664">
        <ele>205.7</ele>
        <time>2024-11-20T13:01:17Z</time>
      </trkpt>
      <trkpt lat="48.17514" lon="-3.31664">
        <ele>205.7</ele>
        <time>2024-11-20T13:01:18Z</time>
      </trkpt>
      <trkpt lat="48.17514" lon="-3.31664">
        <ele>205.8</ele>
        <time>2024-11-20T13:01:19Z</time>
      </trkpt>
      <trkpt lat="48.17513" lon="-3.31665">
        <ele>205.8</ele>
        <time>2024-11-20T13:01:20Z</time>
      </trkpt>
      <trkpt lat="48.17513" lon="-3.31665">
        <ele>205.8</ele>
        <time>2024-11-20T13:01:21Z</time>
      </trkpt>
      <trkpt lat="48.17514" lon="-3.31664">
        <ele>205.8</ele>
        <time>2024-11-20T13:01:22Z</time>
      </trkpt>
      <trkpt lat="48.17514" lon="-3.31664">
        <ele>205.8</ele>
        <time>2024-11-20T13:01:23Z</time>
      </trkpt>
      <trkpt lat="48.17513" lon="-3.31664">
        <ele>205.8</ele>
        <time>2024-11-20T13:01:24Z</time>
      </trkpt>
      <trkpt lat="48.17513" lon="-3.31664">
        <ele>205.8</ele>
        <time>2024-11-20T13:01:25Z</time>
      </trkpt>
      <trkpt lat="48.17513" lon="-3.31664">
        <ele>205.8</ele>
        <time>2024-11-20T13:01:26Z</time>
      </trkpt>
      <trkpt lat="48.17513" lon="-3.31664">
        <ele>205.8</ele>
        <time>2024-11-20T13:01:27Z</time>
      </trkpt>
      <trkpt lat="48.17513" lon="-3.31663">
        <ele>205.8</ele>
        <time>2024-11-20T13:01:28Z</time>
      </trkpt>
      <trkpt lat="48.17513" lon="-3.31663">
        <ele>205.7</ele>
        <time>2024-11-20T13:01:29Z</time>
      </trkpt>
      <trkpt lat="48.17513" lon="-3.31663">
        <ele>205.7</ele>
        <time>2024-11-20T13:01:30Z</time>
      </trkpt>
      <trkpt lat="48.17513" lon="-3.31662">
        <ele>205.7</ele>
        <time>2024-11-20T13:01:31Z</time>
      </trkpt>
      <trkpt lat="48.17512" lon="-3.31662">
        <ele>205.7</ele>
        <time>2024-11-20T13:01:32Z</time>
      </trkpt>
      <trkpt lat="48.17512" lon="-3.31662">
        <ele>205.7</ele>
        <time>2024-11-20T13:01:33Z</time>
      </trkpt>
      <trkpt lat="48.17512" lon="-3.31662">
        <ele>205.7</ele>
        <time>2024-11-20T13:01:34Z</time>
      </trkpt>
      <trkpt lat="48.17512" lon="-3.31662">
        <ele>205.7</ele>
        <time>2024-11-20T13:01:35Z</time>
      </trkpt>
      <trkpt lat="48.17512" lon="-3.31662">
        <ele>205.7</ele>
        <time>2024-11-20T13:01:36Z</time>
      </trkpt>
      <trkpt lat="48.17511" lon="-3.31662">
        <ele>205.7</ele>
        <time>2024-11-20T13:01:37Z</time>
      </trkpt>
      <trkpt lat="48.17511" lon="-3.31662">
        <ele>205.8</ele>
        <time>2024-11-20T13:01:38Z</time>
      </trkpt>
      <trkpt lat="48.17511" lon="-3.31662">
        <ele>205.8</ele>
        <time>2024-11-20T13:01:39Z</time>
      </trkpt>
      <trkpt lat="48.17511" lon="-3.31662">
        <ele>205.8</ele>
        <time>2024-11-20T13:01:40Z</time>
      </trkpt>
      <trkpt lat="48.17511" lon="-3.31662">
        <ele>205.8</ele>
        <time>2024-11-20T13:01:41Z</time>
      </trkpt>
      <trkpt lat="48.17511" lon="-3.31662">
        <ele>205.8</ele>
        <time>2024-11-20T13:01:42Z</time>
      </trkpt>
      <trkpt lat="48.17511" lon="-3.31662">
        <ele>205.8</ele>
        <time>2024-11-20T13:01:43Z</time>
      </trkpt>
      <trkpt lat="48.17511" lon="-3.31662">
        <ele>205.8</ele>
        <time>2024-11-20T13:01:44Z</time>
      </trkpt>
      <trkpt lat="48.17511" lon="-3.31662">
        <ele>205.8</ele>
        <time>2024-11-20T13:01:45Z</time>
      </trkpt>
      <trkpt lat="48.17511" lon="-3.31662">
        <ele>205.8</ele>
        <time>2024-11-20T13:01:46Z</time>
      </trkpt>
      <trkpt lat="48.17511" lon="-3.31662">
        <ele>205.8</ele>
        <time>2024-11-20T13:01:47Z</time>
      </trkpt>
      <trkpt lat="48.17511" lon="-3.31662">
        <ele>205.8</ele>
        <time>2024-11-20T13:01:48Z</time>
      </trkpt>
      <trkpt lat="48.17511" lon="-3.31662">
        <ele>205.8</ele>
        <time>2024-11-20T13:01:49Z</time>
      </trkpt>
      <trkpt lat="48.17511" lon="-3.31662">
        <ele>205.8</ele>
        <time>2024-11-20T13:01:50Z</time>
      </trkpt>
      <trkpt lat="48.17511" lon="-3.31662">
        <ele>205.8</ele>
        <time>2024-11-20T13:01:51Z</time>
      </trkpt>
      <trkpt lat="48.17511" lon="-3.31662">
        <ele>205.8</ele>
        <time>2024-11-20T13:01:52Z</time>
      </trkpt>
      <trkpt lat="48.17511" lon="-3.31662">
        <ele>205.8</ele>
        <time>2024-11-20T13:01:53Z</time>
      </trkpt>
      <trkpt lat="48.17511" lon="-3.31662">
        <ele>205.8</ele>
        <time>2024-11-20T13:01:54Z</time>
      </trkpt>
      <trkpt lat="48.17511" lon="-3.31662">
        <ele>205.8</ele>
        <time>2024-11-20T13:01:55Z</time>
      </trkpt>
      <trkpt lat="48.17511" lon="-3.31662">
        <ele>205.8</ele>
        <time>2024-11-20T13:01:56Z</time>
      </trkpt>
      <trkpt lat="48.17511" lon="-3.31662">
        <ele>205.8</ele>
        <time>2024-11-20T13:01:57Z</time>
      </trkpt>
      <trkpt lat="48.17511" lon="-3.31662">
        <ele>205.8</ele>
        <time>2024-11-20T13:01:58Z</time>
      </trkpt>
      <trkpt lat="48.17511" lon="-3.31662">
        <ele>205.8</ele>
        <time>2024-11-20T13:01:59Z</time>
      </trkpt>
      <trkpt lat="48.17511" lon="-3.31662">
        <ele>205.8</ele>
        <time>2024-11-20T13:02:00Z</time>
      </trkpt>
      <trkpt lat="48.17511" lon="-3.31662">
        <ele>205.8</ele>
        <time>2024-11-20T13:02:01Z</time>
      </trkpt>
      <trkpt lat="48.17511" lon="-3.31662">
        <ele>205.8</ele>
        <time>2024-11-20T13:02:02Z</time>
      </trkpt>
      <trkpt lat="48.17511" lon="-3.31662">
        <ele>205.8</ele>
        <time>2024-11-20T13:02:03Z</time>
      </trkpt>
      <trkpt lat="48.17511" lon="-3.31662">
        <ele>205.8</ele>
        <time>2024-11-20T13:02:04Z</time>
      </trkpt>
      <trkpt lat="48.17511" lon="-3.31662">
        <ele>205.8</ele>
        <time>2024-11-20T13:02:05Z</time>
      </trkpt>
      <trkpt lat="48.17511" lon="-3.31662">
        <ele>205.8</ele>
        <time>2024-11-20T13:02:06Z</time>
      </trkpt>
      <trkpt lat="48.17511" lon="-3.31662">
        <ele>205.8</ele>
        <time>2024-11-20T13:02:07Z</time>
      </trkpt>
      <trkpt lat="48.17511" lon="-3.31662">
        <ele>205.8</ele>
        <time>2024-11-20T13:02:08Z</time>
      </trkpt>
      <trkpt lat="48.17511" lon="-3.31662">
        <ele>205.8</ele>
        <time>2024-11-20T13:02:09Z</time>
      </trkpt>
      <trkpt lat="48.17511" lon="-3.31662">
        <ele>205.8</ele>
        <time>2024-11-20T13:02:10Z</time>
      </trkpt>
      <trkpt lat="48.17511" lon="-3.31662">
        <ele>205.8</ele>
        <time>2024-11-20T13:02:11Z</time>
      </trkpt>
      <trkpt lat="48.17511" lon="-3.31663">
        <ele>205.9</ele>
        <time>2024-11-20T13:02:12Z</time>
      </trkpt>
      <trkpt lat="48.17511" lon="-3.31663">
        <ele>205.9</ele>
        <time>2024-11-20T13:02:13Z</time>
      </trkpt>
      <trkpt lat="48.17512" lon="-3.31664">
        <ele>205.9</ele>
        <time>2024-11-20T13:02:14Z</time>
      </trkpt>
      <trkpt lat="48.17512" lon="-3.31664">
        <ele>205.9</ele>
        <time>2024-11-20T13:02:15Z</time>
      </trkpt>
      <trkpt lat="48.17513" lon="-3.31665">
        <ele>205.9</ele>
        <time>2024-11-20T13:02:16Z</time>
      </trkpt>
      <trkpt lat="48.17513" lon="-3.31666">
        <ele>206</ele>
        <time>2024-11-20T13:02:17Z</time>
      </trkpt>
      <trkpt lat="48.17514" lon="-3.31667">
        <ele>206</ele>
        <time>2024-11-20T13:02:18Z</time>
      </trkpt>
      <trkpt lat="48.17514" lon="-3.31668">
        <ele>206.1</ele>
        <time>2024-11-20T13:02:19Z</time>
      </trkpt>
      <trkpt lat="48.17514" lon="-3.31669">
        <ele>206.3</ele>
        <time>2024-11-20T13:02:20Z</time>
      </trkpt>
      <trkpt lat="48.17514" lon="-3.3167">
        <ele>206.5</ele>
        <time>2024-11-20T13:02:21Z</time>
      </trkpt>
      <trkpt lat="48.17515" lon="-3.31672">
        <ele>206.7</ele>
        <time>2024-11-20T13:02:22Z</time>
      </trkpt>
      <trkpt lat="48.17515" lon="-3.31673">
        <ele>206.8</ele>
        <time>2024-11-20T13:02:23Z</time>
      </trkpt>
      <trkpt lat="48.17516" lon="-3.31674">
        <ele>206.9</ele>
        <time>2024-11-20T13:02:24Z</time>
      </trkpt>
      <trkpt lat="48.17517" lon="-3.31676">
        <ele>207</ele>
        <time>2024-11-20T13:02:25Z</time>
      </trkpt>
      <trkpt lat="48.17518" lon="-3.31677">
        <ele>207.1</ele>
        <time>2024-11-20T13:02:26Z</time>
      </trkpt>
      <trkpt lat="48.17518" lon="-3.31678">
        <ele>207.2</ele>
        <time>2024-11-20T13:02:27Z</time>
      </trkpt>
      <trkpt lat="48.17519" lon="-3.31679">
        <ele>207.3</ele>
        <time>2024-11-20T13:02:28Z</time>
      </trkpt>
      <trkpt lat="48.17519" lon="-3.31681">
        <ele>207.5</ele>
        <time>2024-11-20T13:02:29Z</time>
      </trkpt>
      <trkpt lat="48.1752" lon="-3.31683">
        <ele>207.6</ele>
        <time>2024-11-20T13:02:30Z</time>
      </trkpt>
      <trkpt lat="48.17521" lon="-3.31684">
        <ele>207.7</ele>
        <time>2024-11-20T13:02:31Z</time>
      </trkpt>
      <trkpt lat="48.17521" lon="-3.31685">
        <ele>207.8</ele>
        <time>2024-11-20T13:02:32Z</time>
      </trkpt>
      <trkpt lat="48.17522" lon="-3.31686">
        <ele>207.8</ele>
        <time>2024-11-20T13:02:33Z</time>
      </trkpt>
      <trkpt lat="48.17523" lon="-3.31687">
        <ele>207.9</ele>
        <time>2024-11-20T13:02:34Z</time>
      </trkpt>
      <trkpt lat="48.17523" lon="-3.31688">
        <ele>207.9</ele>
        <time>2024-11-20T13:02:35Z</time>
      </trkpt>
      <trkpt lat="48.17523" lon="-3.31689">
        <ele>208</ele>
        <time>2024-11-20T13:02:36Z</time>
      </trkpt>
      <trkpt lat="48.17523" lon="-3.3169">
        <ele>208.1</ele>
        <time>2024-11-20T13:02:37Z</time>
      </trkpt>
      <trkpt lat="48.17524" lon="-3.31691">
        <ele>208.2</ele>
        <time>2024-11-20T13:02:38Z</time>
      </trkpt>
      <trkpt lat="48.17524" lon="-3.31692">
        <ele>208.2</ele>
        <time>2024-11-20T13:02:39Z</time>
      </trkpt>
      <trkpt lat="48.17524" lon="-3.31693">
        <ele>208.3</ele>
        <time>2024-11-20T13:02:40Z</time>
      </trkpt>
      <trkpt lat="48.17525" lon="-3.31694">
        <ele>208.4</ele>
        <time>2024-11-20T13:02:41Z</time>
      </trkpt>
      <trkpt lat="48.17525" lon="-3.31696">
        <ele>208.5</ele>
        <time>2024-11-20T13:02:42Z</time>
      </trkpt>
      <trkpt lat="48.17525" lon="-3.31697">
        <ele>208.6</ele>
        <time>2024-11-20T13:02:43Z</time>
      </trkpt>
      <trkpt lat="48.17526" lon="-3.31698">
        <ele>208.6</ele>
        <time>2024-11-20T13:02:44Z</time>
      </trkpt>
      <trkpt lat="48.17526" lon="-3.317">
        <ele>208.6</ele>
        <time>2024-11-20T13:02:45Z</time>
      </trkpt>
      <trkpt lat="48.17527" lon="-3.31701">
        <ele>208.6</ele>
        <time>2024-11-20T13:02:46Z</time>
      </trkpt>
      <trkpt lat="48.17528" lon="-3.31702">
        <ele>208.6</ele>
        <time>2024-11-20T13:02:47Z</time>
      </trkpt>
      <trkpt lat="48.17528" lon="-3.31703">
        <ele>208.6</ele>
        <time>2024-11-20T13:02:48Z</time>
      </trkpt>
      <trkpt lat="48.17529" lon="-3.31704">
        <ele>208.6</ele>
        <time>2024-11-20T13:02:49Z</time>
      </trkpt>
      <trkpt lat="48.1753" lon="-3.31705">
        <ele>208.6</ele>
        <time>2024-11-20T13:02:50Z</time>
      </trkpt>
      <trkpt lat="48.17531" lon="-3.31706">
        <ele>208.6</ele>
        <time>2024-11-20T13:02:51Z</time>
      </trkpt>
      <trkpt lat="48.17532" lon="-3.31707">
        <ele>208.6</ele>
        <time>2024-11-20T13:02:52Z</time>
      </trkpt>
      <trkpt lat="48.17532" lon="-3.31708">
        <ele>208.6</ele>
        <time>2024-11-20T13:02:53Z</time>
      </trkpt>
      <trkpt lat="48.17532" lon="-3.3171">
        <ele>208.7</ele>
        <time>2024-11-20T13:02:54Z</time>
      </trkpt>
      <trkpt lat="48.17533" lon="-3.31711">
        <ele>208.8</ele>
        <time>2024-11-20T13:02:55Z</time>
      </trkpt>
      <trkpt lat="48.17532" lon="-3.31713">
        <ele>208.9</ele>
        <time>2024-11-20T13:02:56Z</time>
      </trkpt>
      <trkpt lat="48.17532" lon="-3.31714">
        <ele>209</ele>
        <time>2024-11-20T13:02:57Z</time>
      </trkpt>
      <trkpt lat="48.17532" lon="-3.31716">
        <ele>209.1</ele>
        <time>2024-11-20T13:02:58Z</time>
      </trkpt>
      <trkpt lat="48.17533" lon="-3.31718">
        <ele>209.2</ele>
        <time>2024-11-20T13:02:59Z</time>
      </trkpt>
      <trkpt lat="48.17534" lon="-3.31719">
        <ele>209.1</ele>
        <time>2024-11-20T13:03:00Z</time>
      </trkpt>
      <trkpt lat="48.17534" lon="-3.3172">
        <ele>209.2</ele>
        <time>2024-11-20T13:03:01Z</time>
      </trkpt>
      <trkpt lat="48.17534" lon="-3.3172">
        <ele>209.2</ele>
        <time>2024-11-20T13:03:02Z</time>
      </trkpt>
      <trkpt lat="48.17534" lon="-3.31721">
        <ele>209.2</ele>
        <time>2024-11-20T13:03:03Z</time>
      </trkpt>
      <trkpt lat="48.17534" lon="-3.31722">
        <ele>209.2</ele>
        <time>2024-11-20T13:03:04Z</time>
      </trkpt>
      <trkpt lat="48.17534" lon="-3.31722">
        <ele>209.3</ele>
        <time>2024-11-20T13:03:05Z</time>
      </trkpt>
      <trkpt lat="48.17534" lon="-3.31723">
        <ele>209.3</ele>
        <time>2024-11-20T13:03:06Z</time>
      </trkpt>
      <trkpt lat="48.17534" lon="-3.31723">
        <ele>209.4</ele>
        <time>2024-11-20T13:03:07Z</time>
      </trkpt>
      <trkpt lat="48.17534" lon="-3.31724">
        <ele>209.5</ele>
        <time>2024-11-20T13:03:08Z</time>
      </trkpt>
      <trkpt lat="48.17534" lon="-3.31725">
        <ele>209.5</ele>
        <time>2024-11-20T13:03:09Z</time>
      </trkpt>
      <trkpt lat="48.17534" lon="-3.31725">
        <ele>209.5</ele>
        <time>2024-11-20T13:03:10Z</time>
      </trkpt>
      <trkpt lat="48.17534" lon="-3.31726">
        <ele>209.6</ele>
        <time>2024-11-20T13:03:11Z</time>
      </trkpt>
      <trkpt lat="48.17534" lon="-3.31726">
        <ele>209.6</ele>
        <time>2024-11-20T13:03:12Z</time>
      </trkpt>
      <trkpt lat="48.17535" lon="-3.31727">
        <ele>209.5</ele>
        <time>2024-11-20T13:03:13Z</time>
      </trkpt>
      <trkpt lat="48.17535" lon="-3.31727">
        <ele>209.6</ele>
        <time>2024-11-20T13:03:14Z</time>
      </trkpt>
      <trkpt lat="48.17534" lon="-3.31728">
        <ele>209.7</ele>
        <time>2024-11-20T13:03:15Z</time>
      </trkpt>
      <trkpt lat="48.17534" lon="-3.31728">
        <ele>209.7</ele>
        <time>2024-11-20T13:03:16Z</time>
      </trkpt>
      <trkpt lat="48.17534" lon="-3.31729">
        <ele>209.7</ele>
        <time>2024-11-20T13:03:17Z</time>
      </trkpt>
      <trkpt lat="48.17534" lon="-3.31729">
        <ele>209.7</ele>
        <time>2024-11-20T13:03:18Z</time>
      </trkpt>
      <trkpt lat="48.17535" lon="-3.31729">
        <ele>209.7</ele>
        <time>2024-11-20T13:03:19Z</time>
      </trkpt>
      <trkpt lat="48.17535" lon="-3.3173">
        <ele>209.7</ele>
        <time>2024-11-20T13:03:20Z</time>
      </trkpt>
      <trkpt lat="48.17535" lon="-3.3173">
        <ele>209.7</ele>
        <time>2024-11-20T13:03:21Z</time>
      </trkpt>
      <trkpt lat="48.17535" lon="-3.31731">
        <ele>209.7</ele>
        <time>2024-11-20T13:03:22Z</time>
      </trkpt>
      <trkpt lat="48.17535" lon="-3.31731">
        <ele>209.8</ele>
        <time>2024-11-20T13:03:23Z</time>
      </trkpt>
      <trkpt lat="48.17535" lon="-3.31732">
        <ele>209.9</ele>
        <time>2024-11-20T13:03:24Z</time>
      </trkpt>
      <trkpt lat="48.17535" lon="-3.31733">
        <ele>209.9</ele>
        <time>2024-11-20T13:03:25Z</time>
      </trkpt>
      <trkpt lat="48.17536" lon="-3.31734">
        <ele>209.9</ele>
        <time>2024-11-20T13:03:26Z</time>
      </trkpt>
      <trkpt lat="48.17537" lon="-3.31735">
        <ele>209.8</ele>
        <time>2024-11-20T13:03:27Z</time>
      </trkpt>
      <trkpt lat="48.17538" lon="-3.31736">
        <ele>209.7</ele>
        <time>2024-11-20T13:03:28Z</time>
      </trkpt>
      <trkpt lat="48.17539" lon="-3.31737">
        <ele>209.6</ele>
        <time>2024-11-20T13:03:29Z</time>
      </trkpt>
      <trkpt lat="48.1754" lon="-3.31738">
        <ele>209.6</ele>
        <time>2024-11-20T13:03:30Z</time>
      </trkpt>
      <trkpt lat="48.17541" lon="-3.3174">
        <ele>209.5</ele>
        <time>2024-11-20T13:03:31Z</time>
      </trkpt>
      <trkpt lat="48.17542" lon="-3.31741">
        <ele>209.4</ele>
        <time>2024-11-20T13:03:32Z</time>
      </trkpt>
      <trkpt lat="48.17543" lon="-3.31743">
        <ele>209.4</ele>
        <time>2024-11-20T13:03:33Z</time>
      </trkpt>
      <trkpt lat="48.17544" lon="-3.31744">
        <ele>209.3</ele>
        <time>2024-11-20T13:03:34Z</time>
      </trkpt>
      <trkpt lat="48.17545" lon="-3.31746">
        <ele>209.3</ele>
        <time>2024-11-20T13:03:35Z</time>
      </trkpt>
      <trkpt lat="48.17546" lon="-3.31747">
        <ele>209.3</ele>
        <time>2024-11-20T13:03:36Z</time>
      </trkpt>
      <trkpt lat="48.17547" lon="-3.31748">
        <ele>209.2</ele>
        <time>2024-11-20T13:03:37Z</time>
      </trkpt>
      <trkpt lat="48.17548" lon="-3.31749">
        <ele>209.1</ele>
        <time>2024-11-20T13:03:38Z</time>
      </trkpt>
      <trkpt lat="48.17549" lon="-3.3175">
        <ele>209</ele>
        <time>2024-11-20T13:03:39Z</time>
      </trkpt>
      <trkpt lat="48.17549" lon="-3.31751">
        <ele>209</ele>
        <time>2024-11-20T13:03:40Z</time>
      </trkpt>
      <trkpt lat="48.1755" lon="-3.31753">
        <ele>209.1</ele>
        <time>2024-11-20T13:03:41Z</time>
      </trkpt>
      <trkpt lat="48.1755" lon="-3.31755">
        <ele>209.1</ele>
        <time>2024-11-20T13:03:42Z</time>
      </trkpt>
      <trkpt lat="48.17551" lon="-3.31756">
        <ele>209.2</ele>
        <time>2024-11-20T13:03:43Z</time>
      </trkpt>
      <trkpt lat="48.17552" lon="-3.31757">
        <ele>209.1</ele>
        <time>2024-11-20T13:03:44Z</time>
      </trkpt>
      <trkpt lat="48.17553" lon="-3.31759">
        <ele>209</ele>
        <time>2024-11-20T13:03:45Z</time>
      </trkpt>
      <trkpt lat="48.17554" lon="-3.3176">
        <ele>208.9</ele>
        <time>2024-11-20T13:03:46Z</time>
      </trkpt>
      <trkpt lat="48.17555" lon="-3.31761">
        <ele>208.8</ele>
        <time>2024-11-20T13:03:47Z</time>
      </trkpt>
      <trkpt lat="48.17556" lon="-3.31762">
        <ele>208.8</ele>
        <time>2024-11-20T13:03:48Z</time>
      </trkpt>
      <trkpt lat="48.17557" lon="-3.31763">
        <ele>208.9</ele>
        <time>2024-11-20T13:03:49Z</time>
      </trkpt>
      <trkpt lat="48.17557" lon="-3.31765">
        <ele>209</ele>
        <time>2024-11-20T13:03:50Z</time>
      </trkpt>
      <trkpt lat="48.17558" lon="-3.31766">
        <ele>209</ele>
        <time>2024-11-20T13:03:51Z</time>
      </trkpt>
      <trkpt lat="48.17558" lon="-3.31768">
        <ele>209.2</ele>
        <time>2024-11-20T13:03:52Z</time>
      </trkpt>
      <trkpt lat="48.17559" lon="-3.31769">
        <ele>209.3</ele>
        <time>2024-11-20T13:03:53Z</time>
      </trkpt>
      <trkpt lat="48.17559" lon="-3.31772">
        <ele>209.5</ele>
        <time>2024-11-20T13:03:54Z</time>
      </trkpt>
      <trkpt lat="48.17558" lon="-3.31774">
        <ele>209.6</ele>
        <time>2024-11-20T13:03:55Z</time>
      </trkpt>
      <trkpt lat="48.17558" lon="-3.31777">
        <ele>209.8</ele>
        <time>2024-11-20T13:03:56Z</time>
      </trkpt>
      <trkpt lat="48.17558" lon="-3.31779">
        <ele>210.1</ele>
        <time>2024-11-20T13:03:57Z</time>
      </trkpt>
      <trkpt lat="48.17558" lon="-3.31781">
        <ele>210.4</ele>
        <time>2024-11-20T13:03:58Z</time>
      </trkpt>
      <trkpt lat="48.17558" lon="-3.31783">
        <ele>210.6</ele>
        <time>2024-11-20T13:03:59Z</time>
      </trkpt>
      <trkpt lat="48.17558" lon="-3.31785">
        <ele>210.9</ele>
        <time>2024-11-20T13:04:00Z</time>
      </trkpt>
      <trkpt lat="48.17558" lon="-3.31787">
        <ele>211.1</ele>
        <time>2024-11-20T13:04:01Z</time>
      </trkpt>
      <trkpt lat="48.17558" lon="-3.31788">
        <ele>211.3</ele>
        <time>2024-11-20T13:04:02Z</time>
      </trkpt>
      <trkpt lat="48.17559" lon="-3.3179">
        <ele>211.5</ele>
        <time>2024-11-20T13:04:03Z</time>
      </trkpt>
      <trkpt lat="48.1756" lon="-3.31791">
        <ele>211.5</ele>
        <time>2024-11-20T13:04:04Z</time>
      </trkpt>
      <trkpt lat="48.17561" lon="-3.31792">
        <ele>211.6</ele>
        <time>2024-11-20T13:04:05Z</time>
      </trkpt>
      <trkpt lat="48.17561" lon="-3.31793">
        <ele>211.6</ele>
        <time>2024-11-20T13:04:06Z</time>
      </trkpt>
      <trkpt lat="48.17561" lon="-3.31794">
        <ele>211.7</ele>
        <time>2024-11-20T13:04:07Z</time>
      </trkpt>
      <trkpt lat="48.17562" lon="-3.31795">
        <ele>211.8</ele>
        <time>2024-11-20T13:04:08Z</time>
      </trkpt>
      <trkpt lat="48.17563" lon="-3.31797">
        <ele>211.9</ele>
        <time>2024-11-20T13:04:09Z</time>
      </trkpt>
      <trkpt lat="48.17564" lon="-3.31798">
        <ele>212</ele>
        <time>2024-11-20T13:04:10Z</time>
      </trkpt>
      <trkpt lat="48.17563" lon="-3.318">
        <ele>212.2</ele>
        <time>2024-11-20T13:04:11Z</time>
      </trkpt>
      <trkpt lat="48.17564" lon="-3.31801">
        <ele>212.3</ele>
        <time>2024-11-20T13:04:12Z</time>
      </trkpt>
      <trkpt lat="48.17565" lon="-3.31802">
        <ele>212.3</ele>
        <time>2024-11-20T13:04:13Z</time>
      </trkpt>
      <trkpt lat="48.17565" lon="-3.31803">
        <ele>212.4</ele>
        <time>2024-11-20T13:04:14Z</time>
      </trkpt>
      <trkpt lat="48.17565" lon="-3.31806">
        <ele>212.6</ele>
        <time>2024-11-20T13:04:15Z</time>
      </trkpt>
      <trkpt lat="48.17565" lon="-3.31808">
        <ele>212.8</ele>
        <time>2024-11-20T13:04:16Z</time>
      </trkpt>
      <trkpt lat="48.17565" lon="-3.31809">
        <ele>212.9</ele>
        <time>2024-11-20T13:04:17Z</time>
      </trkpt>
      <trkpt lat="48.17565" lon="-3.31811">
        <ele>213.1</ele>
        <time>2024-11-20T13:04:18Z</time>
      </trkpt>
      <trkpt lat="48.17565" lon="-3.31813">
        <ele>213.3</ele>
        <time>2024-11-20T13:04:19Z</time>
      </trkpt>
      <trkpt lat="48.17565" lon="-3.31814">
        <ele>213.5</ele>
        <time>2024-11-20T13:04:20Z</time>
      </trkpt>
      <trkpt lat="48.17565" lon="-3.31816">
        <ele>213.6</ele>
        <time>2024-11-20T13:04:21Z</time>
      </trkpt>
      <trkpt lat="48.17566" lon="-3.31818">
        <ele>213.7</ele>
        <time>2024-11-20T13:04:22Z</time>
      </trkpt>
      <trkpt lat="48.17566" lon="-3.3182">
        <ele>213.9</ele>
        <time>2024-11-20T13:04:23Z</time>
      </trkpt>
      <trkpt lat="48.17566" lon="-3.31821">
        <ele>214</ele>
        <time>2024-11-20T13:04:24Z</time>
      </trkpt>
      <trkpt lat="48.17566" lon="-3.31823">
        <ele>214.2</ele>
        <time>2024-11-20T13:04:25Z</time>
      </trkpt>
      <trkpt lat="48.17566" lon="-3.31824">
        <ele>214.2</ele>
        <time>2024-11-20T13:04:26Z</time>
      </trkpt>
      <trkpt lat="48.17566" lon="-3.31825">
        <ele>214.2</ele>
        <time>2024-11-20T13:04:27Z</time>
      </trkpt>
      <trkpt lat="48.17567" lon="-3.31826">
        <ele>214.2</ele>
        <time>2024-11-20T13:04:28Z</time>
      </trkpt>
      <trkpt lat="48.17569" lon="-3.31827">
        <ele>214.1</ele>
        <time>2024-11-20T13:04:29Z</time>
      </trkpt>
      <trkpt lat="48.17569" lon="-3.31829">
        <ele>214.1</ele>
        <time>2024-11-20T13:04:30Z</time>
      </trkpt>
      <trkpt lat="48.1757" lon="-3.31831">
        <ele>214.2</ele>
        <time>2024-11-20T13:04:31Z</time>
      </trkpt>
      <trkpt lat="48.1757" lon="-3.31833">
        <ele>214.4</ele>
        <time>2024-11-20T13:04:32Z</time>
      </trkpt>
      <trkpt lat="48.1757" lon="-3.31835">
        <ele>214.7</ele>
        <time>2024-11-20T13:04:33Z</time>
      </trkpt>
      <trkpt lat="48.1757" lon="-3.31837">
        <ele>215</ele>
        <time>2024-11-20T13:04:34Z</time>
      </trkpt>
      <trkpt lat="48.1757" lon="-3.31839">
        <ele>215.2</ele>
        <time>2024-11-20T13:04:35Z</time>
      </trkpt>
      <trkpt lat="48.1757" lon="-3.3184">
        <ele>215.3</ele>
        <time>2024-11-20T13:04:36Z</time>
      </trkpt>
      <trkpt lat="48.1757" lon="-3.31841">
        <ele>215.4</ele>
        <time>2024-11-20T13:04:37Z</time>
      </trkpt>
      <trkpt lat="48.17571" lon="-3.31842">
        <ele>215.4</ele>
        <time>2024-11-20T13:04:38Z</time>
      </trkpt>
      <trkpt lat="48.17572" lon="-3.31843">
        <ele>215.4</ele>
        <time>2024-11-20T13:04:39Z</time>
      </trkpt>
      <trkpt lat="48.17573" lon="-3.31844">
        <ele>215.4</ele>
        <time>2024-11-20T13:04:40Z</time>
      </trkpt>
      <trkpt lat="48.17574" lon="-3.31846">
        <ele>215.4</ele>
        <time>2024-11-20T13:04:41Z</time>
      </trkpt>
      <trkpt lat="48.17575" lon="-3.31847">
        <ele>215.5</ele>
        <time>2024-11-20T13:04:42Z</time>
      </trkpt>
      <trkpt lat="48.17575" lon="-3.31848">
        <ele>215.6</ele>
        <time>2024-11-20T13:04:43Z</time>
      </trkpt>
      <trkpt lat="48.17576" lon="-3.31849">
        <ele>215.7</ele>
        <time>2024-11-20T13:04:44Z</time>
      </trkpt>
      <trkpt lat="48.17576" lon="-3.3185">
        <ele>215.7</ele>
        <time>2024-11-20T13:04:45Z</time>
      </trkpt>
      <trkpt lat="48.17576" lon="-3.31851">
        <ele>215.8</ele>
        <time>2024-11-20T13:04:46Z</time>
      </trkpt>
      <trkpt lat="48.17577" lon="-3.31852">
        <ele>216</ele>
        <time>2024-11-20T13:04:47Z</time>
      </trkpt>
      <trkpt lat="48.17576" lon="-3.31853">
        <ele>216.1</ele>
        <time>2024-11-20T13:04:48Z</time>
      </trkpt>
      <trkpt lat="48.17576" lon="-3.31854">
        <ele>216.3</ele>
        <time>2024-11-20T13:04:49Z</time>
      </trkpt>
      <trkpt lat="48.17576" lon="-3.31856">
        <ele>216.5</ele>
        <time>2024-11-20T13:04:50Z</time>
      </trkpt>
      <trkpt lat="48.17577" lon="-3.31858">
        <ele>216.6</ele>
        <time>2024-11-20T13:04:51Z</time>
      </trkpt>
      <trkpt lat="48.17578" lon="-3.31859">
        <ele>216.8</ele>
        <time>2024-11-20T13:04:52Z</time>
      </trkpt>
      <trkpt lat="48.17578" lon="-3.31861">
        <ele>216.9</ele>
        <time>2024-11-20T13:04:53Z</time>
      </trkpt>
      <trkpt lat="48.17579" lon="-3.31862">
        <ele>217</ele>
        <time>2024-11-20T13:04:54Z</time>
      </trkpt>
      <trkpt lat="48.17579" lon="-3.31864">
        <ele>217.2</ele>
        <time>2024-11-20T13:04:55Z</time>
      </trkpt>
      <trkpt lat="48.17579" lon="-3.31865">
        <ele>217.4</ele>
        <time>2024-11-20T13:04:56Z</time>
      </trkpt>
      <trkpt lat="48.17579" lon="-3.31867">
        <ele>217.5</ele>
        <time>2024-11-20T13:04:57Z</time>
      </trkpt>
      <trkpt lat="48.1758" lon="-3.31868">
        <ele>217.7</ele>
        <time>2024-11-20T13:04:58Z</time>
      </trkpt>
      <trkpt lat="48.1758" lon="-3.3187">
        <ele>217.9</ele>
        <time>2024-11-20T13:04:59Z</time>
      </trkpt>
      <trkpt lat="48.1758" lon="-3.31871">
        <ele>218.1</ele>
        <time>2024-11-20T13:05:00Z</time>
      </trkpt>
      <trkpt lat="48.17581" lon="-3.31872">
        <ele>218.2</ele>
        <time>2024-11-20T13:05:01Z</time>
      </trkpt>
      <trkpt lat="48.17581" lon="-3.31874">
        <ele>218.2</ele>
        <time>2024-11-20T13:05:02Z</time>
      </trkpt>
      <trkpt lat="48.17582" lon="-3.31875">
        <ele>218.2</ele>
        <time>2024-11-20T13:05:03Z</time>
      </trkpt>
      <trkpt lat="48.17583" lon="-3.31876">
        <ele>218.2</ele>
        <time>2024-11-20T13:05:04Z</time>
      </trkpt>
      <trkpt lat="48.17584" lon="-3.31878">
        <ele>218.3</ele>
        <time>2024-11-20T13:05:05Z</time>
      </trkpt>
      <trkpt lat="48.17584" lon="-3.31879">
        <ele>218.5</ele>
        <time>2024-11-20T13:05:06Z</time>
      </trkpt>
      <trkpt lat="48.17585" lon="-3.3188">
        <ele>218.6</ele>
        <time>2024-11-20T13:05:07Z</time>
      </trkpt>
      <trkpt lat="48.17585" lon="-3.31881">
        <ele>218.6</ele>
        <time>2024-11-20T13:05:08Z</time>
      </trkpt>
      <trkpt lat="48.17586" lon="-3.31882">
        <ele>218.7</ele>
        <time>2024-11-20T13:05:09Z</time>
      </trkpt>
      <trkpt lat="48.17587" lon="-3.31883">
        <ele>218.8</ele>
        <time>2024-11-20T13:05:10Z</time>
      </trkpt>
      <trkpt lat="48.17587" lon="-3.31884">
        <ele>218.9</ele>
        <time>2024-11-20T13:05:11Z</time>
      </trkpt>
      <trkpt lat="48.17588" lon="-3.31886">
        <ele>219.1</ele>
        <time>2024-11-20T13:05:12Z</time>
      </trkpt>
      <trkpt lat="48.17588" lon="-3.31887">
        <ele>219.3</ele>
        <time>2024-11-20T13:05:13Z</time>
      </trkpt>
      <trkpt lat="48.17587" lon="-3.31889">
        <ele>219.6</ele>
        <time>2024-11-20T13:05:14Z</time>
      </trkpt>
      <trkpt lat="48.17587" lon="-3.31891">
        <ele>219.9</ele>
        <time>2024-11-20T13:05:15Z</time>
      </trkpt>
      <trkpt lat="48.17587" lon="-3.31893">
        <ele>220.2</ele>
        <time>2024-11-20T13:05:16Z</time>
      </trkpt>
      <trkpt lat="48.17588" lon="-3.31894">
        <ele>220.4</ele>
        <time>2024-11-20T13:05:17Z</time>
      </trkpt>
      <trkpt lat="48.17588" lon="-3.31895">
        <ele>220.5</ele>
        <time>2024-11-20T13:05:18Z</time>
      </trkpt>
      <trkpt lat="48.17589" lon="-3.31897">
        <ele>220.7</ele>
        <time>2024-11-20T13:05:19Z</time>
      </trkpt>
      <trkpt lat="48.17589" lon="-3.31898">
        <ele>220.9</ele>
        <time>2024-11-20T13:05:20Z</time>
      </trkpt>
      <trkpt lat="48.1759" lon="-3.319">
        <ele>221.1</ele>
        <time>2024-11-20T13:05:21Z</time>
      </trkpt>
      <trkpt lat="48.1759" lon="-3.31902">
        <ele>221.3</ele>
        <time>2024-11-20T13:05:22Z</time>
      </trkpt>
      <trkpt lat="48.1759" lon="-3.31903">
        <ele>221.6</ele>
        <time>2024-11-20T13:05:23Z</time>
      </trkpt>
      <trkpt lat="48.1759" lon="-3.31905">
        <ele>221.8</ele>
        <time>2024-11-20T13:05:24Z</time>
      </trkpt>
      <trkpt lat="48.17591" lon="-3.31906">
        <ele>222</ele>
        <time>2024-11-20T13:05:25Z</time>
      </trkpt>
      <trkpt lat="48.17591" lon="-3.31908">
        <ele>222.3</ele>
        <time>2024-11-20T13:05:26Z</time>
      </trkpt>
      <trkpt lat="48.17591" lon="-3.3191">
        <ele>222.6</ele>
        <time>2024-11-20T13:05:27Z</time>
      </trkpt>
      <trkpt lat="48.17591" lon="-3.31911">
        <ele>222.8</ele>
        <time>2024-11-20T13:05:28Z</time>
      </trkpt>
      <trkpt lat="48.17591" lon="-3.31912">
        <ele>223</ele>
        <time>2024-11-20T13:05:29Z</time>
      </trkpt>
      <trkpt lat="48.17591" lon="-3.31914">
        <ele>223.1</ele>
        <time>2024-11-20T13:05:30Z</time>
      </trkpt>
      <trkpt lat="48.17592" lon="-3.31915">
        <ele>223.2</ele>
        <time>2024-11-20T13:05:31Z</time>
      </trkpt>
      <trkpt lat="48.17593" lon="-3.31916">
        <ele>223.3</ele>
        <time>2024-11-20T13:05:32Z</time>
      </trkpt>
      <trkpt lat="48.17593" lon="-3.31918">
        <ele>223.4</ele>
        <time>2024-11-20T13:05:33Z</time>
      </trkpt>
      <trkpt lat="48.17593" lon="-3.3192">
        <ele>223.5</ele>
        <time>2024-11-20T13:05:34Z</time>
      </trkpt>
      <trkpt lat="48.17593" lon="-3.31921">
        <ele>223.6</ele>
        <time>2024-11-20T13:05:35Z</time>
      </trkpt>
      <trkpt lat="48.17594" lon="-3.31922">
        <ele>223.6</ele>
        <time>2024-11-20T13:05:36Z</time>
      </trkpt>
      <trkpt lat="48.17595" lon="-3.31923">
        <ele>223.5</ele>
        <time>2024-11-20T13:05:37Z</time>
      </trkpt>
      <trkpt lat="48.17596" lon="-3.31924">
        <ele>223.5</ele>
        <time>2024-11-20T13:05:38Z</time>
      </trkpt>
      <trkpt lat="48.17596" lon="-3.31925">
        <ele>223.4</ele>
        <time>2024-11-20T13:05:39Z</time>
      </trkpt>
      <trkpt lat="48.17597" lon="-3.31926">
        <ele>223.4</ele>
        <time>2024-11-20T13:05:40Z</time>
      </trkpt>
      <trkpt lat="48.17598" lon="-3.31928">
        <ele>223.3</ele>
        <time>2024-11-20T13:05:41Z</time>
      </trkpt>
      <trkpt lat="48.17599" lon="-3.31929">
        <ele>223.3</ele>
        <time>2024-11-20T13:05:42Z</time>
      </trkpt>
      <trkpt lat="48.17599" lon="-3.3193">
        <ele>223.3</ele>
        <time>2024-11-20T13:05:43Z</time>
      </trkpt>
      <trkpt lat="48.176" lon="-3.31932">
        <ele>223.3</ele>
        <time>2024-11-20T13:05:44Z</time>
      </trkpt>
      <trkpt lat="48.17601" lon="-3.31933">
        <ele>223.2</ele>
        <time>2024-11-20T13:05:45Z</time>
      </trkpt>
      <trkpt lat="48.17601" lon="-3.31935">
        <ele>223.3</ele>
        <time>2024-11-20T13:05:46Z</time>
      </trkpt>
      <trkpt lat="48.17602" lon="-3.31936">
        <ele>223.3</ele>
        <time>2024-11-20T13:05:47Z</time>
      </trkpt>
      <trkpt lat="48.17602" lon="-3.31938">
        <ele>223.4</ele>
        <time>2024-11-20T13:05:48Z</time>
      </trkpt>
      <trkpt lat="48.17602" lon="-3.31939">
        <ele>223.5</ele>
        <time>2024-11-20T13:05:49Z</time>
      </trkpt>
      <trkpt lat="48.17603" lon="-3.31941">
        <ele>223.5</ele>
        <time>2024-11-20T13:05:50Z</time>
      </trkpt>
      <trkpt lat="48.17603" lon="-3.31942">
        <ele>223.4</ele>
        <time>2024-11-20T13:05:51Z</time>
      </trkpt>
      <trkpt lat="48.17604" lon="-3.31943">
        <ele>223.4</ele>
        <time>2024-11-20T13:05:52Z</time>
      </trkpt>
      <trkpt lat="48.17604" lon="-3.31945">
        <ele>223.5</ele>
        <time>2024-11-20T13:05:53Z</time>
      </trkpt>
      <trkpt lat="48.17605" lon="-3.31947">
        <ele>223.5</ele>
        <time>2024-11-20T13:05:54Z</time>
      </trkpt>
      <trkpt lat="48.17605" lon="-3.31949">
        <ele>223.5</ele>
        <time>2024-11-20T13:05:55Z</time>
      </trkpt>
      <trkpt lat="48.17606" lon="-3.31951">
        <ele>223.5</ele>
        <time>2024-11-20T13:05:56Z</time>
      </trkpt>
      <trkpt lat="48.17606" lon="-3.31954">
        <ele>223.5</ele>
        <time>2024-11-20T13:05:57Z</time>
      </trkpt>
      <trkpt lat="48.17606" lon="-3.31956">
        <ele>223.6</ele>
        <time>2024-11-20T13:05:58Z</time>
      </trkpt>
      <trkpt lat="48.17607" lon="-3.31957">
        <ele>223.6</ele>
        <time>2024-11-20T13:05:59Z</time>
      </trkpt>
      <trkpt lat="48.17607" lon="-3.31959">
        <ele>223.6</ele>
        <time>2024-11-20T13:06:00Z</time>
      </trkpt>
      <trkpt lat="48.17607" lon="-3.31961">
        <ele>223.7</ele>
        <time>2024-11-20T13:06:01Z</time>
      </trkpt>
      <trkpt lat="48.17607" lon="-3.31963">
        <ele>223.7</ele>
        <time>2024-11-20T13:06:02Z</time>
      </trkpt>
      <trkpt lat="48.17607" lon="-3.31964">
        <ele>223.7</ele>
        <time>2024-11-20T13:06:03Z</time>
      </trkpt>
      <trkpt lat="48.17608" lon="-3.31966">
        <ele>223.7</ele>
        <time>2024-11-20T13:06:04Z</time>
      </trkpt>
      <trkpt lat="48.17609" lon="-3.31967">
        <ele>223.5</ele>
        <time>2024-11-20T13:06:05Z</time>
      </trkpt>
      <trkpt lat="48.17609" lon="-3.31969">
        <ele>223.4</ele>
        <time>2024-11-20T13:06:06Z</time>
      </trkpt>
      <trkpt lat="48.1761" lon="-3.31971">
        <ele>223.3</ele>
        <time>2024-11-20T13:06:07Z</time>
      </trkpt>
      <trkpt lat="48.1761" lon="-3.31973">
        <ele>223.3</ele>
        <time>2024-11-20T13:06:08Z</time>
      </trkpt>
      <trkpt lat="48.17611" lon="-3.31975">
        <ele>223.3</ele>
        <time>2024-11-20T13:06:09Z</time>
      </trkpt>
      <trkpt lat="48.17611" lon="-3.31976">
        <ele>223.4</ele>
        <time>2024-11-20T13:06:10Z</time>
      </trkpt>
      <trkpt lat="48.17611" lon="-3.31977">
        <ele>223.4</ele>
        <time>2024-11-20T13:06:11Z</time>
      </trkpt>
      <trkpt lat="48.17611" lon="-3.31978">
        <ele>223.4</ele>
        <time>2024-11-20T13:06:12Z</time>
      </trkpt>
      <trkpt lat="48.17611" lon="-3.3198">
        <ele>223.5</ele>
        <time>2024-11-20T13:06:13Z</time>
      </trkpt>
      <trkpt lat="48.17612" lon="-3.31982">
        <ele>223.6</ele>
        <time>2024-11-20T13:06:14Z</time>
      </trkpt>
      <trkpt lat="48.17612" lon="-3.31984">
        <ele>223.8</ele>
        <time>2024-11-20T13:06:15Z</time>
      </trkpt>
      <trkpt lat="48.17612" lon="-3.31986">
        <ele>223.9</ele>
        <time>2024-11-20T13:06:16Z</time>
      </trkpt>
      <trkpt lat="48.17612" lon="-3.31987">
        <ele>224</ele>
        <time>2024-11-20T13:06:17Z</time>
      </trkpt>
      <trkpt lat="48.17612" lon="-3.3199">
        <ele>224.2</ele>
        <time>2024-11-20T13:06:18Z</time>
      </trkpt>
      <trkpt lat="48.17612" lon="-3.31992">
        <ele>224.3</ele>
        <time>2024-11-20T13:06:19Z</time>
      </trkpt>
      <trkpt lat="48.17613" lon="-3.31993">
        <ele>224.4</ele>
        <time>2024-11-20T13:06:20Z</time>
      </trkpt>
      <trkpt lat="48.17613" lon="-3.31995">
        <ele>224.5</ele>
        <time>2024-11-20T13:06:21Z</time>
      </trkpt>
      <trkpt lat="48.17613" lon="-3.31997">
        <ele>224.5</ele>
        <time>2024-11-20T13:06:22Z</time>
      </trkpt>
      <trkpt lat="48.17614" lon="-3.31999">
        <ele>224.7</ele>
        <time>2024-11-20T13:06:23Z</time>
      </trkpt>
      <trkpt lat="48.17614" lon="-3.32">
        <ele>224.7</ele>
        <time>2024-11-20T13:06:24Z</time>
      </trkpt>
      <trkpt lat="48.17614" lon="-3.32002">
        <ele>224.6</ele>
        <time>2024-11-20T13:06:25Z</time>
      </trkpt>
      <trkpt lat="48.17614" lon="-3.32004">
        <ele>224.6</ele>
        <time>2024-11-20T13:06:26Z</time>
      </trkpt>
      <trkpt lat="48.17614" lon="-3.32006">
        <ele>224.5</ele>
        <time>2024-11-20T13:06:27Z</time>
      </trkpt>
      <trkpt lat="48.17613" lon="-3.32009">
        <ele>224.5</ele>
        <time>2024-11-20T13:06:28Z</time>
      </trkpt>
      <trkpt lat="48.17613" lon="-3.32011">
        <ele>224.4</ele>
        <time>2024-11-20T13:06:29Z</time>
      </trkpt>
      <trkpt lat="48.17614" lon="-3.32013">
        <ele>224.3</ele>
        <time>2024-11-20T13:06:30Z</time>
      </trkpt>
      <trkpt lat="48.17614" lon="-3.32015">
        <ele>224.2</ele>
        <time>2024-11-20T13:06:31Z</time>
      </trkpt>
      <trkpt lat="48.17614" lon="-3.32017">
        <ele>224.1</ele>
        <time>2024-11-20T13:06:32Z</time>
      </trkpt>
      <trkpt lat="48.17614" lon="-3.32018">
        <ele>224.1</ele>
        <time>2024-11-20T13:06:33Z</time>
      </trkpt>
      <trkpt lat="48.17615" lon="-3.32021">
        <ele>224</ele>
        <time>2024-11-20T13:06:34Z</time>
      </trkpt>
      <trkpt lat="48.17615" lon="-3.32023">
        <ele>223.9</ele>
        <time>2024-11-20T13:06:35Z</time>
      </trkpt>
      <trkpt lat="48.17615" lon="-3.32024">
        <ele>223.9</ele>
        <time>2024-11-20T13:06:36Z</time>
      </trkpt>
      <trkpt lat="48.17615" lon="-3.32025">
        <ele>223.8</ele>
        <time>2024-11-20T13:06:37Z</time>
      </trkpt>
      <trkpt lat="48.17616" lon="-3.32027">
        <ele>223.7</ele>
        <time>2024-11-20T13:06:38Z</time>
      </trkpt>
      <trkpt lat="48.17616" lon="-3.32029">
        <ele>223.7</ele>
        <time>2024-11-20T13:06:39Z</time>
      </trkpt>
      <trkpt lat="48.17617" lon="-3.32031">
        <ele>223.7</ele>
        <time>2024-11-20T13:06:40Z</time>
      </trkpt>
      <trkpt lat="48.17617" lon="-3.32032">
        <ele>223.7</ele>
        <time>2024-11-20T13:06:41Z</time>
      </trkpt>
      <trkpt lat="48.17618" lon="-3.32033">
        <ele>223.7</ele>
        <time>2024-11-20T13:06:42Z</time>
      </trkpt>
      <trkpt lat="48.17619" lon="-3.32034">
        <ele>223.6</ele>
        <time>2024-11-20T13:06:43Z</time>
      </trkpt>
      <trkpt lat="48.1762" lon="-3.32034">
        <ele>223.5</ele>
        <time>2024-11-20T13:06:44Z</time>
      </trkpt>
      <trkpt lat="48.17621" lon="-3.32034">
        <ele>223.4</ele>
        <time>2024-11-20T13:06:45Z</time>
      </trkpt>
      <trkpt lat="48.17623" lon="-3.32034">
        <ele>223.3</ele>
        <time>2024-11-20T13:06:46Z</time>
      </trkpt>
      <trkpt lat="48.17625" lon="-3.32033">
        <ele>223.1</ele>
        <time>2024-11-20T13:06:47Z</time>
      </trkpt>
      <trkpt lat="48.17626" lon="-3.32032">
        <ele>223</ele>
        <time>2024-11-20T13:06:48Z</time>
      </trkpt>
      <trkpt lat="48.17627" lon="-3.32031">
        <ele>222.9</ele>
        <time>2024-11-20T13:06:49Z</time>
      </trkpt>
      <trkpt lat="48.17628" lon="-3.3203">
        <ele>222.8</ele>
        <time>2024-11-20T13:06:50Z</time>
      </trkpt>
      <trkpt lat="48.17629" lon="-3.32029">
        <ele>222.7</ele>
        <time>2024-11-20T13:06:51Z</time>
      </trkpt>
      <trkpt lat="48.1763" lon="-3.32028">
        <ele>222.6</ele>
        <time>2024-11-20T13:06:52Z</time>
      </trkpt>
      <trkpt lat="48.17632" lon="-3.32028">
        <ele>222.5</ele>
        <time>2024-11-20T13:06:53Z</time>
      </trkpt>
      <trkpt lat="48.17633" lon="-3.32027">
        <ele>222.4</ele>
        <time>2024-11-20T13:06:54Z</time>
      </trkpt>
      <trkpt lat="48.17634" lon="-3.32027">
        <ele>222.3</ele>
        <time>2024-11-20T13:06:55Z</time>
      </trkpt>
      <trkpt lat="48.17636" lon="-3.32026">
        <ele>222.2</ele>
        <time>2024-11-20T13:06:56Z</time>
      </trkpt>
      <trkpt lat="48.17637" lon="-3.32026">
        <ele>222.1</ele>
        <time>2024-11-20T13:06:57Z</time>
      </trkpt>
      <trkpt lat="48.17638" lon="-3.32026">
        <ele>222</ele>
        <time>2024-11-20T13:06:58Z</time>
      </trkpt>
      <trkpt lat="48.1764" lon="-3.32026">
        <ele>222</ele>
        <time>2024-11-20T13:06:59Z</time>
      </trkpt>
      <trkpt lat="48.17641" lon="-3.32026">
        <ele>222</ele>
        <time>2024-11-20T13:07:00Z</time>
      </trkpt>
      <trkpt lat="48.17642" lon="-3.32026">
        <ele>222</ele>
        <time>2024-11-20T13:07:01Z</time>
      </trkpt>
      <trkpt lat="48.17643" lon="-3.32026">
        <ele>222</ele>
        <time>2024-11-20T13:07:02Z</time>
      </trkpt>
      <trkpt lat="48.17644" lon="-3.32026">
        <ele>222</ele>
        <time>2024-11-20T13:07:03Z</time>
      </trkpt>
      <trkpt lat="48.17645" lon="-3.32026">
        <ele>222</ele>
        <time>2024-11-20T13:07:04Z</time>
      </trkpt>
      <trkpt lat="48.17647" lon="-3.32026">
        <ele>222</ele>
        <time>2024-11-20T13:07:05Z</time>
      </trkpt>
      <trkpt lat="48.17648" lon="-3.32026">
        <ele>222</ele>
        <time>2024-11-20T13:07:06Z</time>
      </trkpt>
      <trkpt lat="48.17649" lon="-3.32026">
        <ele>222</ele>
        <time>2024-11-20T13:07:07Z</time>
      </trkpt>
      <trkpt lat="48.1765" lon="-3.32026">
        <ele>222</ele>
        <time>2024-11-20T13:07:08Z</time>
      </trkpt>
      <trkpt lat="48.17651" lon="-3.32026">
        <ele>222</ele>
        <time>2024-11-20T13:07:09Z</time>
      </trkpt>
      <trkpt lat="48.17652" lon="-3.32026">
        <ele>222</ele>
        <time>2024-11-20T13:07:10Z</time>
      </trkpt>
      <trkpt lat="48.17653" lon="-3.32026">
        <ele>222</ele>
        <time>2024-11-20T13:07:11Z</time>
      </trkpt>
      <trkpt lat="48.17654" lon="-3.32025">
        <ele>222</ele>
        <time>2024-11-20T13:07:12Z</time>
      </trkpt>
      <trkpt lat="48.17656" lon="-3.32025">
        <ele>222.1</ele>
        <time>2024-11-20T13:07:13Z</time>
      </trkpt>
      <trkpt lat="48.17657" lon="-3.32024">
        <ele>222.1</ele>
        <time>2024-11-20T13:07:14Z</time>
      </trkpt>
      <trkpt lat="48.17657" lon="-3.32024">
        <ele>222.1</ele>
        <time>2024-11-20T13:07:15Z</time>
      </trkpt>
      <trkpt lat="48.17659" lon="-3.32024">
        <ele>222.1</ele>
        <time>2024-11-20T13:07:16Z</time>
      </trkpt>
      <trkpt lat="48.1766" lon="-3.32023">
        <ele>222.1</ele>
        <time>2024-11-20T13:07:17Z</time>
      </trkpt>
      <trkpt lat="48.17661" lon="-3.32022">
        <ele>222.2</ele>
        <time>2024-11-20T13:07:18Z</time>
      </trkpt>
      <trkpt lat="48.17662" lon="-3.32021">
        <ele>222.2</ele>
        <time>2024-11-20T13:07:19Z</time>
      </trkpt>
      <trkpt lat="48.17663" lon="-3.3202">
        <ele>222.2</ele>
        <time>2024-11-20T13:07:20Z</time>
      </trkpt>
      <trkpt lat="48.17664" lon="-3.3202">
        <ele>222.3</ele>
        <time>2024-11-20T13:07:21Z</time>
      </trkpt>
      <trkpt lat="48.17665" lon="-3.3202">
        <ele>222.3</ele>
        <time>2024-11-20T13:07:22Z</time>
      </trkpt>
      <trkpt lat="48.17666" lon="-3.32019">
        <ele>222.3</ele>
        <time>2024-11-20T13:07:23Z</time>
      </trkpt>
      <trkpt lat="48.17667" lon="-3.32019">
        <ele>222.3</ele>
        <time>2024-11-20T13:07:24Z</time>
      </trkpt>
      <trkpt lat="48.17668" lon="-3.32019">
        <ele>222.4</ele>
        <time>2024-11-20T13:07:25Z</time>
      </trkpt>
      <trkpt lat="48.17669" lon="-3.32018">
        <ele>222.6</ele>
        <time>2024-11-20T13:07:26Z</time>
      </trkpt>
      <trkpt lat="48.1767" lon="-3.32018">
        <ele>222.7</ele>
        <time>2024-11-20T13:07:27Z</time>
      </trkpt>
      <trkpt lat="48.17671" lon="-3.32017">
        <ele>222.8</ele>
        <time>2024-11-20T13:07:28Z</time>
      </trkpt>
      <trkpt lat="48.17672" lon="-3.32017">
        <ele>222.9</ele>
        <time>2024-11-20T13:07:29Z</time>
      </trkpt>
      <trkpt lat="48.17674" lon="-3.32016">
        <ele>223</ele>
        <time>2024-11-20T13:07:30Z</time>
      </trkpt>
      <trkpt lat="48.17675" lon="-3.32016">
        <ele>223.1</ele>
        <time>2024-11-20T13:07:31Z</time>
      </trkpt>
      <trkpt lat="48.17676" lon="-3.32016">
        <ele>223.2</ele>
        <time>2024-11-20T13:07:32Z</time>
      </trkpt>
      <trkpt lat="48.17677" lon="-3.32015">
        <ele>223.3</ele>
        <time>2024-11-20T13:07:33Z</time>
      </trkpt>
      <trkpt lat="48.17678" lon="-3.32015">
        <ele>223.5</ele>
        <time>2024-11-20T13:07:34Z</time>
      </trkpt>
      <trkpt lat="48.17679" lon="-3.32015">
        <ele>223.6</ele>
        <time>2024-11-20T13:07:35Z</time>
      </trkpt>
      <trkpt lat="48.1768" lon="-3.32014">
        <ele>223.7</ele>
        <time>2024-11-20T13:07:36Z</time>
      </trkpt>
      <trkpt lat="48.17682" lon="-3.32014">
        <ele>223.8</ele>
        <time>2024-11-20T13:07:37Z</time>
      </trkpt>
      <trkpt lat="48.17683" lon="-3.32014">
        <ele>223.9</ele>
        <time>2024-11-20T13:07:38Z</time>
      </trkpt>
      <trkpt lat="48.17684" lon="-3.32014">
        <ele>224.1</ele>
        <time>2024-11-20T13:07:39Z</time>
      </trkpt>
      <trkpt lat="48.17685" lon="-3.32014">
        <ele>224.2</ele>
        <time>2024-11-20T13:07:40Z</time>
      </trkpt>
      <trkpt lat="48.17686" lon="-3.32014">
        <ele>224.3</ele>
        <time>2024-11-20T13:07:41Z</time>
      </trkpt>
      <trkpt lat="48.17687" lon="-3.32014">
        <ele>224.3</ele>
        <time>2024-11-20T13:07:42Z</time>
      </trkpt>
      <trkpt lat="48.17688" lon="-3.32014">
        <ele>224.4</ele>
        <time>2024-11-20T13:07:43Z</time>
      </trkpt>
      <trkpt lat="48.17689" lon="-3.32014">
        <ele>224.5</ele>
        <time>2024-11-20T13:07:44Z</time>
      </trkpt>
      <trkpt lat="48.1769" lon="-3.32014">
        <ele>224.6</ele>
        <time>2024-11-20T13:07:45Z</time>
      </trkpt>
      <trkpt lat="48.17691" lon="-3.32014">
        <ele>224.7</ele>
        <time>2024-11-20T13:07:46Z</time>
      </trkpt>
      <trkpt lat="48.17692" lon="-3.32015">
        <ele>224.8</ele>
        <time>2024-11-20T13:07:47Z</time>
      </trkpt>
      <trkpt lat="48.17694" lon="-3.32015">
        <ele>224.9</ele>
        <time>2024-11-20T13:07:48Z</time>
      </trkpt>
      <trkpt lat="48.17695" lon="-3.32015">
        <ele>224.9</ele>
        <time>2024-11-20T13:07:49Z</time>
      </trkpt>
      <trkpt lat="48.17696" lon="-3.32016">
        <ele>224.9</ele>
        <time>2024-11-20T13:07:50Z</time>
      </trkpt>
      <trkpt lat="48.17697" lon="-3.32016">
        <ele>224.9</ele>
        <time>2024-11-20T13:07:51Z</time>
      </trkpt>
      <trkpt lat="48.17698" lon="-3.32016">
        <ele>225</ele>
        <time>2024-11-20T13:07:52Z</time>
      </trkpt>
      <trkpt lat="48.17699" lon="-3.32017">
        <ele>225</ele>
        <time>2024-11-20T13:07:53Z</time>
      </trkpt>
      <trkpt lat="48.177" lon="-3.32017">
        <ele>225</ele>
        <time>2024-11-20T13:07:54Z</time>
      </trkpt>
      <trkpt lat="48.17701" lon="-3.32018">
        <ele>225</ele>
        <time>2024-11-20T13:07:55Z</time>
      </trkpt>
      <trkpt lat="48.17702" lon="-3.32018">
        <ele>225.1</ele>
        <time>2024-11-20T13:07:56Z</time>
      </trkpt>
      <trkpt lat="48.17703" lon="-3.32018">
        <ele>225.1</ele>
        <time>2024-11-20T13:07:57Z</time>
      </trkpt>
      <trkpt lat="48.17704" lon="-3.32019">
        <ele>225.1</ele>
        <time>2024-11-20T13:07:58Z</time>
      </trkpt>
      <trkpt lat="48.17705" lon="-3.32019">
        <ele>225.2</ele>
        <time>2024-11-20T13:07:59Z</time>
      </trkpt>
      <trkpt lat="48.17707" lon="-3.3202">
        <ele>225.2</ele>
        <time>2024-11-20T13:08:00Z</time>
      </trkpt>
      <trkpt lat="48.17708" lon="-3.3202">
        <ele>225.3</ele>
        <time>2024-11-20T13:08:01Z</time>
      </trkpt>
      <trkpt lat="48.17709" lon="-3.32021">
        <ele>225.3</ele>
        <time>2024-11-20T13:08:02Z</time>
      </trkpt>
      <trkpt lat="48.1771" lon="-3.32021">
        <ele>225.3</ele>
        <time>2024-11-20T13:08:03Z</time>
      </trkpt>
      <trkpt lat="48.17712" lon="-3.32023">
        <ele>225.4</ele>
        <time>2024-11-20T13:08:05Z</time>
      </trkpt>
      <trkpt lat="48.17713" lon="-3.32023">
        <ele>225.4</ele>
        <time>2024-11-20T13:08:06Z</time>
      </trkpt>
      <trkpt lat="48.17714" lon="-3.32024">
        <ele>225.5</ele>
        <time>2024-11-20T13:08:07Z</time>
      </trkpt>
      <trkpt lat="48.17715" lon="-3.32025">
        <ele>225.5</ele>
        <time>2024-11-20T13:08:08Z</time>
      </trkpt>
      <trkpt lat="48.17716" lon="-3.32025">
        <ele>225.6</ele>
        <time>2024-11-20T13:08:09Z</time>
      </trkpt>
      <trkpt lat="48.17717" lon="-3.32026">
        <ele>225.6</ele>
        <time>2024-11-20T13:08:10Z</time>
      </trkpt>
      <trkpt lat="48.17718" lon="-3.32026">
        <ele>225.7</ele>
        <time>2024-11-20T13:08:11Z</time>
      </trkpt>
      <trkpt lat="48.17718" lon="-3.32027">
        <ele>225.7</ele>
        <time>2024-11-20T13:08:12Z</time>
      </trkpt>
      <trkpt lat="48.17718" lon="-3.32028">
        <ele>225.7</ele>
        <time>2024-11-20T13:08:13Z</time>
      </trkpt>
      <trkpt lat="48.17719" lon="-3.32028">
        <ele>225.7</ele>
        <time>2024-11-20T13:08:14Z</time>
      </trkpt>
      <trkpt lat="48.1772" lon="-3.32029">
        <ele>225.7</ele>
        <time>2024-11-20T13:08:15Z</time>
      </trkpt>
      <trkpt lat="48.17721" lon="-3.3203">
        <ele>225.6</ele>
        <time>2024-11-20T13:08:16Z</time>
      </trkpt>
      <trkpt lat="48.17721" lon="-3.32031">
        <ele>225.6</ele>
        <time>2024-11-20T13:08:17Z</time>
      </trkpt>
      <trkpt lat="48.17722" lon="-3.32032">
        <ele>225.6</ele>
        <time>2024-11-20T13:08:18Z</time>
      </trkpt>
      <trkpt lat="48.17723" lon="-3.32032">
        <ele>225.6</ele>
        <time>2024-11-20T13:08:19Z</time>
      </trkpt>
      <trkpt lat="48.17724" lon="-3.32032">
        <ele>225.7</ele>
        <time>2024-11-20T13:08:20Z</time>
      </trkpt>
      <trkpt lat="48.17725" lon="-3.32033">
        <ele>225.8</ele>
        <time>2024-11-20T13:08:21Z</time>
      </trkpt>
      <trkpt lat="48.17726" lon="-3.32034">
        <ele>225.8</ele>
        <time>2024-11-20T13:08:22Z</time>
      </trkpt>
      <trkpt lat="48.17726" lon="-3.32034">
        <ele>225.9</ele>
        <time>2024-11-20T13:08:23Z</time>
      </trkpt>
      <trkpt lat="48.17727" lon="-3.32034">
        <ele>226</ele>
        <time>2024-11-20T13:08:24Z</time>
      </trkpt>
      <trkpt lat="48.17728" lon="-3.32033">
        <ele>226.1</ele>
        <time>2024-11-20T13:08:25Z</time>
      </trkpt>
      <trkpt lat="48.17729" lon="-3.32032">
        <ele>226.3</ele>
        <time>2024-11-20T13:08:26Z</time>
      </trkpt>
      <trkpt lat="48.17729" lon="-3.32031">
        <ele>226.5</ele>
        <time>2024-11-20T13:08:27Z</time>
      </trkpt>
      <trkpt lat="48.1773" lon="-3.3203">
        <ele>226.7</ele>
        <time>2024-11-20T13:08:28Z</time>
      </trkpt>
      <trkpt lat="48.17731" lon="-3.32029">
        <ele>226.8</ele>
        <time>2024-11-20T13:08:29Z</time>
      </trkpt>
      <trkpt lat="48.17731" lon="-3.32029">
        <ele>226.9</ele>
        <time>2024-11-20T13:08:30Z</time>
      </trkpt>
      <trkpt lat="48.17732" lon="-3.32028">
        <ele>227</ele>
        <time>2024-11-20T13:08:31Z</time>
      </trkpt>
      <trkpt lat="48.17733" lon="-3.32027">
        <ele>227.1</ele>
        <time>2024-11-20T13:08:32Z</time>
      </trkpt>
      <trkpt lat="48.17733" lon="-3.32026">
        <ele>227.1</ele>
        <time>2024-11-20T13:08:33Z</time>
      </trkpt>
      <trkpt lat="48.17734" lon="-3.32025">
        <ele>227.2</ele>
        <time>2024-11-20T13:08:34Z</time>
      </trkpt>
      <trkpt lat="48.17734" lon="-3.32024">
        <ele>227.2</ele>
        <time>2024-11-20T13:08:35Z</time>
      </trkpt>
      <trkpt lat="48.17735" lon="-3.32023">
        <ele>227.3</ele>
        <time>2024-11-20T13:08:36Z</time>
      </trkpt>
      <trkpt lat="48.17735" lon="-3.32022">
        <ele>227.3</ele>
        <time>2024-11-20T13:08:37Z</time>
      </trkpt>
      <trkpt lat="48.17736" lon="-3.3202">
        <ele>227.3</ele>
        <time>2024-11-20T13:08:38Z</time>
      </trkpt>
      <trkpt lat="48.17736" lon="-3.32018">
        <ele>227.3</ele>
        <time>2024-11-20T13:08:39Z</time>
      </trkpt>
      <trkpt lat="48.17737" lon="-3.32017">
        <ele>227.4</ele>
        <time>2024-11-20T13:08:40Z</time>
      </trkpt>
      <trkpt lat="48.17737" lon="-3.32016">
        <ele>227.4</ele>
        <time>2024-11-20T13:08:41Z</time>
      </trkpt>
      <trkpt lat="48.17737" lon="-3.32015">
        <ele>227.4</ele>
        <time>2024-11-20T13:08:42Z</time>
      </trkpt>
      <trkpt lat="48.17737" lon="-3.32014">
        <ele>227.4</ele>
        <time>2024-11-20T13:08:43Z</time>
      </trkpt>
      <trkpt lat="48.17738" lon="-3.32013">
        <ele>227.4</ele>
        <time>2024-11-20T13:08:44Z</time>
      </trkpt>
      <trkpt lat="48.17738" lon="-3.32011">
        <ele>227.4</ele>
        <time>2024-11-20T13:08:45Z</time>
      </trkpt>
      <trkpt lat="48.17739" lon="-3.3201">
        <ele>227.4</ele>
        <time>2024-11-20T13:08:46Z</time>
      </trkpt>
      <trkpt lat="48.17739" lon="-3.32009">
        <ele>227.4</ele>
        <time>2024-11-20T13:08:47Z</time>
      </trkpt>
      <trkpt lat="48.1774" lon="-3.32008">
        <ele>227.4</ele>
        <time>2024-11-20T13:08:48Z</time>
      </trkpt>
      <trkpt lat="48.1774" lon="-3.32006">
        <ele>227.4</ele>
        <time>2024-11-20T13:08:49Z</time>
      </trkpt>
      <trkpt lat="48.17741" lon="-3.32004">
        <ele>227.4</ele>
        <time>2024-11-20T13:08:50Z</time>
      </trkpt>
      <trkpt lat="48.17741" lon="-3.32003">
        <ele>227.4</ele>
        <time>2024-11-20T13:08:51Z</time>
      </trkpt>
      <trkpt lat="48.17742" lon="-3.32002">
        <ele>227.5</ele>
        <time>2024-11-20T13:08:52Z</time>
      </trkpt>
      <trkpt lat="48.17742" lon="-3.32001">
        <ele>227.5</ele>
        <time>2024-11-20T13:08:53Z</time>
      </trkpt>
      <trkpt lat="48.17743" lon="-3.31999">
        <ele>227.5</ele>
        <time>2024-11-20T13:08:54Z</time>
      </trkpt>
      <trkpt lat="48.17744" lon="-3.31997">
        <ele>227.5</ele>
        <time>2024-11-20T13:08:55Z</time>
      </trkpt>
      <trkpt lat="48.17744" lon="-3.31996">
        <ele>227.4</ele>
        <time>2024-11-20T13:08:56Z</time>
      </trkpt>
      <trkpt lat="48.17744" lon="-3.31994">
        <ele>227.4</ele>
        <time>2024-11-20T13:08:57Z</time>
      </trkpt>
      <trkpt lat="48.17744" lon="-3.31992">
        <ele>227.4</ele>
        <time>2024-11-20T13:08:58Z</time>
      </trkpt>
      <trkpt lat="48.17745" lon="-3.3199">
        <ele>227.3</ele>
        <time>2024-11-20T13:08:59Z</time>
      </trkpt>
      <trkpt lat="48.17745" lon="-3.31989">
        <ele>227.3</ele>
        <time>2024-11-20T13:09:00Z</time>
      </trkpt>
      <trkpt lat="48.17746" lon="-3.31987">
        <ele>227.3</ele>
        <time>2024-11-20T13:09:01Z</time>
      </trkpt>
      <trkpt lat="48.17746" lon="-3.31986">
        <ele>227.3</ele>
        <time>2024-11-20T13:09:02Z</time>
      </trkpt>
      <trkpt lat="48.17747" lon="-3.31983">
        <ele>227.2</ele>
        <time>2024-11-20T13:09:03Z</time>
      </trkpt>
      <trkpt lat="48.17747" lon="-3.31981">
        <ele>227.2</ele>
        <time>2024-11-20T13:09:04Z</time>
      </trkpt>
      <trkpt lat="48.17747" lon="-3.3198">
        <ele>227.2</ele>
        <time>2024-11-20T13:09:05Z</time>
      </trkpt>
      <trkpt lat="48.17748" lon="-3.31978">
        <ele>227.1</ele>
        <time>2024-11-20T13:09:06Z</time>
      </trkpt>
      <trkpt lat="48.17748" lon="-3.31977">
        <ele>227.1</ele>
        <time>2024-11-20T13:09:07Z</time>
      </trkpt>
      <trkpt lat="48.17749" lon="-3.31975">
        <ele>227</ele>
        <time>2024-11-20T13:09:08Z</time>
      </trkpt>
      <trkpt lat="48.1775" lon="-3.31972">
        <ele>227</ele>
        <time>2024-11-20T13:09:09Z</time>
      </trkpt>
      <trkpt lat="48.1775" lon="-3.31971">
        <ele>226.9</ele>
        <time>2024-11-20T13:09:10Z</time>
      </trkpt>
      <trkpt lat="48.17751" lon="-3.31969">
        <ele>226.8</ele>
        <time>2024-11-20T13:09:11Z</time>
      </trkpt>
      <trkpt lat="48.17751" lon="-3.31967">
        <ele>226.7</ele>
        <time>2024-11-20T13:09:12Z</time>
      </trkpt>
      <trkpt lat="48.17751" lon="-3.31965">
        <ele>226.6</ele>
        <time>2024-11-20T13:09:13Z</time>
      </trkpt>
      <trkpt lat="48.17752" lon="-3.31963">
        <ele>226.5</ele>
        <time>2024-11-20T13:09:14Z</time>
      </trkpt>
      <trkpt lat="48.17752" lon="-3.31961">
        <ele>226.4</ele>
        <time>2024-11-20T13:09:15Z</time>
      </trkpt>
      <trkpt lat="48.17753" lon="-3.31959">
        <ele>226.2</ele>
        <time>2024-11-20T13:09:16Z</time>
      </trkpt>
      <trkpt lat="48.17753" lon="-3.31957">
        <ele>226.1</ele>
        <time>2024-11-20T13:09:17Z</time>
      </trkpt>
      <trkpt lat="48.17754" lon="-3.31955">
        <ele>226</ele>
        <time>2024-11-20T13:09:18Z</time>
      </trkpt>
      <trkpt lat="48.17754" lon="-3.31953">
        <ele>225.9</ele>
        <time>2024-11-20T13:09:19Z</time>
      </trkpt>
      <trkpt lat="48.17754" lon="-3.31951">
        <ele>225.8</ele>
        <time>2024-11-20T13:09:20Z</time>
      </trkpt>
      <trkpt lat="48.17755" lon="-3.31949">
        <ele>225.7</ele>
        <time>2024-11-20T13:09:21Z</time>
      </trkpt>
      <trkpt lat="48.17755" lon="-3.31947">
        <ele>225.6</ele>
        <time>2024-11-20T13:09:22Z</time>
      </trkpt>
      <trkpt lat="48.17756" lon="-3.31945">
        <ele>225.5</ele>
        <time>2024-11-20T13:09:23Z</time>
      </trkpt>
      <trkpt lat="48.17756" lon="-3.31943">
        <ele>225.3</ele>
        <time>2024-11-20T13:09:24Z</time>
      </trkpt>
      <trkpt lat="48.17757" lon="-3.31941">
        <ele>225.2</ele>
        <time>2024-11-20T13:09:25Z</time>
      </trkpt>
      <trkpt lat="48.17757" lon="-3.3194">
        <ele>225.1</ele>
        <time>2024-11-20T13:09:26Z</time>
      </trkpt>
      <trkpt lat="48.17757" lon="-3.31939">
        <ele>225</ele>
        <time>2024-11-20T13:09:27Z</time>
      </trkpt>
      <trkpt lat="48.17758" lon="-3.31937">
        <ele>224.9</ele>
        <time>2024-11-20T13:09:28Z</time>
      </trkpt>
      <trkpt lat="48.17758" lon="-3.31935">
        <ele>224.8</ele>
        <time>2024-11-20T13:09:29Z</time>
      </trkpt>
      <trkpt lat="48.17759" lon="-3.31934">
        <ele>224.7</ele>
        <time>2024-11-20T13:09:30Z</time>
      </trkpt>
      <trkpt lat="48.17759" lon="-3.31932">
        <ele>224.6</ele>
        <time>2024-11-20T13:09:31Z</time>
      </trkpt>
      <trkpt lat="48.1776" lon="-3.31931">
        <ele>224.5</ele>
        <time>2024-11-20T13:09:32Z</time>
      </trkpt>
      <trkpt lat="48.1776" lon="-3.3193">
        <ele>224.5</ele>
        <time>2024-11-20T13:09:33Z</time>
      </trkpt>
      <trkpt lat="48.17761" lon="-3.31928">
        <ele>224.4</ele>
        <time>2024-11-20T13:09:34Z</time>
      </trkpt>
      <trkpt lat="48.17761" lon="-3.31927">
        <ele>224.3</ele>
        <time>2024-11-20T13:09:35Z</time>
      </trkpt>
      <trkpt lat="48.17762" lon="-3.31926">
        <ele>224.2</ele>
        <time>2024-11-20T13:09:36Z</time>
      </trkpt>
      <trkpt lat="48.17762" lon="-3.31924">
        <ele>224.1</ele>
        <time>2024-11-20T13:09:37Z</time>
      </trkpt>
      <trkpt lat="48.17763" lon="-3.31923">
        <ele>224</ele>
        <time>2024-11-20T13:09:38Z</time>
      </trkpt>
      <trkpt lat="48.17763" lon="-3.31921">
        <ele>223.9</ele>
        <time>2024-11-20T13:09:39Z</time>
      </trkpt>
      <trkpt lat="48.17764" lon="-3.31919">
        <ele>223.8</ele>
        <time>2024-11-20T13:09:40Z</time>
      </trkpt>
      <trkpt lat="48.17765" lon="-3.31918">
        <ele>223.6</ele>
        <time>2024-11-20T13:09:41Z</time>
      </trkpt>
      <trkpt lat="48.17765" lon="-3.31916">
        <ele>223.5</ele>
        <time>2024-11-20T13:09:42Z</time>
      </trkpt>
      <trkpt lat="48.17766" lon="-3.31914">
        <ele>223.2</ele>
        <time>2024-11-20T13:09:43Z</time>
      </trkpt>
      <trkpt lat="48.17767" lon="-3.31912">
        <ele>222.9</ele>
        <time>2024-11-20T13:09:44Z</time>
      </trkpt>
      <trkpt lat="48.17767" lon="-3.31911">
        <ele>222.7</ele>
        <time>2024-11-20T13:09:45Z</time>
      </trkpt>
      <trkpt lat="48.17768" lon="-3.31909">
        <ele>222.6</ele>
        <time>2024-11-20T13:09:46Z</time>
      </trkpt>
      <trkpt lat="48.17769" lon="-3.31908">
        <ele>222.4</ele>
        <time>2024-11-20T13:09:47Z</time>
      </trkpt>
      <trkpt lat="48.1777" lon="-3.31907">
        <ele>222.3</ele>
        <time>2024-11-20T13:09:48Z</time>
      </trkpt>
      <trkpt lat="48.1777" lon="-3.31905">
        <ele>222.1</ele>
        <time>2024-11-20T13:09:49Z</time>
      </trkpt>
      <trkpt lat="48.17771" lon="-3.31904">
        <ele>221.9</ele>
        <time>2024-11-20T13:09:50Z</time>
      </trkpt>
      <trkpt lat="48.17771" lon="-3.31902">
        <ele>221.7</ele>
        <time>2024-11-20T13:09:51Z</time>
      </trkpt>
      <trkpt lat="48.17772" lon="-3.31901">
        <ele>221.5</ele>
        <time>2024-11-20T13:09:52Z</time>
      </trkpt>
      <trkpt lat="48.17772" lon="-3.319">
        <ele>221.4</ele>
        <time>2024-11-20T13:09:53Z</time>
      </trkpt>
      <trkpt lat="48.17773" lon="-3.31899">
        <ele>221.2</ele>
        <time>2024-11-20T13:09:54Z</time>
      </trkpt>
      <trkpt lat="48.17773" lon="-3.31897">
        <ele>221</ele>
        <time>2024-11-20T13:09:55Z</time>
      </trkpt>
      <trkpt lat="48.17774" lon="-3.31896">
        <ele>220.9</ele>
        <time>2024-11-20T13:09:56Z</time>
      </trkpt>
      <trkpt lat="48.17774" lon="-3.31895">
        <ele>220.7</ele>
        <time>2024-11-20T13:09:57Z</time>
      </trkpt>
      <trkpt lat="48.17775" lon="-3.31894">
        <ele>220.6</ele>
        <time>2024-11-20T13:09:58Z</time>
      </trkpt>
      <trkpt lat="48.17775" lon="-3.31893">
        <ele>220.5</ele>
        <time>2024-11-20T13:09:59Z</time>
      </trkpt>
      <trkpt lat="48.17775" lon="-3.31892">
        <ele>220.3</ele>
        <time>2024-11-20T13:10:00Z</time>
      </trkpt>
      <trkpt lat="48.17776" lon="-3.31891">
        <ele>220.2</ele>
        <time>2024-11-20T13:10:01Z</time>
      </trkpt>
      <trkpt lat="48.17776" lon="-3.3189">
        <ele>220.1</ele>
        <time>2024-11-20T13:10:02Z</time>
      </trkpt>
      <trkpt lat="48.17777" lon="-3.31889">
        <ele>219.9</ele>
        <time>2024-11-20T13:10:03Z</time>
      </trkpt>
      <trkpt lat="48.17777" lon="-3.31888">
        <ele>219.9</ele>
        <time>2024-11-20T13:10:04Z</time>
      </trkpt>
      <trkpt lat="48.17778" lon="-3.31887">
        <ele>219.8</ele>
        <time>2024-11-20T13:10:05Z</time>
      </trkpt>
      <trkpt lat="48.17778" lon="-3.31886">
        <ele>219.7</ele>
        <time>2024-11-20T13:10:06Z</time>
      </trkpt>
      <trkpt lat="48.17779" lon="-3.31885">
        <ele>219.7</ele>
        <time>2024-11-20T13:10:07Z</time>
      </trkpt>
      <trkpt lat="48.17779" lon="-3.31884">
        <ele>219.6</ele>
        <time>2024-11-20T13:10:08Z</time>
      </trkpt>
      <trkpt lat="48.1778" lon="-3.31883">
        <ele>219.5</ele>
        <time>2024-11-20T13:10:09Z</time>
      </trkpt>
      <trkpt lat="48.1778" lon="-3.31881">
        <ele>219.4</ele>
        <time>2024-11-20T13:10:10Z</time>
      </trkpt>
      <trkpt lat="48.17781" lon="-3.3188">
        <ele>219.3</ele>
        <time>2024-11-20T13:10:11Z</time>
      </trkpt>
      <trkpt lat="48.17781" lon="-3.31878">
        <ele>219.2</ele>
        <time>2024-11-20T13:10:12Z</time>
      </trkpt>
      <trkpt lat="48.17782" lon="-3.31878">
        <ele>219.2</ele>
        <time>2024-11-20T13:10:13Z</time>
      </trkpt>
      <trkpt lat="48.17782" lon="-3.31877">
        <ele>219.1</ele>
        <time>2024-11-20T13:10:14Z</time>
      </trkpt>
      <trkpt lat="48.17783" lon="-3.31876">
        <ele>219.1</ele>
        <time>2024-11-20T13:10:15Z</time>
      </trkpt>
      <trkpt lat="48.17784" lon="-3.31876">
        <ele>219.1</ele>
        <time>2024-11-20T13:10:16Z</time>
      </trkpt>
      <trkpt lat="48.17784" lon="-3.31874">
        <ele>219</ele>
        <time>2024-11-20T13:10:17Z</time>
      </trkpt>
      <trkpt lat="48.17785" lon="-3.31872">
        <ele>218.8</ele>
        <time>2024-11-20T13:10:18Z</time>
      </trkpt>
      <trkpt lat="48.17786" lon="-3.31871">
        <ele>218.7</ele>
        <time>2024-11-20T13:10:19Z</time>
      </trkpt>
      <trkpt lat="48.17786" lon="-3.3187">
        <ele>218.6</ele>
        <time>2024-11-20T13:10:20Z</time>
      </trkpt>
      <trkpt lat="48.17787" lon="-3.31869">
        <ele>218.6</ele>
        <time>2024-11-20T13:10:21Z</time>
      </trkpt>
      <trkpt lat="48.17787" lon="-3.31868">
        <ele>218.5</ele>
        <time>2024-11-20T13:10:22Z</time>
      </trkpt>
      <trkpt lat="48.17788" lon="-3.31867">
        <ele>218.5</ele>
        <time>2024-11-20T13:10:23Z</time>
      </trkpt>
      <trkpt lat="48.17789" lon="-3.31866">
        <ele>218.4</ele>
        <time>2024-11-20T13:10:24Z</time>
      </trkpt>
      <trkpt lat="48.1779" lon="-3.31864">
        <ele>218.3</ele>
        <time>2024-11-20T13:10:25Z</time>
      </trkpt>
      <trkpt lat="48.1779" lon="-3.31863">
        <ele>218.1</ele>
        <time>2024-11-20T13:10:26Z</time>
      </trkpt>
      <trkpt lat="48.17791" lon="-3.31862">
        <ele>218</ele>
        <time>2024-11-20T13:10:27Z</time>
      </trkpt>
      <trkpt lat="48.17791" lon="-3.31861">
        <ele>217.9</ele>
        <time>2024-11-20T13:10:28Z</time>
      </trkpt>
      <trkpt lat="48.17792" lon="-3.3186">
        <ele>217.8</ele>
        <time>2024-11-20T13:10:29Z</time>
      </trkpt>
      <trkpt lat="48.17792" lon="-3.31859">
        <ele>217.8</ele>
        <time>2024-11-20T13:10:30Z</time>
      </trkpt>
      <trkpt lat="48.17793" lon="-3.31857">
        <ele>217.6</ele>
        <time>2024-11-20T13:10:31Z</time>
      </trkpt>
      <trkpt lat="48.17793" lon="-3.31855">
        <ele>217.5</ele>
        <time>2024-11-20T13:10:32Z</time>
      </trkpt>
      <trkpt lat="48.17794" lon="-3.31854">
        <ele>217.3</ele>
        <time>2024-11-20T13:10:33Z</time>
      </trkpt>
      <trkpt lat="48.17794" lon="-3.31852">
        <ele>217.2</ele>
        <time>2024-11-20T13:10:34Z</time>
      </trkpt>
      <trkpt lat="48.17795" lon="-3.3185">
        <ele>217</ele>
        <time>2024-11-20T13:10:35Z</time>
      </trkpt>
      <trkpt lat="48.17795" lon="-3.31849">
        <ele>216.9</ele>
        <time>2024-11-20T13:10:36Z</time>
      </trkpt>
      <trkpt lat="48.17795" lon="-3.31848">
        <ele>216.8</ele>
        <time>2024-11-20T13:10:37Z</time>
      </trkpt>
      <trkpt lat="48.17796" lon="-3.31847">
        <ele>216.8</ele>
        <time>2024-11-20T13:10:38Z</time>
      </trkpt>
      <trkpt lat="48.17796" lon="-3.31845">
        <ele>216.6</ele>
        <time>2024-11-20T13:10:39Z</time>
      </trkpt>
      <trkpt lat="48.17797" lon="-3.31843">
        <ele>216.4</ele>
        <time>2024-11-20T13:10:40Z</time>
      </trkpt>
      <trkpt lat="48.17797" lon="-3.31841">
        <ele>216.2</ele>
        <time>2024-11-20T13:10:41Z</time>
      </trkpt>
      <trkpt lat="48.17797" lon="-3.31839">
        <ele>216</ele>
        <time>2024-11-20T13:10:42Z</time>
      </trkpt>
      <trkpt lat="48.17798" lon="-3.31837">
        <ele>215.9</ele>
        <time>2024-11-20T13:10:43Z</time>
      </trkpt>
      <trkpt lat="48.17798" lon="-3.31836">
        <ele>215.7</ele>
        <time>2024-11-20T13:10:44Z</time>
      </trkpt>
      <trkpt lat="48.17799" lon="-3.31834">
        <ele>215.6</ele>
        <time>2024-11-20T13:10:45Z</time>
      </trkpt>
      <trkpt lat="48.178" lon="-3.31833">
        <ele>215.5</ele>
        <time>2024-11-20T13:10:46Z</time>
      </trkpt>
      <trkpt lat="48.17801" lon="-3.31831">
        <ele>215.3</ele>
        <time>2024-11-20T13:10:47Z</time>
      </trkpt>
      <trkpt lat="48.17802" lon="-3.31829">
        <ele>215.1</ele>
        <time>2024-11-20T13:10:48Z</time>
      </trkpt>
      <trkpt lat="48.17803" lon="-3.31827">
        <ele>214.9</ele>
        <time>2024-11-20T13:10:49Z</time>
      </trkpt>
      <trkpt lat="48.17804" lon="-3.31825">
        <ele>214.7</ele>
        <time>2024-11-20T13:10:50Z</time>
      </trkpt>
      <trkpt lat="48.17804" lon="-3.31824">
        <ele>214.5</ele>
        <time>2024-11-20T13:10:51Z</time>
      </trkpt>
      <trkpt lat="48.17805" lon="-3.31822">
        <ele>214.4</ele>
        <time>2024-11-20T13:10:52Z</time>
      </trkpt>
      <trkpt lat="48.17805" lon="-3.31821">
        <ele>214.2</ele>
        <time>2024-11-20T13:10:53Z</time>
      </trkpt>
      <trkpt lat="48.17806" lon="-3.3182">
        <ele>214.1</ele>
        <time>2024-11-20T13:10:54Z</time>
      </trkpt>
      <trkpt lat="48.17806" lon="-3.31818">
        <ele>213.8</ele>
        <time>2024-11-20T13:10:55Z</time>
      </trkpt>
      <trkpt lat="48.17806" lon="-3.31818">
        <ele>213.8</ele>
        <time>2024-11-20T13:10:56Z</time>
      </trkpt>
      <trkpt lat="48.17807" lon="-3.31816">
        <ele>213.6</ele>
        <time>2024-11-20T13:10:57Z</time>
      </trkpt>
      <trkpt lat="48.17807" lon="-3.31815">
        <ele>213.5</ele>
        <time>2024-11-20T13:10:58Z</time>
      </trkpt>
      <trkpt lat="48.17808" lon="-3.31814">
        <ele>213.3</ele>
        <time>2024-11-20T13:10:59Z</time>
      </trkpt>
      <trkpt lat="48.17808" lon="-3.31813">
        <ele>213.2</ele>
        <time>2024-11-20T13:11:00Z</time>
      </trkpt>
      <trkpt lat="48.17809" lon="-3.31811">
        <ele>213.1</ele>
        <time>2024-11-20T13:11:01Z</time>
      </trkpt>
      <trkpt lat="48.1781" lon="-3.31809">
        <ele>213</ele>
        <time>2024-11-20T13:11:02Z</time>
      </trkpt>
      <trkpt lat="48.17811" lon="-3.31808">
        <ele>212.8</ele>
        <time>2024-11-20T13:11:03Z</time>
      </trkpt>
      <trkpt lat="48.17811" lon="-3.31806">
        <ele>212.6</ele>
        <time>2024-11-20T13:11:04Z</time>
      </trkpt>
      <trkpt lat="48.17812" lon="-3.31804">
        <ele>212.6</ele>
        <time>2024-11-20T13:11:05Z</time>
      </trkpt>
      <trkpt lat="48.17813" lon="-3.31802">
        <ele>212.6</ele>
        <time>2024-11-20T13:11:06Z</time>
      </trkpt>
      <trkpt lat="48.17814" lon="-3.318">
        <ele>212.6</ele>
        <time>2024-11-20T13:11:07Z</time>
      </trkpt>
      <trkpt lat="48.17815" lon="-3.31798">
        <ele>212.5</ele>
        <time>2024-11-20T13:11:08Z</time>
      </trkpt>
      <trkpt lat="48.17815" lon="-3.31797">
        <ele>212.5</ele>
        <time>2024-11-20T13:11:09Z</time>
      </trkpt>
      <trkpt lat="48.17816" lon="-3.31796">
        <ele>212.5</ele>
        <time>2024-11-20T13:11:10Z</time>
      </trkpt>
      <trkpt lat="48.17817" lon="-3.31795">
        <ele>212.5</ele>
        <time>2024-11-20T13:11:11Z</time>
      </trkpt>
      <trkpt lat="48.17817" lon="-3.31794">
        <ele>212.5</ele>
        <time>2024-11-20T13:11:12Z</time>
      </trkpt>
      <trkpt lat="48.17818" lon="-3.31793">
        <ele>212.5</ele>
        <time>2024-11-20T13:11:13Z</time>
      </trkpt>
      <trkpt lat="48.17818" lon="-3.31793">
        <ele>212.5</ele>
        <time>2024-11-20T13:11:14Z</time>
      </trkpt>
      <trkpt lat="48.17818" lon="-3.31793">
        <ele>212.5</ele>
        <time>2024-11-20T13:11:15Z</time>
      </trkpt>
      <trkpt lat="48.17818" lon="-3.31793">
        <ele>212.5</ele>
        <time>2024-11-20T13:11:16Z</time>
      </trkpt>
      <trkpt lat="48.17818" lon="-3.31794">
        <ele>212.5</ele>
        <time>2024-11-20T13:11:17Z</time>
      </trkpt>
      <trkpt lat="48.17818" lon="-3.31794">
        <ele>212.5</ele>
        <time>2024-11-20T13:11:18Z</time>
      </trkpt>
      <trkpt lat="48.17818" lon="-3.31793">
        <ele>212.5</ele>
        <time>2024-11-20T13:11:19Z</time>
      </trkpt>
      <trkpt lat="48.17818" lon="-3.31793">
        <ele>212.5</ele>
        <time>2024-11-20T13:11:20Z</time>
      </trkpt>
      <trkpt lat="48.17818" lon="-3.31793">
        <ele>212.5</ele>
        <time>2024-11-20T13:11:21Z</time>
      </trkpt>
      <trkpt lat="48.17818" lon="-3.31793">
        <ele>212.5</ele>
        <time>2024-11-20T13:11:22Z</time>
      </trkpt>
      <trkpt lat="48.17818" lon="-3.31793">
        <ele>212.5</ele>
        <time>2024-11-20T13:11:23Z</time>
      </trkpt>
      <trkpt lat="48.17819" lon="-3.31793">
        <ele>212.5</ele>
        <time>2024-11-20T13:11:24Z</time>
      </trkpt>
      <trkpt lat="48.17819" lon="-3.31793">
        <ele>212.6</ele>
        <time>2024-11-20T13:11:25Z</time>
      </trkpt>
      <trkpt lat="48.1782" lon="-3.31794">
        <ele>212.7</ele>
        <time>2024-11-20T13:11:26Z</time>
      </trkpt>
      <trkpt lat="48.17821" lon="-3.31794">
        <ele>212.8</ele>
        <time>2024-11-20T13:11:27Z</time>
      </trkpt>
      <trkpt lat="48.17822" lon="-3.31794">
        <ele>212.8</ele>
        <time>2024-11-20T13:11:28Z</time>
      </trkpt>
      <trkpt lat="48.17823" lon="-3.31793">
        <ele>212.9</ele>
        <time>2024-11-20T13:11:29Z</time>
      </trkpt>
      <trkpt lat="48.17824" lon="-3.31793">
        <ele>213</ele>
        <time>2024-11-20T13:11:30Z</time>
      </trkpt>
      <trkpt lat="48.17825" lon="-3.31793">
        <ele>213</ele>
        <time>2024-11-20T13:11:31Z</time>
      </trkpt>
      <trkpt lat="48.17825" lon="-3.31793">
        <ele>213.1</ele>
        <time>2024-11-20T13:11:32Z</time>
      </trkpt>
      <trkpt lat="48.17825" lon="-3.31793">
        <ele>213</ele>
        <time>2024-11-20T13:11:33Z</time>
      </trkpt>
      <trkpt lat="48.17825" lon="-3.31793">
        <ele>213</ele>
        <time>2024-11-20T13:11:34Z</time>
      </trkpt>
      <trkpt lat="48.17826" lon="-3.31793">
        <ele>213.1</ele>
        <time>2024-11-20T13:11:35Z</time>
      </trkpt>
      <trkpt lat="48.17826" lon="-3.31794">
        <ele>213.2</ele>
        <time>2024-11-20T13:11:36Z</time>
      </trkpt>
      <trkpt lat="48.17826" lon="-3.31794">
        <ele>213.2</ele>
        <time>2024-11-20T13:11:37Z</time>
      </trkpt>
      <trkpt lat="48.17826" lon="-3.31794">
        <ele>213.2</ele>
        <time>2024-11-20T13:11:38Z</time>
      </trkpt>
      <trkpt lat="48.17825" lon="-3.31794">
        <ele>213.1</ele>
        <time>2024-11-20T13:11:39Z</time>
      </trkpt>
      <trkpt lat="48.17825" lon="-3.31794">
        <ele>213.1</ele>
        <time>2024-11-20T13:11:40Z</time>
      </trkpt>
      <trkpt lat="48.17825" lon="-3.31794">
        <ele>213.1</ele>
        <time>2024-11-20T13:11:41Z</time>
      </trkpt>
      <trkpt lat="48.17825" lon="-3.31794">
        <ele>213</ele>
        <time>2024-11-20T13:11:42Z</time>
      </trkpt>
      <trkpt lat="48.17825" lon="-3.31794">
        <ele>213</ele>
        <time>2024-11-20T13:11:43Z</time>
      </trkpt>
      <trkpt lat="48.17825" lon="-3.31794">
        <ele>213</ele>
        <time>2024-11-20T13:11:44Z</time>
      </trkpt>
      <trkpt lat="48.17825" lon="-3.31794">
        <ele>213.1</ele>
        <time>2024-11-20T13:11:45Z</time>
      </trkpt>
      <trkpt lat="48.17825" lon="-3.31794">
        <ele>213.1</ele>
        <time>2024-11-20T13:11:46Z</time>
      </trkpt>
      <trkpt lat="48.17825" lon="-3.31794">
        <ele>213.1</ele>
        <time>2024-11-20T13:11:47Z</time>
      </trkpt>
      <trkpt lat="48.17826" lon="-3.31794">
        <ele>213.2</ele>
        <time>2024-11-20T13:11:49Z</time>
      </trkpt>
      <trkpt lat="48.17825" lon="-3.31795">
        <ele>213.2</ele>
        <time>2024-11-20T13:11:50Z</time>
      </trkpt>
      <trkpt lat="48.17826" lon="-3.31795">
        <ele>213.2</ele>
        <time>2024-11-20T13:11:51Z</time>
      </trkpt>
      <trkpt lat="48.17826" lon="-3.31795">
        <ele>213.3</ele>
        <time>2024-11-20T13:11:52Z</time>
      </trkpt>
      <trkpt lat="48.17827" lon="-3.31795">
        <ele>213.4</ele>
        <time>2024-11-20T13:11:53Z</time>
      </trkpt>
      <trkpt lat="48.17828" lon="-3.31795">
        <ele>213.4</ele>
        <time>2024-11-20T13:11:54Z</time>
      </trkpt>
      <trkpt lat="48.17828" lon="-3.31795">
        <ele>213.4</ele>
        <time>2024-11-20T13:11:55Z</time>
      </trkpt>
      <trkpt lat="48.17827" lon="-3.31795">
        <ele>213.4</ele>
        <time>2024-11-20T13:11:56Z</time>
      </trkpt>
      <trkpt lat="48.17827" lon="-3.31795">
        <ele>213.4</ele>
        <time>2024-11-20T13:11:57Z</time>
      </trkpt>
      <trkpt lat="48.17828" lon="-3.31795">
        <ele>213.4</ele>
        <time>2024-11-20T13:11:58Z</time>
      </trkpt>
      <trkpt lat="48.17828" lon="-3.31795">
        <ele>213.4</ele>
        <time>2024-11-20T13:11:59Z</time>
      </trkpt>
      <trkpt lat="48.17828" lon="-3.31795">
        <ele>213.4</ele>
        <time>2024-11-20T13:12:00Z</time>
      </trkpt>
      <trkpt lat="48.17828" lon="-3.31795">
        <ele>213.5</ele>
        <time>2024-11-20T13:12:01Z</time>
      </trkpt>
      <trkpt lat="48.17829" lon="-3.31796">
        <ele>213.6</ele>
        <time>2024-11-20T13:12:02Z</time>
      </trkpt>
      <trkpt lat="48.1783" lon="-3.31796">
        <ele>213.6</ele>
        <time>2024-11-20T13:12:03Z</time>
      </trkpt>
      <trkpt lat="48.1783" lon="-3.31796">
        <ele>213.7</ele>
        <time>2024-11-20T13:12:04Z</time>
      </trkpt>
      <trkpt lat="48.17831" lon="-3.31796">
        <ele>213.8</ele>
        <time>2024-11-20T13:12:05Z</time>
      </trkpt>
      <trkpt lat="48.17831" lon="-3.31796">
        <ele>213.8</ele>
        <time>2024-11-20T13:12:06Z</time>
      </trkpt>
      <trkpt lat="48.17831" lon="-3.31796">
        <ele>213.8</ele>
        <time>2024-11-20T13:12:10Z</time>
      </trkpt>
      <trkpt lat="48.17831" lon="-3.31796">
        <ele>213.7</ele>
        <time>2024-11-20T13:12:11Z</time>
      </trkpt>
      <trkpt lat="48.17831" lon="-3.31796">
        <ele>213.8</ele>
        <time>2024-11-20T13:12:12Z</time>
      </trkpt>
      <trkpt lat="48.17831" lon="-3.31796">
        <ele>213.8</ele>
        <time>2024-11-20T13:12:13Z</time>
      </trkpt>
      <trkpt lat="48.17831" lon="-3.31796">
        <ele>213.8</ele>
        <time>2024-11-20T13:12:14Z</time>
      </trkpt>
      <trkpt lat="48.17831" lon="-3.31796">
        <ele>213.8</ele>
        <time>2024-11-20T13:12:15Z</time>
      </trkpt>
      <trkpt lat="48.17831" lon="-3.31796">
        <ele>213.8</ele>
        <time>2024-11-20T13:12:16Z</time>
      </trkpt>
      <trkpt lat="48.17831" lon="-3.31796">
        <ele>213.8</ele>
        <time>2024-11-20T13:12:17Z</time>
      </trkpt>
      <trkpt lat="48.17831" lon="-3.31796">
        <ele>213.8</ele>
        <time>2024-11-20T13:12:18Z</time>
      </trkpt>
      <trkpt lat="48.17831" lon="-3.31796">
        <ele>213.8</ele>
        <time>2024-11-20T13:12:19Z</time>
      </trkpt>
      <trkpt lat="48.17831" lon="-3.31796">
        <ele>213.8</ele>
        <time>2024-11-20T13:12:20Z</time>
      </trkpt>
      <trkpt lat="48.17831" lon="-3.31796">
        <ele>213.8</ele>
        <time>2024-11-20T13:12:21Z</time>
      </trkpt>
      <trkpt lat="48.17831" lon="-3.31796">
        <ele>213.8</ele>
        <time>2024-11-20T13:12:22Z</time>
      </trkpt>
      <trkpt lat="48.17831" lon="-3.31796">
        <ele>213.8</ele>
        <time>2024-11-20T13:12:23Z</time>
      </trkpt>
      <trkpt lat="48.17831" lon="-3.31796">
        <ele>213.8</ele>
        <time>2024-11-20T13:12:24Z</time>
      </trkpt>
      <trkpt lat="48.17831" lon="-3.31796">
        <ele>213.8</ele>
        <time>2024-11-20T13:12:25Z</time>
      </trkpt>
      <trkpt lat="48.17831" lon="-3.31796">
        <ele>213.8</ele>
        <time>2024-11-20T13:12:26Z</time>
      </trkpt>
      <trkpt lat="48.17831" lon="-3.31796">
        <ele>213.8</ele>
        <time>2024-11-20T13:12:27Z</time>
      </trkpt>
      <trkpt lat="48.17831" lon="-3.31796">
        <ele>213.8</ele>
        <time>2024-11-20T13:12:28Z</time>
      </trkpt>
      <trkpt lat="48.17831" lon="-3.31796">
        <ele>213.8</ele>
        <time>2024-11-20T13:12:29Z</time>
      </trkpt>
      <trkpt lat="48.17831" lon="-3.31796">
        <ele>213.8</ele>
        <time>2024-11-20T13:12:30Z</time>
      </trkpt>
      <trkpt lat="48.17831" lon="-3.31796">
        <ele>213.8</ele>
        <time>2024-11-20T13:12:31Z</time>
      </trkpt>
      <trkpt lat="48.17831" lon="-3.31796">
        <ele>213.8</ele>
        <time>2024-11-20T13:12:32Z</time>
      </trkpt>
      <trkpt lat="48.17831" lon="-3.31796">
        <ele>213.8</ele>
        <time>2024-11-20T13:12:33Z</time>
      </trkpt>
      <trkpt lat="48.17831" lon="-3.31796">
        <ele>213.8</ele>
        <time>2024-11-20T13:12:34Z</time>
      </trkpt>
      <trkpt lat="48.17831" lon="-3.31796">
        <ele>213.8</ele>
        <time>2024-11-20T13:12:35Z</time>
      </trkpt>
      <trkpt lat="48.17831" lon="-3.31796">
        <ele>213.8</ele>
        <time>2024-11-20T13:12:36Z</time>
      </trkpt>
      <trkpt lat="48.17831" lon="-3.31796">
        <ele>213.8</ele>
        <time>2024-11-20T13:12:37Z</time>
      </trkpt>
      <trkpt lat="48.17831" lon="-3.31796">
        <ele>213.8</ele>
        <time>2024-11-20T13:12:38Z</time>
      </trkpt>
      <trkpt lat="48.17831" lon="-3.31796">
        <ele>213.8</ele>
        <time>2024-11-20T13:12:39Z</time>
      </trkpt>
      <trkpt lat="48.17831" lon="-3.31796">
        <ele>213.8</ele>
        <time>2024-11-20T13:12:40Z</time>
      </trkpt>
      <trkpt lat="48.17831" lon="-3.31796">
        <ele>213.8</ele>
        <time>2024-11-20T13:12:41Z</time>
      </trkpt>
      <trkpt lat="48.17831" lon="-3.31796">
        <ele>213.8</ele>
        <time>2024-11-20T13:12:42Z</time>
      </trkpt>
      <trkpt lat="48.17831" lon="-3.31796">
        <ele>213.8</ele>
        <time>2024-11-20T13:12:43Z</time>
      </trkpt>
      <trkpt lat="48.17831" lon="-3.31796">
        <ele>213.8</ele>
        <time>2024-11-20T13:12:44Z</time>
      </trkpt>
      <trkpt lat="48.17831" lon="-3.31796">
        <ele>213.8</ele>
        <time>2024-11-20T13:12:45Z</time>
      </trkpt>
      <trkpt lat="48.17831" lon="-3.31796">
        <ele>213.8</ele>
        <time>2024-11-20T13:12:46Z</time>
      </trkpt>
      <trkpt lat="48.17831" lon="-3.31796">
        <ele>213.8</ele>
        <time>2024-11-20T13:12:47Z</time>
      </trkpt>
      <trkpt lat="48.17831" lon="-3.31796">
        <ele>213.8</ele>
        <time>2024-11-20T13:12:48Z</time>
      </trkpt>
      <trkpt lat="48.17831" lon="-3.31796">
        <ele>213.8</ele>
        <time>2024-11-20T13:12:49Z</time>
      </trkpt>
      <trkpt lat="48.17831" lon="-3.31796">
        <ele>213.8</ele>
        <time>2024-11-20T13:12:50Z</time>
      </trkpt>
      <trkpt lat="48.17831" lon="-3.31796">
        <ele>213.8</ele>
        <time>2024-11-20T13:12:51Z</time>
      </trkpt>
      <trkpt lat="48.17831" lon="-3.31796">
        <ele>213.8</ele>
        <time>2024-11-20T13:12:52Z</time>
      </trkpt>
      <trkpt lat="48.17831" lon="-3.31796">
        <ele>213.8</ele>
        <time>2024-11-20T13:12:53Z</time>
      </trkpt>
      <trkpt lat="48.17831" lon="-3.31796">
        <ele>213.8</ele>
        <time>2024-11-20T13:12:54Z</time>
      </trkpt>
      <trkpt lat="48.17831" lon="-3.31796">
        <ele>213.8</ele>
        <time>2024-11-20T13:12:55Z</time>
      </trkpt>
      <trkpt lat="48.17831" lon="-3.31796">
        <ele>213.8</ele>
        <time>2024-11-20T13:12:56Z</time>
      </trkpt>
      <trkpt lat="48.17831" lon="-3.31796">
        <ele>213.8</ele>
        <time>2024-11-20T13:12:57Z</time>
      </trkpt>
      <trkpt lat="48.17831" lon="-3.31796">
        <ele>213.8</ele>
        <time>2024-11-20T13:12:58Z</time>
      </trkpt>
      <trkpt lat="48.17831" lon="-3.31796">
        <ele>213.8</ele>
        <time>2024-11-20T13:12:59Z</time>
      </trkpt>
      <trkpt lat="48.17831" lon="-3.31796">
        <ele>213.8</ele>
        <time>2024-11-20T13:13:00Z</time>
      </trkpt>
      <trkpt lat="48.17831" lon="-3.31796">
        <ele>213.8</ele>
        <time>2024-11-20T13:13:01Z</time>
      </trkpt>
      <trkpt lat="48.17831" lon="-3.31796">
        <ele>213.8</ele>
        <time>2024-11-20T13:13:02Z</time>
      </trkpt>
      <trkpt lat="48.17831" lon="-3.31796">
        <ele>213.8</ele>
        <time>2024-11-20T13:13:03Z</time>
      </trkpt>
      <trkpt lat="48.17831" lon="-3.31796">
        <ele>213.8</ele>
        <time>2024-11-20T13:13:04Z</time>
      </trkpt>
      <trkpt lat="48.17831" lon="-3.31796">
        <ele>213.8</ele>
        <time>2024-11-20T13:13:05Z</time>
      </trkpt>
      <trkpt lat="48.17831" lon="-3.31796">
        <ele>213.8</ele>
        <time>2024-11-20T13:13:06Z</time>
      </trkpt>
      <trkpt lat="48.17831" lon="-3.31796">
        <ele>213.8</ele>
        <time>2024-11-20T13:13:07Z</time>
      </trkpt>
      <trkpt lat="48.17831" lon="-3.31796">
        <ele>213.8</ele>
        <time>2024-11-20T13:13:08Z</time>
      </trkpt>
      <trkpt lat="48.17831" lon="-3.31796">
        <ele>213.8</ele>
        <time>2024-11-20T13:13:09Z</time>
      </trkpt>
      <trkpt lat="48.17831" lon="-3.31796">
        <ele>213.8</ele>
        <time>2024-11-20T13:13:10Z</time>
      </trkpt>
      <trkpt lat="48.17831" lon="-3.31796">
        <ele>213.8</ele>
        <time>2024-11-20T13:13:11Z</time>
      </trkpt>
      <trkpt lat="48.17831" lon="-3.31796">
        <ele>213.8</ele>
        <time>2024-11-20T13:13:12Z</time>
      </trkpt>
      <trkpt lat="48.17831" lon="-3.31796">
        <ele>213.8</ele>
        <time>2024-11-20T13:13:13Z</time>
      </trkpt>
      <trkpt lat="48.17831" lon="-3.31796">
        <ele>213.8</ele>
        <time>2024-11-20T13:13:14Z</time>
      </trkpt>
      <trkpt lat="48.17831" lon="-3.31796">
        <ele>213.8</ele>
        <time>2024-11-20T13:13:15Z</time>
      </trkpt>
      <trkpt lat="48.17831" lon="-3.31796">
        <ele>213.8</ele>
        <time>2024-11-20T13:13:16Z</time>
      </trkpt>
      <trkpt lat="48.17831" lon="-3.31796">
        <ele>213.8</ele>
        <time>2024-11-20T13:13:17Z</time>
      </trkpt>
      <trkpt lat="48.17831" lon="-3.31796">
        <ele>213.8</ele>
        <time>2024-11-20T13:13:18Z</time>
      </trkpt>
      <trkpt lat="48.17831" lon="-3.31796">
        <ele>213.8</ele>
        <time>2024-11-20T13:13:19Z</time>
      </trkpt>
      <trkpt lat="48.17831" lon="-3.31796">
        <ele>213.8</ele>
        <time>2024-11-20T13:13:20Z</time>
      </trkpt>
      <trkpt lat="48.17831" lon="-3.31796">
        <ele>213.8</ele>
        <time>2024-11-20T13:13:21Z</time>
      </trkpt>
      <trkpt lat="48.17831" lon="-3.31796">
        <ele>213.8</ele>
        <time>2024-11-20T13:13:22Z</time>
      </trkpt>
      <trkpt lat="48.17832" lon="-3.31796">
        <ele>213.9</ele>
        <time>2024-11-20T13:13:23Z</time>
      </trkpt>
      <trkpt lat="48.17833" lon="-3.31796">
        <ele>213.9</ele>
        <time>2024-11-20T13:13:24Z</time>
      </trkpt>
      <trkpt lat="48.17833" lon="-3.31797">
        <ele>214.1</ele>
        <time>2024-11-20T13:13:25Z</time>
      </trkpt>
      <trkpt lat="48.17834" lon="-3.31797">
        <ele>214.1</ele>
        <time>2024-11-20T13:13:26Z</time>
      </trkpt>
      <trkpt lat="48.17835" lon="-3.31797">
        <ele>214.1</ele>
        <time>2024-11-20T13:13:27Z</time>
      </trkpt>
      <trkpt lat="48.17836" lon="-3.31798">
        <ele>214.1</ele>
        <time>2024-11-20T13:13:28Z</time>
      </trkpt>
      <trkpt lat="48.17837" lon="-3.31798">
        <ele>214.1</ele>
        <time>2024-11-20T13:13:29Z</time>
      </trkpt>
      <trkpt lat="48.17837" lon="-3.31798">
        <ele>214.1</ele>
        <time>2024-11-20T13:13:30Z</time>
      </trkpt>
      <trkpt lat="48.17838" lon="-3.31799">
        <ele>214.1</ele>
        <time>2024-11-20T13:13:31Z</time>
      </trkpt>
      <trkpt lat="48.17839" lon="-3.31799">
        <ele>214.1</ele>
        <time>2024-11-20T13:13:32Z</time>
      </trkpt>
      <trkpt lat="48.1784" lon="-3.318">
        <ele>214.2</ele>
        <time>2024-11-20T13:13:33Z</time>
      </trkpt>
      <trkpt lat="48.17841" lon="-3.318">
        <ele>214.2</ele>
        <time>2024-11-20T13:13:34Z</time>
      </trkpt>
      <trkpt lat="48.17842" lon="-3.31801">
        <ele>214.2</ele>
        <time>2024-11-20T13:13:35Z</time>
      </trkpt>
      <trkpt lat="48.17842" lon="-3.31801">
        <ele>214.2</ele>
        <time>2024-11-20T13:13:36Z</time>
      </trkpt>
      <trkpt lat="48.17843" lon="-3.31801">
        <ele>214.2</ele>
        <time>2024-11-20T13:13:37Z</time>
      </trkpt>
      <trkpt lat="48.17844" lon="-3.31802">
        <ele>214.2</ele>
        <time>2024-11-20T13:13:39Z</time>
      </trkpt>
      <trkpt lat="48.17845" lon="-3.31802">
        <ele>214.2</ele>
        <time>2024-11-20T13:13:40Z</time>
      </trkpt>
      <trkpt lat="48.17845" lon="-3.31802">
        <ele>214.2</ele>
        <time>2024-11-20T13:13:41Z</time>
      </trkpt>
      <trkpt lat="48.17846" lon="-3.31802">
        <ele>214.3</ele>
        <time>2024-11-20T13:13:42Z</time>
      </trkpt>
      <trkpt lat="48.17846" lon="-3.31803">
        <ele>214.3</ele>
        <time>2024-11-20T13:13:43Z</time>
      </trkpt>
      <trkpt lat="48.17848" lon="-3.31804">
        <ele>214.3</ele>
        <time>2024-11-20T13:13:44Z</time>
      </trkpt>
      <trkpt lat="48.17849" lon="-3.31805">
        <ele>214.3</ele>
        <time>2024-11-20T13:13:45Z</time>
      </trkpt>
      <trkpt lat="48.1785" lon="-3.31805">
        <ele>214.3</ele>
        <time>2024-11-20T13:13:46Z</time>
      </trkpt>
      <trkpt lat="48.17851" lon="-3.31805">
        <ele>214.3</ele>
        <time>2024-11-20T13:13:47Z</time>
      </trkpt>
      <trkpt lat="48.17852" lon="-3.31806">
        <ele>214.3</ele>
        <time>2024-11-20T13:13:48Z</time>
      </trkpt>
      <trkpt lat="48.17853" lon="-3.31806">
        <ele>214.3</ele>
        <time>2024-11-20T13:13:49Z</time>
      </trkpt>
      <trkpt lat="48.17854" lon="-3.31807">
        <ele>214.4</ele>
        <time>2024-11-20T13:13:50Z</time>
      </trkpt>
      <trkpt lat="48.17855" lon="-3.31807">
        <ele>214.4</ele>
        <time>2024-11-20T13:13:51Z</time>
      </trkpt>
      <trkpt lat="48.17856" lon="-3.31808">
        <ele>214.4</ele>
        <time>2024-11-20T13:13:52Z</time>
      </trkpt>
      <trkpt lat="48.17857" lon="-3.31808">
        <ele>214.4</ele>
        <time>2024-11-20T13:13:53Z</time>
      </trkpt>
      <trkpt lat="48.17857" lon="-3.31809">
        <ele>214.5</ele>
        <time>2024-11-20T13:13:54Z</time>
      </trkpt>
      <trkpt lat="48.17858" lon="-3.31809">
        <ele>214.5</ele>
        <time>2024-11-20T13:13:55Z</time>
      </trkpt>
      <trkpt lat="48.17859" lon="-3.3181">
        <ele>214.5</ele>
        <time>2024-11-20T13:13:56Z</time>
      </trkpt>
      <trkpt lat="48.1786" lon="-3.3181">
        <ele>214.5</ele>
        <time>2024-11-20T13:13:57Z</time>
      </trkpt>
      <trkpt lat="48.1786" lon="-3.3181">
        <ele>214.5</ele>
        <time>2024-11-20T13:13:58Z</time>
      </trkpt>
      <trkpt lat="48.17861" lon="-3.31811">
        <ele>214.5</ele>
        <time>2024-11-20T13:13:59Z</time>
      </trkpt>
      <trkpt lat="48.17862" lon="-3.31811">
        <ele>214.6</ele>
        <time>2024-11-20T13:14:00Z</time>
      </trkpt>
      <trkpt lat="48.17863" lon="-3.31812">
        <ele>214.6</ele>
        <time>2024-11-20T13:14:01Z</time>
      </trkpt>
      <trkpt lat="48.17864" lon="-3.31812">
        <ele>214.6</ele>
        <time>2024-11-20T13:14:02Z</time>
      </trkpt>
      <trkpt lat="48.17864" lon="-3.31813">
        <ele>214.6</ele>
        <time>2024-11-20T13:14:03Z</time>
      </trkpt>
      <trkpt lat="48.17865" lon="-3.31813">
        <ele>214.7</ele>
        <time>2024-11-20T13:14:04Z</time>
      </trkpt>
      <trkpt lat="48.17866" lon="-3.31813">
        <ele>214.7</ele>
        <time>2024-11-20T13:14:05Z</time>
      </trkpt>
      <trkpt lat="48.17866" lon="-3.31814">
        <ele>214.7</ele>
        <time>2024-11-20T13:14:06Z</time>
      </trkpt>
      <trkpt lat="48.17867" lon="-3.31814">
        <ele>214.7</ele>
        <time>2024-11-20T13:14:07Z</time>
      </trkpt>
      <trkpt lat="48.17867" lon="-3.31815">
        <ele>214.8</ele>
        <time>2024-11-20T13:14:08Z</time>
      </trkpt>
      <trkpt lat="48.17869" lon="-3.31816">
        <ele>214.8</ele>
        <time>2024-11-20T13:14:09Z</time>
      </trkpt>
      <trkpt lat="48.1787" lon="-3.31816">
        <ele>214.8</ele>
        <time>2024-11-20T13:14:10Z</time>
      </trkpt>
      <trkpt lat="48.17872" lon="-3.31817">
        <ele>214.9</ele>
        <time>2024-11-20T13:14:11Z</time>
      </trkpt>
      <trkpt lat="48.17873" lon="-3.31818">
        <ele>214.9</ele>
        <time>2024-11-20T13:14:12Z</time>
      </trkpt>
      <trkpt lat="48.17874" lon="-3.31818">
        <ele>214.9</ele>
        <time>2024-11-20T13:14:13Z</time>
      </trkpt>
      <trkpt lat="48.17876" lon="-3.31819">
        <ele>214.9</ele>
        <time>2024-11-20T13:14:14Z</time>
      </trkpt>
      <trkpt lat="48.17877" lon="-3.3182">
        <ele>215</ele>
        <time>2024-11-20T13:14:15Z</time>
      </trkpt>
      <trkpt lat="48.17878" lon="-3.3182">
        <ele>215</ele>
        <time>2024-11-20T13:14:16Z</time>
      </trkpt>
      <trkpt lat="48.17879" lon="-3.31821">
        <ele>215</ele>
        <time>2024-11-20T13:14:17Z</time>
      </trkpt>
      <trkpt lat="48.17881" lon="-3.31822">
        <ele>215</ele>
        <time>2024-11-20T13:14:18Z</time>
      </trkpt>
      <trkpt lat="48.17882" lon="-3.31822">
        <ele>215</ele>
        <time>2024-11-20T13:14:19Z</time>
      </trkpt>
      <trkpt lat="48.17883" lon="-3.31823">
        <ele>215</ele>
        <time>2024-11-20T13:14:20Z</time>
      </trkpt>
      <trkpt lat="48.17884" lon="-3.31823">
        <ele>215.1</ele>
        <time>2024-11-20T13:14:21Z</time>
      </trkpt>
      <trkpt lat="48.17885" lon="-3.31824">
        <ele>215.1</ele>
        <time>2024-11-20T13:14:22Z</time>
      </trkpt>
      <trkpt lat="48.17886" lon="-3.31825">
        <ele>215.2</ele>
        <time>2024-11-20T13:14:23Z</time>
      </trkpt>
      <trkpt lat="48.17888" lon="-3.31826">
        <ele>215.2</ele>
        <time>2024-11-20T13:14:24Z</time>
      </trkpt>
      <trkpt lat="48.17889" lon="-3.31826">
        <ele>215.2</ele>
        <time>2024-11-20T13:14:25Z</time>
      </trkpt>
      <trkpt lat="48.1789" lon="-3.31826">
        <ele>215.2</ele>
        <time>2024-11-20T13:14:26Z</time>
      </trkpt>
      <trkpt lat="48.17891" lon="-3.31827">
        <ele>215.2</ele>
        <time>2024-11-20T13:14:27Z</time>
      </trkpt>
      <trkpt lat="48.17892" lon="-3.31828">
        <ele>215.2</ele>
        <time>2024-11-20T13:14:28Z</time>
      </trkpt>
      <trkpt lat="48.17893" lon="-3.31829">
        <ele>215.2</ele>
        <time>2024-11-20T13:14:29Z</time>
      </trkpt>
      <trkpt lat="48.17894" lon="-3.31829">
        <ele>215.2</ele>
        <time>2024-11-20T13:14:30Z</time>
      </trkpt>
      <trkpt lat="48.17895" lon="-3.3183">
        <ele>215.2</ele>
        <time>2024-11-20T13:14:31Z</time>
      </trkpt>
      <trkpt lat="48.17896" lon="-3.3183">
        <ele>215.2</ele>
        <time>2024-11-20T13:14:32Z</time>
      </trkpt>
      <trkpt lat="48.17897" lon="-3.31831">
        <ele>215.1</ele>
        <time>2024-11-20T13:14:33Z</time>
      </trkpt>
      <trkpt lat="48.17898" lon="-3.31831">
        <ele>215.1</ele>
        <time>2024-11-20T13:14:34Z</time>
      </trkpt>
      <trkpt lat="48.17899" lon="-3.31832">
        <ele>215.1</ele>
        <time>2024-11-20T13:14:35Z</time>
      </trkpt>
      <trkpt lat="48.179" lon="-3.31833">
        <ele>215.1</ele>
        <time>2024-11-20T13:14:36Z</time>
      </trkpt>
      <trkpt lat="48.17901" lon="-3.31833">
        <ele>215.1</ele>
        <time>2024-11-20T13:14:37Z</time>
      </trkpt>
      <trkpt lat="48.17902" lon="-3.31834">
        <ele>215.1</ele>
        <time>2024-11-20T13:14:38Z</time>
      </trkpt>
      <trkpt lat="48.17903" lon="-3.31834">
        <ele>215</ele>
        <time>2024-11-20T13:14:39Z</time>
      </trkpt>
      <trkpt lat="48.17904" lon="-3.31835">
        <ele>215</ele>
        <time>2024-11-20T13:14:40Z</time>
      </trkpt>
      <trkpt lat="48.17905" lon="-3.31835">
        <ele>215</ele>
        <time>2024-11-20T13:14:41Z</time>
      </trkpt>
      <trkpt lat="48.17906" lon="-3.31836">
        <ele>214.9</ele>
        <time>2024-11-20T13:14:42Z</time>
      </trkpt>
      <trkpt lat="48.17907" lon="-3.31837">
        <ele>214.9</ele>
        <time>2024-11-20T13:14:43Z</time>
      </trkpt>
      <trkpt lat="48.17908" lon="-3.31838">
        <ele>214.9</ele>
        <time>2024-11-20T13:14:44Z</time>
      </trkpt>
      <trkpt lat="48.17909" lon="-3.31839">
        <ele>214.9</ele>
        <time>2024-11-20T13:14:45Z</time>
      </trkpt>
      <trkpt lat="48.1791" lon="-3.3184">
        <ele>214.9</ele>
        <time>2024-11-20T13:14:46Z</time>
      </trkpt>
      <trkpt lat="48.17911" lon="-3.31841">
        <ele>215</ele>
        <time>2024-11-20T13:14:47Z</time>
      </trkpt>
      <trkpt lat="48.17912" lon="-3.31843">
        <ele>215</ele>
        <time>2024-11-20T13:14:48Z</time>
      </trkpt>
      <trkpt lat="48.17912" lon="-3.31844">
        <ele>215.1</ele>
        <time>2024-11-20T13:14:49Z</time>
      </trkpt>
      <trkpt lat="48.17913" lon="-3.31846">
        <ele>215.2</ele>
        <time>2024-11-20T13:14:50Z</time>
      </trkpt>
      <trkpt lat="48.17914" lon="-3.31848">
        <ele>215.2</ele>
        <time>2024-11-20T13:14:51Z</time>
      </trkpt>
      <trkpt lat="48.17915" lon="-3.31849">
        <ele>215.2</ele>
        <time>2024-11-20T13:14:52Z</time>
      </trkpt>
      <trkpt lat="48.17916" lon="-3.31849">
        <ele>215.2</ele>
        <time>2024-11-20T13:14:53Z</time>
      </trkpt>
      <trkpt lat="48.17917" lon="-3.3185">
        <ele>215.2</ele>
        <time>2024-11-20T13:14:54Z</time>
      </trkpt>
      <trkpt lat="48.17918" lon="-3.31851">
        <ele>215.2</ele>
        <time>2024-11-20T13:14:55Z</time>
      </trkpt>
      <trkpt lat="48.17919" lon="-3.31852">
        <ele>215.3</ele>
        <time>2024-11-20T13:14:56Z</time>
      </trkpt>
      <trkpt lat="48.1792" lon="-3.31852">
        <ele>215.3</ele>
        <time>2024-11-20T13:14:57Z</time>
      </trkpt>
      <trkpt lat="48.1792" lon="-3.31853">
        <ele>215.3</ele>
        <time>2024-11-20T13:14:58Z</time>
      </trkpt>
      <trkpt lat="48.17921" lon="-3.31854">
        <ele>215.3</ele>
        <time>2024-11-20T13:14:59Z</time>
      </trkpt>
      <trkpt lat="48.17922" lon="-3.31854">
        <ele>215.3</ele>
        <time>2024-11-20T13:15:00Z</time>
      </trkpt>
      <trkpt lat="48.17924" lon="-3.31855">
        <ele>215.3</ele>
        <time>2024-11-20T13:15:01Z</time>
      </trkpt>
      <trkpt lat="48.17925" lon="-3.31855">
        <ele>215.3</ele>
        <time>2024-11-20T13:15:02Z</time>
      </trkpt>
      <trkpt lat="48.17926" lon="-3.31856">
        <ele>215.3</ele>
        <time>2024-11-20T13:15:03Z</time>
      </trkpt>
      <trkpt lat="48.17927" lon="-3.31856">
        <ele>215.3</ele>
        <time>2024-11-20T13:15:04Z</time>
      </trkpt>
      <trkpt lat="48.17928" lon="-3.31857">
        <ele>215.3</ele>
        <time>2024-11-20T13:15:05Z</time>
      </trkpt>
      <trkpt lat="48.17929" lon="-3.31857">
        <ele>215.3</ele>
        <time>2024-11-20T13:15:06Z</time>
      </trkpt>
      <trkpt lat="48.1793" lon="-3.31858">
        <ele>215.3</ele>
        <time>2024-11-20T13:15:07Z</time>
      </trkpt>
      <trkpt lat="48.17931" lon="-3.31859">
        <ele>215.4</ele>
        <time>2024-11-20T13:15:08Z</time>
      </trkpt>
      <trkpt lat="48.17932" lon="-3.3186">
        <ele>215.4</ele>
        <time>2024-11-20T13:15:09Z</time>
      </trkpt>
      <trkpt lat="48.17933" lon="-3.3186">
        <ele>215.3</ele>
        <time>2024-11-20T13:15:10Z</time>
      </trkpt>
      <trkpt lat="48.17934" lon="-3.3186">
        <ele>215.3</ele>
        <time>2024-11-20T13:15:11Z</time>
      </trkpt>
      <trkpt lat="48.17935" lon="-3.31861">
        <ele>215.3</ele>
        <time>2024-11-20T13:15:12Z</time>
      </trkpt>
      <trkpt lat="48.17936" lon="-3.31861">
        <ele>215.3</ele>
        <time>2024-11-20T13:15:13Z</time>
      </trkpt>
      <trkpt lat="48.17936" lon="-3.31862">
        <ele>215.3</ele>
        <time>2024-11-20T13:15:14Z</time>
      </trkpt>
      <trkpt lat="48.17937" lon="-3.31862">
        <ele>215.3</ele>
        <time>2024-11-20T13:15:15Z</time>
      </trkpt>
      <trkpt lat="48.17937" lon="-3.31862">
        <ele>215.3</ele>
        <time>2024-11-20T13:15:16Z</time>
      </trkpt>
      <trkpt lat="48.17938" lon="-3.31862">
        <ele>215.3</ele>
        <time>2024-11-20T13:15:17Z</time>
      </trkpt>
      <trkpt lat="48.17939" lon="-3.31862">
        <ele>215.3</ele>
        <time>2024-11-20T13:15:18Z</time>
      </trkpt>
      <trkpt lat="48.1794" lon="-3.31863">
        <ele>215.3</ele>
        <time>2024-11-20T13:15:19Z</time>
      </trkpt>
      <trkpt lat="48.17941" lon="-3.31863">
        <ele>215.3</ele>
        <time>2024-11-20T13:15:20Z</time>
      </trkpt>
      <trkpt lat="48.17942" lon="-3.31864">
        <ele>215.3</ele>
        <time>2024-11-20T13:15:21Z</time>
      </trkpt>
      <trkpt lat="48.17942" lon="-3.31865">
        <ele>215.4</ele>
        <time>2024-11-20T13:15:22Z</time>
      </trkpt>
      <trkpt lat="48.17942" lon="-3.31866">
        <ele>215.4</ele>
        <time>2024-11-20T13:15:23Z</time>
      </trkpt>
      <trkpt lat="48.17943" lon="-3.31868">
        <ele>215.5</ele>
        <time>2024-11-20T13:15:24Z</time>
      </trkpt>
      <trkpt lat="48.17943" lon="-3.3187">
        <ele>215.7</ele>
        <time>2024-11-20T13:15:25Z</time>
      </trkpt>
      <trkpt lat="48.17944" lon="-3.31871">
        <ele>215.8</ele>
        <time>2024-11-20T13:15:26Z</time>
      </trkpt>
      <trkpt lat="48.17944" lon="-3.31873">
        <ele>215.9</ele>
        <time>2024-11-20T13:15:27Z</time>
      </trkpt>
      <trkpt lat="48.17945" lon="-3.31875">
        <ele>216</ele>
        <time>2024-11-20T13:15:28Z</time>
      </trkpt>
      <trkpt lat="48.17945" lon="-3.31876">
        <ele>216.1</ele>
        <time>2024-11-20T13:15:29Z</time>
      </trkpt>
      <trkpt lat="48.17945" lon="-3.31877">
        <ele>216.2</ele>
        <time>2024-11-20T13:15:30Z</time>
      </trkpt>
      <trkpt lat="48.17945" lon="-3.31879">
        <ele>216.3</ele>
        <time>2024-11-20T13:15:31Z</time>
      </trkpt>
      <trkpt lat="48.17945" lon="-3.3188">
        <ele>216.4</ele>
        <time>2024-11-20T13:15:32Z</time>
      </trkpt>
      <trkpt lat="48.17946" lon="-3.31882">
        <ele>216.5</ele>
        <time>2024-11-20T13:15:33Z</time>
      </trkpt>
      <trkpt lat="48.17946" lon="-3.31884">
        <ele>216.6</ele>
        <time>2024-11-20T13:15:34Z</time>
      </trkpt>
      <trkpt lat="48.17947" lon="-3.31885">
        <ele>216.7</ele>
        <time>2024-11-20T13:15:35Z</time>
      </trkpt>
      <trkpt lat="48.17947" lon="-3.31887">
        <ele>216.8</ele>
        <time>2024-11-20T13:15:36Z</time>
      </trkpt>
      <trkpt lat="48.17947" lon="-3.31889">
        <ele>216.9</ele>
        <time>2024-11-20T13:15:37Z</time>
      </trkpt>
      <trkpt lat="48.17948" lon="-3.3189">
        <ele>216.9</ele>
        <time>2024-11-20T13:15:38Z</time>
      </trkpt>
      <trkpt lat="48.17948" lon="-3.31891">
        <ele>216.9</ele>
        <time>2024-11-20T13:15:39Z</time>
      </trkpt>
      <trkpt lat="48.17949" lon="-3.31892">
        <ele>217</ele>
        <time>2024-11-20T13:15:40Z</time>
      </trkpt>
      <trkpt lat="48.17949" lon="-3.31893">
        <ele>217</ele>
        <time>2024-11-20T13:15:41Z</time>
      </trkpt>
      <trkpt lat="48.17949" lon="-3.31894">
        <ele>217</ele>
        <time>2024-11-20T13:15:42Z</time>
      </trkpt>
      <trkpt lat="48.17949" lon="-3.31895">
        <ele>217</ele>
        <time>2024-11-20T13:15:43Z</time>
      </trkpt>
      <trkpt lat="48.1795" lon="-3.31897">
        <ele>217.1</ele>
        <time>2024-11-20T13:15:44Z</time>
      </trkpt>
      <trkpt lat="48.1795" lon="-3.31898">
        <ele>217.1</ele>
        <time>2024-11-20T13:15:45Z</time>
      </trkpt>
      <trkpt lat="48.1795" lon="-3.31899">
        <ele>217.2</ele>
        <time>2024-11-20T13:15:46Z</time>
      </trkpt>
      <trkpt lat="48.17951" lon="-3.319">
        <ele>217.2</ele>
        <time>2024-11-20T13:15:47Z</time>
      </trkpt>
      <trkpt lat="48.17951" lon="-3.31901">
        <ele>217.2</ele>
        <time>2024-11-20T13:15:48Z</time>
      </trkpt>
      <trkpt lat="48.17951" lon="-3.31902">
        <ele>217.2</ele>
        <time>2024-11-20T13:15:49Z</time>
      </trkpt>
      <trkpt lat="48.17952" lon="-3.31904">
        <ele>217.3</ele>
        <time>2024-11-20T13:15:50Z</time>
      </trkpt>
      <trkpt lat="48.17952" lon="-3.31906">
        <ele>217.3</ele>
        <time>2024-11-20T13:15:51Z</time>
      </trkpt>
      <trkpt lat="48.17952" lon="-3.31907">
        <ele>217.4</ele>
        <time>2024-11-20T13:15:52Z</time>
      </trkpt>
      <trkpt lat="48.17952" lon="-3.31909">
        <ele>217.5</ele>
        <time>2024-11-20T13:15:53Z</time>
      </trkpt>
      <trkpt lat="48.17952" lon="-3.3191">
        <ele>217.5</ele>
        <time>2024-11-20T13:15:54Z</time>
      </trkpt>
      <trkpt lat="48.17951" lon="-3.31911">
        <ele>217.5</ele>
        <time>2024-11-20T13:15:55Z</time>
      </trkpt>
      <trkpt lat="48.17951" lon="-3.31912">
        <ele>217.6</ele>
        <time>2024-11-20T13:15:56Z</time>
      </trkpt>
      <trkpt lat="48.17952" lon="-3.31913">
        <ele>217.6</ele>
        <time>2024-11-20T13:15:57Z</time>
      </trkpt>
      <trkpt lat="48.17952" lon="-3.31915">
        <ele>217.7</ele>
        <time>2024-11-20T13:15:58Z</time>
      </trkpt>
      <trkpt lat="48.17952" lon="-3.31917">
        <ele>217.8</ele>
        <time>2024-11-20T13:15:59Z</time>
      </trkpt>
      <trkpt lat="48.17952" lon="-3.31918">
        <ele>217.8</ele>
        <time>2024-11-20T13:16:00Z</time>
      </trkpt>
      <trkpt lat="48.17953" lon="-3.31919">
        <ele>217.9</ele>
        <time>2024-11-20T13:16:01Z</time>
      </trkpt>
      <trkpt lat="48.17953" lon="-3.31921">
        <ele>218</ele>
        <time>2024-11-20T13:16:02Z</time>
      </trkpt>
      <trkpt lat="48.17953" lon="-3.31923">
        <ele>218.2</ele>
        <time>2024-11-20T13:16:03Z</time>
      </trkpt>
      <trkpt lat="48.17953" lon="-3.31925">
        <ele>218.3</ele>
        <time>2024-11-20T13:16:04Z</time>
      </trkpt>
      <trkpt lat="48.17953" lon="-3.31928">
        <ele>218.5</ele>
        <time>2024-11-20T13:16:05Z</time>
      </trkpt>
      <trkpt lat="48.17953" lon="-3.3193">
        <ele>218.7</ele>
        <time>2024-11-20T13:16:06Z</time>
      </trkpt>
      <trkpt lat="48.17953" lon="-3.31935">
        <ele>219.1</ele>
        <time>2024-11-20T13:16:07Z</time>
      </trkpt>
      <trkpt lat="48.17952" lon="-3.31937">
        <ele>219.3</ele>
        <time>2024-11-20T13:16:08Z</time>
      </trkpt>
      <trkpt lat="48.17952" lon="-3.31939">
        <ele>219.5</ele>
        <time>2024-11-20T13:16:09Z</time>
      </trkpt>
      <trkpt lat="48.17952" lon="-3.31942">
        <ele>219.7</ele>
        <time>2024-11-20T13:16:11Z</time>
      </trkpt>
      <trkpt lat="48.17952" lon="-3.31943">
        <ele>219.8</ele>
        <time>2024-11-20T13:16:12Z</time>
      </trkpt>
      <trkpt lat="48.17952" lon="-3.31945">
        <ele>219.9</ele>
        <time>2024-11-20T13:16:13Z</time>
      </trkpt>
      <trkpt lat="48.17953" lon="-3.31946">
        <ele>219.9</ele>
        <time>2024-11-20T13:16:14Z</time>
      </trkpt>
      <trkpt lat="48.17954" lon="-3.31947">
        <ele>219.9</ele>
        <time>2024-11-20T13:16:15Z</time>
      </trkpt>
      <trkpt lat="48.17954" lon="-3.31949">
        <ele>220</ele>
        <time>2024-11-20T13:16:16Z</time>
      </trkpt>
      <trkpt lat="48.17955" lon="-3.3195">
        <ele>220</ele>
        <time>2024-11-20T13:16:17Z</time>
      </trkpt>
      <trkpt lat="48.17955" lon="-3.31951">
        <ele>220.1</ele>
        <time>2024-11-20T13:16:18Z</time>
      </trkpt>
      <trkpt lat="48.17956" lon="-3.31952">
        <ele>220.1</ele>
        <time>2024-11-20T13:16:19Z</time>
      </trkpt>
      <trkpt lat="48.17956" lon="-3.31954">
        <ele>220.2</ele>
        <time>2024-11-20T13:16:20Z</time>
      </trkpt>
      <trkpt lat="48.17957" lon="-3.31956">
        <ele>220.3</ele>
        <time>2024-11-20T13:16:21Z</time>
      </trkpt>
      <trkpt lat="48.17957" lon="-3.31958">
        <ele>220.4</ele>
        <time>2024-11-20T13:16:22Z</time>
      </trkpt>
      <trkpt lat="48.17958" lon="-3.31959">
        <ele>220.4</ele>
        <time>2024-11-20T13:16:23Z</time>
      </trkpt>
      <trkpt lat="48.17958" lon="-3.31961">
        <ele>220.6</ele>
        <time>2024-11-20T13:16:24Z</time>
      </trkpt>
      <trkpt lat="48.17958" lon="-3.31963">
        <ele>220.7</ele>
        <time>2024-11-20T13:16:25Z</time>
      </trkpt>
      <trkpt lat="48.17958" lon="-3.31964">
        <ele>220.8</ele>
        <time>2024-11-20T13:16:26Z</time>
      </trkpt>
      <trkpt lat="48.17959" lon="-3.31965">
        <ele>220.8</ele>
        <time>2024-11-20T13:16:27Z</time>
      </trkpt>
      <trkpt lat="48.17959" lon="-3.31966">
        <ele>220.9</ele>
        <time>2024-11-20T13:16:28Z</time>
      </trkpt>
      <trkpt lat="48.17959" lon="-3.31967">
        <ele>220.9</ele>
        <time>2024-11-20T13:16:29Z</time>
      </trkpt>
      <trkpt lat="48.17959" lon="-3.31968">
        <ele>221</ele>
        <time>2024-11-20T13:16:30Z</time>
      </trkpt>
      <trkpt lat="48.1796" lon="-3.3197">
        <ele>221</ele>
        <time>2024-11-20T13:16:31Z</time>
      </trkpt>
      <trkpt lat="48.1796" lon="-3.31971">
        <ele>221</ele>
        <time>2024-11-20T13:16:32Z</time>
      </trkpt>
      <trkpt lat="48.17961" lon="-3.31973">
        <ele>221.1</ele>
        <time>2024-11-20T13:16:33Z</time>
      </trkpt>
      <trkpt lat="48.17962" lon="-3.31974">
        <ele>221.1</ele>
        <time>2024-11-20T13:16:34Z</time>
      </trkpt>
      <trkpt lat="48.17962" lon="-3.31976">
        <ele>221.1</ele>
        <time>2024-11-20T13:16:35Z</time>
      </trkpt>
      <trkpt lat="48.17962" lon="-3.31978">
        <ele>221.2</ele>
        <time>2024-11-20T13:16:36Z</time>
      </trkpt>
      <trkpt lat="48.17963" lon="-3.3198">
        <ele>221.3</ele>
        <time>2024-11-20T13:16:37Z</time>
      </trkpt>
      <trkpt lat="48.17963" lon="-3.31982">
        <ele>221.3</ele>
        <time>2024-11-20T13:16:38Z</time>
      </trkpt>
      <trkpt lat="48.17963" lon="-3.31983">
        <ele>221.4</ele>
        <time>2024-11-20T13:16:39Z</time>
      </trkpt>
      <trkpt lat="48.17964" lon="-3.31985">
        <ele>221.5</ele>
        <time>2024-11-20T13:16:40Z</time>
      </trkpt>
      <trkpt lat="48.17964" lon="-3.31987">
        <ele>221.6</ele>
        <time>2024-11-20T13:16:41Z</time>
      </trkpt>
      <trkpt lat="48.17964" lon="-3.3199">
        <ele>221.7</ele>
        <time>2024-11-20T13:16:42Z</time>
      </trkpt>
      <trkpt lat="48.17964" lon="-3.31993">
        <ele>222</ele>
        <time>2024-11-20T13:16:43Z</time>
      </trkpt>
      <trkpt lat="48.17964" lon="-3.31995">
        <ele>222.1</ele>
        <time>2024-11-20T13:16:44Z</time>
      </trkpt>
      <trkpt lat="48.17964" lon="-3.31996">
        <ele>222.2</ele>
        <time>2024-11-20T13:16:45Z</time>
      </trkpt>
      <trkpt lat="48.17965" lon="-3.31997">
        <ele>222.1</ele>
        <time>2024-11-20T13:16:46Z</time>
      </trkpt>
      <trkpt lat="48.17965" lon="-3.31998">
        <ele>222.1</ele>
        <time>2024-11-20T13:16:47Z</time>
      </trkpt>
      <trkpt lat="48.17966" lon="-3.32">
        <ele>222.1</ele>
        <time>2024-11-20T13:16:48Z</time>
      </trkpt>
      <trkpt lat="48.17967" lon="-3.32003">
        <ele>222.2</ele>
        <time>2024-11-20T13:16:49Z</time>
      </trkpt>
      <trkpt lat="48.17967" lon="-3.32005">
        <ele>222.2</ele>
        <time>2024-11-20T13:16:50Z</time>
      </trkpt>
      <trkpt lat="48.17968" lon="-3.32008">
        <ele>222.3</ele>
        <time>2024-11-20T13:16:51Z</time>
      </trkpt>
      <trkpt lat="48.17968" lon="-3.3201">
        <ele>222.4</ele>
        <time>2024-11-20T13:16:52Z</time>
      </trkpt>
      <trkpt lat="48.17969" lon="-3.32012">
        <ele>222.5</ele>
        <time>2024-11-20T13:16:53Z</time>
      </trkpt>
      <trkpt lat="48.17969" lon="-3.32014">
        <ele>222.6</ele>
        <time>2024-11-20T13:16:54Z</time>
      </trkpt>
      <trkpt lat="48.17969" lon="-3.32016">
        <ele>222.7</ele>
        <time>2024-11-20T13:16:55Z</time>
      </trkpt>
      <trkpt lat="48.17969" lon="-3.32018">
        <ele>222.8</ele>
        <time>2024-11-20T13:16:56Z</time>
      </trkpt>
      <trkpt lat="48.17969" lon="-3.32019">
        <ele>222.8</ele>
        <time>2024-11-20T13:16:57Z</time>
      </trkpt>
      <trkpt lat="48.1797" lon="-3.32021">
        <ele>222.9</ele>
        <time>2024-11-20T13:16:58Z</time>
      </trkpt>
      <trkpt lat="48.17971" lon="-3.32022">
        <ele>222.8</ele>
        <time>2024-11-20T13:16:59Z</time>
      </trkpt>
      <trkpt lat="48.17972" lon="-3.32023">
        <ele>222.7</ele>
        <time>2024-11-20T13:17:00Z</time>
      </trkpt>
      <trkpt lat="48.17972" lon="-3.32024">
        <ele>222.8</ele>
        <time>2024-11-20T13:17:01Z</time>
      </trkpt>
      <trkpt lat="48.17972" lon="-3.32025">
        <ele>222.8</ele>
        <time>2024-11-20T13:17:02Z</time>
      </trkpt>
      <trkpt lat="48.17973" lon="-3.32027">
        <ele>222.9</ele>
        <time>2024-11-20T13:17:03Z</time>
      </trkpt>
      <trkpt lat="48.17973" lon="-3.32028">
        <ele>223</ele>
        <time>2024-11-20T13:17:04Z</time>
      </trkpt>
      <trkpt lat="48.17974" lon="-3.3203">
        <ele>223</ele>
        <time>2024-11-20T13:17:05Z</time>
      </trkpt>
      <trkpt lat="48.17974" lon="-3.32032">
        <ele>223</ele>
        <time>2024-11-20T13:17:06Z</time>
      </trkpt>
      <trkpt lat="48.17974" lon="-3.32034">
        <ele>223.1</ele>
        <time>2024-11-20T13:17:07Z</time>
      </trkpt>
      <trkpt lat="48.17975" lon="-3.32035">
        <ele>223.1</ele>
        <time>2024-11-20T13:17:08Z</time>
      </trkpt>
      <trkpt lat="48.17975" lon="-3.32037">
        <ele>223.1</ele>
        <time>2024-11-20T13:17:09Z</time>
      </trkpt>
      <trkpt lat="48.17975" lon="-3.32037">
        <ele>223.1</ele>
        <time>2024-11-20T13:17:10Z</time>
      </trkpt>
      <trkpt lat="48.17975" lon="-3.32038">
        <ele>223.2</ele>
        <time>2024-11-20T13:17:11Z</time>
      </trkpt>
      <trkpt lat="48.17975" lon="-3.32039">
        <ele>223.2</ele>
        <time>2024-11-20T13:17:12Z</time>
      </trkpt>
      <trkpt lat="48.17975" lon="-3.3204">
        <ele>223.2</ele>
        <time>2024-11-20T13:17:13Z</time>
      </trkpt>
      <trkpt lat="48.17976" lon="-3.32041">
        <ele>223.2</ele>
        <time>2024-11-20T13:17:14Z</time>
      </trkpt>
      <trkpt lat="48.17976" lon="-3.32042">
        <ele>223.2</ele>
        <time>2024-11-20T13:17:15Z</time>
      </trkpt>
      <trkpt lat="48.17977" lon="-3.32043">
        <ele>223.2</ele>
        <time>2024-11-20T13:17:16Z</time>
      </trkpt>
      <trkpt lat="48.17977" lon="-3.32044">
        <ele>223.2</ele>
        <time>2024-11-20T13:17:17Z</time>
      </trkpt>
      <trkpt lat="48.17978" lon="-3.32045">
        <ele>223.2</ele>
        <time>2024-11-20T13:17:18Z</time>
      </trkpt>
      <trkpt lat="48.17979" lon="-3.32045">
        <ele>223.2</ele>
        <time>2024-11-20T13:17:19Z</time>
      </trkpt>
      <trkpt lat="48.17979" lon="-3.32046">
        <ele>223.2</ele>
        <time>2024-11-20T13:17:20Z</time>
      </trkpt>
      <trkpt lat="48.1798" lon="-3.32047">
        <ele>223.1</ele>
        <time>2024-11-20T13:17:21Z</time>
      </trkpt>
      <trkpt lat="48.17981" lon="-3.32048">
        <ele>223.1</ele>
        <time>2024-11-20T13:17:22Z</time>
      </trkpt>
      <trkpt lat="48.17982" lon="-3.32049">
        <ele>223.1</ele>
        <time>2024-11-20T13:17:23Z</time>
      </trkpt>
      <trkpt lat="48.17982" lon="-3.3205">
        <ele>223.1</ele>
        <time>2024-11-20T13:17:24Z</time>
      </trkpt>
      <trkpt lat="48.17983" lon="-3.32051">
        <ele>223</ele>
        <time>2024-11-20T13:17:25Z</time>
      </trkpt>
      <trkpt lat="48.17985" lon="-3.32051">
        <ele>222.9</ele>
        <time>2024-11-20T13:17:26Z</time>
      </trkpt>
      <trkpt lat="48.17986" lon="-3.32051">
        <ele>222.9</ele>
        <time>2024-11-20T13:17:27Z</time>
      </trkpt>
      <trkpt lat="48.17987" lon="-3.32052">
        <ele>222.8</ele>
        <time>2024-11-20T13:17:28Z</time>
      </trkpt>
      <trkpt lat="48.17988" lon="-3.32052">
        <ele>222.8</ele>
        <time>2024-11-20T13:17:29Z</time>
      </trkpt>
      <trkpt lat="48.17989" lon="-3.32053">
        <ele>222.7</ele>
        <time>2024-11-20T13:17:30Z</time>
      </trkpt>
      <trkpt lat="48.1799" lon="-3.32054">
        <ele>222.7</ele>
        <time>2024-11-20T13:17:31Z</time>
      </trkpt>
      <trkpt lat="48.17991" lon="-3.32056">
        <ele>222.6</ele>
        <time>2024-11-20T13:17:32Z</time>
      </trkpt>
      <trkpt lat="48.17992" lon="-3.32058">
        <ele>222.6</ele>
        <time>2024-11-20T13:17:33Z</time>
      </trkpt>
      <trkpt lat="48.17993" lon="-3.3206">
        <ele>222.5</ele>
        <time>2024-11-20T13:17:34Z</time>
      </trkpt>
      <trkpt lat="48.17993" lon="-3.32062">
        <ele>222.5</ele>
        <time>2024-11-20T13:17:35Z</time>
      </trkpt>
      <trkpt lat="48.17994" lon="-3.32064">
        <ele>222.5</ele>
        <time>2024-11-20T13:17:36Z</time>
      </trkpt>
      <trkpt lat="48.17994" lon="-3.32065">
        <ele>222.4</ele>
        <time>2024-11-20T13:17:37Z</time>
      </trkpt>
      <trkpt lat="48.17995" lon="-3.32067">
        <ele>222.4</ele>
        <time>2024-11-20T13:17:38Z</time>
      </trkpt>
      <trkpt lat="48.17996" lon="-3.32068">
        <ele>222.3</ele>
        <time>2024-11-20T13:17:39Z</time>
      </trkpt>
      <trkpt lat="48.17997" lon="-3.32068">
        <ele>222.2</ele>
        <time>2024-11-20T13:17:40Z</time>
      </trkpt>
      <trkpt lat="48.17998" lon="-3.32069">
        <ele>222.1</ele>
        <time>2024-11-20T13:17:41Z</time>
      </trkpt>
      <trkpt lat="48.18" lon="-3.3207">
        <ele>222</ele>
        <time>2024-11-20T13:17:42Z</time>
      </trkpt>
      <trkpt lat="48.18001" lon="-3.32071">
        <ele>222</ele>
        <time>2024-11-20T13:17:43Z</time>
      </trkpt>
      <trkpt lat="48.18002" lon="-3.32071">
        <ele>222</ele>
        <time>2024-11-20T13:17:44Z</time>
      </trkpt>
      <trkpt lat="48.18003" lon="-3.32072">
        <ele>222.1</ele>
        <time>2024-11-20T13:17:45Z</time>
      </trkpt>
      <trkpt lat="48.18003" lon="-3.32073">
        <ele>222.1</ele>
        <time>2024-11-20T13:17:46Z</time>
      </trkpt>
      <trkpt lat="48.18004" lon="-3.32073">
        <ele>222.1</ele>
        <time>2024-11-20T13:17:47Z</time>
      </trkpt>
      <trkpt lat="48.18005" lon="-3.32074">
        <ele>222.1</ele>
        <time>2024-11-20T13:17:48Z</time>
      </trkpt>
      <trkpt lat="48.18006" lon="-3.32075">
        <ele>222.1</ele>
        <time>2024-11-20T13:17:49Z</time>
      </trkpt>
      <trkpt lat="48.18006" lon="-3.32076">
        <ele>222.2</ele>
        <time>2024-11-20T13:17:50Z</time>
      </trkpt>
      <trkpt lat="48.18007" lon="-3.32077">
        <ele>222.2</ele>
        <time>2024-11-20T13:17:51Z</time>
      </trkpt>
      <trkpt lat="48.18008" lon="-3.32078">
        <ele>222.2</ele>
        <time>2024-11-20T13:17:52Z</time>
      </trkpt>
      <trkpt lat="48.18009" lon="-3.32079">
        <ele>222.3</ele>
        <time>2024-11-20T13:17:53Z</time>
      </trkpt>
      <trkpt lat="48.18009" lon="-3.3208">
        <ele>222.3</ele>
        <time>2024-11-20T13:17:54Z</time>
      </trkpt>
      <trkpt lat="48.18011" lon="-3.32081">
        <ele>222.3</ele>
        <time>2024-11-20T13:17:55Z</time>
      </trkpt>
      <trkpt lat="48.18011" lon="-3.32082">
        <ele>222.4</ele>
        <time>2024-11-20T13:17:56Z</time>
      </trkpt>
      <trkpt lat="48.18012" lon="-3.32082">
        <ele>222.4</ele>
        <time>2024-11-20T13:17:57Z</time>
      </trkpt>
      <trkpt lat="48.18013" lon="-3.32083">
        <ele>222.5</ele>
        <time>2024-11-20T13:17:58Z</time>
      </trkpt>
      <trkpt lat="48.18014" lon="-3.32084">
        <ele>222.5</ele>
        <time>2024-11-20T13:17:59Z</time>
      </trkpt>
      <trkpt lat="48.18015" lon="-3.32085">
        <ele>222.5</ele>
        <time>2024-11-20T13:18:00Z</time>
      </trkpt>
      <trkpt lat="48.18016" lon="-3.32085">
        <ele>222.6</ele>
        <time>2024-11-20T13:18:01Z</time>
      </trkpt>
      <trkpt lat="48.18017" lon="-3.32086">
        <ele>222.6</ele>
        <time>2024-11-20T13:18:02Z</time>
      </trkpt>
      <trkpt lat="48.18018" lon="-3.32086">
        <ele>222.6</ele>
        <time>2024-11-20T13:18:03Z</time>
      </trkpt>
      <trkpt lat="48.18018" lon="-3.32087">
        <ele>222.7</ele>
        <time>2024-11-20T13:18:04Z</time>
      </trkpt>
      <trkpt lat="48.18019" lon="-3.32087">
        <ele>222.7</ele>
        <time>2024-11-20T13:18:05Z</time>
      </trkpt>
      <trkpt lat="48.18019" lon="-3.32087">
        <ele>222.7</ele>
        <time>2024-11-20T13:18:06Z</time>
      </trkpt>
      <trkpt lat="48.18019" lon="-3.32087">
        <ele>222.7</ele>
        <time>2024-11-20T13:18:07Z</time>
      </trkpt>
      <trkpt lat="48.18019" lon="-3.32087">
        <ele>222.7</ele>
        <time>2024-11-20T13:18:08Z</time>
      </trkpt>
      <trkpt lat="48.18019" lon="-3.32087">
        <ele>222.7</ele>
        <time>2024-11-20T13:18:09Z</time>
      </trkpt>
      <trkpt lat="48.18019" lon="-3.32087">
        <ele>222.7</ele>
        <time>2024-11-20T13:18:10Z</time>
      </trkpt>
      <trkpt lat="48.18019" lon="-3.32087">
        <ele>222.7</ele>
        <time>2024-11-20T13:18:11Z</time>
      </trkpt>
      <trkpt lat="48.18019" lon="-3.32087">
        <ele>222.7</ele>
        <time>2024-11-20T13:18:12Z</time>
      </trkpt>
      <trkpt lat="48.18019" lon="-3.32087">
        <ele>222.7</ele>
        <time>2024-11-20T13:18:13Z</time>
      </trkpt>
      <trkpt lat="48.18019" lon="-3.32087">
        <ele>222.7</ele>
        <time>2024-11-20T13:18:14Z</time>
      </trkpt>
      <trkpt lat="48.18019" lon="-3.32087">
        <ele>222.7</ele>
        <time>2024-11-20T13:18:15Z</time>
      </trkpt>
      <trkpt lat="48.18019" lon="-3.32087">
        <ele>222.7</ele>
        <time>2024-11-20T13:18:16Z</time>
      </trkpt>
      <trkpt lat="48.18019" lon="-3.32087">
        <ele>222.7</ele>
        <time>2024-11-20T13:18:17Z</time>
      </trkpt>
      <trkpt lat="48.1802" lon="-3.32087">
        <ele>222.7</ele>
        <time>2024-11-20T13:18:18Z</time>
      </trkpt>
      <trkpt lat="48.18019" lon="-3.32087">
        <ele>222.7</ele>
        <time>2024-11-20T13:18:19Z</time>
      </trkpt>
      <trkpt lat="48.18019" lon="-3.32086">
        <ele>222.7</ele>
        <time>2024-11-20T13:18:20Z</time>
      </trkpt>
      <trkpt lat="48.1802" lon="-3.32086">
        <ele>222.7</ele>
        <time>2024-11-20T13:18:21Z</time>
      </trkpt>
      <trkpt lat="48.1802" lon="-3.32086">
        <ele>222.7</ele>
        <time>2024-11-20T13:18:22Z</time>
      </trkpt>
      <trkpt lat="48.1802" lon="-3.32086">
        <ele>222.7</ele>
        <time>2024-11-20T13:18:23Z</time>
      </trkpt>
      <trkpt lat="48.1802" lon="-3.32087">
        <ele>222.7</ele>
        <time>2024-11-20T13:18:24Z</time>
      </trkpt>
      <trkpt lat="48.1802" lon="-3.32087">
        <ele>222.7</ele>
        <time>2024-11-20T13:18:25Z</time>
      </trkpt>
      <trkpt lat="48.1802" lon="-3.32086">
        <ele>222.7</ele>
        <time>2024-11-20T13:18:26Z</time>
      </trkpt>
      <trkpt lat="48.1802" lon="-3.32086">
        <ele>222.7</ele>
        <time>2024-11-20T13:18:27Z</time>
      </trkpt>
      <trkpt lat="48.1802" lon="-3.32086">
        <ele>222.7</ele>
        <time>2024-11-20T13:18:28Z</time>
      </trkpt>
      <trkpt lat="48.1802" lon="-3.32086">
        <ele>222.7</ele>
        <time>2024-11-20T13:18:29Z</time>
      </trkpt>
      <trkpt lat="48.1802" lon="-3.32086">
        <ele>222.7</ele>
        <time>2024-11-20T13:18:30Z</time>
      </trkpt>
      <trkpt lat="48.1802" lon="-3.32086">
        <ele>222.7</ele>
        <time>2024-11-20T13:18:31Z</time>
      </trkpt>
      <trkpt lat="48.1802" lon="-3.32086">
        <ele>222.7</ele>
        <time>2024-11-20T13:18:32Z</time>
      </trkpt>
      <trkpt lat="48.1802" lon="-3.32087">
        <ele>222.7</ele>
        <time>2024-11-20T13:18:33Z</time>
      </trkpt>
      <trkpt lat="48.1802" lon="-3.32087">
        <ele>222.7</ele>
        <time>2024-11-20T13:18:34Z</time>
      </trkpt>
      <trkpt lat="48.1802" lon="-3.32087">
        <ele>222.7</ele>
        <time>2024-11-20T13:18:35Z</time>
      </trkpt>
      <trkpt lat="48.1802" lon="-3.32087">
        <ele>222.7</ele>
        <time>2024-11-20T13:18:36Z</time>
      </trkpt>
      <trkpt lat="48.1802" lon="-3.32087">
        <ele>222.7</ele>
        <time>2024-11-20T13:18:37Z</time>
      </trkpt>
      <trkpt lat="48.1802" lon="-3.32087">
        <ele>222.7</ele>
        <time>2024-11-20T13:18:38Z</time>
      </trkpt>
      <trkpt lat="48.1802" lon="-3.32087">
        <ele>222.7</ele>
        <time>2024-11-20T13:18:39Z</time>
      </trkpt>
      <trkpt lat="48.1802" lon="-3.32087">
        <ele>222.7</ele>
        <time>2024-11-20T13:18:40Z</time>
      </trkpt>
      <trkpt lat="48.1802" lon="-3.32087">
        <ele>222.7</ele>
        <time>2024-11-20T13:18:41Z</time>
      </trkpt>
      <trkpt lat="48.1802" lon="-3.32087">
        <ele>222.7</ele>
        <time>2024-11-20T13:18:42Z</time>
      </trkpt>
      <trkpt lat="48.1802" lon="-3.32087">
        <ele>222.7</ele>
        <time>2024-11-20T13:18:43Z</time>
      </trkpt>
      <trkpt lat="48.1802" lon="-3.32087">
        <ele>222.7</ele>
        <time>2024-11-20T13:18:44Z</time>
      </trkpt>
      <trkpt lat="48.18019" lon="-3.32086">
        <ele>222.7</ele>
        <time>2024-11-20T13:18:45Z</time>
      </trkpt>
      <trkpt lat="48.18019" lon="-3.32085">
        <ele>222.7</ele>
        <time>2024-11-20T13:18:46Z</time>
      </trkpt>
      <trkpt lat="48.18019" lon="-3.32084">
        <ele>222.7</ele>
        <time>2024-11-20T13:18:47Z</time>
      </trkpt>
      <trkpt lat="48.18019" lon="-3.32083">
        <ele>222.7</ele>
        <time>2024-11-20T13:18:48Z</time>
      </trkpt>
      <trkpt lat="48.18019" lon="-3.32082">
        <ele>222.6</ele>
        <time>2024-11-20T13:18:49Z</time>
      </trkpt>
      <trkpt lat="48.18018" lon="-3.32082">
        <ele>222.6</ele>
        <time>2024-11-20T13:18:50Z</time>
      </trkpt>
      <trkpt lat="48.18018" lon="-3.32081">
        <ele>222.6</ele>
        <time>2024-11-20T13:18:51Z</time>
      </trkpt>
      <trkpt lat="48.18018" lon="-3.32079">
        <ele>222.6</ele>
        <time>2024-11-20T13:18:52Z</time>
      </trkpt>
      <trkpt lat="48.18018" lon="-3.32078">
        <ele>222.5</ele>
        <time>2024-11-20T13:18:53Z</time>
      </trkpt>
      <trkpt lat="48.18018" lon="-3.32078">
        <ele>222.5</ele>
        <time>2024-11-20T13:18:54Z</time>
      </trkpt>
      <trkpt lat="48.18018" lon="-3.32077">
        <ele>222.5</ele>
        <time>2024-11-20T13:18:55Z</time>
      </trkpt>
      <trkpt lat="48.18019" lon="-3.32076">
        <ele>222.5</ele>
        <time>2024-11-20T13:18:56Z</time>
      </trkpt>
      <trkpt lat="48.18019" lon="-3.32075">
        <ele>222.5</ele>
        <time>2024-11-20T13:18:57Z</time>
      </trkpt>
      <trkpt lat="48.1802" lon="-3.32074">
        <ele>222.5</ele>
        <time>2024-11-20T13:18:58Z</time>
      </trkpt>
      <trkpt lat="48.1802" lon="-3.32073">
        <ele>222.4</ele>
        <time>2024-11-20T13:18:59Z</time>
      </trkpt>
      <trkpt lat="48.1802" lon="-3.32071">
        <ele>222.4</ele>
        <time>2024-11-20T13:19:00Z</time>
      </trkpt>
      <trkpt lat="48.18021" lon="-3.32071">
        <ele>222.4</ele>
        <time>2024-11-20T13:19:01Z</time>
      </trkpt>
      <trkpt lat="48.1802" lon="-3.32071">
        <ele>222.4</ele>
        <time>2024-11-20T13:19:02Z</time>
      </trkpt>
      <trkpt lat="48.1802" lon="-3.32071">
        <ele>222.4</ele>
        <time>2024-11-20T13:19:03Z</time>
      </trkpt>
      <trkpt lat="48.1802" lon="-3.32071">
        <ele>222.4</ele>
        <time>2024-11-20T13:19:04Z</time>
      </trkpt>
      <trkpt lat="48.1802" lon="-3.32071">
        <ele>222.4</ele>
        <time>2024-11-20T13:19:05Z</time>
      </trkpt>
      <trkpt lat="48.1802" lon="-3.32071">
        <ele>222.4</ele>
        <time>2024-11-20T13:19:06Z</time>
      </trkpt>
      <trkpt lat="48.1802" lon="-3.32071">
        <ele>222.4</ele>
        <time>2024-11-20T13:19:07Z</time>
      </trkpt>
      <trkpt lat="48.1802" lon="-3.3207">
        <ele>222.4</ele>
        <time>2024-11-20T13:19:08Z</time>
      </trkpt>
      <trkpt lat="48.18021" lon="-3.3207">
        <ele>222.4</ele>
        <time>2024-11-20T13:19:09Z</time>
      </trkpt>
      <trkpt lat="48.18021" lon="-3.32069">
        <ele>222.3</ele>
        <time>2024-11-20T13:19:10Z</time>
      </trkpt>
      <trkpt lat="48.18021" lon="-3.32067">
        <ele>222.3</ele>
        <time>2024-11-20T13:19:11Z</time>
      </trkpt>
      <trkpt lat="48.18021" lon="-3.32066">
        <ele>222.3</ele>
        <time>2024-11-20T13:19:12Z</time>
      </trkpt>
      <trkpt lat="48.18022" lon="-3.32064">
        <ele>222.2</ele>
        <time>2024-11-20T13:19:13Z</time>
      </trkpt>
      <trkpt lat="48.18022" lon="-3.32063">
        <ele>222.2</ele>
        <time>2024-11-20T13:19:14Z</time>
      </trkpt>
      <trkpt lat="48.18023" lon="-3.32061">
        <ele>222.2</ele>
        <time>2024-11-20T13:19:15Z</time>
      </trkpt>
      <trkpt lat="48.18023" lon="-3.32059">
        <ele>222.1</ele>
        <time>2024-11-20T13:19:16Z</time>
      </trkpt>
      <trkpt lat="48.18024" lon="-3.32057">
        <ele>222</ele>
        <time>2024-11-20T13:19:17Z</time>
      </trkpt>
      <trkpt lat="48.18024" lon="-3.32055">
        <ele>222</ele>
        <time>2024-11-20T13:19:18Z</time>
      </trkpt>
      <trkpt lat="48.18024" lon="-3.32053">
        <ele>221.9</ele>
        <time>2024-11-20T13:19:19Z</time>
      </trkpt>
      <trkpt lat="48.18025" lon="-3.32051">
        <ele>221.8</ele>
        <time>2024-11-20T13:19:20Z</time>
      </trkpt>
      <trkpt lat="48.18025" lon="-3.3205">
        <ele>221.8</ele>
        <time>2024-11-20T13:19:21Z</time>
      </trkpt>
      <trkpt lat="48.18025" lon="-3.32049">
        <ele>221.7</ele>
        <time>2024-11-20T13:19:22Z</time>
      </trkpt>
      <trkpt lat="48.18026" lon="-3.32047">
        <ele>221.7</ele>
        <time>2024-11-20T13:19:23Z</time>
      </trkpt>
      <trkpt lat="48.18026" lon="-3.32046">
        <ele>221.6</ele>
        <time>2024-11-20T13:19:24Z</time>
      </trkpt>
      <trkpt lat="48.18026" lon="-3.32044">
        <ele>221.6</ele>
        <time>2024-11-20T13:19:25Z</time>
      </trkpt>
      <trkpt lat="48.18026" lon="-3.32043">
        <ele>221.5</ele>
        <time>2024-11-20T13:19:26Z</time>
      </trkpt>
      <trkpt lat="48.18026" lon="-3.32042">
        <ele>221.5</ele>
        <time>2024-11-20T13:19:27Z</time>
      </trkpt>
      <trkpt lat="48.18027" lon="-3.3204">
        <ele>221.5</ele>
        <time>2024-11-20T13:19:28Z</time>
      </trkpt>
      <trkpt lat="48.18027" lon="-3.32039">
        <ele>221.4</ele>
        <time>2024-11-20T13:19:29Z</time>
      </trkpt>
      <trkpt lat="48.18027" lon="-3.32038">
        <ele>221.4</ele>
        <time>2024-11-20T13:19:30Z</time>
      </trkpt>
      <trkpt lat="48.18028" lon="-3.32037">
        <ele>221.3</ele>
        <time>2024-11-20T13:19:31Z</time>
      </trkpt>
      <trkpt lat="48.18028" lon="-3.32035">
        <ele>221.3</ele>
        <time>2024-11-20T13:19:32Z</time>
      </trkpt>
      <trkpt lat="48.18028" lon="-3.32034">
        <ele>221.2</ele>
        <time>2024-11-20T13:19:33Z</time>
      </trkpt>
      <trkpt lat="48.18028" lon="-3.32033">
        <ele>221.2</ele>
        <time>2024-11-20T13:19:34Z</time>
      </trkpt>
      <trkpt lat="48.18028" lon="-3.32031">
        <ele>221.1</ele>
        <time>2024-11-20T13:19:35Z</time>
      </trkpt>
      <trkpt lat="48.18028" lon="-3.3203">
        <ele>221.1</ele>
        <time>2024-11-20T13:19:36Z</time>
      </trkpt>
      <trkpt lat="48.18029" lon="-3.32028">
        <ele>221</ele>
        <time>2024-11-20T13:19:37Z</time>
      </trkpt>
      <trkpt lat="48.18029" lon="-3.32026">
        <ele>221</ele>
        <time>2024-11-20T13:19:38Z</time>
      </trkpt>
      <trkpt lat="48.1803" lon="-3.32025">
        <ele>221</ele>
        <time>2024-11-20T13:19:39Z</time>
      </trkpt>
      <trkpt lat="48.1803" lon="-3.32024">
        <ele>220.9</ele>
        <time>2024-11-20T13:19:40Z</time>
      </trkpt>
      <trkpt lat="48.18031" lon="-3.32021">
        <ele>220.9</ele>
        <time>2024-11-20T13:19:41Z</time>
      </trkpt>
      <trkpt lat="48.18031" lon="-3.32018">
        <ele>220.8</ele>
        <time>2024-11-20T13:19:42Z</time>
      </trkpt>
      <trkpt lat="48.18031" lon="-3.32016">
        <ele>220.7</ele>
        <time>2024-11-20T13:19:43Z</time>
      </trkpt>
      <trkpt lat="48.18031" lon="-3.32014">
        <ele>220.6</ele>
        <time>2024-11-20T13:19:44Z</time>
      </trkpt>
      <trkpt lat="48.18032" lon="-3.32012">
        <ele>220.6</ele>
        <time>2024-11-20T13:19:45Z</time>
      </trkpt>
      <trkpt lat="48.18032" lon="-3.3201">
        <ele>220.5</ele>
        <time>2024-11-20T13:19:46Z</time>
      </trkpt>
      <trkpt lat="48.18033" lon="-3.32008">
        <ele>220.5</ele>
        <time>2024-11-20T13:19:47Z</time>
      </trkpt>
      <trkpt lat="48.18033" lon="-3.32007">
        <ele>220.4</ele>
        <time>2024-11-20T13:19:48Z</time>
      </trkpt>
      <trkpt lat="48.18034" lon="-3.32006">
        <ele>220.4</ele>
        <time>2024-11-20T13:19:49Z</time>
      </trkpt>
      <trkpt lat="48.18034" lon="-3.32005">
        <ele>220.4</ele>
        <time>2024-11-20T13:19:50Z</time>
      </trkpt>
      <trkpt lat="48.18034" lon="-3.32003">
        <ele>220.3</ele>
        <time>2024-11-20T13:19:51Z</time>
      </trkpt>
      <trkpt lat="48.18034" lon="-3.32001">
        <ele>220.3</ele>
        <time>2024-11-20T13:19:52Z</time>
      </trkpt>
      <trkpt lat="48.18034" lon="-3.32">
        <ele>220.2</ele>
        <time>2024-11-20T13:19:53Z</time>
      </trkpt>
      <trkpt lat="48.18034" lon="-3.31998">
        <ele>220.2</ele>
        <time>2024-11-20T13:19:54Z</time>
      </trkpt>
      <trkpt lat="48.18035" lon="-3.31997">
        <ele>220.1</ele>
        <time>2024-11-20T13:19:55Z</time>
      </trkpt>
      <trkpt lat="48.18035" lon="-3.31995">
        <ele>220.1</ele>
        <time>2024-11-20T13:19:56Z</time>
      </trkpt>
      <trkpt lat="48.18035" lon="-3.31993">
        <ele>220</ele>
        <time>2024-11-20T13:19:57Z</time>
      </trkpt>
      <trkpt lat="48.18035" lon="-3.31991">
        <ele>219.9</ele>
        <time>2024-11-20T13:19:58Z</time>
      </trkpt>
      <trkpt lat="48.18035" lon="-3.31989">
        <ele>219.9</ele>
        <time>2024-11-20T13:19:59Z</time>
      </trkpt>
      <trkpt lat="48.18035" lon="-3.31987">
        <ele>219.8</ele>
        <time>2024-11-20T13:20:00Z</time>
      </trkpt>
      <trkpt lat="48.18035" lon="-3.31985">
        <ele>219.7</ele>
        <time>2024-11-20T13:20:01Z</time>
      </trkpt>
      <trkpt lat="48.18035" lon="-3.31983">
        <ele>219.6</ele>
        <time>2024-11-20T13:20:02Z</time>
      </trkpt>
      <trkpt lat="48.18035" lon="-3.31981">
        <ele>219.6</ele>
        <time>2024-11-20T13:20:03Z</time>
      </trkpt>
      <trkpt lat="48.18035" lon="-3.31979">
        <ele>219.5</ele>
        <time>2024-11-20T13:20:04Z</time>
      </trkpt>
      <trkpt lat="48.18034" lon="-3.31977">
        <ele>219.4</ele>
        <time>2024-11-20T13:20:05Z</time>
      </trkpt>
      <trkpt lat="48.18034" lon="-3.31975">
        <ele>219.3</ele>
        <time>2024-11-20T13:20:06Z</time>
      </trkpt>
      <trkpt lat="48.18034" lon="-3.31973">
        <ele>219.2</ele>
        <time>2024-11-20T13:20:07Z</time>
      </trkpt>
      <trkpt lat="48.18034" lon="-3.31971">
        <ele>219.2</ele>
        <time>2024-11-20T13:20:08Z</time>
      </trkpt>
      <trkpt lat="48.18034" lon="-3.3197">
        <ele>219.1</ele>
        <time>2024-11-20T13:20:09Z</time>
      </trkpt>
      <trkpt lat="48.18033" lon="-3.31968">
        <ele>219</ele>
        <time>2024-11-20T13:20:10Z</time>
      </trkpt>
      <trkpt lat="48.18033" lon="-3.31966">
        <ele>219</ele>
        <time>2024-11-20T13:20:11Z</time>
      </trkpt>
      <trkpt lat="48.18033" lon="-3.31964">
        <ele>218.9</ele>
        <time>2024-11-20T13:20:12Z</time>
      </trkpt>
      <trkpt lat="48.18033" lon="-3.31962">
        <ele>218.8</ele>
        <time>2024-11-20T13:20:13Z</time>
      </trkpt>
      <trkpt lat="48.18033" lon="-3.3196">
        <ele>218.7</ele>
        <time>2024-11-20T13:20:14Z</time>
      </trkpt>
      <trkpt lat="48.18033" lon="-3.31958">
        <ele>218.7</ele>
        <time>2024-11-20T13:20:15Z</time>
      </trkpt>
      <trkpt lat="48.18034" lon="-3.31955">
        <ele>218.6</ele>
        <time>2024-11-20T13:20:16Z</time>
      </trkpt>
      <trkpt lat="48.18034" lon="-3.31953">
        <ele>218.5</ele>
        <time>2024-11-20T13:20:17Z</time>
      </trkpt>
      <trkpt lat="48.18034" lon="-3.31952">
        <ele>218.5</ele>
        <time>2024-11-20T13:20:18Z</time>
      </trkpt>
      <trkpt lat="48.18034" lon="-3.3195">
        <ele>218.4</ele>
        <time>2024-11-20T13:20:19Z</time>
      </trkpt>
      <trkpt lat="48.18034" lon="-3.31948">
        <ele>218.4</ele>
        <time>2024-11-20T13:20:20Z</time>
      </trkpt>
      <trkpt lat="48.18034" lon="-3.31946">
        <ele>218.3</ele>
        <time>2024-11-20T13:20:21Z</time>
      </trkpt>
      <trkpt lat="48.18034" lon="-3.31944">
        <ele>218.2</ele>
        <time>2024-11-20T13:20:22Z</time>
      </trkpt>
      <trkpt lat="48.18033" lon="-3.31943">
        <ele>218.1</ele>
        <time>2024-11-20T13:20:23Z</time>
      </trkpt>
      <trkpt lat="48.18033" lon="-3.31941">
        <ele>218.1</ele>
        <time>2024-11-20T13:20:24Z</time>
      </trkpt>
      <trkpt lat="48.18033" lon="-3.31939">
        <ele>218</ele>
        <time>2024-11-20T13:20:25Z</time>
      </trkpt>
      <trkpt lat="48.18032" lon="-3.31937">
        <ele>217.9</ele>
        <time>2024-11-20T13:20:26Z</time>
      </trkpt>
      <trkpt lat="48.18032" lon="-3.31935">
        <ele>217.8</ele>
        <time>2024-11-20T13:20:27Z</time>
      </trkpt>
      <trkpt lat="48.18032" lon="-3.31934">
        <ele>217.8</ele>
        <time>2024-11-20T13:20:28Z</time>
      </trkpt>
      <trkpt lat="48.18032" lon="-3.31932">
        <ele>217.7</ele>
        <time>2024-11-20T13:20:29Z</time>
      </trkpt>
      <trkpt lat="48.18032" lon="-3.3193">
        <ele>217.6</ele>
        <time>2024-11-20T13:20:30Z</time>
      </trkpt>
      <trkpt lat="48.18032" lon="-3.31928">
        <ele>217.6</ele>
        <time>2024-11-20T13:20:31Z</time>
      </trkpt>
      <trkpt lat="48.18032" lon="-3.31928">
        <ele>217.5</ele>
        <time>2024-11-20T13:20:32Z</time>
      </trkpt>
      <trkpt lat="48.18032" lon="-3.31927">
        <ele>217.5</ele>
        <time>2024-11-20T13:20:33Z</time>
      </trkpt>
      <trkpt lat="48.18032" lon="-3.31925">
        <ele>217.5</ele>
        <time>2024-11-20T13:20:34Z</time>
      </trkpt>
      <trkpt lat="48.18032" lon="-3.31924">
        <ele>217.4</ele>
        <time>2024-11-20T13:20:35Z</time>
      </trkpt>
      <trkpt lat="48.18032" lon="-3.31922">
        <ele>217.3</ele>
        <time>2024-11-20T13:20:36Z</time>
      </trkpt>
      <trkpt lat="48.18032" lon="-3.3192">
        <ele>217.3</ele>
        <time>2024-11-20T13:20:37Z</time>
      </trkpt>
      <trkpt lat="48.18031" lon="-3.31919">
        <ele>217.2</ele>
        <time>2024-11-20T13:20:38Z</time>
      </trkpt>
      <trkpt lat="48.18031" lon="-3.31917">
        <ele>217.1</ele>
        <time>2024-11-20T13:20:39Z</time>
      </trkpt>
      <trkpt lat="48.18031" lon="-3.31915">
        <ele>217.1</ele>
        <time>2024-11-20T13:20:40Z</time>
      </trkpt>
      <trkpt lat="48.18031" lon="-3.31913">
        <ele>217.1</ele>
        <time>2024-11-20T13:20:41Z</time>
      </trkpt>
      <trkpt lat="48.18031" lon="-3.31911">
        <ele>217.1</ele>
        <time>2024-11-20T13:20:42Z</time>
      </trkpt>
      <trkpt lat="48.18031" lon="-3.31909">
        <ele>217.1</ele>
        <time>2024-11-20T13:20:43Z</time>
      </trkpt>
      <trkpt lat="48.18031" lon="-3.31907">
        <ele>217.1</ele>
        <time>2024-11-20T13:20:44Z</time>
      </trkpt>
      <trkpt lat="48.18031" lon="-3.31906">
        <ele>217.1</ele>
        <time>2024-11-20T13:20:45Z</time>
      </trkpt>
      <trkpt lat="48.1803" lon="-3.31904">
        <ele>217.1</ele>
        <time>2024-11-20T13:20:46Z</time>
      </trkpt>
      <trkpt lat="48.1803" lon="-3.31902">
        <ele>217</ele>
        <time>2024-11-20T13:20:47Z</time>
      </trkpt>
      <trkpt lat="48.1803" lon="-3.31899">
        <ele>217</ele>
        <time>2024-11-20T13:20:48Z</time>
      </trkpt>
      <trkpt lat="48.1803" lon="-3.31897">
        <ele>217</ele>
        <time>2024-11-20T13:20:49Z</time>
      </trkpt>
      <trkpt lat="48.18029" lon="-3.31895">
        <ele>217</ele>
        <time>2024-11-20T13:20:50Z</time>
      </trkpt>
      <trkpt lat="48.18029" lon="-3.31893">
        <ele>217</ele>
        <time>2024-11-20T13:20:51Z</time>
      </trkpt>
      <trkpt lat="48.18029" lon="-3.31891">
        <ele>217</ele>
        <time>2024-11-20T13:20:52Z</time>
      </trkpt>
      <trkpt lat="48.18029" lon="-3.31889">
        <ele>217</ele>
        <time>2024-11-20T13:20:53Z</time>
      </trkpt>
      <trkpt lat="48.18027" lon="-3.31886">
        <ele>216.9</ele>
        <time>2024-11-20T13:20:54Z</time>
      </trkpt>
      <trkpt lat="48.18025" lon="-3.31883">
        <ele>216.7</ele>
        <time>2024-11-20T13:20:55Z</time>
      </trkpt>
      <trkpt lat="48.18024" lon="-3.31882">
        <ele>216.6</ele>
        <time>2024-11-20T13:20:56Z</time>
      </trkpt>
      <trkpt lat="48.18023" lon="-3.3188">
        <ele>216.5</ele>
        <time>2024-11-20T13:20:57Z</time>
      </trkpt>
      <trkpt lat="48.18023" lon="-3.31879">
        <ele>216.5</ele>
        <time>2024-11-20T13:20:58Z</time>
      </trkpt>
      <trkpt lat="48.18023" lon="-3.31877">
        <ele>216.4</ele>
        <time>2024-11-20T13:20:59Z</time>
      </trkpt>
      <trkpt lat="48.18023" lon="-3.31875">
        <ele>216.3</ele>
        <time>2024-11-20T13:21:00Z</time>
      </trkpt>
      <trkpt lat="48.18023" lon="-3.31874">
        <ele>216.3</ele>
        <time>2024-11-20T13:21:01Z</time>
      </trkpt>
      <trkpt lat="48.18023" lon="-3.31872">
        <ele>216.2</ele>
        <time>2024-11-20T13:21:02Z</time>
      </trkpt>
      <trkpt lat="48.18023" lon="-3.3187">
        <ele>216.1</ele>
        <time>2024-11-20T13:21:03Z</time>
      </trkpt>
      <trkpt lat="48.18023" lon="-3.31868">
        <ele>216.1</ele>
        <time>2024-11-20T13:21:04Z</time>
      </trkpt>
      <trkpt lat="48.18023" lon="-3.31867">
        <ele>216</ele>
        <time>2024-11-20T13:21:05Z</time>
      </trkpt>
      <trkpt lat="48.18023" lon="-3.31865">
        <ele>216</ele>
        <time>2024-11-20T13:21:06Z</time>
      </trkpt>
      <trkpt lat="48.18023" lon="-3.31864">
        <ele>215.9</ele>
        <time>2024-11-20T13:21:07Z</time>
      </trkpt>
      <trkpt lat="48.18023" lon="-3.31862">
        <ele>215.9</ele>
        <time>2024-11-20T13:21:08Z</time>
      </trkpt>
      <trkpt lat="48.18023" lon="-3.31861">
        <ele>215.8</ele>
        <time>2024-11-20T13:21:09Z</time>
      </trkpt>
      <trkpt lat="48.18023" lon="-3.31859">
        <ele>215.8</ele>
        <time>2024-11-20T13:21:10Z</time>
      </trkpt>
      <trkpt lat="48.18023" lon="-3.31858">
        <ele>215.8</ele>
        <time>2024-11-20T13:21:11Z</time>
      </trkpt>
      <trkpt lat="48.18023" lon="-3.31856">
        <ele>215.8</ele>
        <time>2024-11-20T13:21:12Z</time>
      </trkpt>
      <trkpt lat="48.18023" lon="-3.31854">
        <ele>215.8</ele>
        <time>2024-11-20T13:21:13Z</time>
      </trkpt>
      <trkpt lat="48.18023" lon="-3.31852">
        <ele>215.8</ele>
        <time>2024-11-20T13:21:14Z</time>
      </trkpt>
      <trkpt lat="48.18022" lon="-3.3185">
        <ele>215.8</ele>
        <time>2024-11-20T13:21:15Z</time>
      </trkpt>
      <trkpt lat="48.18022" lon="-3.31849">
        <ele>215.8</ele>
        <time>2024-11-20T13:21:16Z</time>
      </trkpt>
      <trkpt lat="48.18022" lon="-3.31847">
        <ele>215.8</ele>
        <time>2024-11-20T13:21:17Z</time>
      </trkpt>
      <trkpt lat="48.18022" lon="-3.31845">
        <ele>215.8</ele>
        <time>2024-11-20T13:21:18Z</time>
      </trkpt>
      <trkpt lat="48.18022" lon="-3.31843">
        <ele>215.8</ele>
        <time>2024-11-20T13:21:19Z</time>
      </trkpt>
      <trkpt lat="48.18021" lon="-3.31841">
        <ele>215.8</ele>
        <time>2024-11-20T13:21:20Z</time>
      </trkpt>
      <trkpt lat="48.18021" lon="-3.3184">
        <ele>215.8</ele>
        <time>2024-11-20T13:21:21Z</time>
      </trkpt>
      <trkpt lat="48.18021" lon="-3.31838">
        <ele>215.8</ele>
        <time>2024-11-20T13:21:22Z</time>
      </trkpt>
      <trkpt lat="48.18021" lon="-3.31836">
        <ele>215.8</ele>
        <time>2024-11-20T13:21:23Z</time>
      </trkpt>
      <trkpt lat="48.18021" lon="-3.31835">
        <ele>215.8</ele>
        <time>2024-11-20T13:21:24Z</time>
      </trkpt>
      <trkpt lat="48.18021" lon="-3.31833">
        <ele>215.8</ele>
        <time>2024-11-20T13:21:25Z</time>
      </trkpt>
      <trkpt lat="48.18021" lon="-3.31832">
        <ele>215.8</ele>
        <time>2024-11-20T13:21:26Z</time>
      </trkpt>
      <trkpt lat="48.18021" lon="-3.31831">
        <ele>215.8</ele>
        <time>2024-11-20T13:21:27Z</time>
      </trkpt>
      <trkpt lat="48.18021" lon="-3.31829">
        <ele>215.8</ele>
        <time>2024-11-20T13:21:28Z</time>
      </trkpt>
      <trkpt lat="48.18021" lon="-3.31828">
        <ele>215.7</ele>
        <time>2024-11-20T13:21:29Z</time>
      </trkpt>
      <trkpt lat="48.1802" lon="-3.31826">
        <ele>215.7</ele>
        <time>2024-11-20T13:21:30Z</time>
      </trkpt>
      <trkpt lat="48.1802" lon="-3.31825">
        <ele>215.7</ele>
        <time>2024-11-20T13:21:31Z</time>
      </trkpt>
      <trkpt lat="48.1802" lon="-3.31824">
        <ele>215.7</ele>
        <time>2024-11-20T13:21:32Z</time>
      </trkpt>
      <trkpt lat="48.1802" lon="-3.31824">
        <ele>215.7</ele>
        <time>2024-11-20T13:21:33Z</time>
      </trkpt>
      <trkpt lat="48.1802" lon="-3.31823">
        <ele>215.7</ele>
        <time>2024-11-20T13:21:34Z</time>
      </trkpt>
      <trkpt lat="48.1802" lon="-3.31823">
        <ele>215.7</ele>
        <time>2024-11-20T13:21:35Z</time>
      </trkpt>
      <trkpt lat="48.1802" lon="-3.31823">
        <ele>215.7</ele>
        <time>2024-11-20T13:21:36Z</time>
      </trkpt>
      <trkpt lat="48.1802" lon="-3.31823">
        <ele>215.7</ele>
        <time>2024-11-20T13:21:37Z</time>
      </trkpt>
      <trkpt lat="48.1802" lon="-3.31823">
        <ele>215.7</ele>
        <time>2024-11-20T13:21:38Z</time>
      </trkpt>
      <trkpt lat="48.1802" lon="-3.31823">
        <ele>215.7</ele>
        <time>2024-11-20T13:21:39Z</time>
      </trkpt>
      <trkpt lat="48.1802" lon="-3.31822">
        <ele>215.7</ele>
        <time>2024-11-20T13:21:40Z</time>
      </trkpt>
      <trkpt lat="48.1802" lon="-3.31822">
        <ele>215.7</ele>
        <time>2024-11-20T13:21:41Z</time>
      </trkpt>
      <trkpt lat="48.1802" lon="-3.31822">
        <ele>215.7</ele>
        <time>2024-11-20T13:21:42Z</time>
      </trkpt>
      <trkpt lat="48.1802" lon="-3.31822">
        <ele>215.7</ele>
        <time>2024-11-20T13:21:43Z</time>
      </trkpt>
      <trkpt lat="48.1802" lon="-3.31822">
        <ele>215.7</ele>
        <time>2024-11-20T13:21:44Z</time>
      </trkpt>
      <trkpt lat="48.1802" lon="-3.31822">
        <ele>215.7</ele>
        <time>2024-11-20T13:21:45Z</time>
      </trkpt>
      <trkpt lat="48.1802" lon="-3.31822">
        <ele>215.7</ele>
        <time>2024-11-20T13:21:46Z</time>
      </trkpt>
      <trkpt lat="48.1802" lon="-3.31822">
        <ele>215.7</ele>
        <time>2024-11-20T13:21:47Z</time>
      </trkpt>
      <trkpt lat="48.1802" lon="-3.31821">
        <ele>215.7</ele>
        <time>2024-11-20T13:21:48Z</time>
      </trkpt>
      <trkpt lat="48.1802" lon="-3.31821">
        <ele>215.7</ele>
        <time>2024-11-20T13:21:49Z</time>
      </trkpt>
      <trkpt lat="48.1802" lon="-3.31821">
        <ele>215.7</ele>
        <time>2024-11-20T13:21:50Z</time>
      </trkpt>
      <trkpt lat="48.1802" lon="-3.31822">
        <ele>215.7</ele>
        <time>2024-11-20T13:21:51Z</time>
      </trkpt>
      <trkpt lat="48.1802" lon="-3.31822">
        <ele>215.7</ele>
        <time>2024-11-20T13:21:52Z</time>
      </trkpt>
      <trkpt lat="48.1802" lon="-3.31822">
        <ele>215.7</ele>
        <time>2024-11-20T13:21:53Z</time>
      </trkpt>
      <trkpt lat="48.1802" lon="-3.31821">
        <ele>215.7</ele>
        <time>2024-11-20T13:21:54Z</time>
      </trkpt>
      <trkpt lat="48.18019" lon="-3.31821">
        <ele>215.7</ele>
        <time>2024-11-20T13:21:55Z</time>
      </trkpt>
      <trkpt lat="48.18019" lon="-3.3182">
        <ele>215.7</ele>
        <time>2024-11-20T13:21:56Z</time>
      </trkpt>
      <trkpt lat="48.18019" lon="-3.31819">
        <ele>215.7</ele>
        <time>2024-11-20T13:21:57Z</time>
      </trkpt>
      <trkpt lat="48.18019" lon="-3.31817">
        <ele>215.7</ele>
        <time>2024-11-20T13:21:58Z</time>
      </trkpt>
      <trkpt lat="48.18019" lon="-3.31816">
        <ele>215.7</ele>
        <time>2024-11-20T13:21:59Z</time>
      </trkpt>
      <trkpt lat="48.18019" lon="-3.31814">
        <ele>215.7</ele>
        <time>2024-11-20T13:22:00Z</time>
      </trkpt>
      <trkpt lat="48.18018" lon="-3.31813">
        <ele>215.7</ele>
        <time>2024-11-20T13:22:01Z</time>
      </trkpt>
      <trkpt lat="48.18018" lon="-3.31811">
        <ele>215.7</ele>
        <time>2024-11-20T13:22:02Z</time>
      </trkpt>
      <trkpt lat="48.18019" lon="-3.3181">
        <ele>215.7</ele>
        <time>2024-11-20T13:22:03Z</time>
      </trkpt>
      <trkpt lat="48.18018" lon="-3.31808">
        <ele>215.7</ele>
        <time>2024-11-20T13:22:04Z</time>
      </trkpt>
      <trkpt lat="48.18018" lon="-3.31807">
        <ele>215.7</ele>
        <time>2024-11-20T13:22:05Z</time>
      </trkpt>
      <trkpt lat="48.18018" lon="-3.31806">
        <ele>215.7</ele>
        <time>2024-11-20T13:22:06Z</time>
      </trkpt>
      <trkpt lat="48.18018" lon="-3.31806">
        <ele>215.7</ele>
        <time>2024-11-20T13:22:07Z</time>
      </trkpt>
      <trkpt lat="48.18018" lon="-3.31807">
        <ele>215.7</ele>
        <time>2024-11-20T13:22:08Z</time>
      </trkpt>
      <trkpt lat="48.18018" lon="-3.31807">
        <ele>215.7</ele>
        <time>2024-11-20T13:22:09Z</time>
      </trkpt>
      <trkpt lat="48.18018" lon="-3.31807">
        <ele>215.7</ele>
        <time>2024-11-20T13:22:10Z</time>
      </trkpt>
      <trkpt lat="48.18018" lon="-3.31807">
        <ele>215.7</ele>
        <time>2024-11-20T13:22:11Z</time>
      </trkpt>
      <trkpt lat="48.18018" lon="-3.31807">
        <ele>215.7</ele>
        <time>2024-11-20T13:22:12Z</time>
      </trkpt>
      <trkpt lat="48.18018" lon="-3.31807">
        <ele>215.6</ele>
        <time>2024-11-20T13:22:13Z</time>
      </trkpt>
      <trkpt lat="48.18018" lon="-3.31808">
        <ele>215.6</ele>
        <time>2024-11-20T13:22:14Z</time>
      </trkpt>
      <trkpt lat="48.18018" lon="-3.31807">
        <ele>215.6</ele>
        <time>2024-11-20T13:22:15Z</time>
      </trkpt>
      <trkpt lat="48.18018" lon="-3.31805">
        <ele>215.6</ele>
        <time>2024-11-20T13:22:16Z</time>
      </trkpt>
      <trkpt lat="48.18017" lon="-3.31804">
        <ele>215.6</ele>
        <time>2024-11-20T13:22:17Z</time>
      </trkpt>
      <trkpt lat="48.18017" lon="-3.31802">
        <ele>215.6</ele>
        <time>2024-11-20T13:22:18Z</time>
      </trkpt>
      <trkpt lat="48.18017" lon="-3.31801">
        <ele>215.6</ele>
        <time>2024-11-20T13:22:19Z</time>
      </trkpt>
      <trkpt lat="48.18017" lon="-3.31799">
        <ele>215.6</ele>
        <time>2024-11-20T13:22:20Z</time>
      </trkpt>
      <trkpt lat="48.18017" lon="-3.31799">
        <ele>215.6</ele>
        <time>2024-11-20T13:22:21Z</time>
      </trkpt>
      <trkpt lat="48.18017" lon="-3.31799">
        <ele>215.6</ele>
        <time>2024-11-20T13:22:22Z</time>
      </trkpt>
      <trkpt lat="48.18017" lon="-3.318">
        <ele>215.6</ele>
        <time>2024-11-20T13:22:23Z</time>
      </trkpt>
      <trkpt lat="48.18017" lon="-3.31799">
        <ele>215.6</ele>
        <time>2024-11-20T13:22:24Z</time>
      </trkpt>
      <trkpt lat="48.18016" lon="-3.31798">
        <ele>215.6</ele>
        <time>2024-11-20T13:22:25Z</time>
      </trkpt>
      <trkpt lat="48.18016" lon="-3.31797">
        <ele>215.6</ele>
        <time>2024-11-20T13:22:26Z</time>
      </trkpt>
      <trkpt lat="48.18016" lon="-3.31796">
        <ele>215.6</ele>
        <time>2024-11-20T13:22:27Z</time>
      </trkpt>
      <trkpt lat="48.18016" lon="-3.31794">
        <ele>215.6</ele>
        <time>2024-11-20T13:22:28Z</time>
      </trkpt>
      <trkpt lat="48.18017" lon="-3.31793">
        <ele>215.6</ele>
        <time>2024-11-20T13:22:29Z</time>
      </trkpt>
      <trkpt lat="48.18017" lon="-3.31793">
        <ele>215.6</ele>
        <time>2024-11-20T13:22:31Z</time>
      </trkpt>
      <trkpt lat="48.18017" lon="-3.31793">
        <ele>215.6</ele>
        <time>2024-11-20T13:22:32Z</time>
      </trkpt>
      <trkpt lat="48.18017" lon="-3.31792">
        <ele>215.6</ele>
        <time>2024-11-20T13:22:33Z</time>
      </trkpt>
      <trkpt lat="48.18017" lon="-3.3179">
        <ele>215.6</ele>
        <time>2024-11-20T13:22:34Z</time>
      </trkpt>
      <trkpt lat="48.18017" lon="-3.31789">
        <ele>215.6</ele>
        <time>2024-11-20T13:22:35Z</time>
      </trkpt>
      <trkpt lat="48.18018" lon="-3.31787">
        <ele>215.6</ele>
        <time>2024-11-20T13:22:36Z</time>
      </trkpt>
      <trkpt lat="48.18018" lon="-3.31786">
        <ele>215.6</ele>
        <time>2024-11-20T13:22:37Z</time>
      </trkpt>
      <trkpt lat="48.18018" lon="-3.31784">
        <ele>215.7</ele>
        <time>2024-11-20T13:22:38Z</time>
      </trkpt>
      <trkpt lat="48.18019" lon="-3.31783">
        <ele>215.7</ele>
        <time>2024-11-20T13:22:39Z</time>
      </trkpt>
      <trkpt lat="48.18019" lon="-3.31782">
        <ele>215.7</ele>
        <time>2024-11-20T13:22:40Z</time>
      </trkpt>
      <trkpt lat="48.18019" lon="-3.3178">
        <ele>215.7</ele>
        <time>2024-11-20T13:22:41Z</time>
      </trkpt>
      <trkpt lat="48.18019" lon="-3.31778">
        <ele>215.7</ele>
        <time>2024-11-20T13:22:42Z</time>
      </trkpt>
      <trkpt lat="48.18019" lon="-3.31777">
        <ele>215.6</ele>
        <time>2024-11-20T13:22:43Z</time>
      </trkpt>
      <trkpt lat="48.18019" lon="-3.31775">
        <ele>215.6</ele>
        <time>2024-11-20T13:22:44Z</time>
      </trkpt>
      <trkpt lat="48.18019" lon="-3.31773">
        <ele>215.5</ele>
        <time>2024-11-20T13:22:45Z</time>
      </trkpt>
      <trkpt lat="48.18019" lon="-3.31771">
        <ele>215.4</ele>
        <time>2024-11-20T13:22:46Z</time>
      </trkpt>
      <trkpt lat="48.1802" lon="-3.31768">
        <ele>215.4</ele>
        <time>2024-11-20T13:22:47Z</time>
      </trkpt>
      <trkpt lat="48.1802" lon="-3.31766">
        <ele>215.3</ele>
        <time>2024-11-20T13:22:48Z</time>
      </trkpt>
      <trkpt lat="48.1802" lon="-3.31764">
        <ele>215.2</ele>
        <time>2024-11-20T13:22:49Z</time>
      </trkpt>
      <trkpt lat="48.1802" lon="-3.31762">
        <ele>215.2</ele>
        <time>2024-11-20T13:22:50Z</time>
      </trkpt>
      <trkpt lat="48.1802" lon="-3.31761">
        <ele>215.1</ele>
        <time>2024-11-20T13:22:51Z</time>
      </trkpt>
      <trkpt lat="48.1802" lon="-3.31759">
        <ele>215.1</ele>
        <time>2024-11-20T13:22:52Z</time>
      </trkpt>
      <trkpt lat="48.1802" lon="-3.31758">
        <ele>215</ele>
        <time>2024-11-20T13:22:53Z</time>
      </trkpt>
      <trkpt lat="48.1802" lon="-3.31756">
        <ele>214.9</ele>
        <time>2024-11-20T13:22:54Z</time>
      </trkpt>
      <trkpt lat="48.1802" lon="-3.31754">
        <ele>214.9</ele>
        <time>2024-11-20T13:22:55Z</time>
      </trkpt>
      <trkpt lat="48.18021" lon="-3.31752">
        <ele>214.8</ele>
        <time>2024-11-20T13:22:56Z</time>
      </trkpt>
      <trkpt lat="48.18021" lon="-3.3175">
        <ele>214.8</ele>
        <time>2024-11-20T13:22:57Z</time>
      </trkpt>
      <trkpt lat="48.18022" lon="-3.31748">
        <ele>214.7</ele>
        <time>2024-11-20T13:22:58Z</time>
      </trkpt>
      <trkpt lat="48.18022" lon="-3.31747">
        <ele>214.7</ele>
        <time>2024-11-20T13:22:59Z</time>
      </trkpt>
      <trkpt lat="48.18022" lon="-3.31745">
        <ele>214.6</ele>
        <time>2024-11-20T13:23:00Z</time>
      </trkpt>
      <trkpt lat="48.18023" lon="-3.31743">
        <ele>214.6</ele>
        <time>2024-11-20T13:23:01Z</time>
      </trkpt>
      <trkpt lat="48.18023" lon="-3.31741">
        <ele>214.5</ele>
        <time>2024-11-20T13:23:02Z</time>
      </trkpt>
      <trkpt lat="48.18023" lon="-3.31739">
        <ele>214.4</ele>
        <time>2024-11-20T13:23:03Z</time>
      </trkpt>
      <trkpt lat="48.18023" lon="-3.31737">
        <ele>214.3</ele>
        <time>2024-11-20T13:23:04Z</time>
      </trkpt>
      <trkpt lat="48.18023" lon="-3.31734">
        <ele>214.3</ele>
        <time>2024-11-20T13:23:05Z</time>
      </trkpt>
      <trkpt lat="48.18023" lon="-3.31733">
        <ele>214.2</ele>
        <time>2024-11-20T13:23:06Z</time>
      </trkpt>
      <trkpt lat="48.18024" lon="-3.31731">
        <ele>214.2</ele>
        <time>2024-11-20T13:23:07Z</time>
      </trkpt>
      <trkpt lat="48.18024" lon="-3.31728">
        <ele>214.1</ele>
        <time>2024-11-20T13:23:08Z</time>
      </trkpt>
      <trkpt lat="48.18024" lon="-3.31726">
        <ele>214</ele>
        <time>2024-11-20T13:23:09Z</time>
      </trkpt>
      <trkpt lat="48.18024" lon="-3.31724">
        <ele>213.9</ele>
        <time>2024-11-20T13:23:10Z</time>
      </trkpt>
      <trkpt lat="48.18025" lon="-3.31722">
        <ele>213.9</ele>
        <time>2024-11-20T13:23:11Z</time>
      </trkpt>
      <trkpt lat="48.18025" lon="-3.31721">
        <ele>213.8</ele>
        <time>2024-11-20T13:23:12Z</time>
      </trkpt>
      <trkpt lat="48.18025" lon="-3.31719">
        <ele>213.7</ele>
        <time>2024-11-20T13:23:13Z</time>
      </trkpt>
      <trkpt lat="48.18026" lon="-3.31718">
        <ele>213.6</ele>
        <time>2024-11-20T13:23:14Z</time>
      </trkpt>
      <trkpt lat="48.18026" lon="-3.31716">
        <ele>213.5</ele>
        <time>2024-11-20T13:23:15Z</time>
      </trkpt>
      <trkpt lat="48.18026" lon="-3.31714">
        <ele>213.4</ele>
        <time>2024-11-20T13:23:16Z</time>
      </trkpt>
      <trkpt lat="48.18026" lon="-3.31712">
        <ele>213.2</ele>
        <time>2024-11-20T13:23:17Z</time>
      </trkpt>
      <trkpt lat="48.18026" lon="-3.3171">
        <ele>213.1</ele>
        <time>2024-11-20T13:23:18Z</time>
      </trkpt>
      <trkpt lat="48.18027" lon="-3.31708">
        <ele>213</ele>
        <time>2024-11-20T13:23:19Z</time>
      </trkpt>
      <trkpt lat="48.18027" lon="-3.31707">
        <ele>212.9</ele>
        <time>2024-11-20T13:23:20Z</time>
      </trkpt>
      <trkpt lat="48.18028" lon="-3.31705">
        <ele>212.8</ele>
        <time>2024-11-20T13:23:21Z</time>
      </trkpt>
      <trkpt lat="48.18028" lon="-3.31704">
        <ele>212.7</ele>
        <time>2024-11-20T13:23:22Z</time>
      </trkpt>
      <trkpt lat="48.18028" lon="-3.31703">
        <ele>212.6</ele>
        <time>2024-11-20T13:23:23Z</time>
      </trkpt>
      <trkpt lat="48.18028" lon="-3.31703">
        <ele>212.6</ele>
        <time>2024-11-20T13:23:24Z</time>
      </trkpt>
      <trkpt lat="48.18028" lon="-3.31702">
        <ele>212.5</ele>
        <time>2024-11-20T13:23:25Z</time>
      </trkpt>
      <trkpt lat="48.18028" lon="-3.31701">
        <ele>212.5</ele>
        <time>2024-11-20T13:23:26Z</time>
      </trkpt>
      <trkpt lat="48.18028" lon="-3.317">
        <ele>212.4</ele>
        <time>2024-11-20T13:23:27Z</time>
      </trkpt>
      <trkpt lat="48.18028" lon="-3.31699">
        <ele>212.3</ele>
        <time>2024-11-20T13:23:28Z</time>
      </trkpt>
      <trkpt lat="48.18028" lon="-3.31698">
        <ele>212.2</ele>
        <time>2024-11-20T13:23:29Z</time>
      </trkpt>
      <trkpt lat="48.18028" lon="-3.31696">
        <ele>212.1</ele>
        <time>2024-11-20T13:23:30Z</time>
      </trkpt>
      <trkpt lat="48.18029" lon="-3.31694">
        <ele>211.9</ele>
        <time>2024-11-20T13:23:31Z</time>
      </trkpt>
      <trkpt lat="48.18029" lon="-3.31693">
        <ele>211.8</ele>
        <time>2024-11-20T13:23:32Z</time>
      </trkpt>
      <trkpt lat="48.18029" lon="-3.31692">
        <ele>211.8</ele>
        <time>2024-11-20T13:23:33Z</time>
      </trkpt>
      <trkpt lat="48.1803" lon="-3.3169">
        <ele>211.7</ele>
        <time>2024-11-20T13:23:34Z</time>
      </trkpt>
      <trkpt lat="48.1803" lon="-3.31688">
        <ele>211.6</ele>
        <time>2024-11-20T13:23:35Z</time>
      </trkpt>
      <trkpt lat="48.1803" lon="-3.31686">
        <ele>211.5</ele>
        <time>2024-11-20T13:23:36Z</time>
      </trkpt>
      <trkpt lat="48.1803" lon="-3.31685">
        <ele>211.4</ele>
        <time>2024-11-20T13:23:37Z</time>
      </trkpt>
      <trkpt lat="48.18031" lon="-3.31683">
        <ele>211.3</ele>
        <time>2024-11-20T13:23:38Z</time>
      </trkpt>
      <trkpt lat="48.18032" lon="-3.31682">
        <ele>211.1</ele>
        <time>2024-11-20T13:23:39Z</time>
      </trkpt>
      <trkpt lat="48.18032" lon="-3.31681">
        <ele>211</ele>
        <time>2024-11-20T13:23:40Z</time>
      </trkpt>
      <trkpt lat="48.18033" lon="-3.31681">
        <ele>211</ele>
        <time>2024-11-20T13:23:41Z</time>
      </trkpt>
      <trkpt lat="48.18033" lon="-3.3168">
        <ele>211</ele>
        <time>2024-11-20T13:23:42Z</time>
      </trkpt>
      <trkpt lat="48.18033" lon="-3.3168">
        <ele>210.9</ele>
        <time>2024-11-20T13:23:43Z</time>
      </trkpt>
      <trkpt lat="48.18033" lon="-3.31679">
        <ele>210.8</ele>
        <time>2024-11-20T13:23:44Z</time>
      </trkpt>
      <trkpt lat="48.18034" lon="-3.31677">
        <ele>210.6</ele>
        <time>2024-11-20T13:23:45Z</time>
      </trkpt>
      <trkpt lat="48.18034" lon="-3.31675">
        <ele>210.5</ele>
        <time>2024-11-20T13:23:46Z</time>
      </trkpt>
      <trkpt lat="48.18035" lon="-3.31674">
        <ele>210.4</ele>
        <time>2024-11-20T13:23:47Z</time>
      </trkpt>
      <trkpt lat="48.18035" lon="-3.31672">
        <ele>210.2</ele>
        <time>2024-11-20T13:23:48Z</time>
      </trkpt>
      <trkpt lat="48.18036" lon="-3.31671">
        <ele>210.1</ele>
        <time>2024-11-20T13:23:49Z</time>
      </trkpt>
      <trkpt lat="48.18036" lon="-3.31669">
        <ele>209.9</ele>
        <time>2024-11-20T13:23:50Z</time>
      </trkpt>
      <trkpt lat="48.18037" lon="-3.31667">
        <ele>209.7</ele>
        <time>2024-11-20T13:23:51Z</time>
      </trkpt>
      <trkpt lat="48.18037" lon="-3.31666">
        <ele>209.5</ele>
        <time>2024-11-20T13:23:52Z</time>
      </trkpt>
      <trkpt lat="48.18038" lon="-3.31663">
        <ele>209.3</ele>
        <time>2024-11-20T13:23:53Z</time>
      </trkpt>
      <trkpt lat="48.18038" lon="-3.31661">
        <ele>209.2</ele>
        <time>2024-11-20T13:23:54Z</time>
      </trkpt>
      <trkpt lat="48.18039" lon="-3.31659">
        <ele>208.9</ele>
        <time>2024-11-20T13:23:55Z</time>
      </trkpt>
      <trkpt lat="48.18039" lon="-3.31658">
        <ele>208.8</ele>
        <time>2024-11-20T13:23:56Z</time>
      </trkpt>
      <trkpt lat="48.18039" lon="-3.31657">
        <ele>208.7</ele>
        <time>2024-11-20T13:23:57Z</time>
      </trkpt>
      <trkpt lat="48.18039" lon="-3.31657">
        <ele>208.6</ele>
        <time>2024-11-20T13:23:58Z</time>
      </trkpt>
      <trkpt lat="48.18039" lon="-3.31656">
        <ele>208.5</ele>
        <time>2024-11-20T13:23:59Z</time>
      </trkpt>
      <trkpt lat="48.1804" lon="-3.31655">
        <ele>208.4</ele>
        <time>2024-11-20T13:24:00Z</time>
      </trkpt>
      <trkpt lat="48.1804" lon="-3.31654">
        <ele>208.4</ele>
        <time>2024-11-20T13:24:01Z</time>
      </trkpt>
      <trkpt lat="48.1804" lon="-3.31654">
        <ele>208.4</ele>
        <time>2024-11-20T13:24:02Z</time>
      </trkpt>
      <trkpt lat="48.1804" lon="-3.31653">
        <ele>208.3</ele>
        <time>2024-11-20T13:24:03Z</time>
      </trkpt>
      <trkpt lat="48.1804" lon="-3.31652">
        <ele>208.2</ele>
        <time>2024-11-20T13:24:04Z</time>
      </trkpt>
      <trkpt lat="48.1804" lon="-3.3165">
        <ele>208</ele>
        <time>2024-11-20T13:24:05Z</time>
      </trkpt>
      <trkpt lat="48.18041" lon="-3.31649">
        <ele>207.8</ele>
        <time>2024-11-20T13:24:06Z</time>
      </trkpt>
      <trkpt lat="48.18042" lon="-3.31648">
        <ele>207.6</ele>
        <time>2024-11-20T13:24:07Z</time>
      </trkpt>
      <trkpt lat="48.18042" lon="-3.31647">
        <ele>207.5</ele>
        <time>2024-11-20T13:24:08Z</time>
      </trkpt>
      <trkpt lat="48.18043" lon="-3.31646">
        <ele>207.3</ele>
        <time>2024-11-20T13:24:09Z</time>
      </trkpt>
      <trkpt lat="48.18044" lon="-3.31645">
        <ele>207.1</ele>
        <time>2024-11-20T13:24:10Z</time>
      </trkpt>
      <trkpt lat="48.18044" lon="-3.31644">
        <ele>207</ele>
        <time>2024-11-20T13:24:11Z</time>
      </trkpt>
      <trkpt lat="48.18045" lon="-3.31642">
        <ele>206.8</ele>
        <time>2024-11-20T13:24:12Z</time>
      </trkpt>
      <trkpt lat="48.18046" lon="-3.31641">
        <ele>206.6</ele>
        <time>2024-11-20T13:24:13Z</time>
      </trkpt>
      <trkpt lat="48.18046" lon="-3.3164">
        <ele>206.5</ele>
        <time>2024-11-20T13:24:14Z</time>
      </trkpt>
      <trkpt lat="48.18046" lon="-3.3164">
        <ele>206.4</ele>
        <time>2024-11-20T13:24:15Z</time>
      </trkpt>
      <trkpt lat="48.18047" lon="-3.3164">
        <ele>206.3</ele>
        <time>2024-11-20T13:24:16Z</time>
      </trkpt>
      <trkpt lat="48.18047" lon="-3.3164">
        <ele>206.3</ele>
        <time>2024-11-20T13:24:17Z</time>
      </trkpt>
      <trkpt lat="48.18048" lon="-3.31639">
        <ele>206.2</ele>
        <time>2024-11-20T13:24:18Z</time>
      </trkpt>
      <trkpt lat="48.18048" lon="-3.31639">
        <ele>206.1</ele>
        <time>2024-11-20T13:24:19Z</time>
      </trkpt>
      <trkpt lat="48.18049" lon="-3.31639">
        <ele>206</ele>
        <time>2024-11-20T13:24:20Z</time>
      </trkpt>
      <trkpt lat="48.18049" lon="-3.31639">
        <ele>205.9</ele>
        <time>2024-11-20T13:24:21Z</time>
      </trkpt>
      <trkpt lat="48.1805" lon="-3.3164">
        <ele>205.9</ele>
        <time>2024-11-20T13:24:22Z</time>
      </trkpt>
      <trkpt lat="48.18051" lon="-3.31641">
        <ele>205.9</ele>
        <time>2024-11-20T13:24:23Z</time>
      </trkpt>
      <trkpt lat="48.18051" lon="-3.31641">
        <ele>205.7</ele>
        <time>2024-11-20T13:24:24Z</time>
      </trkpt>
      <trkpt lat="48.18053" lon="-3.31641">
        <ele>205.6</ele>
        <time>2024-11-20T13:24:25Z</time>
      </trkpt>
      <trkpt lat="48.18054" lon="-3.31641">
        <ele>205.5</ele>
        <time>2024-11-20T13:24:26Z</time>
      </trkpt>
      <trkpt lat="48.18054" lon="-3.31641">
        <ele>205.4</ele>
        <time>2024-11-20T13:24:27Z</time>
      </trkpt>
      <trkpt lat="48.18055" lon="-3.31642">
        <ele>205.3</ele>
        <time>2024-11-20T13:24:28Z</time>
      </trkpt>
      <trkpt lat="48.18055" lon="-3.31642">
        <ele>205.3</ele>
        <time>2024-11-20T13:24:29Z</time>
      </trkpt>
      <trkpt lat="48.18056" lon="-3.31643">
        <ele>205.3</ele>
        <time>2024-11-20T13:24:30Z</time>
      </trkpt>
      <trkpt lat="48.18056" lon="-3.31644">
        <ele>205.3</ele>
        <time>2024-11-20T13:24:31Z</time>
      </trkpt>
      <trkpt lat="48.18057" lon="-3.31645">
        <ele>205.3</ele>
        <time>2024-11-20T13:24:32Z</time>
      </trkpt>
      <trkpt lat="48.18058" lon="-3.31646">
        <ele>205.3</ele>
        <time>2024-11-20T13:24:33Z</time>
      </trkpt>
      <trkpt lat="48.18058" lon="-3.31647">
        <ele>205.4</ele>
        <time>2024-11-20T13:24:34Z</time>
      </trkpt>
      <trkpt lat="48.18058" lon="-3.31648">
        <ele>205.5</ele>
        <time>2024-11-20T13:24:35Z</time>
      </trkpt>
      <trkpt lat="48.18058" lon="-3.31649">
        <ele>205.5</ele>
        <time>2024-11-20T13:24:36Z</time>
      </trkpt>
      <trkpt lat="48.18059" lon="-3.3165">
        <ele>205.5</ele>
        <time>2024-11-20T13:24:37Z</time>
      </trkpt>
      <trkpt lat="48.1806" lon="-3.3165">
        <ele>205.4</ele>
        <time>2024-11-20T13:24:38Z</time>
      </trkpt>
      <trkpt lat="48.18061" lon="-3.3165">
        <ele>205.4</ele>
        <time>2024-11-20T13:24:39Z</time>
      </trkpt>
      <trkpt lat="48.18061" lon="-3.3165">
        <ele>205.3</ele>
        <time>2024-11-20T13:24:40Z</time>
      </trkpt>
      <trkpt lat="48.18062" lon="-3.31649">
        <ele>205.2</ele>
        <time>2024-11-20T13:24:41Z</time>
      </trkpt>
      <trkpt lat="48.18063" lon="-3.31649">
        <ele>205.1</ele>
        <time>2024-11-20T13:24:42Z</time>
      </trkpt>
      <trkpt lat="48.18063" lon="-3.31649">
        <ele>205</ele>
        <time>2024-11-20T13:24:43Z</time>
      </trkpt>
      <trkpt lat="48.18064" lon="-3.31648">
        <ele>205</ele>
        <time>2024-11-20T13:24:44Z</time>
      </trkpt>
      <trkpt lat="48.18065" lon="-3.31648">
        <ele>204.9</ele>
        <time>2024-11-20T13:24:45Z</time>
      </trkpt>
      <trkpt lat="48.18065" lon="-3.31648">
        <ele>204.8</ele>
        <time>2024-11-20T13:24:46Z</time>
      </trkpt>
      <trkpt lat="48.18066" lon="-3.31647">
        <ele>204.7</ele>
        <time>2024-11-20T13:24:47Z</time>
      </trkpt>
      <trkpt lat="48.18066" lon="-3.31647">
        <ele>204.7</ele>
        <time>2024-11-20T13:24:48Z</time>
      </trkpt>
      <trkpt lat="48.18067" lon="-3.31647">
        <ele>204.6</ele>
        <time>2024-11-20T13:24:49Z</time>
      </trkpt>
      <trkpt lat="48.18068" lon="-3.31646">
        <ele>204.5</ele>
        <time>2024-11-20T13:24:50Z</time>
      </trkpt>
      <trkpt lat="48.18068" lon="-3.31645">
        <ele>204.4</ele>
        <time>2024-11-20T13:24:51Z</time>
      </trkpt>
      <trkpt lat="48.18069" lon="-3.31644">
        <ele>204.3</ele>
        <time>2024-11-20T13:24:52Z</time>
      </trkpt>
      <trkpt lat="48.18069" lon="-3.31643">
        <ele>204.3</ele>
        <time>2024-11-20T13:24:53Z</time>
      </trkpt>
      <trkpt lat="48.18069" lon="-3.31642">
        <ele>204.2</ele>
        <time>2024-11-20T13:24:54Z</time>
      </trkpt>
      <trkpt lat="48.18069" lon="-3.31641">
        <ele>204.2</ele>
        <time>2024-11-20T13:24:55Z</time>
      </trkpt>
      <trkpt lat="48.18069" lon="-3.3164">
        <ele>204.1</ele>
        <time>2024-11-20T13:24:56Z</time>
      </trkpt>
      <trkpt lat="48.18069" lon="-3.31639">
        <ele>204.1</ele>
        <time>2024-11-20T13:24:57Z</time>
      </trkpt>
      <trkpt lat="48.18069" lon="-3.31638">
        <ele>204</ele>
        <time>2024-11-20T13:24:58Z</time>
      </trkpt>
      <trkpt lat="48.18069" lon="-3.31636">
        <ele>203.9</ele>
        <time>2024-11-20T13:24:59Z</time>
      </trkpt>
      <trkpt lat="48.18069" lon="-3.31635">
        <ele>203.9</ele>
        <time>2024-11-20T13:25:00Z</time>
      </trkpt>
      <trkpt lat="48.1807" lon="-3.31633">
        <ele>203.8</ele>
        <time>2024-11-20T13:25:01Z</time>
      </trkpt>
      <trkpt lat="48.1807" lon="-3.31632">
        <ele>203.7</ele>
        <time>2024-11-20T13:25:02Z</time>
      </trkpt>
      <trkpt lat="48.18071" lon="-3.3163">
        <ele>203.6</ele>
        <time>2024-11-20T13:25:03Z</time>
      </trkpt>
      <trkpt lat="48.18071" lon="-3.31628">
        <ele>203.5</ele>
        <time>2024-11-20T13:25:04Z</time>
      </trkpt>
      <trkpt lat="48.18072" lon="-3.31626">
        <ele>203.4</ele>
        <time>2024-11-20T13:25:05Z</time>
      </trkpt>
      <trkpt lat="48.18072" lon="-3.31623">
        <ele>203.3</ele>
        <time>2024-11-20T13:25:06Z</time>
      </trkpt>
      <trkpt lat="48.18072" lon="-3.31622">
        <ele>203.2</ele>
        <time>2024-11-20T13:25:07Z</time>
      </trkpt>
      <trkpt lat="48.18073" lon="-3.31621">
        <ele>203.1</ele>
        <time>2024-11-20T13:25:08Z</time>
      </trkpt>
      <trkpt lat="48.18073" lon="-3.31621">
        <ele>203.1</ele>
        <time>2024-11-20T13:25:09Z</time>
      </trkpt>
      <trkpt lat="48.18073" lon="-3.31621">
        <ele>203.1</ele>
        <time>2024-11-20T13:25:10Z</time>
      </trkpt>
      <trkpt lat="48.18074" lon="-3.31621">
        <ele>203</ele>
        <time>2024-11-20T13:25:11Z</time>
      </trkpt>
      <trkpt lat="48.18075" lon="-3.31622">
        <ele>203</ele>
        <time>2024-11-20T13:25:12Z</time>
      </trkpt>
      <trkpt lat="48.18077" lon="-3.31623">
        <ele>202.9</ele>
        <time>2024-11-20T13:25:13Z</time>
      </trkpt>
      <trkpt lat="48.18078" lon="-3.31624">
        <ele>202.8</ele>
        <time>2024-11-20T13:25:14Z</time>
      </trkpt>
      <trkpt lat="48.1808" lon="-3.31624">
        <ele>202.7</ele>
        <time>2024-11-20T13:25:15Z</time>
      </trkpt>
      <trkpt lat="48.18081" lon="-3.31624">
        <ele>202.6</ele>
        <time>2024-11-20T13:25:16Z</time>
      </trkpt>
      <trkpt lat="48.18082" lon="-3.31623">
        <ele>202.5</ele>
        <time>2024-11-20T13:25:17Z</time>
      </trkpt>
      <trkpt lat="48.18083" lon="-3.31622">
        <ele>202.5</ele>
        <time>2024-11-20T13:25:18Z</time>
      </trkpt>
      <trkpt lat="48.18084" lon="-3.31621">
        <ele>202.4</ele>
        <time>2024-11-20T13:25:19Z</time>
      </trkpt>
      <trkpt lat="48.18085" lon="-3.31621">
        <ele>202.4</ele>
        <time>2024-11-20T13:25:20Z</time>
      </trkpt>
      <trkpt lat="48.18085" lon="-3.3162">
        <ele>202.5</ele>
        <time>2024-11-20T13:25:21Z</time>
      </trkpt>
      <trkpt lat="48.18086" lon="-3.3162">
        <ele>202.5</ele>
        <time>2024-11-20T13:25:22Z</time>
      </trkpt>
      <trkpt lat="48.18087" lon="-3.31619">
        <ele>202.5</ele>
        <time>2024-11-20T13:25:23Z</time>
      </trkpt>
      <trkpt lat="48.18088" lon="-3.31618">
        <ele>202.6</ele>
        <time>2024-11-20T13:25:24Z</time>
      </trkpt>
      <trkpt lat="48.18088" lon="-3.31618">
        <ele>202.6</ele>
        <time>2024-11-20T13:25:25Z</time>
      </trkpt>
      <trkpt lat="48.1809" lon="-3.31618">
        <ele>202.7</ele>
        <time>2024-11-20T13:25:26Z</time>
      </trkpt>
      <trkpt lat="48.18091" lon="-3.31618">
        <ele>202.8</ele>
        <time>2024-11-20T13:25:27Z</time>
      </trkpt>
      <trkpt lat="48.18092" lon="-3.31618">
        <ele>202.8</ele>
        <time>2024-11-20T13:25:28Z</time>
      </trkpt>
      <trkpt lat="48.18093" lon="-3.31617">
        <ele>202.9</ele>
        <time>2024-11-20T13:25:29Z</time>
      </trkpt>
      <trkpt lat="48.18094" lon="-3.31616">
        <ele>202.9</ele>
        <time>2024-11-20T13:25:30Z</time>
      </trkpt>
      <trkpt lat="48.18095" lon="-3.31614">
        <ele>202.9</ele>
        <time>2024-11-20T13:25:31Z</time>
      </trkpt>
      <trkpt lat="48.18095" lon="-3.31613">
        <ele>202.9</ele>
        <time>2024-11-20T13:25:32Z</time>
      </trkpt>
      <trkpt lat="48.18096" lon="-3.31612">
        <ele>203</ele>
        <time>2024-11-20T13:25:33Z</time>
      </trkpt>
      <trkpt lat="48.18097" lon="-3.31612">
        <ele>203</ele>
        <time>2024-11-20T13:25:34Z</time>
      </trkpt>
      <trkpt lat="48.18098" lon="-3.31611">
        <ele>203.1</ele>
        <time>2024-11-20T13:25:35Z</time>
      </trkpt>
      <trkpt lat="48.181" lon="-3.31611">
        <ele>203.2</ele>
        <time>2024-11-20T13:25:36Z</time>
      </trkpt>
      <trkpt lat="48.18101" lon="-3.31612">
        <ele>203.3</ele>
        <time>2024-11-20T13:25:37Z</time>
      </trkpt>
      <trkpt lat="48.18102" lon="-3.31612">
        <ele>203.3</ele>
        <time>2024-11-20T13:25:38Z</time>
      </trkpt>
      <trkpt lat="48.18103" lon="-3.31612">
        <ele>203.4</ele>
        <time>2024-11-20T13:25:39Z</time>
      </trkpt>
      <trkpt lat="48.18104" lon="-3.31612">
        <ele>203.5</ele>
        <time>2024-11-20T13:25:40Z</time>
      </trkpt>
      <trkpt lat="48.18104" lon="-3.31611">
        <ele>203.5</ele>
        <time>2024-11-20T13:25:41Z</time>
      </trkpt>
      <trkpt lat="48.18105" lon="-3.31611">
        <ele>203.6</ele>
        <time>2024-11-20T13:25:42Z</time>
      </trkpt>
      <trkpt lat="48.18106" lon="-3.3161">
        <ele>203.6</ele>
        <time>2024-11-20T13:25:43Z</time>
      </trkpt>
      <trkpt lat="48.18108" lon="-3.31609">
        <ele>203.7</ele>
        <time>2024-11-20T13:25:44Z</time>
      </trkpt>
      <trkpt lat="48.18109" lon="-3.31608">
        <ele>203.7</ele>
        <time>2024-11-20T13:25:45Z</time>
      </trkpt>
      <trkpt lat="48.1811" lon="-3.31607">
        <ele>203.8</ele>
        <time>2024-11-20T13:25:46Z</time>
      </trkpt>
      <trkpt lat="48.18111" lon="-3.31607">
        <ele>203.8</ele>
        <time>2024-11-20T13:25:47Z</time>
      </trkpt>
      <trkpt lat="48.18112" lon="-3.31606">
        <ele>203.9</ele>
        <time>2024-11-20T13:25:48Z</time>
      </trkpt>
      <trkpt lat="48.18113" lon="-3.31606">
        <ele>204</ele>
        <time>2024-11-20T13:25:49Z</time>
      </trkpt>
      <trkpt lat="48.18113" lon="-3.31606">
        <ele>204.1</ele>
        <time>2024-11-20T13:25:50Z</time>
      </trkpt>
      <trkpt lat="48.18114" lon="-3.31606">
        <ele>204.2</ele>
        <time>2024-11-20T13:25:51Z</time>
      </trkpt>
      <trkpt lat="48.18115" lon="-3.31606">
        <ele>204.3</ele>
        <time>2024-11-20T13:25:52Z</time>
      </trkpt>
      <trkpt lat="48.18115" lon="-3.31607">
        <ele>204.4</ele>
        <time>2024-11-20T13:25:53Z</time>
      </trkpt>
      <trkpt lat="48.18116" lon="-3.31607">
        <ele>204.4</ele>
        <time>2024-11-20T13:25:54Z</time>
      </trkpt>
      <trkpt lat="48.18116" lon="-3.31606">
        <ele>204.5</ele>
        <time>2024-11-20T13:25:55Z</time>
      </trkpt>
      <trkpt lat="48.18117" lon="-3.31606">
        <ele>204.6</ele>
        <time>2024-11-20T13:25:56Z</time>
      </trkpt>
      <trkpt lat="48.18118" lon="-3.31606">
        <ele>204.7</ele>
        <time>2024-11-20T13:25:57Z</time>
      </trkpt>
      <trkpt lat="48.18119" lon="-3.31605">
        <ele>204.8</ele>
        <time>2024-11-20T13:25:58Z</time>
      </trkpt>
      <trkpt lat="48.1812" lon="-3.31605">
        <ele>205</ele>
        <time>2024-11-20T13:25:59Z</time>
      </trkpt>
      <trkpt lat="48.1812" lon="-3.31606">
        <ele>205.1</ele>
        <time>2024-11-20T13:26:00Z</time>
      </trkpt>
      <trkpt lat="48.18121" lon="-3.31606">
        <ele>205.1</ele>
        <time>2024-11-20T13:26:01Z</time>
      </trkpt>
      <trkpt lat="48.18121" lon="-3.31606">
        <ele>205.2</ele>
        <time>2024-11-20T13:26:02Z</time>
      </trkpt>
      <trkpt lat="48.18122" lon="-3.31606">
        <ele>205.4</ele>
        <time>2024-11-20T13:26:03Z</time>
      </trkpt>
      <trkpt lat="48.18123" lon="-3.31606">
        <ele>205.5</ele>
        <time>2024-11-20T13:26:04Z</time>
      </trkpt>
      <trkpt lat="48.18124" lon="-3.31606">
        <ele>205.6</ele>
        <time>2024-11-20T13:26:05Z</time>
      </trkpt>
      <trkpt lat="48.18125" lon="-3.31606">
        <ele>205.7</ele>
        <time>2024-11-20T13:26:06Z</time>
      </trkpt>
      <trkpt lat="48.18126" lon="-3.31607">
        <ele>205.9</ele>
        <time>2024-11-20T13:26:07Z</time>
      </trkpt>
      <trkpt lat="48.18127" lon="-3.31607">
        <ele>206.1</ele>
        <time>2024-11-20T13:26:08Z</time>
      </trkpt>
      <trkpt lat="48.18128" lon="-3.31607">
        <ele>206.2</ele>
        <time>2024-11-20T13:26:09Z</time>
      </trkpt>
      <trkpt lat="48.18129" lon="-3.31608">
        <ele>206.3</ele>
        <time>2024-11-20T13:26:10Z</time>
      </trkpt>
      <trkpt lat="48.18129" lon="-3.31609">
        <ele>206.4</ele>
        <time>2024-11-20T13:26:11Z</time>
      </trkpt>
      <trkpt lat="48.1813" lon="-3.31609">
        <ele>206.6</ele>
        <time>2024-11-20T13:26:12Z</time>
      </trkpt>
      <trkpt lat="48.18131" lon="-3.3161">
        <ele>206.8</ele>
        <time>2024-11-20T13:26:13Z</time>
      </trkpt>
      <trkpt lat="48.18132" lon="-3.3161">
        <ele>207</ele>
        <time>2024-11-20T13:26:14Z</time>
      </trkpt>
      <trkpt lat="48.18134" lon="-3.3161">
        <ele>207.2</ele>
        <time>2024-11-20T13:26:15Z</time>
      </trkpt>
      <trkpt lat="48.18135" lon="-3.3161">
        <ele>207.4</ele>
        <time>2024-11-20T13:26:16Z</time>
      </trkpt>
      <trkpt lat="48.18136" lon="-3.31611">
        <ele>207.6</ele>
        <time>2024-11-20T13:26:17Z</time>
      </trkpt>
      <trkpt lat="48.18137" lon="-3.31611">
        <ele>207.8</ele>
        <time>2024-11-20T13:26:18Z</time>
      </trkpt>
      <trkpt lat="48.18138" lon="-3.31612">
        <ele>207.9</ele>
        <time>2024-11-20T13:26:19Z</time>
      </trkpt>
      <trkpt lat="48.18139" lon="-3.31614">
        <ele>208.1</ele>
        <time>2024-11-20T13:26:20Z</time>
      </trkpt>
      <trkpt lat="48.18139" lon="-3.31615">
        <ele>208.3</ele>
        <time>2024-11-20T13:26:21Z</time>
      </trkpt>
      <trkpt lat="48.1814" lon="-3.31616">
        <ele>208.5</ele>
        <time>2024-11-20T13:26:22Z</time>
      </trkpt>
      <trkpt lat="48.18141" lon="-3.31617">
        <ele>208.7</ele>
        <time>2024-11-20T13:26:23Z</time>
      </trkpt>
      <trkpt lat="48.18142" lon="-3.31618">
        <ele>208.9</ele>
        <time>2024-11-20T13:26:24Z</time>
      </trkpt>
      <trkpt lat="48.18143" lon="-3.31619">
        <ele>209.1</ele>
        <time>2024-11-20T13:26:25Z</time>
      </trkpt>
      <trkpt lat="48.18143" lon="-3.3162">
        <ele>209.3</ele>
        <time>2024-11-20T13:26:26Z</time>
      </trkpt>
      <trkpt lat="48.18144" lon="-3.31621">
        <ele>209.4</ele>
        <time>2024-11-20T13:26:27Z</time>
      </trkpt>
      <trkpt lat="48.18145" lon="-3.31621">
        <ele>209.6</ele>
        <time>2024-11-20T13:26:28Z</time>
      </trkpt>
      <trkpt lat="48.18146" lon="-3.31622">
        <ele>209.8</ele>
        <time>2024-11-20T13:26:29Z</time>
      </trkpt>
      <trkpt lat="48.18147" lon="-3.31623">
        <ele>210</ele>
        <time>2024-11-20T13:26:30Z</time>
      </trkpt>
      <trkpt lat="48.18148" lon="-3.31624">
        <ele>210.2</ele>
        <time>2024-11-20T13:26:31Z</time>
      </trkpt>
      <trkpt lat="48.18149" lon="-3.31624">
        <ele>210.4</ele>
        <time>2024-11-20T13:26:32Z</time>
      </trkpt>
      <trkpt lat="48.1815" lon="-3.31624">
        <ele>210.5</ele>
        <time>2024-11-20T13:26:33Z</time>
      </trkpt>
      <trkpt lat="48.18151" lon="-3.31625">
        <ele>210.7</ele>
        <time>2024-11-20T13:26:34Z</time>
      </trkpt>
      <trkpt lat="48.18151" lon="-3.31625">
        <ele>210.8</ele>
        <time>2024-11-20T13:26:35Z</time>
      </trkpt>
      <trkpt lat="48.18152" lon="-3.31626">
        <ele>211</ele>
        <time>2024-11-20T13:26:36Z</time>
      </trkpt>
      <trkpt lat="48.18153" lon="-3.31627">
        <ele>211.1</ele>
        <time>2024-11-20T13:26:37Z</time>
      </trkpt>
      <trkpt lat="48.18153" lon="-3.31627">
        <ele>211.2</ele>
        <time>2024-11-20T13:26:38Z</time>
      </trkpt>
      <trkpt lat="48.18154" lon="-3.31628">
        <ele>211.4</ele>
        <time>2024-11-20T13:26:39Z</time>
      </trkpt>
      <trkpt lat="48.18155" lon="-3.31629">
        <ele>211.6</ele>
        <time>2024-11-20T13:26:40Z</time>
      </trkpt>
      <trkpt lat="48.18156" lon="-3.31629">
        <ele>211.8</ele>
        <time>2024-11-20T13:26:41Z</time>
      </trkpt>
      <trkpt lat="48.18157" lon="-3.31629">
        <ele>211.9</ele>
        <time>2024-11-20T13:26:42Z</time>
      </trkpt>
      <trkpt lat="48.18158" lon="-3.31629">
        <ele>212</ele>
        <time>2024-11-20T13:26:43Z</time>
      </trkpt>
      <trkpt lat="48.18159" lon="-3.31629">
        <ele>212.2</ele>
        <time>2024-11-20T13:26:44Z</time>
      </trkpt>
      <trkpt lat="48.1816" lon="-3.31629">
        <ele>212.3</ele>
        <time>2024-11-20T13:26:45Z</time>
      </trkpt>
      <trkpt lat="48.18161" lon="-3.31628">
        <ele>212.4</ele>
        <time>2024-11-20T13:26:46Z</time>
      </trkpt>
      <trkpt lat="48.18162" lon="-3.31628">
        <ele>212.5</ele>
        <time>2024-11-20T13:26:47Z</time>
      </trkpt>
      <trkpt lat="48.18163" lon="-3.31628">
        <ele>212.6</ele>
        <time>2024-11-20T13:26:48Z</time>
      </trkpt>
      <trkpt lat="48.18163" lon="-3.31628">
        <ele>212.7</ele>
        <time>2024-11-20T13:26:49Z</time>
      </trkpt>
      <trkpt lat="48.18164" lon="-3.31627">
        <ele>212.8</ele>
        <time>2024-11-20T13:26:50Z</time>
      </trkpt>
      <trkpt lat="48.18165" lon="-3.31627">
        <ele>212.8</ele>
        <time>2024-11-20T13:26:51Z</time>
      </trkpt>
      <trkpt lat="48.18166" lon="-3.31627">
        <ele>213</ele>
        <time>2024-11-20T13:26:52Z</time>
      </trkpt>
      <trkpt lat="48.18167" lon="-3.31626">
        <ele>213.1</ele>
        <time>2024-11-20T13:26:53Z</time>
      </trkpt>
      <trkpt lat="48.18168" lon="-3.31626">
        <ele>213.1</ele>
        <time>2024-11-20T13:26:54Z</time>
      </trkpt>
      <trkpt lat="48.18169" lon="-3.31626">
        <ele>213.1</ele>
        <time>2024-11-20T13:26:55Z</time>
      </trkpt>
      <trkpt lat="48.1817" lon="-3.31626">
        <ele>213.1</ele>
        <time>2024-11-20T13:26:56Z</time>
      </trkpt>
      <trkpt lat="48.1817" lon="-3.31626">
        <ele>213.1</ele>
        <time>2024-11-20T13:26:57Z</time>
      </trkpt>
      <trkpt lat="48.18171" lon="-3.31626">
        <ele>213.1</ele>
        <time>2024-11-20T13:26:58Z</time>
      </trkpt>
      <trkpt lat="48.18172" lon="-3.31625">
        <ele>213.1</ele>
        <time>2024-11-20T13:26:59Z</time>
      </trkpt>
      <trkpt lat="48.18173" lon="-3.31625">
        <ele>213.1</ele>
        <time>2024-11-20T13:27:00Z</time>
      </trkpt>
      <trkpt lat="48.18174" lon="-3.31625">
        <ele>213.1</ele>
        <time>2024-11-20T13:27:01Z</time>
      </trkpt>
      <trkpt lat="48.18175" lon="-3.31625">
        <ele>213.2</ele>
        <time>2024-11-20T13:27:02Z</time>
      </trkpt>
      <trkpt lat="48.18177" lon="-3.31625">
        <ele>213.2</ele>
        <time>2024-11-20T13:27:03Z</time>
      </trkpt>
      <trkpt lat="48.18178" lon="-3.31625">
        <ele>213.2</ele>
        <time>2024-11-20T13:27:04Z</time>
      </trkpt>
      <trkpt lat="48.18179" lon="-3.31625">
        <ele>213.2</ele>
        <time>2024-11-20T13:27:05Z</time>
      </trkpt>
      <trkpt lat="48.1818" lon="-3.31625">
        <ele>213.2</ele>
        <time>2024-11-20T13:27:06Z</time>
      </trkpt>
      <trkpt lat="48.18181" lon="-3.31624">
        <ele>213.2</ele>
        <time>2024-11-20T13:27:07Z</time>
      </trkpt>
      <trkpt lat="48.18182" lon="-3.31624">
        <ele>213.2</ele>
        <time>2024-11-20T13:27:08Z</time>
      </trkpt>
      <trkpt lat="48.18182" lon="-3.31623">
        <ele>213.2</ele>
        <time>2024-11-20T13:27:09Z</time>
      </trkpt>
      <trkpt lat="48.18184" lon="-3.31623">
        <ele>213.2</ele>
        <time>2024-11-20T13:27:10Z</time>
      </trkpt>
      <trkpt lat="48.18185" lon="-3.31623">
        <ele>213.2</ele>
        <time>2024-11-20T13:27:11Z</time>
      </trkpt>
      <trkpt lat="48.18185" lon="-3.31623">
        <ele>213.2</ele>
        <time>2024-11-20T13:27:12Z</time>
      </trkpt>
      <trkpt lat="48.18186" lon="-3.31623">
        <ele>213.2</ele>
        <time>2024-11-20T13:27:13Z</time>
      </trkpt>
      <trkpt lat="48.18187" lon="-3.31622">
        <ele>213.3</ele>
        <time>2024-11-20T13:27:14Z</time>
      </trkpt>
      <trkpt lat="48.18188" lon="-3.31623">
        <ele>213.3</ele>
        <time>2024-11-20T13:27:15Z</time>
      </trkpt>
      <trkpt lat="48.1819" lon="-3.31622">
        <ele>213.3</ele>
        <time>2024-11-20T13:27:16Z</time>
      </trkpt>
      <trkpt lat="48.18191" lon="-3.31622">
        <ele>213.3</ele>
        <time>2024-11-20T13:27:17Z</time>
      </trkpt>
      <trkpt lat="48.18192" lon="-3.31623">
        <ele>213.4</ele>
        <time>2024-11-20T13:27:18Z</time>
      </trkpt>
      <trkpt lat="48.18193" lon="-3.31623">
        <ele>213.4</ele>
        <time>2024-11-20T13:27:19Z</time>
      </trkpt>
      <trkpt lat="48.18194" lon="-3.31623">
        <ele>213.4</ele>
        <time>2024-11-20T13:27:20Z</time>
      </trkpt>
      <trkpt lat="48.18195" lon="-3.31623">
        <ele>213.4</ele>
        <time>2024-11-20T13:27:21Z</time>
      </trkpt>
      <trkpt lat="48.18196" lon="-3.31623">
        <ele>213.4</ele>
        <time>2024-11-20T13:27:22Z</time>
      </trkpt>
      <trkpt lat="48.18197" lon="-3.31622">
        <ele>213.4</ele>
        <time>2024-11-20T13:27:23Z</time>
      </trkpt>
      <trkpt lat="48.18198" lon="-3.31622">
        <ele>213.4</ele>
        <time>2024-11-20T13:27:24Z</time>
      </trkpt>
      <trkpt lat="48.18199" lon="-3.31622">
        <ele>213.4</ele>
        <time>2024-11-20T13:27:25Z</time>
      </trkpt>
      <trkpt lat="48.182" lon="-3.31622">
        <ele>213.4</ele>
        <time>2024-11-20T13:27:26Z</time>
      </trkpt>
      <trkpt lat="48.18202" lon="-3.31622">
        <ele>213.4</ele>
        <time>2024-11-20T13:27:27Z</time>
      </trkpt>
      <trkpt lat="48.18203" lon="-3.31623">
        <ele>213.4</ele>
        <time>2024-11-20T13:27:28Z</time>
      </trkpt>
      <trkpt lat="48.18204" lon="-3.31623">
        <ele>213.4</ele>
        <time>2024-11-20T13:27:29Z</time>
      </trkpt>
      <trkpt lat="48.18205" lon="-3.31622">
        <ele>213.4</ele>
        <time>2024-11-20T13:27:30Z</time>
      </trkpt>
      <trkpt lat="48.18206" lon="-3.31621">
        <ele>213.4</ele>
        <time>2024-11-20T13:27:31Z</time>
      </trkpt>
      <trkpt lat="48.18207" lon="-3.31621">
        <ele>213.3</ele>
        <time>2024-11-20T13:27:32Z</time>
      </trkpt>
      <trkpt lat="48.18208" lon="-3.3162">
        <ele>213.3</ele>
        <time>2024-11-20T13:27:33Z</time>
      </trkpt>
      <trkpt lat="48.18209" lon="-3.3162">
        <ele>213.3</ele>
        <time>2024-11-20T13:27:34Z</time>
      </trkpt>
      <trkpt lat="48.1821" lon="-3.3162">
        <ele>213.3</ele>
        <time>2024-11-20T13:27:35Z</time>
      </trkpt>
      <trkpt lat="48.18211" lon="-3.31619">
        <ele>213.3</ele>
        <time>2024-11-20T13:27:36Z</time>
      </trkpt>
      <trkpt lat="48.18212" lon="-3.31619">
        <ele>213.3</ele>
        <time>2024-11-20T13:27:37Z</time>
      </trkpt>
      <trkpt lat="48.18213" lon="-3.31618">
        <ele>213.2</ele>
        <time>2024-11-20T13:27:38Z</time>
      </trkpt>
      <trkpt lat="48.18215" lon="-3.31618">
        <ele>213.2</ele>
        <time>2024-11-20T13:27:39Z</time>
      </trkpt>
      <trkpt lat="48.18215" lon="-3.31618">
        <ele>213.2</ele>
        <time>2024-11-20T13:27:40Z</time>
      </trkpt>
      <trkpt lat="48.18217" lon="-3.31618">
        <ele>213.2</ele>
        <time>2024-11-20T13:27:41Z</time>
      </trkpt>
      <trkpt lat="48.18218" lon="-3.31618">
        <ele>213.2</ele>
        <time>2024-11-20T13:27:42Z</time>
      </trkpt>
      <trkpt lat="48.18219" lon="-3.31617">
        <ele>213.2</ele>
        <time>2024-11-20T13:27:43Z</time>
      </trkpt>
      <trkpt lat="48.18221" lon="-3.31617">
        <ele>213.2</ele>
        <time>2024-11-20T13:27:44Z</time>
      </trkpt>
      <trkpt lat="48.18222" lon="-3.31617">
        <ele>213.2</ele>
        <time>2024-11-20T13:27:45Z</time>
      </trkpt>
      <trkpt lat="48.18223" lon="-3.31617">
        <ele>213.2</ele>
        <time>2024-11-20T13:27:46Z</time>
      </trkpt>
      <trkpt lat="48.18223" lon="-3.31617">
        <ele>213.2</ele>
        <time>2024-11-20T13:27:47Z</time>
      </trkpt>
      <trkpt lat="48.18224" lon="-3.31617">
        <ele>213.3</ele>
        <time>2024-11-20T13:27:48Z</time>
      </trkpt>
      <trkpt lat="48.18224" lon="-3.31617">
        <ele>213.3</ele>
        <time>2024-11-20T13:27:49Z</time>
      </trkpt>
      <trkpt lat="48.18224" lon="-3.31617">
        <ele>213.3</ele>
        <time>2024-11-20T13:27:50Z</time>
      </trkpt>
      <trkpt lat="48.18226" lon="-3.31617">
        <ele>213.3</ele>
        <time>2024-11-20T13:27:51Z</time>
      </trkpt>
      <trkpt lat="48.18227" lon="-3.31617">
        <ele>213.4</ele>
        <time>2024-11-20T13:27:52Z</time>
      </trkpt>
      <trkpt lat="48.18229" lon="-3.31617">
        <ele>213.4</ele>
        <time>2024-11-20T13:27:53Z</time>
      </trkpt>
      <trkpt lat="48.1823" lon="-3.31617">
        <ele>213.4</ele>
        <time>2024-11-20T13:27:54Z</time>
      </trkpt>
      <trkpt lat="48.18231" lon="-3.31616">
        <ele>213.4</ele>
        <time>2024-11-20T13:27:55Z</time>
      </trkpt>
      <trkpt lat="48.18232" lon="-3.31616">
        <ele>213.5</ele>
        <time>2024-11-20T13:27:56Z</time>
      </trkpt>
      <trkpt lat="48.18233" lon="-3.31615">
        <ele>213.5</ele>
        <time>2024-11-20T13:27:57Z</time>
      </trkpt>
      <trkpt lat="48.18235" lon="-3.31615">
        <ele>213.5</ele>
        <time>2024-11-20T13:27:58Z</time>
      </trkpt>
      <trkpt lat="48.18237" lon="-3.31614">
        <ele>213.6</ele>
        <time>2024-11-20T13:27:59Z</time>
      </trkpt>
      <trkpt lat="48.18238" lon="-3.31614">
        <ele>213.6</ele>
        <time>2024-11-20T13:28:00Z</time>
      </trkpt>
      <trkpt lat="48.18239" lon="-3.31613">
        <ele>213.6</ele>
        <time>2024-11-20T13:28:01Z</time>
      </trkpt>
      <trkpt lat="48.1824" lon="-3.31612">
        <ele>213.6</ele>
        <time>2024-11-20T13:28:02Z</time>
      </trkpt>
      <trkpt lat="48.1824" lon="-3.31612">
        <ele>213.7</ele>
        <time>2024-11-20T13:28:03Z</time>
      </trkpt>
      <trkpt lat="48.18241" lon="-3.31612">
        <ele>213.7</ele>
        <time>2024-11-20T13:28:04Z</time>
      </trkpt>
      <trkpt lat="48.18241" lon="-3.31612">
        <ele>213.7</ele>
        <time>2024-11-20T13:28:05Z</time>
      </trkpt>
      <trkpt lat="48.18242" lon="-3.31612">
        <ele>213.7</ele>
        <time>2024-11-20T13:28:06Z</time>
      </trkpt>
      <trkpt lat="48.18243" lon="-3.31612">
        <ele>213.8</ele>
        <time>2024-11-20T13:28:07Z</time>
      </trkpt>
      <trkpt lat="48.18245" lon="-3.31612">
        <ele>213.8</ele>
        <time>2024-11-20T13:28:08Z</time>
      </trkpt>
      <trkpt lat="48.18246" lon="-3.31611">
        <ele>213.9</ele>
        <time>2024-11-20T13:28:09Z</time>
      </trkpt>
      <trkpt lat="48.18247" lon="-3.31611">
        <ele>213.9</ele>
        <time>2024-11-20T13:28:10Z</time>
      </trkpt>
      <trkpt lat="48.18249" lon="-3.31611">
        <ele>214</ele>
        <time>2024-11-20T13:28:11Z</time>
      </trkpt>
      <trkpt lat="48.1825" lon="-3.31611">
        <ele>214</ele>
        <time>2024-11-20T13:28:12Z</time>
      </trkpt>
      <trkpt lat="48.18252" lon="-3.3161">
        <ele>214.1</ele>
        <time>2024-11-20T13:28:13Z</time>
      </trkpt>
      <trkpt lat="48.18253" lon="-3.31609">
        <ele>214.1</ele>
        <time>2024-11-20T13:28:14Z</time>
      </trkpt>
      <trkpt lat="48.18254" lon="-3.31609">
        <ele>214.1</ele>
        <time>2024-11-20T13:28:15Z</time>
      </trkpt>
      <trkpt lat="48.18255" lon="-3.31608">
        <ele>214.2</ele>
        <time>2024-11-20T13:28:16Z</time>
      </trkpt>
      <trkpt lat="48.18257" lon="-3.31608">
        <ele>214.2</ele>
        <time>2024-11-20T13:28:17Z</time>
      </trkpt>
      <trkpt lat="48.18258" lon="-3.31607">
        <ele>214.3</ele>
        <time>2024-11-20T13:28:18Z</time>
      </trkpt>
      <trkpt lat="48.18259" lon="-3.31607">
        <ele>214.3</ele>
        <time>2024-11-20T13:28:19Z</time>
      </trkpt>
      <trkpt lat="48.1826" lon="-3.31605">
        <ele>214.3</ele>
        <time>2024-11-20T13:28:20Z</time>
      </trkpt>
      <trkpt lat="48.1826" lon="-3.31604">
        <ele>214.4</ele>
        <time>2024-11-20T13:28:21Z</time>
      </trkpt>
      <trkpt lat="48.1826" lon="-3.31603">
        <ele>214.3</ele>
        <time>2024-11-20T13:28:22Z</time>
      </trkpt>
      <trkpt lat="48.18259" lon="-3.31601">
        <ele>214.3</ele>
        <time>2024-11-20T13:28:23Z</time>
      </trkpt>
      <trkpt lat="48.18258" lon="-3.31599">
        <ele>214.3</ele>
        <time>2024-11-20T13:28:24Z</time>
      </trkpt>
      <trkpt lat="48.18256" lon="-3.31599">
        <ele>214.2</ele>
        <time>2024-11-20T13:28:25Z</time>
      </trkpt>
      <trkpt lat="48.18255" lon="-3.31598">
        <ele>214.2</ele>
        <time>2024-11-20T13:28:26Z</time>
      </trkpt>
      <trkpt lat="48.18255" lon="-3.31597">
        <ele>214.2</ele>
        <time>2024-11-20T13:28:27Z</time>
      </trkpt>
      <trkpt lat="48.18254" lon="-3.31597">
        <ele>214.1</ele>
        <time>2024-11-20T13:28:28Z</time>
      </trkpt>
      <trkpt lat="48.18253" lon="-3.31596">
        <ele>214.1</ele>
        <time>2024-11-20T13:28:29Z</time>
      </trkpt>
      <trkpt lat="48.18252" lon="-3.31596">
        <ele>214.1</ele>
        <time>2024-11-20T13:28:30Z</time>
      </trkpt>
      <trkpt lat="48.18251" lon="-3.31595">
        <ele>214</ele>
        <time>2024-11-20T13:28:31Z</time>
      </trkpt>
      <trkpt lat="48.18251" lon="-3.31594">
        <ele>214</ele>
        <time>2024-11-20T13:28:32Z</time>
      </trkpt>
      <trkpt lat="48.1825" lon="-3.31593">
        <ele>214</ele>
        <time>2024-11-20T13:28:33Z</time>
      </trkpt>
      <trkpt lat="48.18249" lon="-3.31591">
        <ele>213.9</ele>
        <time>2024-11-20T13:28:34Z</time>
      </trkpt>
      <trkpt lat="48.18249" lon="-3.3159">
        <ele>213.9</ele>
        <time>2024-11-20T13:28:35Z</time>
      </trkpt>
      <trkpt lat="48.18248" lon="-3.31588">
        <ele>213.9</ele>
        <time>2024-11-20T13:28:36Z</time>
      </trkpt>
      <trkpt lat="48.18248" lon="-3.31587">
        <ele>213.9</ele>
        <time>2024-11-20T13:28:37Z</time>
      </trkpt>
      <trkpt lat="48.18248" lon="-3.31585">
        <ele>213.8</ele>
        <time>2024-11-20T13:28:38Z</time>
      </trkpt>
      <trkpt lat="48.18247" lon="-3.31582">
        <ele>213.8</ele>
        <time>2024-11-20T13:28:39Z</time>
      </trkpt>
      <trkpt lat="48.18247" lon="-3.31581">
        <ele>213.7</ele>
        <time>2024-11-20T13:28:40Z</time>
      </trkpt>
      <trkpt lat="48.18246" lon="-3.31579">
        <ele>213.6</ele>
        <time>2024-11-20T13:28:41Z</time>
      </trkpt>
      <trkpt lat="48.18246" lon="-3.31577">
        <ele>213.5</ele>
        <time>2024-11-20T13:28:42Z</time>
      </trkpt>
      <trkpt lat="48.18246" lon="-3.31575">
        <ele>213.4</ele>
        <time>2024-11-20T13:28:43Z</time>
      </trkpt>
      <trkpt lat="48.18245" lon="-3.31573">
        <ele>213.3</ele>
        <time>2024-11-20T13:28:44Z</time>
      </trkpt>
      <trkpt lat="48.18245" lon="-3.31572">
        <ele>213.2</ele>
        <time>2024-11-20T13:28:45Z</time>
      </trkpt>
      <trkpt lat="48.18244" lon="-3.3157">
        <ele>213.1</ele>
        <time>2024-11-20T13:28:46Z</time>
      </trkpt>
      <trkpt lat="48.18243" lon="-3.31568">
        <ele>213</ele>
        <time>2024-11-20T13:28:47Z</time>
      </trkpt>
      <trkpt lat="48.18243" lon="-3.31567">
        <ele>212.9</ele>
        <time>2024-11-20T13:28:48Z</time>
      </trkpt>
      <trkpt lat="48.18242" lon="-3.31566">
        <ele>212.8</ele>
        <time>2024-11-20T13:28:49Z</time>
      </trkpt>
      <trkpt lat="48.18241" lon="-3.31565">
        <ele>212.7</ele>
        <time>2024-11-20T13:28:50Z</time>
      </trkpt>
      <trkpt lat="48.1824" lon="-3.31564">
        <ele>212.6</ele>
        <time>2024-11-20T13:28:51Z</time>
      </trkpt>
      <trkpt lat="48.1824" lon="-3.31564">
        <ele>212.5</ele>
        <time>2024-11-20T13:28:52Z</time>
      </trkpt>
      <trkpt lat="48.18239" lon="-3.31563">
        <ele>212.5</ele>
        <time>2024-11-20T13:28:53Z</time>
      </trkpt>
      <trkpt lat="48.18238" lon="-3.31562">
        <ele>212.4</ele>
        <time>2024-11-20T13:28:54Z</time>
      </trkpt>
      <trkpt lat="48.18238" lon="-3.3156">
        <ele>212.3</ele>
        <time>2024-11-20T13:28:55Z</time>
      </trkpt>
      <trkpt lat="48.18238" lon="-3.31559">
        <ele>212.2</ele>
        <time>2024-11-20T13:28:56Z</time>
      </trkpt>
      <trkpt lat="48.18237" lon="-3.31558">
        <ele>212.2</ele>
        <time>2024-11-20T13:28:57Z</time>
      </trkpt>
      <trkpt lat="48.18237" lon="-3.31557">
        <ele>212.2</ele>
        <time>2024-11-20T13:28:58Z</time>
      </trkpt>
      <trkpt lat="48.18237" lon="-3.31556">
        <ele>212.1</ele>
        <time>2024-11-20T13:28:59Z</time>
      </trkpt>
      <trkpt lat="48.18237" lon="-3.31554">
        <ele>212</ele>
        <time>2024-11-20T13:29:00Z</time>
      </trkpt>
      <trkpt lat="48.18237" lon="-3.31553">
        <ele>212</ele>
        <time>2024-11-20T13:29:01Z</time>
      </trkpt>
      <trkpt lat="48.18236" lon="-3.31551">
        <ele>212</ele>
        <time>2024-11-20T13:29:02Z</time>
      </trkpt>
      <trkpt lat="48.18236" lon="-3.31549">
        <ele>212</ele>
        <time>2024-11-20T13:29:03Z</time>
      </trkpt>
      <trkpt lat="48.18236" lon="-3.31548">
        <ele>212</ele>
        <time>2024-11-20T13:29:04Z</time>
      </trkpt>
      <trkpt lat="48.18236" lon="-3.31547">
        <ele>212</ele>
        <time>2024-11-20T13:29:05Z</time>
      </trkpt>
      <trkpt lat="48.18235" lon="-3.31545">
        <ele>211.9</ele>
        <time>2024-11-20T13:29:06Z</time>
      </trkpt>
      <trkpt lat="48.18235" lon="-3.31543">
        <ele>211.9</ele>
        <time>2024-11-20T13:29:07Z</time>
      </trkpt>
      <trkpt lat="48.18234" lon="-3.31541">
        <ele>211.9</ele>
        <time>2024-11-20T13:29:08Z</time>
      </trkpt>
      <trkpt lat="48.18234" lon="-3.3154">
        <ele>211.8</ele>
        <time>2024-11-20T13:29:09Z</time>
      </trkpt>
      <trkpt lat="48.18233" lon="-3.31539">
        <ele>211.8</ele>
        <time>2024-11-20T13:29:10Z</time>
      </trkpt>
      <trkpt lat="48.18233" lon="-3.31537">
        <ele>211.7</ele>
        <time>2024-11-20T13:29:11Z</time>
      </trkpt>
      <trkpt lat="48.18232" lon="-3.31535">
        <ele>211.7</ele>
        <time>2024-11-20T13:29:12Z</time>
      </trkpt>
      <trkpt lat="48.18231" lon="-3.31533">
        <ele>211.6</ele>
        <time>2024-11-20T13:29:13Z</time>
      </trkpt>
      <trkpt lat="48.1823" lon="-3.31532">
        <ele>211.6</ele>
        <time>2024-11-20T13:29:14Z</time>
      </trkpt>
      <trkpt lat="48.1823" lon="-3.31531">
        <ele>211.5</ele>
        <time>2024-11-20T13:29:15Z</time>
      </trkpt>
      <trkpt lat="48.18229" lon="-3.31529">
        <ele>211.5</ele>
        <time>2024-11-20T13:29:16Z</time>
      </trkpt>
      <trkpt lat="48.18228" lon="-3.31528">
        <ele>211.4</ele>
        <time>2024-11-20T13:29:17Z</time>
      </trkpt>
      <trkpt lat="48.18227" lon="-3.31527">
        <ele>211.3</ele>
        <time>2024-11-20T13:29:18Z</time>
      </trkpt>
      <trkpt lat="48.18227" lon="-3.31526">
        <ele>211.3</ele>
        <time>2024-11-20T13:29:19Z</time>
      </trkpt>
      <trkpt lat="48.18226" lon="-3.31525">
        <ele>211.2</ele>
        <time>2024-11-20T13:29:20Z</time>
      </trkpt>
      <trkpt lat="48.18226" lon="-3.31524">
        <ele>211.1</ele>
        <time>2024-11-20T13:29:21Z</time>
      </trkpt>
      <trkpt lat="48.18225" lon="-3.31522">
        <ele>211</ele>
        <time>2024-11-20T13:29:22Z</time>
      </trkpt>
      <trkpt lat="48.18225" lon="-3.31521">
        <ele>210.9</ele>
        <time>2024-11-20T13:29:23Z</time>
      </trkpt>
      <trkpt lat="48.18224" lon="-3.31519">
        <ele>210.8</ele>
        <time>2024-11-20T13:29:24Z</time>
      </trkpt>
      <trkpt lat="48.18223" lon="-3.31518">
        <ele>210.7</ele>
        <time>2024-11-20T13:29:25Z</time>
      </trkpt>
      <trkpt lat="48.18222" lon="-3.31517">
        <ele>210.6</ele>
        <time>2024-11-20T13:29:26Z</time>
      </trkpt>
      <trkpt lat="48.18221" lon="-3.31516">
        <ele>210.5</ele>
        <time>2024-11-20T13:29:27Z</time>
      </trkpt>
      <trkpt lat="48.1822" lon="-3.31514">
        <ele>210.3</ele>
        <time>2024-11-20T13:29:28Z</time>
      </trkpt>
      <trkpt lat="48.18219" lon="-3.31513">
        <ele>210.2</ele>
        <time>2024-11-20T13:29:29Z</time>
      </trkpt>
      <trkpt lat="48.18218" lon="-3.31511">
        <ele>210</ele>
        <time>2024-11-20T13:29:30Z</time>
      </trkpt>
      <trkpt lat="48.18217" lon="-3.3151">
        <ele>209.9</ele>
        <time>2024-11-20T13:29:31Z</time>
      </trkpt>
      <trkpt lat="48.18217" lon="-3.31508">
        <ele>209.8</ele>
        <time>2024-11-20T13:29:32Z</time>
      </trkpt>
      <trkpt lat="48.18216" lon="-3.31506">
        <ele>209.7</ele>
        <time>2024-11-20T13:29:33Z</time>
      </trkpt>
      <trkpt lat="48.18216" lon="-3.31504">
        <ele>209.6</ele>
        <time>2024-11-20T13:29:34Z</time>
      </trkpt>
      <trkpt lat="48.18215" lon="-3.31502">
        <ele>209.5</ele>
        <time>2024-11-20T13:29:35Z</time>
      </trkpt>
      <trkpt lat="48.18215" lon="-3.315">
        <ele>209.4</ele>
        <time>2024-11-20T13:29:36Z</time>
      </trkpt>
      <trkpt lat="48.18214" lon="-3.31498">
        <ele>209.4</ele>
        <time>2024-11-20T13:29:37Z</time>
      </trkpt>
      <trkpt lat="48.18214" lon="-3.31497">
        <ele>209.4</ele>
        <time>2024-11-20T13:29:38Z</time>
      </trkpt>
      <trkpt lat="48.18213" lon="-3.31496">
        <ele>209.3</ele>
        <time>2024-11-20T13:29:39Z</time>
      </trkpt>
      <trkpt lat="48.18213" lon="-3.31494">
        <ele>209.3</ele>
        <time>2024-11-20T13:29:40Z</time>
      </trkpt>
      <trkpt lat="48.18212" lon="-3.31493">
        <ele>209.2</ele>
        <time>2024-11-20T13:29:41Z</time>
      </trkpt>
      <trkpt lat="48.18212" lon="-3.31492">
        <ele>209.1</ele>
        <time>2024-11-20T13:29:42Z</time>
      </trkpt>
      <trkpt lat="48.18211" lon="-3.31491">
        <ele>209.1</ele>
        <time>2024-11-20T13:29:43Z</time>
      </trkpt>
      <trkpt lat="48.1821" lon="-3.31489">
        <ele>209</ele>
        <time>2024-11-20T13:29:44Z</time>
      </trkpt>
      <trkpt lat="48.1821" lon="-3.31488">
        <ele>208.9</ele>
        <time>2024-11-20T13:29:45Z</time>
      </trkpt>
      <trkpt lat="48.18209" lon="-3.31486">
        <ele>208.8</ele>
        <time>2024-11-20T13:29:46Z</time>
      </trkpt>
      <trkpt lat="48.18209" lon="-3.31484">
        <ele>208.7</ele>
        <time>2024-11-20T13:29:47Z</time>
      </trkpt>
      <trkpt lat="48.18208" lon="-3.31483">
        <ele>208.7</ele>
        <time>2024-11-20T13:29:48Z</time>
      </trkpt>
      <trkpt lat="48.18208" lon="-3.31483">
        <ele>208.6</ele>
        <time>2024-11-20T13:29:49Z</time>
      </trkpt>
      <trkpt lat="48.18207" lon="-3.31481">
        <ele>208.5</ele>
        <time>2024-11-20T13:29:50Z</time>
      </trkpt>
      <trkpt lat="48.18207" lon="-3.3148">
        <ele>208.5</ele>
        <time>2024-11-20T13:29:51Z</time>
      </trkpt>
      <trkpt lat="48.18206" lon="-3.31478">
        <ele>208.4</ele>
        <time>2024-11-20T13:29:52Z</time>
      </trkpt>
      <trkpt lat="48.18206" lon="-3.31477">
        <ele>208.3</ele>
        <time>2024-11-20T13:29:53Z</time>
      </trkpt>
      <trkpt lat="48.18205" lon="-3.31475">
        <ele>208.2</ele>
        <time>2024-11-20T13:29:54Z</time>
      </trkpt>
      <trkpt lat="48.18205" lon="-3.31474">
        <ele>208.2</ele>
        <time>2024-11-20T13:29:55Z</time>
      </trkpt>
      <trkpt lat="48.18205" lon="-3.31473">
        <ele>208.2</ele>
        <time>2024-11-20T13:29:56Z</time>
      </trkpt>
      <trkpt lat="48.18205" lon="-3.31472">
        <ele>208.1</ele>
        <time>2024-11-20T13:29:57Z</time>
      </trkpt>
      <trkpt lat="48.18205" lon="-3.3147">
        <ele>208.1</ele>
        <time>2024-11-20T13:29:58Z</time>
      </trkpt>
      <trkpt lat="48.18205" lon="-3.31469">
        <ele>208.1</ele>
        <time>2024-11-20T13:29:59Z</time>
      </trkpt>
      <trkpt lat="48.18205" lon="-3.31467">
        <ele>208.1</ele>
        <time>2024-11-20T13:30:00Z</time>
      </trkpt>
      <trkpt lat="48.18205" lon="-3.31465">
        <ele>208.1</ele>
        <time>2024-11-20T13:30:01Z</time>
      </trkpt>
      <trkpt lat="48.18204" lon="-3.31464">
        <ele>208</ele>
        <time>2024-11-20T13:30:02Z</time>
      </trkpt>
      <trkpt lat="48.18204" lon="-3.31462">
        <ele>208</ele>
        <time>2024-11-20T13:30:03Z</time>
      </trkpt>
      <trkpt lat="48.18204" lon="-3.31461">
        <ele>208</ele>
        <time>2024-11-20T13:30:04Z</time>
      </trkpt>
      <trkpt lat="48.18203" lon="-3.31459">
        <ele>208</ele>
        <time>2024-11-20T13:30:05Z</time>
      </trkpt>
      <trkpt lat="48.18203" lon="-3.31457">
        <ele>207.9</ele>
        <time>2024-11-20T13:30:06Z</time>
      </trkpt>
      <trkpt lat="48.18203" lon="-3.31456">
        <ele>207.9</ele>
        <time>2024-11-20T13:30:07Z</time>
      </trkpt>
      <trkpt lat="48.18202" lon="-3.31455">
        <ele>207.8</ele>
        <time>2024-11-20T13:30:08Z</time>
      </trkpt>
      <trkpt lat="48.18201" lon="-3.31453">
        <ele>207.8</ele>
        <time>2024-11-20T13:30:09Z</time>
      </trkpt>
      <trkpt lat="48.18201" lon="-3.31452">
        <ele>207.7</ele>
        <time>2024-11-20T13:30:10Z</time>
      </trkpt>
      <trkpt lat="48.182" lon="-3.31451">
        <ele>207.6</ele>
        <time>2024-11-20T13:30:11Z</time>
      </trkpt>
      <trkpt lat="48.182" lon="-3.31449">
        <ele>207.5</ele>
        <time>2024-11-20T13:30:12Z</time>
      </trkpt>
      <trkpt lat="48.18199" lon="-3.31448">
        <ele>207.5</ele>
        <time>2024-11-20T13:30:13Z</time>
      </trkpt>
      <trkpt lat="48.18198" lon="-3.31446">
        <ele>207.4</ele>
        <time>2024-11-20T13:30:14Z</time>
      </trkpt>
      <trkpt lat="48.18198" lon="-3.31445">
        <ele>207.4</ele>
        <time>2024-11-20T13:30:15Z</time>
      </trkpt>
      <trkpt lat="48.18198" lon="-3.31444">
        <ele>207.3</ele>
        <time>2024-11-20T13:30:16Z</time>
      </trkpt>
      <trkpt lat="48.18197" lon="-3.31443">
        <ele>207.3</ele>
        <time>2024-11-20T13:30:17Z</time>
      </trkpt>
      <trkpt lat="48.18197" lon="-3.31442">
        <ele>207.3</ele>
        <time>2024-11-20T13:30:18Z</time>
      </trkpt>
      <trkpt lat="48.18197" lon="-3.3144">
        <ele>207.2</ele>
        <time>2024-11-20T13:30:19Z</time>
      </trkpt>
      <trkpt lat="48.18196" lon="-3.31439">
        <ele>207.2</ele>
        <time>2024-11-20T13:30:20Z</time>
      </trkpt>
      <trkpt lat="48.18196" lon="-3.31438">
        <ele>207.1</ele>
        <time>2024-11-20T13:30:21Z</time>
      </trkpt>
      <trkpt lat="48.18195" lon="-3.31436">
        <ele>207</ele>
        <time>2024-11-20T13:30:22Z</time>
      </trkpt>
      <trkpt lat="48.18194" lon="-3.31435">
        <ele>207</ele>
        <time>2024-11-20T13:30:23Z</time>
      </trkpt>
      <trkpt lat="48.18194" lon="-3.31433">
        <ele>206.9</ele>
        <time>2024-11-20T13:30:24Z</time>
      </trkpt>
      <trkpt lat="48.18193" lon="-3.31431">
        <ele>206.8</ele>
        <time>2024-11-20T13:30:25Z</time>
      </trkpt>
      <trkpt lat="48.18193" lon="-3.31429">
        <ele>206.8</ele>
        <time>2024-11-20T13:30:26Z</time>
      </trkpt>
      <trkpt lat="48.18192" lon="-3.31427">
        <ele>206.7</ele>
        <time>2024-11-20T13:30:27Z</time>
      </trkpt>
      <trkpt lat="48.18191" lon="-3.31425">
        <ele>206.6</ele>
        <time>2024-11-20T13:30:28Z</time>
      </trkpt>
      <trkpt lat="48.18191" lon="-3.31424">
        <ele>206.5</ele>
        <time>2024-11-20T13:30:29Z</time>
      </trkpt>
      <trkpt lat="48.18191" lon="-3.31423">
        <ele>206.4</ele>
        <time>2024-11-20T13:30:30Z</time>
      </trkpt>
      <trkpt lat="48.1819" lon="-3.31422">
        <ele>206.4</ele>
        <time>2024-11-20T13:30:31Z</time>
      </trkpt>
      <trkpt lat="48.1819" lon="-3.3142">
        <ele>206.4</ele>
        <time>2024-11-20T13:30:32Z</time>
      </trkpt>
      <trkpt lat="48.1819" lon="-3.31418">
        <ele>206.3</ele>
        <time>2024-11-20T13:30:33Z</time>
      </trkpt>
      <trkpt lat="48.18189" lon="-3.31416">
        <ele>206.2</ele>
        <time>2024-11-20T13:30:34Z</time>
      </trkpt>
      <trkpt lat="48.18189" lon="-3.31415">
        <ele>206.1</ele>
        <time>2024-11-20T13:30:35Z</time>
      </trkpt>
      <trkpt lat="48.18188" lon="-3.31413">
        <ele>206</ele>
        <time>2024-11-20T13:30:36Z</time>
      </trkpt>
      <trkpt lat="48.18187" lon="-3.31411">
        <ele>205.8</ele>
        <time>2024-11-20T13:30:37Z</time>
      </trkpt>
      <trkpt lat="48.18187" lon="-3.3141">
        <ele>205.7</ele>
        <time>2024-11-20T13:30:38Z</time>
      </trkpt>
      <trkpt lat="48.18186" lon="-3.31409">
        <ele>205.6</ele>
        <time>2024-11-20T13:30:39Z</time>
      </trkpt>
      <trkpt lat="48.18185" lon="-3.31407">
        <ele>205.4</ele>
        <time>2024-11-20T13:30:40Z</time>
      </trkpt>
      <trkpt lat="48.18185" lon="-3.31405">
        <ele>205.3</ele>
        <time>2024-11-20T13:30:41Z</time>
      </trkpt>
      <trkpt lat="48.18184" lon="-3.31404">
        <ele>205.2</ele>
        <time>2024-11-20T13:30:42Z</time>
      </trkpt>
      <trkpt lat="48.18183" lon="-3.31402">
        <ele>205.1</ele>
        <time>2024-11-20T13:30:43Z</time>
      </trkpt>
      <trkpt lat="48.18183" lon="-3.31401">
        <ele>205</ele>
        <time>2024-11-20T13:30:44Z</time>
      </trkpt>
      <trkpt lat="48.18182" lon="-3.31399">
        <ele>204.8</ele>
        <time>2024-11-20T13:30:45Z</time>
      </trkpt>
      <trkpt lat="48.1818" lon="-3.31394">
        <ele>204.5</ele>
        <time>2024-11-20T13:30:48Z</time>
      </trkpt>
      <trkpt lat="48.1818" lon="-3.31392">
        <ele>204.4</ele>
        <time>2024-11-20T13:30:49Z</time>
      </trkpt>
      <trkpt lat="48.18179" lon="-3.3139">
        <ele>204.4</ele>
        <time>2024-11-20T13:30:50Z</time>
      </trkpt>
      <trkpt lat="48.18179" lon="-3.31388">
        <ele>204.3</ele>
        <time>2024-11-20T13:30:51Z</time>
      </trkpt>
      <trkpt lat="48.18178" lon="-3.31387">
        <ele>204.2</ele>
        <time>2024-11-20T13:30:52Z</time>
      </trkpt>
      <trkpt lat="48.18178" lon="-3.31385">
        <ele>204.1</ele>
        <time>2024-11-20T13:30:53Z</time>
      </trkpt>
      <trkpt lat="48.18178" lon="-3.31382">
        <ele>204</ele>
        <time>2024-11-20T13:30:54Z</time>
      </trkpt>
      <trkpt lat="48.18178" lon="-3.31381">
        <ele>203.9</ele>
        <time>2024-11-20T13:30:55Z</time>
      </trkpt>
      <trkpt lat="48.18178" lon="-3.31379">
        <ele>203.8</ele>
        <time>2024-11-20T13:30:56Z</time>
      </trkpt>
      <trkpt lat="48.18178" lon="-3.31377">
        <ele>203.7</ele>
        <time>2024-11-20T13:30:57Z</time>
      </trkpt>
      <trkpt lat="48.18177" lon="-3.31375">
        <ele>203.7</ele>
        <time>2024-11-20T13:30:58Z</time>
      </trkpt>
      <trkpt lat="48.18177" lon="-3.31373">
        <ele>203.6</ele>
        <time>2024-11-20T13:30:59Z</time>
      </trkpt>
      <trkpt lat="48.18177" lon="-3.31372">
        <ele>203.5</ele>
        <time>2024-11-20T13:31:00Z</time>
      </trkpt>
      <trkpt lat="48.18178" lon="-3.3137">
        <ele>203.5</ele>
        <time>2024-11-20T13:31:01Z</time>
      </trkpt>
      <trkpt lat="48.18179" lon="-3.31369">
        <ele>203.6</ele>
        <time>2024-11-20T13:31:02Z</time>
      </trkpt>
      <trkpt lat="48.1818" lon="-3.31367">
        <ele>203.6</ele>
        <time>2024-11-20T13:31:03Z</time>
      </trkpt>
      <trkpt lat="48.1818" lon="-3.31365">
        <ele>203.6</ele>
        <time>2024-11-20T13:31:04Z</time>
      </trkpt>
      <trkpt lat="48.1818" lon="-3.31363">
        <ele>203.6</ele>
        <time>2024-11-20T13:31:05Z</time>
      </trkpt>
      <trkpt lat="48.1818" lon="-3.31362">
        <ele>203.5</ele>
        <time>2024-11-20T13:31:06Z</time>
      </trkpt>
      <trkpt lat="48.1818" lon="-3.31361">
        <ele>203.4</ele>
        <time>2024-11-20T13:31:07Z</time>
      </trkpt>
      <trkpt lat="48.18181" lon="-3.3136">
        <ele>203.4</ele>
        <time>2024-11-20T13:31:08Z</time>
      </trkpt>
      <trkpt lat="48.1818" lon="-3.31359">
        <ele>203.4</ele>
        <time>2024-11-20T13:31:09Z</time>
      </trkpt>
      <trkpt lat="48.1818" lon="-3.31358">
        <ele>203.3</ele>
        <time>2024-11-20T13:31:10Z</time>
      </trkpt>
      <trkpt lat="48.1818" lon="-3.31357">
        <ele>203.2</ele>
        <time>2024-11-20T13:31:11Z</time>
      </trkpt>
      <trkpt lat="48.1818" lon="-3.31355">
        <ele>203.1</ele>
        <time>2024-11-20T13:31:12Z</time>
      </trkpt>
      <trkpt lat="48.1818" lon="-3.31352">
        <ele>203</ele>
        <time>2024-11-20T13:31:13Z</time>
      </trkpt>
      <trkpt lat="48.18181" lon="-3.31349">
        <ele>202.9</ele>
        <time>2024-11-20T13:31:14Z</time>
      </trkpt>
      <trkpt lat="48.18181" lon="-3.31347">
        <ele>202.8</ele>
        <time>2024-11-20T13:31:15Z</time>
      </trkpt>
      <trkpt lat="48.18182" lon="-3.31344">
        <ele>202.7</ele>
        <time>2024-11-20T13:31:16Z</time>
      </trkpt>
      <trkpt lat="48.18182" lon="-3.31342">
        <ele>202.6</ele>
        <time>2024-11-20T13:31:17Z</time>
      </trkpt>
      <trkpt lat="48.18182" lon="-3.31341">
        <ele>202.5</ele>
        <time>2024-11-20T13:31:18Z</time>
      </trkpt>
      <trkpt lat="48.18183" lon="-3.31339">
        <ele>202.5</ele>
        <time>2024-11-20T13:31:19Z</time>
      </trkpt>
      <trkpt lat="48.18184" lon="-3.31337">
        <ele>202.4</ele>
        <time>2024-11-20T13:31:20Z</time>
      </trkpt>
      <trkpt lat="48.18185" lon="-3.31335">
        <ele>202.4</ele>
        <time>2024-11-20T13:31:21Z</time>
      </trkpt>
      <trkpt lat="48.18186" lon="-3.31333">
        <ele>202.4</ele>
        <time>2024-11-20T13:31:22Z</time>
      </trkpt>
      <trkpt lat="48.18187" lon="-3.31332">
        <ele>202.3</ele>
        <time>2024-11-20T13:31:23Z</time>
      </trkpt>
      <trkpt lat="48.18188" lon="-3.3133">
        <ele>202.3</ele>
        <time>2024-11-20T13:31:24Z</time>
      </trkpt>
      <trkpt lat="48.18188" lon="-3.31328">
        <ele>202.2</ele>
        <time>2024-11-20T13:31:25Z</time>
      </trkpt>
      <trkpt lat="48.18189" lon="-3.31327">
        <ele>202.2</ele>
        <time>2024-11-20T13:31:26Z</time>
      </trkpt>
      <trkpt lat="48.1819" lon="-3.31326">
        <ele>202.2</ele>
        <time>2024-11-20T13:31:27Z</time>
      </trkpt>
      <trkpt lat="48.18191" lon="-3.31324">
        <ele>202.1</ele>
        <time>2024-11-20T13:31:28Z</time>
      </trkpt>
      <trkpt lat="48.18192" lon="-3.31323">
        <ele>202.1</ele>
        <time>2024-11-20T13:31:29Z</time>
      </trkpt>
      <trkpt lat="48.18192" lon="-3.31322">
        <ele>202</ele>
        <time>2024-11-20T13:31:30Z</time>
      </trkpt>
      <trkpt lat="48.18192" lon="-3.31321">
        <ele>202</ele>
        <time>2024-11-20T13:31:31Z</time>
      </trkpt>
      <trkpt lat="48.18193" lon="-3.31321">
        <ele>202</ele>
        <time>2024-11-20T13:31:32Z</time>
      </trkpt>
      <trkpt lat="48.18193" lon="-3.3132">
        <ele>202</ele>
        <time>2024-11-20T13:31:33Z</time>
      </trkpt>
      <trkpt lat="48.18194" lon="-3.31319">
        <ele>201.9</ele>
        <time>2024-11-20T13:31:34Z</time>
      </trkpt>
      <trkpt lat="48.18195" lon="-3.31317">
        <ele>201.9</ele>
        <time>2024-11-20T13:31:35Z</time>
      </trkpt>
      <trkpt lat="48.18196" lon="-3.31316">
        <ele>201.9</ele>
        <time>2024-11-20T13:31:36Z</time>
      </trkpt>
      <trkpt lat="48.18197" lon="-3.31315">
        <ele>201.9</ele>
        <time>2024-11-20T13:31:37Z</time>
      </trkpt>
      <trkpt lat="48.18198" lon="-3.31314">
        <ele>201.8</ele>
        <time>2024-11-20T13:31:38Z</time>
      </trkpt>
      <trkpt lat="48.18199" lon="-3.31312">
        <ele>201.8</ele>
        <time>2024-11-20T13:31:39Z</time>
      </trkpt>
      <trkpt lat="48.182" lon="-3.31311">
        <ele>201.8</ele>
        <time>2024-11-20T13:31:40Z</time>
      </trkpt>
      <trkpt lat="48.18201" lon="-3.31311">
        <ele>201.9</ele>
        <time>2024-11-20T13:31:41Z</time>
      </trkpt>
      <trkpt lat="48.18202" lon="-3.3131">
        <ele>201.8</ele>
        <time>2024-11-20T13:31:42Z</time>
      </trkpt>
      <trkpt lat="48.18203" lon="-3.31308">
        <ele>201.8</ele>
        <time>2024-11-20T13:31:43Z</time>
      </trkpt>
      <trkpt lat="48.18203" lon="-3.31307">
        <ele>201.7</ele>
        <time>2024-11-20T13:31:44Z</time>
      </trkpt>
      <trkpt lat="48.18204" lon="-3.31306">
        <ele>201.7</ele>
        <time>2024-11-20T13:31:45Z</time>
      </trkpt>
      <trkpt lat="48.18205" lon="-3.31305">
        <ele>201.7</ele>
        <time>2024-11-20T13:31:46Z</time>
      </trkpt>
      <trkpt lat="48.18205" lon="-3.31303">
        <ele>201.6</ele>
        <time>2024-11-20T13:31:47Z</time>
      </trkpt>
      <trkpt lat="48.18206" lon="-3.31301">
        <ele>201.6</ele>
        <time>2024-11-20T13:31:48Z</time>
      </trkpt>
      <trkpt lat="48.18207" lon="-3.313">
        <ele>201.6</ele>
        <time>2024-11-20T13:31:49Z</time>
      </trkpt>
      <trkpt lat="48.18207" lon="-3.31299">
        <ele>201.6</ele>
        <time>2024-11-20T13:31:50Z</time>
      </trkpt>
      <trkpt lat="48.18208" lon="-3.31298">
        <ele>201.6</ele>
        <time>2024-11-20T13:31:51Z</time>
      </trkpt>
      <trkpt lat="48.18208" lon="-3.31297">
        <ele>201.5</ele>
        <time>2024-11-20T13:31:52Z</time>
      </trkpt>
      <trkpt lat="48.18208" lon="-3.31296">
        <ele>201.5</ele>
        <time>2024-11-20T13:31:53Z</time>
      </trkpt>
      <trkpt lat="48.18209" lon="-3.31295">
        <ele>201.4</ele>
        <time>2024-11-20T13:31:54Z</time>
      </trkpt>
      <trkpt lat="48.18209" lon="-3.31293">
        <ele>201.4</ele>
        <time>2024-11-20T13:31:55Z</time>
      </trkpt>
      <trkpt lat="48.1821" lon="-3.31293">
        <ele>201.4</ele>
        <time>2024-11-20T13:31:56Z</time>
      </trkpt>
      <trkpt lat="48.18211" lon="-3.31291">
        <ele>201.4</ele>
        <time>2024-11-20T13:31:57Z</time>
      </trkpt>
      <trkpt lat="48.18212" lon="-3.3129">
        <ele>201.3</ele>
        <time>2024-11-20T13:31:58Z</time>
      </trkpt>
      <trkpt lat="48.18212" lon="-3.3129">
        <ele>201.3</ele>
        <time>2024-11-20T13:31:59Z</time>
      </trkpt>
      <trkpt lat="48.18213" lon="-3.31289">
        <ele>201.3</ele>
        <time>2024-11-20T13:32:00Z</time>
      </trkpt>
      <trkpt lat="48.18214" lon="-3.31288">
        <ele>201.3</ele>
        <time>2024-11-20T13:32:01Z</time>
      </trkpt>
      <trkpt lat="48.18215" lon="-3.31287">
        <ele>201.3</ele>
        <time>2024-11-20T13:32:02Z</time>
      </trkpt>
      <trkpt lat="48.18216" lon="-3.31285">
        <ele>201.2</ele>
        <time>2024-11-20T13:32:03Z</time>
      </trkpt>
      <trkpt lat="48.18217" lon="-3.31283">
        <ele>201.2</ele>
        <time>2024-11-20T13:32:04Z</time>
      </trkpt>
      <trkpt lat="48.18218" lon="-3.31282">
        <ele>201.1</ele>
        <time>2024-11-20T13:32:05Z</time>
      </trkpt>
      <trkpt lat="48.1822" lon="-3.3128">
        <ele>201.1</ele>
        <time>2024-11-20T13:32:06Z</time>
      </trkpt>
      <trkpt lat="48.18221" lon="-3.31278">
        <ele>201</ele>
        <time>2024-11-20T13:32:07Z</time>
      </trkpt>
      <trkpt lat="48.18222" lon="-3.31277">
        <ele>201</ele>
        <time>2024-11-20T13:32:08Z</time>
      </trkpt>
      <trkpt lat="48.18223" lon="-3.31276">
        <ele>201</ele>
        <time>2024-11-20T13:32:09Z</time>
      </trkpt>
      <trkpt lat="48.18224" lon="-3.31274">
        <ele>201</ele>
        <time>2024-11-20T13:32:10Z</time>
      </trkpt>
      <trkpt lat="48.18225" lon="-3.31273">
        <ele>201</ele>
        <time>2024-11-20T13:32:11Z</time>
      </trkpt>
      <trkpt lat="48.18226" lon="-3.31272">
        <ele>201</ele>
        <time>2024-11-20T13:32:12Z</time>
      </trkpt>
      <trkpt lat="48.18227" lon="-3.31271">
        <ele>201.1</ele>
        <time>2024-11-20T13:32:13Z</time>
      </trkpt>
      <trkpt lat="48.18229" lon="-3.31269">
        <ele>201.1</ele>
        <time>2024-11-20T13:32:14Z</time>
      </trkpt>
      <trkpt lat="48.1823" lon="-3.31267">
        <ele>201.1</ele>
        <time>2024-11-20T13:32:15Z</time>
      </trkpt>
      <trkpt lat="48.18231" lon="-3.31266">
        <ele>201.1</ele>
        <time>2024-11-20T13:32:16Z</time>
      </trkpt>
      <trkpt lat="48.18231" lon="-3.31265">
        <ele>201.1</ele>
        <time>2024-11-20T13:32:17Z</time>
      </trkpt>
      <trkpt lat="48.18232" lon="-3.31264">
        <ele>201</ele>
        <time>2024-11-20T13:32:18Z</time>
      </trkpt>
      <trkpt lat="48.18232" lon="-3.31262">
        <ele>201</ele>
        <time>2024-11-20T13:32:19Z</time>
      </trkpt>
      <trkpt lat="48.18233" lon="-3.31261">
        <ele>200.9</ele>
        <time>2024-11-20T13:32:20Z</time>
      </trkpt>
      <trkpt lat="48.18234" lon="-3.31259">
        <ele>200.9</ele>
        <time>2024-11-20T13:32:21Z</time>
      </trkpt>
      <trkpt lat="48.18234" lon="-3.31258">
        <ele>200.8</ele>
        <time>2024-11-20T13:32:22Z</time>
      </trkpt>
      <trkpt lat="48.18235" lon="-3.31257">
        <ele>200.8</ele>
        <time>2024-11-20T13:32:23Z</time>
      </trkpt>
      <trkpt lat="48.18236" lon="-3.31255">
        <ele>200.8</ele>
        <time>2024-11-20T13:32:24Z</time>
      </trkpt>
      <trkpt lat="48.18237" lon="-3.31254">
        <ele>200.8</ele>
        <time>2024-11-20T13:32:25Z</time>
      </trkpt>
      <trkpt lat="48.18238" lon="-3.31253">
        <ele>200.7</ele>
        <time>2024-11-20T13:32:26Z</time>
      </trkpt>
      <trkpt lat="48.18239" lon="-3.31252">
        <ele>200.7</ele>
        <time>2024-11-20T13:32:27Z</time>
      </trkpt>
      <trkpt lat="48.18239" lon="-3.31251">
        <ele>200.6</ele>
        <time>2024-11-20T13:32:28Z</time>
      </trkpt>
      <trkpt lat="48.1824" lon="-3.31249">
        <ele>200.6</ele>
        <time>2024-11-20T13:32:29Z</time>
      </trkpt>
      <trkpt lat="48.1824" lon="-3.31248">
        <ele>200.6</ele>
        <time>2024-11-20T13:32:30Z</time>
      </trkpt>
      <trkpt lat="48.18241" lon="-3.31247">
        <ele>200.5</ele>
        <time>2024-11-20T13:32:31Z</time>
      </trkpt>
      <trkpt lat="48.18242" lon="-3.31245">
        <ele>200.5</ele>
        <time>2024-11-20T13:32:32Z</time>
      </trkpt>
      <trkpt lat="48.18243" lon="-3.31244">
        <ele>200.5</ele>
        <time>2024-11-20T13:32:33Z</time>
      </trkpt>
      <trkpt lat="48.18244" lon="-3.31243">
        <ele>200.5</ele>
        <time>2024-11-20T13:32:34Z</time>
      </trkpt>
      <trkpt lat="48.18245" lon="-3.31241">
        <ele>200.5</ele>
        <time>2024-11-20T13:32:35Z</time>
      </trkpt>
      <trkpt lat="48.18246" lon="-3.3124">
        <ele>200.5</ele>
        <time>2024-11-20T13:32:36Z</time>
      </trkpt>
      <trkpt lat="48.18247" lon="-3.31238">
        <ele>200.5</ele>
        <time>2024-11-20T13:32:37Z</time>
      </trkpt>
      <trkpt lat="48.18248" lon="-3.31237">
        <ele>200.5</ele>
        <time>2024-11-20T13:32:38Z</time>
      </trkpt>
      <trkpt lat="48.18249" lon="-3.31236">
        <ele>200.5</ele>
        <time>2024-11-20T13:32:39Z</time>
      </trkpt>
      <trkpt lat="48.18249" lon="-3.31235">
        <ele>200.4</ele>
        <time>2024-11-20T13:32:40Z</time>
      </trkpt>
      <trkpt lat="48.1825" lon="-3.31234">
        <ele>200.4</ele>
        <time>2024-11-20T13:32:41Z</time>
      </trkpt>
      <trkpt lat="48.1825" lon="-3.31232">
        <ele>200.4</ele>
        <time>2024-11-20T13:32:42Z</time>
      </trkpt>
      <trkpt lat="48.18251" lon="-3.31231">
        <ele>200.4</ele>
        <time>2024-11-20T13:32:43Z</time>
      </trkpt>
      <trkpt lat="48.18253" lon="-3.31229">
        <ele>200.4</ele>
        <time>2024-11-20T13:32:44Z</time>
      </trkpt>
      <trkpt lat="48.18254" lon="-3.31228">
        <ele>200.4</ele>
        <time>2024-11-20T13:32:45Z</time>
      </trkpt>
      <trkpt lat="48.18254" lon="-3.31227">
        <ele>200.3</ele>
        <time>2024-11-20T13:32:46Z</time>
      </trkpt>
      <trkpt lat="48.18255" lon="-3.31226">
        <ele>200.3</ele>
        <time>2024-11-20T13:32:47Z</time>
      </trkpt>
      <trkpt lat="48.18256" lon="-3.31224">
        <ele>200.3</ele>
        <time>2024-11-20T13:32:48Z</time>
      </trkpt>
      <trkpt lat="48.18257" lon="-3.31223">
        <ele>200.3</ele>
        <time>2024-11-20T13:32:49Z</time>
      </trkpt>
      <trkpt lat="48.18258" lon="-3.31222">
        <ele>200.2</ele>
        <time>2024-11-20T13:32:50Z</time>
      </trkpt>
      <trkpt lat="48.18258" lon="-3.31221">
        <ele>200.2</ele>
        <time>2024-11-20T13:32:51Z</time>
      </trkpt>
      <trkpt lat="48.18259" lon="-3.31219">
        <ele>200.2</ele>
        <time>2024-11-20T13:32:52Z</time>
      </trkpt>
      <trkpt lat="48.18259" lon="-3.31218">
        <ele>200.2</ele>
        <time>2024-11-20T13:32:53Z</time>
      </trkpt>
      <trkpt lat="48.1826" lon="-3.31217">
        <ele>200.2</ele>
        <time>2024-11-20T13:32:54Z</time>
      </trkpt>
      <trkpt lat="48.18261" lon="-3.31216">
        <ele>200.2</ele>
        <time>2024-11-20T13:32:55Z</time>
      </trkpt>
      <trkpt lat="48.18261" lon="-3.31215">
        <ele>200.1</ele>
        <time>2024-11-20T13:32:56Z</time>
      </trkpt>
      <trkpt lat="48.18262" lon="-3.31213">
        <ele>200.1</ele>
        <time>2024-11-20T13:32:57Z</time>
      </trkpt>
      <trkpt lat="48.18262" lon="-3.31211">
        <ele>200</ele>
        <time>2024-11-20T13:32:58Z</time>
      </trkpt>
      <trkpt lat="48.18262" lon="-3.31209">
        <ele>199.9</ele>
        <time>2024-11-20T13:32:59Z</time>
      </trkpt>
      <trkpt lat="48.18263" lon="-3.31207">
        <ele>199.9</ele>
        <time>2024-11-20T13:33:00Z</time>
      </trkpt>
      <trkpt lat="48.18263" lon="-3.31206">
        <ele>199.9</ele>
        <time>2024-11-20T13:33:01Z</time>
      </trkpt>
      <trkpt lat="48.18264" lon="-3.31204">
        <ele>199.8</ele>
        <time>2024-11-20T13:33:02Z</time>
      </trkpt>
      <trkpt lat="48.18265" lon="-3.31202">
        <ele>199.8</ele>
        <time>2024-11-20T13:33:03Z</time>
      </trkpt>
      <trkpt lat="48.18265" lon="-3.312">
        <ele>199.7</ele>
        <time>2024-11-20T13:33:04Z</time>
      </trkpt>
      <trkpt lat="48.18266" lon="-3.31198">
        <ele>199.7</ele>
        <time>2024-11-20T13:33:05Z</time>
      </trkpt>
      <trkpt lat="48.18267" lon="-3.31196">
        <ele>199.6</ele>
        <time>2024-11-20T13:33:06Z</time>
      </trkpt>
      <trkpt lat="48.18267" lon="-3.31193">
        <ele>199.6</ele>
        <time>2024-11-20T13:33:07Z</time>
      </trkpt>
      <trkpt lat="48.18267" lon="-3.31191">
        <ele>199.5</ele>
        <time>2024-11-20T13:33:08Z</time>
      </trkpt>
      <trkpt lat="48.18267" lon="-3.31189">
        <ele>199.5</ele>
        <time>2024-11-20T13:33:09Z</time>
      </trkpt>
      <trkpt lat="48.18268" lon="-3.31187">
        <ele>199.5</ele>
        <time>2024-11-20T13:33:10Z</time>
      </trkpt>
      <trkpt lat="48.18268" lon="-3.31185">
        <ele>199.4</ele>
        <time>2024-11-20T13:33:11Z</time>
      </trkpt>
      <trkpt lat="48.18268" lon="-3.31184">
        <ele>199.4</ele>
        <time>2024-11-20T13:33:12Z</time>
      </trkpt>
      <trkpt lat="48.18269" lon="-3.31183">
        <ele>199.4</ele>
        <time>2024-11-20T13:33:13Z</time>
      </trkpt>
      <trkpt lat="48.1827" lon="-3.31181">
        <ele>199.4</ele>
        <time>2024-11-20T13:33:14Z</time>
      </trkpt>
      <trkpt lat="48.1827" lon="-3.3118">
        <ele>199.4</ele>
        <time>2024-11-20T13:33:15Z</time>
      </trkpt>
      <trkpt lat="48.18271" lon="-3.31179">
        <ele>199.3</ele>
        <time>2024-11-20T13:33:16Z</time>
      </trkpt>
      <trkpt lat="48.18271" lon="-3.31177">
        <ele>199.3</ele>
        <time>2024-11-20T13:33:17Z</time>
      </trkpt>
      <trkpt lat="48.18271" lon="-3.31176">
        <ele>199.3</ele>
        <time>2024-11-20T13:33:18Z</time>
      </trkpt>
      <trkpt lat="48.18271" lon="-3.31174">
        <ele>199.2</ele>
        <time>2024-11-20T13:33:19Z</time>
      </trkpt>
      <trkpt lat="48.18271" lon="-3.31173">
        <ele>199.2</ele>
        <time>2024-11-20T13:33:20Z</time>
      </trkpt>
      <trkpt lat="48.18271" lon="-3.31172">
        <ele>199.1</ele>
        <time>2024-11-20T13:33:21Z</time>
      </trkpt>
      <trkpt lat="48.18272" lon="-3.3117">
        <ele>199.1</ele>
        <time>2024-11-20T13:33:22Z</time>
      </trkpt>
      <trkpt lat="48.18272" lon="-3.31168">
        <ele>199</ele>
        <time>2024-11-20T13:33:23Z</time>
      </trkpt>
      <trkpt lat="48.18273" lon="-3.31167">
        <ele>199</ele>
        <time>2024-11-20T13:33:24Z</time>
      </trkpt>
      <trkpt lat="48.18273" lon="-3.31166">
        <ele>199</ele>
        <time>2024-11-20T13:33:25Z</time>
      </trkpt>
      <trkpt lat="48.18273" lon="-3.31164">
        <ele>199</ele>
        <time>2024-11-20T13:33:26Z</time>
      </trkpt>
      <trkpt lat="48.18274" lon="-3.31163">
        <ele>199</ele>
        <time>2024-11-20T13:33:27Z</time>
      </trkpt>
      <trkpt lat="48.18274" lon="-3.31161">
        <ele>199</ele>
        <time>2024-11-20T13:33:28Z</time>
      </trkpt>
      <trkpt lat="48.18275" lon="-3.3116">
        <ele>199</ele>
        <time>2024-11-20T13:33:29Z</time>
      </trkpt>
      <trkpt lat="48.18275" lon="-3.31158">
        <ele>199</ele>
        <time>2024-11-20T13:33:30Z</time>
      </trkpt>
      <trkpt lat="48.18275" lon="-3.31157">
        <ele>199</ele>
        <time>2024-11-20T13:33:31Z</time>
      </trkpt>
      <trkpt lat="48.18276" lon="-3.31155">
        <ele>199</ele>
        <time>2024-11-20T13:33:32Z</time>
      </trkpt>
      <trkpt lat="48.18276" lon="-3.31153">
        <ele>199</ele>
        <time>2024-11-20T13:33:33Z</time>
      </trkpt>
      <trkpt lat="48.18277" lon="-3.31151">
        <ele>199</ele>
        <time>2024-11-20T13:33:34Z</time>
      </trkpt>
      <trkpt lat="48.18278" lon="-3.31149">
        <ele>199</ele>
        <time>2024-11-20T13:33:35Z</time>
      </trkpt>
      <trkpt lat="48.18278" lon="-3.31147">
        <ele>199</ele>
        <time>2024-11-20T13:33:36Z</time>
      </trkpt>
      <trkpt lat="48.18279" lon="-3.31146">
        <ele>199</ele>
        <time>2024-11-20T13:33:37Z</time>
      </trkpt>
      <trkpt lat="48.1828" lon="-3.31144">
        <ele>199</ele>
        <time>2024-11-20T13:33:38Z</time>
      </trkpt>
      <trkpt lat="48.1828" lon="-3.31143">
        <ele>199</ele>
        <time>2024-11-20T13:33:39Z</time>
      </trkpt>
      <trkpt lat="48.1828" lon="-3.31141">
        <ele>199</ele>
        <time>2024-11-20T13:33:40Z</time>
      </trkpt>
      <trkpt lat="48.1828" lon="-3.3114">
        <ele>199</ele>
        <time>2024-11-20T13:33:41Z</time>
      </trkpt>
      <trkpt lat="48.1828" lon="-3.31139">
        <ele>199</ele>
        <time>2024-11-20T13:33:42Z</time>
      </trkpt>
      <trkpt lat="48.18281" lon="-3.31137">
        <ele>199</ele>
        <time>2024-11-20T13:33:43Z</time>
      </trkpt>
      <trkpt lat="48.18281" lon="-3.31136">
        <ele>199</ele>
        <time>2024-11-20T13:33:44Z</time>
      </trkpt>
      <trkpt lat="48.1828" lon="-3.31134">
        <ele>199</ele>
        <time>2024-11-20T13:33:45Z</time>
      </trkpt>
      <trkpt lat="48.18281" lon="-3.31133">
        <ele>199</ele>
        <time>2024-11-20T13:33:46Z</time>
      </trkpt>
      <trkpt lat="48.18281" lon="-3.31132">
        <ele>199</ele>
        <time>2024-11-20T13:33:47Z</time>
      </trkpt>
      <trkpt lat="48.18282" lon="-3.31131">
        <ele>199</ele>
        <time>2024-11-20T13:33:48Z</time>
      </trkpt>
      <trkpt lat="48.18283" lon="-3.31129">
        <ele>199</ele>
        <time>2024-11-20T13:33:49Z</time>
      </trkpt>
      <trkpt lat="48.18284" lon="-3.31127">
        <ele>199</ele>
        <time>2024-11-20T13:33:50Z</time>
      </trkpt>
      <trkpt lat="48.18285" lon="-3.31126">
        <ele>199</ele>
        <time>2024-11-20T13:33:51Z</time>
      </trkpt>
      <trkpt lat="48.18286" lon="-3.31124">
        <ele>199</ele>
        <time>2024-11-20T13:33:52Z</time>
      </trkpt>
      <trkpt lat="48.18287" lon="-3.31123">
        <ele>199</ele>
        <time>2024-11-20T13:33:53Z</time>
      </trkpt>
      <trkpt lat="48.18288" lon="-3.31121">
        <ele>199</ele>
        <time>2024-11-20T13:33:54Z</time>
      </trkpt>
      <trkpt lat="48.18289" lon="-3.3112">
        <ele>199</ele>
        <time>2024-11-20T13:33:55Z</time>
      </trkpt>
      <trkpt lat="48.18289" lon="-3.31118">
        <ele>199</ele>
        <time>2024-11-20T13:33:56Z</time>
      </trkpt>
      <trkpt lat="48.1829" lon="-3.31117">
        <ele>199</ele>
        <time>2024-11-20T13:33:57Z</time>
      </trkpt>
      <trkpt lat="48.18291" lon="-3.31116">
        <ele>199</ele>
        <time>2024-11-20T13:33:58Z</time>
      </trkpt>
      <trkpt lat="48.18292" lon="-3.31114">
        <ele>199</ele>
        <time>2024-11-20T13:33:59Z</time>
      </trkpt>
      <trkpt lat="48.18293" lon="-3.31112">
        <ele>199</ele>
        <time>2024-11-20T13:34:00Z</time>
      </trkpt>
      <trkpt lat="48.18294" lon="-3.3111">
        <ele>199</ele>
        <time>2024-11-20T13:34:01Z</time>
      </trkpt>
      <trkpt lat="48.18294" lon="-3.31109">
        <ele>199</ele>
        <time>2024-11-20T13:34:02Z</time>
      </trkpt>
      <trkpt lat="48.18294" lon="-3.31108">
        <ele>199</ele>
        <time>2024-11-20T13:34:03Z</time>
      </trkpt>
      <trkpt lat="48.18295" lon="-3.31107">
        <ele>198.9</ele>
        <time>2024-11-20T13:34:04Z</time>
      </trkpt>
      <trkpt lat="48.18296" lon="-3.31107">
        <ele>199</ele>
        <time>2024-11-20T13:34:05Z</time>
      </trkpt>
      <trkpt lat="48.18296" lon="-3.31107">
        <ele>199</ele>
        <time>2024-11-20T13:34:06Z</time>
      </trkpt>
      <trkpt lat="48.18296" lon="-3.31107">
        <ele>199</ele>
        <time>2024-11-20T13:34:07Z</time>
      </trkpt>
      <trkpt lat="48.18296" lon="-3.31107">
        <ele>199</ele>
        <time>2024-11-20T13:34:08Z</time>
      </trkpt>
      <trkpt lat="48.18297" lon="-3.31107">
        <ele>199</ele>
        <time>2024-11-20T13:34:09Z</time>
      </trkpt>
      <trkpt lat="48.18298" lon="-3.31106">
        <ele>198.9</ele>
        <time>2024-11-20T13:34:10Z</time>
      </trkpt>
      <trkpt lat="48.18299" lon="-3.31105">
        <ele>198.9</ele>
        <time>2024-11-20T13:34:11Z</time>
      </trkpt>
      <trkpt lat="48.183" lon="-3.31103">
        <ele>198.9</ele>
        <time>2024-11-20T13:34:12Z</time>
      </trkpt>
      <trkpt lat="48.18301" lon="-3.311">
        <ele>198.9</ele>
        <time>2024-11-20T13:34:13Z</time>
      </trkpt>
      <trkpt lat="48.18302" lon="-3.31098">
        <ele>198.9</ele>
        <time>2024-11-20T13:34:14Z</time>
      </trkpt>
      <trkpt lat="48.18302" lon="-3.31096">
        <ele>198.9</ele>
        <time>2024-11-20T13:34:15Z</time>
      </trkpt>
      <trkpt lat="48.18303" lon="-3.31094">
        <ele>198.9</ele>
        <time>2024-11-20T13:34:16Z</time>
      </trkpt>
      <trkpt lat="48.18304" lon="-3.31092">
        <ele>199</ele>
        <time>2024-11-20T13:34:17Z</time>
      </trkpt>
      <trkpt lat="48.18304" lon="-3.3109">
        <ele>199</ele>
        <time>2024-11-20T13:34:18Z</time>
      </trkpt>
      <trkpt lat="48.18305" lon="-3.31088">
        <ele>199</ele>
        <time>2024-11-20T13:34:19Z</time>
      </trkpt>
      <trkpt lat="48.18306" lon="-3.31086">
        <ele>199</ele>
        <time>2024-11-20T13:34:20Z</time>
      </trkpt>
      <trkpt lat="48.18306" lon="-3.31085">
        <ele>199</ele>
        <time>2024-11-20T13:34:21Z</time>
      </trkpt>
      <trkpt lat="48.18307" lon="-3.31083">
        <ele>199</ele>
        <time>2024-11-20T13:34:22Z</time>
      </trkpt>
      <trkpt lat="48.18307" lon="-3.31082">
        <ele>199</ele>
        <time>2024-11-20T13:34:23Z</time>
      </trkpt>
      <trkpt lat="48.18307" lon="-3.3108">
        <ele>199.1</ele>
        <time>2024-11-20T13:34:24Z</time>
      </trkpt>
      <trkpt lat="48.18307" lon="-3.31079">
        <ele>199.1</ele>
        <time>2024-11-20T13:34:25Z</time>
      </trkpt>
      <trkpt lat="48.18307" lon="-3.31078">
        <ele>199.1</ele>
        <time>2024-11-20T13:34:26Z</time>
      </trkpt>
      <trkpt lat="48.18307" lon="-3.31077">
        <ele>199</ele>
        <time>2024-11-20T13:34:27Z</time>
      </trkpt>
      <trkpt lat="48.18307" lon="-3.31076">
        <ele>199</ele>
        <time>2024-11-20T13:34:28Z</time>
      </trkpt>
      <trkpt lat="48.18306" lon="-3.31075">
        <ele>199</ele>
        <time>2024-11-20T13:34:29Z</time>
      </trkpt>
      <trkpt lat="48.18306" lon="-3.31075">
        <ele>199</ele>
        <time>2024-11-20T13:34:30Z</time>
      </trkpt>
      <trkpt lat="48.18306" lon="-3.31074">
        <ele>199</ele>
        <time>2024-11-20T13:34:31Z</time>
      </trkpt>
      <trkpt lat="48.18306" lon="-3.31074">
        <ele>199</ele>
        <time>2024-11-20T13:34:32Z</time>
      </trkpt>
      <trkpt lat="48.18306" lon="-3.31073">
        <ele>199</ele>
        <time>2024-11-20T13:34:33Z</time>
      </trkpt>
      <trkpt lat="48.18306" lon="-3.31073">
        <ele>199</ele>
        <time>2024-11-20T13:34:34Z</time>
      </trkpt>
      <trkpt lat="48.18306" lon="-3.31072">
        <ele>199</ele>
        <time>2024-11-20T13:34:35Z</time>
      </trkpt>
      <trkpt lat="48.18306" lon="-3.31072">
        <ele>199</ele>
        <time>2024-11-20T13:34:36Z</time>
      </trkpt>
      <trkpt lat="48.18306" lon="-3.31072">
        <ele>199</ele>
        <time>2024-11-20T13:34:37Z</time>
      </trkpt>
      <trkpt lat="48.18306" lon="-3.31072">
        <ele>199</ele>
        <time>2024-11-20T13:34:38Z</time>
      </trkpt>
      <trkpt lat="48.18306" lon="-3.31072">
        <ele>199</ele>
        <time>2024-11-20T13:34:39Z</time>
      </trkpt>
      <trkpt lat="48.18306" lon="-3.31072">
        <ele>199</ele>
        <time>2024-11-20T13:34:40Z</time>
      </trkpt>
      <trkpt lat="48.18306" lon="-3.31072">
        <ele>199</ele>
        <time>2024-11-20T13:34:41Z</time>
      </trkpt>
      <trkpt lat="48.18306" lon="-3.31072">
        <ele>199</ele>
        <time>2024-11-20T13:34:42Z</time>
      </trkpt>
      <trkpt lat="48.18307" lon="-3.31071">
        <ele>199</ele>
        <time>2024-11-20T13:34:43Z</time>
      </trkpt>
      <trkpt lat="48.18307" lon="-3.31071">
        <ele>199.1</ele>
        <time>2024-11-20T13:34:44Z</time>
      </trkpt>
      <trkpt lat="48.18307" lon="-3.31072">
        <ele>199.1</ele>
        <time>2024-11-20T13:34:45Z</time>
      </trkpt>
      <trkpt lat="48.18307" lon="-3.31072">
        <ele>199</ele>
        <time>2024-11-20T13:34:46Z</time>
      </trkpt>
      <trkpt lat="48.18307" lon="-3.31071">
        <ele>199.1</ele>
        <time>2024-11-20T13:34:47Z</time>
      </trkpt>
      <trkpt lat="48.18307" lon="-3.31071">
        <ele>199</ele>
        <time>2024-11-20T13:34:48Z</time>
      </trkpt>
      <trkpt lat="48.18306" lon="-3.31071">
        <ele>199</ele>
        <time>2024-11-20T13:34:49Z</time>
      </trkpt>
      <trkpt lat="48.18305" lon="-3.3107">
        <ele>199</ele>
        <time>2024-11-20T13:34:50Z</time>
      </trkpt>
      <trkpt lat="48.18304" lon="-3.3107">
        <ele>198.9</ele>
        <time>2024-11-20T13:34:51Z</time>
      </trkpt>
      <trkpt lat="48.18303" lon="-3.3107">
        <ele>198.9</ele>
        <time>2024-11-20T13:34:52Z</time>
      </trkpt>
      <trkpt lat="48.18302" lon="-3.3107">
        <ele>198.9</ele>
        <time>2024-11-20T13:34:53Z</time>
      </trkpt>
      <trkpt lat="48.183" lon="-3.3107">
        <ele>198.8</ele>
        <time>2024-11-20T13:34:54Z</time>
      </trkpt>
      <trkpt lat="48.18299" lon="-3.3107">
        <ele>198.8</ele>
        <time>2024-11-20T13:34:55Z</time>
      </trkpt>
      <trkpt lat="48.18299" lon="-3.3107">
        <ele>198.8</ele>
        <time>2024-11-20T13:34:56Z</time>
      </trkpt>
      <trkpt lat="48.18298" lon="-3.31069">
        <ele>198.7</ele>
        <time>2024-11-20T13:34:57Z</time>
      </trkpt>
      <trkpt lat="48.18297" lon="-3.31069">
        <ele>198.7</ele>
        <time>2024-11-20T13:34:58Z</time>
      </trkpt>
      <trkpt lat="48.18296" lon="-3.31069">
        <ele>198.7</ele>
        <time>2024-11-20T13:34:59Z</time>
      </trkpt>
      <trkpt lat="48.18295" lon="-3.31068">
        <ele>198.6</ele>
        <time>2024-11-20T13:35:00Z</time>
      </trkpt>
      <trkpt lat="48.18294" lon="-3.31068">
        <ele>198.6</ele>
        <time>2024-11-20T13:35:01Z</time>
      </trkpt>
      <trkpt lat="48.18293" lon="-3.31067">
        <ele>198.6</ele>
        <time>2024-11-20T13:35:02Z</time>
      </trkpt>
      <trkpt lat="48.18292" lon="-3.31067">
        <ele>198.5</ele>
        <time>2024-11-20T13:35:03Z</time>
      </trkpt>
      <trkpt lat="48.18291" lon="-3.31066">
        <ele>198.5</ele>
        <time>2024-11-20T13:35:04Z</time>
      </trkpt>
      <trkpt lat="48.1829" lon="-3.31065">
        <ele>198.4</ele>
        <time>2024-11-20T13:35:05Z</time>
      </trkpt>
      <trkpt lat="48.18288" lon="-3.31065">
        <ele>198.4</ele>
        <time>2024-11-20T13:35:06Z</time>
      </trkpt>
      <trkpt lat="48.18287" lon="-3.31064">
        <ele>198.3</ele>
        <time>2024-11-20T13:35:07Z</time>
      </trkpt>
      <trkpt lat="48.18287" lon="-3.31064">
        <ele>198.3</ele>
        <time>2024-11-20T13:35:08Z</time>
      </trkpt>
      <trkpt lat="48.18286" lon="-3.31064">
        <ele>198.3</ele>
        <time>2024-11-20T13:35:09Z</time>
      </trkpt>
      <trkpt lat="48.18285" lon="-3.31064">
        <ele>198.3</ele>
        <time>2024-11-20T13:35:10Z</time>
      </trkpt>
      <trkpt lat="48.18284" lon="-3.31063">
        <ele>198.2</ele>
        <time>2024-11-20T13:35:11Z</time>
      </trkpt>
      <trkpt lat="48.18283" lon="-3.31063">
        <ele>198.2</ele>
        <time>2024-11-20T13:35:12Z</time>
      </trkpt>
      <trkpt lat="48.18282" lon="-3.31063">
        <ele>198.1</ele>
        <time>2024-11-20T13:35:13Z</time>
      </trkpt>
      <trkpt lat="48.18281" lon="-3.31063">
        <ele>198.1</ele>
        <time>2024-11-20T13:35:14Z</time>
      </trkpt>
      <trkpt lat="48.1828" lon="-3.31063">
        <ele>198.1</ele>
        <time>2024-11-20T13:35:15Z</time>
      </trkpt>
      <trkpt lat="48.18279" lon="-3.31063">
        <ele>198.1</ele>
        <time>2024-11-20T13:35:16Z</time>
      </trkpt>
      <trkpt lat="48.18279" lon="-3.31063">
        <ele>198</ele>
        <time>2024-11-20T13:35:17Z</time>
      </trkpt>
      <trkpt lat="48.18278" lon="-3.31062">
        <ele>198</ele>
        <time>2024-11-20T13:35:18Z</time>
      </trkpt>
      <trkpt lat="48.18277" lon="-3.31062">
        <ele>198</ele>
        <time>2024-11-20T13:35:19Z</time>
      </trkpt>
      <trkpt lat="48.18277" lon="-3.31061">
        <ele>198</ele>
        <time>2024-11-20T13:35:20Z</time>
      </trkpt>
      <trkpt lat="48.18276" lon="-3.3106">
        <ele>198</ele>
        <time>2024-11-20T13:35:21Z</time>
      </trkpt>
      <trkpt lat="48.18275" lon="-3.31059">
        <ele>198</ele>
        <time>2024-11-20T13:35:22Z</time>
      </trkpt>
      <trkpt lat="48.18274" lon="-3.31059">
        <ele>198</ele>
        <time>2024-11-20T13:35:23Z</time>
      </trkpt>
      <trkpt lat="48.18274" lon="-3.31058">
        <ele>198</ele>
        <time>2024-11-20T13:35:24Z</time>
      </trkpt>
      <trkpt lat="48.18272" lon="-3.31058">
        <ele>198</ele>
        <time>2024-11-20T13:35:25Z</time>
      </trkpt>
      <trkpt lat="48.18271" lon="-3.31058">
        <ele>198</ele>
        <time>2024-11-20T13:35:26Z</time>
      </trkpt>
      <trkpt lat="48.1827" lon="-3.31058">
        <ele>198</ele>
        <time>2024-11-20T13:35:27Z</time>
      </trkpt>
      <trkpt lat="48.18269" lon="-3.31058">
        <ele>198</ele>
        <time>2024-11-20T13:35:28Z</time>
      </trkpt>
      <trkpt lat="48.18267" lon="-3.31058">
        <ele>198</ele>
        <time>2024-11-20T13:35:29Z</time>
      </trkpt>
      <trkpt lat="48.18266" lon="-3.31058">
        <ele>198</ele>
        <time>2024-11-20T13:35:30Z</time>
      </trkpt>
      <trkpt lat="48.18265" lon="-3.31058">
        <ele>198</ele>
        <time>2024-11-20T13:35:31Z</time>
      </trkpt>
      <trkpt lat="48.18264" lon="-3.31058">
        <ele>198</ele>
        <time>2024-11-20T13:35:32Z</time>
      </trkpt>
      <trkpt lat="48.18262" lon="-3.31058">
        <ele>198</ele>
        <time>2024-11-20T13:35:33Z</time>
      </trkpt>
      <trkpt lat="48.18261" lon="-3.31058">
        <ele>198</ele>
        <time>2024-11-20T13:35:34Z</time>
      </trkpt>
      <trkpt lat="48.18259" lon="-3.31058">
        <ele>198</ele>
        <time>2024-11-20T13:35:35Z</time>
      </trkpt>
      <trkpt lat="48.18258" lon="-3.31059">
        <ele>198</ele>
        <time>2024-11-20T13:35:36Z</time>
      </trkpt>
      <trkpt lat="48.18257" lon="-3.31059">
        <ele>198</ele>
        <time>2024-11-20T13:35:37Z</time>
      </trkpt>
      <trkpt lat="48.18256" lon="-3.31059">
        <ele>198</ele>
        <time>2024-11-20T13:35:38Z</time>
      </trkpt>
      <trkpt lat="48.18255" lon="-3.3106">
        <ele>198</ele>
        <time>2024-11-20T13:35:39Z</time>
      </trkpt>
      <trkpt lat="48.18253" lon="-3.3106">
        <ele>198</ele>
        <time>2024-11-20T13:35:40Z</time>
      </trkpt>
      <trkpt lat="48.18252" lon="-3.3106">
        <ele>198</ele>
        <time>2024-11-20T13:35:41Z</time>
      </trkpt>
      <trkpt lat="48.18251" lon="-3.3106">
        <ele>198</ele>
        <time>2024-11-20T13:35:42Z</time>
      </trkpt>
      <trkpt lat="48.1825" lon="-3.3106">
        <ele>198</ele>
        <time>2024-11-20T13:35:43Z</time>
      </trkpt>
      <trkpt lat="48.1825" lon="-3.3106">
        <ele>198</ele>
        <time>2024-11-20T13:35:44Z</time>
      </trkpt>
      <trkpt lat="48.18249" lon="-3.3106">
        <ele>198</ele>
        <time>2024-11-20T13:35:45Z</time>
      </trkpt>
      <trkpt lat="48.18248" lon="-3.31061">
        <ele>198</ele>
        <time>2024-11-20T13:35:46Z</time>
      </trkpt>
      <trkpt lat="48.18247" lon="-3.31061">
        <ele>198</ele>
        <time>2024-11-20T13:35:47Z</time>
      </trkpt>
      <trkpt lat="48.18246" lon="-3.31061">
        <ele>198</ele>
        <time>2024-11-20T13:35:48Z</time>
      </trkpt>
      <trkpt lat="48.18245" lon="-3.3106">
        <ele>198</ele>
        <time>2024-11-20T13:35:49Z</time>
      </trkpt>
      <trkpt lat="48.18244" lon="-3.3106">
        <ele>198</ele>
        <time>2024-11-20T13:35:50Z</time>
      </trkpt>
      <trkpt lat="48.18242" lon="-3.3106">
        <ele>198</ele>
        <time>2024-11-20T13:35:51Z</time>
      </trkpt>
      <trkpt lat="48.18241" lon="-3.31059">
        <ele>198</ele>
        <time>2024-11-20T13:35:52Z</time>
      </trkpt>
      <trkpt lat="48.1824" lon="-3.31059">
        <ele>198</ele>
        <time>2024-11-20T13:35:53Z</time>
      </trkpt>
      <trkpt lat="48.18239" lon="-3.31059">
        <ele>198</ele>
        <time>2024-11-20T13:35:54Z</time>
      </trkpt>
      <trkpt lat="48.18238" lon="-3.31059">
        <ele>198</ele>
        <time>2024-11-20T13:35:55Z</time>
      </trkpt>
      <trkpt lat="48.18237" lon="-3.31059">
        <ele>198</ele>
        <time>2024-11-20T13:35:56Z</time>
      </trkpt>
      <trkpt lat="48.18236" lon="-3.3106">
        <ele>198</ele>
        <time>2024-11-20T13:35:57Z</time>
      </trkpt>
      <trkpt lat="48.18235" lon="-3.3106">
        <ele>198</ele>
        <time>2024-11-20T13:35:58Z</time>
      </trkpt>
      <trkpt lat="48.18234" lon="-3.3106">
        <ele>198</ele>
        <time>2024-11-20T13:35:59Z</time>
      </trkpt>
      <trkpt lat="48.18233" lon="-3.31059">
        <ele>198</ele>
        <time>2024-11-20T13:36:00Z</time>
      </trkpt>
      <trkpt lat="48.18232" lon="-3.31059">
        <ele>198</ele>
        <time>2024-11-20T13:36:01Z</time>
      </trkpt>
      <trkpt lat="48.1823" lon="-3.31059">
        <ele>198</ele>
        <time>2024-11-20T13:36:02Z</time>
      </trkpt>
      <trkpt lat="48.18229" lon="-3.31059">
        <ele>198</ele>
        <time>2024-11-20T13:36:03Z</time>
      </trkpt>
      <trkpt lat="48.18228" lon="-3.31059">
        <ele>198</ele>
        <time>2024-11-20T13:36:04Z</time>
      </trkpt>
      <trkpt lat="48.18227" lon="-3.31059">
        <ele>198</ele>
        <time>2024-11-20T13:36:05Z</time>
      </trkpt>
      <trkpt lat="48.18225" lon="-3.31058">
        <ele>198</ele>
        <time>2024-11-20T13:36:06Z</time>
      </trkpt>
      <trkpt lat="48.18224" lon="-3.31057">
        <ele>198</ele>
        <time>2024-11-20T13:36:07Z</time>
      </trkpt>
      <trkpt lat="48.18223" lon="-3.31057">
        <ele>198</ele>
        <time>2024-11-20T13:36:08Z</time>
      </trkpt>
      <trkpt lat="48.18222" lon="-3.31057">
        <ele>198</ele>
        <time>2024-11-20T13:36:09Z</time>
      </trkpt>
      <trkpt lat="48.18221" lon="-3.31057">
        <ele>198</ele>
        <time>2024-11-20T13:36:10Z</time>
      </trkpt>
      <trkpt lat="48.1822" lon="-3.31056">
        <ele>198</ele>
        <time>2024-11-20T13:36:11Z</time>
      </trkpt>
      <trkpt lat="48.18218" lon="-3.31056">
        <ele>198</ele>
        <time>2024-11-20T13:36:12Z</time>
      </trkpt>
      <trkpt lat="48.18217" lon="-3.31056">
        <ele>198</ele>
        <time>2024-11-20T13:36:13Z</time>
      </trkpt>
      <trkpt lat="48.18217" lon="-3.31056">
        <ele>198</ele>
        <time>2024-11-20T13:36:14Z</time>
      </trkpt>
      <trkpt lat="48.18217" lon="-3.31057">
        <ele>198</ele>
        <time>2024-11-20T13:36:15Z</time>
      </trkpt>
      <trkpt lat="48.18217" lon="-3.31057">
        <ele>198</ele>
        <time>2024-11-20T13:36:16Z</time>
      </trkpt>
      <trkpt lat="48.18216" lon="-3.31056">
        <ele>198</ele>
        <time>2024-11-20T13:36:17Z</time>
      </trkpt>
      <trkpt lat="48.18215" lon="-3.31056">
        <ele>198</ele>
        <time>2024-11-20T13:36:18Z</time>
      </trkpt>
      <trkpt lat="48.18214" lon="-3.31055">
        <ele>198</ele>
        <time>2024-11-20T13:36:19Z</time>
      </trkpt>
      <trkpt lat="48.18213" lon="-3.31055">
        <ele>198</ele>
        <time>2024-11-20T13:36:20Z</time>
      </trkpt>
      <trkpt lat="48.18212" lon="-3.31054">
        <ele>198</ele>
        <time>2024-11-20T13:36:21Z</time>
      </trkpt>
      <trkpt lat="48.18211" lon="-3.31053">
        <ele>198</ele>
        <time>2024-11-20T13:36:22Z</time>
      </trkpt>
      <trkpt lat="48.1821" lon="-3.31053">
        <ele>198</ele>
        <time>2024-11-20T13:36:23Z</time>
      </trkpt>
      <trkpt lat="48.18209" lon="-3.31051">
        <ele>198</ele>
        <time>2024-11-20T13:36:24Z</time>
      </trkpt>
      <trkpt lat="48.18207" lon="-3.3105">
        <ele>198</ele>
        <time>2024-11-20T13:36:25Z</time>
      </trkpt>
      <trkpt lat="48.18206" lon="-3.31049">
        <ele>198</ele>
        <time>2024-11-20T13:36:26Z</time>
      </trkpt>
      <trkpt lat="48.18205" lon="-3.31048">
        <ele>198</ele>
        <time>2024-11-20T13:36:27Z</time>
      </trkpt>
      <trkpt lat="48.18204" lon="-3.31047">
        <ele>198</ele>
        <time>2024-11-20T13:36:28Z</time>
      </trkpt>
      <trkpt lat="48.18203" lon="-3.31044">
        <ele>198</ele>
        <time>2024-11-20T13:36:30Z</time>
      </trkpt>
      <trkpt lat="48.18202" lon="-3.31043">
        <ele>198</ele>
        <time>2024-11-20T13:36:31Z</time>
      </trkpt>
      <trkpt lat="48.18201" lon="-3.31041">
        <ele>198</ele>
        <time>2024-11-20T13:36:32Z</time>
      </trkpt>
      <trkpt lat="48.18201" lon="-3.3104">
        <ele>198</ele>
        <time>2024-11-20T13:36:33Z</time>
      </trkpt>
      <trkpt lat="48.182" lon="-3.31038">
        <ele>198</ele>
        <time>2024-11-20T13:36:34Z</time>
      </trkpt>
      <trkpt lat="48.18199" lon="-3.31037">
        <ele>198</ele>
        <time>2024-11-20T13:36:35Z</time>
      </trkpt>
      <trkpt lat="48.18199" lon="-3.31036">
        <ele>198</ele>
        <time>2024-11-20T13:36:36Z</time>
      </trkpt>
      <trkpt lat="48.18198" lon="-3.31035">
        <ele>198</ele>
        <time>2024-11-20T13:36:37Z</time>
      </trkpt>
      <trkpt lat="48.18197" lon="-3.31034">
        <ele>198</ele>
        <time>2024-11-20T13:36:38Z</time>
      </trkpt>
      <trkpt lat="48.18196" lon="-3.31033">
        <ele>198</ele>
        <time>2024-11-20T13:36:39Z</time>
      </trkpt>
      <trkpt lat="48.18195" lon="-3.31032">
        <ele>198</ele>
        <time>2024-11-20T13:36:40Z</time>
      </trkpt>
      <trkpt lat="48.18194" lon="-3.31031">
        <ele>198</ele>
        <time>2024-11-20T13:36:41Z</time>
      </trkpt>
      <trkpt lat="48.18194" lon="-3.3103">
        <ele>198</ele>
        <time>2024-11-20T13:36:42Z</time>
      </trkpt>
      <trkpt lat="48.18193" lon="-3.31029">
        <ele>198.1</ele>
        <time>2024-11-20T13:36:43Z</time>
      </trkpt>
      <trkpt lat="48.18192" lon="-3.31028">
        <ele>198.1</ele>
        <time>2024-11-20T13:36:44Z</time>
      </trkpt>
      <trkpt lat="48.18191" lon="-3.31027">
        <ele>198.1</ele>
        <time>2024-11-20T13:36:45Z</time>
      </trkpt>
      <trkpt lat="48.18191" lon="-3.31027">
        <ele>198.1</ele>
        <time>2024-11-20T13:36:46Z</time>
      </trkpt>
      <trkpt lat="48.18191" lon="-3.31027">
        <ele>198.1</ele>
        <time>2024-11-20T13:36:47Z</time>
      </trkpt>
      <trkpt lat="48.1819" lon="-3.31026">
        <ele>198.1</ele>
        <time>2024-11-20T13:36:48Z</time>
      </trkpt>
      <trkpt lat="48.18189" lon="-3.31025">
        <ele>198.2</ele>
        <time>2024-11-20T13:36:49Z</time>
      </trkpt>
      <trkpt lat="48.18189" lon="-3.31024">
        <ele>198.2</ele>
        <time>2024-11-20T13:36:50Z</time>
      </trkpt>
      <trkpt lat="48.18188" lon="-3.31023">
        <ele>198.2</ele>
        <time>2024-11-20T13:36:51Z</time>
      </trkpt>
      <trkpt lat="48.18187" lon="-3.31021">
        <ele>198.2</ele>
        <time>2024-11-20T13:36:52Z</time>
      </trkpt>
      <trkpt lat="48.18186" lon="-3.3102">
        <ele>198.2</ele>
        <time>2024-11-20T13:36:53Z</time>
      </trkpt>
      <trkpt lat="48.18185" lon="-3.31018">
        <ele>198.2</ele>
        <time>2024-11-20T13:36:54Z</time>
      </trkpt>
      <trkpt lat="48.18185" lon="-3.31017">
        <ele>198.2</ele>
        <time>2024-11-20T13:36:55Z</time>
      </trkpt>
      <trkpt lat="48.18184" lon="-3.31015">
        <ele>198.2</ele>
        <time>2024-11-20T13:36:56Z</time>
      </trkpt>
      <trkpt lat="48.18184" lon="-3.31014">
        <ele>198.2</ele>
        <time>2024-11-20T13:36:57Z</time>
      </trkpt>
      <trkpt lat="48.18183" lon="-3.31012">
        <ele>198.2</ele>
        <time>2024-11-20T13:36:58Z</time>
      </trkpt>
      <trkpt lat="48.18183" lon="-3.31011">
        <ele>198.2</ele>
        <time>2024-11-20T13:36:59Z</time>
      </trkpt>
      <trkpt lat="48.18182" lon="-3.31009">
        <ele>198.1</ele>
        <time>2024-11-20T13:37:00Z</time>
      </trkpt>
      <trkpt lat="48.18182" lon="-3.31008">
        <ele>198.1</ele>
        <time>2024-11-20T13:37:01Z</time>
      </trkpt>
      <trkpt lat="48.18181" lon="-3.31007">
        <ele>198.1</ele>
        <time>2024-11-20T13:37:02Z</time>
      </trkpt>
      <trkpt lat="48.18181" lon="-3.31006">
        <ele>198.1</ele>
        <time>2024-11-20T13:37:03Z</time>
      </trkpt>
      <trkpt lat="48.1818" lon="-3.31004">
        <ele>198.1</ele>
        <time>2024-11-20T13:37:04Z</time>
      </trkpt>
      <trkpt lat="48.18179" lon="-3.31003">
        <ele>198.1</ele>
        <time>2024-11-20T13:37:05Z</time>
      </trkpt>
      <trkpt lat="48.18179" lon="-3.31002">
        <ele>198</ele>
        <time>2024-11-20T13:37:06Z</time>
      </trkpt>
      <trkpt lat="48.18178" lon="-3.31">
        <ele>198</ele>
        <time>2024-11-20T13:37:07Z</time>
      </trkpt>
      <trkpt lat="48.18177" lon="-3.30999">
        <ele>198</ele>
        <time>2024-11-20T13:37:08Z</time>
      </trkpt>
      <trkpt lat="48.18176" lon="-3.30998">
        <ele>198</ele>
        <time>2024-11-20T13:37:09Z</time>
      </trkpt>
      <trkpt lat="48.18176" lon="-3.30996">
        <ele>198</ele>
        <time>2024-11-20T13:37:10Z</time>
      </trkpt>
      <trkpt lat="48.18175" lon="-3.30995">
        <ele>198</ele>
        <time>2024-11-20T13:37:11Z</time>
      </trkpt>
      <trkpt lat="48.18174" lon="-3.30994">
        <ele>198</ele>
        <time>2024-11-20T13:37:12Z</time>
      </trkpt>
      <trkpt lat="48.18173" lon="-3.30992">
        <ele>198</ele>
        <time>2024-11-20T13:37:13Z</time>
      </trkpt>
      <trkpt lat="48.18172" lon="-3.30991">
        <ele>198</ele>
        <time>2024-11-20T13:37:14Z</time>
      </trkpt>
      <trkpt lat="48.18172" lon="-3.3099">
        <ele>198</ele>
        <time>2024-11-20T13:37:15Z</time>
      </trkpt>
      <trkpt lat="48.18171" lon="-3.30989">
        <ele>198</ele>
        <time>2024-11-20T13:37:16Z</time>
      </trkpt>
      <trkpt lat="48.18171" lon="-3.30988">
        <ele>198</ele>
        <time>2024-11-20T13:37:17Z</time>
      </trkpt>
      <trkpt lat="48.1817" lon="-3.30986">
        <ele>198</ele>
        <time>2024-11-20T13:37:18Z</time>
      </trkpt>
      <trkpt lat="48.18169" lon="-3.30985">
        <ele>198</ele>
        <time>2024-11-20T13:37:19Z</time>
      </trkpt>
      <trkpt lat="48.18168" lon="-3.30984">
        <ele>198</ele>
        <time>2024-11-20T13:37:20Z</time>
      </trkpt>
      <trkpt lat="48.18167" lon="-3.30982">
        <ele>198</ele>
        <time>2024-11-20T13:37:21Z</time>
      </trkpt>
      <trkpt lat="48.18166" lon="-3.30981">
        <ele>198</ele>
        <time>2024-11-20T13:37:22Z</time>
      </trkpt>
      <trkpt lat="48.18164" lon="-3.3098">
        <ele>198</ele>
        <time>2024-11-20T13:37:23Z</time>
      </trkpt>
      <trkpt lat="48.18163" lon="-3.30979">
        <ele>198</ele>
        <time>2024-11-20T13:37:24Z</time>
      </trkpt>
      <trkpt lat="48.18162" lon="-3.30978">
        <ele>198</ele>
        <time>2024-11-20T13:37:25Z</time>
      </trkpt>
      <trkpt lat="48.18161" lon="-3.30977">
        <ele>198</ele>
        <time>2024-11-20T13:37:26Z</time>
      </trkpt>
      <trkpt lat="48.1816" lon="-3.30976">
        <ele>198</ele>
        <time>2024-11-20T13:37:27Z</time>
      </trkpt>
      <trkpt lat="48.18159" lon="-3.30975">
        <ele>198</ele>
        <time>2024-11-20T13:37:28Z</time>
      </trkpt>
      <trkpt lat="48.18159" lon="-3.30974">
        <ele>198</ele>
        <time>2024-11-20T13:37:29Z</time>
      </trkpt>
      <trkpt lat="48.18158" lon="-3.30973">
        <ele>198</ele>
        <time>2024-11-20T13:37:30Z</time>
      </trkpt>
      <trkpt lat="48.18158" lon="-3.30972">
        <ele>198</ele>
        <time>2024-11-20T13:37:31Z</time>
      </trkpt>
      <trkpt lat="48.18157" lon="-3.30971">
        <ele>198</ele>
        <time>2024-11-20T13:37:32Z</time>
      </trkpt>
      <trkpt lat="48.18156" lon="-3.3097">
        <ele>198</ele>
        <time>2024-11-20T13:37:33Z</time>
      </trkpt>
      <trkpt lat="48.18155" lon="-3.30969">
        <ele>198</ele>
        <time>2024-11-20T13:37:34Z</time>
      </trkpt>
      <trkpt lat="48.18154" lon="-3.30968">
        <ele>198</ele>
        <time>2024-11-20T13:37:35Z</time>
      </trkpt>
      <trkpt lat="48.18153" lon="-3.30968">
        <ele>198</ele>
        <time>2024-11-20T13:37:36Z</time>
      </trkpt>
      <trkpt lat="48.18152" lon="-3.30967">
        <ele>198</ele>
        <time>2024-11-20T13:37:37Z</time>
      </trkpt>
      <trkpt lat="48.18151" lon="-3.30967">
        <ele>198</ele>
        <time>2024-11-20T13:37:38Z</time>
      </trkpt>
      <trkpt lat="48.1815" lon="-3.30966">
        <ele>198</ele>
        <time>2024-11-20T13:37:39Z</time>
      </trkpt>
      <trkpt lat="48.18149" lon="-3.30965">
        <ele>198</ele>
        <time>2024-11-20T13:37:40Z</time>
      </trkpt>
      <trkpt lat="48.18148" lon="-3.30965">
        <ele>198</ele>
        <time>2024-11-20T13:37:41Z</time>
      </trkpt>
      <trkpt lat="48.18147" lon="-3.30964">
        <ele>198</ele>
        <time>2024-11-20T13:37:42Z</time>
      </trkpt>
      <trkpt lat="48.18146" lon="-3.30963">
        <ele>198</ele>
        <time>2024-11-20T13:37:43Z</time>
      </trkpt>
      <trkpt lat="48.18145" lon="-3.30963">
        <ele>198</ele>
        <time>2024-11-20T13:37:44Z</time>
      </trkpt>
      <trkpt lat="48.18144" lon="-3.30962">
        <ele>198</ele>
        <time>2024-11-20T13:37:45Z</time>
      </trkpt>
      <trkpt lat="48.18143" lon="-3.30961">
        <ele>198</ele>
        <time>2024-11-20T13:37:46Z</time>
      </trkpt>
      <trkpt lat="48.18143" lon="-3.30961">
        <ele>198</ele>
        <time>2024-11-20T13:37:47Z</time>
      </trkpt>
      <trkpt lat="48.18142" lon="-3.3096">
        <ele>198</ele>
        <time>2024-11-20T13:37:48Z</time>
      </trkpt>
      <trkpt lat="48.1814" lon="-3.3096">
        <ele>198</ele>
        <time>2024-11-20T13:37:49Z</time>
      </trkpt>
      <trkpt lat="48.18139" lon="-3.30959">
        <ele>198</ele>
        <time>2024-11-20T13:37:50Z</time>
      </trkpt>
      <trkpt lat="48.18138" lon="-3.30959">
        <ele>198</ele>
        <time>2024-11-20T13:37:51Z</time>
      </trkpt>
      <trkpt lat="48.18137" lon="-3.30958">
        <ele>198</ele>
        <time>2024-11-20T13:37:52Z</time>
      </trkpt>
      <trkpt lat="48.18136" lon="-3.30958">
        <ele>198</ele>
        <time>2024-11-20T13:37:53Z</time>
      </trkpt>
      <trkpt lat="48.18135" lon="-3.30957">
        <ele>198.1</ele>
        <time>2024-11-20T13:37:54Z</time>
      </trkpt>
      <trkpt lat="48.18133" lon="-3.30956">
        <ele>198.1</ele>
        <time>2024-11-20T13:37:55Z</time>
      </trkpt>
      <trkpt lat="48.18132" lon="-3.30956">
        <ele>198.1</ele>
        <time>2024-11-20T13:37:56Z</time>
      </trkpt>
      <trkpt lat="48.1813" lon="-3.30955">
        <ele>198.1</ele>
        <time>2024-11-20T13:37:57Z</time>
      </trkpt>
      <trkpt lat="48.18129" lon="-3.30955">
        <ele>198.1</ele>
        <time>2024-11-20T13:37:58Z</time>
      </trkpt>
      <trkpt lat="48.18127" lon="-3.30954">
        <ele>198.2</ele>
        <time>2024-11-20T13:37:59Z</time>
      </trkpt>
      <trkpt lat="48.18126" lon="-3.30954">
        <ele>198.2</ele>
        <time>2024-11-20T13:38:00Z</time>
      </trkpt>
      <trkpt lat="48.18124" lon="-3.30953">
        <ele>198.2</ele>
        <time>2024-11-20T13:38:01Z</time>
      </trkpt>
      <trkpt lat="48.18123" lon="-3.30953">
        <ele>198.2</ele>
        <time>2024-11-20T13:38:02Z</time>
      </trkpt>
      <trkpt lat="48.18122" lon="-3.30953">
        <ele>198.2</ele>
        <time>2024-11-20T13:38:03Z</time>
      </trkpt>
      <trkpt lat="48.18121" lon="-3.30953">
        <ele>198.2</ele>
        <time>2024-11-20T13:38:04Z</time>
      </trkpt>
      <trkpt lat="48.1812" lon="-3.30953">
        <ele>198.2</ele>
        <time>2024-11-20T13:38:05Z</time>
      </trkpt>
      <trkpt lat="48.1812" lon="-3.30953">
        <ele>198.2</ele>
        <time>2024-11-20T13:38:06Z</time>
      </trkpt>
      <trkpt lat="48.1812" lon="-3.30952">
        <ele>198.2</ele>
        <time>2024-11-20T13:38:07Z</time>
      </trkpt>
      <trkpt lat="48.18119" lon="-3.30952">
        <ele>198.2</ele>
        <time>2024-11-20T13:38:08Z</time>
      </trkpt>
      <trkpt lat="48.18117" lon="-3.30953">
        <ele>198.2</ele>
        <time>2024-11-20T13:38:09Z</time>
      </trkpt>
      <trkpt lat="48.18116" lon="-3.30952">
        <ele>198.2</ele>
        <time>2024-11-20T13:38:10Z</time>
      </trkpt>
      <trkpt lat="48.18115" lon="-3.30952">
        <ele>198.2</ele>
        <time>2024-11-20T13:38:11Z</time>
      </trkpt>
      <trkpt lat="48.18113" lon="-3.30952">
        <ele>198.2</ele>
        <time>2024-11-20T13:38:12Z</time>
      </trkpt>
      <trkpt lat="48.18112" lon="-3.30951">
        <ele>198.2</ele>
        <time>2024-11-20T13:38:13Z</time>
      </trkpt>
      <trkpt lat="48.18111" lon="-3.30951">
        <ele>198.2</ele>
        <time>2024-11-20T13:38:14Z</time>
      </trkpt>
      <trkpt lat="48.1811" lon="-3.3095">
        <ele>198.2</ele>
        <time>2024-11-20T13:38:15Z</time>
      </trkpt>
      <trkpt lat="48.18109" lon="-3.3095">
        <ele>198.2</ele>
        <time>2024-11-20T13:38:16Z</time>
      </trkpt>
      <trkpt lat="48.18108" lon="-3.30949">
        <ele>198.3</ele>
        <time>2024-11-20T13:38:17Z</time>
      </trkpt>
      <trkpt lat="48.18106" lon="-3.30949">
        <ele>198.3</ele>
        <time>2024-11-20T13:38:18Z</time>
      </trkpt>
      <trkpt lat="48.18105" lon="-3.30948">
        <ele>198.3</ele>
        <time>2024-11-20T13:38:19Z</time>
      </trkpt>
      <trkpt lat="48.18103" lon="-3.30948">
        <ele>198.4</ele>
        <time>2024-11-20T13:38:20Z</time>
      </trkpt>
      <trkpt lat="48.18102" lon="-3.30948">
        <ele>198.4</ele>
        <time>2024-11-20T13:38:21Z</time>
      </trkpt>
      <trkpt lat="48.18101" lon="-3.30948">
        <ele>198.4</ele>
        <time>2024-11-20T13:38:22Z</time>
      </trkpt>
      <trkpt lat="48.181" lon="-3.30948">
        <ele>198.5</ele>
        <time>2024-11-20T13:38:23Z</time>
      </trkpt>
      <trkpt lat="48.18099" lon="-3.30947">
        <ele>198.5</ele>
        <time>2024-11-20T13:38:24Z</time>
      </trkpt>
      <trkpt lat="48.18098" lon="-3.30947">
        <ele>198.5</ele>
        <time>2024-11-20T13:38:25Z</time>
      </trkpt>
      <trkpt lat="48.18096" lon="-3.30947">
        <ele>198.6</ele>
        <time>2024-11-20T13:38:26Z</time>
      </trkpt>
      <trkpt lat="48.18095" lon="-3.30947">
        <ele>198.6</ele>
        <time>2024-11-20T13:38:27Z</time>
      </trkpt>
      <trkpt lat="48.18093" lon="-3.30946">
        <ele>198.7</ele>
        <time>2024-11-20T13:38:28Z</time>
      </trkpt>
      <trkpt lat="48.18092" lon="-3.30946">
        <ele>198.7</ele>
        <time>2024-11-20T13:38:29Z</time>
      </trkpt>
      <trkpt lat="48.18091" lon="-3.30946">
        <ele>198.8</ele>
        <time>2024-11-20T13:38:30Z</time>
      </trkpt>
      <trkpt lat="48.18089" lon="-3.30946">
        <ele>198.8</ele>
        <time>2024-11-20T13:38:31Z</time>
      </trkpt>
      <trkpt lat="48.18088" lon="-3.30946">
        <ele>198.8</ele>
        <time>2024-11-20T13:38:32Z</time>
      </trkpt>
      <trkpt lat="48.18087" lon="-3.30945">
        <ele>198.9</ele>
        <time>2024-11-20T13:38:33Z</time>
      </trkpt>
      <trkpt lat="48.18085" lon="-3.30945">
        <ele>198.9</ele>
        <time>2024-11-20T13:38:34Z</time>
      </trkpt>
      <trkpt lat="48.18084" lon="-3.30945">
        <ele>199</ele>
        <time>2024-11-20T13:38:35Z</time>
      </trkpt>
      <trkpt lat="48.18083" lon="-3.30945">
        <ele>199</ele>
        <time>2024-11-20T13:38:36Z</time>
      </trkpt>
      <trkpt lat="48.18082" lon="-3.30945">
        <ele>199</ele>
        <time>2024-11-20T13:38:37Z</time>
      </trkpt>
      <trkpt lat="48.1808" lon="-3.30945">
        <ele>199</ele>
        <time>2024-11-20T13:38:38Z</time>
      </trkpt>
      <trkpt lat="48.18079" lon="-3.30944">
        <ele>199</ele>
        <time>2024-11-20T13:38:39Z</time>
      </trkpt>
      <trkpt lat="48.18078" lon="-3.30944">
        <ele>199</ele>
        <time>2024-11-20T13:38:40Z</time>
      </trkpt>
      <trkpt lat="48.18077" lon="-3.30944">
        <ele>199</ele>
        <time>2024-11-20T13:38:41Z</time>
      </trkpt>
      <trkpt lat="48.18076" lon="-3.30944">
        <ele>199</ele>
        <time>2024-11-20T13:38:42Z</time>
      </trkpt>
      <trkpt lat="48.18075" lon="-3.30944">
        <ele>199</ele>
        <time>2024-11-20T13:38:43Z</time>
      </trkpt>
      <trkpt lat="48.18074" lon="-3.30944">
        <ele>199</ele>
        <time>2024-11-20T13:38:44Z</time>
      </trkpt>
      <trkpt lat="48.18073" lon="-3.30944">
        <ele>199</ele>
        <time>2024-11-20T13:38:45Z</time>
      </trkpt>
      <trkpt lat="48.18072" lon="-3.30943">
        <ele>199</ele>
        <time>2024-11-20T13:38:46Z</time>
      </trkpt>
      <trkpt lat="48.18071" lon="-3.30943">
        <ele>199</ele>
        <time>2024-11-20T13:38:47Z</time>
      </trkpt>
      <trkpt lat="48.18069" lon="-3.30943">
        <ele>199</ele>
        <time>2024-11-20T13:38:48Z</time>
      </trkpt>
      <trkpt lat="48.18068" lon="-3.30942">
        <ele>199</ele>
        <time>2024-11-20T13:38:49Z</time>
      </trkpt>
      <trkpt lat="48.18067" lon="-3.30942">
        <ele>199</ele>
        <time>2024-11-20T13:38:50Z</time>
      </trkpt>
      <trkpt lat="48.18065" lon="-3.30942">
        <ele>199</ele>
        <time>2024-11-20T13:38:51Z</time>
      </trkpt>
      <trkpt lat="48.18064" lon="-3.30942">
        <ele>199</ele>
        <time>2024-11-20T13:38:52Z</time>
      </trkpt>
      <trkpt lat="48.18063" lon="-3.30942">
        <ele>199</ele>
        <time>2024-11-20T13:38:53Z</time>
      </trkpt>
      <trkpt lat="48.18061" lon="-3.30942">
        <ele>199</ele>
        <time>2024-11-20T13:38:54Z</time>
      </trkpt>
      <trkpt lat="48.1806" lon="-3.30942">
        <ele>199</ele>
        <time>2024-11-20T13:38:55Z</time>
      </trkpt>
      <trkpt lat="48.1806" lon="-3.30942">
        <ele>199</ele>
        <time>2024-11-20T13:38:56Z</time>
      </trkpt>
      <trkpt lat="48.18059" lon="-3.30942">
        <ele>199</ele>
        <time>2024-11-20T13:38:57Z</time>
      </trkpt>
      <trkpt lat="48.18057" lon="-3.30941">
        <ele>199</ele>
        <time>2024-11-20T13:38:58Z</time>
      </trkpt>
      <trkpt lat="48.18056" lon="-3.30941">
        <ele>199</ele>
        <time>2024-11-20T13:38:59Z</time>
      </trkpt>
      <trkpt lat="48.18055" lon="-3.30941">
        <ele>199</ele>
        <time>2024-11-20T13:39:00Z</time>
      </trkpt>
      <trkpt lat="48.18054" lon="-3.30941">
        <ele>199</ele>
        <time>2024-11-20T13:39:01Z</time>
      </trkpt>
      <trkpt lat="48.18054" lon="-3.30941">
        <ele>199</ele>
        <time>2024-11-20T13:39:02Z</time>
      </trkpt>
      <trkpt lat="48.18054" lon="-3.30941">
        <ele>199.1</ele>
        <time>2024-11-20T13:39:03Z</time>
      </trkpt>
      <trkpt lat="48.18052" lon="-3.30941">
        <ele>199.1</ele>
        <time>2024-11-20T13:39:04Z</time>
      </trkpt>
      <trkpt lat="48.18051" lon="-3.30941">
        <ele>199.2</ele>
        <time>2024-11-20T13:39:05Z</time>
      </trkpt>
      <trkpt lat="48.1805" lon="-3.30941">
        <ele>199.2</ele>
        <time>2024-11-20T13:39:06Z</time>
      </trkpt>
      <trkpt lat="48.18048" lon="-3.3094">
        <ele>199.3</ele>
        <time>2024-11-20T13:39:07Z</time>
      </trkpt>
      <trkpt lat="48.18047" lon="-3.3094">
        <ele>199.3</ele>
        <time>2024-11-20T13:39:08Z</time>
      </trkpt>
      <trkpt lat="48.18046" lon="-3.3094">
        <ele>199.3</ele>
        <time>2024-11-20T13:39:09Z</time>
      </trkpt>
      <trkpt lat="48.18045" lon="-3.3094">
        <ele>199.4</ele>
        <time>2024-11-20T13:39:10Z</time>
      </trkpt>
      <trkpt lat="48.18044" lon="-3.3094">
        <ele>199.4</ele>
        <time>2024-11-20T13:39:11Z</time>
      </trkpt>
      <trkpt lat="48.18042" lon="-3.3094">
        <ele>199.5</ele>
        <time>2024-11-20T13:39:12Z</time>
      </trkpt>
      <trkpt lat="48.18041" lon="-3.3094">
        <ele>199.5</ele>
        <time>2024-11-20T13:39:13Z</time>
      </trkpt>
      <trkpt lat="48.1804" lon="-3.3094">
        <ele>199.6</ele>
        <time>2024-11-20T13:39:14Z</time>
      </trkpt>
      <trkpt lat="48.18039" lon="-3.3094">
        <ele>199.6</ele>
        <time>2024-11-20T13:39:15Z</time>
      </trkpt>
      <trkpt lat="48.18038" lon="-3.30939">
        <ele>199.6</ele>
        <time>2024-11-20T13:39:16Z</time>
      </trkpt>
      <trkpt lat="48.18037" lon="-3.30939">
        <ele>199.7</ele>
        <time>2024-11-20T13:39:17Z</time>
      </trkpt>
      <trkpt lat="48.18036" lon="-3.30939">
        <ele>199.7</ele>
        <time>2024-11-20T13:39:18Z</time>
      </trkpt>
      <trkpt lat="48.18035" lon="-3.30939">
        <ele>199.8</ele>
        <time>2024-11-20T13:39:19Z</time>
      </trkpt>
      <trkpt lat="48.18034" lon="-3.30939">
        <ele>199.8</ele>
        <time>2024-11-20T13:39:20Z</time>
      </trkpt>
      <trkpt lat="48.18034" lon="-3.30939">
        <ele>199.8</ele>
        <time>2024-11-20T13:39:21Z</time>
      </trkpt>
      <trkpt lat="48.18033" lon="-3.30938">
        <ele>199.8</ele>
        <time>2024-11-20T13:39:22Z</time>
      </trkpt>
      <trkpt lat="48.18033" lon="-3.30938">
        <ele>199.8</ele>
        <time>2024-11-20T13:39:23Z</time>
      </trkpt>
      <trkpt lat="48.18032" lon="-3.30938">
        <ele>199.9</ele>
        <time>2024-11-20T13:39:24Z</time>
      </trkpt>
      <trkpt lat="48.1803" lon="-3.30938">
        <ele>199.9</ele>
        <time>2024-11-20T13:39:25Z</time>
      </trkpt>
      <trkpt lat="48.18029" lon="-3.30939">
        <ele>200</ele>
        <time>2024-11-20T13:39:26Z</time>
      </trkpt>
      <trkpt lat="48.18028" lon="-3.30939">
        <ele>200</ele>
        <time>2024-11-20T13:39:27Z</time>
      </trkpt>
      <trkpt lat="48.18027" lon="-3.30938">
        <ele>200</ele>
        <time>2024-11-20T13:39:28Z</time>
      </trkpt>
      <trkpt lat="48.18025" lon="-3.30938">
        <ele>200.1</ele>
        <time>2024-11-20T13:39:29Z</time>
      </trkpt>
      <trkpt lat="48.18024" lon="-3.30938">
        <ele>200.1</ele>
        <time>2024-11-20T13:39:30Z</time>
      </trkpt>
      <trkpt lat="48.18023" lon="-3.30938">
        <ele>200.2</ele>
        <time>2024-11-20T13:39:31Z</time>
      </trkpt>
      <trkpt lat="48.18022" lon="-3.30938">
        <ele>200.2</ele>
        <time>2024-11-20T13:39:32Z</time>
      </trkpt>
      <trkpt lat="48.1802" lon="-3.30937">
        <ele>200.3</ele>
        <time>2024-11-20T13:39:33Z</time>
      </trkpt>
      <trkpt lat="48.18019" lon="-3.30937">
        <ele>200.3</ele>
        <time>2024-11-20T13:39:34Z</time>
      </trkpt>
      <trkpt lat="48.18018" lon="-3.30937">
        <ele>200.4</ele>
        <time>2024-11-20T13:39:35Z</time>
      </trkpt>
      <trkpt lat="48.18017" lon="-3.30937">
        <ele>200.4</ele>
        <time>2024-11-20T13:39:36Z</time>
      </trkpt>
      <trkpt lat="48.18015" lon="-3.30936">
        <ele>200.5</ele>
        <time>2024-11-20T13:39:37Z</time>
      </trkpt>
      <trkpt lat="48.18014" lon="-3.30936">
        <ele>200.5</ele>
        <time>2024-11-20T13:39:38Z</time>
      </trkpt>
      <trkpt lat="48.18012" lon="-3.30936">
        <ele>200.6</ele>
        <time>2024-11-20T13:39:39Z</time>
      </trkpt>
      <trkpt lat="48.18011" lon="-3.30936">
        <ele>200.6</ele>
        <time>2024-11-20T13:39:40Z</time>
      </trkpt>
      <trkpt lat="48.1801" lon="-3.30936">
        <ele>200.6</ele>
        <time>2024-11-20T13:39:41Z</time>
      </trkpt>
      <trkpt lat="48.18009" lon="-3.30935">
        <ele>200.7</ele>
        <time>2024-11-20T13:39:42Z</time>
      </trkpt>
      <trkpt lat="48.18007" lon="-3.30935">
        <ele>200.7</ele>
        <time>2024-11-20T13:39:43Z</time>
      </trkpt>
      <trkpt lat="48.18006" lon="-3.30934">
        <ele>200.8</ele>
        <time>2024-11-20T13:39:44Z</time>
      </trkpt>
      <trkpt lat="48.18005" lon="-3.30934">
        <ele>200.8</ele>
        <time>2024-11-20T13:39:45Z</time>
      </trkpt>
      <trkpt lat="48.18003" lon="-3.30934">
        <ele>200.9</ele>
        <time>2024-11-20T13:39:46Z</time>
      </trkpt>
      <trkpt lat="48.18002" lon="-3.30934">
        <ele>200.9</ele>
        <time>2024-11-20T13:39:47Z</time>
      </trkpt>
      <trkpt lat="48.18001" lon="-3.30934">
        <ele>201</ele>
        <time>2024-11-20T13:39:48Z</time>
      </trkpt>
      <trkpt lat="48.18" lon="-3.30933">
        <ele>201.1</ele>
        <time>2024-11-20T13:39:49Z</time>
      </trkpt>
      <trkpt lat="48.17998" lon="-3.30933">
        <ele>201.2</ele>
        <time>2024-11-20T13:39:50Z</time>
      </trkpt>
      <trkpt lat="48.17997" lon="-3.30932">
        <ele>201.4</ele>
        <time>2024-11-20T13:39:51Z</time>
      </trkpt>
      <trkpt lat="48.17995" lon="-3.30932">
        <ele>201.5</ele>
        <time>2024-11-20T13:39:52Z</time>
      </trkpt>
      <trkpt lat="48.17994" lon="-3.30931">
        <ele>201.6</ele>
        <time>2024-11-20T13:39:53Z</time>
      </trkpt>
      <trkpt lat="48.17993" lon="-3.30931">
        <ele>201.7</ele>
        <time>2024-11-20T13:39:54Z</time>
      </trkpt>
      <trkpt lat="48.17992" lon="-3.30931">
        <ele>201.9</ele>
        <time>2024-11-20T13:39:55Z</time>
      </trkpt>
      <trkpt lat="48.17991" lon="-3.3093">
        <ele>202</ele>
        <time>2024-11-20T13:39:56Z</time>
      </trkpt>
      <trkpt lat="48.1799" lon="-3.3093">
        <ele>202.1</ele>
        <time>2024-11-20T13:39:57Z</time>
      </trkpt>
      <trkpt lat="48.17989" lon="-3.3093">
        <ele>202.2</ele>
        <time>2024-11-20T13:39:58Z</time>
      </trkpt>
      <trkpt lat="48.17988" lon="-3.3093">
        <ele>202.4</ele>
        <time>2024-11-20T13:39:59Z</time>
      </trkpt>
      <trkpt lat="48.17987" lon="-3.3093">
        <ele>202.5</ele>
        <time>2024-11-20T13:40:00Z</time>
      </trkpt>
      <trkpt lat="48.17986" lon="-3.3093">
        <ele>202.6</ele>
        <time>2024-11-20T13:40:01Z</time>
      </trkpt>
      <trkpt lat="48.17985" lon="-3.3093">
        <ele>202.7</ele>
        <time>2024-11-20T13:40:02Z</time>
      </trkpt>
      <trkpt lat="48.17984" lon="-3.3093">
        <ele>202.8</ele>
        <time>2024-11-20T13:40:03Z</time>
      </trkpt>
      <trkpt lat="48.17983" lon="-3.3093">
        <ele>202.9</ele>
        <time>2024-11-20T13:40:04Z</time>
      </trkpt>
      <trkpt lat="48.17982" lon="-3.3093">
        <ele>203</ele>
        <time>2024-11-20T13:40:05Z</time>
      </trkpt>
      <trkpt lat="48.17981" lon="-3.3093">
        <ele>203.1</ele>
        <time>2024-11-20T13:40:06Z</time>
      </trkpt>
      <trkpt lat="48.1798" lon="-3.3093">
        <ele>203.2</ele>
        <time>2024-11-20T13:40:07Z</time>
      </trkpt>
      <trkpt lat="48.17979" lon="-3.3093">
        <ele>203.4</ele>
        <time>2024-11-20T13:40:08Z</time>
      </trkpt>
      <trkpt lat="48.17978" lon="-3.3093">
        <ele>203.5</ele>
        <time>2024-11-20T13:40:09Z</time>
      </trkpt>
      <trkpt lat="48.17977" lon="-3.3093">
        <ele>203.6</ele>
        <time>2024-11-20T13:40:10Z</time>
      </trkpt>
      <trkpt lat="48.17976" lon="-3.30929">
        <ele>203.7</ele>
        <time>2024-11-20T13:40:11Z</time>
      </trkpt>
      <trkpt lat="48.17975" lon="-3.30929">
        <ele>203.8</ele>
        <time>2024-11-20T13:40:12Z</time>
      </trkpt>
      <trkpt lat="48.17975" lon="-3.30929">
        <ele>203.8</ele>
        <time>2024-11-20T13:40:13Z</time>
      </trkpt>
      <trkpt lat="48.17974" lon="-3.30929">
        <ele>204</ele>
        <time>2024-11-20T13:40:14Z</time>
      </trkpt>
      <trkpt lat="48.17972" lon="-3.30929">
        <ele>204.1</ele>
        <time>2024-11-20T13:40:15Z</time>
      </trkpt>
      <trkpt lat="48.17971" lon="-3.30928">
        <ele>204.3</ele>
        <time>2024-11-20T13:40:16Z</time>
      </trkpt>
      <trkpt lat="48.1797" lon="-3.30928">
        <ele>204.4</ele>
        <time>2024-11-20T13:40:17Z</time>
      </trkpt>
      <trkpt lat="48.17969" lon="-3.30927">
        <ele>204.6</ele>
        <time>2024-11-20T13:40:18Z</time>
      </trkpt>
      <trkpt lat="48.17968" lon="-3.30927">
        <ele>204.7</ele>
        <time>2024-11-20T13:40:19Z</time>
      </trkpt>
      <trkpt lat="48.17968" lon="-3.30926">
        <ele>204.8</ele>
        <time>2024-11-20T13:40:20Z</time>
      </trkpt>
      <trkpt lat="48.17967" lon="-3.30926">
        <ele>204.9</ele>
        <time>2024-11-20T13:40:21Z</time>
      </trkpt>
      <trkpt lat="48.17966" lon="-3.30926">
        <ele>205.1</ele>
        <time>2024-11-20T13:40:22Z</time>
      </trkpt>
      <trkpt lat="48.17964" lon="-3.30925">
        <ele>205.2</ele>
        <time>2024-11-20T13:40:23Z</time>
      </trkpt>
      <trkpt lat="48.17963" lon="-3.30925">
        <ele>205.4</ele>
        <time>2024-11-20T13:40:24Z</time>
      </trkpt>
      <trkpt lat="48.17963" lon="-3.30924">
        <ele>205.5</ele>
        <time>2024-11-20T13:40:25Z</time>
      </trkpt>
      <trkpt lat="48.17962" lon="-3.30923">
        <ele>205.7</ele>
        <time>2024-11-20T13:40:26Z</time>
      </trkpt>
      <trkpt lat="48.17961" lon="-3.30922">
        <ele>205.9</ele>
        <time>2024-11-20T13:40:27Z</time>
      </trkpt>
      <trkpt lat="48.17959" lon="-3.30922">
        <ele>206</ele>
        <time>2024-11-20T13:40:28Z</time>
      </trkpt>
      <trkpt lat="48.17958" lon="-3.30921">
        <ele>206.2</ele>
        <time>2024-11-20T13:40:29Z</time>
      </trkpt>
      <trkpt lat="48.17957" lon="-3.30921">
        <ele>206.3</ele>
        <time>2024-11-20T13:40:30Z</time>
      </trkpt>
      <trkpt lat="48.17956" lon="-3.3092">
        <ele>206.4</ele>
        <time>2024-11-20T13:40:31Z</time>
      </trkpt>
      <trkpt lat="48.17955" lon="-3.3092">
        <ele>206.6</ele>
        <time>2024-11-20T13:40:32Z</time>
      </trkpt>
      <trkpt lat="48.17954" lon="-3.3092">
        <ele>206.7</ele>
        <time>2024-11-20T13:40:33Z</time>
      </trkpt>
      <trkpt lat="48.17953" lon="-3.3092">
        <ele>206.8</ele>
        <time>2024-11-20T13:40:34Z</time>
      </trkpt>
      <trkpt lat="48.17952" lon="-3.3092">
        <ele>207</ele>
        <time>2024-11-20T13:40:35Z</time>
      </trkpt>
      <trkpt lat="48.17951" lon="-3.3092">
        <ele>207.1</ele>
        <time>2024-11-20T13:40:36Z</time>
      </trkpt>
      <trkpt lat="48.17949" lon="-3.3092">
        <ele>207.3</ele>
        <time>2024-11-20T13:40:37Z</time>
      </trkpt>
      <trkpt lat="48.17948" lon="-3.30919">
        <ele>207.4</ele>
        <time>2024-11-20T13:40:38Z</time>
      </trkpt>
      <trkpt lat="48.17947" lon="-3.30919">
        <ele>207.5</ele>
        <time>2024-11-20T13:40:39Z</time>
      </trkpt>
      <trkpt lat="48.17946" lon="-3.30918">
        <ele>207.7</ele>
        <time>2024-11-20T13:40:40Z</time>
      </trkpt>
      <trkpt lat="48.17945" lon="-3.30918">
        <ele>207.8</ele>
        <time>2024-11-20T13:40:41Z</time>
      </trkpt>
      <trkpt lat="48.17944" lon="-3.30917">
        <ele>208</ele>
        <time>2024-11-20T13:40:42Z</time>
      </trkpt>
      <trkpt lat="48.17943" lon="-3.30917">
        <ele>208.1</ele>
        <time>2024-11-20T13:40:43Z</time>
      </trkpt>
      <trkpt lat="48.17942" lon="-3.30916">
        <ele>208.1</ele>
        <time>2024-11-20T13:40:44Z</time>
      </trkpt>
      <trkpt lat="48.17941" lon="-3.30915">
        <ele>208.2</ele>
        <time>2024-11-20T13:40:45Z</time>
      </trkpt>
      <trkpt lat="48.1794" lon="-3.30915">
        <ele>208.3</ele>
        <time>2024-11-20T13:40:46Z</time>
      </trkpt>
      <trkpt lat="48.17939" lon="-3.30914">
        <ele>208.3</ele>
        <time>2024-11-20T13:40:47Z</time>
      </trkpt>
      <trkpt lat="48.17938" lon="-3.30913">
        <ele>208.4</ele>
        <time>2024-11-20T13:40:48Z</time>
      </trkpt>
      <trkpt lat="48.17937" lon="-3.30912">
        <ele>208.5</ele>
        <time>2024-11-20T13:40:49Z</time>
      </trkpt>
      <trkpt lat="48.17936" lon="-3.30911">
        <ele>208.5</ele>
        <time>2024-11-20T13:40:50Z</time>
      </trkpt>
      <trkpt lat="48.17935" lon="-3.30911">
        <ele>208.6</ele>
        <time>2024-11-20T13:40:51Z</time>
      </trkpt>
      <trkpt lat="48.17934" lon="-3.3091">
        <ele>208.7</ele>
        <time>2024-11-20T13:40:52Z</time>
      </trkpt>
      <trkpt lat="48.17933" lon="-3.3091">
        <ele>208.7</ele>
        <time>2024-11-20T13:40:53Z</time>
      </trkpt>
      <trkpt lat="48.17932" lon="-3.3091">
        <ele>208.8</ele>
        <time>2024-11-20T13:40:54Z</time>
      </trkpt>
      <trkpt lat="48.17931" lon="-3.30909">
        <ele>208.9</ele>
        <time>2024-11-20T13:40:55Z</time>
      </trkpt>
      <trkpt lat="48.1793" lon="-3.30908">
        <ele>209</ele>
        <time>2024-11-20T13:40:56Z</time>
      </trkpt>
      <trkpt lat="48.17929" lon="-3.30908">
        <ele>209.1</ele>
        <time>2024-11-20T13:40:57Z</time>
      </trkpt>
      <trkpt lat="48.17928" lon="-3.30907">
        <ele>209.2</ele>
        <time>2024-11-20T13:40:58Z</time>
      </trkpt>
      <trkpt lat="48.17927" lon="-3.30906">
        <ele>209.2</ele>
        <time>2024-11-20T13:40:59Z</time>
      </trkpt>
      <trkpt lat="48.17926" lon="-3.30906">
        <ele>209.3</ele>
        <time>2024-11-20T13:41:00Z</time>
      </trkpt>
      <trkpt lat="48.17926" lon="-3.30906">
        <ele>209.3</ele>
        <time>2024-11-20T13:41:01Z</time>
      </trkpt>
      <trkpt lat="48.17925" lon="-3.30906">
        <ele>209.4</ele>
        <time>2024-11-20T13:41:02Z</time>
      </trkpt>
      <trkpt lat="48.17924" lon="-3.30905">
        <ele>209.4</ele>
        <time>2024-11-20T13:41:03Z</time>
      </trkpt>
      <trkpt lat="48.17924" lon="-3.30905">
        <ele>209.5</ele>
        <time>2024-11-20T13:41:04Z</time>
      </trkpt>
      <trkpt lat="48.17923" lon="-3.30904">
        <ele>209.6</ele>
        <time>2024-11-20T13:41:05Z</time>
      </trkpt>
      <trkpt lat="48.17922" lon="-3.30902">
        <ele>209.7</ele>
        <time>2024-11-20T13:41:06Z</time>
      </trkpt>
      <trkpt lat="48.17921" lon="-3.30901">
        <ele>209.9</ele>
        <time>2024-11-20T13:41:07Z</time>
      </trkpt>
      <trkpt lat="48.1792" lon="-3.30901">
        <ele>210</ele>
        <time>2024-11-20T13:41:08Z</time>
      </trkpt>
      <trkpt lat="48.1792" lon="-3.309">
        <ele>210</ele>
        <time>2024-11-20T13:41:09Z</time>
      </trkpt>
      <trkpt lat="48.1792" lon="-3.309">
        <ele>210</ele>
        <time>2024-11-20T13:41:10Z</time>
      </trkpt>
      <trkpt lat="48.1792" lon="-3.309">
        <ele>210.1</ele>
        <time>2024-11-20T13:41:11Z</time>
      </trkpt>
      <trkpt lat="48.1792" lon="-3.30899">
        <ele>210.1</ele>
        <time>2024-11-20T13:41:12Z</time>
      </trkpt>
      <trkpt lat="48.1792" lon="-3.30899">
        <ele>210.1</ele>
        <time>2024-11-20T13:41:13Z</time>
      </trkpt>
      <trkpt lat="48.1792" lon="-3.309">
        <ele>210.1</ele>
        <time>2024-11-20T13:41:14Z</time>
      </trkpt>
      <trkpt lat="48.1792" lon="-3.309">
        <ele>210</ele>
        <time>2024-11-20T13:41:15Z</time>
      </trkpt>
      <trkpt lat="48.1792" lon="-3.309">
        <ele>210</ele>
        <time>2024-11-20T13:41:16Z</time>
      </trkpt>
      <trkpt lat="48.17919" lon="-3.309">
        <ele>210.1</ele>
        <time>2024-11-20T13:41:17Z</time>
      </trkpt>
      <trkpt lat="48.17918" lon="-3.309">
        <ele>210.2</ele>
        <time>2024-11-20T13:41:18Z</time>
      </trkpt>
      <trkpt lat="48.17917" lon="-3.30899">
        <ele>210.3</ele>
        <time>2024-11-20T13:41:19Z</time>
      </trkpt>
      <trkpt lat="48.17916" lon="-3.30898">
        <ele>210.4</ele>
        <time>2024-11-20T13:41:20Z</time>
      </trkpt>
      <trkpt lat="48.17915" lon="-3.30897">
        <ele>210.4</ele>
        <time>2024-11-20T13:41:21Z</time>
      </trkpt>
      <trkpt lat="48.17914" lon="-3.30897">
        <ele>210.5</ele>
        <time>2024-11-20T13:41:22Z</time>
      </trkpt>
      <trkpt lat="48.17913" lon="-3.30896">
        <ele>210.5</ele>
        <time>2024-11-20T13:41:23Z</time>
      </trkpt>
      <trkpt lat="48.17912" lon="-3.30896">
        <ele>210.6</ele>
        <time>2024-11-20T13:41:24Z</time>
      </trkpt>
      <trkpt lat="48.17911" lon="-3.30895">
        <ele>210.6</ele>
        <time>2024-11-20T13:41:25Z</time>
      </trkpt>
      <trkpt lat="48.1791" lon="-3.30894">
        <ele>210.7</ele>
        <time>2024-11-20T13:41:26Z</time>
      </trkpt>
      <trkpt lat="48.17909" lon="-3.30893">
        <ele>210.7</ele>
        <time>2024-11-20T13:41:27Z</time>
      </trkpt>
      <trkpt lat="48.17908" lon="-3.30892">
        <ele>210.8</ele>
        <time>2024-11-20T13:41:28Z</time>
      </trkpt>
      <trkpt lat="48.17908" lon="-3.30891">
        <ele>210.9</ele>
        <time>2024-11-20T13:41:29Z</time>
      </trkpt>
      <trkpt lat="48.17906" lon="-3.3089">
        <ele>210.9</ele>
        <time>2024-11-20T13:41:30Z</time>
      </trkpt>
      <trkpt lat="48.17905" lon="-3.30889">
        <ele>211</ele>
        <time>2024-11-20T13:41:31Z</time>
      </trkpt>
      <trkpt lat="48.17904" lon="-3.30888">
        <ele>211</ele>
        <time>2024-11-20T13:41:32Z</time>
      </trkpt>
      <trkpt lat="48.17904" lon="-3.30887">
        <ele>211</ele>
        <time>2024-11-20T13:41:33Z</time>
      </trkpt>
      <trkpt lat="48.17903" lon="-3.30886">
        <ele>211.1</ele>
        <time>2024-11-20T13:41:34Z</time>
      </trkpt>
      <trkpt lat="48.17902" lon="-3.30884">
        <ele>211.1</ele>
        <time>2024-11-20T13:41:35Z</time>
      </trkpt>
      <trkpt lat="48.17901" lon="-3.30883">
        <ele>211.1</ele>
        <time>2024-11-20T13:41:36Z</time>
      </trkpt>
      <trkpt lat="48.179" lon="-3.30883">
        <ele>211.1</ele>
        <time>2024-11-20T13:41:37Z</time>
      </trkpt>
      <trkpt lat="48.17899" lon="-3.30882">
        <ele>211.2</ele>
        <time>2024-11-20T13:41:38Z</time>
      </trkpt>
      <trkpt lat="48.17898" lon="-3.30881">
        <ele>211.2</ele>
        <time>2024-11-20T13:41:39Z</time>
      </trkpt>
      <trkpt lat="48.17897" lon="-3.30881">
        <ele>211.2</ele>
        <time>2024-11-20T13:41:40Z</time>
      </trkpt>
      <trkpt lat="48.17897" lon="-3.3088">
        <ele>211.2</ele>
        <time>2024-11-20T13:41:41Z</time>
      </trkpt>
      <trkpt lat="48.17896" lon="-3.30879">
        <ele>211.3</ele>
        <time>2024-11-20T13:41:42Z</time>
      </trkpt>
      <trkpt lat="48.17896" lon="-3.30878">
        <ele>211.3</ele>
        <time>2024-11-20T13:41:43Z</time>
      </trkpt>
      <trkpt lat="48.17895" lon="-3.30876">
        <ele>211.4</ele>
        <time>2024-11-20T13:41:44Z</time>
      </trkpt>
      <trkpt lat="48.17894" lon="-3.30875">
        <ele>211.4</ele>
        <time>2024-11-20T13:41:45Z</time>
      </trkpt>
      <trkpt lat="48.17893" lon="-3.30874">
        <ele>211.5</ele>
        <time>2024-11-20T13:41:46Z</time>
      </trkpt>
      <trkpt lat="48.17892" lon="-3.30873">
        <ele>211.5</ele>
        <time>2024-11-20T13:41:47Z</time>
      </trkpt>
      <trkpt lat="48.17891" lon="-3.30872">
        <ele>211.5</ele>
        <time>2024-11-20T13:41:48Z</time>
      </trkpt>
      <trkpt lat="48.1789" lon="-3.30871">
        <ele>211.6</ele>
        <time>2024-11-20T13:41:49Z</time>
      </trkpt>
      <trkpt lat="48.17889" lon="-3.3087">
        <ele>211.7</ele>
        <time>2024-11-20T13:41:50Z</time>
      </trkpt>
      <trkpt lat="48.17888" lon="-3.30869">
        <ele>211.7</ele>
        <time>2024-11-20T13:41:51Z</time>
      </trkpt>
      <trkpt lat="48.17886" lon="-3.30868">
        <ele>211.8</ele>
        <time>2024-11-20T13:41:52Z</time>
      </trkpt>
      <trkpt lat="48.17885" lon="-3.30867">
        <ele>211.8</ele>
        <time>2024-11-20T13:41:53Z</time>
      </trkpt>
      <trkpt lat="48.17885" lon="-3.30865">
        <ele>211.9</ele>
        <time>2024-11-20T13:41:54Z</time>
      </trkpt>
      <trkpt lat="48.17884" lon="-3.30865">
        <ele>211.9</ele>
        <time>2024-11-20T13:41:55Z</time>
      </trkpt>
      <trkpt lat="48.17884" lon="-3.30864">
        <ele>211.9</ele>
        <time>2024-11-20T13:41:56Z</time>
      </trkpt>
      <trkpt lat="48.17884" lon="-3.30864">
        <ele>211.9</ele>
        <time>2024-11-20T13:41:57Z</time>
      </trkpt>
      <trkpt lat="48.17884" lon="-3.30864">
        <ele>211.9</ele>
        <time>2024-11-20T13:41:58Z</time>
      </trkpt>
      <trkpt lat="48.17884" lon="-3.30864">
        <ele>211.9</ele>
        <time>2024-11-20T13:41:59Z</time>
      </trkpt>
      <trkpt lat="48.17884" lon="-3.30864">
        <ele>211.9</ele>
        <time>2024-11-20T13:42:00Z</time>
      </trkpt>
      <trkpt lat="48.17884" lon="-3.30864">
        <ele>211.9</ele>
        <time>2024-11-20T13:42:01Z</time>
      </trkpt>
      <trkpt lat="48.17885" lon="-3.30864">
        <ele>211.9</ele>
        <time>2024-11-20T13:42:02Z</time>
      </trkpt>
      <trkpt lat="48.17885" lon="-3.30863">
        <ele>211.9</ele>
        <time>2024-11-20T13:42:03Z</time>
      </trkpt>
      <trkpt lat="48.17885" lon="-3.30863">
        <ele>211.9</ele>
        <time>2024-11-20T13:42:04Z</time>
      </trkpt>
      <trkpt lat="48.17884" lon="-3.30863">
        <ele>212</ele>
        <time>2024-11-20T13:42:05Z</time>
      </trkpt>
      <trkpt lat="48.17883" lon="-3.30862">
        <ele>212</ele>
        <time>2024-11-20T13:42:06Z</time>
      </trkpt>
      <trkpt lat="48.17883" lon="-3.30861">
        <ele>212</ele>
        <time>2024-11-20T13:42:07Z</time>
      </trkpt>
      <trkpt lat="48.17882" lon="-3.3086">
        <ele>212</ele>
        <time>2024-11-20T13:42:08Z</time>
      </trkpt>
      <trkpt lat="48.17881" lon="-3.3086">
        <ele>211.9</ele>
        <time>2024-11-20T13:42:09Z</time>
      </trkpt>
      <trkpt lat="48.1788" lon="-3.30859">
        <ele>211.9</ele>
        <time>2024-11-20T13:42:10Z</time>
      </trkpt>
      <trkpt lat="48.1788" lon="-3.30859">
        <ele>211.9</ele>
        <time>2024-11-20T13:42:11Z</time>
      </trkpt>
      <trkpt lat="48.17879" lon="-3.30858">
        <ele>211.9</ele>
        <time>2024-11-20T13:42:12Z</time>
      </trkpt>
      <trkpt lat="48.17878" lon="-3.30857">
        <ele>211.9</ele>
        <time>2024-11-20T13:42:13Z</time>
      </trkpt>
      <trkpt lat="48.17877" lon="-3.30857">
        <ele>211.9</ele>
        <time>2024-11-20T13:42:14Z</time>
      </trkpt>
      <trkpt lat="48.17876" lon="-3.30857">
        <ele>211.8</ele>
        <time>2024-11-20T13:42:15Z</time>
      </trkpt>
      <trkpt lat="48.17875" lon="-3.30857">
        <ele>211.8</ele>
        <time>2024-11-20T13:42:16Z</time>
      </trkpt>
      <trkpt lat="48.17874" lon="-3.30857">
        <ele>211.8</ele>
        <time>2024-11-20T13:42:17Z</time>
      </trkpt>
      <trkpt lat="48.17873" lon="-3.30856">
        <ele>211.8</ele>
        <time>2024-11-20T13:42:18Z</time>
      </trkpt>
      <trkpt lat="48.17871" lon="-3.30856">
        <ele>211.8</ele>
        <time>2024-11-20T13:42:19Z</time>
      </trkpt>
      <trkpt lat="48.1787" lon="-3.30855">
        <ele>211.8</ele>
        <time>2024-11-20T13:42:20Z</time>
      </trkpt>
      <trkpt lat="48.17869" lon="-3.30854">
        <ele>211.7</ele>
        <time>2024-11-20T13:42:21Z</time>
      </trkpt>
      <trkpt lat="48.17868" lon="-3.30853">
        <ele>211.7</ele>
        <time>2024-11-20T13:42:22Z</time>
      </trkpt>
      <trkpt lat="48.17867" lon="-3.30852">
        <ele>211.7</ele>
        <time>2024-11-20T13:42:23Z</time>
      </trkpt>
      <trkpt lat="48.17865" lon="-3.3085">
        <ele>211.6</ele>
        <time>2024-11-20T13:42:24Z</time>
      </trkpt>
      <trkpt lat="48.17864" lon="-3.30849">
        <ele>211.6</ele>
        <time>2024-11-20T13:42:25Z</time>
      </trkpt>
      <trkpt lat="48.17863" lon="-3.30847">
        <ele>211.5</ele>
        <time>2024-11-20T13:42:26Z</time>
      </trkpt>
      <trkpt lat="48.17862" lon="-3.30846">
        <ele>211.4</ele>
        <time>2024-11-20T13:42:27Z</time>
      </trkpt>
      <trkpt lat="48.17861" lon="-3.30844">
        <ele>211.4</ele>
        <time>2024-11-20T13:42:28Z</time>
      </trkpt>
      <trkpt lat="48.1786" lon="-3.30843">
        <ele>211.3</ele>
        <time>2024-11-20T13:42:29Z</time>
      </trkpt>
      <trkpt lat="48.17859" lon="-3.30842">
        <ele>211.3</ele>
        <time>2024-11-20T13:42:30Z</time>
      </trkpt>
      <trkpt lat="48.17858" lon="-3.30841">
        <ele>211.2</ele>
        <time>2024-11-20T13:42:31Z</time>
      </trkpt>
      <trkpt lat="48.17857" lon="-3.3084">
        <ele>211.2</ele>
        <time>2024-11-20T13:42:32Z</time>
      </trkpt>
      <trkpt lat="48.17855" lon="-3.30839">
        <ele>211.2</ele>
        <time>2024-11-20T13:42:33Z</time>
      </trkpt>
      <trkpt lat="48.17854" lon="-3.30838">
        <ele>211.1</ele>
        <time>2024-11-20T13:42:34Z</time>
      </trkpt>
      <trkpt lat="48.17853" lon="-3.30837">
        <ele>211.1</ele>
        <time>2024-11-20T13:42:35Z</time>
      </trkpt>
      <trkpt lat="48.17852" lon="-3.30836">
        <ele>211.1</ele>
        <time>2024-11-20T13:42:36Z</time>
      </trkpt>
      <trkpt lat="48.17851" lon="-3.30835">
        <ele>211</ele>
        <time>2024-11-20T13:42:37Z</time>
      </trkpt>
      <trkpt lat="48.1785" lon="-3.30834">
        <ele>211</ele>
        <time>2024-11-20T13:42:38Z</time>
      </trkpt>
      <trkpt lat="48.17849" lon="-3.30834">
        <ele>211</ele>
        <time>2024-11-20T13:42:39Z</time>
      </trkpt>
      <trkpt lat="48.17848" lon="-3.30832">
        <ele>211</ele>
        <time>2024-11-20T13:42:40Z</time>
      </trkpt>
      <trkpt lat="48.17847" lon="-3.30831">
        <ele>211</ele>
        <time>2024-11-20T13:42:41Z</time>
      </trkpt>
      <trkpt lat="48.17846" lon="-3.30831">
        <ele>211</ele>
        <time>2024-11-20T13:42:42Z</time>
      </trkpt>
      <trkpt lat="48.17844" lon="-3.30829">
        <ele>211</ele>
        <time>2024-11-20T13:42:43Z</time>
      </trkpt>
      <trkpt lat="48.17843" lon="-3.30828">
        <ele>211</ele>
        <time>2024-11-20T13:42:44Z</time>
      </trkpt>
      <trkpt lat="48.17842" lon="-3.30828">
        <ele>211</ele>
        <time>2024-11-20T13:42:45Z</time>
      </trkpt>
      <trkpt lat="48.17841" lon="-3.30828">
        <ele>211</ele>
        <time>2024-11-20T13:42:46Z</time>
      </trkpt>
      <trkpt lat="48.1784" lon="-3.30827">
        <ele>211</ele>
        <time>2024-11-20T13:42:47Z</time>
      </trkpt>
      <trkpt lat="48.17838" lon="-3.30826">
        <ele>211</ele>
        <time>2024-11-20T13:42:48Z</time>
      </trkpt>
      <trkpt lat="48.17837" lon="-3.30826">
        <ele>211</ele>
        <time>2024-11-20T13:42:49Z</time>
      </trkpt>
      <trkpt lat="48.17836" lon="-3.30825">
        <ele>211</ele>
        <time>2024-11-20T13:42:50Z</time>
      </trkpt>
      <trkpt lat="48.17834" lon="-3.30825">
        <ele>211</ele>
        <time>2024-11-20T13:42:51Z</time>
      </trkpt>
      <trkpt lat="48.17833" lon="-3.30824">
        <ele>211</ele>
        <time>2024-11-20T13:42:52Z</time>
      </trkpt>
      <trkpt lat="48.17832" lon="-3.30823">
        <ele>211</ele>
        <time>2024-11-20T13:42:53Z</time>
      </trkpt>
      <trkpt lat="48.1783" lon="-3.30822">
        <ele>211</ele>
        <time>2024-11-20T13:42:54Z</time>
      </trkpt>
      <trkpt lat="48.17829" lon="-3.30821">
        <ele>211</ele>
        <time>2024-11-20T13:42:55Z</time>
      </trkpt>
      <trkpt lat="48.17828" lon="-3.3082">
        <ele>211</ele>
        <time>2024-11-20T13:42:56Z</time>
      </trkpt>
      <trkpt lat="48.17827" lon="-3.3082">
        <ele>211</ele>
        <time>2024-11-20T13:42:57Z</time>
      </trkpt>
      <trkpt lat="48.17826" lon="-3.30819">
        <ele>211</ele>
        <time>2024-11-20T13:42:58Z</time>
      </trkpt>
      <trkpt lat="48.17825" lon="-3.30819">
        <ele>211</ele>
        <time>2024-11-20T13:42:59Z</time>
      </trkpt>
      <trkpt lat="48.17823" lon="-3.30818">
        <ele>211</ele>
        <time>2024-11-20T13:43:00Z</time>
      </trkpt>
      <trkpt lat="48.17822" lon="-3.30818">
        <ele>211</ele>
        <time>2024-11-20T13:43:01Z</time>
      </trkpt>
      <trkpt lat="48.1782" lon="-3.30818">
        <ele>211</ele>
        <time>2024-11-20T13:43:02Z</time>
      </trkpt>
      <trkpt lat="48.1782" lon="-3.30817">
        <ele>211</ele>
        <time>2024-11-20T13:43:03Z</time>
      </trkpt>
      <trkpt lat="48.1782" lon="-3.30816">
        <ele>211</ele>
        <time>2024-11-20T13:43:04Z</time>
      </trkpt>
      <trkpt lat="48.1782" lon="-3.30816">
        <ele>211</ele>
        <time>2024-11-20T13:43:05Z</time>
      </trkpt>
      <trkpt lat="48.1782" lon="-3.30816">
        <ele>211</ele>
        <time>2024-11-20T13:43:06Z</time>
      </trkpt>
      <trkpt lat="48.17819" lon="-3.30815">
        <ele>211</ele>
        <time>2024-11-20T13:43:07Z</time>
      </trkpt>
      <trkpt lat="48.17818" lon="-3.30815">
        <ele>211</ele>
        <time>2024-11-20T13:43:08Z</time>
      </trkpt>
      <trkpt lat="48.17816" lon="-3.30814">
        <ele>211</ele>
        <time>2024-11-20T13:43:09Z</time>
      </trkpt>
      <trkpt lat="48.17815" lon="-3.30814">
        <ele>211</ele>
        <time>2024-11-20T13:43:10Z</time>
      </trkpt>
      <trkpt lat="48.17815" lon="-3.30814">
        <ele>211</ele>
        <time>2024-11-20T13:43:11Z</time>
      </trkpt>
      <trkpt lat="48.17814" lon="-3.30814">
        <ele>211</ele>
        <time>2024-11-20T13:43:12Z</time>
      </trkpt>
      <trkpt lat="48.17813" lon="-3.30814">
        <ele>211</ele>
        <time>2024-11-20T13:43:13Z</time>
      </trkpt>
      <trkpt lat="48.17812" lon="-3.30814">
        <ele>211</ele>
        <time>2024-11-20T13:43:14Z</time>
      </trkpt>
      <trkpt lat="48.17811" lon="-3.30813">
        <ele>211</ele>
        <time>2024-11-20T13:43:15Z</time>
      </trkpt>
      <trkpt lat="48.1781" lon="-3.30812">
        <ele>211</ele>
        <time>2024-11-20T13:43:16Z</time>
      </trkpt>
      <trkpt lat="48.17808" lon="-3.30811">
        <ele>211</ele>
        <time>2024-11-20T13:43:17Z</time>
      </trkpt>
      <trkpt lat="48.17807" lon="-3.3081">
        <ele>211</ele>
        <time>2024-11-20T13:43:18Z</time>
      </trkpt>
      <trkpt lat="48.17806" lon="-3.30809">
        <ele>211</ele>
        <time>2024-11-20T13:43:19Z</time>
      </trkpt>
      <trkpt lat="48.17805" lon="-3.30808">
        <ele>211</ele>
        <time>2024-11-20T13:43:20Z</time>
      </trkpt>
      <trkpt lat="48.17804" lon="-3.30808">
        <ele>210.9</ele>
        <time>2024-11-20T13:43:21Z</time>
      </trkpt>
      <trkpt lat="48.17803" lon="-3.30807">
        <ele>210.9</ele>
        <time>2024-11-20T13:43:22Z</time>
      </trkpt>
      <trkpt lat="48.17802" lon="-3.30806">
        <ele>210.9</ele>
        <time>2024-11-20T13:43:23Z</time>
      </trkpt>
      <trkpt lat="48.17801" lon="-3.30806">
        <ele>210.8</ele>
        <time>2024-11-20T13:43:24Z</time>
      </trkpt>
      <trkpt lat="48.178" lon="-3.30805">
        <ele>210.8</ele>
        <time>2024-11-20T13:43:25Z</time>
      </trkpt>
      <trkpt lat="48.17799" lon="-3.30805">
        <ele>210.7</ele>
        <time>2024-11-20T13:43:26Z</time>
      </trkpt>
      <trkpt lat="48.17798" lon="-3.30804">
        <ele>210.7</ele>
        <time>2024-11-20T13:43:27Z</time>
      </trkpt>
      <trkpt lat="48.17797" lon="-3.30804">
        <ele>210.7</ele>
        <time>2024-11-20T13:43:28Z</time>
      </trkpt>
      <trkpt lat="48.17796" lon="-3.30803">
        <ele>210.6</ele>
        <time>2024-11-20T13:43:29Z</time>
      </trkpt>
      <trkpt lat="48.17794" lon="-3.30803">
        <ele>210.6</ele>
        <time>2024-11-20T13:43:30Z</time>
      </trkpt>
      <trkpt lat="48.17792" lon="-3.30803">
        <ele>210.5</ele>
        <time>2024-11-20T13:43:31Z</time>
      </trkpt>
      <trkpt lat="48.17791" lon="-3.30803">
        <ele>210.5</ele>
        <time>2024-11-20T13:43:32Z</time>
      </trkpt>
      <trkpt lat="48.1779" lon="-3.30802">
        <ele>210.4</ele>
        <time>2024-11-20T13:43:33Z</time>
      </trkpt>
      <trkpt lat="48.17789" lon="-3.30801">
        <ele>210.4</ele>
        <time>2024-11-20T13:43:34Z</time>
      </trkpt>
      <trkpt lat="48.17787" lon="-3.30801">
        <ele>210.4</ele>
        <time>2024-11-20T13:43:35Z</time>
      </trkpt>
      <trkpt lat="48.17787" lon="-3.308">
        <ele>210.4</ele>
        <time>2024-11-20T13:43:36Z</time>
      </trkpt>
      <trkpt lat="48.17786" lon="-3.30799">
        <ele>210.4</ele>
        <time>2024-11-20T13:43:37Z</time>
      </trkpt>
      <trkpt lat="48.17785" lon="-3.30799">
        <ele>210.4</ele>
        <time>2024-11-20T13:43:38Z</time>
      </trkpt>
      <trkpt lat="48.17783" lon="-3.30799">
        <ele>210.3</ele>
        <time>2024-11-20T13:43:39Z</time>
      </trkpt>
      <trkpt lat="48.17782" lon="-3.30798">
        <ele>210.3</ele>
        <time>2024-11-20T13:43:40Z</time>
      </trkpt>
      <trkpt lat="48.1778" lon="-3.30797">
        <ele>210.3</ele>
        <time>2024-11-20T13:43:41Z</time>
      </trkpt>
      <trkpt lat="48.17779" lon="-3.30797">
        <ele>210.3</ele>
        <time>2024-11-20T13:43:42Z</time>
      </trkpt>
      <trkpt lat="48.17778" lon="-3.30796">
        <ele>210.3</ele>
        <time>2024-11-20T13:43:43Z</time>
      </trkpt>
      <trkpt lat="48.17776" lon="-3.30796">
        <ele>210.3</ele>
        <time>2024-11-20T13:43:44Z</time>
      </trkpt>
      <trkpt lat="48.17774" lon="-3.30795">
        <ele>210.2</ele>
        <time>2024-11-20T13:43:45Z</time>
      </trkpt>
      <trkpt lat="48.17773" lon="-3.30794">
        <ele>210.2</ele>
        <time>2024-11-20T13:43:46Z</time>
      </trkpt>
      <trkpt lat="48.17772" lon="-3.30793">
        <ele>210.1</ele>
        <time>2024-11-20T13:43:47Z</time>
      </trkpt>
      <trkpt lat="48.1777" lon="-3.30792">
        <ele>210.1</ele>
        <time>2024-11-20T13:43:48Z</time>
      </trkpt>
      <trkpt lat="48.17769" lon="-3.30792">
        <ele>210</ele>
        <time>2024-11-20T13:43:49Z</time>
      </trkpt>
      <trkpt lat="48.17768" lon="-3.30791">
        <ele>210</ele>
        <time>2024-11-20T13:43:50Z</time>
      </trkpt>
      <trkpt lat="48.17767" lon="-3.3079">
        <ele>209.9</ele>
        <time>2024-11-20T13:43:51Z</time>
      </trkpt>
      <trkpt lat="48.17765" lon="-3.30789">
        <ele>209.9</ele>
        <time>2024-11-20T13:43:52Z</time>
      </trkpt>
      <trkpt lat="48.17764" lon="-3.30789">
        <ele>209.8</ele>
        <time>2024-11-20T13:43:53Z</time>
      </trkpt>
      <trkpt lat="48.17762" lon="-3.30788">
        <ele>209.7</ele>
        <time>2024-11-20T13:43:54Z</time>
      </trkpt>
      <trkpt lat="48.17761" lon="-3.30787">
        <ele>209.6</ele>
        <time>2024-11-20T13:43:55Z</time>
      </trkpt>
      <trkpt lat="48.17759" lon="-3.30786">
        <ele>209.6</ele>
        <time>2024-11-20T13:43:56Z</time>
      </trkpt>
      <trkpt lat="48.17758" lon="-3.30785">
        <ele>209.5</ele>
        <time>2024-11-20T13:43:57Z</time>
      </trkpt>
      <trkpt lat="48.17757" lon="-3.30784">
        <ele>209.4</ele>
        <time>2024-11-20T13:43:58Z</time>
      </trkpt>
      <trkpt lat="48.17756" lon="-3.30783">
        <ele>209.4</ele>
        <time>2024-11-20T13:43:59Z</time>
      </trkpt>
      <trkpt lat="48.17755" lon="-3.30781">
        <ele>209.3</ele>
        <time>2024-11-20T13:44:00Z</time>
      </trkpt>
      <trkpt lat="48.17754" lon="-3.3078">
        <ele>209.2</ele>
        <time>2024-11-20T13:44:01Z</time>
      </trkpt>
      <trkpt lat="48.17753" lon="-3.30779">
        <ele>209.2</ele>
        <time>2024-11-20T13:44:02Z</time>
      </trkpt>
      <trkpt lat="48.17752" lon="-3.30777">
        <ele>209.1</ele>
        <time>2024-11-20T13:44:03Z</time>
      </trkpt>
      <trkpt lat="48.17751" lon="-3.30775">
        <ele>209.1</ele>
        <time>2024-11-20T13:44:04Z</time>
      </trkpt>
      <trkpt lat="48.17751" lon="-3.30773">
        <ele>209</ele>
        <time>2024-11-20T13:44:05Z</time>
      </trkpt>
      <trkpt lat="48.1775" lon="-3.30771">
        <ele>209</ele>
        <time>2024-11-20T13:44:06Z</time>
      </trkpt>
      <trkpt lat="48.1775" lon="-3.30769">
        <ele>209</ele>
        <time>2024-11-20T13:44:07Z</time>
      </trkpt>
      <trkpt lat="48.17749" lon="-3.30768">
        <ele>208.9</ele>
        <time>2024-11-20T13:44:08Z</time>
      </trkpt>
      <trkpt lat="48.17749" lon="-3.30767">
        <ele>208.9</ele>
        <time>2024-11-20T13:44:09Z</time>
      </trkpt>
      <trkpt lat="48.17749" lon="-3.30765">
        <ele>208.9</ele>
        <time>2024-11-20T13:44:10Z</time>
      </trkpt>
      <trkpt lat="48.17749" lon="-3.30763">
        <ele>208.9</ele>
        <time>2024-11-20T13:44:11Z</time>
      </trkpt>
      <trkpt lat="48.1775" lon="-3.30762">
        <ele>209</ele>
        <time>2024-11-20T13:44:12Z</time>
      </trkpt>
      <trkpt lat="48.1775" lon="-3.3076">
        <ele>209</ele>
        <time>2024-11-20T13:44:13Z</time>
      </trkpt>
      <trkpt lat="48.1775" lon="-3.30759">
        <ele>209</ele>
        <time>2024-11-20T13:44:14Z</time>
      </trkpt>
      <trkpt lat="48.1775" lon="-3.30757">
        <ele>209</ele>
        <time>2024-11-20T13:44:15Z</time>
      </trkpt>
      <trkpt lat="48.1775" lon="-3.30756">
        <ele>209</ele>
        <time>2024-11-20T13:44:16Z</time>
      </trkpt>
      <trkpt lat="48.1775" lon="-3.30754">
        <ele>209</ele>
        <time>2024-11-20T13:44:17Z</time>
      </trkpt>
      <trkpt lat="48.17751" lon="-3.30752">
        <ele>209</ele>
        <time>2024-11-20T13:44:18Z</time>
      </trkpt>
      <trkpt lat="48.17751" lon="-3.3075">
        <ele>209</ele>
        <time>2024-11-20T13:44:19Z</time>
      </trkpt>
      <trkpt lat="48.17751" lon="-3.30748">
        <ele>209</ele>
        <time>2024-11-20T13:44:20Z</time>
      </trkpt>
      <trkpt lat="48.17751" lon="-3.30746">
        <ele>208.9</ele>
        <time>2024-11-20T13:44:21Z</time>
      </trkpt>
      <trkpt lat="48.17751" lon="-3.30744">
        <ele>208.8</ele>
        <time>2024-11-20T13:44:22Z</time>
      </trkpt>
      <trkpt lat="48.17751" lon="-3.30742">
        <ele>208.7</ele>
        <time>2024-11-20T13:44:23Z</time>
      </trkpt>
      <trkpt lat="48.17751" lon="-3.3074">
        <ele>208.7</ele>
        <time>2024-11-20T13:44:24Z</time>
      </trkpt>
      <trkpt lat="48.17751" lon="-3.30739">
        <ele>208.6</ele>
        <time>2024-11-20T13:44:25Z</time>
      </trkpt>
      <trkpt lat="48.17751" lon="-3.30737">
        <ele>208.6</ele>
        <time>2024-11-20T13:44:26Z</time>
      </trkpt>
      <trkpt lat="48.17751" lon="-3.30736">
        <ele>208.5</ele>
        <time>2024-11-20T13:44:27Z</time>
      </trkpt>
      <trkpt lat="48.17751" lon="-3.30734">
        <ele>208.5</ele>
        <time>2024-11-20T13:44:28Z</time>
      </trkpt>
      <trkpt lat="48.17751" lon="-3.30732">
        <ele>208.4</ele>
        <time>2024-11-20T13:44:29Z</time>
      </trkpt>
      <trkpt lat="48.17751" lon="-3.3073">
        <ele>208.3</ele>
        <time>2024-11-20T13:44:30Z</time>
      </trkpt>
      <trkpt lat="48.17751" lon="-3.30728">
        <ele>208.3</ele>
        <time>2024-11-20T13:44:31Z</time>
      </trkpt>
      <trkpt lat="48.17751" lon="-3.30727">
        <ele>208.2</ele>
        <time>2024-11-20T13:44:32Z</time>
      </trkpt>
      <trkpt lat="48.17751" lon="-3.30725">
        <ele>208.1</ele>
        <time>2024-11-20T13:44:33Z</time>
      </trkpt>
      <trkpt lat="48.17751" lon="-3.30723">
        <ele>208</ele>
        <time>2024-11-20T13:44:34Z</time>
      </trkpt>
      <trkpt lat="48.17751" lon="-3.30721">
        <ele>208</ele>
        <time>2024-11-20T13:44:35Z</time>
      </trkpt>
      <trkpt lat="48.17751" lon="-3.30719">
        <ele>207.9</ele>
        <time>2024-11-20T13:44:36Z</time>
      </trkpt>
      <trkpt lat="48.17751" lon="-3.30718">
        <ele>207.9</ele>
        <time>2024-11-20T13:44:37Z</time>
      </trkpt>
      <trkpt lat="48.17751" lon="-3.30716">
        <ele>207.8</ele>
        <time>2024-11-20T13:44:38Z</time>
      </trkpt>
      <trkpt lat="48.17751" lon="-3.30714">
        <ele>207.7</ele>
        <time>2024-11-20T13:44:39Z</time>
      </trkpt>
      <trkpt lat="48.1775" lon="-3.30712">
        <ele>207.7</ele>
        <time>2024-11-20T13:44:40Z</time>
      </trkpt>
      <trkpt lat="48.1775" lon="-3.30711">
        <ele>207.6</ele>
        <time>2024-11-20T13:44:41Z</time>
      </trkpt>
      <trkpt lat="48.1775" lon="-3.30708">
        <ele>207.5</ele>
        <time>2024-11-20T13:44:42Z</time>
      </trkpt>
      <trkpt lat="48.1775" lon="-3.30706">
        <ele>207.4</ele>
        <time>2024-11-20T13:44:43Z</time>
      </trkpt>
      <trkpt lat="48.1775" lon="-3.30704">
        <ele>207.4</ele>
        <time>2024-11-20T13:44:44Z</time>
      </trkpt>
      <trkpt lat="48.1775" lon="-3.30703">
        <ele>207.3</ele>
        <time>2024-11-20T13:44:45Z</time>
      </trkpt>
      <trkpt lat="48.1775" lon="-3.30701">
        <ele>207.2</ele>
        <time>2024-11-20T13:44:46Z</time>
      </trkpt>
      <trkpt lat="48.1775" lon="-3.30699">
        <ele>207.2</ele>
        <time>2024-11-20T13:44:47Z</time>
      </trkpt>
      <trkpt lat="48.17751" lon="-3.30697">
        <ele>207.1</ele>
        <time>2024-11-20T13:44:48Z</time>
      </trkpt>
      <trkpt lat="48.17751" lon="-3.30696">
        <ele>207.1</ele>
        <time>2024-11-20T13:44:49Z</time>
      </trkpt>
      <trkpt lat="48.17751" lon="-3.30695">
        <ele>207</ele>
        <time>2024-11-20T13:44:50Z</time>
      </trkpt>
      <trkpt lat="48.17751" lon="-3.30693">
        <ele>206.9</ele>
        <time>2024-11-20T13:44:51Z</time>
      </trkpt>
      <trkpt lat="48.17751" lon="-3.30692">
        <ele>206.8</ele>
        <time>2024-11-20T13:44:52Z</time>
      </trkpt>
      <trkpt lat="48.17751" lon="-3.3069">
        <ele>206.7</ele>
        <time>2024-11-20T13:44:53Z</time>
      </trkpt>
      <trkpt lat="48.17751" lon="-3.30688">
        <ele>206.6</ele>
        <time>2024-11-20T13:44:54Z</time>
      </trkpt>
      <trkpt lat="48.17752" lon="-3.30687">
        <ele>206.5</ele>
        <time>2024-11-20T13:44:55Z</time>
      </trkpt>
      <trkpt lat="48.17751" lon="-3.30685">
        <ele>206.4</ele>
        <time>2024-11-20T13:44:56Z</time>
      </trkpt>
      <trkpt lat="48.17751" lon="-3.30684">
        <ele>206.3</ele>
        <time>2024-11-20T13:44:57Z</time>
      </trkpt>
      <trkpt lat="48.17751" lon="-3.30682">
        <ele>206.2</ele>
        <time>2024-11-20T13:44:58Z</time>
      </trkpt>
      <trkpt lat="48.17751" lon="-3.30681">
        <ele>206</ele>
        <time>2024-11-20T13:44:59Z</time>
      </trkpt>
      <trkpt lat="48.17751" lon="-3.30679">
        <ele>205.9</ele>
        <time>2024-11-20T13:45:00Z</time>
      </trkpt>
      <trkpt lat="48.17752" lon="-3.30677">
        <ele>205.8</ele>
        <time>2024-11-20T13:45:01Z</time>
      </trkpt>
      <trkpt lat="48.17752" lon="-3.30676">
        <ele>205.7</ele>
        <time>2024-11-20T13:45:02Z</time>
      </trkpt>
      <trkpt lat="48.17752" lon="-3.30674">
        <ele>205.6</ele>
        <time>2024-11-20T13:45:03Z</time>
      </trkpt>
      <trkpt lat="48.17752" lon="-3.30673">
        <ele>205.5</ele>
        <time>2024-11-20T13:45:04Z</time>
      </trkpt>
      <trkpt lat="48.17753" lon="-3.30671">
        <ele>205.4</ele>
        <time>2024-11-20T13:45:05Z</time>
      </trkpt>
      <trkpt lat="48.17753" lon="-3.30669">
        <ele>205.3</ele>
        <time>2024-11-20T13:45:06Z</time>
      </trkpt>
      <trkpt lat="48.17753" lon="-3.30667">
        <ele>205.1</ele>
        <time>2024-11-20T13:45:07Z</time>
      </trkpt>
      <trkpt lat="48.17752" lon="-3.30665">
        <ele>204.9</ele>
        <time>2024-11-20T13:45:08Z</time>
      </trkpt>
      <trkpt lat="48.17752" lon="-3.30663">
        <ele>204.6</ele>
        <time>2024-11-20T13:45:09Z</time>
      </trkpt>
      <trkpt lat="48.17751" lon="-3.30661">
        <ele>204.5</ele>
        <time>2024-11-20T13:45:10Z</time>
      </trkpt>
      <trkpt lat="48.17751" lon="-3.3066">
        <ele>204.3</ele>
        <time>2024-11-20T13:45:11Z</time>
      </trkpt>
      <trkpt lat="48.17751" lon="-3.30658">
        <ele>204.1</ele>
        <time>2024-11-20T13:45:12Z</time>
      </trkpt>
      <trkpt lat="48.17752" lon="-3.30656">
        <ele>204</ele>
        <time>2024-11-20T13:45:13Z</time>
      </trkpt>
      <trkpt lat="48.17752" lon="-3.30654">
        <ele>203.7</ele>
        <time>2024-11-20T13:45:14Z</time>
      </trkpt>
      <trkpt lat="48.17751" lon="-3.30652">
        <ele>203.5</ele>
        <time>2024-11-20T13:45:15Z</time>
      </trkpt>
      <trkpt lat="48.17751" lon="-3.30651">
        <ele>203.4</ele>
        <time>2024-11-20T13:45:16Z</time>
      </trkpt>
      <trkpt lat="48.17751" lon="-3.30649">
        <ele>203.2</ele>
        <time>2024-11-20T13:45:17Z</time>
      </trkpt>
      <trkpt lat="48.17751" lon="-3.30648">
        <ele>203</ele>
        <time>2024-11-20T13:45:18Z</time>
      </trkpt>
      <trkpt lat="48.17751" lon="-3.30646">
        <ele>202.8</ele>
        <time>2024-11-20T13:45:19Z</time>
      </trkpt>
      <trkpt lat="48.17751" lon="-3.30645">
        <ele>202.7</ele>
        <time>2024-11-20T13:45:20Z</time>
      </trkpt>
      <trkpt lat="48.17751" lon="-3.30644">
        <ele>202.6</ele>
        <time>2024-11-20T13:45:21Z</time>
      </trkpt>
      <trkpt lat="48.17751" lon="-3.30643">
        <ele>202.6</ele>
        <time>2024-11-20T13:45:22Z</time>
      </trkpt>
      <trkpt lat="48.17751" lon="-3.30643">
        <ele>202.5</ele>
        <time>2024-11-20T13:45:23Z</time>
      </trkpt>
      <trkpt lat="48.17751" lon="-3.30642">
        <ele>202.4</ele>
        <time>2024-11-20T13:45:24Z</time>
      </trkpt>
      <trkpt lat="48.17751" lon="-3.30641">
        <ele>202.3</ele>
        <time>2024-11-20T13:45:25Z</time>
      </trkpt>
      <trkpt lat="48.17751" lon="-3.3064">
        <ele>202.2</ele>
        <time>2024-11-20T13:45:26Z</time>
      </trkpt>
      <trkpt lat="48.1775" lon="-3.30639">
        <ele>202</ele>
        <time>2024-11-20T13:45:27Z</time>
      </trkpt>
      <trkpt lat="48.1775" lon="-3.30638">
        <ele>201.9</ele>
        <time>2024-11-20T13:45:28Z</time>
      </trkpt>
      <trkpt lat="48.1775" lon="-3.30636">
        <ele>201.6</ele>
        <time>2024-11-20T13:45:29Z</time>
      </trkpt>
      <trkpt lat="48.17749" lon="-3.30635">
        <ele>201.4</ele>
        <time>2024-11-20T13:45:30Z</time>
      </trkpt>
      <trkpt lat="48.17748" lon="-3.30633">
        <ele>201</ele>
        <time>2024-11-20T13:45:31Z</time>
      </trkpt>
      <trkpt lat="48.17747" lon="-3.30631">
        <ele>200.7</ele>
        <time>2024-11-20T13:45:32Z</time>
      </trkpt>
      <trkpt lat="48.17746" lon="-3.3063">
        <ele>200.5</ele>
        <time>2024-11-20T13:45:33Z</time>
      </trkpt>
      <trkpt lat="48.17746" lon="-3.30628">
        <ele>200.2</ele>
        <time>2024-11-20T13:45:34Z</time>
      </trkpt>
      <trkpt lat="48.17746" lon="-3.30627">
        <ele>200</ele>
        <time>2024-11-20T13:45:35Z</time>
      </trkpt>
      <trkpt lat="48.17745" lon="-3.30626">
        <ele>199.9</ele>
        <time>2024-11-20T13:45:36Z</time>
      </trkpt>
      <trkpt lat="48.17745" lon="-3.30625">
        <ele>199.8</ele>
        <time>2024-11-20T13:45:37Z</time>
      </trkpt>
      <trkpt lat="48.17745" lon="-3.30625">
        <ele>199.8</ele>
        <time>2024-11-20T13:45:38Z</time>
      </trkpt>
      <trkpt lat="48.17745" lon="-3.30624">
        <ele>199.6</ele>
        <time>2024-11-20T13:45:39Z</time>
      </trkpt>
      <trkpt lat="48.17744" lon="-3.30622">
        <ele>199.3</ele>
        <time>2024-11-20T13:45:40Z</time>
      </trkpt>
      <trkpt lat="48.17744" lon="-3.3062">
        <ele>199</ele>
        <time>2024-11-20T13:45:41Z</time>
      </trkpt>
      <trkpt lat="48.17744" lon="-3.30618">
        <ele>198.8</ele>
        <time>2024-11-20T13:45:42Z</time>
      </trkpt>
      <trkpt lat="48.17744" lon="-3.30617">
        <ele>198.7</ele>
        <time>2024-11-20T13:45:43Z</time>
      </trkpt>
      <trkpt lat="48.17744" lon="-3.30616">
        <ele>198.6</ele>
        <time>2024-11-20T13:45:44Z</time>
      </trkpt>
      <trkpt lat="48.17743" lon="-3.30613">
        <ele>198.2</ele>
        <time>2024-11-20T13:45:45Z</time>
      </trkpt>
      <trkpt lat="48.17743" lon="-3.3061">
        <ele>197.9</ele>
        <time>2024-11-20T13:45:46Z</time>
      </trkpt>
      <trkpt lat="48.17743" lon="-3.30608">
        <ele>197.8</ele>
        <time>2024-11-20T13:45:47Z</time>
      </trkpt>
      <trkpt lat="48.17743" lon="-3.30606">
        <ele>197.6</ele>
        <time>2024-11-20T13:45:48Z</time>
      </trkpt>
      <trkpt lat="48.17743" lon="-3.30604">
        <ele>197.5</ele>
        <time>2024-11-20T13:45:49Z</time>
      </trkpt>
      <trkpt lat="48.17743" lon="-3.30601">
        <ele>197.4</ele>
        <time>2024-11-20T13:45:50Z</time>
      </trkpt>
      <trkpt lat="48.17743" lon="-3.30599">
        <ele>197.3</ele>
        <time>2024-11-20T13:45:51Z</time>
      </trkpt>
      <trkpt lat="48.17743" lon="-3.30597">
        <ele>197.2</ele>
        <time>2024-11-20T13:45:52Z</time>
      </trkpt>
      <trkpt lat="48.17743" lon="-3.30595">
        <ele>197</ele>
        <time>2024-11-20T13:45:53Z</time>
      </trkpt>
      <trkpt lat="48.17743" lon="-3.30592">
        <ele>197</ele>
        <time>2024-11-20T13:45:54Z</time>
      </trkpt>
      <trkpt lat="48.17743" lon="-3.30591">
        <ele>196.9</ele>
        <time>2024-11-20T13:45:55Z</time>
      </trkpt>
      <trkpt lat="48.17743" lon="-3.30589">
        <ele>196.8</ele>
        <time>2024-11-20T13:45:56Z</time>
      </trkpt>
      <trkpt lat="48.17743" lon="-3.30587">
        <ele>196.7</ele>
        <time>2024-11-20T13:45:57Z</time>
      </trkpt>
      <trkpt lat="48.17743" lon="-3.30585">
        <ele>196.6</ele>
        <time>2024-11-20T13:45:58Z</time>
      </trkpt>
      <trkpt lat="48.17743" lon="-3.30583">
        <ele>196.5</ele>
        <time>2024-11-20T13:45:59Z</time>
      </trkpt>
      <trkpt lat="48.17743" lon="-3.30582">
        <ele>196.4</ele>
        <time>2024-11-20T13:46:00Z</time>
      </trkpt>
      <trkpt lat="48.17743" lon="-3.3058">
        <ele>196.4</ele>
        <time>2024-11-20T13:46:01Z</time>
      </trkpt>
      <trkpt lat="48.17743" lon="-3.30577">
        <ele>196.4</ele>
        <time>2024-11-20T13:46:02Z</time>
      </trkpt>
      <trkpt lat="48.17743" lon="-3.30575">
        <ele>196.3</ele>
        <time>2024-11-20T13:46:03Z</time>
      </trkpt>
      <trkpt lat="48.17743" lon="-3.30573">
        <ele>196.3</ele>
        <time>2024-11-20T13:46:04Z</time>
      </trkpt>
      <trkpt lat="48.17743" lon="-3.30571">
        <ele>196.3</ele>
        <time>2024-11-20T13:46:05Z</time>
      </trkpt>
      <trkpt lat="48.17743" lon="-3.30569">
        <ele>196.2</ele>
        <time>2024-11-20T13:46:06Z</time>
      </trkpt>
      <trkpt lat="48.17743" lon="-3.30568">
        <ele>196.2</ele>
        <time>2024-11-20T13:46:07Z</time>
      </trkpt>
      <trkpt lat="48.17743" lon="-3.30566">
        <ele>196.2</ele>
        <time>2024-11-20T13:46:08Z</time>
      </trkpt>
      <trkpt lat="48.17743" lon="-3.30565">
        <ele>196.2</ele>
        <time>2024-11-20T13:46:09Z</time>
      </trkpt>
      <trkpt lat="48.17743" lon="-3.30562">
        <ele>196.1</ele>
        <time>2024-11-20T13:46:10Z</time>
      </trkpt>
      <trkpt lat="48.17743" lon="-3.3056">
        <ele>196.1</ele>
        <time>2024-11-20T13:46:11Z</time>
      </trkpt>
      <trkpt lat="48.17743" lon="-3.30557">
        <ele>196</ele>
        <time>2024-11-20T13:46:12Z</time>
      </trkpt>
      <trkpt lat="48.17743" lon="-3.30555">
        <ele>196</ele>
        <time>2024-11-20T13:46:13Z</time>
      </trkpt>
      <trkpt lat="48.17744" lon="-3.30552">
        <ele>196</ele>
        <time>2024-11-20T13:46:14Z</time>
      </trkpt>
      <trkpt lat="48.17744" lon="-3.30549">
        <ele>196</ele>
        <time>2024-11-20T13:46:15Z</time>
      </trkpt>
      <trkpt lat="48.17743" lon="-3.30547">
        <ele>196</ele>
        <time>2024-11-20T13:46:16Z</time>
      </trkpt>
      <trkpt lat="48.17743" lon="-3.30544">
        <ele>196</ele>
        <time>2024-11-20T13:46:17Z</time>
      </trkpt>
      <trkpt lat="48.17743" lon="-3.30543">
        <ele>196</ele>
        <time>2024-11-20T13:46:18Z</time>
      </trkpt>
      <trkpt lat="48.17743" lon="-3.30541">
        <ele>196</ele>
        <time>2024-11-20T13:46:19Z</time>
      </trkpt>
      <trkpt lat="48.17743" lon="-3.30539">
        <ele>196</ele>
        <time>2024-11-20T13:46:20Z</time>
      </trkpt>
      <trkpt lat="48.17742" lon="-3.30537">
        <ele>196</ele>
        <time>2024-11-20T13:46:21Z</time>
      </trkpt>
      <trkpt lat="48.17742" lon="-3.30536">
        <ele>196</ele>
        <time>2024-11-20T13:46:22Z</time>
      </trkpt>
      <trkpt lat="48.17741" lon="-3.30535">
        <ele>196</ele>
        <time>2024-11-20T13:46:23Z</time>
      </trkpt>
      <trkpt lat="48.17741" lon="-3.30534">
        <ele>196</ele>
        <time>2024-11-20T13:46:24Z</time>
      </trkpt>
      <trkpt lat="48.1774" lon="-3.30532">
        <ele>196</ele>
        <time>2024-11-20T13:46:25Z</time>
      </trkpt>
      <trkpt lat="48.1774" lon="-3.30531">
        <ele>196</ele>
        <time>2024-11-20T13:46:26Z</time>
      </trkpt>
      <trkpt lat="48.1774" lon="-3.3053">
        <ele>196</ele>
        <time>2024-11-20T13:46:27Z</time>
      </trkpt>
      <trkpt lat="48.1774" lon="-3.30529">
        <ele>196</ele>
        <time>2024-11-20T13:46:28Z</time>
      </trkpt>
      <trkpt lat="48.1774" lon="-3.30526">
        <ele>196</ele>
        <time>2024-11-20T13:46:29Z</time>
      </trkpt>
      <trkpt lat="48.1774" lon="-3.30525">
        <ele>196</ele>
        <time>2024-11-20T13:46:30Z</time>
      </trkpt>
      <trkpt lat="48.1774" lon="-3.30524">
        <ele>196</ele>
        <time>2024-11-20T13:46:31Z</time>
      </trkpt>
      <trkpt lat="48.1774" lon="-3.30523">
        <ele>196</ele>
        <time>2024-11-20T13:46:32Z</time>
      </trkpt>
      <trkpt lat="48.1774" lon="-3.30522">
        <ele>196</ele>
        <time>2024-11-20T13:46:33Z</time>
      </trkpt>
      <trkpt lat="48.1774" lon="-3.30521">
        <ele>196</ele>
        <time>2024-11-20T13:46:34Z</time>
      </trkpt>
      <trkpt lat="48.1774" lon="-3.30519">
        <ele>196</ele>
        <time>2024-11-20T13:46:35Z</time>
      </trkpt>
      <trkpt lat="48.1774" lon="-3.30517">
        <ele>196</ele>
        <time>2024-11-20T13:46:36Z</time>
      </trkpt>
      <trkpt lat="48.1774" lon="-3.30516">
        <ele>196</ele>
        <time>2024-11-20T13:46:37Z</time>
      </trkpt>
      <trkpt lat="48.17739" lon="-3.30516">
        <ele>196</ele>
        <time>2024-11-20T13:46:38Z</time>
      </trkpt>
      <trkpt lat="48.17739" lon="-3.30516">
        <ele>196</ele>
        <time>2024-11-20T13:46:39Z</time>
      </trkpt>
      <trkpt lat="48.17739" lon="-3.30515">
        <ele>196</ele>
        <time>2024-11-20T13:46:40Z</time>
      </trkpt>
      <trkpt lat="48.17739" lon="-3.30513">
        <ele>196</ele>
        <time>2024-11-20T13:46:41Z</time>
      </trkpt>
      <trkpt lat="48.17739" lon="-3.30512">
        <ele>196</ele>
        <time>2024-11-20T13:46:42Z</time>
      </trkpt>
      <trkpt lat="48.17739" lon="-3.30511">
        <ele>196</ele>
        <time>2024-11-20T13:46:43Z</time>
      </trkpt>
      <trkpt lat="48.17737" lon="-3.3051">
        <ele>196</ele>
        <time>2024-11-20T13:46:44Z</time>
      </trkpt>
      <trkpt lat="48.17736" lon="-3.30508">
        <ele>196</ele>
        <time>2024-11-20T13:46:45Z</time>
      </trkpt>
      <trkpt lat="48.17736" lon="-3.30507">
        <ele>196</ele>
        <time>2024-11-20T13:46:46Z</time>
      </trkpt>
      <trkpt lat="48.17735" lon="-3.30506">
        <ele>196</ele>
        <time>2024-11-20T13:46:47Z</time>
      </trkpt>
      <trkpt lat="48.17734" lon="-3.30505">
        <ele>196</ele>
        <time>2024-11-20T13:46:48Z</time>
      </trkpt>
      <trkpt lat="48.17733" lon="-3.30504">
        <ele>196</ele>
        <time>2024-11-20T13:46:49Z</time>
      </trkpt>
      <trkpt lat="48.17732" lon="-3.30503">
        <ele>196</ele>
        <time>2024-11-20T13:46:50Z</time>
      </trkpt>
      <trkpt lat="48.17732" lon="-3.30501">
        <ele>196</ele>
        <time>2024-11-20T13:46:51Z</time>
      </trkpt>
      <trkpt lat="48.17731" lon="-3.305">
        <ele>196</ele>
        <time>2024-11-20T13:46:52Z</time>
      </trkpt>
      <trkpt lat="48.1773" lon="-3.30499">
        <ele>196.1</ele>
        <time>2024-11-20T13:46:53Z</time>
      </trkpt>
      <trkpt lat="48.17729" lon="-3.30497">
        <ele>196.1</ele>
        <time>2024-11-20T13:46:54Z</time>
      </trkpt>
      <trkpt lat="48.17728" lon="-3.30496">
        <ele>196.2</ele>
        <time>2024-11-20T13:46:55Z</time>
      </trkpt>
      <trkpt lat="48.17728" lon="-3.30493">
        <ele>196.2</ele>
        <time>2024-11-20T13:46:56Z</time>
      </trkpt>
      <trkpt lat="48.17727" lon="-3.30491">
        <ele>196.3</ele>
        <time>2024-11-20T13:46:57Z</time>
      </trkpt>
      <trkpt lat="48.17727" lon="-3.30489">
        <ele>196.4</ele>
        <time>2024-11-20T13:46:58Z</time>
      </trkpt>
      <trkpt lat="48.17726" lon="-3.30487">
        <ele>196.5</ele>
        <time>2024-11-20T13:46:59Z</time>
      </trkpt>
      <trkpt lat="48.17726" lon="-3.30485">
        <ele>196.5</ele>
        <time>2024-11-20T13:47:00Z</time>
      </trkpt>
      <trkpt lat="48.17726" lon="-3.30482">
        <ele>196.6</ele>
        <time>2024-11-20T13:47:01Z</time>
      </trkpt>
      <trkpt lat="48.17726" lon="-3.30481">
        <ele>196.7</ele>
        <time>2024-11-20T13:47:02Z</time>
      </trkpt>
      <trkpt lat="48.17725" lon="-3.30479">
        <ele>196.7</ele>
        <time>2024-11-20T13:47:03Z</time>
      </trkpt>
      <trkpt lat="48.17725" lon="-3.30478">
        <ele>196.8</ele>
        <time>2024-11-20T13:47:04Z</time>
      </trkpt>
      <trkpt lat="48.17725" lon="-3.30476">
        <ele>196.9</ele>
        <time>2024-11-20T13:47:05Z</time>
      </trkpt>
      <trkpt lat="48.17724" lon="-3.30475">
        <ele>196.9</ele>
        <time>2024-11-20T13:47:06Z</time>
      </trkpt>
      <trkpt lat="48.17724" lon="-3.30474">
        <ele>196.9</ele>
        <time>2024-11-20T13:47:07Z</time>
      </trkpt>
      <trkpt lat="48.17724" lon="-3.30473">
        <ele>197</ele>
        <time>2024-11-20T13:47:08Z</time>
      </trkpt>
      <trkpt lat="48.17723" lon="-3.30471">
        <ele>197</ele>
        <time>2024-11-20T13:47:09Z</time>
      </trkpt>
      <trkpt lat="48.17723" lon="-3.3047">
        <ele>197.1</ele>
        <time>2024-11-20T13:47:10Z</time>
      </trkpt>
      <trkpt lat="48.17722" lon="-3.30468">
        <ele>197.1</ele>
        <time>2024-11-20T13:47:11Z</time>
      </trkpt>
      <trkpt lat="48.17722" lon="-3.30467">
        <ele>197.2</ele>
        <time>2024-11-20T13:47:12Z</time>
      </trkpt>
      <trkpt lat="48.17722" lon="-3.30466">
        <ele>197.2</ele>
        <time>2024-11-20T13:47:13Z</time>
      </trkpt>
      <trkpt lat="48.17721" lon="-3.30464">
        <ele>197.3</ele>
        <time>2024-11-20T13:47:14Z</time>
      </trkpt>
      <trkpt lat="48.1772" lon="-3.30463">
        <ele>197.3</ele>
        <time>2024-11-20T13:47:15Z</time>
      </trkpt>
      <trkpt lat="48.1772" lon="-3.30461">
        <ele>197.4</ele>
        <time>2024-11-20T13:47:16Z</time>
      </trkpt>
      <trkpt lat="48.17719" lon="-3.3046">
        <ele>197.4</ele>
        <time>2024-11-20T13:47:17Z</time>
      </trkpt>
      <trkpt lat="48.17719" lon="-3.30459">
        <ele>197.5</ele>
        <time>2024-11-20T13:47:18Z</time>
      </trkpt>
      <trkpt lat="48.17718" lon="-3.30458">
        <ele>197.5</ele>
        <time>2024-11-20T13:47:19Z</time>
      </trkpt>
      <trkpt lat="48.17718" lon="-3.30457">
        <ele>197.6</ele>
        <time>2024-11-20T13:47:20Z</time>
      </trkpt>
      <trkpt lat="48.17717" lon="-3.30456">
        <ele>197.6</ele>
        <time>2024-11-20T13:47:21Z</time>
      </trkpt>
      <trkpt lat="48.17717" lon="-3.30454">
        <ele>197.7</ele>
        <time>2024-11-20T13:47:22Z</time>
      </trkpt>
      <trkpt lat="48.17716" lon="-3.30452">
        <ele>197.7</ele>
        <time>2024-11-20T13:47:23Z</time>
      </trkpt>
      <trkpt lat="48.17716" lon="-3.30451">
        <ele>197.8</ele>
        <time>2024-11-20T13:47:24Z</time>
      </trkpt>
      <trkpt lat="48.17715" lon="-3.30449">
        <ele>197.8</ele>
        <time>2024-11-20T13:47:25Z</time>
      </trkpt>
      <trkpt lat="48.17714" lon="-3.30449">
        <ele>197.9</ele>
        <time>2024-11-20T13:47:26Z</time>
      </trkpt>
      <trkpt lat="48.17713" lon="-3.30448">
        <ele>197.9</ele>
        <time>2024-11-20T13:47:27Z</time>
      </trkpt>
      <trkpt lat="48.17713" lon="-3.30447">
        <ele>197.9</ele>
        <time>2024-11-20T13:47:28Z</time>
      </trkpt>
      <trkpt lat="48.17712" lon="-3.30446">
        <ele>198</ele>
        <time>2024-11-20T13:47:29Z</time>
      </trkpt>
      <trkpt lat="48.17712" lon="-3.30445">
        <ele>198</ele>
        <time>2024-11-20T13:47:30Z</time>
      </trkpt>
      <trkpt lat="48.17711" lon="-3.30444">
        <ele>198</ele>
        <time>2024-11-20T13:47:31Z</time>
      </trkpt>
      <trkpt lat="48.17711" lon="-3.30443">
        <ele>198</ele>
        <time>2024-11-20T13:47:32Z</time>
      </trkpt>
      <trkpt lat="48.17711" lon="-3.30441">
        <ele>198.1</ele>
        <time>2024-11-20T13:47:33Z</time>
      </trkpt>
      <trkpt lat="48.1771" lon="-3.3044">
        <ele>198.1</ele>
        <time>2024-11-20T13:47:34Z</time>
      </trkpt>
      <trkpt lat="48.1771" lon="-3.30439">
        <ele>198.1</ele>
        <time>2024-11-20T13:47:35Z</time>
      </trkpt>
      <trkpt lat="48.1771" lon="-3.30437">
        <ele>198.1</ele>
        <time>2024-11-20T13:47:36Z</time>
      </trkpt>
      <trkpt lat="48.17709" lon="-3.30437">
        <ele>198.2</ele>
        <time>2024-11-20T13:47:37Z</time>
      </trkpt>
      <trkpt lat="48.17709" lon="-3.30435">
        <ele>198.2</ele>
        <time>2024-11-20T13:47:38Z</time>
      </trkpt>
      <trkpt lat="48.17709" lon="-3.30434">
        <ele>198.2</ele>
        <time>2024-11-20T13:47:39Z</time>
      </trkpt>
      <trkpt lat="48.17709" lon="-3.30433">
        <ele>198.2</ele>
        <time>2024-11-20T13:47:40Z</time>
      </trkpt>
      <trkpt lat="48.17709" lon="-3.30432">
        <ele>198.2</ele>
        <time>2024-11-20T13:47:41Z</time>
      </trkpt>
      <trkpt lat="48.17709" lon="-3.30431">
        <ele>198.3</ele>
        <time>2024-11-20T13:47:42Z</time>
      </trkpt>
      <trkpt lat="48.17708" lon="-3.30429">
        <ele>198.3</ele>
        <time>2024-11-20T13:47:43Z</time>
      </trkpt>
      <trkpt lat="48.17708" lon="-3.30428">
        <ele>198.3</ele>
        <time>2024-11-20T13:47:44Z</time>
      </trkpt>
      <trkpt lat="48.17707" lon="-3.30426">
        <ele>198.3</ele>
        <time>2024-11-20T13:47:45Z</time>
      </trkpt>
      <trkpt lat="48.17707" lon="-3.30425">
        <ele>198.3</ele>
        <time>2024-11-20T13:47:46Z</time>
      </trkpt>
      <trkpt lat="48.17707" lon="-3.30423">
        <ele>198.3</ele>
        <time>2024-11-20T13:47:47Z</time>
      </trkpt>
      <trkpt lat="48.17706" lon="-3.30422">
        <ele>198.3</ele>
        <time>2024-11-20T13:47:48Z</time>
      </trkpt>
      <trkpt lat="48.17706" lon="-3.3042">
        <ele>198.4</ele>
        <time>2024-11-20T13:47:49Z</time>
      </trkpt>
      <trkpt lat="48.17705" lon="-3.30418">
        <ele>198.4</ele>
        <time>2024-11-20T13:47:50Z</time>
      </trkpt>
      <trkpt lat="48.17705" lon="-3.30417">
        <ele>198.4</ele>
        <time>2024-11-20T13:47:51Z</time>
      </trkpt>
      <trkpt lat="48.17704" lon="-3.30416">
        <ele>198.4</ele>
        <time>2024-11-20T13:47:52Z</time>
      </trkpt>
      <trkpt lat="48.17704" lon="-3.30415">
        <ele>198.4</ele>
        <time>2024-11-20T13:47:53Z</time>
      </trkpt>
      <trkpt lat="48.17704" lon="-3.30414">
        <ele>198.4</ele>
        <time>2024-11-20T13:47:54Z</time>
      </trkpt>
      <trkpt lat="48.17704" lon="-3.30412">
        <ele>198.5</ele>
        <time>2024-11-20T13:47:55Z</time>
      </trkpt>
      <trkpt lat="48.17703" lon="-3.3041">
        <ele>198.5</ele>
        <time>2024-11-20T13:47:56Z</time>
      </trkpt>
      <trkpt lat="48.17703" lon="-3.30409">
        <ele>198.6</ele>
        <time>2024-11-20T13:47:57Z</time>
      </trkpt>
      <trkpt lat="48.17703" lon="-3.30408">
        <ele>198.6</ele>
        <time>2024-11-20T13:47:58Z</time>
      </trkpt>
      <trkpt lat="48.17702" lon="-3.30407">
        <ele>198.6</ele>
        <time>2024-11-20T13:47:59Z</time>
      </trkpt>
      <trkpt lat="48.17702" lon="-3.30406">
        <ele>198.7</ele>
        <time>2024-11-20T13:48:00Z</time>
      </trkpt>
      <trkpt lat="48.17701" lon="-3.30405">
        <ele>198.7</ele>
        <time>2024-11-20T13:48:01Z</time>
      </trkpt>
      <trkpt lat="48.17701" lon="-3.30404">
        <ele>198.7</ele>
        <time>2024-11-20T13:48:02Z</time>
      </trkpt>
      <trkpt lat="48.17701" lon="-3.30402">
        <ele>198.8</ele>
        <time>2024-11-20T13:48:03Z</time>
      </trkpt>
      <trkpt lat="48.17701" lon="-3.30401">
        <ele>198.8</ele>
        <time>2024-11-20T13:48:04Z</time>
      </trkpt>
      <trkpt lat="48.17701" lon="-3.30399">
        <ele>198.9</ele>
        <time>2024-11-20T13:48:05Z</time>
      </trkpt>
      <trkpt lat="48.17701" lon="-3.30397">
        <ele>198.9</ele>
        <time>2024-11-20T13:48:06Z</time>
      </trkpt>
      <trkpt lat="48.177" lon="-3.30396">
        <ele>199</ele>
        <time>2024-11-20T13:48:07Z</time>
      </trkpt>
      <trkpt lat="48.177" lon="-3.30395">
        <ele>199</ele>
        <time>2024-11-20T13:48:08Z</time>
      </trkpt>
      <trkpt lat="48.177" lon="-3.30394">
        <ele>199</ele>
        <time>2024-11-20T13:48:09Z</time>
      </trkpt>
      <trkpt lat="48.17699" lon="-3.30394">
        <ele>199</ele>
        <time>2024-11-20T13:48:10Z</time>
      </trkpt>
      <trkpt lat="48.17699" lon="-3.30393">
        <ele>199</ele>
        <time>2024-11-20T13:48:11Z</time>
      </trkpt>
      <trkpt lat="48.17698" lon="-3.30392">
        <ele>199</ele>
        <time>2024-11-20T13:48:12Z</time>
      </trkpt>
      <trkpt lat="48.17697" lon="-3.3039">
        <ele>199.1</ele>
        <time>2024-11-20T13:48:13Z</time>
      </trkpt>
      <trkpt lat="48.17697" lon="-3.30388">
        <ele>199.1</ele>
        <time>2024-11-20T13:48:14Z</time>
      </trkpt>
      <trkpt lat="48.17696" lon="-3.30386">
        <ele>199.2</ele>
        <time>2024-11-20T13:48:15Z</time>
      </trkpt>
      <trkpt lat="48.17696" lon="-3.30384">
        <ele>199.2</ele>
        <time>2024-11-20T13:48:16Z</time>
      </trkpt>
      <trkpt lat="48.17695" lon="-3.30383">
        <ele>199.3</ele>
        <time>2024-11-20T13:48:17Z</time>
      </trkpt>
      <trkpt lat="48.17695" lon="-3.30381">
        <ele>199.3</ele>
        <time>2024-11-20T13:48:18Z</time>
      </trkpt>
      <trkpt lat="48.17695" lon="-3.30379">
        <ele>199.4</ele>
        <time>2024-11-20T13:48:19Z</time>
      </trkpt>
      <trkpt lat="48.17695" lon="-3.30378">
        <ele>199.4</ele>
        <time>2024-11-20T13:48:20Z</time>
      </trkpt>
      <trkpt lat="48.17694" lon="-3.30376">
        <ele>199.5</ele>
        <time>2024-11-20T13:48:21Z</time>
      </trkpt>
      <trkpt lat="48.17694" lon="-3.30375">
        <ele>199.5</ele>
        <time>2024-11-20T13:48:22Z</time>
      </trkpt>
      <trkpt lat="48.17694" lon="-3.30374">
        <ele>199.5</ele>
        <time>2024-11-20T13:48:23Z</time>
      </trkpt>
      <trkpt lat="48.17694" lon="-3.30372">
        <ele>199.6</ele>
        <time>2024-11-20T13:48:24Z</time>
      </trkpt>
      <trkpt lat="48.17694" lon="-3.30371">
        <ele>199.6</ele>
        <time>2024-11-20T13:48:25Z</time>
      </trkpt>
      <trkpt lat="48.17694" lon="-3.30369">
        <ele>199.7</ele>
        <time>2024-11-20T13:48:26Z</time>
      </trkpt>
      <trkpt lat="48.17694" lon="-3.30368">
        <ele>199.7</ele>
        <time>2024-11-20T13:48:27Z</time>
      </trkpt>
      <trkpt lat="48.17693" lon="-3.30367">
        <ele>199.8</ele>
        <time>2024-11-20T13:48:28Z</time>
      </trkpt>
      <trkpt lat="48.17693" lon="-3.30365">
        <ele>199.8</ele>
        <time>2024-11-20T13:48:29Z</time>
      </trkpt>
      <trkpt lat="48.17692" lon="-3.30364">
        <ele>199.8</ele>
        <time>2024-11-20T13:48:30Z</time>
      </trkpt>
      <trkpt lat="48.17692" lon="-3.30362">
        <ele>199.9</ele>
        <time>2024-11-20T13:48:31Z</time>
      </trkpt>
      <trkpt lat="48.17692" lon="-3.30361">
        <ele>199.9</ele>
        <time>2024-11-20T13:48:32Z</time>
      </trkpt>
      <trkpt lat="48.17692" lon="-3.30359">
        <ele>200</ele>
        <time>2024-11-20T13:48:33Z</time>
      </trkpt>
      <trkpt lat="48.17692" lon="-3.30358">
        <ele>200</ele>
        <time>2024-11-20T13:48:34Z</time>
      </trkpt>
      <trkpt lat="48.17692" lon="-3.30357">
        <ele>200.1</ele>
        <time>2024-11-20T13:48:35Z</time>
      </trkpt>
      <trkpt lat="48.17692" lon="-3.30357">
        <ele>200.1</ele>
        <time>2024-11-20T13:48:36Z</time>
      </trkpt>
      <trkpt lat="48.17692" lon="-3.30356">
        <ele>200.1</ele>
        <time>2024-11-20T13:48:37Z</time>
      </trkpt>
      <trkpt lat="48.17692" lon="-3.30356">
        <ele>200.1</ele>
        <time>2024-11-20T13:48:38Z</time>
      </trkpt>
      <trkpt lat="48.17691" lon="-3.30355">
        <ele>200.1</ele>
        <time>2024-11-20T13:48:39Z</time>
      </trkpt>
      <trkpt lat="48.17691" lon="-3.30354">
        <ele>200.1</ele>
        <time>2024-11-20T13:48:40Z</time>
      </trkpt>
      <trkpt lat="48.17691" lon="-3.30354">
        <ele>200.1</ele>
        <time>2024-11-20T13:48:41Z</time>
      </trkpt>
      <trkpt lat="48.1769" lon="-3.30353">
        <ele>200.2</ele>
        <time>2024-11-20T13:48:42Z</time>
      </trkpt>
      <trkpt lat="48.1769" lon="-3.30352">
        <ele>200.2</ele>
        <time>2024-11-20T13:48:43Z</time>
      </trkpt>
      <trkpt lat="48.17689" lon="-3.30351">
        <ele>200.2</ele>
        <time>2024-11-20T13:48:44Z</time>
      </trkpt>
      <trkpt lat="48.17689" lon="-3.30349">
        <ele>200.2</ele>
        <time>2024-11-20T13:48:45Z</time>
      </trkpt>
      <trkpt lat="48.17689" lon="-3.30348">
        <ele>200.3</ele>
        <time>2024-11-20T13:48:46Z</time>
      </trkpt>
      <trkpt lat="48.17689" lon="-3.30346">
        <ele>200.3</ele>
        <time>2024-11-20T13:48:47Z</time>
      </trkpt>
      <trkpt lat="48.17689" lon="-3.30344">
        <ele>200.4</ele>
        <time>2024-11-20T13:48:48Z</time>
      </trkpt>
      <trkpt lat="48.17689" lon="-3.30342">
        <ele>200.5</ele>
        <time>2024-11-20T13:48:49Z</time>
      </trkpt>
      <trkpt lat="48.17689" lon="-3.3034">
        <ele>200.6</ele>
        <time>2024-11-20T13:48:50Z</time>
      </trkpt>
      <trkpt lat="48.1769" lon="-3.30338">
        <ele>200.7</ele>
        <time>2024-11-20T13:48:51Z</time>
      </trkpt>
      <trkpt lat="48.1769" lon="-3.30336">
        <ele>200.7</ele>
        <time>2024-11-20T13:48:52Z</time>
      </trkpt>
      <trkpt lat="48.1769" lon="-3.30334">
        <ele>200.8</ele>
        <time>2024-11-20T13:48:53Z</time>
      </trkpt>
      <trkpt lat="48.1769" lon="-3.30332">
        <ele>200.9</ele>
        <time>2024-11-20T13:48:54Z</time>
      </trkpt>
      <trkpt lat="48.17689" lon="-3.3033">
        <ele>201</ele>
        <time>2024-11-20T13:48:55Z</time>
      </trkpt>
      <trkpt lat="48.17689" lon="-3.30327">
        <ele>201</ele>
        <time>2024-11-20T13:48:56Z</time>
      </trkpt>
      <trkpt lat="48.17689" lon="-3.30326">
        <ele>201.1</ele>
        <time>2024-11-20T13:48:57Z</time>
      </trkpt>
      <trkpt lat="48.17689" lon="-3.30324">
        <ele>201.1</ele>
        <time>2024-11-20T13:48:58Z</time>
      </trkpt>
      <trkpt lat="48.17689" lon="-3.30323">
        <ele>201.2</ele>
        <time>2024-11-20T13:48:59Z</time>
      </trkpt>
      <trkpt lat="48.1769" lon="-3.30321">
        <ele>201.3</ele>
        <time>2024-11-20T13:49:00Z</time>
      </trkpt>
      <trkpt lat="48.1769" lon="-3.30319">
        <ele>201.4</ele>
        <time>2024-11-20T13:49:01Z</time>
      </trkpt>
      <trkpt lat="48.1769" lon="-3.30316">
        <ele>201.5</ele>
        <time>2024-11-20T13:49:02Z</time>
      </trkpt>
      <trkpt lat="48.1769" lon="-3.30315">
        <ele>201.5</ele>
        <time>2024-11-20T13:49:03Z</time>
      </trkpt>
      <trkpt lat="48.1769" lon="-3.30314">
        <ele>201.5</ele>
        <time>2024-11-20T13:49:04Z</time>
      </trkpt>
      <trkpt lat="48.1769" lon="-3.30313">
        <ele>201.6</ele>
        <time>2024-11-20T13:49:05Z</time>
      </trkpt>
      <trkpt lat="48.1769" lon="-3.30312">
        <ele>201.6</ele>
        <time>2024-11-20T13:49:06Z</time>
      </trkpt>
      <trkpt lat="48.1769" lon="-3.30311">
        <ele>201.7</ele>
        <time>2024-11-20T13:49:07Z</time>
      </trkpt>
      <trkpt lat="48.1769" lon="-3.3031">
        <ele>201.7</ele>
        <time>2024-11-20T13:49:08Z</time>
      </trkpt>
      <trkpt lat="48.1769" lon="-3.30308">
        <ele>201.7</ele>
        <time>2024-11-20T13:49:09Z</time>
      </trkpt>
      <trkpt lat="48.17689" lon="-3.30306">
        <ele>201.8</ele>
        <time>2024-11-20T13:49:10Z</time>
      </trkpt>
      <trkpt lat="48.17688" lon="-3.30305">
        <ele>201.8</ele>
        <time>2024-11-20T13:49:11Z</time>
      </trkpt>
      <trkpt lat="48.17688" lon="-3.30304">
        <ele>201.8</ele>
        <time>2024-11-20T13:49:12Z</time>
      </trkpt>
      <trkpt lat="48.17687" lon="-3.30302">
        <ele>201.9</ele>
        <time>2024-11-20T13:49:13Z</time>
      </trkpt>
      <trkpt lat="48.17687" lon="-3.303">
        <ele>201.9</ele>
        <time>2024-11-20T13:49:14Z</time>
      </trkpt>
      <trkpt lat="48.17687" lon="-3.30299">
        <ele>202</ele>
        <time>2024-11-20T13:49:15Z</time>
      </trkpt>
      <trkpt lat="48.17686" lon="-3.30297">
        <ele>202</ele>
        <time>2024-11-20T13:49:16Z</time>
      </trkpt>
      <trkpt lat="48.17686" lon="-3.30295">
        <ele>202.1</ele>
        <time>2024-11-20T13:49:17Z</time>
      </trkpt>
      <trkpt lat="48.17686" lon="-3.30293">
        <ele>202.2</ele>
        <time>2024-11-20T13:49:18Z</time>
      </trkpt>
      <trkpt lat="48.17686" lon="-3.3029">
        <ele>202.2</ele>
        <time>2024-11-20T13:49:19Z</time>
      </trkpt>
      <trkpt lat="48.17685" lon="-3.30288">
        <ele>202.3</ele>
        <time>2024-11-20T13:49:20Z</time>
      </trkpt>
      <trkpt lat="48.17685" lon="-3.30287">
        <ele>202.3</ele>
        <time>2024-11-20T13:49:21Z</time>
      </trkpt>
      <trkpt lat="48.17685" lon="-3.30284">
        <ele>202.4</ele>
        <time>2024-11-20T13:49:22Z</time>
      </trkpt>
      <trkpt lat="48.17685" lon="-3.30282">
        <ele>202.5</ele>
        <time>2024-11-20T13:49:23Z</time>
      </trkpt>
      <trkpt lat="48.17684" lon="-3.3028">
        <ele>202.6</ele>
        <time>2024-11-20T13:49:24Z</time>
      </trkpt>
      <trkpt lat="48.17684" lon="-3.30278">
        <ele>202.6</ele>
        <time>2024-11-20T13:49:25Z</time>
      </trkpt>
      <trkpt lat="48.17684" lon="-3.30277">
        <ele>202.7</ele>
        <time>2024-11-20T13:49:26Z</time>
      </trkpt>
      <trkpt lat="48.17684" lon="-3.30276">
        <ele>202.7</ele>
        <time>2024-11-20T13:49:27Z</time>
      </trkpt>
      <trkpt lat="48.17683" lon="-3.30274">
        <ele>202.7</ele>
        <time>2024-11-20T13:49:28Z</time>
      </trkpt>
      <trkpt lat="48.17683" lon="-3.30273">
        <ele>202.8</ele>
        <time>2024-11-20T13:49:29Z</time>
      </trkpt>
      <trkpt lat="48.17682" lon="-3.30272">
        <ele>202.8</ele>
        <time>2024-11-20T13:49:30Z</time>
      </trkpt>
      <trkpt lat="48.17682" lon="-3.30271">
        <ele>202.8</ele>
        <time>2024-11-20T13:49:31Z</time>
      </trkpt>
      <trkpt lat="48.17683" lon="-3.30271">
        <ele>202.8</ele>
        <time>2024-11-20T13:49:32Z</time>
      </trkpt>
      <trkpt lat="48.17683" lon="-3.30271">
        <ele>202.8</ele>
        <time>2024-11-20T13:49:33Z</time>
      </trkpt>
      <trkpt lat="48.17683" lon="-3.3027">
        <ele>202.8</ele>
        <time>2024-11-20T13:49:34Z</time>
      </trkpt>
      <trkpt lat="48.17682" lon="-3.30269">
        <ele>202.9</ele>
        <time>2024-11-20T13:49:35Z</time>
      </trkpt>
      <trkpt lat="48.17682" lon="-3.30268">
        <ele>202.9</ele>
        <time>2024-11-20T13:49:36Z</time>
      </trkpt>
      <trkpt lat="48.17682" lon="-3.30267">
        <ele>202.9</ele>
        <time>2024-11-20T13:49:37Z</time>
      </trkpt>
      <trkpt lat="48.17681" lon="-3.30266">
        <ele>202.9</ele>
        <time>2024-11-20T13:49:38Z</time>
      </trkpt>
      <trkpt lat="48.1768" lon="-3.30263">
        <ele>203</ele>
        <time>2024-11-20T13:49:39Z</time>
      </trkpt>
      <trkpt lat="48.17679" lon="-3.30261">
        <ele>203</ele>
        <time>2024-11-20T13:49:40Z</time>
      </trkpt>
      <trkpt lat="48.17679" lon="-3.3026">
        <ele>203.1</ele>
        <time>2024-11-20T13:49:41Z</time>
      </trkpt>
      <trkpt lat="48.17678" lon="-3.30259">
        <ele>203.1</ele>
        <time>2024-11-20T13:49:42Z</time>
      </trkpt>
      <trkpt lat="48.17678" lon="-3.30258">
        <ele>203.1</ele>
        <time>2024-11-20T13:49:43Z</time>
      </trkpt>
      <trkpt lat="48.17677" lon="-3.30257">
        <ele>203.1</ele>
        <time>2024-11-20T13:49:44Z</time>
      </trkpt>
      <trkpt lat="48.17677" lon="-3.30255">
        <ele>203.2</ele>
        <time>2024-11-20T13:49:45Z</time>
      </trkpt>
      <trkpt lat="48.17676" lon="-3.30253">
        <ele>203.2</ele>
        <time>2024-11-20T13:49:46Z</time>
      </trkpt>
      <trkpt lat="48.17675" lon="-3.30251">
        <ele>203.3</ele>
        <time>2024-11-20T13:49:47Z</time>
      </trkpt>
      <trkpt lat="48.17675" lon="-3.30249">
        <ele>203.3</ele>
        <time>2024-11-20T13:49:48Z</time>
      </trkpt>
      <trkpt lat="48.17675" lon="-3.30248">
        <ele>203.4</ele>
        <time>2024-11-20T13:49:49Z</time>
      </trkpt>
      <trkpt lat="48.17674" lon="-3.30247">
        <ele>203.4</ele>
        <time>2024-11-20T13:49:50Z</time>
      </trkpt>
      <trkpt lat="48.17674" lon="-3.30246">
        <ele>203.4</ele>
        <time>2024-11-20T13:49:51Z</time>
      </trkpt>
      <trkpt lat="48.17673" lon="-3.30244">
        <ele>203.4</ele>
        <time>2024-11-20T13:49:52Z</time>
      </trkpt>
      <trkpt lat="48.17673" lon="-3.30243">
        <ele>203.5</ele>
        <time>2024-11-20T13:49:53Z</time>
      </trkpt>
      <trkpt lat="48.17672" lon="-3.30242">
        <ele>203.5</ele>
        <time>2024-11-20T13:49:54Z</time>
      </trkpt>
      <trkpt lat="48.17672" lon="-3.30241">
        <ele>203.5</ele>
        <time>2024-11-20T13:49:55Z</time>
      </trkpt>
      <trkpt lat="48.17672" lon="-3.30239">
        <ele>203.6</ele>
        <time>2024-11-20T13:49:56Z</time>
      </trkpt>
      <trkpt lat="48.17671" lon="-3.30236">
        <ele>203.6</ele>
        <time>2024-11-20T13:49:57Z</time>
      </trkpt>
      <trkpt lat="48.1767" lon="-3.30234">
        <ele>203.7</ele>
        <time>2024-11-20T13:49:58Z</time>
      </trkpt>
      <trkpt lat="48.17669" lon="-3.30232">
        <ele>203.7</ele>
        <time>2024-11-20T13:49:59Z</time>
      </trkpt>
      <trkpt lat="48.17669" lon="-3.3023">
        <ele>203.8</ele>
        <time>2024-11-20T13:50:00Z</time>
      </trkpt>
      <trkpt lat="48.17668" lon="-3.30229">
        <ele>203.8</ele>
        <time>2024-11-20T13:50:01Z</time>
      </trkpt>
      <trkpt lat="48.17667" lon="-3.30227">
        <ele>203.8</ele>
        <time>2024-11-20T13:50:02Z</time>
      </trkpt>
      <trkpt lat="48.17667" lon="-3.30226">
        <ele>203.9</ele>
        <time>2024-11-20T13:50:03Z</time>
      </trkpt>
      <trkpt lat="48.17666" lon="-3.30224">
        <ele>203.9</ele>
        <time>2024-11-20T13:50:04Z</time>
      </trkpt>
      <trkpt lat="48.17666" lon="-3.30223">
        <ele>204</ele>
        <time>2024-11-20T13:50:05Z</time>
      </trkpt>
      <trkpt lat="48.17666" lon="-3.30221">
        <ele>204.1</ele>
        <time>2024-11-20T13:50:06Z</time>
      </trkpt>
      <trkpt lat="48.17665" lon="-3.3022">
        <ele>204.2</ele>
        <time>2024-11-20T13:50:07Z</time>
      </trkpt>
      <trkpt lat="48.17665" lon="-3.30219">
        <ele>204.2</ele>
        <time>2024-11-20T13:50:08Z</time>
      </trkpt>
      <trkpt lat="48.17666" lon="-3.30219">
        <ele>204.3</ele>
        <time>2024-11-20T13:50:09Z</time>
      </trkpt>
      <trkpt lat="48.17666" lon="-3.30218">
        <ele>204.3</ele>
        <time>2024-11-20T13:50:10Z</time>
      </trkpt>
      <trkpt lat="48.17666" lon="-3.30217">
        <ele>204.4</ele>
        <time>2024-11-20T13:50:11Z</time>
      </trkpt>
      <trkpt lat="48.17666" lon="-3.30216">
        <ele>204.5</ele>
        <time>2024-11-20T13:50:12Z</time>
      </trkpt>
      <trkpt lat="48.17666" lon="-3.30214">
        <ele>204.6</ele>
        <time>2024-11-20T13:50:13Z</time>
      </trkpt>
      <trkpt lat="48.17665" lon="-3.30213">
        <ele>204.7</ele>
        <time>2024-11-20T13:50:14Z</time>
      </trkpt>
      <trkpt lat="48.17665" lon="-3.30211">
        <ele>204.8</ele>
        <time>2024-11-20T13:50:15Z</time>
      </trkpt>
      <trkpt lat="48.17665" lon="-3.3021">
        <ele>204.9</ele>
        <time>2024-11-20T13:50:16Z</time>
      </trkpt>
      <trkpt lat="48.17665" lon="-3.3021">
        <ele>204.9</ele>
        <time>2024-11-20T13:50:17Z</time>
      </trkpt>
      <trkpt lat="48.17665" lon="-3.30209">
        <ele>205</ele>
        <time>2024-11-20T13:50:18Z</time>
      </trkpt>
      <trkpt lat="48.17665" lon="-3.30207">
        <ele>205.1</ele>
        <time>2024-11-20T13:50:19Z</time>
      </trkpt>
      <trkpt lat="48.17665" lon="-3.30207">
        <ele>205.2</ele>
        <time>2024-11-20T13:50:20Z</time>
      </trkpt>
      <trkpt lat="48.17665" lon="-3.30206">
        <ele>205.2</ele>
        <time>2024-11-20T13:50:21Z</time>
      </trkpt>
      <trkpt lat="48.17665" lon="-3.30204">
        <ele>205.3</ele>
        <time>2024-11-20T13:50:22Z</time>
      </trkpt>
      <trkpt lat="48.17666" lon="-3.30203">
        <ele>205.4</ele>
        <time>2024-11-20T13:50:23Z</time>
      </trkpt>
      <trkpt lat="48.17667" lon="-3.30202">
        <ele>205.5</ele>
        <time>2024-11-20T13:50:24Z</time>
      </trkpt>
      <trkpt lat="48.17667" lon="-3.302">
        <ele>205.6</ele>
        <time>2024-11-20T13:50:25Z</time>
      </trkpt>
      <trkpt lat="48.17668" lon="-3.30199">
        <ele>205.7</ele>
        <time>2024-11-20T13:50:26Z</time>
      </trkpt>
      <trkpt lat="48.17669" lon="-3.30197">
        <ele>205.9</ele>
        <time>2024-11-20T13:50:27Z</time>
      </trkpt>
      <trkpt lat="48.17669" lon="-3.30195">
        <ele>206.1</ele>
        <time>2024-11-20T13:50:28Z</time>
      </trkpt>
      <trkpt lat="48.1767" lon="-3.30194">
        <ele>206.2</ele>
        <time>2024-11-20T13:50:29Z</time>
      </trkpt>
      <trkpt lat="48.17671" lon="-3.30192">
        <ele>206.2</ele>
        <time>2024-11-20T13:50:30Z</time>
      </trkpt>
      <trkpt lat="48.17671" lon="-3.3019">
        <ele>206.3</ele>
        <time>2024-11-20T13:50:31Z</time>
      </trkpt>
      <trkpt lat="48.17672" lon="-3.30189">
        <ele>206.4</ele>
        <time>2024-11-20T13:50:32Z</time>
      </trkpt>
      <trkpt lat="48.17672" lon="-3.30187">
        <ele>206.5</ele>
        <time>2024-11-20T13:50:33Z</time>
      </trkpt>
      <trkpt lat="48.17673" lon="-3.30186">
        <ele>206.5</ele>
        <time>2024-11-20T13:50:34Z</time>
      </trkpt>
      <trkpt lat="48.17673" lon="-3.30184">
        <ele>206.6</ele>
        <time>2024-11-20T13:50:35Z</time>
      </trkpt>
      <trkpt lat="48.17674" lon="-3.30182">
        <ele>206.7</ele>
        <time>2024-11-20T13:50:36Z</time>
      </trkpt>
      <trkpt lat="48.17674" lon="-3.30181">
        <ele>206.8</ele>
        <time>2024-11-20T13:50:37Z</time>
      </trkpt>
      <trkpt lat="48.17675" lon="-3.30179">
        <ele>206.8</ele>
        <time>2024-11-20T13:50:38Z</time>
      </trkpt>
      <trkpt lat="48.17676" lon="-3.30178">
        <ele>206.9</ele>
        <time>2024-11-20T13:50:39Z</time>
      </trkpt>
      <trkpt lat="48.17676" lon="-3.30177">
        <ele>207</ele>
        <time>2024-11-20T13:50:40Z</time>
      </trkpt>
      <trkpt lat="48.17677" lon="-3.30175">
        <ele>207.1</ele>
        <time>2024-11-20T13:50:41Z</time>
      </trkpt>
      <trkpt lat="48.17677" lon="-3.30174">
        <ele>207.1</ele>
        <time>2024-11-20T13:50:42Z</time>
      </trkpt>
      <trkpt lat="48.17678" lon="-3.30174">
        <ele>207.2</ele>
        <time>2024-11-20T13:50:43Z</time>
      </trkpt>
      <trkpt lat="48.17678" lon="-3.30173">
        <ele>207.2</ele>
        <time>2024-11-20T13:50:44Z</time>
      </trkpt>
      <trkpt lat="48.17679" lon="-3.30172">
        <ele>207.2</ele>
        <time>2024-11-20T13:50:45Z</time>
      </trkpt>
      <trkpt lat="48.17679" lon="-3.30171">
        <ele>207.3</ele>
        <time>2024-11-20T13:50:46Z</time>
      </trkpt>
      <trkpt lat="48.17679" lon="-3.3017">
        <ele>207.4</ele>
        <time>2024-11-20T13:50:47Z</time>
      </trkpt>
      <trkpt lat="48.1768" lon="-3.30168">
        <ele>207.4</ele>
        <time>2024-11-20T13:50:48Z</time>
      </trkpt>
      <trkpt lat="48.1768" lon="-3.30166">
        <ele>207.5</ele>
        <time>2024-11-20T13:50:49Z</time>
      </trkpt>
      <trkpt lat="48.17681" lon="-3.30165">
        <ele>207.6</ele>
        <time>2024-11-20T13:50:50Z</time>
      </trkpt>
      <trkpt lat="48.17681" lon="-3.30163">
        <ele>207.7</ele>
        <time>2024-11-20T13:50:51Z</time>
      </trkpt>
      <trkpt lat="48.17682" lon="-3.30162">
        <ele>207.8</ele>
        <time>2024-11-20T13:50:52Z</time>
      </trkpt>
      <trkpt lat="48.17682" lon="-3.30161">
        <ele>207.9</ele>
        <time>2024-11-20T13:50:53Z</time>
      </trkpt>
      <trkpt lat="48.17683" lon="-3.30159">
        <ele>208</ele>
        <time>2024-11-20T13:50:54Z</time>
      </trkpt>
      <trkpt lat="48.17683" lon="-3.30158">
        <ele>208.1</ele>
        <time>2024-11-20T13:50:55Z</time>
      </trkpt>
      <trkpt lat="48.17683" lon="-3.30157">
        <ele>208.1</ele>
        <time>2024-11-20T13:50:56Z</time>
      </trkpt>
      <trkpt lat="48.17684" lon="-3.30156">
        <ele>208.2</ele>
        <time>2024-11-20T13:50:57Z</time>
      </trkpt>
      <trkpt lat="48.17684" lon="-3.30155">
        <ele>208.2</ele>
        <time>2024-11-20T13:50:58Z</time>
      </trkpt>
      <trkpt lat="48.17684" lon="-3.30153">
        <ele>208.3</ele>
        <time>2024-11-20T13:50:59Z</time>
      </trkpt>
      <trkpt lat="48.17685" lon="-3.30152">
        <ele>208.4</ele>
        <time>2024-11-20T13:51:00Z</time>
      </trkpt>
      <trkpt lat="48.17685" lon="-3.3015">
        <ele>208.5</ele>
        <time>2024-11-20T13:51:01Z</time>
      </trkpt>
      <trkpt lat="48.17686" lon="-3.30149">
        <ele>208.5</ele>
        <time>2024-11-20T13:51:02Z</time>
      </trkpt>
      <trkpt lat="48.17686" lon="-3.30148">
        <ele>208.6</ele>
        <time>2024-11-20T13:51:03Z</time>
      </trkpt>
      <trkpt lat="48.17686" lon="-3.30148">
        <ele>208.6</ele>
        <time>2024-11-20T13:51:04Z</time>
      </trkpt>
      <trkpt lat="48.17687" lon="-3.30147">
        <ele>208.6</ele>
        <time>2024-11-20T13:51:05Z</time>
      </trkpt>
      <trkpt lat="48.17687" lon="-3.30146">
        <ele>208.7</ele>
        <time>2024-11-20T13:51:06Z</time>
      </trkpt>
      <trkpt lat="48.17687" lon="-3.30145">
        <ele>208.7</ele>
        <time>2024-11-20T13:51:07Z</time>
      </trkpt>
      <trkpt lat="48.17688" lon="-3.30143">
        <ele>208.8</ele>
        <time>2024-11-20T13:51:08Z</time>
      </trkpt>
      <trkpt lat="48.17688" lon="-3.30143">
        <ele>208.8</ele>
        <time>2024-11-20T13:51:09Z</time>
      </trkpt>
      <trkpt lat="48.17689" lon="-3.30141">
        <ele>208.9</ele>
        <time>2024-11-20T13:51:10Z</time>
      </trkpt>
      <trkpt lat="48.1769" lon="-3.3014">
        <ele>209</ele>
        <time>2024-11-20T13:51:11Z</time>
      </trkpt>
      <trkpt lat="48.1769" lon="-3.30139">
        <ele>209</ele>
        <time>2024-11-20T13:51:12Z</time>
      </trkpt>
      <trkpt lat="48.17691" lon="-3.30139">
        <ele>209</ele>
        <time>2024-11-20T13:51:13Z</time>
      </trkpt>
      <trkpt lat="48.17692" lon="-3.30138">
        <ele>209.1</ele>
        <time>2024-11-20T13:51:14Z</time>
      </trkpt>
      <trkpt lat="48.17692" lon="-3.30137">
        <ele>209.2</ele>
        <time>2024-11-20T13:51:15Z</time>
      </trkpt>
      <trkpt lat="48.17693" lon="-3.30136">
        <ele>209.2</ele>
        <time>2024-11-20T13:51:16Z</time>
      </trkpt>
      <trkpt lat="48.17694" lon="-3.30135">
        <ele>209.3</ele>
        <time>2024-11-20T13:51:17Z</time>
      </trkpt>
      <trkpt lat="48.17695" lon="-3.30133">
        <ele>209.4</ele>
        <time>2024-11-20T13:51:18Z</time>
      </trkpt>
      <trkpt lat="48.17695" lon="-3.30132">
        <ele>209.5</ele>
        <time>2024-11-20T13:51:19Z</time>
      </trkpt>
      <trkpt lat="48.17696" lon="-3.30131">
        <ele>209.6</ele>
        <time>2024-11-20T13:51:20Z</time>
      </trkpt>
      <trkpt lat="48.17698" lon="-3.30129">
        <ele>209.7</ele>
        <time>2024-11-20T13:51:21Z</time>
      </trkpt>
      <trkpt lat="48.17699" lon="-3.30127">
        <ele>209.8</ele>
        <time>2024-11-20T13:51:22Z</time>
      </trkpt>
      <trkpt lat="48.177" lon="-3.30125">
        <ele>209.9</ele>
        <time>2024-11-20T13:51:23Z</time>
      </trkpt>
      <trkpt lat="48.177" lon="-3.30124">
        <ele>210</ele>
        <time>2024-11-20T13:51:24Z</time>
      </trkpt>
      <trkpt lat="48.17701" lon="-3.30122">
        <ele>210.1</ele>
        <time>2024-11-20T13:51:25Z</time>
      </trkpt>
      <trkpt lat="48.17702" lon="-3.30121">
        <ele>210.1</ele>
        <time>2024-11-20T13:51:26Z</time>
      </trkpt>
      <trkpt lat="48.17702" lon="-3.30121">
        <ele>210.1</ele>
        <time>2024-11-20T13:51:27Z</time>
      </trkpt>
      <trkpt lat="48.17703" lon="-3.3012">
        <ele>210.2</ele>
        <time>2024-11-20T13:51:28Z</time>
      </trkpt>
      <trkpt lat="48.17703" lon="-3.30119">
        <ele>210.2</ele>
        <time>2024-11-20T13:51:29Z</time>
      </trkpt>
      <trkpt lat="48.17703" lon="-3.30117">
        <ele>210.3</ele>
        <time>2024-11-20T13:51:30Z</time>
      </trkpt>
      <trkpt lat="48.17704" lon="-3.30116">
        <ele>210.4</ele>
        <time>2024-11-20T13:51:31Z</time>
      </trkpt>
      <trkpt lat="48.17704" lon="-3.30114">
        <ele>210.5</ele>
        <time>2024-11-20T13:51:32Z</time>
      </trkpt>
      <trkpt lat="48.17705" lon="-3.30111">
        <ele>210.6</ele>
        <time>2024-11-20T13:51:33Z</time>
      </trkpt>
      <trkpt lat="48.17706" lon="-3.3011">
        <ele>210.7</ele>
        <time>2024-11-20T13:51:34Z</time>
      </trkpt>
      <trkpt lat="48.17706" lon="-3.30108">
        <ele>210.8</ele>
        <time>2024-11-20T13:51:35Z</time>
      </trkpt>
      <trkpt lat="48.17707" lon="-3.30107">
        <ele>210.9</ele>
        <time>2024-11-20T13:51:36Z</time>
      </trkpt>
      <trkpt lat="48.17708" lon="-3.30105">
        <ele>211</ele>
        <time>2024-11-20T13:51:37Z</time>
      </trkpt>
      <trkpt lat="48.17709" lon="-3.30104">
        <ele>211.1</ele>
        <time>2024-11-20T13:51:38Z</time>
      </trkpt>
      <trkpt lat="48.17709" lon="-3.30103">
        <ele>211.2</ele>
        <time>2024-11-20T13:51:39Z</time>
      </trkpt>
      <trkpt lat="48.1771" lon="-3.30101">
        <ele>211.4</ele>
        <time>2024-11-20T13:51:40Z</time>
      </trkpt>
      <trkpt lat="48.17711" lon="-3.30099">
        <ele>211.5</ele>
        <time>2024-11-20T13:51:41Z</time>
      </trkpt>
      <trkpt lat="48.17712" lon="-3.30098">
        <ele>211.6</ele>
        <time>2024-11-20T13:51:42Z</time>
      </trkpt>
      <trkpt lat="48.17712" lon="-3.30098">
        <ele>211.6</ele>
        <time>2024-11-20T13:51:43Z</time>
      </trkpt>
      <trkpt lat="48.17713" lon="-3.30097">
        <ele>211.7</ele>
        <time>2024-11-20T13:51:44Z</time>
      </trkpt>
      <trkpt lat="48.17714" lon="-3.30096">
        <ele>211.8</ele>
        <time>2024-11-20T13:51:45Z</time>
      </trkpt>
      <trkpt lat="48.17714" lon="-3.30094">
        <ele>211.9</ele>
        <time>2024-11-20T13:51:46Z</time>
      </trkpt>
      <trkpt lat="48.17715" lon="-3.30093">
        <ele>212.1</ele>
        <time>2024-11-20T13:51:47Z</time>
      </trkpt>
      <trkpt lat="48.17716" lon="-3.30091">
        <ele>212.2</ele>
        <time>2024-11-20T13:51:48Z</time>
      </trkpt>
      <trkpt lat="48.17717" lon="-3.3009">
        <ele>212.4</ele>
        <time>2024-11-20T13:51:49Z</time>
      </trkpt>
      <trkpt lat="48.17718" lon="-3.30088">
        <ele>212.5</ele>
        <time>2024-11-20T13:51:50Z</time>
      </trkpt>
      <trkpt lat="48.17718" lon="-3.30087">
        <ele>212.7</ele>
        <time>2024-11-20T13:51:51Z</time>
      </trkpt>
      <trkpt lat="48.17719" lon="-3.30086">
        <ele>212.8</ele>
        <time>2024-11-20T13:51:52Z</time>
      </trkpt>
      <trkpt lat="48.17719" lon="-3.30084">
        <ele>212.9</ele>
        <time>2024-11-20T13:51:53Z</time>
      </trkpt>
      <trkpt lat="48.17719" lon="-3.30083">
        <ele>213</ele>
        <time>2024-11-20T13:51:54Z</time>
      </trkpt>
      <trkpt lat="48.17719" lon="-3.30081">
        <ele>213.2</ele>
        <time>2024-11-20T13:51:55Z</time>
      </trkpt>
      <trkpt lat="48.17718" lon="-3.30079">
        <ele>213.3</ele>
        <time>2024-11-20T13:51:56Z</time>
      </trkpt>
      <trkpt lat="48.17717" lon="-3.30079">
        <ele>213.3</ele>
        <time>2024-11-20T13:51:57Z</time>
      </trkpt>
      <trkpt lat="48.17717" lon="-3.30079">
        <ele>213.3</ele>
        <time>2024-11-20T13:51:58Z</time>
      </trkpt>
      <trkpt lat="48.17717" lon="-3.30079">
        <ele>213.3</ele>
        <time>2024-11-20T13:51:59Z</time>
      </trkpt>
      <trkpt lat="48.17716" lon="-3.30078">
        <ele>213.4</ele>
        <time>2024-11-20T13:52:00Z</time>
      </trkpt>
      <trkpt lat="48.17715" lon="-3.30077">
        <ele>213.5</ele>
        <time>2024-11-20T13:52:01Z</time>
      </trkpt>
      <trkpt lat="48.17714" lon="-3.30076">
        <ele>213.5</ele>
        <time>2024-11-20T13:52:02Z</time>
      </trkpt>
      <trkpt lat="48.17713" lon="-3.30076">
        <ele>213.6</ele>
        <time>2024-11-20T13:52:03Z</time>
      </trkpt>
      <trkpt lat="48.17712" lon="-3.30075">
        <ele>213.6</ele>
        <time>2024-11-20T13:52:04Z</time>
      </trkpt>
      <trkpt lat="48.17711" lon="-3.30074">
        <ele>213.7</ele>
        <time>2024-11-20T13:52:05Z</time>
      </trkpt>
      <trkpt lat="48.1771" lon="-3.30073">
        <ele>213.7</ele>
        <time>2024-11-20T13:52:06Z</time>
      </trkpt>
      <trkpt lat="48.17709" lon="-3.30072">
        <ele>213.8</ele>
        <time>2024-11-20T13:52:07Z</time>
      </trkpt>
      <trkpt lat="48.17708" lon="-3.30072">
        <ele>213.8</ele>
        <time>2024-11-20T13:52:08Z</time>
      </trkpt>
      <trkpt lat="48.17708" lon="-3.30071">
        <ele>213.9</ele>
        <time>2024-11-20T13:52:09Z</time>
      </trkpt>
      <trkpt lat="48.17707" lon="-3.30071">
        <ele>213.9</ele>
        <time>2024-11-20T13:52:10Z</time>
      </trkpt>
      <trkpt lat="48.17706" lon="-3.3007">
        <ele>213.9</ele>
        <time>2024-11-20T13:52:11Z</time>
      </trkpt>
      <trkpt lat="48.17705" lon="-3.3007">
        <ele>214</ele>
        <time>2024-11-20T13:52:12Z</time>
      </trkpt>
      <trkpt lat="48.17704" lon="-3.30069">
        <ele>214.1</ele>
        <time>2024-11-20T13:52:13Z</time>
      </trkpt>
      <trkpt lat="48.17703" lon="-3.30067">
        <ele>214.2</ele>
        <time>2024-11-20T13:52:14Z</time>
      </trkpt>
      <trkpt lat="48.17701" lon="-3.30066">
        <ele>214.2</ele>
        <time>2024-11-20T13:52:15Z</time>
      </trkpt>
      <trkpt lat="48.177" lon="-3.30065">
        <ele>214.4</ele>
        <time>2024-11-20T13:52:16Z</time>
      </trkpt>
      <trkpt lat="48.17699" lon="-3.30063">
        <ele>214.4</ele>
        <time>2024-11-20T13:52:17Z</time>
      </trkpt>
      <trkpt lat="48.17699" lon="-3.30063">
        <ele>214.5</ele>
        <time>2024-11-20T13:52:18Z</time>
      </trkpt>
      <trkpt lat="48.17698" lon="-3.30062">
        <ele>214.6</ele>
        <time>2024-11-20T13:52:19Z</time>
      </trkpt>
      <trkpt lat="48.17697" lon="-3.30061">
        <ele>214.6</ele>
        <time>2024-11-20T13:52:20Z</time>
      </trkpt>
      <trkpt lat="48.17697" lon="-3.30061">
        <ele>214.6</ele>
        <time>2024-11-20T13:52:21Z</time>
      </trkpt>
      <trkpt lat="48.17697" lon="-3.3006">
        <ele>214.7</ele>
        <time>2024-11-20T13:52:22Z</time>
      </trkpt>
      <trkpt lat="48.17696" lon="-3.3006">
        <ele>214.7</ele>
        <time>2024-11-20T13:52:23Z</time>
      </trkpt>
      <trkpt lat="48.17695" lon="-3.30059">
        <ele>214.7</ele>
        <time>2024-11-20T13:52:24Z</time>
      </trkpt>
      <trkpt lat="48.17694" lon="-3.30058">
        <ele>214.8</ele>
        <time>2024-11-20T13:52:25Z</time>
      </trkpt>
      <trkpt lat="48.17693" lon="-3.30057">
        <ele>214.8</ele>
        <time>2024-11-20T13:52:26Z</time>
      </trkpt>
      <trkpt lat="48.17691" lon="-3.30056">
        <ele>214.9</ele>
        <time>2024-11-20T13:52:27Z</time>
      </trkpt>
      <trkpt lat="48.1769" lon="-3.30054">
        <ele>215</ele>
        <time>2024-11-20T13:52:28Z</time>
      </trkpt>
      <trkpt lat="48.17688" lon="-3.30053">
        <ele>215</ele>
        <time>2024-11-20T13:52:29Z</time>
      </trkpt>
      <trkpt lat="48.17687" lon="-3.30053">
        <ele>215.1</ele>
        <time>2024-11-20T13:52:30Z</time>
      </trkpt>
      <trkpt lat="48.17686" lon="-3.30052">
        <ele>215.1</ele>
        <time>2024-11-20T13:52:31Z</time>
      </trkpt>
      <trkpt lat="48.17685" lon="-3.30051">
        <ele>215.2</ele>
        <time>2024-11-20T13:52:32Z</time>
      </trkpt>
      <trkpt lat="48.17684" lon="-3.3005">
        <ele>215.3</ele>
        <time>2024-11-20T13:52:33Z</time>
      </trkpt>
      <trkpt lat="48.17683" lon="-3.30048">
        <ele>215.4</ele>
        <time>2024-11-20T13:52:34Z</time>
      </trkpt>
      <trkpt lat="48.17682" lon="-3.30047">
        <ele>215.4</ele>
        <time>2024-11-20T13:52:35Z</time>
      </trkpt>
      <trkpt lat="48.1768" lon="-3.30046">
        <ele>215.5</ele>
        <time>2024-11-20T13:52:36Z</time>
      </trkpt>
      <trkpt lat="48.17679" lon="-3.30046">
        <ele>215.5</ele>
        <time>2024-11-20T13:52:37Z</time>
      </trkpt>
      <trkpt lat="48.17679" lon="-3.30045">
        <ele>215.6</ele>
        <time>2024-11-20T13:52:38Z</time>
      </trkpt>
      <trkpt lat="48.17677" lon="-3.30044">
        <ele>215.6</ele>
        <time>2024-11-20T13:52:39Z</time>
      </trkpt>
      <trkpt lat="48.17677" lon="-3.30043">
        <ele>215.7</ele>
        <time>2024-11-20T13:52:40Z</time>
      </trkpt>
      <trkpt lat="48.17676" lon="-3.30043">
        <ele>215.7</ele>
        <time>2024-11-20T13:52:41Z</time>
      </trkpt>
      <trkpt lat="48.17675" lon="-3.30042">
        <ele>215.7</ele>
        <time>2024-11-20T13:52:42Z</time>
      </trkpt>
      <trkpt lat="48.17673" lon="-3.30041">
        <ele>215.8</ele>
        <time>2024-11-20T13:52:43Z</time>
      </trkpt>
      <trkpt lat="48.17673" lon="-3.3004">
        <ele>215.8</ele>
        <time>2024-11-20T13:52:44Z</time>
      </trkpt>
      <trkpt lat="48.17672" lon="-3.3004">
        <ele>215.9</ele>
        <time>2024-11-20T13:52:45Z</time>
      </trkpt>
      <trkpt lat="48.17671" lon="-3.30039">
        <ele>216</ele>
        <time>2024-11-20T13:52:46Z</time>
      </trkpt>
      <trkpt lat="48.17671" lon="-3.30038">
        <ele>216.1</ele>
        <time>2024-11-20T13:52:47Z</time>
      </trkpt>
      <trkpt lat="48.1767" lon="-3.30037">
        <ele>216.2</ele>
        <time>2024-11-20T13:52:48Z</time>
      </trkpt>
      <trkpt lat="48.1767" lon="-3.30036">
        <ele>216.2</ele>
        <time>2024-11-20T13:52:49Z</time>
      </trkpt>
      <trkpt lat="48.17668" lon="-3.30035">
        <ele>216.3</ele>
        <time>2024-11-20T13:52:50Z</time>
      </trkpt>
      <trkpt lat="48.17667" lon="-3.30034">
        <ele>216.3</ele>
        <time>2024-11-20T13:52:51Z</time>
      </trkpt>
      <trkpt lat="48.17665" lon="-3.30034">
        <ele>216.3</ele>
        <time>2024-11-20T13:52:52Z</time>
      </trkpt>
      <trkpt lat="48.17664" lon="-3.30033">
        <ele>216.3</ele>
        <time>2024-11-20T13:52:53Z</time>
      </trkpt>
      <trkpt lat="48.17663" lon="-3.30032">
        <ele>216.3</ele>
        <time>2024-11-20T13:52:54Z</time>
      </trkpt>
      <trkpt lat="48.17662" lon="-3.30031">
        <ele>216.4</ele>
        <time>2024-11-20T13:52:55Z</time>
      </trkpt>
      <trkpt lat="48.17661" lon="-3.30029">
        <ele>216.5</ele>
        <time>2024-11-20T13:52:56Z</time>
      </trkpt>
      <trkpt lat="48.1766" lon="-3.30028">
        <ele>216.5</ele>
        <time>2024-11-20T13:52:57Z</time>
      </trkpt>
      <trkpt lat="48.1766" lon="-3.30027">
        <ele>216.5</ele>
        <time>2024-11-20T13:52:58Z</time>
      </trkpt>
      <trkpt lat="48.17659" lon="-3.30026">
        <ele>216.6</ele>
        <time>2024-11-20T13:52:59Z</time>
      </trkpt>
      <trkpt lat="48.17658" lon="-3.30025">
        <ele>216.6</ele>
        <time>2024-11-20T13:53:00Z</time>
      </trkpt>
      <trkpt lat="48.17658" lon="-3.30024">
        <ele>216.6</ele>
        <time>2024-11-20T13:53:01Z</time>
      </trkpt>
      <trkpt lat="48.17657" lon="-3.30023">
        <ele>216.7</ele>
        <time>2024-11-20T13:53:02Z</time>
      </trkpt>
      <trkpt lat="48.17657" lon="-3.30022">
        <ele>216.7</ele>
        <time>2024-11-20T13:53:03Z</time>
      </trkpt>
      <trkpt lat="48.17657" lon="-3.3002">
        <ele>216.8</ele>
        <time>2024-11-20T13:53:04Z</time>
      </trkpt>
      <trkpt lat="48.17657" lon="-3.30018">
        <ele>216.9</ele>
        <time>2024-11-20T13:53:05Z</time>
      </trkpt>
      <trkpt lat="48.17656" lon="-3.30018">
        <ele>217</ele>
        <time>2024-11-20T13:53:06Z</time>
      </trkpt>
      <trkpt lat="48.17656" lon="-3.30017">
        <ele>217</ele>
        <time>2024-11-20T13:53:07Z</time>
      </trkpt>
      <trkpt lat="48.17656" lon="-3.30017">
        <ele>217</ele>
        <time>2024-11-20T13:53:08Z</time>
      </trkpt>
      <trkpt lat="48.17655" lon="-3.30016">
        <ele>217</ele>
        <time>2024-11-20T13:53:09Z</time>
      </trkpt>
      <trkpt lat="48.17654" lon="-3.30015">
        <ele>217</ele>
        <time>2024-11-20T13:53:10Z</time>
      </trkpt>
      <trkpt lat="48.17653" lon="-3.30014">
        <ele>217</ele>
        <time>2024-11-20T13:53:11Z</time>
      </trkpt>
      <trkpt lat="48.17652" lon="-3.30013">
        <ele>217</ele>
        <time>2024-11-20T13:53:12Z</time>
      </trkpt>
      <trkpt lat="48.1765" lon="-3.30013">
        <ele>216.9</ele>
        <time>2024-11-20T13:53:13Z</time>
      </trkpt>
      <trkpt lat="48.17649" lon="-3.30012">
        <ele>216.9</ele>
        <time>2024-11-20T13:53:14Z</time>
      </trkpt>
      <trkpt lat="48.17648" lon="-3.30012">
        <ele>216.8</ele>
        <time>2024-11-20T13:53:15Z</time>
      </trkpt>
      <trkpt lat="48.17648" lon="-3.30012">
        <ele>216.8</ele>
        <time>2024-11-20T13:53:16Z</time>
      </trkpt>
      <trkpt lat="48.17647" lon="-3.30011">
        <ele>216.7</ele>
        <time>2024-11-20T13:53:17Z</time>
      </trkpt>
      <trkpt lat="48.17646" lon="-3.30011">
        <ele>216.8</ele>
        <time>2024-11-20T13:53:18Z</time>
      </trkpt>
      <trkpt lat="48.17646" lon="-3.3001">
        <ele>216.8</ele>
        <time>2024-11-20T13:53:19Z</time>
      </trkpt>
      <trkpt lat="48.17645" lon="-3.3001">
        <ele>216.8</ele>
        <time>2024-11-20T13:53:20Z</time>
      </trkpt>
      <trkpt lat="48.17644" lon="-3.30009">
        <ele>216.7</ele>
        <time>2024-11-20T13:53:21Z</time>
      </trkpt>
      <trkpt lat="48.17643" lon="-3.30008">
        <ele>216.7</ele>
        <time>2024-11-20T13:53:22Z</time>
      </trkpt>
      <trkpt lat="48.17642" lon="-3.30006">
        <ele>216.8</ele>
        <time>2024-11-20T13:53:23Z</time>
      </trkpt>
      <trkpt lat="48.17641" lon="-3.30005">
        <ele>216.8</ele>
        <time>2024-11-20T13:53:24Z</time>
      </trkpt>
      <trkpt lat="48.1764" lon="-3.30003">
        <ele>216.8</ele>
        <time>2024-11-20T13:53:25Z</time>
      </trkpt>
      <trkpt lat="48.17639" lon="-3.30001">
        <ele>216.9</ele>
        <time>2024-11-20T13:53:26Z</time>
      </trkpt>
      <trkpt lat="48.17638" lon="-3.3">
        <ele>217</ele>
        <time>2024-11-20T13:53:27Z</time>
      </trkpt>
      <trkpt lat="48.17637" lon="-3.29999">
        <ele>217</ele>
        <time>2024-11-20T13:53:28Z</time>
      </trkpt>
      <trkpt lat="48.17636" lon="-3.29998">
        <ele>217.1</ele>
        <time>2024-11-20T13:53:29Z</time>
      </trkpt>
      <trkpt lat="48.17635" lon="-3.29996">
        <ele>217.1</ele>
        <time>2024-11-20T13:53:30Z</time>
      </trkpt>
      <trkpt lat="48.17634" lon="-3.29995">
        <ele>217.2</ele>
        <time>2024-11-20T13:53:31Z</time>
      </trkpt>
      <trkpt lat="48.17633" lon="-3.29993">
        <ele>217.3</ele>
        <time>2024-11-20T13:53:32Z</time>
      </trkpt>
      <trkpt lat="48.17633" lon="-3.29992">
        <ele>217.4</ele>
        <time>2024-11-20T13:53:33Z</time>
      </trkpt>
      <trkpt lat="48.17632" lon="-3.29991">
        <ele>217.4</ele>
        <time>2024-11-20T13:53:34Z</time>
      </trkpt>
      <trkpt lat="48.17631" lon="-3.2999">
        <ele>217.5</ele>
        <time>2024-11-20T13:53:35Z</time>
      </trkpt>
      <trkpt lat="48.1763" lon="-3.29989">
        <ele>217.5</ele>
        <time>2024-11-20T13:53:36Z</time>
      </trkpt>
      <trkpt lat="48.17629" lon="-3.29988">
        <ele>217.5</ele>
        <time>2024-11-20T13:53:37Z</time>
      </trkpt>
      <trkpt lat="48.17628" lon="-3.29987">
        <ele>217.5</ele>
        <time>2024-11-20T13:53:38Z</time>
      </trkpt>
      <trkpt lat="48.17627" lon="-3.29986">
        <ele>217.6</ele>
        <time>2024-11-20T13:53:39Z</time>
      </trkpt>
      <trkpt lat="48.17626" lon="-3.29985">
        <ele>217.6</ele>
        <time>2024-11-20T13:53:40Z</time>
      </trkpt>
      <trkpt lat="48.17625" lon="-3.29984">
        <ele>217.6</ele>
        <time>2024-11-20T13:53:41Z</time>
      </trkpt>
      <trkpt lat="48.17624" lon="-3.29983">
        <ele>217.7</ele>
        <time>2024-11-20T13:53:42Z</time>
      </trkpt>
      <trkpt lat="48.17623" lon="-3.29982">
        <ele>217.7</ele>
        <time>2024-11-20T13:53:43Z</time>
      </trkpt>
      <trkpt lat="48.17622" lon="-3.29981">
        <ele>217.8</ele>
        <time>2024-11-20T13:53:44Z</time>
      </trkpt>
      <trkpt lat="48.17622" lon="-3.29979">
        <ele>217.9</ele>
        <time>2024-11-20T13:53:45Z</time>
      </trkpt>
      <trkpt lat="48.17621" lon="-3.29978">
        <ele>217.9</ele>
        <time>2024-11-20T13:53:46Z</time>
      </trkpt>
      <trkpt lat="48.1762" lon="-3.29977">
        <ele>218</ele>
        <time>2024-11-20T13:53:47Z</time>
      </trkpt>
      <trkpt lat="48.17619" lon="-3.29975">
        <ele>218.1</ele>
        <time>2024-11-20T13:53:48Z</time>
      </trkpt>
      <trkpt lat="48.17618" lon="-3.29974">
        <ele>218.1</ele>
        <time>2024-11-20T13:53:49Z</time>
      </trkpt>
      <trkpt lat="48.17618" lon="-3.29973">
        <ele>218.2</ele>
        <time>2024-11-20T13:53:50Z</time>
      </trkpt>
      <trkpt lat="48.17617" lon="-3.29972">
        <ele>218.3</ele>
        <time>2024-11-20T13:53:51Z</time>
      </trkpt>
      <trkpt lat="48.17616" lon="-3.29971">
        <ele>218.4</ele>
        <time>2024-11-20T13:53:52Z</time>
      </trkpt>
      <trkpt lat="48.17615" lon="-3.29969">
        <ele>218.5</ele>
        <time>2024-11-20T13:53:53Z</time>
      </trkpt>
      <trkpt lat="48.17614" lon="-3.29968">
        <ele>218.6</ele>
        <time>2024-11-20T13:53:54Z</time>
      </trkpt>
      <trkpt lat="48.17614" lon="-3.29967">
        <ele>218.6</ele>
        <time>2024-11-20T13:53:55Z</time>
      </trkpt>
      <trkpt lat="48.17613" lon="-3.29966">
        <ele>218.7</ele>
        <time>2024-11-20T13:53:56Z</time>
      </trkpt>
      <trkpt lat="48.17613" lon="-3.29965">
        <ele>218.8</ele>
        <time>2024-11-20T13:53:57Z</time>
      </trkpt>
      <trkpt lat="48.17612" lon="-3.29964">
        <ele>218.9</ele>
        <time>2024-11-20T13:53:58Z</time>
      </trkpt>
      <trkpt lat="48.17611" lon="-3.29963">
        <ele>219</ele>
        <time>2024-11-20T13:53:59Z</time>
      </trkpt>
      <trkpt lat="48.1761" lon="-3.29962">
        <ele>219</ele>
        <time>2024-11-20T13:54:00Z</time>
      </trkpt>
      <trkpt lat="48.17609" lon="-3.29961">
        <ele>219.1</ele>
        <time>2024-11-20T13:54:01Z</time>
      </trkpt>
      <trkpt lat="48.17608" lon="-3.2996">
        <ele>219.2</ele>
        <time>2024-11-20T13:54:02Z</time>
      </trkpt>
      <trkpt lat="48.17606" lon="-3.29959">
        <ele>219.3</ele>
        <time>2024-11-20T13:54:03Z</time>
      </trkpt>
      <trkpt lat="48.17606" lon="-3.29958">
        <ele>219.4</ele>
        <time>2024-11-20T13:54:04Z</time>
      </trkpt>
      <trkpt lat="48.17605" lon="-3.29957">
        <ele>219.4</ele>
        <time>2024-11-20T13:54:05Z</time>
      </trkpt>
      <trkpt lat="48.17604" lon="-3.29957">
        <ele>219.4</ele>
        <time>2024-11-20T13:54:06Z</time>
      </trkpt>
      <trkpt lat="48.17603" lon="-3.29956">
        <ele>219.5</ele>
        <time>2024-11-20T13:54:07Z</time>
      </trkpt>
      <trkpt lat="48.17602" lon="-3.29955">
        <ele>219.6</ele>
        <time>2024-11-20T13:54:08Z</time>
      </trkpt>
      <trkpt lat="48.17602" lon="-3.29954">
        <ele>219.7</ele>
        <time>2024-11-20T13:54:09Z</time>
      </trkpt>
      <trkpt lat="48.17601" lon="-3.29953">
        <ele>219.8</ele>
        <time>2024-11-20T13:54:10Z</time>
      </trkpt>
      <trkpt lat="48.176" lon="-3.29952">
        <ele>219.8</ele>
        <time>2024-11-20T13:54:11Z</time>
      </trkpt>
      <trkpt lat="48.17599" lon="-3.2995">
        <ele>219.9</ele>
        <time>2024-11-20T13:54:12Z</time>
      </trkpt>
      <trkpt lat="48.17598" lon="-3.29949">
        <ele>220.1</ele>
        <time>2024-11-20T13:54:13Z</time>
      </trkpt>
      <trkpt lat="48.17597" lon="-3.29947">
        <ele>220.2</ele>
        <time>2024-11-20T13:54:14Z</time>
      </trkpt>
      <trkpt lat="48.17596" lon="-3.29946">
        <ele>220.3</ele>
        <time>2024-11-20T13:54:15Z</time>
      </trkpt>
      <trkpt lat="48.17596" lon="-3.29945">
        <ele>220.4</ele>
        <time>2024-11-20T13:54:16Z</time>
      </trkpt>
      <trkpt lat="48.17595" lon="-3.29944">
        <ele>220.5</ele>
        <time>2024-11-20T13:54:17Z</time>
      </trkpt>
      <trkpt lat="48.17594" lon="-3.29943">
        <ele>220.6</ele>
        <time>2024-11-20T13:54:18Z</time>
      </trkpt>
      <trkpt lat="48.17594" lon="-3.29942">
        <ele>220.7</ele>
        <time>2024-11-20T13:54:19Z</time>
      </trkpt>
      <trkpt lat="48.17593" lon="-3.2994">
        <ele>220.8</ele>
        <time>2024-11-20T13:54:20Z</time>
      </trkpt>
      <trkpt lat="48.17592" lon="-3.29939">
        <ele>220.9</ele>
        <time>2024-11-20T13:54:21Z</time>
      </trkpt>
      <trkpt lat="48.17592" lon="-3.29938">
        <ele>221</ele>
        <time>2024-11-20T13:54:22Z</time>
      </trkpt>
      <trkpt lat="48.17592" lon="-3.29937">
        <ele>221.1</ele>
        <time>2024-11-20T13:54:23Z</time>
      </trkpt>
      <trkpt lat="48.17592" lon="-3.29936">
        <ele>221.2</ele>
        <time>2024-11-20T13:54:24Z</time>
      </trkpt>
      <trkpt lat="48.17591" lon="-3.29935">
        <ele>221.3</ele>
        <time>2024-11-20T13:54:25Z</time>
      </trkpt>
      <trkpt lat="48.17591" lon="-3.29934">
        <ele>221.4</ele>
        <time>2024-11-20T13:54:26Z</time>
      </trkpt>
      <trkpt lat="48.1759" lon="-3.29932">
        <ele>221.5</ele>
        <time>2024-11-20T13:54:27Z</time>
      </trkpt>
      <trkpt lat="48.17589" lon="-3.29931">
        <ele>221.6</ele>
        <time>2024-11-20T13:54:28Z</time>
      </trkpt>
      <trkpt lat="48.17588" lon="-3.29931">
        <ele>221.7</ele>
        <time>2024-11-20T13:54:29Z</time>
      </trkpt>
      <trkpt lat="48.17587" lon="-3.2993">
        <ele>221.7</ele>
        <time>2024-11-20T13:54:30Z</time>
      </trkpt>
      <trkpt lat="48.17586" lon="-3.29929">
        <ele>221.8</ele>
        <time>2024-11-20T13:54:31Z</time>
      </trkpt>
      <trkpt lat="48.17585" lon="-3.29928">
        <ele>221.9</ele>
        <time>2024-11-20T13:54:32Z</time>
      </trkpt>
      <trkpt lat="48.17584" lon="-3.29927">
        <ele>222</ele>
        <time>2024-11-20T13:54:33Z</time>
      </trkpt>
      <trkpt lat="48.17583" lon="-3.29925">
        <ele>222.1</ele>
        <time>2024-11-20T13:54:34Z</time>
      </trkpt>
      <trkpt lat="48.17582" lon="-3.29924">
        <ele>222.2</ele>
        <time>2024-11-20T13:54:35Z</time>
      </trkpt>
      <trkpt lat="48.17581" lon="-3.29922">
        <ele>222.3</ele>
        <time>2024-11-20T13:54:36Z</time>
      </trkpt>
      <trkpt lat="48.1758" lon="-3.29921">
        <ele>222.4</ele>
        <time>2024-11-20T13:54:37Z</time>
      </trkpt>
      <trkpt lat="48.17579" lon="-3.29919">
        <ele>222.6</ele>
        <time>2024-11-20T13:54:38Z</time>
      </trkpt>
      <trkpt lat="48.17578" lon="-3.29917">
        <ele>222.7</ele>
        <time>2024-11-20T13:54:39Z</time>
      </trkpt>
      <trkpt lat="48.17577" lon="-3.29916">
        <ele>222.9</ele>
        <time>2024-11-20T13:54:40Z</time>
      </trkpt>
      <trkpt lat="48.17576" lon="-3.29915">
        <ele>223</ele>
        <time>2024-11-20T13:54:41Z</time>
      </trkpt>
      <trkpt lat="48.17575" lon="-3.29914">
        <ele>223</ele>
        <time>2024-11-20T13:54:42Z</time>
      </trkpt>
      <trkpt lat="48.17574" lon="-3.29913">
        <ele>223.1</ele>
        <time>2024-11-20T13:54:43Z</time>
      </trkpt>
      <trkpt lat="48.17574" lon="-3.29912">
        <ele>223.2</ele>
        <time>2024-11-20T13:54:44Z</time>
      </trkpt>
      <trkpt lat="48.17573" lon="-3.29911">
        <ele>223.3</ele>
        <time>2024-11-20T13:54:45Z</time>
      </trkpt>
      <trkpt lat="48.17572" lon="-3.29909">
        <ele>223.4</ele>
        <time>2024-11-20T13:54:46Z</time>
      </trkpt>
      <trkpt lat="48.17571" lon="-3.29908">
        <ele>223.5</ele>
        <time>2024-11-20T13:54:47Z</time>
      </trkpt>
      <trkpt lat="48.1757" lon="-3.29906">
        <ele>223.7</ele>
        <time>2024-11-20T13:54:48Z</time>
      </trkpt>
      <trkpt lat="48.1757" lon="-3.29905">
        <ele>223.8</ele>
        <time>2024-11-20T13:54:49Z</time>
      </trkpt>
      <trkpt lat="48.17569" lon="-3.29904">
        <ele>223.9</ele>
        <time>2024-11-20T13:54:50Z</time>
      </trkpt>
      <trkpt lat="48.17568" lon="-3.29903">
        <ele>223.9</ele>
        <time>2024-11-20T13:54:51Z</time>
      </trkpt>
      <trkpt lat="48.17568" lon="-3.29902">
        <ele>224</ele>
        <time>2024-11-20T13:54:52Z</time>
      </trkpt>
      <trkpt lat="48.17567" lon="-3.29902">
        <ele>224</ele>
        <time>2024-11-20T13:54:53Z</time>
      </trkpt>
      <trkpt lat="48.17566" lon="-3.29901">
        <ele>224.1</ele>
        <time>2024-11-20T13:54:54Z</time>
      </trkpt>
      <trkpt lat="48.17565" lon="-3.299">
        <ele>224.2</ele>
        <time>2024-11-20T13:54:55Z</time>
      </trkpt>
      <trkpt lat="48.17565" lon="-3.29898">
        <ele>224.3</ele>
        <time>2024-11-20T13:54:56Z</time>
      </trkpt>
      <trkpt lat="48.17564" lon="-3.29897">
        <ele>224.4</ele>
        <time>2024-11-20T13:54:57Z</time>
      </trkpt>
      <trkpt lat="48.17563" lon="-3.29896">
        <ele>224.5</ele>
        <time>2024-11-20T13:54:58Z</time>
      </trkpt>
      <trkpt lat="48.17562" lon="-3.29894">
        <ele>224.7</ele>
        <time>2024-11-20T13:54:59Z</time>
      </trkpt>
      <trkpt lat="48.17561" lon="-3.29893">
        <ele>224.7</ele>
        <time>2024-11-20T13:55:00Z</time>
      </trkpt>
      <trkpt lat="48.17561" lon="-3.29892">
        <ele>224.8</ele>
        <time>2024-11-20T13:55:01Z</time>
      </trkpt>
      <trkpt lat="48.1756" lon="-3.29892">
        <ele>224.9</ele>
        <time>2024-11-20T13:55:02Z</time>
      </trkpt>
      <trkpt lat="48.17559" lon="-3.29891">
        <ele>224.9</ele>
        <time>2024-11-20T13:55:03Z</time>
      </trkpt>
      <trkpt lat="48.17558" lon="-3.2989">
        <ele>225</ele>
        <time>2024-11-20T13:55:04Z</time>
      </trkpt>
      <trkpt lat="48.17557" lon="-3.29889">
        <ele>225.1</ele>
        <time>2024-11-20T13:55:05Z</time>
      </trkpt>
      <trkpt lat="48.17557" lon="-3.29888">
        <ele>225.2</ele>
        <time>2024-11-20T13:55:06Z</time>
      </trkpt>
      <trkpt lat="48.17556" lon="-3.29887">
        <ele>225.2</ele>
        <time>2024-11-20T13:55:07Z</time>
      </trkpt>
      <trkpt lat="48.17555" lon="-3.29886">
        <ele>225.3</ele>
        <time>2024-11-20T13:55:08Z</time>
      </trkpt>
      <trkpt lat="48.17554" lon="-3.29885">
        <ele>225.4</ele>
        <time>2024-11-20T13:55:09Z</time>
      </trkpt>
      <trkpt lat="48.17553" lon="-3.29883">
        <ele>225.5</ele>
        <time>2024-11-20T13:55:10Z</time>
      </trkpt>
      <trkpt lat="48.17552" lon="-3.29882">
        <ele>225.7</ele>
        <time>2024-11-20T13:55:11Z</time>
      </trkpt>
      <trkpt lat="48.1755" lon="-3.2988">
        <ele>225.8</ele>
        <time>2024-11-20T13:55:12Z</time>
      </trkpt>
      <trkpt lat="48.17549" lon="-3.29879">
        <ele>225.9</ele>
        <time>2024-11-20T13:55:13Z</time>
      </trkpt>
      <trkpt lat="48.17548" lon="-3.29878">
        <ele>225.9</ele>
        <time>2024-11-20T13:55:14Z</time>
      </trkpt>
      <trkpt lat="48.17547" lon="-3.29877">
        <ele>226</ele>
        <time>2024-11-20T13:55:15Z</time>
      </trkpt>
      <trkpt lat="48.17546" lon="-3.29876">
        <ele>226</ele>
        <time>2024-11-20T13:55:16Z</time>
      </trkpt>
      <trkpt lat="48.17545" lon="-3.29875">
        <ele>226.1</ele>
        <time>2024-11-20T13:55:17Z</time>
      </trkpt>
      <trkpt lat="48.17544" lon="-3.29874">
        <ele>226.3</ele>
        <time>2024-11-20T13:55:18Z</time>
      </trkpt>
      <trkpt lat="48.17544" lon="-3.29872">
        <ele>226.4</ele>
        <time>2024-11-20T13:55:19Z</time>
      </trkpt>
      <trkpt lat="48.17543" lon="-3.29872">
        <ele>226.4</ele>
        <time>2024-11-20T13:55:20Z</time>
      </trkpt>
      <trkpt lat="48.17543" lon="-3.29871">
        <ele>226.5</ele>
        <time>2024-11-20T13:55:21Z</time>
      </trkpt>
      <trkpt lat="48.17542" lon="-3.2987">
        <ele>226.5</ele>
        <time>2024-11-20T13:55:22Z</time>
      </trkpt>
      <trkpt lat="48.1754" lon="-3.29869">
        <ele>226.6</ele>
        <time>2024-11-20T13:55:23Z</time>
      </trkpt>
      <trkpt lat="48.1754" lon="-3.29868">
        <ele>226.6</ele>
        <time>2024-11-20T13:55:24Z</time>
      </trkpt>
      <trkpt lat="48.17539" lon="-3.29867">
        <ele>226.7</ele>
        <time>2024-11-20T13:55:25Z</time>
      </trkpt>
      <trkpt lat="48.17538" lon="-3.29866">
        <ele>226.8</ele>
        <time>2024-11-20T13:55:26Z</time>
      </trkpt>
      <trkpt lat="48.17537" lon="-3.29865">
        <ele>226.9</ele>
        <time>2024-11-20T13:55:27Z</time>
      </trkpt>
      <trkpt lat="48.17536" lon="-3.29863">
        <ele>227</ele>
        <time>2024-11-20T13:55:28Z</time>
      </trkpt>
      <trkpt lat="48.17535" lon="-3.29862">
        <ele>227.1</ele>
        <time>2024-11-20T13:55:29Z</time>
      </trkpt>
      <trkpt lat="48.17534" lon="-3.29861">
        <ele>227.3</ele>
        <time>2024-11-20T13:55:30Z</time>
      </trkpt>
      <trkpt lat="48.17533" lon="-3.2986">
        <ele>227.4</ele>
        <time>2024-11-20T13:55:31Z</time>
      </trkpt>
      <trkpt lat="48.17533" lon="-3.29858">
        <ele>227.6</ele>
        <time>2024-11-20T13:55:32Z</time>
      </trkpt>
      <trkpt lat="48.17532" lon="-3.29857">
        <ele>227.7</ele>
        <time>2024-11-20T13:55:33Z</time>
      </trkpt>
      <trkpt lat="48.17531" lon="-3.29855">
        <ele>227.9</ele>
        <time>2024-11-20T13:55:34Z</time>
      </trkpt>
      <trkpt lat="48.1753" lon="-3.29854">
        <ele>228.1</ele>
        <time>2024-11-20T13:55:35Z</time>
      </trkpt>
      <trkpt lat="48.17529" lon="-3.29853">
        <ele>228.2</ele>
        <time>2024-11-20T13:55:36Z</time>
      </trkpt>
      <trkpt lat="48.17528" lon="-3.29852">
        <ele>228.4</ele>
        <time>2024-11-20T13:55:37Z</time>
      </trkpt>
      <trkpt lat="48.17528" lon="-3.2985">
        <ele>228.5</ele>
        <time>2024-11-20T13:55:38Z</time>
      </trkpt>
      <trkpt lat="48.17527" lon="-3.29849">
        <ele>228.6</ele>
        <time>2024-11-20T13:55:39Z</time>
      </trkpt>
      <trkpt lat="48.17526" lon="-3.29849">
        <ele>228.7</ele>
        <time>2024-11-20T13:55:40Z</time>
      </trkpt>
      <trkpt lat="48.17526" lon="-3.29848">
        <ele>228.8</ele>
        <time>2024-11-20T13:55:41Z</time>
      </trkpt>
      <trkpt lat="48.17525" lon="-3.29847">
        <ele>228.8</ele>
        <time>2024-11-20T13:55:42Z</time>
      </trkpt>
      <trkpt lat="48.17525" lon="-3.29846">
        <ele>228.9</ele>
        <time>2024-11-20T13:55:43Z</time>
      </trkpt>
      <trkpt lat="48.17524" lon="-3.29845">
        <ele>229</ele>
        <time>2024-11-20T13:55:44Z</time>
      </trkpt>
      <trkpt lat="48.17523" lon="-3.29844">
        <ele>229.2</ele>
        <time>2024-11-20T13:55:45Z</time>
      </trkpt>
      <trkpt lat="48.17523" lon="-3.29843">
        <ele>229.3</ele>
        <time>2024-11-20T13:55:46Z</time>
      </trkpt>
      <trkpt lat="48.17522" lon="-3.29841">
        <ele>229.4</ele>
        <time>2024-11-20T13:55:47Z</time>
      </trkpt>
      <trkpt lat="48.17522" lon="-3.2984">
        <ele>229.5</ele>
        <time>2024-11-20T13:55:48Z</time>
      </trkpt>
      <trkpt lat="48.17521" lon="-3.2984">
        <ele>229.6</ele>
        <time>2024-11-20T13:55:49Z</time>
      </trkpt>
      <trkpt lat="48.1752" lon="-3.29839">
        <ele>229.7</ele>
        <time>2024-11-20T13:55:50Z</time>
      </trkpt>
      <trkpt lat="48.17519" lon="-3.29838">
        <ele>229.7</ele>
        <time>2024-11-20T13:55:51Z</time>
      </trkpt>
      <trkpt lat="48.17519" lon="-3.29838">
        <ele>229.7</ele>
        <time>2024-11-20T13:55:52Z</time>
      </trkpt>
      <trkpt lat="48.17518" lon="-3.29837">
        <ele>229.8</ele>
        <time>2024-11-20T13:55:53Z</time>
      </trkpt>
      <trkpt lat="48.17517" lon="-3.29836">
        <ele>229.9</ele>
        <time>2024-11-20T13:55:54Z</time>
      </trkpt>
      <trkpt lat="48.17517" lon="-3.29833">
        <ele>230.2</ele>
        <time>2024-11-20T13:55:55Z</time>
      </trkpt>
      <trkpt lat="48.17517" lon="-3.29831">
        <ele>230.5</ele>
        <time>2024-11-20T13:55:56Z</time>
      </trkpt>
      <trkpt lat="48.17516" lon="-3.29829">
        <ele>230.7</ele>
        <time>2024-11-20T13:55:57Z</time>
      </trkpt>
      <trkpt lat="48.17516" lon="-3.29827">
        <ele>230.8</ele>
        <time>2024-11-20T13:55:58Z</time>
      </trkpt>
      <trkpt lat="48.17515" lon="-3.29826">
        <ele>230.9</ele>
        <time>2024-11-20T13:55:59Z</time>
      </trkpt>
      <trkpt lat="48.17514" lon="-3.29825">
        <ele>230.9</ele>
        <time>2024-11-20T13:56:00Z</time>
      </trkpt>
      <trkpt lat="48.17514" lon="-3.29824">
        <ele>231</ele>
        <time>2024-11-20T13:56:01Z</time>
      </trkpt>
      <trkpt lat="48.17513" lon="-3.29823">
        <ele>231</ele>
        <time>2024-11-20T13:56:02Z</time>
      </trkpt>
      <trkpt lat="48.17513" lon="-3.29822">
        <ele>231.1</ele>
        <time>2024-11-20T13:56:03Z</time>
      </trkpt>
      <trkpt lat="48.17513" lon="-3.29822">
        <ele>231.2</ele>
        <time>2024-11-20T13:56:04Z</time>
      </trkpt>
      <trkpt lat="48.17513" lon="-3.29821">
        <ele>231.3</ele>
        <time>2024-11-20T13:56:05Z</time>
      </trkpt>
      <trkpt lat="48.17513" lon="-3.29821">
        <ele>231.3</ele>
        <time>2024-11-20T13:56:06Z</time>
      </trkpt>
      <trkpt lat="48.17513" lon="-3.29821">
        <ele>231.3</ele>
        <time>2024-11-20T13:56:07Z</time>
      </trkpt>
      <trkpt lat="48.17513" lon="-3.2982">
        <ele>231.4</ele>
        <time>2024-11-20T13:56:08Z</time>
      </trkpt>
      <trkpt lat="48.17513" lon="-3.2982">
        <ele>231.4</ele>
        <time>2024-11-20T13:56:09Z</time>
      </trkpt>
      <trkpt lat="48.17513" lon="-3.2982">
        <ele>231.4</ele>
        <time>2024-11-20T13:56:10Z</time>
      </trkpt>
      <trkpt lat="48.17513" lon="-3.2982">
        <ele>231.4</ele>
        <time>2024-11-20T13:56:11Z</time>
      </trkpt>
      <trkpt lat="48.17512" lon="-3.2982">
        <ele>231.4</ele>
        <time>2024-11-20T13:56:12Z</time>
      </trkpt>
      <trkpt lat="48.17512" lon="-3.29819">
        <ele>231.4</ele>
        <time>2024-11-20T13:56:13Z</time>
      </trkpt>
      <trkpt lat="48.17511" lon="-3.29818">
        <ele>231.5</ele>
        <time>2024-11-20T13:56:14Z</time>
      </trkpt>
      <trkpt lat="48.17511" lon="-3.29816">
        <ele>231.6</ele>
        <time>2024-11-20T13:56:15Z</time>
      </trkpt>
      <trkpt lat="48.1751" lon="-3.29815">
        <ele>231.7</ele>
        <time>2024-11-20T13:56:16Z</time>
      </trkpt>
      <trkpt lat="48.1751" lon="-3.29814">
        <ele>231.7</ele>
        <time>2024-11-20T13:56:17Z</time>
      </trkpt>
      <trkpt lat="48.17509" lon="-3.29813">
        <ele>231.8</ele>
        <time>2024-11-20T13:56:18Z</time>
      </trkpt>
      <trkpt lat="48.17508" lon="-3.29813">
        <ele>231.8</ele>
        <time>2024-11-20T13:56:19Z</time>
      </trkpt>
      <trkpt lat="48.17507" lon="-3.29812">
        <ele>231.8</ele>
        <time>2024-11-20T13:56:20Z</time>
      </trkpt>
      <trkpt lat="48.17506" lon="-3.29811">
        <ele>231.9</ele>
        <time>2024-11-20T13:56:21Z</time>
      </trkpt>
      <trkpt lat="48.17505" lon="-3.2981">
        <ele>231.9</ele>
        <time>2024-11-20T13:56:22Z</time>
      </trkpt>
      <trkpt lat="48.17504" lon="-3.29809">
        <ele>231.9</ele>
        <time>2024-11-20T13:56:23Z</time>
      </trkpt>
      <trkpt lat="48.17503" lon="-3.29809">
        <ele>231.9</ele>
        <time>2024-11-20T13:56:24Z</time>
      </trkpt>
      <trkpt lat="48.17503" lon="-3.29808">
        <ele>231.9</ele>
        <time>2024-11-20T13:56:25Z</time>
      </trkpt>
      <trkpt lat="48.17502" lon="-3.29807">
        <ele>231.9</ele>
        <time>2024-11-20T13:56:26Z</time>
      </trkpt>
      <trkpt lat="48.17501" lon="-3.29806">
        <ele>232</ele>
        <time>2024-11-20T13:56:27Z</time>
      </trkpt>
      <trkpt lat="48.175" lon="-3.29805">
        <ele>232.1</ele>
        <time>2024-11-20T13:56:28Z</time>
      </trkpt>
      <trkpt lat="48.175" lon="-3.29804">
        <ele>232.1</ele>
        <time>2024-11-20T13:56:29Z</time>
      </trkpt>
      <trkpt lat="48.17499" lon="-3.29803">
        <ele>232.2</ele>
        <time>2024-11-20T13:56:30Z</time>
      </trkpt>
      <trkpt lat="48.17498" lon="-3.29802">
        <ele>232.2</ele>
        <time>2024-11-20T13:56:31Z</time>
      </trkpt>
      <trkpt lat="48.17497" lon="-3.29801">
        <ele>232.2</ele>
        <time>2024-11-20T13:56:32Z</time>
      </trkpt>
      <trkpt lat="48.17496" lon="-3.29801">
        <ele>232.2</ele>
        <time>2024-11-20T13:56:33Z</time>
      </trkpt>
      <trkpt lat="48.17495" lon="-3.298">
        <ele>232.2</ele>
        <time>2024-11-20T13:56:34Z</time>
      </trkpt>
      <trkpt lat="48.17494" lon="-3.29799">
        <ele>232.3</ele>
        <time>2024-11-20T13:56:35Z</time>
      </trkpt>
      <trkpt lat="48.17494" lon="-3.29798">
        <ele>232.3</ele>
        <time>2024-11-20T13:56:36Z</time>
      </trkpt>
      <trkpt lat="48.17493" lon="-3.29797">
        <ele>232.4</ele>
        <time>2024-11-20T13:56:37Z</time>
      </trkpt>
      <trkpt lat="48.17493" lon="-3.29796">
        <ele>232.4</ele>
        <time>2024-11-20T13:56:38Z</time>
      </trkpt>
      <trkpt lat="48.17492" lon="-3.29796">
        <ele>232.4</ele>
        <time>2024-11-20T13:56:39Z</time>
      </trkpt>
      <trkpt lat="48.17492" lon="-3.29795">
        <ele>232.5</ele>
        <time>2024-11-20T13:56:40Z</time>
      </trkpt>
      <trkpt lat="48.17491" lon="-3.29793">
        <ele>232.5</ele>
        <time>2024-11-20T13:56:41Z</time>
      </trkpt>
      <trkpt lat="48.1749" lon="-3.29792">
        <ele>232.6</ele>
        <time>2024-11-20T13:56:42Z</time>
      </trkpt>
      <trkpt lat="48.17489" lon="-3.29791">
        <ele>232.6</ele>
        <time>2024-11-20T13:56:43Z</time>
      </trkpt>
      <trkpt lat="48.17488" lon="-3.2979">
        <ele>232.7</ele>
        <time>2024-11-20T13:56:44Z</time>
      </trkpt>
      <trkpt lat="48.17487" lon="-3.29789">
        <ele>232.7</ele>
        <time>2024-11-20T13:56:45Z</time>
      </trkpt>
      <trkpt lat="48.17486" lon="-3.29789">
        <ele>232.7</ele>
        <time>2024-11-20T13:56:46Z</time>
      </trkpt>
      <trkpt lat="48.17485" lon="-3.29788">
        <ele>232.7</ele>
        <time>2024-11-20T13:56:47Z</time>
      </trkpt>
      <trkpt lat="48.17484" lon="-3.29787">
        <ele>232.8</ele>
        <time>2024-11-20T13:56:48Z</time>
      </trkpt>
      <trkpt lat="48.17484" lon="-3.29786">
        <ele>232.8</ele>
        <time>2024-11-20T13:56:49Z</time>
      </trkpt>
      <trkpt lat="48.17484" lon="-3.29786">
        <ele>232.8</ele>
        <time>2024-11-20T13:56:50Z</time>
      </trkpt>
      <trkpt lat="48.17484" lon="-3.29786">
        <ele>232.8</ele>
        <time>2024-11-20T13:56:51Z</time>
      </trkpt>
      <trkpt lat="48.17484" lon="-3.29786">
        <ele>232.9</ele>
        <time>2024-11-20T13:56:52Z</time>
      </trkpt>
      <trkpt lat="48.17484" lon="-3.29785">
        <ele>232.9</ele>
        <time>2024-11-20T13:56:53Z</time>
      </trkpt>
      <trkpt lat="48.17484" lon="-3.29785">
        <ele>232.9</ele>
        <time>2024-11-20T13:56:54Z</time>
      </trkpt>
      <trkpt lat="48.17484" lon="-3.29785">
        <ele>232.9</ele>
        <time>2024-11-20T13:56:55Z</time>
      </trkpt>
      <trkpt lat="48.17484" lon="-3.29784">
        <ele>232.9</ele>
        <time>2024-11-20T13:56:56Z</time>
      </trkpt>
      <trkpt lat="48.17484" lon="-3.29784">
        <ele>233</ele>
        <time>2024-11-20T13:56:57Z</time>
      </trkpt>
      <trkpt lat="48.17483" lon="-3.29784">
        <ele>232.9</ele>
        <time>2024-11-20T13:56:58Z</time>
      </trkpt>
      <trkpt lat="48.17483" lon="-3.29785">
        <ele>232.9</ele>
        <time>2024-11-20T13:56:59Z</time>
      </trkpt>
      <trkpt lat="48.17484" lon="-3.29786">
        <ele>232.8</ele>
        <time>2024-11-20T13:57:00Z</time>
      </trkpt>
      <trkpt lat="48.17484" lon="-3.29786">
        <ele>232.9</ele>
        <time>2024-11-20T13:57:01Z</time>
      </trkpt>
      <trkpt lat="48.17486" lon="-3.29785">
        <ele>232.9</ele>
        <time>2024-11-20T13:57:02Z</time>
      </trkpt>
      <trkpt lat="48.17487" lon="-3.29785">
        <ele>233</ele>
        <time>2024-11-20T13:57:03Z</time>
      </trkpt>
      <trkpt lat="48.17488" lon="-3.29785">
        <ele>233.1</ele>
        <time>2024-11-20T13:57:04Z</time>
      </trkpt>
      <trkpt lat="48.17489" lon="-3.29784">
        <ele>233.1</ele>
        <time>2024-11-20T13:57:05Z</time>
      </trkpt>
      <trkpt lat="48.1749" lon="-3.29784">
        <ele>233.2</ele>
        <time>2024-11-20T13:57:06Z</time>
      </trkpt>
      <trkpt lat="48.1749" lon="-3.29784">
        <ele>233.2</ele>
        <time>2024-11-20T13:57:07Z</time>
      </trkpt>
      <trkpt lat="48.1749" lon="-3.29784">
        <ele>233.2</ele>
        <time>2024-11-20T13:57:08Z</time>
      </trkpt>
      <trkpt lat="48.1749" lon="-3.29784">
        <ele>233.2</ele>
        <time>2024-11-20T13:57:09Z</time>
      </trkpt>
      <trkpt lat="48.1749" lon="-3.29783">
        <ele>233.2</ele>
        <time>2024-11-20T13:57:10Z</time>
      </trkpt>
      <trkpt lat="48.1749" lon="-3.29783">
        <ele>233.2</ele>
        <time>2024-11-20T13:57:11Z</time>
      </trkpt>
      <trkpt lat="48.1749" lon="-3.29783">
        <ele>233.2</ele>
        <time>2024-11-20T13:57:12Z</time>
      </trkpt>
      <trkpt lat="48.1749" lon="-3.29783">
        <ele>233.2</ele>
        <time>2024-11-20T13:57:13Z</time>
      </trkpt>
      <trkpt lat="48.1749" lon="-3.29783">
        <ele>233.2</ele>
        <time>2024-11-20T13:57:14Z</time>
      </trkpt>
      <trkpt lat="48.1749" lon="-3.29784">
        <ele>233.2</ele>
        <time>2024-11-20T13:57:15Z</time>
      </trkpt>
      <trkpt lat="48.1749" lon="-3.29784">
        <ele>233.2</ele>
        <time>2024-11-20T13:57:16Z</time>
      </trkpt>
      <trkpt lat="48.1749" lon="-3.29784">
        <ele>233.2</ele>
        <time>2024-11-20T13:57:17Z</time>
      </trkpt>
      <trkpt lat="48.1749" lon="-3.29784">
        <ele>233.2</ele>
        <time>2024-11-20T13:57:18Z</time>
      </trkpt>
      <trkpt lat="48.1749" lon="-3.29783">
        <ele>233.2</ele>
        <time>2024-11-20T13:57:19Z</time>
      </trkpt>
      <trkpt lat="48.1749" lon="-3.29783">
        <ele>233.2</ele>
        <time>2024-11-20T13:57:20Z</time>
      </trkpt>
      <trkpt lat="48.1749" lon="-3.29783">
        <ele>233.3</ele>
        <time>2024-11-20T13:57:21Z</time>
      </trkpt>
      <trkpt lat="48.1749" lon="-3.29783">
        <ele>233.3</ele>
        <time>2024-11-20T13:57:22Z</time>
      </trkpt>
      <trkpt lat="48.1749" lon="-3.29783">
        <ele>233.3</ele>
        <time>2024-11-20T13:57:23Z</time>
      </trkpt>
      <trkpt lat="48.17491" lon="-3.29783">
        <ele>233.3</ele>
        <time>2024-11-20T13:57:24Z</time>
      </trkpt>
      <trkpt lat="48.17491" lon="-3.29783">
        <ele>233.3</ele>
        <time>2024-11-20T13:57:25Z</time>
      </trkpt>
      <trkpt lat="48.17491" lon="-3.29783">
        <ele>233.3</ele>
        <time>2024-11-20T13:57:26Z</time>
      </trkpt>
      <trkpt lat="48.17491" lon="-3.29783">
        <ele>233.3</ele>
        <time>2024-11-20T13:57:27Z</time>
      </trkpt>
      <trkpt lat="48.17491" lon="-3.29783">
        <ele>233.3</ele>
        <time>2024-11-20T13:57:28Z</time>
      </trkpt>
      <trkpt lat="48.17491" lon="-3.29783">
        <ele>233.3</ele>
        <time>2024-11-20T13:57:29Z</time>
      </trkpt>
      <trkpt lat="48.17491" lon="-3.29783">
        <ele>233.3</ele>
        <time>2024-11-20T13:57:30Z</time>
      </trkpt>
      <trkpt lat="48.17491" lon="-3.29783">
        <ele>233.3</ele>
        <time>2024-11-20T13:57:31Z</time>
      </trkpt>
      <trkpt lat="48.17491" lon="-3.29783">
        <ele>233.3</ele>
        <time>2024-11-20T13:57:32Z</time>
      </trkpt>
      <trkpt lat="48.1749" lon="-3.29783">
        <ele>233.3</ele>
        <time>2024-11-20T13:57:33Z</time>
      </trkpt>
      <trkpt lat="48.1749" lon="-3.29782">
        <ele>233.3</ele>
        <time>2024-11-20T13:57:34Z</time>
      </trkpt>
      <trkpt lat="48.1749" lon="-3.29782">
        <ele>233.3</ele>
        <time>2024-11-20T13:57:35Z</time>
      </trkpt>
      <trkpt lat="48.17491" lon="-3.29782">
        <ele>233.4</ele>
        <time>2024-11-20T13:57:36Z</time>
      </trkpt>
      <trkpt lat="48.17491" lon="-3.29781">
        <ele>233.4</ele>
        <time>2024-11-20T13:57:37Z</time>
      </trkpt>
      <trkpt lat="48.17491" lon="-3.29781">
        <ele>233.4</ele>
        <time>2024-11-20T13:57:38Z</time>
      </trkpt>
      <trkpt lat="48.17491" lon="-3.29781">
        <ele>233.5</ele>
        <time>2024-11-20T13:57:39Z</time>
      </trkpt>
      <trkpt lat="48.17491" lon="-3.29781">
        <ele>233.5</ele>
        <time>2024-11-20T13:57:40Z</time>
      </trkpt>
      <trkpt lat="48.17491" lon="-3.29781">
        <ele>233.5</ele>
        <time>2024-11-20T13:57:41Z</time>
      </trkpt>
      <trkpt lat="48.17492" lon="-3.29781">
        <ele>233.5</ele>
        <time>2024-11-20T13:57:42Z</time>
      </trkpt>
      <trkpt lat="48.17492" lon="-3.29781">
        <ele>233.5</ele>
        <time>2024-11-20T13:57:43Z</time>
      </trkpt>
      <trkpt lat="48.17492" lon="-3.29781">
        <ele>233.5</ele>
        <time>2024-11-20T13:57:44Z</time>
      </trkpt>
      <trkpt lat="48.17492" lon="-3.29781">
        <ele>233.5</ele>
        <time>2024-11-20T13:57:45Z</time>
      </trkpt>
      <trkpt lat="48.17492" lon="-3.29781">
        <ele>233.5</ele>
        <time>2024-11-20T13:57:46Z</time>
      </trkpt>
      <trkpt lat="48.17492" lon="-3.29781">
        <ele>233.5</ele>
        <time>2024-11-20T13:57:47Z</time>
      </trkpt>
      <trkpt lat="48.17492" lon="-3.29781">
        <ele>233.5</ele>
        <time>2024-11-20T13:57:48Z</time>
      </trkpt>
      <trkpt lat="48.17492" lon="-3.29781">
        <ele>233.5</ele>
        <time>2024-11-20T13:57:49Z</time>
      </trkpt>
      <trkpt lat="48.17492" lon="-3.29781">
        <ele>233.5</ele>
        <time>2024-11-20T13:57:50Z</time>
      </trkpt>
      <trkpt lat="48.17492" lon="-3.29781">
        <ele>233.5</ele>
        <time>2024-11-20T13:57:51Z</time>
      </trkpt>
      <trkpt lat="48.17492" lon="-3.29781">
        <ele>233.5</ele>
        <time>2024-11-20T13:57:52Z</time>
      </trkpt>
      <trkpt lat="48.17492" lon="-3.2978">
        <ele>233.5</ele>
        <time>2024-11-20T13:57:53Z</time>
      </trkpt>
      <trkpt lat="48.17492" lon="-3.2978">
        <ele>233.5</ele>
        <time>2024-11-20T13:57:54Z</time>
      </trkpt>
      <trkpt lat="48.17492" lon="-3.2978">
        <ele>233.5</ele>
        <time>2024-11-20T13:57:55Z</time>
      </trkpt>
      <trkpt lat="48.17492" lon="-3.2978">
        <ele>233.5</ele>
        <time>2024-11-20T13:57:56Z</time>
      </trkpt>
      <trkpt lat="48.17492" lon="-3.2978">
        <ele>233.5</ele>
        <time>2024-11-20T13:57:57Z</time>
      </trkpt>
      <trkpt lat="48.17492" lon="-3.2978">
        <ele>233.5</ele>
        <time>2024-11-20T13:57:58Z</time>
      </trkpt>
      <trkpt lat="48.17492" lon="-3.2978">
        <ele>233.5</ele>
        <time>2024-11-20T13:57:59Z</time>
      </trkpt>
      <trkpt lat="48.17491" lon="-3.2978">
        <ele>233.5</ele>
        <time>2024-11-20T13:58:00Z</time>
      </trkpt>
      <trkpt lat="48.17491" lon="-3.29781">
        <ele>233.5</ele>
        <time>2024-11-20T13:58:01Z</time>
      </trkpt>
      <trkpt lat="48.17491" lon="-3.29781">
        <ele>233.5</ele>
        <time>2024-11-20T13:58:02Z</time>
      </trkpt>
      <trkpt lat="48.17491" lon="-3.29781">
        <ele>233.5</ele>
        <time>2024-11-20T13:58:03Z</time>
      </trkpt>
      <trkpt lat="48.17491" lon="-3.29781">
        <ele>233.5</ele>
        <time>2024-11-20T13:58:04Z</time>
      </trkpt>
      <trkpt lat="48.17491" lon="-3.29781">
        <ele>233.4</ele>
        <time>2024-11-20T13:58:05Z</time>
      </trkpt>
      <trkpt lat="48.17491" lon="-3.29781">
        <ele>233.4</ele>
        <time>2024-11-20T13:58:06Z</time>
      </trkpt>
      <trkpt lat="48.17491" lon="-3.29781">
        <ele>233.4</ele>
        <time>2024-11-20T13:58:07Z</time>
      </trkpt>
      <trkpt lat="48.17491" lon="-3.29781">
        <ele>233.4</ele>
        <time>2024-11-20T13:58:08Z</time>
      </trkpt>
      <trkpt lat="48.17491" lon="-3.29781">
        <ele>233.4</ele>
        <time>2024-11-20T13:58:09Z</time>
      </trkpt>
      <trkpt lat="48.17491" lon="-3.29781">
        <ele>233.4</ele>
        <time>2024-11-20T13:58:10Z</time>
      </trkpt>
      <trkpt lat="48.17491" lon="-3.29782">
        <ele>233.4</ele>
        <time>2024-11-20T13:58:11Z</time>
      </trkpt>
      <trkpt lat="48.17491" lon="-3.29782">
        <ele>233.4</ele>
        <time>2024-11-20T13:58:12Z</time>
      </trkpt>
      <trkpt lat="48.1749" lon="-3.29782">
        <ele>233.4</ele>
        <time>2024-11-20T13:58:13Z</time>
      </trkpt>
      <trkpt lat="48.17489" lon="-3.29782">
        <ele>233.3</ele>
        <time>2024-11-20T13:58:14Z</time>
      </trkpt>
      <trkpt lat="48.17488" lon="-3.29781">
        <ele>233.3</ele>
        <time>2024-11-20T13:58:15Z</time>
      </trkpt>
      <trkpt lat="48.17487" lon="-3.29781">
        <ele>233.3</ele>
        <time>2024-11-20T13:58:16Z</time>
      </trkpt>
      <trkpt lat="48.17487" lon="-3.29781">
        <ele>233.3</ele>
        <time>2024-11-20T13:58:17Z</time>
      </trkpt>
      <trkpt lat="48.17486" lon="-3.2978">
        <ele>233.3</ele>
        <time>2024-11-20T13:58:18Z</time>
      </trkpt>
      <trkpt lat="48.17485" lon="-3.29779">
        <ele>233.4</ele>
        <time>2024-11-20T13:58:19Z</time>
      </trkpt>
      <trkpt lat="48.17484" lon="-3.29778">
        <ele>233.4</ele>
        <time>2024-11-20T13:58:20Z</time>
      </trkpt>
      <trkpt lat="48.17483" lon="-3.29777">
        <ele>233.4</ele>
        <time>2024-11-20T13:58:21Z</time>
      </trkpt>
      <trkpt lat="48.17482" lon="-3.29776">
        <ele>233.4</ele>
        <time>2024-11-20T13:58:22Z</time>
      </trkpt>
      <trkpt lat="48.17481" lon="-3.29775">
        <ele>233.5</ele>
        <time>2024-11-20T13:58:23Z</time>
      </trkpt>
      <trkpt lat="48.17481" lon="-3.29774">
        <ele>233.5</ele>
        <time>2024-11-20T13:58:24Z</time>
      </trkpt>
      <trkpt lat="48.1748" lon="-3.29772">
        <ele>233.6</ele>
        <time>2024-11-20T13:58:25Z</time>
      </trkpt>
      <trkpt lat="48.17479" lon="-3.29771">
        <ele>233.7</ele>
        <time>2024-11-20T13:58:26Z</time>
      </trkpt>
      <trkpt lat="48.17478" lon="-3.2977">
        <ele>233.7</ele>
        <time>2024-11-20T13:58:27Z</time>
      </trkpt>
      <trkpt lat="48.17478" lon="-3.29769">
        <ele>233.8</ele>
        <time>2024-11-20T13:58:28Z</time>
      </trkpt>
      <trkpt lat="48.17477" lon="-3.29767">
        <ele>233.9</ele>
        <time>2024-11-20T13:58:29Z</time>
      </trkpt>
      <trkpt lat="48.17477" lon="-3.29766">
        <ele>233.9</ele>
        <time>2024-11-20T13:58:30Z</time>
      </trkpt>
      <trkpt lat="48.17477" lon="-3.29765">
        <ele>234</ele>
        <time>2024-11-20T13:58:31Z</time>
      </trkpt>
      <trkpt lat="48.17477" lon="-3.29764">
        <ele>234.1</ele>
        <time>2024-11-20T13:58:32Z</time>
      </trkpt>
      <trkpt lat="48.17477" lon="-3.29763">
        <ele>234.2</ele>
        <time>2024-11-20T13:58:33Z</time>
      </trkpt>
      <trkpt lat="48.17477" lon="-3.29762">
        <ele>234.2</ele>
        <time>2024-11-20T13:58:34Z</time>
      </trkpt>
      <trkpt lat="48.17477" lon="-3.29761">
        <ele>234.3</ele>
        <time>2024-11-20T13:58:35Z</time>
      </trkpt>
      <trkpt lat="48.17477" lon="-3.2976">
        <ele>234.3</ele>
        <time>2024-11-20T13:58:36Z</time>
      </trkpt>
      <trkpt lat="48.17477" lon="-3.29759">
        <ele>234.4</ele>
        <time>2024-11-20T13:58:37Z</time>
      </trkpt>
      <trkpt lat="48.17477" lon="-3.29759">
        <ele>234.4</ele>
        <time>2024-11-20T13:58:38Z</time>
      </trkpt>
      <trkpt lat="48.17477" lon="-3.29757">
        <ele>234.5</ele>
        <time>2024-11-20T13:58:39Z</time>
      </trkpt>
      <trkpt lat="48.17476" lon="-3.29756">
        <ele>234.6</ele>
        <time>2024-11-20T13:58:40Z</time>
      </trkpt>
      <trkpt lat="48.17475" lon="-3.29754">
        <ele>234.7</ele>
        <time>2024-11-20T13:58:41Z</time>
      </trkpt>
      <trkpt lat="48.17475" lon="-3.29753">
        <ele>234.8</ele>
        <time>2024-11-20T13:58:42Z</time>
      </trkpt>
      <trkpt lat="48.17474" lon="-3.29752">
        <ele>234.9</ele>
        <time>2024-11-20T13:58:43Z</time>
      </trkpt>
      <trkpt lat="48.17473" lon="-3.29751">
        <ele>235</ele>
        <time>2024-11-20T13:58:44Z</time>
      </trkpt>
      <trkpt lat="48.17472" lon="-3.2975">
        <ele>235</ele>
        <time>2024-11-20T13:58:45Z</time>
      </trkpt>
      <trkpt lat="48.17471" lon="-3.29749">
        <ele>235</ele>
        <time>2024-11-20T13:58:46Z</time>
      </trkpt>
      <trkpt lat="48.1747" lon="-3.29749">
        <ele>235</ele>
        <time>2024-11-20T13:58:47Z</time>
      </trkpt>
      <trkpt lat="48.17469" lon="-3.29748">
        <ele>235</ele>
        <time>2024-11-20T13:58:48Z</time>
      </trkpt>
      <trkpt lat="48.17468" lon="-3.29747">
        <ele>235</ele>
        <time>2024-11-20T13:58:49Z</time>
      </trkpt>
      <trkpt lat="48.17467" lon="-3.29746">
        <ele>235</ele>
        <time>2024-11-20T13:58:50Z</time>
      </trkpt>
      <trkpt lat="48.17466" lon="-3.29745">
        <ele>235</ele>
        <time>2024-11-20T13:58:51Z</time>
      </trkpt>
      <trkpt lat="48.17466" lon="-3.29744">
        <ele>235</ele>
        <time>2024-11-20T13:58:52Z</time>
      </trkpt>
      <trkpt lat="48.17465" lon="-3.29743">
        <ele>235</ele>
        <time>2024-11-20T13:58:53Z</time>
      </trkpt>
      <trkpt lat="48.17464" lon="-3.29742">
        <ele>235</ele>
        <time>2024-11-20T13:58:54Z</time>
      </trkpt>
      <trkpt lat="48.17463" lon="-3.29741">
        <ele>235</ele>
        <time>2024-11-20T13:58:55Z</time>
      </trkpt>
      <trkpt lat="48.17462" lon="-3.2974">
        <ele>235</ele>
        <time>2024-11-20T13:58:56Z</time>
      </trkpt>
      <trkpt lat="48.17461" lon="-3.29739">
        <ele>235</ele>
        <time>2024-11-20T13:58:57Z</time>
      </trkpt>
      <trkpt lat="48.1746" lon="-3.29738">
        <ele>235</ele>
        <time>2024-11-20T13:58:58Z</time>
      </trkpt>
      <trkpt lat="48.1746" lon="-3.29738">
        <ele>235</ele>
        <time>2024-11-20T13:58:59Z</time>
      </trkpt>
      <trkpt lat="48.1746" lon="-3.29737">
        <ele>235</ele>
        <time>2024-11-20T13:59:00Z</time>
      </trkpt>
      <trkpt lat="48.17459" lon="-3.29736">
        <ele>235</ele>
        <time>2024-11-20T13:59:01Z</time>
      </trkpt>
      <trkpt lat="48.17458" lon="-3.29735">
        <ele>235</ele>
        <time>2024-11-20T13:59:02Z</time>
      </trkpt>
      <trkpt lat="48.17457" lon="-3.29734">
        <ele>235</ele>
        <time>2024-11-20T13:59:03Z</time>
      </trkpt>
      <trkpt lat="48.17456" lon="-3.29733">
        <ele>235</ele>
        <time>2024-11-20T13:59:04Z</time>
      </trkpt>
      <trkpt lat="48.17455" lon="-3.29732">
        <ele>235</ele>
        <time>2024-11-20T13:59:05Z</time>
      </trkpt>
      <trkpt lat="48.17454" lon="-3.29731">
        <ele>235</ele>
        <time>2024-11-20T13:59:06Z</time>
      </trkpt>
      <trkpt lat="48.17454" lon="-3.2973">
        <ele>235</ele>
        <time>2024-11-20T13:59:07Z</time>
      </trkpt>
      <trkpt lat="48.17454" lon="-3.29729">
        <ele>235.1</ele>
        <time>2024-11-20T13:59:08Z</time>
      </trkpt>
      <trkpt lat="48.17454" lon="-3.29728">
        <ele>235.1</ele>
        <time>2024-11-20T13:59:09Z</time>
      </trkpt>
      <trkpt lat="48.17454" lon="-3.29727">
        <ele>235.2</ele>
        <time>2024-11-20T13:59:10Z</time>
      </trkpt>
      <trkpt lat="48.17454" lon="-3.29726">
        <ele>235.2</ele>
        <time>2024-11-20T13:59:11Z</time>
      </trkpt>
      <trkpt lat="48.17454" lon="-3.29725">
        <ele>235.3</ele>
        <time>2024-11-20T13:59:12Z</time>
      </trkpt>
      <trkpt lat="48.17455" lon="-3.29723">
        <ele>235.3</ele>
        <time>2024-11-20T13:59:13Z</time>
      </trkpt>
      <trkpt lat="48.17455" lon="-3.29722">
        <ele>235.4</ele>
        <time>2024-11-20T13:59:14Z</time>
      </trkpt>
      <trkpt lat="48.17456" lon="-3.2972">
        <ele>235.4</ele>
        <time>2024-11-20T13:59:15Z</time>
      </trkpt>
      <trkpt lat="48.17456" lon="-3.29719">
        <ele>235.4</ele>
        <time>2024-11-20T13:59:16Z</time>
      </trkpt>
      <trkpt lat="48.17456" lon="-3.29718">
        <ele>235.4</ele>
        <time>2024-11-20T13:59:17Z</time>
      </trkpt>
      <trkpt lat="48.17456" lon="-3.29717">
        <ele>235.4</ele>
        <time>2024-11-20T13:59:18Z</time>
      </trkpt>
      <trkpt lat="48.17456" lon="-3.29715">
        <ele>235.4</ele>
        <time>2024-11-20T13:59:19Z</time>
      </trkpt>
      <trkpt lat="48.17456" lon="-3.29714">
        <ele>235.4</ele>
        <time>2024-11-20T13:59:20Z</time>
      </trkpt>
      <trkpt lat="48.17456" lon="-3.29713">
        <ele>235.4</ele>
        <time>2024-11-20T13:59:21Z</time>
      </trkpt>
      <trkpt lat="48.17456" lon="-3.29712">
        <ele>235.4</ele>
        <time>2024-11-20T13:59:22Z</time>
      </trkpt>
      <trkpt lat="48.17456" lon="-3.29711">
        <ele>235.4</ele>
        <time>2024-11-20T13:59:23Z</time>
      </trkpt>
      <trkpt lat="48.17455" lon="-3.2971">
        <ele>235.4</ele>
        <time>2024-11-20T13:59:24Z</time>
      </trkpt>
      <trkpt lat="48.17455" lon="-3.29709">
        <ele>235.4</ele>
        <time>2024-11-20T13:59:25Z</time>
      </trkpt>
      <trkpt lat="48.17454" lon="-3.29707">
        <ele>235.3</ele>
        <time>2024-11-20T13:59:26Z</time>
      </trkpt>
      <trkpt lat="48.17454" lon="-3.29706">
        <ele>235.3</ele>
        <time>2024-11-20T13:59:27Z</time>
      </trkpt>
      <trkpt lat="48.17453" lon="-3.29705">
        <ele>235.3</ele>
        <time>2024-11-20T13:59:28Z</time>
      </trkpt>
      <trkpt lat="48.17453" lon="-3.29703">
        <ele>235.3</ele>
        <time>2024-11-20T13:59:29Z</time>
      </trkpt>
      <trkpt lat="48.17452" lon="-3.29702">
        <ele>235.3</ele>
        <time>2024-11-20T13:59:30Z</time>
      </trkpt>
      <trkpt lat="48.17451" lon="-3.29701">
        <ele>235.3</ele>
        <time>2024-11-20T13:59:31Z</time>
      </trkpt>
      <trkpt lat="48.17451" lon="-3.297">
        <ele>235.2</ele>
        <time>2024-11-20T13:59:32Z</time>
      </trkpt>
      <trkpt lat="48.1745" lon="-3.29699">
        <ele>235.2</ele>
        <time>2024-11-20T13:59:33Z</time>
      </trkpt>
      <trkpt lat="48.1745" lon="-3.29698">
        <ele>235.2</ele>
        <time>2024-11-20T13:59:34Z</time>
      </trkpt>
      <trkpt lat="48.17449" lon="-3.29697">
        <ele>235.2</ele>
        <time>2024-11-20T13:59:35Z</time>
      </trkpt>
      <trkpt lat="48.17449" lon="-3.29696">
        <ele>235.1</ele>
        <time>2024-11-20T13:59:36Z</time>
      </trkpt>
      <trkpt lat="48.17449" lon="-3.29695">
        <ele>235.1</ele>
        <time>2024-11-20T13:59:37Z</time>
      </trkpt>
      <trkpt lat="48.17448" lon="-3.29694">
        <ele>235.1</ele>
        <time>2024-11-20T13:59:38Z</time>
      </trkpt>
      <trkpt lat="48.17448" lon="-3.29693">
        <ele>235.1</ele>
        <time>2024-11-20T13:59:39Z</time>
      </trkpt>
      <trkpt lat="48.17448" lon="-3.29693">
        <ele>235.1</ele>
        <time>2024-11-20T13:59:40Z</time>
      </trkpt>
      <trkpt lat="48.17448" lon="-3.29692">
        <ele>235.1</ele>
        <time>2024-11-20T13:59:41Z</time>
      </trkpt>
      <trkpt lat="48.17448" lon="-3.29692">
        <ele>235.1</ele>
        <time>2024-11-20T13:59:42Z</time>
      </trkpt>
      <trkpt lat="48.17448" lon="-3.29691">
        <ele>235.1</ele>
        <time>2024-11-20T13:59:43Z</time>
      </trkpt>
      <trkpt lat="48.17448" lon="-3.2969">
        <ele>235.1</ele>
        <time>2024-11-20T13:59:44Z</time>
      </trkpt>
      <trkpt lat="48.17448" lon="-3.29689">
        <ele>235.1</ele>
        <time>2024-11-20T13:59:45Z</time>
      </trkpt>
      <trkpt lat="48.17448" lon="-3.29688">
        <ele>235.1</ele>
        <time>2024-11-20T13:59:46Z</time>
      </trkpt>
      <trkpt lat="48.17448" lon="-3.29687">
        <ele>235.1</ele>
        <time>2024-11-20T13:59:47Z</time>
      </trkpt>
      <trkpt lat="48.17448" lon="-3.29687">
        <ele>235.1</ele>
        <time>2024-11-20T13:59:48Z</time>
      </trkpt>
      <trkpt lat="48.17448" lon="-3.29686">
        <ele>235.1</ele>
        <time>2024-11-20T13:59:49Z</time>
      </trkpt>
      <trkpt lat="48.17448" lon="-3.29686">
        <ele>235.1</ele>
        <time>2024-11-20T13:59:50Z</time>
      </trkpt>
      <trkpt lat="48.17448" lon="-3.29686">
        <ele>235.1</ele>
        <time>2024-11-20T13:59:51Z</time>
      </trkpt>
      <trkpt lat="48.17448" lon="-3.29686">
        <ele>235.1</ele>
        <time>2024-11-20T13:59:55Z</time>
      </trkpt>
      <trkpt lat="48.17448" lon="-3.29686">
        <ele>235.1</ele>
        <time>2024-11-20T13:59:56Z</time>
      </trkpt>
      <trkpt lat="48.17448" lon="-3.29686">
        <ele>235.1</ele>
        <time>2024-11-20T13:59:57Z</time>
      </trkpt>
      <trkpt lat="48.17448" lon="-3.29686">
        <ele>235.1</ele>
        <time>2024-11-20T13:59:58Z</time>
      </trkpt>
      <trkpt lat="48.17448" lon="-3.29686">
        <ele>235.1</ele>
        <time>2024-11-20T13:59:59Z</time>
      </trkpt>
      <trkpt lat="48.17448" lon="-3.29686">
        <ele>235.1</ele>
        <time>2024-11-20T14:00:00Z</time>
      </trkpt>
      <trkpt lat="48.17448" lon="-3.29686">
        <ele>235.1</ele>
        <time>2024-11-20T14:00:01Z</time>
      </trkpt>
      <trkpt lat="48.17448" lon="-3.29685">
        <ele>235.1</ele>
        <time>2024-11-20T14:00:02Z</time>
      </trkpt>
      <trkpt lat="48.17447" lon="-3.29684">
        <ele>235.1</ele>
        <time>2024-11-20T14:00:03Z</time>
      </trkpt>
      <trkpt lat="48.17446" lon="-3.29683">
        <ele>235.1</ele>
        <time>2024-11-20T14:00:04Z</time>
      </trkpt>
      <trkpt lat="48.17445" lon="-3.29682">
        <ele>235</ele>
        <time>2024-11-20T14:00:05Z</time>
      </trkpt>
      <trkpt lat="48.17444" lon="-3.29682">
        <ele>235</ele>
        <time>2024-11-20T14:00:06Z</time>
      </trkpt>
      <trkpt lat="48.17444" lon="-3.29681">
        <ele>235</ele>
        <time>2024-11-20T14:00:07Z</time>
      </trkpt>
      <trkpt lat="48.17443" lon="-3.2968">
        <ele>235</ele>
        <time>2024-11-20T14:00:08Z</time>
      </trkpt>
      <trkpt lat="48.17442" lon="-3.29679">
        <ele>235</ele>
        <time>2024-11-20T14:00:09Z</time>
      </trkpt>
      <trkpt lat="48.17442" lon="-3.29678">
        <ele>234.9</ele>
        <time>2024-11-20T14:00:10Z</time>
      </trkpt>
      <trkpt lat="48.17442" lon="-3.29676">
        <ele>234.9</ele>
        <time>2024-11-20T14:00:11Z</time>
      </trkpt>
      <trkpt lat="48.17442" lon="-3.29675">
        <ele>234.9</ele>
        <time>2024-11-20T14:00:12Z</time>
      </trkpt>
      <trkpt lat="48.17441" lon="-3.29674">
        <ele>234.9</ele>
        <time>2024-11-20T14:00:13Z</time>
      </trkpt>
      <trkpt lat="48.17441" lon="-3.29673">
        <ele>234.9</ele>
        <time>2024-11-20T14:00:14Z</time>
      </trkpt>
      <trkpt lat="48.17442" lon="-3.29673">
        <ele>234.9</ele>
        <time>2024-11-20T14:00:15Z</time>
      </trkpt>
      <trkpt lat="48.17442" lon="-3.29673">
        <ele>234.9</ele>
        <time>2024-11-20T14:00:16Z</time>
      </trkpt>
      <trkpt lat="48.17442" lon="-3.29673">
        <ele>234.9</ele>
        <time>2024-11-20T14:00:17Z</time>
      </trkpt>
      <trkpt lat="48.17442" lon="-3.29672">
        <ele>234.9</ele>
        <time>2024-11-20T14:00:18Z</time>
      </trkpt>
      <trkpt lat="48.17442" lon="-3.29672">
        <ele>234.9</ele>
        <time>2024-11-20T14:00:19Z</time>
      </trkpt>
      <trkpt lat="48.17442" lon="-3.29672">
        <ele>234.9</ele>
        <time>2024-11-20T14:00:20Z</time>
      </trkpt>
      <trkpt lat="48.17443" lon="-3.29672">
        <ele>234.9</ele>
        <time>2024-11-20T14:00:21Z</time>
      </trkpt>
      <trkpt lat="48.17443" lon="-3.29672">
        <ele>234.9</ele>
        <time>2024-11-20T14:00:22Z</time>
      </trkpt>
      <trkpt lat="48.17443" lon="-3.29672">
        <ele>234.9</ele>
        <time>2024-11-20T14:00:23Z</time>
      </trkpt>
      <trkpt lat="48.17442" lon="-3.29672">
        <ele>234.9</ele>
        <time>2024-11-20T14:00:24Z</time>
      </trkpt>
      <trkpt lat="48.17443" lon="-3.29672">
        <ele>234.9</ele>
        <time>2024-11-20T14:00:25Z</time>
      </trkpt>
      <trkpt lat="48.17443" lon="-3.29671">
        <ele>234.9</ele>
        <time>2024-11-20T14:00:26Z</time>
      </trkpt>
      <trkpt lat="48.17443" lon="-3.2967">
        <ele>234.9</ele>
        <time>2024-11-20T14:00:27Z</time>
      </trkpt>
      <trkpt lat="48.17442" lon="-3.2967">
        <ele>234.9</ele>
        <time>2024-11-20T14:00:28Z</time>
      </trkpt>
      <trkpt lat="48.17441" lon="-3.2967">
        <ele>234.9</ele>
        <time>2024-11-20T14:00:29Z</time>
      </trkpt>
      <trkpt lat="48.1744" lon="-3.2967">
        <ele>234.9</ele>
        <time>2024-11-20T14:00:30Z</time>
      </trkpt>
      <trkpt lat="48.1744" lon="-3.2967">
        <ele>234.8</ele>
        <time>2024-11-20T14:00:31Z</time>
      </trkpt>
      <trkpt lat="48.17439" lon="-3.2967">
        <ele>234.8</ele>
        <time>2024-11-20T14:00:32Z</time>
      </trkpt>
      <trkpt lat="48.17438" lon="-3.2967">
        <ele>234.8</ele>
        <time>2024-11-20T14:00:33Z</time>
      </trkpt>
      <trkpt lat="48.17438" lon="-3.2967">
        <ele>234.8</ele>
        <time>2024-11-20T14:00:34Z</time>
      </trkpt>
      <trkpt lat="48.17437" lon="-3.2967">
        <ele>234.8</ele>
        <time>2024-11-20T14:00:35Z</time>
      </trkpt>
      <trkpt lat="48.17436" lon="-3.29669">
        <ele>234.7</ele>
        <time>2024-11-20T14:00:36Z</time>
      </trkpt>
      <trkpt lat="48.17435" lon="-3.29669">
        <ele>234.7</ele>
        <time>2024-11-20T14:00:37Z</time>
      </trkpt>
      <trkpt lat="48.17434" lon="-3.29669">
        <ele>234.7</ele>
        <time>2024-11-20T14:00:38Z</time>
      </trkpt>
      <trkpt lat="48.17433" lon="-3.29669">
        <ele>234.6</ele>
        <time>2024-11-20T14:00:39Z</time>
      </trkpt>
      <trkpt lat="48.17432" lon="-3.2967">
        <ele>234.6</ele>
        <time>2024-11-20T14:00:40Z</time>
      </trkpt>
      <trkpt lat="48.17432" lon="-3.2967">
        <ele>234.6</ele>
        <time>2024-11-20T14:00:41Z</time>
      </trkpt>
      <trkpt lat="48.17431" lon="-3.29671">
        <ele>234.6</ele>
        <time>2024-11-20T14:00:42Z</time>
      </trkpt>
      <trkpt lat="48.1743" lon="-3.29672">
        <ele>234.6</ele>
        <time>2024-11-20T14:00:43Z</time>
      </trkpt>
      <trkpt lat="48.17429" lon="-3.29672">
        <ele>234.6</ele>
        <time>2024-11-20T14:00:44Z</time>
      </trkpt>
      <trkpt lat="48.17429" lon="-3.29673">
        <ele>234.6</ele>
        <time>2024-11-20T14:00:45Z</time>
      </trkpt>
      <trkpt lat="48.17429" lon="-3.29673">
        <ele>234.6</ele>
        <time>2024-11-20T14:00:46Z</time>
      </trkpt>
      <trkpt lat="48.17429" lon="-3.29673">
        <ele>234.6</ele>
        <time>2024-11-20T14:00:47Z</time>
      </trkpt>
      <trkpt lat="48.17429" lon="-3.29673">
        <ele>234.6</ele>
        <time>2024-11-20T14:00:48Z</time>
      </trkpt>
      <trkpt lat="48.17429" lon="-3.29673">
        <ele>234.6</ele>
        <time>2024-11-20T14:00:49Z</time>
      </trkpt>
      <trkpt lat="48.17429" lon="-3.29673">
        <ele>234.6</ele>
        <time>2024-11-20T14:00:50Z</time>
      </trkpt>
      <trkpt lat="48.1743" lon="-3.29673">
        <ele>234.6</ele>
        <time>2024-11-20T14:00:51Z</time>
      </trkpt>
      <trkpt lat="48.1743" lon="-3.29674">
        <ele>234.6</ele>
        <time>2024-11-20T14:00:52Z</time>
      </trkpt>
      <trkpt lat="48.17429" lon="-3.29674">
        <ele>234.6</ele>
        <time>2024-11-20T14:00:53Z</time>
      </trkpt>
      <trkpt lat="48.17429" lon="-3.29674">
        <ele>234.6</ele>
        <time>2024-11-20T14:00:54Z</time>
      </trkpt>
      <trkpt lat="48.17428" lon="-3.29674">
        <ele>234.6</ele>
        <time>2024-11-20T14:00:55Z</time>
      </trkpt>
      <trkpt lat="48.17427" lon="-3.29674">
        <ele>234.5</ele>
        <time>2024-11-20T14:00:56Z</time>
      </trkpt>
      <trkpt lat="48.17426" lon="-3.29674">
        <ele>234.5</ele>
        <time>2024-11-20T14:00:57Z</time>
      </trkpt>
      <trkpt lat="48.17425" lon="-3.29675">
        <ele>234.5</ele>
        <time>2024-11-20T14:00:58Z</time>
      </trkpt>
      <trkpt lat="48.17424" lon="-3.29675">
        <ele>234.5</ele>
        <time>2024-11-20T14:00:59Z</time>
      </trkpt>
      <trkpt lat="48.17423" lon="-3.29676">
        <ele>234.5</ele>
        <time>2024-11-20T14:01:00Z</time>
      </trkpt>
      <trkpt lat="48.17423" lon="-3.29677">
        <ele>234.5</ele>
        <time>2024-11-20T14:01:01Z</time>
      </trkpt>
      <trkpt lat="48.17422" lon="-3.29677">
        <ele>234.5</ele>
        <time>2024-11-20T14:01:02Z</time>
      </trkpt>
      <trkpt lat="48.17422" lon="-3.29678">
        <ele>234.5</ele>
        <time>2024-11-20T14:01:03Z</time>
      </trkpt>
      <trkpt lat="48.17421" lon="-3.29678">
        <ele>234.5</ele>
        <time>2024-11-20T14:01:04Z</time>
      </trkpt>
      <trkpt lat="48.17421" lon="-3.29678">
        <ele>234.5</ele>
        <time>2024-11-20T14:01:05Z</time>
      </trkpt>
      <trkpt lat="48.17421" lon="-3.29678">
        <ele>234.5</ele>
        <time>2024-11-20T14:01:06Z</time>
      </trkpt>
      <trkpt lat="48.17421" lon="-3.29678">
        <ele>234.5</ele>
        <time>2024-11-20T14:01:07Z</time>
      </trkpt>
      <trkpt lat="48.17421" lon="-3.29678">
        <ele>234.5</ele>
        <time>2024-11-20T14:01:08Z</time>
      </trkpt>
      <trkpt lat="48.17421" lon="-3.29678">
        <ele>234.5</ele>
        <time>2024-11-20T14:01:09Z</time>
      </trkpt>
      <trkpt lat="48.1742" lon="-3.29678">
        <ele>234.5</ele>
        <time>2024-11-20T14:01:10Z</time>
      </trkpt>
      <trkpt lat="48.1742" lon="-3.29678">
        <ele>234.5</ele>
        <time>2024-11-20T14:01:11Z</time>
      </trkpt>
      <trkpt lat="48.1742" lon="-3.29678">
        <ele>234.5</ele>
        <time>2024-11-20T14:01:12Z</time>
      </trkpt>
      <trkpt lat="48.1742" lon="-3.29679">
        <ele>234.5</ele>
        <time>2024-11-20T14:01:13Z</time>
      </trkpt>
      <trkpt lat="48.17419" lon="-3.29679">
        <ele>234.5</ele>
        <time>2024-11-20T14:01:14Z</time>
      </trkpt>
      <trkpt lat="48.17418" lon="-3.29679">
        <ele>234.5</ele>
        <time>2024-11-20T14:01:15Z</time>
      </trkpt>
      <trkpt lat="48.17417" lon="-3.29679">
        <ele>234.5</ele>
        <time>2024-11-20T14:01:16Z</time>
      </trkpt>
      <trkpt lat="48.17416" lon="-3.29679">
        <ele>234.4</ele>
        <time>2024-11-20T14:01:17Z</time>
      </trkpt>
      <trkpt lat="48.17415" lon="-3.29679">
        <ele>234.4</ele>
        <time>2024-11-20T14:01:18Z</time>
      </trkpt>
      <trkpt lat="48.17414" lon="-3.29679">
        <ele>234.4</ele>
        <time>2024-11-20T14:01:19Z</time>
      </trkpt>
      <trkpt lat="48.17413" lon="-3.29679">
        <ele>234.4</ele>
        <time>2024-11-20T14:01:20Z</time>
      </trkpt>
      <trkpt lat="48.17413" lon="-3.29679">
        <ele>234.5</ele>
        <time>2024-11-20T14:01:21Z</time>
      </trkpt>
      <trkpt lat="48.17412" lon="-3.29679">
        <ele>234.5</ele>
        <time>2024-11-20T14:01:22Z</time>
      </trkpt>
      <trkpt lat="48.17411" lon="-3.2968">
        <ele>234.5</ele>
        <time>2024-11-20T14:01:23Z</time>
      </trkpt>
      <trkpt lat="48.1741" lon="-3.2968">
        <ele>234.5</ele>
        <time>2024-11-20T14:01:24Z</time>
      </trkpt>
      <trkpt lat="48.17409" lon="-3.29679">
        <ele>234.5</ele>
        <time>2024-11-20T14:01:25Z</time>
      </trkpt>
      <trkpt lat="48.17408" lon="-3.29679">
        <ele>234.4</ele>
        <time>2024-11-20T14:01:26Z</time>
      </trkpt>
      <trkpt lat="48.17407" lon="-3.29679">
        <ele>234.4</ele>
        <time>2024-11-20T14:01:27Z</time>
      </trkpt>
      <trkpt lat="48.17407" lon="-3.29679">
        <ele>234.4</ele>
        <time>2024-11-20T14:01:28Z</time>
      </trkpt>
      <trkpt lat="48.17407" lon="-3.29679">
        <ele>234.4</ele>
        <time>2024-11-20T14:01:29Z</time>
      </trkpt>
      <trkpt lat="48.17407" lon="-3.29679">
        <ele>234.5</ele>
        <time>2024-11-20T14:01:30Z</time>
      </trkpt>
      <trkpt lat="48.17407" lon="-3.2968">
        <ele>234.5</ele>
        <time>2024-11-20T14:01:31Z</time>
      </trkpt>
      <trkpt lat="48.17407" lon="-3.2968">
        <ele>234.5</ele>
        <time>2024-11-20T14:01:32Z</time>
      </trkpt>
      <trkpt lat="48.17406" lon="-3.29681">
        <ele>234.5</ele>
        <time>2024-11-20T14:01:33Z</time>
      </trkpt>
      <trkpt lat="48.17405" lon="-3.29682">
        <ele>234.6</ele>
        <time>2024-11-20T14:01:34Z</time>
      </trkpt>
      <trkpt lat="48.17404" lon="-3.29683">
        <ele>234.6</ele>
        <time>2024-11-20T14:01:35Z</time>
      </trkpt>
      <trkpt lat="48.17404" lon="-3.29684">
        <ele>234.6</ele>
        <time>2024-11-20T14:01:36Z</time>
      </trkpt>
      <trkpt lat="48.17403" lon="-3.29685">
        <ele>234.7</ele>
        <time>2024-11-20T14:01:37Z</time>
      </trkpt>
      <trkpt lat="48.17402" lon="-3.29687">
        <ele>234.7</ele>
        <time>2024-11-20T14:01:38Z</time>
      </trkpt>
      <trkpt lat="48.17402" lon="-3.29688">
        <ele>234.8</ele>
        <time>2024-11-20T14:01:39Z</time>
      </trkpt>
      <trkpt lat="48.17401" lon="-3.29689">
        <ele>234.8</ele>
        <time>2024-11-20T14:01:40Z</time>
      </trkpt>
      <trkpt lat="48.17401" lon="-3.29691">
        <ele>234.9</ele>
        <time>2024-11-20T14:01:41Z</time>
      </trkpt>
      <trkpt lat="48.174" lon="-3.29692">
        <ele>234.9</ele>
        <time>2024-11-20T14:01:42Z</time>
      </trkpt>
      <trkpt lat="48.174" lon="-3.29694">
        <ele>235</ele>
        <time>2024-11-20T14:01:43Z</time>
      </trkpt>
      <trkpt lat="48.174" lon="-3.29696">
        <ele>235</ele>
        <time>2024-11-20T14:01:44Z</time>
      </trkpt>
      <trkpt lat="48.174" lon="-3.29697">
        <ele>235</ele>
        <time>2024-11-20T14:01:45Z</time>
      </trkpt>
      <trkpt lat="48.174" lon="-3.29699">
        <ele>235.1</ele>
        <time>2024-11-20T14:01:46Z</time>
      </trkpt>
      <trkpt lat="48.174" lon="-3.297">
        <ele>235.1</ele>
        <time>2024-11-20T14:01:47Z</time>
      </trkpt>
      <trkpt lat="48.17399" lon="-3.29701">
        <ele>235.1</ele>
        <time>2024-11-20T14:01:48Z</time>
      </trkpt>
      <trkpt lat="48.17399" lon="-3.29703">
        <ele>235.1</ele>
        <time>2024-11-20T14:01:49Z</time>
      </trkpt>
      <trkpt lat="48.17398" lon="-3.29704">
        <ele>235.1</ele>
        <time>2024-11-20T14:01:50Z</time>
      </trkpt>
      <trkpt lat="48.17398" lon="-3.29705">
        <ele>235.1</ele>
        <time>2024-11-20T14:01:51Z</time>
      </trkpt>
      <trkpt lat="48.17398" lon="-3.29706">
        <ele>235.1</ele>
        <time>2024-11-20T14:01:52Z</time>
      </trkpt>
      <trkpt lat="48.17398" lon="-3.29707">
        <ele>235.1</ele>
        <time>2024-11-20T14:01:53Z</time>
      </trkpt>
      <trkpt lat="48.17397" lon="-3.29709">
        <ele>235.2</ele>
        <time>2024-11-20T14:01:54Z</time>
      </trkpt>
      <trkpt lat="48.17397" lon="-3.2971">
        <ele>235.2</ele>
        <time>2024-11-20T14:01:55Z</time>
      </trkpt>
      <trkpt lat="48.17397" lon="-3.29712">
        <ele>235.2</ele>
        <time>2024-11-20T14:01:56Z</time>
      </trkpt>
      <trkpt lat="48.17397" lon="-3.29713">
        <ele>235.2</ele>
        <time>2024-11-20T14:01:57Z</time>
      </trkpt>
      <trkpt lat="48.17396" lon="-3.29713">
        <ele>235.2</ele>
        <time>2024-11-20T14:01:58Z</time>
      </trkpt>
      <trkpt lat="48.17396" lon="-3.29713">
        <ele>235.2</ele>
        <time>2024-11-20T14:01:59Z</time>
      </trkpt>
      <trkpt lat="48.17396" lon="-3.29713">
        <ele>235.2</ele>
        <time>2024-11-20T14:02:00Z</time>
      </trkpt>
      <trkpt lat="48.17396" lon="-3.29713">
        <ele>235.2</ele>
        <time>2024-11-20T14:02:01Z</time>
      </trkpt>
      <trkpt lat="48.17396" lon="-3.29713">
        <ele>235.2</ele>
        <time>2024-11-20T14:02:02Z</time>
      </trkpt>
      <trkpt lat="48.17396" lon="-3.29713">
        <ele>235.2</ele>
        <time>2024-11-20T14:02:03Z</time>
      </trkpt>
      <trkpt lat="48.17396" lon="-3.29713">
        <ele>235.2</ele>
        <time>2024-11-20T14:02:04Z</time>
      </trkpt>
      <trkpt lat="48.17395" lon="-3.29713">
        <ele>235.2</ele>
        <time>2024-11-20T14:02:05Z</time>
      </trkpt>
      <trkpt lat="48.17395" lon="-3.29713">
        <ele>235.2</ele>
        <time>2024-11-20T14:02:06Z</time>
      </trkpt>
      <trkpt lat="48.17395" lon="-3.29713">
        <ele>235.2</ele>
        <time>2024-11-20T14:02:07Z</time>
      </trkpt>
      <trkpt lat="48.17395" lon="-3.29713">
        <ele>235.1</ele>
        <time>2024-11-20T14:02:08Z</time>
      </trkpt>
      <trkpt lat="48.17395" lon="-3.29713">
        <ele>235.1</ele>
        <time>2024-11-20T14:02:09Z</time>
      </trkpt>
      <trkpt lat="48.17395" lon="-3.29713">
        <ele>235.1</ele>
        <time>2024-11-20T14:02:10Z</time>
      </trkpt>
      <trkpt lat="48.17395" lon="-3.29713">
        <ele>235.1</ele>
        <time>2024-11-20T14:02:11Z</time>
      </trkpt>
      <trkpt lat="48.17395" lon="-3.29713">
        <ele>235.1</ele>
        <time>2024-11-20T14:02:12Z</time>
      </trkpt>
      <trkpt lat="48.17395" lon="-3.29713">
        <ele>235.1</ele>
        <time>2024-11-20T14:02:13Z</time>
      </trkpt>
      <trkpt lat="48.17395" lon="-3.29713">
        <ele>235.1</ele>
        <time>2024-11-20T14:02:14Z</time>
      </trkpt>
      <trkpt lat="48.17395" lon="-3.29713">
        <ele>235.1</ele>
        <time>2024-11-20T14:02:15Z</time>
      </trkpt>
      <trkpt lat="48.17395" lon="-3.29713">
        <ele>235.1</ele>
        <time>2024-11-20T14:02:16Z</time>
      </trkpt>
      <trkpt lat="48.17395" lon="-3.29712">
        <ele>235.1</ele>
        <time>2024-11-20T14:02:17Z</time>
      </trkpt>
      <trkpt lat="48.17395" lon="-3.29712">
        <ele>235.1</ele>
        <time>2024-11-20T14:02:18Z</time>
      </trkpt>
      <trkpt lat="48.17395" lon="-3.29712">
        <ele>235.1</ele>
        <time>2024-11-20T14:02:19Z</time>
      </trkpt>
      <trkpt lat="48.17395" lon="-3.29712">
        <ele>235.1</ele>
        <time>2024-11-20T14:02:20Z</time>
      </trkpt>
      <trkpt lat="48.17395" lon="-3.29712">
        <ele>235.1</ele>
        <time>2024-11-20T14:02:21Z</time>
      </trkpt>
      <trkpt lat="48.17395" lon="-3.29712">
        <ele>235.1</ele>
        <time>2024-11-20T14:02:22Z</time>
      </trkpt>
      <trkpt lat="48.17395" lon="-3.29712">
        <ele>235.1</ele>
        <time>2024-11-20T14:02:23Z</time>
      </trkpt>
      <trkpt lat="48.17395" lon="-3.29712">
        <ele>235.1</ele>
        <time>2024-11-20T14:02:24Z</time>
      </trkpt>
      <trkpt lat="48.17395" lon="-3.29712">
        <ele>235.1</ele>
        <time>2024-11-20T14:02:25Z</time>
      </trkpt>
      <trkpt lat="48.17394" lon="-3.29712">
        <ele>235.1</ele>
        <time>2024-11-20T14:02:26Z</time>
      </trkpt>
      <trkpt lat="48.17394" lon="-3.29712">
        <ele>235.1</ele>
        <time>2024-11-20T14:02:27Z</time>
      </trkpt>
      <trkpt lat="48.17394" lon="-3.29712">
        <ele>235.1</ele>
        <time>2024-11-20T14:02:28Z</time>
      </trkpt>
      <trkpt lat="48.17394" lon="-3.29712">
        <ele>235.1</ele>
        <time>2024-11-20T14:02:29Z</time>
      </trkpt>
      <trkpt lat="48.17394" lon="-3.29712">
        <ele>235.1</ele>
        <time>2024-11-20T14:02:30Z</time>
      </trkpt>
      <trkpt lat="48.17394" lon="-3.29712">
        <ele>235.1</ele>
        <time>2024-11-20T14:02:31Z</time>
      </trkpt>
      <trkpt lat="48.17394" lon="-3.29712">
        <ele>235.1</ele>
        <time>2024-11-20T14:02:32Z</time>
      </trkpt>
      <trkpt lat="48.17394" lon="-3.29712">
        <ele>235.1</ele>
        <time>2024-11-20T14:02:33Z</time>
      </trkpt>
      <trkpt lat="48.17394" lon="-3.29712">
        <ele>235.1</ele>
        <time>2024-11-20T14:02:34Z</time>
      </trkpt>
      <trkpt lat="48.17394" lon="-3.29712">
        <ele>235.1</ele>
        <time>2024-11-20T14:02:35Z</time>
      </trkpt>
      <trkpt lat="48.17394" lon="-3.29712">
        <ele>235.1</ele>
        <time>2024-11-20T14:02:36Z</time>
      </trkpt>
      <trkpt lat="48.17394" lon="-3.29712">
        <ele>235.1</ele>
        <time>2024-11-20T14:02:37Z</time>
      </trkpt>
      <trkpt lat="48.17394" lon="-3.29712">
        <ele>235.1</ele>
        <time>2024-11-20T14:02:38Z</time>
      </trkpt>
      <trkpt lat="48.17394" lon="-3.29712">
        <ele>235.1</ele>
        <time>2024-11-20T14:02:39Z</time>
      </trkpt>
      <trkpt lat="48.17394" lon="-3.29712">
        <ele>235.1</ele>
        <time>2024-11-20T14:02:40Z</time>
      </trkpt>
      <trkpt lat="48.17394" lon="-3.29712">
        <ele>235.1</ele>
        <time>2024-11-20T14:02:41Z</time>
      </trkpt>
      <trkpt lat="48.17394" lon="-3.29712">
        <ele>235.1</ele>
        <time>2024-11-20T14:02:42Z</time>
      </trkpt>
      <trkpt lat="48.17394" lon="-3.29712">
        <ele>235.1</ele>
        <time>2024-11-20T14:02:43Z</time>
      </trkpt>
      <trkpt lat="48.17394" lon="-3.29712">
        <ele>235.1</ele>
        <time>2024-11-20T14:02:44Z</time>
      </trkpt>
      <trkpt lat="48.17394" lon="-3.29712">
        <ele>235.1</ele>
        <time>2024-11-20T14:02:45Z</time>
      </trkpt>
      <trkpt lat="48.17395" lon="-3.29712">
        <ele>235.1</ele>
        <time>2024-11-20T14:02:46Z</time>
      </trkpt>
      <trkpt lat="48.17395" lon="-3.29711">
        <ele>235.1</ele>
        <time>2024-11-20T14:02:47Z</time>
      </trkpt>
      <trkpt lat="48.17395" lon="-3.29711">
        <ele>235.1</ele>
        <time>2024-11-20T14:02:48Z</time>
      </trkpt>
      <trkpt lat="48.17395" lon="-3.29711">
        <ele>235.1</ele>
        <time>2024-11-20T14:02:49Z</time>
      </trkpt>
      <trkpt lat="48.17395" lon="-3.29711">
        <ele>235.1</ele>
        <time>2024-11-20T14:02:50Z</time>
      </trkpt>
      <trkpt lat="48.17395" lon="-3.29711">
        <ele>235.1</ele>
        <time>2024-11-20T14:02:51Z</time>
      </trkpt>
      <trkpt lat="48.17395" lon="-3.29712">
        <ele>235.1</ele>
        <time>2024-11-20T14:02:52Z</time>
      </trkpt>
      <trkpt lat="48.17395" lon="-3.29712">
        <ele>235.1</ele>
        <time>2024-11-20T14:02:53Z</time>
      </trkpt>
      <trkpt lat="48.17395" lon="-3.29712">
        <ele>235.1</ele>
        <time>2024-11-20T14:02:54Z</time>
      </trkpt>
      <trkpt lat="48.17395" lon="-3.29712">
        <ele>235.1</ele>
        <time>2024-11-20T14:02:55Z</time>
      </trkpt>
      <trkpt lat="48.17396" lon="-3.29711">
        <ele>235.1</ele>
        <time>2024-11-20T14:02:56Z</time>
      </trkpt>
      <trkpt lat="48.17396" lon="-3.29711">
        <ele>235.1</ele>
        <time>2024-11-20T14:02:57Z</time>
      </trkpt>
      <trkpt lat="48.17396" lon="-3.29711">
        <ele>235.1</ele>
        <time>2024-11-20T14:02:58Z</time>
      </trkpt>
      <trkpt lat="48.17396" lon="-3.29711">
        <ele>235.1</ele>
        <time>2024-11-20T14:02:59Z</time>
      </trkpt>
      <trkpt lat="48.17396" lon="-3.29711">
        <ele>235.1</ele>
        <time>2024-11-20T14:03:00Z</time>
      </trkpt>
      <trkpt lat="48.17396" lon="-3.29711">
        <ele>235.1</ele>
        <time>2024-11-20T14:03:01Z</time>
      </trkpt>
      <trkpt lat="48.17396" lon="-3.29711">
        <ele>235.1</ele>
        <time>2024-11-20T14:03:02Z</time>
      </trkpt>
      <trkpt lat="48.17396" lon="-3.29711">
        <ele>235.1</ele>
        <time>2024-11-20T14:03:03Z</time>
      </trkpt>
      <trkpt lat="48.17396" lon="-3.29711">
        <ele>235.1</ele>
        <time>2024-11-20T14:03:04Z</time>
      </trkpt>
      <trkpt lat="48.17396" lon="-3.29711">
        <ele>235.1</ele>
        <time>2024-11-20T14:03:05Z</time>
      </trkpt>
      <trkpt lat="48.17396" lon="-3.29711">
        <ele>235.2</ele>
        <time>2024-11-20T14:03:06Z</time>
      </trkpt>
      <trkpt lat="48.17396" lon="-3.29711">
        <ele>235.2</ele>
        <time>2024-11-20T14:03:07Z</time>
      </trkpt>
      <trkpt lat="48.17396" lon="-3.29711">
        <ele>235.2</ele>
        <time>2024-11-20T14:03:08Z</time>
      </trkpt>
      <trkpt lat="48.17396" lon="-3.29711">
        <ele>235.1</ele>
        <time>2024-11-20T14:03:09Z</time>
      </trkpt>
      <trkpt lat="48.17396" lon="-3.29712">
        <ele>235.2</ele>
        <time>2024-11-20T14:03:10Z</time>
      </trkpt>
      <trkpt lat="48.17396" lon="-3.29712">
        <ele>235.1</ele>
        <time>2024-11-20T14:03:11Z</time>
      </trkpt>
      <trkpt lat="48.17396" lon="-3.29712">
        <ele>235.1</ele>
        <time>2024-11-20T14:03:12Z</time>
      </trkpt>
      <trkpt lat="48.17395" lon="-3.29712">
        <ele>235.1</ele>
        <time>2024-11-20T14:03:13Z</time>
      </trkpt>
      <trkpt lat="48.17395" lon="-3.29712">
        <ele>235.1</ele>
        <time>2024-11-20T14:03:14Z</time>
      </trkpt>
      <trkpt lat="48.17395" lon="-3.29712">
        <ele>235.1</ele>
        <time>2024-11-20T14:03:15Z</time>
      </trkpt>
      <trkpt lat="48.17395" lon="-3.29711">
        <ele>235.1</ele>
        <time>2024-11-20T14:03:16Z</time>
      </trkpt>
      <trkpt lat="48.17395" lon="-3.29711">
        <ele>235.1</ele>
        <time>2024-11-20T14:03:17Z</time>
      </trkpt>
      <trkpt lat="48.17395" lon="-3.29711">
        <ele>235.1</ele>
        <time>2024-11-20T14:03:18Z</time>
      </trkpt>
      <trkpt lat="48.17395" lon="-3.29711">
        <ele>235.1</ele>
        <time>2024-11-20T14:03:19Z</time>
      </trkpt>
      <trkpt lat="48.17395" lon="-3.29711">
        <ele>235.1</ele>
        <time>2024-11-20T14:03:20Z</time>
      </trkpt>
      <trkpt lat="48.17395" lon="-3.2971">
        <ele>235.1</ele>
        <time>2024-11-20T14:03:21Z</time>
      </trkpt>
      <trkpt lat="48.17395" lon="-3.2971">
        <ele>235.1</ele>
        <time>2024-11-20T14:03:22Z</time>
      </trkpt>
      <trkpt lat="48.17395" lon="-3.2971">
        <ele>235.1</ele>
        <time>2024-11-20T14:03:23Z</time>
      </trkpt>
      <trkpt lat="48.17395" lon="-3.2971">
        <ele>235.1</ele>
        <time>2024-11-20T14:03:24Z</time>
      </trkpt>
      <trkpt lat="48.17395" lon="-3.2971">
        <ele>235.1</ele>
        <time>2024-11-20T14:03:25Z</time>
      </trkpt>
      <trkpt lat="48.17395" lon="-3.29711">
        <ele>235.1</ele>
        <time>2024-11-20T14:03:26Z</time>
      </trkpt>
      <trkpt lat="48.17395" lon="-3.29711">
        <ele>235.1</ele>
        <time>2024-11-20T14:03:27Z</time>
      </trkpt>
      <trkpt lat="48.17395" lon="-3.29711">
        <ele>235.1</ele>
        <time>2024-11-20T14:03:28Z</time>
      </trkpt>
      <trkpt lat="48.17395" lon="-3.29711">
        <ele>235.1</ele>
        <time>2024-11-20T14:03:29Z</time>
      </trkpt>
      <trkpt lat="48.17395" lon="-3.29711">
        <ele>235.1</ele>
        <time>2024-11-20T14:03:30Z</time>
      </trkpt>
      <trkpt lat="48.17395" lon="-3.29711">
        <ele>235.1</ele>
        <time>2024-11-20T14:03:31Z</time>
      </trkpt>
      <trkpt lat="48.17395" lon="-3.29711">
        <ele>235.1</ele>
        <time>2024-11-20T14:03:32Z</time>
      </trkpt>
      <trkpt lat="48.17396" lon="-3.29711">
        <ele>235.1</ele>
        <time>2024-11-20T14:03:33Z</time>
      </trkpt>
      <trkpt lat="48.17396" lon="-3.29711">
        <ele>235.1</ele>
        <time>2024-11-20T14:03:34Z</time>
      </trkpt>
      <trkpt lat="48.17396" lon="-3.2971">
        <ele>235.1</ele>
        <time>2024-11-20T14:03:35Z</time>
      </trkpt>
      <trkpt lat="48.17396" lon="-3.29711">
        <ele>235.1</ele>
        <time>2024-11-20T14:03:36Z</time>
      </trkpt>
      <trkpt lat="48.17396" lon="-3.29711">
        <ele>235.1</ele>
        <time>2024-11-20T14:03:37Z</time>
      </trkpt>
      <trkpt lat="48.17396" lon="-3.29711">
        <ele>235.1</ele>
        <time>2024-11-20T14:03:38Z</time>
      </trkpt>
      <trkpt lat="48.17396" lon="-3.29711">
        <ele>235.1</ele>
        <time>2024-11-20T14:03:39Z</time>
      </trkpt>
      <trkpt lat="48.17396" lon="-3.29711">
        <ele>235.2</ele>
        <time>2024-11-20T14:03:40Z</time>
      </trkpt>
      <trkpt lat="48.17396" lon="-3.29711">
        <ele>235.2</ele>
        <time>2024-11-20T14:03:41Z</time>
      </trkpt>
      <trkpt lat="48.17396" lon="-3.29711">
        <ele>235.2</ele>
        <time>2024-11-20T14:03:42Z</time>
      </trkpt>
      <trkpt lat="48.17396" lon="-3.29711">
        <ele>235.1</ele>
        <time>2024-11-20T14:03:43Z</time>
      </trkpt>
      <trkpt lat="48.17396" lon="-3.29711">
        <ele>235.1</ele>
        <time>2024-11-20T14:03:44Z</time>
      </trkpt>
      <trkpt lat="48.17396" lon="-3.29711">
        <ele>235.1</ele>
        <time>2024-11-20T14:03:45Z</time>
      </trkpt>
      <trkpt lat="48.17396" lon="-3.29711">
        <ele>235.1</ele>
        <time>2024-11-20T14:03:46Z</time>
      </trkpt>
      <trkpt lat="48.17396" lon="-3.29711">
        <ele>235.1</ele>
        <time>2024-11-20T14:03:47Z</time>
      </trkpt>
      <trkpt lat="48.17396" lon="-3.29711">
        <ele>235.1</ele>
        <time>2024-11-20T14:03:48Z</time>
      </trkpt>
      <trkpt lat="48.17395" lon="-3.29711">
        <ele>235.1</ele>
        <time>2024-11-20T14:03:49Z</time>
      </trkpt>
      <trkpt lat="48.17396" lon="-3.29711">
        <ele>235.1</ele>
        <time>2024-11-20T14:03:50Z</time>
      </trkpt>
      <trkpt lat="48.17395" lon="-3.29712">
        <ele>235.1</ele>
        <time>2024-11-20T14:03:51Z</time>
      </trkpt>
      <trkpt lat="48.17395" lon="-3.29712">
        <ele>235.1</ele>
        <time>2024-11-20T14:03:52Z</time>
      </trkpt>
      <trkpt lat="48.17395" lon="-3.29712">
        <ele>235.1</ele>
        <time>2024-11-20T14:03:53Z</time>
      </trkpt>
      <trkpt lat="48.17395" lon="-3.29712">
        <ele>235.1</ele>
        <time>2024-11-20T14:03:54Z</time>
      </trkpt>
      <trkpt lat="48.17395" lon="-3.29712">
        <ele>235.1</ele>
        <time>2024-11-20T14:03:55Z</time>
      </trkpt>
      <trkpt lat="48.17395" lon="-3.29712">
        <ele>235.1</ele>
        <time>2024-11-20T14:03:56Z</time>
      </trkpt>
      <trkpt lat="48.17395" lon="-3.29712">
        <ele>235.1</ele>
        <time>2024-11-20T14:03:57Z</time>
      </trkpt>
      <trkpt lat="48.17395" lon="-3.29711">
        <ele>235.1</ele>
        <time>2024-11-20T14:03:58Z</time>
      </trkpt>
      <trkpt lat="48.17396" lon="-3.29712">
        <ele>235.1</ele>
        <time>2024-11-20T14:03:59Z</time>
      </trkpt>
      <trkpt lat="48.17395" lon="-3.29712">
        <ele>235.1</ele>
        <time>2024-11-20T14:04:00Z</time>
      </trkpt>
      <trkpt lat="48.17395" lon="-3.29712">
        <ele>235.1</ele>
        <time>2024-11-20T14:04:01Z</time>
      </trkpt>
      <trkpt lat="48.17395" lon="-3.29712">
        <ele>235.1</ele>
        <time>2024-11-20T14:04:02Z</time>
      </trkpt>
      <trkpt lat="48.17395" lon="-3.29712">
        <ele>235.1</ele>
        <time>2024-11-20T14:04:03Z</time>
      </trkpt>
      <trkpt lat="48.17395" lon="-3.29712">
        <ele>235.1</ele>
        <time>2024-11-20T14:04:04Z</time>
      </trkpt>
      <trkpt lat="48.17395" lon="-3.29712">
        <ele>235.1</ele>
        <time>2024-11-20T14:04:05Z</time>
      </trkpt>
      <trkpt lat="48.17395" lon="-3.29712">
        <ele>235.1</ele>
        <time>2024-11-20T14:04:06Z</time>
      </trkpt>
      <trkpt lat="48.17395" lon="-3.29712">
        <ele>235.1</ele>
        <time>2024-11-20T14:04:07Z</time>
      </trkpt>
      <trkpt lat="48.17395" lon="-3.29711">
        <ele>235.1</ele>
        <time>2024-11-20T14:04:08Z</time>
      </trkpt>
      <trkpt lat="48.17395" lon="-3.29711">
        <ele>235.1</ele>
        <time>2024-11-20T14:04:09Z</time>
      </trkpt>
      <trkpt lat="48.17395" lon="-3.29711">
        <ele>235.1</ele>
        <time>2024-11-20T14:04:10Z</time>
      </trkpt>
      <trkpt lat="48.17395" lon="-3.29711">
        <ele>235.1</ele>
        <time>2024-11-20T14:04:11Z</time>
      </trkpt>
      <trkpt lat="48.17395" lon="-3.2971">
        <ele>235.1</ele>
        <time>2024-11-20T14:04:12Z</time>
      </trkpt>
      <trkpt lat="48.17395" lon="-3.2971">
        <ele>235.1</ele>
        <time>2024-11-20T14:04:13Z</time>
      </trkpt>
      <trkpt lat="48.17395" lon="-3.2971">
        <ele>235.1</ele>
        <time>2024-11-20T14:04:14Z</time>
      </trkpt>
      <trkpt lat="48.17395" lon="-3.2971">
        <ele>235.1</ele>
        <time>2024-11-20T14:04:15Z</time>
      </trkpt>
      <trkpt lat="48.17395" lon="-3.29709">
        <ele>235.1</ele>
        <time>2024-11-20T14:04:16Z</time>
      </trkpt>
      <trkpt lat="48.17395" lon="-3.29709">
        <ele>235.1</ele>
        <time>2024-11-20T14:04:17Z</time>
      </trkpt>
      <trkpt lat="48.17395" lon="-3.29709">
        <ele>235.1</ele>
        <time>2024-11-20T14:04:18Z</time>
      </trkpt>
      <trkpt lat="48.17395" lon="-3.29709">
        <ele>235.1</ele>
        <time>2024-11-20T14:04:19Z</time>
      </trkpt>
      <trkpt lat="48.17395" lon="-3.29709">
        <ele>235.1</ele>
        <time>2024-11-20T14:04:20Z</time>
      </trkpt>
      <trkpt lat="48.17395" lon="-3.29709">
        <ele>235.1</ele>
        <time>2024-11-20T14:04:21Z</time>
      </trkpt>
      <trkpt lat="48.17395" lon="-3.29709">
        <ele>235.1</ele>
        <time>2024-11-20T14:04:22Z</time>
      </trkpt>
      <trkpt lat="48.17395" lon="-3.29709">
        <ele>235.1</ele>
        <time>2024-11-20T14:04:23Z</time>
      </trkpt>
      <trkpt lat="48.17395" lon="-3.29709">
        <ele>235.1</ele>
        <time>2024-11-20T14:04:24Z</time>
      </trkpt>
      <trkpt lat="48.17395" lon="-3.29709">
        <ele>235.1</ele>
        <time>2024-11-20T14:04:25Z</time>
      </trkpt>
      <trkpt lat="48.17395" lon="-3.29709">
        <ele>235.1</ele>
        <time>2024-11-20T14:04:26Z</time>
      </trkpt>
      <trkpt lat="48.17395" lon="-3.29709">
        <ele>235.1</ele>
        <time>2024-11-20T14:04:27Z</time>
      </trkpt>
      <trkpt lat="48.17395" lon="-3.29709">
        <ele>235.1</ele>
        <time>2024-11-20T14:04:28Z</time>
      </trkpt>
      <trkpt lat="48.17395" lon="-3.29709">
        <ele>235.1</ele>
        <time>2024-11-20T14:04:29Z</time>
      </trkpt>
      <trkpt lat="48.17395" lon="-3.29709">
        <ele>235.1</ele>
        <time>2024-11-20T14:04:30Z</time>
      </trkpt>
      <trkpt lat="48.17395" lon="-3.29709">
        <ele>235.1</ele>
        <time>2024-11-20T14:04:31Z</time>
      </trkpt>
      <trkpt lat="48.17395" lon="-3.29709">
        <ele>235.1</ele>
        <time>2024-11-20T14:04:32Z</time>
      </trkpt>
      <trkpt lat="48.17395" lon="-3.29709">
        <ele>235.1</ele>
        <time>2024-11-20T14:04:33Z</time>
      </trkpt>
      <trkpt lat="48.17395" lon="-3.29709">
        <ele>235.1</ele>
        <time>2024-11-20T14:04:34Z</time>
      </trkpt>
      <trkpt lat="48.17395" lon="-3.2971">
        <ele>235.1</ele>
        <time>2024-11-20T14:04:35Z</time>
      </trkpt>
      <trkpt lat="48.17395" lon="-3.2971">
        <ele>235.1</ele>
        <time>2024-11-20T14:04:36Z</time>
      </trkpt>
      <trkpt lat="48.17395" lon="-3.2971">
        <ele>235.1</ele>
        <time>2024-11-20T14:04:37Z</time>
      </trkpt>
      <trkpt lat="48.17396" lon="-3.2971">
        <ele>235.1</ele>
        <time>2024-11-20T14:04:38Z</time>
      </trkpt>
      <trkpt lat="48.17395" lon="-3.29711">
        <ele>235.1</ele>
        <time>2024-11-20T14:04:39Z</time>
      </trkpt>
      <trkpt lat="48.17395" lon="-3.29711">
        <ele>235.1</ele>
        <time>2024-11-20T14:04:40Z</time>
      </trkpt>
      <trkpt lat="48.17395" lon="-3.29711">
        <ele>235.1</ele>
        <time>2024-11-20T14:04:41Z</time>
      </trkpt>
      <trkpt lat="48.17395" lon="-3.29711">
        <ele>235.1</ele>
        <time>2024-11-20T14:04:42Z</time>
      </trkpt>
      <trkpt lat="48.17395" lon="-3.29711">
        <ele>235.1</ele>
        <time>2024-11-20T14:04:43Z</time>
      </trkpt>
      <trkpt lat="48.17395" lon="-3.29711">
        <ele>235.1</ele>
        <time>2024-11-20T14:04:44Z</time>
      </trkpt>
      <trkpt lat="48.17395" lon="-3.29712">
        <ele>235.1</ele>
        <time>2024-11-20T14:04:45Z</time>
      </trkpt>
      <trkpt lat="48.17395" lon="-3.29712">
        <ele>235.1</ele>
        <time>2024-11-20T14:04:46Z</time>
      </trkpt>
      <trkpt lat="48.17395" lon="-3.29712">
        <ele>235.1</ele>
        <time>2024-11-20T14:04:47Z</time>
      </trkpt>
      <trkpt lat="48.17395" lon="-3.29712">
        <ele>235.1</ele>
        <time>2024-11-20T14:04:48Z</time>
      </trkpt>
      <trkpt lat="48.17395" lon="-3.29712">
        <ele>235.1</ele>
        <time>2024-11-20T14:04:49Z</time>
      </trkpt>
      <trkpt lat="48.17395" lon="-3.29712">
        <ele>235.1</ele>
        <time>2024-11-20T14:04:50Z</time>
      </trkpt>
      <trkpt lat="48.17395" lon="-3.29712">
        <ele>235.1</ele>
        <time>2024-11-20T14:04:51Z</time>
      </trkpt>
      <trkpt lat="48.17395" lon="-3.29712">
        <ele>235.1</ele>
        <time>2024-11-20T14:04:52Z</time>
      </trkpt>
      <trkpt lat="48.17395" lon="-3.29713">
        <ele>235.1</ele>
        <time>2024-11-20T14:04:53Z</time>
      </trkpt>
      <trkpt lat="48.17395" lon="-3.29713">
        <ele>235.1</ele>
        <time>2024-11-20T14:04:54Z</time>
      </trkpt>
      <trkpt lat="48.17395" lon="-3.29713">
        <ele>235.1</ele>
        <time>2024-11-20T14:04:55Z</time>
      </trkpt>
      <trkpt lat="48.17395" lon="-3.29713">
        <ele>235.1</ele>
        <time>2024-11-20T14:04:56Z</time>
      </trkpt>
      <trkpt lat="48.17395" lon="-3.29713">
        <ele>235.1</ele>
        <time>2024-11-20T14:04:57Z</time>
      </trkpt>
      <trkpt lat="48.17395" lon="-3.29713">
        <ele>235.1</ele>
        <time>2024-11-20T14:04:58Z</time>
      </trkpt>
      <trkpt lat="48.17395" lon="-3.29713">
        <ele>235.1</ele>
        <time>2024-11-20T14:04:59Z</time>
      </trkpt>
      <trkpt lat="48.17395" lon="-3.29713">
        <ele>235.1</ele>
        <time>2024-11-20T14:05:00Z</time>
      </trkpt>
      <trkpt lat="48.17394" lon="-3.29713">
        <ele>235.1</ele>
        <time>2024-11-20T14:05:01Z</time>
      </trkpt>
      <trkpt lat="48.17394" lon="-3.29713">
        <ele>235.1</ele>
        <time>2024-11-20T14:05:02Z</time>
      </trkpt>
      <trkpt lat="48.17394" lon="-3.29713">
        <ele>235.1</ele>
        <time>2024-11-20T14:05:03Z</time>
      </trkpt>
      <trkpt lat="48.17394" lon="-3.29713">
        <ele>235.1</ele>
        <time>2024-11-20T14:05:04Z</time>
      </trkpt>
      <trkpt lat="48.17394" lon="-3.29713">
        <ele>235.1</ele>
        <time>2024-11-20T14:05:05Z</time>
      </trkpt>
      <trkpt lat="48.17394" lon="-3.29713">
        <ele>235.1</ele>
        <time>2024-11-20T14:05:06Z</time>
      </trkpt>
      <trkpt lat="48.17394" lon="-3.29713">
        <ele>235.1</ele>
        <time>2024-11-20T14:05:07Z</time>
      </trkpt>
      <trkpt lat="48.17394" lon="-3.29713">
        <ele>235.1</ele>
        <time>2024-11-20T14:05:08Z</time>
      </trkpt>
      <trkpt lat="48.17394" lon="-3.29713">
        <ele>235.1</ele>
        <time>2024-11-20T14:05:09Z</time>
      </trkpt>
      <trkpt lat="48.17394" lon="-3.29713">
        <ele>235.1</ele>
        <time>2024-11-20T14:05:10Z</time>
      </trkpt>
      <trkpt lat="48.17394" lon="-3.29713">
        <ele>235.1</ele>
        <time>2024-11-20T14:05:11Z</time>
      </trkpt>
      <trkpt lat="48.17394" lon="-3.29713">
        <ele>235.1</ele>
        <time>2024-11-20T14:05:12Z</time>
      </trkpt>
      <trkpt lat="48.17394" lon="-3.29713">
        <ele>235.1</ele>
        <time>2024-11-20T14:05:13Z</time>
      </trkpt>
      <trkpt lat="48.17394" lon="-3.29713">
        <ele>235.1</ele>
        <time>2024-11-20T14:05:14Z</time>
      </trkpt>
      <trkpt lat="48.17394" lon="-3.29712">
        <ele>235.1</ele>
        <time>2024-11-20T14:05:15Z</time>
      </trkpt>
      <trkpt lat="48.17394" lon="-3.29712">
        <ele>235.1</ele>
        <time>2024-11-20T14:05:16Z</time>
      </trkpt>
      <trkpt lat="48.17394" lon="-3.29712">
        <ele>235.1</ele>
        <time>2024-11-20T14:05:17Z</time>
      </trkpt>
      <trkpt lat="48.17394" lon="-3.29712">
        <ele>235.1</ele>
        <time>2024-11-20T14:05:18Z</time>
      </trkpt>
      <trkpt lat="48.17394" lon="-3.29712">
        <ele>235.1</ele>
        <time>2024-11-20T14:05:19Z</time>
      </trkpt>
      <trkpt lat="48.17394" lon="-3.29713">
        <ele>235.1</ele>
        <time>2024-11-20T14:05:20Z</time>
      </trkpt>
      <trkpt lat="48.17394" lon="-3.29713">
        <ele>235.1</ele>
        <time>2024-11-20T14:05:21Z</time>
      </trkpt>
      <trkpt lat="48.17394" lon="-3.29713">
        <ele>235.1</ele>
        <time>2024-11-20T14:05:22Z</time>
      </trkpt>
      <trkpt lat="48.17394" lon="-3.29713">
        <ele>235.1</ele>
        <time>2024-11-20T14:05:23Z</time>
      </trkpt>
      <trkpt lat="48.17394" lon="-3.29713">
        <ele>235.1</ele>
        <time>2024-11-20T14:05:24Z</time>
      </trkpt>
      <trkpt lat="48.17394" lon="-3.29713">
        <ele>235.1</ele>
        <time>2024-11-20T14:05:25Z</time>
      </trkpt>
      <trkpt lat="48.17394" lon="-3.29713">
        <ele>235.1</ele>
        <time>2024-11-20T14:05:26Z</time>
      </trkpt>
      <trkpt lat="48.17394" lon="-3.29714">
        <ele>235.1</ele>
        <time>2024-11-20T14:05:27Z</time>
      </trkpt>
      <trkpt lat="48.17394" lon="-3.29714">
        <ele>235.1</ele>
        <time>2024-11-20T14:05:28Z</time>
      </trkpt>
      <trkpt lat="48.17394" lon="-3.29715">
        <ele>235.1</ele>
        <time>2024-11-20T14:05:29Z</time>
      </trkpt>
      <trkpt lat="48.17394" lon="-3.29715">
        <ele>235.1</ele>
        <time>2024-11-20T14:05:30Z</time>
      </trkpt>
      <trkpt lat="48.17394" lon="-3.29716">
        <ele>235.1</ele>
        <time>2024-11-20T14:05:31Z</time>
      </trkpt>
      <trkpt lat="48.17393" lon="-3.29717">
        <ele>235.1</ele>
        <time>2024-11-20T14:05:32Z</time>
      </trkpt>
      <trkpt lat="48.17393" lon="-3.29718">
        <ele>235.1</ele>
        <time>2024-11-20T14:05:33Z</time>
      </trkpt>
      <trkpt lat="48.17393" lon="-3.29719">
        <ele>235.1</ele>
        <time>2024-11-20T14:05:34Z</time>
      </trkpt>
      <trkpt lat="48.17392" lon="-3.29721">
        <ele>235.1</ele>
        <time>2024-11-20T14:05:35Z</time>
      </trkpt>
      <trkpt lat="48.17392" lon="-3.29722">
        <ele>235.1</ele>
        <time>2024-11-20T14:05:36Z</time>
      </trkpt>
      <trkpt lat="48.17392" lon="-3.29724">
        <ele>235.1</ele>
        <time>2024-11-20T14:05:37Z</time>
      </trkpt>
      <trkpt lat="48.17393" lon="-3.29725">
        <ele>235.1</ele>
        <time>2024-11-20T14:05:38Z</time>
      </trkpt>
      <trkpt lat="48.17393" lon="-3.29727">
        <ele>235.1</ele>
        <time>2024-11-20T14:05:39Z</time>
      </trkpt>
      <trkpt lat="48.17393" lon="-3.29728">
        <ele>235.1</ele>
        <time>2024-11-20T14:05:40Z</time>
      </trkpt>
      <trkpt lat="48.17392" lon="-3.29729">
        <ele>235</ele>
        <time>2024-11-20T14:05:41Z</time>
      </trkpt>
      <trkpt lat="48.17392" lon="-3.29731">
        <ele>235</ele>
        <time>2024-11-20T14:05:42Z</time>
      </trkpt>
      <trkpt lat="48.17391" lon="-3.29731">
        <ele>235</ele>
        <time>2024-11-20T14:05:43Z</time>
      </trkpt>
      <trkpt lat="48.17391" lon="-3.29732">
        <ele>235</ele>
        <time>2024-11-20T14:05:44Z</time>
      </trkpt>
      <trkpt lat="48.1739" lon="-3.29733">
        <ele>235</ele>
        <time>2024-11-20T14:05:45Z</time>
      </trkpt>
      <trkpt lat="48.17389" lon="-3.29734">
        <ele>235</ele>
        <time>2024-11-20T14:05:46Z</time>
      </trkpt>
      <trkpt lat="48.17389" lon="-3.29735">
        <ele>235</ele>
        <time>2024-11-20T14:05:47Z</time>
      </trkpt>
      <trkpt lat="48.17388" lon="-3.29735">
        <ele>235</ele>
        <time>2024-11-20T14:05:48Z</time>
      </trkpt>
      <trkpt lat="48.17388" lon="-3.29736">
        <ele>235</ele>
        <time>2024-11-20T14:05:49Z</time>
      </trkpt>
      <trkpt lat="48.17387" lon="-3.29737">
        <ele>235</ele>
        <time>2024-11-20T14:05:50Z</time>
      </trkpt>
      <trkpt lat="48.17386" lon="-3.29738">
        <ele>235</ele>
        <time>2024-11-20T14:05:51Z</time>
      </trkpt>
      <trkpt lat="48.17386" lon="-3.29739">
        <ele>235</ele>
        <time>2024-11-20T14:05:52Z</time>
      </trkpt>
      <trkpt lat="48.17385" lon="-3.2974">
        <ele>235</ele>
        <time>2024-11-20T14:05:53Z</time>
      </trkpt>
      <trkpt lat="48.17384" lon="-3.29741">
        <ele>235</ele>
        <time>2024-11-20T14:05:54Z</time>
      </trkpt>
      <trkpt lat="48.17383" lon="-3.29741">
        <ele>235</ele>
        <time>2024-11-20T14:05:55Z</time>
      </trkpt>
      <trkpt lat="48.17383" lon="-3.29742">
        <ele>235</ele>
        <time>2024-11-20T14:05:56Z</time>
      </trkpt>
      <trkpt lat="48.17383" lon="-3.29742">
        <ele>235</ele>
        <time>2024-11-20T14:05:57Z</time>
      </trkpt>
      <trkpt lat="48.17382" lon="-3.29743">
        <ele>235</ele>
        <time>2024-11-20T14:05:58Z</time>
      </trkpt>
      <trkpt lat="48.17382" lon="-3.29744">
        <ele>235</ele>
        <time>2024-11-20T14:05:59Z</time>
      </trkpt>
      <trkpt lat="48.17382" lon="-3.29745">
        <ele>235</ele>
        <time>2024-11-20T14:06:00Z</time>
      </trkpt>
      <trkpt lat="48.17382" lon="-3.29746">
        <ele>235</ele>
        <time>2024-11-20T14:06:01Z</time>
      </trkpt>
      <trkpt lat="48.17383" lon="-3.29747">
        <ele>235</ele>
        <time>2024-11-20T14:06:02Z</time>
      </trkpt>
      <trkpt lat="48.17383" lon="-3.29748">
        <ele>235</ele>
        <time>2024-11-20T14:06:03Z</time>
      </trkpt>
      <trkpt lat="48.17382" lon="-3.29749">
        <ele>235</ele>
        <time>2024-11-20T14:06:04Z</time>
      </trkpt>
      <trkpt lat="48.17381" lon="-3.29749">
        <ele>235</ele>
        <time>2024-11-20T14:06:05Z</time>
      </trkpt>
      <trkpt lat="48.17381" lon="-3.29749">
        <ele>235</ele>
        <time>2024-11-20T14:06:06Z</time>
      </trkpt>
      <trkpt lat="48.17381" lon="-3.29749">
        <ele>235</ele>
        <time>2024-11-20T14:06:07Z</time>
      </trkpt>
      <trkpt lat="48.17381" lon="-3.29749">
        <ele>235</ele>
        <time>2024-11-20T14:06:08Z</time>
      </trkpt>
      <trkpt lat="48.17381" lon="-3.29749">
        <ele>235</ele>
        <time>2024-11-20T14:06:09Z</time>
      </trkpt>
      <trkpt lat="48.17381" lon="-3.29749">
        <ele>235</ele>
        <time>2024-11-20T14:06:10Z</time>
      </trkpt>
      <trkpt lat="48.17381" lon="-3.29749">
        <ele>235</ele>
        <time>2024-11-20T14:06:11Z</time>
      </trkpt>
      <trkpt lat="48.17381" lon="-3.29749">
        <ele>235</ele>
        <time>2024-11-20T14:06:12Z</time>
      </trkpt>
      <trkpt lat="48.17381" lon="-3.29749">
        <ele>235</ele>
        <time>2024-11-20T14:06:13Z</time>
      </trkpt>
      <trkpt lat="48.17382" lon="-3.29749">
        <ele>235</ele>
        <time>2024-11-20T14:06:14Z</time>
      </trkpt>
      <trkpt lat="48.17382" lon="-3.29749">
        <ele>235</ele>
        <time>2024-11-20T14:06:15Z</time>
      </trkpt>
      <trkpt lat="48.17382" lon="-3.29749">
        <ele>235</ele>
        <time>2024-11-20T14:06:16Z</time>
      </trkpt>
      <trkpt lat="48.17382" lon="-3.29749">
        <ele>235</ele>
        <time>2024-11-20T14:06:17Z</time>
      </trkpt>
      <trkpt lat="48.17382" lon="-3.29749">
        <ele>235</ele>
        <time>2024-11-20T14:06:18Z</time>
      </trkpt>
      <trkpt lat="48.17382" lon="-3.29749">
        <ele>235</ele>
        <time>2024-11-20T14:06:19Z</time>
      </trkpt>
      <trkpt lat="48.17382" lon="-3.29749">
        <ele>235</ele>
        <time>2024-11-20T14:06:20Z</time>
      </trkpt>
      <trkpt lat="48.17382" lon="-3.29749">
        <ele>235</ele>
        <time>2024-11-20T14:06:21Z</time>
      </trkpt>
      <trkpt lat="48.17382" lon="-3.29749">
        <ele>235</ele>
        <time>2024-11-20T14:06:22Z</time>
      </trkpt>
      <trkpt lat="48.17382" lon="-3.29749">
        <ele>235</ele>
        <time>2024-11-20T14:06:23Z</time>
      </trkpt>
      <trkpt lat="48.17382" lon="-3.29749">
        <ele>235</ele>
        <time>2024-11-20T14:06:24Z</time>
      </trkpt>
      <trkpt lat="48.17382" lon="-3.29749">
        <ele>235</ele>
        <time>2024-11-20T14:06:25Z</time>
      </trkpt>
      <trkpt lat="48.17382" lon="-3.29749">
        <ele>235</ele>
        <time>2024-11-20T14:06:26Z</time>
      </trkpt>
      <trkpt lat="48.17382" lon="-3.29749">
        <ele>235</ele>
        <time>2024-11-20T14:06:27Z</time>
      </trkpt>
      <trkpt lat="48.17382" lon="-3.29749">
        <ele>235</ele>
        <time>2024-11-20T14:06:28Z</time>
      </trkpt>
      <trkpt lat="48.17382" lon="-3.29749">
        <ele>235</ele>
        <time>2024-11-20T14:06:29Z</time>
      </trkpt>
      <trkpt lat="48.17382" lon="-3.29749">
        <ele>235</ele>
        <time>2024-11-20T14:06:30Z</time>
      </trkpt>
      <trkpt lat="48.17382" lon="-3.29749">
        <ele>235</ele>
        <time>2024-11-20T14:06:31Z</time>
      </trkpt>
      <trkpt lat="48.17382" lon="-3.29749">
        <ele>235</ele>
        <time>2024-11-20T14:06:32Z</time>
      </trkpt>
      <trkpt lat="48.17382" lon="-3.29749">
        <ele>235</ele>
        <time>2024-11-20T14:06:33Z</time>
      </trkpt>
      <trkpt lat="48.17382" lon="-3.29749">
        <ele>235</ele>
        <time>2024-11-20T14:06:34Z</time>
      </trkpt>
      <trkpt lat="48.17382" lon="-3.29749">
        <ele>235</ele>
        <time>2024-11-20T14:06:35Z</time>
      </trkpt>
      <trkpt lat="48.17382" lon="-3.29749">
        <ele>235</ele>
        <time>2024-11-20T14:06:36Z</time>
      </trkpt>
      <trkpt lat="48.17382" lon="-3.29749">
        <ele>235</ele>
        <time>2024-11-20T14:06:37Z</time>
      </trkpt>
      <trkpt lat="48.17382" lon="-3.29749">
        <ele>235</ele>
        <time>2024-11-20T14:06:39Z</time>
      </trkpt>
      <trkpt lat="48.17382" lon="-3.29749">
        <ele>235</ele>
        <time>2024-11-20T14:06:40Z</time>
      </trkpt>
      <trkpt lat="48.17382" lon="-3.29749">
        <ele>235</ele>
        <time>2024-11-20T14:06:41Z</time>
      </trkpt>
      <trkpt lat="48.17382" lon="-3.29749">
        <ele>235</ele>
        <time>2024-11-20T14:06:42Z</time>
      </trkpt>
      <trkpt lat="48.17382" lon="-3.29749">
        <ele>235</ele>
        <time>2024-11-20T14:06:43Z</time>
      </trkpt>
      <trkpt lat="48.17382" lon="-3.29749">
        <ele>235</ele>
        <time>2024-11-20T14:06:44Z</time>
      </trkpt>
      <trkpt lat="48.17382" lon="-3.29749">
        <ele>235</ele>
        <time>2024-11-20T14:06:45Z</time>
      </trkpt>
      <trkpt lat="48.17382" lon="-3.29749">
        <ele>235</ele>
        <time>2024-11-20T14:06:46Z</time>
      </trkpt>
      <trkpt lat="48.17382" lon="-3.29749">
        <ele>235</ele>
        <time>2024-11-20T14:06:47Z</time>
      </trkpt>
      <trkpt lat="48.17382" lon="-3.29749">
        <ele>235</ele>
        <time>2024-11-20T14:06:48Z</time>
      </trkpt>
      <trkpt lat="48.17382" lon="-3.29749">
        <ele>235</ele>
        <time>2024-11-20T14:06:49Z</time>
      </trkpt>
      <trkpt lat="48.17382" lon="-3.29749">
        <ele>235</ele>
        <time>2024-11-20T14:06:50Z</time>
      </trkpt>
      <trkpt lat="48.17382" lon="-3.29749">
        <ele>235</ele>
        <time>2024-11-20T14:06:51Z</time>
      </trkpt>
      <trkpt lat="48.17382" lon="-3.29749">
        <ele>235</ele>
        <time>2024-11-20T14:06:52Z</time>
      </trkpt>
      <trkpt lat="48.17382" lon="-3.29749">
        <ele>235</ele>
        <time>2024-11-20T14:06:53Z</time>
      </trkpt>
      <trkpt lat="48.17382" lon="-3.29749">
        <ele>235</ele>
        <time>2024-11-20T14:06:54Z</time>
      </trkpt>
      <trkpt lat="48.17382" lon="-3.29749">
        <ele>235</ele>
        <time>2024-11-20T14:06:55Z</time>
      </trkpt>
      <trkpt lat="48.17382" lon="-3.2975">
        <ele>235</ele>
        <time>2024-11-20T14:06:56Z</time>
      </trkpt>
      <trkpt lat="48.17382" lon="-3.29751">
        <ele>235</ele>
        <time>2024-11-20T14:06:57Z</time>
      </trkpt>
      <trkpt lat="48.17382" lon="-3.29751">
        <ele>235</ele>
        <time>2024-11-20T14:06:58Z</time>
      </trkpt>
      <trkpt lat="48.17382" lon="-3.29751">
        <ele>235</ele>
        <time>2024-11-20T14:06:59Z</time>
      </trkpt>
      <trkpt lat="48.17382" lon="-3.29751">
        <ele>235</ele>
        <time>2024-11-20T14:07:00Z</time>
      </trkpt>
      <trkpt lat="48.17382" lon="-3.29751">
        <ele>235</ele>
        <time>2024-11-20T14:07:01Z</time>
      </trkpt>
      <trkpt lat="48.17382" lon="-3.29751">
        <ele>235</ele>
        <time>2024-11-20T14:07:02Z</time>
      </trkpt>
      <trkpt lat="48.17382" lon="-3.29751">
        <ele>235</ele>
        <time>2024-11-20T14:07:03Z</time>
      </trkpt>
      <trkpt lat="48.17382" lon="-3.29751">
        <ele>235</ele>
        <time>2024-11-20T14:07:04Z</time>
      </trkpt>
      <trkpt lat="48.17382" lon="-3.29751">
        <ele>235</ele>
        <time>2024-11-20T14:07:05Z</time>
      </trkpt>
      <trkpt lat="48.17382" lon="-3.29751">
        <ele>235</ele>
        <time>2024-11-20T14:07:06Z</time>
      </trkpt>
      <trkpt lat="48.17382" lon="-3.29751">
        <ele>235</ele>
        <time>2024-11-20T14:07:07Z</time>
      </trkpt>
      <trkpt lat="48.17382" lon="-3.29751">
        <ele>235</ele>
        <time>2024-11-20T14:07:08Z</time>
      </trkpt>
      <trkpt lat="48.17382" lon="-3.29751">
        <ele>235</ele>
        <time>2024-11-20T14:07:09Z</time>
      </trkpt>
      <trkpt lat="48.17382" lon="-3.29751">
        <ele>235</ele>
        <time>2024-11-20T14:07:10Z</time>
      </trkpt>
      <trkpt lat="48.17382" lon="-3.29751">
        <ele>235</ele>
        <time>2024-11-20T14:07:11Z</time>
      </trkpt>
      <trkpt lat="48.17382" lon="-3.29751">
        <ele>235</ele>
        <time>2024-11-20T14:07:12Z</time>
      </trkpt>
      <trkpt lat="48.17382" lon="-3.29752">
        <ele>235</ele>
        <time>2024-11-20T14:07:13Z</time>
      </trkpt>
      <trkpt lat="48.17382" lon="-3.29752">
        <ele>234.9</ele>
        <time>2024-11-20T14:07:14Z</time>
      </trkpt>
      <trkpt lat="48.17382" lon="-3.29752">
        <ele>234.9</ele>
        <time>2024-11-20T14:07:15Z</time>
      </trkpt>
      <trkpt lat="48.17383" lon="-3.29753">
        <ele>234.9</ele>
        <time>2024-11-20T14:07:16Z</time>
      </trkpt>
      <trkpt lat="48.17383" lon="-3.29753">
        <ele>234.9</ele>
        <time>2024-11-20T14:07:17Z</time>
      </trkpt>
      <trkpt lat="48.17383" lon="-3.29753">
        <ele>234.9</ele>
        <time>2024-11-20T14:07:18Z</time>
      </trkpt>
      <trkpt lat="48.17383" lon="-3.29753">
        <ele>234.9</ele>
        <time>2024-11-20T14:07:19Z</time>
      </trkpt>
      <trkpt lat="48.17383" lon="-3.29753">
        <ele>234.9</ele>
        <time>2024-11-20T14:07:20Z</time>
      </trkpt>
      <trkpt lat="48.17384" lon="-3.29753">
        <ele>234.9</ele>
        <time>2024-11-20T14:07:21Z</time>
      </trkpt>
      <trkpt lat="48.17384" lon="-3.29753">
        <ele>234.9</ele>
        <time>2024-11-20T14:07:22Z</time>
      </trkpt>
      <trkpt lat="48.17384" lon="-3.29753">
        <ele>234.9</ele>
        <time>2024-11-20T14:07:23Z</time>
      </trkpt>
      <trkpt lat="48.17384" lon="-3.29753">
        <ele>234.9</ele>
        <time>2024-11-20T14:07:24Z</time>
      </trkpt>
      <trkpt lat="48.17384" lon="-3.29753">
        <ele>234.9</ele>
        <time>2024-11-20T14:07:25Z</time>
      </trkpt>
      <trkpt lat="48.17384" lon="-3.29753">
        <ele>234.9</ele>
        <time>2024-11-20T14:07:26Z</time>
      </trkpt>
      <trkpt lat="48.17384" lon="-3.29753">
        <ele>234.9</ele>
        <time>2024-11-20T14:07:27Z</time>
      </trkpt>
      <trkpt lat="48.17384" lon="-3.29753">
        <ele>234.9</ele>
        <time>2024-11-20T14:07:28Z</time>
      </trkpt>
      <trkpt lat="48.17384" lon="-3.29753">
        <ele>234.9</ele>
        <time>2024-11-20T14:07:29Z</time>
      </trkpt>
      <trkpt lat="48.17384" lon="-3.29754">
        <ele>234.9</ele>
        <time>2024-11-20T14:07:30Z</time>
      </trkpt>
      <trkpt lat="48.17384" lon="-3.29754">
        <ele>234.9</ele>
        <time>2024-11-20T14:07:31Z</time>
      </trkpt>
      <trkpt lat="48.17384" lon="-3.29754">
        <ele>234.9</ele>
        <time>2024-11-20T14:07:32Z</time>
      </trkpt>
      <trkpt lat="48.17384" lon="-3.29754">
        <ele>234.9</ele>
        <time>2024-11-20T14:07:33Z</time>
      </trkpt>
      <trkpt lat="48.17384" lon="-3.29754">
        <ele>234.9</ele>
        <time>2024-11-20T14:07:34Z</time>
      </trkpt>
      <trkpt lat="48.17384" lon="-3.29754">
        <ele>234.9</ele>
        <time>2024-11-20T14:07:35Z</time>
      </trkpt>
      <trkpt lat="48.17384" lon="-3.29754">
        <ele>234.9</ele>
        <time>2024-11-20T14:07:36Z</time>
      </trkpt>
      <trkpt lat="48.17384" lon="-3.29754">
        <ele>234.9</ele>
        <time>2024-11-20T14:07:37Z</time>
      </trkpt>
      <trkpt lat="48.17383" lon="-3.29753">
        <ele>234.9</ele>
        <time>2024-11-20T14:07:38Z</time>
      </trkpt>
      <trkpt lat="48.17383" lon="-3.29752">
        <ele>234.9</ele>
        <time>2024-11-20T14:07:39Z</time>
      </trkpt>
      <trkpt lat="48.17383" lon="-3.29753">
        <ele>234.9</ele>
        <time>2024-11-20T14:07:40Z</time>
      </trkpt>
      <trkpt lat="48.17382" lon="-3.29753">
        <ele>234.9</ele>
        <time>2024-11-20T14:07:41Z</time>
      </trkpt>
      <trkpt lat="48.17382" lon="-3.29753">
        <ele>234.9</ele>
        <time>2024-11-20T14:07:42Z</time>
      </trkpt>
      <trkpt lat="48.17381" lon="-3.29753">
        <ele>234.9</ele>
        <time>2024-11-20T14:07:43Z</time>
      </trkpt>
      <trkpt lat="48.1738" lon="-3.29754">
        <ele>234.9</ele>
        <time>2024-11-20T14:07:44Z</time>
      </trkpt>
      <trkpt lat="48.1738" lon="-3.29755">
        <ele>234.9</ele>
        <time>2024-11-20T14:07:45Z</time>
      </trkpt>
      <trkpt lat="48.1738" lon="-3.29756">
        <ele>234.9</ele>
        <time>2024-11-20T14:07:46Z</time>
      </trkpt>
      <trkpt lat="48.1738" lon="-3.29757">
        <ele>234.8</ele>
        <time>2024-11-20T14:07:47Z</time>
      </trkpt>
      <trkpt lat="48.1738" lon="-3.29758">
        <ele>234.8</ele>
        <time>2024-11-20T14:07:48Z</time>
      </trkpt>
      <trkpt lat="48.1738" lon="-3.29759">
        <ele>234.8</ele>
        <time>2024-11-20T14:07:49Z</time>
      </trkpt>
      <trkpt lat="48.1738" lon="-3.2976">
        <ele>234.8</ele>
        <time>2024-11-20T14:07:50Z</time>
      </trkpt>
      <trkpt lat="48.17379" lon="-3.29761">
        <ele>234.7</ele>
        <time>2024-11-20T14:07:51Z</time>
      </trkpt>
      <trkpt lat="48.17379" lon="-3.29762">
        <ele>234.7</ele>
        <time>2024-11-20T14:07:52Z</time>
      </trkpt>
      <trkpt lat="48.17378" lon="-3.29763">
        <ele>234.7</ele>
        <time>2024-11-20T14:07:53Z</time>
      </trkpt>
      <trkpt lat="48.17377" lon="-3.29763">
        <ele>234.7</ele>
        <time>2024-11-20T14:07:54Z</time>
      </trkpt>
      <trkpt lat="48.17377" lon="-3.29763">
        <ele>234.7</ele>
        <time>2024-11-20T14:07:55Z</time>
      </trkpt>
      <trkpt lat="48.17376" lon="-3.29763">
        <ele>234.8</ele>
        <time>2024-11-20T14:07:56Z</time>
      </trkpt>
      <trkpt lat="48.17376" lon="-3.29762">
        <ele>234.8</ele>
        <time>2024-11-20T14:07:57Z</time>
      </trkpt>
      <trkpt lat="48.17376" lon="-3.29762">
        <ele>234.8</ele>
        <time>2024-11-20T14:07:58Z</time>
      </trkpt>
      <trkpt lat="48.17376" lon="-3.29762">
        <ele>234.8</ele>
        <time>2024-11-20T14:07:59Z</time>
      </trkpt>
      <trkpt lat="48.17376" lon="-3.29762">
        <ele>234.8</ele>
        <time>2024-11-20T14:08:00Z</time>
      </trkpt>
      <trkpt lat="48.17376" lon="-3.29762">
        <ele>234.8</ele>
        <time>2024-11-20T14:08:01Z</time>
      </trkpt>
      <trkpt lat="48.17375" lon="-3.29762">
        <ele>234.8</ele>
        <time>2024-11-20T14:08:02Z</time>
      </trkpt>
      <trkpt lat="48.17375" lon="-3.29762">
        <ele>234.8</ele>
        <time>2024-11-20T14:08:03Z</time>
      </trkpt>
      <trkpt lat="48.17375" lon="-3.29762">
        <ele>234.8</ele>
        <time>2024-11-20T14:08:04Z</time>
      </trkpt>
      <trkpt lat="48.17375" lon="-3.29762">
        <ele>234.8</ele>
        <time>2024-11-20T14:08:05Z</time>
      </trkpt>
      <trkpt lat="48.17375" lon="-3.29761">
        <ele>234.8</ele>
        <time>2024-11-20T14:08:06Z</time>
      </trkpt>
      <trkpt lat="48.17374" lon="-3.29762">
        <ele>234.8</ele>
        <time>2024-11-20T14:08:07Z</time>
      </trkpt>
      <trkpt lat="48.17374" lon="-3.29762">
        <ele>234.8</ele>
        <time>2024-11-20T14:08:08Z</time>
      </trkpt>
      <trkpt lat="48.17373" lon="-3.29763">
        <ele>234.8</ele>
        <time>2024-11-20T14:08:09Z</time>
      </trkpt>
      <trkpt lat="48.17372" lon="-3.29764">
        <ele>234.8</ele>
        <time>2024-11-20T14:08:10Z</time>
      </trkpt>
      <trkpt lat="48.17371" lon="-3.29765">
        <ele>234.8</ele>
        <time>2024-11-20T14:08:11Z</time>
      </trkpt>
      <trkpt lat="48.1737" lon="-3.29766">
        <ele>234.8</ele>
        <time>2024-11-20T14:08:12Z</time>
      </trkpt>
      <trkpt lat="48.17369" lon="-3.29766">
        <ele>234.8</ele>
        <time>2024-11-20T14:08:13Z</time>
      </trkpt>
      <trkpt lat="48.17369" lon="-3.29768">
        <ele>234.8</ele>
        <time>2024-11-20T14:08:14Z</time>
      </trkpt>
      <trkpt lat="48.17368" lon="-3.29769">
        <ele>234.8</ele>
        <time>2024-11-20T14:08:15Z</time>
      </trkpt>
      <trkpt lat="48.17367" lon="-3.2977">
        <ele>234.8</ele>
        <time>2024-11-20T14:08:16Z</time>
      </trkpt>
      <trkpt lat="48.17367" lon="-3.2977">
        <ele>234.9</ele>
        <time>2024-11-20T14:08:17Z</time>
      </trkpt>
      <trkpt lat="48.17366" lon="-3.29771">
        <ele>234.9</ele>
        <time>2024-11-20T14:08:18Z</time>
      </trkpt>
      <trkpt lat="48.17365" lon="-3.29773">
        <ele>234.9</ele>
        <time>2024-11-20T14:08:19Z</time>
      </trkpt>
      <trkpt lat="48.17365" lon="-3.29774">
        <ele>234.9</ele>
        <time>2024-11-20T14:08:20Z</time>
      </trkpt>
      <trkpt lat="48.17364" lon="-3.29775">
        <ele>234.9</ele>
        <time>2024-11-20T14:08:21Z</time>
      </trkpt>
      <trkpt lat="48.17364" lon="-3.29776">
        <ele>234.9</ele>
        <time>2024-11-20T14:08:22Z</time>
      </trkpt>
      <trkpt lat="48.17363" lon="-3.29778">
        <ele>234.9</ele>
        <time>2024-11-20T14:08:23Z</time>
      </trkpt>
      <trkpt lat="48.17362" lon="-3.29779">
        <ele>234.9</ele>
        <time>2024-11-20T14:08:24Z</time>
      </trkpt>
      <trkpt lat="48.17361" lon="-3.2978">
        <ele>234.9</ele>
        <time>2024-11-20T14:08:25Z</time>
      </trkpt>
      <trkpt lat="48.17361" lon="-3.29781">
        <ele>234.9</ele>
        <time>2024-11-20T14:08:26Z</time>
      </trkpt>
      <trkpt lat="48.1736" lon="-3.29781">
        <ele>234.9</ele>
        <time>2024-11-20T14:08:27Z</time>
      </trkpt>
      <trkpt lat="48.1736" lon="-3.29781">
        <ele>234.9</ele>
        <time>2024-11-20T14:08:28Z</time>
      </trkpt>
      <trkpt lat="48.17359" lon="-3.29782">
        <ele>234.9</ele>
        <time>2024-11-20T14:08:29Z</time>
      </trkpt>
      <trkpt lat="48.17358" lon="-3.29782">
        <ele>234.8</ele>
        <time>2024-11-20T14:08:30Z</time>
      </trkpt>
      <trkpt lat="48.17357" lon="-3.29783">
        <ele>234.8</ele>
        <time>2024-11-20T14:08:31Z</time>
      </trkpt>
      <trkpt lat="48.17357" lon="-3.29783">
        <ele>234.8</ele>
        <time>2024-11-20T14:08:32Z</time>
      </trkpt>
      <trkpt lat="48.17356" lon="-3.29783">
        <ele>234.8</ele>
        <time>2024-11-20T14:08:33Z</time>
      </trkpt>
      <trkpt lat="48.17356" lon="-3.29783">
        <ele>234.8</ele>
        <time>2024-11-20T14:08:34Z</time>
      </trkpt>
      <trkpt lat="48.17356" lon="-3.29783">
        <ele>234.8</ele>
        <time>2024-11-20T14:08:35Z</time>
      </trkpt>
      <trkpt lat="48.17355" lon="-3.29784">
        <ele>234.8</ele>
        <time>2024-11-20T14:08:36Z</time>
      </trkpt>
      <trkpt lat="48.17354" lon="-3.29784">
        <ele>234.8</ele>
        <time>2024-11-20T14:08:37Z</time>
      </trkpt>
      <trkpt lat="48.17354" lon="-3.29784">
        <ele>234.8</ele>
        <time>2024-11-20T14:08:38Z</time>
      </trkpt>
      <trkpt lat="48.17353" lon="-3.29784">
        <ele>234.8</ele>
        <time>2024-11-20T14:08:39Z</time>
      </trkpt>
      <trkpt lat="48.17352" lon="-3.29784">
        <ele>234.8</ele>
        <time>2024-11-20T14:08:40Z</time>
      </trkpt>
      <trkpt lat="48.17352" lon="-3.29784">
        <ele>234.8</ele>
        <time>2024-11-20T14:08:41Z</time>
      </trkpt>
      <trkpt lat="48.1735" lon="-3.29784">
        <ele>234.8</ele>
        <time>2024-11-20T14:08:42Z</time>
      </trkpt>
      <trkpt lat="48.1735" lon="-3.29785">
        <ele>234.8</ele>
        <time>2024-11-20T14:08:43Z</time>
      </trkpt>
      <trkpt lat="48.1735" lon="-3.29785">
        <ele>234.7</ele>
        <time>2024-11-20T14:08:44Z</time>
      </trkpt>
      <trkpt lat="48.17349" lon="-3.29785">
        <ele>234.7</ele>
        <time>2024-11-20T14:08:45Z</time>
      </trkpt>
      <trkpt lat="48.17348" lon="-3.29786">
        <ele>234.7</ele>
        <time>2024-11-20T14:08:46Z</time>
      </trkpt>
      <trkpt lat="48.17347" lon="-3.29787">
        <ele>234.7</ele>
        <time>2024-11-20T14:08:47Z</time>
      </trkpt>
      <trkpt lat="48.17346" lon="-3.29787">
        <ele>234.7</ele>
        <time>2024-11-20T14:08:48Z</time>
      </trkpt>
      <trkpt lat="48.17345" lon="-3.29788">
        <ele>234.6</ele>
        <time>2024-11-20T14:08:49Z</time>
      </trkpt>
      <trkpt lat="48.17344" lon="-3.29789">
        <ele>234.6</ele>
        <time>2024-11-20T14:08:50Z</time>
      </trkpt>
      <trkpt lat="48.17343" lon="-3.29789">
        <ele>234.6</ele>
        <time>2024-11-20T14:08:51Z</time>
      </trkpt>
      <trkpt lat="48.17342" lon="-3.2979">
        <ele>234.6</ele>
        <time>2024-11-20T14:08:52Z</time>
      </trkpt>
      <trkpt lat="48.17341" lon="-3.29791">
        <ele>234.5</ele>
        <time>2024-11-20T14:08:53Z</time>
      </trkpt>
      <trkpt lat="48.1734" lon="-3.29791">
        <ele>234.5</ele>
        <time>2024-11-20T14:08:54Z</time>
      </trkpt>
      <trkpt lat="48.17339" lon="-3.29791">
        <ele>234.5</ele>
        <time>2024-11-20T14:08:55Z</time>
      </trkpt>
      <trkpt lat="48.17338" lon="-3.29791">
        <ele>234.5</ele>
        <time>2024-11-20T14:08:56Z</time>
      </trkpt>
      <trkpt lat="48.17336" lon="-3.29791">
        <ele>234.5</ele>
        <time>2024-11-20T14:08:57Z</time>
      </trkpt>
      <trkpt lat="48.17335" lon="-3.29791">
        <ele>234.5</ele>
        <time>2024-11-20T14:08:58Z</time>
      </trkpt>
      <trkpt lat="48.17334" lon="-3.29792">
        <ele>234.5</ele>
        <time>2024-11-20T14:08:59Z</time>
      </trkpt>
      <trkpt lat="48.17334" lon="-3.29792">
        <ele>234.5</ele>
        <time>2024-11-20T14:09:00Z</time>
      </trkpt>
      <trkpt lat="48.17333" lon="-3.29793">
        <ele>234.4</ele>
        <time>2024-11-20T14:09:01Z</time>
      </trkpt>
      <trkpt lat="48.17332" lon="-3.29793">
        <ele>234.4</ele>
        <time>2024-11-20T14:09:02Z</time>
      </trkpt>
      <trkpt lat="48.17331" lon="-3.29793">
        <ele>234.4</ele>
        <time>2024-11-20T14:09:03Z</time>
      </trkpt>
      <trkpt lat="48.1733" lon="-3.29794">
        <ele>234.3</ele>
        <time>2024-11-20T14:09:04Z</time>
      </trkpt>
      <trkpt lat="48.17329" lon="-3.29794">
        <ele>234.3</ele>
        <time>2024-11-20T14:09:05Z</time>
      </trkpt>
      <trkpt lat="48.17328" lon="-3.29794">
        <ele>234.2</ele>
        <time>2024-11-20T14:09:06Z</time>
      </trkpt>
      <trkpt lat="48.17327" lon="-3.29794">
        <ele>234.2</ele>
        <time>2024-11-20T14:09:07Z</time>
      </trkpt>
      <trkpt lat="48.17326" lon="-3.29794">
        <ele>234.1</ele>
        <time>2024-11-20T14:09:08Z</time>
      </trkpt>
      <trkpt lat="48.17325" lon="-3.29794">
        <ele>234.1</ele>
        <time>2024-11-20T14:09:09Z</time>
      </trkpt>
      <trkpt lat="48.17324" lon="-3.29794">
        <ele>234.1</ele>
        <time>2024-11-20T14:09:10Z</time>
      </trkpt>
      <trkpt lat="48.17322" lon="-3.29793">
        <ele>234</ele>
        <time>2024-11-20T14:09:11Z</time>
      </trkpt>
      <trkpt lat="48.17321" lon="-3.29793">
        <ele>234</ele>
        <time>2024-11-20T14:09:12Z</time>
      </trkpt>
      <trkpt lat="48.17319" lon="-3.29793">
        <ele>233.9</ele>
        <time>2024-11-20T14:09:13Z</time>
      </trkpt>
      <trkpt lat="48.17318" lon="-3.29793">
        <ele>233.9</ele>
        <time>2024-11-20T14:09:14Z</time>
      </trkpt>
      <trkpt lat="48.17316" lon="-3.29793">
        <ele>233.8</ele>
        <time>2024-11-20T14:09:15Z</time>
      </trkpt>
      <trkpt lat="48.17315" lon="-3.29793">
        <ele>233.8</ele>
        <time>2024-11-20T14:09:16Z</time>
      </trkpt>
      <trkpt lat="48.17313" lon="-3.29794">
        <ele>233.7</ele>
        <time>2024-11-20T14:09:17Z</time>
      </trkpt>
      <trkpt lat="48.17312" lon="-3.29794">
        <ele>233.6</ele>
        <time>2024-11-20T14:09:18Z</time>
      </trkpt>
      <trkpt lat="48.17311" lon="-3.29795">
        <ele>233.6</ele>
        <time>2024-11-20T14:09:19Z</time>
      </trkpt>
      <trkpt lat="48.1731" lon="-3.29795">
        <ele>233.6</ele>
        <time>2024-11-20T14:09:20Z</time>
      </trkpt>
      <trkpt lat="48.1731" lon="-3.29796">
        <ele>233.5</ele>
        <time>2024-11-20T14:09:21Z</time>
      </trkpt>
      <trkpt lat="48.17309" lon="-3.29796">
        <ele>233.5</ele>
        <time>2024-11-20T14:09:22Z</time>
      </trkpt>
      <trkpt lat="48.17308" lon="-3.29797">
        <ele>233.4</ele>
        <time>2024-11-20T14:09:23Z</time>
      </trkpt>
      <trkpt lat="48.17308" lon="-3.29797">
        <ele>233.4</ele>
        <time>2024-11-20T14:09:24Z</time>
      </trkpt>
      <trkpt lat="48.17306" lon="-3.29798">
        <ele>233.3</ele>
        <time>2024-11-20T14:09:25Z</time>
      </trkpt>
      <trkpt lat="48.17305" lon="-3.29798">
        <ele>233.3</ele>
        <time>2024-11-20T14:09:26Z</time>
      </trkpt>
      <trkpt lat="48.17305" lon="-3.29797">
        <ele>233.2</ele>
        <time>2024-11-20T14:09:27Z</time>
      </trkpt>
      <trkpt lat="48.17304" lon="-3.29797">
        <ele>233.2</ele>
        <time>2024-11-20T14:09:28Z</time>
      </trkpt>
      <trkpt lat="48.17303" lon="-3.29797">
        <ele>233.1</ele>
        <time>2024-11-20T14:09:29Z</time>
      </trkpt>
      <trkpt lat="48.17301" lon="-3.29796">
        <ele>233.1</ele>
        <time>2024-11-20T14:09:30Z</time>
      </trkpt>
      <trkpt lat="48.173" lon="-3.29796">
        <ele>233</ele>
        <time>2024-11-20T14:09:31Z</time>
      </trkpt>
      <trkpt lat="48.173" lon="-3.29796">
        <ele>233</ele>
        <time>2024-11-20T14:09:32Z</time>
      </trkpt>
      <trkpt lat="48.17299" lon="-3.29795">
        <ele>233</ele>
        <time>2024-11-20T14:09:33Z</time>
      </trkpt>
      <trkpt lat="48.17299" lon="-3.29794">
        <ele>233</ele>
        <time>2024-11-20T14:09:34Z</time>
      </trkpt>
      <trkpt lat="48.17299" lon="-3.29793">
        <ele>233.1</ele>
        <time>2024-11-20T14:09:35Z</time>
      </trkpt>
      <trkpt lat="48.17298" lon="-3.29792">
        <ele>233.1</ele>
        <time>2024-11-20T14:09:36Z</time>
      </trkpt>
      <trkpt lat="48.17298" lon="-3.29792">
        <ele>233.1</ele>
        <time>2024-11-20T14:09:37Z</time>
      </trkpt>
      <trkpt lat="48.17297" lon="-3.29791">
        <ele>233</ele>
        <time>2024-11-20T14:09:38Z</time>
      </trkpt>
      <trkpt lat="48.17295" lon="-3.29792">
        <ele>232.9</ele>
        <time>2024-11-20T14:09:39Z</time>
      </trkpt>
      <trkpt lat="48.17294" lon="-3.29792">
        <ele>232.8</ele>
        <time>2024-11-20T14:09:40Z</time>
      </trkpt>
      <trkpt lat="48.17292" lon="-3.29792">
        <ele>232.7</ele>
        <time>2024-11-20T14:09:41Z</time>
      </trkpt>
      <trkpt lat="48.1729" lon="-3.29793">
        <ele>232.6</ele>
        <time>2024-11-20T14:09:42Z</time>
      </trkpt>
      <trkpt lat="48.17289" lon="-3.29793">
        <ele>232.5</ele>
        <time>2024-11-20T14:09:43Z</time>
      </trkpt>
      <trkpt lat="48.17287" lon="-3.29794">
        <ele>232.3</ele>
        <time>2024-11-20T14:09:44Z</time>
      </trkpt>
      <trkpt lat="48.17286" lon="-3.29795">
        <ele>232.2</ele>
        <time>2024-11-20T14:09:45Z</time>
      </trkpt>
      <trkpt lat="48.17285" lon="-3.29795">
        <ele>232.2</ele>
        <time>2024-11-20T14:09:46Z</time>
      </trkpt>
      <trkpt lat="48.17283" lon="-3.29795">
        <ele>232.1</ele>
        <time>2024-11-20T14:09:47Z</time>
      </trkpt>
      <trkpt lat="48.17282" lon="-3.29796">
        <ele>232</ele>
        <time>2024-11-20T14:09:48Z</time>
      </trkpt>
      <trkpt lat="48.17281" lon="-3.29796">
        <ele>231.9</ele>
        <time>2024-11-20T14:09:49Z</time>
      </trkpt>
      <trkpt lat="48.1728" lon="-3.29796">
        <ele>231.8</ele>
        <time>2024-11-20T14:09:50Z</time>
      </trkpt>
      <trkpt lat="48.17279" lon="-3.29796">
        <ele>231.8</ele>
        <time>2024-11-20T14:09:51Z</time>
      </trkpt>
      <trkpt lat="48.17279" lon="-3.29796">
        <ele>231.7</ele>
        <time>2024-11-20T14:09:52Z</time>
      </trkpt>
      <trkpt lat="48.17278" lon="-3.29797">
        <ele>231.6</ele>
        <time>2024-11-20T14:09:53Z</time>
      </trkpt>
      <trkpt lat="48.17277" lon="-3.29797">
        <ele>231.6</ele>
        <time>2024-11-20T14:09:54Z</time>
      </trkpt>
      <trkpt lat="48.17277" lon="-3.29798">
        <ele>231.5</ele>
        <time>2024-11-20T14:09:55Z</time>
      </trkpt>
      <trkpt lat="48.17275" lon="-3.29798">
        <ele>231.4</ele>
        <time>2024-11-20T14:09:56Z</time>
      </trkpt>
      <trkpt lat="48.17274" lon="-3.29798">
        <ele>231.3</ele>
        <time>2024-11-20T14:09:57Z</time>
      </trkpt>
      <trkpt lat="48.17273" lon="-3.29798">
        <ele>231.2</ele>
        <time>2024-11-20T14:09:58Z</time>
      </trkpt>
      <trkpt lat="48.17272" lon="-3.29798">
        <ele>231.2</ele>
        <time>2024-11-20T14:09:59Z</time>
      </trkpt>
      <trkpt lat="48.17271" lon="-3.29797">
        <ele>231.1</ele>
        <time>2024-11-20T14:10:00Z</time>
      </trkpt>
      <trkpt lat="48.1727" lon="-3.29797">
        <ele>231.1</ele>
        <time>2024-11-20T14:10:01Z</time>
      </trkpt>
      <trkpt lat="48.1727" lon="-3.29798">
        <ele>231</ele>
        <time>2024-11-20T14:10:02Z</time>
      </trkpt>
      <trkpt lat="48.17269" lon="-3.29798">
        <ele>230.9</ele>
        <time>2024-11-20T14:10:03Z</time>
      </trkpt>
      <trkpt lat="48.17268" lon="-3.29799">
        <ele>230.8</ele>
        <time>2024-11-20T14:10:04Z</time>
      </trkpt>
      <trkpt lat="48.17267" lon="-3.29799">
        <ele>230.7</ele>
        <time>2024-11-20T14:10:05Z</time>
      </trkpt>
      <trkpt lat="48.17265" lon="-3.29799">
        <ele>230.6</ele>
        <time>2024-11-20T14:10:06Z</time>
      </trkpt>
      <trkpt lat="48.17263" lon="-3.29799">
        <ele>230.4</ele>
        <time>2024-11-20T14:10:07Z</time>
      </trkpt>
      <trkpt lat="48.17262" lon="-3.29799">
        <ele>230.3</ele>
        <time>2024-11-20T14:10:08Z</time>
      </trkpt>
      <trkpt lat="48.17261" lon="-3.29799">
        <ele>230.2</ele>
        <time>2024-11-20T14:10:09Z</time>
      </trkpt>
      <trkpt lat="48.1726" lon="-3.29799">
        <ele>230.1</ele>
        <time>2024-11-20T14:10:10Z</time>
      </trkpt>
      <trkpt lat="48.17258" lon="-3.29799">
        <ele>230</ele>
        <time>2024-11-20T14:10:11Z</time>
      </trkpt>
      <trkpt lat="48.17257" lon="-3.29799">
        <ele>229.9</ele>
        <time>2024-11-20T14:10:12Z</time>
      </trkpt>
      <trkpt lat="48.17256" lon="-3.29799">
        <ele>229.8</ele>
        <time>2024-11-20T14:10:13Z</time>
      </trkpt>
      <trkpt lat="48.17254" lon="-3.298">
        <ele>229.7</ele>
        <time>2024-11-20T14:10:14Z</time>
      </trkpt>
      <trkpt lat="48.17253" lon="-3.298">
        <ele>229.6</ele>
        <time>2024-11-20T14:10:15Z</time>
      </trkpt>
      <trkpt lat="48.17252" lon="-3.298">
        <ele>229.5</ele>
        <time>2024-11-20T14:10:16Z</time>
      </trkpt>
      <trkpt lat="48.17251" lon="-3.29801">
        <ele>229.4</ele>
        <time>2024-11-20T14:10:17Z</time>
      </trkpt>
      <trkpt lat="48.17249" lon="-3.29801">
        <ele>229.2</ele>
        <time>2024-11-20T14:10:18Z</time>
      </trkpt>
      <trkpt lat="48.17248" lon="-3.29801">
        <ele>229.1</ele>
        <time>2024-11-20T14:10:19Z</time>
      </trkpt>
      <trkpt lat="48.17246" lon="-3.29802">
        <ele>229</ele>
        <time>2024-11-20T14:10:20Z</time>
      </trkpt>
      <trkpt lat="48.17245" lon="-3.29802">
        <ele>228.9</ele>
        <time>2024-11-20T14:10:21Z</time>
      </trkpt>
      <trkpt lat="48.17244" lon="-3.29802">
        <ele>228.8</ele>
        <time>2024-11-20T14:10:22Z</time>
      </trkpt>
      <trkpt lat="48.17243" lon="-3.29802">
        <ele>228.7</ele>
        <time>2024-11-20T14:10:23Z</time>
      </trkpt>
      <trkpt lat="48.17241" lon="-3.29802">
        <ele>228.6</ele>
        <time>2024-11-20T14:10:24Z</time>
      </trkpt>
      <trkpt lat="48.1724" lon="-3.29802">
        <ele>228.5</ele>
        <time>2024-11-20T14:10:25Z</time>
      </trkpt>
      <trkpt lat="48.17239" lon="-3.29802">
        <ele>228.4</ele>
        <time>2024-11-20T14:10:26Z</time>
      </trkpt>
      <trkpt lat="48.17238" lon="-3.29802">
        <ele>228.3</ele>
        <time>2024-11-20T14:10:27Z</time>
      </trkpt>
      <trkpt lat="48.17238" lon="-3.29802">
        <ele>228.3</ele>
        <time>2024-11-20T14:10:28Z</time>
      </trkpt>
      <trkpt lat="48.17237" lon="-3.29802">
        <ele>228.2</ele>
        <time>2024-11-20T14:10:29Z</time>
      </trkpt>
      <trkpt lat="48.17236" lon="-3.29802">
        <ele>228.2</ele>
        <time>2024-11-20T14:10:30Z</time>
      </trkpt>
      <trkpt lat="48.17235" lon="-3.29803">
        <ele>228.1</ele>
        <time>2024-11-20T14:10:31Z</time>
      </trkpt>
      <trkpt lat="48.17234" lon="-3.29803">
        <ele>228</ele>
        <time>2024-11-20T14:10:32Z</time>
      </trkpt>
      <trkpt lat="48.17233" lon="-3.29803">
        <ele>227.9</ele>
        <time>2024-11-20T14:10:33Z</time>
      </trkpt>
      <trkpt lat="48.17232" lon="-3.29804">
        <ele>227.8</ele>
        <time>2024-11-20T14:10:34Z</time>
      </trkpt>
      <trkpt lat="48.17231" lon="-3.29805">
        <ele>227.6</ele>
        <time>2024-11-20T14:10:35Z</time>
      </trkpt>
      <trkpt lat="48.17229" lon="-3.29806">
        <ele>227.5</ele>
        <time>2024-11-20T14:10:36Z</time>
      </trkpt>
      <trkpt lat="48.17229" lon="-3.29806">
        <ele>227.5</ele>
        <time>2024-11-20T14:10:37Z</time>
      </trkpt>
      <trkpt lat="48.17228" lon="-3.29806">
        <ele>227.4</ele>
        <time>2024-11-20T14:10:38Z</time>
      </trkpt>
      <trkpt lat="48.17227" lon="-3.29806">
        <ele>227.3</ele>
        <time>2024-11-20T14:10:39Z</time>
      </trkpt>
      <trkpt lat="48.17225" lon="-3.29806">
        <ele>227.2</ele>
        <time>2024-11-20T14:10:40Z</time>
      </trkpt>
      <trkpt lat="48.17224" lon="-3.29806">
        <ele>227.1</ele>
        <time>2024-11-20T14:10:41Z</time>
      </trkpt>
      <trkpt lat="48.17223" lon="-3.29806">
        <ele>227</ele>
        <time>2024-11-20T14:10:42Z</time>
      </trkpt>
      <trkpt lat="48.17223" lon="-3.29807">
        <ele>227</ele>
        <time>2024-11-20T14:10:43Z</time>
      </trkpt>
      <trkpt lat="48.17222" lon="-3.29807">
        <ele>226.9</ele>
        <time>2024-11-20T14:10:44Z</time>
      </trkpt>
      <trkpt lat="48.17221" lon="-3.29807">
        <ele>226.7</ele>
        <time>2024-11-20T14:10:45Z</time>
      </trkpt>
      <trkpt lat="48.1722" lon="-3.29808">
        <ele>226.5</ele>
        <time>2024-11-20T14:10:46Z</time>
      </trkpt>
      <trkpt lat="48.17219" lon="-3.29808">
        <ele>226.3</ele>
        <time>2024-11-20T14:10:47Z</time>
      </trkpt>
      <trkpt lat="48.17217" lon="-3.29809">
        <ele>226</ele>
        <time>2024-11-20T14:10:48Z</time>
      </trkpt>
      <trkpt lat="48.17216" lon="-3.29809">
        <ele>225.8</ele>
        <time>2024-11-20T14:10:49Z</time>
      </trkpt>
      <trkpt lat="48.17214" lon="-3.29809">
        <ele>225.7</ele>
        <time>2024-11-20T14:10:50Z</time>
      </trkpt>
      <trkpt lat="48.17213" lon="-3.29809">
        <ele>225.5</ele>
        <time>2024-11-20T14:10:51Z</time>
      </trkpt>
      <trkpt lat="48.17211" lon="-3.29809">
        <ele>225.2</ele>
        <time>2024-11-20T14:10:52Z</time>
      </trkpt>
      <trkpt lat="48.1721" lon="-3.2981">
        <ele>225</ele>
        <time>2024-11-20T14:10:53Z</time>
      </trkpt>
      <trkpt lat="48.17209" lon="-3.2981">
        <ele>224.8</ele>
        <time>2024-11-20T14:10:54Z</time>
      </trkpt>
      <trkpt lat="48.17207" lon="-3.2981">
        <ele>224.6</ele>
        <time>2024-11-20T14:10:55Z</time>
      </trkpt>
      <trkpt lat="48.17206" lon="-3.2981">
        <ele>224.5</ele>
        <time>2024-11-20T14:10:56Z</time>
      </trkpt>
      <trkpt lat="48.17206" lon="-3.29808">
        <ele>224.6</ele>
        <time>2024-11-20T14:10:57Z</time>
      </trkpt>
      <trkpt lat="48.17207" lon="-3.29808">
        <ele>224.7</ele>
        <time>2024-11-20T14:10:58Z</time>
      </trkpt>
      <trkpt lat="48.17207" lon="-3.29808">
        <ele>224.7</ele>
        <time>2024-11-20T14:10:59Z</time>
      </trkpt>
      <trkpt lat="48.17207" lon="-3.29808">
        <ele>224.7</ele>
        <time>2024-11-20T14:11:00Z</time>
      </trkpt>
      <trkpt lat="48.17207" lon="-3.29808">
        <ele>224.7</ele>
        <time>2024-11-20T14:11:01Z</time>
      </trkpt>
      <trkpt lat="48.17207" lon="-3.29808">
        <ele>224.6</ele>
        <time>2024-11-20T14:11:02Z</time>
      </trkpt>
      <trkpt lat="48.17206" lon="-3.29807">
        <ele>224.6</ele>
        <time>2024-11-20T14:11:03Z</time>
      </trkpt>
      <trkpt lat="48.17206" lon="-3.29807">
        <ele>224.5</ele>
        <time>2024-11-20T14:11:04Z</time>
      </trkpt>
      <trkpt lat="48.17205" lon="-3.29806">
        <ele>224.5</ele>
        <time>2024-11-20T14:11:05Z</time>
      </trkpt>
      <trkpt lat="48.17204" lon="-3.29805">
        <ele>224.4</ele>
        <time>2024-11-20T14:11:06Z</time>
      </trkpt>
      <trkpt lat="48.17203" lon="-3.29805">
        <ele>224.3</ele>
        <time>2024-11-20T14:11:07Z</time>
      </trkpt>
      <trkpt lat="48.17202" lon="-3.29805">
        <ele>224.1</ele>
        <time>2024-11-20T14:11:08Z</time>
      </trkpt>
      <trkpt lat="48.17201" lon="-3.29805">
        <ele>224</ele>
        <time>2024-11-20T14:11:09Z</time>
      </trkpt>
      <trkpt lat="48.172" lon="-3.29805">
        <ele>223.8</ele>
        <time>2024-11-20T14:11:10Z</time>
      </trkpt>
      <trkpt lat="48.17199" lon="-3.29804">
        <ele>223.7</ele>
        <time>2024-11-20T14:11:11Z</time>
      </trkpt>
      <trkpt lat="48.17198" lon="-3.29804">
        <ele>223.6</ele>
        <time>2024-11-20T14:11:12Z</time>
      </trkpt>
      <trkpt lat="48.17197" lon="-3.29805">
        <ele>223.4</ele>
        <time>2024-11-20T14:11:13Z</time>
      </trkpt>
      <trkpt lat="48.17196" lon="-3.29805">
        <ele>223.3</ele>
        <time>2024-11-20T14:11:14Z</time>
      </trkpt>
      <trkpt lat="48.17195" lon="-3.29804">
        <ele>223.2</ele>
        <time>2024-11-20T14:11:15Z</time>
      </trkpt>
      <trkpt lat="48.17194" lon="-3.29804">
        <ele>223</ele>
        <time>2024-11-20T14:11:16Z</time>
      </trkpt>
      <trkpt lat="48.17193" lon="-3.29804">
        <ele>222.9</ele>
        <time>2024-11-20T14:11:17Z</time>
      </trkpt>
      <trkpt lat="48.17192" lon="-3.29804">
        <ele>222.7</ele>
        <time>2024-11-20T14:11:18Z</time>
      </trkpt>
      <trkpt lat="48.17191" lon="-3.29804">
        <ele>222.6</ele>
        <time>2024-11-20T14:11:19Z</time>
      </trkpt>
      <trkpt lat="48.1719" lon="-3.29804">
        <ele>222.4</ele>
        <time>2024-11-20T14:11:20Z</time>
      </trkpt>
      <trkpt lat="48.17189" lon="-3.29804">
        <ele>222.3</ele>
        <time>2024-11-20T14:11:21Z</time>
      </trkpt>
      <trkpt lat="48.17188" lon="-3.29804">
        <ele>222.2</ele>
        <time>2024-11-20T14:11:22Z</time>
      </trkpt>
      <trkpt lat="48.17187" lon="-3.29804">
        <ele>222</ele>
        <time>2024-11-20T14:11:23Z</time>
      </trkpt>
      <trkpt lat="48.17186" lon="-3.29804">
        <ele>221.9</ele>
        <time>2024-11-20T14:11:24Z</time>
      </trkpt>
      <trkpt lat="48.17185" lon="-3.29804">
        <ele>221.7</ele>
        <time>2024-11-20T14:11:25Z</time>
      </trkpt>
      <trkpt lat="48.17184" lon="-3.29804">
        <ele>221.5</ele>
        <time>2024-11-20T14:11:26Z</time>
      </trkpt>
      <trkpt lat="48.17182" lon="-3.29804">
        <ele>221.3</ele>
        <time>2024-11-20T14:11:27Z</time>
      </trkpt>
      <trkpt lat="48.17181" lon="-3.29804">
        <ele>221.1</ele>
        <time>2024-11-20T14:11:28Z</time>
      </trkpt>
      <trkpt lat="48.17179" lon="-3.29804">
        <ele>220.9</ele>
        <time>2024-11-20T14:11:29Z</time>
      </trkpt>
      <trkpt lat="48.17178" lon="-3.29804">
        <ele>220.7</ele>
        <time>2024-11-20T14:11:30Z</time>
      </trkpt>
      <trkpt lat="48.17177" lon="-3.29804">
        <ele>220.6</ele>
        <time>2024-11-20T14:11:31Z</time>
      </trkpt>
      <trkpt lat="48.17176" lon="-3.29804">
        <ele>220.4</ele>
        <time>2024-11-20T14:11:32Z</time>
      </trkpt>
      <trkpt lat="48.17175" lon="-3.29804">
        <ele>220.2</ele>
        <time>2024-11-20T14:11:33Z</time>
      </trkpt>
      <trkpt lat="48.17173" lon="-3.29804">
        <ele>220</ele>
        <time>2024-11-20T14:11:34Z</time>
      </trkpt>
      <trkpt lat="48.17172" lon="-3.29804">
        <ele>219.8</ele>
        <time>2024-11-20T14:11:35Z</time>
      </trkpt>
      <trkpt lat="48.1717" lon="-3.29804">
        <ele>219.6</ele>
        <time>2024-11-20T14:11:36Z</time>
      </trkpt>
      <trkpt lat="48.17169" lon="-3.29804">
        <ele>219.4</ele>
        <time>2024-11-20T14:11:37Z</time>
      </trkpt>
      <trkpt lat="48.17167" lon="-3.29804">
        <ele>219.2</ele>
        <time>2024-11-20T14:11:38Z</time>
      </trkpt>
      <trkpt lat="48.17166" lon="-3.29803">
        <ele>219</ele>
        <time>2024-11-20T14:11:39Z</time>
      </trkpt>
      <trkpt lat="48.17164" lon="-3.29802">
        <ele>218.8</ele>
        <time>2024-11-20T14:11:40Z</time>
      </trkpt>
      <trkpt lat="48.17163" lon="-3.29802">
        <ele>218.6</ele>
        <time>2024-11-20T14:11:41Z</time>
      </trkpt>
      <trkpt lat="48.17162" lon="-3.29801">
        <ele>218.4</ele>
        <time>2024-11-20T14:11:42Z</time>
      </trkpt>
      <trkpt lat="48.17159" lon="-3.29799">
        <ele>218.1</ele>
        <time>2024-11-20T14:11:44Z</time>
      </trkpt>
      <trkpt lat="48.17158" lon="-3.29798">
        <ele>218</ele>
        <time>2024-11-20T14:11:45Z</time>
      </trkpt>
      <trkpt lat="48.17157" lon="-3.29798">
        <ele>217.9</ele>
        <time>2024-11-20T14:11:46Z</time>
      </trkpt>
      <trkpt lat="48.17156" lon="-3.29798">
        <ele>217.7</ele>
        <time>2024-11-20T14:11:47Z</time>
      </trkpt>
      <trkpt lat="48.17154" lon="-3.29797">
        <ele>217.5</ele>
        <time>2024-11-20T14:11:48Z</time>
      </trkpt>
      <trkpt lat="48.17153" lon="-3.29797">
        <ele>217.4</ele>
        <time>2024-11-20T14:11:49Z</time>
      </trkpt>
      <trkpt lat="48.17152" lon="-3.29797">
        <ele>217.2</ele>
        <time>2024-11-20T14:11:50Z</time>
      </trkpt>
      <trkpt lat="48.17151" lon="-3.29797">
        <ele>217</ele>
        <time>2024-11-20T14:11:51Z</time>
      </trkpt>
      <trkpt lat="48.17149" lon="-3.29796">
        <ele>216.8</ele>
        <time>2024-11-20T14:11:52Z</time>
      </trkpt>
      <trkpt lat="48.17148" lon="-3.29796">
        <ele>216.6</ele>
        <time>2024-11-20T14:11:53Z</time>
      </trkpt>
      <trkpt lat="48.17147" lon="-3.29796">
        <ele>216.5</ele>
        <time>2024-11-20T14:11:54Z</time>
      </trkpt>
      <trkpt lat="48.17146" lon="-3.29796">
        <ele>216.3</ele>
        <time>2024-11-20T14:11:55Z</time>
      </trkpt>
      <trkpt lat="48.17144" lon="-3.29796">
        <ele>216.1</ele>
        <time>2024-11-20T14:11:56Z</time>
      </trkpt>
      <trkpt lat="48.17143" lon="-3.29795">
        <ele>215.9</ele>
        <time>2024-11-20T14:11:57Z</time>
      </trkpt>
      <trkpt lat="48.17141" lon="-3.29795">
        <ele>215.7</ele>
        <time>2024-11-20T14:11:58Z</time>
      </trkpt>
      <trkpt lat="48.1714" lon="-3.29794">
        <ele>215.6</ele>
        <time>2024-11-20T14:11:59Z</time>
      </trkpt>
      <trkpt lat="48.17139" lon="-3.29793">
        <ele>215.4</ele>
        <time>2024-11-20T14:12:00Z</time>
      </trkpt>
      <trkpt lat="48.17137" lon="-3.29792">
        <ele>215.3</ele>
        <time>2024-11-20T14:12:01Z</time>
      </trkpt>
      <trkpt lat="48.17136" lon="-3.29792">
        <ele>215.2</ele>
        <time>2024-11-20T14:12:02Z</time>
      </trkpt>
      <trkpt lat="48.17134" lon="-3.29791">
        <ele>215</ele>
        <time>2024-11-20T14:12:03Z</time>
      </trkpt>
      <trkpt lat="48.17133" lon="-3.29791">
        <ele>214.9</ele>
        <time>2024-11-20T14:12:04Z</time>
      </trkpt>
      <trkpt lat="48.17132" lon="-3.29791">
        <ele>214.8</ele>
        <time>2024-11-20T14:12:05Z</time>
      </trkpt>
      <trkpt lat="48.1713" lon="-3.29791">
        <ele>214.6</ele>
        <time>2024-11-20T14:12:06Z</time>
      </trkpt>
      <trkpt lat="48.17129" lon="-3.2979">
        <ele>214.5</ele>
        <time>2024-11-20T14:12:07Z</time>
      </trkpt>
      <trkpt lat="48.17128" lon="-3.2979">
        <ele>214.4</ele>
        <time>2024-11-20T14:12:08Z</time>
      </trkpt>
      <trkpt lat="48.17127" lon="-3.2979">
        <ele>214.2</ele>
        <time>2024-11-20T14:12:09Z</time>
      </trkpt>
      <trkpt lat="48.17126" lon="-3.2979">
        <ele>214.1</ele>
        <time>2024-11-20T14:12:10Z</time>
      </trkpt>
      <trkpt lat="48.17124" lon="-3.2979">
        <ele>214</ele>
        <time>2024-11-20T14:12:11Z</time>
      </trkpt>
      <trkpt lat="48.17123" lon="-3.2979">
        <ele>213.9</ele>
        <time>2024-11-20T14:12:12Z</time>
      </trkpt>
      <trkpt lat="48.17122" lon="-3.29789">
        <ele>213.7</ele>
        <time>2024-11-20T14:12:13Z</time>
      </trkpt>
      <trkpt lat="48.17121" lon="-3.29789">
        <ele>213.6</ele>
        <time>2024-11-20T14:12:14Z</time>
      </trkpt>
      <trkpt lat="48.17119" lon="-3.29789">
        <ele>213.5</ele>
        <time>2024-11-20T14:12:15Z</time>
      </trkpt>
      <trkpt lat="48.17118" lon="-3.29788">
        <ele>213.3</ele>
        <time>2024-11-20T14:12:16Z</time>
      </trkpt>
      <trkpt lat="48.17116" lon="-3.29788">
        <ele>213.2</ele>
        <time>2024-11-20T14:12:17Z</time>
      </trkpt>
      <trkpt lat="48.17114" lon="-3.29787">
        <ele>213</ele>
        <time>2024-11-20T14:12:18Z</time>
      </trkpt>
      <trkpt lat="48.17113" lon="-3.29786">
        <ele>212.9</ele>
        <time>2024-11-20T14:12:19Z</time>
      </trkpt>
      <trkpt lat="48.17112" lon="-3.29786">
        <ele>212.8</ele>
        <time>2024-11-20T14:12:20Z</time>
      </trkpt>
      <trkpt lat="48.17111" lon="-3.29785">
        <ele>212.7</ele>
        <time>2024-11-20T14:12:21Z</time>
      </trkpt>
      <trkpt lat="48.17109" lon="-3.29784">
        <ele>212.6</ele>
        <time>2024-11-20T14:12:22Z</time>
      </trkpt>
      <trkpt lat="48.17108" lon="-3.29784">
        <ele>212.5</ele>
        <time>2024-11-20T14:12:23Z</time>
      </trkpt>
      <trkpt lat="48.17107" lon="-3.29783">
        <ele>212.4</ele>
        <time>2024-11-20T14:12:24Z</time>
      </trkpt>
      <trkpt lat="48.17106" lon="-3.29783">
        <ele>212.2</ele>
        <time>2024-11-20T14:12:25Z</time>
      </trkpt>
      <trkpt lat="48.17104" lon="-3.29783">
        <ele>212.1</ele>
        <time>2024-11-20T14:12:26Z</time>
      </trkpt>
      <trkpt lat="48.17103" lon="-3.29783">
        <ele>211.9</ele>
        <time>2024-11-20T14:12:27Z</time>
      </trkpt>
      <trkpt lat="48.17102" lon="-3.29782">
        <ele>211.8</ele>
        <time>2024-11-20T14:12:28Z</time>
      </trkpt>
      <trkpt lat="48.171" lon="-3.29782">
        <ele>211.7</ele>
        <time>2024-11-20T14:12:29Z</time>
      </trkpt>
      <trkpt lat="48.17099" lon="-3.29781">
        <ele>211.6</ele>
        <time>2024-11-20T14:12:30Z</time>
      </trkpt>
      <trkpt lat="48.17098" lon="-3.29781">
        <ele>211.5</ele>
        <time>2024-11-20T14:12:31Z</time>
      </trkpt>
      <trkpt lat="48.17097" lon="-3.29781">
        <ele>211.3</ele>
        <time>2024-11-20T14:12:32Z</time>
      </trkpt>
      <trkpt lat="48.17095" lon="-3.29781">
        <ele>211.2</ele>
        <time>2024-11-20T14:12:33Z</time>
      </trkpt>
      <trkpt lat="48.17094" lon="-3.29781">
        <ele>211</ele>
        <time>2024-11-20T14:12:34Z</time>
      </trkpt>
      <trkpt lat="48.17093" lon="-3.29781">
        <ele>210.9</ele>
        <time>2024-11-20T14:12:35Z</time>
      </trkpt>
      <trkpt lat="48.17092" lon="-3.29781">
        <ele>210.8</ele>
        <time>2024-11-20T14:12:36Z</time>
      </trkpt>
      <trkpt lat="48.1709" lon="-3.29781">
        <ele>210.7</ele>
        <time>2024-11-20T14:12:37Z</time>
      </trkpt>
      <trkpt lat="48.17089" lon="-3.29781">
        <ele>210.5</ele>
        <time>2024-11-20T14:12:38Z</time>
      </trkpt>
      <trkpt lat="48.17088" lon="-3.29781">
        <ele>210.4</ele>
        <time>2024-11-20T14:12:39Z</time>
      </trkpt>
      <trkpt lat="48.17087" lon="-3.29781">
        <ele>210.3</ele>
        <time>2024-11-20T14:12:40Z</time>
      </trkpt>
      <trkpt lat="48.17086" lon="-3.29781">
        <ele>210.1</ele>
        <time>2024-11-20T14:12:41Z</time>
      </trkpt>
      <trkpt lat="48.17084" lon="-3.29781">
        <ele>210</ele>
        <time>2024-11-20T14:12:42Z</time>
      </trkpt>
      <trkpt lat="48.17083" lon="-3.2978">
        <ele>209.9</ele>
        <time>2024-11-20T14:12:43Z</time>
      </trkpt>
      <trkpt lat="48.17082" lon="-3.2978">
        <ele>209.8</ele>
        <time>2024-11-20T14:12:44Z</time>
      </trkpt>
      <trkpt lat="48.17081" lon="-3.29779">
        <ele>209.7</ele>
        <time>2024-11-20T14:12:45Z</time>
      </trkpt>
      <trkpt lat="48.1708" lon="-3.29778">
        <ele>209.6</ele>
        <time>2024-11-20T14:12:46Z</time>
      </trkpt>
      <trkpt lat="48.17078" lon="-3.29778">
        <ele>209.5</ele>
        <time>2024-11-20T14:12:47Z</time>
      </trkpt>
      <trkpt lat="48.17077" lon="-3.29777">
        <ele>209.4</ele>
        <time>2024-11-20T14:12:48Z</time>
      </trkpt>
      <trkpt lat="48.17076" lon="-3.29776">
        <ele>209.3</ele>
        <time>2024-11-20T14:12:49Z</time>
      </trkpt>
      <trkpt lat="48.17075" lon="-3.29776">
        <ele>209.2</ele>
        <time>2024-11-20T14:12:50Z</time>
      </trkpt>
      <trkpt lat="48.17074" lon="-3.29775">
        <ele>209.2</ele>
        <time>2024-11-20T14:12:51Z</time>
      </trkpt>
      <trkpt lat="48.17073" lon="-3.29775">
        <ele>209.1</ele>
        <time>2024-11-20T14:12:52Z</time>
      </trkpt>
      <trkpt lat="48.17072" lon="-3.29774">
        <ele>209</ele>
        <time>2024-11-20T14:12:53Z</time>
      </trkpt>
      <trkpt lat="48.1707" lon="-3.29774">
        <ele>208.9</ele>
        <time>2024-11-20T14:12:54Z</time>
      </trkpt>
      <trkpt lat="48.17069" lon="-3.29774">
        <ele>208.7</ele>
        <time>2024-11-20T14:12:55Z</time>
      </trkpt>
      <trkpt lat="48.17068" lon="-3.29774">
        <ele>208.6</ele>
        <time>2024-11-20T14:12:56Z</time>
      </trkpt>
      <trkpt lat="48.17067" lon="-3.29774">
        <ele>208.5</ele>
        <time>2024-11-20T14:12:57Z</time>
      </trkpt>
      <trkpt lat="48.17067" lon="-3.29774">
        <ele>208.5</ele>
        <time>2024-11-20T14:12:58Z</time>
      </trkpt>
      <trkpt lat="48.17065" lon="-3.29774">
        <ele>208.3</ele>
        <time>2024-11-20T14:12:59Z</time>
      </trkpt>
      <trkpt lat="48.17064" lon="-3.29774">
        <ele>208.2</ele>
        <time>2024-11-20T14:13:00Z</time>
      </trkpt>
      <trkpt lat="48.17063" lon="-3.29774">
        <ele>208.1</ele>
        <time>2024-11-20T14:13:01Z</time>
      </trkpt>
      <trkpt lat="48.17062" lon="-3.29774">
        <ele>208</ele>
        <time>2024-11-20T14:13:02Z</time>
      </trkpt>
      <trkpt lat="48.17062" lon="-3.29774">
        <ele>207.9</ele>
        <time>2024-11-20T14:13:03Z</time>
      </trkpt>
      <trkpt lat="48.17061" lon="-3.29774">
        <ele>207.8</ele>
        <time>2024-11-20T14:13:04Z</time>
      </trkpt>
      <trkpt lat="48.1706" lon="-3.29775">
        <ele>207.7</ele>
        <time>2024-11-20T14:13:05Z</time>
      </trkpt>
      <trkpt lat="48.17059" lon="-3.29775">
        <ele>207.6</ele>
        <time>2024-11-20T14:13:06Z</time>
      </trkpt>
      <trkpt lat="48.17057" lon="-3.29775">
        <ele>207.4</ele>
        <time>2024-11-20T14:13:07Z</time>
      </trkpt>
      <trkpt lat="48.17056" lon="-3.29774">
        <ele>207.3</ele>
        <time>2024-11-20T14:13:08Z</time>
      </trkpt>
      <trkpt lat="48.17055" lon="-3.29773">
        <ele>207.2</ele>
        <time>2024-11-20T14:13:09Z</time>
      </trkpt>
      <trkpt lat="48.17053" lon="-3.29773">
        <ele>207.1</ele>
        <time>2024-11-20T14:13:10Z</time>
      </trkpt>
      <trkpt lat="48.17052" lon="-3.29772">
        <ele>207.1</ele>
        <time>2024-11-20T14:13:11Z</time>
      </trkpt>
      <trkpt lat="48.17051" lon="-3.29771">
        <ele>207</ele>
        <time>2024-11-20T14:13:12Z</time>
      </trkpt>
      <trkpt lat="48.1705" lon="-3.29771">
        <ele>206.9</ele>
        <time>2024-11-20T14:13:13Z</time>
      </trkpt>
      <trkpt lat="48.1705" lon="-3.29771">
        <ele>206.8</ele>
        <time>2024-11-20T14:13:14Z</time>
      </trkpt>
      <trkpt lat="48.17049" lon="-3.29771">
        <ele>206.7</ele>
        <time>2024-11-20T14:13:15Z</time>
      </trkpt>
      <trkpt lat="48.17049" lon="-3.29772">
        <ele>206.6</ele>
        <time>2024-11-20T14:13:16Z</time>
      </trkpt>
      <trkpt lat="48.17048" lon="-3.29773">
        <ele>206.5</ele>
        <time>2024-11-20T14:13:17Z</time>
      </trkpt>
      <trkpt lat="48.17048" lon="-3.29773">
        <ele>206.5</ele>
        <time>2024-11-20T14:13:18Z</time>
      </trkpt>
      <trkpt lat="48.17047" lon="-3.29772">
        <ele>206.4</ele>
        <time>2024-11-20T14:13:19Z</time>
      </trkpt>
      <trkpt lat="48.17045" lon="-3.29772">
        <ele>206.2</ele>
        <time>2024-11-20T14:13:20Z</time>
      </trkpt>
      <trkpt lat="48.17044" lon="-3.29772">
        <ele>206</ele>
        <time>2024-11-20T14:13:21Z</time>
      </trkpt>
      <trkpt lat="48.17043" lon="-3.29772">
        <ele>205.9</ele>
        <time>2024-11-20T14:13:22Z</time>
      </trkpt>
      <trkpt lat="48.17041" lon="-3.29772">
        <ele>205.8</ele>
        <time>2024-11-20T14:13:23Z</time>
      </trkpt>
      <trkpt lat="48.1704" lon="-3.29772">
        <ele>205.6</ele>
        <time>2024-11-20T14:13:24Z</time>
      </trkpt>
      <trkpt lat="48.17038" lon="-3.29771">
        <ele>205.5</ele>
        <time>2024-11-20T14:13:25Z</time>
      </trkpt>
      <trkpt lat="48.17037" lon="-3.29771">
        <ele>205.3</ele>
        <time>2024-11-20T14:13:26Z</time>
      </trkpt>
      <trkpt lat="48.17036" lon="-3.2977">
        <ele>205.3</ele>
        <time>2024-11-20T14:13:27Z</time>
      </trkpt>
      <trkpt lat="48.17035" lon="-3.2977">
        <ele>205.2</ele>
        <time>2024-11-20T14:13:28Z</time>
      </trkpt>
      <trkpt lat="48.17034" lon="-3.29769">
        <ele>205.1</ele>
        <time>2024-11-20T14:13:29Z</time>
      </trkpt>
      <trkpt lat="48.17033" lon="-3.29768">
        <ele>205</ele>
        <time>2024-11-20T14:13:30Z</time>
      </trkpt>
      <trkpt lat="48.17032" lon="-3.29767">
        <ele>204.9</ele>
        <time>2024-11-20T14:13:31Z</time>
      </trkpt>
      <trkpt lat="48.17031" lon="-3.29767">
        <ele>204.8</ele>
        <time>2024-11-20T14:13:32Z</time>
      </trkpt>
      <trkpt lat="48.1703" lon="-3.29767">
        <ele>204.7</ele>
        <time>2024-11-20T14:13:33Z</time>
      </trkpt>
      <trkpt lat="48.17029" lon="-3.29766">
        <ele>204.5</ele>
        <time>2024-11-20T14:13:34Z</time>
      </trkpt>
      <trkpt lat="48.17027" lon="-3.29765">
        <ele>204.4</ele>
        <time>2024-11-20T14:13:35Z</time>
      </trkpt>
      <trkpt lat="48.17026" lon="-3.29765">
        <ele>204.4</ele>
        <time>2024-11-20T14:13:36Z</time>
      </trkpt>
      <trkpt lat="48.17025" lon="-3.29764">
        <ele>204.3</ele>
        <time>2024-11-20T14:13:37Z</time>
      </trkpt>
      <trkpt lat="48.17025" lon="-3.29764">
        <ele>204.3</ele>
        <time>2024-11-20T14:13:38Z</time>
      </trkpt>
      <trkpt lat="48.17025" lon="-3.29764">
        <ele>204.3</ele>
        <time>2024-11-20T14:13:39Z</time>
      </trkpt>
      <trkpt lat="48.17025" lon="-3.29764">
        <ele>204.3</ele>
        <time>2024-11-20T14:13:40Z</time>
      </trkpt>
      <trkpt lat="48.17025" lon="-3.29764">
        <ele>204.3</ele>
        <time>2024-11-20T14:13:41Z</time>
      </trkpt>
      <trkpt lat="48.17024" lon="-3.29765">
        <ele>204.2</ele>
        <time>2024-11-20T14:13:42Z</time>
      </trkpt>
      <trkpt lat="48.17024" lon="-3.29766">
        <ele>204.1</ele>
        <time>2024-11-20T14:13:43Z</time>
      </trkpt>
      <trkpt lat="48.17024" lon="-3.29767">
        <ele>204.1</ele>
        <time>2024-11-20T14:13:44Z</time>
      </trkpt>
      <trkpt lat="48.17023" lon="-3.29767">
        <ele>204.1</ele>
        <time>2024-11-20T14:13:45Z</time>
      </trkpt>
      <trkpt lat="48.17023" lon="-3.29768">
        <ele>204</ele>
        <time>2024-11-20T14:13:46Z</time>
      </trkpt>
      <trkpt lat="48.17023" lon="-3.29769">
        <ele>204</ele>
        <time>2024-11-20T14:13:47Z</time>
      </trkpt>
      <trkpt lat="48.17023" lon="-3.2977">
        <ele>203.9</ele>
        <time>2024-11-20T14:13:48Z</time>
      </trkpt>
      <trkpt lat="48.17023" lon="-3.29772">
        <ele>203.9</ele>
        <time>2024-11-20T14:13:49Z</time>
      </trkpt>
      <trkpt lat="48.17024" lon="-3.29773">
        <ele>203.9</ele>
        <time>2024-11-20T14:13:50Z</time>
      </trkpt>
      <trkpt lat="48.17024" lon="-3.29775">
        <ele>203.8</ele>
        <time>2024-11-20T14:13:51Z</time>
      </trkpt>
      <trkpt lat="48.17024" lon="-3.29776">
        <ele>203.8</ele>
        <time>2024-11-20T14:13:52Z</time>
      </trkpt>
      <trkpt lat="48.17023" lon="-3.29777">
        <ele>203.7</ele>
        <time>2024-11-20T14:13:53Z</time>
      </trkpt>
      <trkpt lat="48.17024" lon="-3.29778">
        <ele>203.7</ele>
        <time>2024-11-20T14:13:54Z</time>
      </trkpt>
      <trkpt lat="48.17024" lon="-3.29779">
        <ele>203.7</ele>
        <time>2024-11-20T14:13:55Z</time>
      </trkpt>
      <trkpt lat="48.17024" lon="-3.2978">
        <ele>203.7</ele>
        <time>2024-11-20T14:13:56Z</time>
      </trkpt>
      <trkpt lat="48.17024" lon="-3.29781">
        <ele>203.6</ele>
        <time>2024-11-20T14:13:57Z</time>
      </trkpt>
      <trkpt lat="48.17024" lon="-3.29782">
        <ele>203.6</ele>
        <time>2024-11-20T14:13:58Z</time>
      </trkpt>
      <trkpt lat="48.17024" lon="-3.29783">
        <ele>203.6</ele>
        <time>2024-11-20T14:13:59Z</time>
      </trkpt>
      <trkpt lat="48.17024" lon="-3.29784">
        <ele>203.5</ele>
        <time>2024-11-20T14:14:00Z</time>
      </trkpt>
      <trkpt lat="48.17023" lon="-3.29787">
        <ele>203.4</ele>
        <time>2024-11-20T14:14:01Z</time>
      </trkpt>
      <trkpt lat="48.17023" lon="-3.29789">
        <ele>203.3</ele>
        <time>2024-11-20T14:14:02Z</time>
      </trkpt>
      <trkpt lat="48.17023" lon="-3.29792">
        <ele>203.2</ele>
        <time>2024-11-20T14:14:03Z</time>
      </trkpt>
      <trkpt lat="48.17023" lon="-3.29794">
        <ele>203.2</ele>
        <time>2024-11-20T14:14:04Z</time>
      </trkpt>
      <trkpt lat="48.17023" lon="-3.29796">
        <ele>203.1</ele>
        <time>2024-11-20T14:14:05Z</time>
      </trkpt>
      <trkpt lat="48.17023" lon="-3.29798">
        <ele>203</ele>
        <time>2024-11-20T14:14:06Z</time>
      </trkpt>
      <trkpt lat="48.17023" lon="-3.298">
        <ele>203</ele>
        <time>2024-11-20T14:14:07Z</time>
      </trkpt>
      <trkpt lat="48.17023" lon="-3.29801">
        <ele>203</ele>
        <time>2024-11-20T14:14:08Z</time>
      </trkpt>
      <trkpt lat="48.17024" lon="-3.29803">
        <ele>202.9</ele>
        <time>2024-11-20T14:14:09Z</time>
      </trkpt>
      <trkpt lat="48.17024" lon="-3.29804">
        <ele>202.9</ele>
        <time>2024-11-20T14:14:10Z</time>
      </trkpt>
      <trkpt lat="48.17024" lon="-3.29806">
        <ele>202.9</ele>
        <time>2024-11-20T14:14:11Z</time>
      </trkpt>
      <trkpt lat="48.17024" lon="-3.29807">
        <ele>202.9</ele>
        <time>2024-11-20T14:14:12Z</time>
      </trkpt>
      <trkpt lat="48.17024" lon="-3.29809">
        <ele>202.9</ele>
        <time>2024-11-20T14:14:13Z</time>
      </trkpt>
      <trkpt lat="48.17023" lon="-3.29812">
        <ele>202.8</ele>
        <time>2024-11-20T14:14:15Z</time>
      </trkpt>
      <trkpt lat="48.17023" lon="-3.29814">
        <ele>202.8</ele>
        <time>2024-11-20T14:14:16Z</time>
      </trkpt>
      <trkpt lat="48.17023" lon="-3.29815">
        <ele>202.8</ele>
        <time>2024-11-20T14:14:17Z</time>
      </trkpt>
      <trkpt lat="48.17023" lon="-3.29816">
        <ele>202.8</ele>
        <time>2024-11-20T14:14:18Z</time>
      </trkpt>
      <trkpt lat="48.17023" lon="-3.29818">
        <ele>202.8</ele>
        <time>2024-11-20T14:14:19Z</time>
      </trkpt>
      <trkpt lat="48.17023" lon="-3.2982">
        <ele>202.8</ele>
        <time>2024-11-20T14:14:20Z</time>
      </trkpt>
      <trkpt lat="48.17023" lon="-3.29821">
        <ele>202.8</ele>
        <time>2024-11-20T14:14:21Z</time>
      </trkpt>
      <trkpt lat="48.17023" lon="-3.29822">
        <ele>202.8</ele>
        <time>2024-11-20T14:14:22Z</time>
      </trkpt>
      <trkpt lat="48.17022" lon="-3.29823">
        <ele>202.8</ele>
        <time>2024-11-20T14:14:23Z</time>
      </trkpt>
      <trkpt lat="48.17023" lon="-3.29824">
        <ele>202.8</ele>
        <time>2024-11-20T14:14:24Z</time>
      </trkpt>
      <trkpt lat="48.17023" lon="-3.29825">
        <ele>202.8</ele>
        <time>2024-11-20T14:14:25Z</time>
      </trkpt>
      <trkpt lat="48.17023" lon="-3.29826">
        <ele>202.8</ele>
        <time>2024-11-20T14:14:26Z</time>
      </trkpt>
      <trkpt lat="48.17024" lon="-3.29828">
        <ele>202.8</ele>
        <time>2024-11-20T14:14:27Z</time>
      </trkpt>
      <trkpt lat="48.17024" lon="-3.29828">
        <ele>202.8</ele>
        <time>2024-11-20T14:14:28Z</time>
      </trkpt>
      <trkpt lat="48.17024" lon="-3.29829">
        <ele>202.8</ele>
        <time>2024-11-20T14:14:29Z</time>
      </trkpt>
      <trkpt lat="48.17024" lon="-3.29829">
        <ele>202.9</ele>
        <time>2024-11-20T14:14:30Z</time>
      </trkpt>
      <trkpt lat="48.17024" lon="-3.2983">
        <ele>202.9</ele>
        <time>2024-11-20T14:14:31Z</time>
      </trkpt>
      <trkpt lat="48.17024" lon="-3.2983">
        <ele>202.9</ele>
        <time>2024-11-20T14:14:32Z</time>
      </trkpt>
      <trkpt lat="48.17024" lon="-3.29831">
        <ele>202.9</ele>
        <time>2024-11-20T14:14:33Z</time>
      </trkpt>
      <trkpt lat="48.17024" lon="-3.29833">
        <ele>202.9</ele>
        <time>2024-11-20T14:14:34Z</time>
      </trkpt>
      <trkpt lat="48.17024" lon="-3.29834">
        <ele>202.9</ele>
        <time>2024-11-20T14:14:35Z</time>
      </trkpt>
      <trkpt lat="48.17024" lon="-3.29836">
        <ele>202.9</ele>
        <time>2024-11-20T14:14:36Z</time>
      </trkpt>
      <trkpt lat="48.17024" lon="-3.2984">
        <ele>202.9</ele>
        <time>2024-11-20T14:14:37Z</time>
      </trkpt>
      <trkpt lat="48.17023" lon="-3.29841">
        <ele>202.8</ele>
        <time>2024-11-20T14:14:38Z</time>
      </trkpt>
      <trkpt lat="48.17023" lon="-3.29842">
        <ele>202.8</ele>
        <time>2024-11-20T14:14:39Z</time>
      </trkpt>
      <trkpt lat="48.17023" lon="-3.29843">
        <ele>202.8</ele>
        <time>2024-11-20T14:14:40Z</time>
      </trkpt>
      <trkpt lat="48.17023" lon="-3.29844">
        <ele>202.8</ele>
        <time>2024-11-20T14:14:41Z</time>
      </trkpt>
      <trkpt lat="48.17024" lon="-3.29845">
        <ele>202.8</ele>
        <time>2024-11-20T14:14:42Z</time>
      </trkpt>
      <trkpt lat="48.17024" lon="-3.29846">
        <ele>202.9</ele>
        <time>2024-11-20T14:14:43Z</time>
      </trkpt>
      <trkpt lat="48.17025" lon="-3.29847">
        <ele>202.9</ele>
        <time>2024-11-20T14:14:44Z</time>
      </trkpt>
      <trkpt lat="48.17025" lon="-3.29848">
        <ele>202.9</ele>
        <time>2024-11-20T14:14:45Z</time>
      </trkpt>
      <trkpt lat="48.17026" lon="-3.29848">
        <ele>202.9</ele>
        <time>2024-11-20T14:14:46Z</time>
      </trkpt>
      <trkpt lat="48.17026" lon="-3.29848">
        <ele>202.9</ele>
        <time>2024-11-20T14:14:47Z</time>
      </trkpt>
      <trkpt lat="48.17026" lon="-3.29849">
        <ele>202.9</ele>
        <time>2024-11-20T14:14:48Z</time>
      </trkpt>
      <trkpt lat="48.17026" lon="-3.2985">
        <ele>202.9</ele>
        <time>2024-11-20T14:14:49Z</time>
      </trkpt>
      <trkpt lat="48.17027" lon="-3.29851">
        <ele>203</ele>
        <time>2024-11-20T14:14:50Z</time>
      </trkpt>
      <trkpt lat="48.17028" lon="-3.29853">
        <ele>203</ele>
        <time>2024-11-20T14:14:51Z</time>
      </trkpt>
      <trkpt lat="48.17029" lon="-3.29855">
        <ele>203.1</ele>
        <time>2024-11-20T14:14:52Z</time>
      </trkpt>
      <trkpt lat="48.1703" lon="-3.29857">
        <ele>203.1</ele>
        <time>2024-11-20T14:14:53Z</time>
      </trkpt>
      <trkpt lat="48.1703" lon="-3.29858">
        <ele>203.2</ele>
        <time>2024-11-20T14:14:54Z</time>
      </trkpt>
      <trkpt lat="48.1703" lon="-3.29859">
        <ele>203.2</ele>
        <time>2024-11-20T14:14:55Z</time>
      </trkpt>
      <trkpt lat="48.1703" lon="-3.29861">
        <ele>203.2</ele>
        <time>2024-11-20T14:14:56Z</time>
      </trkpt>
      <trkpt lat="48.17031" lon="-3.29862">
        <ele>203.2</ele>
        <time>2024-11-20T14:14:57Z</time>
      </trkpt>
      <trkpt lat="48.17031" lon="-3.29864">
        <ele>203.2</ele>
        <time>2024-11-20T14:14:58Z</time>
      </trkpt>
      <trkpt lat="48.17031" lon="-3.29865">
        <ele>203.2</ele>
        <time>2024-11-20T14:14:59Z</time>
      </trkpt>
      <trkpt lat="48.17032" lon="-3.29868">
        <ele>203.2</ele>
        <time>2024-11-20T14:15:00Z</time>
      </trkpt>
      <trkpt lat="48.17032" lon="-3.2987">
        <ele>203.2</ele>
        <time>2024-11-20T14:15:01Z</time>
      </trkpt>
      <trkpt lat="48.17032" lon="-3.29871">
        <ele>203.2</ele>
        <time>2024-11-20T14:15:02Z</time>
      </trkpt>
      <trkpt lat="48.17032" lon="-3.29873">
        <ele>203.2</ele>
        <time>2024-11-20T14:15:03Z</time>
      </trkpt>
      <trkpt lat="48.17032" lon="-3.29874">
        <ele>203.2</ele>
        <time>2024-11-20T14:15:04Z</time>
      </trkpt>
      <trkpt lat="48.17032" lon="-3.29875">
        <ele>203.2</ele>
        <time>2024-11-20T14:15:05Z</time>
      </trkpt>
      <trkpt lat="48.17032" lon="-3.29877">
        <ele>203.2</ele>
        <time>2024-11-20T14:15:06Z</time>
      </trkpt>
      <trkpt lat="48.17033" lon="-3.29878">
        <ele>203.2</ele>
        <time>2024-11-20T14:15:07Z</time>
      </trkpt>
      <trkpt lat="48.17033" lon="-3.29879">
        <ele>203.2</ele>
        <time>2024-11-20T14:15:08Z</time>
      </trkpt>
      <trkpt lat="48.17033" lon="-3.29881">
        <ele>203.2</ele>
        <time>2024-11-20T14:15:09Z</time>
      </trkpt>
      <trkpt lat="48.17033" lon="-3.29882">
        <ele>203.2</ele>
        <time>2024-11-20T14:15:10Z</time>
      </trkpt>
      <trkpt lat="48.17034" lon="-3.29884">
        <ele>203.3</ele>
        <time>2024-11-20T14:15:11Z</time>
      </trkpt>
      <trkpt lat="48.17034" lon="-3.29885">
        <ele>203.3</ele>
        <time>2024-11-20T14:15:12Z</time>
      </trkpt>
      <trkpt lat="48.17035" lon="-3.29886">
        <ele>203.3</ele>
        <time>2024-11-20T14:15:13Z</time>
      </trkpt>
      <trkpt lat="48.17035" lon="-3.29887">
        <ele>203.3</ele>
        <time>2024-11-20T14:15:14Z</time>
      </trkpt>
      <trkpt lat="48.17035" lon="-3.29889">
        <ele>203.2</ele>
        <time>2024-11-20T14:15:15Z</time>
      </trkpt>
      <trkpt lat="48.17035" lon="-3.29892">
        <ele>203.2</ele>
        <time>2024-11-20T14:15:16Z</time>
      </trkpt>
      <trkpt lat="48.17034" lon="-3.29893">
        <ele>203.1</ele>
        <time>2024-11-20T14:15:17Z</time>
      </trkpt>
      <trkpt lat="48.17034" lon="-3.29893">
        <ele>203.1</ele>
        <time>2024-11-20T14:15:18Z</time>
      </trkpt>
      <trkpt lat="48.17035" lon="-3.29894">
        <ele>203.1</ele>
        <time>2024-11-20T14:15:19Z</time>
      </trkpt>
      <trkpt lat="48.17036" lon="-3.29894">
        <ele>203.1</ele>
        <time>2024-11-20T14:15:20Z</time>
      </trkpt>
      <trkpt lat="48.17036" lon="-3.29896">
        <ele>203.1</ele>
        <time>2024-11-20T14:15:21Z</time>
      </trkpt>
      <trkpt lat="48.17037" lon="-3.29897">
        <ele>203.1</ele>
        <time>2024-11-20T14:15:22Z</time>
      </trkpt>
      <trkpt lat="48.17037" lon="-3.29899">
        <ele>203.1</ele>
        <time>2024-11-20T14:15:23Z</time>
      </trkpt>
      <trkpt lat="48.17037" lon="-3.299">
        <ele>203.1</ele>
        <time>2024-11-20T14:15:24Z</time>
      </trkpt>
      <trkpt lat="48.17037" lon="-3.29901">
        <ele>203.1</ele>
        <time>2024-11-20T14:15:25Z</time>
      </trkpt>
      <trkpt lat="48.17038" lon="-3.29902">
        <ele>203</ele>
        <time>2024-11-20T14:15:26Z</time>
      </trkpt>
      <trkpt lat="48.17038" lon="-3.29904">
        <ele>203</ele>
        <time>2024-11-20T14:15:27Z</time>
      </trkpt>
      <trkpt lat="48.17038" lon="-3.29905">
        <ele>203</ele>
        <time>2024-11-20T14:15:28Z</time>
      </trkpt>
      <trkpt lat="48.17039" lon="-3.29906">
        <ele>203</ele>
        <time>2024-11-20T14:15:29Z</time>
      </trkpt>
      <trkpt lat="48.17039" lon="-3.29908">
        <ele>203</ele>
        <time>2024-11-20T14:15:30Z</time>
      </trkpt>
      <trkpt lat="48.17039" lon="-3.2991">
        <ele>203</ele>
        <time>2024-11-20T14:15:31Z</time>
      </trkpt>
      <trkpt lat="48.17039" lon="-3.29911">
        <ele>202.9</ele>
        <time>2024-11-20T14:15:32Z</time>
      </trkpt>
      <trkpt lat="48.17039" lon="-3.29914">
        <ele>202.9</ele>
        <time>2024-11-20T14:15:33Z</time>
      </trkpt>
      <trkpt lat="48.17039" lon="-3.29916">
        <ele>202.8</ele>
        <time>2024-11-20T14:15:34Z</time>
      </trkpt>
      <trkpt lat="48.17038" lon="-3.29919">
        <ele>202.8</ele>
        <time>2024-11-20T14:15:35Z</time>
      </trkpt>
      <trkpt lat="48.17038" lon="-3.29921">
        <ele>202.7</ele>
        <time>2024-11-20T14:15:36Z</time>
      </trkpt>
      <trkpt lat="48.17038" lon="-3.29923">
        <ele>202.7</ele>
        <time>2024-11-20T14:15:37Z</time>
      </trkpt>
      <trkpt lat="48.17039" lon="-3.29924">
        <ele>202.8</ele>
        <time>2024-11-20T14:15:38Z</time>
      </trkpt>
      <trkpt lat="48.17039" lon="-3.29925">
        <ele>202.8</ele>
        <time>2024-11-20T14:15:39Z</time>
      </trkpt>
      <trkpt lat="48.1704" lon="-3.29926">
        <ele>202.8</ele>
        <time>2024-11-20T14:15:40Z</time>
      </trkpt>
      <trkpt lat="48.1704" lon="-3.29928">
        <ele>202.9</ele>
        <time>2024-11-20T14:15:41Z</time>
      </trkpt>
      <trkpt lat="48.17041" lon="-3.29929">
        <ele>202.9</ele>
        <time>2024-11-20T14:15:42Z</time>
      </trkpt>
      <trkpt lat="48.17041" lon="-3.29931">
        <ele>203</ele>
        <time>2024-11-20T14:15:43Z</time>
      </trkpt>
      <trkpt lat="48.17041" lon="-3.29932">
        <ele>203</ele>
        <time>2024-11-20T14:15:44Z</time>
      </trkpt>
      <trkpt lat="48.17042" lon="-3.29933">
        <ele>203</ele>
        <time>2024-11-20T14:15:45Z</time>
      </trkpt>
      <trkpt lat="48.17042" lon="-3.29934">
        <ele>203</ele>
        <time>2024-11-20T14:15:46Z</time>
      </trkpt>
      <trkpt lat="48.17042" lon="-3.29936">
        <ele>203</ele>
        <time>2024-11-20T14:15:47Z</time>
      </trkpt>
      <trkpt lat="48.17042" lon="-3.29937">
        <ele>203</ele>
        <time>2024-11-20T14:15:48Z</time>
      </trkpt>
      <trkpt lat="48.17042" lon="-3.29939">
        <ele>203</ele>
        <time>2024-11-20T14:15:49Z</time>
      </trkpt>
      <trkpt lat="48.17042" lon="-3.29942">
        <ele>203</ele>
        <time>2024-11-20T14:15:50Z</time>
      </trkpt>
      <trkpt lat="48.17042" lon="-3.29944">
        <ele>203</ele>
        <time>2024-11-20T14:15:51Z</time>
      </trkpt>
      <trkpt lat="48.17041" lon="-3.29946">
        <ele>203</ele>
        <time>2024-11-20T14:15:52Z</time>
      </trkpt>
      <trkpt lat="48.1704" lon="-3.29948">
        <ele>202.9</ele>
        <time>2024-11-20T14:15:53Z</time>
      </trkpt>
      <trkpt lat="48.17039" lon="-3.2995">
        <ele>202.8</ele>
        <time>2024-11-20T14:15:54Z</time>
      </trkpt>
      <trkpt lat="48.17038" lon="-3.29952">
        <ele>202.8</ele>
        <time>2024-11-20T14:15:55Z</time>
      </trkpt>
      <trkpt lat="48.17037" lon="-3.29954">
        <ele>202.7</ele>
        <time>2024-11-20T14:15:56Z</time>
      </trkpt>
      <trkpt lat="48.17036" lon="-3.29955">
        <ele>202.6</ele>
        <time>2024-11-20T14:15:57Z</time>
      </trkpt>
      <trkpt lat="48.17035" lon="-3.29956">
        <ele>202.5</ele>
        <time>2024-11-20T14:15:58Z</time>
      </trkpt>
      <trkpt lat="48.17034" lon="-3.29957">
        <ele>202.5</ele>
        <time>2024-11-20T14:15:59Z</time>
      </trkpt>
      <trkpt lat="48.17033" lon="-3.29959">
        <ele>202.4</ele>
        <time>2024-11-20T14:16:00Z</time>
      </trkpt>
      <trkpt lat="48.17032" lon="-3.2996">
        <ele>202.3</ele>
        <time>2024-11-20T14:16:01Z</time>
      </trkpt>
      <trkpt lat="48.17031" lon="-3.29961">
        <ele>202.2</ele>
        <time>2024-11-20T14:16:02Z</time>
      </trkpt>
      <trkpt lat="48.1703" lon="-3.29963">
        <ele>202.2</ele>
        <time>2024-11-20T14:16:03Z</time>
      </trkpt>
      <trkpt lat="48.17029" lon="-3.29964">
        <ele>202.1</ele>
        <time>2024-11-20T14:16:04Z</time>
      </trkpt>
      <trkpt lat="48.17028" lon="-3.29965">
        <ele>202</ele>
        <time>2024-11-20T14:16:05Z</time>
      </trkpt>
      <trkpt lat="48.17027" lon="-3.29966">
        <ele>202</ele>
        <time>2024-11-20T14:16:06Z</time>
      </trkpt>
      <trkpt lat="48.17027" lon="-3.29968">
        <ele>202</ele>
        <time>2024-11-20T14:16:07Z</time>
      </trkpt>
      <trkpt lat="48.17026" lon="-3.29969">
        <ele>201.9</ele>
        <time>2024-11-20T14:16:08Z</time>
      </trkpt>
      <trkpt lat="48.17025" lon="-3.2997">
        <ele>201.9</ele>
        <time>2024-11-20T14:16:09Z</time>
      </trkpt>
      <trkpt lat="48.17024" lon="-3.29972">
        <ele>201.9</ele>
        <time>2024-11-20T14:16:10Z</time>
      </trkpt>
      <trkpt lat="48.17023" lon="-3.29973">
        <ele>201.9</ele>
        <time>2024-11-20T14:16:11Z</time>
      </trkpt>
      <trkpt lat="48.17023" lon="-3.29974">
        <ele>201.9</ele>
        <time>2024-11-20T14:16:12Z</time>
      </trkpt>
      <trkpt lat="48.17022" lon="-3.29976">
        <ele>201.9</ele>
        <time>2024-11-20T14:16:13Z</time>
      </trkpt>
      <trkpt lat="48.17021" lon="-3.29978">
        <ele>201.9</ele>
        <time>2024-11-20T14:16:14Z</time>
      </trkpt>
      <trkpt lat="48.1702" lon="-3.29979">
        <ele>202</ele>
        <time>2024-11-20T14:16:15Z</time>
      </trkpt>
      <trkpt lat="48.17019" lon="-3.29981">
        <ele>202</ele>
        <time>2024-11-20T14:16:16Z</time>
      </trkpt>
      <trkpt lat="48.17018" lon="-3.29982">
        <ele>202</ele>
        <time>2024-11-20T14:16:17Z</time>
      </trkpt>
      <trkpt lat="48.17017" lon="-3.29984">
        <ele>202</ele>
        <time>2024-11-20T14:16:18Z</time>
      </trkpt>
      <trkpt lat="48.17016" lon="-3.29985">
        <ele>202</ele>
        <time>2024-11-20T14:16:19Z</time>
      </trkpt>
      <trkpt lat="48.17016" lon="-3.29987">
        <ele>202.1</ele>
        <time>2024-11-20T14:16:20Z</time>
      </trkpt>
      <trkpt lat="48.17015" lon="-3.29988">
        <ele>202.1</ele>
        <time>2024-11-20T14:16:21Z</time>
      </trkpt>
      <trkpt lat="48.17014" lon="-3.2999">
        <ele>202.1</ele>
        <time>2024-11-20T14:16:22Z</time>
      </trkpt>
      <trkpt lat="48.17013" lon="-3.29991">
        <ele>202.2</ele>
        <time>2024-11-20T14:16:23Z</time>
      </trkpt>
      <trkpt lat="48.17013" lon="-3.29993">
        <ele>202.2</ele>
        <time>2024-11-20T14:16:24Z</time>
      </trkpt>
      <trkpt lat="48.17012" lon="-3.29994">
        <ele>202.2</ele>
        <time>2024-11-20T14:16:25Z</time>
      </trkpt>
      <trkpt lat="48.17011" lon="-3.29995">
        <ele>202.2</ele>
        <time>2024-11-20T14:16:26Z</time>
      </trkpt>
      <trkpt lat="48.17011" lon="-3.29997">
        <ele>202.3</ele>
        <time>2024-11-20T14:16:27Z</time>
      </trkpt>
      <trkpt lat="48.1701" lon="-3.29998">
        <ele>202.3</ele>
        <time>2024-11-20T14:16:28Z</time>
      </trkpt>
      <trkpt lat="48.17009" lon="-3.29999">
        <ele>202.3</ele>
        <time>2024-11-20T14:16:29Z</time>
      </trkpt>
      <trkpt lat="48.17009" lon="-3.30001">
        <ele>202.3</ele>
        <time>2024-11-20T14:16:30Z</time>
      </trkpt>
      <trkpt lat="48.17008" lon="-3.30002">
        <ele>202.3</ele>
        <time>2024-11-20T14:16:31Z</time>
      </trkpt>
      <trkpt lat="48.17008" lon="-3.30003">
        <ele>202.3</ele>
        <time>2024-11-20T14:16:32Z</time>
      </trkpt>
      <trkpt lat="48.17007" lon="-3.30005">
        <ele>202.3</ele>
        <time>2024-11-20T14:16:33Z</time>
      </trkpt>
      <trkpt lat="48.17007" lon="-3.30006">
        <ele>202.2</ele>
        <time>2024-11-20T14:16:34Z</time>
      </trkpt>
      <trkpt lat="48.17006" lon="-3.30008">
        <ele>202.2</ele>
        <time>2024-11-20T14:16:35Z</time>
      </trkpt>
      <trkpt lat="48.17006" lon="-3.30009">
        <ele>202.2</ele>
        <time>2024-11-20T14:16:36Z</time>
      </trkpt>
      <trkpt lat="48.17005" lon="-3.30011">
        <ele>202.2</ele>
        <time>2024-11-20T14:16:37Z</time>
      </trkpt>
      <trkpt lat="48.17004" lon="-3.30013">
        <ele>202.1</ele>
        <time>2024-11-20T14:16:38Z</time>
      </trkpt>
      <trkpt lat="48.17004" lon="-3.30014">
        <ele>202.1</ele>
        <time>2024-11-20T14:16:39Z</time>
      </trkpt>
      <trkpt lat="48.17003" lon="-3.30016">
        <ele>202.1</ele>
        <time>2024-11-20T14:16:40Z</time>
      </trkpt>
      <trkpt lat="48.17003" lon="-3.30018">
        <ele>202.1</ele>
        <time>2024-11-20T14:16:41Z</time>
      </trkpt>
      <trkpt lat="48.17002" lon="-3.30019">
        <ele>202.1</ele>
        <time>2024-11-20T14:16:42Z</time>
      </trkpt>
      <trkpt lat="48.17002" lon="-3.30021">
        <ele>202.1</ele>
        <time>2024-11-20T14:16:43Z</time>
      </trkpt>
      <trkpt lat="48.17001" lon="-3.30023">
        <ele>202</ele>
        <time>2024-11-20T14:16:44Z</time>
      </trkpt>
      <trkpt lat="48.17" lon="-3.30025">
        <ele>202</ele>
        <time>2024-11-20T14:16:45Z</time>
      </trkpt>
      <trkpt lat="48.17" lon="-3.30026">
        <ele>202</ele>
        <time>2024-11-20T14:16:46Z</time>
      </trkpt>
      <trkpt lat="48.16999" lon="-3.30028">
        <ele>202</ele>
        <time>2024-11-20T14:16:47Z</time>
      </trkpt>
      <trkpt lat="48.16998" lon="-3.30029">
        <ele>201.9</ele>
        <time>2024-11-20T14:16:48Z</time>
      </trkpt>
      <trkpt lat="48.16998" lon="-3.30031">
        <ele>201.9</ele>
        <time>2024-11-20T14:16:49Z</time>
      </trkpt>
      <trkpt lat="48.16997" lon="-3.30032">
        <ele>201.9</ele>
        <time>2024-11-20T14:16:50Z</time>
      </trkpt>
      <trkpt lat="48.16996" lon="-3.30034">
        <ele>201.9</ele>
        <time>2024-11-20T14:16:51Z</time>
      </trkpt>
      <trkpt lat="48.16996" lon="-3.30036">
        <ele>201.8</ele>
        <time>2024-11-20T14:16:52Z</time>
      </trkpt>
      <trkpt lat="48.16995" lon="-3.30037">
        <ele>201.8</ele>
        <time>2024-11-20T14:16:53Z</time>
      </trkpt>
      <trkpt lat="48.16995" lon="-3.30038">
        <ele>201.8</ele>
        <time>2024-11-20T14:16:54Z</time>
      </trkpt>
      <trkpt lat="48.16994" lon="-3.30039">
        <ele>201.8</ele>
        <time>2024-11-20T14:16:55Z</time>
      </trkpt>
      <trkpt lat="48.16994" lon="-3.3004">
        <ele>201.8</ele>
        <time>2024-11-20T14:16:56Z</time>
      </trkpt>
      <trkpt lat="48.16993" lon="-3.30042">
        <ele>201.8</ele>
        <time>2024-11-20T14:16:57Z</time>
      </trkpt>
      <trkpt lat="48.16993" lon="-3.30043">
        <ele>201.7</ele>
        <time>2024-11-20T14:16:58Z</time>
      </trkpt>
      <trkpt lat="48.16992" lon="-3.30045">
        <ele>201.7</ele>
        <time>2024-11-20T14:16:59Z</time>
      </trkpt>
      <trkpt lat="48.16991" lon="-3.30047">
        <ele>201.7</ele>
        <time>2024-11-20T14:17:00Z</time>
      </trkpt>
      <trkpt lat="48.16991" lon="-3.30048">
        <ele>201.7</ele>
        <time>2024-11-20T14:17:01Z</time>
      </trkpt>
      <trkpt lat="48.1699" lon="-3.3005">
        <ele>201.7</ele>
        <time>2024-11-20T14:17:02Z</time>
      </trkpt>
      <trkpt lat="48.1699" lon="-3.30051">
        <ele>201.6</ele>
        <time>2024-11-20T14:17:03Z</time>
      </trkpt>
      <trkpt lat="48.16989" lon="-3.30053">
        <ele>201.6</ele>
        <time>2024-11-20T14:17:04Z</time>
      </trkpt>
      <trkpt lat="48.16989" lon="-3.30054">
        <ele>201.6</ele>
        <time>2024-11-20T14:17:05Z</time>
      </trkpt>
      <trkpt lat="48.16988" lon="-3.30056">
        <ele>201.6</ele>
        <time>2024-11-20T14:17:06Z</time>
      </trkpt>
      <trkpt lat="48.16988" lon="-3.30057">
        <ele>201.6</ele>
        <time>2024-11-20T14:17:07Z</time>
      </trkpt>
      <trkpt lat="48.16987" lon="-3.30059">
        <ele>201.5</ele>
        <time>2024-11-20T14:17:08Z</time>
      </trkpt>
      <trkpt lat="48.16986" lon="-3.30061">
        <ele>201.5</ele>
        <time>2024-11-20T14:17:09Z</time>
      </trkpt>
      <trkpt lat="48.16986" lon="-3.30062">
        <ele>201.5</ele>
        <time>2024-11-20T14:17:10Z</time>
      </trkpt>
      <trkpt lat="48.16985" lon="-3.30064">
        <ele>201.5</ele>
        <time>2024-11-20T14:17:11Z</time>
      </trkpt>
      <trkpt lat="48.16984" lon="-3.30065">
        <ele>201.4</ele>
        <time>2024-11-20T14:17:12Z</time>
      </trkpt>
      <trkpt lat="48.16984" lon="-3.30066">
        <ele>201.4</ele>
        <time>2024-11-20T14:17:13Z</time>
      </trkpt>
      <trkpt lat="48.16983" lon="-3.30068">
        <ele>201.4</ele>
        <time>2024-11-20T14:17:14Z</time>
      </trkpt>
      <trkpt lat="48.16983" lon="-3.30069">
        <ele>201.4</ele>
        <time>2024-11-20T14:17:15Z</time>
      </trkpt>
      <trkpt lat="48.16982" lon="-3.3007">
        <ele>201.4</ele>
        <time>2024-11-20T14:17:16Z</time>
      </trkpt>
      <trkpt lat="48.16981" lon="-3.30072">
        <ele>201.3</ele>
        <time>2024-11-20T14:17:17Z</time>
      </trkpt>
      <trkpt lat="48.16981" lon="-3.30073">
        <ele>201.3</ele>
        <time>2024-11-20T14:17:18Z</time>
      </trkpt>
      <trkpt lat="48.1698" lon="-3.30075">
        <ele>201.3</ele>
        <time>2024-11-20T14:17:19Z</time>
      </trkpt>
      <trkpt lat="48.16979" lon="-3.30076">
        <ele>201.2</ele>
        <time>2024-11-20T14:17:20Z</time>
      </trkpt>
      <trkpt lat="48.16978" lon="-3.30078">
        <ele>201.2</ele>
        <time>2024-11-20T14:17:21Z</time>
      </trkpt>
      <trkpt lat="48.16978" lon="-3.3008">
        <ele>201.2</ele>
        <time>2024-11-20T14:17:22Z</time>
      </trkpt>
      <trkpt lat="48.16977" lon="-3.30081">
        <ele>201.2</ele>
        <time>2024-11-20T14:17:23Z</time>
      </trkpt>
      <trkpt lat="48.16977" lon="-3.30083">
        <ele>201.2</ele>
        <time>2024-11-20T14:17:24Z</time>
      </trkpt>
      <trkpt lat="48.16976" lon="-3.30084">
        <ele>201.1</ele>
        <time>2024-11-20T14:17:25Z</time>
      </trkpt>
      <trkpt lat="48.16976" lon="-3.30086">
        <ele>201.1</ele>
        <time>2024-11-20T14:17:26Z</time>
      </trkpt>
      <trkpt lat="48.16975" lon="-3.30088">
        <ele>201.1</ele>
        <time>2024-11-20T14:17:27Z</time>
      </trkpt>
      <trkpt lat="48.16974" lon="-3.30089">
        <ele>201.1</ele>
        <time>2024-11-20T14:17:28Z</time>
      </trkpt>
      <trkpt lat="48.16974" lon="-3.3009">
        <ele>201.1</ele>
        <time>2024-11-20T14:17:29Z</time>
      </trkpt>
      <trkpt lat="48.16974" lon="-3.30091">
        <ele>201.1</ele>
        <time>2024-11-20T14:17:30Z</time>
      </trkpt>
      <trkpt lat="48.16973" lon="-3.30092">
        <ele>201</ele>
        <time>2024-11-20T14:17:31Z</time>
      </trkpt>
      <trkpt lat="48.16973" lon="-3.30094">
        <ele>201</ele>
        <time>2024-11-20T14:17:32Z</time>
      </trkpt>
      <trkpt lat="48.16973" lon="-3.30095">
        <ele>201</ele>
        <time>2024-11-20T14:17:33Z</time>
      </trkpt>
      <trkpt lat="48.16973" lon="-3.30097">
        <ele>201</ele>
        <time>2024-11-20T14:17:34Z</time>
      </trkpt>
      <trkpt lat="48.16973" lon="-3.30099">
        <ele>201</ele>
        <time>2024-11-20T14:17:35Z</time>
      </trkpt>
      <trkpt lat="48.16973" lon="-3.301">
        <ele>201</ele>
        <time>2024-11-20T14:17:36Z</time>
      </trkpt>
      <trkpt lat="48.16972" lon="-3.30102">
        <ele>201</ele>
        <time>2024-11-20T14:17:37Z</time>
      </trkpt>
      <trkpt lat="48.16972" lon="-3.30103">
        <ele>201</ele>
        <time>2024-11-20T14:17:38Z</time>
      </trkpt>
      <trkpt lat="48.16972" lon="-3.30105">
        <ele>201</ele>
        <time>2024-11-20T14:17:39Z</time>
      </trkpt>
      <trkpt lat="48.16971" lon="-3.30107">
        <ele>201</ele>
        <time>2024-11-20T14:17:40Z</time>
      </trkpt>
      <trkpt lat="48.16971" lon="-3.30109">
        <ele>200.9</ele>
        <time>2024-11-20T14:17:41Z</time>
      </trkpt>
      <trkpt lat="48.1697" lon="-3.3011">
        <ele>200.9</ele>
        <time>2024-11-20T14:17:42Z</time>
      </trkpt>
      <trkpt lat="48.1697" lon="-3.30112">
        <ele>200.9</ele>
        <time>2024-11-20T14:17:43Z</time>
      </trkpt>
      <trkpt lat="48.1697" lon="-3.30113">
        <ele>200.8</ele>
        <time>2024-11-20T14:17:44Z</time>
      </trkpt>
      <trkpt lat="48.16969" lon="-3.30115">
        <ele>200.8</ele>
        <time>2024-11-20T14:17:45Z</time>
      </trkpt>
      <trkpt lat="48.16969" lon="-3.30116">
        <ele>200.7</ele>
        <time>2024-11-20T14:17:46Z</time>
      </trkpt>
      <trkpt lat="48.16969" lon="-3.30118">
        <ele>200.7</ele>
        <time>2024-11-20T14:17:47Z</time>
      </trkpt>
      <trkpt lat="48.16969" lon="-3.3012">
        <ele>200.6</ele>
        <time>2024-11-20T14:17:48Z</time>
      </trkpt>
      <trkpt lat="48.16969" lon="-3.30122">
        <ele>200.5</ele>
        <time>2024-11-20T14:17:49Z</time>
      </trkpt>
      <trkpt lat="48.16969" lon="-3.30123">
        <ele>200.5</ele>
        <time>2024-11-20T14:17:50Z</time>
      </trkpt>
      <trkpt lat="48.16968" lon="-3.30125">
        <ele>200.4</ele>
        <time>2024-11-20T14:17:51Z</time>
      </trkpt>
      <trkpt lat="48.16969" lon="-3.30126">
        <ele>200.4</ele>
        <time>2024-11-20T14:17:52Z</time>
      </trkpt>
      <trkpt lat="48.16969" lon="-3.30128">
        <ele>200.3</ele>
        <time>2024-11-20T14:17:53Z</time>
      </trkpt>
      <trkpt lat="48.16969" lon="-3.3013">
        <ele>200.3</ele>
        <time>2024-11-20T14:17:54Z</time>
      </trkpt>
      <trkpt lat="48.16969" lon="-3.30132">
        <ele>200.2</ele>
        <time>2024-11-20T14:17:55Z</time>
      </trkpt>
      <trkpt lat="48.16969" lon="-3.30133">
        <ele>200.2</ele>
        <time>2024-11-20T14:17:56Z</time>
      </trkpt>
      <trkpt lat="48.16969" lon="-3.30134">
        <ele>200.1</ele>
        <time>2024-11-20T14:17:57Z</time>
      </trkpt>
      <trkpt lat="48.16969" lon="-3.30136">
        <ele>200.1</ele>
        <time>2024-11-20T14:17:58Z</time>
      </trkpt>
      <trkpt lat="48.16969" lon="-3.30138">
        <ele>200</ele>
        <time>2024-11-20T14:17:59Z</time>
      </trkpt>
      <trkpt lat="48.16969" lon="-3.3014">
        <ele>200</ele>
        <time>2024-11-20T14:18:00Z</time>
      </trkpt>
      <trkpt lat="48.1697" lon="-3.30141">
        <ele>200</ele>
        <time>2024-11-20T14:18:01Z</time>
      </trkpt>
      <trkpt lat="48.1697" lon="-3.30143">
        <ele>200</ele>
        <time>2024-11-20T14:18:02Z</time>
      </trkpt>
      <trkpt lat="48.1697" lon="-3.30144">
        <ele>200</ele>
        <time>2024-11-20T14:18:03Z</time>
      </trkpt>
      <trkpt lat="48.1697" lon="-3.30145">
        <ele>200</ele>
        <time>2024-11-20T14:18:04Z</time>
      </trkpt>
      <trkpt lat="48.16971" lon="-3.30147">
        <ele>200</ele>
        <time>2024-11-20T14:18:05Z</time>
      </trkpt>
      <trkpt lat="48.16971" lon="-3.30148">
        <ele>200</ele>
        <time>2024-11-20T14:18:06Z</time>
      </trkpt>
      <trkpt lat="48.16971" lon="-3.30149">
        <ele>200</ele>
        <time>2024-11-20T14:18:07Z</time>
      </trkpt>
      <trkpt lat="48.16971" lon="-3.30151">
        <ele>200</ele>
        <time>2024-11-20T14:18:08Z</time>
      </trkpt>
      <trkpt lat="48.16972" lon="-3.30152">
        <ele>200</ele>
        <time>2024-11-20T14:18:09Z</time>
      </trkpt>
      <trkpt lat="48.16972" lon="-3.30154">
        <ele>200</ele>
        <time>2024-11-20T14:18:10Z</time>
      </trkpt>
      <trkpt lat="48.16972" lon="-3.30156">
        <ele>200</ele>
        <time>2024-11-20T14:18:11Z</time>
      </trkpt>
      <trkpt lat="48.16973" lon="-3.30158">
        <ele>200</ele>
        <time>2024-11-20T14:18:12Z</time>
      </trkpt>
      <trkpt lat="48.16973" lon="-3.3016">
        <ele>200</ele>
        <time>2024-11-20T14:18:13Z</time>
      </trkpt>
      <trkpt lat="48.16973" lon="-3.30161">
        <ele>200.1</ele>
        <time>2024-11-20T14:18:14Z</time>
      </trkpt>
      <trkpt lat="48.16973" lon="-3.30163">
        <ele>200.1</ele>
        <time>2024-11-20T14:18:15Z</time>
      </trkpt>
      <trkpt lat="48.16973" lon="-3.30164">
        <ele>200.1</ele>
        <time>2024-11-20T14:18:16Z</time>
      </trkpt>
      <trkpt lat="48.16974" lon="-3.30166">
        <ele>200.1</ele>
        <time>2024-11-20T14:18:17Z</time>
      </trkpt>
      <trkpt lat="48.16974" lon="-3.30167">
        <ele>200.1</ele>
        <time>2024-11-20T14:18:18Z</time>
      </trkpt>
      <trkpt lat="48.16974" lon="-3.30169">
        <ele>200.1</ele>
        <time>2024-11-20T14:18:19Z</time>
      </trkpt>
      <trkpt lat="48.16975" lon="-3.3017">
        <ele>200.2</ele>
        <time>2024-11-20T14:18:20Z</time>
      </trkpt>
      <trkpt lat="48.16975" lon="-3.30171">
        <ele>200.2</ele>
        <time>2024-11-20T14:18:21Z</time>
      </trkpt>
      <trkpt lat="48.16975" lon="-3.30172">
        <ele>200.2</ele>
        <time>2024-11-20T14:18:22Z</time>
      </trkpt>
      <trkpt lat="48.16976" lon="-3.30174">
        <ele>200.2</ele>
        <time>2024-11-20T14:18:23Z</time>
      </trkpt>
      <trkpt lat="48.16976" lon="-3.30175">
        <ele>200.2</ele>
        <time>2024-11-20T14:18:24Z</time>
      </trkpt>
      <trkpt lat="48.16977" lon="-3.30176">
        <ele>200.3</ele>
        <time>2024-11-20T14:18:25Z</time>
      </trkpt>
      <trkpt lat="48.16977" lon="-3.30178">
        <ele>200.3</ele>
        <time>2024-11-20T14:18:26Z</time>
      </trkpt>
      <trkpt lat="48.16977" lon="-3.3018">
        <ele>200.3</ele>
        <time>2024-11-20T14:18:27Z</time>
      </trkpt>
      <trkpt lat="48.16978" lon="-3.30181">
        <ele>200.3</ele>
        <time>2024-11-20T14:18:28Z</time>
      </trkpt>
      <trkpt lat="48.16978" lon="-3.30183">
        <ele>200.3</ele>
        <time>2024-11-20T14:18:29Z</time>
      </trkpt>
      <trkpt lat="48.16979" lon="-3.30184">
        <ele>200.3</ele>
        <time>2024-11-20T14:18:30Z</time>
      </trkpt>
      <trkpt lat="48.16979" lon="-3.30186">
        <ele>200.3</ele>
        <time>2024-11-20T14:18:31Z</time>
      </trkpt>
      <trkpt lat="48.1698" lon="-3.30188">
        <ele>200.3</ele>
        <time>2024-11-20T14:18:32Z</time>
      </trkpt>
      <trkpt lat="48.1698" lon="-3.30189">
        <ele>200.3</ele>
        <time>2024-11-20T14:18:33Z</time>
      </trkpt>
      <trkpt lat="48.1698" lon="-3.30191">
        <ele>200.3</ele>
        <time>2024-11-20T14:18:34Z</time>
      </trkpt>
      <trkpt lat="48.16981" lon="-3.30192">
        <ele>200.3</ele>
        <time>2024-11-20T14:18:35Z</time>
      </trkpt>
      <trkpt lat="48.16981" lon="-3.30193">
        <ele>200.3</ele>
        <time>2024-11-20T14:18:36Z</time>
      </trkpt>
      <trkpt lat="48.16981" lon="-3.30195">
        <ele>200.3</ele>
        <time>2024-11-20T14:18:37Z</time>
      </trkpt>
      <trkpt lat="48.16982" lon="-3.30195">
        <ele>200.3</ele>
        <time>2024-11-20T14:18:38Z</time>
      </trkpt>
      <trkpt lat="48.16982" lon="-3.30196">
        <ele>200.3</ele>
        <time>2024-11-20T14:18:39Z</time>
      </trkpt>
      <trkpt lat="48.16982" lon="-3.30198">
        <ele>200.3</ele>
        <time>2024-11-20T14:18:40Z</time>
      </trkpt>
      <trkpt lat="48.16983" lon="-3.302">
        <ele>200.3</ele>
        <time>2024-11-20T14:18:41Z</time>
      </trkpt>
      <trkpt lat="48.16983" lon="-3.30202">
        <ele>200.3</ele>
        <time>2024-11-20T14:18:42Z</time>
      </trkpt>
      <trkpt lat="48.16983" lon="-3.30203">
        <ele>200.3</ele>
        <time>2024-11-20T14:18:43Z</time>
      </trkpt>
      <trkpt lat="48.16983" lon="-3.30205">
        <ele>200.2</ele>
        <time>2024-11-20T14:18:44Z</time>
      </trkpt>
      <trkpt lat="48.16984" lon="-3.30207">
        <ele>200.2</ele>
        <time>2024-11-20T14:18:45Z</time>
      </trkpt>
      <trkpt lat="48.16984" lon="-3.30209">
        <ele>200.2</ele>
        <time>2024-11-20T14:18:46Z</time>
      </trkpt>
      <trkpt lat="48.16984" lon="-3.3021">
        <ele>200.2</ele>
        <time>2024-11-20T14:18:47Z</time>
      </trkpt>
      <trkpt lat="48.16985" lon="-3.30212">
        <ele>200.2</ele>
        <time>2024-11-20T14:18:48Z</time>
      </trkpt>
      <trkpt lat="48.16985" lon="-3.30214">
        <ele>200.1</ele>
        <time>2024-11-20T14:18:49Z</time>
      </trkpt>
      <trkpt lat="48.16985" lon="-3.30215">
        <ele>200.1</ele>
        <time>2024-11-20T14:18:50Z</time>
      </trkpt>
      <trkpt lat="48.16986" lon="-3.30217">
        <ele>200.1</ele>
        <time>2024-11-20T14:18:51Z</time>
      </trkpt>
      <trkpt lat="48.16986" lon="-3.30219">
        <ele>200.1</ele>
        <time>2024-11-20T14:18:52Z</time>
      </trkpt>
      <trkpt lat="48.16987" lon="-3.3022">
        <ele>200</ele>
        <time>2024-11-20T14:18:53Z</time>
      </trkpt>
      <trkpt lat="48.16987" lon="-3.30221">
        <ele>200</ele>
        <time>2024-11-20T14:18:54Z</time>
      </trkpt>
      <trkpt lat="48.16987" lon="-3.30223">
        <ele>200</ele>
        <time>2024-11-20T14:18:55Z</time>
      </trkpt>
      <trkpt lat="48.16988" lon="-3.30225">
        <ele>200</ele>
        <time>2024-11-20T14:18:56Z</time>
      </trkpt>
      <trkpt lat="48.16988" lon="-3.30227">
        <ele>199.9</ele>
        <time>2024-11-20T14:18:57Z</time>
      </trkpt>
      <trkpt lat="48.16988" lon="-3.30228">
        <ele>199.9</ele>
        <time>2024-11-20T14:18:58Z</time>
      </trkpt>
      <trkpt lat="48.16988" lon="-3.3023">
        <ele>199.9</ele>
        <time>2024-11-20T14:18:59Z</time>
      </trkpt>
      <trkpt lat="48.16988" lon="-3.30231">
        <ele>199.9</ele>
        <time>2024-11-20T14:19:00Z</time>
      </trkpt>
      <trkpt lat="48.16988" lon="-3.30232">
        <ele>199.8</ele>
        <time>2024-11-20T14:19:01Z</time>
      </trkpt>
      <trkpt lat="48.16989" lon="-3.30234">
        <ele>199.8</ele>
        <time>2024-11-20T14:19:02Z</time>
      </trkpt>
      <trkpt lat="48.16989" lon="-3.30236">
        <ele>199.8</ele>
        <time>2024-11-20T14:19:03Z</time>
      </trkpt>
      <trkpt lat="48.16989" lon="-3.30237">
        <ele>199.8</ele>
        <time>2024-11-20T14:19:04Z</time>
      </trkpt>
      <trkpt lat="48.1699" lon="-3.30239">
        <ele>199.8</ele>
        <time>2024-11-20T14:19:05Z</time>
      </trkpt>
      <trkpt lat="48.16991" lon="-3.30241">
        <ele>199.8</ele>
        <time>2024-11-20T14:19:06Z</time>
      </trkpt>
      <trkpt lat="48.16991" lon="-3.30242">
        <ele>199.8</ele>
        <time>2024-11-20T14:19:07Z</time>
      </trkpt>
      <trkpt lat="48.16991" lon="-3.30243">
        <ele>199.8</ele>
        <time>2024-11-20T14:19:08Z</time>
      </trkpt>
      <trkpt lat="48.16992" lon="-3.30245">
        <ele>199.8</ele>
        <time>2024-11-20T14:19:09Z</time>
      </trkpt>
      <trkpt lat="48.16992" lon="-3.30246">
        <ele>199.8</ele>
        <time>2024-11-20T14:19:10Z</time>
      </trkpt>
      <trkpt lat="48.16992" lon="-3.30247">
        <ele>199.8</ele>
        <time>2024-11-20T14:19:11Z</time>
      </trkpt>
      <trkpt lat="48.16993" lon="-3.30249">
        <ele>199.7</ele>
        <time>2024-11-20T14:19:12Z</time>
      </trkpt>
      <trkpt lat="48.16993" lon="-3.30251">
        <ele>199.7</ele>
        <time>2024-11-20T14:19:13Z</time>
      </trkpt>
      <trkpt lat="48.16993" lon="-3.30251">
        <ele>199.7</ele>
        <time>2024-11-20T14:19:14Z</time>
      </trkpt>
      <trkpt lat="48.16994" lon="-3.30252">
        <ele>199.7</ele>
        <time>2024-11-20T14:19:15Z</time>
      </trkpt>
      <trkpt lat="48.16994" lon="-3.30254">
        <ele>199.7</ele>
        <time>2024-11-20T14:19:16Z</time>
      </trkpt>
      <trkpt lat="48.16995" lon="-3.30255">
        <ele>199.6</ele>
        <time>2024-11-20T14:19:17Z</time>
      </trkpt>
      <trkpt lat="48.16995" lon="-3.30257">
        <ele>199.6</ele>
        <time>2024-11-20T14:19:18Z</time>
      </trkpt>
      <trkpt lat="48.16995" lon="-3.30259">
        <ele>199.6</ele>
        <time>2024-11-20T14:19:19Z</time>
      </trkpt>
      <trkpt lat="48.16996" lon="-3.30261">
        <ele>199.5</ele>
        <time>2024-11-20T14:19:20Z</time>
      </trkpt>
      <trkpt lat="48.16996" lon="-3.30262">
        <ele>199.5</ele>
        <time>2024-11-20T14:19:21Z</time>
      </trkpt>
      <trkpt lat="48.16997" lon="-3.30264">
        <ele>199.4</ele>
        <time>2024-11-20T14:19:22Z</time>
      </trkpt>
      <trkpt lat="48.16997" lon="-3.30265">
        <ele>199.4</ele>
        <time>2024-11-20T14:19:23Z</time>
      </trkpt>
      <trkpt lat="48.16997" lon="-3.30267">
        <ele>199.4</ele>
        <time>2024-11-20T14:19:24Z</time>
      </trkpt>
      <trkpt lat="48.16997" lon="-3.30268">
        <ele>199.3</ele>
        <time>2024-11-20T14:19:25Z</time>
      </trkpt>
      <trkpt lat="48.16998" lon="-3.3027">
        <ele>199.3</ele>
        <time>2024-11-20T14:19:26Z</time>
      </trkpt>
      <trkpt lat="48.16998" lon="-3.30271">
        <ele>199.2</ele>
        <time>2024-11-20T14:19:27Z</time>
      </trkpt>
      <trkpt lat="48.16999" lon="-3.30273">
        <ele>199.2</ele>
        <time>2024-11-20T14:19:28Z</time>
      </trkpt>
      <trkpt lat="48.17" lon="-3.30275">
        <ele>199.1</ele>
        <time>2024-11-20T14:19:29Z</time>
      </trkpt>
      <trkpt lat="48.17" lon="-3.30277">
        <ele>199</ele>
        <time>2024-11-20T14:19:30Z</time>
      </trkpt>
      <trkpt lat="48.17001" lon="-3.30278">
        <ele>199</ele>
        <time>2024-11-20T14:19:31Z</time>
      </trkpt>
      <trkpt lat="48.17001" lon="-3.30279">
        <ele>199</ele>
        <time>2024-11-20T14:19:32Z</time>
      </trkpt>
      <trkpt lat="48.17002" lon="-3.30281">
        <ele>199.1</ele>
        <time>2024-11-20T14:19:33Z</time>
      </trkpt>
      <trkpt lat="48.17002" lon="-3.30283">
        <ele>199.1</ele>
        <time>2024-11-20T14:19:34Z</time>
      </trkpt>
      <trkpt lat="48.17003" lon="-3.30286">
        <ele>199.1</ele>
        <time>2024-11-20T14:19:35Z</time>
      </trkpt>
      <trkpt lat="48.17003" lon="-3.30288">
        <ele>199.1</ele>
        <time>2024-11-20T14:19:36Z</time>
      </trkpt>
      <trkpt lat="48.17003" lon="-3.30289">
        <ele>199.1</ele>
        <time>2024-11-20T14:19:37Z</time>
      </trkpt>
      <trkpt lat="48.17004" lon="-3.30291">
        <ele>199.1</ele>
        <time>2024-11-20T14:19:38Z</time>
      </trkpt>
      <trkpt lat="48.17004" lon="-3.30293">
        <ele>199.1</ele>
        <time>2024-11-20T14:19:39Z</time>
      </trkpt>
      <trkpt lat="48.17005" lon="-3.30294">
        <ele>199.1</ele>
        <time>2024-11-20T14:19:40Z</time>
      </trkpt>
      <trkpt lat="48.17005" lon="-3.30296">
        <ele>199.1</ele>
        <time>2024-11-20T14:19:41Z</time>
      </trkpt>
      <trkpt lat="48.17006" lon="-3.30298">
        <ele>199.1</ele>
        <time>2024-11-20T14:19:42Z</time>
      </trkpt>
      <trkpt lat="48.17006" lon="-3.30299">
        <ele>199</ele>
        <time>2024-11-20T14:19:43Z</time>
      </trkpt>
      <trkpt lat="48.17007" lon="-3.30301">
        <ele>199</ele>
        <time>2024-11-20T14:19:44Z</time>
      </trkpt>
      <trkpt lat="48.17007" lon="-3.30302">
        <ele>199</ele>
        <time>2024-11-20T14:19:45Z</time>
      </trkpt>
      <trkpt lat="48.17008" lon="-3.30303">
        <ele>199</ele>
        <time>2024-11-20T14:19:46Z</time>
      </trkpt>
      <trkpt lat="48.17008" lon="-3.30305">
        <ele>199</ele>
        <time>2024-11-20T14:19:47Z</time>
      </trkpt>
      <trkpt lat="48.17009" lon="-3.30307">
        <ele>199</ele>
        <time>2024-11-20T14:19:48Z</time>
      </trkpt>
      <trkpt lat="48.17009" lon="-3.30308">
        <ele>199</ele>
        <time>2024-11-20T14:19:49Z</time>
      </trkpt>
      <trkpt lat="48.17009" lon="-3.3031">
        <ele>199</ele>
        <time>2024-11-20T14:19:50Z</time>
      </trkpt>
      <trkpt lat="48.17009" lon="-3.30312">
        <ele>199</ele>
        <time>2024-11-20T14:19:51Z</time>
      </trkpt>
      <trkpt lat="48.17009" lon="-3.30314">
        <ele>199</ele>
        <time>2024-11-20T14:19:52Z</time>
      </trkpt>
      <trkpt lat="48.17009" lon="-3.30316">
        <ele>199</ele>
        <time>2024-11-20T14:19:53Z</time>
      </trkpt>
      <trkpt lat="48.17009" lon="-3.30317">
        <ele>199</ele>
        <time>2024-11-20T14:19:54Z</time>
      </trkpt>
      <trkpt lat="48.17009" lon="-3.30319">
        <ele>199</ele>
        <time>2024-11-20T14:19:55Z</time>
      </trkpt>
      <trkpt lat="48.17009" lon="-3.30321">
        <ele>199</ele>
        <time>2024-11-20T14:19:56Z</time>
      </trkpt>
      <trkpt lat="48.17009" lon="-3.30323">
        <ele>199</ele>
        <time>2024-11-20T14:19:57Z</time>
      </trkpt>
      <trkpt lat="48.17008" lon="-3.30324">
        <ele>199</ele>
        <time>2024-11-20T14:19:58Z</time>
      </trkpt>
      <trkpt lat="48.17008" lon="-3.30326">
        <ele>199</ele>
        <time>2024-11-20T14:19:59Z</time>
      </trkpt>
      <trkpt lat="48.17008" lon="-3.30328">
        <ele>199</ele>
        <time>2024-11-20T14:20:00Z</time>
      </trkpt>
      <trkpt lat="48.17007" lon="-3.30329">
        <ele>199</ele>
        <time>2024-11-20T14:20:01Z</time>
      </trkpt>
      <trkpt lat="48.17007" lon="-3.30331">
        <ele>199</ele>
        <time>2024-11-20T14:20:02Z</time>
      </trkpt>
      <trkpt lat="48.17006" lon="-3.30332">
        <ele>199</ele>
        <time>2024-11-20T14:20:03Z</time>
      </trkpt>
      <trkpt lat="48.17006" lon="-3.30333">
        <ele>199</ele>
        <time>2024-11-20T14:20:04Z</time>
      </trkpt>
      <trkpt lat="48.17006" lon="-3.30335">
        <ele>199</ele>
        <time>2024-11-20T14:20:05Z</time>
      </trkpt>
      <trkpt lat="48.17005" lon="-3.30336">
        <ele>199</ele>
        <time>2024-11-20T14:20:06Z</time>
      </trkpt>
      <trkpt lat="48.17005" lon="-3.30338">
        <ele>199</ele>
        <time>2024-11-20T14:20:07Z</time>
      </trkpt>
      <trkpt lat="48.17005" lon="-3.30339">
        <ele>199</ele>
        <time>2024-11-20T14:20:08Z</time>
      </trkpt>
      <trkpt lat="48.17004" lon="-3.3034">
        <ele>199</ele>
        <time>2024-11-20T14:20:09Z</time>
      </trkpt>
      <trkpt lat="48.17004" lon="-3.30341">
        <ele>199</ele>
        <time>2024-11-20T14:20:10Z</time>
      </trkpt>
      <trkpt lat="48.17003" lon="-3.30342">
        <ele>199</ele>
        <time>2024-11-20T14:20:11Z</time>
      </trkpt>
      <trkpt lat="48.17002" lon="-3.30343">
        <ele>199</ele>
        <time>2024-11-20T14:20:12Z</time>
      </trkpt>
      <trkpt lat="48.17002" lon="-3.30344">
        <ele>199</ele>
        <time>2024-11-20T14:20:13Z</time>
      </trkpt>
      <trkpt lat="48.17001" lon="-3.30344">
        <ele>199</ele>
        <time>2024-11-20T14:20:14Z</time>
      </trkpt>
      <trkpt lat="48.17" lon="-3.30344">
        <ele>199</ele>
        <time>2024-11-20T14:20:15Z</time>
      </trkpt>
      <trkpt lat="48.16999" lon="-3.30344">
        <ele>199</ele>
        <time>2024-11-20T14:20:16Z</time>
      </trkpt>
      <trkpt lat="48.16998" lon="-3.30345">
        <ele>199</ele>
        <time>2024-11-20T14:20:17Z</time>
      </trkpt>
      <trkpt lat="48.16997" lon="-3.30345">
        <ele>199</ele>
        <time>2024-11-20T14:20:18Z</time>
      </trkpt>
      <trkpt lat="48.16996" lon="-3.30346">
        <ele>199</ele>
        <time>2024-11-20T14:20:19Z</time>
      </trkpt>
      <trkpt lat="48.16995" lon="-3.30346">
        <ele>199</ele>
        <time>2024-11-20T14:20:20Z</time>
      </trkpt>
      <trkpt lat="48.16993" lon="-3.30346">
        <ele>199</ele>
        <time>2024-11-20T14:20:21Z</time>
      </trkpt>
      <trkpt lat="48.16992" lon="-3.30346">
        <ele>199</ele>
        <time>2024-11-20T14:20:22Z</time>
      </trkpt>
      <trkpt lat="48.16991" lon="-3.30346">
        <ele>199</ele>
        <time>2024-11-20T14:20:23Z</time>
      </trkpt>
      <trkpt lat="48.1699" lon="-3.30346">
        <ele>199</ele>
        <time>2024-11-20T14:20:24Z</time>
      </trkpt>
      <trkpt lat="48.16989" lon="-3.30347">
        <ele>199</ele>
        <time>2024-11-20T14:20:25Z</time>
      </trkpt>
      <trkpt lat="48.16988" lon="-3.30347">
        <ele>199</ele>
        <time>2024-11-20T14:20:26Z</time>
      </trkpt>
      <trkpt lat="48.16986" lon="-3.30348">
        <ele>199</ele>
        <time>2024-11-20T14:20:27Z</time>
      </trkpt>
      <trkpt lat="48.16986" lon="-3.30348">
        <ele>199</ele>
        <time>2024-11-20T14:20:28Z</time>
      </trkpt>
      <trkpt lat="48.16985" lon="-3.30348">
        <ele>199</ele>
        <time>2024-11-20T14:20:29Z</time>
      </trkpt>
      <trkpt lat="48.16984" lon="-3.30348">
        <ele>199</ele>
        <time>2024-11-20T14:20:30Z</time>
      </trkpt>
      <trkpt lat="48.16983" lon="-3.30348">
        <ele>199</ele>
        <time>2024-11-20T14:20:31Z</time>
      </trkpt>
      <trkpt lat="48.16982" lon="-3.30349">
        <ele>199</ele>
        <time>2024-11-20T14:20:32Z</time>
      </trkpt>
      <trkpt lat="48.1698" lon="-3.30349">
        <ele>199</ele>
        <time>2024-11-20T14:20:33Z</time>
      </trkpt>
      <trkpt lat="48.16979" lon="-3.30349">
        <ele>199</ele>
        <time>2024-11-20T14:20:34Z</time>
      </trkpt>
      <trkpt lat="48.16978" lon="-3.3035">
        <ele>199</ele>
        <time>2024-11-20T14:20:35Z</time>
      </trkpt>
      <trkpt lat="48.16977" lon="-3.3035">
        <ele>199</ele>
        <time>2024-11-20T14:20:36Z</time>
      </trkpt>
      <trkpt lat="48.16975" lon="-3.30351">
        <ele>199</ele>
        <time>2024-11-20T14:20:37Z</time>
      </trkpt>
      <trkpt lat="48.16974" lon="-3.30351">
        <ele>199</ele>
        <time>2024-11-20T14:20:38Z</time>
      </trkpt>
      <trkpt lat="48.16973" lon="-3.30351">
        <ele>199</ele>
        <time>2024-11-20T14:20:39Z</time>
      </trkpt>
      <trkpt lat="48.16971" lon="-3.30352">
        <ele>199</ele>
        <time>2024-11-20T14:20:40Z</time>
      </trkpt>
      <trkpt lat="48.1697" lon="-3.30352">
        <ele>198.9</ele>
        <time>2024-11-20T14:20:41Z</time>
      </trkpt>
      <trkpt lat="48.16968" lon="-3.30352">
        <ele>198.9</ele>
        <time>2024-11-20T14:20:42Z</time>
      </trkpt>
      <trkpt lat="48.16967" lon="-3.30352">
        <ele>198.8</ele>
        <time>2024-11-20T14:20:43Z</time>
      </trkpt>
      <trkpt lat="48.16966" lon="-3.30353">
        <ele>198.8</ele>
        <time>2024-11-20T14:20:44Z</time>
      </trkpt>
      <trkpt lat="48.16965" lon="-3.30353">
        <ele>198.7</ele>
        <time>2024-11-20T14:20:45Z</time>
      </trkpt>
      <trkpt lat="48.16964" lon="-3.30354">
        <ele>198.7</ele>
        <time>2024-11-20T14:20:46Z</time>
      </trkpt>
      <trkpt lat="48.16963" lon="-3.30355">
        <ele>198.7</ele>
        <time>2024-11-20T14:20:47Z</time>
      </trkpt>
      <trkpt lat="48.16962" lon="-3.30355">
        <ele>198.6</ele>
        <time>2024-11-20T14:20:48Z</time>
      </trkpt>
      <trkpt lat="48.1696" lon="-3.30356">
        <ele>198.6</ele>
        <time>2024-11-20T14:20:49Z</time>
      </trkpt>
      <trkpt lat="48.1696" lon="-3.30356">
        <ele>198.5</ele>
        <time>2024-11-20T14:20:50Z</time>
      </trkpt>
      <trkpt lat="48.16959" lon="-3.30357">
        <ele>198.5</ele>
        <time>2024-11-20T14:20:51Z</time>
      </trkpt>
      <trkpt lat="48.16958" lon="-3.30357">
        <ele>198.5</ele>
        <time>2024-11-20T14:20:52Z</time>
      </trkpt>
      <trkpt lat="48.16956" lon="-3.30358">
        <ele>198.4</ele>
        <time>2024-11-20T14:20:53Z</time>
      </trkpt>
      <trkpt lat="48.16955" lon="-3.30358">
        <ele>198.4</ele>
        <time>2024-11-20T14:20:54Z</time>
      </trkpt>
      <trkpt lat="48.16953" lon="-3.30359">
        <ele>198.3</ele>
        <time>2024-11-20T14:20:55Z</time>
      </trkpt>
      <trkpt lat="48.16952" lon="-3.30359">
        <ele>198.3</ele>
        <time>2024-11-20T14:20:56Z</time>
      </trkpt>
      <trkpt lat="48.16951" lon="-3.3036">
        <ele>198.2</ele>
        <time>2024-11-20T14:20:57Z</time>
      </trkpt>
      <trkpt lat="48.1695" lon="-3.3036">
        <ele>198.2</ele>
        <time>2024-11-20T14:20:58Z</time>
      </trkpt>
      <trkpt lat="48.16949" lon="-3.3036">
        <ele>198.2</ele>
        <time>2024-11-20T14:20:59Z</time>
      </trkpt>
      <trkpt lat="48.16948" lon="-3.30361">
        <ele>198.1</ele>
        <time>2024-11-20T14:21:00Z</time>
      </trkpt>
      <trkpt lat="48.16947" lon="-3.30361">
        <ele>198.1</ele>
        <time>2024-11-20T14:21:01Z</time>
      </trkpt>
      <trkpt lat="48.16945" lon="-3.30362">
        <ele>198</ele>
        <time>2024-11-20T14:21:02Z</time>
      </trkpt>
      <trkpt lat="48.16944" lon="-3.30362">
        <ele>198</ele>
        <time>2024-11-20T14:21:03Z</time>
      </trkpt>
      <trkpt lat="48.16943" lon="-3.30362">
        <ele>198</ele>
        <time>2024-11-20T14:21:04Z</time>
      </trkpt>
      <trkpt lat="48.16942" lon="-3.30363">
        <ele>198.1</ele>
        <time>2024-11-20T14:21:05Z</time>
      </trkpt>
      <trkpt lat="48.16941" lon="-3.30363">
        <ele>198.1</ele>
        <time>2024-11-20T14:21:06Z</time>
      </trkpt>
      <trkpt lat="48.1694" lon="-3.30363">
        <ele>198.2</ele>
        <time>2024-11-20T14:21:07Z</time>
      </trkpt>
      <trkpt lat="48.16939" lon="-3.30364">
        <ele>198.2</ele>
        <time>2024-11-20T14:21:08Z</time>
      </trkpt>
      <trkpt lat="48.16938" lon="-3.30364">
        <ele>198.2</ele>
        <time>2024-11-20T14:21:09Z</time>
      </trkpt>
      <trkpt lat="48.16936" lon="-3.30365">
        <ele>198.3</ele>
        <time>2024-11-20T14:21:10Z</time>
      </trkpt>
      <trkpt lat="48.16935" lon="-3.30366">
        <ele>198.3</ele>
        <time>2024-11-20T14:21:11Z</time>
      </trkpt>
      <trkpt lat="48.16934" lon="-3.30367">
        <ele>198.4</ele>
        <time>2024-11-20T14:21:12Z</time>
      </trkpt>
      <trkpt lat="48.16933" lon="-3.30367">
        <ele>198.4</ele>
        <time>2024-11-20T14:21:13Z</time>
      </trkpt>
      <trkpt lat="48.16932" lon="-3.30368">
        <ele>198.4</ele>
        <time>2024-11-20T14:21:14Z</time>
      </trkpt>
      <trkpt lat="48.16931" lon="-3.30369">
        <ele>198.5</ele>
        <time>2024-11-20T14:21:15Z</time>
      </trkpt>
      <trkpt lat="48.1693" lon="-3.3037">
        <ele>198.5</ele>
        <time>2024-11-20T14:21:16Z</time>
      </trkpt>
      <trkpt lat="48.16928" lon="-3.30372">
        <ele>198.6</ele>
        <time>2024-11-20T14:21:17Z</time>
      </trkpt>
      <trkpt lat="48.16927" lon="-3.30373">
        <ele>198.6</ele>
        <time>2024-11-20T14:21:18Z</time>
      </trkpt>
      <trkpt lat="48.16926" lon="-3.30374">
        <ele>198.7</ele>
        <time>2024-11-20T14:21:19Z</time>
      </trkpt>
      <trkpt lat="48.16925" lon="-3.30375">
        <ele>198.7</ele>
        <time>2024-11-20T14:21:20Z</time>
      </trkpt>
      <trkpt lat="48.16923" lon="-3.30376">
        <ele>198.8</ele>
        <time>2024-11-20T14:21:21Z</time>
      </trkpt>
      <trkpt lat="48.16922" lon="-3.30377">
        <ele>198.8</ele>
        <time>2024-11-20T14:21:22Z</time>
      </trkpt>
      <trkpt lat="48.16921" lon="-3.30378">
        <ele>198.9</ele>
        <time>2024-11-20T14:21:23Z</time>
      </trkpt>
      <trkpt lat="48.1692" lon="-3.30379">
        <ele>198.9</ele>
        <time>2024-11-20T14:21:24Z</time>
      </trkpt>
      <trkpt lat="48.16918" lon="-3.3038">
        <ele>198.9</ele>
        <time>2024-11-20T14:21:25Z</time>
      </trkpt>
      <trkpt lat="48.16917" lon="-3.30382">
        <ele>199</ele>
        <time>2024-11-20T14:21:26Z</time>
      </trkpt>
      <trkpt lat="48.16916" lon="-3.30383">
        <ele>199.1</ele>
        <time>2024-11-20T14:21:27Z</time>
      </trkpt>
      <trkpt lat="48.16915" lon="-3.30384">
        <ele>199.1</ele>
        <time>2024-11-20T14:21:28Z</time>
      </trkpt>
      <trkpt lat="48.16913" lon="-3.30385">
        <ele>199.1</ele>
        <time>2024-11-20T14:21:29Z</time>
      </trkpt>
      <trkpt lat="48.16912" lon="-3.30386">
        <ele>199.2</ele>
        <time>2024-11-20T14:21:30Z</time>
      </trkpt>
      <trkpt lat="48.16911" lon="-3.30388">
        <ele>199.2</ele>
        <time>2024-11-20T14:21:31Z</time>
      </trkpt>
      <trkpt lat="48.1691" lon="-3.30389">
        <ele>199.2</ele>
        <time>2024-11-20T14:21:32Z</time>
      </trkpt>
      <trkpt lat="48.16909" lon="-3.30389">
        <ele>199.3</ele>
        <time>2024-11-20T14:21:33Z</time>
      </trkpt>
      <trkpt lat="48.16908" lon="-3.3039">
        <ele>199.3</ele>
        <time>2024-11-20T14:21:34Z</time>
      </trkpt>
      <trkpt lat="48.16907" lon="-3.30391">
        <ele>199.3</ele>
        <time>2024-11-20T14:21:35Z</time>
      </trkpt>
      <trkpt lat="48.16907" lon="-3.30391">
        <ele>199.3</ele>
        <time>2024-11-20T14:21:36Z</time>
      </trkpt>
      <trkpt lat="48.16907" lon="-3.30391">
        <ele>199.3</ele>
        <time>2024-11-20T14:21:37Z</time>
      </trkpt>
      <trkpt lat="48.16906" lon="-3.30391">
        <ele>199.3</ele>
        <time>2024-11-20T14:21:38Z</time>
      </trkpt>
      <trkpt lat="48.16905" lon="-3.30393">
        <ele>199.4</ele>
        <time>2024-11-20T14:21:39Z</time>
      </trkpt>
      <trkpt lat="48.16904" lon="-3.30394">
        <ele>199.4</ele>
        <time>2024-11-20T14:21:40Z</time>
      </trkpt>
      <trkpt lat="48.16903" lon="-3.30395">
        <ele>199.4</ele>
        <time>2024-11-20T14:21:41Z</time>
      </trkpt>
      <trkpt lat="48.16902" lon="-3.30395">
        <ele>199.4</ele>
        <time>2024-11-20T14:21:42Z</time>
      </trkpt>
      <trkpt lat="48.16901" lon="-3.30396">
        <ele>199.4</ele>
        <time>2024-11-20T14:21:43Z</time>
      </trkpt>
      <trkpt lat="48.169" lon="-3.30397">
        <ele>199.5</ele>
        <time>2024-11-20T14:21:44Z</time>
      </trkpt>
      <trkpt lat="48.16899" lon="-3.30399">
        <ele>199.5</ele>
        <time>2024-11-20T14:21:45Z</time>
      </trkpt>
      <trkpt lat="48.16898" lon="-3.304">
        <ele>199.5</ele>
        <time>2024-11-20T14:21:46Z</time>
      </trkpt>
      <trkpt lat="48.16897" lon="-3.30401">
        <ele>199.6</ele>
        <time>2024-11-20T14:21:47Z</time>
      </trkpt>
      <trkpt lat="48.16896" lon="-3.30402">
        <ele>199.6</ele>
        <time>2024-11-20T14:21:48Z</time>
      </trkpt>
      <trkpt lat="48.16895" lon="-3.30404">
        <ele>199.6</ele>
        <time>2024-11-20T14:21:49Z</time>
      </trkpt>
      <trkpt lat="48.16894" lon="-3.30405">
        <ele>199.7</ele>
        <time>2024-11-20T14:21:50Z</time>
      </trkpt>
      <trkpt lat="48.16893" lon="-3.30406">
        <ele>199.7</ele>
        <time>2024-11-20T14:21:51Z</time>
      </trkpt>
      <trkpt lat="48.16893" lon="-3.30407">
        <ele>199.8</ele>
        <time>2024-11-20T14:21:52Z</time>
      </trkpt>
      <trkpt lat="48.16892" lon="-3.30408">
        <ele>199.8</ele>
        <time>2024-11-20T14:21:53Z</time>
      </trkpt>
      <trkpt lat="48.16892" lon="-3.30409">
        <ele>199.8</ele>
        <time>2024-11-20T14:21:54Z</time>
      </trkpt>
      <trkpt lat="48.16891" lon="-3.3041">
        <ele>199.9</ele>
        <time>2024-11-20T14:21:55Z</time>
      </trkpt>
      <trkpt lat="48.1689" lon="-3.30411">
        <ele>200</ele>
        <time>2024-11-20T14:21:56Z</time>
      </trkpt>
      <trkpt lat="48.16889" lon="-3.30412">
        <ele>200</ele>
        <time>2024-11-20T14:21:57Z</time>
      </trkpt>
      <trkpt lat="48.16888" lon="-3.30413">
        <ele>200.1</ele>
        <time>2024-11-20T14:21:58Z</time>
      </trkpt>
      <trkpt lat="48.16887" lon="-3.30414">
        <ele>200.3</ele>
        <time>2024-11-20T14:21:59Z</time>
      </trkpt>
      <trkpt lat="48.16886" lon="-3.30415">
        <ele>200.4</ele>
        <time>2024-11-20T14:22:00Z</time>
      </trkpt>
      <trkpt lat="48.16885" lon="-3.30416">
        <ele>200.5</ele>
        <time>2024-11-20T14:22:01Z</time>
      </trkpt>
      <trkpt lat="48.16884" lon="-3.30417">
        <ele>200.6</ele>
        <time>2024-11-20T14:22:02Z</time>
      </trkpt>
      <trkpt lat="48.16883" lon="-3.30418">
        <ele>200.7</ele>
        <time>2024-11-20T14:22:03Z</time>
      </trkpt>
      <trkpt lat="48.16883" lon="-3.30419">
        <ele>200.8</ele>
        <time>2024-11-20T14:22:04Z</time>
      </trkpt>
      <trkpt lat="48.16882" lon="-3.3042">
        <ele>200.9</ele>
        <time>2024-11-20T14:22:05Z</time>
      </trkpt>
      <trkpt lat="48.16881" lon="-3.30421">
        <ele>201</ele>
        <time>2024-11-20T14:22:06Z</time>
      </trkpt>
      <trkpt lat="48.1688" lon="-3.30422">
        <ele>201</ele>
        <time>2024-11-20T14:22:07Z</time>
      </trkpt>
      <trkpt lat="48.16879" lon="-3.30423">
        <ele>201.1</ele>
        <time>2024-11-20T14:22:08Z</time>
      </trkpt>
      <trkpt lat="48.16878" lon="-3.30424">
        <ele>201.2</ele>
        <time>2024-11-20T14:22:09Z</time>
      </trkpt>
      <trkpt lat="48.16877" lon="-3.30425">
        <ele>201.3</ele>
        <time>2024-11-20T14:22:10Z</time>
      </trkpt>
      <trkpt lat="48.16877" lon="-3.30426">
        <ele>201.3</ele>
        <time>2024-11-20T14:22:11Z</time>
      </trkpt>
      <trkpt lat="48.16875" lon="-3.30427">
        <ele>201.4</ele>
        <time>2024-11-20T14:22:12Z</time>
      </trkpt>
      <trkpt lat="48.16874" lon="-3.30428">
        <ele>201.5</ele>
        <time>2024-11-20T14:22:13Z</time>
      </trkpt>
      <trkpt lat="48.16873" lon="-3.30429">
        <ele>201.6</ele>
        <time>2024-11-20T14:22:14Z</time>
      </trkpt>
      <trkpt lat="48.16872" lon="-3.3043">
        <ele>201.6</ele>
        <time>2024-11-20T14:22:15Z</time>
      </trkpt>
      <trkpt lat="48.16871" lon="-3.30431">
        <ele>201.7</ele>
        <time>2024-11-20T14:22:16Z</time>
      </trkpt>
      <trkpt lat="48.1687" lon="-3.30432">
        <ele>201.8</ele>
        <time>2024-11-20T14:22:17Z</time>
      </trkpt>
      <trkpt lat="48.1687" lon="-3.30432">
        <ele>201.8</ele>
        <time>2024-11-20T14:22:18Z</time>
      </trkpt>
      <trkpt lat="48.16869" lon="-3.30434">
        <ele>201.9</ele>
        <time>2024-11-20T14:22:19Z</time>
      </trkpt>
      <trkpt lat="48.16868" lon="-3.30435">
        <ele>201.9</ele>
        <time>2024-11-20T14:22:20Z</time>
      </trkpt>
      <trkpt lat="48.16867" lon="-3.30436">
        <ele>201.9</ele>
        <time>2024-11-20T14:22:21Z</time>
      </trkpt>
      <trkpt lat="48.16867" lon="-3.30437">
        <ele>201.9</ele>
        <time>2024-11-20T14:22:22Z</time>
      </trkpt>
      <trkpt lat="48.16866" lon="-3.30438">
        <ele>201.9</ele>
        <time>2024-11-20T14:22:23Z</time>
      </trkpt>
      <trkpt lat="48.16865" lon="-3.30439">
        <ele>201.9</ele>
        <time>2024-11-20T14:22:24Z</time>
      </trkpt>
      <trkpt lat="48.16864" lon="-3.3044">
        <ele>202</ele>
        <time>2024-11-20T14:22:25Z</time>
      </trkpt>
      <trkpt lat="48.16863" lon="-3.30442">
        <ele>202</ele>
        <time>2024-11-20T14:22:26Z</time>
      </trkpt>
      <trkpt lat="48.16862" lon="-3.30443">
        <ele>202</ele>
        <time>2024-11-20T14:22:27Z</time>
      </trkpt>
      <trkpt lat="48.16861" lon="-3.30444">
        <ele>202</ele>
        <time>2024-11-20T14:22:28Z</time>
      </trkpt>
      <trkpt lat="48.1686" lon="-3.30446">
        <ele>202.2</ele>
        <time>2024-11-20T14:22:29Z</time>
      </trkpt>
      <trkpt lat="48.16859" lon="-3.30447">
        <ele>202.3</ele>
        <time>2024-11-20T14:22:30Z</time>
      </trkpt>
      <trkpt lat="48.16858" lon="-3.30448">
        <ele>202.5</ele>
        <time>2024-11-20T14:22:31Z</time>
      </trkpt>
      <trkpt lat="48.16857" lon="-3.3045">
        <ele>202.6</ele>
        <time>2024-11-20T14:22:32Z</time>
      </trkpt>
      <trkpt lat="48.16856" lon="-3.30451">
        <ele>202.7</ele>
        <time>2024-11-20T14:22:33Z</time>
      </trkpt>
      <trkpt lat="48.16855" lon="-3.30452">
        <ele>202.8</ele>
        <time>2024-11-20T14:22:34Z</time>
      </trkpt>
      <trkpt lat="48.16855" lon="-3.30453">
        <ele>202.8</ele>
        <time>2024-11-20T14:22:35Z</time>
      </trkpt>
      <trkpt lat="48.16854" lon="-3.30454">
        <ele>202.8</ele>
        <time>2024-11-20T14:22:36Z</time>
      </trkpt>
      <trkpt lat="48.16853" lon="-3.30455">
        <ele>202.9</ele>
        <time>2024-11-20T14:22:37Z</time>
      </trkpt>
      <trkpt lat="48.16853" lon="-3.30455">
        <ele>203</ele>
        <time>2024-11-20T14:22:38Z</time>
      </trkpt>
      <trkpt lat="48.16852" lon="-3.30456">
        <ele>203</ele>
        <time>2024-11-20T14:22:39Z</time>
      </trkpt>
      <trkpt lat="48.16852" lon="-3.30457">
        <ele>203.1</ele>
        <time>2024-11-20T14:22:40Z</time>
      </trkpt>
      <trkpt lat="48.16851" lon="-3.30458">
        <ele>203.2</ele>
        <time>2024-11-20T14:22:41Z</time>
      </trkpt>
      <trkpt lat="48.1685" lon="-3.30458">
        <ele>203.3</ele>
        <time>2024-11-20T14:22:42Z</time>
      </trkpt>
      <trkpt lat="48.16849" lon="-3.30459">
        <ele>203.4</ele>
        <time>2024-11-20T14:22:43Z</time>
      </trkpt>
      <trkpt lat="48.16848" lon="-3.3046">
        <ele>203.5</ele>
        <time>2024-11-20T14:22:44Z</time>
      </trkpt>
      <trkpt lat="48.16847" lon="-3.3046">
        <ele>203.6</ele>
        <time>2024-11-20T14:22:45Z</time>
      </trkpt>
      <trkpt lat="48.16847" lon="-3.3046">
        <ele>203.8</ele>
        <time>2024-11-20T14:22:46Z</time>
      </trkpt>
      <trkpt lat="48.16846" lon="-3.3046">
        <ele>203.9</ele>
        <time>2024-11-20T14:22:47Z</time>
      </trkpt>
      <trkpt lat="48.16845" lon="-3.30459">
        <ele>204</ele>
        <time>2024-11-20T14:22:48Z</time>
      </trkpt>
      <trkpt lat="48.16844" lon="-3.30459">
        <ele>204.2</ele>
        <time>2024-11-20T14:22:49Z</time>
      </trkpt>
      <trkpt lat="48.16843" lon="-3.30459">
        <ele>204.4</ele>
        <time>2024-11-20T14:22:50Z</time>
      </trkpt>
      <trkpt lat="48.16843" lon="-3.30458">
        <ele>204.5</ele>
        <time>2024-11-20T14:22:51Z</time>
      </trkpt>
      <trkpt lat="48.16842" lon="-3.30458">
        <ele>204.6</ele>
        <time>2024-11-20T14:22:52Z</time>
      </trkpt>
      <trkpt lat="48.16842" lon="-3.30458">
        <ele>204.7</ele>
        <time>2024-11-20T14:22:53Z</time>
      </trkpt>
      <trkpt lat="48.16841" lon="-3.30458">
        <ele>204.8</ele>
        <time>2024-11-20T14:22:54Z</time>
      </trkpt>
      <trkpt lat="48.16841" lon="-3.30457">
        <ele>204.8</ele>
        <time>2024-11-20T14:22:55Z</time>
      </trkpt>
      <trkpt lat="48.16841" lon="-3.30457">
        <ele>204.9</ele>
        <time>2024-11-20T14:22:56Z</time>
      </trkpt>
      <trkpt lat="48.1684" lon="-3.30457">
        <ele>205</ele>
        <time>2024-11-20T14:22:57Z</time>
      </trkpt>
      <trkpt lat="48.1684" lon="-3.30457">
        <ele>205</ele>
        <time>2024-11-20T14:22:58Z</time>
      </trkpt>
      <trkpt lat="48.1684" lon="-3.30456">
        <ele>205.1</ele>
        <time>2024-11-20T14:22:59Z</time>
      </trkpt>
      <trkpt lat="48.1684" lon="-3.30456">
        <ele>205.1</ele>
        <time>2024-11-20T14:23:00Z</time>
      </trkpt>
      <trkpt lat="48.16839" lon="-3.30456">
        <ele>205.2</ele>
        <time>2024-11-20T14:23:01Z</time>
      </trkpt>
      <trkpt lat="48.16839" lon="-3.30456">
        <ele>205.2</ele>
        <time>2024-11-20T14:23:02Z</time>
      </trkpt>
      <trkpt lat="48.16839" lon="-3.30455">
        <ele>205.3</ele>
        <time>2024-11-20T14:23:03Z</time>
      </trkpt>
      <trkpt lat="48.16838" lon="-3.30455">
        <ele>205.5</ele>
        <time>2024-11-20T14:23:04Z</time>
      </trkpt>
      <trkpt lat="48.16837" lon="-3.30454">
        <ele>205.6</ele>
        <time>2024-11-20T14:23:05Z</time>
      </trkpt>
      <trkpt lat="48.16836" lon="-3.30454">
        <ele>205.8</ele>
        <time>2024-11-20T14:23:06Z</time>
      </trkpt>
      <trkpt lat="48.16836" lon="-3.30453">
        <ele>206</ele>
        <time>2024-11-20T14:23:07Z</time>
      </trkpt>
      <trkpt lat="48.16835" lon="-3.30452">
        <ele>206.2</ele>
        <time>2024-11-20T14:23:08Z</time>
      </trkpt>
      <trkpt lat="48.16834" lon="-3.30451">
        <ele>206.4</ele>
        <time>2024-11-20T14:23:09Z</time>
      </trkpt>
      <trkpt lat="48.16833" lon="-3.3045">
        <ele>206.7</ele>
        <time>2024-11-20T14:23:10Z</time>
      </trkpt>
      <trkpt lat="48.16832" lon="-3.30449">
        <ele>207</ele>
        <time>2024-11-20T14:23:11Z</time>
      </trkpt>
      <trkpt lat="48.16831" lon="-3.30448">
        <ele>207.2</ele>
        <time>2024-11-20T14:23:12Z</time>
      </trkpt>
      <trkpt lat="48.1683" lon="-3.30447">
        <ele>207.5</ele>
        <time>2024-11-20T14:23:13Z</time>
      </trkpt>
      <trkpt lat="48.16828" lon="-3.30446">
        <ele>207.8</ele>
        <time>2024-11-20T14:23:14Z</time>
      </trkpt>
      <trkpt lat="48.16827" lon="-3.30445">
        <ele>208.1</ele>
        <time>2024-11-20T14:23:15Z</time>
      </trkpt>
      <trkpt lat="48.16826" lon="-3.30445">
        <ele>208.3</ele>
        <time>2024-11-20T14:23:16Z</time>
      </trkpt>
      <trkpt lat="48.16824" lon="-3.30443">
        <ele>208.7</ele>
        <time>2024-11-20T14:23:17Z</time>
      </trkpt>
      <trkpt lat="48.16823" lon="-3.30442">
        <ele>209</ele>
        <time>2024-11-20T14:23:18Z</time>
      </trkpt>
      <trkpt lat="48.16821" lon="-3.30442">
        <ele>209.3</ele>
        <time>2024-11-20T14:23:19Z</time>
      </trkpt>
      <trkpt lat="48.1682" lon="-3.30441">
        <ele>209.5</ele>
        <time>2024-11-20T14:23:20Z</time>
      </trkpt>
      <trkpt lat="48.16819" lon="-3.3044">
        <ele>209.7</ele>
        <time>2024-11-20T14:23:21Z</time>
      </trkpt>
      <trkpt lat="48.16818" lon="-3.3044">
        <ele>209.9</ele>
        <time>2024-11-20T14:23:22Z</time>
      </trkpt>
      <trkpt lat="48.16817" lon="-3.3044">
        <ele>210.1</ele>
        <time>2024-11-20T14:23:23Z</time>
      </trkpt>
      <trkpt lat="48.16815" lon="-3.30439">
        <ele>210.4</ele>
        <time>2024-11-20T14:23:24Z</time>
      </trkpt>
      <trkpt lat="48.16814" lon="-3.30439">
        <ele>210.6</ele>
        <time>2024-11-20T14:23:25Z</time>
      </trkpt>
      <trkpt lat="48.16814" lon="-3.30439">
        <ele>210.7</ele>
        <time>2024-11-20T14:23:26Z</time>
      </trkpt>
      <trkpt lat="48.16813" lon="-3.30438">
        <ele>210.8</ele>
        <time>2024-11-20T14:23:27Z</time>
      </trkpt>
      <trkpt lat="48.16813" lon="-3.30438">
        <ele>210.8</ele>
        <time>2024-11-20T14:23:28Z</time>
      </trkpt>
      <trkpt lat="48.16812" lon="-3.30438">
        <ele>210.9</ele>
        <time>2024-11-20T14:23:29Z</time>
      </trkpt>
      <trkpt lat="48.16812" lon="-3.30438">
        <ele>211</ele>
        <time>2024-11-20T14:23:30Z</time>
      </trkpt>
      <trkpt lat="48.16811" lon="-3.30438">
        <ele>211.1</ele>
        <time>2024-11-20T14:23:31Z</time>
      </trkpt>
      <trkpt lat="48.16811" lon="-3.30437">
        <ele>211.2</ele>
        <time>2024-11-20T14:23:32Z</time>
      </trkpt>
      <trkpt lat="48.1681" lon="-3.30437">
        <ele>211.2</ele>
        <time>2024-11-20T14:23:33Z</time>
      </trkpt>
      <trkpt lat="48.1681" lon="-3.30437">
        <ele>211.3</ele>
        <time>2024-11-20T14:23:34Z</time>
      </trkpt>
      <trkpt lat="48.1681" lon="-3.30437">
        <ele>211.3</ele>
        <time>2024-11-20T14:23:35Z</time>
      </trkpt>
      <trkpt lat="48.1681" lon="-3.30437">
        <ele>211.4</ele>
        <time>2024-11-20T14:23:36Z</time>
      </trkpt>
      <trkpt lat="48.16809" lon="-3.30437">
        <ele>211.4</ele>
        <time>2024-11-20T14:23:37Z</time>
      </trkpt>
      <trkpt lat="48.16809" lon="-3.30437">
        <ele>211.4</ele>
        <time>2024-11-20T14:23:38Z</time>
      </trkpt>
      <trkpt lat="48.16809" lon="-3.30436">
        <ele>211.4</ele>
        <time>2024-11-20T14:23:39Z</time>
      </trkpt>
      <trkpt lat="48.16809" lon="-3.30436">
        <ele>211.4</ele>
        <time>2024-11-20T14:23:40Z</time>
      </trkpt>
      <trkpt lat="48.16809" lon="-3.30436">
        <ele>211.4</ele>
        <time>2024-11-20T14:23:41Z</time>
      </trkpt>
      <trkpt lat="48.16809" lon="-3.30436">
        <ele>211.5</ele>
        <time>2024-11-20T14:23:42Z</time>
      </trkpt>
      <trkpt lat="48.16809" lon="-3.30436">
        <ele>211.5</ele>
        <time>2024-11-20T14:23:43Z</time>
      </trkpt>
      <trkpt lat="48.16808" lon="-3.30437">
        <ele>211.6</ele>
        <time>2024-11-20T14:23:44Z</time>
      </trkpt>
      <trkpt lat="48.16808" lon="-3.30437">
        <ele>211.6</ele>
        <time>2024-11-20T14:23:45Z</time>
      </trkpt>
      <trkpt lat="48.16807" lon="-3.30436">
        <ele>211.7</ele>
        <time>2024-11-20T14:23:46Z</time>
      </trkpt>
      <trkpt lat="48.16807" lon="-3.30436">
        <ele>211.8</ele>
        <time>2024-11-20T14:23:47Z</time>
      </trkpt>
      <trkpt lat="48.16807" lon="-3.30436">
        <ele>211.8</ele>
        <time>2024-11-20T14:23:48Z</time>
      </trkpt>
      <trkpt lat="48.16806" lon="-3.30435">
        <ele>211.9</ele>
        <time>2024-11-20T14:23:49Z</time>
      </trkpt>
      <trkpt lat="48.16806" lon="-3.30435">
        <ele>211.9</ele>
        <time>2024-11-20T14:23:50Z</time>
      </trkpt>
      <trkpt lat="48.16806" lon="-3.30436">
        <ele>212</ele>
        <time>2024-11-20T14:23:51Z</time>
      </trkpt>
      <trkpt lat="48.16805" lon="-3.30436">
        <ele>212</ele>
        <time>2024-11-20T14:23:52Z</time>
      </trkpt>
      <trkpt lat="48.16805" lon="-3.30436">
        <ele>212.1</ele>
        <time>2024-11-20T14:23:53Z</time>
      </trkpt>
      <trkpt lat="48.16804" lon="-3.30436">
        <ele>212.1</ele>
        <time>2024-11-20T14:23:54Z</time>
      </trkpt>
      <trkpt lat="48.16804" lon="-3.30435">
        <ele>212.2</ele>
        <time>2024-11-20T14:23:55Z</time>
      </trkpt>
      <trkpt lat="48.16803" lon="-3.30435">
        <ele>212.2</ele>
        <time>2024-11-20T14:23:56Z</time>
      </trkpt>
      <trkpt lat="48.16803" lon="-3.30435">
        <ele>212.3</ele>
        <time>2024-11-20T14:23:57Z</time>
      </trkpt>
      <trkpt lat="48.16802" lon="-3.30435">
        <ele>212.3</ele>
        <time>2024-11-20T14:23:58Z</time>
      </trkpt>
      <trkpt lat="48.16802" lon="-3.30435">
        <ele>212.4</ele>
        <time>2024-11-20T14:23:59Z</time>
      </trkpt>
      <trkpt lat="48.16802" lon="-3.30435">
        <ele>212.4</ele>
        <time>2024-11-20T14:24:00Z</time>
      </trkpt>
      <trkpt lat="48.16801" lon="-3.30435">
        <ele>212.5</ele>
        <time>2024-11-20T14:24:01Z</time>
      </trkpt>
      <trkpt lat="48.16799" lon="-3.30436">
        <ele>212.6</ele>
        <time>2024-11-20T14:24:02Z</time>
      </trkpt>
      <trkpt lat="48.16798" lon="-3.30436">
        <ele>212.7</ele>
        <time>2024-11-20T14:24:03Z</time>
      </trkpt>
      <trkpt lat="48.16796" lon="-3.30436">
        <ele>212.9</ele>
        <time>2024-11-20T14:24:04Z</time>
      </trkpt>
      <trkpt lat="48.16795" lon="-3.30436">
        <ele>213</ele>
        <time>2024-11-20T14:24:05Z</time>
      </trkpt>
      <trkpt lat="48.16793" lon="-3.30436">
        <ele>213.2</ele>
        <time>2024-11-20T14:24:06Z</time>
      </trkpt>
      <trkpt lat="48.16792" lon="-3.30437">
        <ele>213.3</ele>
        <time>2024-11-20T14:24:07Z</time>
      </trkpt>
      <trkpt lat="48.16791" lon="-3.30437">
        <ele>213.5</ele>
        <time>2024-11-20T14:24:08Z</time>
      </trkpt>
      <trkpt lat="48.1679" lon="-3.30438">
        <ele>213.6</ele>
        <time>2024-11-20T14:24:09Z</time>
      </trkpt>
      <trkpt lat="48.16789" lon="-3.30439">
        <ele>213.7</ele>
        <time>2024-11-20T14:24:10Z</time>
      </trkpt>
      <trkpt lat="48.16787" lon="-3.30439">
        <ele>213.8</ele>
        <time>2024-11-20T14:24:11Z</time>
      </trkpt>
      <trkpt lat="48.16786" lon="-3.3044">
        <ele>214</ele>
        <time>2024-11-20T14:24:12Z</time>
      </trkpt>
      <trkpt lat="48.16785" lon="-3.3044">
        <ele>214.1</ele>
        <time>2024-11-20T14:24:13Z</time>
      </trkpt>
      <trkpt lat="48.16784" lon="-3.3044">
        <ele>214.2</ele>
        <time>2024-11-20T14:24:14Z</time>
      </trkpt>
      <trkpt lat="48.16782" lon="-3.3044">
        <ele>214.4</ele>
        <time>2024-11-20T14:24:15Z</time>
      </trkpt>
      <trkpt lat="48.16781" lon="-3.3044">
        <ele>214.5</ele>
        <time>2024-11-20T14:24:16Z</time>
      </trkpt>
      <trkpt lat="48.16779" lon="-3.3044">
        <ele>214.7</ele>
        <time>2024-11-20T14:24:17Z</time>
      </trkpt>
      <trkpt lat="48.16778" lon="-3.3044">
        <ele>214.8</ele>
        <time>2024-11-20T14:24:18Z</time>
      </trkpt>
      <trkpt lat="48.16777" lon="-3.3044">
        <ele>214.9</ele>
        <time>2024-11-20T14:24:19Z</time>
      </trkpt>
      <trkpt lat="48.16776" lon="-3.3044">
        <ele>215</ele>
        <time>2024-11-20T14:24:20Z</time>
      </trkpt>
      <trkpt lat="48.16775" lon="-3.3044">
        <ele>215</ele>
        <time>2024-11-20T14:24:21Z</time>
      </trkpt>
      <trkpt lat="48.16774" lon="-3.3044">
        <ele>215.1</ele>
        <time>2024-11-20T14:24:22Z</time>
      </trkpt>
      <trkpt lat="48.16774" lon="-3.3044">
        <ele>215.1</ele>
        <time>2024-11-20T14:24:23Z</time>
      </trkpt>
      <trkpt lat="48.16773" lon="-3.30439">
        <ele>215.2</ele>
        <time>2024-11-20T14:24:24Z</time>
      </trkpt>
      <trkpt lat="48.16772" lon="-3.30439">
        <ele>215.2</ele>
        <time>2024-11-20T14:24:25Z</time>
      </trkpt>
      <trkpt lat="48.16771" lon="-3.30439">
        <ele>215.3</ele>
        <time>2024-11-20T14:24:26Z</time>
      </trkpt>
      <trkpt lat="48.16771" lon="-3.30439">
        <ele>215.3</ele>
        <time>2024-11-20T14:24:27Z</time>
      </trkpt>
      <trkpt lat="48.16771" lon="-3.30439">
        <ele>215.3</ele>
        <time>2024-11-20T14:24:28Z</time>
      </trkpt>
      <trkpt lat="48.1677" lon="-3.3044">
        <ele>215.4</ele>
        <time>2024-11-20T14:24:29Z</time>
      </trkpt>
      <trkpt lat="48.16769" lon="-3.3044">
        <ele>215.5</ele>
        <time>2024-11-20T14:24:30Z</time>
      </trkpt>
      <trkpt lat="48.16768" lon="-3.30441">
        <ele>215.6</ele>
        <time>2024-11-20T14:24:31Z</time>
      </trkpt>
      <trkpt lat="48.16766" lon="-3.30442">
        <ele>215.7</ele>
        <time>2024-11-20T14:24:32Z</time>
      </trkpt>
      <trkpt lat="48.16765" lon="-3.30442">
        <ele>215.8</ele>
        <time>2024-11-20T14:24:33Z</time>
      </trkpt>
      <trkpt lat="48.16764" lon="-3.30442">
        <ele>215.9</ele>
        <time>2024-11-20T14:24:34Z</time>
      </trkpt>
      <trkpt lat="48.16763" lon="-3.30442">
        <ele>216</ele>
        <time>2024-11-20T14:24:35Z</time>
      </trkpt>
      <trkpt lat="48.16762" lon="-3.30443">
        <ele>216.1</ele>
        <time>2024-11-20T14:24:36Z</time>
      </trkpt>
      <trkpt lat="48.16761" lon="-3.30443">
        <ele>216.2</ele>
        <time>2024-11-20T14:24:37Z</time>
      </trkpt>
      <trkpt lat="48.1676" lon="-3.30443">
        <ele>216.2</ele>
        <time>2024-11-20T14:24:38Z</time>
      </trkpt>
      <trkpt lat="48.16759" lon="-3.30444">
        <ele>216.3</ele>
        <time>2024-11-20T14:24:39Z</time>
      </trkpt>
      <trkpt lat="48.16757" lon="-3.30444">
        <ele>216.4</ele>
        <time>2024-11-20T14:24:40Z</time>
      </trkpt>
      <trkpt lat="48.16756" lon="-3.30444">
        <ele>216.6</ele>
        <time>2024-11-20T14:24:41Z</time>
      </trkpt>
      <trkpt lat="48.16754" lon="-3.30444">
        <ele>216.7</ele>
        <time>2024-11-20T14:24:42Z</time>
      </trkpt>
      <trkpt lat="48.16753" lon="-3.30444">
        <ele>216.7</ele>
        <time>2024-11-20T14:24:43Z</time>
      </trkpt>
      <trkpt lat="48.16752" lon="-3.30444">
        <ele>216.9</ele>
        <time>2024-11-20T14:24:44Z</time>
      </trkpt>
      <trkpt lat="48.16751" lon="-3.30443">
        <ele>216.9</ele>
        <time>2024-11-20T14:24:45Z</time>
      </trkpt>
      <trkpt lat="48.1675" lon="-3.30444">
        <ele>217</ele>
        <time>2024-11-20T14:24:46Z</time>
      </trkpt>
      <trkpt lat="48.16748" lon="-3.30445">
        <ele>217.1</ele>
        <time>2024-11-20T14:24:47Z</time>
      </trkpt>
      <trkpt lat="48.16747" lon="-3.30446">
        <ele>217.2</ele>
        <time>2024-11-20T14:24:48Z</time>
      </trkpt>
      <trkpt lat="48.16747" lon="-3.30446">
        <ele>217.3</ele>
        <time>2024-11-20T14:24:49Z</time>
      </trkpt>
      <trkpt lat="48.16746" lon="-3.30447">
        <ele>217.4</ele>
        <time>2024-11-20T14:24:50Z</time>
      </trkpt>
      <trkpt lat="48.16745" lon="-3.30447">
        <ele>217.5</ele>
        <time>2024-11-20T14:24:51Z</time>
      </trkpt>
      <trkpt lat="48.16744" lon="-3.30448">
        <ele>217.5</ele>
        <time>2024-11-20T14:24:52Z</time>
      </trkpt>
      <trkpt lat="48.16744" lon="-3.30448">
        <ele>217.6</ele>
        <time>2024-11-20T14:24:53Z</time>
      </trkpt>
      <trkpt lat="48.16743" lon="-3.30449">
        <ele>217.7</ele>
        <time>2024-11-20T14:24:54Z</time>
      </trkpt>
      <trkpt lat="48.16742" lon="-3.30449">
        <ele>217.8</ele>
        <time>2024-11-20T14:24:55Z</time>
      </trkpt>
      <trkpt lat="48.16741" lon="-3.3045">
        <ele>217.8</ele>
        <time>2024-11-20T14:24:56Z</time>
      </trkpt>
      <trkpt lat="48.1674" lon="-3.3045">
        <ele>217.9</ele>
        <time>2024-11-20T14:24:57Z</time>
      </trkpt>
      <trkpt lat="48.16739" lon="-3.3045">
        <ele>218</ele>
        <time>2024-11-20T14:24:58Z</time>
      </trkpt>
      <trkpt lat="48.16738" lon="-3.3045">
        <ele>218.1</ele>
        <time>2024-11-20T14:24:59Z</time>
      </trkpt>
      <trkpt lat="48.16737" lon="-3.30451">
        <ele>218.1</ele>
        <time>2024-11-20T14:25:00Z</time>
      </trkpt>
      <trkpt lat="48.16737" lon="-3.30451">
        <ele>218.2</ele>
        <time>2024-11-20T14:25:01Z</time>
      </trkpt>
      <trkpt lat="48.16736" lon="-3.30451">
        <ele>218.2</ele>
        <time>2024-11-20T14:25:02Z</time>
      </trkpt>
      <trkpt lat="48.16736" lon="-3.30452">
        <ele>218.3</ele>
        <time>2024-11-20T14:25:03Z</time>
      </trkpt>
      <trkpt lat="48.16736" lon="-3.30451">
        <ele>218.3</ele>
        <time>2024-11-20T14:25:04Z</time>
      </trkpt>
      <trkpt lat="48.16735" lon="-3.30451">
        <ele>218.3</ele>
        <time>2024-11-20T14:25:05Z</time>
      </trkpt>
      <trkpt lat="48.16735" lon="-3.30452">
        <ele>218.4</ele>
        <time>2024-11-20T14:25:06Z</time>
      </trkpt>
      <trkpt lat="48.16733" lon="-3.30453">
        <ele>218.5</ele>
        <time>2024-11-20T14:25:07Z</time>
      </trkpt>
      <trkpt lat="48.16732" lon="-3.30453">
        <ele>218.6</ele>
        <time>2024-11-20T14:25:08Z</time>
      </trkpt>
      <trkpt lat="48.16731" lon="-3.30453">
        <ele>218.7</ele>
        <time>2024-11-20T14:25:09Z</time>
      </trkpt>
      <trkpt lat="48.1673" lon="-3.30454">
        <ele>218.8</ele>
        <time>2024-11-20T14:25:10Z</time>
      </trkpt>
      <trkpt lat="48.16728" lon="-3.30454">
        <ele>218.9</ele>
        <time>2024-11-20T14:25:11Z</time>
      </trkpt>
      <trkpt lat="48.16727" lon="-3.30455">
        <ele>219</ele>
        <time>2024-11-20T14:25:12Z</time>
      </trkpt>
      <trkpt lat="48.16726" lon="-3.30456">
        <ele>219.1</ele>
        <time>2024-11-20T14:25:13Z</time>
      </trkpt>
      <trkpt lat="48.16725" lon="-3.30456">
        <ele>219.2</ele>
        <time>2024-11-20T14:25:14Z</time>
      </trkpt>
      <trkpt lat="48.16724" lon="-3.30457">
        <ele>219.4</ele>
        <time>2024-11-20T14:25:15Z</time>
      </trkpt>
      <trkpt lat="48.16723" lon="-3.30458">
        <ele>219.5</ele>
        <time>2024-11-20T14:25:16Z</time>
      </trkpt>
      <trkpt lat="48.16722" lon="-3.30459">
        <ele>219.5</ele>
        <time>2024-11-20T14:25:17Z</time>
      </trkpt>
      <trkpt lat="48.16721" lon="-3.30459">
        <ele>219.6</ele>
        <time>2024-11-20T14:25:18Z</time>
      </trkpt>
      <trkpt lat="48.16721" lon="-3.3046">
        <ele>219.6</ele>
        <time>2024-11-20T14:25:19Z</time>
      </trkpt>
      <trkpt lat="48.16721" lon="-3.3046">
        <ele>219.6</ele>
        <time>2024-11-20T14:25:20Z</time>
      </trkpt>
      <trkpt lat="48.1672" lon="-3.30461">
        <ele>219.7</ele>
        <time>2024-11-20T14:25:21Z</time>
      </trkpt>
      <trkpt lat="48.16719" lon="-3.30462">
        <ele>219.7</ele>
        <time>2024-11-20T14:25:22Z</time>
      </trkpt>
      <trkpt lat="48.16719" lon="-3.30463">
        <ele>219.8</ele>
        <time>2024-11-20T14:25:23Z</time>
      </trkpt>
      <trkpt lat="48.16718" lon="-3.30464">
        <ele>219.8</ele>
        <time>2024-11-20T14:25:24Z</time>
      </trkpt>
      <trkpt lat="48.16717" lon="-3.30464">
        <ele>219.9</ele>
        <time>2024-11-20T14:25:25Z</time>
      </trkpt>
      <trkpt lat="48.16717" lon="-3.30465">
        <ele>219.9</ele>
        <time>2024-11-20T14:25:26Z</time>
      </trkpt>
      <trkpt lat="48.16717" lon="-3.30465">
        <ele>219.9</ele>
        <time>2024-11-20T14:25:27Z</time>
      </trkpt>
      <trkpt lat="48.16716" lon="-3.30466">
        <ele>220</ele>
        <time>2024-11-20T14:25:28Z</time>
      </trkpt>
      <trkpt lat="48.16715" lon="-3.30467">
        <ele>220.1</ele>
        <time>2024-11-20T14:25:29Z</time>
      </trkpt>
      <trkpt lat="48.16714" lon="-3.30467">
        <ele>220.1</ele>
        <time>2024-11-20T14:25:30Z</time>
      </trkpt>
      <trkpt lat="48.16713" lon="-3.30468">
        <ele>220.2</ele>
        <time>2024-11-20T14:25:31Z</time>
      </trkpt>
      <trkpt lat="48.16712" lon="-3.30469">
        <ele>220.2</ele>
        <time>2024-11-20T14:25:32Z</time>
      </trkpt>
      <trkpt lat="48.16711" lon="-3.30469">
        <ele>220.3</ele>
        <time>2024-11-20T14:25:33Z</time>
      </trkpt>
      <trkpt lat="48.16709" lon="-3.3047">
        <ele>220.4</ele>
        <time>2024-11-20T14:25:34Z</time>
      </trkpt>
      <trkpt lat="48.16708" lon="-3.3047">
        <ele>220.4</ele>
        <time>2024-11-20T14:25:35Z</time>
      </trkpt>
      <trkpt lat="48.16707" lon="-3.3047">
        <ele>220.5</ele>
        <time>2024-11-20T14:25:36Z</time>
      </trkpt>
      <trkpt lat="48.16706" lon="-3.30471">
        <ele>220.5</ele>
        <time>2024-11-20T14:25:37Z</time>
      </trkpt>
      <trkpt lat="48.16704" lon="-3.30471">
        <ele>220.6</ele>
        <time>2024-11-20T14:25:38Z</time>
      </trkpt>
      <trkpt lat="48.16703" lon="-3.30471">
        <ele>220.6</ele>
        <time>2024-11-20T14:25:39Z</time>
      </trkpt>
      <trkpt lat="48.16702" lon="-3.30471">
        <ele>220.7</ele>
        <time>2024-11-20T14:25:40Z</time>
      </trkpt>
      <trkpt lat="48.167" lon="-3.30472">
        <ele>220.8</ele>
        <time>2024-11-20T14:25:41Z</time>
      </trkpt>
      <trkpt lat="48.16699" lon="-3.30471">
        <ele>220.8</ele>
        <time>2024-11-20T14:25:42Z</time>
      </trkpt>
      <trkpt lat="48.16699" lon="-3.30471">
        <ele>220.8</ele>
        <time>2024-11-20T14:25:43Z</time>
      </trkpt>
      <trkpt lat="48.16699" lon="-3.30472">
        <ele>220.8</ele>
        <time>2024-11-20T14:25:44Z</time>
      </trkpt>
      <trkpt lat="48.16698" lon="-3.30472">
        <ele>220.8</ele>
        <time>2024-11-20T14:25:45Z</time>
      </trkpt>
      <trkpt lat="48.16698" lon="-3.30472">
        <ele>220.9</ele>
        <time>2024-11-20T14:25:46Z</time>
      </trkpt>
      <trkpt lat="48.16697" lon="-3.30472">
        <ele>220.9</ele>
        <time>2024-11-20T14:25:47Z</time>
      </trkpt>
      <trkpt lat="48.16696" lon="-3.30473">
        <ele>221</ele>
        <time>2024-11-20T14:25:48Z</time>
      </trkpt>
      <trkpt lat="48.16695" lon="-3.30473">
        <ele>221</ele>
        <time>2024-11-20T14:25:49Z</time>
      </trkpt>
      <trkpt lat="48.16694" lon="-3.30473">
        <ele>221.1</ele>
        <time>2024-11-20T14:25:50Z</time>
      </trkpt>
      <trkpt lat="48.16693" lon="-3.30474">
        <ele>221.1</ele>
        <time>2024-11-20T14:25:51Z</time>
      </trkpt>
      <trkpt lat="48.16692" lon="-3.30474">
        <ele>221.1</ele>
        <time>2024-11-20T14:25:52Z</time>
      </trkpt>
      <trkpt lat="48.16692" lon="-3.30474">
        <ele>221.2</ele>
        <time>2024-11-20T14:25:53Z</time>
      </trkpt>
      <trkpt lat="48.16691" lon="-3.30475">
        <ele>221.2</ele>
        <time>2024-11-20T14:25:54Z</time>
      </trkpt>
      <trkpt lat="48.16691" lon="-3.30475">
        <ele>221.2</ele>
        <time>2024-11-20T14:25:55Z</time>
      </trkpt>
      <trkpt lat="48.1669" lon="-3.30475">
        <ele>221.3</ele>
        <time>2024-11-20T14:25:56Z</time>
      </trkpt>
      <trkpt lat="48.16689" lon="-3.30476">
        <ele>221.3</ele>
        <time>2024-11-20T14:25:57Z</time>
      </trkpt>
      <trkpt lat="48.16688" lon="-3.30476">
        <ele>221.4</ele>
        <time>2024-11-20T14:25:58Z</time>
      </trkpt>
      <trkpt lat="48.16687" lon="-3.30477">
        <ele>221.4</ele>
        <time>2024-11-20T14:25:59Z</time>
      </trkpt>
      <trkpt lat="48.16686" lon="-3.30478">
        <ele>221.5</ele>
        <time>2024-11-20T14:26:00Z</time>
      </trkpt>
      <trkpt lat="48.16685" lon="-3.30478">
        <ele>221.6</ele>
        <time>2024-11-20T14:26:01Z</time>
      </trkpt>
      <trkpt lat="48.16684" lon="-3.30479">
        <ele>221.6</ele>
        <time>2024-11-20T14:26:02Z</time>
      </trkpt>
      <trkpt lat="48.16684" lon="-3.30479">
        <ele>221.6</ele>
        <time>2024-11-20T14:26:03Z</time>
      </trkpt>
      <trkpt lat="48.16683" lon="-3.30478">
        <ele>221.6</ele>
        <time>2024-11-20T14:26:04Z</time>
      </trkpt>
      <trkpt lat="48.16683" lon="-3.30478">
        <ele>221.6</ele>
        <time>2024-11-20T14:26:05Z</time>
      </trkpt>
      <trkpt lat="48.16683" lon="-3.30478">
        <ele>221.6</ele>
        <time>2024-11-20T14:26:06Z</time>
      </trkpt>
      <trkpt lat="48.16683" lon="-3.30478">
        <ele>221.6</ele>
        <time>2024-11-20T14:26:07Z</time>
      </trkpt>
      <trkpt lat="48.16683" lon="-3.30478">
        <ele>221.6</ele>
        <time>2024-11-20T14:26:08Z</time>
      </trkpt>
      <trkpt lat="48.16683" lon="-3.30478">
        <ele>221.6</ele>
        <time>2024-11-20T14:26:09Z</time>
      </trkpt>
      <trkpt lat="48.16683" lon="-3.30478">
        <ele>221.6</ele>
        <time>2024-11-20T14:26:10Z</time>
      </trkpt>
      <trkpt lat="48.16682" lon="-3.30479">
        <ele>221.7</ele>
        <time>2024-11-20T14:26:11Z</time>
      </trkpt>
      <trkpt lat="48.16681" lon="-3.3048">
        <ele>221.8</ele>
        <time>2024-11-20T14:26:12Z</time>
      </trkpt>
      <trkpt lat="48.1668" lon="-3.3048">
        <ele>221.8</ele>
        <time>2024-11-20T14:26:13Z</time>
      </trkpt>
      <trkpt lat="48.1668" lon="-3.30481">
        <ele>221.9</ele>
        <time>2024-11-20T14:26:14Z</time>
      </trkpt>
      <trkpt lat="48.16679" lon="-3.30482">
        <ele>221.9</ele>
        <time>2024-11-20T14:26:15Z</time>
      </trkpt>
      <trkpt lat="48.16679" lon="-3.30484">
        <ele>222</ele>
        <time>2024-11-20T14:26:16Z</time>
      </trkpt>
      <trkpt lat="48.16678" lon="-3.30485">
        <ele>222.1</ele>
        <time>2024-11-20T14:26:17Z</time>
      </trkpt>
      <trkpt lat="48.16676" lon="-3.30486">
        <ele>222.2</ele>
        <time>2024-11-20T14:26:18Z</time>
      </trkpt>
      <trkpt lat="48.16675" lon="-3.30487">
        <ele>222.2</ele>
        <time>2024-11-20T14:26:19Z</time>
      </trkpt>
      <trkpt lat="48.16674" lon="-3.30487">
        <ele>222.3</ele>
        <time>2024-11-20T14:26:20Z</time>
      </trkpt>
      <trkpt lat="48.16672" lon="-3.30488">
        <ele>222.3</ele>
        <time>2024-11-20T14:26:21Z</time>
      </trkpt>
      <trkpt lat="48.16671" lon="-3.30488">
        <ele>222.4</ele>
        <time>2024-11-20T14:26:22Z</time>
      </trkpt>
      <trkpt lat="48.1667" lon="-3.30489">
        <ele>222.5</ele>
        <time>2024-11-20T14:26:23Z</time>
      </trkpt>
      <trkpt lat="48.16669" lon="-3.30489">
        <ele>222.5</ele>
        <time>2024-11-20T14:26:24Z</time>
      </trkpt>
      <trkpt lat="48.16668" lon="-3.3049">
        <ele>222.6</ele>
        <time>2024-11-20T14:26:25Z</time>
      </trkpt>
      <trkpt lat="48.16667" lon="-3.30491">
        <ele>222.7</ele>
        <time>2024-11-20T14:26:26Z</time>
      </trkpt>
      <trkpt lat="48.16666" lon="-3.30492">
        <ele>222.8</ele>
        <time>2024-11-20T14:26:27Z</time>
      </trkpt>
      <trkpt lat="48.16665" lon="-3.30493">
        <ele>222.8</ele>
        <time>2024-11-20T14:26:28Z</time>
      </trkpt>
      <trkpt lat="48.16664" lon="-3.30494">
        <ele>222.9</ele>
        <time>2024-11-20T14:26:29Z</time>
      </trkpt>
      <trkpt lat="48.16663" lon="-3.30495">
        <ele>222.9</ele>
        <time>2024-11-20T14:26:30Z</time>
      </trkpt>
      <trkpt lat="48.16662" lon="-3.30496">
        <ele>223</ele>
        <time>2024-11-20T14:26:31Z</time>
      </trkpt>
      <trkpt lat="48.16661" lon="-3.30497">
        <ele>223.1</ele>
        <time>2024-11-20T14:26:32Z</time>
      </trkpt>
      <trkpt lat="48.16661" lon="-3.30498">
        <ele>223.1</ele>
        <time>2024-11-20T14:26:33Z</time>
      </trkpt>
      <trkpt lat="48.1666" lon="-3.30499">
        <ele>223.2</ele>
        <time>2024-11-20T14:26:34Z</time>
      </trkpt>
      <trkpt lat="48.16659" lon="-3.305">
        <ele>223.3</ele>
        <time>2024-11-20T14:26:35Z</time>
      </trkpt>
      <trkpt lat="48.16659" lon="-3.30501">
        <ele>223.3</ele>
        <time>2024-11-20T14:26:36Z</time>
      </trkpt>
      <trkpt lat="48.16658" lon="-3.30502">
        <ele>223.4</ele>
        <time>2024-11-20T14:26:37Z</time>
      </trkpt>
      <trkpt lat="48.16657" lon="-3.30503">
        <ele>223.5</ele>
        <time>2024-11-20T14:26:38Z</time>
      </trkpt>
      <trkpt lat="48.16657" lon="-3.30504">
        <ele>223.5</ele>
        <time>2024-11-20T14:26:39Z</time>
      </trkpt>
      <trkpt lat="48.16656" lon="-3.30505">
        <ele>223.6</ele>
        <time>2024-11-20T14:26:40Z</time>
      </trkpt>
      <trkpt lat="48.16655" lon="-3.30506">
        <ele>223.6</ele>
        <time>2024-11-20T14:26:41Z</time>
      </trkpt>
      <trkpt lat="48.16654" lon="-3.30506">
        <ele>223.7</ele>
        <time>2024-11-20T14:26:42Z</time>
      </trkpt>
      <trkpt lat="48.16653" lon="-3.30507">
        <ele>223.7</ele>
        <time>2024-11-20T14:26:43Z</time>
      </trkpt>
      <trkpt lat="48.16652" lon="-3.30507">
        <ele>223.8</ele>
        <time>2024-11-20T14:26:44Z</time>
      </trkpt>
      <trkpt lat="48.16651" lon="-3.30507">
        <ele>223.8</ele>
        <time>2024-11-20T14:26:45Z</time>
      </trkpt>
      <trkpt lat="48.1665" lon="-3.30507">
        <ele>223.9</ele>
        <time>2024-11-20T14:26:46Z</time>
      </trkpt>
      <trkpt lat="48.16648" lon="-3.30507">
        <ele>223.9</ele>
        <time>2024-11-20T14:26:47Z</time>
      </trkpt>
      <trkpt lat="48.16647" lon="-3.30508">
        <ele>224</ele>
        <time>2024-11-20T14:26:48Z</time>
      </trkpt>
      <trkpt lat="48.16647" lon="-3.30508">
        <ele>224</ele>
        <time>2024-11-20T14:26:49Z</time>
      </trkpt>
      <trkpt lat="48.16646" lon="-3.30509">
        <ele>224</ele>
        <time>2024-11-20T14:26:50Z</time>
      </trkpt>
      <trkpt lat="48.16646" lon="-3.30509">
        <ele>224.1</ele>
        <time>2024-11-20T14:26:51Z</time>
      </trkpt>
      <trkpt lat="48.16645" lon="-3.3051">
        <ele>224.1</ele>
        <time>2024-11-20T14:26:52Z</time>
      </trkpt>
      <trkpt lat="48.16644" lon="-3.3051">
        <ele>224.2</ele>
        <time>2024-11-20T14:26:53Z</time>
      </trkpt>
      <trkpt lat="48.16643" lon="-3.3051">
        <ele>224.2</ele>
        <time>2024-11-20T14:26:54Z</time>
      </trkpt>
      <trkpt lat="48.16641" lon="-3.3051">
        <ele>224.3</ele>
        <time>2024-11-20T14:26:55Z</time>
      </trkpt>
      <trkpt lat="48.1664" lon="-3.3051">
        <ele>224.3</ele>
        <time>2024-11-20T14:26:56Z</time>
      </trkpt>
      <trkpt lat="48.16638" lon="-3.3051">
        <ele>224.4</ele>
        <time>2024-11-20T14:26:57Z</time>
      </trkpt>
      <trkpt lat="48.16637" lon="-3.30511">
        <ele>224.4</ele>
        <time>2024-11-20T14:26:58Z</time>
      </trkpt>
      <trkpt lat="48.16636" lon="-3.3051">
        <ele>224.4</ele>
        <time>2024-11-20T14:26:59Z</time>
      </trkpt>
      <trkpt lat="48.16635" lon="-3.3051">
        <ele>224.4</ele>
        <time>2024-11-20T14:27:00Z</time>
      </trkpt>
      <trkpt lat="48.16634" lon="-3.30511">
        <ele>224.4</ele>
        <time>2024-11-20T14:27:01Z</time>
      </trkpt>
      <trkpt lat="48.16633" lon="-3.3051">
        <ele>224.4</ele>
        <time>2024-11-20T14:27:02Z</time>
      </trkpt>
      <trkpt lat="48.16632" lon="-3.3051">
        <ele>224.4</ele>
        <time>2024-11-20T14:27:03Z</time>
      </trkpt>
      <trkpt lat="48.16631" lon="-3.30511">
        <ele>224.4</ele>
        <time>2024-11-20T14:27:04Z</time>
      </trkpt>
      <trkpt lat="48.1663" lon="-3.30511">
        <ele>224.4</ele>
        <time>2024-11-20T14:27:05Z</time>
      </trkpt>
      <trkpt lat="48.16629" lon="-3.30511">
        <ele>224.4</ele>
        <time>2024-11-20T14:27:06Z</time>
      </trkpt>
      <trkpt lat="48.16627" lon="-3.30511">
        <ele>224.4</ele>
        <time>2024-11-20T14:27:07Z</time>
      </trkpt>
      <trkpt lat="48.16626" lon="-3.30511">
        <ele>224.4</ele>
        <time>2024-11-20T14:27:08Z</time>
      </trkpt>
      <trkpt lat="48.16625" lon="-3.30511">
        <ele>224.4</ele>
        <time>2024-11-20T14:27:09Z</time>
      </trkpt>
      <trkpt lat="48.16624" lon="-3.30511">
        <ele>224.4</ele>
        <time>2024-11-20T14:27:10Z</time>
      </trkpt>
      <trkpt lat="48.16623" lon="-3.30511">
        <ele>224.4</ele>
        <time>2024-11-20T14:27:11Z</time>
      </trkpt>
      <trkpt lat="48.16622" lon="-3.30511">
        <ele>224.4</ele>
        <time>2024-11-20T14:27:12Z</time>
      </trkpt>
      <trkpt lat="48.16621" lon="-3.30511">
        <ele>224.4</ele>
        <time>2024-11-20T14:27:13Z</time>
      </trkpt>
      <trkpt lat="48.16621" lon="-3.30511">
        <ele>224.4</ele>
        <time>2024-11-20T14:27:14Z</time>
      </trkpt>
      <trkpt lat="48.1662" lon="-3.30511">
        <ele>224.4</ele>
        <time>2024-11-20T14:27:15Z</time>
      </trkpt>
      <trkpt lat="48.16619" lon="-3.30511">
        <ele>224.4</ele>
        <time>2024-11-20T14:27:16Z</time>
      </trkpt>
      <trkpt lat="48.16619" lon="-3.30511">
        <ele>224.4</ele>
        <time>2024-11-20T14:27:17Z</time>
      </trkpt>
      <trkpt lat="48.16618" lon="-3.30512">
        <ele>224.4</ele>
        <time>2024-11-20T14:27:18Z</time>
      </trkpt>
      <trkpt lat="48.16617" lon="-3.30512">
        <ele>224.4</ele>
        <time>2024-11-20T14:27:19Z</time>
      </trkpt>
      <trkpt lat="48.16616" lon="-3.30512">
        <ele>224.4</ele>
        <time>2024-11-20T14:27:20Z</time>
      </trkpt>
      <trkpt lat="48.16614" lon="-3.30512">
        <ele>224.4</ele>
        <time>2024-11-20T14:27:21Z</time>
      </trkpt>
      <trkpt lat="48.16613" lon="-3.30512">
        <ele>224.4</ele>
        <time>2024-11-20T14:27:22Z</time>
      </trkpt>
      <trkpt lat="48.16612" lon="-3.30511">
        <ele>224.4</ele>
        <time>2024-11-20T14:27:23Z</time>
      </trkpt>
      <trkpt lat="48.16611" lon="-3.3051">
        <ele>224.3</ele>
        <time>2024-11-20T14:27:24Z</time>
      </trkpt>
      <trkpt lat="48.16609" lon="-3.30509">
        <ele>224.3</ele>
        <time>2024-11-20T14:27:25Z</time>
      </trkpt>
      <trkpt lat="48.16608" lon="-3.30508">
        <ele>224.3</ele>
        <time>2024-11-20T14:27:26Z</time>
      </trkpt>
      <trkpt lat="48.16607" lon="-3.30507">
        <ele>224.2</ele>
        <time>2024-11-20T14:27:27Z</time>
      </trkpt>
      <trkpt lat="48.16606" lon="-3.30507">
        <ele>224.2</ele>
        <time>2024-11-20T14:27:28Z</time>
      </trkpt>
      <trkpt lat="48.16604" lon="-3.30506">
        <ele>224.2</ele>
        <time>2024-11-20T14:27:29Z</time>
      </trkpt>
      <trkpt lat="48.16603" lon="-3.30506">
        <ele>224.2</ele>
        <time>2024-11-20T14:27:30Z</time>
      </trkpt>
      <trkpt lat="48.16602" lon="-3.30506">
        <ele>224.2</ele>
        <time>2024-11-20T14:27:31Z</time>
      </trkpt>
      <trkpt lat="48.16601" lon="-3.30505">
        <ele>224.1</ele>
        <time>2024-11-20T14:27:32Z</time>
      </trkpt>
      <trkpt lat="48.166" lon="-3.30505">
        <ele>224.1</ele>
        <time>2024-11-20T14:27:33Z</time>
      </trkpt>
      <trkpt lat="48.16599" lon="-3.30504">
        <ele>224.1</ele>
        <time>2024-11-20T14:27:34Z</time>
      </trkpt>
      <trkpt lat="48.16599" lon="-3.30503">
        <ele>224.1</ele>
        <time>2024-11-20T14:27:35Z</time>
      </trkpt>
      <trkpt lat="48.16599" lon="-3.30502">
        <ele>224</ele>
        <time>2024-11-20T14:27:36Z</time>
      </trkpt>
      <trkpt lat="48.16599" lon="-3.30502">
        <ele>224</ele>
        <time>2024-11-20T14:27:37Z</time>
      </trkpt>
      <trkpt lat="48.16598" lon="-3.30502">
        <ele>224</ele>
        <time>2024-11-20T14:27:38Z</time>
      </trkpt>
      <trkpt lat="48.16596" lon="-3.30501">
        <ele>224</ele>
        <time>2024-11-20T14:27:39Z</time>
      </trkpt>
      <trkpt lat="48.16595" lon="-3.305">
        <ele>224</ele>
        <time>2024-11-20T14:27:40Z</time>
      </trkpt>
      <trkpt lat="48.16594" lon="-3.305">
        <ele>224</ele>
        <time>2024-11-20T14:27:41Z</time>
      </trkpt>
      <trkpt lat="48.16593" lon="-3.30499">
        <ele>224</ele>
        <time>2024-11-20T14:27:42Z</time>
      </trkpt>
      <trkpt lat="48.16592" lon="-3.30499">
        <ele>224</ele>
        <time>2024-11-20T14:27:43Z</time>
      </trkpt>
      <trkpt lat="48.16591" lon="-3.30498">
        <ele>223.9</ele>
        <time>2024-11-20T14:27:44Z</time>
      </trkpt>
      <trkpt lat="48.1659" lon="-3.30498">
        <ele>223.9</ele>
        <time>2024-11-20T14:27:45Z</time>
      </trkpt>
      <trkpt lat="48.16589" lon="-3.30498">
        <ele>223.9</ele>
        <time>2024-11-20T14:27:46Z</time>
      </trkpt>
      <trkpt lat="48.16588" lon="-3.30498">
        <ele>223.9</ele>
        <time>2024-11-20T14:27:47Z</time>
      </trkpt>
      <trkpt lat="48.16587" lon="-3.30498">
        <ele>223.9</ele>
        <time>2024-11-20T14:27:48Z</time>
      </trkpt>
      <trkpt lat="48.16586" lon="-3.30497">
        <ele>223.9</ele>
        <time>2024-11-20T14:27:49Z</time>
      </trkpt>
      <trkpt lat="48.16584" lon="-3.30497">
        <ele>223.9</ele>
        <time>2024-11-20T14:27:50Z</time>
      </trkpt>
      <trkpt lat="48.16583" lon="-3.30497">
        <ele>223.9</ele>
        <time>2024-11-20T14:27:51Z</time>
      </trkpt>
      <trkpt lat="48.16582" lon="-3.30497">
        <ele>223.9</ele>
        <time>2024-11-20T14:27:52Z</time>
      </trkpt>
      <trkpt lat="48.1658" lon="-3.30497">
        <ele>223.9</ele>
        <time>2024-11-20T14:27:53Z</time>
      </trkpt>
      <trkpt lat="48.16579" lon="-3.30497">
        <ele>223.9</ele>
        <time>2024-11-20T14:27:54Z</time>
      </trkpt>
      <trkpt lat="48.16578" lon="-3.30497">
        <ele>223.9</ele>
        <time>2024-11-20T14:27:55Z</time>
      </trkpt>
      <trkpt lat="48.16577" lon="-3.30496">
        <ele>223.9</ele>
        <time>2024-11-20T14:27:56Z</time>
      </trkpt>
      <trkpt lat="48.16575" lon="-3.30496">
        <ele>223.9</ele>
        <time>2024-11-20T14:27:57Z</time>
      </trkpt>
      <trkpt lat="48.16574" lon="-3.30496">
        <ele>223.9</ele>
        <time>2024-11-20T14:27:58Z</time>
      </trkpt>
      <trkpt lat="48.16573" lon="-3.30496">
        <ele>223.9</ele>
        <time>2024-11-20T14:27:59Z</time>
      </trkpt>
      <trkpt lat="48.16572" lon="-3.30496">
        <ele>223.9</ele>
        <time>2024-11-20T14:28:00Z</time>
      </trkpt>
      <trkpt lat="48.1657" lon="-3.30496">
        <ele>223.9</ele>
        <time>2024-11-20T14:28:01Z</time>
      </trkpt>
      <trkpt lat="48.16569" lon="-3.30496">
        <ele>223.9</ele>
        <time>2024-11-20T14:28:02Z</time>
      </trkpt>
      <trkpt lat="48.16569" lon="-3.30496">
        <ele>223.9</ele>
        <time>2024-11-20T14:28:03Z</time>
      </trkpt>
      <trkpt lat="48.16568" lon="-3.30497">
        <ele>223.9</ele>
        <time>2024-11-20T14:28:04Z</time>
      </trkpt>
      <trkpt lat="48.16567" lon="-3.30497">
        <ele>224</ele>
        <time>2024-11-20T14:28:05Z</time>
      </trkpt>
      <trkpt lat="48.16566" lon="-3.30497">
        <ele>224</ele>
        <time>2024-11-20T14:28:06Z</time>
      </trkpt>
      <trkpt lat="48.16566" lon="-3.30498">
        <ele>224</ele>
        <time>2024-11-20T14:28:07Z</time>
      </trkpt>
      <trkpt lat="48.16565" lon="-3.30497">
        <ele>224</ele>
        <time>2024-11-20T14:28:08Z</time>
      </trkpt>
      <trkpt lat="48.16564" lon="-3.30497">
        <ele>224</ele>
        <time>2024-11-20T14:28:09Z</time>
      </trkpt>
      <trkpt lat="48.16563" lon="-3.30498">
        <ele>224</ele>
        <time>2024-11-20T14:28:10Z</time>
      </trkpt>
      <trkpt lat="48.16562" lon="-3.30498">
        <ele>224</ele>
        <time>2024-11-20T14:28:11Z</time>
      </trkpt>
      <trkpt lat="48.1656" lon="-3.30498">
        <ele>224</ele>
        <time>2024-11-20T14:28:12Z</time>
      </trkpt>
      <trkpt lat="48.16559" lon="-3.30498">
        <ele>224</ele>
        <time>2024-11-20T14:28:13Z</time>
      </trkpt>
      <trkpt lat="48.16559" lon="-3.30498">
        <ele>224</ele>
        <time>2024-11-20T14:28:14Z</time>
      </trkpt>
      <trkpt lat="48.16558" lon="-3.30497">
        <ele>224</ele>
        <time>2024-11-20T14:28:15Z</time>
      </trkpt>
      <trkpt lat="48.16558" lon="-3.30497">
        <ele>224</ele>
        <time>2024-11-20T14:28:16Z</time>
      </trkpt>
      <trkpt lat="48.16558" lon="-3.30498">
        <ele>224</ele>
        <time>2024-11-20T14:28:17Z</time>
      </trkpt>
      <trkpt lat="48.16558" lon="-3.30498">
        <ele>224</ele>
        <time>2024-11-20T14:28:18Z</time>
      </trkpt>
      <trkpt lat="48.16557" lon="-3.30498">
        <ele>224</ele>
        <time>2024-11-20T14:28:19Z</time>
      </trkpt>
      <trkpt lat="48.16557" lon="-3.30498">
        <ele>224</ele>
        <time>2024-11-20T14:28:20Z</time>
      </trkpt>
      <trkpt lat="48.16555" lon="-3.30498">
        <ele>224</ele>
        <time>2024-11-20T14:28:21Z</time>
      </trkpt>
      <trkpt lat="48.16554" lon="-3.30498">
        <ele>224.1</ele>
        <time>2024-11-20T14:28:22Z</time>
      </trkpt>
      <trkpt lat="48.16553" lon="-3.30498">
        <ele>224.1</ele>
        <time>2024-11-20T14:28:23Z</time>
      </trkpt>
      <trkpt lat="48.16551" lon="-3.30498">
        <ele>224.1</ele>
        <time>2024-11-20T14:28:24Z</time>
      </trkpt>
      <trkpt lat="48.1655" lon="-3.30498">
        <ele>224.2</ele>
        <time>2024-11-20T14:28:25Z</time>
      </trkpt>
      <trkpt lat="48.16549" lon="-3.30497">
        <ele>224.2</ele>
        <time>2024-11-20T14:28:26Z</time>
      </trkpt>
      <trkpt lat="48.16548" lon="-3.30497">
        <ele>224.2</ele>
        <time>2024-11-20T14:28:27Z</time>
      </trkpt>
      <trkpt lat="48.16546" lon="-3.30496">
        <ele>224.3</ele>
        <time>2024-11-20T14:28:28Z</time>
      </trkpt>
      <trkpt lat="48.16544" lon="-3.30496">
        <ele>224.4</ele>
        <time>2024-11-20T14:28:29Z</time>
      </trkpt>
      <trkpt lat="48.16542" lon="-3.30497">
        <ele>224.4</ele>
        <time>2024-11-20T14:28:30Z</time>
      </trkpt>
      <trkpt lat="48.16541" lon="-3.30497">
        <ele>224.5</ele>
        <time>2024-11-20T14:28:31Z</time>
      </trkpt>
      <trkpt lat="48.16539" lon="-3.30497">
        <ele>224.5</ele>
        <time>2024-11-20T14:28:32Z</time>
      </trkpt>
      <trkpt lat="48.16538" lon="-3.30498">
        <ele>224.6</ele>
        <time>2024-11-20T14:28:33Z</time>
      </trkpt>
      <trkpt lat="48.16537" lon="-3.30498">
        <ele>224.6</ele>
        <time>2024-11-20T14:28:34Z</time>
      </trkpt>
      <trkpt lat="48.16535" lon="-3.30498">
        <ele>224.7</ele>
        <time>2024-11-20T14:28:35Z</time>
      </trkpt>
      <trkpt lat="48.16534" lon="-3.30498">
        <ele>224.7</ele>
        <time>2024-11-20T14:28:36Z</time>
      </trkpt>
      <trkpt lat="48.16532" lon="-3.30498">
        <ele>224.8</ele>
        <time>2024-11-20T14:28:37Z</time>
      </trkpt>
      <trkpt lat="48.16531" lon="-3.30498">
        <ele>224.8</ele>
        <time>2024-11-20T14:28:38Z</time>
      </trkpt>
      <trkpt lat="48.1653" lon="-3.30498">
        <ele>224.9</ele>
        <time>2024-11-20T14:28:39Z</time>
      </trkpt>
      <trkpt lat="48.16529" lon="-3.30498">
        <ele>224.9</ele>
        <time>2024-11-20T14:28:40Z</time>
      </trkpt>
      <trkpt lat="48.16528" lon="-3.30498">
        <ele>224.9</ele>
        <time>2024-11-20T14:28:41Z</time>
      </trkpt>
      <trkpt lat="48.16527" lon="-3.30499">
        <ele>225</ele>
        <time>2024-11-20T14:28:42Z</time>
      </trkpt>
      <trkpt lat="48.16526" lon="-3.305">
        <ele>225.1</ele>
        <time>2024-11-20T14:28:43Z</time>
      </trkpt>
      <trkpt lat="48.16525" lon="-3.305">
        <ele>225.1</ele>
        <time>2024-11-20T14:28:44Z</time>
      </trkpt>
      <trkpt lat="48.16524" lon="-3.305">
        <ele>225.1</ele>
        <time>2024-11-20T14:28:45Z</time>
      </trkpt>
      <trkpt lat="48.16523" lon="-3.305">
        <ele>225.2</ele>
        <time>2024-11-20T14:28:46Z</time>
      </trkpt>
      <trkpt lat="48.16522" lon="-3.305">
        <ele>225.2</ele>
        <time>2024-11-20T14:28:47Z</time>
      </trkpt>
      <trkpt lat="48.1652" lon="-3.305">
        <ele>225.3</ele>
        <time>2024-11-20T14:28:48Z</time>
      </trkpt>
      <trkpt lat="48.16519" lon="-3.305">
        <ele>225.3</ele>
        <time>2024-11-20T14:28:49Z</time>
      </trkpt>
      <trkpt lat="48.16518" lon="-3.305">
        <ele>225.3</ele>
        <time>2024-11-20T14:28:50Z</time>
      </trkpt>
      <trkpt lat="48.16517" lon="-3.305">
        <ele>225.4</ele>
        <time>2024-11-20T14:28:51Z</time>
      </trkpt>
      <trkpt lat="48.16516" lon="-3.30501">
        <ele>225.4</ele>
        <time>2024-11-20T14:28:52Z</time>
      </trkpt>
      <trkpt lat="48.16516" lon="-3.30501">
        <ele>225.5</ele>
        <time>2024-11-20T14:28:53Z</time>
      </trkpt>
      <trkpt lat="48.16515" lon="-3.30502">
        <ele>225.5</ele>
        <time>2024-11-20T14:28:54Z</time>
      </trkpt>
      <trkpt lat="48.16513" lon="-3.30502">
        <ele>225.6</ele>
        <time>2024-11-20T14:28:55Z</time>
      </trkpt>
      <trkpt lat="48.16512" lon="-3.30502">
        <ele>225.6</ele>
        <time>2024-11-20T14:28:56Z</time>
      </trkpt>
      <trkpt lat="48.16511" lon="-3.30502">
        <ele>225.7</ele>
        <time>2024-11-20T14:28:57Z</time>
      </trkpt>
      <trkpt lat="48.1651" lon="-3.30502">
        <ele>225.7</ele>
        <time>2024-11-20T14:28:58Z</time>
      </trkpt>
      <trkpt lat="48.16509" lon="-3.30502">
        <ele>225.7</ele>
        <time>2024-11-20T14:28:59Z</time>
      </trkpt>
      <trkpt lat="48.16507" lon="-3.30502">
        <ele>225.8</ele>
        <time>2024-11-20T14:29:00Z</time>
      </trkpt>
      <trkpt lat="48.16506" lon="-3.30502">
        <ele>225.8</ele>
        <time>2024-11-20T14:29:01Z</time>
      </trkpt>
      <trkpt lat="48.16505" lon="-3.30502">
        <ele>225.9</ele>
        <time>2024-11-20T14:29:02Z</time>
      </trkpt>
      <trkpt lat="48.16504" lon="-3.30502">
        <ele>225.9</ele>
        <time>2024-11-20T14:29:03Z</time>
      </trkpt>
      <trkpt lat="48.16503" lon="-3.30502">
        <ele>226</ele>
        <time>2024-11-20T14:29:04Z</time>
      </trkpt>
      <trkpt lat="48.16501" lon="-3.30502">
        <ele>226</ele>
        <time>2024-11-20T14:29:05Z</time>
      </trkpt>
      <trkpt lat="48.165" lon="-3.30502">
        <ele>226.1</ele>
        <time>2024-11-20T14:29:06Z</time>
      </trkpt>
      <trkpt lat="48.16499" lon="-3.30502">
        <ele>226.1</ele>
        <time>2024-11-20T14:29:07Z</time>
      </trkpt>
      <trkpt lat="48.16498" lon="-3.30503">
        <ele>226.2</ele>
        <time>2024-11-20T14:29:08Z</time>
      </trkpt>
      <trkpt lat="48.16497" lon="-3.30503">
        <ele>226.2</ele>
        <time>2024-11-20T14:29:09Z</time>
      </trkpt>
      <trkpt lat="48.16496" lon="-3.30504">
        <ele>226.3</ele>
        <time>2024-11-20T14:29:10Z</time>
      </trkpt>
      <trkpt lat="48.16495" lon="-3.30503">
        <ele>226.3</ele>
        <time>2024-11-20T14:29:11Z</time>
      </trkpt>
      <trkpt lat="48.16493" lon="-3.30502">
        <ele>226.3</ele>
        <time>2024-11-20T14:29:12Z</time>
      </trkpt>
      <trkpt lat="48.16492" lon="-3.30501">
        <ele>226.3</ele>
        <time>2024-11-20T14:29:13Z</time>
      </trkpt>
      <trkpt lat="48.16491" lon="-3.30501">
        <ele>226.3</ele>
        <time>2024-11-20T14:29:14Z</time>
      </trkpt>
      <trkpt lat="48.1649" lon="-3.305">
        <ele>226.4</ele>
        <time>2024-11-20T14:29:15Z</time>
      </trkpt>
      <trkpt lat="48.16489" lon="-3.305">
        <ele>226.4</ele>
        <time>2024-11-20T14:29:16Z</time>
      </trkpt>
      <trkpt lat="48.16488" lon="-3.305">
        <ele>226.4</ele>
        <time>2024-11-20T14:29:17Z</time>
      </trkpt>
      <trkpt lat="48.16487" lon="-3.305">
        <ele>226.5</ele>
        <time>2024-11-20T14:29:18Z</time>
      </trkpt>
      <trkpt lat="48.16486" lon="-3.30501">
        <ele>226.5</ele>
        <time>2024-11-20T14:29:19Z</time>
      </trkpt>
      <trkpt lat="48.16486" lon="-3.30501">
        <ele>226.6</ele>
        <time>2024-11-20T14:29:20Z</time>
      </trkpt>
      <trkpt lat="48.16485" lon="-3.30503">
        <ele>226.6</ele>
        <time>2024-11-20T14:29:21Z</time>
      </trkpt>
      <trkpt lat="48.16484" lon="-3.30505">
        <ele>226.7</ele>
        <time>2024-11-20T14:29:22Z</time>
      </trkpt>
      <trkpt lat="48.16483" lon="-3.30507">
        <ele>226.8</ele>
        <time>2024-11-20T14:29:23Z</time>
      </trkpt>
      <trkpt lat="48.16483" lon="-3.30509">
        <ele>226.9</ele>
        <time>2024-11-20T14:29:24Z</time>
      </trkpt>
      <trkpt lat="48.16483" lon="-3.30511">
        <ele>227</ele>
        <time>2024-11-20T14:29:25Z</time>
      </trkpt>
      <trkpt lat="48.16483" lon="-3.30512">
        <ele>227.1</ele>
        <time>2024-11-20T14:29:26Z</time>
      </trkpt>
      <trkpt lat="48.16483" lon="-3.30514">
        <ele>227.1</ele>
        <time>2024-11-20T14:29:27Z</time>
      </trkpt>
      <trkpt lat="48.16482" lon="-3.30516">
        <ele>227.2</ele>
        <time>2024-11-20T14:29:28Z</time>
      </trkpt>
      <trkpt lat="48.16482" lon="-3.30518">
        <ele>227.3</ele>
        <time>2024-11-20T14:29:29Z</time>
      </trkpt>
      <trkpt lat="48.16481" lon="-3.30519">
        <ele>227.3</ele>
        <time>2024-11-20T14:29:30Z</time>
      </trkpt>
      <trkpt lat="48.1648" lon="-3.3052">
        <ele>227.4</ele>
        <time>2024-11-20T14:29:31Z</time>
      </trkpt>
      <trkpt lat="48.16479" lon="-3.30521">
        <ele>227.5</ele>
        <time>2024-11-20T14:29:32Z</time>
      </trkpt>
      <trkpt lat="48.16478" lon="-3.30522">
        <ele>227.6</ele>
        <time>2024-11-20T14:29:33Z</time>
      </trkpt>
      <trkpt lat="48.16477" lon="-3.30523">
        <ele>227.6</ele>
        <time>2024-11-20T14:29:34Z</time>
      </trkpt>
      <trkpt lat="48.16476" lon="-3.30524">
        <ele>227.7</ele>
        <time>2024-11-20T14:29:35Z</time>
      </trkpt>
      <trkpt lat="48.16476" lon="-3.30525">
        <ele>227.8</ele>
        <time>2024-11-20T14:29:36Z</time>
      </trkpt>
      <trkpt lat="48.16475" lon="-3.30526">
        <ele>227.8</ele>
        <time>2024-11-20T14:29:37Z</time>
      </trkpt>
      <trkpt lat="48.16474" lon="-3.30527">
        <ele>227.9</ele>
        <time>2024-11-20T14:29:38Z</time>
      </trkpt>
      <trkpt lat="48.16473" lon="-3.30528">
        <ele>228</ele>
        <time>2024-11-20T14:29:39Z</time>
      </trkpt>
      <trkpt lat="48.16472" lon="-3.30529">
        <ele>228</ele>
        <time>2024-11-20T14:29:40Z</time>
      </trkpt>
      <trkpt lat="48.16471" lon="-3.3053">
        <ele>228</ele>
        <time>2024-11-20T14:29:41Z</time>
      </trkpt>
      <trkpt lat="48.1647" lon="-3.3053">
        <ele>228.1</ele>
        <time>2024-11-20T14:29:42Z</time>
      </trkpt>
      <trkpt lat="48.16469" lon="-3.30531">
        <ele>228.1</ele>
        <time>2024-11-20T14:29:43Z</time>
      </trkpt>
      <trkpt lat="48.16468" lon="-3.30531">
        <ele>228.2</ele>
        <time>2024-11-20T14:29:44Z</time>
      </trkpt>
      <trkpt lat="48.16467" lon="-3.30531">
        <ele>228.2</ele>
        <time>2024-11-20T14:29:45Z</time>
      </trkpt>
      <trkpt lat="48.16466" lon="-3.30531">
        <ele>228.3</ele>
        <time>2024-11-20T14:29:46Z</time>
      </trkpt>
      <trkpt lat="48.16466" lon="-3.30531">
        <ele>228.3</ele>
        <time>2024-11-20T14:29:47Z</time>
      </trkpt>
      <trkpt lat="48.16465" lon="-3.30531">
        <ele>228.4</ele>
        <time>2024-11-20T14:29:48Z</time>
      </trkpt>
      <trkpt lat="48.16464" lon="-3.30531">
        <ele>228.5</ele>
        <time>2024-11-20T14:29:49Z</time>
      </trkpt>
      <trkpt lat="48.16463" lon="-3.30531">
        <ele>228.5</ele>
        <time>2024-11-20T14:29:50Z</time>
      </trkpt>
      <trkpt lat="48.16462" lon="-3.30531">
        <ele>228.6</ele>
        <time>2024-11-20T14:29:51Z</time>
      </trkpt>
      <trkpt lat="48.16461" lon="-3.30531">
        <ele>228.7</ele>
        <time>2024-11-20T14:29:52Z</time>
      </trkpt>
      <trkpt lat="48.1646" lon="-3.30531">
        <ele>228.8</ele>
        <time>2024-11-20T14:29:53Z</time>
      </trkpt>
      <trkpt lat="48.16459" lon="-3.30531">
        <ele>228.8</ele>
        <time>2024-11-20T14:29:54Z</time>
      </trkpt>
      <trkpt lat="48.16457" lon="-3.30531">
        <ele>229</ele>
        <time>2024-11-20T14:29:55Z</time>
      </trkpt>
      <trkpt lat="48.16456" lon="-3.30531">
        <ele>229.1</ele>
        <time>2024-11-20T14:29:56Z</time>
      </trkpt>
      <trkpt lat="48.16455" lon="-3.30531">
        <ele>229.1</ele>
        <time>2024-11-20T14:29:57Z</time>
      </trkpt>
      <trkpt lat="48.16454" lon="-3.3053">
        <ele>229.2</ele>
        <time>2024-11-20T14:29:58Z</time>
      </trkpt>
      <trkpt lat="48.16453" lon="-3.3053">
        <ele>229.3</ele>
        <time>2024-11-20T14:29:59Z</time>
      </trkpt>
      <trkpt lat="48.16452" lon="-3.30529">
        <ele>229.4</ele>
        <time>2024-11-20T14:30:00Z</time>
      </trkpt>
      <trkpt lat="48.16448" lon="-3.30527">
        <ele>229.7</ele>
        <time>2024-11-20T14:30:03Z</time>
      </trkpt>
      <trkpt lat="48.16447" lon="-3.30526">
        <ele>229.7</ele>
        <time>2024-11-20T14:30:04Z</time>
      </trkpt>
      <trkpt lat="48.16446" lon="-3.30525">
        <ele>229.8</ele>
        <time>2024-11-20T14:30:05Z</time>
      </trkpt>
      <trkpt lat="48.16445" lon="-3.30524">
        <ele>229.8</ele>
        <time>2024-11-20T14:30:06Z</time>
      </trkpt>
      <trkpt lat="48.16445" lon="-3.30523">
        <ele>229.8</ele>
        <time>2024-11-20T14:30:07Z</time>
      </trkpt>
      <trkpt lat="48.16445" lon="-3.30523">
        <ele>229.8</ele>
        <time>2024-11-20T14:30:08Z</time>
      </trkpt>
      <trkpt lat="48.16445" lon="-3.30523">
        <ele>229.8</ele>
        <time>2024-11-20T14:30:09Z</time>
      </trkpt>
      <trkpt lat="48.16445" lon="-3.30523">
        <ele>229.8</ele>
        <time>2024-11-20T14:30:10Z</time>
      </trkpt>
      <trkpt lat="48.16445" lon="-3.30523">
        <ele>229.8</ele>
        <time>2024-11-20T14:30:11Z</time>
      </trkpt>
      <trkpt lat="48.16444" lon="-3.30522">
        <ele>229.8</ele>
        <time>2024-11-20T14:30:12Z</time>
      </trkpt>
      <trkpt lat="48.16444" lon="-3.30522">
        <ele>229.9</ele>
        <time>2024-11-20T14:30:13Z</time>
      </trkpt>
      <trkpt lat="48.16443" lon="-3.30522">
        <ele>230</ele>
        <time>2024-11-20T14:30:14Z</time>
      </trkpt>
      <trkpt lat="48.16442" lon="-3.30522">
        <ele>230</ele>
        <time>2024-11-20T14:30:15Z</time>
      </trkpt>
      <trkpt lat="48.16442" lon="-3.30522">
        <ele>230.1</ele>
        <time>2024-11-20T14:30:16Z</time>
      </trkpt>
      <trkpt lat="48.16441" lon="-3.30522">
        <ele>230.2</ele>
        <time>2024-11-20T14:30:17Z</time>
      </trkpt>
      <trkpt lat="48.1644" lon="-3.30522">
        <ele>230.3</ele>
        <time>2024-11-20T14:30:18Z</time>
      </trkpt>
      <trkpt lat="48.1644" lon="-3.30522">
        <ele>230.3</ele>
        <time>2024-11-20T14:30:19Z</time>
      </trkpt>
      <trkpt lat="48.1644" lon="-3.30522">
        <ele>230.3</ele>
        <time>2024-11-20T14:30:20Z</time>
      </trkpt>
      <trkpt lat="48.1644" lon="-3.30522">
        <ele>230.3</ele>
        <time>2024-11-20T14:30:21Z</time>
      </trkpt>
      <trkpt lat="48.1644" lon="-3.30522">
        <ele>230.3</ele>
        <time>2024-11-20T14:30:22Z</time>
      </trkpt>
      <trkpt lat="48.1644" lon="-3.30521">
        <ele>230.3</ele>
        <time>2024-11-20T14:30:23Z</time>
      </trkpt>
      <trkpt lat="48.16439" lon="-3.30521">
        <ele>230.4</ele>
        <time>2024-11-20T14:30:24Z</time>
      </trkpt>
      <trkpt lat="48.16438" lon="-3.30521">
        <ele>230.5</ele>
        <time>2024-11-20T14:30:25Z</time>
      </trkpt>
      <trkpt lat="48.16437" lon="-3.3052">
        <ele>230.6</ele>
        <time>2024-11-20T14:30:26Z</time>
      </trkpt>
      <trkpt lat="48.16436" lon="-3.30519">
        <ele>230.7</ele>
        <time>2024-11-20T14:30:27Z</time>
      </trkpt>
      <trkpt lat="48.16435" lon="-3.30519">
        <ele>230.8</ele>
        <time>2024-11-20T14:30:28Z</time>
      </trkpt>
      <trkpt lat="48.16434" lon="-3.30519">
        <ele>230.9</ele>
        <time>2024-11-20T14:30:29Z</time>
      </trkpt>
      <trkpt lat="48.16433" lon="-3.30519">
        <ele>231</ele>
        <time>2024-11-20T14:30:30Z</time>
      </trkpt>
      <trkpt lat="48.16432" lon="-3.30519">
        <ele>231.1</ele>
        <time>2024-11-20T14:30:31Z</time>
      </trkpt>
      <trkpt lat="48.16431" lon="-3.30519">
        <ele>231.3</ele>
        <time>2024-11-20T14:30:32Z</time>
      </trkpt>
      <trkpt lat="48.1643" lon="-3.30519">
        <ele>231.4</ele>
        <time>2024-11-20T14:30:33Z</time>
      </trkpt>
      <trkpt lat="48.16429" lon="-3.30519">
        <ele>231.5</ele>
        <time>2024-11-20T14:30:34Z</time>
      </trkpt>
      <trkpt lat="48.16428" lon="-3.30518">
        <ele>231.7</ele>
        <time>2024-11-20T14:30:35Z</time>
      </trkpt>
      <trkpt lat="48.16427" lon="-3.30517">
        <ele>231.8</ele>
        <time>2024-11-20T14:30:36Z</time>
      </trkpt>
      <trkpt lat="48.16425" lon="-3.30516">
        <ele>231.9</ele>
        <time>2024-11-20T14:30:37Z</time>
      </trkpt>
      <trkpt lat="48.16424" lon="-3.30515">
        <ele>232.1</ele>
        <time>2024-11-20T14:30:38Z</time>
      </trkpt>
      <trkpt lat="48.16423" lon="-3.30515">
        <ele>232.2</ele>
        <time>2024-11-20T14:30:39Z</time>
      </trkpt>
      <trkpt lat="48.16422" lon="-3.30514">
        <ele>232.3</ele>
        <time>2024-11-20T14:30:40Z</time>
      </trkpt>
      <trkpt lat="48.16421" lon="-3.30513">
        <ele>232.4</ele>
        <time>2024-11-20T14:30:41Z</time>
      </trkpt>
      <trkpt lat="48.1642" lon="-3.30512">
        <ele>232.6</ele>
        <time>2024-11-20T14:30:42Z</time>
      </trkpt>
      <trkpt lat="48.16419" lon="-3.30511">
        <ele>232.7</ele>
        <time>2024-11-20T14:30:43Z</time>
      </trkpt>
      <trkpt lat="48.16418" lon="-3.3051">
        <ele>232.8</ele>
        <time>2024-11-20T14:30:44Z</time>
      </trkpt>
      <trkpt lat="48.16417" lon="-3.3051">
        <ele>232.9</ele>
        <time>2024-11-20T14:30:45Z</time>
      </trkpt>
      <trkpt lat="48.16416" lon="-3.30509">
        <ele>233</ele>
        <time>2024-11-20T14:30:46Z</time>
      </trkpt>
      <trkpt lat="48.16415" lon="-3.30509">
        <ele>233.1</ele>
        <time>2024-11-20T14:30:47Z</time>
      </trkpt>
      <trkpt lat="48.16414" lon="-3.30508">
        <ele>233.1</ele>
        <time>2024-11-20T14:30:48Z</time>
      </trkpt>
      <trkpt lat="48.16413" lon="-3.30508">
        <ele>233.1</ele>
        <time>2024-11-20T14:30:49Z</time>
      </trkpt>
      <trkpt lat="48.16411" lon="-3.30508">
        <ele>233.2</ele>
        <time>2024-11-20T14:30:50Z</time>
      </trkpt>
      <trkpt lat="48.1641" lon="-3.30508">
        <ele>233.2</ele>
        <time>2024-11-20T14:30:51Z</time>
      </trkpt>
      <trkpt lat="48.16409" lon="-3.30507">
        <ele>233.3</ele>
        <time>2024-11-20T14:30:52Z</time>
      </trkpt>
      <trkpt lat="48.16408" lon="-3.30507">
        <ele>233.3</ele>
        <time>2024-11-20T14:30:53Z</time>
      </trkpt>
      <trkpt lat="48.16407" lon="-3.30507">
        <ele>233.4</ele>
        <time>2024-11-20T14:30:54Z</time>
      </trkpt>
      <trkpt lat="48.16406" lon="-3.30507">
        <ele>233.4</ele>
        <time>2024-11-20T14:30:55Z</time>
      </trkpt>
      <trkpt lat="48.16404" lon="-3.30506">
        <ele>233.4</ele>
        <time>2024-11-20T14:30:56Z</time>
      </trkpt>
      <trkpt lat="48.16403" lon="-3.30505">
        <ele>233.5</ele>
        <time>2024-11-20T14:30:57Z</time>
      </trkpt>
      <trkpt lat="48.16402" lon="-3.30505">
        <ele>233.5</ele>
        <time>2024-11-20T14:30:58Z</time>
      </trkpt>
      <trkpt lat="48.16401" lon="-3.30504">
        <ele>233.6</ele>
        <time>2024-11-20T14:30:59Z</time>
      </trkpt>
      <trkpt lat="48.164" lon="-3.30504">
        <ele>233.6</ele>
        <time>2024-11-20T14:31:00Z</time>
      </trkpt>
      <trkpt lat="48.16398" lon="-3.30503">
        <ele>233.7</ele>
        <time>2024-11-20T14:31:01Z</time>
      </trkpt>
      <trkpt lat="48.16397" lon="-3.30503">
        <ele>233.7</ele>
        <time>2024-11-20T14:31:02Z</time>
      </trkpt>
      <trkpt lat="48.16396" lon="-3.30503">
        <ele>233.7</ele>
        <time>2024-11-20T14:31:03Z</time>
      </trkpt>
      <trkpt lat="48.16395" lon="-3.30503">
        <ele>233.8</ele>
        <time>2024-11-20T14:31:04Z</time>
      </trkpt>
      <trkpt lat="48.16394" lon="-3.30503">
        <ele>233.8</ele>
        <time>2024-11-20T14:31:05Z</time>
      </trkpt>
      <trkpt lat="48.16393" lon="-3.30503">
        <ele>233.9</ele>
        <time>2024-11-20T14:31:06Z</time>
      </trkpt>
      <trkpt lat="48.16392" lon="-3.30502">
        <ele>233.9</ele>
        <time>2024-11-20T14:31:07Z</time>
      </trkpt>
      <trkpt lat="48.1639" lon="-3.30502">
        <ele>233.9</ele>
        <time>2024-11-20T14:31:08Z</time>
      </trkpt>
      <trkpt lat="48.16389" lon="-3.30501">
        <ele>234</ele>
        <time>2024-11-20T14:31:09Z</time>
      </trkpt>
      <trkpt lat="48.16388" lon="-3.30501">
        <ele>234.1</ele>
        <time>2024-11-20T14:31:10Z</time>
      </trkpt>
      <trkpt lat="48.16387" lon="-3.305">
        <ele>234.1</ele>
        <time>2024-11-20T14:31:11Z</time>
      </trkpt>
      <trkpt lat="48.16386" lon="-3.305">
        <ele>234.2</ele>
        <time>2024-11-20T14:31:12Z</time>
      </trkpt>
      <trkpt lat="48.16385" lon="-3.30499">
        <ele>234.3</ele>
        <time>2024-11-20T14:31:13Z</time>
      </trkpt>
      <trkpt lat="48.16384" lon="-3.30499">
        <ele>234.4</ele>
        <time>2024-11-20T14:31:14Z</time>
      </trkpt>
      <trkpt lat="48.16383" lon="-3.30499">
        <ele>234.5</ele>
        <time>2024-11-20T14:31:15Z</time>
      </trkpt>
      <trkpt lat="48.16382" lon="-3.30498">
        <ele>234.6</ele>
        <time>2024-11-20T14:31:16Z</time>
      </trkpt>
      <trkpt lat="48.1638" lon="-3.30498">
        <ele>234.7</ele>
        <time>2024-11-20T14:31:17Z</time>
      </trkpt>
      <trkpt lat="48.16379" lon="-3.30497">
        <ele>234.8</ele>
        <time>2024-11-20T14:31:18Z</time>
      </trkpt>
      <trkpt lat="48.16378" lon="-3.30497">
        <ele>234.8</ele>
        <time>2024-11-20T14:31:19Z</time>
      </trkpt>
      <trkpt lat="48.16377" lon="-3.30496">
        <ele>234.9</ele>
        <time>2024-11-20T14:31:20Z</time>
      </trkpt>
      <trkpt lat="48.16376" lon="-3.30495">
        <ele>235</ele>
        <time>2024-11-20T14:31:21Z</time>
      </trkpt>
      <trkpt lat="48.16375" lon="-3.30495">
        <ele>235.1</ele>
        <time>2024-11-20T14:31:22Z</time>
      </trkpt>
      <trkpt lat="48.16374" lon="-3.30494">
        <ele>235.2</ele>
        <time>2024-11-20T14:31:23Z</time>
      </trkpt>
      <trkpt lat="48.16373" lon="-3.30494">
        <ele>235.2</ele>
        <time>2024-11-20T14:31:24Z</time>
      </trkpt>
      <trkpt lat="48.16372" lon="-3.30494">
        <ele>235.3</ele>
        <time>2024-11-20T14:31:25Z</time>
      </trkpt>
      <trkpt lat="48.16371" lon="-3.30494">
        <ele>235.4</ele>
        <time>2024-11-20T14:31:26Z</time>
      </trkpt>
      <trkpt lat="48.1637" lon="-3.30495">
        <ele>235.4</ele>
        <time>2024-11-20T14:31:27Z</time>
      </trkpt>
      <trkpt lat="48.16369" lon="-3.30495">
        <ele>235.5</ele>
        <time>2024-11-20T14:31:28Z</time>
      </trkpt>
      <trkpt lat="48.16368" lon="-3.30495">
        <ele>235.6</ele>
        <time>2024-11-20T14:31:29Z</time>
      </trkpt>
      <trkpt lat="48.16367" lon="-3.30495">
        <ele>235.6</ele>
        <time>2024-11-20T14:31:30Z</time>
      </trkpt>
      <trkpt lat="48.16365" lon="-3.30494">
        <ele>235.7</ele>
        <time>2024-11-20T14:31:31Z</time>
      </trkpt>
      <trkpt lat="48.16364" lon="-3.30494">
        <ele>235.8</ele>
        <time>2024-11-20T14:31:32Z</time>
      </trkpt>
      <trkpt lat="48.16363" lon="-3.30494">
        <ele>235.9</ele>
        <time>2024-11-20T14:31:33Z</time>
      </trkpt>
      <trkpt lat="48.16362" lon="-3.30494">
        <ele>236</ele>
        <time>2024-11-20T14:31:34Z</time>
      </trkpt>
      <trkpt lat="48.1636" lon="-3.30493">
        <ele>236</ele>
        <time>2024-11-20T14:31:35Z</time>
      </trkpt>
      <trkpt lat="48.16359" lon="-3.30493">
        <ele>236.1</ele>
        <time>2024-11-20T14:31:36Z</time>
      </trkpt>
      <trkpt lat="48.16358" lon="-3.30492">
        <ele>236.1</ele>
        <time>2024-11-20T14:31:37Z</time>
      </trkpt>
      <trkpt lat="48.16356" lon="-3.30491">
        <ele>236.2</ele>
        <time>2024-11-20T14:31:38Z</time>
      </trkpt>
      <trkpt lat="48.16355" lon="-3.30491">
        <ele>236.2</ele>
        <time>2024-11-20T14:31:39Z</time>
      </trkpt>
      <trkpt lat="48.16354" lon="-3.30491">
        <ele>236.2</ele>
        <time>2024-11-20T14:31:40Z</time>
      </trkpt>
      <trkpt lat="48.16353" lon="-3.30492">
        <ele>236.3</ele>
        <time>2024-11-20T14:31:41Z</time>
      </trkpt>
      <trkpt lat="48.16352" lon="-3.30493">
        <ele>236.3</ele>
        <time>2024-11-20T14:31:42Z</time>
      </trkpt>
      <trkpt lat="48.16351" lon="-3.30493">
        <ele>236.3</ele>
        <time>2024-11-20T14:31:43Z</time>
      </trkpt>
      <trkpt lat="48.16351" lon="-3.30494">
        <ele>236.4</ele>
        <time>2024-11-20T14:31:44Z</time>
      </trkpt>
      <trkpt lat="48.16349" lon="-3.30494">
        <ele>236.4</ele>
        <time>2024-11-20T14:31:45Z</time>
      </trkpt>
      <trkpt lat="48.16348" lon="-3.30494">
        <ele>236.5</ele>
        <time>2024-11-20T14:31:46Z</time>
      </trkpt>
      <trkpt lat="48.16347" lon="-3.30494">
        <ele>236.5</ele>
        <time>2024-11-20T14:31:47Z</time>
      </trkpt>
      <trkpt lat="48.16346" lon="-3.30494">
        <ele>236.6</ele>
        <time>2024-11-20T14:31:48Z</time>
      </trkpt>
      <trkpt lat="48.16345" lon="-3.30494">
        <ele>236.6</ele>
        <time>2024-11-20T14:31:49Z</time>
      </trkpt>
      <trkpt lat="48.16343" lon="-3.30495">
        <ele>236.6</ele>
        <time>2024-11-20T14:31:50Z</time>
      </trkpt>
      <trkpt lat="48.16342" lon="-3.30495">
        <ele>236.7</ele>
        <time>2024-11-20T14:31:51Z</time>
      </trkpt>
      <trkpt lat="48.16341" lon="-3.30495">
        <ele>236.7</ele>
        <time>2024-11-20T14:31:52Z</time>
      </trkpt>
      <trkpt lat="48.1634" lon="-3.30495">
        <ele>236.8</ele>
        <time>2024-11-20T14:31:53Z</time>
      </trkpt>
      <trkpt lat="48.16339" lon="-3.30495">
        <ele>236.8</ele>
        <time>2024-11-20T14:31:54Z</time>
      </trkpt>
      <trkpt lat="48.16338" lon="-3.30495">
        <ele>236.8</ele>
        <time>2024-11-20T14:31:55Z</time>
      </trkpt>
      <trkpt lat="48.16337" lon="-3.30495">
        <ele>236.9</ele>
        <time>2024-11-20T14:31:56Z</time>
      </trkpt>
      <trkpt lat="48.16336" lon="-3.30496">
        <ele>236.9</ele>
        <time>2024-11-20T14:31:57Z</time>
      </trkpt>
      <trkpt lat="48.16335" lon="-3.30496">
        <ele>236.9</ele>
        <time>2024-11-20T14:31:58Z</time>
      </trkpt>
      <trkpt lat="48.16334" lon="-3.30496">
        <ele>237</ele>
        <time>2024-11-20T14:31:59Z</time>
      </trkpt>
      <trkpt lat="48.16333" lon="-3.30496">
        <ele>237</ele>
        <time>2024-11-20T14:32:00Z</time>
      </trkpt>
      <trkpt lat="48.16332" lon="-3.30497">
        <ele>237.1</ele>
        <time>2024-11-20T14:32:01Z</time>
      </trkpt>
      <trkpt lat="48.16331" lon="-3.30497">
        <ele>237.1</ele>
        <time>2024-11-20T14:32:02Z</time>
      </trkpt>
      <trkpt lat="48.1633" lon="-3.30497">
        <ele>237.1</ele>
        <time>2024-11-20T14:32:03Z</time>
      </trkpt>
      <trkpt lat="48.16329" lon="-3.30497">
        <ele>237.2</ele>
        <time>2024-11-20T14:32:04Z</time>
      </trkpt>
      <trkpt lat="48.16328" lon="-3.30497">
        <ele>237.2</ele>
        <time>2024-11-20T14:32:05Z</time>
      </trkpt>
      <trkpt lat="48.16327" lon="-3.30497">
        <ele>237.3</ele>
        <time>2024-11-20T14:32:06Z</time>
      </trkpt>
      <trkpt lat="48.16326" lon="-3.30498">
        <ele>237.3</ele>
        <time>2024-11-20T14:32:07Z</time>
      </trkpt>
      <trkpt lat="48.16325" lon="-3.30498">
        <ele>237.3</ele>
        <time>2024-11-20T14:32:08Z</time>
      </trkpt>
      <trkpt lat="48.16324" lon="-3.30498">
        <ele>237.4</ele>
        <time>2024-11-20T14:32:09Z</time>
      </trkpt>
      <trkpt lat="48.16322" lon="-3.30498">
        <ele>237.4</ele>
        <time>2024-11-20T14:32:10Z</time>
      </trkpt>
      <trkpt lat="48.16321" lon="-3.30499">
        <ele>237.5</ele>
        <time>2024-11-20T14:32:11Z</time>
      </trkpt>
      <trkpt lat="48.1632" lon="-3.30499">
        <ele>237.5</ele>
        <time>2024-11-20T14:32:12Z</time>
      </trkpt>
      <trkpt lat="48.16319" lon="-3.305">
        <ele>237.5</ele>
        <time>2024-11-20T14:32:13Z</time>
      </trkpt>
      <trkpt lat="48.16318" lon="-3.305">
        <ele>237.5</ele>
        <time>2024-11-20T14:32:14Z</time>
      </trkpt>
      <trkpt lat="48.16317" lon="-3.30501">
        <ele>237.6</ele>
        <time>2024-11-20T14:32:15Z</time>
      </trkpt>
      <trkpt lat="48.16316" lon="-3.30501">
        <ele>237.6</ele>
        <time>2024-11-20T14:32:16Z</time>
      </trkpt>
      <trkpt lat="48.16315" lon="-3.30501">
        <ele>237.7</ele>
        <time>2024-11-20T14:32:17Z</time>
      </trkpt>
      <trkpt lat="48.16313" lon="-3.30501">
        <ele>237.7</ele>
        <time>2024-11-20T14:32:18Z</time>
      </trkpt>
      <trkpt lat="48.16312" lon="-3.30501">
        <ele>237.7</ele>
        <time>2024-11-20T14:32:19Z</time>
      </trkpt>
      <trkpt lat="48.16311" lon="-3.30501">
        <ele>237.8</ele>
        <time>2024-11-20T14:32:20Z</time>
      </trkpt>
      <trkpt lat="48.1631" lon="-3.30501">
        <ele>237.8</ele>
        <time>2024-11-20T14:32:21Z</time>
      </trkpt>
      <trkpt lat="48.16309" lon="-3.30501">
        <ele>237.8</ele>
        <time>2024-11-20T14:32:22Z</time>
      </trkpt>
      <trkpt lat="48.16307" lon="-3.30502">
        <ele>237.9</ele>
        <time>2024-11-20T14:32:23Z</time>
      </trkpt>
      <trkpt lat="48.16306" lon="-3.30502">
        <ele>237.9</ele>
        <time>2024-11-20T14:32:24Z</time>
      </trkpt>
      <trkpt lat="48.16305" lon="-3.30503">
        <ele>237.9</ele>
        <time>2024-11-20T14:32:25Z</time>
      </trkpt>
      <trkpt lat="48.16304" lon="-3.30503">
        <ele>238</ele>
        <time>2024-11-20T14:32:26Z</time>
      </trkpt>
      <trkpt lat="48.16303" lon="-3.30503">
        <ele>238</ele>
        <time>2024-11-20T14:32:27Z</time>
      </trkpt>
      <trkpt lat="48.16302" lon="-3.30503">
        <ele>238</ele>
        <time>2024-11-20T14:32:28Z</time>
      </trkpt>
      <trkpt lat="48.163" lon="-3.30503">
        <ele>238.1</ele>
        <time>2024-11-20T14:32:29Z</time>
      </trkpt>
      <trkpt lat="48.16299" lon="-3.30503">
        <ele>238.1</ele>
        <time>2024-11-20T14:32:30Z</time>
      </trkpt>
      <trkpt lat="48.16298" lon="-3.30503">
        <ele>238.1</ele>
        <time>2024-11-20T14:32:31Z</time>
      </trkpt>
      <trkpt lat="48.16297" lon="-3.30504">
        <ele>238.2</ele>
        <time>2024-11-20T14:32:32Z</time>
      </trkpt>
      <trkpt lat="48.16296" lon="-3.30504">
        <ele>238.2</ele>
        <time>2024-11-20T14:32:33Z</time>
      </trkpt>
      <trkpt lat="48.16295" lon="-3.30504">
        <ele>238.2</ele>
        <time>2024-11-20T14:32:34Z</time>
      </trkpt>
      <trkpt lat="48.16294" lon="-3.30504">
        <ele>238.3</ele>
        <time>2024-11-20T14:32:35Z</time>
      </trkpt>
      <trkpt lat="48.16293" lon="-3.30504">
        <ele>238.3</ele>
        <time>2024-11-20T14:32:36Z</time>
      </trkpt>
      <trkpt lat="48.16292" lon="-3.30505">
        <ele>238.3</ele>
        <time>2024-11-20T14:32:37Z</time>
      </trkpt>
      <trkpt lat="48.1629" lon="-3.30505">
        <ele>238.4</ele>
        <time>2024-11-20T14:32:38Z</time>
      </trkpt>
      <trkpt lat="48.16289" lon="-3.30505">
        <ele>238.4</ele>
        <time>2024-11-20T14:32:39Z</time>
      </trkpt>
      <trkpt lat="48.16288" lon="-3.30506">
        <ele>238.4</ele>
        <time>2024-11-20T14:32:40Z</time>
      </trkpt>
      <trkpt lat="48.16287" lon="-3.30506">
        <ele>238.4</ele>
        <time>2024-11-20T14:32:41Z</time>
      </trkpt>
      <trkpt lat="48.16286" lon="-3.30506">
        <ele>238.5</ele>
        <time>2024-11-20T14:32:42Z</time>
      </trkpt>
      <trkpt lat="48.16285" lon="-3.30507">
        <ele>238.5</ele>
        <time>2024-11-20T14:32:43Z</time>
      </trkpt>
      <trkpt lat="48.16284" lon="-3.30507">
        <ele>238.5</ele>
        <time>2024-11-20T14:32:44Z</time>
      </trkpt>
      <trkpt lat="48.16283" lon="-3.30508">
        <ele>238.5</ele>
        <time>2024-11-20T14:32:45Z</time>
      </trkpt>
      <trkpt lat="48.16282" lon="-3.30508">
        <ele>238.5</ele>
        <time>2024-11-20T14:32:46Z</time>
      </trkpt>
      <trkpt lat="48.16281" lon="-3.30509">
        <ele>238.6</ele>
        <time>2024-11-20T14:32:47Z</time>
      </trkpt>
      <trkpt lat="48.16281" lon="-3.30509">
        <ele>238.6</ele>
        <time>2024-11-20T14:32:48Z</time>
      </trkpt>
      <trkpt lat="48.1628" lon="-3.3051">
        <ele>238.6</ele>
        <time>2024-11-20T14:32:49Z</time>
      </trkpt>
      <trkpt lat="48.16279" lon="-3.3051">
        <ele>238.6</ele>
        <time>2024-11-20T14:32:50Z</time>
      </trkpt>
      <trkpt lat="48.16278" lon="-3.30511">
        <ele>238.6</ele>
        <time>2024-11-20T14:32:51Z</time>
      </trkpt>
      <trkpt lat="48.16277" lon="-3.30511">
        <ele>238.6</ele>
        <time>2024-11-20T14:32:52Z</time>
      </trkpt>
      <trkpt lat="48.16277" lon="-3.30511">
        <ele>238.6</ele>
        <time>2024-11-20T14:32:53Z</time>
      </trkpt>
      <trkpt lat="48.16276" lon="-3.30511">
        <ele>238.7</ele>
        <time>2024-11-20T14:32:54Z</time>
      </trkpt>
      <trkpt lat="48.16276" lon="-3.30511">
        <ele>238.7</ele>
        <time>2024-11-20T14:32:55Z</time>
      </trkpt>
      <trkpt lat="48.16276" lon="-3.30511">
        <ele>238.7</ele>
        <time>2024-11-20T14:32:56Z</time>
      </trkpt>
      <trkpt lat="48.16276" lon="-3.30512">
        <ele>238.7</ele>
        <time>2024-11-20T14:32:57Z</time>
      </trkpt>
      <trkpt lat="48.16275" lon="-3.30512">
        <ele>238.7</ele>
        <time>2024-11-20T14:32:58Z</time>
      </trkpt>
      <trkpt lat="48.16275" lon="-3.30512">
        <ele>238.7</ele>
        <time>2024-11-20T14:32:59Z</time>
      </trkpt>
      <trkpt lat="48.16275" lon="-3.30512">
        <ele>238.7</ele>
        <time>2024-11-20T14:33:00Z</time>
      </trkpt>
      <trkpt lat="48.16275" lon="-3.30512">
        <ele>238.7</ele>
        <time>2024-11-20T14:33:01Z</time>
      </trkpt>
      <trkpt lat="48.16275" lon="-3.30512">
        <ele>238.7</ele>
        <time>2024-11-20T14:33:02Z</time>
      </trkpt>
      <trkpt lat="48.16274" lon="-3.30512">
        <ele>238.7</ele>
        <time>2024-11-20T14:33:03Z</time>
      </trkpt>
      <trkpt lat="48.16273" lon="-3.30512">
        <ele>238.7</ele>
        <time>2024-11-20T14:33:04Z</time>
      </trkpt>
      <trkpt lat="48.16272" lon="-3.30512">
        <ele>238.8</ele>
        <time>2024-11-20T14:33:05Z</time>
      </trkpt>
      <trkpt lat="48.16272" lon="-3.30512">
        <ele>238.8</ele>
        <time>2024-11-20T14:33:06Z</time>
      </trkpt>
      <trkpt lat="48.16271" lon="-3.30512">
        <ele>238.8</ele>
        <time>2024-11-20T14:33:07Z</time>
      </trkpt>
      <trkpt lat="48.1627" lon="-3.30511">
        <ele>238.9</ele>
        <time>2024-11-20T14:33:08Z</time>
      </trkpt>
      <trkpt lat="48.16269" lon="-3.30511">
        <ele>238.9</ele>
        <time>2024-11-20T14:33:09Z</time>
      </trkpt>
      <trkpt lat="48.16268" lon="-3.30511">
        <ele>239</ele>
        <time>2024-11-20T14:33:10Z</time>
      </trkpt>
      <trkpt lat="48.16267" lon="-3.30511">
        <ele>239</ele>
        <time>2024-11-20T14:33:11Z</time>
      </trkpt>
      <trkpt lat="48.16266" lon="-3.30512">
        <ele>239</ele>
        <time>2024-11-20T14:33:12Z</time>
      </trkpt>
      <trkpt lat="48.16264" lon="-3.30512">
        <ele>239.1</ele>
        <time>2024-11-20T14:33:13Z</time>
      </trkpt>
      <trkpt lat="48.16263" lon="-3.30512">
        <ele>239.1</ele>
        <time>2024-11-20T14:33:14Z</time>
      </trkpt>
      <trkpt lat="48.16262" lon="-3.30512">
        <ele>239.1</ele>
        <time>2024-11-20T14:33:15Z</time>
      </trkpt>
      <trkpt lat="48.16261" lon="-3.30512">
        <ele>239.2</ele>
        <time>2024-11-20T14:33:16Z</time>
      </trkpt>
      <trkpt lat="48.1626" lon="-3.30512">
        <ele>239.2</ele>
        <time>2024-11-20T14:33:17Z</time>
      </trkpt>
      <trkpt lat="48.16258" lon="-3.30513">
        <ele>239.2</ele>
        <time>2024-11-20T14:33:18Z</time>
      </trkpt>
      <trkpt lat="48.16257" lon="-3.30513">
        <ele>239.3</ele>
        <time>2024-11-20T14:33:19Z</time>
      </trkpt>
      <trkpt lat="48.16256" lon="-3.30514">
        <ele>239.3</ele>
        <time>2024-11-20T14:33:20Z</time>
      </trkpt>
      <trkpt lat="48.16254" lon="-3.30514">
        <ele>239.3</ele>
        <time>2024-11-20T14:33:21Z</time>
      </trkpt>
      <trkpt lat="48.16253" lon="-3.30514">
        <ele>239.4</ele>
        <time>2024-11-20T14:33:22Z</time>
      </trkpt>
      <trkpt lat="48.16252" lon="-3.30515">
        <ele>239.4</ele>
        <time>2024-11-20T14:33:23Z</time>
      </trkpt>
      <trkpt lat="48.16251" lon="-3.30515">
        <ele>239.4</ele>
        <time>2024-11-20T14:33:24Z</time>
      </trkpt>
      <trkpt lat="48.1625" lon="-3.30515">
        <ele>239.5</ele>
        <time>2024-11-20T14:33:25Z</time>
      </trkpt>
      <trkpt lat="48.16249" lon="-3.30515">
        <ele>239.5</ele>
        <time>2024-11-20T14:33:26Z</time>
      </trkpt>
      <trkpt lat="48.16248" lon="-3.30516">
        <ele>239.5</ele>
        <time>2024-11-20T14:33:27Z</time>
      </trkpt>
      <trkpt lat="48.16246" lon="-3.30516">
        <ele>239.6</ele>
        <time>2024-11-20T14:33:28Z</time>
      </trkpt>
      <trkpt lat="48.16245" lon="-3.30516">
        <ele>239.6</ele>
        <time>2024-11-20T14:33:29Z</time>
      </trkpt>
      <trkpt lat="48.16244" lon="-3.30516">
        <ele>239.6</ele>
        <time>2024-11-20T14:33:30Z</time>
      </trkpt>
      <trkpt lat="48.16243" lon="-3.30517">
        <ele>239.7</ele>
        <time>2024-11-20T14:33:31Z</time>
      </trkpt>
      <trkpt lat="48.16242" lon="-3.30517">
        <ele>239.7</ele>
        <time>2024-11-20T14:33:32Z</time>
      </trkpt>
      <trkpt lat="48.1624" lon="-3.30517">
        <ele>239.7</ele>
        <time>2024-11-20T14:33:33Z</time>
      </trkpt>
      <trkpt lat="48.1624" lon="-3.30517">
        <ele>239.8</ele>
        <time>2024-11-20T14:33:34Z</time>
      </trkpt>
      <trkpt lat="48.1624" lon="-3.30517">
        <ele>239.8</ele>
        <time>2024-11-20T14:33:35Z</time>
      </trkpt>
      <trkpt lat="48.16239" lon="-3.30517">
        <ele>239.8</ele>
        <time>2024-11-20T14:33:36Z</time>
      </trkpt>
      <trkpt lat="48.16237" lon="-3.30517">
        <ele>239.9</ele>
        <time>2024-11-20T14:33:37Z</time>
      </trkpt>
      <trkpt lat="48.16236" lon="-3.30517">
        <ele>239.9</ele>
        <time>2024-11-20T14:33:38Z</time>
      </trkpt>
      <trkpt lat="48.16235" lon="-3.30517">
        <ele>239.9</ele>
        <time>2024-11-20T14:33:39Z</time>
      </trkpt>
      <trkpt lat="48.16234" lon="-3.30518">
        <ele>239.9</ele>
        <time>2024-11-20T14:33:40Z</time>
      </trkpt>
      <trkpt lat="48.16233" lon="-3.30518">
        <ele>240</ele>
        <time>2024-11-20T14:33:41Z</time>
      </trkpt>
      <trkpt lat="48.16232" lon="-3.30518">
        <ele>240</ele>
        <time>2024-11-20T14:33:42Z</time>
      </trkpt>
      <trkpt lat="48.16231" lon="-3.30518">
        <ele>240</ele>
        <time>2024-11-20T14:33:43Z</time>
      </trkpt>
      <trkpt lat="48.1623" lon="-3.30519">
        <ele>240.1</ele>
        <time>2024-11-20T14:33:44Z</time>
      </trkpt>
      <trkpt lat="48.16228" lon="-3.30519">
        <ele>240.1</ele>
        <time>2024-11-20T14:33:45Z</time>
      </trkpt>
      <trkpt lat="48.16227" lon="-3.30519">
        <ele>240.1</ele>
        <time>2024-11-20T14:33:46Z</time>
      </trkpt>
      <trkpt lat="48.16226" lon="-3.30519">
        <ele>240.2</ele>
        <time>2024-11-20T14:33:47Z</time>
      </trkpt>
      <trkpt lat="48.16225" lon="-3.30519">
        <ele>240.2</ele>
        <time>2024-11-20T14:33:48Z</time>
      </trkpt>
      <trkpt lat="48.16224" lon="-3.30519">
        <ele>240.3</ele>
        <time>2024-11-20T14:33:49Z</time>
      </trkpt>
      <trkpt lat="48.16223" lon="-3.30519">
        <ele>240.3</ele>
        <time>2024-11-20T14:33:50Z</time>
      </trkpt>
      <trkpt lat="48.16222" lon="-3.30519">
        <ele>240.4</ele>
        <time>2024-11-20T14:33:51Z</time>
      </trkpt>
      <trkpt lat="48.16221" lon="-3.30519">
        <ele>240.4</ele>
        <time>2024-11-20T14:33:52Z</time>
      </trkpt>
      <trkpt lat="48.1622" lon="-3.30519">
        <ele>240.5</ele>
        <time>2024-11-20T14:33:53Z</time>
      </trkpt>
      <trkpt lat="48.16219" lon="-3.30519">
        <ele>240.5</ele>
        <time>2024-11-20T14:33:54Z</time>
      </trkpt>
      <trkpt lat="48.16219" lon="-3.30519">
        <ele>240.5</ele>
        <time>2024-11-20T14:33:55Z</time>
      </trkpt>
      <trkpt lat="48.16218" lon="-3.30519">
        <ele>240.6</ele>
        <time>2024-11-20T14:33:56Z</time>
      </trkpt>
      <trkpt lat="48.16217" lon="-3.3052">
        <ele>240.6</ele>
        <time>2024-11-20T14:33:57Z</time>
      </trkpt>
      <trkpt lat="48.16215" lon="-3.3052">
        <ele>240.7</ele>
        <time>2024-11-20T14:33:58Z</time>
      </trkpt>
      <trkpt lat="48.16214" lon="-3.3052">
        <ele>240.8</ele>
        <time>2024-11-20T14:33:59Z</time>
      </trkpt>
      <trkpt lat="48.16213" lon="-3.30521">
        <ele>240.9</ele>
        <time>2024-11-20T14:34:00Z</time>
      </trkpt>
      <trkpt lat="48.16211" lon="-3.30521">
        <ele>241</ele>
        <time>2024-11-20T14:34:01Z</time>
      </trkpt>
      <trkpt lat="48.1621" lon="-3.30521">
        <ele>241</ele>
        <time>2024-11-20T14:34:02Z</time>
      </trkpt>
      <trkpt lat="48.16209" lon="-3.30522">
        <ele>241.1</ele>
        <time>2024-11-20T14:34:03Z</time>
      </trkpt>
      <trkpt lat="48.16208" lon="-3.30522">
        <ele>241.1</ele>
        <time>2024-11-20T14:34:04Z</time>
      </trkpt>
      <trkpt lat="48.16207" lon="-3.30523">
        <ele>241.2</ele>
        <time>2024-11-20T14:34:05Z</time>
      </trkpt>
      <trkpt lat="48.16206" lon="-3.30524">
        <ele>241.3</ele>
        <time>2024-11-20T14:34:06Z</time>
      </trkpt>
      <trkpt lat="48.16205" lon="-3.30524">
        <ele>241.3</ele>
        <time>2024-11-20T14:34:07Z</time>
      </trkpt>
      <trkpt lat="48.16204" lon="-3.30524">
        <ele>241.4</ele>
        <time>2024-11-20T14:34:08Z</time>
      </trkpt>
      <trkpt lat="48.16203" lon="-3.30525">
        <ele>241.5</ele>
        <time>2024-11-20T14:34:09Z</time>
      </trkpt>
      <trkpt lat="48.16201" lon="-3.30525">
        <ele>241.5</ele>
        <time>2024-11-20T14:34:10Z</time>
      </trkpt>
      <trkpt lat="48.162" lon="-3.30525">
        <ele>241.6</ele>
        <time>2024-11-20T14:34:11Z</time>
      </trkpt>
      <trkpt lat="48.16199" lon="-3.30525">
        <ele>241.7</ele>
        <time>2024-11-20T14:34:12Z</time>
      </trkpt>
      <trkpt lat="48.16198" lon="-3.30525">
        <ele>241.8</ele>
        <time>2024-11-20T14:34:13Z</time>
      </trkpt>
      <trkpt lat="48.16197" lon="-3.30525">
        <ele>241.9</ele>
        <time>2024-11-20T14:34:14Z</time>
      </trkpt>
      <trkpt lat="48.16195" lon="-3.30525">
        <ele>241.9</ele>
        <time>2024-11-20T14:34:15Z</time>
      </trkpt>
      <trkpt lat="48.16194" lon="-3.30525">
        <ele>242</ele>
        <time>2024-11-20T14:34:16Z</time>
      </trkpt>
      <trkpt lat="48.16193" lon="-3.30526">
        <ele>242.1</ele>
        <time>2024-11-20T14:34:17Z</time>
      </trkpt>
      <trkpt lat="48.16192" lon="-3.30526">
        <ele>242.1</ele>
        <time>2024-11-20T14:34:18Z</time>
      </trkpt>
      <trkpt lat="48.16191" lon="-3.30526">
        <ele>242.1</ele>
        <time>2024-11-20T14:34:19Z</time>
      </trkpt>
      <trkpt lat="48.1619" lon="-3.30527">
        <ele>242.2</ele>
        <time>2024-11-20T14:34:20Z</time>
      </trkpt>
      <trkpt lat="48.16189" lon="-3.30527">
        <ele>242.2</ele>
        <time>2024-11-20T14:34:21Z</time>
      </trkpt>
      <trkpt lat="48.16187" lon="-3.30527">
        <ele>242.3</ele>
        <time>2024-11-20T14:34:22Z</time>
      </trkpt>
      <trkpt lat="48.16186" lon="-3.30527">
        <ele>242.3</ele>
        <time>2024-11-20T14:34:23Z</time>
      </trkpt>
      <trkpt lat="48.16185" lon="-3.30527">
        <ele>242.4</ele>
        <time>2024-11-20T14:34:24Z</time>
      </trkpt>
      <trkpt lat="48.16184" lon="-3.30527">
        <ele>242.4</ele>
        <time>2024-11-20T14:34:25Z</time>
      </trkpt>
      <trkpt lat="48.16183" lon="-3.30527">
        <ele>242.4</ele>
        <time>2024-11-20T14:34:26Z</time>
      </trkpt>
      <trkpt lat="48.16181" lon="-3.30527">
        <ele>242.5</ele>
        <time>2024-11-20T14:34:27Z</time>
      </trkpt>
      <trkpt lat="48.1618" lon="-3.30528">
        <ele>242.5</ele>
        <time>2024-11-20T14:34:28Z</time>
      </trkpt>
      <trkpt lat="48.16179" lon="-3.30528">
        <ele>242.6</ele>
        <time>2024-11-20T14:34:29Z</time>
      </trkpt>
      <trkpt lat="48.16178" lon="-3.30528">
        <ele>242.6</ele>
        <time>2024-11-20T14:34:30Z</time>
      </trkpt>
      <trkpt lat="48.16177" lon="-3.30528">
        <ele>242.6</ele>
        <time>2024-11-20T14:34:31Z</time>
      </trkpt>
      <trkpt lat="48.16176" lon="-3.30529">
        <ele>242.6</ele>
        <time>2024-11-20T14:34:32Z</time>
      </trkpt>
      <trkpt lat="48.16174" lon="-3.30529">
        <ele>242.6</ele>
        <time>2024-11-20T14:34:33Z</time>
      </trkpt>
      <trkpt lat="48.16174" lon="-3.30529">
        <ele>242.6</ele>
        <time>2024-11-20T14:34:34Z</time>
      </trkpt>
      <trkpt lat="48.16173" lon="-3.30529">
        <ele>242.7</ele>
        <time>2024-11-20T14:34:35Z</time>
      </trkpt>
      <trkpt lat="48.16172" lon="-3.30529">
        <ele>242.7</ele>
        <time>2024-11-20T14:34:36Z</time>
      </trkpt>
      <trkpt lat="48.16171" lon="-3.30529">
        <ele>242.7</ele>
        <time>2024-11-20T14:34:37Z</time>
      </trkpt>
      <trkpt lat="48.1617" lon="-3.3053">
        <ele>242.8</ele>
        <time>2024-11-20T14:34:38Z</time>
      </trkpt>
      <trkpt lat="48.16169" lon="-3.3053">
        <ele>242.8</ele>
        <time>2024-11-20T14:34:39Z</time>
      </trkpt>
      <trkpt lat="48.16167" lon="-3.3053">
        <ele>242.8</ele>
        <time>2024-11-20T14:34:40Z</time>
      </trkpt>
      <trkpt lat="48.16166" lon="-3.3053">
        <ele>242.9</ele>
        <time>2024-11-20T14:34:41Z</time>
      </trkpt>
      <trkpt lat="48.16165" lon="-3.30531">
        <ele>243</ele>
        <time>2024-11-20T14:34:42Z</time>
      </trkpt>
      <trkpt lat="48.16163" lon="-3.30531">
        <ele>243</ele>
        <time>2024-11-20T14:34:43Z</time>
      </trkpt>
      <trkpt lat="48.16162" lon="-3.30531">
        <ele>243.1</ele>
        <time>2024-11-20T14:34:44Z</time>
      </trkpt>
      <trkpt lat="48.16161" lon="-3.3053">
        <ele>243.2</ele>
        <time>2024-11-20T14:34:45Z</time>
      </trkpt>
      <trkpt lat="48.1616" lon="-3.3053">
        <ele>243.3</ele>
        <time>2024-11-20T14:34:46Z</time>
      </trkpt>
      <trkpt lat="48.16159" lon="-3.30531">
        <ele>243.3</ele>
        <time>2024-11-20T14:34:47Z</time>
      </trkpt>
      <trkpt lat="48.16158" lon="-3.30531">
        <ele>243.4</ele>
        <time>2024-11-20T14:34:48Z</time>
      </trkpt>
      <trkpt lat="48.16157" lon="-3.30531">
        <ele>243.5</ele>
        <time>2024-11-20T14:34:49Z</time>
      </trkpt>
      <trkpt lat="48.16156" lon="-3.30531">
        <ele>243.6</ele>
        <time>2024-11-20T14:34:50Z</time>
      </trkpt>
      <trkpt lat="48.16155" lon="-3.30531">
        <ele>243.6</ele>
        <time>2024-11-20T14:34:51Z</time>
      </trkpt>
      <trkpt lat="48.16154" lon="-3.30532">
        <ele>243.7</ele>
        <time>2024-11-20T14:34:52Z</time>
      </trkpt>
      <trkpt lat="48.16152" lon="-3.30532">
        <ele>243.7</ele>
        <time>2024-11-20T14:34:53Z</time>
      </trkpt>
      <trkpt lat="48.16151" lon="-3.30533">
        <ele>243.8</ele>
        <time>2024-11-20T14:34:54Z</time>
      </trkpt>
      <trkpt lat="48.1615" lon="-3.30533">
        <ele>243.8</ele>
        <time>2024-11-20T14:34:55Z</time>
      </trkpt>
      <trkpt lat="48.16149" lon="-3.30533">
        <ele>243.9</ele>
        <time>2024-11-20T14:34:56Z</time>
      </trkpt>
      <trkpt lat="48.16148" lon="-3.30534">
        <ele>243.9</ele>
        <time>2024-11-20T14:34:57Z</time>
      </trkpt>
      <trkpt lat="48.16147" lon="-3.30534">
        <ele>244</ele>
        <time>2024-11-20T14:34:58Z</time>
      </trkpt>
      <trkpt lat="48.16145" lon="-3.30535">
        <ele>244</ele>
        <time>2024-11-20T14:34:59Z</time>
      </trkpt>
      <trkpt lat="48.16144" lon="-3.30535">
        <ele>244.1</ele>
        <time>2024-11-20T14:35:00Z</time>
      </trkpt>
      <trkpt lat="48.16143" lon="-3.30535">
        <ele>244.1</ele>
        <time>2024-11-20T14:35:01Z</time>
      </trkpt>
      <trkpt lat="48.16142" lon="-3.30536">
        <ele>244.2</ele>
        <time>2024-11-20T14:35:02Z</time>
      </trkpt>
      <trkpt lat="48.16142" lon="-3.30536">
        <ele>244.2</ele>
        <time>2024-11-20T14:35:03Z</time>
      </trkpt>
      <trkpt lat="48.16142" lon="-3.30536">
        <ele>244.2</ele>
        <time>2024-11-20T14:35:04Z</time>
      </trkpt>
      <trkpt lat="48.16141" lon="-3.30536">
        <ele>244.3</ele>
        <time>2024-11-20T14:35:05Z</time>
      </trkpt>
      <trkpt lat="48.1614" lon="-3.30536">
        <ele>244.3</ele>
        <time>2024-11-20T14:35:06Z</time>
      </trkpt>
      <trkpt lat="48.16139" lon="-3.30536">
        <ele>244.4</ele>
        <time>2024-11-20T14:35:07Z</time>
      </trkpt>
      <trkpt lat="48.16138" lon="-3.30536">
        <ele>244.5</ele>
        <time>2024-11-20T14:35:08Z</time>
      </trkpt>
      <trkpt lat="48.16137" lon="-3.30535">
        <ele>244.6</ele>
        <time>2024-11-20T14:35:09Z</time>
      </trkpt>
      <trkpt lat="48.16135" lon="-3.30535">
        <ele>244.7</ele>
        <time>2024-11-20T14:35:10Z</time>
      </trkpt>
      <trkpt lat="48.16134" lon="-3.30535">
        <ele>244.8</ele>
        <time>2024-11-20T14:35:11Z</time>
      </trkpt>
      <trkpt lat="48.16133" lon="-3.30536">
        <ele>244.9</ele>
        <time>2024-11-20T14:35:12Z</time>
      </trkpt>
      <trkpt lat="48.16132" lon="-3.30536">
        <ele>244.9</ele>
        <time>2024-11-20T14:35:13Z</time>
      </trkpt>
      <trkpt lat="48.1613" lon="-3.30536">
        <ele>245</ele>
        <time>2024-11-20T14:35:14Z</time>
      </trkpt>
      <trkpt lat="48.16129" lon="-3.30536">
        <ele>245.1</ele>
        <time>2024-11-20T14:35:15Z</time>
      </trkpt>
      <trkpt lat="48.16128" lon="-3.30536">
        <ele>245.2</ele>
        <time>2024-11-20T14:35:16Z</time>
      </trkpt>
      <trkpt lat="48.16126" lon="-3.30536">
        <ele>245.3</ele>
        <time>2024-11-20T14:35:17Z</time>
      </trkpt>
      <trkpt lat="48.16125" lon="-3.30537">
        <ele>245.4</ele>
        <time>2024-11-20T14:35:18Z</time>
      </trkpt>
      <trkpt lat="48.16123" lon="-3.30537">
        <ele>245.5</ele>
        <time>2024-11-20T14:35:19Z</time>
      </trkpt>
      <trkpt lat="48.16122" lon="-3.30537">
        <ele>245.5</ele>
        <time>2024-11-20T14:35:20Z</time>
      </trkpt>
      <trkpt lat="48.16122" lon="-3.30538">
        <ele>245.6</ele>
        <time>2024-11-20T14:35:21Z</time>
      </trkpt>
      <trkpt lat="48.16121" lon="-3.30538">
        <ele>245.6</ele>
        <time>2024-11-20T14:35:22Z</time>
      </trkpt>
      <trkpt lat="48.16119" lon="-3.30538">
        <ele>245.7</ele>
        <time>2024-11-20T14:35:23Z</time>
      </trkpt>
      <trkpt lat="48.16119" lon="-3.30538">
        <ele>245.7</ele>
        <time>2024-11-20T14:35:24Z</time>
      </trkpt>
      <trkpt lat="48.16118" lon="-3.30539">
        <ele>245.7</ele>
        <time>2024-11-20T14:35:25Z</time>
      </trkpt>
      <trkpt lat="48.16117" lon="-3.30539">
        <ele>245.8</ele>
        <time>2024-11-20T14:35:26Z</time>
      </trkpt>
      <trkpt lat="48.16116" lon="-3.30539">
        <ele>245.9</ele>
        <time>2024-11-20T14:35:27Z</time>
      </trkpt>
      <trkpt lat="48.16115" lon="-3.30538">
        <ele>246</ele>
        <time>2024-11-20T14:35:28Z</time>
      </trkpt>
      <trkpt lat="48.16114" lon="-3.30538">
        <ele>246</ele>
        <time>2024-11-20T14:35:29Z</time>
      </trkpt>
      <trkpt lat="48.16113" lon="-3.30538">
        <ele>246.1</ele>
        <time>2024-11-20T14:35:30Z</time>
      </trkpt>
      <trkpt lat="48.16112" lon="-3.30538">
        <ele>246.2</ele>
        <time>2024-11-20T14:35:31Z</time>
      </trkpt>
      <trkpt lat="48.1611" lon="-3.30539">
        <ele>246.3</ele>
        <time>2024-11-20T14:35:32Z</time>
      </trkpt>
      <trkpt lat="48.16109" lon="-3.30539">
        <ele>246.4</ele>
        <time>2024-11-20T14:35:33Z</time>
      </trkpt>
      <trkpt lat="48.16108" lon="-3.30539">
        <ele>246.4</ele>
        <time>2024-11-20T14:35:34Z</time>
      </trkpt>
      <trkpt lat="48.16107" lon="-3.30539">
        <ele>246.5</ele>
        <time>2024-11-20T14:35:35Z</time>
      </trkpt>
      <trkpt lat="48.16106" lon="-3.30539">
        <ele>246.5</ele>
        <time>2024-11-20T14:35:36Z</time>
      </trkpt>
      <trkpt lat="48.16105" lon="-3.30539">
        <ele>246.6</ele>
        <time>2024-11-20T14:35:37Z</time>
      </trkpt>
      <trkpt lat="48.16104" lon="-3.30539">
        <ele>246.7</ele>
        <time>2024-11-20T14:35:38Z</time>
      </trkpt>
      <trkpt lat="48.16102" lon="-3.3054">
        <ele>246.8</ele>
        <time>2024-11-20T14:35:39Z</time>
      </trkpt>
      <trkpt lat="48.16101" lon="-3.3054">
        <ele>246.9</ele>
        <time>2024-11-20T14:35:40Z</time>
      </trkpt>
      <trkpt lat="48.16099" lon="-3.3054">
        <ele>247</ele>
        <time>2024-11-20T14:35:41Z</time>
      </trkpt>
      <trkpt lat="48.16098" lon="-3.30541">
        <ele>247</ele>
        <time>2024-11-20T14:35:42Z</time>
      </trkpt>
      <trkpt lat="48.16097" lon="-3.30541">
        <ele>247.1</ele>
        <time>2024-11-20T14:35:43Z</time>
      </trkpt>
      <trkpt lat="48.16096" lon="-3.30541">
        <ele>247.2</ele>
        <time>2024-11-20T14:35:44Z</time>
      </trkpt>
      <trkpt lat="48.16094" lon="-3.30541">
        <ele>247.3</ele>
        <time>2024-11-20T14:35:45Z</time>
      </trkpt>
      <trkpt lat="48.16093" lon="-3.30541">
        <ele>247.3</ele>
        <time>2024-11-20T14:35:46Z</time>
      </trkpt>
      <trkpt lat="48.16092" lon="-3.30541">
        <ele>247.4</ele>
        <time>2024-11-20T14:35:47Z</time>
      </trkpt>
      <trkpt lat="48.16091" lon="-3.30541">
        <ele>247.5</ele>
        <time>2024-11-20T14:35:48Z</time>
      </trkpt>
      <trkpt lat="48.1609" lon="-3.30542">
        <ele>247.6</ele>
        <time>2024-11-20T14:35:49Z</time>
      </trkpt>
      <trkpt lat="48.16088" lon="-3.30542">
        <ele>247.6</ele>
        <time>2024-11-20T14:35:50Z</time>
      </trkpt>
      <trkpt lat="48.16087" lon="-3.30542">
        <ele>247.7</ele>
        <time>2024-11-20T14:35:51Z</time>
      </trkpt>
      <trkpt lat="48.16086" lon="-3.30542">
        <ele>247.8</ele>
        <time>2024-11-20T14:35:52Z</time>
      </trkpt>
      <trkpt lat="48.16085" lon="-3.30543">
        <ele>247.8</ele>
        <time>2024-11-20T14:35:53Z</time>
      </trkpt>
      <trkpt lat="48.16083" lon="-3.30543">
        <ele>247.9</ele>
        <time>2024-11-20T14:35:54Z</time>
      </trkpt>
      <trkpt lat="48.16081" lon="-3.30544">
        <ele>247.9</ele>
        <time>2024-11-20T14:35:55Z</time>
      </trkpt>
      <trkpt lat="48.1608" lon="-3.30545">
        <ele>247.9</ele>
        <time>2024-11-20T14:35:56Z</time>
      </trkpt>
      <trkpt lat="48.16078" lon="-3.30544">
        <ele>248</ele>
        <time>2024-11-20T14:35:57Z</time>
      </trkpt>
      <trkpt lat="48.16077" lon="-3.30544">
        <ele>248.1</ele>
        <time>2024-11-20T14:35:58Z</time>
      </trkpt>
      <trkpt lat="48.16076" lon="-3.30544">
        <ele>248.1</ele>
        <time>2024-11-20T14:35:59Z</time>
      </trkpt>
      <trkpt lat="48.16075" lon="-3.30543">
        <ele>248.2</ele>
        <time>2024-11-20T14:36:00Z</time>
      </trkpt>
      <trkpt lat="48.16074" lon="-3.30543">
        <ele>248.2</ele>
        <time>2024-11-20T14:36:01Z</time>
      </trkpt>
      <trkpt lat="48.16073" lon="-3.30543">
        <ele>248.3</ele>
        <time>2024-11-20T14:36:02Z</time>
      </trkpt>
      <trkpt lat="48.16072" lon="-3.30543">
        <ele>248.3</ele>
        <time>2024-11-20T14:36:03Z</time>
      </trkpt>
      <trkpt lat="48.16071" lon="-3.30543">
        <ele>248.3</ele>
        <time>2024-11-20T14:36:04Z</time>
      </trkpt>
      <trkpt lat="48.1607" lon="-3.30543">
        <ele>248.4</ele>
        <time>2024-11-20T14:36:05Z</time>
      </trkpt>
      <trkpt lat="48.16068" lon="-3.30543">
        <ele>248.4</ele>
        <time>2024-11-20T14:36:06Z</time>
      </trkpt>
      <trkpt lat="48.16067" lon="-3.30543">
        <ele>248.5</ele>
        <time>2024-11-20T14:36:07Z</time>
      </trkpt>
      <trkpt lat="48.16066" lon="-3.30543">
        <ele>248.5</ele>
        <time>2024-11-20T14:36:08Z</time>
      </trkpt>
      <trkpt lat="48.16066" lon="-3.30543">
        <ele>248.6</ele>
        <time>2024-11-20T14:36:09Z</time>
      </trkpt>
      <trkpt lat="48.16065" lon="-3.30542">
        <ele>248.7</ele>
        <time>2024-11-20T14:36:10Z</time>
      </trkpt>
      <trkpt lat="48.16064" lon="-3.30541">
        <ele>248.7</ele>
        <time>2024-11-20T14:36:11Z</time>
      </trkpt>
      <trkpt lat="48.16063" lon="-3.30541">
        <ele>248.8</ele>
        <time>2024-11-20T14:36:12Z</time>
      </trkpt>
      <trkpt lat="48.16062" lon="-3.3054">
        <ele>248.9</ele>
        <time>2024-11-20T14:36:13Z</time>
      </trkpt>
      <trkpt lat="48.16061" lon="-3.3054">
        <ele>248.9</ele>
        <time>2024-11-20T14:36:14Z</time>
      </trkpt>
      <trkpt lat="48.1606" lon="-3.3054">
        <ele>249</ele>
        <time>2024-11-20T14:36:15Z</time>
      </trkpt>
      <trkpt lat="48.1606" lon="-3.30539">
        <ele>249</ele>
        <time>2024-11-20T14:36:16Z</time>
      </trkpt>
      <trkpt lat="48.16059" lon="-3.30539">
        <ele>249.1</ele>
        <time>2024-11-20T14:36:17Z</time>
      </trkpt>
      <trkpt lat="48.16057" lon="-3.30539">
        <ele>249.2</ele>
        <time>2024-11-20T14:36:18Z</time>
      </trkpt>
      <trkpt lat="48.16056" lon="-3.30539">
        <ele>249.2</ele>
        <time>2024-11-20T14:36:19Z</time>
      </trkpt>
      <trkpt lat="48.16054" lon="-3.30539">
        <ele>249.2</ele>
        <time>2024-11-20T14:36:20Z</time>
      </trkpt>
      <trkpt lat="48.16053" lon="-3.30539">
        <ele>249.2</ele>
        <time>2024-11-20T14:36:21Z</time>
      </trkpt>
      <trkpt lat="48.16052" lon="-3.30539">
        <ele>249.2</ele>
        <time>2024-11-20T14:36:22Z</time>
      </trkpt>
      <trkpt lat="48.16051" lon="-3.30539">
        <ele>249.2</ele>
        <time>2024-11-20T14:36:23Z</time>
      </trkpt>
      <trkpt lat="48.1605" lon="-3.30539">
        <ele>249.2</ele>
        <time>2024-11-20T14:36:24Z</time>
      </trkpt>
      <trkpt lat="48.16048" lon="-3.30539">
        <ele>249.1</ele>
        <time>2024-11-20T14:36:25Z</time>
      </trkpt>
      <trkpt lat="48.16047" lon="-3.30539">
        <ele>249.1</ele>
        <time>2024-11-20T14:36:26Z</time>
      </trkpt>
      <trkpt lat="48.16046" lon="-3.30539">
        <ele>249.1</ele>
        <time>2024-11-20T14:36:27Z</time>
      </trkpt>
      <trkpt lat="48.16045" lon="-3.3054">
        <ele>249.1</ele>
        <time>2024-11-20T14:36:28Z</time>
      </trkpt>
      <trkpt lat="48.16044" lon="-3.3054">
        <ele>249.1</ele>
        <time>2024-11-20T14:36:29Z</time>
      </trkpt>
      <trkpt lat="48.16043" lon="-3.3054">
        <ele>249.1</ele>
        <time>2024-11-20T14:36:30Z</time>
      </trkpt>
      <trkpt lat="48.16043" lon="-3.3054">
        <ele>249.1</ele>
        <time>2024-11-20T14:36:31Z</time>
      </trkpt>
      <trkpt lat="48.16042" lon="-3.3054">
        <ele>249.1</ele>
        <time>2024-11-20T14:36:32Z</time>
      </trkpt>
      <trkpt lat="48.16041" lon="-3.3054">
        <ele>249</ele>
        <time>2024-11-20T14:36:33Z</time>
      </trkpt>
      <trkpt lat="48.16039" lon="-3.3054">
        <ele>249</ele>
        <time>2024-11-20T14:36:34Z</time>
      </trkpt>
      <trkpt lat="48.16038" lon="-3.30541">
        <ele>249</ele>
        <time>2024-11-20T14:36:35Z</time>
      </trkpt>
      <trkpt lat="48.16037" lon="-3.30541">
        <ele>249</ele>
        <time>2024-11-20T14:36:36Z</time>
      </trkpt>
      <trkpt lat="48.16036" lon="-3.30541">
        <ele>249</ele>
        <time>2024-11-20T14:36:37Z</time>
      </trkpt>
      <trkpt lat="48.16035" lon="-3.30541">
        <ele>249</ele>
        <time>2024-11-20T14:36:38Z</time>
      </trkpt>
      <trkpt lat="48.16033" lon="-3.30541">
        <ele>249</ele>
        <time>2024-11-20T14:36:39Z</time>
      </trkpt>
      <trkpt lat="48.16032" lon="-3.30542">
        <ele>249</ele>
        <time>2024-11-20T14:36:40Z</time>
      </trkpt>
      <trkpt lat="48.16031" lon="-3.30542">
        <ele>249</ele>
        <time>2024-11-20T14:36:41Z</time>
      </trkpt>
      <trkpt lat="48.16029" lon="-3.30542">
        <ele>249</ele>
        <time>2024-11-20T14:36:42Z</time>
      </trkpt>
      <trkpt lat="48.16028" lon="-3.30542">
        <ele>249</ele>
        <time>2024-11-20T14:36:43Z</time>
      </trkpt>
      <trkpt lat="48.16027" lon="-3.30542">
        <ele>249</ele>
        <time>2024-11-20T14:36:44Z</time>
      </trkpt>
      <trkpt lat="48.16025" lon="-3.30542">
        <ele>249</ele>
        <time>2024-11-20T14:36:45Z</time>
      </trkpt>
      <trkpt lat="48.16024" lon="-3.30542">
        <ele>249.1</ele>
        <time>2024-11-20T14:36:46Z</time>
      </trkpt>
      <trkpt lat="48.16023" lon="-3.30541">
        <ele>249.1</ele>
        <time>2024-11-20T14:36:47Z</time>
      </trkpt>
      <trkpt lat="48.16022" lon="-3.30541">
        <ele>249.1</ele>
        <time>2024-11-20T14:36:48Z</time>
      </trkpt>
      <trkpt lat="48.1602" lon="-3.30541">
        <ele>249.1</ele>
        <time>2024-11-20T14:36:49Z</time>
      </trkpt>
      <trkpt lat="48.16019" lon="-3.30541">
        <ele>249.2</ele>
        <time>2024-11-20T14:36:50Z</time>
      </trkpt>
      <trkpt lat="48.16018" lon="-3.30541">
        <ele>249.2</ele>
        <time>2024-11-20T14:36:51Z</time>
      </trkpt>
      <trkpt lat="48.16017" lon="-3.30541">
        <ele>249.2</ele>
        <time>2024-11-20T14:36:52Z</time>
      </trkpt>
      <trkpt lat="48.16016" lon="-3.30541">
        <ele>249.2</ele>
        <time>2024-11-20T14:36:53Z</time>
      </trkpt>
      <trkpt lat="48.16015" lon="-3.30541">
        <ele>249.2</ele>
        <time>2024-11-20T14:36:54Z</time>
      </trkpt>
      <trkpt lat="48.16013" lon="-3.30541">
        <ele>249.3</ele>
        <time>2024-11-20T14:36:55Z</time>
      </trkpt>
      <trkpt lat="48.16012" lon="-3.30541">
        <ele>249.3</ele>
        <time>2024-11-20T14:36:56Z</time>
      </trkpt>
      <trkpt lat="48.16011" lon="-3.30542">
        <ele>249.3</ele>
        <time>2024-11-20T14:36:57Z</time>
      </trkpt>
      <trkpt lat="48.1601" lon="-3.30542">
        <ele>249.3</ele>
        <time>2024-11-20T14:36:58Z</time>
      </trkpt>
      <trkpt lat="48.16009" lon="-3.30542">
        <ele>249.3</ele>
        <time>2024-11-20T14:36:59Z</time>
      </trkpt>
      <trkpt lat="48.16008" lon="-3.30542">
        <ele>249.4</ele>
        <time>2024-11-20T14:37:00Z</time>
      </trkpt>
      <trkpt lat="48.16007" lon="-3.30542">
        <ele>249.4</ele>
        <time>2024-11-20T14:37:01Z</time>
      </trkpt>
      <trkpt lat="48.16005" lon="-3.30542">
        <ele>249.4</ele>
        <time>2024-11-20T14:37:02Z</time>
      </trkpt>
      <trkpt lat="48.16004" lon="-3.30542">
        <ele>249.4</ele>
        <time>2024-11-20T14:37:03Z</time>
      </trkpt>
      <trkpt lat="48.16003" lon="-3.30542">
        <ele>249.5</ele>
        <time>2024-11-20T14:37:04Z</time>
      </trkpt>
      <trkpt lat="48.16001" lon="-3.30542">
        <ele>249.5</ele>
        <time>2024-11-20T14:37:05Z</time>
      </trkpt>
      <trkpt lat="48.16" lon="-3.30542">
        <ele>249.5</ele>
        <time>2024-11-20T14:37:06Z</time>
      </trkpt>
      <trkpt lat="48.15999" lon="-3.30541">
        <ele>249.6</ele>
        <time>2024-11-20T14:37:07Z</time>
      </trkpt>
      <trkpt lat="48.15998" lon="-3.30542">
        <ele>249.7</ele>
        <time>2024-11-20T14:37:08Z</time>
      </trkpt>
      <trkpt lat="48.15997" lon="-3.30542">
        <ele>249.8</ele>
        <time>2024-11-20T14:37:09Z</time>
      </trkpt>
      <trkpt lat="48.15996" lon="-3.30542">
        <ele>249.9</ele>
        <time>2024-11-20T14:37:10Z</time>
      </trkpt>
      <trkpt lat="48.15995" lon="-3.30542">
        <ele>250</ele>
        <time>2024-11-20T14:37:11Z</time>
      </trkpt>
      <trkpt lat="48.15993" lon="-3.30542">
        <ele>250.1</ele>
        <time>2024-11-20T14:37:12Z</time>
      </trkpt>
      <trkpt lat="48.15991" lon="-3.30542">
        <ele>250.3</ele>
        <time>2024-11-20T14:37:14Z</time>
      </trkpt>
      <trkpt lat="48.1599" lon="-3.30542">
        <ele>250.4</ele>
        <time>2024-11-20T14:37:15Z</time>
      </trkpt>
      <trkpt lat="48.15989" lon="-3.30542">
        <ele>250.5</ele>
        <time>2024-11-20T14:37:16Z</time>
      </trkpt>
      <trkpt lat="48.15988" lon="-3.30542">
        <ele>250.6</ele>
        <time>2024-11-20T14:37:17Z</time>
      </trkpt>
      <trkpt lat="48.15987" lon="-3.30543">
        <ele>250.7</ele>
        <time>2024-11-20T14:37:18Z</time>
      </trkpt>
      <trkpt lat="48.15986" lon="-3.30543">
        <ele>250.8</ele>
        <time>2024-11-20T14:37:19Z</time>
      </trkpt>
      <trkpt lat="48.15984" lon="-3.30543">
        <ele>250.9</ele>
        <time>2024-11-20T14:37:20Z</time>
      </trkpt>
      <trkpt lat="48.15983" lon="-3.30544">
        <ele>251</ele>
        <time>2024-11-20T14:37:21Z</time>
      </trkpt>
      <trkpt lat="48.15982" lon="-3.30544">
        <ele>251.1</ele>
        <time>2024-11-20T14:37:22Z</time>
      </trkpt>
      <trkpt lat="48.15981" lon="-3.30544">
        <ele>251.2</ele>
        <time>2024-11-20T14:37:23Z</time>
      </trkpt>
      <trkpt lat="48.15979" lon="-3.30545">
        <ele>251.3</ele>
        <time>2024-11-20T14:37:24Z</time>
      </trkpt>
      <trkpt lat="48.15978" lon="-3.30545">
        <ele>251.4</ele>
        <time>2024-11-20T14:37:25Z</time>
      </trkpt>
      <trkpt lat="48.15977" lon="-3.30545">
        <ele>251.6</ele>
        <time>2024-11-20T14:37:26Z</time>
      </trkpt>
      <trkpt lat="48.15976" lon="-3.30546">
        <ele>251.7</ele>
        <time>2024-11-20T14:37:27Z</time>
      </trkpt>
      <trkpt lat="48.15974" lon="-3.30546">
        <ele>251.8</ele>
        <time>2024-11-20T14:37:28Z</time>
      </trkpt>
      <trkpt lat="48.15973" lon="-3.30547">
        <ele>251.9</ele>
        <time>2024-11-20T14:37:29Z</time>
      </trkpt>
      <trkpt lat="48.15972" lon="-3.30547">
        <ele>252</ele>
        <time>2024-11-20T14:37:30Z</time>
      </trkpt>
      <trkpt lat="48.15971" lon="-3.30547">
        <ele>252.1</ele>
        <time>2024-11-20T14:37:31Z</time>
      </trkpt>
      <trkpt lat="48.1597" lon="-3.30548">
        <ele>252.1</ele>
        <time>2024-11-20T14:37:32Z</time>
      </trkpt>
      <trkpt lat="48.15969" lon="-3.30548">
        <ele>252.2</ele>
        <time>2024-11-20T14:37:33Z</time>
      </trkpt>
      <trkpt lat="48.15968" lon="-3.30548">
        <ele>252.3</ele>
        <time>2024-11-20T14:37:34Z</time>
      </trkpt>
      <trkpt lat="48.15967" lon="-3.30549">
        <ele>252.3</ele>
        <time>2024-11-20T14:37:35Z</time>
      </trkpt>
      <trkpt lat="48.15966" lon="-3.3055">
        <ele>252.4</ele>
        <time>2024-11-20T14:37:36Z</time>
      </trkpt>
      <trkpt lat="48.15965" lon="-3.3055">
        <ele>252.5</ele>
        <time>2024-11-20T14:37:37Z</time>
      </trkpt>
      <trkpt lat="48.15964" lon="-3.30551">
        <ele>252.6</ele>
        <time>2024-11-20T14:37:38Z</time>
      </trkpt>
      <trkpt lat="48.15963" lon="-3.30552">
        <ele>252.6</ele>
        <time>2024-11-20T14:37:39Z</time>
      </trkpt>
      <trkpt lat="48.15962" lon="-3.30552">
        <ele>252.7</ele>
        <time>2024-11-20T14:37:40Z</time>
      </trkpt>
      <trkpt lat="48.15961" lon="-3.30553">
        <ele>252.8</ele>
        <time>2024-11-20T14:37:41Z</time>
      </trkpt>
      <trkpt lat="48.1596" lon="-3.30554">
        <ele>252.8</ele>
        <time>2024-11-20T14:37:42Z</time>
      </trkpt>
      <trkpt lat="48.1596" lon="-3.30555">
        <ele>252.9</ele>
        <time>2024-11-20T14:37:43Z</time>
      </trkpt>
      <trkpt lat="48.15959" lon="-3.30555">
        <ele>252.9</ele>
        <time>2024-11-20T14:37:44Z</time>
      </trkpt>
      <trkpt lat="48.1596" lon="-3.30556">
        <ele>252.9</ele>
        <time>2024-11-20T14:37:45Z</time>
      </trkpt>
      <trkpt lat="48.15959" lon="-3.30556">
        <ele>252.9</ele>
        <time>2024-11-20T14:37:46Z</time>
      </trkpt>
      <trkpt lat="48.15959" lon="-3.30556">
        <ele>252.9</ele>
        <time>2024-11-20T14:37:47Z</time>
      </trkpt>
      <trkpt lat="48.15959" lon="-3.30557">
        <ele>252.9</ele>
        <time>2024-11-20T14:37:48Z</time>
      </trkpt>
      <trkpt lat="48.15959" lon="-3.30557">
        <ele>252.9</ele>
        <time>2024-11-20T14:37:49Z</time>
      </trkpt>
      <trkpt lat="48.15959" lon="-3.30557">
        <ele>252.9</ele>
        <time>2024-11-20T14:37:50Z</time>
      </trkpt>
      <trkpt lat="48.15959" lon="-3.30557">
        <ele>252.9</ele>
        <time>2024-11-20T14:37:51Z</time>
      </trkpt>
      <trkpt lat="48.1596" lon="-3.30557">
        <ele>252.8</ele>
        <time>2024-11-20T14:37:52Z</time>
      </trkpt>
      <trkpt lat="48.1596" lon="-3.30558">
        <ele>252.8</ele>
        <time>2024-11-20T14:37:53Z</time>
      </trkpt>
      <trkpt lat="48.1596" lon="-3.30558">
        <ele>252.8</ele>
        <time>2024-11-20T14:37:54Z</time>
      </trkpt>
      <trkpt lat="48.1596" lon="-3.30558">
        <ele>252.8</ele>
        <time>2024-11-20T14:37:55Z</time>
      </trkpt>
      <trkpt lat="48.1596" lon="-3.30558">
        <ele>252.8</ele>
        <time>2024-11-20T14:37:56Z</time>
      </trkpt>
      <trkpt lat="48.1596" lon="-3.30558">
        <ele>252.8</ele>
        <time>2024-11-20T14:37:57Z</time>
      </trkpt>
      <trkpt lat="48.1596" lon="-3.30558">
        <ele>252.8</ele>
        <time>2024-11-20T14:37:58Z</time>
      </trkpt>
      <trkpt lat="48.15959" lon="-3.30558">
        <ele>252.8</ele>
        <time>2024-11-20T14:37:59Z</time>
      </trkpt>
      <trkpt lat="48.1596" lon="-3.30559">
        <ele>252.8</ele>
        <time>2024-11-20T14:38:00Z</time>
      </trkpt>
      <trkpt lat="48.1596" lon="-3.30559">
        <ele>252.8</ele>
        <time>2024-11-20T14:38:01Z</time>
      </trkpt>
      <trkpt lat="48.1596" lon="-3.30559">
        <ele>252.7</ele>
        <time>2024-11-20T14:38:02Z</time>
      </trkpt>
      <trkpt lat="48.15961" lon="-3.3056">
        <ele>252.7</ele>
        <time>2024-11-20T14:38:03Z</time>
      </trkpt>
      <trkpt lat="48.15961" lon="-3.3056">
        <ele>252.6</ele>
        <time>2024-11-20T14:38:04Z</time>
      </trkpt>
      <trkpt lat="48.15962" lon="-3.30561">
        <ele>252.5</ele>
        <time>2024-11-20T14:38:05Z</time>
      </trkpt>
      <trkpt lat="48.15962" lon="-3.30562">
        <ele>252.5</ele>
        <time>2024-11-20T14:38:06Z</time>
      </trkpt>
      <trkpt lat="48.15963" lon="-3.30563">
        <ele>252.3</ele>
        <time>2024-11-20T14:38:07Z</time>
      </trkpt>
      <trkpt lat="48.15963" lon="-3.30564">
        <ele>252.2</ele>
        <time>2024-11-20T14:38:08Z</time>
      </trkpt>
      <trkpt lat="48.15964" lon="-3.30565">
        <ele>252.1</ele>
        <time>2024-11-20T14:38:09Z</time>
      </trkpt>
      <trkpt lat="48.15964" lon="-3.30567">
        <ele>252</ele>
        <time>2024-11-20T14:38:10Z</time>
      </trkpt>
      <trkpt lat="48.15964" lon="-3.30568">
        <ele>251.9</ele>
        <time>2024-11-20T14:38:11Z</time>
      </trkpt>
      <trkpt lat="48.15965" lon="-3.3057">
        <ele>251.8</ele>
        <time>2024-11-20T14:38:12Z</time>
      </trkpt>
      <trkpt lat="48.15965" lon="-3.30572">
        <ele>251.7</ele>
        <time>2024-11-20T14:38:13Z</time>
      </trkpt>
      <trkpt lat="48.15965" lon="-3.30574">
        <ele>251.6</ele>
        <time>2024-11-20T14:38:14Z</time>
      </trkpt>
      <trkpt lat="48.15965" lon="-3.30576">
        <ele>251.5</ele>
        <time>2024-11-20T14:38:15Z</time>
      </trkpt>
      <trkpt lat="48.15965" lon="-3.30577">
        <ele>251.3</ele>
        <time>2024-11-20T14:38:16Z</time>
      </trkpt>
      <trkpt lat="48.15966" lon="-3.30579">
        <ele>251.2</ele>
        <time>2024-11-20T14:38:17Z</time>
      </trkpt>
      <trkpt lat="48.15966" lon="-3.3058">
        <ele>251.1</ele>
        <time>2024-11-20T14:38:18Z</time>
      </trkpt>
      <trkpt lat="48.15967" lon="-3.3058">
        <ele>251</ele>
        <time>2024-11-20T14:38:19Z</time>
      </trkpt>
      <trkpt lat="48.15967" lon="-3.30582">
        <ele>250.8</ele>
        <time>2024-11-20T14:38:20Z</time>
      </trkpt>
      <trkpt lat="48.15968" lon="-3.30583">
        <ele>250.7</ele>
        <time>2024-11-20T14:38:21Z</time>
      </trkpt>
      <trkpt lat="48.15968" lon="-3.30584">
        <ele>250.6</ele>
        <time>2024-11-20T14:38:22Z</time>
      </trkpt>
      <trkpt lat="48.15968" lon="-3.30585">
        <ele>250.5</ele>
        <time>2024-11-20T14:38:23Z</time>
      </trkpt>
      <trkpt lat="48.15969" lon="-3.30586">
        <ele>250.4</ele>
        <time>2024-11-20T14:38:24Z</time>
      </trkpt>
      <trkpt lat="48.15969" lon="-3.30587">
        <ele>250.4</ele>
        <time>2024-11-20T14:38:25Z</time>
      </trkpt>
      <trkpt lat="48.15969" lon="-3.30587">
        <ele>250.3</ele>
        <time>2024-11-20T14:38:26Z</time>
      </trkpt>
      <trkpt lat="48.1597" lon="-3.30589">
        <ele>250.2</ele>
        <time>2024-11-20T14:38:27Z</time>
      </trkpt>
      <trkpt lat="48.1597" lon="-3.3059">
        <ele>250.2</ele>
        <time>2024-11-20T14:38:28Z</time>
      </trkpt>
      <trkpt lat="48.15969" lon="-3.30593">
        <ele>250.1</ele>
        <time>2024-11-20T14:38:29Z</time>
      </trkpt>
      <trkpt lat="48.15969" lon="-3.30595">
        <ele>250</ele>
        <time>2024-11-20T14:38:30Z</time>
      </trkpt>
      <trkpt lat="48.15969" lon="-3.30596">
        <ele>250</ele>
        <time>2024-11-20T14:38:31Z</time>
      </trkpt>
      <trkpt lat="48.15969" lon="-3.30597">
        <ele>250</ele>
        <time>2024-11-20T14:38:32Z</time>
      </trkpt>
      <trkpt lat="48.15969" lon="-3.30599">
        <ele>250</ele>
        <time>2024-11-20T14:38:33Z</time>
      </trkpt>
      <trkpt lat="48.15969" lon="-3.306">
        <ele>249.9</ele>
        <time>2024-11-20T14:38:34Z</time>
      </trkpt>
      <trkpt lat="48.15969" lon="-3.30602">
        <ele>249.8</ele>
        <time>2024-11-20T14:38:35Z</time>
      </trkpt>
      <trkpt lat="48.1597" lon="-3.30604">
        <ele>249.7</ele>
        <time>2024-11-20T14:38:36Z</time>
      </trkpt>
      <trkpt lat="48.1597" lon="-3.30605">
        <ele>249.6</ele>
        <time>2024-11-20T14:38:37Z</time>
      </trkpt>
      <trkpt lat="48.15971" lon="-3.30606">
        <ele>249.4</ele>
        <time>2024-11-20T14:38:38Z</time>
      </trkpt>
      <trkpt lat="48.15971" lon="-3.30607">
        <ele>249.4</ele>
        <time>2024-11-20T14:38:39Z</time>
      </trkpt>
      <trkpt lat="48.15972" lon="-3.30608">
        <ele>249.3</ele>
        <time>2024-11-20T14:38:40Z</time>
      </trkpt>
      <trkpt lat="48.15972" lon="-3.30608">
        <ele>249.1</ele>
        <time>2024-11-20T14:38:41Z</time>
      </trkpt>
      <trkpt lat="48.15973" lon="-3.30609">
        <ele>249</ele>
        <time>2024-11-20T14:38:42Z</time>
      </trkpt>
      <trkpt lat="48.15974" lon="-3.3061">
        <ele>248.8</ele>
        <time>2024-11-20T14:38:43Z</time>
      </trkpt>
      <trkpt lat="48.15975" lon="-3.30611">
        <ele>248.7</ele>
        <time>2024-11-20T14:38:44Z</time>
      </trkpt>
      <trkpt lat="48.15975" lon="-3.30613">
        <ele>248.4</ele>
        <time>2024-11-20T14:38:45Z</time>
      </trkpt>
      <trkpt lat="48.15976" lon="-3.30615">
        <ele>248.2</ele>
        <time>2024-11-20T14:38:46Z</time>
      </trkpt>
      <trkpt lat="48.15976" lon="-3.30617">
        <ele>248.1</ele>
        <time>2024-11-20T14:38:47Z</time>
      </trkpt>
      <trkpt lat="48.15976" lon="-3.30618">
        <ele>247.9</ele>
        <time>2024-11-20T14:38:48Z</time>
      </trkpt>
      <trkpt lat="48.15977" lon="-3.3062">
        <ele>247.7</ele>
        <time>2024-11-20T14:38:49Z</time>
      </trkpt>
      <trkpt lat="48.15978" lon="-3.30622">
        <ele>247.5</ele>
        <time>2024-11-20T14:38:50Z</time>
      </trkpt>
      <trkpt lat="48.15978" lon="-3.30623">
        <ele>247.3</ele>
        <time>2024-11-20T14:38:51Z</time>
      </trkpt>
      <trkpt lat="48.1598" lon="-3.30624">
        <ele>247.1</ele>
        <time>2024-11-20T14:38:52Z</time>
      </trkpt>
      <trkpt lat="48.1598" lon="-3.30624">
        <ele>246.9</ele>
        <time>2024-11-20T14:38:53Z</time>
      </trkpt>
      <trkpt lat="48.15981" lon="-3.30625">
        <ele>246.7</ele>
        <time>2024-11-20T14:38:54Z</time>
      </trkpt>
      <trkpt lat="48.15982" lon="-3.30627">
        <ele>246.5</ele>
        <time>2024-11-20T14:38:55Z</time>
      </trkpt>
      <trkpt lat="48.15983" lon="-3.30628">
        <ele>246.2</ele>
        <time>2024-11-20T14:38:56Z</time>
      </trkpt>
      <trkpt lat="48.15984" lon="-3.30629">
        <ele>246</ele>
        <time>2024-11-20T14:38:57Z</time>
      </trkpt>
      <trkpt lat="48.15985" lon="-3.30631">
        <ele>245.8</ele>
        <time>2024-11-20T14:38:58Z</time>
      </trkpt>
      <trkpt lat="48.15985" lon="-3.30632">
        <ele>245.6</ele>
        <time>2024-11-20T14:38:59Z</time>
      </trkpt>
      <trkpt lat="48.15986" lon="-3.30633">
        <ele>245.5</ele>
        <time>2024-11-20T14:39:00Z</time>
      </trkpt>
      <trkpt lat="48.15986" lon="-3.30635">
        <ele>245.3</ele>
        <time>2024-11-20T14:39:01Z</time>
      </trkpt>
      <trkpt lat="48.15986" lon="-3.30637">
        <ele>245.2</ele>
        <time>2024-11-20T14:39:02Z</time>
      </trkpt>
      <trkpt lat="48.15987" lon="-3.30639">
        <ele>245</ele>
        <time>2024-11-20T14:39:03Z</time>
      </trkpt>
      <trkpt lat="48.15987" lon="-3.3064">
        <ele>244.8</ele>
        <time>2024-11-20T14:39:04Z</time>
      </trkpt>
      <trkpt lat="48.15988" lon="-3.30642">
        <ele>244.6</ele>
        <time>2024-11-20T14:39:05Z</time>
      </trkpt>
      <trkpt lat="48.15988" lon="-3.30644">
        <ele>244.4</ele>
        <time>2024-11-20T14:39:06Z</time>
      </trkpt>
      <trkpt lat="48.15988" lon="-3.30646">
        <ele>244.2</ele>
        <time>2024-11-20T14:39:07Z</time>
      </trkpt>
      <trkpt lat="48.15989" lon="-3.30648">
        <ele>244</ele>
        <time>2024-11-20T14:39:08Z</time>
      </trkpt>
      <trkpt lat="48.15989" lon="-3.30649">
        <ele>243.9</ele>
        <time>2024-11-20T14:39:09Z</time>
      </trkpt>
      <trkpt lat="48.1599" lon="-3.3065">
        <ele>243.7</ele>
        <time>2024-11-20T14:39:10Z</time>
      </trkpt>
      <trkpt lat="48.1599" lon="-3.30652">
        <ele>243.5</ele>
        <time>2024-11-20T14:39:11Z</time>
      </trkpt>
      <trkpt lat="48.15991" lon="-3.30653">
        <ele>243.3</ele>
        <time>2024-11-20T14:39:12Z</time>
      </trkpt>
      <trkpt lat="48.15991" lon="-3.30655">
        <ele>243.1</ele>
        <time>2024-11-20T14:39:13Z</time>
      </trkpt>
      <trkpt lat="48.15991" lon="-3.30657">
        <ele>243</ele>
        <time>2024-11-20T14:39:14Z</time>
      </trkpt>
      <trkpt lat="48.15992" lon="-3.30658">
        <ele>242.8</ele>
        <time>2024-11-20T14:39:15Z</time>
      </trkpt>
      <trkpt lat="48.15993" lon="-3.3066">
        <ele>242.5</ele>
        <time>2024-11-20T14:39:16Z</time>
      </trkpt>
      <trkpt lat="48.15994" lon="-3.30662">
        <ele>242.3</ele>
        <time>2024-11-20T14:39:17Z</time>
      </trkpt>
      <trkpt lat="48.15995" lon="-3.30663">
        <ele>242</ele>
        <time>2024-11-20T14:39:18Z</time>
      </trkpt>
      <trkpt lat="48.15995" lon="-3.30665">
        <ele>241.9</ele>
        <time>2024-11-20T14:39:19Z</time>
      </trkpt>
      <trkpt lat="48.15995" lon="-3.30667">
        <ele>241.6</ele>
        <time>2024-11-20T14:39:20Z</time>
      </trkpt>
      <trkpt lat="48.15996" lon="-3.30669">
        <ele>241.3</ele>
        <time>2024-11-20T14:39:21Z</time>
      </trkpt>
      <trkpt lat="48.15996" lon="-3.30671">
        <ele>240.9</ele>
        <time>2024-11-20T14:39:22Z</time>
      </trkpt>
      <trkpt lat="48.15997" lon="-3.30674">
        <ele>240.5</ele>
        <time>2024-11-20T14:39:23Z</time>
      </trkpt>
      <trkpt lat="48.15997" lon="-3.30676">
        <ele>240.1</ele>
        <time>2024-11-20T14:39:24Z</time>
      </trkpt>
      <trkpt lat="48.15997" lon="-3.30678">
        <ele>239.8</ele>
        <time>2024-11-20T14:39:25Z</time>
      </trkpt>
      <trkpt lat="48.15998" lon="-3.30681">
        <ele>239.2</ele>
        <time>2024-11-20T14:39:26Z</time>
      </trkpt>
      <trkpt lat="48.15999" lon="-3.30684">
        <ele>238.7</ele>
        <time>2024-11-20T14:39:27Z</time>
      </trkpt>
      <trkpt lat="48.15999" lon="-3.30687">
        <ele>238.2</ele>
        <time>2024-11-20T14:39:28Z</time>
      </trkpt>
      <trkpt lat="48.16" lon="-3.30688">
        <ele>237.9</ele>
        <time>2024-11-20T14:39:29Z</time>
      </trkpt>
      <trkpt lat="48.16001" lon="-3.30689">
        <ele>237.8</ele>
        <time>2024-11-20T14:39:30Z</time>
      </trkpt>
      <trkpt lat="48.16001" lon="-3.30689">
        <ele>237.6</ele>
        <time>2024-11-20T14:39:31Z</time>
      </trkpt>
      <trkpt lat="48.16002" lon="-3.3069">
        <ele>237.4</ele>
        <time>2024-11-20T14:39:32Z</time>
      </trkpt>
      <trkpt lat="48.16002" lon="-3.30691">
        <ele>237.3</ele>
        <time>2024-11-20T14:39:33Z</time>
      </trkpt>
      <trkpt lat="48.16003" lon="-3.30691">
        <ele>237.2</ele>
        <time>2024-11-20T14:39:34Z</time>
      </trkpt>
      <trkpt lat="48.16003" lon="-3.30692">
        <ele>237</ele>
        <time>2024-11-20T14:39:35Z</time>
      </trkpt>
      <trkpt lat="48.16004" lon="-3.30693">
        <ele>236.8</ele>
        <time>2024-11-20T14:39:36Z</time>
      </trkpt>
      <trkpt lat="48.16005" lon="-3.30694">
        <ele>236.6</ele>
        <time>2024-11-20T14:39:37Z</time>
      </trkpt>
      <trkpt lat="48.16005" lon="-3.30695">
        <ele>236.3</ele>
        <time>2024-11-20T14:39:38Z</time>
      </trkpt>
      <trkpt lat="48.16006" lon="-3.30696">
        <ele>236</ele>
        <time>2024-11-20T14:39:39Z</time>
      </trkpt>
      <trkpt lat="48.16006" lon="-3.30698">
        <ele>235.7</ele>
        <time>2024-11-20T14:39:40Z</time>
      </trkpt>
      <trkpt lat="48.16006" lon="-3.307">
        <ele>235.2</ele>
        <time>2024-11-20T14:39:41Z</time>
      </trkpt>
      <trkpt lat="48.16007" lon="-3.30701">
        <ele>234.8</ele>
        <time>2024-11-20T14:39:42Z</time>
      </trkpt>
      <trkpt lat="48.16007" lon="-3.30703">
        <ele>234.5</ele>
        <time>2024-11-20T14:39:43Z</time>
      </trkpt>
      <trkpt lat="48.16007" lon="-3.30704">
        <ele>234.3</ele>
        <time>2024-11-20T14:39:44Z</time>
      </trkpt>
      <trkpt lat="48.16007" lon="-3.30706">
        <ele>233.9</ele>
        <time>2024-11-20T14:39:45Z</time>
      </trkpt>
      <trkpt lat="48.16007" lon="-3.30707">
        <ele>233.6</ele>
        <time>2024-11-20T14:39:46Z</time>
      </trkpt>
      <trkpt lat="48.16007" lon="-3.30709">
        <ele>233.2</ele>
        <time>2024-11-20T14:39:47Z</time>
      </trkpt>
      <trkpt lat="48.16007" lon="-3.30711">
        <ele>232.8</ele>
        <time>2024-11-20T14:39:48Z</time>
      </trkpt>
      <trkpt lat="48.16007" lon="-3.30713">
        <ele>232.4</ele>
        <time>2024-11-20T14:39:49Z</time>
      </trkpt>
      <trkpt lat="48.16007" lon="-3.30716">
        <ele>231.8</ele>
        <time>2024-11-20T14:39:50Z</time>
      </trkpt>
      <trkpt lat="48.16007" lon="-3.30718">
        <ele>231.4</ele>
        <time>2024-11-20T14:39:51Z</time>
      </trkpt>
      <trkpt lat="48.16008" lon="-3.3072">
        <ele>231</ele>
        <time>2024-11-20T14:39:52Z</time>
      </trkpt>
      <trkpt lat="48.16009" lon="-3.30721">
        <ele>230.6</ele>
        <time>2024-11-20T14:39:53Z</time>
      </trkpt>
      <trkpt lat="48.16009" lon="-3.30723">
        <ele>230.3</ele>
        <time>2024-11-20T14:39:54Z</time>
      </trkpt>
      <trkpt lat="48.1601" lon="-3.30724">
        <ele>230.2</ele>
        <time>2024-11-20T14:39:55Z</time>
      </trkpt>
      <trkpt lat="48.1601" lon="-3.30725">
        <ele>230.1</ele>
        <time>2024-11-20T14:39:56Z</time>
      </trkpt>
      <trkpt lat="48.16012" lon="-3.30727">
        <ele>229.9</ele>
        <time>2024-11-20T14:39:57Z</time>
      </trkpt>
      <trkpt lat="48.16013" lon="-3.30729">
        <ele>229.7</ele>
        <time>2024-11-20T14:39:58Z</time>
      </trkpt>
      <trkpt lat="48.16013" lon="-3.30731">
        <ele>229.6</ele>
        <time>2024-11-20T14:39:59Z</time>
      </trkpt>
      <trkpt lat="48.16014" lon="-3.30733">
        <ele>229.4</ele>
        <time>2024-11-20T14:40:00Z</time>
      </trkpt>
      <trkpt lat="48.16014" lon="-3.30734">
        <ele>229.3</ele>
        <time>2024-11-20T14:40:01Z</time>
      </trkpt>
      <trkpt lat="48.16015" lon="-3.30736">
        <ele>229.2</ele>
        <time>2024-11-20T14:40:02Z</time>
      </trkpt>
      <trkpt lat="48.16015" lon="-3.30738">
        <ele>229.1</ele>
        <time>2024-11-20T14:40:03Z</time>
      </trkpt>
      <trkpt lat="48.16016" lon="-3.3074">
        <ele>228.9</ele>
        <time>2024-11-20T14:40:04Z</time>
      </trkpt>
      <trkpt lat="48.16017" lon="-3.30742">
        <ele>228.7</ele>
        <time>2024-11-20T14:40:05Z</time>
      </trkpt>
      <trkpt lat="48.16018" lon="-3.30744">
        <ele>228.5</ele>
        <time>2024-11-20T14:40:06Z</time>
      </trkpt>
      <trkpt lat="48.16019" lon="-3.30745">
        <ele>228.3</ele>
        <time>2024-11-20T14:40:07Z</time>
      </trkpt>
      <trkpt lat="48.16019" lon="-3.30746">
        <ele>228.2</ele>
        <time>2024-11-20T14:40:08Z</time>
      </trkpt>
      <trkpt lat="48.1602" lon="-3.30747">
        <ele>228</ele>
        <time>2024-11-20T14:40:09Z</time>
      </trkpt>
      <trkpt lat="48.16021" lon="-3.30748">
        <ele>227.9</ele>
        <time>2024-11-20T14:40:10Z</time>
      </trkpt>
      <trkpt lat="48.16022" lon="-3.30749">
        <ele>227.8</ele>
        <time>2024-11-20T14:40:11Z</time>
      </trkpt>
      <trkpt lat="48.16022" lon="-3.3075">
        <ele>227.6</ele>
        <time>2024-11-20T14:40:12Z</time>
      </trkpt>
      <trkpt lat="48.16023" lon="-3.30751">
        <ele>227.5</ele>
        <time>2024-11-20T14:40:13Z</time>
      </trkpt>
      <trkpt lat="48.16024" lon="-3.30752">
        <ele>227.4</ele>
        <time>2024-11-20T14:40:14Z</time>
      </trkpt>
      <trkpt lat="48.16025" lon="-3.30753">
        <ele>227.3</ele>
        <time>2024-11-20T14:40:15Z</time>
      </trkpt>
      <trkpt lat="48.16026" lon="-3.30754">
        <ele>227.2</ele>
        <time>2024-11-20T14:40:16Z</time>
      </trkpt>
      <trkpt lat="48.16026" lon="-3.30755">
        <ele>227.2</ele>
        <time>2024-11-20T14:40:17Z</time>
      </trkpt>
      <trkpt lat="48.16027" lon="-3.30756">
        <ele>227.1</ele>
        <time>2024-11-20T14:40:18Z</time>
      </trkpt>
      <trkpt lat="48.16028" lon="-3.30756">
        <ele>227</ele>
        <time>2024-11-20T14:40:19Z</time>
      </trkpt>
      <trkpt lat="48.16029" lon="-3.30757">
        <ele>227</ele>
        <time>2024-11-20T14:40:20Z</time>
      </trkpt>
      <trkpt lat="48.1603" lon="-3.30758">
        <ele>227</ele>
        <time>2024-11-20T14:40:21Z</time>
      </trkpt>
      <trkpt lat="48.16031" lon="-3.30758">
        <ele>227</ele>
        <time>2024-11-20T14:40:22Z</time>
      </trkpt>
      <trkpt lat="48.16032" lon="-3.30758">
        <ele>226.9</ele>
        <time>2024-11-20T14:40:23Z</time>
      </trkpt>
      <trkpt lat="48.16033" lon="-3.30758">
        <ele>226.9</ele>
        <time>2024-11-20T14:40:24Z</time>
      </trkpt>
      <trkpt lat="48.16033" lon="-3.30758">
        <ele>226.9</ele>
        <time>2024-11-20T14:40:25Z</time>
      </trkpt>
      <trkpt lat="48.16035" lon="-3.30758">
        <ele>226.9</ele>
        <time>2024-11-20T14:40:26Z</time>
      </trkpt>
      <trkpt lat="48.16036" lon="-3.30759">
        <ele>226.9</ele>
        <time>2024-11-20T14:40:27Z</time>
      </trkpt>
      <trkpt lat="48.16037" lon="-3.30759">
        <ele>226.9</ele>
        <time>2024-11-20T14:40:28Z</time>
      </trkpt>
      <trkpt lat="48.16037" lon="-3.30759">
        <ele>226.9</ele>
        <time>2024-11-20T14:40:29Z</time>
      </trkpt>
      <trkpt lat="48.16038" lon="-3.30758">
        <ele>226.9</ele>
        <time>2024-11-20T14:40:30Z</time>
      </trkpt>
      <trkpt lat="48.16039" lon="-3.30758">
        <ele>226.8</ele>
        <time>2024-11-20T14:40:31Z</time>
      </trkpt>
      <trkpt lat="48.1604" lon="-3.30758">
        <ele>226.8</ele>
        <time>2024-11-20T14:40:32Z</time>
      </trkpt>
      <trkpt lat="48.16041" lon="-3.30758">
        <ele>226.8</ele>
        <time>2024-11-20T14:40:33Z</time>
      </trkpt>
      <trkpt lat="48.16042" lon="-3.30757">
        <ele>226.8</ele>
        <time>2024-11-20T14:40:34Z</time>
      </trkpt>
      <trkpt lat="48.16043" lon="-3.30757">
        <ele>226.7</ele>
        <time>2024-11-20T14:40:35Z</time>
      </trkpt>
      <trkpt lat="48.16045" lon="-3.30757">
        <ele>226.7</ele>
        <time>2024-11-20T14:40:36Z</time>
      </trkpt>
      <trkpt lat="48.16046" lon="-3.30757">
        <ele>226.7</ele>
        <time>2024-11-20T14:40:37Z</time>
      </trkpt>
      <trkpt lat="48.16047" lon="-3.30757">
        <ele>226.7</ele>
        <time>2024-11-20T14:40:38Z</time>
      </trkpt>
      <trkpt lat="48.16048" lon="-3.30757">
        <ele>226.6</ele>
        <time>2024-11-20T14:40:39Z</time>
      </trkpt>
      <trkpt lat="48.16049" lon="-3.30756">
        <ele>226.6</ele>
        <time>2024-11-20T14:40:40Z</time>
      </trkpt>
      <trkpt lat="48.1605" lon="-3.30756">
        <ele>226.6</ele>
        <time>2024-11-20T14:40:41Z</time>
      </trkpt>
      <trkpt lat="48.16051" lon="-3.30756">
        <ele>226.5</ele>
        <time>2024-11-20T14:40:42Z</time>
      </trkpt>
      <trkpt lat="48.16051" lon="-3.30756">
        <ele>226.5</ele>
        <time>2024-11-20T14:40:43Z</time>
      </trkpt>
      <trkpt lat="48.16052" lon="-3.30754">
        <ele>226.4</ele>
        <time>2024-11-20T14:40:44Z</time>
      </trkpt>
      <trkpt lat="48.16053" lon="-3.30754">
        <ele>226.3</ele>
        <time>2024-11-20T14:40:45Z</time>
      </trkpt>
      <trkpt lat="48.16054" lon="-3.30753">
        <ele>226.3</ele>
        <time>2024-11-20T14:40:46Z</time>
      </trkpt>
      <trkpt lat="48.16055" lon="-3.30753">
        <ele>226.2</ele>
        <time>2024-11-20T14:40:47Z</time>
      </trkpt>
      <trkpt lat="48.16056" lon="-3.30753">
        <ele>226.2</ele>
        <time>2024-11-20T14:40:48Z</time>
      </trkpt>
      <trkpt lat="48.16057" lon="-3.30752">
        <ele>226.1</ele>
        <time>2024-11-20T14:40:49Z</time>
      </trkpt>
      <trkpt lat="48.16059" lon="-3.30751">
        <ele>226.1</ele>
        <time>2024-11-20T14:40:50Z</time>
      </trkpt>
      <trkpt lat="48.1606" lon="-3.3075">
        <ele>226</ele>
        <time>2024-11-20T14:40:51Z</time>
      </trkpt>
      <trkpt lat="48.16061" lon="-3.30748">
        <ele>226</ele>
        <time>2024-11-20T14:40:52Z</time>
      </trkpt>
      <trkpt lat="48.16062" lon="-3.30747">
        <ele>226.1</ele>
        <time>2024-11-20T14:40:53Z</time>
      </trkpt>
      <trkpt lat="48.16063" lon="-3.30746">
        <ele>226.1</ele>
        <time>2024-11-20T14:40:54Z</time>
      </trkpt>
      <trkpt lat="48.16064" lon="-3.30744">
        <ele>226.1</ele>
        <time>2024-11-20T14:40:55Z</time>
      </trkpt>
      <trkpt lat="48.16064" lon="-3.30743">
        <ele>226.2</ele>
        <time>2024-11-20T14:40:56Z</time>
      </trkpt>
      <trkpt lat="48.16065" lon="-3.30742">
        <ele>226.2</ele>
        <time>2024-11-20T14:40:57Z</time>
      </trkpt>
      <trkpt lat="48.16066" lon="-3.30742">
        <ele>226.2</ele>
        <time>2024-11-20T14:40:58Z</time>
      </trkpt>
      <trkpt lat="48.16067" lon="-3.30742">
        <ele>226.2</ele>
        <time>2024-11-20T14:40:59Z</time>
      </trkpt>
      <trkpt lat="48.16068" lon="-3.30742">
        <ele>226.2</ele>
        <time>2024-11-20T14:41:00Z</time>
      </trkpt>
      <trkpt lat="48.1607" lon="-3.30743">
        <ele>226.1</ele>
        <time>2024-11-20T14:41:01Z</time>
      </trkpt>
      <trkpt lat="48.16071" lon="-3.30743">
        <ele>226.1</ele>
        <time>2024-11-20T14:41:02Z</time>
      </trkpt>
      <trkpt lat="48.16071" lon="-3.30744">
        <ele>226.1</ele>
        <time>2024-11-20T14:41:03Z</time>
      </trkpt>
      <trkpt lat="48.16072" lon="-3.30744">
        <ele>226.1</ele>
        <time>2024-11-20T14:41:04Z</time>
      </trkpt>
      <trkpt lat="48.16072" lon="-3.30744">
        <ele>226.1</ele>
        <time>2024-11-20T14:41:05Z</time>
      </trkpt>
      <trkpt lat="48.16072" lon="-3.30744">
        <ele>226.1</ele>
        <time>2024-11-20T14:41:06Z</time>
      </trkpt>
      <trkpt lat="48.16073" lon="-3.30743">
        <ele>226.1</ele>
        <time>2024-11-20T14:41:07Z</time>
      </trkpt>
      <trkpt lat="48.16074" lon="-3.30743">
        <ele>226.1</ele>
        <time>2024-11-20T14:41:08Z</time>
      </trkpt>
      <trkpt lat="48.16075" lon="-3.30742">
        <ele>226.1</ele>
        <time>2024-11-20T14:41:09Z</time>
      </trkpt>
      <trkpt lat="48.16076" lon="-3.30741">
        <ele>226.1</ele>
        <time>2024-11-20T14:41:10Z</time>
      </trkpt>
      <trkpt lat="48.16078" lon="-3.30741">
        <ele>226.1</ele>
        <time>2024-11-20T14:41:11Z</time>
      </trkpt>
      <trkpt lat="48.16079" lon="-3.3074">
        <ele>226.1</ele>
        <time>2024-11-20T14:41:12Z</time>
      </trkpt>
      <trkpt lat="48.1608" lon="-3.30739">
        <ele>226</ele>
        <time>2024-11-20T14:41:13Z</time>
      </trkpt>
      <trkpt lat="48.16081" lon="-3.30738">
        <ele>226</ele>
        <time>2024-11-20T14:41:14Z</time>
      </trkpt>
      <trkpt lat="48.16082" lon="-3.30737">
        <ele>226</ele>
        <time>2024-11-20T14:41:15Z</time>
      </trkpt>
      <trkpt lat="48.16083" lon="-3.30737">
        <ele>226</ele>
        <time>2024-11-20T14:41:16Z</time>
      </trkpt>
      <trkpt lat="48.16084" lon="-3.30736">
        <ele>226</ele>
        <time>2024-11-20T14:41:17Z</time>
      </trkpt>
      <trkpt lat="48.16085" lon="-3.30735">
        <ele>225.9</ele>
        <time>2024-11-20T14:41:18Z</time>
      </trkpt>
      <trkpt lat="48.16087" lon="-3.30735">
        <ele>225.9</ele>
        <time>2024-11-20T14:41:19Z</time>
      </trkpt>
      <trkpt lat="48.16088" lon="-3.30735">
        <ele>225.8</ele>
        <time>2024-11-20T14:41:20Z</time>
      </trkpt>
      <trkpt lat="48.16089" lon="-3.30735">
        <ele>225.8</ele>
        <time>2024-11-20T14:41:21Z</time>
      </trkpt>
      <trkpt lat="48.16091" lon="-3.30735">
        <ele>225.7</ele>
        <time>2024-11-20T14:41:22Z</time>
      </trkpt>
      <trkpt lat="48.16092" lon="-3.30734">
        <ele>225.7</ele>
        <time>2024-11-20T14:41:23Z</time>
      </trkpt>
      <trkpt lat="48.16093" lon="-3.30734">
        <ele>225.6</ele>
        <time>2024-11-20T14:41:24Z</time>
      </trkpt>
      <trkpt lat="48.16094" lon="-3.30734">
        <ele>225.6</ele>
        <time>2024-11-20T14:41:25Z</time>
      </trkpt>
      <trkpt lat="48.16095" lon="-3.30735">
        <ele>225.5</ele>
        <time>2024-11-20T14:41:26Z</time>
      </trkpt>
      <trkpt lat="48.16097" lon="-3.30735">
        <ele>225.5</ele>
        <time>2024-11-20T14:41:27Z</time>
      </trkpt>
      <trkpt lat="48.16098" lon="-3.30735">
        <ele>225.4</ele>
        <time>2024-11-20T14:41:28Z</time>
      </trkpt>
      <trkpt lat="48.16099" lon="-3.30735">
        <ele>225.4</ele>
        <time>2024-11-20T14:41:29Z</time>
      </trkpt>
      <trkpt lat="48.16101" lon="-3.30735">
        <ele>225.3</ele>
        <time>2024-11-20T14:41:30Z</time>
      </trkpt>
      <trkpt lat="48.16102" lon="-3.30735">
        <ele>225.3</ele>
        <time>2024-11-20T14:41:31Z</time>
      </trkpt>
      <trkpt lat="48.16104" lon="-3.30735">
        <ele>225.2</ele>
        <time>2024-11-20T14:41:32Z</time>
      </trkpt>
      <trkpt lat="48.16105" lon="-3.30736">
        <ele>225.2</ele>
        <time>2024-11-20T14:41:33Z</time>
      </trkpt>
      <trkpt lat="48.16107" lon="-3.30736">
        <ele>225.2</ele>
        <time>2024-11-20T14:41:34Z</time>
      </trkpt>
      <trkpt lat="48.16108" lon="-3.30737">
        <ele>225.1</ele>
        <time>2024-11-20T14:41:35Z</time>
      </trkpt>
      <trkpt lat="48.1611" lon="-3.30737">
        <ele>225.1</ele>
        <time>2024-11-20T14:41:36Z</time>
      </trkpt>
      <trkpt lat="48.16111" lon="-3.30738">
        <ele>225.1</ele>
        <time>2024-11-20T14:41:37Z</time>
      </trkpt>
      <trkpt lat="48.16112" lon="-3.30738">
        <ele>225.1</ele>
        <time>2024-11-20T14:41:38Z</time>
      </trkpt>
      <trkpt lat="48.16113" lon="-3.30739">
        <ele>225.1</ele>
        <time>2024-11-20T14:41:39Z</time>
      </trkpt>
      <trkpt lat="48.16113" lon="-3.3074">
        <ele>225.1</ele>
        <time>2024-11-20T14:41:40Z</time>
      </trkpt>
      <trkpt lat="48.16114" lon="-3.30741">
        <ele>225.1</ele>
        <time>2024-11-20T14:41:41Z</time>
      </trkpt>
      <trkpt lat="48.16116" lon="-3.30742">
        <ele>225</ele>
        <time>2024-11-20T14:41:42Z</time>
      </trkpt>
      <trkpt lat="48.16118" lon="-3.30743">
        <ele>224.9</ele>
        <time>2024-11-20T14:41:43Z</time>
      </trkpt>
      <trkpt lat="48.16119" lon="-3.30743">
        <ele>224.8</ele>
        <time>2024-11-20T14:41:44Z</time>
      </trkpt>
      <trkpt lat="48.16121" lon="-3.30743">
        <ele>224.7</ele>
        <time>2024-11-20T14:41:45Z</time>
      </trkpt>
      <trkpt lat="48.16122" lon="-3.30744">
        <ele>224.6</ele>
        <time>2024-11-20T14:41:46Z</time>
      </trkpt>
      <trkpt lat="48.16123" lon="-3.30746">
        <ele>224.6</ele>
        <time>2024-11-20T14:41:47Z</time>
      </trkpt>
      <trkpt lat="48.16125" lon="-3.30747">
        <ele>224.4</ele>
        <time>2024-11-20T14:41:48Z</time>
      </trkpt>
      <trkpt lat="48.16126" lon="-3.30748">
        <ele>224.3</ele>
        <time>2024-11-20T14:41:49Z</time>
      </trkpt>
      <trkpt lat="48.16128" lon="-3.30749">
        <ele>224.1</ele>
        <time>2024-11-20T14:41:50Z</time>
      </trkpt>
      <trkpt lat="48.1613" lon="-3.3075">
        <ele>224</ele>
        <time>2024-11-20T14:41:51Z</time>
      </trkpt>
      <trkpt lat="48.16131" lon="-3.30751">
        <ele>224</ele>
        <time>2024-11-20T14:41:52Z</time>
      </trkpt>
      <trkpt lat="48.16132" lon="-3.30751">
        <ele>224</ele>
        <time>2024-11-20T14:41:53Z</time>
      </trkpt>
      <trkpt lat="48.16133" lon="-3.30752">
        <ele>223.9</ele>
        <time>2024-11-20T14:41:54Z</time>
      </trkpt>
      <trkpt lat="48.16134" lon="-3.30752">
        <ele>223.9</ele>
        <time>2024-11-20T14:41:55Z</time>
      </trkpt>
      <trkpt lat="48.16135" lon="-3.30752">
        <ele>223.9</ele>
        <time>2024-11-20T14:41:56Z</time>
      </trkpt>
      <trkpt lat="48.16136" lon="-3.30753">
        <ele>224</ele>
        <time>2024-11-20T14:41:57Z</time>
      </trkpt>
      <trkpt lat="48.16138" lon="-3.30754">
        <ele>224</ele>
        <time>2024-11-20T14:41:58Z</time>
      </trkpt>
      <trkpt lat="48.16139" lon="-3.30755">
        <ele>224.1</ele>
        <time>2024-11-20T14:41:59Z</time>
      </trkpt>
      <trkpt lat="48.1614" lon="-3.30756">
        <ele>224.1</ele>
        <time>2024-11-20T14:42:00Z</time>
      </trkpt>
      <trkpt lat="48.16141" lon="-3.30756">
        <ele>224.2</ele>
        <time>2024-11-20T14:42:01Z</time>
      </trkpt>
      <trkpt lat="48.16142" lon="-3.30757">
        <ele>224.3</ele>
        <time>2024-11-20T14:42:02Z</time>
      </trkpt>
      <trkpt lat="48.16143" lon="-3.30757">
        <ele>224.3</ele>
        <time>2024-11-20T14:42:03Z</time>
      </trkpt>
      <trkpt lat="48.16144" lon="-3.30757">
        <ele>224.1</ele>
        <time>2024-11-20T14:42:04Z</time>
      </trkpt>
      <trkpt lat="48.16145" lon="-3.30756">
        <ele>224</ele>
        <time>2024-11-20T14:42:05Z</time>
      </trkpt>
      <trkpt lat="48.16146" lon="-3.30755">
        <ele>223.8</ele>
        <time>2024-11-20T14:42:06Z</time>
      </trkpt>
      <trkpt lat="48.16147" lon="-3.30754">
        <ele>223.5</ele>
        <time>2024-11-20T14:42:07Z</time>
      </trkpt>
      <trkpt lat="48.16148" lon="-3.30753">
        <ele>223.3</ele>
        <time>2024-11-20T14:42:08Z</time>
      </trkpt>
      <trkpt lat="48.16148" lon="-3.30752">
        <ele>223</ele>
        <time>2024-11-20T14:42:09Z</time>
      </trkpt>
      <trkpt lat="48.16149" lon="-3.30751">
        <ele>222.9</ele>
        <time>2024-11-20T14:42:10Z</time>
      </trkpt>
      <trkpt lat="48.1615" lon="-3.30751">
        <ele>222.8</ele>
        <time>2024-11-20T14:42:11Z</time>
      </trkpt>
      <trkpt lat="48.16151" lon="-3.30751">
        <ele>222.8</ele>
        <time>2024-11-20T14:42:12Z</time>
      </trkpt>
      <trkpt lat="48.16152" lon="-3.30751">
        <ele>222.7</ele>
        <time>2024-11-20T14:42:13Z</time>
      </trkpt>
      <trkpt lat="48.16153" lon="-3.30752">
        <ele>222.8</ele>
        <time>2024-11-20T14:42:14Z</time>
      </trkpt>
      <trkpt lat="48.16155" lon="-3.30752">
        <ele>222.8</ele>
        <time>2024-11-20T14:42:15Z</time>
      </trkpt>
      <trkpt lat="48.16156" lon="-3.30752">
        <ele>222.8</ele>
        <time>2024-11-20T14:42:16Z</time>
      </trkpt>
      <trkpt lat="48.16157" lon="-3.30752">
        <ele>222.7</ele>
        <time>2024-11-20T14:42:17Z</time>
      </trkpt>
      <trkpt lat="48.16158" lon="-3.30752">
        <ele>222.7</ele>
        <time>2024-11-20T14:42:18Z</time>
      </trkpt>
      <trkpt lat="48.1616" lon="-3.30752">
        <ele>222.6</ele>
        <time>2024-11-20T14:42:19Z</time>
      </trkpt>
      <trkpt lat="48.16161" lon="-3.30752">
        <ele>222.5</ele>
        <time>2024-11-20T14:42:20Z</time>
      </trkpt>
      <trkpt lat="48.16162" lon="-3.30752">
        <ele>222.5</ele>
        <time>2024-11-20T14:42:21Z</time>
      </trkpt>
      <trkpt lat="48.16164" lon="-3.30753">
        <ele>222.6</ele>
        <time>2024-11-20T14:42:22Z</time>
      </trkpt>
      <trkpt lat="48.16166" lon="-3.30754">
        <ele>222.6</ele>
        <time>2024-11-20T14:42:23Z</time>
      </trkpt>
      <trkpt lat="48.16168" lon="-3.30755">
        <ele>222.7</ele>
        <time>2024-11-20T14:42:24Z</time>
      </trkpt>
      <trkpt lat="48.1617" lon="-3.30756">
        <ele>222.7</ele>
        <time>2024-11-20T14:42:25Z</time>
      </trkpt>
      <trkpt lat="48.16171" lon="-3.30757">
        <ele>222.8</ele>
        <time>2024-11-20T14:42:26Z</time>
      </trkpt>
      <trkpt lat="48.16173" lon="-3.30758">
        <ele>222.8</ele>
        <time>2024-11-20T14:42:27Z</time>
      </trkpt>
      <trkpt lat="48.16174" lon="-3.30759">
        <ele>222.8</ele>
        <time>2024-11-20T14:42:28Z</time>
      </trkpt>
      <trkpt lat="48.16176" lon="-3.3076">
        <ele>222.8</ele>
        <time>2024-11-20T14:42:29Z</time>
      </trkpt>
      <trkpt lat="48.16177" lon="-3.30761">
        <ele>222.8</ele>
        <time>2024-11-20T14:42:30Z</time>
      </trkpt>
      <trkpt lat="48.16179" lon="-3.30761">
        <ele>222.8</ele>
        <time>2024-11-20T14:42:31Z</time>
      </trkpt>
      <trkpt lat="48.1618" lon="-3.30762">
        <ele>222.8</ele>
        <time>2024-11-20T14:42:32Z</time>
      </trkpt>
      <trkpt lat="48.16182" lon="-3.30763">
        <ele>222.8</ele>
        <time>2024-11-20T14:42:33Z</time>
      </trkpt>
      <trkpt lat="48.16183" lon="-3.30763">
        <ele>222.8</ele>
        <time>2024-11-20T14:42:34Z</time>
      </trkpt>
      <trkpt lat="48.16184" lon="-3.30764">
        <ele>222.8</ele>
        <time>2024-11-20T14:42:35Z</time>
      </trkpt>
      <trkpt lat="48.16185" lon="-3.30765">
        <ele>222.8</ele>
        <time>2024-11-20T14:42:36Z</time>
      </trkpt>
      <trkpt lat="48.16185" lon="-3.30765">
        <ele>222.8</ele>
        <time>2024-11-20T14:42:37Z</time>
      </trkpt>
      <trkpt lat="48.16185" lon="-3.30766">
        <ele>222.8</ele>
        <time>2024-11-20T14:42:38Z</time>
      </trkpt>
      <trkpt lat="48.16185" lon="-3.30766">
        <ele>222.9</ele>
        <time>2024-11-20T14:42:39Z</time>
      </trkpt>
      <trkpt lat="48.16186" lon="-3.30766">
        <ele>222.8</ele>
        <time>2024-11-20T14:42:40Z</time>
      </trkpt>
      <trkpt lat="48.16186" lon="-3.30767">
        <ele>222.9</ele>
        <time>2024-11-20T14:42:41Z</time>
      </trkpt>
      <trkpt lat="48.16187" lon="-3.30767">
        <ele>222.8</ele>
        <time>2024-11-20T14:42:42Z</time>
      </trkpt>
      <trkpt lat="48.16188" lon="-3.30767">
        <ele>222.8</ele>
        <time>2024-11-20T14:42:43Z</time>
      </trkpt>
      <trkpt lat="48.16189" lon="-3.30768">
        <ele>222.7</ele>
        <time>2024-11-20T14:42:44Z</time>
      </trkpt>
      <trkpt lat="48.1619" lon="-3.30768">
        <ele>222.7</ele>
        <time>2024-11-20T14:42:45Z</time>
      </trkpt>
      <trkpt lat="48.16191" lon="-3.30769">
        <ele>222.7</ele>
        <time>2024-11-20T14:42:46Z</time>
      </trkpt>
      <trkpt lat="48.16191" lon="-3.3077">
        <ele>222.7</ele>
        <time>2024-11-20T14:42:47Z</time>
      </trkpt>
      <trkpt lat="48.16192" lon="-3.3077">
        <ele>222.6</ele>
        <time>2024-11-20T14:42:48Z</time>
      </trkpt>
      <trkpt lat="48.16193" lon="-3.3077">
        <ele>222.6</ele>
        <time>2024-11-20T14:42:49Z</time>
      </trkpt>
      <trkpt lat="48.16194" lon="-3.3077">
        <ele>222.4</ele>
        <time>2024-11-20T14:42:50Z</time>
      </trkpt>
      <trkpt lat="48.16196" lon="-3.3077">
        <ele>222.3</ele>
        <time>2024-11-20T14:42:51Z</time>
      </trkpt>
      <trkpt lat="48.16197" lon="-3.3077">
        <ele>222.3</ele>
        <time>2024-11-20T14:42:52Z</time>
      </trkpt>
      <trkpt lat="48.16198" lon="-3.30771">
        <ele>222.2</ele>
        <time>2024-11-20T14:42:53Z</time>
      </trkpt>
      <trkpt lat="48.16199" lon="-3.30771">
        <ele>222.1</ele>
        <time>2024-11-20T14:42:54Z</time>
      </trkpt>
      <trkpt lat="48.16201" lon="-3.30772">
        <ele>222</ele>
        <time>2024-11-20T14:42:55Z</time>
      </trkpt>
      <trkpt lat="48.16203" lon="-3.30773">
        <ele>221.9</ele>
        <time>2024-11-20T14:42:56Z</time>
      </trkpt>
      <trkpt lat="48.16204" lon="-3.30774">
        <ele>221.8</ele>
        <time>2024-11-20T14:42:57Z</time>
      </trkpt>
      <trkpt lat="48.16204" lon="-3.30774">
        <ele>221.8</ele>
        <time>2024-11-20T14:42:58Z</time>
      </trkpt>
      <trkpt lat="48.16205" lon="-3.30775">
        <ele>221.7</ele>
        <time>2024-11-20T14:42:59Z</time>
      </trkpt>
      <trkpt lat="48.16206" lon="-3.30775">
        <ele>221.6</ele>
        <time>2024-11-20T14:43:00Z</time>
      </trkpt>
      <trkpt lat="48.16208" lon="-3.30775">
        <ele>221.5</ele>
        <time>2024-11-20T14:43:01Z</time>
      </trkpt>
      <trkpt lat="48.16209" lon="-3.30776">
        <ele>221.3</ele>
        <time>2024-11-20T14:43:02Z</time>
      </trkpt>
      <trkpt lat="48.16211" lon="-3.30777">
        <ele>221.2</ele>
        <time>2024-11-20T14:43:03Z</time>
      </trkpt>
      <trkpt lat="48.16212" lon="-3.30778">
        <ele>221.1</ele>
        <time>2024-11-20T14:43:04Z</time>
      </trkpt>
      <trkpt lat="48.16213" lon="-3.30779">
        <ele>221.1</ele>
        <time>2024-11-20T14:43:05Z</time>
      </trkpt>
      <trkpt lat="48.16215" lon="-3.3078">
        <ele>221</ele>
        <time>2024-11-20T14:43:06Z</time>
      </trkpt>
      <trkpt lat="48.16217" lon="-3.30781">
        <ele>220.9</ele>
        <time>2024-11-20T14:43:07Z</time>
      </trkpt>
      <trkpt lat="48.16218" lon="-3.30781">
        <ele>220.8</ele>
        <time>2024-11-20T14:43:08Z</time>
      </trkpt>
      <trkpt lat="48.16219" lon="-3.30782">
        <ele>220.8</ele>
        <time>2024-11-20T14:43:09Z</time>
      </trkpt>
      <trkpt lat="48.16221" lon="-3.30783">
        <ele>220.7</ele>
        <time>2024-11-20T14:43:10Z</time>
      </trkpt>
      <trkpt lat="48.16222" lon="-3.30783">
        <ele>220.6</ele>
        <time>2024-11-20T14:43:11Z</time>
      </trkpt>
      <trkpt lat="48.16224" lon="-3.30784">
        <ele>220.5</ele>
        <time>2024-11-20T14:43:12Z</time>
      </trkpt>
      <trkpt lat="48.16224" lon="-3.30784">
        <ele>220.5</ele>
        <time>2024-11-20T14:43:13Z</time>
      </trkpt>
      <trkpt lat="48.16225" lon="-3.30785">
        <ele>220.5</ele>
        <time>2024-11-20T14:43:14Z</time>
      </trkpt>
      <trkpt lat="48.16227" lon="-3.30786">
        <ele>220.5</ele>
        <time>2024-11-20T14:43:15Z</time>
      </trkpt>
      <trkpt lat="48.16228" lon="-3.30787">
        <ele>220.5</ele>
        <time>2024-11-20T14:43:16Z</time>
      </trkpt>
      <trkpt lat="48.16229" lon="-3.30787">
        <ele>220.4</ele>
        <time>2024-11-20T14:43:17Z</time>
      </trkpt>
      <trkpt lat="48.1623" lon="-3.30788">
        <ele>220.4</ele>
        <time>2024-11-20T14:43:18Z</time>
      </trkpt>
      <trkpt lat="48.1623" lon="-3.30788">
        <ele>220.3</ele>
        <time>2024-11-20T14:43:19Z</time>
      </trkpt>
      <trkpt lat="48.16231" lon="-3.30788">
        <ele>220.3</ele>
        <time>2024-11-20T14:43:20Z</time>
      </trkpt>
      <trkpt lat="48.16232" lon="-3.30789">
        <ele>220.2</ele>
        <time>2024-11-20T14:43:21Z</time>
      </trkpt>
      <trkpt lat="48.16233" lon="-3.30789">
        <ele>220.2</ele>
        <time>2024-11-20T14:43:22Z</time>
      </trkpt>
      <trkpt lat="48.16234" lon="-3.3079">
        <ele>220.1</ele>
        <time>2024-11-20T14:43:23Z</time>
      </trkpt>
      <trkpt lat="48.16235" lon="-3.30791">
        <ele>220</ele>
        <time>2024-11-20T14:43:24Z</time>
      </trkpt>
      <trkpt lat="48.16236" lon="-3.30792">
        <ele>220</ele>
        <time>2024-11-20T14:43:25Z</time>
      </trkpt>
      <trkpt lat="48.16238" lon="-3.30793">
        <ele>219.9</ele>
        <time>2024-11-20T14:43:26Z</time>
      </trkpt>
      <trkpt lat="48.16239" lon="-3.30794">
        <ele>219.8</ele>
        <time>2024-11-20T14:43:27Z</time>
      </trkpt>
      <trkpt lat="48.16241" lon="-3.30795">
        <ele>219.7</ele>
        <time>2024-11-20T14:43:28Z</time>
      </trkpt>
      <trkpt lat="48.16243" lon="-3.30797">
        <ele>219.6</ele>
        <time>2024-11-20T14:43:29Z</time>
      </trkpt>
      <trkpt lat="48.16244" lon="-3.30797">
        <ele>219.5</ele>
        <time>2024-11-20T14:43:30Z</time>
      </trkpt>
      <trkpt lat="48.16245" lon="-3.30798">
        <ele>219.3</ele>
        <time>2024-11-20T14:43:31Z</time>
      </trkpt>
      <trkpt lat="48.16247" lon="-3.30799">
        <ele>219.2</ele>
        <time>2024-11-20T14:43:32Z</time>
      </trkpt>
      <trkpt lat="48.16248" lon="-3.308">
        <ele>219</ele>
        <time>2024-11-20T14:43:33Z</time>
      </trkpt>
      <trkpt lat="48.1625" lon="-3.30801">
        <ele>218.9</ele>
        <time>2024-11-20T14:43:34Z</time>
      </trkpt>
      <trkpt lat="48.16251" lon="-3.30802">
        <ele>218.8</ele>
        <time>2024-11-20T14:43:35Z</time>
      </trkpt>
      <trkpt lat="48.16252" lon="-3.30804">
        <ele>218.7</ele>
        <time>2024-11-20T14:43:36Z</time>
      </trkpt>
      <trkpt lat="48.16253" lon="-3.30805">
        <ele>218.7</ele>
        <time>2024-11-20T14:43:37Z</time>
      </trkpt>
      <trkpt lat="48.16253" lon="-3.30807">
        <ele>218.7</ele>
        <time>2024-11-20T14:43:38Z</time>
      </trkpt>
      <trkpt lat="48.16253" lon="-3.30808">
        <ele>218.6</ele>
        <time>2024-11-20T14:43:39Z</time>
      </trkpt>
      <trkpt lat="48.16254" lon="-3.30809">
        <ele>218.6</ele>
        <time>2024-11-20T14:43:40Z</time>
      </trkpt>
      <trkpt lat="48.16254" lon="-3.30811">
        <ele>218.5</ele>
        <time>2024-11-20T14:43:41Z</time>
      </trkpt>
      <trkpt lat="48.16255" lon="-3.30813">
        <ele>218.5</ele>
        <time>2024-11-20T14:43:42Z</time>
      </trkpt>
      <trkpt lat="48.16255" lon="-3.30815">
        <ele>218.4</ele>
        <time>2024-11-20T14:43:43Z</time>
      </trkpt>
      <trkpt lat="48.16255" lon="-3.30819">
        <ele>218.4</ele>
        <time>2024-11-20T14:43:44Z</time>
      </trkpt>
      <trkpt lat="48.16255" lon="-3.30821">
        <ele>218.4</ele>
        <time>2024-11-20T14:43:45Z</time>
      </trkpt>
      <trkpt lat="48.16254" lon="-3.30822">
        <ele>218.5</ele>
        <time>2024-11-20T14:43:46Z</time>
      </trkpt>
      <trkpt lat="48.16254" lon="-3.30824">
        <ele>218.5</ele>
        <time>2024-11-20T14:43:47Z</time>
      </trkpt>
      <trkpt lat="48.16254" lon="-3.30825">
        <ele>218.5</ele>
        <time>2024-11-20T14:43:48Z</time>
      </trkpt>
      <trkpt lat="48.16253" lon="-3.30826">
        <ele>218.6</ele>
        <time>2024-11-20T14:43:49Z</time>
      </trkpt>
      <trkpt lat="48.16253" lon="-3.30827">
        <ele>218.6</ele>
        <time>2024-11-20T14:43:50Z</time>
      </trkpt>
      <trkpt lat="48.16252" lon="-3.30829">
        <ele>218.7</ele>
        <time>2024-11-20T14:43:51Z</time>
      </trkpt>
      <trkpt lat="48.16252" lon="-3.30831">
        <ele>218.8</ele>
        <time>2024-11-20T14:43:52Z</time>
      </trkpt>
      <trkpt lat="48.16251" lon="-3.30832">
        <ele>218.9</ele>
        <time>2024-11-20T14:43:53Z</time>
      </trkpt>
      <trkpt lat="48.16251" lon="-3.30832">
        <ele>218.9</ele>
        <time>2024-11-20T14:43:54Z</time>
      </trkpt>
      <trkpt lat="48.1625" lon="-3.30833">
        <ele>219</ele>
        <time>2024-11-20T14:43:55Z</time>
      </trkpt>
      <trkpt lat="48.1625" lon="-3.30834">
        <ele>219</ele>
        <time>2024-11-20T14:43:56Z</time>
      </trkpt>
      <trkpt lat="48.1625" lon="-3.30835">
        <ele>219.1</ele>
        <time>2024-11-20T14:43:57Z</time>
      </trkpt>
      <trkpt lat="48.16249" lon="-3.30837">
        <ele>219.2</ele>
        <time>2024-11-20T14:43:58Z</time>
      </trkpt>
      <trkpt lat="48.16249" lon="-3.30838">
        <ele>219.3</ele>
        <time>2024-11-20T14:43:59Z</time>
      </trkpt>
      <trkpt lat="48.16249" lon="-3.3084">
        <ele>219.4</ele>
        <time>2024-11-20T14:44:00Z</time>
      </trkpt>
      <trkpt lat="48.16248" lon="-3.30841">
        <ele>219.4</ele>
        <time>2024-11-20T14:44:01Z</time>
      </trkpt>
      <trkpt lat="48.16248" lon="-3.30843">
        <ele>219.5</ele>
        <time>2024-11-20T14:44:02Z</time>
      </trkpt>
      <trkpt lat="48.16247" lon="-3.30845">
        <ele>219.7</ele>
        <time>2024-11-20T14:44:03Z</time>
      </trkpt>
      <trkpt lat="48.16247" lon="-3.30847">
        <ele>219.9</ele>
        <time>2024-11-20T14:44:04Z</time>
      </trkpt>
      <trkpt lat="48.16246" lon="-3.30849">
        <ele>220.1</ele>
        <time>2024-11-20T14:44:05Z</time>
      </trkpt>
      <trkpt lat="48.16245" lon="-3.3085">
        <ele>220.2</ele>
        <time>2024-11-20T14:44:06Z</time>
      </trkpt>
      <trkpt lat="48.16245" lon="-3.30852">
        <ele>220.4</ele>
        <time>2024-11-20T14:44:07Z</time>
      </trkpt>
      <trkpt lat="48.16244" lon="-3.30854">
        <ele>220.5</ele>
        <time>2024-11-20T14:44:08Z</time>
      </trkpt>
      <trkpt lat="48.16244" lon="-3.30856">
        <ele>220.6</ele>
        <time>2024-11-20T14:44:09Z</time>
      </trkpt>
      <trkpt lat="48.16243" lon="-3.30857">
        <ele>220.8</ele>
        <time>2024-11-20T14:44:10Z</time>
      </trkpt>
      <trkpt lat="48.16242" lon="-3.30859">
        <ele>221</ele>
        <time>2024-11-20T14:44:11Z</time>
      </trkpt>
      <trkpt lat="48.16241" lon="-3.3086">
        <ele>221.3</ele>
        <time>2024-11-20T14:44:12Z</time>
      </trkpt>
      <trkpt lat="48.1624" lon="-3.30861">
        <ele>221.5</ele>
        <time>2024-11-20T14:44:13Z</time>
      </trkpt>
      <trkpt lat="48.16239" lon="-3.30863">
        <ele>221.7</ele>
        <time>2024-11-20T14:44:14Z</time>
      </trkpt>
      <trkpt lat="48.16238" lon="-3.30865">
        <ele>221.8</ele>
        <time>2024-11-20T14:44:15Z</time>
      </trkpt>
      <trkpt lat="48.16238" lon="-3.30868">
        <ele>221.9</ele>
        <time>2024-11-20T14:44:16Z</time>
      </trkpt>
      <trkpt lat="48.16237" lon="-3.3087">
        <ele>221.9</ele>
        <time>2024-11-20T14:44:17Z</time>
      </trkpt>
      <trkpt lat="48.16237" lon="-3.30872">
        <ele>221.9</ele>
        <time>2024-11-20T14:44:18Z</time>
      </trkpt>
      <trkpt lat="48.16236" lon="-3.30874">
        <ele>222</ele>
        <time>2024-11-20T14:44:19Z</time>
      </trkpt>
      <trkpt lat="48.16236" lon="-3.30876">
        <ele>222</ele>
        <time>2024-11-20T14:44:20Z</time>
      </trkpt>
      <trkpt lat="48.16236" lon="-3.30878">
        <ele>222</ele>
        <time>2024-11-20T14:44:21Z</time>
      </trkpt>
      <trkpt lat="48.16235" lon="-3.30879">
        <ele>222.1</ele>
        <time>2024-11-20T14:44:22Z</time>
      </trkpt>
      <trkpt lat="48.16234" lon="-3.3088">
        <ele>222.2</ele>
        <time>2024-11-20T14:44:23Z</time>
      </trkpt>
      <trkpt lat="48.16234" lon="-3.30881">
        <ele>222.2</ele>
        <time>2024-11-20T14:44:24Z</time>
      </trkpt>
      <trkpt lat="48.16235" lon="-3.30881">
        <ele>222.1</ele>
        <time>2024-11-20T14:44:25Z</time>
      </trkpt>
      <trkpt lat="48.16235" lon="-3.30881">
        <ele>222</ele>
        <time>2024-11-20T14:44:26Z</time>
      </trkpt>
      <trkpt lat="48.16236" lon="-3.30881">
        <ele>221.8</ele>
        <time>2024-11-20T14:44:27Z</time>
      </trkpt>
      <trkpt lat="48.16236" lon="-3.30883">
        <ele>221.7</ele>
        <time>2024-11-20T14:44:28Z</time>
      </trkpt>
      <trkpt lat="48.16236" lon="-3.30884">
        <ele>221.6</ele>
        <time>2024-11-20T14:44:29Z</time>
      </trkpt>
      <trkpt lat="48.16237" lon="-3.30885">
        <ele>221.5</ele>
        <time>2024-11-20T14:44:30Z</time>
      </trkpt>
      <trkpt lat="48.16238" lon="-3.30887">
        <ele>221.3</ele>
        <time>2024-11-20T14:44:31Z</time>
      </trkpt>
      <trkpt lat="48.16238" lon="-3.3089">
        <ele>221.3</ele>
        <time>2024-11-20T14:44:32Z</time>
      </trkpt>
      <trkpt lat="48.16237" lon="-3.30892">
        <ele>221.5</ele>
        <time>2024-11-20T14:44:33Z</time>
      </trkpt>
      <trkpt lat="48.16237" lon="-3.30893">
        <ele>221.6</ele>
        <time>2024-11-20T14:44:34Z</time>
      </trkpt>
      <trkpt lat="48.16238" lon="-3.30894">
        <ele>221.6</ele>
        <time>2024-11-20T14:44:35Z</time>
      </trkpt>
      <trkpt lat="48.16239" lon="-3.30895">
        <ele>221.6</ele>
        <time>2024-11-20T14:44:36Z</time>
      </trkpt>
      <trkpt lat="48.1624" lon="-3.30896">
        <ele>221.5</ele>
        <time>2024-11-20T14:44:37Z</time>
      </trkpt>
      <trkpt lat="48.16241" lon="-3.30897">
        <ele>221.3</ele>
        <time>2024-11-20T14:44:38Z</time>
      </trkpt>
      <trkpt lat="48.16242" lon="-3.30897">
        <ele>221.1</ele>
        <time>2024-11-20T14:44:39Z</time>
      </trkpt>
      <trkpt lat="48.16243" lon="-3.30897">
        <ele>221</ele>
        <time>2024-11-20T14:44:40Z</time>
      </trkpt>
      <trkpt lat="48.16245" lon="-3.30898">
        <ele>220.8</ele>
        <time>2024-11-20T14:44:41Z</time>
      </trkpt>
      <trkpt lat="48.16246" lon="-3.30898">
        <ele>220.6</ele>
        <time>2024-11-20T14:44:42Z</time>
      </trkpt>
      <trkpt lat="48.16247" lon="-3.30898">
        <ele>220.5</ele>
        <time>2024-11-20T14:44:43Z</time>
      </trkpt>
      <trkpt lat="48.16247" lon="-3.30898">
        <ele>220.4</ele>
        <time>2024-11-20T14:44:44Z</time>
      </trkpt>
      <trkpt lat="48.16248" lon="-3.30899">
        <ele>220.3</ele>
        <time>2024-11-20T14:44:45Z</time>
      </trkpt>
      <trkpt lat="48.1625" lon="-3.30899">
        <ele>220.1</ele>
        <time>2024-11-20T14:44:46Z</time>
      </trkpt>
      <trkpt lat="48.16251" lon="-3.30899">
        <ele>220</ele>
        <time>2024-11-20T14:44:47Z</time>
      </trkpt>
      <trkpt lat="48.16252" lon="-3.30898">
        <ele>219.9</ele>
        <time>2024-11-20T14:44:48Z</time>
      </trkpt>
      <trkpt lat="48.16253" lon="-3.30898">
        <ele>219.9</ele>
        <time>2024-11-20T14:44:49Z</time>
      </trkpt>
      <trkpt lat="48.16254" lon="-3.30898">
        <ele>219.8</ele>
        <time>2024-11-20T14:44:50Z</time>
      </trkpt>
      <trkpt lat="48.16255" lon="-3.30897">
        <ele>219.7</ele>
        <time>2024-11-20T14:44:51Z</time>
      </trkpt>
      <trkpt lat="48.16256" lon="-3.30897">
        <ele>219.7</ele>
        <time>2024-11-20T14:44:52Z</time>
      </trkpt>
      <trkpt lat="48.16256" lon="-3.30897">
        <ele>219.6</ele>
        <time>2024-11-20T14:44:53Z</time>
      </trkpt>
      <trkpt lat="48.16257" lon="-3.30897">
        <ele>219.6</ele>
        <time>2024-11-20T14:44:54Z</time>
      </trkpt>
      <trkpt lat="48.16258" lon="-3.30896">
        <ele>219.5</ele>
        <time>2024-11-20T14:44:55Z</time>
      </trkpt>
      <trkpt lat="48.16259" lon="-3.30896">
        <ele>219.4</ele>
        <time>2024-11-20T14:44:56Z</time>
      </trkpt>
      <trkpt lat="48.1626" lon="-3.30895">
        <ele>219.3</ele>
        <time>2024-11-20T14:44:57Z</time>
      </trkpt>
      <trkpt lat="48.16261" lon="-3.30895">
        <ele>219.2</ele>
        <time>2024-11-20T14:44:58Z</time>
      </trkpt>
      <trkpt lat="48.16262" lon="-3.30894">
        <ele>219.1</ele>
        <time>2024-11-20T14:44:59Z</time>
      </trkpt>
      <trkpt lat="48.16263" lon="-3.30894">
        <ele>219.1</ele>
        <time>2024-11-20T14:45:00Z</time>
      </trkpt>
      <trkpt lat="48.16264" lon="-3.30894">
        <ele>219</ele>
        <time>2024-11-20T14:45:01Z</time>
      </trkpt>
      <trkpt lat="48.16266" lon="-3.30894">
        <ele>218.9</ele>
        <time>2024-11-20T14:45:02Z</time>
      </trkpt>
      <trkpt lat="48.16268" lon="-3.30893">
        <ele>218.8</ele>
        <time>2024-11-20T14:45:03Z</time>
      </trkpt>
      <trkpt lat="48.16269" lon="-3.30892">
        <ele>218.7</ele>
        <time>2024-11-20T14:45:04Z</time>
      </trkpt>
      <trkpt lat="48.1627" lon="-3.30891">
        <ele>218.5</ele>
        <time>2024-11-20T14:45:05Z</time>
      </trkpt>
      <trkpt lat="48.16271" lon="-3.30891">
        <ele>218.4</ele>
        <time>2024-11-20T14:45:06Z</time>
      </trkpt>
      <trkpt lat="48.16272" lon="-3.3089">
        <ele>218.4</ele>
        <time>2024-11-20T14:45:07Z</time>
      </trkpt>
      <trkpt lat="48.16273" lon="-3.30891">
        <ele>218.3</ele>
        <time>2024-11-20T14:45:08Z</time>
      </trkpt>
      <trkpt lat="48.16274" lon="-3.30891">
        <ele>218.3</ele>
        <time>2024-11-20T14:45:09Z</time>
      </trkpt>
      <trkpt lat="48.16276" lon="-3.30892">
        <ele>218.4</ele>
        <time>2024-11-20T14:45:10Z</time>
      </trkpt>
      <trkpt lat="48.16278" lon="-3.30893">
        <ele>218.4</ele>
        <time>2024-11-20T14:45:11Z</time>
      </trkpt>
      <trkpt lat="48.16279" lon="-3.30894">
        <ele>218.6</ele>
        <time>2024-11-20T14:45:12Z</time>
      </trkpt>
      <trkpt lat="48.1628" lon="-3.30894">
        <ele>218.6</ele>
        <time>2024-11-20T14:45:13Z</time>
      </trkpt>
      <trkpt lat="48.16281" lon="-3.30894">
        <ele>218.6</ele>
        <time>2024-11-20T14:45:14Z</time>
      </trkpt>
      <trkpt lat="48.16281" lon="-3.30894">
        <ele>218.6</ele>
        <time>2024-11-20T14:45:15Z</time>
      </trkpt>
      <trkpt lat="48.16281" lon="-3.30894">
        <ele>218.5</ele>
        <time>2024-11-20T14:45:16Z</time>
      </trkpt>
      <trkpt lat="48.16281" lon="-3.30893">
        <ele>218.5</ele>
        <time>2024-11-20T14:45:17Z</time>
      </trkpt>
      <trkpt lat="48.16282" lon="-3.30893">
        <ele>218.4</ele>
        <time>2024-11-20T14:45:18Z</time>
      </trkpt>
      <trkpt lat="48.16282" lon="-3.30892">
        <ele>218.3</ele>
        <time>2024-11-20T14:45:19Z</time>
      </trkpt>
      <trkpt lat="48.16282" lon="-3.30892">
        <ele>218.3</ele>
        <time>2024-11-20T14:45:20Z</time>
      </trkpt>
      <trkpt lat="48.16283" lon="-3.30891">
        <ele>218.2</ele>
        <time>2024-11-20T14:45:21Z</time>
      </trkpt>
      <trkpt lat="48.16284" lon="-3.30891">
        <ele>218.2</ele>
        <time>2024-11-20T14:45:22Z</time>
      </trkpt>
      <trkpt lat="48.16285" lon="-3.30891">
        <ele>218.2</ele>
        <time>2024-11-20T14:45:23Z</time>
      </trkpt>
      <trkpt lat="48.16287" lon="-3.3089">
        <ele>218.1</ele>
        <time>2024-11-20T14:45:24Z</time>
      </trkpt>
      <trkpt lat="48.16288" lon="-3.30889">
        <ele>218</ele>
        <time>2024-11-20T14:45:25Z</time>
      </trkpt>
      <trkpt lat="48.1629" lon="-3.30888">
        <ele>218</ele>
        <time>2024-11-20T14:45:26Z</time>
      </trkpt>
      <trkpt lat="48.16291" lon="-3.30887">
        <ele>217.9</ele>
        <time>2024-11-20T14:45:27Z</time>
      </trkpt>
      <trkpt lat="48.16292" lon="-3.30886">
        <ele>217.7</ele>
        <time>2024-11-20T14:45:28Z</time>
      </trkpt>
      <trkpt lat="48.16293" lon="-3.30885">
        <ele>217.6</ele>
        <time>2024-11-20T14:45:29Z</time>
      </trkpt>
      <trkpt lat="48.16295" lon="-3.30884">
        <ele>217.6</ele>
        <time>2024-11-20T14:45:30Z</time>
      </trkpt>
      <trkpt lat="48.16296" lon="-3.30884">
        <ele>217.5</ele>
        <time>2024-11-20T14:45:31Z</time>
      </trkpt>
      <trkpt lat="48.16298" lon="-3.30884">
        <ele>217.5</ele>
        <time>2024-11-20T14:45:32Z</time>
      </trkpt>
      <trkpt lat="48.16299" lon="-3.30885">
        <ele>217.6</ele>
        <time>2024-11-20T14:45:33Z</time>
      </trkpt>
      <trkpt lat="48.163" lon="-3.30885">
        <ele>217.6</ele>
        <time>2024-11-20T14:45:34Z</time>
      </trkpt>
      <trkpt lat="48.163" lon="-3.30885">
        <ele>217.6</ele>
        <time>2024-11-20T14:45:35Z</time>
      </trkpt>
      <trkpt lat="48.16301" lon="-3.30885">
        <ele>217.6</ele>
        <time>2024-11-20T14:45:36Z</time>
      </trkpt>
      <trkpt lat="48.16302" lon="-3.30886">
        <ele>217.7</ele>
        <time>2024-11-20T14:45:37Z</time>
      </trkpt>
      <trkpt lat="48.16303" lon="-3.30887">
        <ele>217.8</ele>
        <time>2024-11-20T14:45:38Z</time>
      </trkpt>
      <trkpt lat="48.16304" lon="-3.30888">
        <ele>217.9</ele>
        <time>2024-11-20T14:45:39Z</time>
      </trkpt>
      <trkpt lat="48.16306" lon="-3.30889">
        <ele>218</ele>
        <time>2024-11-20T14:45:40Z</time>
      </trkpt>
      <trkpt lat="48.16307" lon="-3.3089">
        <ele>218</ele>
        <time>2024-11-20T14:45:41Z</time>
      </trkpt>
      <trkpt lat="48.16308" lon="-3.3089">
        <ele>217.9</ele>
        <time>2024-11-20T14:45:42Z</time>
      </trkpt>
      <trkpt lat="48.1631" lon="-3.30891">
        <ele>217.9</ele>
        <time>2024-11-20T14:45:43Z</time>
      </trkpt>
      <trkpt lat="48.16311" lon="-3.30892">
        <ele>217.9</ele>
        <time>2024-11-20T14:45:44Z</time>
      </trkpt>
      <trkpt lat="48.16312" lon="-3.30893">
        <ele>217.8</ele>
        <time>2024-11-20T14:45:45Z</time>
      </trkpt>
      <trkpt lat="48.16314" lon="-3.30893">
        <ele>217.7</ele>
        <time>2024-11-20T14:45:46Z</time>
      </trkpt>
      <trkpt lat="48.16315" lon="-3.30893">
        <ele>217.6</ele>
        <time>2024-11-20T14:45:47Z</time>
      </trkpt>
      <trkpt lat="48.16316" lon="-3.30892">
        <ele>217.5</ele>
        <time>2024-11-20T14:45:48Z</time>
      </trkpt>
      <trkpt lat="48.16318" lon="-3.30892">
        <ele>217.4</ele>
        <time>2024-11-20T14:45:49Z</time>
      </trkpt>
      <trkpt lat="48.16319" lon="-3.30892">
        <ele>217.3</ele>
        <time>2024-11-20T14:45:50Z</time>
      </trkpt>
      <trkpt lat="48.1632" lon="-3.30892">
        <ele>217.1</ele>
        <time>2024-11-20T14:45:51Z</time>
      </trkpt>
      <trkpt lat="48.16321" lon="-3.3089">
        <ele>217</ele>
        <time>2024-11-20T14:45:52Z</time>
      </trkpt>
      <trkpt lat="48.16323" lon="-3.30889">
        <ele>216.8</ele>
        <time>2024-11-20T14:45:53Z</time>
      </trkpt>
      <trkpt lat="48.16324" lon="-3.30888">
        <ele>216.6</ele>
        <time>2024-11-20T14:45:54Z</time>
      </trkpt>
      <trkpt lat="48.16326" lon="-3.30887">
        <ele>216.4</ele>
        <time>2024-11-20T14:45:55Z</time>
      </trkpt>
      <trkpt lat="48.16327" lon="-3.30886">
        <ele>216.2</ele>
        <time>2024-11-20T14:45:56Z</time>
      </trkpt>
      <trkpt lat="48.16329" lon="-3.30885">
        <ele>216.1</ele>
        <time>2024-11-20T14:45:57Z</time>
      </trkpt>
      <trkpt lat="48.1633" lon="-3.30885">
        <ele>216</ele>
        <time>2024-11-20T14:45:58Z</time>
      </trkpt>
      <trkpt lat="48.16331" lon="-3.30885">
        <ele>215.8</ele>
        <time>2024-11-20T14:45:59Z</time>
      </trkpt>
      <trkpt lat="48.16332" lon="-3.30884">
        <ele>215.7</ele>
        <time>2024-11-20T14:46:00Z</time>
      </trkpt>
      <trkpt lat="48.16333" lon="-3.30883">
        <ele>215.6</ele>
        <time>2024-11-20T14:46:01Z</time>
      </trkpt>
      <trkpt lat="48.16335" lon="-3.30882">
        <ele>215.5</ele>
        <time>2024-11-20T14:46:02Z</time>
      </trkpt>
      <trkpt lat="48.16336" lon="-3.30882">
        <ele>215.4</ele>
        <time>2024-11-20T14:46:03Z</time>
      </trkpt>
      <trkpt lat="48.16337" lon="-3.30882">
        <ele>215.4</ele>
        <time>2024-11-20T14:46:04Z</time>
      </trkpt>
      <trkpt lat="48.16338" lon="-3.30881">
        <ele>215.3</ele>
        <time>2024-11-20T14:46:05Z</time>
      </trkpt>
      <trkpt lat="48.16339" lon="-3.30881">
        <ele>215.3</ele>
        <time>2024-11-20T14:46:06Z</time>
      </trkpt>
      <trkpt lat="48.1634" lon="-3.30881">
        <ele>215.2</ele>
        <time>2024-11-20T14:46:07Z</time>
      </trkpt>
      <trkpt lat="48.16341" lon="-3.30881">
        <ele>215.2</ele>
        <time>2024-11-20T14:46:08Z</time>
      </trkpt>
      <trkpt lat="48.16341" lon="-3.3088">
        <ele>215.2</ele>
        <time>2024-11-20T14:46:09Z</time>
      </trkpt>
      <trkpt lat="48.16342" lon="-3.3088">
        <ele>215.1</ele>
        <time>2024-11-20T14:46:10Z</time>
      </trkpt>
      <trkpt lat="48.16343" lon="-3.3088">
        <ele>215.1</ele>
        <time>2024-11-20T14:46:11Z</time>
      </trkpt>
      <trkpt lat="48.16344" lon="-3.3088">
        <ele>215.1</ele>
        <time>2024-11-20T14:46:12Z</time>
      </trkpt>
      <trkpt lat="48.16345" lon="-3.3088">
        <ele>215</ele>
        <time>2024-11-20T14:46:13Z</time>
      </trkpt>
      <trkpt lat="48.16346" lon="-3.3088">
        <ele>215</ele>
        <time>2024-11-20T14:46:14Z</time>
      </trkpt>
      <trkpt lat="48.16348" lon="-3.3088">
        <ele>215</ele>
        <time>2024-11-20T14:46:15Z</time>
      </trkpt>
      <trkpt lat="48.16349" lon="-3.3088">
        <ele>215</ele>
        <time>2024-11-20T14:46:16Z</time>
      </trkpt>
      <trkpt lat="48.16351" lon="-3.3088">
        <ele>214.9</ele>
        <time>2024-11-20T14:46:17Z</time>
      </trkpt>
      <trkpt lat="48.16353" lon="-3.3088">
        <ele>214.9</ele>
        <time>2024-11-20T14:46:18Z</time>
      </trkpt>
      <trkpt lat="48.16354" lon="-3.30879">
        <ele>214.8</ele>
        <time>2024-11-20T14:46:19Z</time>
      </trkpt>
      <trkpt lat="48.16354" lon="-3.30879">
        <ele>214.8</ele>
        <time>2024-11-20T14:46:20Z</time>
      </trkpt>
      <trkpt lat="48.16355" lon="-3.30879">
        <ele>214.8</ele>
        <time>2024-11-20T14:46:21Z</time>
      </trkpt>
      <trkpt lat="48.16356" lon="-3.30879">
        <ele>214.8</ele>
        <time>2024-11-20T14:46:22Z</time>
      </trkpt>
      <trkpt lat="48.16357" lon="-3.3088">
        <ele>214.8</ele>
        <time>2024-11-20T14:46:23Z</time>
      </trkpt>
      <trkpt lat="48.16358" lon="-3.30881">
        <ele>214.8</ele>
        <time>2024-11-20T14:46:24Z</time>
      </trkpt>
      <trkpt lat="48.16359" lon="-3.30882">
        <ele>214.8</ele>
        <time>2024-11-20T14:46:25Z</time>
      </trkpt>
      <trkpt lat="48.16361" lon="-3.30883">
        <ele>214.8</ele>
        <time>2024-11-20T14:46:26Z</time>
      </trkpt>
      <trkpt lat="48.16362" lon="-3.30884">
        <ele>214.8</ele>
        <time>2024-11-20T14:46:27Z</time>
      </trkpt>
      <trkpt lat="48.16363" lon="-3.30885">
        <ele>214.7</ele>
        <time>2024-11-20T14:46:28Z</time>
      </trkpt>
      <trkpt lat="48.16364" lon="-3.30886">
        <ele>214.7</ele>
        <time>2024-11-20T14:46:29Z</time>
      </trkpt>
      <trkpt lat="48.16365" lon="-3.30887">
        <ele>214.7</ele>
        <time>2024-11-20T14:46:30Z</time>
      </trkpt>
      <trkpt lat="48.16365" lon="-3.30889">
        <ele>214.7</ele>
        <time>2024-11-20T14:46:31Z</time>
      </trkpt>
      <trkpt lat="48.16366" lon="-3.30891">
        <ele>214.7</ele>
        <time>2024-11-20T14:46:32Z</time>
      </trkpt>
      <trkpt lat="48.16367" lon="-3.30892">
        <ele>214.7</ele>
        <time>2024-11-20T14:46:33Z</time>
      </trkpt>
      <trkpt lat="48.16368" lon="-3.30893">
        <ele>214.6</ele>
        <time>2024-11-20T14:46:34Z</time>
      </trkpt>
      <trkpt lat="48.16369" lon="-3.30894">
        <ele>214.6</ele>
        <time>2024-11-20T14:46:35Z</time>
      </trkpt>
      <trkpt lat="48.1637" lon="-3.30895">
        <ele>214.6</ele>
        <time>2024-11-20T14:46:36Z</time>
      </trkpt>
      <trkpt lat="48.16371" lon="-3.30897">
        <ele>214.6</ele>
        <time>2024-11-20T14:46:37Z</time>
      </trkpt>
      <trkpt lat="48.16372" lon="-3.30898">
        <ele>214.6</ele>
        <time>2024-11-20T14:46:38Z</time>
      </trkpt>
      <trkpt lat="48.16372" lon="-3.309">
        <ele>214.6</ele>
        <time>2024-11-20T14:46:39Z</time>
      </trkpt>
      <trkpt lat="48.16373" lon="-3.30901">
        <ele>214.6</ele>
        <time>2024-11-20T14:46:40Z</time>
      </trkpt>
      <trkpt lat="48.16373" lon="-3.30902">
        <ele>214.6</ele>
        <time>2024-11-20T14:46:41Z</time>
      </trkpt>
      <trkpt lat="48.16374" lon="-3.30903">
        <ele>214.6</ele>
        <time>2024-11-20T14:46:42Z</time>
      </trkpt>
      <trkpt lat="48.16374" lon="-3.30904">
        <ele>214.6</ele>
        <time>2024-11-20T14:46:43Z</time>
      </trkpt>
      <trkpt lat="48.16375" lon="-3.30905">
        <ele>214.6</ele>
        <time>2024-11-20T14:46:44Z</time>
      </trkpt>
      <trkpt lat="48.16376" lon="-3.30906">
        <ele>214.6</ele>
        <time>2024-11-20T14:46:45Z</time>
      </trkpt>
      <trkpt lat="48.16376" lon="-3.30907">
        <ele>214.6</ele>
        <time>2024-11-20T14:46:46Z</time>
      </trkpt>
      <trkpt lat="48.16377" lon="-3.30908">
        <ele>214.6</ele>
        <time>2024-11-20T14:46:47Z</time>
      </trkpt>
      <trkpt lat="48.16378" lon="-3.30909">
        <ele>214.6</ele>
        <time>2024-11-20T14:46:48Z</time>
      </trkpt>
      <trkpt lat="48.16378" lon="-3.3091">
        <ele>214.6</ele>
        <time>2024-11-20T14:46:49Z</time>
      </trkpt>
      <trkpt lat="48.16378" lon="-3.30912">
        <ele>214.6</ele>
        <time>2024-11-20T14:46:50Z</time>
      </trkpt>
      <trkpt lat="48.16378" lon="-3.30913">
        <ele>214.6</ele>
        <time>2024-11-20T14:46:51Z</time>
      </trkpt>
      <trkpt lat="48.16379" lon="-3.30914">
        <ele>214.6</ele>
        <time>2024-11-20T14:46:52Z</time>
      </trkpt>
      <trkpt lat="48.16379" lon="-3.30915">
        <ele>214.6</ele>
        <time>2024-11-20T14:46:53Z</time>
      </trkpt>
      <trkpt lat="48.1638" lon="-3.30916">
        <ele>214.6</ele>
        <time>2024-11-20T14:46:54Z</time>
      </trkpt>
      <trkpt lat="48.16381" lon="-3.30917">
        <ele>214.6</ele>
        <time>2024-11-20T14:46:55Z</time>
      </trkpt>
      <trkpt lat="48.16382" lon="-3.30918">
        <ele>214.6</ele>
        <time>2024-11-20T14:46:56Z</time>
      </trkpt>
      <trkpt lat="48.16383" lon="-3.30919">
        <ele>214.6</ele>
        <time>2024-11-20T14:46:57Z</time>
      </trkpt>
      <trkpt lat="48.16384" lon="-3.3092">
        <ele>214.6</ele>
        <time>2024-11-20T14:46:58Z</time>
      </trkpt>
      <trkpt lat="48.16385" lon="-3.30921">
        <ele>214.6</ele>
        <time>2024-11-20T14:46:59Z</time>
      </trkpt>
      <trkpt lat="48.16385" lon="-3.30923">
        <ele>214.7</ele>
        <time>2024-11-20T14:47:00Z</time>
      </trkpt>
      <trkpt lat="48.16386" lon="-3.30925">
        <ele>214.8</ele>
        <time>2024-11-20T14:47:01Z</time>
      </trkpt>
      <trkpt lat="48.16386" lon="-3.30926">
        <ele>214.9</ele>
        <time>2024-11-20T14:47:02Z</time>
      </trkpt>
      <trkpt lat="48.16386" lon="-3.30927">
        <ele>215</ele>
        <time>2024-11-20T14:47:03Z</time>
      </trkpt>
      <trkpt lat="48.16386" lon="-3.30927">
        <ele>215</ele>
        <time>2024-11-20T14:47:04Z</time>
      </trkpt>
      <trkpt lat="48.16387" lon="-3.30928">
        <ele>215</ele>
        <time>2024-11-20T14:47:05Z</time>
      </trkpt>
      <trkpt lat="48.16388" lon="-3.30929">
        <ele>214.9</ele>
        <time>2024-11-20T14:47:06Z</time>
      </trkpt>
      <trkpt lat="48.16389" lon="-3.30929">
        <ele>214.9</ele>
        <time>2024-11-20T14:47:07Z</time>
      </trkpt>
      <trkpt lat="48.1639" lon="-3.3093">
        <ele>214.9</ele>
        <time>2024-11-20T14:47:08Z</time>
      </trkpt>
      <trkpt lat="48.16391" lon="-3.3093">
        <ele>214.9</ele>
        <time>2024-11-20T14:47:09Z</time>
      </trkpt>
      <trkpt lat="48.16392" lon="-3.30931">
        <ele>214.9</ele>
        <time>2024-11-20T14:47:10Z</time>
      </trkpt>
      <trkpt lat="48.16392" lon="-3.30931">
        <ele>214.9</ele>
        <time>2024-11-20T14:47:11Z</time>
      </trkpt>
      <trkpt lat="48.16393" lon="-3.30931">
        <ele>214.9</ele>
        <time>2024-11-20T14:47:12Z</time>
      </trkpt>
      <trkpt lat="48.16394" lon="-3.30932">
        <ele>214.9</ele>
        <time>2024-11-20T14:47:13Z</time>
      </trkpt>
      <trkpt lat="48.16394" lon="-3.30932">
        <ele>214.9</ele>
        <time>2024-11-20T14:47:14Z</time>
      </trkpt>
      <trkpt lat="48.16395" lon="-3.30933">
        <ele>214.9</ele>
        <time>2024-11-20T14:47:15Z</time>
      </trkpt>
      <trkpt lat="48.16396" lon="-3.30933">
        <ele>214.9</ele>
        <time>2024-11-20T14:47:16Z</time>
      </trkpt>
      <trkpt lat="48.16397" lon="-3.30933">
        <ele>214.9</ele>
        <time>2024-11-20T14:47:17Z</time>
      </trkpt>
      <trkpt lat="48.16398" lon="-3.30934">
        <ele>214.9</ele>
        <time>2024-11-20T14:47:18Z</time>
      </trkpt>
      <trkpt lat="48.164" lon="-3.30934">
        <ele>214.9</ele>
        <time>2024-11-20T14:47:19Z</time>
      </trkpt>
      <trkpt lat="48.16402" lon="-3.30936">
        <ele>214.9</ele>
        <time>2024-11-20T14:47:20Z</time>
      </trkpt>
      <trkpt lat="48.16404" lon="-3.30937">
        <ele>214.9</ele>
        <time>2024-11-20T14:47:21Z</time>
      </trkpt>
      <trkpt lat="48.16405" lon="-3.30938">
        <ele>215</ele>
        <time>2024-11-20T14:47:22Z</time>
      </trkpt>
      <trkpt lat="48.16405" lon="-3.30939">
        <ele>215</ele>
        <time>2024-11-20T14:47:23Z</time>
      </trkpt>
      <trkpt lat="48.16406" lon="-3.30939">
        <ele>215</ele>
        <time>2024-11-20T14:47:24Z</time>
      </trkpt>
      <trkpt lat="48.16407" lon="-3.3094">
        <ele>215</ele>
        <time>2024-11-20T14:47:25Z</time>
      </trkpt>
      <trkpt lat="48.16408" lon="-3.3094">
        <ele>215</ele>
        <time>2024-11-20T14:47:26Z</time>
      </trkpt>
      <trkpt lat="48.16408" lon="-3.30941">
        <ele>215</ele>
        <time>2024-11-20T14:47:27Z</time>
      </trkpt>
      <trkpt lat="48.16408" lon="-3.30941">
        <ele>215</ele>
        <time>2024-11-20T14:47:28Z</time>
      </trkpt>
      <trkpt lat="48.16408" lon="-3.30941">
        <ele>215</ele>
        <time>2024-11-20T14:47:29Z</time>
      </trkpt>
      <trkpt lat="48.16408" lon="-3.30941">
        <ele>215</ele>
        <time>2024-11-20T14:47:30Z</time>
      </trkpt>
      <trkpt lat="48.16409" lon="-3.30941">
        <ele>215</ele>
        <time>2024-11-20T14:47:31Z</time>
      </trkpt>
      <trkpt lat="48.16409" lon="-3.30941">
        <ele>215</ele>
        <time>2024-11-20T14:47:32Z</time>
      </trkpt>
      <trkpt lat="48.1641" lon="-3.30941">
        <ele>215</ele>
        <time>2024-11-20T14:47:33Z</time>
      </trkpt>
      <trkpt lat="48.16411" lon="-3.30941">
        <ele>214.9</ele>
        <time>2024-11-20T14:47:34Z</time>
      </trkpt>
      <trkpt lat="48.16412" lon="-3.3094">
        <ele>214.9</ele>
        <time>2024-11-20T14:47:35Z</time>
      </trkpt>
      <trkpt lat="48.16414" lon="-3.3094">
        <ele>214.8</ele>
        <time>2024-11-20T14:47:36Z</time>
      </trkpt>
      <trkpt lat="48.16416" lon="-3.3094">
        <ele>214.7</ele>
        <time>2024-11-20T14:47:37Z</time>
      </trkpt>
      <trkpt lat="48.16418" lon="-3.3094">
        <ele>214.7</ele>
        <time>2024-11-20T14:47:38Z</time>
      </trkpt>
      <trkpt lat="48.1642" lon="-3.3094">
        <ele>214.7</ele>
        <time>2024-11-20T14:47:39Z</time>
      </trkpt>
      <trkpt lat="48.16421" lon="-3.3094">
        <ele>214.7</ele>
        <time>2024-11-20T14:47:40Z</time>
      </trkpt>
      <trkpt lat="48.16422" lon="-3.3094">
        <ele>214.7</ele>
        <time>2024-11-20T14:47:41Z</time>
      </trkpt>
      <trkpt lat="48.16423" lon="-3.3094">
        <ele>214.6</ele>
        <time>2024-11-20T14:47:42Z</time>
      </trkpt>
      <trkpt lat="48.16424" lon="-3.30939">
        <ele>214.6</ele>
        <time>2024-11-20T14:47:43Z</time>
      </trkpt>
      <trkpt lat="48.16425" lon="-3.30939">
        <ele>214.6</ele>
        <time>2024-11-20T14:47:44Z</time>
      </trkpt>
      <trkpt lat="48.16425" lon="-3.30938">
        <ele>214.5</ele>
        <time>2024-11-20T14:47:45Z</time>
      </trkpt>
      <trkpt lat="48.16427" lon="-3.30938">
        <ele>214.5</ele>
        <time>2024-11-20T14:47:46Z</time>
      </trkpt>
      <trkpt lat="48.16428" lon="-3.30938">
        <ele>214.5</ele>
        <time>2024-11-20T14:47:47Z</time>
      </trkpt>
      <trkpt lat="48.1643" lon="-3.30938">
        <ele>214.5</ele>
        <time>2024-11-20T14:47:48Z</time>
      </trkpt>
      <trkpt lat="48.16431" lon="-3.30938">
        <ele>214.5</ele>
        <time>2024-11-20T14:47:49Z</time>
      </trkpt>
      <trkpt lat="48.16432" lon="-3.30938">
        <ele>214.5</ele>
        <time>2024-11-20T14:47:50Z</time>
      </trkpt>
      <trkpt lat="48.16432" lon="-3.30938">
        <ele>214.5</ele>
        <time>2024-11-20T14:47:51Z</time>
      </trkpt>
      <trkpt lat="48.16433" lon="-3.30938">
        <ele>214.5</ele>
        <time>2024-11-20T14:47:52Z</time>
      </trkpt>
      <trkpt lat="48.16434" lon="-3.30938">
        <ele>214.5</ele>
        <time>2024-11-20T14:47:53Z</time>
      </trkpt>
      <trkpt lat="48.16435" lon="-3.30938">
        <ele>214.6</ele>
        <time>2024-11-20T14:47:54Z</time>
      </trkpt>
      <trkpt lat="48.16436" lon="-3.30938">
        <ele>214.5</ele>
        <time>2024-11-20T14:47:55Z</time>
      </trkpt>
      <trkpt lat="48.16437" lon="-3.30938">
        <ele>214.5</ele>
        <time>2024-11-20T14:47:56Z</time>
      </trkpt>
      <trkpt lat="48.16438" lon="-3.30937">
        <ele>214.5</ele>
        <time>2024-11-20T14:47:57Z</time>
      </trkpt>
      <trkpt lat="48.16439" lon="-3.30938">
        <ele>214.5</ele>
        <time>2024-11-20T14:47:58Z</time>
      </trkpt>
      <trkpt lat="48.1644" lon="-3.30938">
        <ele>214.5</ele>
        <time>2024-11-20T14:47:59Z</time>
      </trkpt>
      <trkpt lat="48.16441" lon="-3.30938">
        <ele>214.6</ele>
        <time>2024-11-20T14:48:00Z</time>
      </trkpt>
      <trkpt lat="48.16442" lon="-3.30938">
        <ele>214.5</ele>
        <time>2024-11-20T14:48:01Z</time>
      </trkpt>
      <trkpt lat="48.16443" lon="-3.30938">
        <ele>214.5</ele>
        <time>2024-11-20T14:48:02Z</time>
      </trkpt>
      <trkpt lat="48.16444" lon="-3.30938">
        <ele>214.5</ele>
        <time>2024-11-20T14:48:03Z</time>
      </trkpt>
      <trkpt lat="48.16445" lon="-3.30938">
        <ele>214.5</ele>
        <time>2024-11-20T14:48:04Z</time>
      </trkpt>
      <trkpt lat="48.16446" lon="-3.30938">
        <ele>214.5</ele>
        <time>2024-11-20T14:48:05Z</time>
      </trkpt>
      <trkpt lat="48.16448" lon="-3.30937">
        <ele>214.5</ele>
        <time>2024-11-20T14:48:06Z</time>
      </trkpt>
      <trkpt lat="48.16449" lon="-3.30937">
        <ele>214.4</ele>
        <time>2024-11-20T14:48:07Z</time>
      </trkpt>
      <trkpt lat="48.1645" lon="-3.30936">
        <ele>214.3</ele>
        <time>2024-11-20T14:48:08Z</time>
      </trkpt>
      <trkpt lat="48.16452" lon="-3.30935">
        <ele>214.3</ele>
        <time>2024-11-20T14:48:09Z</time>
      </trkpt>
      <trkpt lat="48.16453" lon="-3.30936">
        <ele>214.3</ele>
        <time>2024-11-20T14:48:10Z</time>
      </trkpt>
      <trkpt lat="48.16455" lon="-3.30936">
        <ele>214.3</ele>
        <time>2024-11-20T14:48:11Z</time>
      </trkpt>
      <trkpt lat="48.16457" lon="-3.30936">
        <ele>214.2</ele>
        <time>2024-11-20T14:48:12Z</time>
      </trkpt>
      <trkpt lat="48.16458" lon="-3.30935">
        <ele>214.2</ele>
        <time>2024-11-20T14:48:13Z</time>
      </trkpt>
      <trkpt lat="48.16459" lon="-3.30935">
        <ele>214.2</ele>
        <time>2024-11-20T14:48:14Z</time>
      </trkpt>
      <trkpt lat="48.16461" lon="-3.30935">
        <ele>214.1</ele>
        <time>2024-11-20T14:48:15Z</time>
      </trkpt>
      <trkpt lat="48.16462" lon="-3.30935">
        <ele>214.1</ele>
        <time>2024-11-20T14:48:16Z</time>
      </trkpt>
      <trkpt lat="48.16463" lon="-3.30934">
        <ele>214</ele>
        <time>2024-11-20T14:48:17Z</time>
      </trkpt>
      <trkpt lat="48.16465" lon="-3.30934">
        <ele>214</ele>
        <time>2024-11-20T14:48:18Z</time>
      </trkpt>
      <trkpt lat="48.16466" lon="-3.30933">
        <ele>213.9</ele>
        <time>2024-11-20T14:48:19Z</time>
      </trkpt>
      <trkpt lat="48.16467" lon="-3.30933">
        <ele>213.9</ele>
        <time>2024-11-20T14:48:20Z</time>
      </trkpt>
      <trkpt lat="48.16468" lon="-3.30933">
        <ele>213.8</ele>
        <time>2024-11-20T14:48:21Z</time>
      </trkpt>
      <trkpt lat="48.16469" lon="-3.30933">
        <ele>213.8</ele>
        <time>2024-11-20T14:48:22Z</time>
      </trkpt>
      <trkpt lat="48.1647" lon="-3.30933">
        <ele>213.8</ele>
        <time>2024-11-20T14:48:23Z</time>
      </trkpt>
      <trkpt lat="48.16471" lon="-3.30932">
        <ele>213.7</ele>
        <time>2024-11-20T14:48:24Z</time>
      </trkpt>
      <trkpt lat="48.16471" lon="-3.30932">
        <ele>213.7</ele>
        <time>2024-11-20T14:48:25Z</time>
      </trkpt>
      <trkpt lat="48.16471" lon="-3.30932">
        <ele>213.6</ele>
        <time>2024-11-20T14:48:26Z</time>
      </trkpt>
      <trkpt lat="48.16472" lon="-3.30931">
        <ele>213.6</ele>
        <time>2024-11-20T14:48:27Z</time>
      </trkpt>
      <trkpt lat="48.16474" lon="-3.30931">
        <ele>213.6</ele>
        <time>2024-11-20T14:48:28Z</time>
      </trkpt>
      <trkpt lat="48.16475" lon="-3.30931">
        <ele>213.6</ele>
        <time>2024-11-20T14:48:29Z</time>
      </trkpt>
      <trkpt lat="48.16476" lon="-3.30931">
        <ele>213.6</ele>
        <time>2024-11-20T14:48:30Z</time>
      </trkpt>
      <trkpt lat="48.16477" lon="-3.30931">
        <ele>213.6</ele>
        <time>2024-11-20T14:48:31Z</time>
      </trkpt>
      <trkpt lat="48.16479" lon="-3.30931">
        <ele>213.6</ele>
        <time>2024-11-20T14:48:32Z</time>
      </trkpt>
      <trkpt lat="48.16479" lon="-3.30931">
        <ele>213.6</ele>
        <time>2024-11-20T14:48:33Z</time>
      </trkpt>
      <trkpt lat="48.1648" lon="-3.30931">
        <ele>213.6</ele>
        <time>2024-11-20T14:48:34Z</time>
      </trkpt>
      <trkpt lat="48.1648" lon="-3.30932">
        <ele>213.6</ele>
        <time>2024-11-20T14:48:35Z</time>
      </trkpt>
      <trkpt lat="48.16481" lon="-3.30932">
        <ele>213.7</ele>
        <time>2024-11-20T14:48:36Z</time>
      </trkpt>
      <trkpt lat="48.16482" lon="-3.30933">
        <ele>213.8</ele>
        <time>2024-11-20T14:48:37Z</time>
      </trkpt>
      <trkpt lat="48.16483" lon="-3.30933">
        <ele>213.8</ele>
        <time>2024-11-20T14:48:38Z</time>
      </trkpt>
      <trkpt lat="48.16483" lon="-3.30933">
        <ele>213.8</ele>
        <time>2024-11-20T14:48:39Z</time>
      </trkpt>
      <trkpt lat="48.16484" lon="-3.30934">
        <ele>213.9</ele>
        <time>2024-11-20T14:48:40Z</time>
      </trkpt>
      <trkpt lat="48.16486" lon="-3.30935">
        <ele>213.9</ele>
        <time>2024-11-20T14:48:41Z</time>
      </trkpt>
      <trkpt lat="48.16487" lon="-3.30935">
        <ele>214</ele>
        <time>2024-11-20T14:48:42Z</time>
      </trkpt>
      <trkpt lat="48.16488" lon="-3.30935">
        <ele>214</ele>
        <time>2024-11-20T14:48:43Z</time>
      </trkpt>
      <trkpt lat="48.16489" lon="-3.30935">
        <ele>213.9</ele>
        <time>2024-11-20T14:48:44Z</time>
      </trkpt>
      <trkpt lat="48.1649" lon="-3.30934">
        <ele>213.9</ele>
        <time>2024-11-20T14:48:45Z</time>
      </trkpt>
      <trkpt lat="48.16492" lon="-3.30934">
        <ele>213.8</ele>
        <time>2024-11-20T14:48:46Z</time>
      </trkpt>
      <trkpt lat="48.16493" lon="-3.30933">
        <ele>213.8</ele>
        <time>2024-11-20T14:48:47Z</time>
      </trkpt>
      <trkpt lat="48.16494" lon="-3.30933">
        <ele>213.8</ele>
        <time>2024-11-20T14:48:48Z</time>
      </trkpt>
      <trkpt lat="48.16495" lon="-3.30933">
        <ele>213.8</ele>
        <time>2024-11-20T14:48:49Z</time>
      </trkpt>
      <trkpt lat="48.16495" lon="-3.30933">
        <ele>213.8</ele>
        <time>2024-11-20T14:48:50Z</time>
      </trkpt>
      <trkpt lat="48.16497" lon="-3.30933">
        <ele>213.8</ele>
        <time>2024-11-20T14:48:51Z</time>
      </trkpt>
      <trkpt lat="48.16498" lon="-3.30933">
        <ele>213.8</ele>
        <time>2024-11-20T14:48:52Z</time>
      </trkpt>
      <trkpt lat="48.165" lon="-3.30934">
        <ele>213.9</ele>
        <time>2024-11-20T14:48:53Z</time>
      </trkpt>
      <trkpt lat="48.16501" lon="-3.30934">
        <ele>214</ele>
        <time>2024-11-20T14:48:54Z</time>
      </trkpt>
      <trkpt lat="48.16503" lon="-3.30935">
        <ele>214.1</ele>
        <time>2024-11-20T14:48:55Z</time>
      </trkpt>
      <trkpt lat="48.16504" lon="-3.30936">
        <ele>214.2</ele>
        <time>2024-11-20T14:48:56Z</time>
      </trkpt>
      <trkpt lat="48.16506" lon="-3.30937">
        <ele>214.3</ele>
        <time>2024-11-20T14:48:57Z</time>
      </trkpt>
      <trkpt lat="48.16507" lon="-3.30937">
        <ele>214.5</ele>
        <time>2024-11-20T14:48:58Z</time>
      </trkpt>
      <trkpt lat="48.16509" lon="-3.30938">
        <ele>214.6</ele>
        <time>2024-11-20T14:48:59Z</time>
      </trkpt>
      <trkpt lat="48.1651" lon="-3.30939">
        <ele>214.8</ele>
        <time>2024-11-20T14:49:00Z</time>
      </trkpt>
      <trkpt lat="48.16513" lon="-3.3094">
        <ele>214.9</ele>
        <time>2024-11-20T14:49:01Z</time>
      </trkpt>
      <trkpt lat="48.16514" lon="-3.3094">
        <ele>215.1</ele>
        <time>2024-11-20T14:49:02Z</time>
      </trkpt>
      <trkpt lat="48.16514" lon="-3.30941">
        <ele>215.1</ele>
        <time>2024-11-20T14:49:03Z</time>
      </trkpt>
      <trkpt lat="48.16516" lon="-3.30941">
        <ele>215.2</ele>
        <time>2024-11-20T14:49:04Z</time>
      </trkpt>
      <trkpt lat="48.16517" lon="-3.30941">
        <ele>215.3</ele>
        <time>2024-11-20T14:49:05Z</time>
      </trkpt>
      <trkpt lat="48.16518" lon="-3.30941">
        <ele>215.3</ele>
        <time>2024-11-20T14:49:06Z</time>
      </trkpt>
      <trkpt lat="48.16519" lon="-3.30941">
        <ele>215.3</ele>
        <time>2024-11-20T14:49:07Z</time>
      </trkpt>
      <trkpt lat="48.1652" lon="-3.30941">
        <ele>215.3</ele>
        <time>2024-11-20T14:49:08Z</time>
      </trkpt>
      <trkpt lat="48.16521" lon="-3.30941">
        <ele>215.4</ele>
        <time>2024-11-20T14:49:09Z</time>
      </trkpt>
      <trkpt lat="48.16523" lon="-3.30941">
        <ele>215.4</ele>
        <time>2024-11-20T14:49:10Z</time>
      </trkpt>
      <trkpt lat="48.16524" lon="-3.30941">
        <ele>215.5</ele>
        <time>2024-11-20T14:49:11Z</time>
      </trkpt>
      <trkpt lat="48.16525" lon="-3.30942">
        <ele>215.6</ele>
        <time>2024-11-20T14:49:12Z</time>
      </trkpt>
      <trkpt lat="48.16526" lon="-3.30942">
        <ele>215.7</ele>
        <time>2024-11-20T14:49:13Z</time>
      </trkpt>
      <trkpt lat="48.16527" lon="-3.30942">
        <ele>215.7</ele>
        <time>2024-11-20T14:49:14Z</time>
      </trkpt>
      <trkpt lat="48.16528" lon="-3.30942">
        <ele>215.8</ele>
        <time>2024-11-20T14:49:15Z</time>
      </trkpt>
      <trkpt lat="48.16529" lon="-3.30942">
        <ele>215.7</ele>
        <time>2024-11-20T14:49:16Z</time>
      </trkpt>
      <trkpt lat="48.1653" lon="-3.30942">
        <ele>215.7</ele>
        <time>2024-11-20T14:49:17Z</time>
      </trkpt>
      <trkpt lat="48.16531" lon="-3.30942">
        <ele>215.7</ele>
        <time>2024-11-20T14:49:18Z</time>
      </trkpt>
      <trkpt lat="48.16531" lon="-3.30942">
        <ele>215.7</ele>
        <time>2024-11-20T14:49:19Z</time>
      </trkpt>
      <trkpt lat="48.16532" lon="-3.30942">
        <ele>215.6</ele>
        <time>2024-11-20T14:49:20Z</time>
      </trkpt>
      <trkpt lat="48.16534" lon="-3.30941">
        <ele>215.5</ele>
        <time>2024-11-20T14:49:21Z</time>
      </trkpt>
      <trkpt lat="48.16535" lon="-3.30941">
        <ele>215.4</ele>
        <time>2024-11-20T14:49:22Z</time>
      </trkpt>
      <trkpt lat="48.16536" lon="-3.30941">
        <ele>215.4</ele>
        <time>2024-11-20T14:49:23Z</time>
      </trkpt>
      <trkpt lat="48.16537" lon="-3.3094">
        <ele>215.3</ele>
        <time>2024-11-20T14:49:24Z</time>
      </trkpt>
      <trkpt lat="48.16538" lon="-3.30941">
        <ele>215.3</ele>
        <time>2024-11-20T14:49:25Z</time>
      </trkpt>
      <trkpt lat="48.16539" lon="-3.30941">
        <ele>215.2</ele>
        <time>2024-11-20T14:49:26Z</time>
      </trkpt>
      <trkpt lat="48.16541" lon="-3.30941">
        <ele>215.2</ele>
        <time>2024-11-20T14:49:27Z</time>
      </trkpt>
      <trkpt lat="48.16542" lon="-3.30942">
        <ele>215.2</ele>
        <time>2024-11-20T14:49:28Z</time>
      </trkpt>
      <trkpt lat="48.16544" lon="-3.30942">
        <ele>215.2</ele>
        <time>2024-11-20T14:49:29Z</time>
      </trkpt>
      <trkpt lat="48.16545" lon="-3.30942">
        <ele>215.2</ele>
        <time>2024-11-20T14:49:30Z</time>
      </trkpt>
      <trkpt lat="48.16545" lon="-3.30942">
        <ele>215.1</ele>
        <time>2024-11-20T14:49:31Z</time>
      </trkpt>
      <trkpt lat="48.16546" lon="-3.30942">
        <ele>215.1</ele>
        <time>2024-11-20T14:49:32Z</time>
      </trkpt>
      <trkpt lat="48.16547" lon="-3.30942">
        <ele>215.1</ele>
        <time>2024-11-20T14:49:33Z</time>
      </trkpt>
      <trkpt lat="48.16548" lon="-3.30942">
        <ele>215.1</ele>
        <time>2024-11-20T14:49:34Z</time>
      </trkpt>
      <trkpt lat="48.16549" lon="-3.30943">
        <ele>215.1</ele>
        <time>2024-11-20T14:49:35Z</time>
      </trkpt>
      <trkpt lat="48.1655" lon="-3.30943">
        <ele>215.1</ele>
        <time>2024-11-20T14:49:36Z</time>
      </trkpt>
      <trkpt lat="48.16551" lon="-3.30943">
        <ele>215.1</ele>
        <time>2024-11-20T14:49:37Z</time>
      </trkpt>
      <trkpt lat="48.16553" lon="-3.30943">
        <ele>215</ele>
        <time>2024-11-20T14:49:38Z</time>
      </trkpt>
      <trkpt lat="48.16554" lon="-3.30942">
        <ele>214.9</ele>
        <time>2024-11-20T14:49:39Z</time>
      </trkpt>
      <trkpt lat="48.16555" lon="-3.30942">
        <ele>214.9</ele>
        <time>2024-11-20T14:49:40Z</time>
      </trkpt>
      <trkpt lat="48.16556" lon="-3.30942">
        <ele>214.8</ele>
        <time>2024-11-20T14:49:41Z</time>
      </trkpt>
      <trkpt lat="48.16558" lon="-3.30943">
        <ele>214.9</ele>
        <time>2024-11-20T14:49:42Z</time>
      </trkpt>
      <trkpt lat="48.16559" lon="-3.30943">
        <ele>214.9</ele>
        <time>2024-11-20T14:49:43Z</time>
      </trkpt>
      <trkpt lat="48.1656" lon="-3.30943">
        <ele>214.9</ele>
        <time>2024-11-20T14:49:44Z</time>
      </trkpt>
      <trkpt lat="48.1656" lon="-3.30943">
        <ele>214.9</ele>
        <time>2024-11-20T14:49:45Z</time>
      </trkpt>
      <trkpt lat="48.16561" lon="-3.30943">
        <ele>214.9</ele>
        <time>2024-11-20T14:49:46Z</time>
      </trkpt>
      <trkpt lat="48.16562" lon="-3.30943">
        <ele>214.9</ele>
        <time>2024-11-20T14:49:47Z</time>
      </trkpt>
      <trkpt lat="48.16565" lon="-3.30942">
        <ele>214.8</ele>
        <time>2024-11-20T14:49:49Z</time>
      </trkpt>
      <trkpt lat="48.16566" lon="-3.30942">
        <ele>214.8</ele>
        <time>2024-11-20T14:49:50Z</time>
      </trkpt>
      <trkpt lat="48.16567" lon="-3.30942">
        <ele>214.8</ele>
        <time>2024-11-20T14:49:51Z</time>
      </trkpt>
      <trkpt lat="48.16569" lon="-3.30942">
        <ele>214.8</ele>
        <time>2024-11-20T14:49:52Z</time>
      </trkpt>
      <trkpt lat="48.1657" lon="-3.30942">
        <ele>214.8</ele>
        <time>2024-11-20T14:49:53Z</time>
      </trkpt>
      <trkpt lat="48.16572" lon="-3.30942">
        <ele>214.8</ele>
        <time>2024-11-20T14:49:54Z</time>
      </trkpt>
      <trkpt lat="48.16573" lon="-3.30943">
        <ele>214.9</ele>
        <time>2024-11-20T14:49:55Z</time>
      </trkpt>
      <trkpt lat="48.16574" lon="-3.30943">
        <ele>214.9</ele>
        <time>2024-11-20T14:49:56Z</time>
      </trkpt>
      <trkpt lat="48.16576" lon="-3.30944">
        <ele>215</ele>
        <time>2024-11-20T14:49:57Z</time>
      </trkpt>
      <trkpt lat="48.16577" lon="-3.30945">
        <ele>215</ele>
        <time>2024-11-20T14:49:58Z</time>
      </trkpt>
      <trkpt lat="48.16579" lon="-3.30945">
        <ele>215</ele>
        <time>2024-11-20T14:49:59Z</time>
      </trkpt>
      <trkpt lat="48.1658" lon="-3.30945">
        <ele>215.1</ele>
        <time>2024-11-20T14:50:00Z</time>
      </trkpt>
      <trkpt lat="48.16581" lon="-3.30945">
        <ele>215.1</ele>
        <time>2024-11-20T14:50:01Z</time>
      </trkpt>
      <trkpt lat="48.16582" lon="-3.30945">
        <ele>215.1</ele>
        <time>2024-11-20T14:50:02Z</time>
      </trkpt>
      <trkpt lat="48.16582" lon="-3.30945">
        <ele>215</ele>
        <time>2024-11-20T14:50:03Z</time>
      </trkpt>
      <trkpt lat="48.16584" lon="-3.30945">
        <ele>215</ele>
        <time>2024-11-20T14:50:04Z</time>
      </trkpt>
      <trkpt lat="48.16585" lon="-3.30945">
        <ele>215</ele>
        <time>2024-11-20T14:50:05Z</time>
      </trkpt>
      <trkpt lat="48.16586" lon="-3.30945">
        <ele>215</ele>
        <time>2024-11-20T14:50:06Z</time>
      </trkpt>
      <trkpt lat="48.16587" lon="-3.30946">
        <ele>214.9</ele>
        <time>2024-11-20T14:50:07Z</time>
      </trkpt>
      <trkpt lat="48.16588" lon="-3.30946">
        <ele>214.9</ele>
        <time>2024-11-20T14:50:08Z</time>
      </trkpt>
      <trkpt lat="48.1659" lon="-3.30946">
        <ele>214.9</ele>
        <time>2024-11-20T14:50:09Z</time>
      </trkpt>
      <trkpt lat="48.16591" lon="-3.30947">
        <ele>214.9</ele>
        <time>2024-11-20T14:50:10Z</time>
      </trkpt>
      <trkpt lat="48.16592" lon="-3.30947">
        <ele>214.9</ele>
        <time>2024-11-20T14:50:11Z</time>
      </trkpt>
      <trkpt lat="48.16593" lon="-3.30948">
        <ele>214.9</ele>
        <time>2024-11-20T14:50:12Z</time>
      </trkpt>
      <trkpt lat="48.16594" lon="-3.30949">
        <ele>214.9</ele>
        <time>2024-11-20T14:50:13Z</time>
      </trkpt>
      <trkpt lat="48.16595" lon="-3.3095">
        <ele>214.9</ele>
        <time>2024-11-20T14:50:14Z</time>
      </trkpt>
      <trkpt lat="48.16595" lon="-3.3095">
        <ele>214.9</ele>
        <time>2024-11-20T14:50:15Z</time>
      </trkpt>
      <trkpt lat="48.16596" lon="-3.30951">
        <ele>214.9</ele>
        <time>2024-11-20T14:50:16Z</time>
      </trkpt>
      <trkpt lat="48.16597" lon="-3.30952">
        <ele>214.9</ele>
        <time>2024-11-20T14:50:17Z</time>
      </trkpt>
      <trkpt lat="48.16598" lon="-3.30953">
        <ele>214.9</ele>
        <time>2024-11-20T14:50:18Z</time>
      </trkpt>
      <trkpt lat="48.16599" lon="-3.30954">
        <ele>214.9</ele>
        <time>2024-11-20T14:50:19Z</time>
      </trkpt>
      <trkpt lat="48.166" lon="-3.30955">
        <ele>214.9</ele>
        <time>2024-11-20T14:50:20Z</time>
      </trkpt>
      <trkpt lat="48.16601" lon="-3.30956">
        <ele>215</ele>
        <time>2024-11-20T14:50:21Z</time>
      </trkpt>
      <trkpt lat="48.16601" lon="-3.30957">
        <ele>215</ele>
        <time>2024-11-20T14:50:22Z</time>
      </trkpt>
      <trkpt lat="48.16602" lon="-3.30958">
        <ele>215</ele>
        <time>2024-11-20T14:50:23Z</time>
      </trkpt>
      <trkpt lat="48.16603" lon="-3.30959">
        <ele>215</ele>
        <time>2024-11-20T14:50:24Z</time>
      </trkpt>
      <trkpt lat="48.16604" lon="-3.30959">
        <ele>214.9</ele>
        <time>2024-11-20T14:50:25Z</time>
      </trkpt>
      <trkpt lat="48.16605" lon="-3.3096">
        <ele>214.9</ele>
        <time>2024-11-20T14:50:26Z</time>
      </trkpt>
      <trkpt lat="48.16606" lon="-3.30961">
        <ele>214.9</ele>
        <time>2024-11-20T14:50:27Z</time>
      </trkpt>
      <trkpt lat="48.16606" lon="-3.30963">
        <ele>214.9</ele>
        <time>2024-11-20T14:50:28Z</time>
      </trkpt>
      <trkpt lat="48.16606" lon="-3.30964">
        <ele>215</ele>
        <time>2024-11-20T14:50:29Z</time>
      </trkpt>
      <trkpt lat="48.16607" lon="-3.30965">
        <ele>215</ele>
        <time>2024-11-20T14:50:30Z</time>
      </trkpt>
      <trkpt lat="48.16608" lon="-3.30966">
        <ele>215</ele>
        <time>2024-11-20T14:50:31Z</time>
      </trkpt>
      <trkpt lat="48.16609" lon="-3.30967">
        <ele>214.9</ele>
        <time>2024-11-20T14:50:32Z</time>
      </trkpt>
      <trkpt lat="48.1661" lon="-3.30967">
        <ele>214.9</ele>
        <time>2024-11-20T14:50:33Z</time>
      </trkpt>
      <trkpt lat="48.16611" lon="-3.30968">
        <ele>214.9</ele>
        <time>2024-11-20T14:50:34Z</time>
      </trkpt>
      <trkpt lat="48.16612" lon="-3.30969">
        <ele>214.9</ele>
        <time>2024-11-20T14:50:35Z</time>
      </trkpt>
      <trkpt lat="48.16613" lon="-3.30971">
        <ele>215</ele>
        <time>2024-11-20T14:50:36Z</time>
      </trkpt>
      <trkpt lat="48.16614" lon="-3.30972">
        <ele>215.1</ele>
        <time>2024-11-20T14:50:37Z</time>
      </trkpt>
      <trkpt lat="48.16614" lon="-3.30974">
        <ele>215.2</ele>
        <time>2024-11-20T14:50:38Z</time>
      </trkpt>
      <trkpt lat="48.16615" lon="-3.30975">
        <ele>215.3</ele>
        <time>2024-11-20T14:50:39Z</time>
      </trkpt>
      <trkpt lat="48.16617" lon="-3.30977">
        <ele>215.5</ele>
        <time>2024-11-20T14:50:40Z</time>
      </trkpt>
      <trkpt lat="48.16618" lon="-3.30978">
        <ele>215.6</ele>
        <time>2024-11-20T14:50:41Z</time>
      </trkpt>
      <trkpt lat="48.16619" lon="-3.30979">
        <ele>215.7</ele>
        <time>2024-11-20T14:50:42Z</time>
      </trkpt>
      <trkpt lat="48.1662" lon="-3.3098">
        <ele>215.8</ele>
        <time>2024-11-20T14:50:43Z</time>
      </trkpt>
      <trkpt lat="48.16621" lon="-3.30981">
        <ele>215.9</ele>
        <time>2024-11-20T14:50:44Z</time>
      </trkpt>
      <trkpt lat="48.16621" lon="-3.30982">
        <ele>215.9</ele>
        <time>2024-11-20T14:50:45Z</time>
      </trkpt>
      <trkpt lat="48.16622" lon="-3.30983">
        <ele>216</ele>
        <time>2024-11-20T14:50:46Z</time>
      </trkpt>
      <trkpt lat="48.16623" lon="-3.30984">
        <ele>216.1</ele>
        <time>2024-11-20T14:50:47Z</time>
      </trkpt>
      <trkpt lat="48.16624" lon="-3.30985">
        <ele>216.1</ele>
        <time>2024-11-20T14:50:48Z</time>
      </trkpt>
      <trkpt lat="48.16624" lon="-3.30985">
        <ele>216.2</ele>
        <time>2024-11-20T14:50:49Z</time>
      </trkpt>
      <trkpt lat="48.16625" lon="-3.30987">
        <ele>216.3</ele>
        <time>2024-11-20T14:50:50Z</time>
      </trkpt>
      <trkpt lat="48.16626" lon="-3.30988">
        <ele>216.4</ele>
        <time>2024-11-20T14:50:51Z</time>
      </trkpt>
      <trkpt lat="48.16626" lon="-3.3099">
        <ele>216.5</ele>
        <time>2024-11-20T14:50:52Z</time>
      </trkpt>
      <trkpt lat="48.16626" lon="-3.30992">
        <ele>216.6</ele>
        <time>2024-11-20T14:50:53Z</time>
      </trkpt>
      <trkpt lat="48.16626" lon="-3.30992">
        <ele>216.6</ele>
        <time>2024-11-20T14:50:54Z</time>
      </trkpt>
      <trkpt lat="48.16626" lon="-3.30993">
        <ele>216.6</ele>
        <time>2024-11-20T14:50:55Z</time>
      </trkpt>
      <trkpt lat="48.16627" lon="-3.30994">
        <ele>216.7</ele>
        <time>2024-11-20T14:50:56Z</time>
      </trkpt>
      <trkpt lat="48.16627" lon="-3.30995">
        <ele>216.8</ele>
        <time>2024-11-20T14:50:57Z</time>
      </trkpt>
      <trkpt lat="48.16629" lon="-3.30997">
        <ele>216.8</ele>
        <time>2024-11-20T14:50:58Z</time>
      </trkpt>
      <trkpt lat="48.1663" lon="-3.30999">
        <ele>216.9</ele>
        <time>2024-11-20T14:50:59Z</time>
      </trkpt>
      <trkpt lat="48.16631" lon="-3.31001">
        <ele>217.1</ele>
        <time>2024-11-20T14:51:00Z</time>
      </trkpt>
      <trkpt lat="48.16632" lon="-3.31003">
        <ele>217.3</ele>
        <time>2024-11-20T14:51:01Z</time>
      </trkpt>
      <trkpt lat="48.16633" lon="-3.31005">
        <ele>217.4</ele>
        <time>2024-11-20T14:51:02Z</time>
      </trkpt>
      <trkpt lat="48.16634" lon="-3.31006">
        <ele>217.5</ele>
        <time>2024-11-20T14:51:03Z</time>
      </trkpt>
      <trkpt lat="48.16635" lon="-3.31007">
        <ele>217.6</ele>
        <time>2024-11-20T14:51:04Z</time>
      </trkpt>
      <trkpt lat="48.16636" lon="-3.31008">
        <ele>217.7</ele>
        <time>2024-11-20T14:51:05Z</time>
      </trkpt>
      <trkpt lat="48.16636" lon="-3.3101">
        <ele>217.7</ele>
        <time>2024-11-20T14:51:06Z</time>
      </trkpt>
      <trkpt lat="48.16637" lon="-3.31011">
        <ele>217.8</ele>
        <time>2024-11-20T14:51:07Z</time>
      </trkpt>
      <trkpt lat="48.16638" lon="-3.31012">
        <ele>217.9</ele>
        <time>2024-11-20T14:51:08Z</time>
      </trkpt>
      <trkpt lat="48.16639" lon="-3.31013">
        <ele>218</ele>
        <time>2024-11-20T14:51:09Z</time>
      </trkpt>
      <trkpt lat="48.16639" lon="-3.31014">
        <ele>218.1</ele>
        <time>2024-11-20T14:51:10Z</time>
      </trkpt>
      <trkpt lat="48.1664" lon="-3.31015">
        <ele>218.1</ele>
        <time>2024-11-20T14:51:11Z</time>
      </trkpt>
      <trkpt lat="48.16641" lon="-3.31015">
        <ele>218.2</ele>
        <time>2024-11-20T14:51:12Z</time>
      </trkpt>
      <trkpt lat="48.16642" lon="-3.31015">
        <ele>218.3</ele>
        <time>2024-11-20T14:51:13Z</time>
      </trkpt>
      <trkpt lat="48.16643" lon="-3.31015">
        <ele>218.4</ele>
        <time>2024-11-20T14:51:14Z</time>
      </trkpt>
      <trkpt lat="48.16644" lon="-3.31016">
        <ele>218.5</ele>
        <time>2024-11-20T14:51:15Z</time>
      </trkpt>
      <trkpt lat="48.16645" lon="-3.31017">
        <ele>218.6</ele>
        <time>2024-11-20T14:51:16Z</time>
      </trkpt>
      <trkpt lat="48.16646" lon="-3.31018">
        <ele>218.7</ele>
        <time>2024-11-20T14:51:17Z</time>
      </trkpt>
      <trkpt lat="48.16646" lon="-3.31019">
        <ele>218.8</ele>
        <time>2024-11-20T14:51:18Z</time>
      </trkpt>
      <trkpt lat="48.16647" lon="-3.31021">
        <ele>218.9</ele>
        <time>2024-11-20T14:51:19Z</time>
      </trkpt>
      <trkpt lat="48.16647" lon="-3.31022">
        <ele>219</ele>
        <time>2024-11-20T14:51:20Z</time>
      </trkpt>
      <trkpt lat="48.16648" lon="-3.31023">
        <ele>219.1</ele>
        <time>2024-11-20T14:51:21Z</time>
      </trkpt>
      <trkpt lat="48.16649" lon="-3.31025">
        <ele>219.2</ele>
        <time>2024-11-20T14:51:22Z</time>
      </trkpt>
      <trkpt lat="48.16649" lon="-3.31026">
        <ele>219.3</ele>
        <time>2024-11-20T14:51:23Z</time>
      </trkpt>
      <trkpt lat="48.1665" lon="-3.31027">
        <ele>219.4</ele>
        <time>2024-11-20T14:51:24Z</time>
      </trkpt>
      <trkpt lat="48.16651" lon="-3.31029">
        <ele>219.6</ele>
        <time>2024-11-20T14:51:25Z</time>
      </trkpt>
      <trkpt lat="48.16652" lon="-3.3103">
        <ele>219.8</ele>
        <time>2024-11-20T14:51:26Z</time>
      </trkpt>
      <trkpt lat="48.16653" lon="-3.31031">
        <ele>219.9</ele>
        <time>2024-11-20T14:51:27Z</time>
      </trkpt>
      <trkpt lat="48.16654" lon="-3.31031">
        <ele>219.9</ele>
        <time>2024-11-20T14:51:28Z</time>
      </trkpt>
      <trkpt lat="48.16655" lon="-3.31031">
        <ele>220</ele>
        <time>2024-11-20T14:51:29Z</time>
      </trkpt>
      <trkpt lat="48.16655" lon="-3.31031">
        <ele>220</ele>
        <time>2024-11-20T14:51:30Z</time>
      </trkpt>
      <trkpt lat="48.16655" lon="-3.31031">
        <ele>220</ele>
        <time>2024-11-20T14:51:31Z</time>
      </trkpt>
      <trkpt lat="48.16655" lon="-3.31031">
        <ele>220</ele>
        <time>2024-11-20T14:51:32Z</time>
      </trkpt>
      <trkpt lat="48.16656" lon="-3.31032">
        <ele>220.1</ele>
        <time>2024-11-20T14:51:33Z</time>
      </trkpt>
      <trkpt lat="48.16657" lon="-3.31034">
        <ele>220.3</ele>
        <time>2024-11-20T14:51:34Z</time>
      </trkpt>
      <trkpt lat="48.16658" lon="-3.31035">
        <ele>220.5</ele>
        <time>2024-11-20T14:51:35Z</time>
      </trkpt>
      <trkpt lat="48.16659" lon="-3.31036">
        <ele>220.6</ele>
        <time>2024-11-20T14:51:36Z</time>
      </trkpt>
      <trkpt lat="48.1666" lon="-3.31037">
        <ele>220.7</ele>
        <time>2024-11-20T14:51:37Z</time>
      </trkpt>
      <trkpt lat="48.16661" lon="-3.31038">
        <ele>220.7</ele>
        <time>2024-11-20T14:51:38Z</time>
      </trkpt>
      <trkpt lat="48.16663" lon="-3.31039">
        <ele>220.8</ele>
        <time>2024-11-20T14:51:39Z</time>
      </trkpt>
      <trkpt lat="48.16664" lon="-3.31039">
        <ele>220.9</ele>
        <time>2024-11-20T14:51:40Z</time>
      </trkpt>
      <trkpt lat="48.16666" lon="-3.3104">
        <ele>220.9</ele>
        <time>2024-11-20T14:51:41Z</time>
      </trkpt>
      <trkpt lat="48.16667" lon="-3.3104">
        <ele>220.9</ele>
        <time>2024-11-20T14:51:42Z</time>
      </trkpt>
      <trkpt lat="48.16668" lon="-3.31041">
        <ele>221</ele>
        <time>2024-11-20T14:51:43Z</time>
      </trkpt>
      <trkpt lat="48.1667" lon="-3.31042">
        <ele>221.2</ele>
        <time>2024-11-20T14:51:44Z</time>
      </trkpt>
      <trkpt lat="48.16671" lon="-3.31043">
        <ele>221.4</ele>
        <time>2024-11-20T14:51:45Z</time>
      </trkpt>
      <trkpt lat="48.16672" lon="-3.31044">
        <ele>221.5</ele>
        <time>2024-11-20T14:51:46Z</time>
      </trkpt>
      <trkpt lat="48.16673" lon="-3.31044">
        <ele>221.6</ele>
        <time>2024-11-20T14:51:47Z</time>
      </trkpt>
      <trkpt lat="48.16674" lon="-3.31045">
        <ele>221.7</ele>
        <time>2024-11-20T14:51:48Z</time>
      </trkpt>
      <trkpt lat="48.16674" lon="-3.31046">
        <ele>221.8</ele>
        <time>2024-11-20T14:51:49Z</time>
      </trkpt>
      <trkpt lat="48.16675" lon="-3.31047">
        <ele>221.8</ele>
        <time>2024-11-20T14:51:50Z</time>
      </trkpt>
      <trkpt lat="48.16675" lon="-3.31048">
        <ele>221.9</ele>
        <time>2024-11-20T14:51:51Z</time>
      </trkpt>
      <trkpt lat="48.16676" lon="-3.31049">
        <ele>222</ele>
        <time>2024-11-20T14:51:52Z</time>
      </trkpt>
      <trkpt lat="48.16676" lon="-3.3105">
        <ele>222.1</ele>
        <time>2024-11-20T14:51:53Z</time>
      </trkpt>
      <trkpt lat="48.16676" lon="-3.3105">
        <ele>222.1</ele>
        <time>2024-11-20T14:51:54Z</time>
      </trkpt>
      <trkpt lat="48.16677" lon="-3.31051">
        <ele>222.1</ele>
        <time>2024-11-20T14:51:55Z</time>
      </trkpt>
      <trkpt lat="48.16677" lon="-3.31052">
        <ele>222.2</ele>
        <time>2024-11-20T14:51:56Z</time>
      </trkpt>
      <trkpt lat="48.16678" lon="-3.31052">
        <ele>222.3</ele>
        <time>2024-11-20T14:51:57Z</time>
      </trkpt>
      <trkpt lat="48.16678" lon="-3.31053">
        <ele>222.3</ele>
        <time>2024-11-20T14:51:58Z</time>
      </trkpt>
      <trkpt lat="48.16679" lon="-3.31055">
        <ele>222.4</ele>
        <time>2024-11-20T14:51:59Z</time>
      </trkpt>
      <trkpt lat="48.1668" lon="-3.31056">
        <ele>222.5</ele>
        <time>2024-11-20T14:52:00Z</time>
      </trkpt>
      <trkpt lat="48.1668" lon="-3.31057">
        <ele>222.6</ele>
        <time>2024-11-20T14:52:01Z</time>
      </trkpt>
      <trkpt lat="48.16681" lon="-3.31058">
        <ele>222.7</ele>
        <time>2024-11-20T14:52:02Z</time>
      </trkpt>
      <trkpt lat="48.16682" lon="-3.31059">
        <ele>222.8</ele>
        <time>2024-11-20T14:52:03Z</time>
      </trkpt>
      <trkpt lat="48.16683" lon="-3.3106">
        <ele>222.9</ele>
        <time>2024-11-20T14:52:04Z</time>
      </trkpt>
      <trkpt lat="48.16684" lon="-3.3106">
        <ele>223</ele>
        <time>2024-11-20T14:52:05Z</time>
      </trkpt>
      <trkpt lat="48.16685" lon="-3.3106">
        <ele>223.1</ele>
        <time>2024-11-20T14:52:06Z</time>
      </trkpt>
      <trkpt lat="48.16685" lon="-3.31061">
        <ele>223.1</ele>
        <time>2024-11-20T14:52:07Z</time>
      </trkpt>
      <trkpt lat="48.16687" lon="-3.31061">
        <ele>223.2</ele>
        <time>2024-11-20T14:52:08Z</time>
      </trkpt>
      <trkpt lat="48.16688" lon="-3.31062">
        <ele>223.3</ele>
        <time>2024-11-20T14:52:09Z</time>
      </trkpt>
      <trkpt lat="48.16688" lon="-3.31063">
        <ele>223.4</ele>
        <time>2024-11-20T14:52:10Z</time>
      </trkpt>
      <trkpt lat="48.16689" lon="-3.31064">
        <ele>223.5</ele>
        <time>2024-11-20T14:52:11Z</time>
      </trkpt>
      <trkpt lat="48.1669" lon="-3.31065">
        <ele>223.6</ele>
        <time>2024-11-20T14:52:12Z</time>
      </trkpt>
      <trkpt lat="48.16691" lon="-3.31066">
        <ele>223.7</ele>
        <time>2024-11-20T14:52:13Z</time>
      </trkpt>
      <trkpt lat="48.16692" lon="-3.31067">
        <ele>223.8</ele>
        <time>2024-11-20T14:52:14Z</time>
      </trkpt>
      <trkpt lat="48.16693" lon="-3.31068">
        <ele>223.9</ele>
        <time>2024-11-20T14:52:15Z</time>
      </trkpt>
      <trkpt lat="48.16694" lon="-3.31069">
        <ele>223.9</ele>
        <time>2024-11-20T14:52:16Z</time>
      </trkpt>
      <trkpt lat="48.16695" lon="-3.3107">
        <ele>224</ele>
        <time>2024-11-20T14:52:17Z</time>
      </trkpt>
      <trkpt lat="48.16695" lon="-3.31071">
        <ele>224.1</ele>
        <time>2024-11-20T14:52:18Z</time>
      </trkpt>
      <trkpt lat="48.16697" lon="-3.31071">
        <ele>224.2</ele>
        <time>2024-11-20T14:52:19Z</time>
      </trkpt>
      <trkpt lat="48.16698" lon="-3.31072">
        <ele>224.3</ele>
        <time>2024-11-20T14:52:20Z</time>
      </trkpt>
      <trkpt lat="48.16698" lon="-3.31072">
        <ele>224.3</ele>
        <time>2024-11-20T14:52:21Z</time>
      </trkpt>
      <trkpt lat="48.16699" lon="-3.31072">
        <ele>224.4</ele>
        <time>2024-11-20T14:52:22Z</time>
      </trkpt>
      <trkpt lat="48.16699" lon="-3.31073">
        <ele>224.5</ele>
        <time>2024-11-20T14:52:23Z</time>
      </trkpt>
      <trkpt lat="48.167" lon="-3.31073">
        <ele>224.5</ele>
        <time>2024-11-20T14:52:24Z</time>
      </trkpt>
      <trkpt lat="48.167" lon="-3.31074">
        <ele>224.6</ele>
        <time>2024-11-20T14:52:25Z</time>
      </trkpt>
      <trkpt lat="48.16702" lon="-3.31074">
        <ele>224.7</ele>
        <time>2024-11-20T14:52:26Z</time>
      </trkpt>
      <trkpt lat="48.16703" lon="-3.31075">
        <ele>224.8</ele>
        <time>2024-11-20T14:52:27Z</time>
      </trkpt>
      <trkpt lat="48.16703" lon="-3.31076">
        <ele>224.9</ele>
        <time>2024-11-20T14:52:28Z</time>
      </trkpt>
      <trkpt lat="48.16704" lon="-3.31077">
        <ele>225</ele>
        <time>2024-11-20T14:52:29Z</time>
      </trkpt>
      <trkpt lat="48.16705" lon="-3.31079">
        <ele>225.1</ele>
        <time>2024-11-20T14:52:30Z</time>
      </trkpt>
      <trkpt lat="48.16706" lon="-3.3108">
        <ele>225.2</ele>
        <time>2024-11-20T14:52:31Z</time>
      </trkpt>
      <trkpt lat="48.16707" lon="-3.3108">
        <ele>225.3</ele>
        <time>2024-11-20T14:52:32Z</time>
      </trkpt>
      <trkpt lat="48.16707" lon="-3.31081">
        <ele>225.3</ele>
        <time>2024-11-20T14:52:33Z</time>
      </trkpt>
      <trkpt lat="48.16708" lon="-3.31082">
        <ele>225.4</ele>
        <time>2024-11-20T14:52:34Z</time>
      </trkpt>
      <trkpt lat="48.16708" lon="-3.31084">
        <ele>225.5</ele>
        <time>2024-11-20T14:52:35Z</time>
      </trkpt>
      <trkpt lat="48.16708" lon="-3.31085">
        <ele>225.6</ele>
        <time>2024-11-20T14:52:36Z</time>
      </trkpt>
      <trkpt lat="48.16708" lon="-3.31087">
        <ele>225.7</ele>
        <time>2024-11-20T14:52:37Z</time>
      </trkpt>
      <trkpt lat="48.16708" lon="-3.31088">
        <ele>225.7</ele>
        <time>2024-11-20T14:52:38Z</time>
      </trkpt>
      <trkpt lat="48.16707" lon="-3.31089">
        <ele>225.8</ele>
        <time>2024-11-20T14:52:39Z</time>
      </trkpt>
      <trkpt lat="48.16707" lon="-3.31091">
        <ele>225.9</ele>
        <time>2024-11-20T14:52:40Z</time>
      </trkpt>
      <trkpt lat="48.16706" lon="-3.31092">
        <ele>226</ele>
        <time>2024-11-20T14:52:41Z</time>
      </trkpt>
      <trkpt lat="48.16706" lon="-3.31093">
        <ele>226</ele>
        <time>2024-11-20T14:52:42Z</time>
      </trkpt>
      <trkpt lat="48.16705" lon="-3.31095">
        <ele>226.1</ele>
        <time>2024-11-20T14:52:43Z</time>
      </trkpt>
      <trkpt lat="48.16704" lon="-3.31096">
        <ele>226.2</ele>
        <time>2024-11-20T14:52:44Z</time>
      </trkpt>
      <trkpt lat="48.16704" lon="-3.31097">
        <ele>226.3</ele>
        <time>2024-11-20T14:52:45Z</time>
      </trkpt>
      <trkpt lat="48.16703" lon="-3.31098">
        <ele>226.4</ele>
        <time>2024-11-20T14:52:46Z</time>
      </trkpt>
      <trkpt lat="48.16702" lon="-3.31099">
        <ele>226.5</ele>
        <time>2024-11-20T14:52:47Z</time>
      </trkpt>
      <trkpt lat="48.16701" lon="-3.311">
        <ele>226.6</ele>
        <time>2024-11-20T14:52:48Z</time>
      </trkpt>
      <trkpt lat="48.16701" lon="-3.31101">
        <ele>226.7</ele>
        <time>2024-11-20T14:52:49Z</time>
      </trkpt>
      <trkpt lat="48.167" lon="-3.31101">
        <ele>226.8</ele>
        <time>2024-11-20T14:52:50Z</time>
      </trkpt>
      <trkpt lat="48.16699" lon="-3.31102">
        <ele>226.9</ele>
        <time>2024-11-20T14:52:51Z</time>
      </trkpt>
      <trkpt lat="48.16698" lon="-3.31103">
        <ele>227</ele>
        <time>2024-11-20T14:52:52Z</time>
      </trkpt>
      <trkpt lat="48.16697" lon="-3.31104">
        <ele>227.1</ele>
        <time>2024-11-20T14:52:53Z</time>
      </trkpt>
      <trkpt lat="48.16697" lon="-3.31105">
        <ele>227.3</ele>
        <time>2024-11-20T14:52:54Z</time>
      </trkpt>
      <trkpt lat="48.16696" lon="-3.31107">
        <ele>227.4</ele>
        <time>2024-11-20T14:52:55Z</time>
      </trkpt>
      <trkpt lat="48.16695" lon="-3.31108">
        <ele>227.6</ele>
        <time>2024-11-20T14:52:56Z</time>
      </trkpt>
      <trkpt lat="48.16694" lon="-3.31109">
        <ele>227.7</ele>
        <time>2024-11-20T14:52:57Z</time>
      </trkpt>
      <trkpt lat="48.16693" lon="-3.3111">
        <ele>227.8</ele>
        <time>2024-11-20T14:52:58Z</time>
      </trkpt>
      <trkpt lat="48.16692" lon="-3.3111">
        <ele>227.9</ele>
        <time>2024-11-20T14:52:59Z</time>
      </trkpt>
      <trkpt lat="48.16691" lon="-3.31111">
        <ele>228</ele>
        <time>2024-11-20T14:53:00Z</time>
      </trkpt>
      <trkpt lat="48.1669" lon="-3.31112">
        <ele>228.1</ele>
        <time>2024-11-20T14:53:01Z</time>
      </trkpt>
      <trkpt lat="48.16689" lon="-3.31112">
        <ele>228.1</ele>
        <time>2024-11-20T14:53:02Z</time>
      </trkpt>
      <trkpt lat="48.16688" lon="-3.31113">
        <ele>228.2</ele>
        <time>2024-11-20T14:53:03Z</time>
      </trkpt>
      <trkpt lat="48.16687" lon="-3.31113">
        <ele>228.2</ele>
        <time>2024-11-20T14:53:04Z</time>
      </trkpt>
      <trkpt lat="48.16686" lon="-3.31113">
        <ele>228.3</ele>
        <time>2024-11-20T14:53:05Z</time>
      </trkpt>
      <trkpt lat="48.16685" lon="-3.31114">
        <ele>228.3</ele>
        <time>2024-11-20T14:53:06Z</time>
      </trkpt>
      <trkpt lat="48.16684" lon="-3.31114">
        <ele>228.3</ele>
        <time>2024-11-20T14:53:07Z</time>
      </trkpt>
      <trkpt lat="48.16683" lon="-3.31114">
        <ele>228.4</ele>
        <time>2024-11-20T14:53:08Z</time>
      </trkpt>
      <trkpt lat="48.16682" lon="-3.31114">
        <ele>228.4</ele>
        <time>2024-11-20T14:53:09Z</time>
      </trkpt>
      <trkpt lat="48.16681" lon="-3.31115">
        <ele>228.4</ele>
        <time>2024-11-20T14:53:10Z</time>
      </trkpt>
      <trkpt lat="48.16681" lon="-3.31114">
        <ele>228.4</ele>
        <time>2024-11-20T14:53:11Z</time>
      </trkpt>
      <trkpt lat="48.16681" lon="-3.31114">
        <ele>228.4</ele>
        <time>2024-11-20T14:53:12Z</time>
      </trkpt>
      <trkpt lat="48.1668" lon="-3.31115">
        <ele>228.4</ele>
        <time>2024-11-20T14:53:13Z</time>
      </trkpt>
      <trkpt lat="48.16679" lon="-3.31115">
        <ele>228.5</ele>
        <time>2024-11-20T14:53:14Z</time>
      </trkpt>
      <trkpt lat="48.16679" lon="-3.31115">
        <ele>228.4</ele>
        <time>2024-11-20T14:53:15Z</time>
      </trkpt>
      <trkpt lat="48.16677" lon="-3.31115">
        <ele>228.4</ele>
        <time>2024-11-20T14:53:16Z</time>
      </trkpt>
      <trkpt lat="48.16676" lon="-3.31114">
        <ele>228.4</ele>
        <time>2024-11-20T14:53:17Z</time>
      </trkpt>
      <trkpt lat="48.16675" lon="-3.31114">
        <ele>228.4</ele>
        <time>2024-11-20T14:53:18Z</time>
      </trkpt>
      <trkpt lat="48.16674" lon="-3.31115">
        <ele>228.5</ele>
        <time>2024-11-20T14:53:19Z</time>
      </trkpt>
      <trkpt lat="48.16673" lon="-3.31115">
        <ele>228.5</ele>
        <time>2024-11-20T14:53:20Z</time>
      </trkpt>
      <trkpt lat="48.16672" lon="-3.31115">
        <ele>228.5</ele>
        <time>2024-11-20T14:53:21Z</time>
      </trkpt>
      <trkpt lat="48.16671" lon="-3.31115">
        <ele>228.6</ele>
        <time>2024-11-20T14:53:22Z</time>
      </trkpt>
      <trkpt lat="48.1667" lon="-3.31116">
        <ele>228.6</ele>
        <time>2024-11-20T14:53:23Z</time>
      </trkpt>
      <trkpt lat="48.16669" lon="-3.31116">
        <ele>228.6</ele>
        <time>2024-11-20T14:53:24Z</time>
      </trkpt>
      <trkpt lat="48.16668" lon="-3.31116">
        <ele>228.6</ele>
        <time>2024-11-20T14:53:25Z</time>
      </trkpt>
      <trkpt lat="48.16667" lon="-3.31115">
        <ele>228.6</ele>
        <time>2024-11-20T14:53:26Z</time>
      </trkpt>
      <trkpt lat="48.16666" lon="-3.31115">
        <ele>228.7</ele>
        <time>2024-11-20T14:53:27Z</time>
      </trkpt>
      <trkpt lat="48.16665" lon="-3.31116">
        <ele>228.8</ele>
        <time>2024-11-20T14:53:28Z</time>
      </trkpt>
      <trkpt lat="48.16664" lon="-3.31116">
        <ele>229</ele>
        <time>2024-11-20T14:53:29Z</time>
      </trkpt>
      <trkpt lat="48.16663" lon="-3.31116">
        <ele>229.1</ele>
        <time>2024-11-20T14:53:30Z</time>
      </trkpt>
      <trkpt lat="48.16661" lon="-3.31116">
        <ele>229.3</ele>
        <time>2024-11-20T14:53:31Z</time>
      </trkpt>
      <trkpt lat="48.1666" lon="-3.31116">
        <ele>229.4</ele>
        <time>2024-11-20T14:53:32Z</time>
      </trkpt>
      <trkpt lat="48.16659" lon="-3.31117">
        <ele>229.6</ele>
        <time>2024-11-20T14:53:33Z</time>
      </trkpt>
      <trkpt lat="48.16657" lon="-3.31117">
        <ele>229.8</ele>
        <time>2024-11-20T14:53:34Z</time>
      </trkpt>
      <trkpt lat="48.16656" lon="-3.31117">
        <ele>230</ele>
        <time>2024-11-20T14:53:35Z</time>
      </trkpt>
      <trkpt lat="48.16655" lon="-3.31118">
        <ele>230.1</ele>
        <time>2024-11-20T14:53:36Z</time>
      </trkpt>
      <trkpt lat="48.16654" lon="-3.31118">
        <ele>230.2</ele>
        <time>2024-11-20T14:53:37Z</time>
      </trkpt>
      <trkpt lat="48.16653" lon="-3.31119">
        <ele>230.4</ele>
        <time>2024-11-20T14:53:38Z</time>
      </trkpt>
      <trkpt lat="48.16652" lon="-3.31119">
        <ele>230.6</ele>
        <time>2024-11-20T14:53:39Z</time>
      </trkpt>
      <trkpt lat="48.16651" lon="-3.31119">
        <ele>230.7</ele>
        <time>2024-11-20T14:53:40Z</time>
      </trkpt>
      <trkpt lat="48.1665" lon="-3.31119">
        <ele>230.8</ele>
        <time>2024-11-20T14:53:41Z</time>
      </trkpt>
      <trkpt lat="48.16649" lon="-3.3112">
        <ele>230.9</ele>
        <time>2024-11-20T14:53:42Z</time>
      </trkpt>
      <trkpt lat="48.16648" lon="-3.3112">
        <ele>231.1</ele>
        <time>2024-11-20T14:53:43Z</time>
      </trkpt>
      <trkpt lat="48.16647" lon="-3.31121">
        <ele>231.2</ele>
        <time>2024-11-20T14:53:44Z</time>
      </trkpt>
      <trkpt lat="48.16646" lon="-3.31121">
        <ele>231.4</ele>
        <time>2024-11-20T14:53:45Z</time>
      </trkpt>
      <trkpt lat="48.16645" lon="-3.31122">
        <ele>231.5</ele>
        <time>2024-11-20T14:53:46Z</time>
      </trkpt>
      <trkpt lat="48.16644" lon="-3.31122">
        <ele>231.7</ele>
        <time>2024-11-20T14:53:47Z</time>
      </trkpt>
      <trkpt lat="48.16643" lon="-3.31122">
        <ele>231.8</ele>
        <time>2024-11-20T14:53:48Z</time>
      </trkpt>
      <trkpt lat="48.16642" lon="-3.31122">
        <ele>231.9</ele>
        <time>2024-11-20T14:53:49Z</time>
      </trkpt>
      <trkpt lat="48.16641" lon="-3.31123">
        <ele>232.1</ele>
        <time>2024-11-20T14:53:50Z</time>
      </trkpt>
      <trkpt lat="48.1664" lon="-3.31124">
        <ele>232.3</ele>
        <time>2024-11-20T14:53:51Z</time>
      </trkpt>
      <trkpt lat="48.16638" lon="-3.31125">
        <ele>232.5</ele>
        <time>2024-11-20T14:53:52Z</time>
      </trkpt>
      <trkpt lat="48.16637" lon="-3.31126">
        <ele>232.7</ele>
        <time>2024-11-20T14:53:53Z</time>
      </trkpt>
      <trkpt lat="48.16636" lon="-3.31127">
        <ele>232.8</ele>
        <time>2024-11-20T14:53:54Z</time>
      </trkpt>
      <trkpt lat="48.16635" lon="-3.31127">
        <ele>232.9</ele>
        <time>2024-11-20T14:53:55Z</time>
      </trkpt>
      <trkpt lat="48.16635" lon="-3.31127">
        <ele>233</ele>
        <time>2024-11-20T14:53:56Z</time>
      </trkpt>
      <trkpt lat="48.16633" lon="-3.31128">
        <ele>233.1</ele>
        <time>2024-11-20T14:53:57Z</time>
      </trkpt>
      <trkpt lat="48.16632" lon="-3.31129">
        <ele>233.2</ele>
        <time>2024-11-20T14:53:58Z</time>
      </trkpt>
      <trkpt lat="48.16631" lon="-3.3113">
        <ele>233.4</ele>
        <time>2024-11-20T14:53:59Z</time>
      </trkpt>
      <trkpt lat="48.1663" lon="-3.3113">
        <ele>233.5</ele>
        <time>2024-11-20T14:54:00Z</time>
      </trkpt>
      <trkpt lat="48.1663" lon="-3.31131">
        <ele>233.6</ele>
        <time>2024-11-20T14:54:01Z</time>
      </trkpt>
      <trkpt lat="48.16629" lon="-3.31131">
        <ele>233.6</ele>
        <time>2024-11-20T14:54:02Z</time>
      </trkpt>
      <trkpt lat="48.16628" lon="-3.31132">
        <ele>233.7</ele>
        <time>2024-11-20T14:54:03Z</time>
      </trkpt>
      <trkpt lat="48.16627" lon="-3.31133">
        <ele>233.9</ele>
        <time>2024-11-20T14:54:04Z</time>
      </trkpt>
      <trkpt lat="48.16626" lon="-3.31134">
        <ele>234.1</ele>
        <time>2024-11-20T14:54:05Z</time>
      </trkpt>
      <trkpt lat="48.16625" lon="-3.31136">
        <ele>234.2</ele>
        <time>2024-11-20T14:54:06Z</time>
      </trkpt>
      <trkpt lat="48.16623" lon="-3.31137">
        <ele>234.4</ele>
        <time>2024-11-20T14:54:07Z</time>
      </trkpt>
      <trkpt lat="48.16622" lon="-3.31138">
        <ele>234.6</ele>
        <time>2024-11-20T14:54:08Z</time>
      </trkpt>
      <trkpt lat="48.16621" lon="-3.31139">
        <ele>234.7</ele>
        <time>2024-11-20T14:54:09Z</time>
      </trkpt>
      <trkpt lat="48.16619" lon="-3.3114">
        <ele>234.8</ele>
        <time>2024-11-20T14:54:10Z</time>
      </trkpt>
      <trkpt lat="48.16618" lon="-3.31141">
        <ele>234.9</ele>
        <time>2024-11-20T14:54:11Z</time>
      </trkpt>
      <trkpt lat="48.16617" lon="-3.31142">
        <ele>235</ele>
        <time>2024-11-20T14:54:12Z</time>
      </trkpt>
      <trkpt lat="48.16616" lon="-3.31143">
        <ele>235.1</ele>
        <time>2024-11-20T14:54:13Z</time>
      </trkpt>
      <trkpt lat="48.16616" lon="-3.31144">
        <ele>235.2</ele>
        <time>2024-11-20T14:54:14Z</time>
      </trkpt>
      <trkpt lat="48.16615" lon="-3.31145">
        <ele>235.3</ele>
        <time>2024-11-20T14:54:15Z</time>
      </trkpt>
      <trkpt lat="48.16614" lon="-3.31145">
        <ele>235.4</ele>
        <time>2024-11-20T14:54:16Z</time>
      </trkpt>
      <trkpt lat="48.16613" lon="-3.31147">
        <ele>235.5</ele>
        <time>2024-11-20T14:54:17Z</time>
      </trkpt>
      <trkpt lat="48.16612" lon="-3.31148">
        <ele>235.6</ele>
        <time>2024-11-20T14:54:18Z</time>
      </trkpt>
      <trkpt lat="48.16611" lon="-3.31149">
        <ele>235.8</ele>
        <time>2024-11-20T14:54:19Z</time>
      </trkpt>
      <trkpt lat="48.1661" lon="-3.3115">
        <ele>235.9</ele>
        <time>2024-11-20T14:54:20Z</time>
      </trkpt>
      <trkpt lat="48.16609" lon="-3.31151">
        <ele>236</ele>
        <time>2024-11-20T14:54:21Z</time>
      </trkpt>
      <trkpt lat="48.16608" lon="-3.31153">
        <ele>236.1</ele>
        <time>2024-11-20T14:54:22Z</time>
      </trkpt>
      <trkpt lat="48.16608" lon="-3.31154">
        <ele>236.2</ele>
        <time>2024-11-20T14:54:23Z</time>
      </trkpt>
      <trkpt lat="48.16607" lon="-3.31155">
        <ele>236.3</ele>
        <time>2024-11-20T14:54:24Z</time>
      </trkpt>
      <trkpt lat="48.16606" lon="-3.31156">
        <ele>236.4</ele>
        <time>2024-11-20T14:54:25Z</time>
      </trkpt>
      <trkpt lat="48.16605" lon="-3.31157">
        <ele>236.5</ele>
        <time>2024-11-20T14:54:26Z</time>
      </trkpt>
      <trkpt lat="48.16605" lon="-3.31159">
        <ele>236.7</ele>
        <time>2024-11-20T14:54:27Z</time>
      </trkpt>
      <trkpt lat="48.16604" lon="-3.3116">
        <ele>236.8</ele>
        <time>2024-11-20T14:54:28Z</time>
      </trkpt>
      <trkpt lat="48.16603" lon="-3.31161">
        <ele>236.9</ele>
        <time>2024-11-20T14:54:29Z</time>
      </trkpt>
      <trkpt lat="48.16603" lon="-3.31162">
        <ele>237</ele>
        <time>2024-11-20T14:54:30Z</time>
      </trkpt>
      <trkpt lat="48.16602" lon="-3.31164">
        <ele>237.1</ele>
        <time>2024-11-20T14:54:31Z</time>
      </trkpt>
      <trkpt lat="48.16602" lon="-3.31165">
        <ele>237.2</ele>
        <time>2024-11-20T14:54:32Z</time>
      </trkpt>
      <trkpt lat="48.16601" lon="-3.31166">
        <ele>237.3</ele>
        <time>2024-11-20T14:54:33Z</time>
      </trkpt>
      <trkpt lat="48.16601" lon="-3.31167">
        <ele>237.4</ele>
        <time>2024-11-20T14:54:34Z</time>
      </trkpt>
      <trkpt lat="48.166" lon="-3.31169">
        <ele>237.5</ele>
        <time>2024-11-20T14:54:35Z</time>
      </trkpt>
      <trkpt lat="48.16599" lon="-3.3117">
        <ele>237.6</ele>
        <time>2024-11-20T14:54:36Z</time>
      </trkpt>
      <trkpt lat="48.16597" lon="-3.31175">
        <ele>237.8</ele>
        <time>2024-11-20T14:54:39Z</time>
      </trkpt>
      <trkpt lat="48.16596" lon="-3.31176">
        <ele>237.9</ele>
        <time>2024-11-20T14:54:40Z</time>
      </trkpt>
      <trkpt lat="48.16595" lon="-3.31178">
        <ele>238</ele>
        <time>2024-11-20T14:54:41Z</time>
      </trkpt>
      <trkpt lat="48.16595" lon="-3.3118">
        <ele>238.1</ele>
        <time>2024-11-20T14:54:42Z</time>
      </trkpt>
      <trkpt lat="48.16594" lon="-3.31181">
        <ele>238.1</ele>
        <time>2024-11-20T14:54:43Z</time>
      </trkpt>
      <trkpt lat="48.16594" lon="-3.31182">
        <ele>238.2</ele>
        <time>2024-11-20T14:54:44Z</time>
      </trkpt>
      <trkpt lat="48.16593" lon="-3.31184">
        <ele>238.3</ele>
        <time>2024-11-20T14:54:45Z</time>
      </trkpt>
      <trkpt lat="48.16593" lon="-3.31185">
        <ele>238.3</ele>
        <time>2024-11-20T14:54:46Z</time>
      </trkpt>
      <trkpt lat="48.16592" lon="-3.31186">
        <ele>238.4</ele>
        <time>2024-11-20T14:54:47Z</time>
      </trkpt>
      <trkpt lat="48.16591" lon="-3.31187">
        <ele>238.5</ele>
        <time>2024-11-20T14:54:48Z</time>
      </trkpt>
      <trkpt lat="48.1659" lon="-3.31188">
        <ele>238.5</ele>
        <time>2024-11-20T14:54:49Z</time>
      </trkpt>
      <trkpt lat="48.16589" lon="-3.31189">
        <ele>238.6</ele>
        <time>2024-11-20T14:54:50Z</time>
      </trkpt>
      <trkpt lat="48.16589" lon="-3.3119">
        <ele>238.7</ele>
        <time>2024-11-20T14:54:51Z</time>
      </trkpt>
      <trkpt lat="48.16588" lon="-3.31192">
        <ele>238.7</ele>
        <time>2024-11-20T14:54:52Z</time>
      </trkpt>
      <trkpt lat="48.16588" lon="-3.31193">
        <ele>238.8</ele>
        <time>2024-11-20T14:54:53Z</time>
      </trkpt>
      <trkpt lat="48.16587" lon="-3.31194">
        <ele>238.8</ele>
        <time>2024-11-20T14:54:54Z</time>
      </trkpt>
      <trkpt lat="48.16587" lon="-3.31195">
        <ele>238.9</ele>
        <time>2024-11-20T14:54:55Z</time>
      </trkpt>
      <trkpt lat="48.16586" lon="-3.31197">
        <ele>239</ele>
        <time>2024-11-20T14:54:56Z</time>
      </trkpt>
      <trkpt lat="48.16585" lon="-3.31198">
        <ele>239.1</ele>
        <time>2024-11-20T14:54:57Z</time>
      </trkpt>
      <trkpt lat="48.16585" lon="-3.312">
        <ele>239.1</ele>
        <time>2024-11-20T14:54:58Z</time>
      </trkpt>
      <trkpt lat="48.16584" lon="-3.31201">
        <ele>239.2</ele>
        <time>2024-11-20T14:54:59Z</time>
      </trkpt>
      <trkpt lat="48.16583" lon="-3.31202">
        <ele>239.3</ele>
        <time>2024-11-20T14:55:00Z</time>
      </trkpt>
      <trkpt lat="48.16583" lon="-3.31204">
        <ele>239.3</ele>
        <time>2024-11-20T14:55:01Z</time>
      </trkpt>
      <trkpt lat="48.16582" lon="-3.31206">
        <ele>239.4</ele>
        <time>2024-11-20T14:55:02Z</time>
      </trkpt>
      <trkpt lat="48.16582" lon="-3.31207">
        <ele>239.4</ele>
        <time>2024-11-20T14:55:03Z</time>
      </trkpt>
      <trkpt lat="48.16581" lon="-3.31208">
        <ele>239.5</ele>
        <time>2024-11-20T14:55:04Z</time>
      </trkpt>
      <trkpt lat="48.16581" lon="-3.3121">
        <ele>239.6</ele>
        <time>2024-11-20T14:55:05Z</time>
      </trkpt>
      <trkpt lat="48.1658" lon="-3.31211">
        <ele>239.6</ele>
        <time>2024-11-20T14:55:06Z</time>
      </trkpt>
      <trkpt lat="48.1658" lon="-3.31213">
        <ele>239.7</ele>
        <time>2024-11-20T14:55:07Z</time>
      </trkpt>
      <trkpt lat="48.1658" lon="-3.31214">
        <ele>239.7</ele>
        <time>2024-11-20T14:55:08Z</time>
      </trkpt>
      <trkpt lat="48.16579" lon="-3.31216">
        <ele>239.8</ele>
        <time>2024-11-20T14:55:09Z</time>
      </trkpt>
      <trkpt lat="48.16579" lon="-3.31218">
        <ele>239.8</ele>
        <time>2024-11-20T14:55:10Z</time>
      </trkpt>
      <trkpt lat="48.16579" lon="-3.31219">
        <ele>239.9</ele>
        <time>2024-11-20T14:55:11Z</time>
      </trkpt>
      <trkpt lat="48.16578" lon="-3.31221">
        <ele>240</ele>
        <time>2024-11-20T14:55:12Z</time>
      </trkpt>
      <trkpt lat="48.16578" lon="-3.31223">
        <ele>240</ele>
        <time>2024-11-20T14:55:13Z</time>
      </trkpt>
      <trkpt lat="48.16577" lon="-3.31225">
        <ele>240.1</ele>
        <time>2024-11-20T14:55:14Z</time>
      </trkpt>
      <trkpt lat="48.16577" lon="-3.31226">
        <ele>240.2</ele>
        <time>2024-11-20T14:55:15Z</time>
      </trkpt>
      <trkpt lat="48.16577" lon="-3.31228">
        <ele>240.2</ele>
        <time>2024-11-20T14:55:16Z</time>
      </trkpt>
      <trkpt lat="48.16576" lon="-3.3123">
        <ele>240.3</ele>
        <time>2024-11-20T14:55:17Z</time>
      </trkpt>
      <trkpt lat="48.16576" lon="-3.31232">
        <ele>240.3</ele>
        <time>2024-11-20T14:55:18Z</time>
      </trkpt>
      <trkpt lat="48.16576" lon="-3.31234">
        <ele>240.4</ele>
        <time>2024-11-20T14:55:19Z</time>
      </trkpt>
      <trkpt lat="48.16576" lon="-3.31235">
        <ele>240.5</ele>
        <time>2024-11-20T14:55:20Z</time>
      </trkpt>
      <trkpt lat="48.16575" lon="-3.31237">
        <ele>240.5</ele>
        <time>2024-11-20T14:55:21Z</time>
      </trkpt>
      <trkpt lat="48.16575" lon="-3.31239">
        <ele>240.6</ele>
        <time>2024-11-20T14:55:22Z</time>
      </trkpt>
      <trkpt lat="48.16576" lon="-3.3124">
        <ele>240.6</ele>
        <time>2024-11-20T14:55:23Z</time>
      </trkpt>
      <trkpt lat="48.16576" lon="-3.31241">
        <ele>240.7</ele>
        <time>2024-11-20T14:55:24Z</time>
      </trkpt>
      <trkpt lat="48.16576" lon="-3.31242">
        <ele>240.7</ele>
        <time>2024-11-20T14:55:25Z</time>
      </trkpt>
      <trkpt lat="48.16576" lon="-3.31242">
        <ele>240.7</ele>
        <time>2024-11-20T14:55:26Z</time>
      </trkpt>
      <trkpt lat="48.16576" lon="-3.31242">
        <ele>240.7</ele>
        <time>2024-11-20T14:55:27Z</time>
      </trkpt>
      <trkpt lat="48.16576" lon="-3.31242">
        <ele>240.7</ele>
        <time>2024-11-20T14:55:28Z</time>
      </trkpt>
      <trkpt lat="48.16576" lon="-3.31242">
        <ele>240.7</ele>
        <time>2024-11-20T14:55:29Z</time>
      </trkpt>
      <trkpt lat="48.16576" lon="-3.31243">
        <ele>240.7</ele>
        <time>2024-11-20T14:55:30Z</time>
      </trkpt>
      <trkpt lat="48.16575" lon="-3.31244">
        <ele>240.8</ele>
        <time>2024-11-20T14:55:31Z</time>
      </trkpt>
      <trkpt lat="48.16575" lon="-3.31245">
        <ele>240.8</ele>
        <time>2024-11-20T14:55:32Z</time>
      </trkpt>
      <trkpt lat="48.16575" lon="-3.31247">
        <ele>240.9</ele>
        <time>2024-11-20T14:55:33Z</time>
      </trkpt>
      <trkpt lat="48.16575" lon="-3.31249">
        <ele>240.9</ele>
        <time>2024-11-20T14:55:34Z</time>
      </trkpt>
      <trkpt lat="48.16575" lon="-3.3125">
        <ele>241</ele>
        <time>2024-11-20T14:55:35Z</time>
      </trkpt>
      <trkpt lat="48.16575" lon="-3.31252">
        <ele>241.1</ele>
        <time>2024-11-20T14:55:36Z</time>
      </trkpt>
      <trkpt lat="48.16575" lon="-3.31254">
        <ele>241.1</ele>
        <time>2024-11-20T14:55:37Z</time>
      </trkpt>
      <trkpt lat="48.16574" lon="-3.31256">
        <ele>241.2</ele>
        <time>2024-11-20T14:55:38Z</time>
      </trkpt>
      <trkpt lat="48.16574" lon="-3.31258">
        <ele>241.3</ele>
        <time>2024-11-20T14:55:39Z</time>
      </trkpt>
      <trkpt lat="48.16575" lon="-3.3126">
        <ele>241.3</ele>
        <time>2024-11-20T14:55:40Z</time>
      </trkpt>
      <trkpt lat="48.16575" lon="-3.31262">
        <ele>241.4</ele>
        <time>2024-11-20T14:55:41Z</time>
      </trkpt>
      <trkpt lat="48.16575" lon="-3.31264">
        <ele>241.5</ele>
        <time>2024-11-20T14:55:42Z</time>
      </trkpt>
      <trkpt lat="48.16575" lon="-3.31266">
        <ele>241.6</ele>
        <time>2024-11-20T14:55:43Z</time>
      </trkpt>
      <trkpt lat="48.16575" lon="-3.31267">
        <ele>241.6</ele>
        <time>2024-11-20T14:55:44Z</time>
      </trkpt>
      <trkpt lat="48.16576" lon="-3.31269">
        <ele>241.7</ele>
        <time>2024-11-20T14:55:45Z</time>
      </trkpt>
      <trkpt lat="48.16576" lon="-3.3127">
        <ele>241.7</ele>
        <time>2024-11-20T14:55:46Z</time>
      </trkpt>
      <trkpt lat="48.16576" lon="-3.31272">
        <ele>241.8</ele>
        <time>2024-11-20T14:55:47Z</time>
      </trkpt>
      <trkpt lat="48.16576" lon="-3.31274">
        <ele>241.8</ele>
        <time>2024-11-20T14:55:48Z</time>
      </trkpt>
      <trkpt lat="48.16577" lon="-3.31275">
        <ele>241.9</ele>
        <time>2024-11-20T14:55:49Z</time>
      </trkpt>
      <trkpt lat="48.16577" lon="-3.31277">
        <ele>242</ele>
        <time>2024-11-20T14:55:50Z</time>
      </trkpt>
      <trkpt lat="48.16577" lon="-3.31279">
        <ele>242.1</ele>
        <time>2024-11-20T14:55:51Z</time>
      </trkpt>
      <trkpt lat="48.16577" lon="-3.31281">
        <ele>242.2</ele>
        <time>2024-11-20T14:55:52Z</time>
      </trkpt>
      <trkpt lat="48.16577" lon="-3.31283">
        <ele>242.3</ele>
        <time>2024-11-20T14:55:53Z</time>
      </trkpt>
      <trkpt lat="48.16577" lon="-3.31285">
        <ele>242.5</ele>
        <time>2024-11-20T14:55:54Z</time>
      </trkpt>
      <trkpt lat="48.16577" lon="-3.31287">
        <ele>242.6</ele>
        <time>2024-11-20T14:55:55Z</time>
      </trkpt>
      <trkpt lat="48.16577" lon="-3.31288">
        <ele>242.7</ele>
        <time>2024-11-20T14:55:56Z</time>
      </trkpt>
      <trkpt lat="48.16578" lon="-3.3129">
        <ele>242.8</ele>
        <time>2024-11-20T14:55:57Z</time>
      </trkpt>
      <trkpt lat="48.16578" lon="-3.31292">
        <ele>242.9</ele>
        <time>2024-11-20T14:55:58Z</time>
      </trkpt>
      <trkpt lat="48.16578" lon="-3.31294">
        <ele>243</ele>
        <time>2024-11-20T14:55:59Z</time>
      </trkpt>
      <trkpt lat="48.16579" lon="-3.31296">
        <ele>243.2</ele>
        <time>2024-11-20T14:56:00Z</time>
      </trkpt>
      <trkpt lat="48.16579" lon="-3.31298">
        <ele>243.3</ele>
        <time>2024-11-20T14:56:01Z</time>
      </trkpt>
      <trkpt lat="48.16579" lon="-3.313">
        <ele>243.5</ele>
        <time>2024-11-20T14:56:02Z</time>
      </trkpt>
      <trkpt lat="48.16579" lon="-3.31302">
        <ele>243.6</ele>
        <time>2024-11-20T14:56:03Z</time>
      </trkpt>
      <trkpt lat="48.16579" lon="-3.31304">
        <ele>243.7</ele>
        <time>2024-11-20T14:56:04Z</time>
      </trkpt>
      <trkpt lat="48.16579" lon="-3.31305">
        <ele>243.8</ele>
        <time>2024-11-20T14:56:05Z</time>
      </trkpt>
      <trkpt lat="48.1658" lon="-3.31307">
        <ele>243.9</ele>
        <time>2024-11-20T14:56:06Z</time>
      </trkpt>
      <trkpt lat="48.1658" lon="-3.31309">
        <ele>244</ele>
        <time>2024-11-20T14:56:07Z</time>
      </trkpt>
      <trkpt lat="48.1658" lon="-3.3131">
        <ele>244.1</ele>
        <time>2024-11-20T14:56:08Z</time>
      </trkpt>
      <trkpt lat="48.16581" lon="-3.31312">
        <ele>244.1</ele>
        <time>2024-11-20T14:56:09Z</time>
      </trkpt>
      <trkpt lat="48.16581" lon="-3.31314">
        <ele>244.2</ele>
        <time>2024-11-20T14:56:10Z</time>
      </trkpt>
      <trkpt lat="48.16581" lon="-3.31315">
        <ele>244.3</ele>
        <time>2024-11-20T14:56:11Z</time>
      </trkpt>
      <trkpt lat="48.16581" lon="-3.31316">
        <ele>244.3</ele>
        <time>2024-11-20T14:56:12Z</time>
      </trkpt>
      <trkpt lat="48.16581" lon="-3.31318">
        <ele>244.4</ele>
        <time>2024-11-20T14:56:13Z</time>
      </trkpt>
      <trkpt lat="48.16582" lon="-3.3132">
        <ele>244.5</ele>
        <time>2024-11-20T14:56:14Z</time>
      </trkpt>
      <trkpt lat="48.16582" lon="-3.31322">
        <ele>244.6</ele>
        <time>2024-11-20T14:56:15Z</time>
      </trkpt>
      <trkpt lat="48.16582" lon="-3.31324">
        <ele>244.6</ele>
        <time>2024-11-20T14:56:16Z</time>
      </trkpt>
      <trkpt lat="48.16582" lon="-3.31326">
        <ele>244.7</ele>
        <time>2024-11-20T14:56:17Z</time>
      </trkpt>
      <trkpt lat="48.16583" lon="-3.31328">
        <ele>244.8</ele>
        <time>2024-11-20T14:56:18Z</time>
      </trkpt>
      <trkpt lat="48.16583" lon="-3.3133">
        <ele>244.9</ele>
        <time>2024-11-20T14:56:19Z</time>
      </trkpt>
      <trkpt lat="48.16583" lon="-3.31331">
        <ele>244.9</ele>
        <time>2024-11-20T14:56:20Z</time>
      </trkpt>
      <trkpt lat="48.16583" lon="-3.31333">
        <ele>245</ele>
        <time>2024-11-20T14:56:21Z</time>
      </trkpt>
      <trkpt lat="48.16584" lon="-3.31335">
        <ele>245</ele>
        <time>2024-11-20T14:56:22Z</time>
      </trkpt>
      <trkpt lat="48.16584" lon="-3.31336">
        <ele>245.1</ele>
        <time>2024-11-20T14:56:23Z</time>
      </trkpt>
      <trkpt lat="48.16584" lon="-3.31338">
        <ele>245.2</ele>
        <time>2024-11-20T14:56:24Z</time>
      </trkpt>
      <trkpt lat="48.16584" lon="-3.3134">
        <ele>245.2</ele>
        <time>2024-11-20T14:56:25Z</time>
      </trkpt>
      <trkpt lat="48.16585" lon="-3.31342">
        <ele>245.3</ele>
        <time>2024-11-20T14:56:26Z</time>
      </trkpt>
      <trkpt lat="48.16585" lon="-3.31344">
        <ele>245.4</ele>
        <time>2024-11-20T14:56:27Z</time>
      </trkpt>
      <trkpt lat="48.16585" lon="-3.31345">
        <ele>245.4</ele>
        <time>2024-11-20T14:56:28Z</time>
      </trkpt>
      <trkpt lat="48.16586" lon="-3.31346">
        <ele>245.5</ele>
        <time>2024-11-20T14:56:29Z</time>
      </trkpt>
      <trkpt lat="48.16586" lon="-3.31348">
        <ele>245.5</ele>
        <time>2024-11-20T14:56:30Z</time>
      </trkpt>
      <trkpt lat="48.16587" lon="-3.3135">
        <ele>245.6</ele>
        <time>2024-11-20T14:56:31Z</time>
      </trkpt>
      <trkpt lat="48.16587" lon="-3.31352">
        <ele>245.7</ele>
        <time>2024-11-20T14:56:32Z</time>
      </trkpt>
      <trkpt lat="48.16587" lon="-3.31354">
        <ele>245.7</ele>
        <time>2024-11-20T14:56:33Z</time>
      </trkpt>
      <trkpt lat="48.16587" lon="-3.31356">
        <ele>245.8</ele>
        <time>2024-11-20T14:56:34Z</time>
      </trkpt>
      <trkpt lat="48.16588" lon="-3.31357">
        <ele>245.9</ele>
        <time>2024-11-20T14:56:35Z</time>
      </trkpt>
      <trkpt lat="48.16588" lon="-3.31359">
        <ele>245.9</ele>
        <time>2024-11-20T14:56:36Z</time>
      </trkpt>
      <trkpt lat="48.16588" lon="-3.3136">
        <ele>246</ele>
        <time>2024-11-20T14:56:37Z</time>
      </trkpt>
      <trkpt lat="48.16588" lon="-3.31362">
        <ele>246</ele>
        <time>2024-11-20T14:56:38Z</time>
      </trkpt>
      <trkpt lat="48.16588" lon="-3.31365">
        <ele>246.1</ele>
        <time>2024-11-20T14:56:39Z</time>
      </trkpt>
      <trkpt lat="48.16588" lon="-3.31367">
        <ele>246.2</ele>
        <time>2024-11-20T14:56:40Z</time>
      </trkpt>
      <trkpt lat="48.16588" lon="-3.31369">
        <ele>246.3</ele>
        <time>2024-11-20T14:56:41Z</time>
      </trkpt>
      <trkpt lat="48.16588" lon="-3.31371">
        <ele>246.3</ele>
        <time>2024-11-20T14:56:42Z</time>
      </trkpt>
      <trkpt lat="48.16588" lon="-3.31373">
        <ele>246.4</ele>
        <time>2024-11-20T14:56:43Z</time>
      </trkpt>
      <trkpt lat="48.16588" lon="-3.31374">
        <ele>246.5</ele>
        <time>2024-11-20T14:56:44Z</time>
      </trkpt>
      <trkpt lat="48.16588" lon="-3.31376">
        <ele>246.5</ele>
        <time>2024-11-20T14:56:45Z</time>
      </trkpt>
      <trkpt lat="48.16588" lon="-3.31378">
        <ele>246.6</ele>
        <time>2024-11-20T14:56:46Z</time>
      </trkpt>
      <trkpt lat="48.16588" lon="-3.3138">
        <ele>246.7</ele>
        <time>2024-11-20T14:56:47Z</time>
      </trkpt>
      <trkpt lat="48.16588" lon="-3.31382">
        <ele>246.7</ele>
        <time>2024-11-20T14:56:48Z</time>
      </trkpt>
      <trkpt lat="48.16587" lon="-3.31384">
        <ele>246.8</ele>
        <time>2024-11-20T14:56:49Z</time>
      </trkpt>
      <trkpt lat="48.16587" lon="-3.31385">
        <ele>246.9</ele>
        <time>2024-11-20T14:56:50Z</time>
      </trkpt>
      <trkpt lat="48.16587" lon="-3.31387">
        <ele>246.9</ele>
        <time>2024-11-20T14:56:51Z</time>
      </trkpt>
      <trkpt lat="48.16587" lon="-3.31388">
        <ele>247</ele>
        <time>2024-11-20T14:56:52Z</time>
      </trkpt>
      <trkpt lat="48.16587" lon="-3.3139">
        <ele>247</ele>
        <time>2024-11-20T14:56:53Z</time>
      </trkpt>
      <trkpt lat="48.16586" lon="-3.31391">
        <ele>247.1</ele>
        <time>2024-11-20T14:56:54Z</time>
      </trkpt>
      <trkpt lat="48.16586" lon="-3.31392">
        <ele>247.1</ele>
        <time>2024-11-20T14:56:55Z</time>
      </trkpt>
      <trkpt lat="48.16586" lon="-3.31393">
        <ele>247.2</ele>
        <time>2024-11-20T14:56:56Z</time>
      </trkpt>
      <trkpt lat="48.16586" lon="-3.31395">
        <ele>247.2</ele>
        <time>2024-11-20T14:56:57Z</time>
      </trkpt>
      <trkpt lat="48.16586" lon="-3.31396">
        <ele>247.3</ele>
        <time>2024-11-20T14:56:58Z</time>
      </trkpt>
      <trkpt lat="48.16586" lon="-3.31398">
        <ele>247.3</ele>
        <time>2024-11-20T14:56:59Z</time>
      </trkpt>
      <trkpt lat="48.16586" lon="-3.31399">
        <ele>247.4</ele>
        <time>2024-11-20T14:57:00Z</time>
      </trkpt>
      <trkpt lat="48.16585" lon="-3.31401">
        <ele>247.4</ele>
        <time>2024-11-20T14:57:01Z</time>
      </trkpt>
      <trkpt lat="48.16585" lon="-3.31402">
        <ele>247.5</ele>
        <time>2024-11-20T14:57:02Z</time>
      </trkpt>
      <trkpt lat="48.16584" lon="-3.31404">
        <ele>247.5</ele>
        <time>2024-11-20T14:57:03Z</time>
      </trkpt>
      <trkpt lat="48.16584" lon="-3.31405">
        <ele>247.6</ele>
        <time>2024-11-20T14:57:04Z</time>
      </trkpt>
      <trkpt lat="48.16584" lon="-3.31406">
        <ele>247.6</ele>
        <time>2024-11-20T14:57:05Z</time>
      </trkpt>
      <trkpt lat="48.16583" lon="-3.31408">
        <ele>247.7</ele>
        <time>2024-11-20T14:57:06Z</time>
      </trkpt>
      <trkpt lat="48.16583" lon="-3.31409">
        <ele>247.7</ele>
        <time>2024-11-20T14:57:07Z</time>
      </trkpt>
      <trkpt lat="48.16583" lon="-3.3141">
        <ele>247.8</ele>
        <time>2024-11-20T14:57:08Z</time>
      </trkpt>
      <trkpt lat="48.16583" lon="-3.31412">
        <ele>247.8</ele>
        <time>2024-11-20T14:57:09Z</time>
      </trkpt>
      <trkpt lat="48.16582" lon="-3.31413">
        <ele>247.9</ele>
        <time>2024-11-20T14:57:10Z</time>
      </trkpt>
      <trkpt lat="48.16582" lon="-3.31414">
        <ele>247.9</ele>
        <time>2024-11-20T14:57:11Z</time>
      </trkpt>
      <trkpt lat="48.16582" lon="-3.31415">
        <ele>248</ele>
        <time>2024-11-20T14:57:12Z</time>
      </trkpt>
      <trkpt lat="48.16581" lon="-3.31417">
        <ele>248</ele>
        <time>2024-11-20T14:57:13Z</time>
      </trkpt>
      <trkpt lat="48.16581" lon="-3.31418">
        <ele>248</ele>
        <time>2024-11-20T14:57:14Z</time>
      </trkpt>
      <trkpt lat="48.1658" lon="-3.31418">
        <ele>248</ele>
        <time>2024-11-20T14:57:15Z</time>
      </trkpt>
      <trkpt lat="48.1658" lon="-3.31419">
        <ele>248.1</ele>
        <time>2024-11-20T14:57:16Z</time>
      </trkpt>
      <trkpt lat="48.1658" lon="-3.31419">
        <ele>248.1</ele>
        <time>2024-11-20T14:57:17Z</time>
      </trkpt>
      <trkpt lat="48.1658" lon="-3.3142">
        <ele>248.1</ele>
        <time>2024-11-20T14:57:18Z</time>
      </trkpt>
      <trkpt lat="48.1658" lon="-3.31421">
        <ele>248.2</ele>
        <time>2024-11-20T14:57:19Z</time>
      </trkpt>
      <trkpt lat="48.16579" lon="-3.31423">
        <ele>248.2</ele>
        <time>2024-11-20T14:57:20Z</time>
      </trkpt>
      <trkpt lat="48.16579" lon="-3.31424">
        <ele>248.3</ele>
        <time>2024-11-20T14:57:21Z</time>
      </trkpt>
      <trkpt lat="48.16578" lon="-3.31425">
        <ele>248.3</ele>
        <time>2024-11-20T14:57:22Z</time>
      </trkpt>
      <trkpt lat="48.16578" lon="-3.31427">
        <ele>248.4</ele>
        <time>2024-11-20T14:57:23Z</time>
      </trkpt>
      <trkpt lat="48.16578" lon="-3.31429">
        <ele>248.4</ele>
        <time>2024-11-20T14:57:24Z</time>
      </trkpt>
      <trkpt lat="48.16577" lon="-3.3143">
        <ele>248.5</ele>
        <time>2024-11-20T14:57:25Z</time>
      </trkpt>
      <trkpt lat="48.16577" lon="-3.31432">
        <ele>248.5</ele>
        <time>2024-11-20T14:57:26Z</time>
      </trkpt>
      <trkpt lat="48.16577" lon="-3.31433">
        <ele>248.6</ele>
        <time>2024-11-20T14:57:27Z</time>
      </trkpt>
      <trkpt lat="48.16577" lon="-3.31435">
        <ele>248.7</ele>
        <time>2024-11-20T14:57:28Z</time>
      </trkpt>
      <trkpt lat="48.16576" lon="-3.31437">
        <ele>248.7</ele>
        <time>2024-11-20T14:57:29Z</time>
      </trkpt>
      <trkpt lat="48.16576" lon="-3.31439">
        <ele>248.8</ele>
        <time>2024-11-20T14:57:30Z</time>
      </trkpt>
      <trkpt lat="48.16575" lon="-3.31441">
        <ele>248.9</ele>
        <time>2024-11-20T14:57:31Z</time>
      </trkpt>
      <trkpt lat="48.16575" lon="-3.31443">
        <ele>248.9</ele>
        <time>2024-11-20T14:57:32Z</time>
      </trkpt>
      <trkpt lat="48.16574" lon="-3.31445">
        <ele>249</ele>
        <time>2024-11-20T14:57:33Z</time>
      </trkpt>
      <trkpt lat="48.16574" lon="-3.31447">
        <ele>249</ele>
        <time>2024-11-20T14:57:34Z</time>
      </trkpt>
      <trkpt lat="48.16573" lon="-3.31449">
        <ele>249</ele>
        <time>2024-11-20T14:57:35Z</time>
      </trkpt>
      <trkpt lat="48.16573" lon="-3.31451">
        <ele>249</ele>
        <time>2024-11-20T14:57:36Z</time>
      </trkpt>
      <trkpt lat="48.16573" lon="-3.31452">
        <ele>249</ele>
        <time>2024-11-20T14:57:37Z</time>
      </trkpt>
      <trkpt lat="48.16573" lon="-3.31454">
        <ele>249</ele>
        <time>2024-11-20T14:57:38Z</time>
      </trkpt>
      <trkpt lat="48.16573" lon="-3.31456">
        <ele>249</ele>
        <time>2024-11-20T14:57:39Z</time>
      </trkpt>
      <trkpt lat="48.16572" lon="-3.31459">
        <ele>249</ele>
        <time>2024-11-20T14:57:40Z</time>
      </trkpt>
      <trkpt lat="48.16572" lon="-3.31461">
        <ele>249</ele>
        <time>2024-11-20T14:57:41Z</time>
      </trkpt>
      <trkpt lat="48.16572" lon="-3.31463">
        <ele>249</ele>
        <time>2024-11-20T14:57:42Z</time>
      </trkpt>
      <trkpt lat="48.16572" lon="-3.31464">
        <ele>249</ele>
        <time>2024-11-20T14:57:43Z</time>
      </trkpt>
      <trkpt lat="48.16571" lon="-3.31466">
        <ele>249</ele>
        <time>2024-11-20T14:57:44Z</time>
      </trkpt>
      <trkpt lat="48.16571" lon="-3.31468">
        <ele>249</ele>
        <time>2024-11-20T14:57:45Z</time>
      </trkpt>
      <trkpt lat="48.16571" lon="-3.3147">
        <ele>249</ele>
        <time>2024-11-20T14:57:46Z</time>
      </trkpt>
      <trkpt lat="48.16571" lon="-3.31472">
        <ele>249</ele>
        <time>2024-11-20T14:57:47Z</time>
      </trkpt>
      <trkpt lat="48.1657" lon="-3.31473">
        <ele>249</ele>
        <time>2024-11-20T14:57:48Z</time>
      </trkpt>
      <trkpt lat="48.1657" lon="-3.31475">
        <ele>249</ele>
        <time>2024-11-20T14:57:49Z</time>
      </trkpt>
      <trkpt lat="48.1657" lon="-3.31477">
        <ele>249</ele>
        <time>2024-11-20T14:57:50Z</time>
      </trkpt>
      <trkpt lat="48.1657" lon="-3.31479">
        <ele>249</ele>
        <time>2024-11-20T14:57:51Z</time>
      </trkpt>
      <trkpt lat="48.16569" lon="-3.31481">
        <ele>249</ele>
        <time>2024-11-20T14:57:52Z</time>
      </trkpt>
      <trkpt lat="48.16569" lon="-3.31482">
        <ele>249</ele>
        <time>2024-11-20T14:57:53Z</time>
      </trkpt>
      <trkpt lat="48.16569" lon="-3.31484">
        <ele>249</ele>
        <time>2024-11-20T14:57:54Z</time>
      </trkpt>
      <trkpt lat="48.16569" lon="-3.31485">
        <ele>249</ele>
        <time>2024-11-20T14:57:55Z</time>
      </trkpt>
      <trkpt lat="48.16568" lon="-3.31487">
        <ele>249</ele>
        <time>2024-11-20T14:57:56Z</time>
      </trkpt>
      <trkpt lat="48.16568" lon="-3.31489">
        <ele>249</ele>
        <time>2024-11-20T14:57:57Z</time>
      </trkpt>
      <trkpt lat="48.16568" lon="-3.31491">
        <ele>249</ele>
        <time>2024-11-20T14:57:58Z</time>
      </trkpt>
      <trkpt lat="48.16568" lon="-3.31492">
        <ele>249</ele>
        <time>2024-11-20T14:57:59Z</time>
      </trkpt>
      <trkpt lat="48.16568" lon="-3.31494">
        <ele>249</ele>
        <time>2024-11-20T14:58:00Z</time>
      </trkpt>
      <trkpt lat="48.16567" lon="-3.31496">
        <ele>249</ele>
        <time>2024-11-20T14:58:01Z</time>
      </trkpt>
      <trkpt lat="48.16567" lon="-3.31498">
        <ele>249</ele>
        <time>2024-11-20T14:58:02Z</time>
      </trkpt>
      <trkpt lat="48.16567" lon="-3.31499">
        <ele>249</ele>
        <time>2024-11-20T14:58:03Z</time>
      </trkpt>
      <trkpt lat="48.16566" lon="-3.31501">
        <ele>249</ele>
        <time>2024-11-20T14:58:04Z</time>
      </trkpt>
      <trkpt lat="48.16566" lon="-3.31502">
        <ele>248.9</ele>
        <time>2024-11-20T14:58:05Z</time>
      </trkpt>
      <trkpt lat="48.16566" lon="-3.31504">
        <ele>248.9</ele>
        <time>2024-11-20T14:58:06Z</time>
      </trkpt>
      <trkpt lat="48.16565" lon="-3.31506">
        <ele>248.8</ele>
        <time>2024-11-20T14:58:07Z</time>
      </trkpt>
      <trkpt lat="48.16565" lon="-3.31507">
        <ele>248.7</ele>
        <time>2024-11-20T14:58:08Z</time>
      </trkpt>
      <trkpt lat="48.16565" lon="-3.31509">
        <ele>248.7</ele>
        <time>2024-11-20T14:58:09Z</time>
      </trkpt>
      <trkpt lat="48.16565" lon="-3.31511">
        <ele>248.6</ele>
        <time>2024-11-20T14:58:10Z</time>
      </trkpt>
      <trkpt lat="48.16564" lon="-3.31512">
        <ele>248.6</ele>
        <time>2024-11-20T14:58:11Z</time>
      </trkpt>
      <trkpt lat="48.16564" lon="-3.31514">
        <ele>248.5</ele>
        <time>2024-11-20T14:58:12Z</time>
      </trkpt>
      <trkpt lat="48.16564" lon="-3.31516">
        <ele>248.4</ele>
        <time>2024-11-20T14:58:13Z</time>
      </trkpt>
      <trkpt lat="48.16564" lon="-3.31517">
        <ele>248.4</ele>
        <time>2024-11-20T14:58:14Z</time>
      </trkpt>
      <trkpt lat="48.16563" lon="-3.31519">
        <ele>248.3</ele>
        <time>2024-11-20T14:58:15Z</time>
      </trkpt>
      <trkpt lat="48.16563" lon="-3.31521">
        <ele>248.2</ele>
        <time>2024-11-20T14:58:16Z</time>
      </trkpt>
      <trkpt lat="48.16563" lon="-3.31523">
        <ele>248.2</ele>
        <time>2024-11-20T14:58:17Z</time>
      </trkpt>
      <trkpt lat="48.16562" lon="-3.31525">
        <ele>248.1</ele>
        <time>2024-11-20T14:58:18Z</time>
      </trkpt>
      <trkpt lat="48.16562" lon="-3.31526">
        <ele>248.1</ele>
        <time>2024-11-20T14:58:19Z</time>
      </trkpt>
      <trkpt lat="48.16562" lon="-3.31528">
        <ele>248</ele>
        <time>2024-11-20T14:58:20Z</time>
      </trkpt>
      <trkpt lat="48.16561" lon="-3.3153">
        <ele>247.9</ele>
        <time>2024-11-20T14:58:21Z</time>
      </trkpt>
      <trkpt lat="48.16561" lon="-3.31532">
        <ele>247.8</ele>
        <time>2024-11-20T14:58:22Z</time>
      </trkpt>
      <trkpt lat="48.16561" lon="-3.31533">
        <ele>247.6</ele>
        <time>2024-11-20T14:58:23Z</time>
      </trkpt>
      <trkpt lat="48.1656" lon="-3.31535">
        <ele>247.5</ele>
        <time>2024-11-20T14:58:24Z</time>
      </trkpt>
      <trkpt lat="48.1656" lon="-3.31537">
        <ele>247.4</ele>
        <time>2024-11-20T14:58:25Z</time>
      </trkpt>
      <trkpt lat="48.16559" lon="-3.31539">
        <ele>247.3</ele>
        <time>2024-11-20T14:58:26Z</time>
      </trkpt>
      <trkpt lat="48.16559" lon="-3.31541">
        <ele>247.1</ele>
        <time>2024-11-20T14:58:27Z</time>
      </trkpt>
      <trkpt lat="48.16558" lon="-3.31542">
        <ele>247</ele>
        <time>2024-11-20T14:58:28Z</time>
      </trkpt>
      <trkpt lat="48.16558" lon="-3.31544">
        <ele>246.9</ele>
        <time>2024-11-20T14:58:29Z</time>
      </trkpt>
      <trkpt lat="48.16557" lon="-3.31546">
        <ele>246.7</ele>
        <time>2024-11-20T14:58:30Z</time>
      </trkpt>
      <trkpt lat="48.16556" lon="-3.31547">
        <ele>246.6</ele>
        <time>2024-11-20T14:58:31Z</time>
      </trkpt>
      <trkpt lat="48.16556" lon="-3.31549">
        <ele>246.5</ele>
        <time>2024-11-20T14:58:32Z</time>
      </trkpt>
      <trkpt lat="48.16555" lon="-3.3155">
        <ele>246.4</ele>
        <time>2024-11-20T14:58:33Z</time>
      </trkpt>
      <trkpt lat="48.16555" lon="-3.31551">
        <ele>246.3</ele>
        <time>2024-11-20T14:58:34Z</time>
      </trkpt>
      <trkpt lat="48.16554" lon="-3.31553">
        <ele>246.2</ele>
        <time>2024-11-20T14:58:35Z</time>
      </trkpt>
      <trkpt lat="48.16553" lon="-3.31554">
        <ele>246.1</ele>
        <time>2024-11-20T14:58:36Z</time>
      </trkpt>
      <trkpt lat="48.16552" lon="-3.31555">
        <ele>246</ele>
        <time>2024-11-20T14:58:37Z</time>
      </trkpt>
      <trkpt lat="48.16552" lon="-3.31556">
        <ele>245.9</ele>
        <time>2024-11-20T14:58:38Z</time>
      </trkpt>
      <trkpt lat="48.16551" lon="-3.31558">
        <ele>245.9</ele>
        <time>2024-11-20T14:58:39Z</time>
      </trkpt>
      <trkpt lat="48.1655" lon="-3.31558">
        <ele>245.8</ele>
        <time>2024-11-20T14:58:40Z</time>
      </trkpt>
      <trkpt lat="48.1655" lon="-3.31559">
        <ele>245.7</ele>
        <time>2024-11-20T14:58:41Z</time>
      </trkpt>
      <trkpt lat="48.16549" lon="-3.3156">
        <ele>245.7</ele>
        <time>2024-11-20T14:58:42Z</time>
      </trkpt>
      <trkpt lat="48.16548" lon="-3.31561">
        <ele>245.6</ele>
        <time>2024-11-20T14:58:43Z</time>
      </trkpt>
      <trkpt lat="48.16547" lon="-3.31562">
        <ele>245.6</ele>
        <time>2024-11-20T14:58:44Z</time>
      </trkpt>
      <trkpt lat="48.16546" lon="-3.31563">
        <ele>245.5</ele>
        <time>2024-11-20T14:58:45Z</time>
      </trkpt>
      <trkpt lat="48.16545" lon="-3.31564">
        <ele>245.4</ele>
        <time>2024-11-20T14:58:46Z</time>
      </trkpt>
      <trkpt lat="48.16544" lon="-3.31565">
        <ele>245.3</ele>
        <time>2024-11-20T14:58:47Z</time>
      </trkpt>
      <trkpt lat="48.16543" lon="-3.31565">
        <ele>245.3</ele>
        <time>2024-11-20T14:58:48Z</time>
      </trkpt>
      <trkpt lat="48.16542" lon="-3.31566">
        <ele>245.3</ele>
        <time>2024-11-20T14:58:49Z</time>
      </trkpt>
      <trkpt lat="48.16541" lon="-3.31566">
        <ele>245.2</ele>
        <time>2024-11-20T14:58:50Z</time>
      </trkpt>
      <trkpt lat="48.1654" lon="-3.31567">
        <ele>245.2</ele>
        <time>2024-11-20T14:58:51Z</time>
      </trkpt>
      <trkpt lat="48.16538" lon="-3.31568">
        <ele>245.1</ele>
        <time>2024-11-20T14:58:52Z</time>
      </trkpt>
      <trkpt lat="48.16537" lon="-3.31569">
        <ele>245</ele>
        <time>2024-11-20T14:58:53Z</time>
      </trkpt>
      <trkpt lat="48.16536" lon="-3.3157">
        <ele>245</ele>
        <time>2024-11-20T14:58:54Z</time>
      </trkpt>
      <trkpt lat="48.16535" lon="-3.31571">
        <ele>244.9</ele>
        <time>2024-11-20T14:58:55Z</time>
      </trkpt>
      <trkpt lat="48.16534" lon="-3.31571">
        <ele>244.9</ele>
        <time>2024-11-20T14:58:56Z</time>
      </trkpt>
      <trkpt lat="48.16533" lon="-3.31572">
        <ele>244.8</ele>
        <time>2024-11-20T14:58:57Z</time>
      </trkpt>
      <trkpt lat="48.16532" lon="-3.31573">
        <ele>244.7</ele>
        <time>2024-11-20T14:58:58Z</time>
      </trkpt>
      <trkpt lat="48.16531" lon="-3.31574">
        <ele>244.7</ele>
        <time>2024-11-20T14:58:59Z</time>
      </trkpt>
      <trkpt lat="48.16529" lon="-3.31575">
        <ele>244.6</ele>
        <time>2024-11-20T14:59:00Z</time>
      </trkpt>
      <trkpt lat="48.16528" lon="-3.31576">
        <ele>244.5</ele>
        <time>2024-11-20T14:59:01Z</time>
      </trkpt>
      <trkpt lat="48.16527" lon="-3.31577">
        <ele>244.5</ele>
        <time>2024-11-20T14:59:02Z</time>
      </trkpt>
      <trkpt lat="48.16526" lon="-3.31578">
        <ele>244.5</ele>
        <time>2024-11-20T14:59:03Z</time>
      </trkpt>
      <trkpt lat="48.16525" lon="-3.31579">
        <ele>244.4</ele>
        <time>2024-11-20T14:59:04Z</time>
      </trkpt>
      <trkpt lat="48.16524" lon="-3.31579">
        <ele>244.4</ele>
        <time>2024-11-20T14:59:05Z</time>
      </trkpt>
      <trkpt lat="48.16523" lon="-3.3158">
        <ele>244.4</ele>
        <time>2024-11-20T14:59:06Z</time>
      </trkpt>
      <trkpt lat="48.16522" lon="-3.31581">
        <ele>244.4</ele>
        <time>2024-11-20T14:59:07Z</time>
      </trkpt>
      <trkpt lat="48.16521" lon="-3.31582">
        <ele>244.3</ele>
        <time>2024-11-20T14:59:08Z</time>
      </trkpt>
      <trkpt lat="48.1652" lon="-3.31584">
        <ele>244.3</ele>
        <time>2024-11-20T14:59:09Z</time>
      </trkpt>
      <trkpt lat="48.16519" lon="-3.31585">
        <ele>244.2</ele>
        <time>2024-11-20T14:59:10Z</time>
      </trkpt>
      <trkpt lat="48.16518" lon="-3.31586">
        <ele>244.2</ele>
        <time>2024-11-20T14:59:11Z</time>
      </trkpt>
      <trkpt lat="48.16517" lon="-3.31588">
        <ele>244.1</ele>
        <time>2024-11-20T14:59:12Z</time>
      </trkpt>
      <trkpt lat="48.16516" lon="-3.31589">
        <ele>244</ele>
        <time>2024-11-20T14:59:13Z</time>
      </trkpt>
      <trkpt lat="48.16515" lon="-3.31591">
        <ele>243.9</ele>
        <time>2024-11-20T14:59:14Z</time>
      </trkpt>
      <trkpt lat="48.16514" lon="-3.31592">
        <ele>243.9</ele>
        <time>2024-11-20T14:59:15Z</time>
      </trkpt>
      <trkpt lat="48.16513" lon="-3.31594">
        <ele>243.8</ele>
        <time>2024-11-20T14:59:16Z</time>
      </trkpt>
      <trkpt lat="48.16513" lon="-3.31595">
        <ele>243.7</ele>
        <time>2024-11-20T14:59:17Z</time>
      </trkpt>
      <trkpt lat="48.16512" lon="-3.31596">
        <ele>243.7</ele>
        <time>2024-11-20T14:59:18Z</time>
      </trkpt>
      <trkpt lat="48.16511" lon="-3.31597">
        <ele>243.6</ele>
        <time>2024-11-20T14:59:19Z</time>
      </trkpt>
      <trkpt lat="48.1651" lon="-3.31599">
        <ele>243.5</ele>
        <time>2024-11-20T14:59:20Z</time>
      </trkpt>
      <trkpt lat="48.16509" lon="-3.316">
        <ele>243.5</ele>
        <time>2024-11-20T14:59:21Z</time>
      </trkpt>
      <trkpt lat="48.16509" lon="-3.31601">
        <ele>243.4</ele>
        <time>2024-11-20T14:59:22Z</time>
      </trkpt>
      <trkpt lat="48.16508" lon="-3.31603">
        <ele>243.3</ele>
        <time>2024-11-20T14:59:23Z</time>
      </trkpt>
      <trkpt lat="48.16507" lon="-3.31604">
        <ele>243.3</ele>
        <time>2024-11-20T14:59:24Z</time>
      </trkpt>
      <trkpt lat="48.16507" lon="-3.31605">
        <ele>243.2</ele>
        <time>2024-11-20T14:59:25Z</time>
      </trkpt>
      <trkpt lat="48.16506" lon="-3.31607">
        <ele>243.1</ele>
        <time>2024-11-20T14:59:26Z</time>
      </trkpt>
      <trkpt lat="48.16505" lon="-3.31608">
        <ele>243.1</ele>
        <time>2024-11-20T14:59:27Z</time>
      </trkpt>
      <trkpt lat="48.16504" lon="-3.31609">
        <ele>243</ele>
        <time>2024-11-20T14:59:28Z</time>
      </trkpt>
      <trkpt lat="48.16504" lon="-3.3161">
        <ele>243</ele>
        <time>2024-11-20T14:59:29Z</time>
      </trkpt>
      <trkpt lat="48.16503" lon="-3.31611">
        <ele>242.9</ele>
        <time>2024-11-20T14:59:30Z</time>
      </trkpt>
      <trkpt lat="48.16502" lon="-3.31612">
        <ele>242.9</ele>
        <time>2024-11-20T14:59:31Z</time>
      </trkpt>
      <trkpt lat="48.16501" lon="-3.31614">
        <ele>242.8</ele>
        <time>2024-11-20T14:59:32Z</time>
      </trkpt>
      <trkpt lat="48.165" lon="-3.31615">
        <ele>242.7</ele>
        <time>2024-11-20T14:59:33Z</time>
      </trkpt>
      <trkpt lat="48.165" lon="-3.31616">
        <ele>242.7</ele>
        <time>2024-11-20T14:59:34Z</time>
      </trkpt>
      <trkpt lat="48.16499" lon="-3.31617">
        <ele>242.6</ele>
        <time>2024-11-20T14:59:35Z</time>
      </trkpt>
      <trkpt lat="48.16498" lon="-3.31618">
        <ele>242.6</ele>
        <time>2024-11-20T14:59:36Z</time>
      </trkpt>
      <trkpt lat="48.16498" lon="-3.3162">
        <ele>242.6</ele>
        <time>2024-11-20T14:59:37Z</time>
      </trkpt>
      <trkpt lat="48.16497" lon="-3.31621">
        <ele>242.5</ele>
        <time>2024-11-20T14:59:38Z</time>
      </trkpt>
      <trkpt lat="48.16496" lon="-3.31623">
        <ele>242.5</ele>
        <time>2024-11-20T14:59:39Z</time>
      </trkpt>
      <trkpt lat="48.16495" lon="-3.31624">
        <ele>242.4</ele>
        <time>2024-11-20T14:59:40Z</time>
      </trkpt>
      <trkpt lat="48.16494" lon="-3.31625">
        <ele>242.4</ele>
        <time>2024-11-20T14:59:41Z</time>
      </trkpt>
      <trkpt lat="48.16494" lon="-3.31626">
        <ele>242.4</ele>
        <time>2024-11-20T14:59:42Z</time>
      </trkpt>
      <trkpt lat="48.16493" lon="-3.31627">
        <ele>242.3</ele>
        <time>2024-11-20T14:59:43Z</time>
      </trkpt>
      <trkpt lat="48.16494" lon="-3.31627">
        <ele>242.3</ele>
        <time>2024-11-20T14:59:44Z</time>
      </trkpt>
      <trkpt lat="48.16494" lon="-3.31627">
        <ele>242.3</ele>
        <time>2024-11-20T14:59:45Z</time>
      </trkpt>
      <trkpt lat="48.16494" lon="-3.31628">
        <ele>242.3</ele>
        <time>2024-11-20T14:59:46Z</time>
      </trkpt>
      <trkpt lat="48.16494" lon="-3.31628">
        <ele>242.3</ele>
        <time>2024-11-20T14:59:47Z</time>
      </trkpt>
      <trkpt lat="48.16494" lon="-3.31628">
        <ele>242.3</ele>
        <time>2024-11-20T14:59:48Z</time>
      </trkpt>
      <trkpt lat="48.16494" lon="-3.31628">
        <ele>242.3</ele>
        <time>2024-11-20T14:59:49Z</time>
      </trkpt>
      <trkpt lat="48.16493" lon="-3.31628">
        <ele>242.2</ele>
        <time>2024-11-20T14:59:50Z</time>
      </trkpt>
      <trkpt lat="48.16493" lon="-3.31629">
        <ele>242.2</ele>
        <time>2024-11-20T14:59:51Z</time>
      </trkpt>
      <trkpt lat="48.16493" lon="-3.3163">
        <ele>242.1</ele>
        <time>2024-11-20T14:59:52Z</time>
      </trkpt>
      <trkpt lat="48.16492" lon="-3.31632">
        <ele>242.1</ele>
        <time>2024-11-20T14:59:53Z</time>
      </trkpt>
      <trkpt lat="48.16492" lon="-3.31633">
        <ele>242</ele>
        <time>2024-11-20T14:59:54Z</time>
      </trkpt>
      <trkpt lat="48.16491" lon="-3.31634">
        <ele>242</ele>
        <time>2024-11-20T14:59:55Z</time>
      </trkpt>
      <trkpt lat="48.16491" lon="-3.31635">
        <ele>241.9</ele>
        <time>2024-11-20T14:59:56Z</time>
      </trkpt>
      <trkpt lat="48.1649" lon="-3.31636">
        <ele>241.9</ele>
        <time>2024-11-20T14:59:57Z</time>
      </trkpt>
      <trkpt lat="48.16489" lon="-3.31637">
        <ele>241.9</ele>
        <time>2024-11-20T14:59:58Z</time>
      </trkpt>
      <trkpt lat="48.16489" lon="-3.31638">
        <ele>241.9</ele>
        <time>2024-11-20T14:59:59Z</time>
      </trkpt>
      <trkpt lat="48.16489" lon="-3.31638">
        <ele>241.9</ele>
        <time>2024-11-20T15:00:00Z</time>
      </trkpt>
      <trkpt lat="48.16489" lon="-3.31638">
        <ele>241.9</ele>
        <time>2024-11-20T15:00:01Z</time>
      </trkpt>
      <trkpt lat="48.16489" lon="-3.31637">
        <ele>241.9</ele>
        <time>2024-11-20T15:00:02Z</time>
      </trkpt>
      <trkpt lat="48.16489" lon="-3.31637">
        <ele>241.9</ele>
        <time>2024-11-20T15:00:03Z</time>
      </trkpt>
      <trkpt lat="48.16489" lon="-3.31638">
        <ele>241.9</ele>
        <time>2024-11-20T15:00:04Z</time>
      </trkpt>
      <trkpt lat="48.16488" lon="-3.31637">
        <ele>241.9</ele>
        <time>2024-11-20T15:00:05Z</time>
      </trkpt>
      <trkpt lat="48.16488" lon="-3.31637">
        <ele>242</ele>
        <time>2024-11-20T15:00:06Z</time>
      </trkpt>
      <trkpt lat="48.16488" lon="-3.31638">
        <ele>242</ele>
        <time>2024-11-20T15:00:07Z</time>
      </trkpt>
      <trkpt lat="48.16488" lon="-3.31638">
        <ele>242</ele>
        <time>2024-11-20T15:00:08Z</time>
      </trkpt>
      <trkpt lat="48.16488" lon="-3.31638">
        <ele>242</ele>
        <time>2024-11-20T15:00:09Z</time>
      </trkpt>
      <trkpt lat="48.16488" lon="-3.31638">
        <ele>242</ele>
        <time>2024-11-20T15:00:10Z</time>
      </trkpt>
      <trkpt lat="48.16487" lon="-3.31639">
        <ele>241.9</ele>
        <time>2024-11-20T15:00:11Z</time>
      </trkpt>
      <trkpt lat="48.16487" lon="-3.3164">
        <ele>241.9</ele>
        <time>2024-11-20T15:00:12Z</time>
      </trkpt>
      <trkpt lat="48.16486" lon="-3.31641">
        <ele>241.9</ele>
        <time>2024-11-20T15:00:13Z</time>
      </trkpt>
      <trkpt lat="48.16486" lon="-3.31643">
        <ele>241.8</ele>
        <time>2024-11-20T15:00:14Z</time>
      </trkpt>
      <trkpt lat="48.16485" lon="-3.31644">
        <ele>241.8</ele>
        <time>2024-11-20T15:00:15Z</time>
      </trkpt>
      <trkpt lat="48.16485" lon="-3.31646">
        <ele>241.7</ele>
        <time>2024-11-20T15:00:16Z</time>
      </trkpt>
      <trkpt lat="48.16484" lon="-3.31647">
        <ele>241.7</ele>
        <time>2024-11-20T15:00:17Z</time>
      </trkpt>
      <trkpt lat="48.16484" lon="-3.31649">
        <ele>241.6</ele>
        <time>2024-11-20T15:00:18Z</time>
      </trkpt>
      <trkpt lat="48.16483" lon="-3.3165">
        <ele>241.6</ele>
        <time>2024-11-20T15:00:19Z</time>
      </trkpt>
      <trkpt lat="48.16483" lon="-3.31652">
        <ele>241.5</ele>
        <time>2024-11-20T15:00:20Z</time>
      </trkpt>
      <trkpt lat="48.16482" lon="-3.31653">
        <ele>241.5</ele>
        <time>2024-11-20T15:00:21Z</time>
      </trkpt>
      <trkpt lat="48.16482" lon="-3.31655">
        <ele>241.4</ele>
        <time>2024-11-20T15:00:22Z</time>
      </trkpt>
      <trkpt lat="48.16481" lon="-3.31656">
        <ele>241.3</ele>
        <time>2024-11-20T15:00:23Z</time>
      </trkpt>
      <trkpt lat="48.16481" lon="-3.31657">
        <ele>241.3</ele>
        <time>2024-11-20T15:00:24Z</time>
      </trkpt>
      <trkpt lat="48.1648" lon="-3.31659">
        <ele>241.2</ele>
        <time>2024-11-20T15:00:25Z</time>
      </trkpt>
      <trkpt lat="48.1648" lon="-3.3166">
        <ele>241.1</ele>
        <time>2024-11-20T15:00:26Z</time>
      </trkpt>
      <trkpt lat="48.1648" lon="-3.31661">
        <ele>241.1</ele>
        <time>2024-11-20T15:00:27Z</time>
      </trkpt>
      <trkpt lat="48.16479" lon="-3.31663">
        <ele>241</ele>
        <time>2024-11-20T15:00:28Z</time>
      </trkpt>
      <trkpt lat="48.16479" lon="-3.31665">
        <ele>240.9</ele>
        <time>2024-11-20T15:00:29Z</time>
      </trkpt>
      <trkpt lat="48.16478" lon="-3.31666">
        <ele>240.9</ele>
        <time>2024-11-20T15:00:30Z</time>
      </trkpt>
      <trkpt lat="48.16478" lon="-3.31667">
        <ele>240.8</ele>
        <time>2024-11-20T15:00:31Z</time>
      </trkpt>
      <trkpt lat="48.16477" lon="-3.31669">
        <ele>240.7</ele>
        <time>2024-11-20T15:00:32Z</time>
      </trkpt>
      <trkpt lat="48.16477" lon="-3.3167">
        <ele>240.7</ele>
        <time>2024-11-20T15:00:33Z</time>
      </trkpt>
      <trkpt lat="48.16477" lon="-3.31672">
        <ele>240.7</ele>
        <time>2024-11-20T15:00:34Z</time>
      </trkpt>
      <trkpt lat="48.16477" lon="-3.31673">
        <ele>240.6</ele>
        <time>2024-11-20T15:00:35Z</time>
      </trkpt>
      <trkpt lat="48.16476" lon="-3.31675">
        <ele>240.6</ele>
        <time>2024-11-20T15:00:36Z</time>
      </trkpt>
      <trkpt lat="48.16476" lon="-3.31677">
        <ele>240.5</ele>
        <time>2024-11-20T15:00:37Z</time>
      </trkpt>
      <trkpt lat="48.16476" lon="-3.31679">
        <ele>240.5</ele>
        <time>2024-11-20T15:00:38Z</time>
      </trkpt>
      <trkpt lat="48.16475" lon="-3.3168">
        <ele>240.4</ele>
        <time>2024-11-20T15:00:39Z</time>
      </trkpt>
      <trkpt lat="48.16475" lon="-3.31682">
        <ele>240.3</ele>
        <time>2024-11-20T15:00:40Z</time>
      </trkpt>
      <trkpt lat="48.16475" lon="-3.31683">
        <ele>240.3</ele>
        <time>2024-11-20T15:00:41Z</time>
      </trkpt>
      <trkpt lat="48.16475" lon="-3.31685">
        <ele>240.2</ele>
        <time>2024-11-20T15:00:42Z</time>
      </trkpt>
      <trkpt lat="48.16475" lon="-3.31687">
        <ele>240.2</ele>
        <time>2024-11-20T15:00:43Z</time>
      </trkpt>
      <trkpt lat="48.16475" lon="-3.31688">
        <ele>240.1</ele>
        <time>2024-11-20T15:00:44Z</time>
      </trkpt>
      <trkpt lat="48.16475" lon="-3.3169">
        <ele>240.1</ele>
        <time>2024-11-20T15:00:45Z</time>
      </trkpt>
      <trkpt lat="48.16475" lon="-3.31692">
        <ele>240</ele>
        <time>2024-11-20T15:00:46Z</time>
      </trkpt>
      <trkpt lat="48.16475" lon="-3.31693">
        <ele>240</ele>
        <time>2024-11-20T15:00:47Z</time>
      </trkpt>
      <trkpt lat="48.16474" lon="-3.31694">
        <ele>239.9</ele>
        <time>2024-11-20T15:00:48Z</time>
      </trkpt>
      <trkpt lat="48.16474" lon="-3.31696">
        <ele>239.9</ele>
        <time>2024-11-20T15:00:49Z</time>
      </trkpt>
      <trkpt lat="48.16474" lon="-3.31698">
        <ele>239.8</ele>
        <time>2024-11-20T15:00:50Z</time>
      </trkpt>
      <trkpt lat="48.16474" lon="-3.317">
        <ele>239.8</ele>
        <time>2024-11-20T15:00:51Z</time>
      </trkpt>
      <trkpt lat="48.16474" lon="-3.31701">
        <ele>239.7</ele>
        <time>2024-11-20T15:00:52Z</time>
      </trkpt>
      <trkpt lat="48.16473" lon="-3.31703">
        <ele>239.7</ele>
        <time>2024-11-20T15:00:53Z</time>
      </trkpt>
      <trkpt lat="48.16473" lon="-3.31705">
        <ele>239.6</ele>
        <time>2024-11-20T15:00:54Z</time>
      </trkpt>
      <trkpt lat="48.16473" lon="-3.31706">
        <ele>239.5</ele>
        <time>2024-11-20T15:00:55Z</time>
      </trkpt>
      <trkpt lat="48.16473" lon="-3.31708">
        <ele>239.5</ele>
        <time>2024-11-20T15:00:56Z</time>
      </trkpt>
      <trkpt lat="48.16473" lon="-3.3171">
        <ele>239.4</ele>
        <time>2024-11-20T15:00:57Z</time>
      </trkpt>
      <trkpt lat="48.16472" lon="-3.31712">
        <ele>239.4</ele>
        <time>2024-11-20T15:00:58Z</time>
      </trkpt>
      <trkpt lat="48.16472" lon="-3.31713">
        <ele>239.3</ele>
        <time>2024-11-20T15:00:59Z</time>
      </trkpt>
      <trkpt lat="48.16472" lon="-3.31715">
        <ele>239.3</ele>
        <time>2024-11-20T15:01:00Z</time>
      </trkpt>
      <trkpt lat="48.16472" lon="-3.31717">
        <ele>239.2</ele>
        <time>2024-11-20T15:01:01Z</time>
      </trkpt>
      <trkpt lat="48.16472" lon="-3.31719">
        <ele>239.1</ele>
        <time>2024-11-20T15:01:02Z</time>
      </trkpt>
      <trkpt lat="48.16472" lon="-3.31721">
        <ele>239.1</ele>
        <time>2024-11-20T15:01:03Z</time>
      </trkpt>
      <trkpt lat="48.16471" lon="-3.31723">
        <ele>239</ele>
        <time>2024-11-20T15:01:04Z</time>
      </trkpt>
      <trkpt lat="48.16471" lon="-3.31725">
        <ele>239</ele>
        <time>2024-11-20T15:01:05Z</time>
      </trkpt>
      <trkpt lat="48.16471" lon="-3.31727">
        <ele>239.1</ele>
        <time>2024-11-20T15:01:06Z</time>
      </trkpt>
      <trkpt lat="48.16471" lon="-3.31728">
        <ele>239.1</ele>
        <time>2024-11-20T15:01:07Z</time>
      </trkpt>
      <trkpt lat="48.16471" lon="-3.3173">
        <ele>239.1</ele>
        <time>2024-11-20T15:01:08Z</time>
      </trkpt>
      <trkpt lat="48.1647" lon="-3.31732">
        <ele>239.1</ele>
        <time>2024-11-20T15:01:09Z</time>
      </trkpt>
      <trkpt lat="48.1647" lon="-3.31734">
        <ele>239.1</ele>
        <time>2024-11-20T15:01:10Z</time>
      </trkpt>
      <trkpt lat="48.1647" lon="-3.31735">
        <ele>239.1</ele>
        <time>2024-11-20T15:01:11Z</time>
      </trkpt>
      <trkpt lat="48.1647" lon="-3.31737">
        <ele>239.1</ele>
        <time>2024-11-20T15:01:12Z</time>
      </trkpt>
      <trkpt lat="48.16469" lon="-3.31739">
        <ele>239.1</ele>
        <time>2024-11-20T15:01:13Z</time>
      </trkpt>
      <trkpt lat="48.16469" lon="-3.31741">
        <ele>239.1</ele>
        <time>2024-11-20T15:01:14Z</time>
      </trkpt>
      <trkpt lat="48.16469" lon="-3.31742">
        <ele>239.1</ele>
        <time>2024-11-20T15:01:15Z</time>
      </trkpt>
      <trkpt lat="48.16468" lon="-3.31744">
        <ele>239.1</ele>
        <time>2024-11-20T15:01:16Z</time>
      </trkpt>
      <trkpt lat="48.16468" lon="-3.31746">
        <ele>239.1</ele>
        <time>2024-11-20T15:01:17Z</time>
      </trkpt>
      <trkpt lat="48.16468" lon="-3.31747">
        <ele>239.2</ele>
        <time>2024-11-20T15:01:18Z</time>
      </trkpt>
      <trkpt lat="48.16468" lon="-3.31748">
        <ele>239.2</ele>
        <time>2024-11-20T15:01:19Z</time>
      </trkpt>
      <trkpt lat="48.16468" lon="-3.31748">
        <ele>239.2</ele>
        <time>2024-11-20T15:01:20Z</time>
      </trkpt>
      <trkpt lat="48.16468" lon="-3.31748">
        <ele>239.2</ele>
        <time>2024-11-20T15:01:21Z</time>
      </trkpt>
      <trkpt lat="48.16467" lon="-3.31748">
        <ele>239.2</ele>
        <time>2024-11-20T15:01:22Z</time>
      </trkpt>
      <trkpt lat="48.16467" lon="-3.31748">
        <ele>239.2</ele>
        <time>2024-11-20T15:01:23Z</time>
      </trkpt>
      <trkpt lat="48.16467" lon="-3.31747">
        <ele>239.2</ele>
        <time>2024-11-20T15:01:24Z</time>
      </trkpt>
      <trkpt lat="48.16467" lon="-3.31748">
        <ele>239.2</ele>
        <time>2024-11-20T15:01:25Z</time>
      </trkpt>
      <trkpt lat="48.16467" lon="-3.31749">
        <ele>239.2</ele>
        <time>2024-11-20T15:01:26Z</time>
      </trkpt>
      <trkpt lat="48.16467" lon="-3.31751">
        <ele>239.2</ele>
        <time>2024-11-20T15:01:27Z</time>
      </trkpt>
      <trkpt lat="48.16467" lon="-3.31752">
        <ele>239.1</ele>
        <time>2024-11-20T15:01:28Z</time>
      </trkpt>
      <trkpt lat="48.16466" lon="-3.31754">
        <ele>239.1</ele>
        <time>2024-11-20T15:01:29Z</time>
      </trkpt>
      <trkpt lat="48.16466" lon="-3.31756">
        <ele>239</ele>
        <time>2024-11-20T15:01:30Z</time>
      </trkpt>
      <trkpt lat="48.16466" lon="-3.31758">
        <ele>239</ele>
        <time>2024-11-20T15:01:31Z</time>
      </trkpt>
      <trkpt lat="48.16465" lon="-3.3176">
        <ele>238.9</ele>
        <time>2024-11-20T15:01:32Z</time>
      </trkpt>
      <trkpt lat="48.16465" lon="-3.31761">
        <ele>238.9</ele>
        <time>2024-11-20T15:01:33Z</time>
      </trkpt>
      <trkpt lat="48.16465" lon="-3.31762">
        <ele>238.8</ele>
        <time>2024-11-20T15:01:34Z</time>
      </trkpt>
      <trkpt lat="48.16464" lon="-3.31764">
        <ele>238.8</ele>
        <time>2024-11-20T15:01:35Z</time>
      </trkpt>
      <trkpt lat="48.16464" lon="-3.31766">
        <ele>238.7</ele>
        <time>2024-11-20T15:01:36Z</time>
      </trkpt>
      <trkpt lat="48.16464" lon="-3.31767">
        <ele>238.7</ele>
        <time>2024-11-20T15:01:37Z</time>
      </trkpt>
      <trkpt lat="48.16463" lon="-3.31769">
        <ele>238.6</ele>
        <time>2024-11-20T15:01:38Z</time>
      </trkpt>
      <trkpt lat="48.16463" lon="-3.31771">
        <ele>238.6</ele>
        <time>2024-11-20T15:01:39Z</time>
      </trkpt>
      <trkpt lat="48.16463" lon="-3.31773">
        <ele>238.5</ele>
        <time>2024-11-20T15:01:40Z</time>
      </trkpt>
      <trkpt lat="48.16462" lon="-3.31774">
        <ele>238.5</ele>
        <time>2024-11-20T15:01:41Z</time>
      </trkpt>
      <trkpt lat="48.16462" lon="-3.31776">
        <ele>238.5</ele>
        <time>2024-11-20T15:01:42Z</time>
      </trkpt>
      <trkpt lat="48.16462" lon="-3.31777">
        <ele>238.4</ele>
        <time>2024-11-20T15:01:43Z</time>
      </trkpt>
      <trkpt lat="48.16461" lon="-3.31779">
        <ele>238.4</ele>
        <time>2024-11-20T15:01:44Z</time>
      </trkpt>
      <trkpt lat="48.16461" lon="-3.3178">
        <ele>238.3</ele>
        <time>2024-11-20T15:01:45Z</time>
      </trkpt>
      <trkpt lat="48.1646" lon="-3.31783">
        <ele>238.3</ele>
        <time>2024-11-20T15:01:46Z</time>
      </trkpt>
      <trkpt lat="48.16459" lon="-3.31785">
        <ele>238.2</ele>
        <time>2024-11-20T15:01:47Z</time>
      </trkpt>
      <trkpt lat="48.16459" lon="-3.31786">
        <ele>238.2</ele>
        <time>2024-11-20T15:01:48Z</time>
      </trkpt>
      <trkpt lat="48.16458" lon="-3.31788">
        <ele>238.1</ele>
        <time>2024-11-20T15:01:49Z</time>
      </trkpt>
      <trkpt lat="48.16458" lon="-3.3179">
        <ele>238.1</ele>
        <time>2024-11-20T15:01:50Z</time>
      </trkpt>
      <trkpt lat="48.16457" lon="-3.31791">
        <ele>238.1</ele>
        <time>2024-11-20T15:01:51Z</time>
      </trkpt>
      <trkpt lat="48.16457" lon="-3.31792">
        <ele>238.1</ele>
        <time>2024-11-20T15:01:52Z</time>
      </trkpt>
      <trkpt lat="48.16456" lon="-3.31793">
        <ele>238</ele>
        <time>2024-11-20T15:01:53Z</time>
      </trkpt>
      <trkpt lat="48.16456" lon="-3.31795">
        <ele>238</ele>
        <time>2024-11-20T15:01:54Z</time>
      </trkpt>
      <trkpt lat="48.16455" lon="-3.31797">
        <ele>237.9</ele>
        <time>2024-11-20T15:01:55Z</time>
      </trkpt>
      <trkpt lat="48.16455" lon="-3.31798">
        <ele>237.9</ele>
        <time>2024-11-20T15:01:56Z</time>
      </trkpt>
      <trkpt lat="48.16454" lon="-3.31799">
        <ele>237.9</ele>
        <time>2024-11-20T15:01:57Z</time>
      </trkpt>
      <trkpt lat="48.16454" lon="-3.318">
        <ele>237.9</ele>
        <time>2024-11-20T15:01:58Z</time>
      </trkpt>
      <trkpt lat="48.16453" lon="-3.31802">
        <ele>237.8</ele>
        <time>2024-11-20T15:01:59Z</time>
      </trkpt>
      <trkpt lat="48.16452" lon="-3.31804">
        <ele>237.8</ele>
        <time>2024-11-20T15:02:00Z</time>
      </trkpt>
      <trkpt lat="48.16451" lon="-3.31805">
        <ele>237.8</ele>
        <time>2024-11-20T15:02:01Z</time>
      </trkpt>
      <trkpt lat="48.1645" lon="-3.31807">
        <ele>237.8</ele>
        <time>2024-11-20T15:02:02Z</time>
      </trkpt>
      <trkpt lat="48.1645" lon="-3.31808">
        <ele>237.8</ele>
        <time>2024-11-20T15:02:03Z</time>
      </trkpt>
      <trkpt lat="48.16449" lon="-3.31809">
        <ele>237.8</ele>
        <time>2024-11-20T15:02:04Z</time>
      </trkpt>
      <trkpt lat="48.16449" lon="-3.3181">
        <ele>237.8</ele>
        <time>2024-11-20T15:02:05Z</time>
      </trkpt>
      <trkpt lat="48.16448" lon="-3.31811">
        <ele>237.9</ele>
        <time>2024-11-20T15:02:06Z</time>
      </trkpt>
      <trkpt lat="48.16448" lon="-3.31813">
        <ele>237.9</ele>
        <time>2024-11-20T15:02:07Z</time>
      </trkpt>
      <trkpt lat="48.16447" lon="-3.31814">
        <ele>237.9</ele>
        <time>2024-11-20T15:02:08Z</time>
      </trkpt>
      <trkpt lat="48.16446" lon="-3.31816">
        <ele>237.9</ele>
        <time>2024-11-20T15:02:09Z</time>
      </trkpt>
      <trkpt lat="48.16446" lon="-3.31817">
        <ele>238</ele>
        <time>2024-11-20T15:02:10Z</time>
      </trkpt>
      <trkpt lat="48.16445" lon="-3.31818">
        <ele>238</ele>
        <time>2024-11-20T15:02:11Z</time>
      </trkpt>
      <trkpt lat="48.16444" lon="-3.31819">
        <ele>238</ele>
        <time>2024-11-20T15:02:12Z</time>
      </trkpt>
      <trkpt lat="48.16444" lon="-3.3182">
        <ele>238</ele>
        <time>2024-11-20T15:02:13Z</time>
      </trkpt>
      <trkpt lat="48.16443" lon="-3.31821">
        <ele>238.1</ele>
        <time>2024-11-20T15:02:14Z</time>
      </trkpt>
      <trkpt lat="48.16442" lon="-3.31822">
        <ele>238.1</ele>
        <time>2024-11-20T15:02:15Z</time>
      </trkpt>
      <trkpt lat="48.16442" lon="-3.31824">
        <ele>238.1</ele>
        <time>2024-11-20T15:02:16Z</time>
      </trkpt>
      <trkpt lat="48.16441" lon="-3.31825">
        <ele>238.1</ele>
        <time>2024-11-20T15:02:17Z</time>
      </trkpt>
      <trkpt lat="48.16441" lon="-3.31827">
        <ele>238.2</ele>
        <time>2024-11-20T15:02:18Z</time>
      </trkpt>
      <trkpt lat="48.16441" lon="-3.31828">
        <ele>238.2</ele>
        <time>2024-11-20T15:02:19Z</time>
      </trkpt>
      <trkpt lat="48.16441" lon="-3.3183">
        <ele>238.2</ele>
        <time>2024-11-20T15:02:20Z</time>
      </trkpt>
      <trkpt lat="48.1644" lon="-3.31832">
        <ele>238.2</ele>
        <time>2024-11-20T15:02:21Z</time>
      </trkpt>
      <trkpt lat="48.1644" lon="-3.31833">
        <ele>238.2</ele>
        <time>2024-11-20T15:02:22Z</time>
      </trkpt>
      <trkpt lat="48.1644" lon="-3.31835">
        <ele>238.2</ele>
        <time>2024-11-20T15:02:23Z</time>
      </trkpt>
      <trkpt lat="48.1644" lon="-3.31836">
        <ele>238.2</ele>
        <time>2024-11-20T15:02:24Z</time>
      </trkpt>
      <trkpt lat="48.1644" lon="-3.31838">
        <ele>238.2</ele>
        <time>2024-11-20T15:02:25Z</time>
      </trkpt>
      <trkpt lat="48.16439" lon="-3.31839">
        <ele>238.2</ele>
        <time>2024-11-20T15:02:26Z</time>
      </trkpt>
      <trkpt lat="48.16439" lon="-3.3184">
        <ele>238.2</ele>
        <time>2024-11-20T15:02:27Z</time>
      </trkpt>
      <trkpt lat="48.16439" lon="-3.31841">
        <ele>238.2</ele>
        <time>2024-11-20T15:02:28Z</time>
      </trkpt>
      <trkpt lat="48.16439" lon="-3.31841">
        <ele>238.2</ele>
        <time>2024-11-20T15:02:29Z</time>
      </trkpt>
      <trkpt lat="48.16438" lon="-3.31841">
        <ele>238.2</ele>
        <time>2024-11-20T15:02:30Z</time>
      </trkpt>
      <trkpt lat="48.16438" lon="-3.31841">
        <ele>238.2</ele>
        <time>2024-11-20T15:02:31Z</time>
      </trkpt>
      <trkpt lat="48.16438" lon="-3.31842">
        <ele>238.2</ele>
        <time>2024-11-20T15:02:32Z</time>
      </trkpt>
      <trkpt lat="48.16439" lon="-3.31842">
        <ele>238.2</ele>
        <time>2024-11-20T15:02:33Z</time>
      </trkpt>
      <trkpt lat="48.16438" lon="-3.31842">
        <ele>238.2</ele>
        <time>2024-11-20T15:02:34Z</time>
      </trkpt>
      <trkpt lat="48.16438" lon="-3.31843">
        <ele>238.2</ele>
        <time>2024-11-20T15:02:35Z</time>
      </trkpt>
      <trkpt lat="48.16438" lon="-3.31844">
        <ele>238.2</ele>
        <time>2024-11-20T15:02:36Z</time>
      </trkpt>
      <trkpt lat="48.16438" lon="-3.31845">
        <ele>238.2</ele>
        <time>2024-11-20T15:02:37Z</time>
      </trkpt>
      <trkpt lat="48.16438" lon="-3.31847">
        <ele>238.2</ele>
        <time>2024-11-20T15:02:38Z</time>
      </trkpt>
      <trkpt lat="48.16438" lon="-3.31848">
        <ele>238.2</ele>
        <time>2024-11-20T15:02:39Z</time>
      </trkpt>
      <trkpt lat="48.16438" lon="-3.3185">
        <ele>238.2</ele>
        <time>2024-11-20T15:02:40Z</time>
      </trkpt>
      <trkpt lat="48.16438" lon="-3.31853">
        <ele>238.2</ele>
        <time>2024-11-20T15:02:41Z</time>
      </trkpt>
      <trkpt lat="48.16438" lon="-3.31855">
        <ele>238.2</ele>
        <time>2024-11-20T15:02:42Z</time>
      </trkpt>
      <trkpt lat="48.16438" lon="-3.31857">
        <ele>238.2</ele>
        <time>2024-11-20T15:02:43Z</time>
      </trkpt>
      <trkpt lat="48.16438" lon="-3.31858">
        <ele>238.2</ele>
        <time>2024-11-20T15:02:44Z</time>
      </trkpt>
      <trkpt lat="48.16439" lon="-3.31859">
        <ele>238.2</ele>
        <time>2024-11-20T15:02:45Z</time>
      </trkpt>
      <trkpt lat="48.16439" lon="-3.31861">
        <ele>238.2</ele>
        <time>2024-11-20T15:02:46Z</time>
      </trkpt>
      <trkpt lat="48.16439" lon="-3.31862">
        <ele>238.2</ele>
        <time>2024-11-20T15:02:47Z</time>
      </trkpt>
      <trkpt lat="48.16439" lon="-3.31864">
        <ele>238.1</ele>
        <time>2024-11-20T15:02:48Z</time>
      </trkpt>
      <trkpt lat="48.1644" lon="-3.31865">
        <ele>238</ele>
        <time>2024-11-20T15:02:49Z</time>
      </trkpt>
      <trkpt lat="48.1644" lon="-3.31867">
        <ele>238</ele>
        <time>2024-11-20T15:02:50Z</time>
      </trkpt>
      <trkpt lat="48.1644" lon="-3.31869">
        <ele>237.9</ele>
        <time>2024-11-20T15:02:51Z</time>
      </trkpt>
      <trkpt lat="48.1644" lon="-3.3187">
        <ele>237.8</ele>
        <time>2024-11-20T15:02:52Z</time>
      </trkpt>
      <trkpt lat="48.16439" lon="-3.31872">
        <ele>237.8</ele>
        <time>2024-11-20T15:02:53Z</time>
      </trkpt>
      <trkpt lat="48.16439" lon="-3.31874">
        <ele>237.7</ele>
        <time>2024-11-20T15:02:54Z</time>
      </trkpt>
      <trkpt lat="48.1644" lon="-3.31876">
        <ele>237.6</ele>
        <time>2024-11-20T15:02:55Z</time>
      </trkpt>
      <trkpt lat="48.1644" lon="-3.31877">
        <ele>237.6</ele>
        <time>2024-11-20T15:02:56Z</time>
      </trkpt>
      <trkpt lat="48.1644" lon="-3.31879">
        <ele>237.5</ele>
        <time>2024-11-20T15:02:57Z</time>
      </trkpt>
      <trkpt lat="48.1644" lon="-3.31882">
        <ele>237.4</ele>
        <time>2024-11-20T15:02:58Z</time>
      </trkpt>
      <trkpt lat="48.1644" lon="-3.31884">
        <ele>237.4</ele>
        <time>2024-11-20T15:02:59Z</time>
      </trkpt>
      <trkpt lat="48.1644" lon="-3.31886">
        <ele>237.3</ele>
        <time>2024-11-20T15:03:00Z</time>
      </trkpt>
      <trkpt lat="48.1644" lon="-3.31887">
        <ele>237.2</ele>
        <time>2024-11-20T15:03:01Z</time>
      </trkpt>
      <trkpt lat="48.1644" lon="-3.31889">
        <ele>237.2</ele>
        <time>2024-11-20T15:03:02Z</time>
      </trkpt>
      <trkpt lat="48.1644" lon="-3.31891">
        <ele>237.1</ele>
        <time>2024-11-20T15:03:03Z</time>
      </trkpt>
      <trkpt lat="48.16439" lon="-3.31893">
        <ele>237</ele>
        <time>2024-11-20T15:03:04Z</time>
      </trkpt>
      <trkpt lat="48.16439" lon="-3.31895">
        <ele>237</ele>
        <time>2024-11-20T15:03:05Z</time>
      </trkpt>
      <trkpt lat="48.16439" lon="-3.31897">
        <ele>236.9</ele>
        <time>2024-11-20T15:03:06Z</time>
      </trkpt>
      <trkpt lat="48.16439" lon="-3.31899">
        <ele>236.8</ele>
        <time>2024-11-20T15:03:07Z</time>
      </trkpt>
      <trkpt lat="48.1644" lon="-3.319">
        <ele>236.8</ele>
        <time>2024-11-20T15:03:08Z</time>
      </trkpt>
      <trkpt lat="48.1644" lon="-3.31902">
        <ele>236.7</ele>
        <time>2024-11-20T15:03:09Z</time>
      </trkpt>
      <trkpt lat="48.1644" lon="-3.31904">
        <ele>236.6</ele>
        <time>2024-11-20T15:03:10Z</time>
      </trkpt>
      <trkpt lat="48.1644" lon="-3.31906">
        <ele>236.5</ele>
        <time>2024-11-20T15:03:11Z</time>
      </trkpt>
      <trkpt lat="48.1644" lon="-3.31908">
        <ele>236.5</ele>
        <time>2024-11-20T15:03:12Z</time>
      </trkpt>
      <trkpt lat="48.1644" lon="-3.31909">
        <ele>236.4</ele>
        <time>2024-11-20T15:03:13Z</time>
      </trkpt>
      <trkpt lat="48.1644" lon="-3.3191">
        <ele>236.4</ele>
        <time>2024-11-20T15:03:14Z</time>
      </trkpt>
      <trkpt lat="48.1644" lon="-3.31912">
        <ele>236.3</ele>
        <time>2024-11-20T15:03:15Z</time>
      </trkpt>
      <trkpt lat="48.1644" lon="-3.31913">
        <ele>236.3</ele>
        <time>2024-11-20T15:03:16Z</time>
      </trkpt>
      <trkpt lat="48.1644" lon="-3.31915">
        <ele>236.2</ele>
        <time>2024-11-20T15:03:17Z</time>
      </trkpt>
      <trkpt lat="48.16439" lon="-3.31917">
        <ele>236.2</ele>
        <time>2024-11-20T15:03:18Z</time>
      </trkpt>
      <trkpt lat="48.16439" lon="-3.31919">
        <ele>236.1</ele>
        <time>2024-11-20T15:03:19Z</time>
      </trkpt>
      <trkpt lat="48.16438" lon="-3.31921">
        <ele>236.1</ele>
        <time>2024-11-20T15:03:20Z</time>
      </trkpt>
      <trkpt lat="48.16438" lon="-3.31922">
        <ele>236.1</ele>
        <time>2024-11-20T15:03:21Z</time>
      </trkpt>
      <trkpt lat="48.16437" lon="-3.31923">
        <ele>236</ele>
        <time>2024-11-20T15:03:22Z</time>
      </trkpt>
      <trkpt lat="48.16436" lon="-3.31924">
        <ele>236</ele>
        <time>2024-11-20T15:03:23Z</time>
      </trkpt>
      <trkpt lat="48.16435" lon="-3.31926">
        <ele>236</ele>
        <time>2024-11-20T15:03:24Z</time>
      </trkpt>
      <trkpt lat="48.16434" lon="-3.31928">
        <ele>236</ele>
        <time>2024-11-20T15:03:25Z</time>
      </trkpt>
      <trkpt lat="48.16434" lon="-3.31929">
        <ele>235.9</ele>
        <time>2024-11-20T15:03:26Z</time>
      </trkpt>
      <trkpt lat="48.16433" lon="-3.3193">
        <ele>235.9</ele>
        <time>2024-11-20T15:03:27Z</time>
      </trkpt>
      <trkpt lat="48.16432" lon="-3.31932">
        <ele>235.9</ele>
        <time>2024-11-20T15:03:28Z</time>
      </trkpt>
      <trkpt lat="48.16432" lon="-3.31933">
        <ele>235.9</ele>
        <time>2024-11-20T15:03:29Z</time>
      </trkpt>
      <trkpt lat="48.16431" lon="-3.31935">
        <ele>235.8</ele>
        <time>2024-11-20T15:03:30Z</time>
      </trkpt>
      <trkpt lat="48.1643" lon="-3.31936">
        <ele>235.8</ele>
        <time>2024-11-20T15:03:31Z</time>
      </trkpt>
      <trkpt lat="48.1643" lon="-3.31938">
        <ele>235.8</ele>
        <time>2024-11-20T15:03:32Z</time>
      </trkpt>
      <trkpt lat="48.16429" lon="-3.31939">
        <ele>235.7</ele>
        <time>2024-11-20T15:03:33Z</time>
      </trkpt>
      <trkpt lat="48.16429" lon="-3.31941">
        <ele>235.7</ele>
        <time>2024-11-20T15:03:34Z</time>
      </trkpt>
      <trkpt lat="48.16428" lon="-3.31942">
        <ele>235.7</ele>
        <time>2024-11-20T15:03:35Z</time>
      </trkpt>
      <trkpt lat="48.16428" lon="-3.31944">
        <ele>235.6</ele>
        <time>2024-11-20T15:03:36Z</time>
      </trkpt>
      <trkpt lat="48.16427" lon="-3.31945">
        <ele>235.6</ele>
        <time>2024-11-20T15:03:37Z</time>
      </trkpt>
      <trkpt lat="48.16426" lon="-3.31946">
        <ele>235.6</ele>
        <time>2024-11-20T15:03:38Z</time>
      </trkpt>
      <trkpt lat="48.16425" lon="-3.31948">
        <ele>235.6</ele>
        <time>2024-11-20T15:03:39Z</time>
      </trkpt>
      <trkpt lat="48.16425" lon="-3.31948">
        <ele>235.6</ele>
        <time>2024-11-20T15:03:40Z</time>
      </trkpt>
      <trkpt lat="48.16423" lon="-3.3195">
        <ele>235.6</ele>
        <time>2024-11-20T15:03:41Z</time>
      </trkpt>
      <trkpt lat="48.16423" lon="-3.31951">
        <ele>235.6</ele>
        <time>2024-11-20T15:03:42Z</time>
      </trkpt>
      <trkpt lat="48.16422" lon="-3.31952">
        <ele>235.6</ele>
        <time>2024-11-20T15:03:43Z</time>
      </trkpt>
      <trkpt lat="48.16421" lon="-3.31952">
        <ele>235.6</ele>
        <time>2024-11-20T15:03:44Z</time>
      </trkpt>
      <trkpt lat="48.1642" lon="-3.31954">
        <ele>235.5</ele>
        <time>2024-11-20T15:03:45Z</time>
      </trkpt>
      <trkpt lat="48.1642" lon="-3.31954">
        <ele>235.5</ele>
        <time>2024-11-20T15:03:46Z</time>
      </trkpt>
      <trkpt lat="48.16419" lon="-3.31955">
        <ele>235.5</ele>
        <time>2024-11-20T15:03:47Z</time>
      </trkpt>
      <trkpt lat="48.16417" lon="-3.31956">
        <ele>235.5</ele>
        <time>2024-11-20T15:03:48Z</time>
      </trkpt>
      <trkpt lat="48.16416" lon="-3.31957">
        <ele>235.5</ele>
        <time>2024-11-20T15:03:49Z</time>
      </trkpt>
      <trkpt lat="48.16415" lon="-3.31958">
        <ele>235.5</ele>
        <time>2024-11-20T15:03:50Z</time>
      </trkpt>
      <trkpt lat="48.16414" lon="-3.31959">
        <ele>235.4</ele>
        <time>2024-11-20T15:03:51Z</time>
      </trkpt>
      <trkpt lat="48.16414" lon="-3.3196">
        <ele>235.4</ele>
        <time>2024-11-20T15:03:52Z</time>
      </trkpt>
      <trkpt lat="48.16413" lon="-3.3196">
        <ele>235.4</ele>
        <time>2024-11-20T15:03:53Z</time>
      </trkpt>
      <trkpt lat="48.16412" lon="-3.31961">
        <ele>235.3</ele>
        <time>2024-11-20T15:03:54Z</time>
      </trkpt>
      <trkpt lat="48.16411" lon="-3.31961">
        <ele>235.3</ele>
        <time>2024-11-20T15:03:55Z</time>
      </trkpt>
      <trkpt lat="48.1641" lon="-3.31962">
        <ele>235.2</ele>
        <time>2024-11-20T15:03:56Z</time>
      </trkpt>
      <trkpt lat="48.16409" lon="-3.31962">
        <ele>235.2</ele>
        <time>2024-11-20T15:03:57Z</time>
      </trkpt>
      <trkpt lat="48.16408" lon="-3.31963">
        <ele>235.1</ele>
        <time>2024-11-20T15:03:58Z</time>
      </trkpt>
      <trkpt lat="48.16407" lon="-3.31963">
        <ele>235.1</ele>
        <time>2024-11-20T15:03:59Z</time>
      </trkpt>
      <trkpt lat="48.16406" lon="-3.31964">
        <ele>235</ele>
        <time>2024-11-20T15:04:00Z</time>
      </trkpt>
      <trkpt lat="48.16405" lon="-3.31965">
        <ele>234.9</ele>
        <time>2024-11-20T15:04:01Z</time>
      </trkpt>
      <trkpt lat="48.16404" lon="-3.31967">
        <ele>234.8</ele>
        <time>2024-11-20T15:04:02Z</time>
      </trkpt>
      <trkpt lat="48.16403" lon="-3.31967">
        <ele>234.8</ele>
        <time>2024-11-20T15:04:03Z</time>
      </trkpt>
      <trkpt lat="48.16402" lon="-3.31968">
        <ele>234.7</ele>
        <time>2024-11-20T15:04:04Z</time>
      </trkpt>
      <trkpt lat="48.16401" lon="-3.31968">
        <ele>234.7</ele>
        <time>2024-11-20T15:04:05Z</time>
      </trkpt>
      <trkpt lat="48.16401" lon="-3.3197">
        <ele>234.6</ele>
        <time>2024-11-20T15:04:06Z</time>
      </trkpt>
      <trkpt lat="48.164" lon="-3.31971">
        <ele>234.5</ele>
        <time>2024-11-20T15:04:07Z</time>
      </trkpt>
      <trkpt lat="48.16398" lon="-3.31972">
        <ele>234.4</ele>
        <time>2024-11-20T15:04:08Z</time>
      </trkpt>
      <trkpt lat="48.16397" lon="-3.31973">
        <ele>234.3</ele>
        <time>2024-11-20T15:04:09Z</time>
      </trkpt>
      <trkpt lat="48.16396" lon="-3.31973">
        <ele>234.2</ele>
        <time>2024-11-20T15:04:10Z</time>
      </trkpt>
      <trkpt lat="48.16395" lon="-3.31974">
        <ele>234.1</ele>
        <time>2024-11-20T15:04:11Z</time>
      </trkpt>
      <trkpt lat="48.16394" lon="-3.31975">
        <ele>234.1</ele>
        <time>2024-11-20T15:04:12Z</time>
      </trkpt>
      <trkpt lat="48.16393" lon="-3.31976">
        <ele>234</ele>
        <time>2024-11-20T15:04:13Z</time>
      </trkpt>
      <trkpt lat="48.16392" lon="-3.31977">
        <ele>233.9</ele>
        <time>2024-11-20T15:04:14Z</time>
      </trkpt>
      <trkpt lat="48.16391" lon="-3.31978">
        <ele>233.9</ele>
        <time>2024-11-20T15:04:15Z</time>
      </trkpt>
      <trkpt lat="48.1639" lon="-3.31979">
        <ele>233.8</ele>
        <time>2024-11-20T15:04:16Z</time>
      </trkpt>
      <trkpt lat="48.16388" lon="-3.3198">
        <ele>233.7</ele>
        <time>2024-11-20T15:04:17Z</time>
      </trkpt>
      <trkpt lat="48.16387" lon="-3.31981">
        <ele>233.7</ele>
        <time>2024-11-20T15:04:18Z</time>
      </trkpt>
      <trkpt lat="48.16386" lon="-3.31982">
        <ele>233.6</ele>
        <time>2024-11-20T15:04:19Z</time>
      </trkpt>
      <trkpt lat="48.16385" lon="-3.31983">
        <ele>233.6</ele>
        <time>2024-11-20T15:04:20Z</time>
      </trkpt>
      <trkpt lat="48.16384" lon="-3.31983">
        <ele>233.5</ele>
        <time>2024-11-20T15:04:21Z</time>
      </trkpt>
      <trkpt lat="48.16382" lon="-3.31984">
        <ele>233.5</ele>
        <time>2024-11-20T15:04:22Z</time>
      </trkpt>
      <trkpt lat="48.16381" lon="-3.31985">
        <ele>233.4</ele>
        <time>2024-11-20T15:04:23Z</time>
      </trkpt>
      <trkpt lat="48.1638" lon="-3.31986">
        <ele>233.4</ele>
        <time>2024-11-20T15:04:24Z</time>
      </trkpt>
      <trkpt lat="48.16379" lon="-3.31987">
        <ele>233.3</ele>
        <time>2024-11-20T15:04:25Z</time>
      </trkpt>
      <trkpt lat="48.16377" lon="-3.31988">
        <ele>233.2</ele>
        <time>2024-11-20T15:04:26Z</time>
      </trkpt>
      <trkpt lat="48.16376" lon="-3.31989">
        <ele>233.1</ele>
        <time>2024-11-20T15:04:27Z</time>
      </trkpt>
      <trkpt lat="48.16375" lon="-3.31989">
        <ele>233.1</ele>
        <time>2024-11-20T15:04:28Z</time>
      </trkpt>
      <trkpt lat="48.16374" lon="-3.3199">
        <ele>233</ele>
        <time>2024-11-20T15:04:29Z</time>
      </trkpt>
      <trkpt lat="48.16373" lon="-3.31991">
        <ele>232.9</ele>
        <time>2024-11-20T15:04:30Z</time>
      </trkpt>
      <trkpt lat="48.16373" lon="-3.31992">
        <ele>232.9</ele>
        <time>2024-11-20T15:04:31Z</time>
      </trkpt>
      <trkpt lat="48.16372" lon="-3.31993">
        <ele>232.8</ele>
        <time>2024-11-20T15:04:32Z</time>
      </trkpt>
      <trkpt lat="48.16371" lon="-3.31994">
        <ele>232.7</ele>
        <time>2024-11-20T15:04:33Z</time>
      </trkpt>
      <trkpt lat="48.1637" lon="-3.31995">
        <ele>232.6</ele>
        <time>2024-11-20T15:04:34Z</time>
      </trkpt>
      <trkpt lat="48.16369" lon="-3.31995">
        <ele>232.6</ele>
        <time>2024-11-20T15:04:35Z</time>
      </trkpt>
      <trkpt lat="48.16368" lon="-3.31996">
        <ele>232.5</ele>
        <time>2024-11-20T15:04:36Z</time>
      </trkpt>
      <trkpt lat="48.16367" lon="-3.31997">
        <ele>232.4</ele>
        <time>2024-11-20T15:04:37Z</time>
      </trkpt>
      <trkpt lat="48.16366" lon="-3.31998">
        <ele>232.3</ele>
        <time>2024-11-20T15:04:38Z</time>
      </trkpt>
      <trkpt lat="48.16366" lon="-3.31998">
        <ele>232.3</ele>
        <time>2024-11-20T15:04:39Z</time>
      </trkpt>
      <trkpt lat="48.16365" lon="-3.31999">
        <ele>232.2</ele>
        <time>2024-11-20T15:04:40Z</time>
      </trkpt>
      <trkpt lat="48.16364" lon="-3.32">
        <ele>232.1</ele>
        <time>2024-11-20T15:04:41Z</time>
      </trkpt>
      <trkpt lat="48.16363" lon="-3.32001">
        <ele>232</ele>
        <time>2024-11-20T15:04:42Z</time>
      </trkpt>
      <trkpt lat="48.16362" lon="-3.32002">
        <ele>231.9</ele>
        <time>2024-11-20T15:04:43Z</time>
      </trkpt>
      <trkpt lat="48.16361" lon="-3.32003">
        <ele>231.8</ele>
        <time>2024-11-20T15:04:44Z</time>
      </trkpt>
      <trkpt lat="48.1636" lon="-3.32004">
        <ele>231.7</ele>
        <time>2024-11-20T15:04:45Z</time>
      </trkpt>
      <trkpt lat="48.16359" lon="-3.32005">
        <ele>231.6</ele>
        <time>2024-11-20T15:04:46Z</time>
      </trkpt>
      <trkpt lat="48.16358" lon="-3.32006">
        <ele>231.6</ele>
        <time>2024-11-20T15:04:47Z</time>
      </trkpt>
      <trkpt lat="48.16357" lon="-3.32007">
        <ele>231.5</ele>
        <time>2024-11-20T15:04:48Z</time>
      </trkpt>
      <trkpt lat="48.16356" lon="-3.32008">
        <ele>231.4</ele>
        <time>2024-11-20T15:04:49Z</time>
      </trkpt>
      <trkpt lat="48.16355" lon="-3.3201">
        <ele>231.3</ele>
        <time>2024-11-20T15:04:50Z</time>
      </trkpt>
      <trkpt lat="48.16355" lon="-3.32011">
        <ele>231.2</ele>
        <time>2024-11-20T15:04:51Z</time>
      </trkpt>
      <trkpt lat="48.16354" lon="-3.32012">
        <ele>231.1</ele>
        <time>2024-11-20T15:04:52Z</time>
      </trkpt>
      <trkpt lat="48.16353" lon="-3.32013">
        <ele>231.1</ele>
        <time>2024-11-20T15:04:53Z</time>
      </trkpt>
      <trkpt lat="48.16353" lon="-3.32014">
        <ele>231</ele>
        <time>2024-11-20T15:04:54Z</time>
      </trkpt>
      <trkpt lat="48.16352" lon="-3.32014">
        <ele>231</ele>
        <time>2024-11-20T15:04:55Z</time>
      </trkpt>
      <trkpt lat="48.16352" lon="-3.32014">
        <ele>231</ele>
        <time>2024-11-20T15:04:56Z</time>
      </trkpt>
      <trkpt lat="48.16352" lon="-3.32014">
        <ele>231</ele>
        <time>2024-11-20T15:04:57Z</time>
      </trkpt>
      <trkpt lat="48.16352" lon="-3.32013">
        <ele>231</ele>
        <time>2024-11-20T15:04:58Z</time>
      </trkpt>
      <trkpt lat="48.16353" lon="-3.32013">
        <ele>231.1</ele>
        <time>2024-11-20T15:04:59Z</time>
      </trkpt>
      <trkpt lat="48.16353" lon="-3.32013">
        <ele>231.1</ele>
        <time>2024-11-20T15:05:00Z</time>
      </trkpt>
      <trkpt lat="48.16352" lon="-3.32012">
        <ele>231.1</ele>
        <time>2024-11-20T15:05:01Z</time>
      </trkpt>
      <trkpt lat="48.16352" lon="-3.32012">
        <ele>231.1</ele>
        <time>2024-11-20T15:05:02Z</time>
      </trkpt>
      <trkpt lat="48.16352" lon="-3.32013">
        <ele>231.1</ele>
        <time>2024-11-20T15:05:03Z</time>
      </trkpt>
      <trkpt lat="48.16351" lon="-3.32014">
        <ele>231</ele>
        <time>2024-11-20T15:05:04Z</time>
      </trkpt>
      <trkpt lat="48.16351" lon="-3.32016">
        <ele>230.9</ele>
        <time>2024-11-20T15:05:05Z</time>
      </trkpt>
      <trkpt lat="48.1635" lon="-3.32018">
        <ele>230.7</ele>
        <time>2024-11-20T15:05:06Z</time>
      </trkpt>
      <trkpt lat="48.16349" lon="-3.3202">
        <ele>230.6</ele>
        <time>2024-11-20T15:05:07Z</time>
      </trkpt>
      <trkpt lat="48.16348" lon="-3.32021">
        <ele>230.5</ele>
        <time>2024-11-20T15:05:08Z</time>
      </trkpt>
      <trkpt lat="48.16348" lon="-3.32022">
        <ele>230.4</ele>
        <time>2024-11-20T15:05:09Z</time>
      </trkpt>
      <trkpt lat="48.16347" lon="-3.32024">
        <ele>230.3</ele>
        <time>2024-11-20T15:05:10Z</time>
      </trkpt>
      <trkpt lat="48.16346" lon="-3.32025">
        <ele>230.2</ele>
        <time>2024-11-20T15:05:11Z</time>
      </trkpt>
      <trkpt lat="48.16345" lon="-3.32027">
        <ele>230.1</ele>
        <time>2024-11-20T15:05:12Z</time>
      </trkpt>
      <trkpt lat="48.16344" lon="-3.32028">
        <ele>230</ele>
        <time>2024-11-20T15:05:13Z</time>
      </trkpt>
      <trkpt lat="48.16343" lon="-3.3203">
        <ele>229.9</ele>
        <time>2024-11-20T15:05:14Z</time>
      </trkpt>
      <trkpt lat="48.16342" lon="-3.32032">
        <ele>229.7</ele>
        <time>2024-11-20T15:05:15Z</time>
      </trkpt>
      <trkpt lat="48.16341" lon="-3.32033">
        <ele>229.6</ele>
        <time>2024-11-20T15:05:16Z</time>
      </trkpt>
      <trkpt lat="48.1634" lon="-3.32034">
        <ele>229.5</ele>
        <time>2024-11-20T15:05:17Z</time>
      </trkpt>
      <trkpt lat="48.1634" lon="-3.32035">
        <ele>229.5</ele>
        <time>2024-11-20T15:05:18Z</time>
      </trkpt>
      <trkpt lat="48.16339" lon="-3.32037">
        <ele>229.4</ele>
        <time>2024-11-20T15:05:19Z</time>
      </trkpt>
      <trkpt lat="48.16338" lon="-3.32038">
        <ele>229.3</ele>
        <time>2024-11-20T15:05:20Z</time>
      </trkpt>
      <trkpt lat="48.16337" lon="-3.32039">
        <ele>229.2</ele>
        <time>2024-11-20T15:05:21Z</time>
      </trkpt>
      <trkpt lat="48.16336" lon="-3.3204">
        <ele>229.1</ele>
        <time>2024-11-20T15:05:22Z</time>
      </trkpt>
      <trkpt lat="48.16335" lon="-3.32041">
        <ele>229</ele>
        <time>2024-11-20T15:05:23Z</time>
      </trkpt>
      <trkpt lat="48.16334" lon="-3.32042">
        <ele>229</ele>
        <time>2024-11-20T15:05:24Z</time>
      </trkpt>
      <trkpt lat="48.16333" lon="-3.32043">
        <ele>228.9</ele>
        <time>2024-11-20T15:05:25Z</time>
      </trkpt>
      <trkpt lat="48.16332" lon="-3.32044">
        <ele>228.9</ele>
        <time>2024-11-20T15:05:26Z</time>
      </trkpt>
      <trkpt lat="48.16331" lon="-3.32046">
        <ele>228.8</ele>
        <time>2024-11-20T15:05:27Z</time>
      </trkpt>
      <trkpt lat="48.1633" lon="-3.32048">
        <ele>228.8</ele>
        <time>2024-11-20T15:05:28Z</time>
      </trkpt>
      <trkpt lat="48.16329" lon="-3.32049">
        <ele>228.8</ele>
        <time>2024-11-20T15:05:29Z</time>
      </trkpt>
      <trkpt lat="48.16329" lon="-3.3205">
        <ele>228.8</ele>
        <time>2024-11-20T15:05:30Z</time>
      </trkpt>
      <trkpt lat="48.16328" lon="-3.32051">
        <ele>228.7</ele>
        <time>2024-11-20T15:05:31Z</time>
      </trkpt>
      <trkpt lat="48.16327" lon="-3.32053">
        <ele>228.7</ele>
        <time>2024-11-20T15:05:32Z</time>
      </trkpt>
      <trkpt lat="48.16326" lon="-3.32055">
        <ele>228.6</ele>
        <time>2024-11-20T15:05:33Z</time>
      </trkpt>
      <trkpt lat="48.16325" lon="-3.32057">
        <ele>228.5</ele>
        <time>2024-11-20T15:05:34Z</time>
      </trkpt>
      <trkpt lat="48.16325" lon="-3.32058">
        <ele>228.5</ele>
        <time>2024-11-20T15:05:35Z</time>
      </trkpt>
      <trkpt lat="48.16324" lon="-3.32059">
        <ele>228.5</ele>
        <time>2024-11-20T15:05:36Z</time>
      </trkpt>
      <trkpt lat="48.16323" lon="-3.32061">
        <ele>228.5</ele>
        <time>2024-11-20T15:05:37Z</time>
      </trkpt>
      <trkpt lat="48.16322" lon="-3.32062">
        <ele>228.5</ele>
        <time>2024-11-20T15:05:38Z</time>
      </trkpt>
      <trkpt lat="48.16321" lon="-3.32064">
        <ele>228.4</ele>
        <time>2024-11-20T15:05:39Z</time>
      </trkpt>
      <trkpt lat="48.16321" lon="-3.32065">
        <ele>228.4</ele>
        <time>2024-11-20T15:05:40Z</time>
      </trkpt>
      <trkpt lat="48.1632" lon="-3.32067">
        <ele>228.4</ele>
        <time>2024-11-20T15:05:41Z</time>
      </trkpt>
      <trkpt lat="48.16319" lon="-3.32069">
        <ele>228.3</ele>
        <time>2024-11-20T15:05:42Z</time>
      </trkpt>
      <trkpt lat="48.16318" lon="-3.3207">
        <ele>228.3</ele>
        <time>2024-11-20T15:05:43Z</time>
      </trkpt>
      <trkpt lat="48.16317" lon="-3.32071">
        <ele>228.3</ele>
        <time>2024-11-20T15:05:44Z</time>
      </trkpt>
      <trkpt lat="48.16317" lon="-3.32072">
        <ele>228.2</ele>
        <time>2024-11-20T15:05:45Z</time>
      </trkpt>
      <trkpt lat="48.16317" lon="-3.32073">
        <ele>228.2</ele>
        <time>2024-11-20T15:05:46Z</time>
      </trkpt>
      <trkpt lat="48.16316" lon="-3.32074">
        <ele>228.2</ele>
        <time>2024-11-20T15:05:47Z</time>
      </trkpt>
      <trkpt lat="48.16316" lon="-3.32075">
        <ele>228.1</ele>
        <time>2024-11-20T15:05:48Z</time>
      </trkpt>
      <trkpt lat="48.16315" lon="-3.32077">
        <ele>228.1</ele>
        <time>2024-11-20T15:05:49Z</time>
      </trkpt>
      <trkpt lat="48.16314" lon="-3.32078">
        <ele>228</ele>
        <time>2024-11-20T15:05:50Z</time>
      </trkpt>
      <trkpt lat="48.16314" lon="-3.32079">
        <ele>228</ele>
        <time>2024-11-20T15:05:51Z</time>
      </trkpt>
      <trkpt lat="48.16313" lon="-3.3208">
        <ele>228</ele>
        <time>2024-11-20T15:05:52Z</time>
      </trkpt>
      <trkpt lat="48.16312" lon="-3.32081">
        <ele>227.9</ele>
        <time>2024-11-20T15:05:53Z</time>
      </trkpt>
      <trkpt lat="48.16311" lon="-3.32081">
        <ele>227.9</ele>
        <time>2024-11-20T15:05:54Z</time>
      </trkpt>
      <trkpt lat="48.16311" lon="-3.32081">
        <ele>227.9</ele>
        <time>2024-11-20T15:05:55Z</time>
      </trkpt>
      <trkpt lat="48.16311" lon="-3.32082">
        <ele>227.9</ele>
        <time>2024-11-20T15:05:56Z</time>
      </trkpt>
      <trkpt lat="48.1631" lon="-3.32083">
        <ele>227.9</ele>
        <time>2024-11-20T15:05:57Z</time>
      </trkpt>
      <trkpt lat="48.16309" lon="-3.32084">
        <ele>227.8</ele>
        <time>2024-11-20T15:05:58Z</time>
      </trkpt>
      <trkpt lat="48.16308" lon="-3.32086">
        <ele>227.8</ele>
        <time>2024-11-20T15:05:59Z</time>
      </trkpt>
      <trkpt lat="48.16307" lon="-3.32087">
        <ele>227.8</ele>
        <time>2024-11-20T15:06:00Z</time>
      </trkpt>
      <trkpt lat="48.16306" lon="-3.32089">
        <ele>227.8</ele>
        <time>2024-11-20T15:06:01Z</time>
      </trkpt>
      <trkpt lat="48.16305" lon="-3.32091">
        <ele>227.7</ele>
        <time>2024-11-20T15:06:02Z</time>
      </trkpt>
      <trkpt lat="48.16304" lon="-3.32092">
        <ele>227.7</ele>
        <time>2024-11-20T15:06:03Z</time>
      </trkpt>
      <trkpt lat="48.16304" lon="-3.32093">
        <ele>227.7</ele>
        <time>2024-11-20T15:06:04Z</time>
      </trkpt>
      <trkpt lat="48.16303" lon="-3.32095">
        <ele>227.7</ele>
        <time>2024-11-20T15:06:05Z</time>
      </trkpt>
      <trkpt lat="48.16301" lon="-3.32096">
        <ele>227.7</ele>
        <time>2024-11-20T15:06:06Z</time>
      </trkpt>
      <trkpt lat="48.163" lon="-3.32098">
        <ele>227.7</ele>
        <time>2024-11-20T15:06:07Z</time>
      </trkpt>
      <trkpt lat="48.16299" lon="-3.32099">
        <ele>227.6</ele>
        <time>2024-11-20T15:06:08Z</time>
      </trkpt>
      <trkpt lat="48.16298" lon="-3.32101">
        <ele>227.6</ele>
        <time>2024-11-20T15:06:09Z</time>
      </trkpt>
      <trkpt lat="48.16298" lon="-3.32102">
        <ele>227.6</ele>
        <time>2024-11-20T15:06:10Z</time>
      </trkpt>
      <trkpt lat="48.16297" lon="-3.32103">
        <ele>227.6</ele>
        <time>2024-11-20T15:06:11Z</time>
      </trkpt>
      <trkpt lat="48.16297" lon="-3.32104">
        <ele>227.6</ele>
        <time>2024-11-20T15:06:12Z</time>
      </trkpt>
      <trkpt lat="48.16296" lon="-3.32105">
        <ele>227.5</ele>
        <time>2024-11-20T15:06:13Z</time>
      </trkpt>
      <trkpt lat="48.16295" lon="-3.32107">
        <ele>227.5</ele>
        <time>2024-11-20T15:06:14Z</time>
      </trkpt>
      <trkpt lat="48.16295" lon="-3.32108">
        <ele>227.5</ele>
        <time>2024-11-20T15:06:15Z</time>
      </trkpt>
      <trkpt lat="48.16294" lon="-3.32109">
        <ele>227.5</ele>
        <time>2024-11-20T15:06:16Z</time>
      </trkpt>
      <trkpt lat="48.16293" lon="-3.3211">
        <ele>227.5</ele>
        <time>2024-11-20T15:06:17Z</time>
      </trkpt>
      <trkpt lat="48.16292" lon="-3.32111">
        <ele>227.5</ele>
        <time>2024-11-20T15:06:18Z</time>
      </trkpt>
      <trkpt lat="48.16291" lon="-3.32113">
        <ele>227.4</ele>
        <time>2024-11-20T15:06:19Z</time>
      </trkpt>
      <trkpt lat="48.1629" lon="-3.32113">
        <ele>227.4</ele>
        <time>2024-11-20T15:06:20Z</time>
      </trkpt>
      <trkpt lat="48.1629" lon="-3.32114">
        <ele>227.4</ele>
        <time>2024-11-20T15:06:21Z</time>
      </trkpt>
      <trkpt lat="48.16289" lon="-3.32115">
        <ele>227.4</ele>
        <time>2024-11-20T15:06:22Z</time>
      </trkpt>
      <trkpt lat="48.16287" lon="-3.32116">
        <ele>227.4</ele>
        <time>2024-11-20T15:06:23Z</time>
      </trkpt>
      <trkpt lat="48.16286" lon="-3.32117">
        <ele>227.3</ele>
        <time>2024-11-20T15:06:24Z</time>
      </trkpt>
      <trkpt lat="48.16286" lon="-3.32118">
        <ele>227.3</ele>
        <time>2024-11-20T15:06:25Z</time>
      </trkpt>
      <trkpt lat="48.16285" lon="-3.32119">
        <ele>227.2</ele>
        <time>2024-11-20T15:06:26Z</time>
      </trkpt>
      <trkpt lat="48.16284" lon="-3.3212">
        <ele>227.2</ele>
        <time>2024-11-20T15:06:27Z</time>
      </trkpt>
      <trkpt lat="48.16283" lon="-3.3212">
        <ele>227.2</ele>
        <time>2024-11-20T15:06:28Z</time>
      </trkpt>
      <trkpt lat="48.16282" lon="-3.32121">
        <ele>227.2</ele>
        <time>2024-11-20T15:06:29Z</time>
      </trkpt>
      <trkpt lat="48.16282" lon="-3.32122">
        <ele>227.2</ele>
        <time>2024-11-20T15:06:30Z</time>
      </trkpt>
      <trkpt lat="48.16282" lon="-3.32122">
        <ele>227.2</ele>
        <time>2024-11-20T15:06:31Z</time>
      </trkpt>
      <trkpt lat="48.16281" lon="-3.32123">
        <ele>227.1</ele>
        <time>2024-11-20T15:06:32Z</time>
      </trkpt>
      <trkpt lat="48.16281" lon="-3.32124">
        <ele>227</ele>
        <time>2024-11-20T15:06:33Z</time>
      </trkpt>
      <trkpt lat="48.16281" lon="-3.32126">
        <ele>226.9</ele>
        <time>2024-11-20T15:06:34Z</time>
      </trkpt>
      <trkpt lat="48.1628" lon="-3.32127">
        <ele>226.8</ele>
        <time>2024-11-20T15:06:35Z</time>
      </trkpt>
      <trkpt lat="48.16279" lon="-3.32129">
        <ele>226.7</ele>
        <time>2024-11-20T15:06:36Z</time>
      </trkpt>
      <trkpt lat="48.16277" lon="-3.3213">
        <ele>226.7</ele>
        <time>2024-11-20T15:06:37Z</time>
      </trkpt>
      <trkpt lat="48.16276" lon="-3.32131">
        <ele>226.6</ele>
        <time>2024-11-20T15:06:38Z</time>
      </trkpt>
      <trkpt lat="48.16275" lon="-3.32132">
        <ele>226.6</ele>
        <time>2024-11-20T15:06:39Z</time>
      </trkpt>
      <trkpt lat="48.16274" lon="-3.32134">
        <ele>226.5</ele>
        <time>2024-11-20T15:06:40Z</time>
      </trkpt>
      <trkpt lat="48.16273" lon="-3.32135">
        <ele>226.4</ele>
        <time>2024-11-20T15:06:41Z</time>
      </trkpt>
      <trkpt lat="48.16273" lon="-3.32136">
        <ele>226.4</ele>
        <time>2024-11-20T15:06:42Z</time>
      </trkpt>
      <trkpt lat="48.16272" lon="-3.32136">
        <ele>226.4</ele>
        <time>2024-11-20T15:06:43Z</time>
      </trkpt>
      <trkpt lat="48.16272" lon="-3.32137">
        <ele>226.3</ele>
        <time>2024-11-20T15:06:44Z</time>
      </trkpt>
      <trkpt lat="48.16271" lon="-3.32138">
        <ele>226.3</ele>
        <time>2024-11-20T15:06:45Z</time>
      </trkpt>
      <trkpt lat="48.1627" lon="-3.3214">
        <ele>226.3</ele>
        <time>2024-11-20T15:06:46Z</time>
      </trkpt>
      <trkpt lat="48.16269" lon="-3.32142">
        <ele>226.3</ele>
        <time>2024-11-20T15:06:47Z</time>
      </trkpt>
      <trkpt lat="48.16267" lon="-3.32143">
        <ele>226.4</ele>
        <time>2024-11-20T15:06:48Z</time>
      </trkpt>
      <trkpt lat="48.16266" lon="-3.32145">
        <ele>226.4</ele>
        <time>2024-11-20T15:06:49Z</time>
      </trkpt>
      <trkpt lat="48.16266" lon="-3.32146">
        <ele>226.4</ele>
        <time>2024-11-20T15:06:50Z</time>
      </trkpt>
      <trkpt lat="48.16265" lon="-3.32147">
        <ele>226.5</ele>
        <time>2024-11-20T15:06:51Z</time>
      </trkpt>
      <trkpt lat="48.16263" lon="-3.32148">
        <ele>226.5</ele>
        <time>2024-11-20T15:06:52Z</time>
      </trkpt>
      <trkpt lat="48.16262" lon="-3.32149">
        <ele>226.6</ele>
        <time>2024-11-20T15:06:53Z</time>
      </trkpt>
      <trkpt lat="48.16262" lon="-3.3215">
        <ele>226.6</ele>
        <time>2024-11-20T15:06:54Z</time>
      </trkpt>
      <trkpt lat="48.16261" lon="-3.32152">
        <ele>226.6</ele>
        <time>2024-11-20T15:06:55Z</time>
      </trkpt>
      <trkpt lat="48.1626" lon="-3.32154">
        <ele>226.6</ele>
        <time>2024-11-20T15:06:56Z</time>
      </trkpt>
      <trkpt lat="48.1626" lon="-3.32155">
        <ele>226.7</ele>
        <time>2024-11-20T15:06:57Z</time>
      </trkpt>
      <trkpt lat="48.1626" lon="-3.32155">
        <ele>226.7</ele>
        <time>2024-11-20T15:06:58Z</time>
      </trkpt>
      <trkpt lat="48.16259" lon="-3.32156">
        <ele>226.7</ele>
        <time>2024-11-20T15:06:59Z</time>
      </trkpt>
      <trkpt lat="48.16259" lon="-3.32156">
        <ele>226.7</ele>
        <time>2024-11-20T15:07:00Z</time>
      </trkpt>
      <trkpt lat="48.16258" lon="-3.32157">
        <ele>226.7</ele>
        <time>2024-11-20T15:07:01Z</time>
      </trkpt>
      <trkpt lat="48.16257" lon="-3.32158">
        <ele>226.7</ele>
        <time>2024-11-20T15:07:02Z</time>
      </trkpt>
      <trkpt lat="48.16257" lon="-3.32158">
        <ele>226.7</ele>
        <time>2024-11-20T15:07:03Z</time>
      </trkpt>
      <trkpt lat="48.16256" lon="-3.32159">
        <ele>226.8</ele>
        <time>2024-11-20T15:07:04Z</time>
      </trkpt>
      <trkpt lat="48.16255" lon="-3.32161">
        <ele>226.8</ele>
        <time>2024-11-20T15:07:05Z</time>
      </trkpt>
      <trkpt lat="48.16254" lon="-3.32162">
        <ele>226.9</ele>
        <time>2024-11-20T15:07:06Z</time>
      </trkpt>
      <trkpt lat="48.16253" lon="-3.32163">
        <ele>226.9</ele>
        <time>2024-11-20T15:07:07Z</time>
      </trkpt>
      <trkpt lat="48.16252" lon="-3.32164">
        <ele>226.9</ele>
        <time>2024-11-20T15:07:08Z</time>
      </trkpt>
      <trkpt lat="48.16251" lon="-3.32166">
        <ele>227</ele>
        <time>2024-11-20T15:07:09Z</time>
      </trkpt>
      <trkpt lat="48.1625" lon="-3.32167">
        <ele>227</ele>
        <time>2024-11-20T15:07:10Z</time>
      </trkpt>
      <trkpt lat="48.1625" lon="-3.32169">
        <ele>226.9</ele>
        <time>2024-11-20T15:07:11Z</time>
      </trkpt>
      <trkpt lat="48.16249" lon="-3.32171">
        <ele>226.9</ele>
        <time>2024-11-20T15:07:12Z</time>
      </trkpt>
      <trkpt lat="48.16248" lon="-3.32172">
        <ele>226.9</ele>
        <time>2024-11-20T15:07:13Z</time>
      </trkpt>
      <trkpt lat="48.16246" lon="-3.32174">
        <ele>226.9</ele>
        <time>2024-11-20T15:07:14Z</time>
      </trkpt>
      <trkpt lat="48.16246" lon="-3.32175">
        <ele>226.9</ele>
        <time>2024-11-20T15:07:15Z</time>
      </trkpt>
      <trkpt lat="48.16245" lon="-3.32176">
        <ele>226.8</ele>
        <time>2024-11-20T15:07:16Z</time>
      </trkpt>
      <trkpt lat="48.16244" lon="-3.32178">
        <ele>226.8</ele>
        <time>2024-11-20T15:07:17Z</time>
      </trkpt>
      <trkpt lat="48.16243" lon="-3.32179">
        <ele>226.8</ele>
        <time>2024-11-20T15:07:18Z</time>
      </trkpt>
      <trkpt lat="48.16242" lon="-3.3218">
        <ele>226.8</ele>
        <time>2024-11-20T15:07:19Z</time>
      </trkpt>
      <trkpt lat="48.16241" lon="-3.32182">
        <ele>226.8</ele>
        <time>2024-11-20T15:07:20Z</time>
      </trkpt>
      <trkpt lat="48.1624" lon="-3.32183">
        <ele>226.8</ele>
        <time>2024-11-20T15:07:21Z</time>
      </trkpt>
      <trkpt lat="48.16239" lon="-3.32185">
        <ele>226.8</ele>
        <time>2024-11-20T15:07:22Z</time>
      </trkpt>
      <trkpt lat="48.16238" lon="-3.32186">
        <ele>226.8</ele>
        <time>2024-11-20T15:07:23Z</time>
      </trkpt>
      <trkpt lat="48.16237" lon="-3.32187">
        <ele>226.8</ele>
        <time>2024-11-20T15:07:24Z</time>
      </trkpt>
      <trkpt lat="48.16236" lon="-3.32188">
        <ele>226.8</ele>
        <time>2024-11-20T15:07:25Z</time>
      </trkpt>
      <trkpt lat="48.16234" lon="-3.32189">
        <ele>226.8</ele>
        <time>2024-11-20T15:07:26Z</time>
      </trkpt>
      <trkpt lat="48.16233" lon="-3.3219">
        <ele>226.8</ele>
        <time>2024-11-20T15:07:27Z</time>
      </trkpt>
      <trkpt lat="48.16233" lon="-3.32192">
        <ele>226.7</ele>
        <time>2024-11-20T15:07:28Z</time>
      </trkpt>
      <trkpt lat="48.16232" lon="-3.32193">
        <ele>226.7</ele>
        <time>2024-11-20T15:07:29Z</time>
      </trkpt>
      <trkpt lat="48.16231" lon="-3.32194">
        <ele>226.7</ele>
        <time>2024-11-20T15:07:30Z</time>
      </trkpt>
      <trkpt lat="48.1623" lon="-3.32195">
        <ele>226.7</ele>
        <time>2024-11-20T15:07:31Z</time>
      </trkpt>
      <trkpt lat="48.16229" lon="-3.32196">
        <ele>226.6</ele>
        <time>2024-11-20T15:07:32Z</time>
      </trkpt>
      <trkpt lat="48.16228" lon="-3.32197">
        <ele>226.6</ele>
        <time>2024-11-20T15:07:33Z</time>
      </trkpt>
      <trkpt lat="48.16227" lon="-3.32198">
        <ele>226.6</ele>
        <time>2024-11-20T15:07:34Z</time>
      </trkpt>
      <trkpt lat="48.16226" lon="-3.322">
        <ele>226.5</ele>
        <time>2024-11-20T15:07:35Z</time>
      </trkpt>
      <trkpt lat="48.16226" lon="-3.32201">
        <ele>226.4</ele>
        <time>2024-11-20T15:07:36Z</time>
      </trkpt>
      <trkpt lat="48.16224" lon="-3.32203">
        <ele>226.3</ele>
        <time>2024-11-20T15:07:37Z</time>
      </trkpt>
      <trkpt lat="48.16223" lon="-3.32204">
        <ele>226.3</ele>
        <time>2024-11-20T15:07:38Z</time>
      </trkpt>
      <trkpt lat="48.16222" lon="-3.32205">
        <ele>226.2</ele>
        <time>2024-11-20T15:07:39Z</time>
      </trkpt>
      <trkpt lat="48.16221" lon="-3.32207">
        <ele>226.1</ele>
        <time>2024-11-20T15:07:40Z</time>
      </trkpt>
      <trkpt lat="48.1622" lon="-3.3221">
        <ele>226</ele>
        <time>2024-11-20T15:07:41Z</time>
      </trkpt>
      <trkpt lat="48.16219" lon="-3.32211">
        <ele>226</ele>
        <time>2024-11-20T15:07:42Z</time>
      </trkpt>
      <trkpt lat="48.16219" lon="-3.32212">
        <ele>226</ele>
        <time>2024-11-20T15:07:43Z</time>
      </trkpt>
      <trkpt lat="48.16218" lon="-3.32213">
        <ele>226</ele>
        <time>2024-11-20T15:07:44Z</time>
      </trkpt>
      <trkpt lat="48.16217" lon="-3.32213">
        <ele>226</ele>
        <time>2024-11-20T15:07:45Z</time>
      </trkpt>
      <trkpt lat="48.16217" lon="-3.32214">
        <ele>225.9</ele>
        <time>2024-11-20T15:07:46Z</time>
      </trkpt>
      <trkpt lat="48.16216" lon="-3.32215">
        <ele>225.9</ele>
        <time>2024-11-20T15:07:47Z</time>
      </trkpt>
      <trkpt lat="48.16215" lon="-3.32217">
        <ele>225.9</ele>
        <time>2024-11-20T15:07:48Z</time>
      </trkpt>
      <trkpt lat="48.16214" lon="-3.32218">
        <ele>225.9</ele>
        <time>2024-11-20T15:07:49Z</time>
      </trkpt>
      <trkpt lat="48.16214" lon="-3.32218">
        <ele>225.9</ele>
        <time>2024-11-20T15:07:50Z</time>
      </trkpt>
      <trkpt lat="48.16213" lon="-3.32219">
        <ele>225.9</ele>
        <time>2024-11-20T15:07:51Z</time>
      </trkpt>
      <trkpt lat="48.16212" lon="-3.3222">
        <ele>225.9</ele>
        <time>2024-11-20T15:07:52Z</time>
      </trkpt>
      <trkpt lat="48.16211" lon="-3.32221">
        <ele>225.9</ele>
        <time>2024-11-20T15:07:53Z</time>
      </trkpt>
      <trkpt lat="48.1621" lon="-3.32223">
        <ele>225.9</ele>
        <time>2024-11-20T15:07:54Z</time>
      </trkpt>
      <trkpt lat="48.16209" lon="-3.32224">
        <ele>225.9</ele>
        <time>2024-11-20T15:07:55Z</time>
      </trkpt>
      <trkpt lat="48.16208" lon="-3.32225">
        <ele>225.9</ele>
        <time>2024-11-20T15:07:56Z</time>
      </trkpt>
      <trkpt lat="48.16207" lon="-3.32227">
        <ele>225.9</ele>
        <time>2024-11-20T15:07:57Z</time>
      </trkpt>
      <trkpt lat="48.16206" lon="-3.32228">
        <ele>225.9</ele>
        <time>2024-11-20T15:07:58Z</time>
      </trkpt>
      <trkpt lat="48.16205" lon="-3.32229">
        <ele>225.9</ele>
        <time>2024-11-20T15:07:59Z</time>
      </trkpt>
      <trkpt lat="48.16204" lon="-3.3223">
        <ele>225.9</ele>
        <time>2024-11-20T15:08:00Z</time>
      </trkpt>
      <trkpt lat="48.16203" lon="-3.3223">
        <ele>225.9</ele>
        <time>2024-11-20T15:08:01Z</time>
      </trkpt>
      <trkpt lat="48.16202" lon="-3.3223">
        <ele>226</ele>
        <time>2024-11-20T15:08:02Z</time>
      </trkpt>
      <trkpt lat="48.16201" lon="-3.32231">
        <ele>226</ele>
        <time>2024-11-20T15:08:03Z</time>
      </trkpt>
      <trkpt lat="48.16201" lon="-3.32231">
        <ele>226</ele>
        <time>2024-11-20T15:08:04Z</time>
      </trkpt>
      <trkpt lat="48.162" lon="-3.32232">
        <ele>226</ele>
        <time>2024-11-20T15:08:05Z</time>
      </trkpt>
      <trkpt lat="48.16199" lon="-3.32233">
        <ele>226</ele>
        <time>2024-11-20T15:08:06Z</time>
      </trkpt>
      <trkpt lat="48.16198" lon="-3.32234">
        <ele>226</ele>
        <time>2024-11-20T15:08:07Z</time>
      </trkpt>
      <trkpt lat="48.16196" lon="-3.32235">
        <ele>226</ele>
        <time>2024-11-20T15:08:08Z</time>
      </trkpt>
      <trkpt lat="48.16195" lon="-3.32236">
        <ele>226</ele>
        <time>2024-11-20T15:08:09Z</time>
      </trkpt>
      <trkpt lat="48.16194" lon="-3.32237">
        <ele>226</ele>
        <time>2024-11-20T15:08:10Z</time>
      </trkpt>
      <trkpt lat="48.16193" lon="-3.32237">
        <ele>226</ele>
        <time>2024-11-20T15:08:11Z</time>
      </trkpt>
      <trkpt lat="48.16192" lon="-3.32238">
        <ele>226</ele>
        <time>2024-11-20T15:08:12Z</time>
      </trkpt>
      <trkpt lat="48.16191" lon="-3.32239">
        <ele>226</ele>
        <time>2024-11-20T15:08:13Z</time>
      </trkpt>
      <trkpt lat="48.1619" lon="-3.3224">
        <ele>226</ele>
        <time>2024-11-20T15:08:14Z</time>
      </trkpt>
      <trkpt lat="48.16189" lon="-3.32241">
        <ele>226</ele>
        <time>2024-11-20T15:08:15Z</time>
      </trkpt>
      <trkpt lat="48.16188" lon="-3.32242">
        <ele>226.1</ele>
        <time>2024-11-20T15:08:16Z</time>
      </trkpt>
      <trkpt lat="48.16187" lon="-3.32242">
        <ele>226.1</ele>
        <time>2024-11-20T15:08:17Z</time>
      </trkpt>
      <trkpt lat="48.16186" lon="-3.32243">
        <ele>226.1</ele>
        <time>2024-11-20T15:08:18Z</time>
      </trkpt>
      <trkpt lat="48.16186" lon="-3.32243">
        <ele>226.1</ele>
        <time>2024-11-20T15:08:19Z</time>
      </trkpt>
      <trkpt lat="48.16185" lon="-3.32244">
        <ele>226.1</ele>
        <time>2024-11-20T15:08:20Z</time>
      </trkpt>
      <trkpt lat="48.16184" lon="-3.32245">
        <ele>226.1</ele>
        <time>2024-11-20T15:08:21Z</time>
      </trkpt>
      <trkpt lat="48.16183" lon="-3.32246">
        <ele>226.1</ele>
        <time>2024-11-20T15:08:22Z</time>
      </trkpt>
      <trkpt lat="48.16182" lon="-3.32247">
        <ele>226.1</ele>
        <time>2024-11-20T15:08:23Z</time>
      </trkpt>
      <trkpt lat="48.16181" lon="-3.32248">
        <ele>226.1</ele>
        <time>2024-11-20T15:08:24Z</time>
      </trkpt>
      <trkpt lat="48.16181" lon="-3.32248">
        <ele>226.1</ele>
        <time>2024-11-20T15:08:25Z</time>
      </trkpt>
      <trkpt lat="48.16181" lon="-3.32249">
        <ele>226.1</ele>
        <time>2024-11-20T15:08:26Z</time>
      </trkpt>
      <trkpt lat="48.1618" lon="-3.3225">
        <ele>226</ele>
        <time>2024-11-20T15:08:27Z</time>
      </trkpt>
      <trkpt lat="48.16179" lon="-3.32251">
        <ele>226</ele>
        <time>2024-11-20T15:08:28Z</time>
      </trkpt>
      <trkpt lat="48.16178" lon="-3.32252">
        <ele>226</ele>
        <time>2024-11-20T15:08:29Z</time>
      </trkpt>
      <trkpt lat="48.16177" lon="-3.32253">
        <ele>225.9</ele>
        <time>2024-11-20T15:08:30Z</time>
      </trkpt>
      <trkpt lat="48.16176" lon="-3.32254">
        <ele>225.9</ele>
        <time>2024-11-20T15:08:31Z</time>
      </trkpt>
      <trkpt lat="48.16176" lon="-3.32255">
        <ele>225.9</ele>
        <time>2024-11-20T15:08:32Z</time>
      </trkpt>
      <trkpt lat="48.16174" lon="-3.32256">
        <ele>225.9</ele>
        <time>2024-11-20T15:08:33Z</time>
      </trkpt>
      <trkpt lat="48.16173" lon="-3.32257">
        <ele>225.9</ele>
        <time>2024-11-20T15:08:34Z</time>
      </trkpt>
      <trkpt lat="48.16172" lon="-3.32258">
        <ele>225.8</ele>
        <time>2024-11-20T15:08:35Z</time>
      </trkpt>
      <trkpt lat="48.16171" lon="-3.32258">
        <ele>225.8</ele>
        <time>2024-11-20T15:08:36Z</time>
      </trkpt>
      <trkpt lat="48.1617" lon="-3.32259">
        <ele>225.8</ele>
        <time>2024-11-20T15:08:37Z</time>
      </trkpt>
      <trkpt lat="48.16169" lon="-3.3226">
        <ele>225.8</ele>
        <time>2024-11-20T15:08:38Z</time>
      </trkpt>
      <trkpt lat="48.16168" lon="-3.32261">
        <ele>225.8</ele>
        <time>2024-11-20T15:08:39Z</time>
      </trkpt>
      <trkpt lat="48.16167" lon="-3.32261">
        <ele>225.8</ele>
        <time>2024-11-20T15:08:40Z</time>
      </trkpt>
      <trkpt lat="48.16166" lon="-3.32262">
        <ele>225.7</ele>
        <time>2024-11-20T15:08:41Z</time>
      </trkpt>
      <trkpt lat="48.16164" lon="-3.32263">
        <ele>225.7</ele>
        <time>2024-11-20T15:08:42Z</time>
      </trkpt>
      <trkpt lat="48.16163" lon="-3.32264">
        <ele>225.6</ele>
        <time>2024-11-20T15:08:43Z</time>
      </trkpt>
      <trkpt lat="48.16162" lon="-3.32265">
        <ele>225.6</ele>
        <time>2024-11-20T15:08:44Z</time>
      </trkpt>
      <trkpt lat="48.16161" lon="-3.32265">
        <ele>225.6</ele>
        <time>2024-11-20T15:08:45Z</time>
      </trkpt>
      <trkpt lat="48.1616" lon="-3.32266">
        <ele>225.5</ele>
        <time>2024-11-20T15:08:46Z</time>
      </trkpt>
      <trkpt lat="48.16159" lon="-3.32266">
        <ele>225.5</ele>
        <time>2024-11-20T15:08:47Z</time>
      </trkpt>
      <trkpt lat="48.16158" lon="-3.32267">
        <ele>225.5</ele>
        <time>2024-11-20T15:08:48Z</time>
      </trkpt>
      <trkpt lat="48.16157" lon="-3.32268">
        <ele>225.5</ele>
        <time>2024-11-20T15:08:49Z</time>
      </trkpt>
      <trkpt lat="48.16156" lon="-3.32268">
        <ele>225.5</ele>
        <time>2024-11-20T15:08:50Z</time>
      </trkpt>
      <trkpt lat="48.16156" lon="-3.32267">
        <ele>225.5</ele>
        <time>2024-11-20T15:08:51Z</time>
      </trkpt>
      <trkpt lat="48.16156" lon="-3.32267">
        <ele>225.5</ele>
        <time>2024-11-20T15:08:52Z</time>
      </trkpt>
      <trkpt lat="48.16156" lon="-3.32267">
        <ele>225.6</ele>
        <time>2024-11-20T15:08:53Z</time>
      </trkpt>
      <trkpt lat="48.16156" lon="-3.32267">
        <ele>225.6</ele>
        <time>2024-11-20T15:08:54Z</time>
      </trkpt>
      <trkpt lat="48.16156" lon="-3.32267">
        <ele>225.5</ele>
        <time>2024-11-20T15:08:55Z</time>
      </trkpt>
      <trkpt lat="48.16156" lon="-3.32267">
        <ele>225.5</ele>
        <time>2024-11-20T15:08:56Z</time>
      </trkpt>
      <trkpt lat="48.16156" lon="-3.32267">
        <ele>225.5</ele>
        <time>2024-11-20T15:08:57Z</time>
      </trkpt>
      <trkpt lat="48.16156" lon="-3.32268">
        <ele>225.5</ele>
        <time>2024-11-20T15:08:58Z</time>
      </trkpt>
      <trkpt lat="48.16155" lon="-3.32268">
        <ele>225.5</ele>
        <time>2024-11-20T15:08:59Z</time>
      </trkpt>
      <trkpt lat="48.16154" lon="-3.32268">
        <ele>225.5</ele>
        <time>2024-11-20T15:09:00Z</time>
      </trkpt>
      <trkpt lat="48.16153" lon="-3.32269">
        <ele>225.5</ele>
        <time>2024-11-20T15:09:01Z</time>
      </trkpt>
      <trkpt lat="48.16152" lon="-3.3227">
        <ele>225.4</ele>
        <time>2024-11-20T15:09:02Z</time>
      </trkpt>
      <trkpt lat="48.16151" lon="-3.32271">
        <ele>225.4</ele>
        <time>2024-11-20T15:09:03Z</time>
      </trkpt>
      <trkpt lat="48.1615" lon="-3.32271">
        <ele>225.3</ele>
        <time>2024-11-20T15:09:04Z</time>
      </trkpt>
      <trkpt lat="48.16149" lon="-3.32272">
        <ele>225.3</ele>
        <time>2024-11-20T15:09:05Z</time>
      </trkpt>
      <trkpt lat="48.16148" lon="-3.32272">
        <ele>225.3</ele>
        <time>2024-11-20T15:09:06Z</time>
      </trkpt>
      <trkpt lat="48.16147" lon="-3.32273">
        <ele>225.3</ele>
        <time>2024-11-20T15:09:07Z</time>
      </trkpt>
      <trkpt lat="48.16146" lon="-3.32273">
        <ele>225.3</ele>
        <time>2024-11-20T15:09:08Z</time>
      </trkpt>
      <trkpt lat="48.16145" lon="-3.32273">
        <ele>225.3</ele>
        <time>2024-11-20T15:09:09Z</time>
      </trkpt>
      <trkpt lat="48.16143" lon="-3.32273">
        <ele>225.3</ele>
        <time>2024-11-20T15:09:10Z</time>
      </trkpt>
      <trkpt lat="48.16142" lon="-3.32274">
        <ele>225.3</ele>
        <time>2024-11-20T15:09:11Z</time>
      </trkpt>
      <trkpt lat="48.16141" lon="-3.32274">
        <ele>225.3</ele>
        <time>2024-11-20T15:09:12Z</time>
      </trkpt>
      <trkpt lat="48.1614" lon="-3.32274">
        <ele>225.3</ele>
        <time>2024-11-20T15:09:13Z</time>
      </trkpt>
      <trkpt lat="48.16139" lon="-3.32275">
        <ele>225.4</ele>
        <time>2024-11-20T15:09:14Z</time>
      </trkpt>
      <trkpt lat="48.16137" lon="-3.32275">
        <ele>225.3</ele>
        <time>2024-11-20T15:09:15Z</time>
      </trkpt>
      <trkpt lat="48.16137" lon="-3.32276">
        <ele>225.3</ele>
        <time>2024-11-20T15:09:16Z</time>
      </trkpt>
      <trkpt lat="48.16136" lon="-3.32276">
        <ele>225.3</ele>
        <time>2024-11-20T15:09:17Z</time>
      </trkpt>
      <trkpt lat="48.16135" lon="-3.32277">
        <ele>225.2</ele>
        <time>2024-11-20T15:09:18Z</time>
      </trkpt>
      <trkpt lat="48.16134" lon="-3.32278">
        <ele>225.2</ele>
        <time>2024-11-20T15:09:19Z</time>
      </trkpt>
      <trkpt lat="48.16133" lon="-3.32278">
        <ele>225.2</ele>
        <time>2024-11-20T15:09:20Z</time>
      </trkpt>
      <trkpt lat="48.16132" lon="-3.32278">
        <ele>225.2</ele>
        <time>2024-11-20T15:09:21Z</time>
      </trkpt>
      <trkpt lat="48.16131" lon="-3.32279">
        <ele>225.3</ele>
        <time>2024-11-20T15:09:22Z</time>
      </trkpt>
      <trkpt lat="48.1613" lon="-3.32279">
        <ele>225.3</ele>
        <time>2024-11-20T15:09:23Z</time>
      </trkpt>
      <trkpt lat="48.16128" lon="-3.32279">
        <ele>225.3</ele>
        <time>2024-11-20T15:09:24Z</time>
      </trkpt>
      <trkpt lat="48.16127" lon="-3.32279">
        <ele>225.3</ele>
        <time>2024-11-20T15:09:25Z</time>
      </trkpt>
      <trkpt lat="48.16126" lon="-3.3228">
        <ele>225.3</ele>
        <time>2024-11-20T15:09:26Z</time>
      </trkpt>
      <trkpt lat="48.16125" lon="-3.3228">
        <ele>225.3</ele>
        <time>2024-11-20T15:09:27Z</time>
      </trkpt>
      <trkpt lat="48.16124" lon="-3.3228">
        <ele>225.4</ele>
        <time>2024-11-20T15:09:28Z</time>
      </trkpt>
      <trkpt lat="48.16122" lon="-3.32281">
        <ele>225.4</ele>
        <time>2024-11-20T15:09:29Z</time>
      </trkpt>
      <trkpt lat="48.16121" lon="-3.32281">
        <ele>225.4</ele>
        <time>2024-11-20T15:09:30Z</time>
      </trkpt>
      <trkpt lat="48.1612" lon="-3.32282">
        <ele>225.4</ele>
        <time>2024-11-20T15:09:31Z</time>
      </trkpt>
      <trkpt lat="48.16119" lon="-3.32282">
        <ele>225.4</ele>
        <time>2024-11-20T15:09:32Z</time>
      </trkpt>
      <trkpt lat="48.16118" lon="-3.32282">
        <ele>225.4</ele>
        <time>2024-11-20T15:09:33Z</time>
      </trkpt>
      <trkpt lat="48.16117" lon="-3.32283">
        <ele>225.4</ele>
        <time>2024-11-20T15:09:34Z</time>
      </trkpt>
      <trkpt lat="48.16116" lon="-3.32283">
        <ele>225.5</ele>
        <time>2024-11-20T15:09:35Z</time>
      </trkpt>
      <trkpt lat="48.16115" lon="-3.32283">
        <ele>225.5</ele>
        <time>2024-11-20T15:09:36Z</time>
      </trkpt>
      <trkpt lat="48.16115" lon="-3.32283">
        <ele>225.5</ele>
        <time>2024-11-20T15:09:37Z</time>
      </trkpt>
      <trkpt lat="48.16113" lon="-3.32284">
        <ele>225.5</ele>
        <time>2024-11-20T15:09:38Z</time>
      </trkpt>
      <trkpt lat="48.16112" lon="-3.32285">
        <ele>225.5</ele>
        <time>2024-11-20T15:09:39Z</time>
      </trkpt>
      <trkpt lat="48.16111" lon="-3.32285">
        <ele>225.5</ele>
        <time>2024-11-20T15:09:40Z</time>
      </trkpt>
      <trkpt lat="48.1611" lon="-3.32286">
        <ele>225.5</ele>
        <time>2024-11-20T15:09:41Z</time>
      </trkpt>
      <trkpt lat="48.16109" lon="-3.32286">
        <ele>225.5</ele>
        <time>2024-11-20T15:09:42Z</time>
      </trkpt>
      <trkpt lat="48.16108" lon="-3.32287">
        <ele>225.5</ele>
        <time>2024-11-20T15:09:43Z</time>
      </trkpt>
      <trkpt lat="48.16107" lon="-3.32287">
        <ele>225.5</ele>
        <time>2024-11-20T15:09:44Z</time>
      </trkpt>
      <trkpt lat="48.16106" lon="-3.32288">
        <ele>225.5</ele>
        <time>2024-11-20T15:09:45Z</time>
      </trkpt>
      <trkpt lat="48.16105" lon="-3.32288">
        <ele>225.5</ele>
        <time>2024-11-20T15:09:46Z</time>
      </trkpt>
      <trkpt lat="48.16104" lon="-3.32288">
        <ele>225.5</ele>
        <time>2024-11-20T15:09:47Z</time>
      </trkpt>
      <trkpt lat="48.16103" lon="-3.32289">
        <ele>225.5</ele>
        <time>2024-11-20T15:09:48Z</time>
      </trkpt>
      <trkpt lat="48.16102" lon="-3.32289">
        <ele>225.5</ele>
        <time>2024-11-20T15:09:49Z</time>
      </trkpt>
      <trkpt lat="48.16101" lon="-3.32289">
        <ele>225.6</ele>
        <time>2024-11-20T15:09:50Z</time>
      </trkpt>
      <trkpt lat="48.161" lon="-3.32289">
        <ele>225.6</ele>
        <time>2024-11-20T15:09:51Z</time>
      </trkpt>
      <trkpt lat="48.16098" lon="-3.32289">
        <ele>225.6</ele>
        <time>2024-11-20T15:09:52Z</time>
      </trkpt>
      <trkpt lat="48.16097" lon="-3.32289">
        <ele>225.7</ele>
        <time>2024-11-20T15:09:53Z</time>
      </trkpt>
      <trkpt lat="48.16096" lon="-3.3229">
        <ele>225.7</ele>
        <time>2024-11-20T15:09:54Z</time>
      </trkpt>
      <trkpt lat="48.16094" lon="-3.3229">
        <ele>225.7</ele>
        <time>2024-11-20T15:09:55Z</time>
      </trkpt>
      <trkpt lat="48.16093" lon="-3.32291">
        <ele>225.7</ele>
        <time>2024-11-20T15:09:56Z</time>
      </trkpt>
      <trkpt lat="48.16091" lon="-3.32292">
        <ele>225.7</ele>
        <time>2024-11-20T15:09:57Z</time>
      </trkpt>
      <trkpt lat="48.1609" lon="-3.32293">
        <ele>225.6</ele>
        <time>2024-11-20T15:09:58Z</time>
      </trkpt>
      <trkpt lat="48.16089" lon="-3.32294">
        <ele>225.6</ele>
        <time>2024-11-20T15:09:59Z</time>
      </trkpt>
      <trkpt lat="48.16088" lon="-3.32295">
        <ele>225.6</ele>
        <time>2024-11-20T15:10:00Z</time>
      </trkpt>
      <trkpt lat="48.16087" lon="-3.32296">
        <ele>225.5</ele>
        <time>2024-11-20T15:10:01Z</time>
      </trkpt>
      <trkpt lat="48.16086" lon="-3.32297">
        <ele>225.5</ele>
        <time>2024-11-20T15:10:02Z</time>
      </trkpt>
      <trkpt lat="48.16085" lon="-3.32297">
        <ele>225.5</ele>
        <time>2024-11-20T15:10:03Z</time>
      </trkpt>
      <trkpt lat="48.16084" lon="-3.32298">
        <ele>225.5</ele>
        <time>2024-11-20T15:10:04Z</time>
      </trkpt>
      <trkpt lat="48.16083" lon="-3.32299">
        <ele>225.5</ele>
        <time>2024-11-20T15:10:05Z</time>
      </trkpt>
      <trkpt lat="48.16082" lon="-3.323">
        <ele>225.5</ele>
        <time>2024-11-20T15:10:06Z</time>
      </trkpt>
      <trkpt lat="48.16081" lon="-3.323">
        <ele>225.5</ele>
        <time>2024-11-20T15:10:07Z</time>
      </trkpt>
      <trkpt lat="48.1608" lon="-3.323">
        <ele>225.5</ele>
        <time>2024-11-20T15:10:08Z</time>
      </trkpt>
      <trkpt lat="48.16078" lon="-3.323">
        <ele>225.6</ele>
        <time>2024-11-20T15:10:09Z</time>
      </trkpt>
      <trkpt lat="48.16077" lon="-3.32301">
        <ele>225.6</ele>
        <time>2024-11-20T15:10:10Z</time>
      </trkpt>
      <trkpt lat="48.16076" lon="-3.32301">
        <ele>225.6</ele>
        <time>2024-11-20T15:10:11Z</time>
      </trkpt>
      <trkpt lat="48.16075" lon="-3.32302">
        <ele>225.6</ele>
        <time>2024-11-20T15:10:12Z</time>
      </trkpt>
      <trkpt lat="48.16074" lon="-3.32302">
        <ele>225.6</ele>
        <time>2024-11-20T15:10:13Z</time>
      </trkpt>
      <trkpt lat="48.16073" lon="-3.32303">
        <ele>225.6</ele>
        <time>2024-11-20T15:10:14Z</time>
      </trkpt>
      <trkpt lat="48.16071" lon="-3.32304">
        <ele>225.6</ele>
        <time>2024-11-20T15:10:15Z</time>
      </trkpt>
      <trkpt lat="48.1607" lon="-3.32304">
        <ele>225.6</ele>
        <time>2024-11-20T15:10:16Z</time>
      </trkpt>
      <trkpt lat="48.16069" lon="-3.32304">
        <ele>225.6</ele>
        <time>2024-11-20T15:10:17Z</time>
      </trkpt>
      <trkpt lat="48.16068" lon="-3.32304">
        <ele>225.7</ele>
        <time>2024-11-20T15:10:18Z</time>
      </trkpt>
      <trkpt lat="48.16067" lon="-3.32303">
        <ele>225.8</ele>
        <time>2024-11-20T15:10:19Z</time>
      </trkpt>
      <trkpt lat="48.16066" lon="-3.32302">
        <ele>225.9</ele>
        <time>2024-11-20T15:10:20Z</time>
      </trkpt>
      <trkpt lat="48.16065" lon="-3.32301">
        <ele>226</ele>
        <time>2024-11-20T15:10:21Z</time>
      </trkpt>
      <trkpt lat="48.16064" lon="-3.323">
        <ele>226.1</ele>
        <time>2024-11-20T15:10:22Z</time>
      </trkpt>
      <trkpt lat="48.16064" lon="-3.32299">
        <ele>226.2</ele>
        <time>2024-11-20T15:10:23Z</time>
      </trkpt>
      <trkpt lat="48.16064" lon="-3.32298">
        <ele>226.3</ele>
        <time>2024-11-20T15:10:24Z</time>
      </trkpt>
      <trkpt lat="48.16064" lon="-3.32297">
        <ele>226.3</ele>
        <time>2024-11-20T15:10:25Z</time>
      </trkpt>
      <trkpt lat="48.16064" lon="-3.32297">
        <ele>226.3</ele>
        <time>2024-11-20T15:10:26Z</time>
      </trkpt>
      <trkpt lat="48.16064" lon="-3.32297">
        <ele>226.3</ele>
        <time>2024-11-20T15:10:27Z</time>
      </trkpt>
      <trkpt lat="48.16064" lon="-3.32297">
        <ele>226.3</ele>
        <time>2024-11-20T15:10:28Z</time>
      </trkpt>
      <trkpt lat="48.16064" lon="-3.32297">
        <ele>226.3</ele>
        <time>2024-11-20T15:10:29Z</time>
      </trkpt>
      <trkpt lat="48.16064" lon="-3.32297">
        <ele>226.3</ele>
        <time>2024-11-20T15:10:30Z</time>
      </trkpt>
      <trkpt lat="48.16064" lon="-3.32297">
        <ele>226.3</ele>
        <time>2024-11-20T15:10:31Z</time>
      </trkpt>
      <trkpt lat="48.16064" lon="-3.32296">
        <ele>226.4</ele>
        <time>2024-11-20T15:10:32Z</time>
      </trkpt>
      <trkpt lat="48.16064" lon="-3.32296">
        <ele>226.4</ele>
        <time>2024-11-20T15:10:33Z</time>
      </trkpt>
      <trkpt lat="48.16064" lon="-3.32296">
        <ele>226.4</ele>
        <time>2024-11-20T15:10:34Z</time>
      </trkpt>
      <trkpt lat="48.16064" lon="-3.32296">
        <ele>226.4</ele>
        <time>2024-11-20T15:10:35Z</time>
      </trkpt>
      <trkpt lat="48.16064" lon="-3.32295">
        <ele>226.4</ele>
        <time>2024-11-20T15:10:36Z</time>
      </trkpt>
      <trkpt lat="48.16064" lon="-3.32294">
        <ele>226.5</ele>
        <time>2024-11-20T15:10:37Z</time>
      </trkpt>
      <trkpt lat="48.16063" lon="-3.32293">
        <ele>226.7</ele>
        <time>2024-11-20T15:10:38Z</time>
      </trkpt>
      <trkpt lat="48.16063" lon="-3.32292">
        <ele>226.7</ele>
        <time>2024-11-20T15:10:39Z</time>
      </trkpt>
      <trkpt lat="48.16063" lon="-3.3229">
        <ele>226.8</ele>
        <time>2024-11-20T15:10:40Z</time>
      </trkpt>
      <trkpt lat="48.16063" lon="-3.32289">
        <ele>226.9</ele>
        <time>2024-11-20T15:10:41Z</time>
      </trkpt>
      <trkpt lat="48.16063" lon="-3.32288">
        <ele>227</ele>
        <time>2024-11-20T15:10:42Z</time>
      </trkpt>
      <trkpt lat="48.16063" lon="-3.32286">
        <ele>227.1</ele>
        <time>2024-11-20T15:10:43Z</time>
      </trkpt>
      <trkpt lat="48.16062" lon="-3.32285">
        <ele>227.2</ele>
        <time>2024-11-20T15:10:44Z</time>
      </trkpt>
      <trkpt lat="48.16062" lon="-3.32284">
        <ele>227.3</ele>
        <time>2024-11-20T15:10:45Z</time>
      </trkpt>
      <trkpt lat="48.16062" lon="-3.32283">
        <ele>227.4</ele>
        <time>2024-11-20T15:10:46Z</time>
      </trkpt>
      <trkpt lat="48.16062" lon="-3.32282">
        <ele>227.5</ele>
        <time>2024-11-20T15:10:47Z</time>
      </trkpt>
      <trkpt lat="48.16062" lon="-3.32281">
        <ele>227.6</ele>
        <time>2024-11-20T15:10:48Z</time>
      </trkpt>
      <trkpt lat="48.16062" lon="-3.32279">
        <ele>227.7</ele>
        <time>2024-11-20T15:10:49Z</time>
      </trkpt>
      <trkpt lat="48.16061" lon="-3.32277">
        <ele>227.8</ele>
        <time>2024-11-20T15:10:50Z</time>
      </trkpt>
      <trkpt lat="48.16061" lon="-3.32277">
        <ele>227.9</ele>
        <time>2024-11-20T15:10:51Z</time>
      </trkpt>
      <trkpt lat="48.16061" lon="-3.32276">
        <ele>228</ele>
        <time>2024-11-20T15:10:52Z</time>
      </trkpt>
      <trkpt lat="48.16061" lon="-3.32275">
        <ele>228.2</ele>
        <time>2024-11-20T15:10:53Z</time>
      </trkpt>
      <trkpt lat="48.16061" lon="-3.32273">
        <ele>228.3</ele>
        <time>2024-11-20T15:10:54Z</time>
      </trkpt>
      <trkpt lat="48.16061" lon="-3.32273">
        <ele>228.4</ele>
        <time>2024-11-20T15:10:55Z</time>
      </trkpt>
      <trkpt lat="48.1606" lon="-3.32272">
        <ele>228.4</ele>
        <time>2024-11-20T15:10:56Z</time>
      </trkpt>
      <trkpt lat="48.1606" lon="-3.32272">
        <ele>228.5</ele>
        <time>2024-11-20T15:10:57Z</time>
      </trkpt>
      <trkpt lat="48.1606" lon="-3.32272">
        <ele>228.5</ele>
        <time>2024-11-20T15:10:58Z</time>
      </trkpt>
      <trkpt lat="48.1606" lon="-3.32271">
        <ele>228.6</ele>
        <time>2024-11-20T15:10:59Z</time>
      </trkpt>
      <trkpt lat="48.1606" lon="-3.3227">
        <ele>228.7</ele>
        <time>2024-11-20T15:11:00Z</time>
      </trkpt>
      <trkpt lat="48.1606" lon="-3.32269">
        <ele>228.8</ele>
        <time>2024-11-20T15:11:01Z</time>
      </trkpt>
      <trkpt lat="48.16059" lon="-3.32268">
        <ele>228.9</ele>
        <time>2024-11-20T15:11:02Z</time>
      </trkpt>
      <trkpt lat="48.16059" lon="-3.32266">
        <ele>229.2</ele>
        <time>2024-11-20T15:11:03Z</time>
      </trkpt>
      <trkpt lat="48.16059" lon="-3.32265">
        <ele>229.3</ele>
        <time>2024-11-20T15:11:04Z</time>
      </trkpt>
      <trkpt lat="48.16058" lon="-3.32263">
        <ele>229.5</ele>
        <time>2024-11-20T15:11:05Z</time>
      </trkpt>
      <trkpt lat="48.16058" lon="-3.32262">
        <ele>229.6</ele>
        <time>2024-11-20T15:11:06Z</time>
      </trkpt>
      <trkpt lat="48.16058" lon="-3.32261">
        <ele>229.8</ele>
        <time>2024-11-20T15:11:07Z</time>
      </trkpt>
      <trkpt lat="48.16057" lon="-3.3226">
        <ele>229.9</ele>
        <time>2024-11-20T15:11:08Z</time>
      </trkpt>
      <trkpt lat="48.16057" lon="-3.32259">
        <ele>230</ele>
        <time>2024-11-20T15:11:09Z</time>
      </trkpt>
      <trkpt lat="48.16056" lon="-3.32256">
        <ele>230.4</ele>
        <time>2024-11-20T15:11:11Z</time>
      </trkpt>
      <trkpt lat="48.16055" lon="-3.32255">
        <ele>230.5</ele>
        <time>2024-11-20T15:11:12Z</time>
      </trkpt>
      <trkpt lat="48.16055" lon="-3.32254">
        <ele>230.6</ele>
        <time>2024-11-20T15:11:13Z</time>
      </trkpt>
      <trkpt lat="48.16055" lon="-3.32253">
        <ele>230.7</ele>
        <time>2024-11-20T15:11:14Z</time>
      </trkpt>
      <trkpt lat="48.16054" lon="-3.32252">
        <ele>230.7</ele>
        <time>2024-11-20T15:11:15Z</time>
      </trkpt>
      <trkpt lat="48.16054" lon="-3.32252">
        <ele>230.8</ele>
        <time>2024-11-20T15:11:16Z</time>
      </trkpt>
      <trkpt lat="48.16054" lon="-3.3225">
        <ele>231</ele>
        <time>2024-11-20T15:11:17Z</time>
      </trkpt>
      <trkpt lat="48.16054" lon="-3.32249">
        <ele>231.1</ele>
        <time>2024-11-20T15:11:18Z</time>
      </trkpt>
      <trkpt lat="48.16053" lon="-3.32248">
        <ele>231.2</ele>
        <time>2024-11-20T15:11:19Z</time>
      </trkpt>
      <trkpt lat="48.16053" lon="-3.32246">
        <ele>231.3</ele>
        <time>2024-11-20T15:11:20Z</time>
      </trkpt>
      <trkpt lat="48.16052" lon="-3.32244">
        <ele>231.4</ele>
        <time>2024-11-20T15:11:21Z</time>
      </trkpt>
      <trkpt lat="48.16052" lon="-3.32243">
        <ele>231.5</ele>
        <time>2024-11-20T15:11:22Z</time>
      </trkpt>
      <trkpt lat="48.16051" lon="-3.32242">
        <ele>231.6</ele>
        <time>2024-11-20T15:11:23Z</time>
      </trkpt>
      <trkpt lat="48.1605" lon="-3.32241">
        <ele>231.6</ele>
        <time>2024-11-20T15:11:24Z</time>
      </trkpt>
      <trkpt lat="48.1605" lon="-3.3224">
        <ele>231.7</ele>
        <time>2024-11-20T15:11:25Z</time>
      </trkpt>
      <trkpt lat="48.16049" lon="-3.32239">
        <ele>231.8</ele>
        <time>2024-11-20T15:11:26Z</time>
      </trkpt>
      <trkpt lat="48.16048" lon="-3.32238">
        <ele>231.9</ele>
        <time>2024-11-20T15:11:27Z</time>
      </trkpt>
      <trkpt lat="48.16048" lon="-3.32236">
        <ele>232</ele>
        <time>2024-11-20T15:11:28Z</time>
      </trkpt>
      <trkpt lat="48.16047" lon="-3.32235">
        <ele>232.1</ele>
        <time>2024-11-20T15:11:29Z</time>
      </trkpt>
      <trkpt lat="48.16047" lon="-3.32233">
        <ele>232.2</ele>
        <time>2024-11-20T15:11:30Z</time>
      </trkpt>
      <trkpt lat="48.16046" lon="-3.32232">
        <ele>232.3</ele>
        <time>2024-11-20T15:11:31Z</time>
      </trkpt>
      <trkpt lat="48.16046" lon="-3.32231">
        <ele>232.4</ele>
        <time>2024-11-20T15:11:32Z</time>
      </trkpt>
      <trkpt lat="48.16045" lon="-3.32229">
        <ele>232.5</ele>
        <time>2024-11-20T15:11:33Z</time>
      </trkpt>
      <trkpt lat="48.16045" lon="-3.32227">
        <ele>232.6</ele>
        <time>2024-11-20T15:11:34Z</time>
      </trkpt>
      <trkpt lat="48.16044" lon="-3.32226">
        <ele>232.7</ele>
        <time>2024-11-20T15:11:35Z</time>
      </trkpt>
      <trkpt lat="48.16044" lon="-3.32225">
        <ele>232.8</ele>
        <time>2024-11-20T15:11:36Z</time>
      </trkpt>
      <trkpt lat="48.16043" lon="-3.32224">
        <ele>232.9</ele>
        <time>2024-11-20T15:11:37Z</time>
      </trkpt>
      <trkpt lat="48.16043" lon="-3.32223">
        <ele>232.9</ele>
        <time>2024-11-20T15:11:38Z</time>
      </trkpt>
      <trkpt lat="48.16043" lon="-3.32222">
        <ele>233</ele>
        <time>2024-11-20T15:11:39Z</time>
      </trkpt>
      <trkpt lat="48.16042" lon="-3.32221">
        <ele>233.1</ele>
        <time>2024-11-20T15:11:40Z</time>
      </trkpt>
      <trkpt lat="48.16042" lon="-3.3222">
        <ele>233.2</ele>
        <time>2024-11-20T15:11:41Z</time>
      </trkpt>
      <trkpt lat="48.16041" lon="-3.32219">
        <ele>233.3</ele>
        <time>2024-11-20T15:11:42Z</time>
      </trkpt>
      <trkpt lat="48.1604" lon="-3.32218">
        <ele>233.3</ele>
        <time>2024-11-20T15:11:43Z</time>
      </trkpt>
      <trkpt lat="48.1604" lon="-3.32216">
        <ele>233.4</ele>
        <time>2024-11-20T15:11:44Z</time>
      </trkpt>
      <trkpt lat="48.16039" lon="-3.32215">
        <ele>233.5</ele>
        <time>2024-11-20T15:11:45Z</time>
      </trkpt>
      <trkpt lat="48.16038" lon="-3.32214">
        <ele>233.6</ele>
        <time>2024-11-20T15:11:46Z</time>
      </trkpt>
      <trkpt lat="48.16038" lon="-3.32213">
        <ele>233.6</ele>
        <time>2024-11-20T15:11:47Z</time>
      </trkpt>
      <trkpt lat="48.16038" lon="-3.32212">
        <ele>233.7</ele>
        <time>2024-11-20T15:11:48Z</time>
      </trkpt>
      <trkpt lat="48.16037" lon="-3.32211">
        <ele>233.8</ele>
        <time>2024-11-20T15:11:49Z</time>
      </trkpt>
      <trkpt lat="48.16037" lon="-3.3221">
        <ele>233.9</ele>
        <time>2024-11-20T15:11:50Z</time>
      </trkpt>
      <trkpt lat="48.16036" lon="-3.32209">
        <ele>234</ele>
        <time>2024-11-20T15:11:51Z</time>
      </trkpt>
      <trkpt lat="48.16035" lon="-3.32207">
        <ele>234.1</ele>
        <time>2024-11-20T15:11:52Z</time>
      </trkpt>
      <trkpt lat="48.16035" lon="-3.32206">
        <ele>234.2</ele>
        <time>2024-11-20T15:11:53Z</time>
      </trkpt>
      <trkpt lat="48.16034" lon="-3.32205">
        <ele>234.2</ele>
        <time>2024-11-20T15:11:54Z</time>
      </trkpt>
      <trkpt lat="48.16033" lon="-3.32204">
        <ele>234.3</ele>
        <time>2024-11-20T15:11:55Z</time>
      </trkpt>
      <trkpt lat="48.16033" lon="-3.32203">
        <ele>234.4</ele>
        <time>2024-11-20T15:11:56Z</time>
      </trkpt>
      <trkpt lat="48.16032" lon="-3.32203">
        <ele>234.4</ele>
        <time>2024-11-20T15:11:57Z</time>
      </trkpt>
      <trkpt lat="48.16032" lon="-3.32202">
        <ele>234.5</ele>
        <time>2024-11-20T15:11:58Z</time>
      </trkpt>
      <trkpt lat="48.16031" lon="-3.322">
        <ele>234.6</ele>
        <time>2024-11-20T15:11:59Z</time>
      </trkpt>
      <trkpt lat="48.1603" lon="-3.32199">
        <ele>234.7</ele>
        <time>2024-11-20T15:12:00Z</time>
      </trkpt>
      <trkpt lat="48.1603" lon="-3.32198">
        <ele>234.7</ele>
        <time>2024-11-20T15:12:01Z</time>
      </trkpt>
      <trkpt lat="48.1603" lon="-3.32198">
        <ele>234.8</ele>
        <time>2024-11-20T15:12:02Z</time>
      </trkpt>
      <trkpt lat="48.16029" lon="-3.32196">
        <ele>234.9</ele>
        <time>2024-11-20T15:12:03Z</time>
      </trkpt>
      <trkpt lat="48.16029" lon="-3.32195">
        <ele>234.9</ele>
        <time>2024-11-20T15:12:04Z</time>
      </trkpt>
      <trkpt lat="48.16028" lon="-3.32194">
        <ele>235</ele>
        <time>2024-11-20T15:12:05Z</time>
      </trkpt>
      <trkpt lat="48.16028" lon="-3.32194">
        <ele>235.1</ele>
        <time>2024-11-20T15:12:06Z</time>
      </trkpt>
      <trkpt lat="48.16027" lon="-3.32193">
        <ele>235.1</ele>
        <time>2024-11-20T15:12:07Z</time>
      </trkpt>
      <trkpt lat="48.16026" lon="-3.32191">
        <ele>235.2</ele>
        <time>2024-11-20T15:12:08Z</time>
      </trkpt>
      <trkpt lat="48.16025" lon="-3.3219">
        <ele>235.3</ele>
        <time>2024-11-20T15:12:09Z</time>
      </trkpt>
      <trkpt lat="48.16025" lon="-3.32189">
        <ele>235.4</ele>
        <time>2024-11-20T15:12:10Z</time>
      </trkpt>
      <trkpt lat="48.16024" lon="-3.32188">
        <ele>235.5</ele>
        <time>2024-11-20T15:12:11Z</time>
      </trkpt>
      <trkpt lat="48.16024" lon="-3.32187">
        <ele>235.6</ele>
        <time>2024-11-20T15:12:12Z</time>
      </trkpt>
      <trkpt lat="48.16023" lon="-3.32185">
        <ele>235.7</ele>
        <time>2024-11-20T15:12:13Z</time>
      </trkpt>
      <trkpt lat="48.16023" lon="-3.32184">
        <ele>235.7</ele>
        <time>2024-11-20T15:12:14Z</time>
      </trkpt>
      <trkpt lat="48.16023" lon="-3.32183">
        <ele>235.9</ele>
        <time>2024-11-20T15:12:15Z</time>
      </trkpt>
      <trkpt lat="48.16022" lon="-3.32181">
        <ele>236</ele>
        <time>2024-11-20T15:12:16Z</time>
      </trkpt>
      <trkpt lat="48.16021" lon="-3.32179">
        <ele>236.1</ele>
        <time>2024-11-20T15:12:17Z</time>
      </trkpt>
      <trkpt lat="48.1602" lon="-3.32178">
        <ele>236.2</ele>
        <time>2024-11-20T15:12:18Z</time>
      </trkpt>
      <trkpt lat="48.1602" lon="-3.32177">
        <ele>236.3</ele>
        <time>2024-11-20T15:12:19Z</time>
      </trkpt>
      <trkpt lat="48.16019" lon="-3.32175">
        <ele>236.4</ele>
        <time>2024-11-20T15:12:20Z</time>
      </trkpt>
      <trkpt lat="48.16018" lon="-3.32174">
        <ele>236.5</ele>
        <time>2024-11-20T15:12:21Z</time>
      </trkpt>
      <trkpt lat="48.16018" lon="-3.32173">
        <ele>236.6</ele>
        <time>2024-11-20T15:12:22Z</time>
      </trkpt>
      <trkpt lat="48.16017" lon="-3.32172">
        <ele>236.6</ele>
        <time>2024-11-20T15:12:23Z</time>
      </trkpt>
      <trkpt lat="48.16017" lon="-3.32172">
        <ele>236.6</ele>
        <time>2024-11-20T15:12:24Z</time>
      </trkpt>
      <trkpt lat="48.16016" lon="-3.32172">
        <ele>236.6</ele>
        <time>2024-11-20T15:12:25Z</time>
      </trkpt>
      <trkpt lat="48.16016" lon="-3.32171">
        <ele>236.7</ele>
        <time>2024-11-20T15:12:26Z</time>
      </trkpt>
      <trkpt lat="48.16015" lon="-3.32171">
        <ele>236.7</ele>
        <time>2024-11-20T15:12:27Z</time>
      </trkpt>
      <trkpt lat="48.16015" lon="-3.3217">
        <ele>236.8</ele>
        <time>2024-11-20T15:12:28Z</time>
      </trkpt>
      <trkpt lat="48.16014" lon="-3.32168">
        <ele>236.9</ele>
        <time>2024-11-20T15:12:29Z</time>
      </trkpt>
      <trkpt lat="48.16013" lon="-3.32167">
        <ele>237</ele>
        <time>2024-11-20T15:12:30Z</time>
      </trkpt>
      <trkpt lat="48.16013" lon="-3.32166">
        <ele>237.1</ele>
        <time>2024-11-20T15:12:31Z</time>
      </trkpt>
      <trkpt lat="48.16012" lon="-3.32164">
        <ele>237.2</ele>
        <time>2024-11-20T15:12:32Z</time>
      </trkpt>
      <trkpt lat="48.16011" lon="-3.32163">
        <ele>237.3</ele>
        <time>2024-11-20T15:12:33Z</time>
      </trkpt>
      <trkpt lat="48.16011" lon="-3.32162">
        <ele>237.4</ele>
        <time>2024-11-20T15:12:34Z</time>
      </trkpt>
      <trkpt lat="48.1601" lon="-3.32161">
        <ele>237.4</ele>
        <time>2024-11-20T15:12:35Z</time>
      </trkpt>
      <trkpt lat="48.1601" lon="-3.3216">
        <ele>237.5</ele>
        <time>2024-11-20T15:12:36Z</time>
      </trkpt>
      <trkpt lat="48.1601" lon="-3.32159">
        <ele>237.6</ele>
        <time>2024-11-20T15:12:37Z</time>
      </trkpt>
      <trkpt lat="48.1601" lon="-3.32158">
        <ele>237.6</ele>
        <time>2024-11-20T15:12:38Z</time>
      </trkpt>
      <trkpt lat="48.16009" lon="-3.32157">
        <ele>237.7</ele>
        <time>2024-11-20T15:12:39Z</time>
      </trkpt>
      <trkpt lat="48.16009" lon="-3.32156">
        <ele>237.8</ele>
        <time>2024-11-20T15:12:40Z</time>
      </trkpt>
      <trkpt lat="48.16009" lon="-3.32155">
        <ele>237.9</ele>
        <time>2024-11-20T15:12:41Z</time>
      </trkpt>
      <trkpt lat="48.16009" lon="-3.32154">
        <ele>237.9</ele>
        <time>2024-11-20T15:12:42Z</time>
      </trkpt>
      <trkpt lat="48.16008" lon="-3.32153">
        <ele>238</ele>
        <time>2024-11-20T15:12:43Z</time>
      </trkpt>
      <trkpt lat="48.16008" lon="-3.32152">
        <ele>238</ele>
        <time>2024-11-20T15:12:44Z</time>
      </trkpt>
      <trkpt lat="48.16007" lon="-3.32152">
        <ele>238.1</ele>
        <time>2024-11-20T15:12:45Z</time>
      </trkpt>
      <trkpt lat="48.16006" lon="-3.32152">
        <ele>238.1</ele>
        <time>2024-11-20T15:12:46Z</time>
      </trkpt>
      <trkpt lat="48.16006" lon="-3.32151">
        <ele>238.1</ele>
        <time>2024-11-20T15:12:47Z</time>
      </trkpt>
      <trkpt lat="48.16006" lon="-3.32151">
        <ele>238.1</ele>
        <time>2024-11-20T15:12:48Z</time>
      </trkpt>
      <trkpt lat="48.16006" lon="-3.32152">
        <ele>238.1</ele>
        <time>2024-11-20T15:12:49Z</time>
      </trkpt>
      <trkpt lat="48.16006" lon="-3.32152">
        <ele>238.1</ele>
        <time>2024-11-20T15:12:50Z</time>
      </trkpt>
      <trkpt lat="48.16006" lon="-3.32152">
        <ele>238.1</ele>
        <time>2024-11-20T15:12:51Z</time>
      </trkpt>
      <trkpt lat="48.16005" lon="-3.32151">
        <ele>238.1</ele>
        <time>2024-11-20T15:12:52Z</time>
      </trkpt>
      <trkpt lat="48.16005" lon="-3.32152">
        <ele>238.1</ele>
        <time>2024-11-20T15:12:53Z</time>
      </trkpt>
      <trkpt lat="48.16005" lon="-3.32152">
        <ele>238.1</ele>
        <time>2024-11-20T15:12:54Z</time>
      </trkpt>
      <trkpt lat="48.16005" lon="-3.32152">
        <ele>238</ele>
        <time>2024-11-20T15:12:55Z</time>
      </trkpt>
      <trkpt lat="48.16005" lon="-3.32153">
        <ele>238</ele>
        <time>2024-11-20T15:12:56Z</time>
      </trkpt>
      <trkpt lat="48.16005" lon="-3.32153">
        <ele>238</ele>
        <time>2024-11-20T15:12:57Z</time>
      </trkpt>
      <trkpt lat="48.16005" lon="-3.32153">
        <ele>238</ele>
        <time>2024-11-20T15:12:58Z</time>
      </trkpt>
      <trkpt lat="48.16006" lon="-3.32153">
        <ele>238</ele>
        <time>2024-11-20T15:12:59Z</time>
      </trkpt>
      <trkpt lat="48.16006" lon="-3.32153">
        <ele>238</ele>
        <time>2024-11-20T15:13:00Z</time>
      </trkpt>
      <trkpt lat="48.16006" lon="-3.32152">
        <ele>238</ele>
        <time>2024-11-20T15:13:01Z</time>
      </trkpt>
      <trkpt lat="48.16006" lon="-3.32152">
        <ele>238.1</ele>
        <time>2024-11-20T15:13:02Z</time>
      </trkpt>
      <trkpt lat="48.16006" lon="-3.32152">
        <ele>238.1</ele>
        <time>2024-11-20T15:13:03Z</time>
      </trkpt>
      <trkpt lat="48.16006" lon="-3.32152">
        <ele>238.1</ele>
        <time>2024-11-20T15:13:04Z</time>
      </trkpt>
      <trkpt lat="48.16006" lon="-3.32151">
        <ele>238.1</ele>
        <time>2024-11-20T15:13:05Z</time>
      </trkpt>
      <trkpt lat="48.16006" lon="-3.32151">
        <ele>238.1</ele>
        <time>2024-11-20T15:13:06Z</time>
      </trkpt>
      <trkpt lat="48.16006" lon="-3.32151">
        <ele>238.1</ele>
        <time>2024-11-20T15:13:07Z</time>
      </trkpt>
      <trkpt lat="48.16006" lon="-3.32151">
        <ele>238.2</ele>
        <time>2024-11-20T15:13:08Z</time>
      </trkpt>
      <trkpt lat="48.16006" lon="-3.3215">
        <ele>238.2</ele>
        <time>2024-11-20T15:13:09Z</time>
      </trkpt>
      <trkpt lat="48.16006" lon="-3.3215">
        <ele>238.2</ele>
        <time>2024-11-20T15:13:10Z</time>
      </trkpt>
      <trkpt lat="48.16005" lon="-3.32149">
        <ele>238.3</ele>
        <time>2024-11-20T15:13:11Z</time>
      </trkpt>
      <trkpt lat="48.16005" lon="-3.32148">
        <ele>238.4</ele>
        <time>2024-11-20T15:13:12Z</time>
      </trkpt>
      <trkpt lat="48.16004" lon="-3.32147">
        <ele>238.4</ele>
        <time>2024-11-20T15:13:13Z</time>
      </trkpt>
      <trkpt lat="48.16003" lon="-3.32146">
        <ele>238.5</ele>
        <time>2024-11-20T15:13:14Z</time>
      </trkpt>
      <trkpt lat="48.16003" lon="-3.32146">
        <ele>238.5</ele>
        <time>2024-11-20T15:13:15Z</time>
      </trkpt>
      <trkpt lat="48.16003" lon="-3.32146">
        <ele>238.5</ele>
        <time>2024-11-20T15:13:16Z</time>
      </trkpt>
      <trkpt lat="48.16004" lon="-3.32146">
        <ele>238.5</ele>
        <time>2024-11-20T15:13:17Z</time>
      </trkpt>
      <trkpt lat="48.16004" lon="-3.32146">
        <ele>238.5</ele>
        <time>2024-11-20T15:13:18Z</time>
      </trkpt>
      <trkpt lat="48.16004" lon="-3.32146">
        <ele>238.5</ele>
        <time>2024-11-20T15:13:19Z</time>
      </trkpt>
      <trkpt lat="48.16004" lon="-3.32146">
        <ele>238.5</ele>
        <time>2024-11-20T15:13:20Z</time>
      </trkpt>
      <trkpt lat="48.16004" lon="-3.32145">
        <ele>238.5</ele>
        <time>2024-11-20T15:13:24Z</time>
      </trkpt>
      <trkpt lat="48.16003" lon="-3.32144">
        <ele>238.6</ele>
        <time>2024-11-20T15:13:25Z</time>
      </trkpt>
      <trkpt lat="48.16003" lon="-3.32143">
        <ele>238.7</ele>
        <time>2024-11-20T15:13:26Z</time>
      </trkpt>
      <trkpt lat="48.16002" lon="-3.32143">
        <ele>238.7</ele>
        <time>2024-11-20T15:13:27Z</time>
      </trkpt>
      <trkpt lat="48.16001" lon="-3.32142">
        <ele>238.8</ele>
        <time>2024-11-20T15:13:28Z</time>
      </trkpt>
      <trkpt lat="48.16" lon="-3.32142">
        <ele>238.8</ele>
        <time>2024-11-20T15:13:29Z</time>
      </trkpt>
      <trkpt lat="48.16" lon="-3.32141">
        <ele>238.8</ele>
        <time>2024-11-20T15:13:30Z</time>
      </trkpt>
      <trkpt lat="48.15999" lon="-3.3214">
        <ele>238.9</ele>
        <time>2024-11-20T15:13:31Z</time>
      </trkpt>
      <trkpt lat="48.15998" lon="-3.32139">
        <ele>239</ele>
        <time>2024-11-20T15:13:32Z</time>
      </trkpt>
      <trkpt lat="48.15997" lon="-3.32138">
        <ele>239.1</ele>
        <time>2024-11-20T15:13:33Z</time>
      </trkpt>
      <trkpt lat="48.15997" lon="-3.32137">
        <ele>239.1</ele>
        <time>2024-11-20T15:13:34Z</time>
      </trkpt>
      <trkpt lat="48.15996" lon="-3.32136">
        <ele>239.2</ele>
        <time>2024-11-20T15:13:35Z</time>
      </trkpt>
      <trkpt lat="48.15995" lon="-3.32135">
        <ele>239.3</ele>
        <time>2024-11-20T15:13:36Z</time>
      </trkpt>
      <trkpt lat="48.15994" lon="-3.32134">
        <ele>239.4</ele>
        <time>2024-11-20T15:13:37Z</time>
      </trkpt>
      <trkpt lat="48.15994" lon="-3.32133">
        <ele>239.4</ele>
        <time>2024-11-20T15:13:38Z</time>
      </trkpt>
      <trkpt lat="48.15993" lon="-3.32132">
        <ele>239.5</ele>
        <time>2024-11-20T15:13:39Z</time>
      </trkpt>
      <trkpt lat="48.15993" lon="-3.32131">
        <ele>239.5</ele>
        <time>2024-11-20T15:13:40Z</time>
      </trkpt>
      <trkpt lat="48.15992" lon="-3.32131">
        <ele>239.6</ele>
        <time>2024-11-20T15:13:41Z</time>
      </trkpt>
      <trkpt lat="48.15992" lon="-3.3213">
        <ele>239.6</ele>
        <time>2024-11-20T15:13:42Z</time>
      </trkpt>
      <trkpt lat="48.15991" lon="-3.3213">
        <ele>239.7</ele>
        <time>2024-11-20T15:13:43Z</time>
      </trkpt>
      <trkpt lat="48.1599" lon="-3.32129">
        <ele>239.7</ele>
        <time>2024-11-20T15:13:44Z</time>
      </trkpt>
      <trkpt lat="48.1599" lon="-3.32128">
        <ele>239.8</ele>
        <time>2024-11-20T15:13:45Z</time>
      </trkpt>
      <trkpt lat="48.15989" lon="-3.32128">
        <ele>239.8</ele>
        <time>2024-11-20T15:13:46Z</time>
      </trkpt>
      <trkpt lat="48.15989" lon="-3.32127">
        <ele>239.9</ele>
        <time>2024-11-20T15:13:47Z</time>
      </trkpt>
      <trkpt lat="48.15988" lon="-3.32126">
        <ele>239.9</ele>
        <time>2024-11-20T15:13:48Z</time>
      </trkpt>
      <trkpt lat="48.15987" lon="-3.32125">
        <ele>240</ele>
        <time>2024-11-20T15:13:49Z</time>
      </trkpt>
      <trkpt lat="48.15986" lon="-3.32124">
        <ele>240.1</ele>
        <time>2024-11-20T15:13:50Z</time>
      </trkpt>
      <trkpt lat="48.15986" lon="-3.32123">
        <ele>240.2</ele>
        <time>2024-11-20T15:13:51Z</time>
      </trkpt>
      <trkpt lat="48.15986" lon="-3.32123">
        <ele>240.2</ele>
        <time>2024-11-20T15:13:52Z</time>
      </trkpt>
      <trkpt lat="48.15985" lon="-3.32122">
        <ele>240.2</ele>
        <time>2024-11-20T15:13:53Z</time>
      </trkpt>
      <trkpt lat="48.15984" lon="-3.32121">
        <ele>240.3</ele>
        <time>2024-11-20T15:13:54Z</time>
      </trkpt>
      <trkpt lat="48.15983" lon="-3.3212">
        <ele>240.3</ele>
        <time>2024-11-20T15:13:55Z</time>
      </trkpt>
      <trkpt lat="48.15982" lon="-3.32119">
        <ele>240.4</ele>
        <time>2024-11-20T15:13:56Z</time>
      </trkpt>
      <trkpt lat="48.15981" lon="-3.32118">
        <ele>240.5</ele>
        <time>2024-11-20T15:13:57Z</time>
      </trkpt>
      <trkpt lat="48.1598" lon="-3.32117">
        <ele>240.6</ele>
        <time>2024-11-20T15:13:58Z</time>
      </trkpt>
      <trkpt lat="48.15979" lon="-3.32116">
        <ele>240.7</ele>
        <time>2024-11-20T15:13:59Z</time>
      </trkpt>
      <trkpt lat="48.15978" lon="-3.32114">
        <ele>240.8</ele>
        <time>2024-11-20T15:14:00Z</time>
      </trkpt>
      <trkpt lat="48.15978" lon="-3.32113">
        <ele>240.9</ele>
        <time>2024-11-20T15:14:01Z</time>
      </trkpt>
      <trkpt lat="48.15977" lon="-3.32111">
        <ele>241</ele>
        <time>2024-11-20T15:14:02Z</time>
      </trkpt>
      <trkpt lat="48.15976" lon="-3.3211">
        <ele>241.1</ele>
        <time>2024-11-20T15:14:03Z</time>
      </trkpt>
      <trkpt lat="48.15975" lon="-3.32108">
        <ele>241.2</ele>
        <time>2024-11-20T15:14:04Z</time>
      </trkpt>
      <trkpt lat="48.15975" lon="-3.32107">
        <ele>241.3</ele>
        <time>2024-11-20T15:14:05Z</time>
      </trkpt>
      <trkpt lat="48.15974" lon="-3.32106">
        <ele>241.4</ele>
        <time>2024-11-20T15:14:06Z</time>
      </trkpt>
      <trkpt lat="48.15973" lon="-3.32105">
        <ele>241.5</ele>
        <time>2024-11-20T15:14:07Z</time>
      </trkpt>
      <trkpt lat="48.15972" lon="-3.32104">
        <ele>241.5</ele>
        <time>2024-11-20T15:14:08Z</time>
      </trkpt>
      <trkpt lat="48.15972" lon="-3.32103">
        <ele>241.6</ele>
        <time>2024-11-20T15:14:09Z</time>
      </trkpt>
      <trkpt lat="48.15971" lon="-3.32103">
        <ele>241.6</ele>
        <time>2024-11-20T15:14:10Z</time>
      </trkpt>
      <trkpt lat="48.15971" lon="-3.32103">
        <ele>241.6</ele>
        <time>2024-11-20T15:14:11Z</time>
      </trkpt>
      <trkpt lat="48.15971" lon="-3.32102">
        <ele>241.6</ele>
        <time>2024-11-20T15:14:12Z</time>
      </trkpt>
      <trkpt lat="48.15971" lon="-3.32103">
        <ele>241.5</ele>
        <time>2024-11-20T15:14:13Z</time>
      </trkpt>
      <trkpt lat="48.1597" lon="-3.32103">
        <ele>241.5</ele>
        <time>2024-11-20T15:14:14Z</time>
      </trkpt>
      <trkpt lat="48.15969" lon="-3.32102">
        <ele>241.6</ele>
        <time>2024-11-20T15:14:15Z</time>
      </trkpt>
      <trkpt lat="48.15968" lon="-3.321">
        <ele>241.7</ele>
        <time>2024-11-20T15:14:16Z</time>
      </trkpt>
      <trkpt lat="48.15967" lon="-3.32098">
        <ele>241.8</ele>
        <time>2024-11-20T15:14:17Z</time>
      </trkpt>
      <trkpt lat="48.15966" lon="-3.32097">
        <ele>241.9</ele>
        <time>2024-11-20T15:14:18Z</time>
      </trkpt>
      <trkpt lat="48.15966" lon="-3.32096">
        <ele>242</ele>
        <time>2024-11-20T15:14:19Z</time>
      </trkpt>
      <trkpt lat="48.15965" lon="-3.32094">
        <ele>242.1</ele>
        <time>2024-11-20T15:14:20Z</time>
      </trkpt>
      <trkpt lat="48.15964" lon="-3.32094">
        <ele>242.2</ele>
        <time>2024-11-20T15:14:21Z</time>
      </trkpt>
      <trkpt lat="48.15964" lon="-3.32092">
        <ele>242.3</ele>
        <time>2024-11-20T15:14:22Z</time>
      </trkpt>
      <trkpt lat="48.15963" lon="-3.32091">
        <ele>242.4</ele>
        <time>2024-11-20T15:14:23Z</time>
      </trkpt>
      <trkpt lat="48.15962" lon="-3.32089">
        <ele>242.5</ele>
        <time>2024-11-20T15:14:24Z</time>
      </trkpt>
      <trkpt lat="48.1596" lon="-3.32088">
        <ele>242.6</ele>
        <time>2024-11-20T15:14:25Z</time>
      </trkpt>
      <trkpt lat="48.15959" lon="-3.32087">
        <ele>242.7</ele>
        <time>2024-11-20T15:14:26Z</time>
      </trkpt>
      <trkpt lat="48.15958" lon="-3.32086">
        <ele>242.8</ele>
        <time>2024-11-20T15:14:27Z</time>
      </trkpt>
      <trkpt lat="48.15957" lon="-3.32085">
        <ele>242.8</ele>
        <time>2024-11-20T15:14:28Z</time>
      </trkpt>
      <trkpt lat="48.15956" lon="-3.32085">
        <ele>242.9</ele>
        <time>2024-11-20T15:14:29Z</time>
      </trkpt>
      <trkpt lat="48.15955" lon="-3.32083">
        <ele>243</ele>
        <time>2024-11-20T15:14:30Z</time>
      </trkpt>
      <trkpt lat="48.15954" lon="-3.3208">
        <ele>243.4</ele>
        <time>2024-11-20T15:14:31Z</time>
      </trkpt>
      <trkpt lat="48.15953" lon="-3.32078">
        <ele>243.5</ele>
        <time>2024-11-20T15:14:32Z</time>
      </trkpt>
      <trkpt lat="48.15952" lon="-3.32077">
        <ele>243.7</ele>
        <time>2024-11-20T15:14:33Z</time>
      </trkpt>
      <trkpt lat="48.15951" lon="-3.32076">
        <ele>243.8</ele>
        <time>2024-11-20T15:14:34Z</time>
      </trkpt>
      <trkpt lat="48.15951" lon="-3.32076">
        <ele>243.8</ele>
        <time>2024-11-20T15:14:35Z</time>
      </trkpt>
      <trkpt lat="48.1595" lon="-3.32075">
        <ele>243.9</ele>
        <time>2024-11-20T15:14:36Z</time>
      </trkpt>
      <trkpt lat="48.1595" lon="-3.32075">
        <ele>244</ele>
        <time>2024-11-20T15:14:37Z</time>
      </trkpt>
      <trkpt lat="48.15949" lon="-3.32073">
        <ele>244.1</ele>
        <time>2024-11-20T15:14:38Z</time>
      </trkpt>
      <trkpt lat="48.15949" lon="-3.32073">
        <ele>244.2</ele>
        <time>2024-11-20T15:14:39Z</time>
      </trkpt>
      <trkpt lat="48.15948" lon="-3.32072">
        <ele>244.2</ele>
        <time>2024-11-20T15:14:40Z</time>
      </trkpt>
      <trkpt lat="48.15947" lon="-3.32072">
        <ele>244.3</ele>
        <time>2024-11-20T15:14:41Z</time>
      </trkpt>
      <trkpt lat="48.15946" lon="-3.32071">
        <ele>244.3</ele>
        <time>2024-11-20T15:14:42Z</time>
      </trkpt>
      <trkpt lat="48.15945" lon="-3.3207">
        <ele>244.4</ele>
        <time>2024-11-20T15:14:43Z</time>
      </trkpt>
      <trkpt lat="48.15944" lon="-3.32069">
        <ele>244.6</ele>
        <time>2024-11-20T15:14:44Z</time>
      </trkpt>
      <trkpt lat="48.15943" lon="-3.32065">
        <ele>244.9</ele>
        <time>2024-11-20T15:14:45Z</time>
      </trkpt>
      <trkpt lat="48.15943" lon="-3.32063">
        <ele>245.1</ele>
        <time>2024-11-20T15:14:46Z</time>
      </trkpt>
      <trkpt lat="48.15942" lon="-3.32062">
        <ele>245.2</ele>
        <time>2024-11-20T15:14:47Z</time>
      </trkpt>
      <trkpt lat="48.15942" lon="-3.32061">
        <ele>245.3</ele>
        <time>2024-11-20T15:14:48Z</time>
      </trkpt>
      <trkpt lat="48.15941" lon="-3.3206">
        <ele>245.4</ele>
        <time>2024-11-20T15:14:49Z</time>
      </trkpt>
      <trkpt lat="48.1594" lon="-3.32059">
        <ele>245.5</ele>
        <time>2024-11-20T15:14:50Z</time>
      </trkpt>
      <trkpt lat="48.1594" lon="-3.32058">
        <ele>245.6</ele>
        <time>2024-11-20T15:14:51Z</time>
      </trkpt>
      <trkpt lat="48.15939" lon="-3.32058">
        <ele>245.6</ele>
        <time>2024-11-20T15:14:52Z</time>
      </trkpt>
      <trkpt lat="48.15938" lon="-3.32057">
        <ele>245.6</ele>
        <time>2024-11-20T15:14:53Z</time>
      </trkpt>
      <trkpt lat="48.15937" lon="-3.32056">
        <ele>245.7</ele>
        <time>2024-11-20T15:14:54Z</time>
      </trkpt>
      <trkpt lat="48.15936" lon="-3.32056">
        <ele>245.7</ele>
        <time>2024-11-20T15:14:55Z</time>
      </trkpt>
      <trkpt lat="48.15936" lon="-3.32055">
        <ele>245.7</ele>
        <time>2024-11-20T15:14:56Z</time>
      </trkpt>
      <trkpt lat="48.15935" lon="-3.32055">
        <ele>245.7</ele>
        <time>2024-11-20T15:14:57Z</time>
      </trkpt>
      <trkpt lat="48.15935" lon="-3.32055">
        <ele>245.7</ele>
        <time>2024-11-20T15:14:58Z</time>
      </trkpt>
      <trkpt lat="48.15934" lon="-3.32055">
        <ele>245.7</ele>
        <time>2024-11-20T15:14:59Z</time>
      </trkpt>
      <trkpt lat="48.15933" lon="-3.32054">
        <ele>245.7</ele>
        <time>2024-11-20T15:15:00Z</time>
      </trkpt>
      <trkpt lat="48.15932" lon="-3.32053">
        <ele>245.8</ele>
        <time>2024-11-20T15:15:01Z</time>
      </trkpt>
      <trkpt lat="48.1593" lon="-3.32051">
        <ele>245.9</ele>
        <time>2024-11-20T15:15:02Z</time>
      </trkpt>
      <trkpt lat="48.15929" lon="-3.32051">
        <ele>245.9</ele>
        <time>2024-11-20T15:15:03Z</time>
      </trkpt>
      <trkpt lat="48.15929" lon="-3.3205">
        <ele>245.9</ele>
        <time>2024-11-20T15:15:04Z</time>
      </trkpt>
      <trkpt lat="48.15928" lon="-3.3205">
        <ele>245.9</ele>
        <time>2024-11-20T15:15:05Z</time>
      </trkpt>
      <trkpt lat="48.15927" lon="-3.3205">
        <ele>245.9</ele>
        <time>2024-11-20T15:15:06Z</time>
      </trkpt>
      <trkpt lat="48.15926" lon="-3.32049">
        <ele>245.9</ele>
        <time>2024-11-20T15:15:07Z</time>
      </trkpt>
      <trkpt lat="48.15925" lon="-3.32048">
        <ele>246</ele>
        <time>2024-11-20T15:15:08Z</time>
      </trkpt>
      <trkpt lat="48.15924" lon="-3.32047">
        <ele>246.1</ele>
        <time>2024-11-20T15:15:09Z</time>
      </trkpt>
      <trkpt lat="48.15923" lon="-3.32046">
        <ele>246.2</ele>
        <time>2024-11-20T15:15:10Z</time>
      </trkpt>
      <trkpt lat="48.15922" lon="-3.32044">
        <ele>246.4</ele>
        <time>2024-11-20T15:15:11Z</time>
      </trkpt>
      <trkpt lat="48.15921" lon="-3.32043">
        <ele>246.5</ele>
        <time>2024-11-20T15:15:12Z</time>
      </trkpt>
      <trkpt lat="48.1592" lon="-3.32041">
        <ele>246.6</ele>
        <time>2024-11-20T15:15:13Z</time>
      </trkpt>
      <trkpt lat="48.15919" lon="-3.3204">
        <ele>246.7</ele>
        <time>2024-11-20T15:15:14Z</time>
      </trkpt>
      <trkpt lat="48.15919" lon="-3.3204">
        <ele>246.7</ele>
        <time>2024-11-20T15:15:15Z</time>
      </trkpt>
      <trkpt lat="48.15918" lon="-3.32039">
        <ele>246.8</ele>
        <time>2024-11-20T15:15:16Z</time>
      </trkpt>
      <trkpt lat="48.15917" lon="-3.32039">
        <ele>246.9</ele>
        <time>2024-11-20T15:15:17Z</time>
      </trkpt>
      <trkpt lat="48.15917" lon="-3.32037">
        <ele>247</ele>
        <time>2024-11-20T15:15:18Z</time>
      </trkpt>
      <trkpt lat="48.15916" lon="-3.32036">
        <ele>247.1</ele>
        <time>2024-11-20T15:15:19Z</time>
      </trkpt>
      <trkpt lat="48.15915" lon="-3.32034">
        <ele>247.3</ele>
        <time>2024-11-20T15:15:20Z</time>
      </trkpt>
      <trkpt lat="48.15913" lon="-3.32033">
        <ele>247.5</ele>
        <time>2024-11-20T15:15:21Z</time>
      </trkpt>
      <trkpt lat="48.15912" lon="-3.32031">
        <ele>247.7</ele>
        <time>2024-11-20T15:15:22Z</time>
      </trkpt>
      <trkpt lat="48.15911" lon="-3.3203">
        <ele>247.8</ele>
        <time>2024-11-20T15:15:23Z</time>
      </trkpt>
      <trkpt lat="48.15911" lon="-3.32029">
        <ele>247.9</ele>
        <time>2024-11-20T15:15:24Z</time>
      </trkpt>
      <trkpt lat="48.1591" lon="-3.32028">
        <ele>248</ele>
        <time>2024-11-20T15:15:25Z</time>
      </trkpt>
      <trkpt lat="48.15909" lon="-3.32027">
        <ele>248</ele>
        <time>2024-11-20T15:15:26Z</time>
      </trkpt>
      <trkpt lat="48.15909" lon="-3.32026">
        <ele>248.2</ele>
        <time>2024-11-20T15:15:27Z</time>
      </trkpt>
      <trkpt lat="48.15908" lon="-3.32025">
        <ele>248.3</ele>
        <time>2024-11-20T15:15:28Z</time>
      </trkpt>
      <trkpt lat="48.15907" lon="-3.32025">
        <ele>248.3</ele>
        <time>2024-11-20T15:15:29Z</time>
      </trkpt>
      <trkpt lat="48.15907" lon="-3.32024">
        <ele>248.4</ele>
        <time>2024-11-20T15:15:30Z</time>
      </trkpt>
      <trkpt lat="48.15906" lon="-3.32023">
        <ele>248.6</ele>
        <time>2024-11-20T15:15:31Z</time>
      </trkpt>
      <trkpt lat="48.15905" lon="-3.32021">
        <ele>248.7</ele>
        <time>2024-11-20T15:15:32Z</time>
      </trkpt>
      <trkpt lat="48.15904" lon="-3.3202">
        <ele>248.8</ele>
        <time>2024-11-20T15:15:33Z</time>
      </trkpt>
      <trkpt lat="48.15904" lon="-3.32019">
        <ele>248.9</ele>
        <time>2024-11-20T15:15:34Z</time>
      </trkpt>
      <trkpt lat="48.15903" lon="-3.32018">
        <ele>249</ele>
        <time>2024-11-20T15:15:35Z</time>
      </trkpt>
      <trkpt lat="48.15903" lon="-3.32018">
        <ele>249.1</ele>
        <time>2024-11-20T15:15:36Z</time>
      </trkpt>
      <trkpt lat="48.15903" lon="-3.32017">
        <ele>249.2</ele>
        <time>2024-11-20T15:15:37Z</time>
      </trkpt>
      <trkpt lat="48.15903" lon="-3.32017">
        <ele>249.2</ele>
        <time>2024-11-20T15:15:38Z</time>
      </trkpt>
      <trkpt lat="48.15903" lon="-3.32016">
        <ele>249.3</ele>
        <time>2024-11-20T15:15:39Z</time>
      </trkpt>
      <trkpt lat="48.15902" lon="-3.32015">
        <ele>249.4</ele>
        <time>2024-11-20T15:15:40Z</time>
      </trkpt>
      <trkpt lat="48.15901" lon="-3.32013">
        <ele>249.6</ele>
        <time>2024-11-20T15:15:41Z</time>
      </trkpt>
      <trkpt lat="48.159" lon="-3.32012">
        <ele>249.7</ele>
        <time>2024-11-20T15:15:42Z</time>
      </trkpt>
      <trkpt lat="48.15899" lon="-3.3201">
        <ele>249.9</ele>
        <time>2024-11-20T15:15:43Z</time>
      </trkpt>
      <trkpt lat="48.15898" lon="-3.3201">
        <ele>250</ele>
        <time>2024-11-20T15:15:44Z</time>
      </trkpt>
      <trkpt lat="48.15897" lon="-3.32009">
        <ele>250.1</ele>
        <time>2024-11-20T15:15:45Z</time>
      </trkpt>
      <trkpt lat="48.15897" lon="-3.32008">
        <ele>250.2</ele>
        <time>2024-11-20T15:15:46Z</time>
      </trkpt>
      <trkpt lat="48.15896" lon="-3.32007">
        <ele>250.3</ele>
        <time>2024-11-20T15:15:47Z</time>
      </trkpt>
      <trkpt lat="48.15894" lon="-3.32006">
        <ele>250.4</ele>
        <time>2024-11-20T15:15:48Z</time>
      </trkpt>
      <trkpt lat="48.15894" lon="-3.32004">
        <ele>250.5</ele>
        <time>2024-11-20T15:15:49Z</time>
      </trkpt>
      <trkpt lat="48.15893" lon="-3.32003">
        <ele>250.7</ele>
        <time>2024-11-20T15:15:50Z</time>
      </trkpt>
      <trkpt lat="48.15892" lon="-3.32001">
        <ele>250.9</ele>
        <time>2024-11-20T15:15:51Z</time>
      </trkpt>
      <trkpt lat="48.15891" lon="-3.31999">
        <ele>251.1</ele>
        <time>2024-11-20T15:15:52Z</time>
      </trkpt>
      <trkpt lat="48.15891" lon="-3.31998">
        <ele>251.2</ele>
        <time>2024-11-20T15:15:53Z</time>
      </trkpt>
      <trkpt lat="48.15891" lon="-3.31997">
        <ele>251.2</ele>
        <time>2024-11-20T15:15:54Z</time>
      </trkpt>
      <trkpt lat="48.15891" lon="-3.31996">
        <ele>251.3</ele>
        <time>2024-11-20T15:15:55Z</time>
      </trkpt>
      <trkpt lat="48.15891" lon="-3.31996">
        <ele>251.3</ele>
        <time>2024-11-20T15:15:56Z</time>
      </trkpt>
      <trkpt lat="48.1589" lon="-3.31995">
        <ele>251.3</ele>
        <time>2024-11-20T15:15:57Z</time>
      </trkpt>
      <trkpt lat="48.15889" lon="-3.31995">
        <ele>251.4</ele>
        <time>2024-11-20T15:15:58Z</time>
      </trkpt>
      <trkpt lat="48.15888" lon="-3.31994">
        <ele>251.5</ele>
        <time>2024-11-20T15:15:59Z</time>
      </trkpt>
      <trkpt lat="48.15887" lon="-3.31993">
        <ele>251.5</ele>
        <time>2024-11-20T15:16:00Z</time>
      </trkpt>
      <trkpt lat="48.15887" lon="-3.31991">
        <ele>251.6</ele>
        <time>2024-11-20T15:16:01Z</time>
      </trkpt>
      <trkpt lat="48.15885" lon="-3.31989">
        <ele>251.8</ele>
        <time>2024-11-20T15:16:02Z</time>
      </trkpt>
      <trkpt lat="48.15884" lon="-3.31987">
        <ele>252</ele>
        <time>2024-11-20T15:16:03Z</time>
      </trkpt>
      <trkpt lat="48.15883" lon="-3.31985">
        <ele>252.1</ele>
        <time>2024-11-20T15:16:04Z</time>
      </trkpt>
      <trkpt lat="48.15882" lon="-3.31984">
        <ele>252.2</ele>
        <time>2024-11-20T15:16:05Z</time>
      </trkpt>
      <trkpt lat="48.15881" lon="-3.31983">
        <ele>252.3</ele>
        <time>2024-11-20T15:16:06Z</time>
      </trkpt>
      <trkpt lat="48.1588" lon="-3.31981">
        <ele>252.4</ele>
        <time>2024-11-20T15:16:07Z</time>
      </trkpt>
      <trkpt lat="48.15879" lon="-3.31979">
        <ele>252.5</ele>
        <time>2024-11-20T15:16:08Z</time>
      </trkpt>
      <trkpt lat="48.15877" lon="-3.31978">
        <ele>252.6</ele>
        <time>2024-11-20T15:16:09Z</time>
      </trkpt>
      <trkpt lat="48.15876" lon="-3.31977">
        <ele>252.7</ele>
        <time>2024-11-20T15:16:10Z</time>
      </trkpt>
      <trkpt lat="48.15875" lon="-3.31975">
        <ele>252.8</ele>
        <time>2024-11-20T15:16:11Z</time>
      </trkpt>
      <trkpt lat="48.15874" lon="-3.31974">
        <ele>252.9</ele>
        <time>2024-11-20T15:16:12Z</time>
      </trkpt>
      <trkpt lat="48.15874" lon="-3.31972">
        <ele>253</ele>
        <time>2024-11-20T15:16:13Z</time>
      </trkpt>
      <trkpt lat="48.15873" lon="-3.31971">
        <ele>253.1</ele>
        <time>2024-11-20T15:16:14Z</time>
      </trkpt>
      <trkpt lat="48.15872" lon="-3.3197">
        <ele>253.2</ele>
        <time>2024-11-20T15:16:15Z</time>
      </trkpt>
      <trkpt lat="48.15871" lon="-3.31969">
        <ele>253.3</ele>
        <time>2024-11-20T15:16:16Z</time>
      </trkpt>
      <trkpt lat="48.1587" lon="-3.31968">
        <ele>253.4</ele>
        <time>2024-11-20T15:16:17Z</time>
      </trkpt>
      <trkpt lat="48.15869" lon="-3.31967">
        <ele>253.6</ele>
        <time>2024-11-20T15:16:18Z</time>
      </trkpt>
      <trkpt lat="48.15869" lon="-3.31966">
        <ele>253.7</ele>
        <time>2024-11-20T15:16:19Z</time>
      </trkpt>
      <trkpt lat="48.15868" lon="-3.31965">
        <ele>253.8</ele>
        <time>2024-11-20T15:16:20Z</time>
      </trkpt>
      <trkpt lat="48.15867" lon="-3.31964">
        <ele>253.9</ele>
        <time>2024-11-20T15:16:21Z</time>
      </trkpt>
      <trkpt lat="48.15866" lon="-3.31963">
        <ele>254</ele>
        <time>2024-11-20T15:16:22Z</time>
      </trkpt>
      <trkpt lat="48.15865" lon="-3.31962">
        <ele>254.1</ele>
        <time>2024-11-20T15:16:23Z</time>
      </trkpt>
      <trkpt lat="48.15864" lon="-3.31961">
        <ele>254.2</ele>
        <time>2024-11-20T15:16:24Z</time>
      </trkpt>
      <trkpt lat="48.15863" lon="-3.3196">
        <ele>254.3</ele>
        <time>2024-11-20T15:16:25Z</time>
      </trkpt>
      <trkpt lat="48.15862" lon="-3.31959">
        <ele>254.4</ele>
        <time>2024-11-20T15:16:26Z</time>
      </trkpt>
      <trkpt lat="48.15861" lon="-3.31958">
        <ele>254.5</ele>
        <time>2024-11-20T15:16:27Z</time>
      </trkpt>
      <trkpt lat="48.1586" lon="-3.31958">
        <ele>254.6</ele>
        <time>2024-11-20T15:16:28Z</time>
      </trkpt>
      <trkpt lat="48.15859" lon="-3.31957">
        <ele>254.7</ele>
        <time>2024-11-20T15:16:29Z</time>
      </trkpt>
      <trkpt lat="48.15859" lon="-3.31956">
        <ele>254.8</ele>
        <time>2024-11-20T15:16:30Z</time>
      </trkpt>
      <trkpt lat="48.15858" lon="-3.31955">
        <ele>254.8</ele>
        <time>2024-11-20T15:16:31Z</time>
      </trkpt>
      <trkpt lat="48.15857" lon="-3.31954">
        <ele>254.9</ele>
        <time>2024-11-20T15:16:32Z</time>
      </trkpt>
      <trkpt lat="48.15856" lon="-3.31954">
        <ele>255</ele>
        <time>2024-11-20T15:16:33Z</time>
      </trkpt>
      <trkpt lat="48.15856" lon="-3.31952">
        <ele>255.2</ele>
        <time>2024-11-20T15:16:34Z</time>
      </trkpt>
      <trkpt lat="48.15855" lon="-3.31951">
        <ele>255.3</ele>
        <time>2024-11-20T15:16:35Z</time>
      </trkpt>
      <trkpt lat="48.15855" lon="-3.31951">
        <ele>255.3</ele>
        <time>2024-11-20T15:16:36Z</time>
      </trkpt>
      <trkpt lat="48.15854" lon="-3.3195">
        <ele>255.4</ele>
        <time>2024-11-20T15:16:37Z</time>
      </trkpt>
      <trkpt lat="48.15853" lon="-3.3195">
        <ele>255.5</ele>
        <time>2024-11-20T15:16:38Z</time>
      </trkpt>
      <trkpt lat="48.15852" lon="-3.31949">
        <ele>255.5</ele>
        <time>2024-11-20T15:16:39Z</time>
      </trkpt>
      <trkpt lat="48.15852" lon="-3.31948">
        <ele>255.6</ele>
        <time>2024-11-20T15:16:40Z</time>
      </trkpt>
      <trkpt lat="48.15851" lon="-3.31947">
        <ele>255.7</ele>
        <time>2024-11-20T15:16:41Z</time>
      </trkpt>
      <trkpt lat="48.1585" lon="-3.31946">
        <ele>255.9</ele>
        <time>2024-11-20T15:16:42Z</time>
      </trkpt>
      <trkpt lat="48.15849" lon="-3.31945">
        <ele>256</ele>
        <time>2024-11-20T15:16:43Z</time>
      </trkpt>
      <trkpt lat="48.15848" lon="-3.31944">
        <ele>256.1</ele>
        <time>2024-11-20T15:16:44Z</time>
      </trkpt>
      <trkpt lat="48.15847" lon="-3.31942">
        <ele>256.2</ele>
        <time>2024-11-20T15:16:45Z</time>
      </trkpt>
      <trkpt lat="48.15847" lon="-3.31941">
        <ele>256.2</ele>
        <time>2024-11-20T15:16:46Z</time>
      </trkpt>
      <trkpt lat="48.15846" lon="-3.3194">
        <ele>256.3</ele>
        <time>2024-11-20T15:16:47Z</time>
      </trkpt>
      <trkpt lat="48.15845" lon="-3.31939">
        <ele>256.4</ele>
        <time>2024-11-20T15:16:48Z</time>
      </trkpt>
      <trkpt lat="48.15844" lon="-3.31938">
        <ele>256.5</ele>
        <time>2024-11-20T15:16:49Z</time>
      </trkpt>
      <trkpt lat="48.15843" lon="-3.31937">
        <ele>256.5</ele>
        <time>2024-11-20T15:16:50Z</time>
      </trkpt>
      <trkpt lat="48.15843" lon="-3.31937">
        <ele>256.6</ele>
        <time>2024-11-20T15:16:51Z</time>
      </trkpt>
      <trkpt lat="48.15842" lon="-3.31936">
        <ele>256.6</ele>
        <time>2024-11-20T15:16:52Z</time>
      </trkpt>
      <trkpt lat="48.15841" lon="-3.31935">
        <ele>256.7</ele>
        <time>2024-11-20T15:16:53Z</time>
      </trkpt>
      <trkpt lat="48.1584" lon="-3.31935">
        <ele>256.7</ele>
        <time>2024-11-20T15:16:54Z</time>
      </trkpt>
      <trkpt lat="48.15839" lon="-3.31934">
        <ele>256.8</ele>
        <time>2024-11-20T15:16:55Z</time>
      </trkpt>
      <trkpt lat="48.15838" lon="-3.31932">
        <ele>256.9</ele>
        <time>2024-11-20T15:16:56Z</time>
      </trkpt>
      <trkpt lat="48.15838" lon="-3.31931">
        <ele>256.9</ele>
        <time>2024-11-20T15:16:57Z</time>
      </trkpt>
      <trkpt lat="48.15837" lon="-3.31931">
        <ele>257</ele>
        <time>2024-11-20T15:16:58Z</time>
      </trkpt>
      <trkpt lat="48.15836" lon="-3.3193">
        <ele>257</ele>
        <time>2024-11-20T15:16:59Z</time>
      </trkpt>
      <trkpt lat="48.15836" lon="-3.3193">
        <ele>257.1</ele>
        <time>2024-11-20T15:17:00Z</time>
      </trkpt>
      <trkpt lat="48.15835" lon="-3.31929">
        <ele>257.1</ele>
        <time>2024-11-20T15:17:01Z</time>
      </trkpt>
      <trkpt lat="48.15835" lon="-3.31929">
        <ele>257.1</ele>
        <time>2024-11-20T15:17:02Z</time>
      </trkpt>
      <trkpt lat="48.15834" lon="-3.31928">
        <ele>257.2</ele>
        <time>2024-11-20T15:17:03Z</time>
      </trkpt>
      <trkpt lat="48.15833" lon="-3.31927">
        <ele>257.3</ele>
        <time>2024-11-20T15:17:04Z</time>
      </trkpt>
      <trkpt lat="48.15832" lon="-3.31926">
        <ele>257.4</ele>
        <time>2024-11-20T15:17:05Z</time>
      </trkpt>
      <trkpt lat="48.15832" lon="-3.31925">
        <ele>257.5</ele>
        <time>2024-11-20T15:17:06Z</time>
      </trkpt>
      <trkpt lat="48.15831" lon="-3.31924">
        <ele>257.6</ele>
        <time>2024-11-20T15:17:07Z</time>
      </trkpt>
      <trkpt lat="48.1583" lon="-3.31923">
        <ele>257.7</ele>
        <time>2024-11-20T15:17:08Z</time>
      </trkpt>
      <trkpt lat="48.1583" lon="-3.31922">
        <ele>257.8</ele>
        <time>2024-11-20T15:17:09Z</time>
      </trkpt>
      <trkpt lat="48.15829" lon="-3.31921">
        <ele>257.9</ele>
        <time>2024-11-20T15:17:10Z</time>
      </trkpt>
      <trkpt lat="48.15828" lon="-3.3192">
        <ele>258</ele>
        <time>2024-11-20T15:17:11Z</time>
      </trkpt>
      <trkpt lat="48.15828" lon="-3.31919">
        <ele>258</ele>
        <time>2024-11-20T15:17:12Z</time>
      </trkpt>
      <trkpt lat="48.15827" lon="-3.31918">
        <ele>258.1</ele>
        <time>2024-11-20T15:17:13Z</time>
      </trkpt>
      <trkpt lat="48.15826" lon="-3.31918">
        <ele>258.2</ele>
        <time>2024-11-20T15:17:14Z</time>
      </trkpt>
      <trkpt lat="48.15825" lon="-3.31917">
        <ele>258.3</ele>
        <time>2024-11-20T15:17:15Z</time>
      </trkpt>
      <trkpt lat="48.15824" lon="-3.31916">
        <ele>258.3</ele>
        <time>2024-11-20T15:17:16Z</time>
      </trkpt>
      <trkpt lat="48.15824" lon="-3.31916">
        <ele>258.4</ele>
        <time>2024-11-20T15:17:17Z</time>
      </trkpt>
      <trkpt lat="48.15823" lon="-3.31915">
        <ele>258.5</ele>
        <time>2024-11-20T15:17:18Z</time>
      </trkpt>
      <trkpt lat="48.15822" lon="-3.31914">
        <ele>258.6</ele>
        <time>2024-11-20T15:17:19Z</time>
      </trkpt>
      <trkpt lat="48.15821" lon="-3.31913">
        <ele>258.7</ele>
        <time>2024-11-20T15:17:20Z</time>
      </trkpt>
      <trkpt lat="48.15821" lon="-3.31912">
        <ele>258.8</ele>
        <time>2024-11-20T15:17:21Z</time>
      </trkpt>
      <trkpt lat="48.1582" lon="-3.31911">
        <ele>258.9</ele>
        <time>2024-11-20T15:17:22Z</time>
      </trkpt>
      <trkpt lat="48.15819" lon="-3.3191">
        <ele>259</ele>
        <time>2024-11-20T15:17:23Z</time>
      </trkpt>
      <trkpt lat="48.15818" lon="-3.3191">
        <ele>259.1</ele>
        <time>2024-11-20T15:17:24Z</time>
      </trkpt>
      <trkpt lat="48.15817" lon="-3.31909">
        <ele>259.2</ele>
        <time>2024-11-20T15:17:25Z</time>
      </trkpt>
      <trkpt lat="48.15816" lon="-3.31908">
        <ele>259.3</ele>
        <time>2024-11-20T15:17:26Z</time>
      </trkpt>
      <trkpt lat="48.15815" lon="-3.31907">
        <ele>259.4</ele>
        <time>2024-11-20T15:17:27Z</time>
      </trkpt>
      <trkpt lat="48.15814" lon="-3.31906">
        <ele>259.5</ele>
        <time>2024-11-20T15:17:28Z</time>
      </trkpt>
      <trkpt lat="48.15813" lon="-3.31905">
        <ele>259.6</ele>
        <time>2024-11-20T15:17:29Z</time>
      </trkpt>
      <trkpt lat="48.15813" lon="-3.31904">
        <ele>259.7</ele>
        <time>2024-11-20T15:17:30Z</time>
      </trkpt>
      <trkpt lat="48.15812" lon="-3.31903">
        <ele>259.8</ele>
        <time>2024-11-20T15:17:31Z</time>
      </trkpt>
      <trkpt lat="48.15811" lon="-3.31902">
        <ele>259.9</ele>
        <time>2024-11-20T15:17:32Z</time>
      </trkpt>
      <trkpt lat="48.1581" lon="-3.31901">
        <ele>260</ele>
        <time>2024-11-20T15:17:33Z</time>
      </trkpt>
      <trkpt lat="48.15809" lon="-3.31899">
        <ele>260.1</ele>
        <time>2024-11-20T15:17:34Z</time>
      </trkpt>
      <trkpt lat="48.15808" lon="-3.31898">
        <ele>260.3</ele>
        <time>2024-11-20T15:17:35Z</time>
      </trkpt>
      <trkpt lat="48.15807" lon="-3.31897">
        <ele>260.4</ele>
        <time>2024-11-20T15:17:36Z</time>
      </trkpt>
      <trkpt lat="48.15805" lon="-3.31895">
        <ele>260.5</ele>
        <time>2024-11-20T15:17:37Z</time>
      </trkpt>
      <trkpt lat="48.15804" lon="-3.31895">
        <ele>260.6</ele>
        <time>2024-11-20T15:17:38Z</time>
      </trkpt>
      <trkpt lat="48.15804" lon="-3.31894">
        <ele>260.7</ele>
        <time>2024-11-20T15:17:39Z</time>
      </trkpt>
      <trkpt lat="48.15803" lon="-3.31893">
        <ele>260.8</ele>
        <time>2024-11-20T15:17:40Z</time>
      </trkpt>
      <trkpt lat="48.15802" lon="-3.31892">
        <ele>260.9</ele>
        <time>2024-11-20T15:17:41Z</time>
      </trkpt>
      <trkpt lat="48.15801" lon="-3.31891">
        <ele>261</ele>
        <time>2024-11-20T15:17:42Z</time>
      </trkpt>
      <trkpt lat="48.158" lon="-3.3189">
        <ele>261.2</ele>
        <time>2024-11-20T15:17:43Z</time>
      </trkpt>
      <trkpt lat="48.158" lon="-3.31889">
        <ele>261.2</ele>
        <time>2024-11-20T15:17:44Z</time>
      </trkpt>
      <trkpt lat="48.15799" lon="-3.31888">
        <ele>261.3</ele>
        <time>2024-11-20T15:17:45Z</time>
      </trkpt>
      <trkpt lat="48.15798" lon="-3.31887">
        <ele>261.4</ele>
        <time>2024-11-20T15:17:46Z</time>
      </trkpt>
      <trkpt lat="48.15797" lon="-3.31886">
        <ele>261.5</ele>
        <time>2024-11-20T15:17:47Z</time>
      </trkpt>
      <trkpt lat="48.15796" lon="-3.31885">
        <ele>261.6</ele>
        <time>2024-11-20T15:17:48Z</time>
      </trkpt>
      <trkpt lat="48.15796" lon="-3.31883">
        <ele>261.8</ele>
        <time>2024-11-20T15:17:49Z</time>
      </trkpt>
      <trkpt lat="48.15795" lon="-3.31882">
        <ele>261.8</ele>
        <time>2024-11-20T15:17:50Z</time>
      </trkpt>
      <trkpt lat="48.15795" lon="-3.31882">
        <ele>261.9</ele>
        <time>2024-11-20T15:17:51Z</time>
      </trkpt>
      <trkpt lat="48.15794" lon="-3.31881">
        <ele>262</ele>
        <time>2024-11-20T15:17:52Z</time>
      </trkpt>
      <trkpt lat="48.15794" lon="-3.31881">
        <ele>262</ele>
        <time>2024-11-20T15:17:53Z</time>
      </trkpt>
      <trkpt lat="48.15793" lon="-3.3188">
        <ele>262.1</ele>
        <time>2024-11-20T15:17:54Z</time>
      </trkpt>
      <trkpt lat="48.15792" lon="-3.31879">
        <ele>262.2</ele>
        <time>2024-11-20T15:17:55Z</time>
      </trkpt>
      <trkpt lat="48.15791" lon="-3.31878">
        <ele>262.3</ele>
        <time>2024-11-20T15:17:56Z</time>
      </trkpt>
      <trkpt lat="48.1579" lon="-3.31876">
        <ele>262.5</ele>
        <time>2024-11-20T15:17:57Z</time>
      </trkpt>
      <trkpt lat="48.1579" lon="-3.31875">
        <ele>262.6</ele>
        <time>2024-11-20T15:17:58Z</time>
      </trkpt>
      <trkpt lat="48.15789" lon="-3.31874">
        <ele>262.7</ele>
        <time>2024-11-20T15:17:59Z</time>
      </trkpt>
      <trkpt lat="48.15788" lon="-3.31873">
        <ele>262.8</ele>
        <time>2024-11-20T15:18:00Z</time>
      </trkpt>
      <trkpt lat="48.15788" lon="-3.31872">
        <ele>262.9</ele>
        <time>2024-11-20T15:18:01Z</time>
      </trkpt>
      <trkpt lat="48.15787" lon="-3.31871">
        <ele>263</ele>
        <time>2024-11-20T15:18:02Z</time>
      </trkpt>
      <trkpt lat="48.15786" lon="-3.3187">
        <ele>263.1</ele>
        <time>2024-11-20T15:18:03Z</time>
      </trkpt>
      <trkpt lat="48.15785" lon="-3.31869">
        <ele>263.2</ele>
        <time>2024-11-20T15:18:04Z</time>
      </trkpt>
      <trkpt lat="48.15784" lon="-3.31868">
        <ele>263.3</ele>
        <time>2024-11-20T15:18:05Z</time>
      </trkpt>
      <trkpt lat="48.15784" lon="-3.31867">
        <ele>263.4</ele>
        <time>2024-11-20T15:18:06Z</time>
      </trkpt>
      <trkpt lat="48.15783" lon="-3.31866">
        <ele>263.5</ele>
        <time>2024-11-20T15:18:07Z</time>
      </trkpt>
      <trkpt lat="48.15782" lon="-3.31865">
        <ele>263.6</ele>
        <time>2024-11-20T15:18:08Z</time>
      </trkpt>
      <trkpt lat="48.15781" lon="-3.31864">
        <ele>263.7</ele>
        <time>2024-11-20T15:18:09Z</time>
      </trkpt>
      <trkpt lat="48.1578" lon="-3.31863">
        <ele>263.8</ele>
        <time>2024-11-20T15:18:10Z</time>
      </trkpt>
      <trkpt lat="48.1578" lon="-3.31861">
        <ele>263.9</ele>
        <time>2024-11-20T15:18:11Z</time>
      </trkpt>
      <trkpt lat="48.15779" lon="-3.3186">
        <ele>264</ele>
        <time>2024-11-20T15:18:12Z</time>
      </trkpt>
      <trkpt lat="48.15778" lon="-3.3186">
        <ele>264.1</ele>
        <time>2024-11-20T15:18:13Z</time>
      </trkpt>
      <trkpt lat="48.15778" lon="-3.31859">
        <ele>264.1</ele>
        <time>2024-11-20T15:18:14Z</time>
      </trkpt>
      <trkpt lat="48.15777" lon="-3.31858">
        <ele>264.2</ele>
        <time>2024-11-20T15:18:15Z</time>
      </trkpt>
      <trkpt lat="48.15776" lon="-3.31857">
        <ele>264.4</ele>
        <time>2024-11-20T15:18:16Z</time>
      </trkpt>
      <trkpt lat="48.15775" lon="-3.31856">
        <ele>264.4</ele>
        <time>2024-11-20T15:18:17Z</time>
      </trkpt>
      <trkpt lat="48.15774" lon="-3.31856">
        <ele>264.5</ele>
        <time>2024-11-20T15:18:18Z</time>
      </trkpt>
      <trkpt lat="48.15774" lon="-3.31855">
        <ele>264.6</ele>
        <time>2024-11-20T15:18:19Z</time>
      </trkpt>
      <trkpt lat="48.15773" lon="-3.31855">
        <ele>264.6</ele>
        <time>2024-11-20T15:18:20Z</time>
      </trkpt>
      <trkpt lat="48.15772" lon="-3.31855">
        <ele>264.7</ele>
        <time>2024-11-20T15:18:21Z</time>
      </trkpt>
      <trkpt lat="48.15771" lon="-3.31854">
        <ele>264.8</ele>
        <time>2024-11-20T15:18:22Z</time>
      </trkpt>
      <trkpt lat="48.1577" lon="-3.31852">
        <ele>264.9</ele>
        <time>2024-11-20T15:18:23Z</time>
      </trkpt>
      <trkpt lat="48.1577" lon="-3.31852">
        <ele>265</ele>
        <time>2024-11-20T15:18:24Z</time>
      </trkpt>
      <trkpt lat="48.15769" lon="-3.31851">
        <ele>265.1</ele>
        <time>2024-11-20T15:18:25Z</time>
      </trkpt>
      <trkpt lat="48.15767" lon="-3.31849">
        <ele>265.2</ele>
        <time>2024-11-20T15:18:27Z</time>
      </trkpt>
      <trkpt lat="48.15766" lon="-3.31849">
        <ele>265.3</ele>
        <time>2024-11-20T15:18:28Z</time>
      </trkpt>
      <trkpt lat="48.15765" lon="-3.31848">
        <ele>265.4</ele>
        <time>2024-11-20T15:18:29Z</time>
      </trkpt>
      <trkpt lat="48.15764" lon="-3.31847">
        <ele>265.5</ele>
        <time>2024-11-20T15:18:30Z</time>
      </trkpt>
      <trkpt lat="48.15763" lon="-3.31845">
        <ele>265.7</ele>
        <time>2024-11-20T15:18:31Z</time>
      </trkpt>
      <trkpt lat="48.15762" lon="-3.31844">
        <ele>265.8</ele>
        <time>2024-11-20T15:18:32Z</time>
      </trkpt>
      <trkpt lat="48.15761" lon="-3.31843">
        <ele>265.9</ele>
        <time>2024-11-20T15:18:33Z</time>
      </trkpt>
      <trkpt lat="48.15761" lon="-3.31842">
        <ele>266</ele>
        <time>2024-11-20T15:18:34Z</time>
      </trkpt>
      <trkpt lat="48.1576" lon="-3.31841">
        <ele>266.1</ele>
        <time>2024-11-20T15:18:35Z</time>
      </trkpt>
      <trkpt lat="48.1576" lon="-3.3184">
        <ele>266.2</ele>
        <time>2024-11-20T15:18:36Z</time>
      </trkpt>
      <trkpt lat="48.15759" lon="-3.31839">
        <ele>266.3</ele>
        <time>2024-11-20T15:18:37Z</time>
      </trkpt>
      <trkpt lat="48.15758" lon="-3.31838">
        <ele>266.4</ele>
        <time>2024-11-20T15:18:38Z</time>
      </trkpt>
      <trkpt lat="48.15757" lon="-3.31837">
        <ele>266.5</ele>
        <time>2024-11-20T15:18:39Z</time>
      </trkpt>
      <trkpt lat="48.15756" lon="-3.31836">
        <ele>266.6</ele>
        <time>2024-11-20T15:18:40Z</time>
      </trkpt>
      <trkpt lat="48.15755" lon="-3.31835">
        <ele>266.7</ele>
        <time>2024-11-20T15:18:41Z</time>
      </trkpt>
      <trkpt lat="48.15754" lon="-3.31834">
        <ele>266.8</ele>
        <time>2024-11-20T15:18:42Z</time>
      </trkpt>
      <trkpt lat="48.15753" lon="-3.31833">
        <ele>266.9</ele>
        <time>2024-11-20T15:18:43Z</time>
      </trkpt>
      <trkpt lat="48.15753" lon="-3.31831">
        <ele>267</ele>
        <time>2024-11-20T15:18:44Z</time>
      </trkpt>
      <trkpt lat="48.15752" lon="-3.3183">
        <ele>267</ele>
        <time>2024-11-20T15:18:45Z</time>
      </trkpt>
      <trkpt lat="48.15752" lon="-3.31829">
        <ele>267.1</ele>
        <time>2024-11-20T15:18:46Z</time>
      </trkpt>
      <trkpt lat="48.15751" lon="-3.31828">
        <ele>267.1</ele>
        <time>2024-11-20T15:18:47Z</time>
      </trkpt>
      <trkpt lat="48.15751" lon="-3.31828">
        <ele>267.2</ele>
        <time>2024-11-20T15:18:48Z</time>
      </trkpt>
      <trkpt lat="48.1575" lon="-3.31827">
        <ele>267.2</ele>
        <time>2024-11-20T15:18:49Z</time>
      </trkpt>
      <trkpt lat="48.1575" lon="-3.31827">
        <ele>267.2</ele>
        <time>2024-11-20T15:18:50Z</time>
      </trkpt>
      <trkpt lat="48.15749" lon="-3.31827">
        <ele>267.3</ele>
        <time>2024-11-20T15:18:51Z</time>
      </trkpt>
      <trkpt lat="48.15749" lon="-3.31826">
        <ele>267.3</ele>
        <time>2024-11-20T15:18:52Z</time>
      </trkpt>
      <trkpt lat="48.15749" lon="-3.31826">
        <ele>267.3</ele>
        <time>2024-11-20T15:18:53Z</time>
      </trkpt>
      <trkpt lat="48.15748" lon="-3.31825">
        <ele>267.4</ele>
        <time>2024-11-20T15:18:54Z</time>
      </trkpt>
      <trkpt lat="48.15748" lon="-3.31825">
        <ele>267.4</ele>
        <time>2024-11-20T15:18:55Z</time>
      </trkpt>
      <trkpt lat="48.15747" lon="-3.31823">
        <ele>267.5</ele>
        <time>2024-11-20T15:18:56Z</time>
      </trkpt>
      <trkpt lat="48.15747" lon="-3.31822">
        <ele>267.5</ele>
        <time>2024-11-20T15:18:57Z</time>
      </trkpt>
      <trkpt lat="48.15747" lon="-3.31821">
        <ele>267.6</ele>
        <time>2024-11-20T15:18:58Z</time>
      </trkpt>
      <trkpt lat="48.15746" lon="-3.31821">
        <ele>267.6</ele>
        <time>2024-11-20T15:18:59Z</time>
      </trkpt>
      <trkpt lat="48.15745" lon="-3.31821">
        <ele>267.6</ele>
        <time>2024-11-20T15:19:00Z</time>
      </trkpt>
      <trkpt lat="48.15745" lon="-3.3182">
        <ele>267.7</ele>
        <time>2024-11-20T15:19:01Z</time>
      </trkpt>
      <trkpt lat="48.15744" lon="-3.3182">
        <ele>267.7</ele>
        <time>2024-11-20T15:19:02Z</time>
      </trkpt>
      <trkpt lat="48.15743" lon="-3.31819">
        <ele>267.8</ele>
        <time>2024-11-20T15:19:03Z</time>
      </trkpt>
      <trkpt lat="48.15742" lon="-3.31818">
        <ele>267.8</ele>
        <time>2024-11-20T15:19:04Z</time>
      </trkpt>
      <trkpt lat="48.15741" lon="-3.31817">
        <ele>267.9</ele>
        <time>2024-11-20T15:19:05Z</time>
      </trkpt>
      <trkpt lat="48.15741" lon="-3.31815">
        <ele>268</ele>
        <time>2024-11-20T15:19:06Z</time>
      </trkpt>
      <trkpt lat="48.1574" lon="-3.31815">
        <ele>268</ele>
        <time>2024-11-20T15:19:07Z</time>
      </trkpt>
      <trkpt lat="48.15739" lon="-3.31814">
        <ele>268.1</ele>
        <time>2024-11-20T15:19:08Z</time>
      </trkpt>
      <trkpt lat="48.15739" lon="-3.31813">
        <ele>268.1</ele>
        <time>2024-11-20T15:19:09Z</time>
      </trkpt>
      <trkpt lat="48.15738" lon="-3.31812">
        <ele>268.2</ele>
        <time>2024-11-20T15:19:10Z</time>
      </trkpt>
      <trkpt lat="48.15738" lon="-3.31812">
        <ele>268.2</ele>
        <time>2024-11-20T15:19:11Z</time>
      </trkpt>
      <trkpt lat="48.15737" lon="-3.31811">
        <ele>268.3</ele>
        <time>2024-11-20T15:19:12Z</time>
      </trkpt>
      <trkpt lat="48.15736" lon="-3.3181">
        <ele>268.3</ele>
        <time>2024-11-20T15:19:13Z</time>
      </trkpt>
      <trkpt lat="48.15735" lon="-3.3181">
        <ele>268.4</ele>
        <time>2024-11-20T15:19:14Z</time>
      </trkpt>
      <trkpt lat="48.15734" lon="-3.31809">
        <ele>268.5</ele>
        <time>2024-11-20T15:19:15Z</time>
      </trkpt>
      <trkpt lat="48.15734" lon="-3.31808">
        <ele>268.5</ele>
        <time>2024-11-20T15:19:16Z</time>
      </trkpt>
      <trkpt lat="48.15733" lon="-3.31807">
        <ele>268.6</ele>
        <time>2024-11-20T15:19:17Z</time>
      </trkpt>
      <trkpt lat="48.15732" lon="-3.31806">
        <ele>268.6</ele>
        <time>2024-11-20T15:19:18Z</time>
      </trkpt>
      <trkpt lat="48.15731" lon="-3.31805">
        <ele>268.7</ele>
        <time>2024-11-20T15:19:19Z</time>
      </trkpt>
      <trkpt lat="48.1573" lon="-3.31804">
        <ele>268.9</ele>
        <time>2024-11-20T15:19:20Z</time>
      </trkpt>
      <trkpt lat="48.15729" lon="-3.31803">
        <ele>269</ele>
        <time>2024-11-20T15:19:21Z</time>
      </trkpt>
      <trkpt lat="48.15728" lon="-3.31802">
        <ele>269.1</ele>
        <time>2024-11-20T15:19:22Z</time>
      </trkpt>
      <trkpt lat="48.15727" lon="-3.318">
        <ele>269.2</ele>
        <time>2024-11-20T15:19:23Z</time>
      </trkpt>
      <trkpt lat="48.15726" lon="-3.31799">
        <ele>269.3</ele>
        <time>2024-11-20T15:19:24Z</time>
      </trkpt>
      <trkpt lat="48.15725" lon="-3.31798">
        <ele>269.5</ele>
        <time>2024-11-20T15:19:25Z</time>
      </trkpt>
      <trkpt lat="48.15724" lon="-3.31797">
        <ele>269.6</ele>
        <time>2024-11-20T15:19:26Z</time>
      </trkpt>
      <trkpt lat="48.15722" lon="-3.31797">
        <ele>269.6</ele>
        <time>2024-11-20T15:19:27Z</time>
      </trkpt>
      <trkpt lat="48.15721" lon="-3.31796">
        <ele>269.7</ele>
        <time>2024-11-20T15:19:28Z</time>
      </trkpt>
      <trkpt lat="48.1572" lon="-3.31795">
        <ele>269.8</ele>
        <time>2024-11-20T15:19:29Z</time>
      </trkpt>
      <trkpt lat="48.15719" lon="-3.31794">
        <ele>270</ele>
        <time>2024-11-20T15:19:30Z</time>
      </trkpt>
      <trkpt lat="48.15717" lon="-3.31793">
        <ele>270.1</ele>
        <time>2024-11-20T15:19:31Z</time>
      </trkpt>
      <trkpt lat="48.15716" lon="-3.31793">
        <ele>270.2</ele>
        <time>2024-11-20T15:19:32Z</time>
      </trkpt>
      <trkpt lat="48.15715" lon="-3.31792">
        <ele>270.3</ele>
        <time>2024-11-20T15:19:33Z</time>
      </trkpt>
      <trkpt lat="48.15714" lon="-3.3179">
        <ele>270.4</ele>
        <time>2024-11-20T15:19:34Z</time>
      </trkpt>
      <trkpt lat="48.15712" lon="-3.31789">
        <ele>270.5</ele>
        <time>2024-11-20T15:19:35Z</time>
      </trkpt>
      <trkpt lat="48.15711" lon="-3.31788">
        <ele>270.7</ele>
        <time>2024-11-20T15:19:36Z</time>
      </trkpt>
      <trkpt lat="48.15709" lon="-3.31787">
        <ele>270.8</ele>
        <time>2024-11-20T15:19:37Z</time>
      </trkpt>
      <trkpt lat="48.15709" lon="-3.31786">
        <ele>270.9</ele>
        <time>2024-11-20T15:19:38Z</time>
      </trkpt>
      <trkpt lat="48.15708" lon="-3.31786">
        <ele>271</ele>
        <time>2024-11-20T15:19:39Z</time>
      </trkpt>
      <trkpt lat="48.15707" lon="-3.31785">
        <ele>271</ele>
        <time>2024-11-20T15:19:40Z</time>
      </trkpt>
      <trkpt lat="48.15706" lon="-3.31784">
        <ele>271.1</ele>
        <time>2024-11-20T15:19:41Z</time>
      </trkpt>
      <trkpt lat="48.15704" lon="-3.31784">
        <ele>271.2</ele>
        <time>2024-11-20T15:19:42Z</time>
      </trkpt>
      <trkpt lat="48.15703" lon="-3.31783">
        <ele>271.3</ele>
        <time>2024-11-20T15:19:43Z</time>
      </trkpt>
      <trkpt lat="48.15702" lon="-3.31782">
        <ele>271.4</ele>
        <time>2024-11-20T15:19:44Z</time>
      </trkpt>
      <trkpt lat="48.15702" lon="-3.31781">
        <ele>271.5</ele>
        <time>2024-11-20T15:19:45Z</time>
      </trkpt>
      <trkpt lat="48.15701" lon="-3.31781">
        <ele>271.6</ele>
        <time>2024-11-20T15:19:46Z</time>
      </trkpt>
      <trkpt lat="48.157" lon="-3.3178">
        <ele>271.7</ele>
        <time>2024-11-20T15:19:47Z</time>
      </trkpt>
      <trkpt lat="48.157" lon="-3.3178">
        <ele>271.7</ele>
        <time>2024-11-20T15:19:48Z</time>
      </trkpt>
      <trkpt lat="48.15699" lon="-3.31779">
        <ele>271.7</ele>
        <time>2024-11-20T15:19:49Z</time>
      </trkpt>
      <trkpt lat="48.15698" lon="-3.31779">
        <ele>271.8</ele>
        <time>2024-11-20T15:19:50Z</time>
      </trkpt>
      <trkpt lat="48.15697" lon="-3.31777">
        <ele>271.9</ele>
        <time>2024-11-20T15:19:51Z</time>
      </trkpt>
      <trkpt lat="48.15696" lon="-3.31776">
        <ele>272</ele>
        <time>2024-11-20T15:19:52Z</time>
      </trkpt>
      <trkpt lat="48.15695" lon="-3.31774">
        <ele>272.1</ele>
        <time>2024-11-20T15:19:53Z</time>
      </trkpt>
      <trkpt lat="48.15694" lon="-3.31773">
        <ele>272.2</ele>
        <time>2024-11-20T15:19:54Z</time>
      </trkpt>
      <trkpt lat="48.15693" lon="-3.31771">
        <ele>272.3</ele>
        <time>2024-11-20T15:19:55Z</time>
      </trkpt>
      <trkpt lat="48.15692" lon="-3.3177">
        <ele>272.4</ele>
        <time>2024-11-20T15:19:56Z</time>
      </trkpt>
      <trkpt lat="48.15691" lon="-3.31769">
        <ele>272.5</ele>
        <time>2024-11-20T15:19:57Z</time>
      </trkpt>
      <trkpt lat="48.1569" lon="-3.31768">
        <ele>272.5</ele>
        <time>2024-11-20T15:19:58Z</time>
      </trkpt>
      <trkpt lat="48.15689" lon="-3.31767">
        <ele>272.6</ele>
        <time>2024-11-20T15:19:59Z</time>
      </trkpt>
      <trkpt lat="48.15688" lon="-3.31766">
        <ele>272.7</ele>
        <time>2024-11-20T15:20:00Z</time>
      </trkpt>
      <trkpt lat="48.15686" lon="-3.31765">
        <ele>272.8</ele>
        <time>2024-11-20T15:20:01Z</time>
      </trkpt>
      <trkpt lat="48.15685" lon="-3.31763">
        <ele>272.9</ele>
        <time>2024-11-20T15:20:02Z</time>
      </trkpt>
      <trkpt lat="48.15684" lon="-3.31762">
        <ele>272.9</ele>
        <time>2024-11-20T15:20:03Z</time>
      </trkpt>
      <trkpt lat="48.15683" lon="-3.31762">
        <ele>273</ele>
        <time>2024-11-20T15:20:04Z</time>
      </trkpt>
      <trkpt lat="48.15683" lon="-3.31761">
        <ele>273</ele>
        <time>2024-11-20T15:20:05Z</time>
      </trkpt>
      <trkpt lat="48.15682" lon="-3.3176">
        <ele>273.1</ele>
        <time>2024-11-20T15:20:06Z</time>
      </trkpt>
      <trkpt lat="48.15681" lon="-3.31759">
        <ele>273.1</ele>
        <time>2024-11-20T15:20:07Z</time>
      </trkpt>
      <trkpt lat="48.1568" lon="-3.31759">
        <ele>273.2</ele>
        <time>2024-11-20T15:20:08Z</time>
      </trkpt>
      <trkpt lat="48.15679" lon="-3.31759">
        <ele>273.2</ele>
        <time>2024-11-20T15:20:09Z</time>
      </trkpt>
      <trkpt lat="48.15678" lon="-3.31758">
        <ele>273.3</ele>
        <time>2024-11-20T15:20:10Z</time>
      </trkpt>
      <trkpt lat="48.15678" lon="-3.31759">
        <ele>273.3</ele>
        <time>2024-11-20T15:20:11Z</time>
      </trkpt>
      <trkpt lat="48.15678" lon="-3.31758">
        <ele>273.3</ele>
        <time>2024-11-20T15:20:12Z</time>
      </trkpt>
      <trkpt lat="48.15677" lon="-3.31758">
        <ele>273.4</ele>
        <time>2024-11-20T15:20:13Z</time>
      </trkpt>
      <trkpt lat="48.15675" lon="-3.31756">
        <ele>273.5</ele>
        <time>2024-11-20T15:20:14Z</time>
      </trkpt>
      <trkpt lat="48.15674" lon="-3.31755">
        <ele>273.6</ele>
        <time>2024-11-20T15:20:15Z</time>
      </trkpt>
      <trkpt lat="48.15673" lon="-3.31753">
        <ele>273.6</ele>
        <time>2024-11-20T15:20:16Z</time>
      </trkpt>
      <trkpt lat="48.15673" lon="-3.31752">
        <ele>273.7</ele>
        <time>2024-11-20T15:20:17Z</time>
      </trkpt>
      <trkpt lat="48.15671" lon="-3.31751">
        <ele>273.8</ele>
        <time>2024-11-20T15:20:18Z</time>
      </trkpt>
      <trkpt lat="48.1567" lon="-3.31749">
        <ele>273.9</ele>
        <time>2024-11-20T15:20:19Z</time>
      </trkpt>
      <trkpt lat="48.15669" lon="-3.31748">
        <ele>274</ele>
        <time>2024-11-20T15:20:20Z</time>
      </trkpt>
      <trkpt lat="48.15668" lon="-3.31746">
        <ele>274.1</ele>
        <time>2024-11-20T15:20:21Z</time>
      </trkpt>
      <trkpt lat="48.15667" lon="-3.31745">
        <ele>274.2</ele>
        <time>2024-11-20T15:20:22Z</time>
      </trkpt>
      <trkpt lat="48.15666" lon="-3.31743">
        <ele>274.3</ele>
        <time>2024-11-20T15:20:23Z</time>
      </trkpt>
      <trkpt lat="48.15665" lon="-3.31742">
        <ele>274.3</ele>
        <time>2024-11-20T15:20:24Z</time>
      </trkpt>
      <trkpt lat="48.15664" lon="-3.31742">
        <ele>274.4</ele>
        <time>2024-11-20T15:20:25Z</time>
      </trkpt>
      <trkpt lat="48.15664" lon="-3.31741">
        <ele>274.4</ele>
        <time>2024-11-20T15:20:26Z</time>
      </trkpt>
      <trkpt lat="48.15663" lon="-3.3174">
        <ele>274.5</ele>
        <time>2024-11-20T15:20:27Z</time>
      </trkpt>
      <trkpt lat="48.15662" lon="-3.31739">
        <ele>274.6</ele>
        <time>2024-11-20T15:20:28Z</time>
      </trkpt>
      <trkpt lat="48.15661" lon="-3.31738">
        <ele>274.6</ele>
        <time>2024-11-20T15:20:29Z</time>
      </trkpt>
      <trkpt lat="48.1566" lon="-3.31737">
        <ele>274.7</ele>
        <time>2024-11-20T15:20:30Z</time>
      </trkpt>
      <trkpt lat="48.15659" lon="-3.31736">
        <ele>274.8</ele>
        <time>2024-11-20T15:20:31Z</time>
      </trkpt>
      <trkpt lat="48.15658" lon="-3.31735">
        <ele>274.9</ele>
        <time>2024-11-20T15:20:32Z</time>
      </trkpt>
      <trkpt lat="48.15657" lon="-3.31733">
        <ele>275</ele>
        <time>2024-11-20T15:20:33Z</time>
      </trkpt>
      <trkpt lat="48.15656" lon="-3.31732">
        <ele>275</ele>
        <time>2024-11-20T15:20:34Z</time>
      </trkpt>
      <trkpt lat="48.15655" lon="-3.31731">
        <ele>275.1</ele>
        <time>2024-11-20T15:20:35Z</time>
      </trkpt>
      <trkpt lat="48.15654" lon="-3.3173">
        <ele>275.2</ele>
        <time>2024-11-20T15:20:36Z</time>
      </trkpt>
      <trkpt lat="48.15654" lon="-3.31729">
        <ele>275.2</ele>
        <time>2024-11-20T15:20:37Z</time>
      </trkpt>
      <trkpt lat="48.15653" lon="-3.31729">
        <ele>275.3</ele>
        <time>2024-11-20T15:20:38Z</time>
      </trkpt>
      <trkpt lat="48.15652" lon="-3.31728">
        <ele>275.3</ele>
        <time>2024-11-20T15:20:39Z</time>
      </trkpt>
      <trkpt lat="48.15652" lon="-3.31727">
        <ele>275.4</ele>
        <time>2024-11-20T15:20:40Z</time>
      </trkpt>
      <trkpt lat="48.15651" lon="-3.31726">
        <ele>275.4</ele>
        <time>2024-11-20T15:20:41Z</time>
      </trkpt>
      <trkpt lat="48.15651" lon="-3.31726">
        <ele>275.5</ele>
        <time>2024-11-20T15:20:42Z</time>
      </trkpt>
      <trkpt lat="48.1565" lon="-3.31725">
        <ele>275.5</ele>
        <time>2024-11-20T15:20:43Z</time>
      </trkpt>
      <trkpt lat="48.1565" lon="-3.31724">
        <ele>275.6</ele>
        <time>2024-11-20T15:20:44Z</time>
      </trkpt>
      <trkpt lat="48.15649" lon="-3.31723">
        <ele>275.6</ele>
        <time>2024-11-20T15:20:45Z</time>
      </trkpt>
      <trkpt lat="48.15648" lon="-3.31723">
        <ele>275.6</ele>
        <time>2024-11-20T15:20:46Z</time>
      </trkpt>
      <trkpt lat="48.15647" lon="-3.31722">
        <ele>275.7</ele>
        <time>2024-11-20T15:20:47Z</time>
      </trkpt>
      <trkpt lat="48.15647" lon="-3.31721">
        <ele>275.8</ele>
        <time>2024-11-20T15:20:48Z</time>
      </trkpt>
      <trkpt lat="48.15646" lon="-3.3172">
        <ele>275.8</ele>
        <time>2024-11-20T15:20:49Z</time>
      </trkpt>
      <trkpt lat="48.15645" lon="-3.31718">
        <ele>275.9</ele>
        <time>2024-11-20T15:20:50Z</time>
      </trkpt>
      <trkpt lat="48.15643" lon="-3.31717">
        <ele>276</ele>
        <time>2024-11-20T15:20:51Z</time>
      </trkpt>
      <trkpt lat="48.15642" lon="-3.31716">
        <ele>276.1</ele>
        <time>2024-11-20T15:20:52Z</time>
      </trkpt>
      <trkpt lat="48.15641" lon="-3.31715">
        <ele>276.2</ele>
        <time>2024-11-20T15:20:53Z</time>
      </trkpt>
      <trkpt lat="48.1564" lon="-3.31714">
        <ele>276.2</ele>
        <time>2024-11-20T15:20:54Z</time>
      </trkpt>
      <trkpt lat="48.1564" lon="-3.31714">
        <ele>276.3</ele>
        <time>2024-11-20T15:20:55Z</time>
      </trkpt>
      <trkpt lat="48.15639" lon="-3.31712">
        <ele>276.4</ele>
        <time>2024-11-20T15:20:56Z</time>
      </trkpt>
      <trkpt lat="48.15638" lon="-3.31711">
        <ele>276.4</ele>
        <time>2024-11-20T15:20:57Z</time>
      </trkpt>
      <trkpt lat="48.15637" lon="-3.3171">
        <ele>276.4</ele>
        <time>2024-11-20T15:20:58Z</time>
      </trkpt>
      <trkpt lat="48.15636" lon="-3.31708">
        <ele>276.5</ele>
        <time>2024-11-20T15:20:59Z</time>
      </trkpt>
      <trkpt lat="48.15635" lon="-3.31707">
        <ele>276.5</ele>
        <time>2024-11-20T15:21:00Z</time>
      </trkpt>
      <trkpt lat="48.15634" lon="-3.31706">
        <ele>276.6</ele>
        <time>2024-11-20T15:21:01Z</time>
      </trkpt>
      <trkpt lat="48.15634" lon="-3.31705">
        <ele>276.6</ele>
        <time>2024-11-20T15:21:02Z</time>
      </trkpt>
      <trkpt lat="48.15633" lon="-3.31704">
        <ele>276.7</ele>
        <time>2024-11-20T15:21:03Z</time>
      </trkpt>
      <trkpt lat="48.15632" lon="-3.31703">
        <ele>276.7</ele>
        <time>2024-11-20T15:21:04Z</time>
      </trkpt>
      <trkpt lat="48.15631" lon="-3.31702">
        <ele>276.7</ele>
        <time>2024-11-20T15:21:05Z</time>
      </trkpt>
      <trkpt lat="48.15631" lon="-3.31702">
        <ele>276.7</ele>
        <time>2024-11-20T15:21:06Z</time>
      </trkpt>
      <trkpt lat="48.15629" lon="-3.31701">
        <ele>276.8</ele>
        <time>2024-11-20T15:21:07Z</time>
      </trkpt>
      <trkpt lat="48.15629" lon="-3.317">
        <ele>276.8</ele>
        <time>2024-11-20T15:21:08Z</time>
      </trkpt>
      <trkpt lat="48.15628" lon="-3.317">
        <ele>276.8</ele>
        <time>2024-11-20T15:21:09Z</time>
      </trkpt>
      <trkpt lat="48.15627" lon="-3.31699">
        <ele>276.8</ele>
        <time>2024-11-20T15:21:10Z</time>
      </trkpt>
      <trkpt lat="48.15627" lon="-3.31698">
        <ele>276.9</ele>
        <time>2024-11-20T15:21:11Z</time>
      </trkpt>
      <trkpt lat="48.15626" lon="-3.31697">
        <ele>276.9</ele>
        <time>2024-11-20T15:21:12Z</time>
      </trkpt>
      <trkpt lat="48.15625" lon="-3.31696">
        <ele>277</ele>
        <time>2024-11-20T15:21:13Z</time>
      </trkpt>
      <trkpt lat="48.15624" lon="-3.31695">
        <ele>277</ele>
        <time>2024-11-20T15:21:14Z</time>
      </trkpt>
      <trkpt lat="48.15624" lon="-3.31694">
        <ele>277</ele>
        <time>2024-11-20T15:21:15Z</time>
      </trkpt>
      <trkpt lat="48.15623" lon="-3.31693">
        <ele>277</ele>
        <time>2024-11-20T15:21:16Z</time>
      </trkpt>
      <trkpt lat="48.15622" lon="-3.31692">
        <ele>277.1</ele>
        <time>2024-11-20T15:21:17Z</time>
      </trkpt>
      <trkpt lat="48.15621" lon="-3.31691">
        <ele>277.1</ele>
        <time>2024-11-20T15:21:18Z</time>
      </trkpt>
      <trkpt lat="48.1562" lon="-3.31691">
        <ele>277.1</ele>
        <time>2024-11-20T15:21:19Z</time>
      </trkpt>
      <trkpt lat="48.1562" lon="-3.3169">
        <ele>277.2</ele>
        <time>2024-11-20T15:21:20Z</time>
      </trkpt>
      <trkpt lat="48.15619" lon="-3.31689">
        <ele>277.2</ele>
        <time>2024-11-20T15:21:21Z</time>
      </trkpt>
      <trkpt lat="48.15618" lon="-3.31687">
        <ele>277.3</ele>
        <time>2024-11-20T15:21:22Z</time>
      </trkpt>
      <trkpt lat="48.15617" lon="-3.31686">
        <ele>277.3</ele>
        <time>2024-11-20T15:21:23Z</time>
      </trkpt>
      <trkpt lat="48.15616" lon="-3.31684">
        <ele>277.4</ele>
        <time>2024-11-20T15:21:24Z</time>
      </trkpt>
      <trkpt lat="48.15615" lon="-3.31684">
        <ele>277.4</ele>
        <time>2024-11-20T15:21:25Z</time>
      </trkpt>
      <trkpt lat="48.15614" lon="-3.31683">
        <ele>277.4</ele>
        <time>2024-11-20T15:21:26Z</time>
      </trkpt>
      <trkpt lat="48.15613" lon="-3.31682">
        <ele>277.4</ele>
        <time>2024-11-20T15:21:27Z</time>
      </trkpt>
      <trkpt lat="48.15612" lon="-3.31681">
        <ele>277.5</ele>
        <time>2024-11-20T15:21:28Z</time>
      </trkpt>
      <trkpt lat="48.15611" lon="-3.3168">
        <ele>277.5</ele>
        <time>2024-11-20T15:21:29Z</time>
      </trkpt>
      <trkpt lat="48.1561" lon="-3.31679">
        <ele>277.6</ele>
        <time>2024-11-20T15:21:30Z</time>
      </trkpt>
      <trkpt lat="48.1561" lon="-3.31679">
        <ele>277.6</ele>
        <time>2024-11-20T15:21:31Z</time>
      </trkpt>
      <trkpt lat="48.15609" lon="-3.31678">
        <ele>277.6</ele>
        <time>2024-11-20T15:21:32Z</time>
      </trkpt>
      <trkpt lat="48.15609" lon="-3.31677">
        <ele>277.6</ele>
        <time>2024-11-20T15:21:33Z</time>
      </trkpt>
      <trkpt lat="48.15608" lon="-3.31675">
        <ele>277.7</ele>
        <time>2024-11-20T15:21:34Z</time>
      </trkpt>
      <trkpt lat="48.15607" lon="-3.31673">
        <ele>277.8</ele>
        <time>2024-11-20T15:21:35Z</time>
      </trkpt>
      <trkpt lat="48.15607" lon="-3.31672">
        <ele>277.8</ele>
        <time>2024-11-20T15:21:36Z</time>
      </trkpt>
      <trkpt lat="48.15606" lon="-3.31671">
        <ele>277.9</ele>
        <time>2024-11-20T15:21:37Z</time>
      </trkpt>
      <trkpt lat="48.15606" lon="-3.31669">
        <ele>277.9</ele>
        <time>2024-11-20T15:21:38Z</time>
      </trkpt>
      <trkpt lat="48.15606" lon="-3.31668">
        <ele>277.9</ele>
        <time>2024-11-20T15:21:39Z</time>
      </trkpt>
      <trkpt lat="48.15605" lon="-3.31668">
        <ele>278</ele>
        <time>2024-11-20T15:21:40Z</time>
      </trkpt>
      <trkpt lat="48.15605" lon="-3.31667">
        <ele>278</ele>
        <time>2024-11-20T15:21:41Z</time>
      </trkpt>
      <trkpt lat="48.15604" lon="-3.31666">
        <ele>278</ele>
        <time>2024-11-20T15:21:42Z</time>
      </trkpt>
      <trkpt lat="48.15603" lon="-3.31665">
        <ele>278</ele>
        <time>2024-11-20T15:21:43Z</time>
      </trkpt>
      <trkpt lat="48.15602" lon="-3.31664">
        <ele>278.1</ele>
        <time>2024-11-20T15:21:44Z</time>
      </trkpt>
      <trkpt lat="48.15602" lon="-3.31664">
        <ele>278.1</ele>
        <time>2024-11-20T15:21:45Z</time>
      </trkpt>
      <trkpt lat="48.15601" lon="-3.31662">
        <ele>278.2</ele>
        <time>2024-11-20T15:21:46Z</time>
      </trkpt>
      <trkpt lat="48.156" lon="-3.31661">
        <ele>278.2</ele>
        <time>2024-11-20T15:21:47Z</time>
      </trkpt>
      <trkpt lat="48.15599" lon="-3.31659">
        <ele>278.3</ele>
        <time>2024-11-20T15:21:48Z</time>
      </trkpt>
      <trkpt lat="48.15598" lon="-3.31658">
        <ele>278.3</ele>
        <time>2024-11-20T15:21:49Z</time>
      </trkpt>
      <trkpt lat="48.15598" lon="-3.31657">
        <ele>278.3</ele>
        <time>2024-11-20T15:21:50Z</time>
      </trkpt>
      <trkpt lat="48.15597" lon="-3.31656">
        <ele>278.4</ele>
        <time>2024-11-20T15:21:51Z</time>
      </trkpt>
      <trkpt lat="48.15596" lon="-3.31655">
        <ele>278.4</ele>
        <time>2024-11-20T15:21:52Z</time>
      </trkpt>
      <trkpt lat="48.15596" lon="-3.31654">
        <ele>278.5</ele>
        <time>2024-11-20T15:21:53Z</time>
      </trkpt>
      <trkpt lat="48.15595" lon="-3.31652">
        <ele>278.5</ele>
        <time>2024-11-20T15:21:54Z</time>
      </trkpt>
      <trkpt lat="48.15594" lon="-3.31651">
        <ele>278.6</ele>
        <time>2024-11-20T15:21:55Z</time>
      </trkpt>
      <trkpt lat="48.15594" lon="-3.3165">
        <ele>278.6</ele>
        <time>2024-11-20T15:21:56Z</time>
      </trkpt>
      <trkpt lat="48.15593" lon="-3.31649">
        <ele>278.6</ele>
        <time>2024-11-20T15:21:57Z</time>
      </trkpt>
      <trkpt lat="48.15592" lon="-3.31648">
        <ele>278.7</ele>
        <time>2024-11-20T15:21:58Z</time>
      </trkpt>
      <trkpt lat="48.15592" lon="-3.31646">
        <ele>278.7</ele>
        <time>2024-11-20T15:21:59Z</time>
      </trkpt>
      <trkpt lat="48.15591" lon="-3.31645">
        <ele>278.8</ele>
        <time>2024-11-20T15:22:00Z</time>
      </trkpt>
      <trkpt lat="48.15591" lon="-3.31643">
        <ele>278.8</ele>
        <time>2024-11-20T15:22:01Z</time>
      </trkpt>
      <trkpt lat="48.1559" lon="-3.31642">
        <ele>278.9</ele>
        <time>2024-11-20T15:22:02Z</time>
      </trkpt>
      <trkpt lat="48.15589" lon="-3.3164">
        <ele>278.9</ele>
        <time>2024-11-20T15:22:03Z</time>
      </trkpt>
      <trkpt lat="48.15589" lon="-3.31639">
        <ele>279</ele>
        <time>2024-11-20T15:22:04Z</time>
      </trkpt>
      <trkpt lat="48.15588" lon="-3.31638">
        <ele>279</ele>
        <time>2024-11-20T15:22:05Z</time>
      </trkpt>
      <trkpt lat="48.15587" lon="-3.31637">
        <ele>279</ele>
        <time>2024-11-20T15:22:06Z</time>
      </trkpt>
      <trkpt lat="48.15587" lon="-3.31635">
        <ele>279</ele>
        <time>2024-11-20T15:22:07Z</time>
      </trkpt>
      <trkpt lat="48.15586" lon="-3.31633">
        <ele>279</ele>
        <time>2024-11-20T15:22:08Z</time>
      </trkpt>
      <trkpt lat="48.15586" lon="-3.31632">
        <ele>279</ele>
        <time>2024-11-20T15:22:09Z</time>
      </trkpt>
      <trkpt lat="48.15585" lon="-3.31631">
        <ele>279</ele>
        <time>2024-11-20T15:22:10Z</time>
      </trkpt>
      <trkpt lat="48.15585" lon="-3.31629">
        <ele>279</ele>
        <time>2024-11-20T15:22:11Z</time>
      </trkpt>
      <trkpt lat="48.15584" lon="-3.31628">
        <ele>279</ele>
        <time>2024-11-20T15:22:12Z</time>
      </trkpt>
      <trkpt lat="48.15584" lon="-3.31627">
        <ele>279</ele>
        <time>2024-11-20T15:22:13Z</time>
      </trkpt>
      <trkpt lat="48.15583" lon="-3.31625">
        <ele>279</ele>
        <time>2024-11-20T15:22:14Z</time>
      </trkpt>
      <trkpt lat="48.15583" lon="-3.31624">
        <ele>279</ele>
        <time>2024-11-20T15:22:15Z</time>
      </trkpt>
      <trkpt lat="48.15583" lon="-3.31623">
        <ele>279</ele>
        <time>2024-11-20T15:22:16Z</time>
      </trkpt>
      <trkpt lat="48.15582" lon="-3.31623">
        <ele>279</ele>
        <time>2024-11-20T15:22:17Z</time>
      </trkpt>
      <trkpt lat="48.15581" lon="-3.31622">
        <ele>279</ele>
        <time>2024-11-20T15:22:18Z</time>
      </trkpt>
      <trkpt lat="48.15581" lon="-3.31621">
        <ele>279</ele>
        <time>2024-11-20T15:22:19Z</time>
      </trkpt>
      <trkpt lat="48.1558" lon="-3.31619">
        <ele>279</ele>
        <time>2024-11-20T15:22:20Z</time>
      </trkpt>
      <trkpt lat="48.1558" lon="-3.31618">
        <ele>279</ele>
        <time>2024-11-20T15:22:21Z</time>
      </trkpt>
      <trkpt lat="48.1558" lon="-3.31617">
        <ele>279</ele>
        <time>2024-11-20T15:22:22Z</time>
      </trkpt>
      <trkpt lat="48.15579" lon="-3.31616">
        <ele>279</ele>
        <time>2024-11-20T15:22:23Z</time>
      </trkpt>
      <trkpt lat="48.15579" lon="-3.31616">
        <ele>279</ele>
        <time>2024-11-20T15:22:24Z</time>
      </trkpt>
      <trkpt lat="48.15579" lon="-3.31616">
        <ele>279</ele>
        <time>2024-11-20T15:22:25Z</time>
      </trkpt>
      <trkpt lat="48.15579" lon="-3.31616">
        <ele>279</ele>
        <time>2024-11-20T15:22:26Z</time>
      </trkpt>
      <trkpt lat="48.15578" lon="-3.31615">
        <ele>279</ele>
        <time>2024-11-20T15:22:27Z</time>
      </trkpt>
      <trkpt lat="48.15578" lon="-3.31614">
        <ele>279</ele>
        <time>2024-11-20T15:22:28Z</time>
      </trkpt>
      <trkpt lat="48.15577" lon="-3.31613">
        <ele>279</ele>
        <time>2024-11-20T15:22:29Z</time>
      </trkpt>
      <trkpt lat="48.15577" lon="-3.31611">
        <ele>279</ele>
        <time>2024-11-20T15:22:30Z</time>
      </trkpt>
      <trkpt lat="48.15577" lon="-3.31608">
        <ele>279</ele>
        <time>2024-11-20T15:22:31Z</time>
      </trkpt>
      <trkpt lat="48.15576" lon="-3.31607">
        <ele>279</ele>
        <time>2024-11-20T15:22:32Z</time>
      </trkpt>
      <trkpt lat="48.15576" lon="-3.31605">
        <ele>279.1</ele>
        <time>2024-11-20T15:22:33Z</time>
      </trkpt>
      <trkpt lat="48.15575" lon="-3.31602">
        <ele>279.1</ele>
        <time>2024-11-20T15:22:34Z</time>
      </trkpt>
      <trkpt lat="48.15574" lon="-3.316">
        <ele>279.1</ele>
        <time>2024-11-20T15:22:35Z</time>
      </trkpt>
      <trkpt lat="48.15573" lon="-3.31598">
        <ele>279.2</ele>
        <time>2024-11-20T15:22:36Z</time>
      </trkpt>
      <trkpt lat="48.15572" lon="-3.31596">
        <ele>279.2</ele>
        <time>2024-11-20T15:22:37Z</time>
      </trkpt>
      <trkpt lat="48.15571" lon="-3.31595">
        <ele>279.3</ele>
        <time>2024-11-20T15:22:38Z</time>
      </trkpt>
      <trkpt lat="48.15571" lon="-3.31594">
        <ele>279.3</ele>
        <time>2024-11-20T15:22:39Z</time>
      </trkpt>
      <trkpt lat="48.1557" lon="-3.31592">
        <ele>279.3</ele>
        <time>2024-11-20T15:22:40Z</time>
      </trkpt>
      <trkpt lat="48.1557" lon="-3.3159">
        <ele>279.4</ele>
        <time>2024-11-20T15:22:41Z</time>
      </trkpt>
      <trkpt lat="48.15569" lon="-3.31588">
        <ele>279.4</ele>
        <time>2024-11-20T15:22:42Z</time>
      </trkpt>
      <trkpt lat="48.15568" lon="-3.31586">
        <ele>279.5</ele>
        <time>2024-11-20T15:22:43Z</time>
      </trkpt>
      <trkpt lat="48.15567" lon="-3.31585">
        <ele>279.5</ele>
        <time>2024-11-20T15:22:44Z</time>
      </trkpt>
      <trkpt lat="48.15567" lon="-3.31584">
        <ele>279.6</ele>
        <time>2024-11-20T15:22:45Z</time>
      </trkpt>
      <trkpt lat="48.15566" lon="-3.31583">
        <ele>279.6</ele>
        <time>2024-11-20T15:22:46Z</time>
      </trkpt>
      <trkpt lat="48.15565" lon="-3.31581">
        <ele>279.6</ele>
        <time>2024-11-20T15:22:47Z</time>
      </trkpt>
      <trkpt lat="48.15565" lon="-3.3158">
        <ele>279.6</ele>
        <time>2024-11-20T15:22:48Z</time>
      </trkpt>
      <trkpt lat="48.15565" lon="-3.31579">
        <ele>279.6</ele>
        <time>2024-11-20T15:22:49Z</time>
      </trkpt>
      <trkpt lat="48.15564" lon="-3.31578">
        <ele>279.6</ele>
        <time>2024-11-20T15:22:50Z</time>
      </trkpt>
      <trkpt lat="48.15564" lon="-3.31577">
        <ele>279.5</ele>
        <time>2024-11-20T15:22:51Z</time>
      </trkpt>
      <trkpt lat="48.15563" lon="-3.31575">
        <ele>279.5</ele>
        <time>2024-11-20T15:22:52Z</time>
      </trkpt>
      <trkpt lat="48.15563" lon="-3.31574">
        <ele>279.5</ele>
        <time>2024-11-20T15:22:53Z</time>
      </trkpt>
      <trkpt lat="48.15562" lon="-3.31573">
        <ele>279.5</ele>
        <time>2024-11-20T15:22:54Z</time>
      </trkpt>
      <trkpt lat="48.15562" lon="-3.31572">
        <ele>279.4</ele>
        <time>2024-11-20T15:22:55Z</time>
      </trkpt>
      <trkpt lat="48.15562" lon="-3.31571">
        <ele>279.4</ele>
        <time>2024-11-20T15:22:56Z</time>
      </trkpt>
      <trkpt lat="48.15562" lon="-3.3157">
        <ele>279.4</ele>
        <time>2024-11-20T15:22:57Z</time>
      </trkpt>
      <trkpt lat="48.15562" lon="-3.3157">
        <ele>279.4</ele>
        <time>2024-11-20T15:22:58Z</time>
      </trkpt>
      <trkpt lat="48.15562" lon="-3.31569">
        <ele>279.4</ele>
        <time>2024-11-20T15:22:59Z</time>
      </trkpt>
      <trkpt lat="48.15562" lon="-3.31568">
        <ele>279.4</ele>
        <time>2024-11-20T15:23:00Z</time>
      </trkpt>
      <trkpt lat="48.15562" lon="-3.31568">
        <ele>279.3</ele>
        <time>2024-11-20T15:23:01Z</time>
      </trkpt>
      <trkpt lat="48.15562" lon="-3.31567">
        <ele>279.3</ele>
        <time>2024-11-20T15:23:02Z</time>
      </trkpt>
      <trkpt lat="48.15561" lon="-3.31567">
        <ele>279.3</ele>
        <time>2024-11-20T15:23:03Z</time>
      </trkpt>
      <trkpt lat="48.15561" lon="-3.31565">
        <ele>279.3</ele>
        <time>2024-11-20T15:23:04Z</time>
      </trkpt>
      <trkpt lat="48.1556" lon="-3.31564">
        <ele>279.3</ele>
        <time>2024-11-20T15:23:05Z</time>
      </trkpt>
      <trkpt lat="48.15559" lon="-3.31563">
        <ele>279.2</ele>
        <time>2024-11-20T15:23:06Z</time>
      </trkpt>
      <trkpt lat="48.15558" lon="-3.31561">
        <ele>279.2</ele>
        <time>2024-11-20T15:23:07Z</time>
      </trkpt>
      <trkpt lat="48.15558" lon="-3.31559">
        <ele>279.1</ele>
        <time>2024-11-20T15:23:08Z</time>
      </trkpt>
      <trkpt lat="48.15557" lon="-3.31557">
        <ele>279.1</ele>
        <time>2024-11-20T15:23:09Z</time>
      </trkpt>
      <trkpt lat="48.15556" lon="-3.31555">
        <ele>279</ele>
        <time>2024-11-20T15:23:10Z</time>
      </trkpt>
      <trkpt lat="48.15556" lon="-3.31552">
        <ele>279</ele>
        <time>2024-11-20T15:23:11Z</time>
      </trkpt>
      <trkpt lat="48.15555" lon="-3.31551">
        <ele>279</ele>
        <time>2024-11-20T15:23:12Z</time>
      </trkpt>
      <trkpt lat="48.15555" lon="-3.31548">
        <ele>279</ele>
        <time>2024-11-20T15:23:13Z</time>
      </trkpt>
      <trkpt lat="48.15554" lon="-3.31546">
        <ele>279.1</ele>
        <time>2024-11-20T15:23:14Z</time>
      </trkpt>
      <trkpt lat="48.15553" lon="-3.31544">
        <ele>279.1</ele>
        <time>2024-11-20T15:23:15Z</time>
      </trkpt>
      <trkpt lat="48.15553" lon="-3.31543">
        <ele>279.1</ele>
        <time>2024-11-20T15:23:16Z</time>
      </trkpt>
      <trkpt lat="48.15553" lon="-3.31542">
        <ele>279.1</ele>
        <time>2024-11-20T15:23:17Z</time>
      </trkpt>
      <trkpt lat="48.15552" lon="-3.31541">
        <ele>279.1</ele>
        <time>2024-11-20T15:23:18Z</time>
      </trkpt>
      <trkpt lat="48.15551" lon="-3.3154">
        <ele>279.2</ele>
        <time>2024-11-20T15:23:19Z</time>
      </trkpt>
      <trkpt lat="48.15551" lon="-3.31539">
        <ele>279.2</ele>
        <time>2024-11-20T15:23:20Z</time>
      </trkpt>
      <trkpt lat="48.1555" lon="-3.31537">
        <ele>279.2</ele>
        <time>2024-11-20T15:23:21Z</time>
      </trkpt>
      <trkpt lat="48.1555" lon="-3.31536">
        <ele>279.2</ele>
        <time>2024-11-20T15:23:22Z</time>
      </trkpt>
      <trkpt lat="48.15549" lon="-3.31534">
        <ele>279.2</ele>
        <time>2024-11-20T15:23:23Z</time>
      </trkpt>
      <trkpt lat="48.15549" lon="-3.31532">
        <ele>279.2</ele>
        <time>2024-11-20T15:23:24Z</time>
      </trkpt>
      <trkpt lat="48.15548" lon="-3.31531">
        <ele>279.3</ele>
        <time>2024-11-20T15:23:25Z</time>
      </trkpt>
      <trkpt lat="48.15548" lon="-3.31529">
        <ele>279.3</ele>
        <time>2024-11-20T15:23:26Z</time>
      </trkpt>
      <trkpt lat="48.15547" lon="-3.31528">
        <ele>279.3</ele>
        <time>2024-11-20T15:23:27Z</time>
      </trkpt>
      <trkpt lat="48.15547" lon="-3.31526">
        <ele>279.3</ele>
        <time>2024-11-20T15:23:28Z</time>
      </trkpt>
      <trkpt lat="48.15546" lon="-3.31525">
        <ele>279.2</ele>
        <time>2024-11-20T15:23:29Z</time>
      </trkpt>
      <trkpt lat="48.15546" lon="-3.31523">
        <ele>279.2</ele>
        <time>2024-11-20T15:23:30Z</time>
      </trkpt>
      <trkpt lat="48.15545" lon="-3.31522">
        <ele>279.2</ele>
        <time>2024-11-20T15:23:31Z</time>
      </trkpt>
      <trkpt lat="48.15544" lon="-3.3152">
        <ele>279.1</ele>
        <time>2024-11-20T15:23:32Z</time>
      </trkpt>
      <trkpt lat="48.15543" lon="-3.31518">
        <ele>279.1</ele>
        <time>2024-11-20T15:23:33Z</time>
      </trkpt>
      <trkpt lat="48.15542" lon="-3.31516">
        <ele>279.1</ele>
        <time>2024-11-20T15:23:34Z</time>
      </trkpt>
      <trkpt lat="48.15542" lon="-3.31515">
        <ele>279</ele>
        <time>2024-11-20T15:23:35Z</time>
      </trkpt>
      <trkpt lat="48.15541" lon="-3.31514">
        <ele>279</ele>
        <time>2024-11-20T15:23:36Z</time>
      </trkpt>
      <trkpt lat="48.15541" lon="-3.31513">
        <ele>279</ele>
        <time>2024-11-20T15:23:37Z</time>
      </trkpt>
      <trkpt lat="48.1554" lon="-3.31511">
        <ele>279</ele>
        <time>2024-11-20T15:23:38Z</time>
      </trkpt>
      <trkpt lat="48.15539" lon="-3.3151">
        <ele>278.9</ele>
        <time>2024-11-20T15:23:39Z</time>
      </trkpt>
      <trkpt lat="48.15538" lon="-3.31508">
        <ele>278.9</ele>
        <time>2024-11-20T15:23:40Z</time>
      </trkpt>
      <trkpt lat="48.15538" lon="-3.31506">
        <ele>278.8</ele>
        <time>2024-11-20T15:23:41Z</time>
      </trkpt>
      <trkpt lat="48.15537" lon="-3.31504">
        <ele>278.8</ele>
        <time>2024-11-20T15:23:42Z</time>
      </trkpt>
      <trkpt lat="48.15537" lon="-3.31502">
        <ele>278.7</ele>
        <time>2024-11-20T15:23:43Z</time>
      </trkpt>
      <trkpt lat="48.15537" lon="-3.31501">
        <ele>278.7</ele>
        <time>2024-11-20T15:23:44Z</time>
      </trkpt>
      <trkpt lat="48.15536" lon="-3.31499">
        <ele>278.7</ele>
        <time>2024-11-20T15:23:45Z</time>
      </trkpt>
      <trkpt lat="48.15536" lon="-3.31498">
        <ele>278.6</ele>
        <time>2024-11-20T15:23:46Z</time>
      </trkpt>
      <trkpt lat="48.15535" lon="-3.31496">
        <ele>278.6</ele>
        <time>2024-11-20T15:23:47Z</time>
      </trkpt>
      <trkpt lat="48.15535" lon="-3.31495">
        <ele>278.6</ele>
        <time>2024-11-20T15:23:48Z</time>
      </trkpt>
      <trkpt lat="48.15534" lon="-3.31494">
        <ele>278.5</ele>
        <time>2024-11-20T15:23:49Z</time>
      </trkpt>
      <trkpt lat="48.15534" lon="-3.31492">
        <ele>278.5</ele>
        <time>2024-11-20T15:23:50Z</time>
      </trkpt>
      <trkpt lat="48.15533" lon="-3.31492">
        <ele>278.5</ele>
        <time>2024-11-20T15:23:51Z</time>
      </trkpt>
      <trkpt lat="48.15533" lon="-3.3149">
        <ele>278.5</ele>
        <time>2024-11-20T15:23:52Z</time>
      </trkpt>
      <trkpt lat="48.15532" lon="-3.31488">
        <ele>278.4</ele>
        <time>2024-11-20T15:23:53Z</time>
      </trkpt>
      <trkpt lat="48.15532" lon="-3.31487">
        <ele>278.4</ele>
        <time>2024-11-20T15:23:54Z</time>
      </trkpt>
      <trkpt lat="48.15531" lon="-3.31486">
        <ele>278.4</ele>
        <time>2024-11-20T15:23:55Z</time>
      </trkpt>
      <trkpt lat="48.15531" lon="-3.31484">
        <ele>278.3</ele>
        <time>2024-11-20T15:23:56Z</time>
      </trkpt>
      <trkpt lat="48.1553" lon="-3.31483">
        <ele>278.3</ele>
        <time>2024-11-20T15:23:57Z</time>
      </trkpt>
      <trkpt lat="48.15529" lon="-3.31481">
        <ele>278.3</ele>
        <time>2024-11-20T15:23:58Z</time>
      </trkpt>
      <trkpt lat="48.15529" lon="-3.3148">
        <ele>278.2</ele>
        <time>2024-11-20T15:23:59Z</time>
      </trkpt>
      <trkpt lat="48.15528" lon="-3.31479">
        <ele>278.2</ele>
        <time>2024-11-20T15:24:00Z</time>
      </trkpt>
      <trkpt lat="48.15528" lon="-3.31477">
        <ele>278.2</ele>
        <time>2024-11-20T15:24:01Z</time>
      </trkpt>
      <trkpt lat="48.15527" lon="-3.31475">
        <ele>278.1</ele>
        <time>2024-11-20T15:24:02Z</time>
      </trkpt>
      <trkpt lat="48.15527" lon="-3.31473">
        <ele>278.1</ele>
        <time>2024-11-20T15:24:03Z</time>
      </trkpt>
      <trkpt lat="48.15526" lon="-3.31471">
        <ele>278</ele>
        <time>2024-11-20T15:24:04Z</time>
      </trkpt>
      <trkpt lat="48.15526" lon="-3.31469">
        <ele>278</ele>
        <time>2024-11-20T15:24:05Z</time>
      </trkpt>
      <trkpt lat="48.15526" lon="-3.31467">
        <ele>277.9</ele>
        <time>2024-11-20T15:24:06Z</time>
      </trkpt>
      <trkpt lat="48.15525" lon="-3.31465">
        <ele>277.8</ele>
        <time>2024-11-20T15:24:07Z</time>
      </trkpt>
      <trkpt lat="48.15525" lon="-3.31463">
        <ele>277.8</ele>
        <time>2024-11-20T15:24:08Z</time>
      </trkpt>
      <trkpt lat="48.15525" lon="-3.3146">
        <ele>277.7</ele>
        <time>2024-11-20T15:24:09Z</time>
      </trkpt>
      <trkpt lat="48.15524" lon="-3.31458">
        <ele>277.6</ele>
        <time>2024-11-20T15:24:10Z</time>
      </trkpt>
      <trkpt lat="48.15524" lon="-3.31456">
        <ele>277.6</ele>
        <time>2024-11-20T15:24:11Z</time>
      </trkpt>
      <trkpt lat="48.15524" lon="-3.31454">
        <ele>277.5</ele>
        <time>2024-11-20T15:24:12Z</time>
      </trkpt>
      <trkpt lat="48.15524" lon="-3.31452">
        <ele>277.4</ele>
        <time>2024-11-20T15:24:13Z</time>
      </trkpt>
      <trkpt lat="48.15523" lon="-3.3145">
        <ele>277.4</ele>
        <time>2024-11-20T15:24:14Z</time>
      </trkpt>
      <trkpt lat="48.15523" lon="-3.31448">
        <ele>277.3</ele>
        <time>2024-11-20T15:24:15Z</time>
      </trkpt>
      <trkpt lat="48.15522" lon="-3.31446">
        <ele>277.3</ele>
        <time>2024-11-20T15:24:16Z</time>
      </trkpt>
      <trkpt lat="48.15522" lon="-3.31444">
        <ele>277.2</ele>
        <time>2024-11-20T15:24:17Z</time>
      </trkpt>
      <trkpt lat="48.15522" lon="-3.31442">
        <ele>277.1</ele>
        <time>2024-11-20T15:24:18Z</time>
      </trkpt>
      <trkpt lat="48.15522" lon="-3.31441">
        <ele>277.1</ele>
        <time>2024-11-20T15:24:19Z</time>
      </trkpt>
      <trkpt lat="48.15522" lon="-3.3144">
        <ele>277.1</ele>
        <time>2024-11-20T15:24:20Z</time>
      </trkpt>
      <trkpt lat="48.15522" lon="-3.3144">
        <ele>277.1</ele>
        <time>2024-11-20T15:24:21Z</time>
      </trkpt>
      <trkpt lat="48.15521" lon="-3.31439">
        <ele>277</ele>
        <time>2024-11-20T15:24:22Z</time>
      </trkpt>
      <trkpt lat="48.15521" lon="-3.31438">
        <ele>277</ele>
        <time>2024-11-20T15:24:23Z</time>
      </trkpt>
      <trkpt lat="48.15521" lon="-3.31436">
        <ele>276.9</ele>
        <time>2024-11-20T15:24:24Z</time>
      </trkpt>
      <trkpt lat="48.15521" lon="-3.31435">
        <ele>276.9</ele>
        <time>2024-11-20T15:24:25Z</time>
      </trkpt>
      <trkpt lat="48.15521" lon="-3.31434">
        <ele>276.9</ele>
        <time>2024-11-20T15:24:26Z</time>
      </trkpt>
      <trkpt lat="48.15521" lon="-3.31432">
        <ele>276.8</ele>
        <time>2024-11-20T15:24:27Z</time>
      </trkpt>
      <trkpt lat="48.15521" lon="-3.3143">
        <ele>276.8</ele>
        <time>2024-11-20T15:24:28Z</time>
      </trkpt>
      <trkpt lat="48.1552" lon="-3.31429">
        <ele>276.7</ele>
        <time>2024-11-20T15:24:29Z</time>
      </trkpt>
      <trkpt lat="48.1552" lon="-3.31428">
        <ele>276.7</ele>
        <time>2024-11-20T15:24:30Z</time>
      </trkpt>
      <trkpt lat="48.1552" lon="-3.31427">
        <ele>276.7</ele>
        <time>2024-11-20T15:24:31Z</time>
      </trkpt>
      <trkpt lat="48.15519" lon="-3.31425">
        <ele>276.6</ele>
        <time>2024-11-20T15:24:32Z</time>
      </trkpt>
      <trkpt lat="48.15518" lon="-3.31425">
        <ele>276.6</ele>
        <time>2024-11-20T15:24:33Z</time>
      </trkpt>
      <trkpt lat="48.15518" lon="-3.31424">
        <ele>276.6</ele>
        <time>2024-11-20T15:24:34Z</time>
      </trkpt>
      <trkpt lat="48.15517" lon="-3.31423">
        <ele>276.6</ele>
        <time>2024-11-20T15:24:35Z</time>
      </trkpt>
      <trkpt lat="48.15517" lon="-3.31423">
        <ele>276.6</ele>
        <time>2024-11-20T15:24:36Z</time>
      </trkpt>
      <trkpt lat="48.15517" lon="-3.31423">
        <ele>276.6</ele>
        <time>2024-11-20T15:24:37Z</time>
      </trkpt>
      <trkpt lat="48.15516" lon="-3.31423">
        <ele>276.6</ele>
        <time>2024-11-20T15:24:38Z</time>
      </trkpt>
      <trkpt lat="48.15516" lon="-3.31423">
        <ele>276.6</ele>
        <time>2024-11-20T15:24:39Z</time>
      </trkpt>
      <trkpt lat="48.15516" lon="-3.31423">
        <ele>276.6</ele>
        <time>2024-11-20T15:24:40Z</time>
      </trkpt>
      <trkpt lat="48.15516" lon="-3.31423">
        <ele>276.6</ele>
        <time>2024-11-20T15:24:41Z</time>
      </trkpt>
      <trkpt lat="48.15516" lon="-3.31423">
        <ele>276.6</ele>
        <time>2024-11-20T15:24:42Z</time>
      </trkpt>
      <trkpt lat="48.15516" lon="-3.31423">
        <ele>276.6</ele>
        <time>2024-11-20T15:24:43Z</time>
      </trkpt>
      <trkpt lat="48.15516" lon="-3.31423">
        <ele>276.6</ele>
        <time>2024-11-20T15:24:44Z</time>
      </trkpt>
      <trkpt lat="48.15516" lon="-3.31423">
        <ele>276.6</ele>
        <time>2024-11-20T15:24:45Z</time>
      </trkpt>
      <trkpt lat="48.15516" lon="-3.31423">
        <ele>276.6</ele>
        <time>2024-11-20T15:24:46Z</time>
      </trkpt>
      <trkpt lat="48.15516" lon="-3.31423">
        <ele>276.6</ele>
        <time>2024-11-20T15:24:47Z</time>
      </trkpt>
      <trkpt lat="48.15516" lon="-3.31423">
        <ele>276.7</ele>
        <time>2024-11-20T15:24:48Z</time>
      </trkpt>
      <trkpt lat="48.15516" lon="-3.31423">
        <ele>276.7</ele>
        <time>2024-11-20T15:24:49Z</time>
      </trkpt>
      <trkpt lat="48.15515" lon="-3.31423">
        <ele>276.7</ele>
        <time>2024-11-20T15:24:50Z</time>
      </trkpt>
      <trkpt lat="48.15515" lon="-3.31423">
        <ele>276.7</ele>
        <time>2024-11-20T15:24:51Z</time>
      </trkpt>
      <trkpt lat="48.15515" lon="-3.31423">
        <ele>276.7</ele>
        <time>2024-11-20T15:24:52Z</time>
      </trkpt>
      <trkpt lat="48.15515" lon="-3.31423">
        <ele>276.7</ele>
        <time>2024-11-20T15:24:53Z</time>
      </trkpt>
      <trkpt lat="48.15515" lon="-3.31424">
        <ele>276.7</ele>
        <time>2024-11-20T15:24:54Z</time>
      </trkpt>
      <trkpt lat="48.15515" lon="-3.31423">
        <ele>276.7</ele>
        <time>2024-11-20T15:24:55Z</time>
      </trkpt>
      <trkpt lat="48.15515" lon="-3.31423">
        <ele>276.7</ele>
        <time>2024-11-20T15:24:56Z</time>
      </trkpt>
      <trkpt lat="48.15514" lon="-3.31423">
        <ele>276.7</ele>
        <time>2024-11-20T15:24:57Z</time>
      </trkpt>
      <trkpt lat="48.15514" lon="-3.31423">
        <ele>276.7</ele>
        <time>2024-11-20T15:24:58Z</time>
      </trkpt>
      <trkpt lat="48.15514" lon="-3.31423">
        <ele>276.7</ele>
        <time>2024-11-20T15:24:59Z</time>
      </trkpt>
      <trkpt lat="48.15514" lon="-3.31423">
        <ele>276.7</ele>
        <time>2024-11-20T15:25:00Z</time>
      </trkpt>
      <trkpt lat="48.15514" lon="-3.31423">
        <ele>276.7</ele>
        <time>2024-11-20T15:25:01Z</time>
      </trkpt>
      <trkpt lat="48.15514" lon="-3.31423">
        <ele>276.7</ele>
        <time>2024-11-20T15:25:02Z</time>
      </trkpt>
      <trkpt lat="48.15514" lon="-3.31423">
        <ele>276.7</ele>
        <time>2024-11-20T15:25:03Z</time>
      </trkpt>
      <trkpt lat="48.15514" lon="-3.31423">
        <ele>276.7</ele>
        <time>2024-11-20T15:25:04Z</time>
      </trkpt>
      <trkpt lat="48.15514" lon="-3.31423">
        <ele>276.7</ele>
        <time>2024-11-20T15:25:05Z</time>
      </trkpt>
      <trkpt lat="48.15514" lon="-3.31423">
        <ele>276.7</ele>
        <time>2024-11-20T15:25:06Z</time>
      </trkpt>
      <trkpt lat="48.15515" lon="-3.31423">
        <ele>276.7</ele>
        <time>2024-11-20T15:25:07Z</time>
      </trkpt>
      <trkpt lat="48.15515" lon="-3.31422">
        <ele>276.7</ele>
        <time>2024-11-20T15:25:08Z</time>
      </trkpt>
      <trkpt lat="48.15515" lon="-3.31421">
        <ele>276.6</ele>
        <time>2024-11-20T15:25:09Z</time>
      </trkpt>
      <trkpt lat="48.15516" lon="-3.3142">
        <ele>276.6</ele>
        <time>2024-11-20T15:25:10Z</time>
      </trkpt>
      <trkpt lat="48.15516" lon="-3.3142">
        <ele>276.5</ele>
        <time>2024-11-20T15:25:11Z</time>
      </trkpt>
      <trkpt lat="48.15516" lon="-3.31419">
        <ele>276.5</ele>
        <time>2024-11-20T15:25:12Z</time>
      </trkpt>
      <trkpt lat="48.15516" lon="-3.31418">
        <ele>276.5</ele>
        <time>2024-11-20T15:25:13Z</time>
      </trkpt>
      <trkpt lat="48.15516" lon="-3.31417">
        <ele>276.4</ele>
        <time>2024-11-20T15:25:14Z</time>
      </trkpt>
      <trkpt lat="48.15515" lon="-3.31416">
        <ele>276.4</ele>
        <time>2024-11-20T15:25:15Z</time>
      </trkpt>
      <trkpt lat="48.15515" lon="-3.31413">
        <ele>276.3</ele>
        <time>2024-11-20T15:25:16Z</time>
      </trkpt>
      <trkpt lat="48.15515" lon="-3.31411">
        <ele>276.2</ele>
        <time>2024-11-20T15:25:17Z</time>
      </trkpt>
      <trkpt lat="48.15515" lon="-3.31409">
        <ele>276.2</ele>
        <time>2024-11-20T15:25:18Z</time>
      </trkpt>
      <trkpt lat="48.15514" lon="-3.31407">
        <ele>276.1</ele>
        <time>2024-11-20T15:25:19Z</time>
      </trkpt>
      <trkpt lat="48.15514" lon="-3.31405">
        <ele>276.1</ele>
        <time>2024-11-20T15:25:20Z</time>
      </trkpt>
      <trkpt lat="48.15513" lon="-3.31403">
        <ele>276</ele>
        <time>2024-11-20T15:25:21Z</time>
      </trkpt>
      <trkpt lat="48.15513" lon="-3.314">
        <ele>276</ele>
        <time>2024-11-20T15:25:22Z</time>
      </trkpt>
      <trkpt lat="48.15512" lon="-3.31398">
        <ele>275.9</ele>
        <time>2024-11-20T15:25:23Z</time>
      </trkpt>
      <trkpt lat="48.15511" lon="-3.31396">
        <ele>275.9</ele>
        <time>2024-11-20T15:25:24Z</time>
      </trkpt>
      <trkpt lat="48.15511" lon="-3.31395">
        <ele>275.8</ele>
        <time>2024-11-20T15:25:25Z</time>
      </trkpt>
      <trkpt lat="48.15511" lon="-3.31394">
        <ele>275.8</ele>
        <time>2024-11-20T15:25:26Z</time>
      </trkpt>
      <trkpt lat="48.15511" lon="-3.31392">
        <ele>275.7</ele>
        <time>2024-11-20T15:25:27Z</time>
      </trkpt>
      <trkpt lat="48.15511" lon="-3.3139">
        <ele>275.7</ele>
        <time>2024-11-20T15:25:28Z</time>
      </trkpt>
      <trkpt lat="48.15511" lon="-3.31389">
        <ele>275.6</ele>
        <time>2024-11-20T15:25:29Z</time>
      </trkpt>
      <trkpt lat="48.15511" lon="-3.31387">
        <ele>275.5</ele>
        <time>2024-11-20T15:25:30Z</time>
      </trkpt>
      <trkpt lat="48.15511" lon="-3.31385">
        <ele>275.4</ele>
        <time>2024-11-20T15:25:31Z</time>
      </trkpt>
      <trkpt lat="48.15511" lon="-3.31383">
        <ele>275.3</ele>
        <time>2024-11-20T15:25:32Z</time>
      </trkpt>
      <trkpt lat="48.15511" lon="-3.31381">
        <ele>275.2</ele>
        <time>2024-11-20T15:25:33Z</time>
      </trkpt>
      <trkpt lat="48.1551" lon="-3.31379">
        <ele>275.1</ele>
        <time>2024-11-20T15:25:34Z</time>
      </trkpt>
      <trkpt lat="48.1551" lon="-3.31377">
        <ele>275</ele>
        <time>2024-11-20T15:25:35Z</time>
      </trkpt>
      <trkpt lat="48.15509" lon="-3.31375">
        <ele>274.9</ele>
        <time>2024-11-20T15:25:36Z</time>
      </trkpt>
      <trkpt lat="48.15508" lon="-3.31374">
        <ele>274.8</ele>
        <time>2024-11-20T15:25:37Z</time>
      </trkpt>
      <trkpt lat="48.15508" lon="-3.31372">
        <ele>274.7</ele>
        <time>2024-11-20T15:25:38Z</time>
      </trkpt>
      <trkpt lat="48.15508" lon="-3.31371">
        <ele>274.6</ele>
        <time>2024-11-20T15:25:39Z</time>
      </trkpt>
      <trkpt lat="48.15507" lon="-3.3137">
        <ele>274.5</ele>
        <time>2024-11-20T15:25:40Z</time>
      </trkpt>
      <trkpt lat="48.15507" lon="-3.31368">
        <ele>274.5</ele>
        <time>2024-11-20T15:25:41Z</time>
      </trkpt>
      <trkpt lat="48.15507" lon="-3.31367">
        <ele>274.4</ele>
        <time>2024-11-20T15:25:42Z</time>
      </trkpt>
      <trkpt lat="48.15506" lon="-3.31365">
        <ele>274.3</ele>
        <time>2024-11-20T15:25:43Z</time>
      </trkpt>
      <trkpt lat="48.15506" lon="-3.31364">
        <ele>274.2</ele>
        <time>2024-11-20T15:25:44Z</time>
      </trkpt>
      <trkpt lat="48.15505" lon="-3.31362">
        <ele>274.1</ele>
        <time>2024-11-20T15:25:45Z</time>
      </trkpt>
      <trkpt lat="48.15505" lon="-3.31361">
        <ele>274</ele>
        <time>2024-11-20T15:25:46Z</time>
      </trkpt>
      <trkpt lat="48.15504" lon="-3.31359">
        <ele>273.9</ele>
        <time>2024-11-20T15:25:47Z</time>
      </trkpt>
      <trkpt lat="48.15504" lon="-3.31358">
        <ele>273.9</ele>
        <time>2024-11-20T15:25:48Z</time>
      </trkpt>
      <trkpt lat="48.15504" lon="-3.31357">
        <ele>273.8</ele>
        <time>2024-11-20T15:25:49Z</time>
      </trkpt>
      <trkpt lat="48.15503" lon="-3.31356">
        <ele>273.8</ele>
        <time>2024-11-20T15:25:50Z</time>
      </trkpt>
      <trkpt lat="48.15503" lon="-3.31354">
        <ele>273.7</ele>
        <time>2024-11-20T15:25:51Z</time>
      </trkpt>
      <trkpt lat="48.15502" lon="-3.31353">
        <ele>273.7</ele>
        <time>2024-11-20T15:25:52Z</time>
      </trkpt>
      <trkpt lat="48.15501" lon="-3.3135">
        <ele>273.6</ele>
        <time>2024-11-20T15:25:53Z</time>
      </trkpt>
      <trkpt lat="48.155" lon="-3.31347">
        <ele>273.5</ele>
        <time>2024-11-20T15:25:54Z</time>
      </trkpt>
      <trkpt lat="48.155" lon="-3.31345">
        <ele>273.4</ele>
        <time>2024-11-20T15:25:55Z</time>
      </trkpt>
      <trkpt lat="48.15499" lon="-3.31343">
        <ele>273.4</ele>
        <time>2024-11-20T15:25:56Z</time>
      </trkpt>
      <trkpt lat="48.15498" lon="-3.31341">
        <ele>273.3</ele>
        <time>2024-11-20T15:25:57Z</time>
      </trkpt>
      <trkpt lat="48.15498" lon="-3.31339">
        <ele>273.2</ele>
        <time>2024-11-20T15:25:58Z</time>
      </trkpt>
      <trkpt lat="48.15497" lon="-3.31338">
        <ele>273.2</ele>
        <time>2024-11-20T15:25:59Z</time>
      </trkpt>
      <trkpt lat="48.15496" lon="-3.31336">
        <ele>273.1</ele>
        <time>2024-11-20T15:26:00Z</time>
      </trkpt>
      <trkpt lat="48.15496" lon="-3.31334">
        <ele>273</ele>
        <time>2024-11-20T15:26:01Z</time>
      </trkpt>
      <trkpt lat="48.15495" lon="-3.31333">
        <ele>273</ele>
        <time>2024-11-20T15:26:02Z</time>
      </trkpt>
      <trkpt lat="48.15495" lon="-3.31332">
        <ele>272.9</ele>
        <time>2024-11-20T15:26:03Z</time>
      </trkpt>
      <trkpt lat="48.15495" lon="-3.31331">
        <ele>272.9</ele>
        <time>2024-11-20T15:26:04Z</time>
      </trkpt>
      <trkpt lat="48.15494" lon="-3.3133">
        <ele>272.9</ele>
        <time>2024-11-20T15:26:05Z</time>
      </trkpt>
      <trkpt lat="48.15494" lon="-3.31329">
        <ele>272.8</ele>
        <time>2024-11-20T15:26:06Z</time>
      </trkpt>
      <trkpt lat="48.15494" lon="-3.31327">
        <ele>272.8</ele>
        <time>2024-11-20T15:26:07Z</time>
      </trkpt>
      <trkpt lat="48.15494" lon="-3.31325">
        <ele>272.7</ele>
        <time>2024-11-20T15:26:08Z</time>
      </trkpt>
      <trkpt lat="48.15494" lon="-3.31323">
        <ele>272.6</ele>
        <time>2024-11-20T15:26:09Z</time>
      </trkpt>
      <trkpt lat="48.15494" lon="-3.31321">
        <ele>272.6</ele>
        <time>2024-11-20T15:26:10Z</time>
      </trkpt>
      <trkpt lat="48.15494" lon="-3.31319">
        <ele>272.5</ele>
        <time>2024-11-20T15:26:11Z</time>
      </trkpt>
      <trkpt lat="48.15494" lon="-3.31317">
        <ele>272.4</ele>
        <time>2024-11-20T15:26:12Z</time>
      </trkpt>
      <trkpt lat="48.15494" lon="-3.31316">
        <ele>272.4</ele>
        <time>2024-11-20T15:26:13Z</time>
      </trkpt>
      <trkpt lat="48.15494" lon="-3.31314">
        <ele>272.3</ele>
        <time>2024-11-20T15:26:14Z</time>
      </trkpt>
      <trkpt lat="48.15493" lon="-3.31312">
        <ele>272.2</ele>
        <time>2024-11-20T15:26:15Z</time>
      </trkpt>
      <trkpt lat="48.15493" lon="-3.31311">
        <ele>272.2</ele>
        <time>2024-11-20T15:26:16Z</time>
      </trkpt>
      <trkpt lat="48.15492" lon="-3.31309">
        <ele>272.1</ele>
        <time>2024-11-20T15:26:17Z</time>
      </trkpt>
      <trkpt lat="48.15492" lon="-3.31307">
        <ele>272</ele>
        <time>2024-11-20T15:26:18Z</time>
      </trkpt>
      <trkpt lat="48.15491" lon="-3.31304">
        <ele>272</ele>
        <time>2024-11-20T15:26:19Z</time>
      </trkpt>
      <trkpt lat="48.15491" lon="-3.31303">
        <ele>272</ele>
        <time>2024-11-20T15:26:20Z</time>
      </trkpt>
      <trkpt lat="48.15491" lon="-3.31301">
        <ele>271.9</ele>
        <time>2024-11-20T15:26:21Z</time>
      </trkpt>
      <trkpt lat="48.1549" lon="-3.313">
        <ele>271.9</ele>
        <time>2024-11-20T15:26:22Z</time>
      </trkpt>
      <trkpt lat="48.1549" lon="-3.31298">
        <ele>271.9</ele>
        <time>2024-11-20T15:26:23Z</time>
      </trkpt>
      <trkpt lat="48.15489" lon="-3.31297">
        <ele>271.9</ele>
        <time>2024-11-20T15:26:24Z</time>
      </trkpt>
      <trkpt lat="48.15489" lon="-3.31295">
        <ele>271.9</ele>
        <time>2024-11-20T15:26:25Z</time>
      </trkpt>
      <trkpt lat="48.15489" lon="-3.31294">
        <ele>271.8</ele>
        <time>2024-11-20T15:26:26Z</time>
      </trkpt>
      <trkpt lat="48.15489" lon="-3.31292">
        <ele>271.8</ele>
        <time>2024-11-20T15:26:27Z</time>
      </trkpt>
      <trkpt lat="48.1549" lon="-3.31291">
        <ele>271.8</ele>
        <time>2024-11-20T15:26:28Z</time>
      </trkpt>
      <trkpt lat="48.1549" lon="-3.31289">
        <ele>271.8</ele>
        <time>2024-11-20T15:26:29Z</time>
      </trkpt>
      <trkpt lat="48.1549" lon="-3.31288">
        <ele>271.8</ele>
        <time>2024-11-20T15:26:30Z</time>
      </trkpt>
      <trkpt lat="48.1549" lon="-3.31286">
        <ele>271.7</ele>
        <time>2024-11-20T15:26:31Z</time>
      </trkpt>
      <trkpt lat="48.15489" lon="-3.31285">
        <ele>271.7</ele>
        <time>2024-11-20T15:26:32Z</time>
      </trkpt>
      <trkpt lat="48.15489" lon="-3.31283">
        <ele>271.7</ele>
        <time>2024-11-20T15:26:33Z</time>
      </trkpt>
      <trkpt lat="48.15489" lon="-3.31281">
        <ele>271.6</ele>
        <time>2024-11-20T15:26:34Z</time>
      </trkpt>
      <trkpt lat="48.15488" lon="-3.31278">
        <ele>271.6</ele>
        <time>2024-11-20T15:26:35Z</time>
      </trkpt>
      <trkpt lat="48.15488" lon="-3.31276">
        <ele>271.6</ele>
        <time>2024-11-20T15:26:36Z</time>
      </trkpt>
      <trkpt lat="48.15488" lon="-3.31273">
        <ele>271.5</ele>
        <time>2024-11-20T15:26:37Z</time>
      </trkpt>
      <trkpt lat="48.15487" lon="-3.31271">
        <ele>271.5</ele>
        <time>2024-11-20T15:26:38Z</time>
      </trkpt>
      <trkpt lat="48.15487" lon="-3.3127">
        <ele>271.5</ele>
        <time>2024-11-20T15:26:39Z</time>
      </trkpt>
      <trkpt lat="48.15486" lon="-3.31268">
        <ele>271.5</ele>
        <time>2024-11-20T15:26:40Z</time>
      </trkpt>
      <trkpt lat="48.15486" lon="-3.31266">
        <ele>271.5</ele>
        <time>2024-11-20T15:26:41Z</time>
      </trkpt>
      <trkpt lat="48.15485" lon="-3.31265">
        <ele>271.5</ele>
        <time>2024-11-20T15:26:42Z</time>
      </trkpt>
      <trkpt lat="48.15485" lon="-3.31263">
        <ele>271.5</ele>
        <time>2024-11-20T15:26:43Z</time>
      </trkpt>
      <trkpt lat="48.15484" lon="-3.31262">
        <ele>271.4</ele>
        <time>2024-11-20T15:26:44Z</time>
      </trkpt>
      <trkpt lat="48.15484" lon="-3.3126">
        <ele>271.4</ele>
        <time>2024-11-20T15:26:45Z</time>
      </trkpt>
      <trkpt lat="48.15484" lon="-3.3126">
        <ele>271.4</ele>
        <time>2024-11-20T15:26:46Z</time>
      </trkpt>
      <trkpt lat="48.15483" lon="-3.31259">
        <ele>271.4</ele>
        <time>2024-11-20T15:26:47Z</time>
      </trkpt>
      <trkpt lat="48.15483" lon="-3.31258">
        <ele>271.4</ele>
        <time>2024-11-20T15:26:48Z</time>
      </trkpt>
      <trkpt lat="48.15482" lon="-3.31256">
        <ele>271.4</ele>
        <time>2024-11-20T15:26:49Z</time>
      </trkpt>
      <trkpt lat="48.15481" lon="-3.31254">
        <ele>271.3</ele>
        <time>2024-11-20T15:26:50Z</time>
      </trkpt>
      <trkpt lat="48.15481" lon="-3.31253">
        <ele>271.3</ele>
        <time>2024-11-20T15:26:51Z</time>
      </trkpt>
      <trkpt lat="48.1548" lon="-3.31251">
        <ele>271.3</ele>
        <time>2024-11-20T15:26:52Z</time>
      </trkpt>
      <trkpt lat="48.1548" lon="-3.31249">
        <ele>271.3</ele>
        <time>2024-11-20T15:26:53Z</time>
      </trkpt>
      <trkpt lat="48.15479" lon="-3.31248">
        <ele>271.3</ele>
        <time>2024-11-20T15:26:54Z</time>
      </trkpt>
      <trkpt lat="48.15478" lon="-3.31246">
        <ele>271.4</ele>
        <time>2024-11-20T15:26:55Z</time>
      </trkpt>
      <trkpt lat="48.15478" lon="-3.31244">
        <ele>271.4</ele>
        <time>2024-11-20T15:26:56Z</time>
      </trkpt>
      <trkpt lat="48.15478" lon="-3.31243">
        <ele>271.4</ele>
        <time>2024-11-20T15:26:57Z</time>
      </trkpt>
      <trkpt lat="48.15478" lon="-3.31242">
        <ele>271.5</ele>
        <time>2024-11-20T15:26:58Z</time>
      </trkpt>
      <trkpt lat="48.15478" lon="-3.3124">
        <ele>271.6</ele>
        <time>2024-11-20T15:26:59Z</time>
      </trkpt>
      <trkpt lat="48.15478" lon="-3.31239">
        <ele>271.6</ele>
        <time>2024-11-20T15:27:00Z</time>
      </trkpt>
      <trkpt lat="48.15478" lon="-3.31237">
        <ele>271.7</ele>
        <time>2024-11-20T15:27:01Z</time>
      </trkpt>
      <trkpt lat="48.15478" lon="-3.31235">
        <ele>271.7</ele>
        <time>2024-11-20T15:27:02Z</time>
      </trkpt>
      <trkpt lat="48.15477" lon="-3.31234">
        <ele>271.8</ele>
        <time>2024-11-20T15:27:03Z</time>
      </trkpt>
      <trkpt lat="48.15477" lon="-3.31233">
        <ele>271.8</ele>
        <time>2024-11-20T15:27:04Z</time>
      </trkpt>
      <trkpt lat="48.15477" lon="-3.31232">
        <ele>271.8</ele>
        <time>2024-11-20T15:27:05Z</time>
      </trkpt>
      <trkpt lat="48.15476" lon="-3.3123">
        <ele>271.9</ele>
        <time>2024-11-20T15:27:06Z</time>
      </trkpt>
      <trkpt lat="48.15476" lon="-3.31228">
        <ele>271.9</ele>
        <time>2024-11-20T15:27:07Z</time>
      </trkpt>
      <trkpt lat="48.15475" lon="-3.31226">
        <ele>272</ele>
        <time>2024-11-20T15:27:08Z</time>
      </trkpt>
      <trkpt lat="48.15475" lon="-3.31225">
        <ele>272</ele>
        <time>2024-11-20T15:27:09Z</time>
      </trkpt>
      <trkpt lat="48.15475" lon="-3.31224">
        <ele>272</ele>
        <time>2024-11-20T15:27:10Z</time>
      </trkpt>
      <trkpt lat="48.15474" lon="-3.31223">
        <ele>272</ele>
        <time>2024-11-20T15:27:11Z</time>
      </trkpt>
      <trkpt lat="48.15473" lon="-3.31222">
        <ele>272.1</ele>
        <time>2024-11-20T15:27:12Z</time>
      </trkpt>
      <trkpt lat="48.15473" lon="-3.3122">
        <ele>272.1</ele>
        <time>2024-11-20T15:27:13Z</time>
      </trkpt>
      <trkpt lat="48.15472" lon="-3.31218">
        <ele>272.1</ele>
        <time>2024-11-20T15:27:14Z</time>
      </trkpt>
      <trkpt lat="48.15471" lon="-3.31216">
        <ele>272.2</ele>
        <time>2024-11-20T15:27:15Z</time>
      </trkpt>
      <trkpt lat="48.1547" lon="-3.31214">
        <ele>272.2</ele>
        <time>2024-11-20T15:27:16Z</time>
      </trkpt>
      <trkpt lat="48.1547" lon="-3.31213">
        <ele>272.3</ele>
        <time>2024-11-20T15:27:17Z</time>
      </trkpt>
      <trkpt lat="48.15469" lon="-3.31211">
        <ele>272.3</ele>
        <time>2024-11-20T15:27:18Z</time>
      </trkpt>
      <trkpt lat="48.15468" lon="-3.31209">
        <ele>272.3</ele>
        <time>2024-11-20T15:27:19Z</time>
      </trkpt>
      <trkpt lat="48.15468" lon="-3.31207">
        <ele>272.4</ele>
        <time>2024-11-20T15:27:20Z</time>
      </trkpt>
      <trkpt lat="48.15467" lon="-3.31205">
        <ele>272.4</ele>
        <time>2024-11-20T15:27:21Z</time>
      </trkpt>
      <trkpt lat="48.15467" lon="-3.31204">
        <ele>272.5</ele>
        <time>2024-11-20T15:27:22Z</time>
      </trkpt>
      <trkpt lat="48.15467" lon="-3.31202">
        <ele>272.5</ele>
        <time>2024-11-20T15:27:23Z</time>
      </trkpt>
      <trkpt lat="48.15466" lon="-3.31201">
        <ele>272.5</ele>
        <time>2024-11-20T15:27:24Z</time>
      </trkpt>
      <trkpt lat="48.15466" lon="-3.31199">
        <ele>272.6</ele>
        <time>2024-11-20T15:27:25Z</time>
      </trkpt>
      <trkpt lat="48.15465" lon="-3.31198">
        <ele>272.6</ele>
        <time>2024-11-20T15:27:26Z</time>
      </trkpt>
      <trkpt lat="48.15464" lon="-3.31196">
        <ele>272.7</ele>
        <time>2024-11-20T15:27:27Z</time>
      </trkpt>
      <trkpt lat="48.15464" lon="-3.31194">
        <ele>272.7</ele>
        <time>2024-11-20T15:27:28Z</time>
      </trkpt>
      <trkpt lat="48.15463" lon="-3.31192">
        <ele>272.8</ele>
        <time>2024-11-20T15:27:29Z</time>
      </trkpt>
      <trkpt lat="48.15462" lon="-3.31191">
        <ele>272.9</ele>
        <time>2024-11-20T15:27:30Z</time>
      </trkpt>
      <trkpt lat="48.15462" lon="-3.3119">
        <ele>272.9</ele>
        <time>2024-11-20T15:27:31Z</time>
      </trkpt>
      <trkpt lat="48.15461" lon="-3.31188">
        <ele>273</ele>
        <time>2024-11-20T15:27:32Z</time>
      </trkpt>
      <trkpt lat="48.15461" lon="-3.31186">
        <ele>273.1</ele>
        <time>2024-11-20T15:27:33Z</time>
      </trkpt>
      <trkpt lat="48.1546" lon="-3.31184">
        <ele>273.1</ele>
        <time>2024-11-20T15:27:34Z</time>
      </trkpt>
      <trkpt lat="48.1546" lon="-3.31183">
        <ele>273.2</ele>
        <time>2024-11-20T15:27:35Z</time>
      </trkpt>
      <trkpt lat="48.15459" lon="-3.31181">
        <ele>273.3</ele>
        <time>2024-11-20T15:27:36Z</time>
      </trkpt>
      <trkpt lat="48.15458" lon="-3.31179">
        <ele>273.3</ele>
        <time>2024-11-20T15:27:37Z</time>
      </trkpt>
      <trkpt lat="48.15458" lon="-3.31178">
        <ele>273.4</ele>
        <time>2024-11-20T15:27:38Z</time>
      </trkpt>
      <trkpt lat="48.15458" lon="-3.31176">
        <ele>273.5</ele>
        <time>2024-11-20T15:27:39Z</time>
      </trkpt>
      <trkpt lat="48.15457" lon="-3.31174">
        <ele>273.5</ele>
        <time>2024-11-20T15:27:40Z</time>
      </trkpt>
      <trkpt lat="48.15456" lon="-3.31173">
        <ele>273.5</ele>
        <time>2024-11-20T15:27:41Z</time>
      </trkpt>
      <trkpt lat="48.15456" lon="-3.31172">
        <ele>273.6</ele>
        <time>2024-11-20T15:27:42Z</time>
      </trkpt>
      <trkpt lat="48.15455" lon="-3.3117">
        <ele>273.6</ele>
        <time>2024-11-20T15:27:43Z</time>
      </trkpt>
      <trkpt lat="48.15455" lon="-3.31169">
        <ele>273.6</ele>
        <time>2024-11-20T15:27:44Z</time>
      </trkpt>
      <trkpt lat="48.15454" lon="-3.31168">
        <ele>273.7</ele>
        <time>2024-11-20T15:27:45Z</time>
      </trkpt>
      <trkpt lat="48.15454" lon="-3.31166">
        <ele>273.7</ele>
        <time>2024-11-20T15:27:46Z</time>
      </trkpt>
      <trkpt lat="48.15453" lon="-3.31165">
        <ele>273.7</ele>
        <time>2024-11-20T15:27:47Z</time>
      </trkpt>
      <trkpt lat="48.15453" lon="-3.31164">
        <ele>273.7</ele>
        <time>2024-11-20T15:27:48Z</time>
      </trkpt>
      <trkpt lat="48.15452" lon="-3.31162">
        <ele>273.7</ele>
        <time>2024-11-20T15:27:49Z</time>
      </trkpt>
      <trkpt lat="48.15452" lon="-3.3116">
        <ele>273.7</ele>
        <time>2024-11-20T15:27:50Z</time>
      </trkpt>
      <trkpt lat="48.15452" lon="-3.31159">
        <ele>273.7</ele>
        <time>2024-11-20T15:27:51Z</time>
      </trkpt>
      <trkpt lat="48.15452" lon="-3.31157">
        <ele>273.8</ele>
        <time>2024-11-20T15:27:52Z</time>
      </trkpt>
      <trkpt lat="48.15452" lon="-3.31156">
        <ele>273.8</ele>
        <time>2024-11-20T15:27:53Z</time>
      </trkpt>
      <trkpt lat="48.15451" lon="-3.31154">
        <ele>273.8</ele>
        <time>2024-11-20T15:27:54Z</time>
      </trkpt>
      <trkpt lat="48.15451" lon="-3.31153">
        <ele>273.8</ele>
        <time>2024-11-20T15:27:55Z</time>
      </trkpt>
      <trkpt lat="48.1545" lon="-3.31152">
        <ele>273.8</ele>
        <time>2024-11-20T15:27:56Z</time>
      </trkpt>
      <trkpt lat="48.1545" lon="-3.31151">
        <ele>273.8</ele>
        <time>2024-11-20T15:27:57Z</time>
      </trkpt>
      <trkpt lat="48.15449" lon="-3.3115">
        <ele>273.8</ele>
        <time>2024-11-20T15:27:58Z</time>
      </trkpt>
      <trkpt lat="48.15448" lon="-3.31149">
        <ele>273.8</ele>
        <time>2024-11-20T15:27:59Z</time>
      </trkpt>
      <trkpt lat="48.15446" lon="-3.31147">
        <ele>273.8</ele>
        <time>2024-11-20T15:28:00Z</time>
      </trkpt>
      <trkpt lat="48.15445" lon="-3.31144">
        <ele>273.8</ele>
        <time>2024-11-20T15:28:01Z</time>
      </trkpt>
      <trkpt lat="48.15445" lon="-3.31142">
        <ele>273.9</ele>
        <time>2024-11-20T15:28:02Z</time>
      </trkpt>
      <trkpt lat="48.15444" lon="-3.31141">
        <ele>273.9</ele>
        <time>2024-11-20T15:28:03Z</time>
      </trkpt>
      <trkpt lat="48.15444" lon="-3.31139">
        <ele>273.9</ele>
        <time>2024-11-20T15:28:04Z</time>
      </trkpt>
      <trkpt lat="48.15443" lon="-3.31138">
        <ele>274</ele>
        <time>2024-11-20T15:28:05Z</time>
      </trkpt>
      <trkpt lat="48.15443" lon="-3.31137">
        <ele>274</ele>
        <time>2024-11-20T15:28:06Z</time>
      </trkpt>
      <trkpt lat="48.15442" lon="-3.31135">
        <ele>274</ele>
        <time>2024-11-20T15:28:07Z</time>
      </trkpt>
      <trkpt lat="48.15442" lon="-3.31134">
        <ele>274.1</ele>
        <time>2024-11-20T15:28:08Z</time>
      </trkpt>
      <trkpt lat="48.15441" lon="-3.31132">
        <ele>274.1</ele>
        <time>2024-11-20T15:28:09Z</time>
      </trkpt>
      <trkpt lat="48.15441" lon="-3.31131">
        <ele>274.1</ele>
        <time>2024-11-20T15:28:10Z</time>
      </trkpt>
      <trkpt lat="48.1544" lon="-3.3113">
        <ele>274.1</ele>
        <time>2024-11-20T15:28:11Z</time>
      </trkpt>
      <trkpt lat="48.15439" lon="-3.31129">
        <ele>274.1</ele>
        <time>2024-11-20T15:28:12Z</time>
      </trkpt>
      <trkpt lat="48.15438" lon="-3.31128">
        <ele>274.1</ele>
        <time>2024-11-20T15:28:13Z</time>
      </trkpt>
      <trkpt lat="48.15437" lon="-3.31126">
        <ele>274.1</ele>
        <time>2024-11-20T15:28:14Z</time>
      </trkpt>
      <trkpt lat="48.15437" lon="-3.31125">
        <ele>274.1</ele>
        <time>2024-11-20T15:28:15Z</time>
      </trkpt>
      <trkpt lat="48.15436" lon="-3.31123">
        <ele>274.1</ele>
        <time>2024-11-20T15:28:16Z</time>
      </trkpt>
      <trkpt lat="48.15436" lon="-3.31122">
        <ele>274.1</ele>
        <time>2024-11-20T15:28:17Z</time>
      </trkpt>
      <trkpt lat="48.15435" lon="-3.3112">
        <ele>274.1</ele>
        <time>2024-11-20T15:28:18Z</time>
      </trkpt>
      <trkpt lat="48.15435" lon="-3.31118">
        <ele>274.1</ele>
        <time>2024-11-20T15:28:19Z</time>
      </trkpt>
      <trkpt lat="48.15434" lon="-3.31117">
        <ele>274.1</ele>
        <time>2024-11-20T15:28:20Z</time>
      </trkpt>
      <trkpt lat="48.15434" lon="-3.31115">
        <ele>274.1</ele>
        <time>2024-11-20T15:28:21Z</time>
      </trkpt>
      <trkpt lat="48.15433" lon="-3.31114">
        <ele>274.1</ele>
        <time>2024-11-20T15:28:22Z</time>
      </trkpt>
      <trkpt lat="48.15432" lon="-3.31112">
        <ele>274.1</ele>
        <time>2024-11-20T15:28:23Z</time>
      </trkpt>
      <trkpt lat="48.15432" lon="-3.3111">
        <ele>274.1</ele>
        <time>2024-11-20T15:28:24Z</time>
      </trkpt>
      <trkpt lat="48.15431" lon="-3.31108">
        <ele>274.1</ele>
        <time>2024-11-20T15:28:25Z</time>
      </trkpt>
      <trkpt lat="48.15431" lon="-3.31107">
        <ele>274.1</ele>
        <time>2024-11-20T15:28:26Z</time>
      </trkpt>
      <trkpt lat="48.1543" lon="-3.31106">
        <ele>274.1</ele>
        <time>2024-11-20T15:28:27Z</time>
      </trkpt>
      <trkpt lat="48.15429" lon="-3.31104">
        <ele>274</ele>
        <time>2024-11-20T15:28:28Z</time>
      </trkpt>
      <trkpt lat="48.15429" lon="-3.31103">
        <ele>274</ele>
        <time>2024-11-20T15:28:29Z</time>
      </trkpt>
      <trkpt lat="48.15428" lon="-3.31101">
        <ele>274</ele>
        <time>2024-11-20T15:28:30Z</time>
      </trkpt>
      <trkpt lat="48.15428" lon="-3.311">
        <ele>274</ele>
        <time>2024-11-20T15:28:31Z</time>
      </trkpt>
      <trkpt lat="48.15427" lon="-3.31099">
        <ele>274</ele>
        <time>2024-11-20T15:28:32Z</time>
      </trkpt>
      <trkpt lat="48.15426" lon="-3.31097">
        <ele>274</ele>
        <time>2024-11-20T15:28:33Z</time>
      </trkpt>
      <trkpt lat="48.15426" lon="-3.31096">
        <ele>274</ele>
        <time>2024-11-20T15:28:34Z</time>
      </trkpt>
      <trkpt lat="48.15426" lon="-3.31094">
        <ele>274.1</ele>
        <time>2024-11-20T15:28:35Z</time>
      </trkpt>
      <trkpt lat="48.15425" lon="-3.31092">
        <ele>274.1</ele>
        <time>2024-11-20T15:28:36Z</time>
      </trkpt>
      <trkpt lat="48.15425" lon="-3.31091">
        <ele>274.1</ele>
        <time>2024-11-20T15:28:37Z</time>
      </trkpt>
      <trkpt lat="48.15424" lon="-3.31089">
        <ele>274.1</ele>
        <time>2024-11-20T15:28:38Z</time>
      </trkpt>
      <trkpt lat="48.15423" lon="-3.31088">
        <ele>274.1</ele>
        <time>2024-11-20T15:28:39Z</time>
      </trkpt>
      <trkpt lat="48.15422" lon="-3.31086">
        <ele>274.1</ele>
        <time>2024-11-20T15:28:40Z</time>
      </trkpt>
      <trkpt lat="48.15422" lon="-3.31085">
        <ele>274.1</ele>
        <time>2024-11-20T15:28:41Z</time>
      </trkpt>
      <trkpt lat="48.15421" lon="-3.31084">
        <ele>274.1</ele>
        <time>2024-11-20T15:28:42Z</time>
      </trkpt>
      <trkpt lat="48.15421" lon="-3.31083">
        <ele>274.2</ele>
        <time>2024-11-20T15:28:43Z</time>
      </trkpt>
      <trkpt lat="48.1542" lon="-3.31082">
        <ele>274.2</ele>
        <time>2024-11-20T15:28:44Z</time>
      </trkpt>
      <trkpt lat="48.15419" lon="-3.31081">
        <ele>274.2</ele>
        <time>2024-11-20T15:28:45Z</time>
      </trkpt>
      <trkpt lat="48.15418" lon="-3.3108">
        <ele>274.2</ele>
        <time>2024-11-20T15:28:46Z</time>
      </trkpt>
      <trkpt lat="48.15418" lon="-3.31079">
        <ele>274.2</ele>
        <time>2024-11-20T15:28:47Z</time>
      </trkpt>
      <trkpt lat="48.15418" lon="-3.31078">
        <ele>274.2</ele>
        <time>2024-11-20T15:28:48Z</time>
      </trkpt>
      <trkpt lat="48.15418" lon="-3.31078">
        <ele>274.2</ele>
        <time>2024-11-20T15:28:49Z</time>
      </trkpt>
      <trkpt lat="48.15417" lon="-3.31077">
        <ele>274.3</ele>
        <time>2024-11-20T15:28:50Z</time>
      </trkpt>
      <trkpt lat="48.15417" lon="-3.31075">
        <ele>274.3</ele>
        <time>2024-11-20T15:28:51Z</time>
      </trkpt>
      <trkpt lat="48.15417" lon="-3.31074">
        <ele>274.3</ele>
        <time>2024-11-20T15:28:52Z</time>
      </trkpt>
      <trkpt lat="48.15416" lon="-3.31072">
        <ele>274.4</ele>
        <time>2024-11-20T15:28:53Z</time>
      </trkpt>
      <trkpt lat="48.15416" lon="-3.31071">
        <ele>274.4</ele>
        <time>2024-11-20T15:28:54Z</time>
      </trkpt>
      <trkpt lat="48.15415" lon="-3.3107">
        <ele>274.4</ele>
        <time>2024-11-20T15:28:55Z</time>
      </trkpt>
      <trkpt lat="48.15414" lon="-3.31068">
        <ele>274.4</ele>
        <time>2024-11-20T15:28:56Z</time>
      </trkpt>
      <trkpt lat="48.15413" lon="-3.31067">
        <ele>274.5</ele>
        <time>2024-11-20T15:28:57Z</time>
      </trkpt>
      <trkpt lat="48.15412" lon="-3.31065">
        <ele>274.5</ele>
        <time>2024-11-20T15:28:58Z</time>
      </trkpt>
      <trkpt lat="48.15411" lon="-3.31064">
        <ele>274.5</ele>
        <time>2024-11-20T15:28:59Z</time>
      </trkpt>
      <trkpt lat="48.1541" lon="-3.31062">
        <ele>274.5</ele>
        <time>2024-11-20T15:29:00Z</time>
      </trkpt>
      <trkpt lat="48.15409" lon="-3.31062">
        <ele>274.5</ele>
        <time>2024-11-20T15:29:01Z</time>
      </trkpt>
      <trkpt lat="48.15408" lon="-3.31061">
        <ele>274.5</ele>
        <time>2024-11-20T15:29:02Z</time>
      </trkpt>
      <trkpt lat="48.15407" lon="-3.3106">
        <ele>274.5</ele>
        <time>2024-11-20T15:29:03Z</time>
      </trkpt>
      <trkpt lat="48.15406" lon="-3.31059">
        <ele>274.5</ele>
        <time>2024-11-20T15:29:04Z</time>
      </trkpt>
      <trkpt lat="48.15406" lon="-3.31057">
        <ele>274.5</ele>
        <time>2024-11-20T15:29:05Z</time>
      </trkpt>
      <trkpt lat="48.15405" lon="-3.31056">
        <ele>274.6</ele>
        <time>2024-11-20T15:29:06Z</time>
      </trkpt>
      <trkpt lat="48.15404" lon="-3.31055">
        <ele>274.6</ele>
        <time>2024-11-20T15:29:07Z</time>
      </trkpt>
      <trkpt lat="48.15404" lon="-3.31054">
        <ele>274.6</ele>
        <time>2024-11-20T15:29:08Z</time>
      </trkpt>
      <trkpt lat="48.15403" lon="-3.31053">
        <ele>274.5</ele>
        <time>2024-11-20T15:29:09Z</time>
      </trkpt>
      <trkpt lat="48.15402" lon="-3.31053">
        <ele>274.5</ele>
        <time>2024-11-20T15:29:10Z</time>
      </trkpt>
      <trkpt lat="48.15401" lon="-3.31051">
        <ele>274.5</ele>
        <time>2024-11-20T15:29:11Z</time>
      </trkpt>
      <trkpt lat="48.154" lon="-3.3105">
        <ele>274.5</ele>
        <time>2024-11-20T15:29:12Z</time>
      </trkpt>
      <trkpt lat="48.15399" lon="-3.31048">
        <ele>274.5</ele>
        <time>2024-11-20T15:29:13Z</time>
      </trkpt>
      <trkpt lat="48.15399" lon="-3.31047">
        <ele>274.5</ele>
        <time>2024-11-20T15:29:14Z</time>
      </trkpt>
      <trkpt lat="48.15398" lon="-3.31045">
        <ele>274.4</ele>
        <time>2024-11-20T15:29:15Z</time>
      </trkpt>
      <trkpt lat="48.15397" lon="-3.31043">
        <ele>274.4</ele>
        <time>2024-11-20T15:29:16Z</time>
      </trkpt>
      <trkpt lat="48.15397" lon="-3.31041">
        <ele>274.4</ele>
        <time>2024-11-20T15:29:17Z</time>
      </trkpt>
      <trkpt lat="48.15396" lon="-3.31039">
        <ele>274.4</ele>
        <time>2024-11-20T15:29:18Z</time>
      </trkpt>
      <trkpt lat="48.15395" lon="-3.31038">
        <ele>274.4</ele>
        <time>2024-11-20T15:29:19Z</time>
      </trkpt>
      <trkpt lat="48.15395" lon="-3.31037">
        <ele>274.3</ele>
        <time>2024-11-20T15:29:20Z</time>
      </trkpt>
      <trkpt lat="48.15394" lon="-3.31036">
        <ele>274.3</ele>
        <time>2024-11-20T15:29:21Z</time>
      </trkpt>
      <trkpt lat="48.15393" lon="-3.31034">
        <ele>274.2</ele>
        <time>2024-11-20T15:29:22Z</time>
      </trkpt>
      <trkpt lat="48.15392" lon="-3.31033">
        <ele>274.2</ele>
        <time>2024-11-20T15:29:23Z</time>
      </trkpt>
      <trkpt lat="48.15392" lon="-3.31032">
        <ele>274.2</ele>
        <time>2024-11-20T15:29:24Z</time>
      </trkpt>
      <trkpt lat="48.15391" lon="-3.3103">
        <ele>274.1</ele>
        <time>2024-11-20T15:29:25Z</time>
      </trkpt>
      <trkpt lat="48.1539" lon="-3.31029">
        <ele>274.1</ele>
        <time>2024-11-20T15:29:26Z</time>
      </trkpt>
      <trkpt lat="48.1539" lon="-3.31027">
        <ele>274.1</ele>
        <time>2024-11-20T15:29:27Z</time>
      </trkpt>
      <trkpt lat="48.15389" lon="-3.31025">
        <ele>274.1</ele>
        <time>2024-11-20T15:29:28Z</time>
      </trkpt>
      <trkpt lat="48.15388" lon="-3.31024">
        <ele>274.1</ele>
        <time>2024-11-20T15:29:29Z</time>
      </trkpt>
      <trkpt lat="48.15387" lon="-3.31023">
        <ele>274.1</ele>
        <time>2024-11-20T15:29:30Z</time>
      </trkpt>
      <trkpt lat="48.15386" lon="-3.31021">
        <ele>274.1</ele>
        <time>2024-11-20T15:29:31Z</time>
      </trkpt>
      <trkpt lat="48.15385" lon="-3.3102">
        <ele>274.1</ele>
        <time>2024-11-20T15:29:32Z</time>
      </trkpt>
      <trkpt lat="48.15384" lon="-3.31018">
        <ele>274.1</ele>
        <time>2024-11-20T15:29:33Z</time>
      </trkpt>
      <trkpt lat="48.15383" lon="-3.31017">
        <ele>274.1</ele>
        <time>2024-11-20T15:29:34Z</time>
      </trkpt>
      <trkpt lat="48.15383" lon="-3.31016">
        <ele>274.1</ele>
        <time>2024-11-20T15:29:35Z</time>
      </trkpt>
      <trkpt lat="48.15382" lon="-3.31015">
        <ele>274.1</ele>
        <time>2024-11-20T15:29:36Z</time>
      </trkpt>
      <trkpt lat="48.15381" lon="-3.31013">
        <ele>274.1</ele>
        <time>2024-11-20T15:29:37Z</time>
      </trkpt>
      <trkpt lat="48.15381" lon="-3.31011">
        <ele>274.1</ele>
        <time>2024-11-20T15:29:38Z</time>
      </trkpt>
      <trkpt lat="48.1538" lon="-3.3101">
        <ele>274.1</ele>
        <time>2024-11-20T15:29:39Z</time>
      </trkpt>
      <trkpt lat="48.15379" lon="-3.31009">
        <ele>274.1</ele>
        <time>2024-11-20T15:29:40Z</time>
      </trkpt>
      <trkpt lat="48.15378" lon="-3.31008">
        <ele>274</ele>
        <time>2024-11-20T15:29:41Z</time>
      </trkpt>
      <trkpt lat="48.15377" lon="-3.31006">
        <ele>274</ele>
        <time>2024-11-20T15:29:42Z</time>
      </trkpt>
      <trkpt lat="48.15376" lon="-3.31005">
        <ele>274</ele>
        <time>2024-11-20T15:29:43Z</time>
      </trkpt>
      <trkpt lat="48.15375" lon="-3.31004">
        <ele>273.9</ele>
        <time>2024-11-20T15:29:44Z</time>
      </trkpt>
      <trkpt lat="48.15374" lon="-3.31002">
        <ele>273.9</ele>
        <time>2024-11-20T15:29:45Z</time>
      </trkpt>
      <trkpt lat="48.15374" lon="-3.31">
        <ele>273.9</ele>
        <time>2024-11-20T15:29:46Z</time>
      </trkpt>
      <trkpt lat="48.15373" lon="-3.30998">
        <ele>273.9</ele>
        <time>2024-11-20T15:29:47Z</time>
      </trkpt>
      <trkpt lat="48.15372" lon="-3.30997">
        <ele>273.9</ele>
        <time>2024-11-20T15:29:48Z</time>
      </trkpt>
      <trkpt lat="48.15372" lon="-3.30996">
        <ele>273.9</ele>
        <time>2024-11-20T15:29:49Z</time>
      </trkpt>
      <trkpt lat="48.15371" lon="-3.30995">
        <ele>273.9</ele>
        <time>2024-11-20T15:29:50Z</time>
      </trkpt>
      <trkpt lat="48.1537" lon="-3.30993">
        <ele>273.8</ele>
        <time>2024-11-20T15:29:51Z</time>
      </trkpt>
      <trkpt lat="48.15369" lon="-3.30992">
        <ele>273.8</ele>
        <time>2024-11-20T15:29:52Z</time>
      </trkpt>
      <trkpt lat="48.15369" lon="-3.30991">
        <ele>273.8</ele>
        <time>2024-11-20T15:29:53Z</time>
      </trkpt>
      <trkpt lat="48.15368" lon="-3.3099">
        <ele>273.8</ele>
        <time>2024-11-20T15:29:54Z</time>
      </trkpt>
      <trkpt lat="48.15367" lon="-3.30988">
        <ele>273.7</ele>
        <time>2024-11-20T15:29:55Z</time>
      </trkpt>
      <trkpt lat="48.15366" lon="-3.30987">
        <ele>273.7</ele>
        <time>2024-11-20T15:29:56Z</time>
      </trkpt>
      <trkpt lat="48.15365" lon="-3.30986">
        <ele>273.7</ele>
        <time>2024-11-20T15:29:57Z</time>
      </trkpt>
      <trkpt lat="48.15364" lon="-3.30985">
        <ele>273.7</ele>
        <time>2024-11-20T15:29:58Z</time>
      </trkpt>
      <trkpt lat="48.15364" lon="-3.30983">
        <ele>273.7</ele>
        <time>2024-11-20T15:29:59Z</time>
      </trkpt>
      <trkpt lat="48.15363" lon="-3.30982">
        <ele>273.7</ele>
        <time>2024-11-20T15:30:00Z</time>
      </trkpt>
      <trkpt lat="48.15362" lon="-3.3098">
        <ele>273.7</ele>
        <time>2024-11-20T15:30:01Z</time>
      </trkpt>
      <trkpt lat="48.15361" lon="-3.30979">
        <ele>273.8</ele>
        <time>2024-11-20T15:30:02Z</time>
      </trkpt>
      <trkpt lat="48.1536" lon="-3.30977">
        <ele>273.8</ele>
        <time>2024-11-20T15:30:03Z</time>
      </trkpt>
      <trkpt lat="48.15359" lon="-3.30976">
        <ele>273.8</ele>
        <time>2024-11-20T15:30:04Z</time>
      </trkpt>
      <trkpt lat="48.15358" lon="-3.30974">
        <ele>273.8</ele>
        <time>2024-11-20T15:30:05Z</time>
      </trkpt>
      <trkpt lat="48.15357" lon="-3.30973">
        <ele>273.8</ele>
        <time>2024-11-20T15:30:06Z</time>
      </trkpt>
      <trkpt lat="48.15357" lon="-3.30972">
        <ele>273.9</ele>
        <time>2024-11-20T15:30:07Z</time>
      </trkpt>
      <trkpt lat="48.15357" lon="-3.30971">
        <ele>273.9</ele>
        <time>2024-11-20T15:30:08Z</time>
      </trkpt>
      <trkpt lat="48.15356" lon="-3.30971">
        <ele>273.9</ele>
        <time>2024-11-20T15:30:09Z</time>
      </trkpt>
      <trkpt lat="48.15355" lon="-3.30969">
        <ele>273.9</ele>
        <time>2024-11-20T15:30:10Z</time>
      </trkpt>
      <trkpt lat="48.1535" lon="-3.30961">
        <ele>273.9</ele>
        <time>2024-11-20T15:30:15Z</time>
      </trkpt>
      <trkpt lat="48.15349" lon="-3.30959">
        <ele>273.8</ele>
        <time>2024-11-20T15:30:16Z</time>
      </trkpt>
      <trkpt lat="48.15348" lon="-3.30958">
        <ele>273.8</ele>
        <time>2024-11-20T15:30:17Z</time>
      </trkpt>
      <trkpt lat="48.15347" lon="-3.30956">
        <ele>273.8</ele>
        <time>2024-11-20T15:30:18Z</time>
      </trkpt>
      <trkpt lat="48.15347" lon="-3.30955">
        <ele>273.8</ele>
        <time>2024-11-20T15:30:19Z</time>
      </trkpt>
      <trkpt lat="48.15346" lon="-3.30954">
        <ele>273.7</ele>
        <time>2024-11-20T15:30:20Z</time>
      </trkpt>
      <trkpt lat="48.15345" lon="-3.30954">
        <ele>273.7</ele>
        <time>2024-11-20T15:30:21Z</time>
      </trkpt>
      <trkpt lat="48.15344" lon="-3.30953">
        <ele>273.7</ele>
        <time>2024-11-20T15:30:22Z</time>
      </trkpt>
      <trkpt lat="48.15343" lon="-3.30951">
        <ele>273.6</ele>
        <time>2024-11-20T15:30:23Z</time>
      </trkpt>
      <trkpt lat="48.15342" lon="-3.3095">
        <ele>273.6</ele>
        <time>2024-11-20T15:30:24Z</time>
      </trkpt>
      <trkpt lat="48.15342" lon="-3.30949">
        <ele>273.5</ele>
        <time>2024-11-20T15:30:25Z</time>
      </trkpt>
      <trkpt lat="48.1534" lon="-3.30947">
        <ele>273.5</ele>
        <time>2024-11-20T15:30:26Z</time>
      </trkpt>
      <trkpt lat="48.15339" lon="-3.30946">
        <ele>273.4</ele>
        <time>2024-11-20T15:30:27Z</time>
      </trkpt>
      <trkpt lat="48.15339" lon="-3.30945">
        <ele>273.4</ele>
        <time>2024-11-20T15:30:28Z</time>
      </trkpt>
      <trkpt lat="48.15338" lon="-3.30944">
        <ele>273.3</ele>
        <time>2024-11-20T15:30:29Z</time>
      </trkpt>
      <trkpt lat="48.15337" lon="-3.30942">
        <ele>273.2</ele>
        <time>2024-11-20T15:30:30Z</time>
      </trkpt>
      <trkpt lat="48.15336" lon="-3.3094">
        <ele>273.2</ele>
        <time>2024-11-20T15:30:31Z</time>
      </trkpt>
      <trkpt lat="48.15334" lon="-3.30938">
        <ele>273.1</ele>
        <time>2024-11-20T15:30:32Z</time>
      </trkpt>
      <trkpt lat="48.15333" lon="-3.30936">
        <ele>273</ele>
        <time>2024-11-20T15:30:33Z</time>
      </trkpt>
      <trkpt lat="48.15332" lon="-3.30935">
        <ele>272.9</ele>
        <time>2024-11-20T15:30:34Z</time>
      </trkpt>
      <trkpt lat="48.15332" lon="-3.30934">
        <ele>272.9</ele>
        <time>2024-11-20T15:30:35Z</time>
      </trkpt>
      <trkpt lat="48.15331" lon="-3.30933">
        <ele>272.8</ele>
        <time>2024-11-20T15:30:36Z</time>
      </trkpt>
      <trkpt lat="48.1533" lon="-3.30932">
        <ele>272.8</ele>
        <time>2024-11-20T15:30:37Z</time>
      </trkpt>
      <trkpt lat="48.15329" lon="-3.30931">
        <ele>272.7</ele>
        <time>2024-11-20T15:30:38Z</time>
      </trkpt>
      <trkpt lat="48.15328" lon="-3.3093">
        <ele>272.6</ele>
        <time>2024-11-20T15:30:39Z</time>
      </trkpt>
      <trkpt lat="48.15327" lon="-3.30929">
        <ele>272.6</ele>
        <time>2024-11-20T15:30:40Z</time>
      </trkpt>
      <trkpt lat="48.15326" lon="-3.30927">
        <ele>272.5</ele>
        <time>2024-11-20T15:30:41Z</time>
      </trkpt>
      <trkpt lat="48.15325" lon="-3.30927">
        <ele>272.4</ele>
        <time>2024-11-20T15:30:42Z</time>
      </trkpt>
      <trkpt lat="48.15325" lon="-3.30926">
        <ele>272.4</ele>
        <time>2024-11-20T15:30:43Z</time>
      </trkpt>
      <trkpt lat="48.15324" lon="-3.30925">
        <ele>272.3</ele>
        <time>2024-11-20T15:30:44Z</time>
      </trkpt>
      <trkpt lat="48.15324" lon="-3.30925">
        <ele>272.3</ele>
        <time>2024-11-20T15:30:45Z</time>
      </trkpt>
      <trkpt lat="48.15324" lon="-3.30925">
        <ele>272.3</ele>
        <time>2024-11-20T15:30:46Z</time>
      </trkpt>
      <trkpt lat="48.15323" lon="-3.30924">
        <ele>272.2</ele>
        <time>2024-11-20T15:30:47Z</time>
      </trkpt>
      <trkpt lat="48.15322" lon="-3.30922">
        <ele>272.1</ele>
        <time>2024-11-20T15:30:48Z</time>
      </trkpt>
      <trkpt lat="48.15321" lon="-3.30921">
        <ele>272.1</ele>
        <time>2024-11-20T15:30:49Z</time>
      </trkpt>
      <trkpt lat="48.15319" lon="-3.30919">
        <ele>272</ele>
        <time>2024-11-20T15:30:50Z</time>
      </trkpt>
      <trkpt lat="48.15319" lon="-3.30917">
        <ele>271.9</ele>
        <time>2024-11-20T15:30:51Z</time>
      </trkpt>
      <trkpt lat="48.15318" lon="-3.30915">
        <ele>271.9</ele>
        <time>2024-11-20T15:30:52Z</time>
      </trkpt>
      <trkpt lat="48.15317" lon="-3.30914">
        <ele>271.8</ele>
        <time>2024-11-20T15:30:53Z</time>
      </trkpt>
      <trkpt lat="48.15316" lon="-3.30912">
        <ele>271.8</ele>
        <time>2024-11-20T15:30:54Z</time>
      </trkpt>
      <trkpt lat="48.15315" lon="-3.30911">
        <ele>271.7</ele>
        <time>2024-11-20T15:30:55Z</time>
      </trkpt>
      <trkpt lat="48.15314" lon="-3.30909">
        <ele>271.7</ele>
        <time>2024-11-20T15:30:56Z</time>
      </trkpt>
      <trkpt lat="48.15313" lon="-3.30908">
        <ele>271.6</ele>
        <time>2024-11-20T15:30:57Z</time>
      </trkpt>
      <trkpt lat="48.15313" lon="-3.30907">
        <ele>271.6</ele>
        <time>2024-11-20T15:30:58Z</time>
      </trkpt>
      <trkpt lat="48.15312" lon="-3.30906">
        <ele>271.5</ele>
        <time>2024-11-20T15:30:59Z</time>
      </trkpt>
      <trkpt lat="48.15311" lon="-3.30905">
        <ele>271.5</ele>
        <time>2024-11-20T15:31:00Z</time>
      </trkpt>
      <trkpt lat="48.1531" lon="-3.30903">
        <ele>271.4</ele>
        <time>2024-11-20T15:31:01Z</time>
      </trkpt>
      <trkpt lat="48.15309" lon="-3.30901">
        <ele>271.3</ele>
        <time>2024-11-20T15:31:02Z</time>
      </trkpt>
      <trkpt lat="48.15308" lon="-3.309">
        <ele>271.2</ele>
        <time>2024-11-20T15:31:03Z</time>
      </trkpt>
      <trkpt lat="48.15307" lon="-3.30898">
        <ele>271.1</ele>
        <time>2024-11-20T15:31:04Z</time>
      </trkpt>
      <trkpt lat="48.15306" lon="-3.30897">
        <ele>271.1</ele>
        <time>2024-11-20T15:31:05Z</time>
      </trkpt>
      <trkpt lat="48.15305" lon="-3.30896">
        <ele>271</ele>
        <time>2024-11-20T15:31:06Z</time>
      </trkpt>
      <trkpt lat="48.15304" lon="-3.30894">
        <ele>271</ele>
        <time>2024-11-20T15:31:07Z</time>
      </trkpt>
      <trkpt lat="48.15303" lon="-3.30893">
        <ele>270.9</ele>
        <time>2024-11-20T15:31:08Z</time>
      </trkpt>
      <trkpt lat="48.15302" lon="-3.30891">
        <ele>270.9</ele>
        <time>2024-11-20T15:31:09Z</time>
      </trkpt>
      <trkpt lat="48.15301" lon="-3.3089">
        <ele>270.8</ele>
        <time>2024-11-20T15:31:10Z</time>
      </trkpt>
      <trkpt lat="48.153" lon="-3.30888">
        <ele>270.8</ele>
        <time>2024-11-20T15:31:11Z</time>
      </trkpt>
      <trkpt lat="48.15299" lon="-3.30886">
        <ele>270.8</ele>
        <time>2024-11-20T15:31:12Z</time>
      </trkpt>
      <trkpt lat="48.15298" lon="-3.30885">
        <ele>270.7</ele>
        <time>2024-11-20T15:31:13Z</time>
      </trkpt>
      <trkpt lat="48.15297" lon="-3.30883">
        <ele>270.7</ele>
        <time>2024-11-20T15:31:14Z</time>
      </trkpt>
      <trkpt lat="48.15296" lon="-3.30882">
        <ele>270.7</ele>
        <time>2024-11-20T15:31:15Z</time>
      </trkpt>
      <trkpt lat="48.15295" lon="-3.3088">
        <ele>270.6</ele>
        <time>2024-11-20T15:31:16Z</time>
      </trkpt>
      <trkpt lat="48.15294" lon="-3.30879">
        <ele>270.6</ele>
        <time>2024-11-20T15:31:17Z</time>
      </trkpt>
      <trkpt lat="48.15293" lon="-3.30878">
        <ele>270.6</ele>
        <time>2024-11-20T15:31:18Z</time>
      </trkpt>
      <trkpt lat="48.15292" lon="-3.30877">
        <ele>270.5</ele>
        <time>2024-11-20T15:31:19Z</time>
      </trkpt>
      <trkpt lat="48.15291" lon="-3.30876">
        <ele>270.5</ele>
        <time>2024-11-20T15:31:20Z</time>
      </trkpt>
      <trkpt lat="48.1529" lon="-3.30874">
        <ele>270.4</ele>
        <time>2024-11-20T15:31:21Z</time>
      </trkpt>
      <trkpt lat="48.15289" lon="-3.30873">
        <ele>270.4</ele>
        <time>2024-11-20T15:31:22Z</time>
      </trkpt>
      <trkpt lat="48.15288" lon="-3.30872">
        <ele>270.4</ele>
        <time>2024-11-20T15:31:23Z</time>
      </trkpt>
      <trkpt lat="48.15287" lon="-3.3087">
        <ele>270.3</ele>
        <time>2024-11-20T15:31:24Z</time>
      </trkpt>
      <trkpt lat="48.15286" lon="-3.30868">
        <ele>270.3</ele>
        <time>2024-11-20T15:31:25Z</time>
      </trkpt>
      <trkpt lat="48.15285" lon="-3.30867">
        <ele>270.2</ele>
        <time>2024-11-20T15:31:26Z</time>
      </trkpt>
      <trkpt lat="48.15284" lon="-3.30866">
        <ele>270.2</ele>
        <time>2024-11-20T15:31:27Z</time>
      </trkpt>
      <trkpt lat="48.15283" lon="-3.30865">
        <ele>270.2</ele>
        <time>2024-11-20T15:31:28Z</time>
      </trkpt>
      <trkpt lat="48.15282" lon="-3.30865">
        <ele>270.1</ele>
        <time>2024-11-20T15:31:29Z</time>
      </trkpt>
      <trkpt lat="48.15281" lon="-3.30865">
        <ele>270.1</ele>
        <time>2024-11-20T15:31:30Z</time>
      </trkpt>
      <trkpt lat="48.1528" lon="-3.30864">
        <ele>270.1</ele>
        <time>2024-11-20T15:31:31Z</time>
      </trkpt>
      <trkpt lat="48.15279" lon="-3.30863">
        <ele>270.1</ele>
        <time>2024-11-20T15:31:32Z</time>
      </trkpt>
      <trkpt lat="48.15279" lon="-3.30862">
        <ele>270</ele>
        <time>2024-11-20T15:31:33Z</time>
      </trkpt>
      <trkpt lat="48.15277" lon="-3.30861">
        <ele>270</ele>
        <time>2024-11-20T15:31:34Z</time>
      </trkpt>
      <trkpt lat="48.15276" lon="-3.30859">
        <ele>269.9</ele>
        <time>2024-11-20T15:31:35Z</time>
      </trkpt>
      <trkpt lat="48.15276" lon="-3.30857">
        <ele>269.8</ele>
        <time>2024-11-20T15:31:36Z</time>
      </trkpt>
      <trkpt lat="48.15275" lon="-3.30856">
        <ele>269.8</ele>
        <time>2024-11-20T15:31:37Z</time>
      </trkpt>
      <trkpt lat="48.15273" lon="-3.30854">
        <ele>269.7</ele>
        <time>2024-11-20T15:31:38Z</time>
      </trkpt>
      <trkpt lat="48.15272" lon="-3.30853">
        <ele>269.6</ele>
        <time>2024-11-20T15:31:39Z</time>
      </trkpt>
      <trkpt lat="48.15271" lon="-3.30852">
        <ele>269.6</ele>
        <time>2024-11-20T15:31:40Z</time>
      </trkpt>
      <trkpt lat="48.1527" lon="-3.30851">
        <ele>269.6</ele>
        <time>2024-11-20T15:31:41Z</time>
      </trkpt>
      <trkpt lat="48.1527" lon="-3.3085">
        <ele>269.5</ele>
        <time>2024-11-20T15:31:42Z</time>
      </trkpt>
      <trkpt lat="48.15268" lon="-3.30849">
        <ele>269.5</ele>
        <time>2024-11-20T15:31:43Z</time>
      </trkpt>
      <trkpt lat="48.15267" lon="-3.30848">
        <ele>269.4</ele>
        <time>2024-11-20T15:31:44Z</time>
      </trkpt>
      <trkpt lat="48.15267" lon="-3.30847">
        <ele>269.4</ele>
        <time>2024-11-20T15:31:45Z</time>
      </trkpt>
      <trkpt lat="48.15266" lon="-3.30846">
        <ele>269.4</ele>
        <time>2024-11-20T15:31:46Z</time>
      </trkpt>
      <trkpt lat="48.15265" lon="-3.30845">
        <ele>269.3</ele>
        <time>2024-11-20T15:31:47Z</time>
      </trkpt>
      <trkpt lat="48.15264" lon="-3.30844">
        <ele>269.3</ele>
        <time>2024-11-20T15:31:48Z</time>
      </trkpt>
      <trkpt lat="48.15263" lon="-3.30843">
        <ele>269.3</ele>
        <time>2024-11-20T15:31:49Z</time>
      </trkpt>
      <trkpt lat="48.15262" lon="-3.30842">
        <ele>269.2</ele>
        <time>2024-11-20T15:31:50Z</time>
      </trkpt>
      <trkpt lat="48.15261" lon="-3.30841">
        <ele>269.2</ele>
        <time>2024-11-20T15:31:51Z</time>
      </trkpt>
      <trkpt lat="48.1526" lon="-3.3084">
        <ele>269.2</ele>
        <time>2024-11-20T15:31:52Z</time>
      </trkpt>
      <trkpt lat="48.15259" lon="-3.30839">
        <ele>269.2</ele>
        <time>2024-11-20T15:31:53Z</time>
      </trkpt>
      <trkpt lat="48.15257" lon="-3.30838">
        <ele>269.1</ele>
        <time>2024-11-20T15:31:54Z</time>
      </trkpt>
      <trkpt lat="48.15256" lon="-3.30836">
        <ele>269.1</ele>
        <time>2024-11-20T15:31:55Z</time>
      </trkpt>
      <trkpt lat="48.15256" lon="-3.30835">
        <ele>269.1</ele>
        <time>2024-11-20T15:31:56Z</time>
      </trkpt>
      <trkpt lat="48.15255" lon="-3.30834">
        <ele>269.2</ele>
        <time>2024-11-20T15:31:57Z</time>
      </trkpt>
      <trkpt lat="48.15254" lon="-3.30833">
        <ele>269.1</ele>
        <time>2024-11-20T15:31:58Z</time>
      </trkpt>
      <trkpt lat="48.15253" lon="-3.30832">
        <ele>269.1</ele>
        <time>2024-11-20T15:31:59Z</time>
      </trkpt>
      <trkpt lat="48.15252" lon="-3.3083">
        <ele>269.1</ele>
        <time>2024-11-20T15:32:00Z</time>
      </trkpt>
      <trkpt lat="48.15251" lon="-3.30829">
        <ele>269</ele>
        <time>2024-11-20T15:32:01Z</time>
      </trkpt>
      <trkpt lat="48.1525" lon="-3.30828">
        <ele>269</ele>
        <time>2024-11-20T15:32:02Z</time>
      </trkpt>
      <trkpt lat="48.15249" lon="-3.30827">
        <ele>268.9</ele>
        <time>2024-11-20T15:32:03Z</time>
      </trkpt>
      <trkpt lat="48.15248" lon="-3.30825">
        <ele>268.9</ele>
        <time>2024-11-20T15:32:04Z</time>
      </trkpt>
      <trkpt lat="48.15247" lon="-3.30824">
        <ele>268.8</ele>
        <time>2024-11-20T15:32:05Z</time>
      </trkpt>
      <trkpt lat="48.15246" lon="-3.30822">
        <ele>268.7</ele>
        <time>2024-11-20T15:32:06Z</time>
      </trkpt>
      <trkpt lat="48.15245" lon="-3.30821">
        <ele>268.7</ele>
        <time>2024-11-20T15:32:07Z</time>
      </trkpt>
      <trkpt lat="48.15244" lon="-3.3082">
        <ele>268.7</ele>
        <time>2024-11-20T15:32:08Z</time>
      </trkpt>
      <trkpt lat="48.15242" lon="-3.30818">
        <ele>268.6</ele>
        <time>2024-11-20T15:32:09Z</time>
      </trkpt>
      <trkpt lat="48.15241" lon="-3.30817">
        <ele>268.6</ele>
        <time>2024-11-20T15:32:10Z</time>
      </trkpt>
      <trkpt lat="48.1524" lon="-3.30816">
        <ele>268.5</ele>
        <time>2024-11-20T15:32:11Z</time>
      </trkpt>
      <trkpt lat="48.15239" lon="-3.30815">
        <ele>268.5</ele>
        <time>2024-11-20T15:32:12Z</time>
      </trkpt>
      <trkpt lat="48.15238" lon="-3.30813">
        <ele>268.5</ele>
        <time>2024-11-20T15:32:13Z</time>
      </trkpt>
      <trkpt lat="48.15237" lon="-3.30812">
        <ele>268.4</ele>
        <time>2024-11-20T15:32:14Z</time>
      </trkpt>
      <trkpt lat="48.15237" lon="-3.30811">
        <ele>268.4</ele>
        <time>2024-11-20T15:32:15Z</time>
      </trkpt>
      <trkpt lat="48.15236" lon="-3.3081">
        <ele>268.4</ele>
        <time>2024-11-20T15:32:16Z</time>
      </trkpt>
      <trkpt lat="48.15235" lon="-3.30809">
        <ele>268.4</ele>
        <time>2024-11-20T15:32:17Z</time>
      </trkpt>
      <trkpt lat="48.15234" lon="-3.30808">
        <ele>268.4</ele>
        <time>2024-11-20T15:32:18Z</time>
      </trkpt>
      <trkpt lat="48.15233" lon="-3.30807">
        <ele>268.4</ele>
        <time>2024-11-20T15:32:19Z</time>
      </trkpt>
      <trkpt lat="48.15232" lon="-3.30806">
        <ele>268.4</ele>
        <time>2024-11-20T15:32:20Z</time>
      </trkpt>
      <trkpt lat="48.15232" lon="-3.30805">
        <ele>268.3</ele>
        <time>2024-11-20T15:32:21Z</time>
      </trkpt>
      <trkpt lat="48.15231" lon="-3.30804">
        <ele>268.3</ele>
        <time>2024-11-20T15:32:22Z</time>
      </trkpt>
      <trkpt lat="48.1523" lon="-3.30802">
        <ele>268.2</ele>
        <time>2024-11-20T15:32:23Z</time>
      </trkpt>
      <trkpt lat="48.15229" lon="-3.30801">
        <ele>268.2</ele>
        <time>2024-11-20T15:32:24Z</time>
      </trkpt>
      <trkpt lat="48.15227" lon="-3.308">
        <ele>268.1</ele>
        <time>2024-11-20T15:32:25Z</time>
      </trkpt>
      <trkpt lat="48.15226" lon="-3.30798">
        <ele>268.1</ele>
        <time>2024-11-20T15:32:26Z</time>
      </trkpt>
      <trkpt lat="48.15225" lon="-3.30797">
        <ele>268.1</ele>
        <time>2024-11-20T15:32:27Z</time>
      </trkpt>
      <trkpt lat="48.15224" lon="-3.30796">
        <ele>268</ele>
        <time>2024-11-20T15:32:28Z</time>
      </trkpt>
      <trkpt lat="48.15223" lon="-3.30794">
        <ele>268</ele>
        <time>2024-11-20T15:32:29Z</time>
      </trkpt>
      <trkpt lat="48.15222" lon="-3.30793">
        <ele>268</ele>
        <time>2024-11-20T15:32:30Z</time>
      </trkpt>
      <trkpt lat="48.15221" lon="-3.30792">
        <ele>267.9</ele>
        <time>2024-11-20T15:32:31Z</time>
      </trkpt>
      <trkpt lat="48.15219" lon="-3.3079">
        <ele>267.9</ele>
        <time>2024-11-20T15:32:32Z</time>
      </trkpt>
      <trkpt lat="48.15219" lon="-3.3079">
        <ele>267.9</ele>
        <time>2024-11-20T15:32:33Z</time>
      </trkpt>
      <trkpt lat="48.15218" lon="-3.30789">
        <ele>267.8</ele>
        <time>2024-11-20T15:32:34Z</time>
      </trkpt>
      <trkpt lat="48.15217" lon="-3.30788">
        <ele>267.8</ele>
        <time>2024-11-20T15:32:35Z</time>
      </trkpt>
      <trkpt lat="48.15217" lon="-3.30787">
        <ele>267.8</ele>
        <time>2024-11-20T15:32:36Z</time>
      </trkpt>
      <trkpt lat="48.15216" lon="-3.30787">
        <ele>267.8</ele>
        <time>2024-11-20T15:32:37Z</time>
      </trkpt>
      <trkpt lat="48.15215" lon="-3.30786">
        <ele>267.7</ele>
        <time>2024-11-20T15:32:38Z</time>
      </trkpt>
      <trkpt lat="48.15214" lon="-3.30785">
        <ele>267.7</ele>
        <time>2024-11-20T15:32:39Z</time>
      </trkpt>
      <trkpt lat="48.15214" lon="-3.30785">
        <ele>267.7</ele>
        <time>2024-11-20T15:32:40Z</time>
      </trkpt>
      <trkpt lat="48.15213" lon="-3.30784">
        <ele>267.7</ele>
        <time>2024-11-20T15:32:41Z</time>
      </trkpt>
      <trkpt lat="48.15212" lon="-3.30784">
        <ele>267.6</ele>
        <time>2024-11-20T15:32:42Z</time>
      </trkpt>
      <trkpt lat="48.15211" lon="-3.30783">
        <ele>267.6</ele>
        <time>2024-11-20T15:32:43Z</time>
      </trkpt>
      <trkpt lat="48.1521" lon="-3.30783">
        <ele>267.6</ele>
        <time>2024-11-20T15:32:44Z</time>
      </trkpt>
      <trkpt lat="48.15209" lon="-3.30783">
        <ele>267.5</ele>
        <time>2024-11-20T15:32:45Z</time>
      </trkpt>
      <trkpt lat="48.15208" lon="-3.30782">
        <ele>267.5</ele>
        <time>2024-11-20T15:32:46Z</time>
      </trkpt>
      <trkpt lat="48.15207" lon="-3.30782">
        <ele>267.5</ele>
        <time>2024-11-20T15:32:47Z</time>
      </trkpt>
      <trkpt lat="48.15206" lon="-3.30781">
        <ele>267.4</ele>
        <time>2024-11-20T15:32:48Z</time>
      </trkpt>
      <trkpt lat="48.15205" lon="-3.30779">
        <ele>267.4</ele>
        <time>2024-11-20T15:32:49Z</time>
      </trkpt>
      <trkpt lat="48.15204" lon="-3.30778">
        <ele>267.3</ele>
        <time>2024-11-20T15:32:50Z</time>
      </trkpt>
      <trkpt lat="48.15203" lon="-3.30777">
        <ele>267.3</ele>
        <time>2024-11-20T15:32:51Z</time>
      </trkpt>
      <trkpt lat="48.15202" lon="-3.30777">
        <ele>267.3</ele>
        <time>2024-11-20T15:32:52Z</time>
      </trkpt>
      <trkpt lat="48.15201" lon="-3.30776">
        <ele>267.2</ele>
        <time>2024-11-20T15:32:53Z</time>
      </trkpt>
      <trkpt lat="48.152" lon="-3.30775">
        <ele>267.2</ele>
        <time>2024-11-20T15:32:54Z</time>
      </trkpt>
      <trkpt lat="48.15199" lon="-3.30773">
        <ele>267.1</ele>
        <time>2024-11-20T15:32:55Z</time>
      </trkpt>
      <trkpt lat="48.15198" lon="-3.30772">
        <ele>267.1</ele>
        <time>2024-11-20T15:32:56Z</time>
      </trkpt>
      <trkpt lat="48.15198" lon="-3.30771">
        <ele>267.1</ele>
        <time>2024-11-20T15:32:57Z</time>
      </trkpt>
      <trkpt lat="48.15197" lon="-3.3077">
        <ele>267.1</ele>
        <time>2024-11-20T15:32:58Z</time>
      </trkpt>
      <trkpt lat="48.15196" lon="-3.3077">
        <ele>267</ele>
        <time>2024-11-20T15:32:59Z</time>
      </trkpt>
      <trkpt lat="48.15195" lon="-3.3077">
        <ele>267</ele>
        <time>2024-11-20T15:33:00Z</time>
      </trkpt>
      <trkpt lat="48.15195" lon="-3.30769">
        <ele>267</ele>
        <time>2024-11-20T15:33:01Z</time>
      </trkpt>
      <trkpt lat="48.15194" lon="-3.30768">
        <ele>267</ele>
        <time>2024-11-20T15:33:02Z</time>
      </trkpt>
      <trkpt lat="48.15193" lon="-3.30767">
        <ele>267</ele>
        <time>2024-11-20T15:33:03Z</time>
      </trkpt>
      <trkpt lat="48.15192" lon="-3.30765">
        <ele>267</ele>
        <time>2024-11-20T15:33:04Z</time>
      </trkpt>
      <trkpt lat="48.15191" lon="-3.30764">
        <ele>267</ele>
        <time>2024-11-20T15:33:05Z</time>
      </trkpt>
      <trkpt lat="48.1519" lon="-3.30763">
        <ele>267</ele>
        <time>2024-11-20T15:33:06Z</time>
      </trkpt>
      <trkpt lat="48.15189" lon="-3.30762">
        <ele>267</ele>
        <time>2024-11-20T15:33:07Z</time>
      </trkpt>
      <trkpt lat="48.15188" lon="-3.30761">
        <ele>267</ele>
        <time>2024-11-20T15:33:08Z</time>
      </trkpt>
      <trkpt lat="48.15187" lon="-3.3076">
        <ele>267</ele>
        <time>2024-11-20T15:33:09Z</time>
      </trkpt>
      <trkpt lat="48.15187" lon="-3.30759">
        <ele>267</ele>
        <time>2024-11-20T15:33:10Z</time>
      </trkpt>
      <trkpt lat="48.15186" lon="-3.30758">
        <ele>267</ele>
        <time>2024-11-20T15:33:11Z</time>
      </trkpt>
      <trkpt lat="48.15185" lon="-3.30757">
        <ele>267</ele>
        <time>2024-11-20T15:33:12Z</time>
      </trkpt>
      <trkpt lat="48.15184" lon="-3.30756">
        <ele>267</ele>
        <time>2024-11-20T15:33:13Z</time>
      </trkpt>
      <trkpt lat="48.15183" lon="-3.30754">
        <ele>267</ele>
        <time>2024-11-20T15:33:14Z</time>
      </trkpt>
      <trkpt lat="48.15183" lon="-3.30753">
        <ele>267</ele>
        <time>2024-11-20T15:33:15Z</time>
      </trkpt>
      <trkpt lat="48.15182" lon="-3.30751">
        <ele>267</ele>
        <time>2024-11-20T15:33:16Z</time>
      </trkpt>
      <trkpt lat="48.15181" lon="-3.30749">
        <ele>267</ele>
        <time>2024-11-20T15:33:17Z</time>
      </trkpt>
      <trkpt lat="48.1518" lon="-3.30747">
        <ele>267</ele>
        <time>2024-11-20T15:33:18Z</time>
      </trkpt>
      <trkpt lat="48.15179" lon="-3.30746">
        <ele>267</ele>
        <time>2024-11-20T15:33:19Z</time>
      </trkpt>
      <trkpt lat="48.15179" lon="-3.30745">
        <ele>267</ele>
        <time>2024-11-20T15:33:20Z</time>
      </trkpt>
      <trkpt lat="48.15178" lon="-3.30743">
        <ele>267</ele>
        <time>2024-11-20T15:33:21Z</time>
      </trkpt>
      <trkpt lat="48.15177" lon="-3.30742">
        <ele>267</ele>
        <time>2024-11-20T15:33:22Z</time>
      </trkpt>
      <trkpt lat="48.15176" lon="-3.30741">
        <ele>267</ele>
        <time>2024-11-20T15:33:23Z</time>
      </trkpt>
      <trkpt lat="48.15175" lon="-3.3074">
        <ele>267</ele>
        <time>2024-11-20T15:33:24Z</time>
      </trkpt>
      <trkpt lat="48.15174" lon="-3.30739">
        <ele>267</ele>
        <time>2024-11-20T15:33:25Z</time>
      </trkpt>
      <trkpt lat="48.15173" lon="-3.30738">
        <ele>267</ele>
        <time>2024-11-20T15:33:26Z</time>
      </trkpt>
      <trkpt lat="48.15172" lon="-3.30736">
        <ele>267</ele>
        <time>2024-11-20T15:33:27Z</time>
      </trkpt>
      <trkpt lat="48.15171" lon="-3.30735">
        <ele>267</ele>
        <time>2024-11-20T15:33:28Z</time>
      </trkpt>
      <trkpt lat="48.1517" lon="-3.30734">
        <ele>267</ele>
        <time>2024-11-20T15:33:29Z</time>
      </trkpt>
      <trkpt lat="48.15169" lon="-3.30733">
        <ele>267</ele>
        <time>2024-11-20T15:33:30Z</time>
      </trkpt>
      <trkpt lat="48.15168" lon="-3.30732">
        <ele>267</ele>
        <time>2024-11-20T15:33:31Z</time>
      </trkpt>
      <trkpt lat="48.15168" lon="-3.30731">
        <ele>267</ele>
        <time>2024-11-20T15:33:32Z</time>
      </trkpt>
      <trkpt lat="48.15167" lon="-3.3073">
        <ele>267</ele>
        <time>2024-11-20T15:33:33Z</time>
      </trkpt>
      <trkpt lat="48.15166" lon="-3.30728">
        <ele>267</ele>
        <time>2024-11-20T15:33:34Z</time>
      </trkpt>
      <trkpt lat="48.15165" lon="-3.30728">
        <ele>267</ele>
        <time>2024-11-20T15:33:35Z</time>
      </trkpt>
      <trkpt lat="48.15165" lon="-3.30727">
        <ele>266.9</ele>
        <time>2024-11-20T15:33:36Z</time>
      </trkpt>
      <trkpt lat="48.15164" lon="-3.30726">
        <ele>266.9</ele>
        <time>2024-11-20T15:33:37Z</time>
      </trkpt>
      <trkpt lat="48.15163" lon="-3.30725">
        <ele>266.9</ele>
        <time>2024-11-20T15:33:38Z</time>
      </trkpt>
      <trkpt lat="48.15162" lon="-3.30723">
        <ele>266.8</ele>
        <time>2024-11-20T15:33:39Z</time>
      </trkpt>
      <trkpt lat="48.15161" lon="-3.30722">
        <ele>266.8</ele>
        <time>2024-11-20T15:33:40Z</time>
      </trkpt>
      <trkpt lat="48.1516" lon="-3.30721">
        <ele>266.7</ele>
        <time>2024-11-20T15:33:41Z</time>
      </trkpt>
      <trkpt lat="48.15159" lon="-3.3072">
        <ele>266.6</ele>
        <time>2024-11-20T15:33:42Z</time>
      </trkpt>
      <trkpt lat="48.15158" lon="-3.30719">
        <ele>266.6</ele>
        <time>2024-11-20T15:33:43Z</time>
      </trkpt>
      <trkpt lat="48.15158" lon="-3.30718">
        <ele>266.5</ele>
        <time>2024-11-20T15:33:44Z</time>
      </trkpt>
      <trkpt lat="48.15157" lon="-3.30717">
        <ele>266.4</ele>
        <time>2024-11-20T15:33:45Z</time>
      </trkpt>
      <trkpt lat="48.15156" lon="-3.30716">
        <ele>266.4</ele>
        <time>2024-11-20T15:33:46Z</time>
      </trkpt>
      <trkpt lat="48.15155" lon="-3.30714">
        <ele>266.3</ele>
        <time>2024-11-20T15:33:47Z</time>
      </trkpt>
      <trkpt lat="48.15154" lon="-3.30713">
        <ele>266.2</ele>
        <time>2024-11-20T15:33:48Z</time>
      </trkpt>
      <trkpt lat="48.15153" lon="-3.30712">
        <ele>266.1</ele>
        <time>2024-11-20T15:33:49Z</time>
      </trkpt>
      <trkpt lat="48.15153" lon="-3.3071">
        <ele>266.1</ele>
        <time>2024-11-20T15:33:50Z</time>
      </trkpt>
      <trkpt lat="48.15152" lon="-3.30709">
        <ele>266</ele>
        <time>2024-11-20T15:33:51Z</time>
      </trkpt>
      <trkpt lat="48.15151" lon="-3.30708">
        <ele>265.9</ele>
        <time>2024-11-20T15:33:52Z</time>
      </trkpt>
      <trkpt lat="48.1515" lon="-3.30707">
        <ele>265.8</ele>
        <time>2024-11-20T15:33:53Z</time>
      </trkpt>
      <trkpt lat="48.15149" lon="-3.30706">
        <ele>265.8</ele>
        <time>2024-11-20T15:33:54Z</time>
      </trkpt>
      <trkpt lat="48.15149" lon="-3.30705">
        <ele>265.7</ele>
        <time>2024-11-20T15:33:55Z</time>
      </trkpt>
      <trkpt lat="48.15148" lon="-3.30704">
        <ele>265.7</ele>
        <time>2024-11-20T15:33:56Z</time>
      </trkpt>
      <trkpt lat="48.15147" lon="-3.30703">
        <ele>265.6</ele>
        <time>2024-11-20T15:33:57Z</time>
      </trkpt>
      <trkpt lat="48.15146" lon="-3.30702">
        <ele>265.5</ele>
        <time>2024-11-20T15:33:58Z</time>
      </trkpt>
      <trkpt lat="48.15145" lon="-3.307">
        <ele>265.4</ele>
        <time>2024-11-20T15:33:59Z</time>
      </trkpt>
      <trkpt lat="48.15144" lon="-3.30699">
        <ele>265.4</ele>
        <time>2024-11-20T15:34:00Z</time>
      </trkpt>
      <trkpt lat="48.15143" lon="-3.30698">
        <ele>265.3</ele>
        <time>2024-11-20T15:34:01Z</time>
      </trkpt>
      <trkpt lat="48.15142" lon="-3.30697">
        <ele>265.2</ele>
        <time>2024-11-20T15:34:02Z</time>
      </trkpt>
      <trkpt lat="48.15141" lon="-3.30696">
        <ele>265.1</ele>
        <time>2024-11-20T15:34:03Z</time>
      </trkpt>
      <trkpt lat="48.1514" lon="-3.30695">
        <ele>265.1</ele>
        <time>2024-11-20T15:34:04Z</time>
      </trkpt>
      <trkpt lat="48.15139" lon="-3.30694">
        <ele>265</ele>
        <time>2024-11-20T15:34:05Z</time>
      </trkpt>
      <trkpt lat="48.15138" lon="-3.30693">
        <ele>265</ele>
        <time>2024-11-20T15:34:06Z</time>
      </trkpt>
      <trkpt lat="48.15137" lon="-3.30692">
        <ele>265</ele>
        <time>2024-11-20T15:34:07Z</time>
      </trkpt>
      <trkpt lat="48.15137" lon="-3.3069">
        <ele>265.1</ele>
        <time>2024-11-20T15:34:08Z</time>
      </trkpt>
      <trkpt lat="48.15136" lon="-3.30689">
        <ele>265.1</ele>
        <time>2024-11-20T15:34:09Z</time>
      </trkpt>
      <trkpt lat="48.15135" lon="-3.30688">
        <ele>265.1</ele>
        <time>2024-11-20T15:34:10Z</time>
      </trkpt>
      <trkpt lat="48.15134" lon="-3.30686">
        <ele>265.1</ele>
        <time>2024-11-20T15:34:11Z</time>
      </trkpt>
      <trkpt lat="48.15133" lon="-3.30685">
        <ele>265.1</ele>
        <time>2024-11-20T15:34:12Z</time>
      </trkpt>
      <trkpt lat="48.15132" lon="-3.30684">
        <ele>265.1</ele>
        <time>2024-11-20T15:34:13Z</time>
      </trkpt>
      <trkpt lat="48.15131" lon="-3.30682">
        <ele>265</ele>
        <time>2024-11-20T15:34:14Z</time>
      </trkpt>
      <trkpt lat="48.1513" lon="-3.30682">
        <ele>265</ele>
        <time>2024-11-20T15:34:15Z</time>
      </trkpt>
      <trkpt lat="48.15129" lon="-3.30681">
        <ele>265</ele>
        <time>2024-11-20T15:34:16Z</time>
      </trkpt>
      <trkpt lat="48.15128" lon="-3.3068">
        <ele>265</ele>
        <time>2024-11-20T15:34:17Z</time>
      </trkpt>
      <trkpt lat="48.15127" lon="-3.30678">
        <ele>264.9</ele>
        <time>2024-11-20T15:34:18Z</time>
      </trkpt>
      <trkpt lat="48.15126" lon="-3.30677">
        <ele>264.9</ele>
        <time>2024-11-20T15:34:19Z</time>
      </trkpt>
      <trkpt lat="48.15125" lon="-3.30676">
        <ele>264.8</ele>
        <time>2024-11-20T15:34:20Z</time>
      </trkpt>
      <trkpt lat="48.15124" lon="-3.30675">
        <ele>264.8</ele>
        <time>2024-11-20T15:34:21Z</time>
      </trkpt>
      <trkpt lat="48.15124" lon="-3.30674">
        <ele>264.7</ele>
        <time>2024-11-20T15:34:22Z</time>
      </trkpt>
      <trkpt lat="48.15123" lon="-3.30673">
        <ele>264.7</ele>
        <time>2024-11-20T15:34:23Z</time>
      </trkpt>
      <trkpt lat="48.15122" lon="-3.30672">
        <ele>264.6</ele>
        <time>2024-11-20T15:34:24Z</time>
      </trkpt>
      <trkpt lat="48.15121" lon="-3.30671">
        <ele>264.5</ele>
        <time>2024-11-20T15:34:25Z</time>
      </trkpt>
      <trkpt lat="48.1512" lon="-3.3067">
        <ele>264.5</ele>
        <time>2024-11-20T15:34:26Z</time>
      </trkpt>
      <trkpt lat="48.1512" lon="-3.30669">
        <ele>264.4</ele>
        <time>2024-11-20T15:34:27Z</time>
      </trkpt>
      <trkpt lat="48.15119" lon="-3.30668">
        <ele>264.3</ele>
        <time>2024-11-20T15:34:28Z</time>
      </trkpt>
      <trkpt lat="48.15118" lon="-3.30667">
        <ele>264.2</ele>
        <time>2024-11-20T15:34:29Z</time>
      </trkpt>
      <trkpt lat="48.15117" lon="-3.30666">
        <ele>264.2</ele>
        <time>2024-11-20T15:34:30Z</time>
      </trkpt>
      <trkpt lat="48.15116" lon="-3.30664">
        <ele>264.2</ele>
        <time>2024-11-20T15:34:31Z</time>
      </trkpt>
      <trkpt lat="48.15115" lon="-3.30663">
        <ele>264.1</ele>
        <time>2024-11-20T15:34:32Z</time>
      </trkpt>
      <trkpt lat="48.15114" lon="-3.30662">
        <ele>264.1</ele>
        <time>2024-11-20T15:34:33Z</time>
      </trkpt>
      <trkpt lat="48.15113" lon="-3.30661">
        <ele>264.1</ele>
        <time>2024-11-20T15:34:34Z</time>
      </trkpt>
      <trkpt lat="48.15112" lon="-3.30661">
        <ele>264</ele>
        <time>2024-11-20T15:34:35Z</time>
      </trkpt>
      <trkpt lat="48.15111" lon="-3.3066">
        <ele>264</ele>
        <time>2024-11-20T15:34:36Z</time>
      </trkpt>
      <trkpt lat="48.1511" lon="-3.30661">
        <ele>264</ele>
        <time>2024-11-20T15:34:37Z</time>
      </trkpt>
      <trkpt lat="48.15109" lon="-3.30662">
        <ele>264</ele>
        <time>2024-11-20T15:34:38Z</time>
      </trkpt>
      <trkpt lat="48.15109" lon="-3.30663">
        <ele>264</ele>
        <time>2024-11-20T15:34:39Z</time>
      </trkpt>
      <trkpt lat="48.15109" lon="-3.30664">
        <ele>264</ele>
        <time>2024-11-20T15:34:40Z</time>
      </trkpt>
      <trkpt lat="48.1511" lon="-3.30665">
        <ele>264</ele>
        <time>2024-11-20T15:34:41Z</time>
      </trkpt>
      <trkpt lat="48.1511" lon="-3.30666">
        <ele>264</ele>
        <time>2024-11-20T15:34:42Z</time>
      </trkpt>
      <trkpt lat="48.1511" lon="-3.30666">
        <ele>264.1</ele>
        <time>2024-11-20T15:34:43Z</time>
      </trkpt>
      <trkpt lat="48.1511" lon="-3.30666">
        <ele>264.1</ele>
        <time>2024-11-20T15:34:44Z</time>
      </trkpt>
      <trkpt lat="48.1511" lon="-3.30667">
        <ele>264.1</ele>
        <time>2024-11-20T15:34:45Z</time>
      </trkpt>
      <trkpt lat="48.1511" lon="-3.30667">
        <ele>264.1</ele>
        <time>2024-11-20T15:34:46Z</time>
      </trkpt>
      <trkpt lat="48.1511" lon="-3.30667">
        <ele>264.1</ele>
        <time>2024-11-20T15:34:47Z</time>
      </trkpt>
      <trkpt lat="48.1511" lon="-3.30667">
        <ele>264.1</ele>
        <time>2024-11-20T15:34:48Z</time>
      </trkpt>
      <trkpt lat="48.15109" lon="-3.30668">
        <ele>264.2</ele>
        <time>2024-11-20T15:34:49Z</time>
      </trkpt>
      <trkpt lat="48.15109" lon="-3.30668">
        <ele>264.2</ele>
        <time>2024-11-20T15:34:50Z</time>
      </trkpt>
      <trkpt lat="48.15109" lon="-3.30668">
        <ele>264.2</ele>
        <time>2024-11-20T15:34:51Z</time>
      </trkpt>
      <trkpt lat="48.15109" lon="-3.30668">
        <ele>264.1</ele>
        <time>2024-11-20T15:34:52Z</time>
      </trkpt>
      <trkpt lat="48.15109" lon="-3.30668">
        <ele>264.2</ele>
        <time>2024-11-20T15:34:53Z</time>
      </trkpt>
      <trkpt lat="48.15109" lon="-3.30668">
        <ele>264.2</ele>
        <time>2024-11-20T15:34:54Z</time>
      </trkpt>
      <trkpt lat="48.15108" lon="-3.30668">
        <ele>264.2</ele>
        <time>2024-11-20T15:34:55Z</time>
      </trkpt>
      <trkpt lat="48.15108" lon="-3.30668">
        <ele>264.2</ele>
        <time>2024-11-20T15:34:56Z</time>
      </trkpt>
      <trkpt lat="48.15108" lon="-3.30668">
        <ele>264.2</ele>
        <time>2024-11-20T15:34:57Z</time>
      </trkpt>
      <trkpt lat="48.15109" lon="-3.30668">
        <ele>264.2</ele>
        <time>2024-11-20T15:34:58Z</time>
      </trkpt>
      <trkpt lat="48.15109" lon="-3.30668">
        <ele>264.2</ele>
        <time>2024-11-20T15:34:59Z</time>
      </trkpt>
      <trkpt lat="48.15109" lon="-3.30669">
        <ele>264.2</ele>
        <time>2024-11-20T15:35:00Z</time>
      </trkpt>
      <trkpt lat="48.15109" lon="-3.30669">
        <ele>264.2</ele>
        <time>2024-11-20T15:35:01Z</time>
      </trkpt>
      <trkpt lat="48.15109" lon="-3.30669">
        <ele>264.2</ele>
        <time>2024-11-20T15:35:02Z</time>
      </trkpt>
      <trkpt lat="48.15109" lon="-3.30669">
        <ele>264.2</ele>
        <time>2024-11-20T15:35:03Z</time>
      </trkpt>
      <trkpt lat="48.15109" lon="-3.30669">
        <ele>264.2</ele>
        <time>2024-11-20T15:35:04Z</time>
      </trkpt>
      <trkpt lat="48.15109" lon="-3.30669">
        <ele>264.2</ele>
        <time>2024-11-20T15:35:05Z</time>
      </trkpt>
      <trkpt lat="48.15109" lon="-3.30669">
        <ele>264.2</ele>
        <time>2024-11-20T15:35:06Z</time>
      </trkpt>
      <trkpt lat="48.15109" lon="-3.30669">
        <ele>264.2</ele>
        <time>2024-11-20T15:35:07Z</time>
      </trkpt>
      <trkpt lat="48.15109" lon="-3.30669">
        <ele>264.2</ele>
        <time>2024-11-20T15:35:08Z</time>
      </trkpt>
      <trkpt lat="48.15109" lon="-3.30669">
        <ele>264.2</ele>
        <time>2024-11-20T15:35:09Z</time>
      </trkpt>
      <trkpt lat="48.15109" lon="-3.30669">
        <ele>264.2</ele>
        <time>2024-11-20T15:35:10Z</time>
      </trkpt>
      <trkpt lat="48.15109" lon="-3.30669">
        <ele>264.2</ele>
        <time>2024-11-20T15:35:11Z</time>
      </trkpt>
      <trkpt lat="48.15109" lon="-3.30668">
        <ele>264.2</ele>
        <time>2024-11-20T15:35:12Z</time>
      </trkpt>
      <trkpt lat="48.15109" lon="-3.30668">
        <ele>264.2</ele>
        <time>2024-11-20T15:35:13Z</time>
      </trkpt>
      <trkpt lat="48.1511" lon="-3.30668">
        <ele>264.2</ele>
        <time>2024-11-20T15:35:14Z</time>
      </trkpt>
      <trkpt lat="48.1511" lon="-3.30668">
        <ele>264.2</ele>
        <time>2024-11-20T15:35:15Z</time>
      </trkpt>
      <trkpt lat="48.1511" lon="-3.30668">
        <ele>264.2</ele>
        <time>2024-11-20T15:35:16Z</time>
      </trkpt>
      <trkpt lat="48.1511" lon="-3.30668">
        <ele>264.2</ele>
        <time>2024-11-20T15:35:17Z</time>
      </trkpt>
      <trkpt lat="48.1511" lon="-3.30668">
        <ele>264.2</ele>
        <time>2024-11-20T15:35:18Z</time>
      </trkpt>
      <trkpt lat="48.15109" lon="-3.30668">
        <ele>264.1</ele>
        <time>2024-11-20T15:35:19Z</time>
      </trkpt>
      <trkpt lat="48.15109" lon="-3.30667">
        <ele>264.1</ele>
        <time>2024-11-20T15:35:20Z</time>
      </trkpt>
      <trkpt lat="48.15108" lon="-3.30666">
        <ele>264.1</ele>
        <time>2024-11-20T15:35:21Z</time>
      </trkpt>
      <trkpt lat="48.15108" lon="-3.30665">
        <ele>264.1</ele>
        <time>2024-11-20T15:35:22Z</time>
      </trkpt>
      <trkpt lat="48.15107" lon="-3.30665">
        <ele>264.1</ele>
        <time>2024-11-20T15:35:23Z</time>
      </trkpt>
      <trkpt lat="48.15107" lon="-3.30666">
        <ele>264.1</ele>
        <time>2024-11-20T15:35:24Z</time>
      </trkpt>
      <trkpt lat="48.15106" lon="-3.30666">
        <ele>264.2</ele>
        <time>2024-11-20T15:35:25Z</time>
      </trkpt>
      <trkpt lat="48.15106" lon="-3.30666">
        <ele>264.2</ele>
        <time>2024-11-20T15:35:26Z</time>
      </trkpt>
      <trkpt lat="48.15106" lon="-3.30667">
        <ele>264.2</ele>
        <time>2024-11-20T15:35:27Z</time>
      </trkpt>
      <trkpt lat="48.15105" lon="-3.30667">
        <ele>264.2</ele>
        <time>2024-11-20T15:35:28Z</time>
      </trkpt>
      <trkpt lat="48.15105" lon="-3.30667">
        <ele>264.3</ele>
        <time>2024-11-20T15:35:29Z</time>
      </trkpt>
      <trkpt lat="48.15104" lon="-3.30667">
        <ele>264.3</ele>
        <time>2024-11-20T15:35:30Z</time>
      </trkpt>
      <trkpt lat="48.15104" lon="-3.30667">
        <ele>264.3</ele>
        <time>2024-11-20T15:35:31Z</time>
      </trkpt>
      <trkpt lat="48.15103" lon="-3.30666">
        <ele>264.3</ele>
        <time>2024-11-20T15:35:32Z</time>
      </trkpt>
      <trkpt lat="48.15103" lon="-3.30665">
        <ele>264.2</ele>
        <time>2024-11-20T15:35:33Z</time>
      </trkpt>
      <trkpt lat="48.15102" lon="-3.30663">
        <ele>264.2</ele>
        <time>2024-11-20T15:35:34Z</time>
      </trkpt>
      <trkpt lat="48.15101" lon="-3.30662">
        <ele>264.2</ele>
        <time>2024-11-20T15:35:35Z</time>
      </trkpt>
      <trkpt lat="48.15101" lon="-3.3066">
        <ele>264.1</ele>
        <time>2024-11-20T15:35:36Z</time>
      </trkpt>
      <trkpt lat="48.151" lon="-3.30659">
        <ele>264</ele>
        <time>2024-11-20T15:35:37Z</time>
      </trkpt>
      <trkpt lat="48.151" lon="-3.30657">
        <ele>264</ele>
        <time>2024-11-20T15:35:38Z</time>
      </trkpt>
      <trkpt lat="48.15099" lon="-3.30655">
        <ele>263.9</ele>
        <time>2024-11-20T15:35:39Z</time>
      </trkpt>
      <trkpt lat="48.15099" lon="-3.30653">
        <ele>263.8</ele>
        <time>2024-11-20T15:35:40Z</time>
      </trkpt>
      <trkpt lat="48.15098" lon="-3.30652">
        <ele>263.7</ele>
        <time>2024-11-20T15:35:41Z</time>
      </trkpt>
      <trkpt lat="48.15098" lon="-3.3065">
        <ele>263.6</ele>
        <time>2024-11-20T15:35:42Z</time>
      </trkpt>
      <trkpt lat="48.15097" lon="-3.30649">
        <ele>263.5</ele>
        <time>2024-11-20T15:35:43Z</time>
      </trkpt>
      <trkpt lat="48.15097" lon="-3.30647">
        <ele>263.4</ele>
        <time>2024-11-20T15:35:44Z</time>
      </trkpt>
      <trkpt lat="48.15096" lon="-3.30646">
        <ele>263.3</ele>
        <time>2024-11-20T15:35:45Z</time>
      </trkpt>
      <trkpt lat="48.15096" lon="-3.30644">
        <ele>263.2</ele>
        <time>2024-11-20T15:35:46Z</time>
      </trkpt>
      <trkpt lat="48.15095" lon="-3.30642">
        <ele>263</ele>
        <time>2024-11-20T15:35:47Z</time>
      </trkpt>
      <trkpt lat="48.15094" lon="-3.30641">
        <ele>262.9</ele>
        <time>2024-11-20T15:35:48Z</time>
      </trkpt>
      <trkpt lat="48.15094" lon="-3.30639">
        <ele>262.7</ele>
        <time>2024-11-20T15:35:49Z</time>
      </trkpt>
      <trkpt lat="48.15093" lon="-3.30637">
        <ele>262.7</ele>
        <time>2024-11-20T15:35:50Z</time>
      </trkpt>
      <trkpt lat="48.15093" lon="-3.30635">
        <ele>262.6</ele>
        <time>2024-11-20T15:35:51Z</time>
      </trkpt>
      <trkpt lat="48.15092" lon="-3.30634">
        <ele>262.5</ele>
        <time>2024-11-20T15:35:52Z</time>
      </trkpt>
      <trkpt lat="48.15092" lon="-3.30632">
        <ele>262.4</ele>
        <time>2024-11-20T15:35:53Z</time>
      </trkpt>
      <trkpt lat="48.15091" lon="-3.30631">
        <ele>262.4</ele>
        <time>2024-11-20T15:35:54Z</time>
      </trkpt>
      <trkpt lat="48.15091" lon="-3.30629">
        <ele>262.3</ele>
        <time>2024-11-20T15:35:55Z</time>
      </trkpt>
      <trkpt lat="48.1509" lon="-3.30628">
        <ele>262.3</ele>
        <time>2024-11-20T15:35:56Z</time>
      </trkpt>
      <trkpt lat="48.15089" lon="-3.30627">
        <ele>262.2</ele>
        <time>2024-11-20T15:35:57Z</time>
      </trkpt>
      <trkpt lat="48.15089" lon="-3.30625">
        <ele>262.2</ele>
        <time>2024-11-20T15:35:58Z</time>
      </trkpt>
      <trkpt lat="48.15088" lon="-3.30624">
        <ele>262.1</ele>
        <time>2024-11-20T15:35:59Z</time>
      </trkpt>
      <trkpt lat="48.15087" lon="-3.30623">
        <ele>262.1</ele>
        <time>2024-11-20T15:36:00Z</time>
      </trkpt>
      <trkpt lat="48.15086" lon="-3.30622">
        <ele>262.1</ele>
        <time>2024-11-20T15:36:01Z</time>
      </trkpt>
      <trkpt lat="48.15086" lon="-3.3062">
        <ele>262.1</ele>
        <time>2024-11-20T15:36:02Z</time>
      </trkpt>
      <trkpt lat="48.15085" lon="-3.30619">
        <ele>262</ele>
        <time>2024-11-20T15:36:03Z</time>
      </trkpt>
      <trkpt lat="48.15082" lon="-3.30616">
        <ele>262</ele>
        <time>2024-11-20T15:36:06Z</time>
      </trkpt>
      <trkpt lat="48.15081" lon="-3.30614">
        <ele>262</ele>
        <time>2024-11-20T15:36:07Z</time>
      </trkpt>
      <trkpt lat="48.15081" lon="-3.30613">
        <ele>262</ele>
        <time>2024-11-20T15:36:08Z</time>
      </trkpt>
      <trkpt lat="48.1508" lon="-3.30612">
        <ele>262</ele>
        <time>2024-11-20T15:36:09Z</time>
      </trkpt>
      <trkpt lat="48.1508" lon="-3.30611">
        <ele>262</ele>
        <time>2024-11-20T15:36:10Z</time>
      </trkpt>
      <trkpt lat="48.15079" lon="-3.30609">
        <ele>261.9</ele>
        <time>2024-11-20T15:36:11Z</time>
      </trkpt>
      <trkpt lat="48.15078" lon="-3.30608">
        <ele>261.8</ele>
        <time>2024-11-20T15:36:12Z</time>
      </trkpt>
      <trkpt lat="48.15078" lon="-3.30606">
        <ele>261.7</ele>
        <time>2024-11-20T15:36:13Z</time>
      </trkpt>
      <trkpt lat="48.15077" lon="-3.30605">
        <ele>261.6</ele>
        <time>2024-11-20T15:36:14Z</time>
      </trkpt>
      <trkpt lat="48.15077" lon="-3.30603">
        <ele>261.5</ele>
        <time>2024-11-20T15:36:15Z</time>
      </trkpt>
      <trkpt lat="48.15076" lon="-3.30602">
        <ele>261.4</ele>
        <time>2024-11-20T15:36:16Z</time>
      </trkpt>
      <trkpt lat="48.15076" lon="-3.306">
        <ele>261.3</ele>
        <time>2024-11-20T15:36:17Z</time>
      </trkpt>
      <trkpt lat="48.15077" lon="-3.30599">
        <ele>261.2</ele>
        <time>2024-11-20T15:36:18Z</time>
      </trkpt>
      <trkpt lat="48.15077" lon="-3.30597">
        <ele>261.1</ele>
        <time>2024-11-20T15:36:19Z</time>
      </trkpt>
      <trkpt lat="48.15078" lon="-3.30596">
        <ele>261</ele>
        <time>2024-11-20T15:36:20Z</time>
      </trkpt>
      <trkpt lat="48.15079" lon="-3.30594">
        <ele>260.9</ele>
        <time>2024-11-20T15:36:21Z</time>
      </trkpt>
      <trkpt lat="48.15079" lon="-3.30593">
        <ele>260.8</ele>
        <time>2024-11-20T15:36:22Z</time>
      </trkpt>
      <trkpt lat="48.1508" lon="-3.30592">
        <ele>260.7</ele>
        <time>2024-11-20T15:36:23Z</time>
      </trkpt>
      <trkpt lat="48.1508" lon="-3.30591">
        <ele>260.6</ele>
        <time>2024-11-20T15:36:24Z</time>
      </trkpt>
      <trkpt lat="48.15081" lon="-3.3059">
        <ele>260.5</ele>
        <time>2024-11-20T15:36:25Z</time>
      </trkpt>
      <trkpt lat="48.15081" lon="-3.30589">
        <ele>260.4</ele>
        <time>2024-11-20T15:36:26Z</time>
      </trkpt>
      <trkpt lat="48.15082" lon="-3.30588">
        <ele>260.3</ele>
        <time>2024-11-20T15:36:27Z</time>
      </trkpt>
      <trkpt lat="48.15083" lon="-3.30586">
        <ele>260.2</ele>
        <time>2024-11-20T15:36:28Z</time>
      </trkpt>
      <trkpt lat="48.15083" lon="-3.30586">
        <ele>260.2</ele>
        <time>2024-11-20T15:36:29Z</time>
      </trkpt>
      <trkpt lat="48.15083" lon="-3.30586">
        <ele>260.2</ele>
        <time>2024-11-20T15:36:30Z</time>
      </trkpt>
      <trkpt lat="48.15083" lon="-3.30586">
        <ele>260.2</ele>
        <time>2024-11-20T15:36:31Z</time>
      </trkpt>
      <trkpt lat="48.15083" lon="-3.30586">
        <ele>260.2</ele>
        <time>2024-11-20T15:36:32Z</time>
      </trkpt>
      <trkpt lat="48.15083" lon="-3.30586">
        <ele>260.2</ele>
        <time>2024-11-20T15:36:33Z</time>
      </trkpt>
      <trkpt lat="48.15083" lon="-3.30586">
        <ele>260.2</ele>
        <time>2024-11-20T15:36:34Z</time>
      </trkpt>
      <trkpt lat="48.15083" lon="-3.30586">
        <ele>260.2</ele>
        <time>2024-11-20T15:36:35Z</time>
      </trkpt>
      <trkpt lat="48.15083" lon="-3.30587">
        <ele>260.2</ele>
        <time>2024-11-20T15:36:36Z</time>
      </trkpt>
      <trkpt lat="48.15084" lon="-3.30587">
        <ele>260.2</ele>
        <time>2024-11-20T15:36:37Z</time>
      </trkpt>
      <trkpt lat="48.15084" lon="-3.30586">
        <ele>260.2</ele>
        <time>2024-11-20T15:36:38Z</time>
      </trkpt>
      <trkpt lat="48.15085" lon="-3.30585">
        <ele>260.1</ele>
        <time>2024-11-20T15:36:39Z</time>
      </trkpt>
      <trkpt lat="48.15086" lon="-3.30584">
        <ele>260</ele>
        <time>2024-11-20T15:36:40Z</time>
      </trkpt>
      <trkpt lat="48.15086" lon="-3.30584">
        <ele>259.9</ele>
        <time>2024-11-20T15:36:41Z</time>
      </trkpt>
      <trkpt lat="48.15087" lon="-3.30583">
        <ele>259.8</ele>
        <time>2024-11-20T15:36:42Z</time>
      </trkpt>
      <trkpt lat="48.15088" lon="-3.30582">
        <ele>259.7</ele>
        <time>2024-11-20T15:36:43Z</time>
      </trkpt>
      <trkpt lat="48.15089" lon="-3.30581">
        <ele>259.6</ele>
        <time>2024-11-20T15:36:44Z</time>
      </trkpt>
      <trkpt lat="48.1509" lon="-3.30579">
        <ele>259.5</ele>
        <time>2024-11-20T15:36:45Z</time>
      </trkpt>
      <trkpt lat="48.15091" lon="-3.30578">
        <ele>259.3</ele>
        <time>2024-11-20T15:36:46Z</time>
      </trkpt>
      <trkpt lat="48.15091" lon="-3.30577">
        <ele>259.2</ele>
        <time>2024-11-20T15:36:47Z</time>
      </trkpt>
      <trkpt lat="48.15092" lon="-3.30576">
        <ele>259.1</ele>
        <time>2024-11-20T15:36:48Z</time>
      </trkpt>
      <trkpt lat="48.15093" lon="-3.30575">
        <ele>258.9</ele>
        <time>2024-11-20T15:36:49Z</time>
      </trkpt>
      <trkpt lat="48.15094" lon="-3.30574">
        <ele>258.8</ele>
        <time>2024-11-20T15:36:50Z</time>
      </trkpt>
      <trkpt lat="48.15095" lon="-3.30573">
        <ele>258.7</ele>
        <time>2024-11-20T15:36:51Z</time>
      </trkpt>
      <trkpt lat="48.15096" lon="-3.30572">
        <ele>258.5</ele>
        <time>2024-11-20T15:36:52Z</time>
      </trkpt>
      <trkpt lat="48.15097" lon="-3.30571">
        <ele>258.4</ele>
        <time>2024-11-20T15:36:53Z</time>
      </trkpt>
      <trkpt lat="48.15097" lon="-3.3057">
        <ele>258.3</ele>
        <time>2024-11-20T15:36:54Z</time>
      </trkpt>
      <trkpt lat="48.15098" lon="-3.30569">
        <ele>258.1</ele>
        <time>2024-11-20T15:36:55Z</time>
      </trkpt>
      <trkpt lat="48.15099" lon="-3.30567">
        <ele>257.9</ele>
        <time>2024-11-20T15:36:56Z</time>
      </trkpt>
      <trkpt lat="48.151" lon="-3.30566">
        <ele>257.8</ele>
        <time>2024-11-20T15:36:57Z</time>
      </trkpt>
      <trkpt lat="48.151" lon="-3.30564">
        <ele>257.6</ele>
        <time>2024-11-20T15:36:58Z</time>
      </trkpt>
      <trkpt lat="48.15101" lon="-3.30563">
        <ele>257.4</ele>
        <time>2024-11-20T15:36:59Z</time>
      </trkpt>
      <trkpt lat="48.15102" lon="-3.30562">
        <ele>257.3</ele>
        <time>2024-11-20T15:37:00Z</time>
      </trkpt>
      <trkpt lat="48.15103" lon="-3.30561">
        <ele>257.1</ele>
        <time>2024-11-20T15:37:01Z</time>
      </trkpt>
      <trkpt lat="48.15103" lon="-3.30559">
        <ele>256.9</ele>
        <time>2024-11-20T15:37:02Z</time>
      </trkpt>
      <trkpt lat="48.15104" lon="-3.30558">
        <ele>256.7</ele>
        <time>2024-11-20T15:37:03Z</time>
      </trkpt>
      <trkpt lat="48.15105" lon="-3.30556">
        <ele>256.5</ele>
        <time>2024-11-20T15:37:04Z</time>
      </trkpt>
      <trkpt lat="48.15106" lon="-3.30555">
        <ele>256.3</ele>
        <time>2024-11-20T15:37:05Z</time>
      </trkpt>
      <trkpt lat="48.15106" lon="-3.30553">
        <ele>256.1</ele>
        <time>2024-11-20T15:37:06Z</time>
      </trkpt>
      <trkpt lat="48.15107" lon="-3.30552">
        <ele>255.9</ele>
        <time>2024-11-20T15:37:07Z</time>
      </trkpt>
      <trkpt lat="48.15108" lon="-3.30551">
        <ele>255.8</ele>
        <time>2024-11-20T15:37:08Z</time>
      </trkpt>
      <trkpt lat="48.15108" lon="-3.3055">
        <ele>255.6</ele>
        <time>2024-11-20T15:37:09Z</time>
      </trkpt>
      <trkpt lat="48.15109" lon="-3.30548">
        <ele>255.5</ele>
        <time>2024-11-20T15:37:10Z</time>
      </trkpt>
      <trkpt lat="48.15109" lon="-3.30547">
        <ele>255.3</ele>
        <time>2024-11-20T15:37:11Z</time>
      </trkpt>
      <trkpt lat="48.1511" lon="-3.30546">
        <ele>255</ele>
        <time>2024-11-20T15:37:12Z</time>
      </trkpt>
      <trkpt lat="48.15111" lon="-3.30545">
        <ele>254.8</ele>
        <time>2024-11-20T15:37:13Z</time>
      </trkpt>
      <trkpt lat="48.15112" lon="-3.30543">
        <ele>254.7</ele>
        <time>2024-11-20T15:37:14Z</time>
      </trkpt>
      <trkpt lat="48.15113" lon="-3.30542">
        <ele>254.5</ele>
        <time>2024-11-20T15:37:15Z</time>
      </trkpt>
      <trkpt lat="48.15114" lon="-3.30541">
        <ele>254.4</ele>
        <time>2024-11-20T15:37:16Z</time>
      </trkpt>
      <trkpt lat="48.15115" lon="-3.3054">
        <ele>254.3</ele>
        <time>2024-11-20T15:37:17Z</time>
      </trkpt>
      <trkpt lat="48.15116" lon="-3.30538">
        <ele>254.1</ele>
        <time>2024-11-20T15:37:18Z</time>
      </trkpt>
      <trkpt lat="48.15117" lon="-3.30537">
        <ele>254</ele>
        <time>2024-11-20T15:37:19Z</time>
      </trkpt>
      <trkpt lat="48.15117" lon="-3.30536">
        <ele>253.9</ele>
        <time>2024-11-20T15:37:20Z</time>
      </trkpt>
      <trkpt lat="48.15118" lon="-3.30535">
        <ele>253.7</ele>
        <time>2024-11-20T15:37:21Z</time>
      </trkpt>
      <trkpt lat="48.15119" lon="-3.30533">
        <ele>253.6</ele>
        <time>2024-11-20T15:37:22Z</time>
      </trkpt>
      <trkpt lat="48.15119" lon="-3.30532">
        <ele>253.4</ele>
        <time>2024-11-20T15:37:23Z</time>
      </trkpt>
      <trkpt lat="48.1512" lon="-3.30531">
        <ele>253.3</ele>
        <time>2024-11-20T15:37:24Z</time>
      </trkpt>
      <trkpt lat="48.1512" lon="-3.3053">
        <ele>253.2</ele>
        <time>2024-11-20T15:37:25Z</time>
      </trkpt>
      <trkpt lat="48.15121" lon="-3.30529">
        <ele>253.1</ele>
        <time>2024-11-20T15:37:26Z</time>
      </trkpt>
      <trkpt lat="48.15121" lon="-3.30528">
        <ele>253.1</ele>
        <time>2024-11-20T15:37:27Z</time>
      </trkpt>
      <trkpt lat="48.15121" lon="-3.30528">
        <ele>253</ele>
        <time>2024-11-20T15:37:28Z</time>
      </trkpt>
      <trkpt lat="48.15122" lon="-3.30527">
        <ele>253</ele>
        <time>2024-11-20T15:37:29Z</time>
      </trkpt>
      <trkpt lat="48.15123" lon="-3.30527">
        <ele>252.9</ele>
        <time>2024-11-20T15:37:30Z</time>
      </trkpt>
      <trkpt lat="48.15124" lon="-3.30526">
        <ele>252.8</ele>
        <time>2024-11-20T15:37:31Z</time>
      </trkpt>
      <trkpt lat="48.15125" lon="-3.30525">
        <ele>252.7</ele>
        <time>2024-11-20T15:37:32Z</time>
      </trkpt>
      <trkpt lat="48.15125" lon="-3.30523">
        <ele>252.6</ele>
        <time>2024-11-20T15:37:33Z</time>
      </trkpt>
      <trkpt lat="48.15126" lon="-3.30522">
        <ele>252.5</ele>
        <time>2024-11-20T15:37:34Z</time>
      </trkpt>
      <trkpt lat="48.15127" lon="-3.30521">
        <ele>252.3</ele>
        <time>2024-11-20T15:37:35Z</time>
      </trkpt>
      <trkpt lat="48.15128" lon="-3.30519">
        <ele>252.2</ele>
        <time>2024-11-20T15:37:36Z</time>
      </trkpt>
      <trkpt lat="48.15128" lon="-3.30517">
        <ele>252</ele>
        <time>2024-11-20T15:37:37Z</time>
      </trkpt>
      <trkpt lat="48.15129" lon="-3.30516">
        <ele>251.9</ele>
        <time>2024-11-20T15:37:38Z</time>
      </trkpt>
      <trkpt lat="48.15129" lon="-3.30515">
        <ele>251.8</ele>
        <time>2024-11-20T15:37:39Z</time>
      </trkpt>
      <trkpt lat="48.1513" lon="-3.30514">
        <ele>251.7</ele>
        <time>2024-11-20T15:37:40Z</time>
      </trkpt>
      <trkpt lat="48.15131" lon="-3.30513">
        <ele>251.6</ele>
        <time>2024-11-20T15:37:41Z</time>
      </trkpt>
      <trkpt lat="48.15132" lon="-3.30512">
        <ele>251.4</ele>
        <time>2024-11-20T15:37:42Z</time>
      </trkpt>
      <trkpt lat="48.15133" lon="-3.3051">
        <ele>251.2</ele>
        <time>2024-11-20T15:37:43Z</time>
      </trkpt>
      <trkpt lat="48.15133" lon="-3.30509">
        <ele>251.1</ele>
        <time>2024-11-20T15:37:44Z</time>
      </trkpt>
      <trkpt lat="48.15134" lon="-3.30508">
        <ele>251</ele>
        <time>2024-11-20T15:37:45Z</time>
      </trkpt>
      <trkpt lat="48.15134" lon="-3.30506">
        <ele>250.8</ele>
        <time>2024-11-20T15:37:46Z</time>
      </trkpt>
      <trkpt lat="48.15134" lon="-3.30505">
        <ele>250.6</ele>
        <time>2024-11-20T15:37:47Z</time>
      </trkpt>
      <trkpt lat="48.15134" lon="-3.30503">
        <ele>250.4</ele>
        <time>2024-11-20T15:37:48Z</time>
      </trkpt>
      <trkpt lat="48.15134" lon="-3.30501">
        <ele>250.3</ele>
        <time>2024-11-20T15:37:49Z</time>
      </trkpt>
      <trkpt lat="48.15134" lon="-3.305">
        <ele>250.1</ele>
        <time>2024-11-20T15:37:50Z</time>
      </trkpt>
      <trkpt lat="48.15134" lon="-3.30498">
        <ele>250</ele>
        <time>2024-11-20T15:37:51Z</time>
      </trkpt>
      <trkpt lat="48.15134" lon="-3.30497">
        <ele>249.9</ele>
        <time>2024-11-20T15:37:52Z</time>
      </trkpt>
      <trkpt lat="48.15134" lon="-3.30495">
        <ele>249.7</ele>
        <time>2024-11-20T15:37:53Z</time>
      </trkpt>
      <trkpt lat="48.15134" lon="-3.30493">
        <ele>249.5</ele>
        <time>2024-11-20T15:37:54Z</time>
      </trkpt>
      <trkpt lat="48.15134" lon="-3.30492">
        <ele>249.4</ele>
        <time>2024-11-20T15:37:55Z</time>
      </trkpt>
      <trkpt lat="48.15134" lon="-3.3049">
        <ele>249.2</ele>
        <time>2024-11-20T15:37:56Z</time>
      </trkpt>
      <trkpt lat="48.15134" lon="-3.30488">
        <ele>249.1</ele>
        <time>2024-11-20T15:37:57Z</time>
      </trkpt>
      <trkpt lat="48.15133" lon="-3.30487">
        <ele>249</ele>
        <time>2024-11-20T15:37:58Z</time>
      </trkpt>
      <trkpt lat="48.15133" lon="-3.30485">
        <ele>248.8</ele>
        <time>2024-11-20T15:37:59Z</time>
      </trkpt>
      <trkpt lat="48.15133" lon="-3.30484">
        <ele>248.7</ele>
        <time>2024-11-20T15:38:00Z</time>
      </trkpt>
      <trkpt lat="48.15133" lon="-3.30482">
        <ele>248.6</ele>
        <time>2024-11-20T15:38:01Z</time>
      </trkpt>
      <trkpt lat="48.15133" lon="-3.3048">
        <ele>248.4</ele>
        <time>2024-11-20T15:38:02Z</time>
      </trkpt>
      <trkpt lat="48.15133" lon="-3.30478">
        <ele>248.2</ele>
        <time>2024-11-20T15:38:03Z</time>
      </trkpt>
      <trkpt lat="48.15133" lon="-3.30476">
        <ele>248</ele>
        <time>2024-11-20T15:38:04Z</time>
      </trkpt>
      <trkpt lat="48.15133" lon="-3.30474">
        <ele>247.9</ele>
        <time>2024-11-20T15:38:05Z</time>
      </trkpt>
      <trkpt lat="48.15132" lon="-3.30472">
        <ele>247.7</ele>
        <time>2024-11-20T15:38:06Z</time>
      </trkpt>
      <trkpt lat="48.15132" lon="-3.3047">
        <ele>247.6</ele>
        <time>2024-11-20T15:38:07Z</time>
      </trkpt>
      <trkpt lat="48.15132" lon="-3.30469">
        <ele>247.5</ele>
        <time>2024-11-20T15:38:08Z</time>
      </trkpt>
      <trkpt lat="48.15132" lon="-3.30467">
        <ele>247.4</ele>
        <time>2024-11-20T15:38:09Z</time>
      </trkpt>
      <trkpt lat="48.15132" lon="-3.30465">
        <ele>247.3</ele>
        <time>2024-11-20T15:38:10Z</time>
      </trkpt>
      <trkpt lat="48.15132" lon="-3.30463">
        <ele>247.2</ele>
        <time>2024-11-20T15:38:11Z</time>
      </trkpt>
      <trkpt lat="48.15132" lon="-3.30462">
        <ele>247.1</ele>
        <time>2024-11-20T15:38:12Z</time>
      </trkpt>
      <trkpt lat="48.15132" lon="-3.3046">
        <ele>247</ele>
        <time>2024-11-20T15:38:13Z</time>
      </trkpt>
      <trkpt lat="48.15132" lon="-3.30459">
        <ele>246.9</ele>
        <time>2024-11-20T15:38:14Z</time>
      </trkpt>
      <trkpt lat="48.15132" lon="-3.30458">
        <ele>246.8</ele>
        <time>2024-11-20T15:38:15Z</time>
      </trkpt>
      <trkpt lat="48.15132" lon="-3.30456">
        <ele>246.7</ele>
        <time>2024-11-20T15:38:16Z</time>
      </trkpt>
      <trkpt lat="48.15132" lon="-3.30454">
        <ele>246.6</ele>
        <time>2024-11-20T15:38:17Z</time>
      </trkpt>
      <trkpt lat="48.15132" lon="-3.30452">
        <ele>246.5</ele>
        <time>2024-11-20T15:38:18Z</time>
      </trkpt>
      <trkpt lat="48.15132" lon="-3.30451">
        <ele>246.5</ele>
        <time>2024-11-20T15:38:19Z</time>
      </trkpt>
      <trkpt lat="48.15132" lon="-3.3045">
        <ele>246.4</ele>
        <time>2024-11-20T15:38:20Z</time>
      </trkpt>
      <trkpt lat="48.15132" lon="-3.30449">
        <ele>246.3</ele>
        <time>2024-11-20T15:38:21Z</time>
      </trkpt>
      <trkpt lat="48.15131" lon="-3.30447">
        <ele>246.3</ele>
        <time>2024-11-20T15:38:22Z</time>
      </trkpt>
      <trkpt lat="48.15131" lon="-3.30446">
        <ele>246.3</ele>
        <time>2024-11-20T15:38:23Z</time>
      </trkpt>
      <trkpt lat="48.15131" lon="-3.30445">
        <ele>246.2</ele>
        <time>2024-11-20T15:38:24Z</time>
      </trkpt>
      <trkpt lat="48.1513" lon="-3.30444">
        <ele>246.2</ele>
        <time>2024-11-20T15:38:25Z</time>
      </trkpt>
      <trkpt lat="48.1513" lon="-3.30442">
        <ele>246.2</ele>
        <time>2024-11-20T15:38:26Z</time>
      </trkpt>
      <trkpt lat="48.1513" lon="-3.3044">
        <ele>246.2</ele>
        <time>2024-11-20T15:38:27Z</time>
      </trkpt>
      <trkpt lat="48.15129" lon="-3.30438">
        <ele>246.2</ele>
        <time>2024-11-20T15:38:28Z</time>
      </trkpt>
      <trkpt lat="48.15129" lon="-3.30436">
        <ele>246.2</ele>
        <time>2024-11-20T15:38:29Z</time>
      </trkpt>
      <trkpt lat="48.15129" lon="-3.30434">
        <ele>246.2</ele>
        <time>2024-11-20T15:38:30Z</time>
      </trkpt>
      <trkpt lat="48.15129" lon="-3.30432">
        <ele>246.2</ele>
        <time>2024-11-20T15:38:31Z</time>
      </trkpt>
      <trkpt lat="48.15128" lon="-3.30432">
        <ele>246.2</ele>
        <time>2024-11-20T15:38:32Z</time>
      </trkpt>
      <trkpt lat="48.15129" lon="-3.30431">
        <ele>246.2</ele>
        <time>2024-11-20T15:38:33Z</time>
      </trkpt>
      <trkpt lat="48.15128" lon="-3.3043">
        <ele>246.2</ele>
        <time>2024-11-20T15:38:34Z</time>
      </trkpt>
      <trkpt lat="48.15128" lon="-3.30429">
        <ele>246.2</ele>
        <time>2024-11-20T15:38:35Z</time>
      </trkpt>
      <trkpt lat="48.15128" lon="-3.30429">
        <ele>246.3</ele>
        <time>2024-11-20T15:38:36Z</time>
      </trkpt>
      <trkpt lat="48.15127" lon="-3.30428">
        <ele>246.4</ele>
        <time>2024-11-20T15:38:37Z</time>
      </trkpt>
      <trkpt lat="48.15126" lon="-3.30428">
        <ele>246.6</ele>
        <time>2024-11-20T15:38:38Z</time>
      </trkpt>
      <trkpt lat="48.15125" lon="-3.30428">
        <ele>246.7</ele>
        <time>2024-11-20T15:38:39Z</time>
      </trkpt>
      <trkpt lat="48.15125" lon="-3.30427">
        <ele>246.8</ele>
        <time>2024-11-20T15:38:40Z</time>
      </trkpt>
      <trkpt lat="48.15124" lon="-3.30427">
        <ele>246.8</ele>
        <time>2024-11-20T15:38:41Z</time>
      </trkpt>
      <trkpt lat="48.15124" lon="-3.30427">
        <ele>246.9</ele>
        <time>2024-11-20T15:38:42Z</time>
      </trkpt>
      <trkpt lat="48.15124" lon="-3.30426">
        <ele>246.9</ele>
        <time>2024-11-20T15:38:43Z</time>
      </trkpt>
      <trkpt lat="48.15123" lon="-3.30426">
        <ele>247</ele>
        <time>2024-11-20T15:38:44Z</time>
      </trkpt>
      <trkpt lat="48.15122" lon="-3.30426">
        <ele>247.1</ele>
        <time>2024-11-20T15:38:45Z</time>
      </trkpt>
      <trkpt lat="48.15122" lon="-3.30426">
        <ele>247.2</ele>
        <time>2024-11-20T15:38:46Z</time>
      </trkpt>
      <trkpt lat="48.15121" lon="-3.30426">
        <ele>247.3</ele>
        <time>2024-11-20T15:38:47Z</time>
      </trkpt>
      <trkpt lat="48.1512" lon="-3.30426">
        <ele>247.4</ele>
        <time>2024-11-20T15:38:48Z</time>
      </trkpt>
      <trkpt lat="48.1512" lon="-3.30426">
        <ele>247.6</ele>
        <time>2024-11-20T15:38:49Z</time>
      </trkpt>
      <trkpt lat="48.15119" lon="-3.30426">
        <ele>247.7</ele>
        <time>2024-11-20T15:38:50Z</time>
      </trkpt>
      <trkpt lat="48.15118" lon="-3.30426">
        <ele>247.9</ele>
        <time>2024-11-20T15:38:51Z</time>
      </trkpt>
      <trkpt lat="48.15117" lon="-3.30425">
        <ele>248</ele>
        <time>2024-11-20T15:38:52Z</time>
      </trkpt>
      <trkpt lat="48.15116" lon="-3.30425">
        <ele>248.1</ele>
        <time>2024-11-20T15:38:53Z</time>
      </trkpt>
      <trkpt lat="48.15115" lon="-3.30424">
        <ele>248.3</ele>
        <time>2024-11-20T15:38:54Z</time>
      </trkpt>
      <trkpt lat="48.15115" lon="-3.30424">
        <ele>248.4</ele>
        <time>2024-11-20T15:38:55Z</time>
      </trkpt>
      <trkpt lat="48.15115" lon="-3.30424">
        <ele>248.4</ele>
        <time>2024-11-20T15:38:56Z</time>
      </trkpt>
      <trkpt lat="48.15114" lon="-3.30423">
        <ele>248.5</ele>
        <time>2024-11-20T15:38:57Z</time>
      </trkpt>
      <trkpt lat="48.15113" lon="-3.30423">
        <ele>248.7</ele>
        <time>2024-11-20T15:38:58Z</time>
      </trkpt>
      <trkpt lat="48.15112" lon="-3.30422">
        <ele>248.9</ele>
        <time>2024-11-20T15:38:59Z</time>
      </trkpt>
      <trkpt lat="48.15111" lon="-3.30422">
        <ele>249.1</ele>
        <time>2024-11-20T15:39:00Z</time>
      </trkpt>
      <trkpt lat="48.1511" lon="-3.30422">
        <ele>249.3</ele>
        <time>2024-11-20T15:39:01Z</time>
      </trkpt>
      <trkpt lat="48.15109" lon="-3.30421">
        <ele>249.4</ele>
        <time>2024-11-20T15:39:02Z</time>
      </trkpt>
      <trkpt lat="48.15108" lon="-3.30421">
        <ele>249.6</ele>
        <time>2024-11-20T15:39:03Z</time>
      </trkpt>
      <trkpt lat="48.15107" lon="-3.3042">
        <ele>249.8</ele>
        <time>2024-11-20T15:39:04Z</time>
      </trkpt>
      <trkpt lat="48.15106" lon="-3.3042">
        <ele>250</ele>
        <time>2024-11-20T15:39:05Z</time>
      </trkpt>
      <trkpt lat="48.15105" lon="-3.30419">
        <ele>250.1</ele>
        <time>2024-11-20T15:39:06Z</time>
      </trkpt>
      <trkpt lat="48.15105" lon="-3.30418">
        <ele>250.1</ele>
        <time>2024-11-20T15:39:07Z</time>
      </trkpt>
      <trkpt lat="48.15104" lon="-3.30417">
        <ele>250.2</ele>
        <time>2024-11-20T15:39:08Z</time>
      </trkpt>
      <trkpt lat="48.15104" lon="-3.30416">
        <ele>250.4</ele>
        <time>2024-11-20T15:39:09Z</time>
      </trkpt>
      <trkpt lat="48.15103" lon="-3.30415">
        <ele>250.5</ele>
        <time>2024-11-20T15:39:10Z</time>
      </trkpt>
      <trkpt lat="48.15102" lon="-3.30414">
        <ele>250.6</ele>
        <time>2024-11-20T15:39:11Z</time>
      </trkpt>
      <trkpt lat="48.15101" lon="-3.30413">
        <ele>250.7</ele>
        <time>2024-11-20T15:39:12Z</time>
      </trkpt>
      <trkpt lat="48.15101" lon="-3.30412">
        <ele>250.9</ele>
        <time>2024-11-20T15:39:13Z</time>
      </trkpt>
      <trkpt lat="48.151" lon="-3.30411">
        <ele>251</ele>
        <time>2024-11-20T15:39:14Z</time>
      </trkpt>
      <trkpt lat="48.15099" lon="-3.30411">
        <ele>251.1</ele>
        <time>2024-11-20T15:39:15Z</time>
      </trkpt>
      <trkpt lat="48.15099" lon="-3.3041">
        <ele>251.2</ele>
        <time>2024-11-20T15:39:16Z</time>
      </trkpt>
      <trkpt lat="48.15098" lon="-3.30409">
        <ele>251.4</ele>
        <time>2024-11-20T15:39:17Z</time>
      </trkpt>
      <trkpt lat="48.15097" lon="-3.30408">
        <ele>251.5</ele>
        <time>2024-11-20T15:39:18Z</time>
      </trkpt>
      <trkpt lat="48.15097" lon="-3.30406">
        <ele>251.5</ele>
        <time>2024-11-20T15:39:19Z</time>
      </trkpt>
      <trkpt lat="48.15097" lon="-3.30405">
        <ele>251.5</ele>
        <time>2024-11-20T15:39:20Z</time>
      </trkpt>
      <trkpt lat="48.15097" lon="-3.30404">
        <ele>251.5</ele>
        <time>2024-11-20T15:39:21Z</time>
      </trkpt>
      <trkpt lat="48.15097" lon="-3.30402">
        <ele>251.6</ele>
        <time>2024-11-20T15:39:22Z</time>
      </trkpt>
      <trkpt lat="48.15097" lon="-3.30401">
        <ele>251.6</ele>
        <time>2024-11-20T15:39:23Z</time>
      </trkpt>
      <trkpt lat="48.15097" lon="-3.30401">
        <ele>251.6</ele>
        <time>2024-11-20T15:39:24Z</time>
      </trkpt>
      <trkpt lat="48.15097" lon="-3.304">
        <ele>251.6</ele>
        <time>2024-11-20T15:39:25Z</time>
      </trkpt>
      <trkpt lat="48.15097" lon="-3.304">
        <ele>251.5</ele>
        <time>2024-11-20T15:39:26Z</time>
      </trkpt>
      <trkpt lat="48.15097" lon="-3.30399">
        <ele>251.6</ele>
        <time>2024-11-20T15:39:27Z</time>
      </trkpt>
      <trkpt lat="48.15096" lon="-3.30398">
        <ele>251.7</ele>
        <time>2024-11-20T15:39:28Z</time>
      </trkpt>
      <trkpt lat="48.15096" lon="-3.30398">
        <ele>251.8</ele>
        <time>2024-11-20T15:39:29Z</time>
      </trkpt>
      <trkpt lat="48.15095" lon="-3.30397">
        <ele>252</ele>
        <time>2024-11-20T15:39:30Z</time>
      </trkpt>
      <trkpt lat="48.15095" lon="-3.30396">
        <ele>252.1</ele>
        <time>2024-11-20T15:39:31Z</time>
      </trkpt>
      <trkpt lat="48.15094" lon="-3.30395">
        <ele>252.2</ele>
        <time>2024-11-20T15:39:32Z</time>
      </trkpt>
      <trkpt lat="48.15094" lon="-3.30391">
        <ele>252.4</ele>
        <time>2024-11-20T15:39:33Z</time>
      </trkpt>
      <trkpt lat="48.15094" lon="-3.30389">
        <ele>252.4</ele>
        <time>2024-11-20T15:39:34Z</time>
      </trkpt>
      <trkpt lat="48.15094" lon="-3.30388">
        <ele>252.4</ele>
        <time>2024-11-20T15:39:35Z</time>
      </trkpt>
      <trkpt lat="48.15093" lon="-3.30387">
        <ele>252.4</ele>
        <time>2024-11-20T15:39:36Z</time>
      </trkpt>
      <trkpt lat="48.15093" lon="-3.30385">
        <ele>252.5</ele>
        <time>2024-11-20T15:39:37Z</time>
      </trkpt>
      <trkpt lat="48.15093" lon="-3.30383">
        <ele>252.5</ele>
        <time>2024-11-20T15:39:38Z</time>
      </trkpt>
      <trkpt lat="48.15092" lon="-3.30382">
        <ele>252.5</ele>
        <time>2024-11-20T15:39:39Z</time>
      </trkpt>
      <trkpt lat="48.15092" lon="-3.3038">
        <ele>252.5</ele>
        <time>2024-11-20T15:39:40Z</time>
      </trkpt>
      <trkpt lat="48.15091" lon="-3.30378">
        <ele>252.6</ele>
        <time>2024-11-20T15:39:41Z</time>
      </trkpt>
      <trkpt lat="48.15091" lon="-3.30377">
        <ele>252.6</ele>
        <time>2024-11-20T15:39:42Z</time>
      </trkpt>
      <trkpt lat="48.15091" lon="-3.30375">
        <ele>252.6</ele>
        <time>2024-11-20T15:39:43Z</time>
      </trkpt>
      <trkpt lat="48.15091" lon="-3.30373">
        <ele>252.5</ele>
        <time>2024-11-20T15:39:44Z</time>
      </trkpt>
      <trkpt lat="48.15091" lon="-3.30372">
        <ele>252.5</ele>
        <time>2024-11-20T15:39:45Z</time>
      </trkpt>
      <trkpt lat="48.15091" lon="-3.3037">
        <ele>252.5</ele>
        <time>2024-11-20T15:39:46Z</time>
      </trkpt>
      <trkpt lat="48.1509" lon="-3.30369">
        <ele>252.5</ele>
        <time>2024-11-20T15:39:47Z</time>
      </trkpt>
      <trkpt lat="48.1509" lon="-3.30368">
        <ele>252.6</ele>
        <time>2024-11-20T15:39:48Z</time>
      </trkpt>
      <trkpt lat="48.1509" lon="-3.30366">
        <ele>252.5</ele>
        <time>2024-11-20T15:39:49Z</time>
      </trkpt>
      <trkpt lat="48.1509" lon="-3.30365">
        <ele>252.6</ele>
        <time>2024-11-20T15:39:50Z</time>
      </trkpt>
      <trkpt lat="48.15089" lon="-3.30364">
        <ele>252.7</ele>
        <time>2024-11-20T15:39:51Z</time>
      </trkpt>
      <trkpt lat="48.15089" lon="-3.30364">
        <ele>252.7</ele>
        <time>2024-11-20T15:39:52Z</time>
      </trkpt>
      <trkpt lat="48.15088" lon="-3.30363">
        <ele>252.8</ele>
        <time>2024-11-20T15:39:53Z</time>
      </trkpt>
      <trkpt lat="48.15089" lon="-3.30361">
        <ele>252.6</ele>
        <time>2024-11-20T15:39:54Z</time>
      </trkpt>
      <trkpt lat="48.15089" lon="-3.30359">
        <ele>252.4</ele>
        <time>2024-11-20T15:39:55Z</time>
      </trkpt>
      <trkpt lat="48.15089" lon="-3.30358">
        <ele>252.3</ele>
        <time>2024-11-20T15:39:56Z</time>
      </trkpt>
      <trkpt lat="48.15088" lon="-3.30357">
        <ele>252.2</ele>
        <time>2024-11-20T15:39:57Z</time>
      </trkpt>
      <trkpt lat="48.15088" lon="-3.30355">
        <ele>252</ele>
        <time>2024-11-20T15:39:58Z</time>
      </trkpt>
      <trkpt lat="48.15088" lon="-3.30355">
        <ele>251.9</ele>
        <time>2024-11-20T15:39:59Z</time>
      </trkpt>
      <trkpt lat="48.15088" lon="-3.30354">
        <ele>251.8</ele>
        <time>2024-11-20T15:40:00Z</time>
      </trkpt>
      <trkpt lat="48.15088" lon="-3.30353">
        <ele>251.7</ele>
        <time>2024-11-20T15:40:01Z</time>
      </trkpt>
      <trkpt lat="48.15088" lon="-3.30352">
        <ele>251.6</ele>
        <time>2024-11-20T15:40:02Z</time>
      </trkpt>
      <trkpt lat="48.15088" lon="-3.30352">
        <ele>251.6</ele>
        <time>2024-11-20T15:40:03Z</time>
      </trkpt>
      <trkpt lat="48.15088" lon="-3.30351">
        <ele>251.5</ele>
        <time>2024-11-20T15:40:04Z</time>
      </trkpt>
      <trkpt lat="48.15088" lon="-3.3035">
        <ele>251.5</ele>
        <time>2024-11-20T15:40:05Z</time>
      </trkpt>
      <trkpt lat="48.15088" lon="-3.3035">
        <ele>251.4</ele>
        <time>2024-11-20T15:40:06Z</time>
      </trkpt>
      <trkpt lat="48.15087" lon="-3.30349">
        <ele>251.4</ele>
        <time>2024-11-20T15:40:07Z</time>
      </trkpt>
      <trkpt lat="48.15087" lon="-3.30349">
        <ele>251.4</ele>
        <time>2024-11-20T15:40:08Z</time>
      </trkpt>
      <trkpt lat="48.15087" lon="-3.30349">
        <ele>251.4</ele>
        <time>2024-11-20T15:40:09Z</time>
      </trkpt>
      <trkpt lat="48.15087" lon="-3.30348">
        <ele>251.3</ele>
        <time>2024-11-20T15:40:10Z</time>
      </trkpt>
      <trkpt lat="48.15087" lon="-3.30348">
        <ele>251.3</ele>
        <time>2024-11-20T15:40:11Z</time>
      </trkpt>
      <trkpt lat="48.15087" lon="-3.30348">
        <ele>251.3</ele>
        <time>2024-11-20T15:40:12Z</time>
      </trkpt>
      <trkpt lat="48.15087" lon="-3.30348">
        <ele>251.2</ele>
        <time>2024-11-20T15:40:13Z</time>
      </trkpt>
      <trkpt lat="48.15087" lon="-3.30347">
        <ele>251.2</ele>
        <time>2024-11-20T15:40:14Z</time>
      </trkpt>
      <trkpt lat="48.15087" lon="-3.30347">
        <ele>251.1</ele>
        <time>2024-11-20T15:40:15Z</time>
      </trkpt>
      <trkpt lat="48.15087" lon="-3.30347">
        <ele>251.1</ele>
        <time>2024-11-20T15:40:16Z</time>
      </trkpt>
      <trkpt lat="48.15088" lon="-3.30346">
        <ele>251</ele>
        <time>2024-11-20T15:40:17Z</time>
      </trkpt>
      <trkpt lat="48.15088" lon="-3.30346">
        <ele>251</ele>
        <time>2024-11-20T15:40:18Z</time>
      </trkpt>
      <trkpt lat="48.15088" lon="-3.30346">
        <ele>251</ele>
        <time>2024-11-20T15:40:19Z</time>
      </trkpt>
      <trkpt lat="48.15088" lon="-3.30346">
        <ele>250.9</ele>
        <time>2024-11-20T15:40:20Z</time>
      </trkpt>
      <trkpt lat="48.15088" lon="-3.30346">
        <ele>250.9</ele>
        <time>2024-11-20T15:40:21Z</time>
      </trkpt>
      <trkpt lat="48.15088" lon="-3.30346">
        <ele>250.9</ele>
        <time>2024-11-20T15:40:22Z</time>
      </trkpt>
      <trkpt lat="48.15088" lon="-3.30346">
        <ele>250.9</ele>
        <time>2024-11-20T15:40:23Z</time>
      </trkpt>
      <trkpt lat="48.15088" lon="-3.30346">
        <ele>250.9</ele>
        <time>2024-11-20T15:40:24Z</time>
      </trkpt>
      <trkpt lat="48.15088" lon="-3.30346">
        <ele>250.9</ele>
        <time>2024-11-20T15:40:25Z</time>
      </trkpt>
      <trkpt lat="48.15088" lon="-3.30346">
        <ele>250.9</ele>
        <time>2024-11-20T15:40:26Z</time>
      </trkpt>
      <trkpt lat="48.15088" lon="-3.30346">
        <ele>250.9</ele>
        <time>2024-11-20T15:40:27Z</time>
      </trkpt>
      <trkpt lat="48.15088" lon="-3.30346">
        <ele>250.9</ele>
        <time>2024-11-20T15:40:28Z</time>
      </trkpt>
      <trkpt lat="48.15088" lon="-3.30346">
        <ele>250.9</ele>
        <time>2024-11-20T15:40:29Z</time>
      </trkpt>
      <trkpt lat="48.15088" lon="-3.30346">
        <ele>250.9</ele>
        <time>2024-11-20T15:40:30Z</time>
      </trkpt>
      <trkpt lat="48.15088" lon="-3.30346">
        <ele>250.9</ele>
        <time>2024-11-20T15:40:31Z</time>
      </trkpt>
      <trkpt lat="48.15088" lon="-3.30346">
        <ele>250.9</ele>
        <time>2024-11-20T15:40:32Z</time>
      </trkpt>
      <trkpt lat="48.15088" lon="-3.30346">
        <ele>250.9</ele>
        <time>2024-11-20T15:40:33Z</time>
      </trkpt>
      <trkpt lat="48.15088" lon="-3.30346">
        <ele>250.9</ele>
        <time>2024-11-20T15:40:34Z</time>
      </trkpt>
      <trkpt lat="48.15088" lon="-3.30346">
        <ele>250.8</ele>
        <time>2024-11-20T15:40:35Z</time>
      </trkpt>
      <trkpt lat="48.15088" lon="-3.30346">
        <ele>250.8</ele>
        <time>2024-11-20T15:40:36Z</time>
      </trkpt>
      <trkpt lat="48.15088" lon="-3.30346">
        <ele>250.8</ele>
        <time>2024-11-20T15:40:37Z</time>
      </trkpt>
      <trkpt lat="48.15088" lon="-3.30345">
        <ele>250.7</ele>
        <time>2024-11-20T15:40:38Z</time>
      </trkpt>
      <trkpt lat="48.15088" lon="-3.30345">
        <ele>250.7</ele>
        <time>2024-11-20T15:40:39Z</time>
      </trkpt>
      <trkpt lat="48.15088" lon="-3.30345">
        <ele>250.7</ele>
        <time>2024-11-20T15:40:40Z</time>
      </trkpt>
      <trkpt lat="48.15088" lon="-3.30344">
        <ele>250.6</ele>
        <time>2024-11-20T15:40:41Z</time>
      </trkpt>
      <trkpt lat="48.15088" lon="-3.30344">
        <ele>250.6</ele>
        <time>2024-11-20T15:40:42Z</time>
      </trkpt>
      <trkpt lat="48.15088" lon="-3.30344">
        <ele>250.7</ele>
        <time>2024-11-20T15:40:43Z</time>
      </trkpt>
      <trkpt lat="48.15086" lon="-3.30343">
        <ele>250.7</ele>
        <time>2024-11-20T15:40:44Z</time>
      </trkpt>
      <trkpt lat="48.15086" lon="-3.30342">
        <ele>250.7</ele>
        <time>2024-11-20T15:40:45Z</time>
      </trkpt>
      <trkpt lat="48.15085" lon="-3.30341">
        <ele>250.7</ele>
        <time>2024-11-20T15:40:46Z</time>
      </trkpt>
      <trkpt lat="48.15085" lon="-3.30341">
        <ele>250.7</ele>
        <time>2024-11-20T15:40:47Z</time>
      </trkpt>
      <trkpt lat="48.15084" lon="-3.3034">
        <ele>250.7</ele>
        <time>2024-11-20T15:40:48Z</time>
      </trkpt>
      <trkpt lat="48.15084" lon="-3.30339">
        <ele>250.7</ele>
        <time>2024-11-20T15:40:49Z</time>
      </trkpt>
      <trkpt lat="48.15084" lon="-3.30339">
        <ele>250.7</ele>
        <time>2024-11-20T15:40:50Z</time>
      </trkpt>
      <trkpt lat="48.15084" lon="-3.30338">
        <ele>250.6</ele>
        <time>2024-11-20T15:40:51Z</time>
      </trkpt>
      <trkpt lat="48.15083" lon="-3.30337">
        <ele>250.6</ele>
        <time>2024-11-20T15:40:52Z</time>
      </trkpt>
      <trkpt lat="48.15083" lon="-3.30337">
        <ele>250.5</ele>
        <time>2024-11-20T15:40:53Z</time>
      </trkpt>
      <trkpt lat="48.15083" lon="-3.30336">
        <ele>250.5</ele>
        <time>2024-11-20T15:40:54Z</time>
      </trkpt>
      <trkpt lat="48.15083" lon="-3.30336">
        <ele>250.5</ele>
        <time>2024-11-20T15:40:55Z</time>
      </trkpt>
      <trkpt lat="48.15083" lon="-3.30336">
        <ele>250.5</ele>
        <time>2024-11-20T15:40:56Z</time>
      </trkpt>
      <trkpt lat="48.15083" lon="-3.30336">
        <ele>250.5</ele>
        <time>2024-11-20T15:40:57Z</time>
      </trkpt>
      <trkpt lat="48.15083" lon="-3.30336">
        <ele>250.4</ele>
        <time>2024-11-20T15:40:58Z</time>
      </trkpt>
      <trkpt lat="48.15083" lon="-3.30336">
        <ele>250.4</ele>
        <time>2024-11-20T15:40:59Z</time>
      </trkpt>
      <trkpt lat="48.15083" lon="-3.30336">
        <ele>250.4</ele>
        <time>2024-11-20T15:41:00Z</time>
      </trkpt>
      <trkpt lat="48.15083" lon="-3.30336">
        <ele>250.4</ele>
        <time>2024-11-20T15:41:01Z</time>
      </trkpt>
      <trkpt lat="48.15083" lon="-3.30336">
        <ele>250.4</ele>
        <time>2024-11-20T15:41:02Z</time>
      </trkpt>
      <trkpt lat="48.15083" lon="-3.30338">
        <ele>250.6</ele>
        <time>2024-11-20T15:41:03Z</time>
      </trkpt>
      <trkpt lat="48.15083" lon="-3.30339">
        <ele>250.8</ele>
        <time>2024-11-20T15:41:04Z</time>
      </trkpt>
      <trkpt lat="48.15083" lon="-3.30339">
        <ele>250.8</ele>
        <time>2024-11-20T15:41:05Z</time>
      </trkpt>
      <trkpt lat="48.15083" lon="-3.30339">
        <ele>250.9</ele>
        <time>2024-11-20T15:41:06Z</time>
      </trkpt>
      <trkpt lat="48.15083" lon="-3.30339">
        <ele>250.9</ele>
        <time>2024-11-20T15:41:07Z</time>
      </trkpt>
      <trkpt lat="48.15083" lon="-3.30339">
        <ele>250.9</ele>
        <time>2024-11-20T15:41:08Z</time>
      </trkpt>
      <trkpt lat="48.15083" lon="-3.30339">
        <ele>250.9</ele>
        <time>2024-11-20T15:41:09Z</time>
      </trkpt>
      <trkpt lat="48.15083" lon="-3.30339">
        <ele>250.9</ele>
        <time>2024-11-20T15:41:10Z</time>
      </trkpt>
      <trkpt lat="48.15083" lon="-3.30339">
        <ele>250.9</ele>
        <time>2024-11-20T15:41:11Z</time>
      </trkpt>
      <trkpt lat="48.15083" lon="-3.30339">
        <ele>250.9</ele>
        <time>2024-11-20T15:41:12Z</time>
      </trkpt>
      <trkpt lat="48.15083" lon="-3.30338">
        <ele>250.9</ele>
        <time>2024-11-20T15:41:13Z</time>
      </trkpt>
      <trkpt lat="48.15083" lon="-3.30338">
        <ele>250.9</ele>
        <time>2024-11-20T15:41:14Z</time>
      </trkpt>
      <trkpt lat="48.15083" lon="-3.30338">
        <ele>250.8</ele>
        <time>2024-11-20T15:41:15Z</time>
      </trkpt>
      <trkpt lat="48.15083" lon="-3.30338">
        <ele>250.8</ele>
        <time>2024-11-20T15:41:16Z</time>
      </trkpt>
      <trkpt lat="48.15083" lon="-3.30338">
        <ele>250.8</ele>
        <time>2024-11-20T15:41:17Z</time>
      </trkpt>
      <trkpt lat="48.15083" lon="-3.30338">
        <ele>250.7</ele>
        <time>2024-11-20T15:41:18Z</time>
      </trkpt>
      <trkpt lat="48.15083" lon="-3.30337">
        <ele>250.7</ele>
        <time>2024-11-20T15:41:19Z</time>
      </trkpt>
      <trkpt lat="48.15083" lon="-3.30337">
        <ele>250.6</ele>
        <time>2024-11-20T15:41:20Z</time>
      </trkpt>
      <trkpt lat="48.15083" lon="-3.30337">
        <ele>250.6</ele>
        <time>2024-11-20T15:41:21Z</time>
      </trkpt>
      <trkpt lat="48.15083" lon="-3.30337">
        <ele>250.6</ele>
        <time>2024-11-20T15:41:22Z</time>
      </trkpt>
      <trkpt lat="48.15083" lon="-3.30337">
        <ele>250.6</ele>
        <time>2024-11-20T15:41:23Z</time>
      </trkpt>
      <trkpt lat="48.15083" lon="-3.30337">
        <ele>250.6</ele>
        <time>2024-11-20T15:41:24Z</time>
      </trkpt>
      <trkpt lat="48.15083" lon="-3.30337">
        <ele>250.6</ele>
        <time>2024-11-20T15:41:25Z</time>
      </trkpt>
      <trkpt lat="48.15083" lon="-3.30337">
        <ele>250.6</ele>
        <time>2024-11-20T15:41:26Z</time>
      </trkpt>
      <trkpt lat="48.15084" lon="-3.30336">
        <ele>250.3</ele>
        <time>2024-11-20T15:41:27Z</time>
      </trkpt>
      <trkpt lat="48.15084" lon="-3.30335">
        <ele>250.2</ele>
        <time>2024-11-20T15:41:28Z</time>
      </trkpt>
      <trkpt lat="48.15084" lon="-3.30335">
        <ele>250.2</ele>
        <time>2024-11-20T15:41:29Z</time>
      </trkpt>
      <trkpt lat="48.15084" lon="-3.30335">
        <ele>250.2</ele>
        <time>2024-11-20T15:41:30Z</time>
      </trkpt>
      <trkpt lat="48.15084" lon="-3.30335">
        <ele>250.2</ele>
        <time>2024-11-20T15:41:31Z</time>
      </trkpt>
      <trkpt lat="48.15084" lon="-3.30335">
        <ele>250.1</ele>
        <time>2024-11-20T15:41:32Z</time>
      </trkpt>
      <trkpt lat="48.15084" lon="-3.30335">
        <ele>250.1</ele>
        <time>2024-11-20T15:41:33Z</time>
      </trkpt>
      <trkpt lat="48.15084" lon="-3.30336">
        <ele>250.1</ele>
        <time>2024-11-20T15:41:34Z</time>
      </trkpt>
      <trkpt lat="48.15084" lon="-3.30336">
        <ele>250.2</ele>
        <time>2024-11-20T15:41:35Z</time>
      </trkpt>
      <trkpt lat="48.15084" lon="-3.30336">
        <ele>250.2</ele>
        <time>2024-11-20T15:41:36Z</time>
      </trkpt>
      <trkpt lat="48.15084" lon="-3.30336">
        <ele>250.2</ele>
        <time>2024-11-20T15:41:37Z</time>
      </trkpt>
      <trkpt lat="48.15084" lon="-3.30336">
        <ele>250.2</ele>
        <time>2024-11-20T15:41:38Z</time>
      </trkpt>
      <trkpt lat="48.15084" lon="-3.30336">
        <ele>250.3</ele>
        <time>2024-11-20T15:41:39Z</time>
      </trkpt>
      <trkpt lat="48.15084" lon="-3.30336">
        <ele>250.3</ele>
        <time>2024-11-20T15:41:40Z</time>
      </trkpt>
      <trkpt lat="48.15084" lon="-3.30336">
        <ele>250.2</ele>
        <time>2024-11-20T15:41:41Z</time>
      </trkpt>
      <trkpt lat="48.15084" lon="-3.30337">
        <ele>250.3</ele>
        <time>2024-11-20T15:41:42Z</time>
      </trkpt>
      <trkpt lat="48.15084" lon="-3.30337">
        <ele>250.4</ele>
        <time>2024-11-20T15:41:43Z</time>
      </trkpt>
      <trkpt lat="48.15084" lon="-3.30338">
        <ele>250.5</ele>
        <time>2024-11-20T15:41:44Z</time>
      </trkpt>
      <trkpt lat="48.15084" lon="-3.30338">
        <ele>250.6</ele>
        <time>2024-11-20T15:41:45Z</time>
      </trkpt>
      <trkpt lat="48.15084" lon="-3.30339">
        <ele>250.7</ele>
        <time>2024-11-20T15:41:46Z</time>
      </trkpt>
      <trkpt lat="48.15084" lon="-3.3034">
        <ele>250.7</ele>
        <time>2024-11-20T15:41:47Z</time>
      </trkpt>
      <trkpt lat="48.15084" lon="-3.3034">
        <ele>250.7</ele>
        <time>2024-11-20T15:41:48Z</time>
      </trkpt>
      <trkpt lat="48.15084" lon="-3.3034">
        <ele>250.8</ele>
        <time>2024-11-20T15:41:49Z</time>
      </trkpt>
      <trkpt lat="48.15084" lon="-3.3034">
        <ele>250.8</ele>
        <time>2024-11-20T15:41:50Z</time>
      </trkpt>
      <trkpt lat="48.15084" lon="-3.3034">
        <ele>250.7</ele>
        <time>2024-11-20T15:41:51Z</time>
      </trkpt>
      <trkpt lat="48.15084" lon="-3.30339">
        <ele>250.7</ele>
        <time>2024-11-20T15:41:52Z</time>
      </trkpt>
      <trkpt lat="48.15084" lon="-3.30339">
        <ele>250.7</ele>
        <time>2024-11-20T15:41:53Z</time>
      </trkpt>
      <trkpt lat="48.15084" lon="-3.30339">
        <ele>250.6</ele>
        <time>2024-11-20T15:41:54Z</time>
      </trkpt>
      <trkpt lat="48.15084" lon="-3.30339">
        <ele>250.6</ele>
        <time>2024-11-20T15:41:55Z</time>
      </trkpt>
      <trkpt lat="48.15084" lon="-3.30339">
        <ele>250.6</ele>
        <time>2024-11-20T15:41:56Z</time>
      </trkpt>
      <trkpt lat="48.15084" lon="-3.30339">
        <ele>250.6</ele>
        <time>2024-11-20T15:41:57Z</time>
      </trkpt>
      <trkpt lat="48.15084" lon="-3.30339">
        <ele>250.6</ele>
        <time>2024-11-20T15:41:58Z</time>
      </trkpt>
      <trkpt lat="48.15084" lon="-3.30339">
        <ele>250.6</ele>
        <time>2024-11-20T15:41:59Z</time>
      </trkpt>
      <trkpt lat="48.15085" lon="-3.30339">
        <ele>250.6</ele>
        <time>2024-11-20T15:42:00Z</time>
      </trkpt>
      <trkpt lat="48.15084" lon="-3.30339">
        <ele>250.7</ele>
        <time>2024-11-20T15:42:01Z</time>
      </trkpt>
      <trkpt lat="48.15084" lon="-3.3034">
        <ele>250.7</ele>
        <time>2024-11-20T15:42:02Z</time>
      </trkpt>
      <trkpt lat="48.15084" lon="-3.3034">
        <ele>250.7</ele>
        <time>2024-11-20T15:42:03Z</time>
      </trkpt>
      <trkpt lat="48.15084" lon="-3.3034">
        <ele>250.7</ele>
        <time>2024-11-20T15:42:04Z</time>
      </trkpt>
      <trkpt lat="48.15085" lon="-3.3034">
        <ele>250.7</ele>
        <time>2024-11-20T15:42:05Z</time>
      </trkpt>
      <trkpt lat="48.15085" lon="-3.3034">
        <ele>250.7</ele>
        <time>2024-11-20T15:42:06Z</time>
      </trkpt>
      <trkpt lat="48.15085" lon="-3.3034">
        <ele>250.7</ele>
        <time>2024-11-20T15:42:07Z</time>
      </trkpt>
      <trkpt lat="48.15085" lon="-3.3034">
        <ele>250.7</ele>
        <time>2024-11-20T15:42:08Z</time>
      </trkpt>
      <trkpt lat="48.15085" lon="-3.3034">
        <ele>250.7</ele>
        <time>2024-11-20T15:42:09Z</time>
      </trkpt>
      <trkpt lat="48.15085" lon="-3.30341">
        <ele>250.7</ele>
        <time>2024-11-20T15:42:10Z</time>
      </trkpt>
      <trkpt lat="48.15085" lon="-3.30341">
        <ele>250.7</ele>
        <time>2024-11-20T15:42:11Z</time>
      </trkpt>
      <trkpt lat="48.15085" lon="-3.30341">
        <ele>250.7</ele>
        <time>2024-11-20T15:42:12Z</time>
      </trkpt>
      <trkpt lat="48.15085" lon="-3.30341">
        <ele>250.7</ele>
        <time>2024-11-20T15:42:13Z</time>
      </trkpt>
      <trkpt lat="48.15085" lon="-3.30341">
        <ele>250.8</ele>
        <time>2024-11-20T15:42:14Z</time>
      </trkpt>
      <trkpt lat="48.15085" lon="-3.30341">
        <ele>250.8</ele>
        <time>2024-11-20T15:42:15Z</time>
      </trkpt>
      <trkpt lat="48.15085" lon="-3.30341">
        <ele>250.8</ele>
        <time>2024-11-20T15:42:16Z</time>
      </trkpt>
      <trkpt lat="48.15085" lon="-3.30342">
        <ele>250.9</ele>
        <time>2024-11-20T15:42:17Z</time>
      </trkpt>
      <trkpt lat="48.15085" lon="-3.30342">
        <ele>250.8</ele>
        <time>2024-11-20T15:42:18Z</time>
      </trkpt>
      <trkpt lat="48.15086" lon="-3.30342">
        <ele>250.8</ele>
        <time>2024-11-20T15:42:19Z</time>
      </trkpt>
      <trkpt lat="48.15085" lon="-3.30342">
        <ele>250.9</ele>
        <time>2024-11-20T15:42:20Z</time>
      </trkpt>
      <trkpt lat="48.15085" lon="-3.30343">
        <ele>250.9</ele>
        <time>2024-11-20T15:42:21Z</time>
      </trkpt>
      <trkpt lat="48.15086" lon="-3.30343">
        <ele>250.9</ele>
        <time>2024-11-20T15:42:22Z</time>
      </trkpt>
      <trkpt lat="48.15086" lon="-3.30343">
        <ele>250.9</ele>
        <time>2024-11-20T15:42:23Z</time>
      </trkpt>
      <trkpt lat="48.15086" lon="-3.30343">
        <ele>250.9</ele>
        <time>2024-11-20T15:42:24Z</time>
      </trkpt>
      <trkpt lat="48.15086" lon="-3.30343">
        <ele>250.9</ele>
        <time>2024-11-20T15:42:25Z</time>
      </trkpt>
      <trkpt lat="48.15086" lon="-3.30343">
        <ele>250.9</ele>
        <time>2024-11-20T15:42:26Z</time>
      </trkpt>
      <trkpt lat="48.15086" lon="-3.30343">
        <ele>250.9</ele>
        <time>2024-11-20T15:42:27Z</time>
      </trkpt>
      <trkpt lat="48.15086" lon="-3.30344">
        <ele>251</ele>
        <time>2024-11-20T15:42:28Z</time>
      </trkpt>
      <trkpt lat="48.15086" lon="-3.30344">
        <ele>251</ele>
        <time>2024-11-20T15:42:29Z</time>
      </trkpt>
      <trkpt lat="48.15085" lon="-3.30343">
        <ele>251</ele>
        <time>2024-11-20T15:42:30Z</time>
      </trkpt>
      <trkpt lat="48.15085" lon="-3.30343">
        <ele>251</ele>
        <time>2024-11-20T15:42:31Z</time>
      </trkpt>
      <trkpt lat="48.15085" lon="-3.30343">
        <ele>251.1</ele>
        <time>2024-11-20T15:42:32Z</time>
      </trkpt>
      <trkpt lat="48.15084" lon="-3.30342">
        <ele>251.1</ele>
        <time>2024-11-20T15:42:33Z</time>
      </trkpt>
      <trkpt lat="48.15084" lon="-3.30342">
        <ele>251.1</ele>
        <time>2024-11-20T15:42:34Z</time>
      </trkpt>
      <trkpt lat="48.15084" lon="-3.30342">
        <ele>251.1</ele>
        <time>2024-11-20T15:42:35Z</time>
      </trkpt>
      <trkpt lat="48.15084" lon="-3.30342">
        <ele>251.1</ele>
        <time>2024-11-20T15:42:36Z</time>
      </trkpt>
      <trkpt lat="48.15085" lon="-3.30342">
        <ele>251</ele>
        <time>2024-11-20T15:42:37Z</time>
      </trkpt>
      <trkpt lat="48.15085" lon="-3.30341">
        <ele>250.8</ele>
        <time>2024-11-20T15:42:38Z</time>
      </trkpt>
      <trkpt lat="48.15085" lon="-3.30341">
        <ele>250.8</ele>
        <time>2024-11-20T15:42:39Z</time>
      </trkpt>
      <trkpt lat="48.15085" lon="-3.3034">
        <ele>250.7</ele>
        <time>2024-11-20T15:42:40Z</time>
      </trkpt>
      <trkpt lat="48.15085" lon="-3.3034">
        <ele>250.6</ele>
        <time>2024-11-20T15:42:41Z</time>
      </trkpt>
      <trkpt lat="48.15085" lon="-3.3034">
        <ele>250.6</ele>
        <time>2024-11-20T15:42:42Z</time>
      </trkpt>
      <trkpt lat="48.15085" lon="-3.3034">
        <ele>250.7</ele>
        <time>2024-11-20T15:42:43Z</time>
      </trkpt>
      <trkpt lat="48.15085" lon="-3.3034">
        <ele>250.7</ele>
        <time>2024-11-20T15:42:44Z</time>
      </trkpt>
      <trkpt lat="48.15085" lon="-3.3034">
        <ele>250.7</ele>
        <time>2024-11-20T15:42:45Z</time>
      </trkpt>
      <trkpt lat="48.15085" lon="-3.30341">
        <ele>250.7</ele>
        <time>2024-11-20T15:42:46Z</time>
      </trkpt>
      <trkpt lat="48.15085" lon="-3.30341">
        <ele>250.7</ele>
        <time>2024-11-20T15:42:47Z</time>
      </trkpt>
      <trkpt lat="48.15085" lon="-3.30341">
        <ele>250.8</ele>
        <time>2024-11-20T15:42:48Z</time>
      </trkpt>
      <trkpt lat="48.15085" lon="-3.3034">
        <ele>250.7</ele>
        <time>2024-11-20T15:42:49Z</time>
      </trkpt>
      <trkpt lat="48.15085" lon="-3.3034">
        <ele>250.6</ele>
        <time>2024-11-20T15:42:50Z</time>
      </trkpt>
      <trkpt lat="48.15085" lon="-3.30339">
        <ele>250.5</ele>
        <time>2024-11-20T15:42:51Z</time>
      </trkpt>
      <trkpt lat="48.15085" lon="-3.30339">
        <ele>250.5</ele>
        <time>2024-11-20T15:42:52Z</time>
      </trkpt>
      <trkpt lat="48.15085" lon="-3.30339">
        <ele>250.4</ele>
        <time>2024-11-20T15:42:53Z</time>
      </trkpt>
      <trkpt lat="48.15085" lon="-3.30338">
        <ele>250.3</ele>
        <time>2024-11-20T15:42:54Z</time>
      </trkpt>
      <trkpt lat="48.15085" lon="-3.30338">
        <ele>250.3</ele>
        <time>2024-11-20T15:42:55Z</time>
      </trkpt>
      <trkpt lat="48.15085" lon="-3.30337">
        <ele>250.2</ele>
        <time>2024-11-20T15:42:56Z</time>
      </trkpt>
      <trkpt lat="48.15085" lon="-3.30337">
        <ele>250.3</ele>
        <time>2024-11-20T15:42:57Z</time>
      </trkpt>
      <trkpt lat="48.15085" lon="-3.30338">
        <ele>250.3</ele>
        <time>2024-11-20T15:42:58Z</time>
      </trkpt>
      <trkpt lat="48.15085" lon="-3.30338">
        <ele>250.4</ele>
        <time>2024-11-20T15:42:59Z</time>
      </trkpt>
      <trkpt lat="48.15085" lon="-3.30338">
        <ele>250.4</ele>
        <time>2024-11-20T15:43:00Z</time>
      </trkpt>
      <trkpt lat="48.15084" lon="-3.30338">
        <ele>250.4</ele>
        <time>2024-11-20T15:43:01Z</time>
      </trkpt>
      <trkpt lat="48.15084" lon="-3.30338">
        <ele>250.5</ele>
        <time>2024-11-20T15:43:02Z</time>
      </trkpt>
      <trkpt lat="48.15084" lon="-3.30338">
        <ele>250.5</ele>
        <time>2024-11-20T15:43:03Z</time>
      </trkpt>
      <trkpt lat="48.15084" lon="-3.30338">
        <ele>250.5</ele>
        <time>2024-11-20T15:43:04Z</time>
      </trkpt>
      <trkpt lat="48.15084" lon="-3.30338">
        <ele>250.5</ele>
        <time>2024-11-20T15:43:05Z</time>
      </trkpt>
      <trkpt lat="48.15084" lon="-3.30338">
        <ele>250.6</ele>
        <time>2024-11-20T15:43:06Z</time>
      </trkpt>
      <trkpt lat="48.15084" lon="-3.30338">
        <ele>250.6</ele>
        <time>2024-11-20T15:43:07Z</time>
      </trkpt>
      <trkpt lat="48.15084" lon="-3.30338">
        <ele>250.6</ele>
        <time>2024-11-20T15:43:08Z</time>
      </trkpt>
      <trkpt lat="48.15084" lon="-3.30338">
        <ele>250.6</ele>
        <time>2024-11-20T15:43:09Z</time>
      </trkpt>
      <trkpt lat="48.15084" lon="-3.30338">
        <ele>250.6</ele>
        <time>2024-11-20T15:43:10Z</time>
      </trkpt>
      <trkpt lat="48.15084" lon="-3.30338">
        <ele>250.6</ele>
        <time>2024-11-20T15:43:11Z</time>
      </trkpt>
      <trkpt lat="48.15084" lon="-3.30338">
        <ele>250.6</ele>
        <time>2024-11-20T15:43:12Z</time>
      </trkpt>
      <trkpt lat="48.15084" lon="-3.30338">
        <ele>250.6</ele>
        <time>2024-11-20T15:43:13Z</time>
      </trkpt>
      <trkpt lat="48.15084" lon="-3.30338">
        <ele>250.6</ele>
        <time>2024-11-20T15:43:14Z</time>
      </trkpt>
      <trkpt lat="48.15084" lon="-3.30338">
        <ele>250.6</ele>
        <time>2024-11-20T15:43:15Z</time>
      </trkpt>
      <trkpt lat="48.15084" lon="-3.30338">
        <ele>250.6</ele>
        <time>2024-11-20T15:43:16Z</time>
      </trkpt>
      <trkpt lat="48.15084" lon="-3.30338">
        <ele>250.5</ele>
        <time>2024-11-20T15:43:17Z</time>
      </trkpt>
      <trkpt lat="48.15084" lon="-3.30338">
        <ele>250.5</ele>
        <time>2024-11-20T15:43:18Z</time>
      </trkpt>
      <trkpt lat="48.15084" lon="-3.30338">
        <ele>250.5</ele>
        <time>2024-11-20T15:43:19Z</time>
      </trkpt>
      <trkpt lat="48.15084" lon="-3.30337">
        <ele>250.4</ele>
        <time>2024-11-20T15:43:20Z</time>
      </trkpt>
      <trkpt lat="48.15084" lon="-3.30336">
        <ele>250.3</ele>
        <time>2024-11-20T15:43:21Z</time>
      </trkpt>
      <trkpt lat="48.15084" lon="-3.30336">
        <ele>250.2</ele>
        <time>2024-11-20T15:43:22Z</time>
      </trkpt>
      <trkpt lat="48.15084" lon="-3.30335">
        <ele>250.1</ele>
        <time>2024-11-20T15:43:23Z</time>
      </trkpt>
      <trkpt lat="48.15084" lon="-3.30334">
        <ele>250</ele>
        <time>2024-11-20T15:43:24Z</time>
      </trkpt>
      <trkpt lat="48.15084" lon="-3.30334">
        <ele>250</ele>
        <time>2024-11-20T15:43:25Z</time>
      </trkpt>
      <trkpt lat="48.15084" lon="-3.30333">
        <ele>249.9</ele>
        <time>2024-11-20T15:43:26Z</time>
      </trkpt>
      <trkpt lat="48.15084" lon="-3.30333">
        <ele>250</ele>
        <time>2024-11-20T15:43:27Z</time>
      </trkpt>
      <trkpt lat="48.15084" lon="-3.30333">
        <ele>250</ele>
        <time>2024-11-20T15:43:28Z</time>
      </trkpt>
      <trkpt lat="48.15084" lon="-3.30332">
        <ele>250</ele>
        <time>2024-11-20T15:43:29Z</time>
      </trkpt>
      <trkpt lat="48.15084" lon="-3.30332">
        <ele>250</ele>
        <time>2024-11-20T15:43:30Z</time>
      </trkpt>
      <trkpt lat="48.15084" lon="-3.30331">
        <ele>250</ele>
        <time>2024-11-20T15:43:31Z</time>
      </trkpt>
      <trkpt lat="48.15084" lon="-3.30331">
        <ele>250</ele>
        <time>2024-11-20T15:43:32Z</time>
      </trkpt>
      <trkpt lat="48.15084" lon="-3.30331">
        <ele>250</ele>
        <time>2024-11-20T15:43:33Z</time>
      </trkpt>
      <trkpt lat="48.15084" lon="-3.30331">
        <ele>250</ele>
        <time>2024-11-20T15:43:34Z</time>
      </trkpt>
      <trkpt lat="48.15084" lon="-3.30331">
        <ele>250</ele>
        <time>2024-11-20T15:43:35Z</time>
      </trkpt>
      <trkpt lat="48.15084" lon="-3.30331">
        <ele>250</ele>
        <time>2024-11-20T15:43:36Z</time>
      </trkpt>
      <trkpt lat="48.15085" lon="-3.30331">
        <ele>250</ele>
        <time>2024-11-20T15:43:37Z</time>
      </trkpt>
      <trkpt lat="48.15085" lon="-3.3033">
        <ele>250</ele>
        <time>2024-11-20T15:43:38Z</time>
      </trkpt>
      <trkpt lat="48.15085" lon="-3.3033">
        <ele>250</ele>
        <time>2024-11-20T15:43:39Z</time>
      </trkpt>
      <trkpt lat="48.15085" lon="-3.3033">
        <ele>250</ele>
        <time>2024-11-20T15:43:40Z</time>
      </trkpt>
      <trkpt lat="48.15085" lon="-3.30329">
        <ele>250</ele>
        <time>2024-11-20T15:43:41Z</time>
      </trkpt>
      <trkpt lat="48.15085" lon="-3.30329">
        <ele>250</ele>
        <time>2024-11-20T15:43:42Z</time>
      </trkpt>
      <trkpt lat="48.15085" lon="-3.30328">
        <ele>250</ele>
        <time>2024-11-20T15:43:43Z</time>
      </trkpt>
      <trkpt lat="48.15085" lon="-3.30328">
        <ele>250</ele>
        <time>2024-11-20T15:43:44Z</time>
      </trkpt>
      <trkpt lat="48.15086" lon="-3.30328">
        <ele>250</ele>
        <time>2024-11-20T15:43:45Z</time>
      </trkpt>
      <trkpt lat="48.15086" lon="-3.30327">
        <ele>250</ele>
        <time>2024-11-20T15:43:46Z</time>
      </trkpt>
      <trkpt lat="48.15086" lon="-3.30327">
        <ele>250</ele>
        <time>2024-11-20T15:43:47Z</time>
      </trkpt>
      <trkpt lat="48.15086" lon="-3.30327">
        <ele>250</ele>
        <time>2024-11-20T15:43:48Z</time>
      </trkpt>
      <trkpt lat="48.15086" lon="-3.30327">
        <ele>250</ele>
        <time>2024-11-20T15:43:49Z</time>
      </trkpt>
      <trkpt lat="48.15086" lon="-3.30327">
        <ele>250</ele>
        <time>2024-11-20T15:43:50Z</time>
      </trkpt>
      <trkpt lat="48.15086" lon="-3.30327">
        <ele>250</ele>
        <time>2024-11-20T15:43:51Z</time>
      </trkpt>
      <trkpt lat="48.15086" lon="-3.30326">
        <ele>250.1</ele>
        <time>2024-11-20T15:43:52Z</time>
      </trkpt>
      <trkpt lat="48.15086" lon="-3.30326">
        <ele>250.1</ele>
        <time>2024-11-20T15:43:53Z</time>
      </trkpt>
      <trkpt lat="48.15086" lon="-3.30326">
        <ele>250.1</ele>
        <time>2024-11-20T15:43:54Z</time>
      </trkpt>
      <trkpt lat="48.15086" lon="-3.30326">
        <ele>250.1</ele>
        <time>2024-11-20T15:43:55Z</time>
      </trkpt>
      <trkpt lat="48.15086" lon="-3.30326">
        <ele>250.1</ele>
        <time>2024-11-20T15:43:56Z</time>
      </trkpt>
      <trkpt lat="48.15086" lon="-3.30326">
        <ele>250.1</ele>
        <time>2024-11-20T15:43:57Z</time>
      </trkpt>
      <trkpt lat="48.15086" lon="-3.30326">
        <ele>250.1</ele>
        <time>2024-11-20T15:43:58Z</time>
      </trkpt>
      <trkpt lat="48.15086" lon="-3.30326">
        <ele>250.1</ele>
        <time>2024-11-20T15:43:59Z</time>
      </trkpt>
      <trkpt lat="48.15086" lon="-3.30326">
        <ele>250.1</ele>
        <time>2024-11-20T15:44:00Z</time>
      </trkpt>
      <trkpt lat="48.15086" lon="-3.30326">
        <ele>250.1</ele>
        <time>2024-11-20T15:44:01Z</time>
      </trkpt>
      <trkpt lat="48.15086" lon="-3.30326">
        <ele>250.1</ele>
        <time>2024-11-20T15:44:02Z</time>
      </trkpt>
      <trkpt lat="48.15086" lon="-3.30326">
        <ele>250.1</ele>
        <time>2024-11-20T15:44:03Z</time>
      </trkpt>
      <trkpt lat="48.15086" lon="-3.30326">
        <ele>250.1</ele>
        <time>2024-11-20T15:44:04Z</time>
      </trkpt>
      <trkpt lat="48.15086" lon="-3.30326">
        <ele>250.1</ele>
        <time>2024-11-20T15:44:05Z</time>
      </trkpt>
      <trkpt lat="48.15086" lon="-3.30326">
        <ele>250.1</ele>
        <time>2024-11-20T15:44:06Z</time>
      </trkpt>
      <trkpt lat="48.15086" lon="-3.30326">
        <ele>250.1</ele>
        <time>2024-11-20T15:44:07Z</time>
      </trkpt>
      <trkpt lat="48.15086" lon="-3.30326">
        <ele>250.1</ele>
        <time>2024-11-20T15:44:08Z</time>
      </trkpt>
      <trkpt lat="48.15086" lon="-3.30326">
        <ele>250.1</ele>
        <time>2024-11-20T15:44:09Z</time>
      </trkpt>
      <trkpt lat="48.15086" lon="-3.30326">
        <ele>250.1</ele>
        <time>2024-11-20T15:44:10Z</time>
      </trkpt>
      <trkpt lat="48.15086" lon="-3.30326">
        <ele>250.1</ele>
        <time>2024-11-20T15:44:11Z</time>
      </trkpt>
      <trkpt lat="48.15086" lon="-3.30326">
        <ele>250</ele>
        <time>2024-11-20T15:44:12Z</time>
      </trkpt>
      <trkpt lat="48.15086" lon="-3.30326">
        <ele>250</ele>
        <time>2024-11-20T15:44:13Z</time>
      </trkpt>
      <trkpt lat="48.15086" lon="-3.30327">
        <ele>250</ele>
        <time>2024-11-20T15:44:14Z</time>
      </trkpt>
      <trkpt lat="48.15086" lon="-3.30327">
        <ele>250</ele>
        <time>2024-11-20T15:44:15Z</time>
      </trkpt>
      <trkpt lat="48.15086" lon="-3.30327">
        <ele>250</ele>
        <time>2024-11-20T15:44:16Z</time>
      </trkpt>
      <trkpt lat="48.15086" lon="-3.30327">
        <ele>250</ele>
        <time>2024-11-20T15:44:17Z</time>
      </trkpt>
      <trkpt lat="48.15086" lon="-3.30327">
        <ele>250</ele>
        <time>2024-11-20T15:44:18Z</time>
      </trkpt>
      <trkpt lat="48.15086" lon="-3.30327">
        <ele>250</ele>
        <time>2024-11-20T15:44:19Z</time>
      </trkpt>
      <trkpt lat="48.15086" lon="-3.30327">
        <ele>250</ele>
        <time>2024-11-20T15:44:20Z</time>
      </trkpt>
      <trkpt lat="48.15086" lon="-3.30327">
        <ele>250</ele>
        <time>2024-11-20T15:44:21Z</time>
      </trkpt>
      <trkpt lat="48.15086" lon="-3.30327">
        <ele>250.1</ele>
        <time>2024-11-20T15:44:22Z</time>
      </trkpt>
      <trkpt lat="48.15086" lon="-3.30327">
        <ele>250.1</ele>
        <time>2024-11-20T15:44:23Z</time>
      </trkpt>
      <trkpt lat="48.15086" lon="-3.30327">
        <ele>250.1</ele>
        <time>2024-11-20T15:44:24Z</time>
      </trkpt>
      <trkpt lat="48.15086" lon="-3.30327">
        <ele>250.1</ele>
        <time>2024-11-20T15:44:25Z</time>
      </trkpt>
      <trkpt lat="48.15085" lon="-3.30326">
        <ele>250.1</ele>
        <time>2024-11-20T15:44:26Z</time>
      </trkpt>
      <trkpt lat="48.15085" lon="-3.30326">
        <ele>250.1</ele>
        <time>2024-11-20T15:44:27Z</time>
      </trkpt>
      <trkpt lat="48.15085" lon="-3.30326">
        <ele>250.2</ele>
        <time>2024-11-20T15:44:28Z</time>
      </trkpt>
      <trkpt lat="48.15086" lon="-3.30326">
        <ele>250.1</ele>
        <time>2024-11-20T15:44:29Z</time>
      </trkpt>
      <trkpt lat="48.15085" lon="-3.30325">
        <ele>250.2</ele>
        <time>2024-11-20T15:44:30Z</time>
      </trkpt>
      <trkpt lat="48.15085" lon="-3.30325">
        <ele>250.2</ele>
        <time>2024-11-20T15:44:31Z</time>
      </trkpt>
      <trkpt lat="48.15085" lon="-3.30325">
        <ele>250.2</ele>
        <time>2024-11-20T15:44:32Z</time>
      </trkpt>
      <trkpt lat="48.15085" lon="-3.30325">
        <ele>250.3</ele>
        <time>2024-11-20T15:44:33Z</time>
      </trkpt>
      <trkpt lat="48.15085" lon="-3.30325">
        <ele>250.3</ele>
        <time>2024-11-20T15:44:34Z</time>
      </trkpt>
      <trkpt lat="48.15085" lon="-3.30325">
        <ele>250.3</ele>
        <time>2024-11-20T15:44:35Z</time>
      </trkpt>
      <trkpt lat="48.15085" lon="-3.30325">
        <ele>250.3</ele>
        <time>2024-11-20T15:44:36Z</time>
      </trkpt>
      <trkpt lat="48.15085" lon="-3.30325">
        <ele>250.3</ele>
        <time>2024-11-20T15:44:37Z</time>
      </trkpt>
      <trkpt lat="48.15085" lon="-3.30325">
        <ele>250.3</ele>
        <time>2024-11-20T15:44:38Z</time>
      </trkpt>
      <trkpt lat="48.15085" lon="-3.30325">
        <ele>250.3</ele>
        <time>2024-11-20T15:44:39Z</time>
      </trkpt>
      <trkpt lat="48.15085" lon="-3.30325">
        <ele>250.3</ele>
        <time>2024-11-20T15:44:40Z</time>
      </trkpt>
      <trkpt lat="48.15085" lon="-3.30325">
        <ele>250.3</ele>
        <time>2024-11-20T15:44:41Z</time>
      </trkpt>
      <trkpt lat="48.15085" lon="-3.30324">
        <ele>250.3</ele>
        <time>2024-11-20T15:44:42Z</time>
      </trkpt>
      <trkpt lat="48.15085" lon="-3.30324">
        <ele>250.3</ele>
        <time>2024-11-20T15:44:43Z</time>
      </trkpt>
      <trkpt lat="48.15085" lon="-3.30324">
        <ele>250.3</ele>
        <time>2024-11-20T15:44:44Z</time>
      </trkpt>
      <trkpt lat="48.15085" lon="-3.30324">
        <ele>250.3</ele>
        <time>2024-11-20T15:44:45Z</time>
      </trkpt>
      <trkpt lat="48.15085" lon="-3.30324">
        <ele>250.3</ele>
        <time>2024-11-20T15:44:46Z</time>
      </trkpt>
      <trkpt lat="48.15085" lon="-3.30324">
        <ele>250.3</ele>
        <time>2024-11-20T15:44:47Z</time>
      </trkpt>
      <trkpt lat="48.15085" lon="-3.30324">
        <ele>250.3</ele>
        <time>2024-11-20T15:44:48Z</time>
      </trkpt>
      <trkpt lat="48.15085" lon="-3.30325">
        <ele>250.3</ele>
        <time>2024-11-20T15:44:49Z</time>
      </trkpt>
      <trkpt lat="48.15085" lon="-3.30325">
        <ele>250.3</ele>
        <time>2024-11-20T15:44:50Z</time>
      </trkpt>
      <trkpt lat="48.15085" lon="-3.30325">
        <ele>250.3</ele>
        <time>2024-11-20T15:44:51Z</time>
      </trkpt>
      <trkpt lat="48.15085" lon="-3.30325">
        <ele>250.3</ele>
        <time>2024-11-20T15:44:52Z</time>
      </trkpt>
      <trkpt lat="48.15085" lon="-3.30325">
        <ele>250.3</ele>
        <time>2024-11-20T15:44:53Z</time>
      </trkpt>
      <trkpt lat="48.15085" lon="-3.30325">
        <ele>250.3</ele>
        <time>2024-11-20T15:44:54Z</time>
      </trkpt>
      <trkpt lat="48.15085" lon="-3.30325">
        <ele>250.3</ele>
        <time>2024-11-20T15:44:55Z</time>
      </trkpt>
      <trkpt lat="48.15085" lon="-3.30325">
        <ele>250.3</ele>
        <time>2024-11-20T15:44:56Z</time>
      </trkpt>
      <trkpt lat="48.15085" lon="-3.30325">
        <ele>250.3</ele>
        <time>2024-11-20T15:44:57Z</time>
      </trkpt>
      <trkpt lat="48.15085" lon="-3.30325">
        <ele>250.3</ele>
        <time>2024-11-20T15:44:58Z</time>
      </trkpt>
      <trkpt lat="48.15085" lon="-3.30325">
        <ele>250.3</ele>
        <time>2024-11-20T15:44:59Z</time>
      </trkpt>
      <trkpt lat="48.15085" lon="-3.30325">
        <ele>250.3</ele>
        <time>2024-11-20T15:45:00Z</time>
      </trkpt>
      <trkpt lat="48.15085" lon="-3.30325">
        <ele>250.3</ele>
        <time>2024-11-20T15:45:01Z</time>
      </trkpt>
      <trkpt lat="48.15085" lon="-3.30325">
        <ele>250.3</ele>
        <time>2024-11-20T15:45:02Z</time>
      </trkpt>
      <trkpt lat="48.15085" lon="-3.30325">
        <ele>250.3</ele>
        <time>2024-11-20T15:45:03Z</time>
      </trkpt>
      <trkpt lat="48.15085" lon="-3.30325">
        <ele>250.3</ele>
        <time>2024-11-20T15:45:04Z</time>
      </trkpt>
      <trkpt lat="48.15085" lon="-3.30325">
        <ele>250.3</ele>
        <time>2024-11-20T15:45:05Z</time>
      </trkpt>
      <trkpt lat="48.15085" lon="-3.30325">
        <ele>250.3</ele>
        <time>2024-11-20T15:45:06Z</time>
      </trkpt>
      <trkpt lat="48.15085" lon="-3.30325">
        <ele>250.3</ele>
        <time>2024-11-20T15:45:07Z</time>
      </trkpt>
      <trkpt lat="48.15085" lon="-3.30326">
        <ele>250.2</ele>
        <time>2024-11-20T15:45:08Z</time>
      </trkpt>
      <trkpt lat="48.15086" lon="-3.30329">
        <ele>249.8</ele>
        <time>2024-11-20T15:45:12Z</time>
      </trkpt>
      <trkpt lat="48.15086" lon="-3.3033">
        <ele>249.7</ele>
        <time>2024-11-20T15:45:13Z</time>
      </trkpt>
      <trkpt lat="48.15086" lon="-3.3033">
        <ele>249.7</ele>
        <time>2024-11-20T15:45:14Z</time>
      </trkpt>
      <trkpt lat="48.15086" lon="-3.3033">
        <ele>249.7</ele>
        <time>2024-11-20T15:45:15Z</time>
      </trkpt>
      <trkpt lat="48.15086" lon="-3.3033">
        <ele>249.7</ele>
        <time>2024-11-20T15:45:16Z</time>
      </trkpt>
      <trkpt lat="48.15086" lon="-3.3033">
        <ele>249.7</ele>
        <time>2024-11-20T15:45:17Z</time>
      </trkpt>
      <trkpt lat="48.15086" lon="-3.3033">
        <ele>249.7</ele>
        <time>2024-11-20T15:45:18Z</time>
      </trkpt>
      <trkpt lat="48.15086" lon="-3.30329">
        <ele>249.7</ele>
        <time>2024-11-20T15:45:19Z</time>
      </trkpt>
      <trkpt lat="48.15086" lon="-3.30329">
        <ele>249.8</ele>
        <time>2024-11-20T15:45:20Z</time>
      </trkpt>
      <trkpt lat="48.15086" lon="-3.30329">
        <ele>249.8</ele>
        <time>2024-11-20T15:45:21Z</time>
      </trkpt>
      <trkpt lat="48.15086" lon="-3.30328">
        <ele>249.9</ele>
        <time>2024-11-20T15:45:22Z</time>
      </trkpt>
      <trkpt lat="48.15086" lon="-3.30328">
        <ele>249.9</ele>
        <time>2024-11-20T15:45:23Z</time>
      </trkpt>
      <trkpt lat="48.15086" lon="-3.30328">
        <ele>250</ele>
        <time>2024-11-20T15:45:24Z</time>
      </trkpt>
      <trkpt lat="48.15086" lon="-3.30327">
        <ele>250</ele>
        <time>2024-11-20T15:45:25Z</time>
      </trkpt>
      <trkpt lat="48.15086" lon="-3.30327">
        <ele>250</ele>
        <time>2024-11-20T15:45:26Z</time>
      </trkpt>
      <trkpt lat="48.15086" lon="-3.30327">
        <ele>250</ele>
        <time>2024-11-20T15:45:27Z</time>
      </trkpt>
      <trkpt lat="48.15086" lon="-3.30327">
        <ele>250.1</ele>
        <time>2024-11-20T15:45:28Z</time>
      </trkpt>
      <trkpt lat="48.15086" lon="-3.30327">
        <ele>250.1</ele>
        <time>2024-11-20T15:45:29Z</time>
      </trkpt>
      <trkpt lat="48.15086" lon="-3.30327">
        <ele>250.1</ele>
        <time>2024-11-20T15:45:30Z</time>
      </trkpt>
      <trkpt lat="48.15086" lon="-3.30327">
        <ele>250.1</ele>
        <time>2024-11-20T15:45:31Z</time>
      </trkpt>
      <trkpt lat="48.15086" lon="-3.30327">
        <ele>250.1</ele>
        <time>2024-11-20T15:45:32Z</time>
      </trkpt>
      <trkpt lat="48.15086" lon="-3.30326">
        <ele>250.1</ele>
        <time>2024-11-20T15:45:33Z</time>
      </trkpt>
      <trkpt lat="48.15086" lon="-3.30326">
        <ele>250.1</ele>
        <time>2024-11-20T15:45:34Z</time>
      </trkpt>
      <trkpt lat="48.15086" lon="-3.30326">
        <ele>250.1</ele>
        <time>2024-11-20T15:45:35Z</time>
      </trkpt>
      <trkpt lat="48.15086" lon="-3.30326">
        <ele>250.1</ele>
        <time>2024-11-20T15:45:36Z</time>
      </trkpt>
      <trkpt lat="48.15086" lon="-3.30326">
        <ele>250.1</ele>
        <time>2024-11-20T15:45:37Z</time>
      </trkpt>
      <trkpt lat="48.15086" lon="-3.30327">
        <ele>250.1</ele>
        <time>2024-11-20T15:45:38Z</time>
      </trkpt>
      <trkpt lat="48.15085" lon="-3.30326">
        <ele>250.1</ele>
        <time>2024-11-20T15:45:39Z</time>
      </trkpt>
      <trkpt lat="48.15086" lon="-3.30327">
        <ele>250</ele>
        <time>2024-11-20T15:45:40Z</time>
      </trkpt>
      <trkpt lat="48.15085" lon="-3.30327">
        <ele>250.1</ele>
        <time>2024-11-20T15:45:41Z</time>
      </trkpt>
      <trkpt lat="48.15085" lon="-3.30327">
        <ele>250.1</ele>
        <time>2024-11-20T15:45:42Z</time>
      </trkpt>
      <trkpt lat="48.15085" lon="-3.30327">
        <ele>250.1</ele>
        <time>2024-11-20T15:45:43Z</time>
      </trkpt>
      <trkpt lat="48.15085" lon="-3.30327">
        <ele>250.1</ele>
        <time>2024-11-20T15:45:44Z</time>
      </trkpt>
      <trkpt lat="48.15085" lon="-3.30326">
        <ele>250.2</ele>
        <time>2024-11-20T15:45:45Z</time>
      </trkpt>
      <trkpt lat="48.15085" lon="-3.30326">
        <ele>250.2</ele>
        <time>2024-11-20T15:45:46Z</time>
      </trkpt>
      <trkpt lat="48.15085" lon="-3.30326">
        <ele>250.2</ele>
        <time>2024-11-20T15:45:47Z</time>
      </trkpt>
      <trkpt lat="48.15085" lon="-3.30326">
        <ele>250.2</ele>
        <time>2024-11-20T15:45:48Z</time>
      </trkpt>
      <trkpt lat="48.15085" lon="-3.30325">
        <ele>250.2</ele>
        <time>2024-11-20T15:45:49Z</time>
      </trkpt>
      <trkpt lat="48.15085" lon="-3.30325">
        <ele>250.3</ele>
        <time>2024-11-20T15:45:50Z</time>
      </trkpt>
      <trkpt lat="48.15085" lon="-3.30325">
        <ele>250.3</ele>
        <time>2024-11-20T15:45:51Z</time>
      </trkpt>
      <trkpt lat="48.15085" lon="-3.30325">
        <ele>250.3</ele>
        <time>2024-11-20T15:45:52Z</time>
      </trkpt>
      <trkpt lat="48.15085" lon="-3.30326">
        <ele>250.3</ele>
        <time>2024-11-20T15:45:53Z</time>
      </trkpt>
      <trkpt lat="48.15085" lon="-3.30326">
        <ele>250.3</ele>
        <time>2024-11-20T15:45:54Z</time>
      </trkpt>
      <trkpt lat="48.15085" lon="-3.30328">
        <ele>250.2</ele>
        <time>2024-11-20T15:45:55Z</time>
      </trkpt>
      <trkpt lat="48.15084" lon="-3.30329">
        <ele>250.1</ele>
        <time>2024-11-20T15:45:56Z</time>
      </trkpt>
      <trkpt lat="48.15085" lon="-3.3033">
        <ele>250</ele>
        <time>2024-11-20T15:45:57Z</time>
      </trkpt>
      <trkpt lat="48.15085" lon="-3.3033">
        <ele>250</ele>
        <time>2024-11-20T15:45:58Z</time>
      </trkpt>
      <trkpt lat="48.15085" lon="-3.30331">
        <ele>249.9</ele>
        <time>2024-11-20T15:45:59Z</time>
      </trkpt>
      <trkpt lat="48.15085" lon="-3.30333">
        <ele>249.8</ele>
        <time>2024-11-20T15:46:00Z</time>
      </trkpt>
      <trkpt lat="48.15085" lon="-3.30334">
        <ele>249.8</ele>
        <time>2024-11-20T15:46:01Z</time>
      </trkpt>
      <trkpt lat="48.15085" lon="-3.30335">
        <ele>250</ele>
        <time>2024-11-20T15:46:02Z</time>
      </trkpt>
      <trkpt lat="48.15085" lon="-3.30336">
        <ele>250.1</ele>
        <time>2024-11-20T15:46:03Z</time>
      </trkpt>
      <trkpt lat="48.15084" lon="-3.30336">
        <ele>250.3</ele>
        <time>2024-11-20T15:46:04Z</time>
      </trkpt>
      <trkpt lat="48.15084" lon="-3.30337">
        <ele>250.3</ele>
        <time>2024-11-20T15:46:05Z</time>
      </trkpt>
      <trkpt lat="48.15084" lon="-3.30338">
        <ele>250.6</ele>
        <time>2024-11-20T15:46:06Z</time>
      </trkpt>
      <trkpt lat="48.15083" lon="-3.30339">
        <ele>250.8</ele>
        <time>2024-11-20T15:46:07Z</time>
      </trkpt>
      <trkpt lat="48.15083" lon="-3.30339">
        <ele>250.9</ele>
        <time>2024-11-20T15:46:08Z</time>
      </trkpt>
      <trkpt lat="48.15082" lon="-3.30338">
        <ele>251</ele>
        <time>2024-11-20T15:46:09Z</time>
      </trkpt>
      <trkpt lat="48.15082" lon="-3.30338">
        <ele>251.1</ele>
        <time>2024-11-20T15:46:10Z</time>
      </trkpt>
      <trkpt lat="48.15082" lon="-3.30338">
        <ele>251.1</ele>
        <time>2024-11-20T15:46:11Z</time>
      </trkpt>
      <trkpt lat="48.15082" lon="-3.30338">
        <ele>251.3</ele>
        <time>2024-11-20T15:46:12Z</time>
      </trkpt>
      <trkpt lat="48.15081" lon="-3.30339">
        <ele>251.6</ele>
        <time>2024-11-20T15:46:13Z</time>
      </trkpt>
      <trkpt lat="48.1508" lon="-3.30339">
        <ele>251.8</ele>
        <time>2024-11-20T15:46:14Z</time>
      </trkpt>
      <trkpt lat="48.1508" lon="-3.3034">
        <ele>252.1</ele>
        <time>2024-11-20T15:46:15Z</time>
      </trkpt>
      <trkpt lat="48.1508" lon="-3.3034">
        <ele>252.2</ele>
        <time>2024-11-20T15:46:16Z</time>
      </trkpt>
      <trkpt lat="48.15079" lon="-3.3034">
        <ele>252.3</ele>
        <time>2024-11-20T15:46:17Z</time>
      </trkpt>
      <trkpt lat="48.15079" lon="-3.30341">
        <ele>252.4</ele>
        <time>2024-11-20T15:46:18Z</time>
      </trkpt>
      <trkpt lat="48.15079" lon="-3.30341">
        <ele>252.7</ele>
        <time>2024-11-20T15:46:19Z</time>
      </trkpt>
      <trkpt lat="48.15078" lon="-3.30342">
        <ele>252.9</ele>
        <time>2024-11-20T15:46:20Z</time>
      </trkpt>
      <trkpt lat="48.15078" lon="-3.30342">
        <ele>253.1</ele>
        <time>2024-11-20T15:46:21Z</time>
      </trkpt>
      <trkpt lat="48.15077" lon="-3.30343">
        <ele>253.4</ele>
        <time>2024-11-20T15:46:22Z</time>
      </trkpt>
      <trkpt lat="48.15076" lon="-3.30343">
        <ele>253.6</ele>
        <time>2024-11-20T15:46:23Z</time>
      </trkpt>
      <trkpt lat="48.15076" lon="-3.30343">
        <ele>253.9</ele>
        <time>2024-11-20T15:46:24Z</time>
      </trkpt>
      <trkpt lat="48.15075" lon="-3.30344">
        <ele>254.1</ele>
        <time>2024-11-20T15:46:25Z</time>
      </trkpt>
      <trkpt lat="48.15075" lon="-3.30344">
        <ele>254.4</ele>
        <time>2024-11-20T15:46:26Z</time>
      </trkpt>
      <trkpt lat="48.15074" lon="-3.30344">
        <ele>254.5</ele>
        <time>2024-11-20T15:46:27Z</time>
      </trkpt>
      <trkpt lat="48.15073" lon="-3.30344">
        <ele>254.8</ele>
        <time>2024-11-20T15:46:28Z</time>
      </trkpt>
      <trkpt lat="48.15072" lon="-3.30344">
        <ele>255.1</ele>
        <time>2024-11-20T15:46:29Z</time>
      </trkpt>
      <trkpt lat="48.15072" lon="-3.30344">
        <ele>255.3</ele>
        <time>2024-11-20T15:46:30Z</time>
      </trkpt>
      <trkpt lat="48.15071" lon="-3.30344">
        <ele>255.4</ele>
        <time>2024-11-20T15:46:31Z</time>
      </trkpt>
      <trkpt lat="48.15071" lon="-3.30344">
        <ele>255.5</ele>
        <time>2024-11-20T15:46:32Z</time>
      </trkpt>
      <trkpt lat="48.15071" lon="-3.30344">
        <ele>255.7</ele>
        <time>2024-11-20T15:46:33Z</time>
      </trkpt>
      <trkpt lat="48.1507" lon="-3.30344">
        <ele>255.8</ele>
        <time>2024-11-20T15:46:34Z</time>
      </trkpt>
      <trkpt lat="48.15069" lon="-3.30344">
        <ele>256.1</ele>
        <time>2024-11-20T15:46:35Z</time>
      </trkpt>
      <trkpt lat="48.15068" lon="-3.30344">
        <ele>256.3</ele>
        <time>2024-11-20T15:46:36Z</time>
      </trkpt>
      <trkpt lat="48.15068" lon="-3.30344">
        <ele>256.5</ele>
        <time>2024-11-20T15:46:37Z</time>
      </trkpt>
      <trkpt lat="48.15067" lon="-3.30343">
        <ele>256.6</ele>
        <time>2024-11-20T15:46:38Z</time>
      </trkpt>
      <trkpt lat="48.15067" lon="-3.30343">
        <ele>256.7</ele>
        <time>2024-11-20T15:46:39Z</time>
      </trkpt>
      <trkpt lat="48.15066" lon="-3.30342">
        <ele>257</ele>
        <time>2024-11-20T15:46:40Z</time>
      </trkpt>
      <trkpt lat="48.15065" lon="-3.30342">
        <ele>257.3</ele>
        <time>2024-11-20T15:46:41Z</time>
      </trkpt>
      <trkpt lat="48.15064" lon="-3.30342">
        <ele>257.5</ele>
        <time>2024-11-20T15:46:42Z</time>
      </trkpt>
      <trkpt lat="48.15064" lon="-3.30342">
        <ele>257.7</ele>
        <time>2024-11-20T15:46:43Z</time>
      </trkpt>
      <trkpt lat="48.15063" lon="-3.30342">
        <ele>257.8</ele>
        <time>2024-11-20T15:46:44Z</time>
      </trkpt>
      <trkpt lat="48.15063" lon="-3.30342">
        <ele>257.9</ele>
        <time>2024-11-20T15:46:45Z</time>
      </trkpt>
      <trkpt lat="48.15062" lon="-3.30341">
        <ele>258</ele>
        <time>2024-11-20T15:46:46Z</time>
      </trkpt>
      <trkpt lat="48.15062" lon="-3.30341">
        <ele>258.2</ele>
        <time>2024-11-20T15:46:47Z</time>
      </trkpt>
      <trkpt lat="48.15061" lon="-3.30341">
        <ele>258.4</ele>
        <time>2024-11-20T15:46:48Z</time>
      </trkpt>
      <trkpt lat="48.1506" lon="-3.3034">
        <ele>258.6</ele>
        <time>2024-11-20T15:46:49Z</time>
      </trkpt>
      <trkpt lat="48.1506" lon="-3.30339">
        <ele>258.7</ele>
        <time>2024-11-20T15:46:50Z</time>
      </trkpt>
      <trkpt lat="48.1506" lon="-3.30338">
        <ele>258.8</ele>
        <time>2024-11-20T15:46:51Z</time>
      </trkpt>
      <trkpt lat="48.15059" lon="-3.30337">
        <ele>258.8</ele>
        <time>2024-11-20T15:46:52Z</time>
      </trkpt>
      <trkpt lat="48.15059" lon="-3.30336">
        <ele>258.9</ele>
        <time>2024-11-20T15:46:53Z</time>
      </trkpt>
      <trkpt lat="48.15059" lon="-3.30335">
        <ele>258.9</ele>
        <time>2024-11-20T15:46:54Z</time>
      </trkpt>
      <trkpt lat="48.15058" lon="-3.30334">
        <ele>259</ele>
        <time>2024-11-20T15:46:55Z</time>
      </trkpt>
      <trkpt lat="48.15058" lon="-3.30332">
        <ele>259.2</ele>
        <time>2024-11-20T15:46:56Z</time>
      </trkpt>
      <trkpt lat="48.15057" lon="-3.30331">
        <ele>259.5</ele>
        <time>2024-11-20T15:46:57Z</time>
      </trkpt>
      <trkpt lat="48.15056" lon="-3.3033">
        <ele>259.8</ele>
        <time>2024-11-20T15:46:58Z</time>
      </trkpt>
      <trkpt lat="48.15055" lon="-3.30329">
        <ele>259.9</ele>
        <time>2024-11-20T15:46:59Z</time>
      </trkpt>
      <trkpt lat="48.15054" lon="-3.30328">
        <ele>259.9</ele>
        <time>2024-11-20T15:47:00Z</time>
      </trkpt>
      <trkpt lat="48.15054" lon="-3.30327">
        <ele>259.9</ele>
        <time>2024-11-20T15:47:01Z</time>
      </trkpt>
      <trkpt lat="48.15054" lon="-3.30327">
        <ele>259.9</ele>
        <time>2024-11-20T15:47:02Z</time>
      </trkpt>
      <trkpt lat="48.15053" lon="-3.30326">
        <ele>259.9</ele>
        <time>2024-11-20T15:47:03Z</time>
      </trkpt>
      <trkpt lat="48.15053" lon="-3.30326">
        <ele>259.9</ele>
        <time>2024-11-20T15:47:04Z</time>
      </trkpt>
      <trkpt lat="48.15052" lon="-3.30325">
        <ele>260</ele>
        <time>2024-11-20T15:47:05Z</time>
      </trkpt>
      <trkpt lat="48.15051" lon="-3.30324">
        <ele>260</ele>
        <time>2024-11-20T15:47:06Z</time>
      </trkpt>
      <trkpt lat="48.1505" lon="-3.30324">
        <ele>260.1</ele>
        <time>2024-11-20T15:47:07Z</time>
      </trkpt>
      <trkpt lat="48.15049" lon="-3.30323">
        <ele>260.1</ele>
        <time>2024-11-20T15:47:08Z</time>
      </trkpt>
      <trkpt lat="48.15048" lon="-3.30323">
        <ele>260.2</ele>
        <time>2024-11-20T15:47:09Z</time>
      </trkpt>
      <trkpt lat="48.15047" lon="-3.30323">
        <ele>260.3</ele>
        <time>2024-11-20T15:47:10Z</time>
      </trkpt>
      <trkpt lat="48.15046" lon="-3.30323">
        <ele>260.3</ele>
        <time>2024-11-20T15:47:11Z</time>
      </trkpt>
      <trkpt lat="48.15045" lon="-3.30322">
        <ele>260.4</ele>
        <time>2024-11-20T15:47:12Z</time>
      </trkpt>
      <trkpt lat="48.15044" lon="-3.30322">
        <ele>260.4</ele>
        <time>2024-11-20T15:47:13Z</time>
      </trkpt>
      <trkpt lat="48.15043" lon="-3.30322">
        <ele>260.5</ele>
        <time>2024-11-20T15:47:14Z</time>
      </trkpt>
      <trkpt lat="48.15042" lon="-3.30322">
        <ele>260.6</ele>
        <time>2024-11-20T15:47:15Z</time>
      </trkpt>
      <trkpt lat="48.15041" lon="-3.30322">
        <ele>260.6</ele>
        <time>2024-11-20T15:47:16Z</time>
      </trkpt>
      <trkpt lat="48.1504" lon="-3.30322">
        <ele>260.7</ele>
        <time>2024-11-20T15:47:17Z</time>
      </trkpt>
      <trkpt lat="48.15039" lon="-3.30322">
        <ele>260.8</ele>
        <time>2024-11-20T15:47:18Z</time>
      </trkpt>
      <trkpt lat="48.15039" lon="-3.30323">
        <ele>260.8</ele>
        <time>2024-11-20T15:47:19Z</time>
      </trkpt>
      <trkpt lat="48.15038" lon="-3.30324">
        <ele>260.9</ele>
        <time>2024-11-20T15:47:20Z</time>
      </trkpt>
      <trkpt lat="48.15037" lon="-3.30324">
        <ele>261</ele>
        <time>2024-11-20T15:47:21Z</time>
      </trkpt>
      <trkpt lat="48.15037" lon="-3.30325">
        <ele>261.1</ele>
        <time>2024-11-20T15:47:22Z</time>
      </trkpt>
      <trkpt lat="48.15036" lon="-3.30326">
        <ele>261.1</ele>
        <time>2024-11-20T15:47:23Z</time>
      </trkpt>
      <trkpt lat="48.15035" lon="-3.30327">
        <ele>261.2</ele>
        <time>2024-11-20T15:47:24Z</time>
      </trkpt>
      <trkpt lat="48.15035" lon="-3.30329">
        <ele>261.3</ele>
        <time>2024-11-20T15:47:25Z</time>
      </trkpt>
      <trkpt lat="48.15034" lon="-3.30329">
        <ele>261.4</ele>
        <time>2024-11-20T15:47:26Z</time>
      </trkpt>
      <trkpt lat="48.15034" lon="-3.3033">
        <ele>261.5</ele>
        <time>2024-11-20T15:47:27Z</time>
      </trkpt>
      <trkpt lat="48.15033" lon="-3.30331">
        <ele>261.5</ele>
        <time>2024-11-20T15:47:28Z</time>
      </trkpt>
      <trkpt lat="48.15033" lon="-3.30331">
        <ele>261.6</ele>
        <time>2024-11-20T15:47:29Z</time>
      </trkpt>
      <trkpt lat="48.15033" lon="-3.30332">
        <ele>261.6</ele>
        <time>2024-11-20T15:47:30Z</time>
      </trkpt>
      <trkpt lat="48.15032" lon="-3.30332">
        <ele>261.6</ele>
        <time>2024-11-20T15:47:31Z</time>
      </trkpt>
      <trkpt lat="48.15032" lon="-3.30332">
        <ele>261.6</ele>
        <time>2024-11-20T15:47:32Z</time>
      </trkpt>
      <trkpt lat="48.15032" lon="-3.30332">
        <ele>261.6</ele>
        <time>2024-11-20T15:47:33Z</time>
      </trkpt>
      <trkpt lat="48.15032" lon="-3.30332">
        <ele>261.7</ele>
        <time>2024-11-20T15:47:34Z</time>
      </trkpt>
      <trkpt lat="48.15032" lon="-3.30332">
        <ele>261.7</ele>
        <time>2024-11-20T15:47:35Z</time>
      </trkpt>
      <trkpt lat="48.15032" lon="-3.30332">
        <ele>261.6</ele>
        <time>2024-11-20T15:47:36Z</time>
      </trkpt>
      <trkpt lat="48.15032" lon="-3.30332">
        <ele>261.6</ele>
        <time>2024-11-20T15:47:37Z</time>
      </trkpt>
      <trkpt lat="48.15032" lon="-3.30332">
        <ele>261.6</ele>
        <time>2024-11-20T15:47:38Z</time>
      </trkpt>
      <trkpt lat="48.15032" lon="-3.30332">
        <ele>261.6</ele>
        <time>2024-11-20T15:47:39Z</time>
      </trkpt>
      <trkpt lat="48.15032" lon="-3.30331">
        <ele>261.6</ele>
        <time>2024-11-20T15:47:40Z</time>
      </trkpt>
      <trkpt lat="48.15032" lon="-3.30331">
        <ele>261.6</ele>
        <time>2024-11-20T15:47:41Z</time>
      </trkpt>
      <trkpt lat="48.15032" lon="-3.30331">
        <ele>261.6</ele>
        <time>2024-11-20T15:47:42Z</time>
      </trkpt>
      <trkpt lat="48.15032" lon="-3.30331">
        <ele>261.6</ele>
        <time>2024-11-20T15:47:43Z</time>
      </trkpt>
      <trkpt lat="48.15032" lon="-3.30331">
        <ele>261.6</ele>
        <time>2024-11-20T15:47:44Z</time>
      </trkpt>
      <trkpt lat="48.15032" lon="-3.30331">
        <ele>261.6</ele>
        <time>2024-11-20T15:47:45Z</time>
      </trkpt>
      <trkpt lat="48.15033" lon="-3.30331">
        <ele>261.6</ele>
        <time>2024-11-20T15:47:46Z</time>
      </trkpt>
      <trkpt lat="48.15033" lon="-3.30331">
        <ele>261.6</ele>
        <time>2024-11-20T15:47:47Z</time>
      </trkpt>
      <trkpt lat="48.15033" lon="-3.30331">
        <ele>261.5</ele>
        <time>2024-11-20T15:47:48Z</time>
      </trkpt>
      <trkpt lat="48.15033" lon="-3.30331">
        <ele>261.5</ele>
        <time>2024-11-20T15:47:49Z</time>
      </trkpt>
      <trkpt lat="48.15033" lon="-3.30331">
        <ele>261.5</ele>
        <time>2024-11-20T15:47:50Z</time>
      </trkpt>
      <trkpt lat="48.15033" lon="-3.30331">
        <ele>261.5</ele>
        <time>2024-11-20T15:47:51Z</time>
      </trkpt>
      <trkpt lat="48.15033" lon="-3.30331">
        <ele>261.5</ele>
        <time>2024-11-20T15:47:52Z</time>
      </trkpt>
      <trkpt lat="48.15033" lon="-3.30331">
        <ele>261.5</ele>
        <time>2024-11-20T15:47:53Z</time>
      </trkpt>
      <trkpt lat="48.15033" lon="-3.30331">
        <ele>261.5</ele>
        <time>2024-11-20T15:47:54Z</time>
      </trkpt>
    </trkseg>
  </trk>
</gpx>